﻿<?xml version="1.0" encoding="UTF-8"?>
<gpx xmlns="http://www.topografix.com/GPX/1/1" version="1.1">
<metadata>
</metadata>
<trk>
<name><![CDATA[Track2014/08/18_07:32-2]]></name>
<trkseg>
<trkpt lat="36.685434" lon="137.759145">
<ele>2654.397252</ele>
<time>2014-08-17T22:33:07Z</time>
<desc><![CDATA[lat.=36.685434, lon.=137.759145, Alt.=2654.397252m. Speed=1.000000m/h.]]></desc>
</trkpt>
<trkpt lat="36.685457" lon="137.759113">
<ele>2656.080332</ele>
<time>2014-08-17T22:33:12Z</time>
<desc><![CDATA[lat.=36.685457, lon.=137.759113, Alt.=2656.080332m. Speed=2.000000m/h.]]></desc>
</trkpt>
<trkpt lat="36.685483" lon="137.759090">
<ele>2657.224319</ele>
<time>2014-08-17T22:33:17Z</time>
<desc><![CDATA[lat.=36.685483, lon.=137.759090, Alt.=2657.224319m. Speed=2.000000m/h.]]></desc>
</trkpt>
<trkpt lat="36.685505" lon="137.759042">
<ele>2660.583015</ele>
<time>2014-08-17T22:33:22Z</time>
<desc><![CDATA[lat.=36.685505, lon.=137.759042, Alt.=2660.583015m. Speed=2.000000m/h.]]></desc>
</trkpt>
<trkpt lat="36.685516" lon="137.759001">
<ele>2663.937979</ele>
<time>2014-08-17T22:33:27Z</time>
<desc><![CDATA[lat.=36.685516, lon.=137.759001, Alt.=2663.937979m. Speed=2.000000m/h.]]></desc>
</trkpt>
<trkpt lat="36.685532" lon="137.758953">
<ele>2666.699259</ele>
<time>2014-08-17T22:33:32Z</time>
<desc><![CDATA[lat.=36.685532, lon.=137.758953, Alt.=2666.699259m. Speed=3.000000m/h.]]></desc>
</trkpt>
<trkpt lat="36.685584" lon="137.758924">
<ele>2665.581433</ele>
<time>2014-08-17T22:33:37Z</time>
<desc><![CDATA[lat.=36.685584, lon.=137.758924, Alt.=2665.581433m. Speed=3.000000m/h.]]></desc>
</trkpt>
<trkpt lat="36.685628" lon="137.758893">
<ele>2667.326596</ele>
<time>2014-08-17T22:33:42Z</time>
<desc><![CDATA[lat.=36.685628, lon.=137.758893, Alt.=2667.326596m. Speed=3.000000m/h.]]></desc>
</trkpt>
<trkpt lat="36.685666" lon="137.758862">
<ele>2668.474340</ele>
<time>2014-08-17T22:33:47Z</time>
<desc><![CDATA[lat.=36.685666, lon.=137.758862, Alt.=2668.474340m. Speed=3.000000m/h.]]></desc>
</trkpt>
<trkpt lat="36.685711" lon="137.758815">
<ele>2670.164926</ele>
<time>2014-08-17T22:33:52Z</time>
<desc><![CDATA[lat.=36.685711, lon.=137.758815, Alt.=2670.164926m. Speed=4.000000m/h.]]></desc>
</trkpt>
<trkpt lat="36.685759" lon="137.758794">
<ele>2667.910601</ele>
<time>2014-08-17T22:33:57Z</time>
<desc><![CDATA[lat.=36.685759, lon.=137.758794, Alt.=2667.910601m. Speed=4.000000m/h.]]></desc>
</trkpt>
<trkpt lat="36.685800" lon="137.758754">
<ele>2671.925084</ele>
<time>2014-08-17T22:34:02Z</time>
<desc><![CDATA[lat.=36.685800, lon.=137.758754, Alt.=2671.925084m. Speed=4.000000m/h.]]></desc>
</trkpt>
<trkpt lat="36.685837" lon="137.758724">
<ele>2673.072845</ele>
<time>2014-08-17T22:34:07Z</time>
<desc><![CDATA[lat.=36.685837, lon.=137.758724, Alt.=2673.072845m. Speed=4.000000m/h.]]></desc>
</trkpt>
<trkpt lat="36.685863" lon="137.758685">
<ele>2674.162279</ele>
<time>2014-08-17T22:34:12Z</time>
<desc><![CDATA[lat.=36.685863, lon.=137.758685, Alt.=2674.162279m. Speed=4.000000m/h.]]></desc>
</trkpt>
<trkpt lat="36.685905" lon="137.758646">
<ele>2674.716369</ele>
<time>2014-08-17T22:34:17Z</time>
<desc><![CDATA[lat.=36.685905, lon.=137.758646, Alt.=2674.716369m. Speed=4.000000m/h.]]></desc>
</trkpt>
<trkpt lat="36.685950" lon="137.758618">
<ele>2671.270960</ele>
<time>2014-08-17T22:34:22Z</time>
<desc><![CDATA[lat.=36.685950, lon.=137.758618, Alt.=2671.270960m. Speed=4.000000m/h.]]></desc>
</trkpt>
<trkpt lat="36.685969" lon="137.758562">
<ele>2673.438599</ele>
<time>2014-08-17T22:34:27Z</time>
<desc><![CDATA[lat.=36.685969, lon.=137.758562, Alt.=2673.438599m. Speed=4.000000m/h.]]></desc>
</trkpt>
<trkpt lat="36.686015" lon="137.758533">
<ele>2669.993198</ele>
<time>2014-08-17T22:34:32Z</time>
<desc><![CDATA[lat.=36.686015, lon.=137.758533, Alt.=2669.993198m. Speed=4.000000m/h.]]></desc>
</trkpt>
<trkpt lat="36.686083" lon="137.758490">
<ele>2666.555311</ele>
<time>2014-08-17T22:34:37Z</time>
<desc><![CDATA[lat.=36.686083, lon.=137.758490, Alt.=2666.555311m. Speed=4.000000m/h.]]></desc>
</trkpt>
<trkpt lat="36.686121" lon="137.758443">
<ele>2667.648524</ele>
<time>2014-08-17T22:34:42Z</time>
<desc><![CDATA[lat.=36.686121, lon.=137.758443, Alt.=2667.648524m. Speed=5.000000m/h.]]></desc>
</trkpt>
<trkpt lat="36.686162" lon="137.758389">
<ele>2668.148068</ele>
<time>2014-08-17T22:34:47Z</time>
<desc><![CDATA[lat.=36.686162, lon.=137.758389, Alt.=2668.148068m. Speed=4.000000m/h.]]></desc>
</trkpt>
<trkpt lat="36.686196" lon="137.758351">
<ele>2668.104764</ele>
<time>2014-08-17T22:34:52Z</time>
<desc><![CDATA[lat.=36.686196, lon.=137.758351, Alt.=2668.104764m. Speed=4.000000m/h.]]></desc>
</trkpt>
<trkpt lat="36.686227" lon="137.758288">
<ele>2668.545986</ele>
<time>2014-08-17T22:34:57Z</time>
<desc><![CDATA[lat.=36.686227, lon.=137.758288, Alt.=2668.545986m. Speed=4.000000m/h.]]></desc>
</trkpt>
<trkpt lat="36.686257" lon="137.758242">
<ele>2669.041788</ele>
<time>2014-08-17T22:35:02Z</time>
<desc><![CDATA[lat.=36.686257, lon.=137.758242, Alt.=2669.041788m. Speed=4.000000m/h.]]></desc>
</trkpt>
<trkpt lat="36.686255" lon="137.758187">
<ele>2665.956759</ele>
<time>2014-08-17T22:35:07Z</time>
<desc><![CDATA[lat.=36.686255, lon.=137.758187, Alt.=2665.956759m. Speed=4.000000m/h.]]></desc>
</trkpt>
<trkpt lat="36.686261" lon="137.758133">
<ele>2663.469166</ele>
<time>2014-08-17T22:35:12Z</time>
<desc><![CDATA[lat.=36.686261, lon.=137.758133, Alt.=2663.469166m. Speed=4.000000m/h.]]></desc>
</trkpt>
<trkpt lat="36.686285" lon="137.758072">
<ele>2661.582771</ele>
<time>2014-08-17T22:35:17Z</time>
<desc><![CDATA[lat.=36.686285, lon.=137.758072, Alt.=2661.582771m. Speed=4.000000m/h.]]></desc>
</trkpt>
<trkpt lat="36.686308" lon="137.758008">
<ele>2663.156791</ele>
<time>2014-08-17T22:35:22Z</time>
<desc><![CDATA[lat.=36.686308, lon.=137.758008, Alt.=2663.156791m. Speed=4.000000m/h.]]></desc>
</trkpt>
<trkpt lat="36.686324" lon="137.757962">
<ele>2662.457747</ele>
<time>2014-08-17T22:35:27Z</time>
<desc><![CDATA[lat.=36.686324, lon.=137.757962, Alt.=2662.457747m. Speed=4.000000m/h.]]></desc>
</trkpt>
<trkpt lat="36.686303" lon="137.757914">
<ele>2662.231945</ele>
<time>2014-08-17T22:35:32Z</time>
<desc><![CDATA[lat.=36.686303, lon.=137.757914, Alt.=2662.231945m. Speed=4.000000m/h.]]></desc>
</trkpt>
<trkpt lat="36.686296" lon="137.757865">
<ele>2663.201014</ele>
<time>2014-08-17T22:35:37Z</time>
<desc><![CDATA[lat.=36.686296, lon.=137.757865, Alt.=2663.201014m. Speed=3.000000m/h.]]></desc>
</trkpt>
<trkpt lat="36.686291" lon="137.757819">
<ele>2660.709678</ele>
<time>2014-08-17T22:35:42Z</time>
<desc><![CDATA[lat.=36.686291, lon.=137.757819, Alt.=2660.709678m. Speed=3.000000m/h.]]></desc>
</trkpt>
<trkpt lat="36.686281" lon="137.757779">
<ele>2660.542217</ele>
<time>2014-08-17T22:35:47Z</time>
<desc><![CDATA[lat.=36.686281, lon.=137.757779, Alt.=2660.542217m. Speed=3.000000m/h.]]></desc>
</trkpt>
<trkpt lat="36.686289" lon="137.757749">
<ele>2657.570112</ele>
<time>2014-08-17T22:35:52Z</time>
<desc><![CDATA[lat.=36.686289, lon.=137.757749, Alt.=2657.570112m. Speed=3.000000m/h.]]></desc>
</trkpt>
<trkpt lat="36.686305" lon="137.757702">
<ele>2656.871083</ele>
<time>2014-08-17T22:35:57Z</time>
<desc><![CDATA[lat.=36.686305, lon.=137.757702, Alt.=2656.871083m. Speed=3.000000m/h.]]></desc>
</trkpt>
<trkpt lat="36.686321" lon="137.757639">
<ele>2657.847699</ele>
<time>2014-08-17T22:36:02Z</time>
<desc><![CDATA[lat.=36.686321, lon.=137.757639, Alt.=2657.847699m. Speed=3.000000m/h.]]></desc>
</trkpt>
<trkpt lat="36.686322" lon="137.757607">
<ele>2657.738575</ele>
<time>2014-08-17T22:36:07Z</time>
<desc><![CDATA[lat.=36.686322, lon.=137.757607, Alt.=2657.738575m. Speed=3.000000m/h.]]></desc>
</trkpt>
<trkpt lat="36.686319" lon="137.757585">
<ele>2654.762710</ele>
<time>2014-08-17T22:36:12Z</time>
<desc><![CDATA[lat.=36.686319, lon.=137.757585, Alt.=2654.762710m. Speed=3.000000m/h.]]></desc>
</trkpt>
<trkpt lat="36.686302" lon="137.757546">
<ele>2652.267622</ele>
<time>2014-08-17T22:36:17Z</time>
<desc><![CDATA[lat.=36.686302, lon.=137.757546, Alt.=2652.267622m. Speed=3.000000m/h.]]></desc>
</trkpt>
<trkpt lat="36.686300" lon="137.757507">
<ele>2649.237199</ele>
<time>2014-08-17T22:36:22Z</time>
<desc><![CDATA[lat.=36.686300, lon.=137.757507, Alt.=2649.237199m. Speed=3.000000m/h.]]></desc>
</trkpt>
<trkpt lat="36.686305" lon="137.757435">
<ele>2651.885707</ele>
<time>2014-08-17T22:36:27Z</time>
<desc><![CDATA[lat.=36.686305, lon.=137.757435, Alt.=2651.885707m. Speed=3.000000m/h.]]></desc>
</trkpt>
<trkpt lat="36.686324" lon="137.757380">
<ele>2652.323237</ele>
<time>2014-08-17T22:36:32Z</time>
<desc><![CDATA[lat.=36.686324, lon.=137.757380, Alt.=2652.323237m. Speed=4.000000m/h.]]></desc>
</trkpt>
<trkpt lat="36.686344" lon="137.757325">
<ele>2652.760771</ele>
<time>2014-08-17T22:36:37Z</time>
<desc><![CDATA[lat.=36.686344, lon.=137.757325, Alt.=2652.760771m. Speed=4.000000m/h.]]></desc>
</trkpt>
<trkpt lat="36.686367" lon="137.757278">
<ele>2654.389407</ele>
<time>2014-08-17T22:36:42Z</time>
<desc><![CDATA[lat.=36.686367, lon.=137.757278, Alt.=2654.389407m. Speed=4.000000m/h.]]></desc>
</trkpt>
<trkpt lat="36.686375" lon="137.757214">
<ele>2656.498828</ele>
<time>2014-08-17T22:36:47Z</time>
<desc><![CDATA[lat.=36.686375, lon.=137.757214, Alt.=2656.498828m. Speed=4.000000m/h.]]></desc>
</trkpt>
<trkpt lat="36.686397" lon="137.757182">
<ele>2658.182025</ele>
<time>2014-08-17T22:36:52Z</time>
<desc><![CDATA[lat.=36.686397, lon.=137.757182, Alt.=2658.182025m. Speed=4.000000m/h.]]></desc>
</trkpt>
<trkpt lat="36.686409" lon="137.757143">
<ele>2659.806898</ele>
<time>2014-08-17T22:36:57Z</time>
<desc><![CDATA[lat.=36.686409, lon.=137.757143, Alt.=2659.806898m. Speed=3.000000m/h.]]></desc>
</trkpt>
<trkpt lat="36.686409" lon="137.757110">
<ele>2661.427998</ele>
<time>2014-08-17T22:37:02Z</time>
<desc><![CDATA[lat.=36.686409, lon.=137.757110, Alt.=2661.427998m. Speed=3.000000m/h.]]></desc>
</trkpt>
<trkpt lat="36.686432" lon="137.757096">
<ele>2659.705343</ele>
<time>2014-08-17T22:37:07Z</time>
<desc><![CDATA[lat.=36.686432, lon.=137.757096, Alt.=2659.705343m. Speed=3.000000m/h.]]></desc>
</trkpt>
<trkpt lat="36.686429" lon="137.757055">
<ele>2663.595759</ele>
<time>2014-08-17T22:37:12Z</time>
<desc><![CDATA[lat.=36.686429, lon.=137.757055, Alt.=2663.595759m. Speed=2.000000m/h.]]></desc>
</trkpt>
<trkpt lat="36.686447" lon="137.757031">
<ele>2664.142420</ele>
<time>2014-08-17T22:37:17Z</time>
<desc><![CDATA[lat.=36.686447, lon.=137.757031, Alt.=2664.142420m. Speed=2.000000m/h.]]></desc>
</trkpt>
<trkpt lat="36.686466" lon="137.757024">
<ele>2664.743631</ele>
<time>2014-08-17T22:37:22Z</time>
<desc><![CDATA[lat.=36.686466, lon.=137.757024, Alt.=2664.743631m. Speed=2.000000m/h.]]></desc>
</trkpt>
<trkpt lat="36.686470" lon="137.757000">
<ele>2665.825627</ele>
<time>2014-08-17T22:37:27Z</time>
<desc><![CDATA[lat.=36.686470, lon.=137.757000, Alt.=2665.825627m. Speed=2.000000m/h.]]></desc>
</trkpt>
<trkpt lat="36.686478" lon="137.756968">
<ele>2666.313964</ele>
<time>2014-08-17T22:37:32Z</time>
<desc><![CDATA[lat.=36.686478, lon.=137.756968, Alt.=2666.313964m. Speed=2.000000m/h.]]></desc>
</trkpt>
<trkpt lat="36.686482" lon="137.756927">
<ele>2669.071618</ele>
<time>2014-08-17T22:37:37Z</time>
<desc><![CDATA[lat.=36.686482, lon.=137.756927, Alt.=2669.071618m. Speed=2.000000m/h.]]></desc>
</trkpt>
<trkpt lat="36.686508" lon="137.756904">
<ele>2670.215721</ele>
<time>2014-08-17T22:37:42Z</time>
<desc><![CDATA[lat.=36.686508, lon.=137.756904, Alt.=2670.215721m. Speed=2.000000m/h.]]></desc>
</trkpt>
<trkpt lat="36.686519" lon="137.756881">
<ele>2670.164952</ele>
<time>2014-08-17T22:37:47Z</time>
<desc><![CDATA[lat.=36.686519, lon.=137.756881, Alt.=2670.164952m. Speed=2.000000m/h.]]></desc>
</trkpt>
<trkpt lat="36.686538" lon="137.756858">
<ele>2668.981416</ele>
<time>2014-08-17T22:37:52Z</time>
<desc><![CDATA[lat.=36.686538, lon.=137.756858, Alt.=2668.981416m. Speed=2.000000m/h.]]></desc>
</trkpt>
<trkpt lat="36.686546" lon="137.756826">
<ele>2671.199965</ele>
<time>2014-08-17T22:37:57Z</time>
<desc><![CDATA[lat.=36.686546, lon.=137.756826, Alt.=2671.199965m. Speed=2.000000m/h.]]></desc>
</trkpt>
<trkpt lat="36.686576" lon="137.756812">
<ele>2670.074758</ele>
<time>2014-08-17T22:38:02Z</time>
<desc><![CDATA[lat.=36.686576, lon.=137.756812, Alt.=2670.074758m. Speed=2.000000m/h.]]></desc>
</trkpt>
<trkpt lat="36.686562" lon="137.756778">
<ele>2672.231202</ele>
<time>2014-08-17T22:38:07Z</time>
<desc><![CDATA[lat.=36.686562, lon.=137.756778, Alt.=2672.231202m. Speed=2.000000m/h.]]></desc>
</trkpt>
<trkpt lat="36.686577" lon="137.756731">
<ele>2673.262443</ele>
<time>2014-08-17T22:38:12Z</time>
<desc><![CDATA[lat.=36.686577, lon.=137.756731, Alt.=2673.262443m. Speed=2.000000m/h.]]></desc>
</trkpt>
<trkpt lat="36.686595" lon="137.756723">
<ele>2675.593867</ele>
<time>2014-08-17T22:38:17Z</time>
<desc><![CDATA[lat.=36.686595, lon.=137.756723, Alt.=2675.593867m. Speed=2.000000m/h.]]></desc>
</trkpt>
<trkpt lat="36.686578" lon="137.756699">
<ele>2673.153355</ele>
<time>2014-08-17T22:38:22Z</time>
<desc><![CDATA[lat.=36.686578, lon.=137.756699, Alt.=2673.153355m. Speed=2.000000m/h.]]></desc>
</trkpt>
<trkpt lat="36.686585" lon="137.756684">
<ele>2673.696249</ele>
<time>2014-08-17T22:38:28Z</time>
<desc><![CDATA[lat.=36.686585, lon.=137.756684, Alt.=2673.696249m. Speed=2.000000m/h.]]></desc>
</trkpt>
<trkpt lat="36.686600" lon="137.756684">
<ele>2673.160919</ele>
<time>2014-08-17T22:38:33Z</time>
<desc><![CDATA[lat.=36.686600, lon.=137.756684, Alt.=2673.160919m. Speed=2.000000m/h.]]></desc>
</trkpt>
<trkpt lat="36.686608" lon="137.756652">
<ele>2675.379476</ele>
<time>2014-08-17T22:38:38Z</time>
<desc><![CDATA[lat.=36.686608, lon.=137.756652, Alt.=2675.379476m. Speed=2.000000m/h.]]></desc>
</trkpt>
<trkpt lat="36.686623" lon="137.756620">
<ele>2676.465267</ele>
<time>2014-08-17T22:38:43Z</time>
<desc><![CDATA[lat.=36.686623, lon.=137.756620, Alt.=2676.465267m. Speed=2.000000m/h.]]></desc>
</trkpt>
<trkpt lat="36.686619" lon="137.756612">
<ele>2677.004380</ele>
<time>2014-08-17T22:38:48Z</time>
<desc><![CDATA[lat.=36.686619, lon.=137.756612, Alt.=2677.004380m. Speed=1.000000m/h.]]></desc>
</trkpt>
<trkpt lat="36.686628" lon="137.756582">
<ele>2674.032325</ele>
<time>2014-08-17T22:38:53Z</time>
<desc><![CDATA[lat.=36.686628, lon.=137.756582, Alt.=2674.032325m. Speed=1.000000m/h.]]></desc>
</trkpt>
<trkpt lat="36.686654" lon="137.756560">
<ele>2673.446240</ele>
<time>2014-08-17T22:38:58Z</time>
<desc><![CDATA[lat.=36.686654, lon.=137.756560, Alt.=2673.446240m. Speed=2.000000m/h.]]></desc>
</trkpt>
<trkpt lat="36.686669" lon="137.756559">
<ele>2676.371322</ele>
<time>2014-08-17T22:39:03Z</time>
<desc><![CDATA[lat.=36.686669, lon.=137.756559, Alt.=2676.371322m. Speed=1.000000m/h.]]></desc>
</trkpt>
<trkpt lat="36.686668" lon="137.756558">
<ele>2678.101527</ele>
<time>2014-08-17T22:39:08Z</time>
<desc><![CDATA[lat.=36.686668, lon.=137.756558, Alt.=2678.101527m. Speed=0.000000m/h.]]></desc>
</trkpt>
<trkpt lat="36.686654" lon="137.756525">
<ele>2680.257979</ele>
<time>2014-08-17T22:39:13Z</time>
<desc><![CDATA[lat.=36.686654, lon.=137.756525, Alt.=2680.257979m. Speed=1.000000m/h.]]></desc>
</trkpt>
<trkpt lat="36.686662" lon="137.756493">
<ele>2680.746338</ele>
<time>2014-08-17T22:39:18Z</time>
<desc><![CDATA[lat.=36.686662, lon.=137.756493, Alt.=2680.746338m. Speed=1.000000m/h.]]></desc>
</trkpt>
<trkpt lat="36.686666" lon="137.756469">
<ele>2681.828352</ele>
<time>2014-08-17T22:39:23Z</time>
<desc><![CDATA[lat.=36.686666, lon.=137.756469, Alt.=2681.828352m. Speed=1.000000m/h.]]></desc>
</trkpt>
<trkpt lat="36.686669" lon="137.756461">
<ele>2682.964904</ele>
<time>2014-08-17T22:39:28Z</time>
<desc><![CDATA[lat.=36.686669, lon.=137.756461, Alt.=2682.964904m. Speed=1.000000m/h.]]></desc>
</trkpt>
<trkpt lat="36.686679" lon="137.756468">
<ele>2686.483639</ele>
<time>2014-08-17T22:39:33Z</time>
<desc><![CDATA[lat.=36.686679, lon.=137.756468, Alt.=2686.483639m. Speed=0.000000m/h.]]></desc>
</trkpt>
<trkpt lat="36.686702" lon="137.756453">
<ele>2686.491212</ele>
<time>2014-08-17T22:39:38Z</time>
<desc><![CDATA[lat.=36.686702, lon.=137.756453, Alt.=2686.491212m. Speed=1.000000m/h.]]></desc>
</trkpt>
<trkpt lat="36.686698" lon="137.756429">
<ele>2686.975787</ele>
<time>2014-08-17T22:39:43Z</time>
<desc><![CDATA[lat.=36.686698, lon.=137.756429, Alt.=2686.975787m. Speed=1.000000m/h.]]></desc>
</trkpt>
<trkpt lat="36.686676" lon="137.756395">
<ele>2690.265011</ele>
<time>2014-08-17T22:39:48Z</time>
<desc><![CDATA[lat.=36.686676, lon.=137.756395, Alt.=2690.265011m. Speed=1.000000m/h.]]></desc>
</trkpt>
<trkpt lat="36.686673" lon="137.756371">
<ele>2690.749588</ele>
<time>2014-08-17T22:39:53Z</time>
<desc><![CDATA[lat.=36.686673, lon.=137.756371, Alt.=2690.749588m. Speed=2.000000m/h.]]></desc>
</trkpt>
<trkpt lat="36.686688" lon="137.756356">
<ele>2690.159724</ele>
<time>2014-08-17T22:39:58Z</time>
<desc><![CDATA[lat.=36.686688, lon.=137.756356, Alt.=2690.159724m. Speed=2.000000m/h.]]></desc>
</trkpt>
<trkpt lat="36.686700" lon="137.756332">
<ele>2690.108975</ele>
<time>2014-08-17T22:40:03Z</time>
<desc><![CDATA[lat.=36.686700, lon.=137.756332, Alt.=2690.108975m. Speed=2.000000m/h.]]></desc>
</trkpt>
<trkpt lat="36.686730" lon="137.756318">
<ele>2688.983786</ele>
<time>2014-08-17T22:40:08Z</time>
<desc><![CDATA[lat.=36.686730, lon.=137.756318, Alt.=2688.983786m. Speed=2.000000m/h.]]></desc>
</trkpt>
<trkpt lat="36.686748" lon="137.756311">
<ele>2689.585014</ele>
<time>2014-08-17T22:40:13Z</time>
<desc><![CDATA[lat.=36.686748, lon.=137.756311, Alt.=2689.585014m. Speed=2.000000m/h.]]></desc>
</trkpt>
<trkpt lat="36.686760" lon="137.756288">
<ele>2687.804063</ele>
<time>2014-08-17T22:40:18Z</time>
<desc><![CDATA[lat.=36.686760, lon.=137.756288, Alt.=2687.804063m. Speed=2.000000m/h.]]></desc>
</trkpt>
<trkpt lat="36.686790" lon="137.756290">
<ele>2685.003208</ele>
<time>2014-08-17T22:40:23Z</time>
<desc><![CDATA[lat.=36.686790, lon.=137.756290, Alt.=2685.003208m. Speed=1.000000m/h.]]></desc>
</trkpt>
<trkpt lat="36.686798" lon="137.756258">
<ele>2687.221784</ele>
<time>2014-08-17T22:40:28Z</time>
<desc><![CDATA[lat.=36.686798, lon.=137.756258, Alt.=2687.221784m. Speed=2.000000m/h.]]></desc>
</trkpt>
<trkpt lat="36.686831" lon="137.756283">
<ele>2685.666556</ele>
<time>2014-08-17T22:40:33Z</time>
<desc><![CDATA[lat.=36.686831, lon.=137.756283, Alt.=2685.666556m. Speed=2.000000m/h.]]></desc>
</trkpt>
<trkpt lat="36.686845" lon="137.756300">
<ele>2685.185768</ele>
<time>2014-08-17T22:40:38Z</time>
<desc><![CDATA[lat.=36.686845, lon.=137.756300, Alt.=2685.185768m. Speed=1.000000m/h.]]></desc>
</trkpt>
<trkpt lat="36.686868" lon="137.756302">
<ele>2683.517681</ele>
<time>2014-08-17T22:40:43Z</time>
<desc><![CDATA[lat.=36.686868, lon.=137.756302, Alt.=2683.517681m. Speed=2.000000m/h.]]></desc>
</trkpt>
<trkpt lat="36.686889" lon="137.756317">
<ele>2687.094747</ele>
<time>2014-08-17T22:40:48Z</time>
<desc><![CDATA[lat.=36.686889, lon.=137.756317, Alt.=2687.094747m. Speed=1.000000m/h.]]></desc>
</trkpt>
<trkpt lat="36.686899" lon="137.756341">
<ele>2687.207611</ele>
<time>2014-08-17T22:40:53Z</time>
<desc><![CDATA[lat.=36.686899, lon.=137.756341, Alt.=2687.207611m. Speed=2.000000m/h.]]></desc>
</trkpt>
<trkpt lat="36.686928" lon="137.756325">
<ele>2689.542843</ele>
<time>2014-08-17T22:40:58Z</time>
<desc><![CDATA[lat.=36.686928, lon.=137.756325, Alt.=2689.542843m. Speed=2.000000m/h.]]></desc>
</trkpt>
<trkpt lat="36.686954" lon="137.756318">
<ele>2689.011316</ele>
<time>2014-08-17T22:41:03Z</time>
<desc><![CDATA[lat.=36.686954, lon.=137.756318, Alt.=2689.011316m. Speed=1.000000m/h.]]></desc>
</trkpt>
<trkpt lat="36.686954" lon="137.756301">
<ele>2692.417190</ele>
<time>2014-08-17T22:41:08Z</time>
<desc><![CDATA[lat.=36.686954, lon.=137.756301, Alt.=2692.417190m. Speed=2.000000m/h.]]></desc>
</trkpt>
<trkpt lat="36.686973" lon="137.756277">
<ele>2692.963892</ele>
<time>2014-08-17T22:41:13Z</time>
<desc><![CDATA[lat.=36.686973, lon.=137.756277, Alt.=2692.963892m. Speed=2.000000m/h.]]></desc>
</trkpt>
<trkpt lat="36.686981" lon="137.756246">
<ele>2693.452265</ele>
<time>2014-08-17T22:41:18Z</time>
<desc><![CDATA[lat.=36.686981, lon.=137.756246, Alt.=2693.452265m. Speed=2.000000m/h.]]></desc>
</trkpt>
<trkpt lat="36.686974" lon="137.756214">
<ele>2694.475960</ele>
<time>2014-08-17T22:41:23Z</time>
<desc><![CDATA[lat.=36.686974, lon.=137.756214, Alt.=2694.475960m. Speed=2.000000m/h.]]></desc>
</trkpt>
<trkpt lat="36.686964" lon="137.756190">
<ele>2692.632893</ele>
<time>2014-08-17T22:41:28Z</time>
<desc><![CDATA[lat.=36.686964, lon.=137.756190, Alt.=2692.632893m. Speed=2.000000m/h.]]></desc>
</trkpt>
<trkpt lat="36.686946" lon="137.756149">
<ele>2695.328467</ele>
<time>2014-08-17T22:41:33Z</time>
<desc><![CDATA[lat.=36.686946, lon.=137.756149, Alt.=2695.328467m. Speed=2.000000m/h.]]></desc>
</trkpt>
<trkpt lat="36.686928" lon="137.756125">
<ele>2692.887961</ele>
<time>2014-08-17T22:41:38Z</time>
<desc><![CDATA[lat.=36.686928, lon.=137.756125, Alt.=2692.887961m. Speed=2.000000m/h.]]></desc>
</trkpt>
<trkpt lat="36.686921" lon="137.756092">
<ele>2695.641866</ele>
<time>2014-08-17T22:41:43Z</time>
<desc><![CDATA[lat.=36.686921, lon.=137.756092, Alt.=2695.641866m. Speed=2.000000m/h.]]></desc>
</trkpt>
<trkpt lat="36.686922" lon="137.756061">
<ele>2695.532804</ele>
<time>2014-08-17T22:41:48Z</time>
<desc><![CDATA[lat.=36.686922, lon.=137.756061, Alt.=2695.532804m. Speed=2.000000m/h.]]></desc>
</trkpt>
<trkpt lat="36.686923" lon="137.756029">
<ele>2695.423743</ele>
<time>2014-08-17T22:41:53Z</time>
<desc><![CDATA[lat.=36.686923, lon.=137.756029, Alt.=2695.423743m. Speed=2.000000m/h.]]></desc>
</trkpt>
<trkpt lat="36.686931" lon="137.756014">
<ele>2694.236451</ele>
<time>2014-08-17T22:41:58Z</time>
<desc><![CDATA[lat.=36.686931, lon.=137.756014, Alt.=2694.236451m. Speed=1.000000m/h.]]></desc>
</trkpt>
<trkpt lat="36.686916" lon="137.755998">
<ele>2694.717242</ele>
<time>2014-08-17T22:42:03Z</time>
<desc><![CDATA[lat.=36.686916, lon.=137.755998, Alt.=2694.717242m. Speed=2.000000m/h.]]></desc>
</trkpt>
<trkpt lat="36.686913" lon="137.755958">
<ele>2695.147301</ele>
<time>2014-08-17T22:42:08Z</time>
<desc><![CDATA[lat.=36.686913, lon.=137.755958, Alt.=2695.147301m. Speed=2.000000m/h.]]></desc>
</trkpt>
<trkpt lat="36.686906" lon="137.755941">
<ele>2696.225536</ele>
<time>2014-08-17T22:42:13Z</time>
<desc><![CDATA[lat.=36.686906, lon.=137.755941, Alt.=2696.225536m. Speed=2.000000m/h.]]></desc>
</trkpt>
<trkpt lat="36.686907" lon="137.755910">
<ele>2694.386275</ele>
<time>2014-08-17T22:42:18Z</time>
<desc><![CDATA[lat.=36.686907, lon.=137.755910, Alt.=2694.386275m. Speed=2.000000m/h.]]></desc>
</trkpt>
<trkpt lat="36.686901" lon="137.755862">
<ele>2695.355457</ele>
<time>2014-08-17T22:42:23Z</time>
<desc><![CDATA[lat.=36.686901, lon.=137.755862, Alt.=2695.355457m. Speed=2.000000m/h.]]></desc>
</trkpt>
<trkpt lat="36.686923" lon="137.755848">
<ele>2693.632845</ele>
<time>2014-08-17T22:42:28Z</time>
<desc><![CDATA[lat.=36.686923, lon.=137.755848, Alt.=2693.632845m. Speed=2.000000m/h.]]></desc>
</trkpt>
<trkpt lat="36.686915" lon="137.755830">
<ele>2698.171493</ele>
<time>2014-08-17T22:42:33Z</time>
<desc><![CDATA[lat.=36.686915, lon.=137.755830, Alt.=2698.171493m. Speed=1.000000m/h.]]></desc>
</trkpt>
<trkpt lat="36.686916" lon="137.755814">
<ele>2698.116968</ele>
<time>2014-08-17T22:42:38Z</time>
<desc><![CDATA[lat.=36.686916, lon.=137.755814, Alt.=2698.116968m. Speed=1.000000m/h.]]></desc>
</trkpt>
<trkpt lat="36.686919" lon="137.755806">
<ele>2699.253528</ele>
<time>2014-08-17T22:42:43Z</time>
<desc><![CDATA[lat.=36.686919, lon.=137.755806, Alt.=2699.253528m. Speed=1.000000m/h.]]></desc>
</trkpt>
<trkpt lat="36.686923" lon="137.755798">
<ele>2698.659884</ele>
<time>2014-08-17T22:42:48Z</time>
<desc><![CDATA[lat.=36.686923, lon.=137.755798, Alt.=2698.659884m. Speed=0.000000m/h.]]></desc>
</trkpt>
<trkpt lat="36.686919" lon="137.755805">
<ele>2700.983734</ele>
<time>2014-08-17T22:42:53Z</time>
<desc><![CDATA[lat.=36.686919, lon.=137.755805, Alt.=2700.983734m. Speed=0.000000m/h.]]></desc>
</trkpt>
<trkpt lat="36.686911" lon="137.755804">
<ele>2702.116497</ele>
<time>2014-08-17T22:42:58Z</time>
<desc><![CDATA[lat.=36.686911, lon.=137.755804, Alt.=2702.116497m. Speed=0.000000m/h.]]></desc>
</trkpt>
<trkpt lat="36.686915" lon="137.755796">
<ele>2703.253058</ele>
<time>2014-08-17T22:43:03Z</time>
<desc><![CDATA[lat.=36.686915, lon.=137.755796, Alt.=2703.253058m. Speed=0.000000m/h.]]></desc>
</trkpt>
<trkpt lat="36.686919" lon="137.755772">
<ele>2704.335094</ele>
<time>2014-08-17T22:43:08Z</time>
<desc><![CDATA[lat.=36.686919, lon.=137.755772, Alt.=2704.335094m. Speed=1.000000m/h.]]></desc>
</trkpt>
<trkpt lat="36.686930" lon="137.755747">
<ele>2707.744779</ele>
<time>2014-08-17T22:43:13Z</time>
<desc><![CDATA[lat.=36.686930, lon.=137.755747, Alt.=2707.744779m. Speed=1.000000m/h.]]></desc>
</trkpt>
<trkpt lat="36.686941" lon="137.755723">
<ele>2709.424259</ele>
<time>2014-08-17T22:43:18Z</time>
<desc><![CDATA[lat.=36.686941, lon.=137.755723, Alt.=2709.424259m. Speed=2.000000m/h.]]></desc>
</trkpt>
<trkpt lat="36.686963" lon="137.755707">
<ele>2711.162063</ele>
<time>2014-08-17T22:43:23Z</time>
<desc><![CDATA[lat.=36.686963, lon.=137.755707, Alt.=2711.162063m. Speed=2.000000m/h.]]></desc>
</trkpt>
<trkpt lat="36.686993" lon="137.755693">
<ele>2710.036900</ele>
<time>2014-08-17T22:43:28Z</time>
<desc><![CDATA[lat.=36.686993, lon.=137.755693, Alt.=2710.036900m. Speed=2.000000m/h.]]></desc>
</trkpt>
<trkpt lat="36.686997" lon="137.755653">
<ele>2711.064417</ele>
<time>2014-08-17T22:43:33Z</time>
<desc><![CDATA[lat.=36.686997, lon.=137.755653, Alt.=2711.064417m. Speed=2.000000m/h.]]></desc>
</trkpt>
<trkpt lat="36.686998" lon="137.755637">
<ele>2711.009895</ele>
<time>2014-08-17T22:43:38Z</time>
<desc><![CDATA[lat.=36.686998, lon.=137.755637, Alt.=2711.009895m. Speed=2.000000m/h.]]></desc>
</trkpt>
<trkpt lat="36.686992" lon="137.755606">
<ele>2708.573202</ele>
<time>2014-08-17T22:43:43Z</time>
<desc><![CDATA[lat.=36.686992, lon.=137.755606, Alt.=2708.573202m. Speed=1.000000m/h.]]></desc>
</trkpt>
<trkpt lat="36.687003" lon="137.755583">
<ele>2708.522482</ele>
<time>2014-08-17T22:43:48Z</time>
<desc><![CDATA[lat.=36.687003, lon.=137.755583, Alt.=2708.522482m. Speed=2.000000m/h.]]></desc>
</trkpt>
<trkpt lat="36.687022" lon="137.755576">
<ele>2709.123727</ele>
<time>2014-08-17T22:43:53Z</time>
<desc><![CDATA[lat.=36.687022, lon.=137.755576, Alt.=2709.123727m. Speed=2.000000m/h.]]></desc>
</trkpt>
<trkpt lat="36.687040" lon="137.755552">
<ele>2709.670453</ele>
<time>2014-08-17T22:43:58Z</time>
<desc><![CDATA[lat.=36.687040, lon.=137.755552, Alt.=2709.670453m. Speed=2.000000m/h.]]></desc>
</trkpt>
<trkpt lat="36.687052" lon="137.755528">
<ele>2711.349941</ele>
<time>2014-08-17T22:44:03Z</time>
<desc><![CDATA[lat.=36.687052, lon.=137.755528, Alt.=2711.349941m. Speed=2.000000m/h.]]></desc>
</trkpt>
<trkpt lat="36.687055" lon="137.755503">
<ele>2714.162192</ele>
<time>2014-08-17T22:44:08Z</time>
<desc><![CDATA[lat.=36.687055, lon.=137.755503, Alt.=2714.162192m. Speed=1.000000m/h.]]></desc>
</trkpt>
<trkpt lat="36.687066" lon="137.755479">
<ele>2715.841682</ele>
<time>2014-08-17T22:44:13Z</time>
<desc><![CDATA[lat.=36.687066, lon.=137.755479, Alt.=2715.841682m. Speed=2.000000m/h.]]></desc>
</trkpt>
<trkpt lat="36.687060" lon="137.755463">
<ele>2715.189719</ele>
<time>2014-08-17T22:44:18Z</time>
<desc><![CDATA[lat.=36.687060, lon.=137.755463, Alt.=2715.189719m. Speed=2.000000m/h.]]></desc>
</trkpt>
<trkpt lat="36.687064" lon="137.755440">
<ele>2714.541560</ele>
<time>2014-08-17T22:44:23Z</time>
<desc><![CDATA[lat.=36.687064, lon.=137.755440, Alt.=2714.541560m. Speed=2.000000m/h.]]></desc>
</trkpt>
<trkpt lat="36.687076" lon="137.755401">
<ele>2714.436329</ele>
<time>2014-08-17T22:44:28Z</time>
<desc><![CDATA[lat.=36.687076, lon.=137.755401, Alt.=2714.436329m. Speed=2.000000m/h.]]></desc>
</trkpt>
<trkpt lat="36.687079" lon="137.755376">
<ele>2717.248584</ele>
<time>2014-08-17T22:44:33Z</time>
<desc><![CDATA[lat.=36.687079, lon.=137.755376, Alt.=2717.248584m. Speed=2.000000m/h.]]></desc>
</trkpt>
<trkpt lat="36.687072" lon="137.755359">
<ele>2720.057034</ele>
<time>2014-08-17T22:44:38Z</time>
<desc><![CDATA[lat.=36.687072, lon.=137.755359, Alt.=2720.057034m. Speed=1.000000m/h.]]></desc>
</trkpt>
<trkpt lat="36.687069" lon="137.755335">
<ele>2720.541641</ele>
<time>2014-08-17T22:44:43Z</time>
<desc><![CDATA[lat.=36.687069, lon.=137.755335, Alt.=2720.541641m. Speed=1.000000m/h.]]></desc>
</trkpt>
<trkpt lat="36.687091" lon="137.755320">
<ele>2720.549252</ele>
<time>2014-08-17T22:44:48Z</time>
<desc><![CDATA[lat.=36.687091, lon.=137.755320, Alt.=2720.549252m. Speed=2.000000m/h.]]></desc>
</trkpt>
<trkpt lat="36.687095" lon="137.755312">
<ele>2719.955613</ele>
<time>2014-08-17T22:44:53Z</time>
<desc><![CDATA[lat.=36.687095, lon.=137.755312, Alt.=2719.955613m. Speed=1.000000m/h.]]></desc>
</trkpt>
<trkpt lat="36.687073" lon="137.755278">
<ele>2723.244867</ele>
<time>2014-08-17T22:44:58Z</time>
<desc><![CDATA[lat.=36.687073, lon.=137.755278, Alt.=2723.244867m. Speed=1.000000m/h.]]></desc>
</trkpt>
<trkpt lat="36.687066" lon="137.755262">
<ele>2722.592908</ele>
<time>2014-08-17T22:45:03Z</time>
<desc><![CDATA[lat.=36.687066, lon.=137.755262, Alt.=2722.592908m. Speed=1.000000m/h.]]></desc>
</trkpt>
<trkpt lat="36.687070" lon="137.755255">
<ele>2721.999270</ele>
<time>2014-08-17T22:45:08Z</time>
<desc><![CDATA[lat.=36.687070, lon.=137.755255, Alt.=2721.999270m. Speed=1.000000m/h.]]></desc>
</trkpt>
<trkpt lat="36.687070" lon="137.755238">
<ele>2723.674961</ele>
<time>2014-08-17T22:45:13Z</time>
<desc><![CDATA[lat.=36.687070, lon.=137.755238, Alt.=2723.674961m. Speed=1.000000m/h.]]></desc>
</trkpt>
<trkpt lat="36.687081" lon="137.755231">
<ele>2723.678767</ele>
<time>2014-08-17T22:45:18Z</time>
<desc><![CDATA[lat.=36.687081, lon.=137.755231, Alt.=2723.678767m. Speed=0.000000m/h.]]></desc>
</trkpt>
<trkpt lat="36.687096" lon="137.755215">
<ele>2724.819142</ele>
<time>2014-08-17T22:45:23Z</time>
<desc><![CDATA[lat.=36.687096, lon.=137.755215, Alt.=2724.819142m. Speed=0.000000m/h.]]></desc>
</trkpt>
<trkpt lat="36.687107" lon="137.755208">
<ele>2724.822950</ele>
<time>2014-08-17T22:45:28Z</time>
<desc><![CDATA[lat.=36.687107, lon.=137.755208, Alt.=2724.822950m. Speed=1.000000m/h.]]></desc>
</trkpt>
<trkpt lat="36.687108" lon="137.755192">
<ele>2724.768436</ele>
<time>2014-08-17T22:45:33Z</time>
<desc><![CDATA[lat.=36.687108, lon.=137.755192, Alt.=2724.768436m. Speed=1.000000m/h.]]></desc>
</trkpt>
<trkpt lat="36.687108" lon="137.755160">
<ele>2724.659410</ele>
<time>2014-08-17T22:45:38Z</time>
<desc><![CDATA[lat.=36.687108, lon.=137.755160, Alt.=2724.659410m. Speed=1.000000m/h.]]></desc>
</trkpt>
<trkpt lat="36.687101" lon="137.755144">
<ele>2725.737659</ele>
<time>2014-08-17T22:45:43Z</time>
<desc><![CDATA[lat.=36.687101, lon.=137.755144, Alt.=2725.737659m. Speed=1.000000m/h.]]></desc>
</trkpt>
<trkpt lat="36.687108" lon="137.755144">
<ele>2726.335104</ele>
<time>2014-08-17T22:45:48Z</time>
<desc><![CDATA[lat.=36.687108, lon.=137.755144, Alt.=2726.335104m. Speed=1.000000m/h.]]></desc>
</trkpt>
<trkpt lat="36.687097" lon="137.755118">
<ele>2729.682683</ele>
<time>2014-08-17T22:45:53Z</time>
<desc><![CDATA[lat.=36.687097, lon.=137.755118, Alt.=2729.682683m. Speed=1.000000m/h.]]></desc>
</trkpt>
<trkpt lat="36.687097" lon="137.755102">
<ele>2729.628172</ele>
<time>2014-08-17T22:45:58Z</time>
<desc><![CDATA[lat.=36.687097, lon.=137.755102, Alt.=2729.628172m. Speed=1.000000m/h.]]></desc>
</trkpt>
<trkpt lat="36.687109" lon="137.755078">
<ele>2731.307675</ele>
<time>2014-08-17T22:46:03Z</time>
<desc><![CDATA[lat.=36.687109, lon.=137.755078, Alt.=2731.307675m. Speed=1.000000m/h.]]></desc>
</trkpt>
<trkpt lat="36.687117" lon="137.755063">
<ele>2730.120403</ele>
<time>2014-08-17T22:46:08Z</time>
<desc><![CDATA[lat.=36.687117, lon.=137.755063, Alt.=2730.120403m. Speed=0.000000m/h.]]></desc>
</trkpt>
<trkpt lat="36.687125" lon="137.755048">
<ele>2728.933131</ele>
<time>2014-08-17T22:46:13Z</time>
<desc><![CDATA[lat.=36.687125, lon.=137.755048, Alt.=2728.933131m. Speed=1.000000m/h.]]></desc>
</trkpt>
<trkpt lat="36.687128" lon="137.755040">
<ele>2730.069701</ele>
<time>2014-08-17T22:46:18Z</time>
<desc><![CDATA[lat.=36.687128, lon.=137.755040, Alt.=2730.069701m. Speed=1.000000m/h.]]></desc>
</trkpt>
<trkpt lat="36.687110" lon="137.755031">
<ele>2731.144143</ele>
<time>2014-08-17T22:46:23Z</time>
<desc><![CDATA[lat.=36.687110, lon.=137.755031, Alt.=2731.144143m. Speed=1.000000m/h.]]></desc>
</trkpt>
<trkpt lat="36.687114" lon="137.755007">
<ele>2730.495997</ele>
<time>2014-08-17T22:46:28Z</time>
<desc><![CDATA[lat.=36.687114, lon.=137.755007, Alt.=2730.495997m. Speed=1.000000m/h.]]></desc>
</trkpt>
<trkpt lat="36.687118" lon="137.754984">
<ele>2729.847853</ele>
<time>2014-08-17T22:46:33Z</time>
<desc><![CDATA[lat.=36.687118, lon.=137.754984, Alt.=2729.847853m. Speed=1.000000m/h.]]></desc>
</trkpt>
<trkpt lat="36.687119" lon="137.754968">
<ele>2729.793344</ele>
<time>2014-08-17T22:46:38Z</time>
<desc><![CDATA[lat.=36.687119, lon.=137.754968, Alt.=2729.793344m. Speed=1.000000m/h.]]></desc>
</trkpt>
<trkpt lat="36.687119" lon="137.754953">
<ele>2729.738835</ele>
<time>2014-08-17T22:46:43Z</time>
<desc><![CDATA[lat.=36.687119, lon.=137.754953, Alt.=2729.738835m. Speed=1.000000m/h.]]></desc>
</trkpt>
<trkpt lat="36.687112" lon="137.754920">
<ele>2730.762580</ele>
<time>2014-08-17T22:46:48Z</time>
<desc><![CDATA[lat.=36.687112, lon.=137.754920, Alt.=2730.762580m. Speed=2.000000m/h.]]></desc>
</trkpt>
<trkpt lat="36.687112" lon="137.754904">
<ele>2732.438278</ele>
<time>2014-08-17T22:46:53Z</time>
<desc><![CDATA[lat.=36.687112, lon.=137.754904, Alt.=2732.438278m. Speed=1.000000m/h.]]></desc>
</trkpt>
<trkpt lat="36.687117" lon="137.754880">
<ele>2731.790136</ele>
<time>2014-08-17T22:46:58Z</time>
<desc><![CDATA[lat.=36.687117, lon.=137.754880, Alt.=2731.790136m. Speed=1.000000m/h.]]></desc>
</trkpt>
<trkpt lat="36.687098" lon="137.754870">
<ele>2734.594787</ele>
<time>2014-08-17T22:47:03Z</time>
<desc><![CDATA[lat.=36.687098, lon.=137.754870, Alt.=2734.594787m. Speed=1.000000m/h.]]></desc>
</trkpt>
<trkpt lat="36.687087" lon="137.754846">
<ele>2736.212169</ele>
<time>2014-08-17T22:47:08Z</time>
<desc><![CDATA[lat.=36.687087, lon.=137.754846, Alt.=2736.212169m. Speed=2.000000m/h.]]></desc>
</trkpt>
<trkpt lat="36.687076" lon="137.754822">
<ele>2736.099346</ele>
<time>2014-08-17T22:47:13Z</time>
<desc><![CDATA[lat.=36.687076, lon.=137.754822, Alt.=2736.099346m. Speed=2.000000m/h.]]></desc>
</trkpt>
<trkpt lat="36.687084" lon="137.754790">
<ele>2736.587779</ele>
<time>2014-08-17T22:47:18Z</time>
<desc><![CDATA[lat.=36.687084, lon.=137.754790, Alt.=2736.587779m. Speed=2.000000m/h.]]></desc>
</trkpt>
<trkpt lat="36.687096" lon="137.754766">
<ele>2738.267292</ele>
<time>2014-08-17T22:47:23Z</time>
<desc><![CDATA[lat.=36.687096, lon.=137.754766, Alt.=2738.267292m. Speed=2.000000m/h.]]></desc>
</trkpt>
<trkpt lat="36.687103" lon="137.754750">
<ele>2738.810231</ele>
<time>2014-08-17T22:47:28Z</time>
<desc><![CDATA[lat.=36.687103, lon.=137.754750, Alt.=2738.810231m. Speed=1.000000m/h.]]></desc>
</trkpt>
<trkpt lat="36.687104" lon="137.754734">
<ele>2738.755727</ele>
<time>2014-08-17T22:47:34Z</time>
<desc><![CDATA[lat.=36.687104, lon.=137.754734, Alt.=2738.755727m. Speed=2.000000m/h.]]></desc>
</trkpt>
<trkpt lat="36.687108" lon="137.754710">
<ele>2739.837797</ele>
<time>2014-08-17T22:47:39Z</time>
<desc><![CDATA[lat.=36.687108, lon.=137.754710, Alt.=2739.837797m. Speed=2.000000m/h.]]></desc>
</trkpt>
<trkpt lat="36.687112" lon="137.754686">
<ele>2740.919867</ele>
<time>2014-08-17T22:47:44Z</time>
<desc><![CDATA[lat.=36.687112, lon.=137.754686, Alt.=2740.919867m. Speed=2.000000m/h.]]></desc>
</trkpt>
<trkpt lat="36.687127" lon="137.754655">
<ele>2740.275544</ele>
<time>2014-08-17T22:47:49Z</time>
<desc><![CDATA[lat.=36.687127, lon.=137.754655, Alt.=2740.275544m. Speed=2.000000m/h.]]></desc>
</trkpt>
<trkpt lat="36.687157" lon="137.754641">
<ele>2739.150410</ele>
<time>2014-08-17T22:47:54Z</time>
<desc><![CDATA[lat.=36.687157, lon.=137.754641, Alt.=2739.150410m. Speed=2.000000m/h.]]></desc>
</trkpt>
<trkpt lat="36.687198" lon="137.754652">
<ele>2736.407890</ele>
<time>2014-08-17T22:47:59Z</time>
<desc><![CDATA[lat.=36.687198, lon.=137.754652, Alt.=2736.407890m. Speed=2.000000m/h.]]></desc>
</trkpt>
<trkpt lat="36.687208" lon="137.754675">
<ele>2738.250916</ele>
<time>2014-08-17T22:48:04Z</time>
<desc><![CDATA[lat.=36.687208, lon.=137.754675, Alt.=2738.250916m. Speed=2.000000m/h.]]></desc>
</trkpt>
<trkpt lat="36.687219" lon="137.754682">
<ele>2740.039440</ele>
<time>2014-08-17T22:48:09Z</time>
<desc><![CDATA[lat.=36.687219, lon.=137.754682, Alt.=2740.039440m. Speed=1.000000m/h.]]></desc>
</trkpt>
<trkpt lat="36.687229" lon="137.754691">
<ele>2740.097758</ele>
<time>2014-08-17T22:48:18Z</time>
<desc><![CDATA[lat.=36.687229, lon.=137.754691, Alt.=2740.097758m. Speed=1.000000m/h.]]></desc>
</trkpt>
<trkpt lat="36.687247" lon="137.754715">
<ele>2740.808027</ele>
<time>2014-08-17T22:48:23Z</time>
<desc><![CDATA[lat.=36.687247, lon.=137.754715, Alt.=2740.808027m. Speed=2.000000m/h.]]></desc>
</trkpt>
<trkpt lat="36.687247" lon="137.754714">
<ele>2742.538233</ele>
<time>2014-08-17T22:48:29Z</time>
<desc><![CDATA[lat.=36.687247, lon.=137.754714, Alt.=2742.538233m. Speed=0.000000m/h.]]></desc>
</trkpt>
<trkpt lat="36.687243" lon="137.754706">
<ele>2743.077361</ele>
<time>2014-08-17T22:48:35Z</time>
<desc><![CDATA[lat.=36.687243, lon.=137.754706, Alt.=2743.077361m. Speed=0.000000m/h.]]></desc>
</trkpt>
<trkpt lat="36.687247" lon="137.754698">
<ele>2742.483730</ele>
<time>2014-08-17T22:48:45Z</time>
<desc><![CDATA[lat.=36.687247, lon.=137.754698, Alt.=2742.483730m. Speed=0.000000m/h.]]></desc>
</trkpt>
<trkpt lat="36.687240" lon="137.754698">
<ele>2741.886283</ele>
<time>2014-08-17T22:48:50Z</time>
<desc><![CDATA[lat.=36.687240, lon.=137.754698, Alt.=2741.886283m. Speed=0.000000m/h.]]></desc>
</trkpt>
<trkpt lat="36.687243" lon="137.754707">
<ele>2741.347155</ele>
<time>2014-08-17T22:48:56Z</time>
<desc><![CDATA[lat.=36.687243, lon.=137.754707, Alt.=2741.347155m. Speed=0.000000m/h.]]></desc>
</trkpt>
<trkpt lat="36.687240" lon="137.754698">
<ele>2741.886283</ele>
<time>2014-08-17T22:49:01Z</time>
<desc><![CDATA[lat.=36.687240, lon.=137.754698, Alt.=2741.886283m. Speed=0.000000m/h.]]></desc>
</trkpt>
<trkpt lat="36.687244" lon="137.754691">
<ele>2741.292651</ele>
<time>2014-08-17T22:49:06Z</time>
<desc><![CDATA[lat.=36.687244, lon.=137.754691, Alt.=2741.292651m. Speed=0.000000m/h.]]></desc>
</trkpt>
<trkpt lat="36.687240" lon="137.754682">
<ele>2741.831780</ele>
<time>2014-08-17T22:49:12Z</time>
<desc><![CDATA[lat.=36.687240, lon.=137.754682, Alt.=2741.831780m. Speed=0.000000m/h.]]></desc>
</trkpt>
<trkpt lat="36.687236" lon="137.754690">
<ele>2742.425411</ele>
<time>2014-08-17T22:49:17Z</time>
<desc><![CDATA[lat.=36.687236, lon.=137.754690, Alt.=2742.425411m. Speed=0.000000m/h.]]></desc>
</trkpt>
<trkpt lat="36.687240" lon="137.754682">
<ele>2741.831780</ele>
<time>2014-08-17T22:49:22Z</time>
<desc><![CDATA[lat.=36.687240, lon.=137.754682, Alt.=2741.831780m. Speed=0.000000m/h.]]></desc>
</trkpt>
<trkpt lat="36.687233" lon="137.754667">
<ele>2741.179830</ele>
<time>2014-08-17T22:49:27Z</time>
<desc><![CDATA[lat.=36.687233, lon.=137.754667, Alt.=2741.179830m. Speed=1.000000m/h.]]></desc>
</trkpt>
<trkpt lat="36.687230" lon="137.754643">
<ele>2739.934250</ele>
<time>2014-08-17T22:49:32Z</time>
<desc><![CDATA[lat.=36.687230, lon.=137.754643, Alt.=2739.934250m. Speed=1.000000m/h.]]></desc>
</trkpt>
<trkpt lat="36.687238" lon="137.754628">
<ele>2740.477194</ele>
<time>2014-08-17T22:49:37Z</time>
<desc><![CDATA[lat.=36.687238, lon.=137.754628, Alt.=2740.477194m. Speed=1.000000m/h.]]></desc>
</trkpt>
<trkpt lat="36.687227" lon="137.754619">
<ele>2740.418877</ele>
<time>2014-08-17T22:49:42Z</time>
<desc><![CDATA[lat.=36.687227, lon.=137.754619, Alt.=2740.418877m. Speed=0.000000m/h.]]></desc>
</trkpt>
<trkpt lat="36.687220" lon="137.754603">
<ele>2739.766928</ele>
<time>2014-08-17T22:49:47Z</time>
<desc><![CDATA[lat.=36.687220, lon.=137.754603, Alt.=2739.766928m. Speed=1.000000m/h.]]></desc>
</trkpt>
<trkpt lat="36.687213" lon="137.754588">
<ele>2739.114981</ele>
<time>2014-08-17T22:49:52Z</time>
<desc><![CDATA[lat.=36.687213, lon.=137.754588, Alt.=2739.114981m. Speed=0.000000m/h.]]></desc>
</trkpt>
<trkpt lat="36.687221" lon="137.754588">
<ele>2739.712427</ele>
<time>2014-08-17T22:49:57Z</time>
<desc><![CDATA[lat.=36.687221, lon.=137.754588, Alt.=2739.712427m. Speed=0.000000m/h.]]></desc>
</trkpt>
<trkpt lat="36.687217" lon="137.754579">
<ele>2740.251556</ele>
<time>2014-08-17T22:50:02Z</time>
<desc><![CDATA[lat.=36.687217, lon.=137.754579, Alt.=2740.251556m. Speed=0.000000m/h.]]></desc>
</trkpt>
<trkpt lat="36.687213" lon="137.754587">
<ele>2740.845187</ele>
<time>2014-08-17T22:50:11Z</time>
<desc><![CDATA[lat.=36.687213, lon.=137.754587, Alt.=2740.845187m. Speed=0.000000m/h.]]></desc>
</trkpt>
<trkpt lat="36.687206" lon="137.754587">
<ele>2740.247741</ele>
<time>2014-08-17T22:50:23Z</time>
<desc><![CDATA[lat.=36.687206, lon.=137.754587, Alt.=2740.247741m. Speed=1.000000m/h.]]></desc>
</trkpt>
<trkpt lat="36.687191" lon="137.754570">
<ele>2740.728554</ele>
<time>2014-08-17T22:50:28Z</time>
<desc><![CDATA[lat.=36.687191, lon.=137.754570, Alt.=2740.728554m. Speed=0.000000m/h.]]></desc>
</trkpt>
<trkpt lat="36.687192" lon="137.754539">
<ele>2740.619553</ele>
<time>2014-08-17T22:50:33Z</time>
<desc><![CDATA[lat.=36.687192, lon.=137.754539, Alt.=2740.619553m. Speed=2.000000m/h.]]></desc>
</trkpt>
<trkpt lat="36.687200" lon="137.754508">
<ele>2739.377792</ele>
<time>2014-08-17T22:50:38Z</time>
<desc><![CDATA[lat.=36.687200, lon.=137.754508, Alt.=2739.377792m. Speed=2.000000m/h.]]></desc>
</trkpt>
<trkpt lat="36.687220" lon="137.754486">
<ele>2736.464142</ele>
<time>2014-08-17T22:50:43Z</time>
<desc><![CDATA[lat.=36.687220, lon.=137.754486, Alt.=2736.464142m. Speed=2.000000m/h.]]></desc>
</trkpt>
<trkpt lat="36.687235" lon="137.754503">
<ele>2735.983328</ele>
<time>2014-08-17T22:50:48Z</time>
<desc><![CDATA[lat.=36.687235, lon.=137.754503, Alt.=2735.983328m. Speed=2.000000m/h.]]></desc>
</trkpt>
<trkpt lat="36.687220" lon="137.754502">
<ele>2736.518642</ele>
<time>2014-08-17T22:50:53Z</time>
<desc><![CDATA[lat.=36.687220, lon.=137.754502, Alt.=2736.518642m. Speed=0.000000m/h.]]></desc>
</trkpt>
<trkpt lat="36.687242" lon="137.754519">
<ele>2734.905068</ele>
<time>2014-08-17T22:50:58Z</time>
<desc><![CDATA[lat.=36.687242, lon.=137.754519, Alt.=2734.905068m. Speed=1.000000m/h.]]></desc>
</trkpt>
<trkpt lat="36.687268" lon="137.754512">
<ele>2734.373572</ele>
<time>2014-08-17T22:51:03Z</time>
<desc><![CDATA[lat.=36.687268, lon.=137.754512, Alt.=2734.373572m. Speed=1.000000m/h.]]></desc>
</trkpt>
<trkpt lat="36.687254" lon="137.754497">
<ele>2733.124179</ele>
<time>2014-08-17T22:51:08Z</time>
<desc><![CDATA[lat.=36.687254, lon.=137.754497, Alt.=2733.124179m. Speed=0.000000m/h.]]></desc>
</trkpt>
<trkpt lat="36.687247" lon="137.754465">
<ele>2732.417734</ele>
<time>2014-08-17T22:51:13Z</time>
<desc><![CDATA[lat.=36.687247, lon.=137.754465, Alt.=2732.417734m. Speed=2.000000m/h.]]></desc>
</trkpt>
<trkpt lat="36.687255" lon="137.754433">
<ele>2732.906183</ele>
<time>2014-08-17T22:51:18Z</time>
<desc><![CDATA[lat.=36.687255, lon.=137.754433, Alt.=2732.906183m. Speed=2.000000m/h.]]></desc>
</trkpt>
<trkpt lat="36.687270" lon="137.754418">
<ele>2732.316373</ele>
<time>2014-08-17T22:51:23Z</time>
<desc><![CDATA[lat.=36.687270, lon.=137.754418, Alt.=2732.316373m. Speed=2.000000m/h.]]></desc>
</trkpt>
<trkpt lat="36.687289" lon="137.754412">
<ele>2731.187432</ele>
<time>2014-08-17T22:51:28Z</time>
<desc><![CDATA[lat.=36.687289, lon.=137.754412, Alt.=2731.187432m. Speed=1.000000m/h.]]></desc>
</trkpt>
<trkpt lat="36.687297" lon="137.754397">
<ele>2730.000175</ele>
<time>2014-08-17T22:51:33Z</time>
<desc><![CDATA[lat.=36.687297, lon.=137.754397, Alt.=2730.000175m. Speed=1.000000m/h.]]></desc>
</trkpt>
<trkpt lat="36.687305" lon="137.754366">
<ele>2728.758422</ele>
<time>2014-08-17T22:51:38Z</time>
<desc><![CDATA[lat.=36.687305, lon.=137.754366, Alt.=2728.758422m. Speed=1.000000m/h.]]></desc>
</trkpt>
<trkpt lat="36.687273" lon="137.754342">
<ele>2726.853267</ele>
<time>2014-08-17T22:51:43Z</time>
<desc><![CDATA[lat.=36.687273, lon.=137.754342, Alt.=2726.853267m. Speed=2.000000m/h.]]></desc>
</trkpt>
<trkpt lat="36.687292" lon="137.754335">
<ele>2725.724327</ele>
<time>2014-08-17T22:51:48Z</time>
<desc><![CDATA[lat.=36.687292, lon.=137.754335, Alt.=2725.724327m. Speed=2.000000m/h.]]></desc>
</trkpt>
<trkpt lat="36.687300" lon="137.754320">
<ele>2724.537072</ele>
<time>2014-08-17T22:51:53Z</time>
<desc><![CDATA[lat.=36.687300, lon.=137.754320, Alt.=2724.537072m. Speed=1.000000m/h.]]></desc>
</trkpt>
<trkpt lat="36.687278" lon="137.754303">
<ele>2724.420441</ele>
<time>2014-08-17T22:51:58Z</time>
<desc><![CDATA[lat.=36.687278, lon.=137.754303, Alt.=2724.420441m. Speed=1.000000m/h.]]></desc>
</trkpt>
<trkpt lat="36.687250" lon="137.754303">
<ele>2722.030653</ele>
<time>2014-08-17T22:52:03Z</time>
<desc><![CDATA[lat.=36.687250, lon.=137.754303, Alt.=2722.030653m. Speed=2.000000m/h.]]></desc>
</trkpt>
<trkpt lat="36.687247" lon="137.754264">
<ele>2720.730588</ele>
<time>2014-08-17T22:52:08Z</time>
<desc><![CDATA[lat.=36.687247, lon.=137.754264, Alt.=2720.730588m. Speed=2.000000m/h.]]></desc>
</trkpt>
<trkpt lat="36.687277" lon="137.754249">
<ele>2721.335675</ele>
<time>2014-08-17T22:52:13Z</time>
<desc><![CDATA[lat.=36.687277, lon.=137.754249, Alt.=2721.335675m. Speed=2.000000m/h.]]></desc>
</trkpt>
<trkpt lat="36.687307" lon="137.754251">
<ele>2718.534844</ele>
<time>2014-08-17T22:52:18Z</time>
<desc><![CDATA[lat.=36.687307, lon.=137.754251, Alt.=2718.534844m. Speed=2.000000m/h.]]></desc>
</trkpt>
<trkpt lat="36.687310" lon="137.754243">
<ele>2719.671424</ele>
<time>2014-08-17T22:52:23Z</time>
<desc><![CDATA[lat.=36.687310, lon.=137.754243, Alt.=2719.671424m. Speed=2.000000m/h.]]></desc>
</trkpt>
<trkpt lat="36.687303" lon="137.754226">
<ele>2722.479895</ele>
<time>2014-08-17T22:52:28Z</time>
<desc><![CDATA[lat.=36.687303, lon.=137.754226, Alt.=2722.479895m. Speed=0.000000m/h.]]></desc>
</trkpt>
<trkpt lat="36.687302" lon="137.754242">
<ele>2722.534389</ele>
<time>2014-08-17T22:52:33Z</time>
<desc><![CDATA[lat.=36.687302, lon.=137.754242, Alt.=2722.534389m. Speed=0.000000m/h.]]></desc>
</trkpt>
<trkpt lat="36.687299" lon="137.754233">
<ele>2723.073522</ele>
<time>2014-08-17T22:52:39Z</time>
<desc><![CDATA[lat.=36.687299, lon.=137.754233, Alt.=2723.073522m. Speed=0.000000m/h.]]></desc>
</trkpt>
<trkpt lat="36.687295" lon="137.754241">
<ele>2723.667149</ele>
<time>2014-08-17T22:52:49Z</time>
<desc><![CDATA[lat.=36.687295, lon.=137.754241, Alt.=2723.667149m. Speed=0.000000m/h.]]></desc>
</trkpt>
<trkpt lat="36.687299" lon="137.754233">
<ele>2723.073522</ele>
<time>2014-08-17T22:52:56Z</time>
<desc><![CDATA[lat.=36.687299, lon.=137.754233, Alt.=2723.073522m. Speed=1.000000m/h.]]></desc>
</trkpt>
<trkpt lat="36.687314" lon="137.754218">
<ele>2722.483716</ele>
<time>2014-08-17T22:53:01Z</time>
<desc><![CDATA[lat.=36.687314, lon.=137.754218, Alt.=2722.483716m. Speed=1.000000m/h.]]></desc>
</trkpt>
<trkpt lat="36.687325" lon="137.754211">
<ele>2722.487537</ele>
<time>2014-08-17T22:53:06Z</time>
<desc><![CDATA[lat.=36.687325, lon.=137.754211, Alt.=2722.487537m. Speed=0.000000m/h.]]></desc>
</trkpt>
<trkpt lat="36.687321" lon="137.754218">
<ele>2723.081164</ele>
<time>2014-08-17T22:53:24Z</time>
<desc><![CDATA[lat.=36.687321, lon.=137.754218, Alt.=2723.081164m. Speed=0.000000m/h.]]></desc>
</trkpt>
<trkpt lat="36.687332" lon="137.754211">
<ele>2723.084985</ele>
<time>2014-08-17T22:53:29Z</time>
<desc><![CDATA[lat.=36.687332, lon.=137.754211, Alt.=2723.084985m. Speed=1.000000m/h.]]></desc>
</trkpt>
<trkpt lat="36.687351" lon="137.754204">
<ele>2721.956048</ele>
<time>2014-08-17T22:53:34Z</time>
<desc><![CDATA[lat.=36.687351, lon.=137.754204, Alt.=2721.956048m. Speed=2.000000m/h.]]></desc>
</trkpt>
<trkpt lat="36.687374" lon="137.754191">
<ele>2718.503280</ele>
<time>2014-08-17T22:53:39Z</time>
<desc><![CDATA[lat.=36.687374, lon.=137.754191, Alt.=2718.503280m. Speed=2.000000m/h.]]></desc>
</trkpt>
<trkpt lat="36.687382" lon="137.754176">
<ele>2717.316028</ele>
<time>2014-08-17T22:53:44Z</time>
<desc><![CDATA[lat.=36.687382, lon.=137.754176, Alt.=2717.316028m. Speed=1.000000m/h.]]></desc>
</trkpt>
<trkpt lat="36.687412" lon="137.754193">
<ele>2716.299903</ele>
<time>2014-08-17T22:53:49Z</time>
<desc><![CDATA[lat.=36.687412, lon.=137.754193, Alt.=2716.299903m. Speed=2.000000m/h.]]></desc>
</trkpt>
<trkpt lat="36.687419" lon="137.754209">
<ele>2715.221639</ele>
<time>2014-08-17T22:53:54Z</time>
<desc><![CDATA[lat.=36.687419, lon.=137.754209, Alt.=2715.221639m. Speed=1.000000m/h.]]></desc>
</trkpt>
<trkpt lat="36.687423" lon="137.754202">
<ele>2714.628014</ele>
<time>2014-08-17T22:53:59Z</time>
<desc><![CDATA[lat.=36.687423, lon.=137.754202, Alt.=2714.628014m. Speed=1.000000m/h.]]></desc>
</trkpt>
<trkpt lat="36.687430" lon="137.754203">
<ele>2713.495256</ele>
<time>2014-08-17T22:54:04Z</time>
<desc><![CDATA[lat.=36.687430, lon.=137.754203, Alt.=2713.495256m. Speed=0.000000m/h.]]></desc>
</trkpt>
<trkpt lat="36.687419" lon="137.754210">
<ele>2713.491433</ele>
<time>2014-08-17T22:54:09Z</time>
<desc><![CDATA[lat.=36.687419, lon.=137.754210, Alt.=2713.491433m. Speed=0.000000m/h.]]></desc>
</trkpt>
<trkpt lat="36.687420" lon="137.754194">
<ele>2713.436939</ele>
<time>2014-08-17T22:54:14Z</time>
<desc><![CDATA[lat.=36.687420, lon.=137.754194, Alt.=2713.436939m. Speed=0.000000m/h.]]></desc>
</trkpt>
<trkpt lat="36.687427" lon="137.754194">
<ele>2714.034388</ele>
<time>2014-08-17T22:54:24Z</time>
<desc><![CDATA[lat.=36.687427, lon.=137.754194, Alt.=2714.034388m. Speed=0.000000m/h.]]></desc>
</trkpt>
<trkpt lat="36.687434" lon="137.754195">
<ele>2712.901631</ele>
<time>2014-08-17T22:54:29Z</time>
<desc><![CDATA[lat.=36.687434, lon.=137.754195, Alt.=2712.901631m. Speed=0.000000m/h.]]></desc>
</trkpt>
<trkpt lat="36.687431" lon="137.754187">
<ele>2713.440763</ele>
<time>2014-08-17T22:54:34Z</time>
<desc><![CDATA[lat.=36.687431, lon.=137.754187, Alt.=2713.440763m. Speed=0.000000m/h.]]></desc>
</trkpt>
<trkpt lat="36.687434" lon="137.754194">
<ele>2714.631838</ele>
<time>2014-08-17T22:54:39Z</time>
<desc><![CDATA[lat.=36.687434, lon.=137.754194, Alt.=2714.631838m. Speed=0.000000m/h.]]></desc>
</trkpt>
<trkpt lat="36.687419" lon="137.754194">
<ele>2715.167146</ele>
<time>2014-08-17T22:54:53Z</time>
<desc><![CDATA[lat.=36.687419, lon.=137.754194, Alt.=2715.167146m. Speed=1.000000m/h.]]></desc>
</trkpt>
<trkpt lat="36.687397" lon="137.754177">
<ele>2715.050512</ele>
<time>2014-08-17T22:54:58Z</time>
<desc><![CDATA[lat.=36.687397, lon.=137.754177, Alt.=2715.050512m. Speed=2.000000m/h.]]></desc>
</trkpt>
<trkpt lat="36.687379" lon="137.754184">
<ele>2716.179447</ele>
<time>2014-08-17T22:55:03Z</time>
<desc><![CDATA[lat.=36.687379, lon.=137.754184, Alt.=2716.179447m. Speed=1.000000m/h.]]></desc>
</trkpt>
<trkpt lat="36.687341" lon="137.754198">
<ele>2716.707113</ele>
<time>2014-08-17T22:55:08Z</time>
<desc><![CDATA[lat.=36.687341, lon.=137.754198, Alt.=2716.707113m. Speed=2.000000m/h.]]></desc>
</trkpt>
<trkpt lat="36.687323" lon="137.754205">
<ele>2717.836050</ele>
<time>2014-08-17T22:55:13Z</time>
<desc><![CDATA[lat.=36.687323, lon.=137.754205, Alt.=2717.836050m. Speed=1.000000m/h.]]></desc>
</trkpt>
<trkpt lat="36.687297" lon="137.754196">
<ele>2718.313047</ele>
<time>2014-08-17T22:55:18Z</time>
<desc><![CDATA[lat.=36.687297, lon.=137.754196, Alt.=2718.313047m. Speed=2.000000m/h.]]></desc>
</trkpt>
<trkpt lat="36.687305" lon="137.754197">
<ele>2717.180288</ele>
<time>2014-08-17T22:55:23Z</time>
<desc><![CDATA[lat.=36.687305, lon.=137.754197, Alt.=2717.180288m. Speed=0.000000m/h.]]></desc>
</trkpt>
<trkpt lat="36.687304" lon="137.754196">
<ele>2718.910494</ele>
<time>2014-08-17T22:55:28Z</time>
<desc><![CDATA[lat.=36.687304, lon.=137.754196, Alt.=2718.910494m. Speed=0.000000m/h.]]></desc>
</trkpt>
<trkpt lat="36.687315" lon="137.754204">
<ele>2718.968809</ele>
<time>2014-08-17T22:55:33Z</time>
<desc><![CDATA[lat.=36.687315, lon.=137.754204, Alt.=2718.968809m. Speed=0.000000m/h.]]></desc>
</trkpt>
<trkpt lat="36.687323" lon="137.754205">
<ele>2717.836050</ele>
<time>2014-08-17T22:55:38Z</time>
<desc><![CDATA[lat.=36.687323, lon.=137.754205, Alt.=2717.836050m. Speed=0.000000m/h.]]></desc>
</trkpt>
<trkpt lat="36.687326" lon="137.754213">
<ele>2717.296917</ele>
<time>2014-08-17T22:55:43Z</time>
<desc><![CDATA[lat.=36.687326, lon.=137.754213, Alt.=2717.296917m. Speed=0.000000m/h.]]></desc>
</trkpt>
<trkpt lat="36.687326" lon="137.754212">
<ele>2719.027124</ele>
<time>2014-08-17T22:55:48Z</time>
<desc><![CDATA[lat.=36.687326, lon.=137.754212, Alt.=2719.027124m. Speed=0.000000m/h.]]></desc>
</trkpt>
<trkpt lat="36.687333" lon="137.754212">
<ele>2719.624572</ele>
<time>2014-08-17T22:55:58Z</time>
<desc><![CDATA[lat.=36.687333, lon.=137.754212, Alt.=2719.624572m. Speed=0.000000m/h.]]></desc>
</trkpt>
<trkpt lat="36.687329" lon="137.754220">
<ele>2720.218198</ele>
<time>2014-08-17T22:56:03Z</time>
<desc><![CDATA[lat.=36.687329, lon.=137.754220, Alt.=2720.218198m. Speed=0.000000m/h.]]></desc>
</trkpt>
<trkpt lat="36.687333" lon="137.754212">
<ele>2719.624572</ele>
<time>2014-08-17T22:56:15Z</time>
<desc><![CDATA[lat.=36.687333, lon.=137.754212, Alt.=2719.624572m. Speed=0.000000m/h.]]></desc>
</trkpt>
<trkpt lat="36.687326" lon="137.754212">
<ele>2719.027124</ele>
<time>2014-08-17T22:56:20Z</time>
<desc><![CDATA[lat.=36.687326, lon.=137.754212, Alt.=2719.027124m. Speed=0.000000m/h.]]></desc>
</trkpt>
<trkpt lat="36.687329" lon="137.754221">
<ele>2718.487992</ele>
<time>2014-08-17T22:56:25Z</time>
<desc><![CDATA[lat.=36.687329, lon.=137.754221, Alt.=2718.487992m. Speed=0.000000m/h.]]></desc>
</trkpt>
<trkpt lat="36.687333" lon="137.754229">
<ele>2717.948859</ele>
<time>2014-08-17T22:56:30Z</time>
<desc><![CDATA[lat.=36.687333, lon.=137.754229, Alt.=2717.948859m. Speed=0.000000m/h.]]></desc>
</trkpt>
<trkpt lat="36.687326" lon="137.754229">
<ele>2717.351411</ele>
<time>2014-08-17T22:56:35Z</time>
<desc><![CDATA[lat.=36.687326, lon.=137.754229, Alt.=2717.351411m. Speed=0.000000m/h.]]></desc>
</trkpt>
<trkpt lat="36.687333" lon="137.754229">
<ele>2717.948859</ele>
<time>2014-08-17T22:56:40Z</time>
<desc><![CDATA[lat.=36.687333, lon.=137.754229, Alt.=2717.948859m. Speed=0.000000m/h.]]></desc>
</trkpt>
<trkpt lat="36.687329" lon="137.754236">
<ele>2718.542486</ele>
<time>2014-08-17T22:56:47Z</time>
<desc><![CDATA[lat.=36.687329, lon.=137.754236, Alt.=2718.542486m. Speed=0.000000m/h.]]></desc>
</trkpt>
<trkpt lat="36.687325" lon="137.754228">
<ele>2719.081618</ele>
<time>2014-08-17T22:56:52Z</time>
<desc><![CDATA[lat.=36.687325, lon.=137.754228, Alt.=2719.081618m. Speed=0.000000m/h.]]></desc>
</trkpt>
<trkpt lat="36.687340" lon="137.754229">
<ele>2718.546307</ele>
<time>2014-08-17T22:56:57Z</time>
<desc><![CDATA[lat.=36.687340, lon.=137.754229, Alt.=2718.546307m. Speed=0.000000m/h.]]></desc>
</trkpt>
<trkpt lat="36.687351" lon="137.754221">
<ele>2718.550129</ele>
<time>2014-08-17T22:57:02Z</time>
<desc><![CDATA[lat.=36.687351, lon.=137.754221, Alt.=2718.550129m. Speed=0.000000m/h.]]></desc>
</trkpt>
<trkpt lat="36.687348" lon="137.754229">
<ele>2719.143755</ele>
<time>2014-08-17T22:57:07Z</time>
<desc><![CDATA[lat.=36.687348, lon.=137.754229, Alt.=2719.143755m. Speed=0.000000m/h.]]></desc>
</trkpt>
<trkpt lat="36.687355" lon="137.754229">
<ele>2719.741203</ele>
<time>2014-08-17T22:57:34Z</time>
<desc><![CDATA[lat.=36.687355, lon.=137.754229, Alt.=2719.741203m. Speed=0.000000m/h.]]></desc>
</trkpt>
<trkpt lat="36.687351" lon="137.754221">
<ele>2720.280336</ele>
<time>2014-08-17T22:57:39Z</time>
<desc><![CDATA[lat.=36.687351, lon.=137.754221, Alt.=2720.280336m. Speed=0.000000m/h.]]></desc>
</trkpt>
<trkpt lat="36.687347" lon="137.754228">
<ele>2720.873962</ele>
<time>2014-08-17T22:57:47Z</time>
<desc><![CDATA[lat.=36.687347, lon.=137.754228, Alt.=2720.873962m. Speed=0.000000m/h.]]></desc>
</trkpt>
<trkpt lat="36.687351" lon="137.754221">
<ele>2720.280336</ele>
<time>2014-08-17T22:57:52Z</time>
<desc><![CDATA[lat.=36.687351, lon.=137.754221, Alt.=2720.280336m. Speed=0.000000m/h.]]></desc>
</trkpt>
<trkpt lat="36.687358" lon="137.754221">
<ele>2720.877784</ele>
<time>2014-08-17T22:58:02Z</time>
<desc><![CDATA[lat.=36.687358, lon.=137.754221, Alt.=2720.877784m. Speed=0.000000m/h.]]></desc>
</trkpt>
<trkpt lat="36.687351" lon="137.754221">
<ele>2720.280336</ele>
<time>2014-08-17T22:58:07Z</time>
<desc><![CDATA[lat.=36.687351, lon.=137.754221, Alt.=2720.280336m. Speed=0.000000m/h.]]></desc>
</trkpt>
<trkpt lat="36.687347" lon="137.754212">
<ele>2720.819468</ele>
<time>2014-08-17T22:58:19Z</time>
<desc><![CDATA[lat.=36.687347, lon.=137.754212, Alt.=2720.819468m. Speed=0.000000m/h.]]></desc>
</trkpt>
<trkpt lat="36.687355" lon="137.754212">
<ele>2721.416916</ele>
<time>2014-08-17T22:58:26Z</time>
<desc><![CDATA[lat.=36.687355, lon.=137.754212, Alt.=2721.416916m. Speed=0.000000m/h.]]></desc>
</trkpt>
<trkpt lat="36.687347" lon="137.754212">
<ele>2720.819468</ele>
<time>2014-08-17T22:58:31Z</time>
<desc><![CDATA[lat.=36.687347, lon.=137.754212, Alt.=2720.819468m. Speed=0.000000m/h.]]></desc>
</trkpt>
<trkpt lat="36.687359" lon="137.754205">
<ele>2720.823290</ele>
<time>2014-08-17T22:58:36Z</time>
<desc><![CDATA[lat.=36.687359, lon.=137.754205, Alt.=2720.823290m. Speed=1.000000m/h.]]></desc>
</trkpt>
<trkpt lat="36.687374" lon="137.754206">
<ele>2720.287980</ele>
<time>2014-08-17T22:58:41Z</time>
<desc><![CDATA[lat.=36.687374, lon.=137.754206, Alt.=2720.287980m. Speed=1.000000m/h.]]></desc>
</trkpt>
<trkpt lat="36.687378" lon="137.754198">
<ele>2719.694354</ele>
<time>2014-08-17T22:58:46Z</time>
<desc><![CDATA[lat.=36.687378, lon.=137.754198, Alt.=2719.694354m. Speed=0.000000m/h.]]></desc>
</trkpt>
<trkpt lat="36.687404" lon="137.754208">
<ele>2717.487155</ele>
<time>2014-08-17T22:58:51Z</time>
<desc><![CDATA[lat.=36.687404, lon.=137.754208, Alt.=2717.487155m. Speed=2.000000m/h.]]></desc>
</trkpt>
<trkpt lat="36.687426" lon="137.754209">
<ele>2717.549295</ele>
<time>2014-08-17T22:58:56Z</time>
<desc><![CDATA[lat.=36.687426, lon.=137.754209, Alt.=2717.549295m. Speed=2.000000m/h.]]></desc>
</trkpt>
<trkpt lat="36.687430" lon="137.754201">
<ele>2716.955670</ele>
<time>2014-08-17T22:59:01Z</time>
<desc><![CDATA[lat.=36.687430, lon.=137.754201, Alt.=2716.955670m. Speed=0.000000m/h.]]></desc>
</trkpt>
<trkpt lat="36.687426" lon="137.754194">
<ele>2715.764595</ele>
<time>2014-08-17T22:59:06Z</time>
<desc><![CDATA[lat.=36.687426, lon.=137.754194, Alt.=2715.764595m. Speed=0.000000m/h.]]></desc>
</trkpt>
<trkpt lat="36.687449" lon="137.754179">
<ele>2714.042037</ele>
<time>2014-08-17T22:59:11Z</time>
<desc><![CDATA[lat.=36.687449, lon.=137.754179, Alt.=2714.042037m. Speed=2.000000m/h.]]></desc>
</trkpt>
<trkpt lat="36.687478" lon="137.754197">
<ele>2713.025915</ele>
<time>2014-08-17T22:59:16Z</time>
<desc><![CDATA[lat.=36.687478, lon.=137.754197, Alt.=2713.025915m. Speed=2.000000m/h.]]></desc>
</trkpt>
<trkpt lat="36.687483" lon="137.754174">
<ele>2710.647591</ele>
<time>2014-08-17T22:59:21Z</time>
<desc><![CDATA[lat.=36.687483, lon.=137.754174, Alt.=2710.647591m. Speed=1.000000m/h.]]></desc>
</trkpt>
<trkpt lat="36.687484" lon="137.754142">
<ele>2710.538606</ele>
<time>2014-08-17T22:59:26Z</time>
<desc><![CDATA[lat.=36.687484, lon.=137.754142, Alt.=2710.538606m. Speed=2.000000m/h.]]></desc>
</trkpt>
<trkpt lat="36.687488" lon="137.754119">
<ele>2709.890489</ele>
<time>2014-08-17T22:59:31Z</time>
<desc><![CDATA[lat.=36.687488, lon.=137.754119, Alt.=2709.890489m. Speed=2.000000m/h.]]></desc>
</trkpt>
<trkpt lat="36.687507" lon="137.754112">
<ele>2708.761559</ele>
<time>2014-08-17T22:59:36Z</time>
<desc><![CDATA[lat.=36.687507, lon.=137.754112, Alt.=2708.761559m. Speed=2.000000m/h.]]></desc>
</trkpt>
<trkpt lat="36.687482" lon="137.754056">
<ele>2709.075074</ele>
<time>2014-08-17T22:59:41Z</time>
<desc><![CDATA[lat.=36.687482, lon.=137.754056, Alt.=2709.075074m. Speed=2.000000m/h.]]></desc>
</trkpt>
<trkpt lat="36.687506" lon="137.754042">
<ele>2705.622314</ele>
<time>2014-08-17T22:59:46Z</time>
<desc><![CDATA[lat.=36.687506, lon.=137.754042, Alt.=2705.622314m. Speed=2.000000m/h.]]></desc>
</trkpt>
<trkpt lat="36.687528" lon="137.754043">
<ele>2705.684459</ele>
<time>2014-08-17T22:59:51Z</time>
<desc><![CDATA[lat.=36.687528, lon.=137.754043, Alt.=2705.684459m. Speed=3.000000m/h.]]></desc>
</trkpt>
<trkpt lat="36.687561" lon="137.754052">
<ele>2705.804923</ele>
<time>2014-08-17T22:59:56Z</time>
<desc><![CDATA[lat.=36.687561, lon.=137.754052, Alt.=2705.804923m. Speed=2.000000m/h.]]></desc>
</trkpt>
<trkpt lat="36.687594" lon="137.754062">
<ele>2704.195182</ele>
<time>2014-08-17T23:00:01Z</time>
<desc><![CDATA[lat.=36.687594, lon.=137.754062, Alt.=2704.195182m. Speed=2.000000m/h.]]></desc>
</trkpt>
<trkpt lat="36.687627" lon="137.754072">
<ele>2702.585444</ele>
<time>2014-08-17T23:00:06Z</time>
<desc><![CDATA[lat.=36.687627, lon.=137.754072, Alt.=2702.585444m. Speed=3.000000m/h.]]></desc>
</trkpt>
<trkpt lat="36.687642" lon="137.754057">
<ele>2701.995651</ele>
<time>2014-08-17T23:00:11Z</time>
<desc><![CDATA[lat.=36.687642, lon.=137.754057, Alt.=2701.995651m. Speed=2.000000m/h.]]></desc>
</trkpt>
<trkpt lat="36.687658" lon="137.754043">
<ele>2699.675652</ele>
<time>2014-08-17T23:00:16Z</time>
<desc><![CDATA[lat.=36.687658, lon.=137.754043, Alt.=2699.675652m. Speed=2.000000m/h.]]></desc>
</trkpt>
<trkpt lat="36.687680" lon="137.754044">
<ele>2698.007596</ele>
<time>2014-08-17T23:00:21Z</time>
<desc><![CDATA[lat.=36.687680, lon.=137.754044, Alt.=2698.007596m. Speed=2.000000m/h.]]></desc>
</trkpt>
<trkpt lat="36.687699" lon="137.754037">
<ele>2696.878674</ele>
<time>2014-08-17T23:00:26Z</time>
<desc><![CDATA[lat.=36.687699, lon.=137.754037, Alt.=2696.878674m. Speed=2.000000m/h.]]></desc>
</trkpt>
<trkpt lat="36.687715" lon="137.754006">
<ele>2696.234394</ele>
<time>2014-08-17T23:00:31Z</time>
<desc><![CDATA[lat.=36.687715, lon.=137.754006, Alt.=2696.234394m. Speed=2.000000m/h.]]></desc>
</trkpt>
<trkpt lat="36.687744" lon="137.753991">
<ele>2696.839512</ele>
<time>2014-08-17T23:00:36Z</time>
<desc><![CDATA[lat.=36.687744, lon.=137.753991, Alt.=2696.839512m. Speed=2.000000m/h.]]></desc>
</trkpt>
<trkpt lat="36.687763" lon="137.753985">
<ele>2695.710592</ele>
<time>2014-08-17T23:00:41Z</time>
<desc><![CDATA[lat.=36.687763, lon.=137.753985, Alt.=2695.710592m. Speed=2.000000m/h.]]></desc>
</trkpt>
<trkpt lat="36.687800" lon="137.753986">
<ele>2695.237449</ele>
<time>2014-08-17T23:00:46Z</time>
<desc><![CDATA[lat.=36.687800, lon.=137.753986, Alt.=2695.237449m. Speed=3.000000m/h.]]></desc>
</trkpt>
<trkpt lat="36.687830" lon="137.753972">
<ele>2694.112366</ele>
<time>2014-08-17T23:00:51Z</time>
<desc><![CDATA[lat.=36.687830, lon.=137.753972, Alt.=2694.112366m. Speed=3.000000m/h.]]></desc>
</trkpt>
<trkpt lat="36.687860" lon="137.753958">
<ele>2692.987284</ele>
<time>2014-08-17T23:00:56Z</time>
<desc><![CDATA[lat.=36.687860, lon.=137.753958, Alt.=2692.987284m. Speed=3.000000m/h.]]></desc>
</trkpt>
<trkpt lat="36.687904" lon="137.753959">
<ele>2693.111605</ele>
<time>2014-08-17T23:01:01Z</time>
<desc><![CDATA[lat.=36.687904, lon.=137.753959, Alt.=2693.111605m. Speed=4.000000m/h.]]></desc>
</trkpt>
<trkpt lat="36.687952" lon="137.753937">
<ele>2694.318028</ele>
<time>2014-08-17T23:01:06Z</time>
<desc><![CDATA[lat.=36.687952, lon.=137.753937, Alt.=2694.318028m. Speed=4.000000m/h.]]></desc>
</trkpt>
<trkpt lat="36.687986" lon="137.753914">
<ele>2694.329542</ele>
<time>2014-08-17T23:01:11Z</time>
<desc><![CDATA[lat.=36.687986, lon.=137.753914, Alt.=2694.329542m. Speed=3.000000m/h.]]></desc>
</trkpt>
<trkpt lat="36.688004" lon="137.753907">
<ele>2694.930838</ele>
<time>2014-08-17T23:01:16Z</time>
<desc><![CDATA[lat.=36.688004, lon.=137.753907, Alt.=2694.930838m. Speed=3.000000m/h.]]></desc>
</trkpt>
<trkpt lat="36.688018" lon="137.753922">
<ele>2696.180241</ele>
<time>2014-08-17T23:01:21Z</time>
<desc><![CDATA[lat.=36.688018, lon.=137.753922, Alt.=2696.180241m. Speed=2.000000m/h.]]></desc>
</trkpt>
<trkpt lat="36.688044" lon="137.753916">
<ele>2695.648789</ele>
<time>2014-08-17T23:01:26Z</time>
<desc><![CDATA[lat.=36.688044, lon.=137.753916, Alt.=2695.648789m. Speed=2.000000m/h.]]></desc>
</trkpt>
<trkpt lat="36.688055" lon="137.753923">
<ele>2697.437323</ele>
<time>2014-08-17T23:01:31Z</time>
<desc><![CDATA[lat.=36.688055, lon.=137.753923, Alt.=2697.437323m. Speed=2.000000m/h.]]></desc>
</trkpt>
<trkpt lat="36.688058" lon="137.753931">
<ele>2698.628399</ele>
<time>2014-08-17T23:01:36Z</time>
<desc><![CDATA[lat.=36.688058, lon.=137.753931, Alt.=2698.628399m. Speed=1.000000m/h.]]></desc>
</trkpt>
<trkpt lat="36.688054" lon="137.753922">
<ele>2699.167529</ele>
<time>2014-08-17T23:01:44Z</time>
<desc><![CDATA[lat.=36.688054, lon.=137.753922, Alt.=2699.167529m. Speed=0.000000m/h.]]></desc>
</trkpt>
<trkpt lat="36.688062" lon="137.753922">
<ele>2699.764987</ele>
<time>2014-08-17T23:01:59Z</time>
<desc><![CDATA[lat.=36.688062, lon.=137.753922, Alt.=2699.764987m. Speed=0.000000m/h.]]></desc>
</trkpt>
<trkpt lat="36.688058" lon="137.753915">
<ele>2698.573911</ele>
<time>2014-08-17T23:02:04Z</time>
<desc><![CDATA[lat.=36.688058, lon.=137.753915, Alt.=2698.573911m. Speed=0.000000m/h.]]></desc>
</trkpt>
<trkpt lat="36.688054" lon="137.753922">
<ele>2699.167529</ele>
<time>2014-08-17T23:02:13Z</time>
<desc><![CDATA[lat.=36.688054, lon.=137.753922, Alt.=2699.167529m. Speed=0.000000m/h.]]></desc>
</trkpt>
<trkpt lat="36.688058" lon="137.753931">
<ele>2698.628399</ele>
<time>2014-08-17T23:02:18Z</time>
<desc><![CDATA[lat.=36.688058, lon.=137.753931, Alt.=2698.628399m. Speed=1.000000m/h.]]></desc>
</trkpt>
<trkpt lat="36.688055" lon="137.753923">
<ele>2697.437323</ele>
<time>2014-08-17T23:02:27Z</time>
<desc><![CDATA[lat.=36.688055, lon.=137.753923, Alt.=2697.437323m. Speed=0.000000m/h.]]></desc>
</trkpt>
<trkpt lat="36.688058" lon="137.753931">
<ele>2696.898192</ele>
<time>2014-08-17T23:02:33Z</time>
<desc><![CDATA[lat.=36.688058, lon.=137.753931, Alt.=2696.898192m. Speed=0.000000m/h.]]></desc>
</trkpt>
<trkpt lat="36.688054" lon="137.753939">
<ele>2697.491810</ele>
<time>2014-08-17T23:02:38Z</time>
<desc><![CDATA[lat.=36.688054, lon.=137.753939, Alt.=2697.491810m. Speed=0.000000m/h.]]></desc>
</trkpt>
<trkpt lat="36.688058" lon="137.753947">
<ele>2696.952680</ele>
<time>2014-08-17T23:02:44Z</time>
<desc><![CDATA[lat.=36.688058, lon.=137.753947, Alt.=2696.952680m. Speed=1.000000m/h.]]></desc>
</trkpt>
<trkpt lat="36.688057" lon="137.753979">
<ele>2697.061657</ele>
<time>2014-08-17T23:02:49Z</time>
<desc><![CDATA[lat.=36.688057, lon.=137.753979, Alt.=2697.061657m. Speed=2.000000m/h.]]></desc>
</trkpt>
<trkpt lat="36.688065" lon="137.754012">
<ele>2694.307680</ele>
<time>2014-08-17T23:02:54Z</time>
<desc><![CDATA[lat.=36.688065, lon.=137.754012, Alt.=2694.307680m. Speed=2.000000m/h.]]></desc>
</trkpt>
<trkpt lat="36.688053" lon="137.754036">
<ele>2692.628124</ele>
<time>2014-08-17T23:02:59Z</time>
<desc><![CDATA[lat.=36.688053, lon.=137.754036, Alt.=2692.628124m. Speed=1.000000m/h.]]></desc>
</trkpt>
<trkpt lat="36.688061" lon="137.754036">
<ele>2693.225582</ele>
<time>2014-08-17T23:03:04Z</time>
<desc><![CDATA[lat.=36.688061, lon.=137.754036, Alt.=2693.225582m. Speed=0.000000m/h.]]></desc>
</trkpt>
<trkpt lat="36.688064" lon="137.754044">
<ele>2692.686453</ele>
<time>2014-08-17T23:03:09Z</time>
<desc><![CDATA[lat.=36.688064, lon.=137.754044, Alt.=2692.686453m. Speed=0.000000m/h.]]></desc>
</trkpt>
<trkpt lat="36.688068" lon="137.754037">
<ele>2692.092834</ele>
<time>2014-08-17T23:03:14Z</time>
<desc><![CDATA[lat.=36.688068, lon.=137.754037, Alt.=2692.092834m. Speed=0.000000m/h.]]></desc>
</trkpt>
<trkpt lat="36.688069" lon="137.754037">
<ele>2690.362628</ele>
<time>2014-08-17T23:03:19Z</time>
<desc><![CDATA[lat.=36.688069, lon.=137.754037, Alt.=2690.362628m. Speed=0.000000m/h.]]></desc>
</trkpt>
<trkpt lat="36.688076" lon="137.754037">
<ele>2690.960086</ele>
<time>2014-08-17T23:03:24Z</time>
<desc><![CDATA[lat.=36.688076, lon.=137.754037, Alt.=2690.960086m. Speed=0.000000m/h.]]></desc>
</trkpt>
<trkpt lat="36.688095" lon="137.754015">
<ele>2689.776688</ele>
<time>2014-08-17T23:03:29Z</time>
<desc><![CDATA[lat.=36.688095, lon.=137.754015, Alt.=2689.776688m. Speed=1.000000m/h.]]></desc>
</trkpt>
<trkpt lat="36.688103" lon="137.754000">
<ele>2688.589451</ele>
<time>2014-08-17T23:03:34Z</time>
<desc><![CDATA[lat.=36.688103, lon.=137.754000, Alt.=2688.589451m. Speed=1.000000m/h.]]></desc>
</trkpt>
<trkpt lat="36.688133" lon="137.753986">
<ele>2687.464385</ele>
<time>2014-08-17T23:03:39Z</time>
<desc><![CDATA[lat.=36.688133, lon.=137.753986, Alt.=2687.464385m. Speed=2.000000m/h.]]></desc>
</trkpt>
<trkpt lat="36.688155" lon="137.753986">
<ele>2687.526557</ele>
<time>2014-08-17T23:03:44Z</time>
<desc><![CDATA[lat.=36.688155, lon.=137.753986, Alt.=2687.526557m. Speed=1.000000m/h.]]></desc>
</trkpt>
<trkpt lat="36.688192" lon="137.753971">
<ele>2690.459366</ele>
<time>2014-08-17T23:03:49Z</time>
<desc><![CDATA[lat.=36.688192, lon.=137.753971, Alt.=2690.459366m. Speed=2.000000m/h.]]></desc>
</trkpt>
<trkpt lat="36.688178" lon="137.753939">
<ele>2689.155471</ele>
<time>2014-08-17T23:03:54Z</time>
<desc><![CDATA[lat.=36.688178, lon.=137.753939, Alt.=2689.155471m. Speed=1.000000m/h.]]></desc>
</trkpt>
<trkpt lat="36.688172" lon="137.753925">
<ele>2685.043111</ele>
<time>2014-08-17T23:03:59Z</time>
<desc><![CDATA[lat.=36.688172, lon.=137.753925, Alt.=2685.043111m. Speed=1.000000m/h.]]></desc>
</trkpt>
<trkpt lat="36.688179" lon="137.753925">
<ele>2685.640570</ele>
<time>2014-08-17T23:04:04Z</time>
<desc><![CDATA[lat.=36.688179, lon.=137.753925, Alt.=2685.640570m. Speed=0.000000m/h.]]></desc>
</trkpt>
<trkpt lat="36.688186" lon="137.753909">
<ele>2686.183543</ele>
<time>2014-08-17T23:04:09Z</time>
<desc><![CDATA[lat.=36.688186, lon.=137.753909, Alt.=2686.183543m. Speed=1.000000m/h.]]></desc>
</trkpt>
<trkpt lat="36.688187" lon="137.753925">
<ele>2684.507824</ele>
<time>2014-08-17T23:04:14Z</time>
<desc><![CDATA[lat.=36.688187, lon.=137.753925, Alt.=2684.507824m. Speed=1.000000m/h.]]></desc>
</trkpt>
<trkpt lat="36.688179" lon="137.753925">
<ele>2683.910364</ele>
<time>2014-08-17T23:04:19Z</time>
<desc><![CDATA[lat.=36.688179, lon.=137.753925, Alt.=2683.910364m. Speed=0.000000m/h.]]></desc>
</trkpt>
<trkpt lat="36.688198" lon="137.753919">
<ele>2681.051254</ele>
<time>2014-08-17T23:04:24Z</time>
<desc><![CDATA[lat.=36.688198, lon.=137.753919, Alt.=2681.051254m. Speed=1.000000m/h.]]></desc>
</trkpt>
<trkpt lat="36.688191" lon="137.753936">
<ele>2678.778075</ele>
<time>2014-08-17T23:04:29Z</time>
<desc><![CDATA[lat.=36.688191, lon.=137.753936, Alt.=2678.778075m. Speed=1.000000m/h.]]></desc>
</trkpt>
<trkpt lat="36.688195" lon="137.753944">
<ele>2678.238946</ele>
<time>2014-08-17T23:04:35Z</time>
<desc><![CDATA[lat.=36.688195, lon.=137.753944, Alt.=2678.238946m. Speed=1.000000m/h.]]></desc>
</trkpt>
<trkpt lat="36.688209" lon="137.753976">
<ele>2679.542842</ele>
<time>2014-08-17T23:04:40Z</time>
<desc><![CDATA[lat.=36.688209, lon.=137.753976, Alt.=2679.542842m. Speed=2.000000m/h.]]></desc>
</trkpt>
<trkpt lat="36.688208" lon="137.753992">
<ele>2679.597331</ele>
<time>2014-08-17T23:04:45Z</time>
<desc><![CDATA[lat.=36.688208, lon.=137.753992, Alt.=2679.597331m. Speed=0.000000m/h.]]></desc>
</trkpt>
<trkpt lat="36.688227" lon="137.753986">
<ele>2676.738222</ele>
<time>2014-08-17T23:04:50Z</time>
<desc><![CDATA[lat.=36.688227, lon.=137.753986, Alt.=2676.738222m. Speed=0.000000m/h.]]></desc>
</trkpt>
<trkpt lat="36.688242" lon="137.753986">
<ele>2677.933143</ele>
<time>2014-08-17T23:04:55Z</time>
<desc><![CDATA[lat.=36.688242, lon.=137.753986, Alt.=2677.933143m. Speed=0.000000m/h.]]></desc>
</trkpt>
<trkpt lat="36.688261" lon="137.753979">
<ele>2676.804241</ele>
<time>2014-08-17T23:05:00Z</time>
<desc><![CDATA[lat.=36.688261, lon.=137.753979, Alt.=2676.804241m. Speed=1.000000m/h.]]></desc>
</trkpt>
<trkpt lat="36.688266" lon="137.753924">
<ele>2676.047160</ele>
<time>2014-08-17T23:05:05Z</time>
<desc><![CDATA[lat.=36.688266, lon.=137.753924, Alt.=2676.047160m. Speed=2.000000m/h.]]></desc>
</trkpt>
<trkpt lat="36.688270" lon="137.753901">
<ele>2673.668851</ele>
<time>2014-08-17T23:05:10Z</time>
<desc><![CDATA[lat.=36.688270, lon.=137.753901, Alt.=2673.668851m. Speed=1.000000m/h.]]></desc>
</trkpt>
<trkpt lat="36.688319" lon="137.753896">
<ele>2671.469384</ele>
<time>2014-08-17T23:05:15Z</time>
<desc><![CDATA[lat.=36.688319, lon.=137.753896, Alt.=2671.469384m. Speed=2.000000m/h.]]></desc>
</trkpt>
<trkpt lat="36.688337" lon="137.753904">
<ele>2672.125179</ele>
<time>2014-08-17T23:05:20Z</time>
<desc><![CDATA[lat.=36.688337, lon.=137.753904, Alt.=2672.125179m. Speed=2.000000m/h.]]></desc>
</trkpt>
<trkpt lat="36.688326" lon="137.753929">
<ele>2670.445614</ele>
<time>2014-08-17T23:05:25Z</time>
<desc><![CDATA[lat.=36.688326, lon.=137.753929, Alt.=2670.445614m. Speed=2.000000m/h.]]></desc>
</trkpt>
<trkpt lat="36.688318" lon="137.753928">
<ele>2671.578358</ele>
<time>2014-08-17T23:05:30Z</time>
<desc><![CDATA[lat.=36.688318, lon.=137.753928, Alt.=2671.578358m. Speed=0.000000m/h.]]></desc>
</trkpt>
<trkpt lat="36.688334" lon="137.753914">
<ele>2667.528176</ele>
<time>2014-08-17T23:05:35Z</time>
<desc><![CDATA[lat.=36.688334, lon.=137.753914, Alt.=2667.528176m. Speed=2.000000m/h.]]></desc>
</trkpt>
<trkpt lat="36.688345" lon="137.753922">
<ele>2669.316716</ele>
<time>2014-08-17T23:05:40Z</time>
<desc><![CDATA[lat.=36.688345, lon.=137.753922, Alt.=2669.316716m. Speed=1.000000m/h.]]></desc>
</trkpt>
<trkpt lat="36.688363" lon="137.753930">
<ele>2669.972512</ele>
<time>2014-08-17T23:05:45Z</time>
<desc><![CDATA[lat.=36.688363, lon.=137.753930, Alt.=2669.972512m. Speed=1.000000m/h.]]></desc>
</trkpt>
<trkpt lat="36.688388" lon="137.753954">
<ele>2671.280259</ele>
<time>2014-08-17T23:05:50Z</time>
<desc><![CDATA[lat.=36.688388, lon.=137.753954, Alt.=2671.280259m. Speed=2.000000m/h.]]></desc>
</trkpt>
<trkpt lat="36.688388" lon="137.753955">
<ele>2669.550052</ele>
<time>2014-08-17T23:05:55Z</time>
<desc><![CDATA[lat.=36.688388, lon.=137.753955, Alt.=2669.550052m. Speed=1.000000m/h.]]></desc>
</trkpt>
<trkpt lat="36.688385" lon="137.753932">
<ele>2668.304486</ele>
<time>2014-08-17T23:06:00Z</time>
<desc><![CDATA[lat.=36.688385, lon.=137.753932, Alt.=2668.304486m. Speed=1.000000m/h.]]></desc>
</trkpt>
<trkpt lat="36.688437" lon="137.753918">
<ele>2667.241621</ele>
<time>2014-08-17T23:06:05Z</time>
<desc><![CDATA[lat.=36.688437, lon.=137.753918, Alt.=2667.241621m. Speed=2.000000m/h.]]></desc>
</trkpt>
<trkpt lat="36.688434" lon="137.753911">
<ele>2666.050543</ele>
<time>2014-08-17T23:06:10Z</time>
<desc><![CDATA[lat.=36.688434, lon.=137.753911, Alt.=2666.050543m. Speed=0.000000m/h.]]></desc>
</trkpt>
<trkpt lat="36.688445" lon="137.753903">
<ele>2666.054392</ele>
<time>2014-08-17T23:06:15Z</time>
<desc><![CDATA[lat.=36.688445, lon.=137.753903, Alt.=2666.054392m. Speed=0.000000m/h.]]></desc>
</trkpt>
<trkpt lat="36.688461" lon="137.753872">
<ele>2665.410139</ele>
<time>2014-08-17T23:06:20Z</time>
<desc><![CDATA[lat.=36.688461, lon.=137.753872, Alt.=2665.410139m. Speed=2.000000m/h.]]></desc>
</trkpt>
<trkpt lat="36.688490" lon="137.753890">
<ele>2662.663863</ele>
<time>2014-08-17T23:06:25Z</time>
<desc><![CDATA[lat.=36.688490, lon.=137.753890, Alt.=2662.663863m. Speed=2.000000m/h.]]></desc>
</trkpt>
<trkpt lat="36.688498" lon="137.753907">
<ele>2661.585608</ele>
<time>2014-08-17T23:06:30Z</time>
<desc><![CDATA[lat.=36.688498, lon.=137.753907, Alt.=2661.585608m. Speed=1.000000m/h.]]></desc>
</trkpt>
<trkpt lat="36.688513" lon="137.753892">
<ele>2660.995843</ele>
<time>2014-08-17T23:06:35Z</time>
<desc><![CDATA[lat.=36.688513, lon.=137.753892, Alt.=2660.995843m. Speed=1.000000m/h.]]></desc>
</trkpt>
<trkpt lat="36.688535" lon="137.753909">
<ele>2659.382312</ele>
<time>2014-08-17T23:06:40Z</time>
<desc><![CDATA[lat.=36.688535, lon.=137.753909, Alt.=2659.382312m. Speed=2.000000m/h.]]></desc>
</trkpt>
<trkpt lat="36.688554" lon="137.753902">
<ele>2658.253421</ele>
<time>2014-08-17T23:06:45Z</time>
<desc><![CDATA[lat.=36.688554, lon.=137.753902, Alt.=2658.253421m. Speed=2.000000m/h.]]></desc>
</trkpt>
<trkpt lat="36.688575" lon="137.753918">
<ele>2660.100303</ele>
<time>2014-08-17T23:06:50Z</time>
<desc><![CDATA[lat.=36.688575, lon.=137.753918, Alt.=2660.100303m. Speed=2.000000m/h.]]></desc>
</trkpt>
<trkpt lat="36.688597" lon="137.753935">
<ele>2660.216981</ele>
<time>2014-08-17T23:06:55Z</time>
<desc><![CDATA[lat.=36.688597, lon.=137.753935, Alt.=2660.216981m. Speed=2.000000m/h.]]></desc>
</trkpt>
<trkpt lat="36.688618" lon="137.753951">
<ele>2660.333659</ele>
<time>2014-08-17T23:07:00Z</time>
<desc><![CDATA[lat.=36.688618, lon.=137.753951, Alt.=2660.333659m. Speed=2.000000m/h.]]></desc>
</trkpt>
<trkpt lat="36.688659" lon="137.753961">
<ele>2659.321452</ele>
<time>2014-08-17T23:07:05Z</time>
<desc><![CDATA[lat.=36.688659, lon.=137.753961, Alt.=2659.321452m. Speed=2.000000m/h.]]></desc>
</trkpt>
<trkpt lat="36.688692" lon="137.753955">
<ele>2657.657293</ele>
<time>2014-08-17T23:07:10Z</time>
<desc><![CDATA[lat.=36.688692, lon.=137.753955, Alt.=2657.657293m. Speed=3.000000m/h.]]></desc>
</trkpt>
<trkpt lat="36.688726" lon="137.753933">
<ele>2655.938650</ele>
<time>2014-08-17T23:07:15Z</time>
<desc><![CDATA[lat.=36.688726, lon.=137.753933, Alt.=2655.938650m. Speed=3.000000m/h.]]></desc>
</trkpt>
<trkpt lat="36.688752" lon="137.753926">
<ele>2657.137439</ele>
<time>2014-08-17T23:07:20Z</time>
<desc><![CDATA[lat.=36.688752, lon.=137.753926, Alt.=2657.137439m. Speed=3.000000m/h.]]></desc>
</trkpt>
<trkpt lat="36.688763" lon="137.753918">
<ele>2657.141295</ele>
<time>2014-08-17T23:07:25Z</time>
<desc><![CDATA[lat.=36.688763, lon.=137.753918, Alt.=2657.141295m. Speed=0.000000m/h.]]></desc>
</trkpt>
<trkpt lat="36.688752" lon="137.753910">
<ele>2657.082953</ele>
<time>2014-08-17T23:07:30Z</time>
<desc><![CDATA[lat.=36.688752, lon.=137.753910, Alt.=2657.082953m. Speed=0.000000m/h.]]></desc>
</trkpt>
<trkpt lat="36.688771" lon="137.753902">
<ele>2657.684276</ele>
<time>2014-08-17T23:07:35Z</time>
<desc><![CDATA[lat.=36.688771, lon.=137.753902, Alt.=2657.684276m. Speed=2.000000m/h.]]></desc>
</trkpt>
<trkpt lat="36.688811" lon="137.753912">
<ele>2656.672080</ele>
<time>2014-08-17T23:07:40Z</time>
<desc><![CDATA[lat.=36.688811, lon.=137.753912, Alt.=2656.672080m. Speed=3.000000m/h.]]></desc>
</trkpt>
<trkpt lat="36.688852" lon="137.753921">
<ele>2657.390093</ele>
<time>2014-08-17T23:07:45Z</time>
<desc><![CDATA[lat.=36.688852, lon.=137.753921, Alt.=2657.390093m. Speed=3.000000m/h.]]></desc>
</trkpt>
<trkpt lat="36.688863" lon="137.753914">
<ele>2657.393951</ele>
<time>2014-08-17T23:07:50Z</time>
<desc><![CDATA[lat.=36.688863, lon.=137.753914, Alt.=2657.393951m. Speed=0.000000m/h.]]></desc>
</trkpt>
<trkpt lat="36.688859" lon="137.753906">
<ele>2656.202870</ele>
<time>2014-08-17T23:07:55Z</time>
<desc><![CDATA[lat.=36.688859, lon.=137.753906, Alt.=2656.202870m. Speed=0.000000m/h.]]></desc>
</trkpt>
<trkpt lat="36.688867" lon="137.753906">
<ele>2656.800339</ele>
<time>2014-08-17T23:08:00Z</time>
<desc><![CDATA[lat.=36.688867, lon.=137.753906, Alt.=2656.800339m. Speed=0.000000m/h.]]></desc>
</trkpt>
<trkpt lat="36.688863" lon="137.753898">
<ele>2657.339464</ele>
<time>2014-08-17T23:08:05Z</time>
<desc><![CDATA[lat.=36.688863, lon.=137.753898, Alt.=2657.339464m. Speed=0.000000m/h.]]></desc>
</trkpt>
<trkpt lat="36.688867" lon="137.753906">
<ele>2656.800339</ele>
<time>2014-08-17T23:08:12Z</time>
<desc><![CDATA[lat.=36.688867, lon.=137.753906, Alt.=2656.800339m. Speed=0.000000m/h.]]></desc>
</trkpt>
<trkpt lat="36.688878" lon="137.753915">
<ele>2656.858684</ele>
<time>2014-08-17T23:08:18Z</time>
<desc><![CDATA[lat.=36.688878, lon.=137.753915, Alt.=2656.858684m. Speed=1.000000m/h.]]></desc>
</trkpt>
<trkpt lat="36.688910" lon="137.753939">
<ele>2657.033719</ele>
<time>2014-08-17T23:08:23Z</time>
<desc><![CDATA[lat.=36.688910, lon.=137.753939, Alt.=2657.033719m. Speed=3.000000m/h.]]></desc>
</trkpt>
<trkpt lat="36.688943" lon="137.753964">
<ele>2657.208758</ele>
<time>2014-08-17T23:08:28Z</time>
<desc><![CDATA[lat.=36.688943, lon.=137.753964, Alt.=2657.208758m. Speed=2.000000m/h.]]></desc>
</trkpt>
<trkpt lat="36.688975" lon="137.753989">
<ele>2657.383799</ele>
<time>2014-08-17T23:08:33Z</time>
<desc><![CDATA[lat.=36.688975, lon.=137.753989, Alt.=2657.383799m. Speed=3.000000m/h.]]></desc>
</trkpt>
<trkpt lat="36.689022" lon="137.753997">
<ele>2660.429503</ele>
<time>2014-08-17T23:08:38Z</time>
<desc><![CDATA[lat.=36.689022, lon.=137.753997, Alt.=2660.429503m. Speed=3.000000m/h.]]></desc>
</trkpt>
<trkpt lat="36.689041" lon="137.753991">
<ele>2659.300630</ele>
<time>2014-08-17T23:08:43Z</time>
<desc><![CDATA[lat.=36.689041, lon.=137.753991, Alt.=2659.300630m. Speed=3.000000m/h.]]></desc>
</trkpt>
<trkpt lat="36.689067" lon="137.753985">
<ele>2657.039023</ele>
<time>2014-08-17T23:08:48Z</time>
<desc><![CDATA[lat.=36.689067, lon.=137.753985, Alt.=2657.039023m. Speed=2.000000m/h.]]></desc>
</trkpt>
<trkpt lat="36.689079" lon="137.753977">
<ele>2657.042885</ele>
<time>2014-08-17T23:08:53Z</time>
<desc><![CDATA[lat.=36.689079, lon.=137.753977, Alt.=2657.042885m. Speed=1.000000m/h.]]></desc>
</trkpt>
<trkpt lat="36.689101" lon="137.753978">
<ele>2657.105097</ele>
<time>2014-08-17T23:08:58Z</time>
<desc><![CDATA[lat.=36.689101, lon.=137.753978, Alt.=2657.105097m. Speed=2.000000m/h.]]></desc>
</trkpt>
<trkpt lat="36.689137" lon="137.753979">
<ele>2658.362255</ele>
<time>2014-08-17T23:09:03Z</time>
<desc><![CDATA[lat.=36.689137, lon.=137.753979, Alt.=2658.362255m. Speed=2.000000m/h.]]></desc>
</trkpt>
<trkpt lat="36.689166" lon="137.753979">
<ele>2660.752149</ele>
<time>2014-08-17T23:09:08Z</time>
<desc><![CDATA[lat.=36.689166, lon.=137.753979, Alt.=2660.752149m. Speed=2.000000m/h.]]></desc>
</trkpt>
<trkpt lat="36.689195" lon="137.753963">
<ele>2663.087556</ele>
<time>2014-08-17T23:09:13Z</time>
<desc><![CDATA[lat.=36.689195, lon.=137.753963, Alt.=2663.087556m. Speed=2.000000m/h.]]></desc>
</trkpt>
<trkpt lat="36.689221" lon="137.753956">
<ele>2662.556163</ele>
<time>2014-08-17T23:09:18Z</time>
<desc><![CDATA[lat.=36.689221, lon.=137.753956, Alt.=2662.556163m. Speed=2.000000m/h.]]></desc>
</trkpt>
<trkpt lat="36.689243" lon="137.753939">
<ele>2666.024305</ele>
<time>2014-08-17T23:09:23Z</time>
<desc><![CDATA[lat.=36.689243, lon.=137.753939, Alt.=2666.024305m. Speed=2.000000m/h.]]></desc>
</trkpt>
<trkpt lat="36.689257" lon="137.753939">
<ele>2667.219254</ele>
<time>2014-08-17T23:09:28Z</time>
<desc><![CDATA[lat.=36.689257, lon.=137.753939, Alt.=2667.219254m. Speed=2.000000m/h.]]></desc>
</trkpt>
<trkpt lat="36.689287" lon="137.753941">
<ele>2666.148743</ele>
<time>2014-08-17T23:09:33Z</time>
<desc><![CDATA[lat.=36.689287, lon.=137.753941, Alt.=2666.148743m. Speed=2.000000m/h.]]></desc>
</trkpt>
<trkpt lat="36.689295" lon="137.753909">
<ele>2668.367451</ele>
<time>2014-08-17T23:09:38Z</time>
<desc><![CDATA[lat.=36.689295, lon.=137.753909, Alt.=2668.367451m. Speed=1.000000m/h.]]></desc>
</trkpt>
<trkpt lat="36.689291" lon="137.753917">
<ele>2667.230854</ele>
<time>2014-08-17T23:09:43Z</time>
<desc><![CDATA[lat.=36.689291, lon.=137.753917, Alt.=2667.230854m. Speed=1.000000m/h.]]></desc>
</trkpt>
<trkpt lat="36.689305" lon="137.753917">
<ele>2668.425804</ele>
<time>2014-08-17T23:09:48Z</time>
<desc><![CDATA[lat.=36.689305, lon.=137.753917, Alt.=2668.425804m. Speed=0.000000m/h.]]></desc>
</trkpt>
<trkpt lat="36.689324" lon="137.753926">
<ele>2667.351428</ele>
<time>2014-08-17T23:09:53Z</time>
<desc><![CDATA[lat.=36.689324, lon.=137.753926, Alt.=2667.351428m. Speed=1.000000m/h.]]></desc>
</trkpt>
<trkpt lat="36.689345" lon="137.753925">
<ele>2670.874062</ele>
<time>2014-08-17T23:09:58Z</time>
<desc><![CDATA[lat.=36.689345, lon.=137.753925, Alt.=2670.874062m. Speed=2.000000m/h.]]></desc>
</trkpt>
<trkpt lat="36.689356" lon="137.753917">
<ele>2672.608135</ele>
<time>2014-08-17T23:10:03Z</time>
<desc><![CDATA[lat.=36.689356, lon.=137.753917, Alt.=2672.608135m. Speed=0.000000m/h.]]></desc>
</trkpt>
<trkpt lat="36.689360" lon="137.753909">
<ele>2672.014527</ele>
<time>2014-08-17T23:10:08Z</time>
<desc><![CDATA[lat.=36.689360, lon.=137.753909, Alt.=2672.014527m. Speed=2.000000m/h.]]></desc>
</trkpt>
<trkpt lat="36.689394" lon="137.753903">
<ele>2670.350415</ele>
<time>2014-08-17T23:10:13Z</time>
<desc><![CDATA[lat.=36.689394, lon.=137.753903, Alt.=2670.350415m. Speed=2.000000m/h.]]></desc>
</trkpt>
<trkpt lat="36.689431" lon="137.753906">
<ele>2668.147183</ele>
<time>2014-08-17T23:10:18Z</time>
<desc><![CDATA[lat.=36.689431, lon.=137.753906, Alt.=2668.147183m. Speed=2.000000m/h.]]></desc>
</trkpt>
<trkpt lat="36.689453" lon="137.753907">
<ele>2666.479205</ele>
<time>2014-08-17T23:10:23Z</time>
<desc><![CDATA[lat.=36.689453, lon.=137.753907, Alt.=2666.479205m. Speed=2.000000m/h.]]></desc>
</trkpt>
<trkpt lat="36.689476" lon="137.753909">
<ele>2664.811227</ele>
<time>2014-08-17T23:10:28Z</time>
<desc><![CDATA[lat.=36.689476, lon.=137.753909, Alt.=2664.811227m. Speed=2.000000m/h.]]></desc>
</trkpt>
<trkpt lat="36.689512" lon="137.753926">
<ele>2664.392693</ele>
<time>2014-08-17T23:10:33Z</time>
<desc><![CDATA[lat.=36.689512, lon.=137.753926, Alt.=2664.392693m. Speed=3.000000m/h.]]></desc>
</trkpt>
<trkpt lat="36.689534" lon="137.753943">
<ele>2664.509410</ele>
<time>2014-08-17T23:10:38Z</time>
<desc><![CDATA[lat.=36.689534, lon.=137.753943, Alt.=2664.509410m. Speed=2.000000m/h.]]></desc>
</trkpt>
<trkpt lat="36.689553" lon="137.753936">
<ele>2663.380556</ele>
<time>2014-08-17T23:10:43Z</time>
<desc><![CDATA[lat.=36.689553, lon.=137.753936, Alt.=2663.380556m. Speed=2.000000m/h.]]></desc>
</trkpt>
<trkpt lat="36.689575" lon="137.753921">
<ele>2663.388301</ele>
<time>2014-08-17T23:10:48Z</time>
<desc><![CDATA[lat.=36.689575, lon.=137.753921, Alt.=2663.388301m. Speed=2.000000m/h.]]></desc>
</trkpt>
<trkpt lat="36.689617" lon="137.753900">
<ele>2660.536991</ele>
<time>2014-08-17T23:10:53Z</time>
<desc><![CDATA[lat.=36.689617, lon.=137.753900, Alt.=2660.536991m. Speed=3.000000m/h.]]></desc>
</trkpt>
<trkpt lat="36.689647" lon="137.753853">
<ele>2661.033249</ele>
<time>2014-08-17T23:10:58Z</time>
<desc><![CDATA[lat.=36.689647, lon.=137.753853, Alt.=2661.033249m. Speed=3.000000m/h.]]></desc>
</trkpt>
<trkpt lat="36.689666" lon="137.753813">
<ele>2663.255841</ele>
<time>2014-08-17T23:11:03Z</time>
<desc><![CDATA[lat.=36.689666, lon.=137.753813, Alt.=2663.255841m. Speed=3.000000m/h.]]></desc>
</trkpt>
<trkpt lat="36.689703" lon="137.753815">
<ele>2662.782835</ele>
<time>2014-08-17T23:11:08Z</time>
<desc><![CDATA[lat.=36.689703, lon.=137.753815, Alt.=2662.782835m. Speed=3.000000m/h.]]></desc>
</trkpt>
<trkpt lat="36.689744" lon="137.753793">
<ele>2661.661743</ele>
<time>2014-08-17T23:11:13Z</time>
<desc><![CDATA[lat.=36.689744, lon.=137.753793, Alt.=2661.661743m. Speed=3.000000m/h.]]></desc>
</trkpt>
<trkpt lat="36.689758" lon="137.753793">
<ele>2662.856706</ele>
<time>2014-08-17T23:11:18Z</time>
<desc><![CDATA[lat.=36.689758, lon.=137.753793, Alt.=2662.856706m. Speed=3.000000m/h.]]></desc>
</trkpt>
<trkpt lat="36.689762" lon="137.753801">
<ele>2662.317586</ele>
<time>2014-08-17T23:11:23Z</time>
<desc><![CDATA[lat.=36.689762, lon.=137.753801, Alt.=2662.317586m. Speed=0.000000m/h.]]></desc>
</trkpt>
<trkpt lat="36.689776" lon="137.753801">
<ele>2663.512550</ele>
<time>2014-08-17T23:11:28Z</time>
<desc><![CDATA[lat.=36.689776, lon.=137.753801, Alt.=2663.512550m. Speed=1.000000m/h.]]></desc>
</trkpt>
<trkpt lat="36.689791" lon="137.753801">
<ele>2664.707515</ele>
<time>2014-08-17T23:11:33Z</time>
<desc><![CDATA[lat.=36.689791, lon.=137.753801, Alt.=2664.707515m. Speed=1.000000m/h.]]></desc>
</trkpt>
<trkpt lat="36.689806" lon="137.753785">
<ele>2665.847996</ele>
<time>2014-08-17T23:11:38Z</time>
<desc><![CDATA[lat.=36.689806, lon.=137.753785, Alt.=2665.847996m. Speed=2.000000m/h.]]></desc>
</trkpt>
<trkpt lat="36.689851" lon="137.753772">
<ele>2664.187793</ele>
<time>2014-08-17T23:11:43Z</time>
<desc><![CDATA[lat.=36.689851, lon.=137.753772, Alt.=2664.187793m. Speed=3.000000m/h.]]></desc>
</trkpt>
<trkpt lat="36.689862" lon="137.753764">
<ele>2664.191674</ele>
<time>2014-08-17T23:11:48Z</time>
<desc><![CDATA[lat.=36.689862, lon.=137.753764, Alt.=2664.191674m. Speed=2.000000m/h.]]></desc>
</trkpt>
<trkpt lat="36.689899" lon="137.753766">
<ele>2663.718681</ele>
<time>2014-08-17T23:11:53Z</time>
<desc><![CDATA[lat.=36.689899, lon.=137.753766, Alt.=2663.718681m. Speed=3.000000m/h.]]></desc>
</trkpt>
<trkpt lat="36.689896" lon="137.753759">
<ele>2660.797390</ele>
<time>2014-08-17T23:11:58Z</time>
<desc><![CDATA[lat.=36.689896, lon.=137.753759, Alt.=2660.797390m. Speed=0.000000m/h.]]></desc>
</trkpt>
<trkpt lat="36.689899" lon="137.753766">
<ele>2663.718681</ele>
<time>2014-08-17T23:12:03Z</time>
<desc><![CDATA[lat.=36.689899, lon.=137.753766, Alt.=2663.718681m. Speed=1.000000m/h.]]></desc>
</trkpt>
<trkpt lat="36.689917" lon="137.753791">
<ele>2662.698808</ele>
<time>2014-08-17T23:12:08Z</time>
<desc><![CDATA[lat.=36.689917, lon.=137.753791, Alt.=2662.698808m. Speed=2.000000m/h.]]></desc>
</trkpt>
<trkpt lat="36.689943" lon="137.753801">
<ele>2660.491732</ele>
<time>2014-08-17T23:12:13Z</time>
<desc><![CDATA[lat.=36.689943, lon.=137.753801, Alt.=2660.491732m. Speed=2.000000m/h.]]></desc>
</trkpt>
<trkpt lat="36.689961" lon="137.753810">
<ele>2659.417377</ele>
<time>2014-08-17T23:12:18Z</time>
<desc><![CDATA[lat.=36.689961, lon.=137.753810, Alt.=2659.417377m. Speed=2.000000m/h.]]></desc>
</trkpt>
<trkpt lat="36.689990" lon="137.753827">
<ele>2658.401390</ele>
<time>2014-08-17T23:12:23Z</time>
<desc><![CDATA[lat.=36.689990, lon.=137.753827, Alt.=2658.401390m. Speed=1.000000m/h.]]></desc>
</trkpt>
<trkpt lat="36.690008" lon="137.753867">
<ele>2659.166213</ele>
<time>2014-08-17T23:12:28Z</time>
<desc><![CDATA[lat.=36.690008, lon.=137.753867, Alt.=2659.166213m. Speed=2.000000m/h.]]></desc>
</trkpt>
<trkpt lat="36.690004" lon="137.753858">
<ele>2659.705330</ele>
<time>2014-08-17T23:12:34Z</time>
<desc><![CDATA[lat.=36.690004, lon.=137.753858, Alt.=2659.705330m. Speed=0.000000m/h.]]></desc>
</trkpt>
<trkpt lat="36.690008" lon="137.753867">
<ele>2659.166213</ele>
<time>2014-08-17T23:12:39Z</time>
<desc><![CDATA[lat.=36.690008, lon.=137.753867, Alt.=2659.166213m. Speed=1.000000m/h.]]></desc>
</trkpt>
<trkpt lat="36.690040" lon="137.753907">
<ele>2659.395804</ele>
<time>2014-08-17T23:12:44Z</time>
<desc><![CDATA[lat.=36.690040, lon.=137.753907, Alt.=2659.395804m. Speed=3.000000m/h.]]></desc>
</trkpt>
<trkpt lat="36.690063" lon="137.753893">
<ele>2657.673366</ele>
<time>2014-08-17T23:12:49Z</time>
<desc><![CDATA[lat.=36.690063, lon.=137.753893, Alt.=2657.673366m. Speed=2.000000m/h.]]></desc>
</trkpt>
<trkpt lat="36.690075" lon="137.753871">
<ele>2654.162354</ele>
<time>2014-08-17T23:12:54Z</time>
<desc><![CDATA[lat.=36.690075, lon.=137.753871, Alt.=2654.162354m. Speed=2.000000m/h.]]></desc>
</trkpt>
<trkpt lat="36.690079" lon="137.753848">
<ele>2653.514268</ele>
<time>2014-08-17T23:12:59Z</time>
<desc><![CDATA[lat.=36.690079, lon.=137.753848, Alt.=2653.514268m. Speed=1.000000m/h.]]></desc>
</trkpt>
<trkpt lat="36.690069" lon="137.753825">
<ele>2651.671209</ele>
<time>2014-08-17T23:13:04Z</time>
<desc><![CDATA[lat.=36.690069, lon.=137.753825, Alt.=2651.671209m. Speed=1.000000m/h.]]></desc>
</trkpt>
<trkpt lat="36.690077" lon="137.753825">
<ele>2650.538491</ele>
<time>2014-08-17T23:13:09Z</time>
<desc><![CDATA[lat.=36.690077, lon.=137.753825, Alt.=2650.538491m. Speed=0.000000m/h.]]></desc>
</trkpt>
<trkpt lat="36.690088" lon="137.753834">
<ele>2648.866655</ele>
<time>2014-08-17T23:13:14Z</time>
<desc><![CDATA[lat.=36.690088, lon.=137.753834, Alt.=2648.866655m. Speed=0.000000m/h.]]></desc>
</trkpt>
<trkpt lat="36.690089" lon="137.753819">
<ele>2648.812170</ele>
<time>2014-08-17T23:13:19Z</time>
<desc><![CDATA[lat.=36.690089, lon.=137.753819, Alt.=2648.812170m. Speed=1.000000m/h.]]></desc>
</trkpt>
<trkpt lat="36.690097" lon="137.753804">
<ele>2645.894763</ele>
<time>2014-08-17T23:13:24Z</time>
<desc><![CDATA[lat.=36.690097, lon.=137.753804, Alt.=2645.894763m. Speed=0.000000m/h.]]></desc>
</trkpt>
<trkpt lat="36.690101" lon="137.753797">
<ele>2645.301162</ele>
<time>2014-08-17T23:13:29Z</time>
<desc><![CDATA[lat.=36.690101, lon.=137.753797, Alt.=2645.301162m. Speed=0.000000m/h.]]></desc>
</trkpt>
<trkpt lat="36.690112" lon="137.753790">
<ele>2643.574843</ele>
<time>2014-08-17T23:13:34Z</time>
<desc><![CDATA[lat.=36.690112, lon.=137.753790, Alt.=2643.574843m. Speed=0.000000m/h.]]></desc>
</trkpt>
<trkpt lat="36.690120" lon="137.753791">
<ele>2642.442124</ele>
<time>2014-08-17T23:13:39Z</time>
<desc><![CDATA[lat.=36.690120, lon.=137.753791, Alt.=2642.442124m. Speed=0.000000m/h.]]></desc>
</trkpt>
<trkpt lat="36.690135" lon="137.753776">
<ele>2641.852410</ele>
<time>2014-08-17T23:13:44Z</time>
<desc><![CDATA[lat.=36.690135, lon.=137.753776, Alt.=2641.852410m. Speed=0.000000m/h.]]></desc>
</trkpt>
<trkpt lat="36.690162" lon="137.753771">
<ele>2636.130451</ele>
<time>2014-08-17T23:13:49Z</time>
<desc><![CDATA[lat.=36.690162, lon.=137.753771, Alt.=2636.130451m. Speed=1.000000m/h.]]></desc>
</trkpt>
<trkpt lat="36.690204" lon="137.753783">
<ele>2631.657953</ele>
<time>2014-08-17T23:13:54Z</time>
<desc><![CDATA[lat.=36.690204, lon.=137.753783, Alt.=2631.657953m. Speed=2.000000m/h.]]></desc>
</trkpt>
<trkpt lat="36.690252" lon="137.753761">
<ele>2631.134391</ele>
<time>2014-08-17T23:13:59Z</time>
<desc><![CDATA[lat.=36.690252, lon.=137.753761, Alt.=2631.134391m. Speed=2.000000m/h.]]></desc>
</trkpt>
<trkpt lat="36.690304" lon="137.753731">
<ele>2631.747440</ele>
<time>2014-08-17T23:14:04Z</time>
<desc><![CDATA[lat.=36.690304, lon.=137.753731, Alt.=2631.747440m. Speed=2.000000m/h.]]></desc>
</trkpt>
<trkpt lat="36.690374" lon="137.753692">
<ele>2636.422287</ele>
<time>2014-08-17T23:14:09Z</time>
<desc><![CDATA[lat.=36.690374, lon.=137.753692, Alt.=2636.422287m. Speed=3.000000m/h.]]></desc>
</trkpt>
<trkpt lat="36.690401" lon="137.753670">
<ele>2634.106270</ele>
<time>2014-08-17T23:14:14Z</time>
<desc><![CDATA[lat.=36.690401, lon.=137.753670, Alt.=2634.106270m. Speed=2.000000m/h.]]></desc>
</trkpt>
<trkpt lat="36.690431" lon="137.753640">
<ele>2632.926864</ele>
<time>2014-08-17T23:14:19Z</time>
<desc><![CDATA[lat.=36.690431, lon.=137.753640, Alt.=2632.926864m. Speed=3.000000m/h.]]></desc>
</trkpt>
<trkpt lat="36.690454" lon="137.753610">
<ele>2631.149968</ele>
<time>2014-08-17T23:14:24Z</time>
<desc><![CDATA[lat.=36.690454, lon.=137.753610, Alt.=2631.149968m. Speed=3.000000m/h.]]></desc>
</trkpt>
<trkpt lat="36.690471" lon="137.753564">
<ele>2628.721104</ele>
<time>2014-08-17T23:14:29Z</time>
<desc><![CDATA[lat.=36.690471, lon.=137.753564, Alt.=2628.721104m. Speed=3.000000m/h.]]></desc>
</trkpt>
<trkpt lat="36.690490" lon="137.753525">
<ele>2627.483330</ele>
<time>2014-08-17T23:14:34Z</time>
<desc><![CDATA[lat.=36.690490, lon.=137.753525, Alt.=2627.483330m. Speed=3.000000m/h.]]></desc>
</trkpt>
<trkpt lat="36.690502" lon="137.753503">
<ele>2625.702544</ele>
<time>2014-08-17T23:14:39Z</time>
<desc><![CDATA[lat.=36.690502, lon.=137.753503, Alt.=2625.702544m. Speed=3.000000m/h.]]></desc>
</trkpt>
<trkpt lat="36.690526" lon="137.753425">
<ele>2623.762228</ele>
<time>2014-08-17T23:14:44Z</time>
<desc><![CDATA[lat.=36.690526, lon.=137.753425, Alt.=2623.762228m. Speed=3.000000m/h.]]></desc>
</trkpt>
<trkpt lat="36.690567" lon="137.753419">
<ele>2624.425893</ele>
<time>2014-08-17T23:14:49Z</time>
<desc><![CDATA[lat.=36.690567, lon.=137.753419, Alt.=2624.425893m. Speed=3.000000m/h.]]></desc>
</trkpt>
<trkpt lat="36.690568" lon="137.753372">
<ele>2622.532262</ele>
<time>2014-08-17T23:14:54Z</time>
<desc><![CDATA[lat.=36.690568, lon.=137.753372, Alt.=2622.532262m. Speed=2.000000m/h.]]></desc>
</trkpt>
<trkpt lat="36.690591" lon="137.753342">
<ele>2620.755382</ele>
<time>2014-08-17T23:14:59Z</time>
<desc><![CDATA[lat.=36.690591, lon.=137.753342, Alt.=2620.755382m. Speed=2.000000m/h.]]></desc>
</trkpt>
<trkpt lat="36.690600" lon="137.753280">
<ele>2619.404776</ele>
<time>2014-08-17T23:15:04Z</time>
<desc><![CDATA[lat.=36.690600, lon.=137.753280, Alt.=2619.404776m. Speed=2.000000m/h.]]></desc>
</trkpt>
<trkpt lat="36.690620" lon="137.753257">
<ele>2618.221494</ele>
<time>2014-08-17T23:15:09Z</time>
<desc><![CDATA[lat.=36.690620, lon.=137.753257, Alt.=2618.221494m. Speed=2.000000m/h.]]></desc>
</trkpt>
<trkpt lat="36.690654" lon="137.753235">
<ele>2616.502996</ele>
<time>2014-08-17T23:15:15Z</time>
<desc><![CDATA[lat.=36.690654, lon.=137.753235, Alt.=2616.502996m. Speed=3.000000m/h.]]></desc>
</trkpt>
<trkpt lat="36.690691" lon="137.753205">
<ele>2615.921115</ele>
<time>2014-08-17T23:15:20Z</time>
<desc><![CDATA[lat.=36.690691, lon.=137.753205, Alt.=2615.921115m. Speed=3.000000m/h.]]></desc>
</trkpt>
<trkpt lat="36.690732" lon="137.753183">
<ele>2614.800118</ele>
<time>2014-08-17T23:15:25Z</time>
<desc><![CDATA[lat.=36.690732, lon.=137.753183, Alt.=2614.800118m. Speed=3.000000m/h.]]></desc>
</trkpt>
<trkpt lat="36.690776" lon="137.753184">
<ele>2616.654888</ele>
<time>2014-08-17T23:15:30Z</time>
<desc><![CDATA[lat.=36.690776, lon.=137.753184, Alt.=2616.654888m. Speed=3.000000m/h.]]></desc>
</trkpt>
<trkpt lat="36.690795" lon="137.753145">
<ele>2617.147349</ele>
<time>2014-08-17T23:15:35Z</time>
<desc><![CDATA[lat.=36.690795, lon.=137.753145, Alt.=2617.147349m. Speed=3.000000m/h.]]></desc>
</trkpt>
<trkpt lat="36.690818" lon="137.753098">
<ele>2617.046224</ele>
<time>2014-08-17T23:15:40Z</time>
<desc><![CDATA[lat.=36.690818, lon.=137.753098, Alt.=2617.046224m. Speed=3.000000m/h.]]></desc>
</trkpt>
<trkpt lat="36.690820" lon="137.753052">
<ele>2613.422407</ele>
<time>2014-08-17T23:15:45Z</time>
<desc><![CDATA[lat.=36.690820, lon.=137.753052, Alt.=2613.422407m. Speed=2.000000m/h.]]></desc>
</trkpt>
<trkpt lat="36.690858" lon="137.753023">
<ele>2611.110340</ele>
<time>2014-08-17T23:15:50Z</time>
<desc><![CDATA[lat.=36.690858, lon.=137.753023, Alt.=2611.110340m. Speed=3.000000m/h.]]></desc>
</trkpt>
<trkpt lat="36.690871" lon="137.752969">
<ele>2609.220643</ele>
<time>2014-08-17T23:15:58Z</time>
<desc><![CDATA[lat.=36.690871, lon.=137.752969, Alt.=2609.220643m. Speed=3.000000m/h.]]></desc>
</trkpt>
<trkpt lat="36.690876" lon="137.752914">
<ele>2608.463658</ele>
<time>2014-08-17T23:16:03Z</time>
<desc><![CDATA[lat.=36.690876, lon.=137.752914, Alt.=2608.463658m. Speed=2.000000m/h.]]></desc>
</trkpt>
<trkpt lat="36.690894" lon="137.752906">
<ele>2610.795271</ele>
<time>2014-08-17T23:16:08Z</time>
<desc><![CDATA[lat.=36.690894, lon.=137.752906, Alt.=2610.795271m. Speed=2.000000m/h.]]></desc>
</trkpt>
<trkpt lat="36.690908" lon="137.752954">
<ele>2610.423460</ele>
<time>2014-08-17T23:16:13Z</time>
<desc><![CDATA[lat.=36.690908, lon.=137.752954, Alt.=2610.423460m. Speed=0.000000m/h.]]></desc>
</trkpt>
<trkpt lat="36.690912" lon="137.752930">
<ele>2611.505612</ele>
<time>2014-08-17T23:16:18Z</time>
<desc><![CDATA[lat.=36.690912, lon.=137.752930, Alt.=2611.505612m. Speed=1.000000m/h.]]></desc>
</trkpt>
<trkpt lat="36.690917" lon="137.752875">
<ele>2610.748630</ele>
<time>2014-08-17T23:16:23Z</time>
<desc><![CDATA[lat.=36.690917, lon.=137.752875, Alt.=2610.748630m. Speed=2.000000m/h.]]></desc>
</trkpt>
<trkpt lat="36.690940" lon="137.752844">
<ele>2610.701990</ele>
<time>2014-08-17T23:16:28Z</time>
<desc><![CDATA[lat.=36.690940, lon.=137.752844, Alt.=2610.701990m. Speed=2.000000m/h.]]></desc>
</trkpt>
<trkpt lat="36.690976" lon="137.752845">
<ele>2611.959278</ele>
<time>2014-08-17T23:16:33Z</time>
<desc><![CDATA[lat.=36.690976, lon.=137.752845, Alt.=2611.959278m. Speed=3.000000m/h.]]></desc>
</trkpt>
<trkpt lat="36.691016" lon="137.752854">
<ele>2612.677447</ele>
<time>2014-08-17T23:16:38Z</time>
<desc><![CDATA[lat.=36.691016, lon.=137.752854, Alt.=2612.677447m. Speed=3.000000m/h.]]></desc>
</trkpt>
<trkpt lat="36.691056" lon="137.752863">
<ele>2613.395620</ele>
<time>2014-08-17T23:16:43Z</time>
<desc><![CDATA[lat.=36.691056, lon.=137.752863, Alt.=2613.395620m. Speed=3.000000m/h.]]></desc>
</trkpt>
<trkpt lat="36.691078" lon="137.752879">
<ele>2613.512380</ele>
<time>2014-08-17T23:16:48Z</time>
<desc><![CDATA[lat.=36.691078, lon.=137.752879, Alt.=2613.512380m. Speed=3.000000m/h.]]></desc>
</trkpt>
<trkpt lat="36.691103" lon="137.752904">
<ele>2614.820226</ele>
<time>2014-08-17T23:16:53Z</time>
<desc><![CDATA[lat.=36.691103, lon.=137.752904, Alt.=2614.820226m. Speed=3.000000m/h.]]></desc>
</trkpt>
<trkpt lat="36.691139" lon="137.752920">
<ele>2616.131991</ele>
<time>2014-08-17T23:16:58Z</time>
<desc><![CDATA[lat.=36.691139, lon.=137.752920, Alt.=2616.131991m. Speed=3.000000m/h.]]></desc>
</trkpt>
<trkpt lat="36.691157" lon="137.752928">
<ele>2616.787874</ele>
<time>2014-08-17T23:17:03Z</time>
<desc><![CDATA[lat.=36.691157, lon.=137.752928, Alt.=2616.787874m. Speed=3.000000m/h.]]></desc>
</trkpt>
<trkpt lat="36.691150" lon="137.752928">
<ele>2616.190373</ele>
<time>2014-08-17T23:17:09Z</time>
<desc><![CDATA[lat.=36.691150, lon.=137.752928, Alt.=2616.190373m. Speed=0.000000m/h.]]></desc>
</trkpt>
<trkpt lat="36.691143" lon="137.752929">
<ele>2613.862667</ele>
<time>2014-08-17T23:17:14Z</time>
<desc><![CDATA[lat.=36.691143, lon.=137.752929, Alt.=2613.862667m. Speed=0.000000m/h.]]></desc>
</trkpt>
<trkpt lat="36.691150" lon="137.752928">
<ele>2616.190373</ele>
<time>2014-08-17T23:17:19Z</time>
<desc><![CDATA[lat.=36.691150, lon.=137.752928, Alt.=2616.190373m. Speed=0.000000m/h.]]></desc>
</trkpt>
<trkpt lat="36.691146" lon="137.752920">
<ele>2616.729492</ele>
<time>2014-08-17T23:17:24Z</time>
<desc><![CDATA[lat.=36.691146, lon.=137.752920, Alt.=2616.729492m. Speed=0.000000m/h.]]></desc>
</trkpt>
<trkpt lat="36.691154" lon="137.752920">
<ele>2617.326993</ele>
<time>2014-08-17T23:17:29Z</time>
<desc><![CDATA[lat.=36.691154, lon.=137.752920, Alt.=2617.326993m. Speed=0.000000m/h.]]></desc>
</trkpt>
<trkpt lat="36.691149" lon="137.752943">
<ele>2617.975044</ele>
<time>2014-08-17T23:17:34Z</time>
<desc><![CDATA[lat.=36.691149, lon.=137.752943, Alt.=2617.975044m. Speed=1.000000m/h.]]></desc>
</trkpt>
<trkpt lat="36.691149" lon="137.752959">
<ele>2618.029510</ele>
<time>2014-08-17T23:17:39Z</time>
<desc><![CDATA[lat.=36.691149, lon.=137.752959, Alt.=2618.029510m. Speed=1.000000m/h.]]></desc>
</trkpt>
<trkpt lat="36.691174" lon="137.752983">
<ele>2619.337362</ele>
<time>2014-08-17T23:17:44Z</time>
<desc><![CDATA[lat.=36.691174, lon.=137.752983, Alt.=2619.337362m. Speed=1.000000m/h.]]></desc>
</trkpt>
<trkpt lat="36.691188" lon="137.753015">
<ele>2620.641300</ele>
<time>2014-08-17T23:17:49Z</time>
<desc><![CDATA[lat.=36.691188, lon.=137.753015, Alt.=2620.641300m. Speed=2.000000m/h.]]></desc>
</trkpt>
<trkpt lat="36.691187" lon="137.753047">
<ele>2619.020030</ele>
<time>2014-08-17T23:17:54Z</time>
<desc><![CDATA[lat.=36.691187, lon.=137.753047, Alt.=2619.020030m. Speed=2.000000m/h.]]></desc>
</trkpt>
<trkpt lat="36.691201" lon="137.753080">
<ele>2618.593766</ele>
<time>2014-08-17T23:17:59Z</time>
<desc><![CDATA[lat.=36.691201, lon.=137.753080, Alt.=2618.593766m. Speed=2.000000m/h.]]></desc>
</trkpt>
<trkpt lat="36.691208" lon="137.753128">
<ele>2617.624471</ele>
<time>2014-08-17T23:18:04Z</time>
<desc><![CDATA[lat.=36.691208, lon.=137.753128, Alt.=2617.624471m. Speed=2.000000m/h.]]></desc>
</trkpt>
<trkpt lat="36.691203" lon="137.753167">
<ele>2618.326997</ele>
<time>2014-08-17T23:18:09Z</time>
<desc><![CDATA[lat.=36.691203, lon.=137.753167, Alt.=2618.326997m. Speed=2.000000m/h.]]></desc>
</trkpt>
<trkpt lat="36.691224" lon="137.753199">
<ele>2620.228445</ele>
<time>2014-08-17T23:18:14Z</time>
<desc><![CDATA[lat.=36.691224, lon.=137.753199, Alt.=2620.228445m. Speed=2.000000m/h.]]></desc>
</trkpt>
<trkpt lat="36.691224" lon="137.753231">
<ele>2618.607183</ele>
<time>2014-08-17T23:18:19Z</time>
<desc><![CDATA[lat.=36.691224, lon.=137.753231, Alt.=2618.607183m. Speed=2.000000m/h.]]></desc>
</trkpt>
<trkpt lat="36.691237" lon="137.753278">
<ele>2619.965604</ele>
<time>2014-08-17T23:18:24Z</time>
<desc><![CDATA[lat.=36.691237, lon.=137.753278, Alt.=2619.965604m. Speed=3.000000m/h.]]></desc>
</trkpt>
<trkpt lat="36.691277" lon="137.753304">
<ele>2619.008067</ele>
<time>2014-08-17T23:18:29Z</time>
<desc><![CDATA[lat.=36.691277, lon.=137.753304, Alt.=2619.008067m. Speed=3.000000m/h.]]></desc>
</trkpt>
<trkpt lat="36.691296" lon="137.753330">
<ele>2614.527818</ele>
<time>2014-08-17T23:18:34Z</time>
<desc><![CDATA[lat.=36.691296, lon.=137.753330, Alt.=2614.527818m. Speed=3.000000m/h.]]></desc>
</trkpt>
<trkpt lat="36.691318" lon="137.753363">
<ele>2612.968867</ele>
<time>2014-08-17T23:18:39Z</time>
<desc><![CDATA[lat.=36.691318, lon.=137.753363, Alt.=2612.968867m. Speed=3.000000m/h.]]></desc>
</trkpt>
<trkpt lat="36.691350" lon="137.753388">
<ele>2613.144040</ele>
<time>2014-08-17T23:18:44Z</time>
<desc><![CDATA[lat.=36.691350, lon.=137.753388, Alt.=2613.144040m. Speed=3.000000m/h.]]></desc>
</trkpt>
<trkpt lat="36.691358" lon="137.753423">
<ele>2606.929676</ele>
<time>2014-08-17T23:18:49Z</time>
<desc><![CDATA[lat.=36.691358, lon.=137.753423, Alt.=2606.929676m. Speed=3.000000m/h.]]></desc>
</trkpt>
<trkpt lat="36.691348" lon="137.753450">
<ele>2598.329213</ele>
<time>2014-08-17T23:18:54Z</time>
<desc><![CDATA[lat.=36.691348, lon.=137.753450, Alt.=2598.329213m. Speed=2.000000m/h.]]></desc>
</trkpt>
<trkpt lat="36.691356" lon="137.753484">
<ele>2593.845056</ele>
<time>2014-08-17T23:18:59Z</time>
<desc><![CDATA[lat.=36.691356, lon.=137.753484, Alt.=2593.845056m. Speed=2.000000m/h.]]></desc>
</trkpt>
<trkpt lat="36.691383" lon="137.753511">
<ele>2588.232117</ele>
<time>2014-08-17T23:19:04Z</time>
<desc><![CDATA[lat.=36.691383, lon.=137.753511, Alt.=2588.232117m. Speed=2.000000m/h.]]></desc>
</trkpt>
<trkpt lat="36.691512" lon="137.753494">
<ele>2602.393147</ele>
<time>2014-08-17T23:19:09Z</time>
<desc><![CDATA[lat.=36.691512, lon.=137.753494, Alt.=2602.393147m. Speed=3.000000m/h.]]></desc>
</trkpt>
<trkpt lat="36.691552" lon="137.753485">
<ele>2606.517297</ele>
<time>2014-08-17T23:19:14Z</time>
<desc><![CDATA[lat.=36.691552, lon.=137.753485, Alt.=2606.517297m. Speed=2.000000m/h.]]></desc>
</trkpt>
<trkpt lat="36.691593" lon="137.753463">
<ele>2607.126566</ele>
<time>2014-08-17T23:19:19Z</time>
<desc><![CDATA[lat.=36.691593, lon.=137.753463, Alt.=2607.126566m. Speed=3.000000m/h.]]></desc>
</trkpt>
<trkpt lat="36.691607" lon="137.753479">
<ele>2606.645853</ele>
<time>2014-08-17T23:19:24Z</time>
<desc><![CDATA[lat.=36.691607, lon.=137.753479, Alt.=2606.645853m. Speed=2.000000m/h.]]></desc>
</trkpt>
<trkpt lat="36.691636" lon="137.753497">
<ele>2605.629953</ele>
<time>2014-08-17T23:19:29Z</time>
<desc><![CDATA[lat.=36.691636, lon.=137.753497, Alt.=2605.629953m. Speed=2.000000m/h.]]></desc>
</trkpt>
<trkpt lat="36.691636" lon="137.753495">
<ele>2609.090361</ele>
<time>2014-08-17T23:19:34Z</time>
<desc><![CDATA[lat.=36.691636, lon.=137.753495, Alt.=2609.090361m. Speed=0.000000m/h.]]></desc>
</trkpt>
<trkpt lat="36.691618" lon="137.753488">
<ele>2606.704251</ele>
<time>2014-08-17T23:19:39Z</time>
<desc><![CDATA[lat.=36.691618, lon.=137.753488, Alt.=2606.704251m. Speed=0.000000m/h.]]></desc>
</trkpt>
<trkpt lat="36.691622" lon="137.753496">
<ele>2606.165141</ele>
<time>2014-08-17T23:19:44Z</time>
<desc><![CDATA[lat.=36.691622, lon.=137.753496, Alt.=2606.165141m. Speed=1.000000m/h.]]></desc>
</trkpt>
<trkpt lat="36.691643" lon="137.753512">
<ele>2606.281938</ele>
<time>2014-08-17T23:19:49Z</time>
<desc><![CDATA[lat.=36.691643, lon.=137.753512, Alt.=2606.281938m. Speed=2.000000m/h.]]></desc>
</trkpt>
<trkpt lat="36.691657" lon="137.753527">
<ele>2609.261635</ele>
<time>2014-08-17T23:19:54Z</time>
<desc><![CDATA[lat.=36.691657, lon.=137.753527, Alt.=2609.261635m. Speed=1.000000m/h.]]></desc>
</trkpt>
<trkpt lat="36.691664" lon="137.753544">
<ele>2608.183417</ele>
<time>2014-08-17T23:19:59Z</time>
<desc><![CDATA[lat.=36.691664, lon.=137.753544, Alt.=2608.183417m. Speed=1.000000m/h.]]></desc>
</trkpt>
<trkpt lat="36.691653" lon="137.753568">
<ele>2606.503769</ele>
<time>2014-08-17T23:20:04Z</time>
<desc><![CDATA[lat.=36.691653, lon.=137.753568, Alt.=2606.503769m. Speed=1.000000m/h.]]></desc>
</trkpt>
<trkpt lat="36.691642" lon="137.753576">
<ele>2606.499848</ele>
<time>2014-08-17T23:20:09Z</time>
<desc><![CDATA[lat.=36.691642, lon.=137.753576, Alt.=2606.499848m. Speed=0.000000m/h.]]></desc>
</trkpt>
<trkpt lat="36.691642" lon="137.753592">
<ele>2604.824122</ele>
<time>2014-08-17T23:20:14Z</time>
<desc><![CDATA[lat.=36.691642, lon.=137.753592, Alt.=2604.824122m. Speed=1.000000m/h.]]></desc>
</trkpt>
<trkpt lat="36.691642" lon="137.753609">
<ele>2603.148396</ele>
<time>2014-08-17T23:20:19Z</time>
<desc><![CDATA[lat.=36.691642, lon.=137.753609, Alt.=2603.148396m. Speed=2.000000m/h.]]></desc>
</trkpt>
<trkpt lat="36.691648" lon="137.753657">
<ele>2602.179138</ele>
<time>2014-08-17T23:20:24Z</time>
<desc><![CDATA[lat.=36.691648, lon.=137.753657, Alt.=2602.179138m. Speed=2.000000m/h.]]></desc>
</trkpt>
<trkpt lat="36.691670" lon="137.753689">
<ele>2602.350420</ele>
<time>2014-08-17T23:20:29Z</time>
<desc><![CDATA[lat.=36.691670, lon.=137.753689, Alt.=2602.350420m. Speed=2.000000m/h.]]></desc>
</trkpt>
<trkpt lat="36.691680" lon="137.753697">
<ele>2604.139025</ele>
<time>2014-08-17T23:20:34Z</time>
<desc><![CDATA[lat.=36.691680, lon.=137.753697, Alt.=2604.139025m. Speed=0.000000m/h.]]></desc>
</trkpt>
<trkpt lat="36.691673" lon="137.753697">
<ele>2603.541516</ele>
<time>2014-08-17T23:20:39Z</time>
<desc><![CDATA[lat.=36.691673, lon.=137.753697, Alt.=2603.541516m. Speed=0.000000m/h.]]></desc>
</trkpt>
<trkpt lat="36.691665" lon="137.753696">
<ele>2604.674212</ele>
<time>2014-08-17T23:20:44Z</time>
<desc><![CDATA[lat.=36.691665, lon.=137.753696, Alt.=2604.674212m. Speed=0.000000m/h.]]></desc>
</trkpt>
<trkpt lat="36.691662" lon="137.753689">
<ele>2603.483115</ele>
<time>2014-08-17T23:20:49Z</time>
<desc><![CDATA[lat.=36.691662, lon.=137.753689, Alt.=2603.483115m. Speed=0.000000m/h.]]></desc>
</trkpt>
<trkpt lat="36.691655" lon="137.753689">
<ele>2602.885607</ele>
<time>2014-08-17T23:20:56Z</time>
<desc><![CDATA[lat.=36.691655, lon.=137.753689, Alt.=2602.885607m. Speed=0.000000m/h.]]></desc>
</trkpt>
<trkpt lat="36.691651" lon="137.753680">
<ele>2603.424715</ele>
<time>2014-08-17T23:21:04Z</time>
<desc><![CDATA[lat.=36.691651, lon.=137.753680, Alt.=2603.424715m. Speed=0.000000m/h.]]></desc>
</trkpt>
<trkpt lat="36.691659" lon="137.753681">
<ele>2602.292019</ele>
<time>2014-08-17T23:21:09Z</time>
<desc><![CDATA[lat.=36.691659, lon.=137.753681, Alt.=2602.292019m. Speed=0.000000m/h.]]></desc>
</trkpt>
<trkpt lat="36.691655" lon="137.753689">
<ele>2602.885607</ele>
<time>2014-08-17T23:21:14Z</time>
<desc><![CDATA[lat.=36.691655, lon.=137.753689, Alt.=2602.885607m. Speed=0.000000m/h.]]></desc>
</trkpt>
<trkpt lat="36.691655" lon="137.753673">
<ele>2602.831127</ele>
<time>2014-08-17T23:21:19Z</time>
<desc><![CDATA[lat.=36.691655, lon.=137.753673, Alt.=2602.831127m. Speed=0.000000m/h.]]></desc>
</trkpt>
<trkpt lat="36.691644" lon="137.753664">
<ele>2602.772726</ele>
<time>2014-08-17T23:21:24Z</time>
<desc><![CDATA[lat.=36.691644, lon.=137.753664, Alt.=2602.772726m. Speed=0.000000m/h.]]></desc>
</trkpt>
<trkpt lat="36.691641" lon="137.753656">
<ele>2603.311834</ele>
<time>2014-08-17T23:21:29Z</time>
<desc><![CDATA[lat.=36.691641, lon.=137.753656, Alt.=2603.311834m. Speed=0.000000m/h.]]></desc>
</trkpt>
<trkpt lat="36.691637" lon="137.753648">
<ele>2603.850942</ele>
<time>2014-08-17T23:21:34Z</time>
<desc><![CDATA[lat.=36.691637, lon.=137.753648, Alt.=2603.850942m. Speed=0.000000m/h.]]></desc>
</trkpt>
<trkpt lat="36.691641" lon="137.753656">
<ele>2603.311834</ele>
<time>2014-08-17T23:21:39Z</time>
<desc><![CDATA[lat.=36.691641, lon.=137.753656, Alt.=2603.311834m. Speed=0.000000m/h.]]></desc>
</trkpt>
<trkpt lat="36.691644" lon="137.753664">
<ele>2604.502930</ele>
<time>2014-08-17T23:21:44Z</time>
<desc><![CDATA[lat.=36.691644, lon.=137.753664, Alt.=2604.502930m. Speed=0.000000m/h.]]></desc>
</trkpt>
<trkpt lat="36.691651" lon="137.753664">
<ele>2605.100439</ele>
<time>2014-08-17T23:21:49Z</time>
<desc><![CDATA[lat.=36.691651, lon.=137.753664, Alt.=2605.100439m. Speed=0.000000m/h.]]></desc>
</trkpt>
<trkpt lat="36.691655" lon="137.753656">
<ele>2604.506851</ele>
<time>2014-08-17T23:21:56Z</time>
<desc><![CDATA[lat.=36.691655, lon.=137.753656, Alt.=2604.506851m. Speed=0.000000m/h.]]></desc>
</trkpt>
<trkpt lat="36.691659" lon="137.753664">
<ele>2603.967743</ele>
<time>2014-08-17T23:22:01Z</time>
<desc><![CDATA[lat.=36.691659, lon.=137.753664, Alt.=2603.967743m. Speed=0.000000m/h.]]></desc>
</trkpt>
<trkpt lat="36.691662" lon="137.753673">
<ele>2603.428635</ele>
<time>2014-08-17T23:22:06Z</time>
<desc><![CDATA[lat.=36.691662, lon.=137.753673, Alt.=2603.428635m. Speed=0.000000m/h.]]></desc>
</trkpt>
<trkpt lat="36.691655" lon="137.753673">
<ele>2602.831127</ele>
<time>2014-08-17T23:22:11Z</time>
<desc><![CDATA[lat.=36.691655, lon.=137.753673, Alt.=2602.831127m. Speed=0.000000m/h.]]></desc>
</trkpt>
<trkpt lat="36.691659" lon="137.753665">
<ele>2602.237539</ele>
<time>2014-08-17T23:22:16Z</time>
<desc><![CDATA[lat.=36.691659, lon.=137.753665, Alt.=2602.237539m. Speed=0.000000m/h.]]></desc>
</trkpt>
<trkpt lat="36.691666" lon="137.753665">
<ele>2602.835047</ele>
<time>2014-08-17T23:22:29Z</time>
<desc><![CDATA[lat.=36.691666, lon.=137.753665, Alt.=2602.835047m. Speed=0.000000m/h.]]></desc>
</trkpt>
<trkpt lat="36.691662" lon="137.753673">
<ele>2603.428635</ele>
<time>2014-08-17T23:22:34Z</time>
<desc><![CDATA[lat.=36.691662, lon.=137.753673, Alt.=2603.428635m. Speed=0.000000m/h.]]></desc>
</trkpt>
<trkpt lat="36.691670" lon="137.753673">
<ele>2604.026144</ele>
<time>2014-08-17T23:22:40Z</time>
<desc><![CDATA[lat.=36.691670, lon.=137.753673, Alt.=2604.026144m. Speed=0.000000m/h.]]></desc>
</trkpt>
<trkpt lat="36.691662" lon="137.753673">
<ele>2603.428635</ele>
<time>2014-08-17T23:22:57Z</time>
<desc><![CDATA[lat.=36.691662, lon.=137.753673, Alt.=2603.428635m. Speed=0.000000m/h.]]></desc>
</trkpt>
<trkpt lat="36.691655" lon="137.753673">
<ele>2602.831127</ele>
<time>2014-08-17T23:23:23Z</time>
<desc><![CDATA[lat.=36.691655, lon.=137.753673, Alt.=2602.831127m. Speed=0.000000m/h.]]></desc>
</trkpt>
<trkpt lat="36.691662" lon="137.753673">
<ele>2603.428635</ele>
<time>2014-08-17T23:23:41Z</time>
<desc><![CDATA[lat.=36.691662, lon.=137.753673, Alt.=2603.428635m. Speed=0.000000m/h.]]></desc>
</trkpt>
<trkpt lat="36.691655" lon="137.753673">
<ele>2602.831127</ele>
<time>2014-08-17T23:23:57Z</time>
<desc><![CDATA[lat.=36.691655, lon.=137.753673, Alt.=2602.831127m. Speed=0.000000m/h.]]></desc>
</trkpt>
<trkpt lat="36.691648" lon="137.753673">
<ele>2602.233618</ele>
<time>2014-08-17T23:24:51Z</time>
<desc><![CDATA[lat.=36.691648, lon.=137.753673, Alt.=2602.233618m. Speed=0.000000m/h.]]></desc>
</trkpt>
<trkpt lat="36.691655" lon="137.753673">
<ele>2602.831127</ele>
<time>2014-08-17T23:25:32Z</time>
<desc><![CDATA[lat.=36.691655, lon.=137.753673, Alt.=2602.831127m. Speed=0.000000m/h.]]></desc>
</trkpt>
<trkpt lat="36.691660" lon="137.753649">
<ele>2602.183059</ele>
<time>2014-08-17T23:25:37Z</time>
<desc><![CDATA[lat.=36.691660, lon.=137.753649, Alt.=2602.183059m. Speed=1.000000m/h.]]></desc>
</trkpt>
<trkpt lat="36.691672" lon="137.753610">
<ele>2602.078022</ele>
<time>2014-08-17T23:25:42Z</time>
<desc><![CDATA[lat.=36.691672, lon.=137.753610, Alt.=2602.078022m. Speed=2.000000m/h.]]></desc>
</trkpt>
<trkpt lat="36.691700" lon="137.753627">
<ele>2602.792332</ele>
<time>2014-08-17T23:25:47Z</time>
<desc><![CDATA[lat.=36.691700, lon.=137.753627, Alt.=2602.792332m. Speed=2.000000m/h.]]></desc>
</trkpt>
<trkpt lat="36.691715" lon="137.753660">
<ele>2600.635901</ele>
<time>2014-08-17T23:25:52Z</time>
<desc><![CDATA[lat.=36.691715, lon.=137.753660, Alt.=2600.635901m. Speed=2.000000m/h.]]></desc>
</trkpt>
<trkpt lat="36.691722" lon="137.753692">
<ele>2599.612166</ele>
<time>2014-08-17T23:25:57Z</time>
<desc><![CDATA[lat.=36.691722, lon.=137.753692, Alt.=2599.612166m. Speed=2.000000m/h.]]></desc>
</trkpt>
<trkpt lat="36.691728" lon="137.753724">
<ele>2600.318637</ele>
<time>2014-08-17T23:26:02Z</time>
<desc><![CDATA[lat.=36.691728, lon.=137.753724, Alt.=2600.318637m. Speed=2.000000m/h.]]></desc>
</trkpt>
<trkpt lat="36.691738" lon="137.753764">
<ele>2600.486003</ele>
<time>2014-08-17T23:26:07Z</time>
<desc><![CDATA[lat.=36.691738, lon.=137.753764, Alt.=2600.486003m. Speed=2.000000m/h.]]></desc>
</trkpt>
<trkpt lat="36.691771" lon="137.753805">
<ele>2598.985493</ele>
<time>2014-08-17T23:26:12Z</time>
<desc><![CDATA[lat.=36.691771, lon.=137.753805, Alt.=2598.985493m. Speed=3.000000m/h.]]></desc>
</trkpt>
<trkpt lat="36.691803" lon="137.753830">
<ele>2599.160707</ele>
<time>2014-08-17T23:26:17Z</time>
<desc><![CDATA[lat.=36.691803, lon.=137.753830, Alt.=2599.160707m. Speed=3.000000m/h.]]></desc>
</trkpt>
<trkpt lat="36.691832" lon="137.753862">
<ele>2599.929513</ele>
<time>2014-08-17T23:26:22Z</time>
<desc><![CDATA[lat.=36.691832, lon.=137.753862, Alt.=2599.929513m. Speed=2.000000m/h.]]></desc>
</trkpt>
<trkpt lat="36.691832" lon="137.753863">
<ele>2598.199309</ele>
<time>2014-08-17T23:26:27Z</time>
<desc><![CDATA[lat.=36.691832, lon.=137.753863, Alt.=2598.199309m. Speed=2.000000m/h.]]></desc>
</trkpt>
<trkpt lat="36.691839" lon="137.753896">
<ele>2597.175584</ele>
<time>2014-08-17T23:26:32Z</time>
<desc><![CDATA[lat.=36.691839, lon.=137.753896, Alt.=2597.175584m. Speed=2.000000m/h.]]></desc>
</trkpt>
<trkpt lat="36.691857" lon="137.753920">
<ele>2596.155783</ele>
<time>2014-08-17T23:26:37Z</time>
<desc><![CDATA[lat.=36.691857, lon.=137.753920, Alt.=2596.155783m. Speed=2.000000m/h.]]></desc>
</trkpt>
<trkpt lat="36.691877" lon="137.753914">
<ele>2593.296810</ele>
<time>2014-08-17T23:26:42Z</time>
<desc><![CDATA[lat.=36.691877, lon.=137.753914, Alt.=2593.296810m. Speed=2.000000m/h.]]></desc>
</trkpt>
<trkpt lat="36.691879" lon="137.753954">
<ele>2592.866677</ele>
<time>2014-08-17T23:26:47Z</time>
<desc><![CDATA[lat.=36.691879, lon.=137.753954, Alt.=2592.866677m. Speed=2.000000m/h.]]></desc>
</trkpt>
<trkpt lat="36.691894" lon="137.753987">
<ele>2592.440468</ele>
<time>2014-08-17T23:26:52Z</time>
<desc><![CDATA[lat.=36.691894, lon.=137.753987, Alt.=2592.440468m. Speed=2.000000m/h.]]></desc>
</trkpt>
<trkpt lat="36.691914" lon="137.754035">
<ele>2592.666260</ele>
<time>2014-08-17T23:26:57Z</time>
<desc><![CDATA[lat.=36.691914, lon.=137.754035, Alt.=2592.666260m. Speed=3.000000m/h.]]></desc>
</trkpt>
<trkpt lat="36.691921" lon="137.754067">
<ele>2591.642543</ele>
<time>2014-08-17T23:27:02Z</time>
<desc><![CDATA[lat.=36.691921, lon.=137.754067, Alt.=2591.642543m. Speed=3.000000m/h.]]></desc>
</trkpt>
<trkpt lat="36.691957" lon="137.754116">
<ele>2591.333162</ele>
<time>2014-08-17T23:27:07Z</time>
<desc><![CDATA[lat.=36.691957, lon.=137.754116, Alt.=2591.333162m. Speed=3.000000m/h.]]></desc>
</trkpt>
<trkpt lat="36.691971" lon="137.754148">
<ele>2590.906962</ele>
<time>2014-08-17T23:27:12Z</time>
<desc><![CDATA[lat.=36.691971, lon.=137.754148, Alt.=2590.906962m. Speed=3.000000m/h.]]></desc>
</trkpt>
<trkpt lat="36.692003" lon="137.754205">
<ele>2591.191180</ele>
<time>2014-08-17T23:27:17Z</time>
<desc><![CDATA[lat.=36.692003, lon.=137.754205, Alt.=2591.191180m. Speed=3.000000m/h.]]></desc>
</trkpt>
<trkpt lat="36.691985" lon="137.754197">
<ele>2590.535254</ele>
<time>2014-08-17T23:27:22Z</time>
<desc><![CDATA[lat.=36.691985, lon.=137.754197, Alt.=2590.535254m. Speed=0.000000m/h.]]></desc>
</trkpt>
<trkpt lat="36.691970" lon="137.754180">
<ele>2591.015941</ele>
<time>2014-08-17T23:27:27Z</time>
<desc><![CDATA[lat.=36.691970, lon.=137.754180, Alt.=2591.015941m. Speed=0.000000m/h.]]></desc>
</trkpt>
<trkpt lat="36.691974" lon="137.754172">
<ele>2590.422351</ele>
<time>2014-08-17T23:27:37Z</time>
<desc><![CDATA[lat.=36.691974, lon.=137.754172, Alt.=2590.422351m. Speed=0.000000m/h.]]></desc>
</trkpt>
<trkpt lat="36.691967" lon="137.754172">
<ele>2589.824838</ele>
<time>2014-08-17T23:27:42Z</time>
<desc><![CDATA[lat.=36.691967, lon.=137.754172, Alt.=2589.824838m. Speed=0.000000m/h.]]></desc>
</trkpt>
<trkpt lat="36.691974" lon="137.754172">
<ele>2590.422351</ele>
<time>2014-08-17T23:27:47Z</time>
<desc><![CDATA[lat.=36.691974, lon.=137.754172, Alt.=2590.422351m. Speed=0.000000m/h.]]></desc>
</trkpt>
<trkpt lat="36.691985" lon="137.754197">
<ele>2590.535254</ele>
<time>2014-08-17T23:27:52Z</time>
<desc><![CDATA[lat.=36.691985, lon.=137.754197, Alt.=2590.535254m. Speed=2.000000m/h.]]></desc>
</trkpt>
<trkpt lat="36.692013" lon="137.754244">
<ele>2593.088778</ele>
<time>2014-08-17T23:27:57Z</time>
<desc><![CDATA[lat.=36.692013, lon.=137.754244, Alt.=2593.088778m. Speed=3.000000m/h.]]></desc>
</trkpt>
<trkpt lat="36.692019" lon="137.754276">
<ele>2593.795275</ele>
<time>2014-08-17T23:28:02Z</time>
<desc><![CDATA[lat.=36.692019, lon.=137.754276, Alt.=2593.795275m. Speed=3.000000m/h.]]></desc>
</trkpt>
<trkpt lat="36.692052" lon="137.754285">
<ele>2592.185824</ele>
<time>2014-08-17T23:28:07Z</time>
<desc><![CDATA[lat.=36.692052, lon.=137.754285, Alt.=2592.185824m. Speed=2.000000m/h.]]></desc>
</trkpt>
<trkpt lat="36.692075" lon="137.754287">
<ele>2590.517960</ele>
<time>2014-08-17T23:28:12Z</time>
<desc><![CDATA[lat.=36.692075, lon.=137.754287, Alt.=2590.517960m. Speed=2.000000m/h.]]></desc>
</trkpt>
<trkpt lat="36.692104" lon="137.754304">
<ele>2589.502104</ele>
<time>2014-08-17T23:28:17Z</time>
<desc><![CDATA[lat.=36.692104, lon.=137.754304, Alt.=2589.502104m. Speed=2.000000m/h.]]></desc>
</trkpt>
<trkpt lat="36.692133" lon="137.754304">
<ele>2591.892163</ele>
<time>2014-08-17T23:28:22Z</time>
<desc><![CDATA[lat.=36.692133, lon.=137.754304, Alt.=2591.892163m. Speed=2.000000m/h.]]></desc>
</trkpt>
<trkpt lat="36.692151" lon="137.754312">
<ele>2592.548096</ele>
<time>2014-08-17T23:28:27Z</time>
<desc><![CDATA[lat.=36.692151, lon.=137.754312, Alt.=2592.548096m. Speed=2.000000m/h.]]></desc>
</trkpt>
<trkpt lat="36.692170" lon="137.754306">
<ele>2591.419334</ele>
<time>2014-08-17T23:28:32Z</time>
<desc><![CDATA[lat.=36.692170, lon.=137.754306, Alt.=2591.419334m. Speed=2.000000m/h.]]></desc>
</trkpt>
<trkpt lat="36.692186" lon="137.754291">
<ele>2589.099467</ele>
<time>2014-08-17T23:28:37Z</time>
<desc><![CDATA[lat.=36.692186, lon.=137.754291, Alt.=2589.099467m. Speed=2.000000m/h.]]></desc>
</trkpt>
<trkpt lat="36.692215" lon="137.754292">
<ele>2589.759328</ele>
<time>2014-08-17T23:28:42Z</time>
<desc><![CDATA[lat.=36.692215, lon.=137.754292, Alt.=2589.759328m. Speed=2.000000m/h.]]></desc>
</trkpt>
<trkpt lat="36.692203" lon="137.754316">
<ele>2589.809893</ele>
<time>2014-08-17T23:28:47Z</time>
<desc><![CDATA[lat.=36.692203, lon.=137.754316, Alt.=2589.809893m. Speed=2.000000m/h.]]></desc>
</trkpt>
<trkpt lat="36.692202" lon="137.754346">
<ele>2591.649082</ele>
<time>2014-08-17T23:28:52Z</time>
<desc><![CDATA[lat.=36.692202, lon.=137.754346, Alt.=2591.649082m. Speed=2.000000m/h.]]></desc>
</trkpt>
<trkpt lat="36.692213" lon="137.754339">
<ele>2591.653008</ele>
<time>2014-08-17T23:28:57Z</time>
<desc><![CDATA[lat.=36.692213, lon.=137.754339, Alt.=2591.653008m. Speed=2.000000m/h.]]></desc>
</trkpt>
<trkpt lat="36.692232" lon="137.754331">
<ele>2592.254451</ele>
<time>2014-08-17T23:29:02Z</time>
<desc><![CDATA[lat.=36.692232, lon.=137.754331, Alt.=2592.254451m. Speed=2.000000m/h.]]></desc>
</trkpt>
<trkpt lat="36.692249" lon="137.754355">
<ele>2594.695083</ele>
<time>2014-08-17T23:29:07Z</time>
<desc><![CDATA[lat.=36.692249, lon.=137.754355, Alt.=2594.695083m. Speed=2.000000m/h.]]></desc>
</trkpt>
<trkpt lat="36.692272" lon="137.754325">
<ele>2592.918242</ele>
<time>2014-08-17T23:29:12Z</time>
<desc><![CDATA[lat.=36.692272, lon.=137.754325, Alt.=2592.918242m. Speed=2.000000m/h.]]></desc>
</trkpt>
<trkpt lat="36.692283" lon="137.754332">
<ele>2594.706865</ele>
<time>2014-08-17T23:29:17Z</time>
<desc><![CDATA[lat.=36.692283, lon.=137.754332, Alt.=2594.706865m. Speed=2.000000m/h.]]></desc>
</trkpt>
<trkpt lat="36.692278" lon="137.754355">
<ele>2595.354948</ele>
<time>2014-08-17T23:29:22Z</time>
<desc><![CDATA[lat.=36.692278, lon.=137.754355, Alt.=2595.354948m. Speed=2.000000m/h.]]></desc>
</trkpt>
<trkpt lat="36.692286" lon="137.754355">
<ele>2595.952465</ele>
<time>2014-08-17T23:29:27Z</time>
<desc><![CDATA[lat.=36.692286, lon.=137.754355, Alt.=2595.952465m. Speed=0.000000m/h.]]></desc>
</trkpt>
<trkpt lat="36.692290" lon="137.754348">
<ele>2595.358875</ele>
<time>2014-08-17T23:29:32Z</time>
<desc><![CDATA[lat.=36.692290, lon.=137.754348, Alt.=2595.358875m. Speed=1.000000m/h.]]></desc>
</trkpt>
<trkpt lat="36.692308" lon="137.754356">
<ele>2596.014814</ele>
<time>2014-08-17T23:29:37Z</time>
<desc><![CDATA[lat.=36.692308, lon.=137.754356, Alt.=2596.014814m. Speed=2.000000m/h.]]></desc>
</trkpt>
<trkpt lat="36.692297" lon="137.754381">
<ele>2592.604974</ele>
<time>2014-08-17T23:29:42Z</time>
<desc><![CDATA[lat.=36.692297, lon.=137.754381, Alt.=2592.604974m. Speed=2.000000m/h.]]></desc>
</trkpt>
<trkpt lat="36.692300" lon="137.754389">
<ele>2593.796080</ele>
<time>2014-08-17T23:29:47Z</time>
<desc><![CDATA[lat.=36.692300, lon.=137.754389, Alt.=2593.796080m. Speed=1.000000m/h.]]></desc>
</trkpt>
<trkpt lat="36.692321" lon="137.754388">
<ele>2597.318836</ele>
<time>2014-08-17T23:29:52Z</time>
<desc><![CDATA[lat.=36.692321, lon.=137.754388, Alt.=2597.318836m. Speed=2.000000m/h.]]></desc>
</trkpt>
<trkpt lat="36.692329" lon="137.754389">
<ele>2596.186151</ele>
<time>2014-08-17T23:29:57Z</time>
<desc><![CDATA[lat.=36.692329, lon.=137.754389, Alt.=2596.186151m. Speed=2.000000m/h.]]></desc>
</trkpt>
<trkpt lat="36.692328" lon="137.754419">
<ele>2598.025342</ele>
<time>2014-08-17T23:30:02Z</time>
<desc><![CDATA[lat.=36.692328, lon.=137.754419, Alt.=2598.025342m. Speed=2.000000m/h.]]></desc>
</trkpt>
<trkpt lat="36.692326" lon="137.754449">
<ele>2601.594737</ele>
<time>2014-08-17T23:30:07Z</time>
<desc><![CDATA[lat.=36.692326, lon.=137.754449, Alt.=2601.594737m. Speed=1.000000m/h.]]></desc>
</trkpt>
<trkpt lat="36.692348" lon="137.754465">
<ele>2603.441785</ele>
<time>2014-08-17T23:30:12Z</time>
<desc><![CDATA[lat.=36.692348, lon.=137.754465, Alt.=2603.441785m. Speed=1.000000m/h.]]></desc>
</trkpt>
<trkpt lat="36.692359" lon="137.754458">
<ele>2603.445714</ele>
<time>2014-08-17T23:30:17Z</time>
<desc><![CDATA[lat.=36.692359, lon.=137.754458, Alt.=2603.445714m. Speed=1.000000m/h.]]></desc>
</trkpt>
<trkpt lat="36.692378" lon="137.754435">
<ele>2602.262463</ele>
<time>2014-08-17T23:30:22Z</time>
<desc><![CDATA[lat.=36.692378, lon.=137.754435, Alt.=2602.262463m. Speed=2.000000m/h.]]></desc>
</trkpt>
<trkpt lat="36.692401" lon="137.754405">
<ele>2600.485625</ele>
<time>2014-08-17T23:30:27Z</time>
<desc><![CDATA[lat.=36.692401, lon.=137.754405, Alt.=2600.485625m. Speed=2.000000m/h.]]></desc>
</trkpt>
<trkpt lat="36.692411" lon="137.754443">
<ele>2604.113443</ele>
<time>2014-08-17T23:30:32Z</time>
<desc><![CDATA[lat.=36.692411, lon.=137.754443, Alt.=2604.113443m. Speed=2.000000m/h.]]></desc>
</trkpt>
<trkpt lat="36.692417" lon="137.754491">
<ele>2604.874448</ele>
<time>2014-08-17T23:30:37Z</time>
<desc><![CDATA[lat.=36.692417, lon.=137.754491, Alt.=2604.874448m. Speed=2.000000m/h.]]></desc>
</trkpt>
<trkpt lat="36.692419" lon="137.754513">
<ele>2607.850255</ele>
<time>2014-08-17T23:30:42Z</time>
<desc><![CDATA[lat.=36.692419, lon.=137.754513, Alt.=2607.850255m. Speed=0.000000m/h.]]></desc>
</trkpt>
<trkpt lat="36.692431" lon="137.754490">
<ele>2607.799689</ele>
<time>2014-08-17T23:30:47Z</time>
<desc><![CDATA[lat.=36.692431, lon.=137.754490, Alt.=2607.799689m. Speed=0.000000m/h.]]></desc>
</trkpt>
<trkpt lat="36.692435" lon="137.754483">
<ele>2605.475897</ele>
<time>2014-08-17T23:30:52Z</time>
<desc><![CDATA[lat.=36.692435, lon.=137.754483, Alt.=2605.475897m. Speed=0.000000m/h.]]></desc>
</trkpt>
<trkpt lat="36.692427" lon="137.754498">
<ele>2606.663076</ele>
<time>2014-08-17T23:30:58Z</time>
<desc><![CDATA[lat.=36.692427, lon.=137.754498, Alt.=2606.663076m. Speed=1.000000m/h.]]></desc>
</trkpt>
<trkpt lat="36.692422" lon="137.754537">
<ele>2607.365658</ele>
<time>2014-08-17T23:31:03Z</time>
<desc><![CDATA[lat.=36.692422, lon.=137.754537, Alt.=2607.365658m. Speed=2.000000m/h.]]></desc>
</trkpt>
<trkpt lat="36.692425" lon="137.754561">
<ele>2608.611264</ele>
<time>2014-08-17T23:31:08Z</time>
<desc><![CDATA[lat.=36.692425, lon.=137.754561, Alt.=2608.611264m. Speed=2.000000m/h.]]></desc>
</trkpt>
<trkpt lat="36.692440" lon="137.754562">
<ele>2608.076100</ele>
<time>2014-08-17T23:31:13Z</time>
<desc><![CDATA[lat.=36.692440, lon.=137.754562, Alt.=2608.076100m. Speed=2.000000m/h.]]></desc>
</trkpt>
<trkpt lat="36.692459" lon="137.754537">
<ele>2610.353255</ele>
<time>2014-08-17T23:31:18Z</time>
<desc><![CDATA[lat.=36.692459, lon.=137.754537, Alt.=2610.353255m. Speed=2.000000m/h.]]></desc>
</trkpt>
<trkpt lat="36.692473" lon="137.754554">
<ele>2609.872588</ele>
<time>2014-08-17T23:31:23Z</time>
<desc><![CDATA[lat.=36.692473, lon.=137.754554, Alt.=2609.872588m. Speed=2.000000m/h.]]></desc>
</trkpt>
<trkpt lat="36.692469" lon="137.754577">
<ele>2610.520675</ele>
<time>2014-08-17T23:31:28Z</time>
<desc><![CDATA[lat.=36.692469, lon.=137.754577, Alt.=2610.520675m. Speed=2.000000m/h.]]></desc>
</trkpt>
<trkpt lat="36.692486" lon="137.754601">
<ele>2611.231120</ele>
<time>2014-08-17T23:31:33Z</time>
<desc><![CDATA[lat.=36.692486, lon.=137.754601, Alt.=2611.231120m. Speed=2.000000m/h.]]></desc>
</trkpt>
<trkpt lat="36.692502" lon="137.754586">
<ele>2610.641460</ele>
<time>2014-08-17T23:31:38Z</time>
<desc><![CDATA[lat.=36.692502, lon.=137.754586, Alt.=2610.641460m. Speed=2.000000m/h.]]></desc>
</trkpt>
<trkpt lat="36.692520" lon="137.754562">
<ele>2612.918617</ele>
<time>2014-08-17T23:31:43Z</time>
<desc><![CDATA[lat.=36.692520, lon.=137.754562, Alt.=2612.918617m. Speed=2.000000m/h.]]></desc>
</trkpt>
<trkpt lat="36.692534" lon="137.754594">
<ele>2614.222652</ele>
<time>2014-08-17T23:31:48Z</time>
<desc><![CDATA[lat.=36.692534, lon.=137.754594, Alt.=2614.222652m. Speed=2.000000m/h.]]></desc>
</trkpt>
<trkpt lat="36.692544" lon="137.754617">
<ele>2616.065781</ele>
<time>2014-08-17T23:31:53Z</time>
<desc><![CDATA[lat.=36.692544, lon.=137.754617, Alt.=2616.065781m. Speed=1.000000m/h.]]></desc>
</trkpt>
<trkpt lat="36.692555" lon="137.754626">
<ele>2616.124211</ele>
<time>2014-08-17T23:31:58Z</time>
<desc><![CDATA[lat.=36.692555, lon.=137.754626, Alt.=2616.124211m. Speed=2.000000m/h.]]></desc>
</trkpt>
<trkpt lat="36.692577" lon="137.754610">
<ele>2616.132073</ele>
<time>2014-08-17T23:32:03Z</time>
<desc><![CDATA[lat.=36.692577, lon.=137.754610, Alt.=2616.132073m. Speed=2.000000m/h.]]></desc>
</trkpt>
<trkpt lat="36.692584" lon="137.754610">
<ele>2616.729595</ele>
<time>2014-08-17T23:32:08Z</time>
<desc><![CDATA[lat.=36.692584, lon.=137.754610, Alt.=2616.729595m. Speed=2.000000m/h.]]></desc>
</trkpt>
<trkpt lat="36.692598" lon="137.754626">
<ele>2617.979136</ele>
<time>2014-08-17T23:32:13Z</time>
<desc><![CDATA[lat.=36.692598, lon.=137.754626, Alt.=2617.979136m. Speed=1.000000m/h.]]></desc>
</trkpt>
<trkpt lat="36.692620" lon="137.754642">
<ele>2619.826199</ele>
<time>2014-08-17T23:32:18Z</time>
<desc><![CDATA[lat.=36.692620, lon.=137.754642, Alt.=2619.826199m. Speed=2.000000m/h.]]></desc>
</trkpt>
<trkpt lat="36.692618" lon="137.754672">
<ele>2623.395602</ele>
<time>2014-08-17T23:32:23Z</time>
<desc><![CDATA[lat.=36.692618, lon.=137.754672, Alt.=2623.395602m. Speed=2.000000m/h.]]></desc>
</trkpt>
<trkpt lat="36.692629" lon="137.754696">
<ele>2623.508532</ele>
<time>2014-08-17T23:32:28Z</time>
<desc><![CDATA[lat.=36.692629, lon.=137.754696, Alt.=2623.508532m. Speed=2.000000m/h.]]></desc>
</trkpt>
<trkpt lat="36.692632" lon="137.754720">
<ele>2623.023942</ele>
<time>2014-08-17T23:32:33Z</time>
<desc><![CDATA[lat.=36.692632, lon.=137.754720, Alt.=2623.023942m. Speed=2.000000m/h.]]></desc>
</trkpt>
<trkpt lat="36.692643" lon="137.754713">
<ele>2623.027874</ele>
<time>2014-08-17T23:32:38Z</time>
<desc><![CDATA[lat.=36.692643, lon.=137.754713, Alt.=2623.027874m. Speed=2.000000m/h.]]></desc>
</trkpt>
<trkpt lat="36.692658" lon="137.754698">
<ele>2622.438217</ele>
<time>2014-08-17T23:32:43Z</time>
<desc><![CDATA[lat.=36.692658, lon.=137.754698, Alt.=2622.438217m. Speed=2.000000m/h.]]></desc>
</trkpt>
<trkpt lat="36.692673" lon="137.754682">
<ele>2623.578762</ele>
<time>2014-08-17T23:32:48Z</time>
<desc><![CDATA[lat.=36.692673, lon.=137.754682, Alt.=2623.578762m. Speed=2.000000m/h.]]></desc>
</trkpt>
<trkpt lat="36.692691" lon="137.754690">
<ele>2624.234718</ele>
<time>2014-08-17T23:32:53Z</time>
<desc><![CDATA[lat.=36.692691, lon.=137.754690, Alt.=2624.234718m. Speed=2.000000m/h.]]></desc>
</trkpt>
<trkpt lat="36.692694" lon="137.754730">
<ele>2623.804627</ele>
<time>2014-08-17T23:32:58Z</time>
<desc><![CDATA[lat.=36.692694, lon.=137.754730, Alt.=2623.804627m. Speed=2.000000m/h.]]></desc>
</trkpt>
<trkpt lat="36.692700" lon="137.754762">
<ele>2624.511151</ele>
<time>2014-08-17T23:33:03Z</time>
<desc><![CDATA[lat.=36.692700, lon.=137.754762, Alt.=2624.511151m. Speed=2.000000m/h.]]></desc>
</trkpt>
<trkpt lat="36.692705" lon="137.754755">
<ele>2622.187359</ele>
<time>2014-08-17T23:33:08Z</time>
<desc><![CDATA[lat.=36.692705, lon.=137.754755, Alt.=2622.187359m. Speed=1.000000m/h.]]></desc>
</trkpt>
<trkpt lat="36.692719" lon="137.754755">
<ele>2623.382406</ele>
<time>2014-08-17T23:33:13Z</time>
<desc><![CDATA[lat.=36.692719, lon.=137.754755, Alt.=2623.382406m. Speed=2.000000m/h.]]></desc>
</trkpt>
<trkpt lat="36.692742" lon="137.754740">
<ele>2623.390273</ele>
<time>2014-08-17T23:33:18Z</time>
<desc><![CDATA[lat.=36.692742, lon.=137.754740, Alt.=2623.390273m. Speed=2.000000m/h.]]></desc>
</trkpt>
<trkpt lat="36.692771" lon="137.754724">
<ele>2625.725868</ele>
<time>2014-08-17T23:33:23Z</time>
<desc><![CDATA[lat.=36.692771, lon.=137.754724, Alt.=2625.725868m. Speed=2.000000m/h.]]></desc>
</trkpt>
<trkpt lat="36.692786" lon="137.754709">
<ele>2625.136214</ele>
<time>2014-08-17T23:33:28Z</time>
<desc><![CDATA[lat.=36.692786, lon.=137.754709, Alt.=2625.136214m. Speed=2.000000m/h.]]></desc>
</trkpt>
<trkpt lat="36.692816" lon="137.754694">
<ele>2625.741610</ele>
<time>2014-08-17T23:33:33Z</time>
<desc><![CDATA[lat.=36.692816, lon.=137.754694, Alt.=2625.741610m. Speed=2.000000m/h.]]></desc>
</trkpt>
<trkpt lat="36.692822" lon="137.754709">
<ele>2628.123836</ele>
<time>2014-08-17T23:33:38Z</time>
<desc><![CDATA[lat.=36.692822, lon.=137.754709, Alt.=2628.123836m. Speed=2.000000m/h.]]></desc>
</trkpt>
<trkpt lat="36.692832" lon="137.754716">
<ele>2631.642677</ele>
<time>2014-08-17T23:33:43Z</time>
<desc><![CDATA[lat.=36.692832, lon.=137.754716, Alt.=2631.642677m. Speed=1.000000m/h.]]></desc>
</trkpt>
<trkpt lat="36.692861" lon="137.754732">
<ele>2634.087277</ele>
<time>2014-08-17T23:33:48Z</time>
<desc><![CDATA[lat.=36.692861, lon.=137.754732, Alt.=2634.087277m. Speed=1.000000m/h.]]></desc>
</trkpt>
<trkpt lat="36.692864" lon="137.754739">
<ele>2635.278390</ele>
<time>2014-08-17T23:33:53Z</time>
<desc><![CDATA[lat.=36.692864, lon.=137.754739, Alt.=2635.278390m. Speed=0.000000m/h.]]></desc>
</trkpt>
<trkpt lat="36.692894" lon="137.754725">
<ele>2634.153588</ele>
<time>2014-08-17T23:33:58Z</time>
<desc><![CDATA[lat.=36.692894, lon.=137.754725, Alt.=2634.153588m. Speed=2.000000m/h.]]></desc>
</trkpt>
<trkpt lat="36.692897" lon="137.754748">
<ele>2635.399202</ele>
<time>2014-08-17T23:34:03Z</time>
<desc><![CDATA[lat.=36.692897, lon.=137.754748, Alt.=2635.399202m. Speed=2.000000m/h.]]></desc>
</trkpt>
<trkpt lat="36.692896" lon="137.754780">
<ele>2635.508204</ele>
<time>2014-08-17T23:34:08Z</time>
<desc><![CDATA[lat.=36.692896, lon.=137.754780, Alt.=2635.508204m. Speed=2.000000m/h.]]></desc>
</trkpt>
<trkpt lat="36.692895" lon="137.754811">
<ele>2637.347409</ele>
<time>2014-08-17T23:34:13Z</time>
<desc><![CDATA[lat.=36.692895, lon.=137.754811, Alt.=2637.347409m. Speed=2.000000m/h.]]></desc>
</trkpt>
<trkpt lat="36.692906" lon="137.754803">
<ele>2637.351345</ele>
<time>2014-08-17T23:34:18Z</time>
<desc><![CDATA[lat.=36.692906, lon.=137.754803, Alt.=2637.351345m. Speed=2.000000m/h.]]></desc>
</trkpt>
<trkpt lat="36.692929" lon="137.754789">
<ele>2635.629018</ele>
<time>2014-08-17T23:34:23Z</time>
<desc><![CDATA[lat.=36.692929, lon.=137.754789, Alt.=2635.629018m. Speed=2.000000m/h.]]></desc>
</trkpt>
<trkpt lat="36.692952" lon="137.754774">
<ele>2635.636894</ele>
<time>2014-08-17T23:34:28Z</time>
<desc><![CDATA[lat.=36.692952, lon.=137.754774, Alt.=2635.636894m. Speed=2.000000m/h.]]></desc>
</trkpt>
<trkpt lat="36.692965" lon="137.754789">
<ele>2638.616650</ele>
<time>2014-08-17T23:34:33Z</time>
<desc><![CDATA[lat.=36.692965, lon.=137.754789, Alt.=2638.616650m. Speed=2.000000m/h.]]></desc>
</trkpt>
<trkpt lat="36.692987" lon="137.754789">
<ele>2640.409231</ele>
<time>2014-08-17T23:34:38Z</time>
<desc><![CDATA[lat.=36.692987, lon.=137.754789, Alt.=2640.409231m. Speed=2.000000m/h.]]></desc>
</trkpt>
<trkpt lat="36.693012" lon="137.754797">
<ele>2641.662726</ele>
<time>2014-08-17T23:34:43Z</time>
<desc><![CDATA[lat.=36.693012, lon.=137.754797, Alt.=2641.662726m. Speed=2.000000m/h.]]></desc>
</trkpt>
<trkpt lat="36.693042" lon="137.754798">
<ele>2642.322634</ele>
<time>2014-08-17T23:34:48Z</time>
<desc><![CDATA[lat.=36.693042, lon.=137.754798, Alt.=2642.322634m. Speed=2.000000m/h.]]></desc>
</trkpt>
<trkpt lat="36.693049" lon="137.754814">
<ele>2641.244461</ele>
<time>2014-08-17T23:34:53Z</time>
<desc><![CDATA[lat.=36.693049, lon.=137.754814, Alt.=2641.244461m. Speed=2.000000m/h.]]></desc>
</trkpt>
<trkpt lat="36.693048" lon="137.754845">
<ele>2643.083667</ele>
<time>2014-08-17T23:34:58Z</time>
<desc><![CDATA[lat.=36.693048, lon.=137.754845, Alt.=2643.083667m. Speed=2.000000m/h.]]></desc>
</trkpt>
<trkpt lat="36.693077" lon="137.754829">
<ele>2645.419277</ele>
<time>2014-08-17T23:35:03Z</time>
<desc><![CDATA[lat.=36.693077, lon.=137.754829, Alt.=2645.419277m. Speed=2.000000m/h.]]></desc>
</trkpt>
<trkpt lat="36.693062" lon="137.754829">
<ele>2645.954423</ele>
<time>2014-08-17T23:35:08Z</time>
<desc><![CDATA[lat.=36.693062, lon.=137.754829, Alt.=2645.954423m. Speed=2.000000m/h.]]></desc>
</trkpt>
<trkpt lat="36.693049" lon="137.754883">
<ele>2647.844192</ele>
<time>2014-08-17T23:35:13Z</time>
<desc><![CDATA[lat.=36.693049, lon.=137.754883, Alt.=2647.844192m. Speed=3.000000m/h.]]></desc>
</trkpt>
<trkpt lat="36.693026" lon="137.754913">
<ele>2649.621019</ele>
<time>2014-08-17T23:35:18Z</time>
<desc><![CDATA[lat.=36.693026, lon.=137.754913, Alt.=2649.621019m. Speed=3.000000m/h.]]></desc>
</trkpt>
<trkpt lat="36.693029" lon="137.754953">
<ele>2649.190942</ele>
<time>2014-08-17T23:35:23Z</time>
<desc><![CDATA[lat.=36.693029, lon.=137.754953, Alt.=2649.190942m. Speed=2.000000m/h.]]></desc>
</trkpt>
<trkpt lat="36.693044" lon="137.754954">
<ele>2648.655796</ele>
<time>2014-08-17T23:35:28Z</time>
<desc><![CDATA[lat.=36.693044, lon.=137.754954, Alt.=2648.655796m. Speed=2.000000m/h.]]></desc>
</trkpt>
<trkpt lat="36.693050" lon="137.754985">
<ele>2649.362333</ele>
<time>2014-08-17T23:35:33Z</time>
<desc><![CDATA[lat.=36.693050, lon.=137.754985, Alt.=2649.362333m. Speed=1.000000m/h.]]></desc>
</trkpt>
<trkpt lat="36.693042" lon="137.755016">
<ele>2650.604018</ele>
<time>2014-08-17T23:35:38Z</time>
<desc><![CDATA[lat.=36.693042, lon.=137.755016, Alt.=2650.604018m. Speed=2.000000m/h.]]></desc>
</trkpt>
<trkpt lat="36.693068" lon="137.755025">
<ele>2650.127316</ele>
<time>2014-08-17T23:35:43Z</time>
<desc><![CDATA[lat.=36.693068, lon.=137.755025, Alt.=2650.127316m. Speed=2.000000m/h.]]></desc>
</trkpt>
<trkpt lat="36.693074" lon="137.755072">
<ele>2650.888363</ele>
<time>2014-08-17T23:35:48Z</time>
<desc><![CDATA[lat.=36.693074, lon.=137.755072, Alt.=2650.888363m. Speed=3.000000m/h.]]></desc>
</trkpt>
<trkpt lat="36.693073" lon="137.755104">
<ele>2650.997377</ele>
<time>2014-08-17T23:35:53Z</time>
<desc><![CDATA[lat.=36.693073, lon.=137.755104, Alt.=2650.997377m. Speed=2.000000m/h.]]></desc>
</trkpt>
<trkpt lat="36.693083" lon="137.755143">
<ele>2652.895039</ele>
<time>2014-08-17T23:35:58Z</time>
<desc><![CDATA[lat.=36.693083, lon.=137.755143, Alt.=2652.895039m. Speed=3.000000m/h.]]></desc>
</trkpt>
<trkpt lat="36.693097" lon="137.755191">
<ele>2652.523420</ele>
<time>2014-08-17T23:36:03Z</time>
<desc><![CDATA[lat.=36.693097, lon.=137.755191, Alt.=2652.523420m. Speed=3.000000m/h.]]></desc>
</trkpt>
<trkpt lat="36.693114" lon="137.755247">
<ele>2653.342925</ele>
<time>2014-08-17T23:36:08Z</time>
<desc><![CDATA[lat.=36.693114, lon.=137.755247, Alt.=2653.342925m. Speed=3.000000m/h.]]></desc>
</trkpt>
<trkpt lat="36.693116" lon="137.755287">
<ele>2652.912865</ele>
<time>2014-08-17T23:36:13Z</time>
<desc><![CDATA[lat.=36.693116, lon.=137.755287, Alt.=2652.912865m. Speed=3.000000m/h.]]></desc>
</trkpt>
<trkpt lat="36.693145" lon="137.755320">
<ele>2651.951601</ele>
<time>2014-08-17T23:36:18Z</time>
<desc><![CDATA[lat.=36.693145, lon.=137.755320, Alt.=2651.951601m. Speed=3.000000m/h.]]></desc>
</trkpt>
<trkpt lat="36.693149" lon="137.755312">
<ele>2653.088210</ele>
<time>2014-08-17T23:36:23Z</time>
<desc><![CDATA[lat.=36.693149, lon.=137.755312, Alt.=2653.088210m. Speed=0.000000m/h.]]></desc>
</trkpt>
<trkpt lat="36.693156" lon="137.755312">
<ele>2653.685740</ele>
<time>2014-08-17T23:36:34Z</time>
<desc><![CDATA[lat.=36.693156, lon.=137.755312, Alt.=2653.685740m. Speed=0.000000m/h.]]></desc>
</trkpt>
<trkpt lat="36.693153" lon="137.755303">
<ele>2654.224820</ele>
<time>2014-08-17T23:36:40Z</time>
<desc><![CDATA[lat.=36.693153, lon.=137.755303, Alt.=2654.224820m. Speed=0.000000m/h.]]></desc>
</trkpt>
<trkpt lat="36.693182" lon="137.755305">
<ele>2653.154535</ele>
<time>2014-08-17T23:36:45Z</time>
<desc><![CDATA[lat.=36.693182, lon.=137.755305, Alt.=2653.154535m. Speed=2.000000m/h.]]></desc>
</trkpt>
<trkpt lat="36.693204" lon="137.755306">
<ele>2653.216924</ele>
<time>2014-08-17T23:36:50Z</time>
<desc><![CDATA[lat.=36.693204, lon.=137.755306, Alt.=2653.216924m. Speed=2.000000m/h.]]></desc>
</trkpt>
<trkpt lat="36.693193" lon="137.755313">
<ele>2653.212985</ele>
<time>2014-08-17T23:36:57Z</time>
<desc><![CDATA[lat.=36.693193, lon.=137.755313, Alt.=2653.212985m. Speed=1.000000m/h.]]></desc>
</trkpt>
<trkpt lat="36.693189" lon="137.755321">
<ele>2653.806576</ele>
<time>2014-08-17T23:37:02Z</time>
<desc><![CDATA[lat.=36.693189, lon.=137.755321, Alt.=2653.806576m. Speed=1.000000m/h.]]></desc>
</trkpt>
<trkpt lat="36.693174" lon="137.755337">
<ele>2652.666029</ele>
<time>2014-08-17T23:37:07Z</time>
<desc><![CDATA[lat.=36.693174, lon.=137.755337, Alt.=2652.666029m. Speed=2.000000m/h.]]></desc>
</trkpt>
<trkpt lat="36.693178" lon="137.755329">
<ele>2652.072437</ele>
<time>2014-08-17T23:37:13Z</time>
<desc><![CDATA[lat.=36.693178, lon.=137.755329, Alt.=2652.072437m. Speed=0.000000m/h.]]></desc>
</trkpt>
<trkpt lat="36.693182" lon="137.755337">
<ele>2653.263558</ele>
<time>2014-08-17T23:37:18Z</time>
<desc><![CDATA[lat.=36.693182, lon.=137.755337, Alt.=2653.263558m. Speed=0.000000m/h.]]></desc>
</trkpt>
<trkpt lat="36.693174" lon="137.755337">
<ele>2652.666029</ele>
<time>2014-08-17T23:37:30Z</time>
<desc><![CDATA[lat.=36.693174, lon.=137.755337, Alt.=2652.666029m. Speed=0.000000m/h.]]></desc>
</trkpt>
<trkpt lat="36.693167" lon="137.755337">
<ele>2652.068499</ele>
<time>2014-08-17T23:37:43Z</time>
<desc><![CDATA[lat.=36.693167, lon.=137.755337, Alt.=2652.068499m. Speed=0.000000m/h.]]></desc>
</trkpt>
<trkpt lat="36.693149" lon="137.755344">
<ele>2651.467032</ele>
<time>2014-08-17T23:37:48Z</time>
<desc><![CDATA[lat.=36.693149, lon.=137.755344, Alt.=2651.467032m. Speed=1.000000m/h.]]></desc>
</trkpt>
<trkpt lat="36.693134" lon="137.755361">
<ele>2648.596285</ele>
<time>2014-08-17T23:37:53Z</time>
<desc><![CDATA[lat.=36.693134, lon.=137.755361, Alt.=2648.596285m. Speed=1.000000m/h.]]></desc>
</trkpt>
<trkpt lat="36.693130" lon="137.755385">
<ele>2647.514189</ele>
<time>2014-08-17T23:37:58Z</time>
<desc><![CDATA[lat.=36.693130, lon.=137.755385, Alt.=2647.514189m. Speed=1.000000m/h.]]></desc>
</trkpt>
<trkpt lat="36.693159" lon="137.755434">
<ele>2644.877242</ele>
<time>2014-08-17T23:38:03Z</time>
<desc><![CDATA[lat.=36.693159, lon.=137.755434, Alt.=2644.877242m. Speed=2.000000m/h.]]></desc>
</trkpt>
<trkpt lat="36.693177" lon="137.755474">
<ele>2645.642250</ele>
<time>2014-08-17T23:38:08Z</time>
<desc><![CDATA[lat.=36.693177, lon.=137.755474, Alt.=2645.642250m. Speed=2.000000m/h.]]></desc>
</trkpt>
<trkpt lat="36.693198" lon="137.755491">
<ele>2645.759153</ele>
<time>2014-08-17T23:38:13Z</time>
<desc><![CDATA[lat.=36.693198, lon.=137.755491, Alt.=2645.759153m. Speed=2.000000m/h.]]></desc>
</trkpt>
<trkpt lat="36.693223" lon="137.755516">
<ele>2645.336980</ele>
<time>2014-08-17T23:38:18Z</time>
<desc><![CDATA[lat.=36.693223, lon.=137.755516, Alt.=2645.336980m. Speed=2.000000m/h.]]></desc>
</trkpt>
<trkpt lat="36.693238" lon="137.755532">
<ele>2644.856355</ele>
<time>2014-08-17T23:38:23Z</time>
<desc><![CDATA[lat.=36.693238, lon.=137.755532, Alt.=2644.856355m. Speed=2.000000m/h.]]></desc>
</trkpt>
<trkpt lat="36.693234" lon="137.755539">
<ele>2647.180149</ele>
<time>2014-08-17T23:38:28Z</time>
<desc><![CDATA[lat.=36.693234, lon.=137.755539, Alt.=2647.180149m. Speed=1.000000m/h.]]></desc>
</trkpt>
<trkpt lat="36.693234" lon="137.755524">
<ele>2645.395433</ele>
<time>2014-08-17T23:38:33Z</time>
<desc><![CDATA[lat.=36.693234, lon.=137.755524, Alt.=2645.395433m. Speed=0.000000m/h.]]></desc>
</trkpt>
<trkpt lat="36.693238" lon="137.755532">
<ele>2644.856355</ele>
<time>2014-08-17T23:38:38Z</time>
<desc><![CDATA[lat.=36.693238, lon.=137.755532, Alt.=2644.856355m. Speed=0.000000m/h.]]></desc>
</trkpt>
<trkpt lat="36.693231" lon="137.755517">
<ele>2642.474108</ele>
<time>2014-08-17T23:38:43Z</time>
<desc><![CDATA[lat.=36.693231, lon.=137.755517, Alt.=2642.474108m. Speed=0.000000m/h.]]></desc>
</trkpt>
<trkpt lat="36.693225" lon="137.755518">
<ele>2640.146377</ele>
<time>2014-08-17T23:38:48Z</time>
<desc><![CDATA[lat.=36.693225, lon.=137.755518, Alt.=2640.146377m. Speed=0.000000m/h.]]></desc>
</trkpt>
<trkpt lat="36.693232" lon="137.755518">
<ele>2640.743907</ele>
<time>2014-08-17T23:38:57Z</time>
<desc><![CDATA[lat.=36.693232, lon.=137.755518, Alt.=2640.743907m. Speed=1.000000m/h.]]></desc>
</trkpt>
<trkpt lat="36.693235" lon="137.755542">
<ele>2640.259345</ele>
<time>2014-08-17T23:39:02Z</time>
<desc><![CDATA[lat.=36.693235, lon.=137.755542, Alt.=2640.259345m. Speed=1.000000m/h.]]></desc>
</trkpt>
<trkpt lat="36.693228" lon="137.755574">
<ele>2638.040646</ele>
<time>2014-08-17T23:39:07Z</time>
<desc><![CDATA[lat.=36.693228, lon.=137.755574, Alt.=2638.040646m. Speed=1.000000m/h.]]></desc>
</trkpt>
<trkpt lat="36.693227" lon="137.755606">
<ele>2638.149680</ele>
<time>2014-08-17T23:39:12Z</time>
<desc><![CDATA[lat.=36.693227, lon.=137.755606, Alt.=2638.149680m. Speed=2.000000m/h.]]></desc>
</trkpt>
<trkpt lat="36.693260" lon="137.755615">
<ele>2638.270524</ele>
<time>2014-08-17T23:39:17Z</time>
<desc><![CDATA[lat.=36.693260, lon.=137.755615, Alt.=2638.270524m. Speed=2.000000m/h.]]></desc>
</trkpt>
<trkpt lat="36.693281" lon="137.755632">
<ele>2638.387434</ele>
<time>2014-08-17T23:39:22Z</time>
<desc><![CDATA[lat.=36.693281, lon.=137.755632, Alt.=2638.387434m. Speed=2.000000m/h.]]></desc>
</trkpt>
<trkpt lat="36.693292" lon="137.755656">
<ele>2636.770206</ele>
<time>2014-08-17T23:39:27Z</time>
<desc><![CDATA[lat.=36.693292, lon.=137.755656, Alt.=2636.770206m. Speed=2.000000m/h.]]></desc>
</trkpt>
<trkpt lat="36.693281" lon="137.755664">
<ele>2636.766269</ele>
<time>2014-08-17T23:39:32Z</time>
<desc><![CDATA[lat.=36.693281, lon.=137.755664, Alt.=2636.766269m. Speed=1.000000m/h.]]></desc>
</trkpt>
<trkpt lat="36.693277" lon="137.755672">
<ele>2635.629662</ele>
<time>2014-08-17T23:39:38Z</time>
<desc><![CDATA[lat.=36.693277, lon.=137.755672, Alt.=2635.629662m. Speed=0.000000m/h.]]></desc>
</trkpt>
<trkpt lat="36.693275" lon="137.755665">
<ele>2632.708336</ele>
<time>2014-08-17T23:39:43Z</time>
<desc><![CDATA[lat.=36.693275, lon.=137.755665, Alt.=2632.708336m. Speed=0.000000m/h.]]></desc>
</trkpt>
<trkpt lat="36.693274" lon="137.755681">
<ele>2632.762854</ele>
<time>2014-08-17T23:39:48Z</time>
<desc><![CDATA[lat.=36.693274, lon.=137.755681, Alt.=2632.762854m. Speed=0.000000m/h.]]></desc>
</trkpt>
<trkpt lat="36.693278" lon="137.755690">
<ele>2632.223779</ele>
<time>2014-08-17T23:39:53Z</time>
<desc><![CDATA[lat.=36.693278, lon.=137.755690, Alt.=2632.223779m. Speed=0.000000m/h.]]></desc>
</trkpt>
<trkpt lat="36.693285" lon="137.755706">
<ele>2631.145628</ele>
<time>2014-08-17T23:39:58Z</time>
<desc><![CDATA[lat.=36.693285, lon.=137.755706, Alt.=2631.145628m. Speed=1.000000m/h.]]></desc>
</trkpt>
<trkpt lat="36.693321" lon="137.755723">
<ele>2632.457603</ele>
<time>2014-08-17T23:40:03Z</time>
<desc><![CDATA[lat.=36.693321, lon.=137.755723, Alt.=2632.457603m. Speed=2.000000m/h.]]></desc>
</trkpt>
<trkpt lat="36.693307" lon="137.755739">
<ele>2629.586859</ele>
<time>2014-08-17T23:40:08Z</time>
<desc><![CDATA[lat.=36.693307, lon.=137.755739, Alt.=2629.586859m. Speed=1.000000m/h.]]></desc>
</trkpt>
<trkpt lat="36.693296" lon="137.755748">
<ele>2627.852721</ele>
<time>2014-08-17T23:40:13Z</time>
<desc><![CDATA[lat.=36.693296, lon.=137.755748, Alt.=2627.852721m. Speed=1.000000m/h.]]></desc>
</trkpt>
<trkpt lat="36.693318" lon="137.755764">
<ele>2627.969635</ele>
<time>2014-08-17T23:40:18Z</time>
<desc><![CDATA[lat.=36.693318, lon.=137.755764, Alt.=2627.969635m. Speed=0.000000m/h.]]></desc>
</trkpt>
<trkpt lat="36.693333" lon="137.755749">
<ele>2627.379978</ele>
<time>2014-08-17T23:40:23Z</time>
<desc><![CDATA[lat.=36.693333, lon.=137.755749, Alt.=2627.379978m. Speed=1.000000m/h.]]></desc>
</trkpt>
<trkpt lat="36.693352" lon="137.755742">
<ele>2626.251247</ele>
<time>2014-08-17T23:40:28Z</time>
<desc><![CDATA[lat.=36.693352, lon.=137.755742, Alt.=2626.251247m. Speed=1.000000m/h.]]></desc>
</trkpt>
<trkpt lat="36.693348" lon="137.755751">
<ele>2625.114640</ele>
<time>2014-08-17T23:40:33Z</time>
<desc><![CDATA[lat.=36.693348, lon.=137.755751, Alt.=2625.114640m. Speed=0.000000m/h.]]></desc>
</trkpt>
<trkpt lat="36.693356" lon="137.755751">
<ele>2623.981971</ele>
<time>2014-08-17T23:40:38Z</time>
<desc><![CDATA[lat.=36.693356, lon.=137.755751, Alt.=2623.981971m. Speed=1.000000m/h.]]></desc>
</trkpt>
<trkpt lat="36.693352" lon="137.755792">
<ele>2621.224205</ele>
<time>2014-08-17T23:40:43Z</time>
<desc><![CDATA[lat.=36.693352, lon.=137.755792, Alt.=2621.224205m. Speed=2.000000m/h.]]></desc>
</trkpt>
<trkpt lat="36.693366" lon="137.755825">
<ele>2619.067910</ele>
<time>2014-08-17T23:40:48Z</time>
<desc><![CDATA[lat.=36.693366, lon.=137.755825, Alt.=2619.067910m. Speed=2.000000m/h.]]></desc>
</trkpt>
<trkpt lat="36.693377" lon="137.755849">
<ele>2619.180891</ele>
<time>2014-08-17T23:40:53Z</time>
<desc><![CDATA[lat.=36.693377, lon.=137.755849, Alt.=2619.180891m. Speed=2.000000m/h.]]></desc>
</trkpt>
<trkpt lat="36.693375" lon="137.755880">
<ele>2621.020136</ele>
<time>2014-08-17T23:40:58Z</time>
<desc><![CDATA[lat.=36.693375, lon.=137.755880, Alt.=2621.020136m. Speed=2.000000m/h.]]></desc>
</trkpt>
<trkpt lat="36.693386" lon="137.755936">
<ele>2619.511964</ele>
<time>2014-08-17T23:41:03Z</time>
<desc><![CDATA[lat.=36.693386, lon.=137.755936, Alt.=2619.511964m. Speed=3.000000m/h.]]></desc>
</trkpt>
<trkpt lat="36.693388" lon="137.755976">
<ele>2619.081940</ele>
<time>2014-08-17T23:41:08Z</time>
<desc><![CDATA[lat.=36.693388, lon.=137.755976, Alt.=2619.081940m. Speed=3.000000m/h.]]></desc>
</trkpt>
<trkpt lat="36.693395" lon="137.756008">
<ele>2619.788522</ele>
<time>2014-08-17T23:41:13Z</time>
<desc><![CDATA[lat.=36.693395, lon.=137.756008, Alt.=2619.788522m. Speed=2.000000m/h.]]></desc>
</trkpt>
<trkpt lat="36.693405" lon="137.756048">
<ele>2619.956034</ele>
<time>2014-08-17T23:41:18Z</time>
<desc><![CDATA[lat.=36.693405, lon.=137.756048, Alt.=2619.956034m. Speed=2.000000m/h.]]></desc>
</trkpt>
<trkpt lat="36.693432" lon="137.756058">
<ele>2616.018961</ele>
<time>2014-08-17T23:41:23Z</time>
<desc><![CDATA[lat.=36.693432, lon.=137.756058, Alt.=2616.018961m. Speed=2.000000m/h.]]></desc>
</trkpt>
<trkpt lat="36.693460" lon="137.756075">
<ele>2616.733421</ele>
<time>2014-08-17T23:41:28Z</time>
<desc><![CDATA[lat.=36.693460, lon.=137.756075, Alt.=2616.733421m. Speed=2.000000m/h.]]></desc>
</trkpt>
<trkpt lat="36.693471" lon="137.756066">
<ele>2620.197759</ele>
<time>2014-08-17T23:41:33Z</time>
<desc><![CDATA[lat.=36.693471, lon.=137.756066, Alt.=2620.197759m. Speed=2.000000m/h.]]></desc>
</trkpt>
<trkpt lat="36.693478" lon="137.756083">
<ele>2617.389418</ele>
<time>2014-08-17T23:41:38Z</time>
<desc><![CDATA[lat.=36.693478, lon.=137.756083, Alt.=2617.389418m. Speed=1.000000m/h.]]></desc>
</trkpt>
<trkpt lat="36.693493" lon="137.756099">
<ele>2618.639013</ele>
<time>2014-08-17T23:41:43Z</time>
<desc><![CDATA[lat.=36.693493, lon.=137.756099, Alt.=2618.639013m. Speed=1.000000m/h.]]></desc>
</trkpt>
<trkpt lat="36.693486" lon="137.756100">
<ele>2616.311278</ele>
<time>2014-08-17T23:41:48Z</time>
<desc><![CDATA[lat.=36.693486, lon.=137.756100, Alt.=2616.311278m. Speed=0.000000m/h.]]></desc>
</trkpt>
<trkpt lat="36.693489" lon="137.756108">
<ele>2615.772209</ele>
<time>2014-08-17T23:41:53Z</time>
<desc><![CDATA[lat.=36.693489, lon.=137.756108, Alt.=2615.772209m. Speed=1.000000m/h.]]></desc>
</trkpt>
<trkpt lat="36.693493" lon="137.756132">
<ele>2615.287666</ele>
<time>2014-08-17T23:41:58Z</time>
<desc><![CDATA[lat.=36.693493, lon.=137.756132, Alt.=2615.287666m. Speed=0.000000m/h.]]></desc>
</trkpt>
<trkpt lat="36.693493" lon="137.756133">
<ele>2613.557466</ele>
<time>2014-08-17T23:42:03Z</time>
<desc><![CDATA[lat.=36.693493, lon.=137.756133, Alt.=2613.557466m. Speed=0.000000m/h.]]></desc>
</trkpt>
<trkpt lat="36.693497" lon="137.756141">
<ele>2613.018396</ele>
<time>2014-08-17T23:42:08Z</time>
<desc><![CDATA[lat.=36.693497, lon.=137.756141, Alt.=2613.018396m. Speed=0.000000m/h.]]></desc>
</trkpt>
<trkpt lat="36.693507" lon="137.756149">
<ele>2613.076861</ele>
<time>2014-08-17T23:42:15Z</time>
<desc><![CDATA[lat.=36.693507, lon.=137.756149, Alt.=2613.076861m. Speed=1.000000m/h.]]></desc>
</trkpt>
<trkpt lat="36.693536" lon="137.756183">
<ele>2612.115655</ele>
<time>2014-08-17T23:42:20Z</time>
<desc><![CDATA[lat.=36.693536, lon.=137.756183, Alt.=2612.115655m. Speed=2.000000m/h.]]></desc>
</trkpt>
<trkpt lat="36.693576" lon="137.756224">
<ele>2611.212919</ele>
<time>2014-08-17T23:42:25Z</time>
<desc><![CDATA[lat.=36.693576, lon.=137.756224, Alt.=2611.212919m. Speed=3.000000m/h.]]></desc>
</trkpt>
<trkpt lat="36.693615" lon="137.756265">
<ele>2612.040387</ele>
<time>2014-08-17T23:42:30Z</time>
<desc><![CDATA[lat.=36.693615, lon.=137.756265, Alt.=2612.040387m. Speed=3.000000m/h.]]></desc>
</trkpt>
<trkpt lat="36.693652" lon="137.756298">
<ele>2611.676728</ele>
<time>2014-08-17T23:42:35Z</time>
<desc><![CDATA[lat.=36.693652, lon.=137.756298, Alt.=2611.676728m. Speed=3.000000m/h.]]></desc>
</trkpt>
<trkpt lat="36.693692" lon="137.756308">
<ele>2610.664945</ele>
<time>2014-08-17T23:42:40Z</time>
<desc><![CDATA[lat.=36.693692, lon.=137.756308, Alt.=2610.664945m. Speed=3.000000m/h.]]></desc>
</trkpt>
<trkpt lat="36.693728" lon="137.756340">
<ele>2612.031492</ele>
<time>2014-08-17T23:42:45Z</time>
<desc><![CDATA[lat.=36.693728, lon.=137.756340, Alt.=2612.031492m. Speed=3.000000m/h.]]></desc>
</trkpt>
<trkpt lat="36.693761" lon="137.756366">
<ele>2610.476709</ele>
<time>2014-08-17T23:42:50Z</time>
<desc><![CDATA[lat.=36.693761, lon.=137.756366, Alt.=2610.476709m. Speed=3.000000m/h.]]></desc>
</trkpt>
<trkpt lat="36.693789" lon="137.756398">
<ele>2611.245725</ele>
<time>2014-08-17T23:42:55Z</time>
<desc><![CDATA[lat.=36.693789, lon.=137.756398, Alt.=2611.245725m. Speed=3.000000m/h.]]></desc>
</trkpt>
<trkpt lat="36.693829" lon="137.756423">
<ele>2612.018686</ele>
<time>2014-08-17T23:43:00Z</time>
<desc><![CDATA[lat.=36.693829, lon.=137.756423, Alt.=2612.018686m. Speed=3.000000m/h.]]></desc>
</trkpt>
<trkpt lat="36.693862" lon="137.756448">
<ele>2612.194112</ele>
<time>2014-08-17T23:43:05Z</time>
<desc><![CDATA[lat.=36.693862, lon.=137.756448, Alt.=2612.194112m. Speed=4.000000m/h.]]></desc>
</trkpt>
<trkpt lat="36.693887" lon="137.756457">
<ele>2611.717467</ele>
<time>2014-08-17T23:43:10Z</time>
<desc><![CDATA[lat.=36.693887, lon.=137.756457, Alt.=2611.717467m. Speed=3.000000m/h.]]></desc>
</trkpt>
<trkpt lat="36.693888" lon="137.756441">
<ele>2611.662934</ele>
<time>2014-08-17T23:43:15Z</time>
<desc><![CDATA[lat.=36.693888, lon.=137.756441, Alt.=2611.662934m. Speed=0.000000m/h.]]></desc>
</trkpt>
<trkpt lat="36.693895" lon="137.756442">
<ele>2610.530274</ele>
<time>2014-08-17T23:43:20Z</time>
<desc><![CDATA[lat.=36.693895, lon.=137.756442, Alt.=2610.530274m. Speed=0.000000m/h.]]></desc>
</trkpt>
<trkpt lat="36.693888" lon="137.756442">
<ele>2609.932734</ele>
<time>2014-08-17T23:43:25Z</time>
<desc><![CDATA[lat.=36.693888, lon.=137.756442, Alt.=2609.932734m. Speed=0.000000m/h.]]></desc>
</trkpt>
<trkpt lat="36.693888" lon="137.756441">
<ele>2611.662934</ele>
<time>2014-08-17T23:43:30Z</time>
<desc><![CDATA[lat.=36.693888, lon.=137.756441, Alt.=2611.662934m. Speed=0.000000m/h.]]></desc>
</trkpt>
<trkpt lat="36.693895" lon="137.756441">
<ele>2612.260473</ele>
<time>2014-08-17T23:43:35Z</time>
<desc><![CDATA[lat.=36.693895, lon.=137.756441, Alt.=2612.260473m. Speed=0.000000m/h.]]></desc>
</trkpt>
<trkpt lat="36.693921" lon="137.756434">
<ele>2611.729297</ele>
<time>2014-08-17T23:43:40Z</time>
<desc><![CDATA[lat.=36.693921, lon.=137.756434, Alt.=2611.729297m. Speed=2.000000m/h.]]></desc>
</trkpt>
<trkpt lat="36.693943" lon="137.756435">
<ele>2611.791718</ele>
<time>2014-08-17T23:43:45Z</time>
<desc><![CDATA[lat.=36.693943, lon.=137.756435, Alt.=2611.791718m. Speed=2.000000m/h.]]></desc>
</trkpt>
<trkpt lat="36.693951" lon="137.756436">
<ele>2610.659059</ele>
<time>2014-08-17T23:43:50Z</time>
<desc><![CDATA[lat.=36.693951, lon.=137.756436, Alt.=2610.659059m. Speed=2.000000m/h.]]></desc>
</trkpt>
<trkpt lat="36.693985" lon="137.756382">
<ele>2608.831629</ele>
<time>2014-08-17T23:43:55Z</time>
<desc><![CDATA[lat.=36.693985, lon.=137.756382, Alt.=2608.831629m. Speed=3.000000m/h.]]></desc>
</trkpt>
<trkpt lat="36.694021" lon="137.756382">
<ele>2611.819335</ele>
<time>2014-08-17T23:44:00Z</time>
<desc><![CDATA[lat.=36.694021, lon.=137.756382, Alt.=2611.819335m. Speed=3.000000m/h.]]></desc>
</trkpt>
<trkpt lat="36.694054" lon="137.756423">
<ele>2612.049304</ele>
<time>2014-08-17T23:44:05Z</time>
<desc><![CDATA[lat.=36.694054, lon.=137.756423, Alt.=2612.049304m. Speed=3.000000m/h.]]></desc>
</trkpt>
<trkpt lat="36.694078" lon="137.756479">
<ele>2611.736268</ele>
<time>2014-08-17T23:44:10Z</time>
<desc><![CDATA[lat.=36.694078, lon.=137.756479, Alt.=2611.736268m. Speed=4.000000m/h.]]></desc>
</trkpt>
<trkpt lat="36.694129" lon="137.756512">
<ele>2612.567736</ele>
<time>2014-08-17T23:44:15Z</time>
<desc><![CDATA[lat.=36.694129, lon.=137.756512, Alt.=2612.567736m. Speed=4.000000m/h.]]></desc>
</trkpt>
<trkpt lat="36.694177" lon="137.756506">
<ele>2612.099002</ele>
<time>2014-08-17T23:44:20Z</time>
<desc><![CDATA[lat.=36.694177, lon.=137.756506, Alt.=2612.099002m. Speed=4.000000m/h.]]></desc>
</trkpt>
<trkpt lat="36.694221" lon="137.756524">
<ele>2612.278401</ele>
<time>2014-08-17T23:44:25Z</time>
<desc><![CDATA[lat.=36.694221, lon.=137.756524, Alt.=2612.278401m. Speed=4.000000m/h.]]></desc>
</trkpt>
<trkpt lat="36.694253" lon="137.756549">
<ele>2612.453854</ele>
<time>2014-08-17T23:44:30Z</time>
<desc><![CDATA[lat.=36.694253, lon.=137.756549, Alt.=2612.453854m. Speed=3.000000m/h.]]></desc>
</trkpt>
<trkpt lat="36.694280" lon="137.756527">
<ele>2610.137961</ele>
<time>2014-08-17T23:44:35Z</time>
<desc><![CDATA[lat.=36.694280, lon.=137.756527, Alt.=2610.137961m. Speed=3.000000m/h.]]></desc>
</trkpt>
<trkpt lat="36.694324" lon="137.756529">
<ele>2608.532635</ele>
<time>2014-08-17T23:44:40Z</time>
<desc><![CDATA[lat.=36.694324, lon.=137.756529, Alt.=2608.532635m. Speed=3.000000m/h.]]></desc>
</trkpt>
<trkpt lat="36.694357" lon="137.756521">
<ele>2610.329225</ele>
<time>2014-08-17T23:44:45Z</time>
<desc><![CDATA[lat.=36.694357, lon.=137.756521, Alt.=2610.329225m. Speed=3.000000m/h.]]></desc>
</trkpt>
<trkpt lat="36.694391" lon="137.756500">
<ele>2608.610884</ele>
<time>2014-08-17T23:44:50Z</time>
<desc><![CDATA[lat.=36.694391, lon.=137.756500, Alt.=2608.610884m. Speed=3.000000m/h.]]></desc>
</trkpt>
<trkpt lat="36.694414" lon="137.756485">
<ele>2608.618792</ele>
<time>2014-08-17T23:44:55Z</time>
<desc><![CDATA[lat.=36.694414, lon.=137.756485, Alt.=2608.618792m. Speed=3.000000m/h.]]></desc>
</trkpt>
<trkpt lat="36.694432" lon="137.756461">
<ele>2610.895959</ele>
<time>2014-08-17T23:45:00Z</time>
<desc><![CDATA[lat.=36.694432, lon.=137.756461, Alt.=2610.895959m. Speed=3.000000m/h.]]></desc>
</trkpt>
<trkpt lat="36.694461" lon="137.756476">
<ele>2613.340682</ele>
<time>2014-08-17T23:45:05Z</time>
<desc><![CDATA[lat.=36.694461, lon.=137.756476, Alt.=2613.340682m. Speed=2.000000m/h.]]></desc>
</trkpt>
<trkpt lat="36.694460" lon="137.756475">
<ele>2616.801081</ele>
<time>2014-08-17T23:45:10Z</time>
<desc><![CDATA[lat.=36.694460, lon.=137.756475, Alt.=2616.801081m. Speed=0.000000m/h.]]></desc>
</trkpt>
<trkpt lat="36.694483" lon="137.756477">
<ele>2613.403126</ele>
<time>2014-08-17T23:45:15Z</time>
<desc><![CDATA[lat.=36.694483, lon.=137.756477, Alt.=2613.403126m. Speed=2.000000m/h.]]></desc>
</trkpt>
<trkpt lat="36.694516" lon="137.756487">
<ele>2611.793862</ele>
<time>2014-08-17T23:45:20Z</time>
<desc><![CDATA[lat.=36.694516, lon.=137.756487, Alt.=2611.793862m. Speed=2.000000m/h.]]></desc>
</trkpt>
<trkpt lat="36.694538" lon="137.756488">
<ele>2610.126109</ele>
<time>2014-08-17T23:45:25Z</time>
<desc><![CDATA[lat.=36.694538, lon.=137.756488, Alt.=2610.126109m. Speed=2.000000m/h.]]></desc>
</trkpt>
<trkpt lat="36.694551" lon="137.756483">
<ele>2604.939468</ele>
<time>2014-08-17T23:45:30Z</time>
<desc><![CDATA[lat.=36.694551, lon.=137.756483, Alt.=2604.939468m. Speed=2.000000m/h.]]></desc>
</trkpt>
<trkpt lat="36.694591" lon="137.756493">
<ele>2603.927757</ele>
<time>2014-08-17T23:45:35Z</time>
<desc><![CDATA[lat.=36.694591, lon.=137.756493, Alt.=2603.927757m. Speed=2.000000m/h.]]></desc>
</trkpt>
<trkpt lat="36.694616" lon="137.756501">
<ele>2605.181348</ele>
<time>2014-08-17T23:45:40Z</time>
<desc><![CDATA[lat.=36.694616, lon.=137.756501, Alt.=2605.181348m. Speed=2.000000m/h.]]></desc>
</trkpt>
<trkpt lat="36.694639" lon="137.756487">
<ele>2603.459066</ele>
<time>2014-08-17T23:45:45Z</time>
<desc><![CDATA[lat.=36.694639, lon.=137.756487, Alt.=2603.459066m. Speed=2.000000m/h.]]></desc>
</trkpt>
<trkpt lat="36.694662" lon="137.756473">
<ele>2601.736785</ele>
<time>2014-08-17T23:45:50Z</time>
<desc><![CDATA[lat.=36.694662, lon.=137.756473, Alt.=2601.736785m. Speed=2.000000m/h.]]></desc>
</trkpt>
<trkpt lat="36.694677" lon="137.756474">
<ele>2599.471488</ele>
<time>2014-08-17T23:45:55Z</time>
<desc><![CDATA[lat.=36.694677, lon.=137.756474, Alt.=2599.471488m. Speed=2.000000m/h.]]></desc>
</trkpt>
<trkpt lat="36.694717" lon="137.756483">
<ele>2600.189986</ele>
<time>2014-08-17T23:46:00Z</time>
<desc><![CDATA[lat.=36.694717, lon.=137.756483, Alt.=2600.189986m. Speed=3.000000m/h.]]></desc>
</trkpt>
<trkpt lat="36.694754" lon="137.756484">
<ele>2601.447545</ele>
<time>2014-08-17T23:46:05Z</time>
<desc><![CDATA[lat.=36.694754, lon.=137.756484, Alt.=2601.447545m. Speed=3.000000m/h.]]></desc>
</trkpt>
<trkpt lat="36.694765" lon="137.756460">
<ele>2603.127172</ele>
<time>2014-08-17T23:46:10Z</time>
<desc><![CDATA[lat.=36.694765, lon.=137.756460, Alt.=2603.127172m. Speed=2.000000m/h.]]></desc>
</trkpt>
<trkpt lat="36.694765" lon="137.756428">
<ele>2604.748306</ele>
<time>2014-08-17T23:46:15Z</time>
<desc><![CDATA[lat.=36.694765, lon.=137.756428, Alt.=2604.748306m. Speed=0.000000m/h.]]></desc>
</trkpt>
<trkpt lat="36.694787" lon="137.756443">
<ele>2606.595495</ele>
<time>2014-08-17T23:46:20Z</time>
<desc><![CDATA[lat.=36.694787, lon.=137.756443, Alt.=2606.595495m. Speed=1.000000m/h.]]></desc>
</trkpt>
<trkpt lat="36.694805" lon="137.756452">
<ele>2607.251542</ele>
<time>2014-08-17T23:46:25Z</time>
<desc><![CDATA[lat.=36.694805, lon.=137.756452, Alt.=2607.251542m. Speed=1.000000m/h.]]></desc>
</trkpt>
<trkpt lat="36.694831" lon="137.756462">
<ele>2605.044745</ele>
<time>2014-08-17T23:46:30Z</time>
<desc><![CDATA[lat.=36.694831, lon.=137.756462, Alt.=2605.044745m. Speed=2.000000m/h.]]></desc>
</trkpt>
<trkpt lat="36.694860" lon="137.756462">
<ele>2605.704758</ele>
<time>2014-08-17T23:46:35Z</time>
<desc><![CDATA[lat.=36.694860, lon.=137.756462, Alt.=2605.704758m. Speed=2.000000m/h.]]></desc>
</trkpt>
<trkpt lat="36.694882" lon="137.756480">
<ele>2604.091553</ele>
<time>2014-08-17T23:46:40Z</time>
<desc><![CDATA[lat.=36.694882, lon.=137.756480, Alt.=2604.091553m. Speed=2.000000m/h.]]></desc>
</trkpt>
<trkpt lat="36.694904" lon="137.756480">
<ele>2605.884215</ele>
<time>2014-08-17T23:46:45Z</time>
<desc><![CDATA[lat.=36.694904, lon.=137.756480, Alt.=2605.884215m. Speed=2.000000m/h.]]></desc>
</trkpt>
<trkpt lat="36.694914" lon="137.756487">
<ele>2607.672911</ele>
<time>2014-08-17T23:46:50Z</time>
<desc><![CDATA[lat.=36.694914, lon.=137.756487, Alt.=2607.672911m. Speed=1.000000m/h.]]></desc>
</trkpt>
<trkpt lat="36.694943" lon="137.756503">
<ele>2610.117662</ele>
<time>2014-08-17T23:46:55Z</time>
<desc><![CDATA[lat.=36.694943, lon.=137.756503, Alt.=2610.117662m. Speed=2.000000m/h.]]></desc>
</trkpt>
<trkpt lat="36.694949" lon="137.756518">
<ele>2612.499949</ele>
<time>2014-08-17T23:47:00Z</time>
<desc><![CDATA[lat.=36.694949, lon.=137.756518, Alt.=2612.499949m. Speed=0.000000m/h.]]></desc>
</trkpt>
<trkpt lat="36.694950" lon="137.756502">
<ele>2612.445415</ele>
<time>2014-08-17T23:47:05Z</time>
<desc><![CDATA[lat.=36.694950, lon.=137.756502, Alt.=2612.445415m. Speed=1.000000m/h.]]></desc>
</trkpt>
<trkpt lat="36.694968" lon="137.756495">
<ele>2613.046935</ele>
<time>2014-08-17T23:47:10Z</time>
<desc><![CDATA[lat.=36.694968, lon.=137.756495, Alt.=2613.046935m. Speed=0.000000m/h.]]></desc>
</trkpt>
<trkpt lat="36.694975" lon="137.756495">
<ele>2613.644490</ele>
<time>2014-08-17T23:47:15Z</time>
<desc><![CDATA[lat.=36.694975, lon.=137.756495, Alt.=2613.644490m. Speed=0.000000m/h.]]></desc>
</trkpt>
<trkpt lat="36.694990" lon="137.756495">
<ele>2614.839600</ele>
<time>2014-08-17T23:47:20Z</time>
<desc><![CDATA[lat.=36.694990, lon.=137.756495, Alt.=2614.839600m. Speed=1.000000m/h.]]></desc>
</trkpt>
<trkpt lat="36.694997" lon="137.756495">
<ele>2615.437155</ele>
<time>2014-08-17T23:47:25Z</time>
<desc><![CDATA[lat.=36.694997, lon.=137.756495, Alt.=2615.437155m. Speed=1.000000m/h.]]></desc>
</trkpt>
<trkpt lat="36.695004" lon="137.756495">
<ele>2616.034710</ele>
<time>2014-08-17T23:47:30Z</time>
<desc><![CDATA[lat.=36.695004, lon.=137.756495, Alt.=2616.034710m. Speed=1.000000m/h.]]></desc>
</trkpt>
<trkpt lat="36.695008" lon="137.756503">
<ele>2615.495655</ele>
<time>2014-08-17T23:47:35Z</time>
<desc><![CDATA[lat.=36.695008, lon.=137.756503, Alt.=2615.495655m. Speed=0.000000m/h.]]></desc>
</trkpt>
<trkpt lat="36.695026" lon="137.756511">
<ele>2616.151711</ele>
<time>2014-08-17T23:47:40Z</time>
<desc><![CDATA[lat.=36.695026, lon.=137.756511, Alt.=2616.151711m. Speed=1.000000m/h.]]></desc>
</trkpt>
<trkpt lat="36.695044" lon="137.756535">
<ele>2616.862302</ele>
<time>2014-08-17T23:47:45Z</time>
<desc><![CDATA[lat.=36.695044, lon.=137.756535, Alt.=2616.862302m. Speed=1.000000m/h.]]></desc>
</trkpt>
<trkpt lat="36.695058" lon="137.756551">
<ele>2618.111948</ele>
<time>2014-08-17T23:47:50Z</time>
<desc><![CDATA[lat.=36.695058, lon.=137.756551, Alt.=2618.111948m. Speed=1.000000m/h.]]></desc>
</trkpt>
<trkpt lat="36.695065" lon="137.756551">
<ele>2618.709504</ele>
<time>2014-08-17T23:47:55Z</time>
<desc><![CDATA[lat.=36.695065, lon.=137.756551, Alt.=2618.709504m. Speed=0.000000m/h.]]></desc>
</trkpt>
<trkpt lat="36.695083" lon="137.756544">
<ele>2619.311028</ele>
<time>2014-08-17T23:48:00Z</time>
<desc><![CDATA[lat.=36.695083, lon.=137.756544, Alt.=2619.311028m. Speed=1.000000m/h.]]></desc>
</trkpt>
<trkpt lat="36.695094" lon="137.756536">
<ele>2619.314996</ele>
<time>2014-08-17T23:48:05Z</time>
<desc><![CDATA[lat.=36.695094, lon.=137.756536, Alt.=2619.314996m. Speed=1.000000m/h.]]></desc>
</trkpt>
<trkpt lat="36.695113" lon="137.756529">
<ele>2619.916521</ele>
<time>2014-08-17T23:48:10Z</time>
<desc><![CDATA[lat.=36.695113, lon.=137.756529, Alt.=2619.916521m. Speed=1.000000m/h.]]></desc>
</trkpt>
<trkpt lat="36.695111" lon="137.756575">
<ele>2621.810324</ele>
<time>2014-08-17T23:48:15Z</time>
<desc><![CDATA[lat.=36.695111, lon.=137.756575, Alt.=2621.810324m. Speed=2.000000m/h.]]></desc>
</trkpt>
<trkpt lat="36.695097" lon="137.756576">
<ele>2618.885012</ele>
<time>2014-08-17T23:48:20Z</time>
<desc><![CDATA[lat.=36.695097, lon.=137.756576, Alt.=2618.885012m. Speed=0.000000m/h.]]></desc>
</trkpt>
<trkpt lat="36.695109" lon="137.756585">
<ele>2617.213316</ele>
<time>2014-08-17T23:48:25Z</time>
<desc><![CDATA[lat.=36.695109, lon.=137.756585, Alt.=2617.213316m. Speed=0.000000m/h.]]></desc>
</trkpt>
<trkpt lat="36.695116" lon="137.756585">
<ele>2617.810873</ele>
<time>2014-08-17T23:48:30Z</time>
<desc><![CDATA[lat.=36.695116, lon.=137.756585, Alt.=2617.810873m. Speed=0.000000m/h.]]></desc>
</trkpt>
<trkpt lat="36.695118" lon="137.756591">
<ele>2622.462415</ele>
<time>2014-08-17T23:48:35Z</time>
<desc><![CDATA[lat.=36.695118, lon.=137.756591, Alt.=2622.462415m. Speed=0.000000m/h.]]></desc>
</trkpt>
<trkpt lat="36.695122" lon="137.756583">
<ele>2623.599026</ele>
<time>2014-08-17T23:48:40Z</time>
<desc><![CDATA[lat.=36.695122, lon.=137.756583, Alt.=2623.599026m. Speed=0.000000m/h.]]></desc>
</trkpt>
<trkpt lat="36.695121" lon="137.756598">
<ele>2623.653561</ele>
<time>2014-08-17T23:48:45Z</time>
<desc><![CDATA[lat.=36.695121, lon.=137.756598, Alt.=2623.653561m. Speed=0.000000m/h.]]></desc>
</trkpt>
<trkpt lat="36.695125" lon="137.756606">
<ele>2624.844706</ele>
<time>2014-08-17T23:48:50Z</time>
<desc><![CDATA[lat.=36.695125, lon.=137.756606, Alt.=2624.844706m. Speed=0.000000m/h.]]></desc>
</trkpt>
<trkpt lat="36.695128" lon="137.756598">
<ele>2625.981316</ele>
<time>2014-08-17T23:48:55Z</time>
<desc><![CDATA[lat.=36.695128, lon.=137.756598, Alt.=2625.981316m. Speed=0.000000m/h.]]></desc>
</trkpt>
<trkpt lat="36.695124" lon="137.756605">
<ele>2626.574905</ele>
<time>2014-08-17T23:49:10Z</time>
<desc><![CDATA[lat.=36.695124, lon.=137.756605, Alt.=2626.574905m. Speed=0.000000m/h.]]></desc>
</trkpt>
<trkpt lat="36.695128" lon="137.756598">
<ele>2625.981316</ele>
<time>2014-08-17T23:49:15Z</time>
<desc><![CDATA[lat.=36.695128, lon.=137.756598, Alt.=2625.981316m. Speed=0.000000m/h.]]></desc>
</trkpt>
<trkpt lat="36.695124" lon="137.756605">
<ele>2626.574905</ele>
<time>2014-08-17T23:49:20Z</time>
<desc><![CDATA[lat.=36.695124, lon.=137.756605, Alt.=2626.574905m. Speed=0.000000m/h.]]></desc>
</trkpt>
<trkpt lat="36.695136" lon="137.756598">
<ele>2626.578873</ele>
<time>2014-08-17T23:49:39Z</time>
<desc><![CDATA[lat.=36.695136, lon.=137.756598, Alt.=2626.578873m. Speed=0.000000m/h.]]></desc>
</trkpt>
<trkpt lat="36.695140" lon="137.756590">
<ele>2625.985285</ele>
<time>2014-08-17T23:49:54Z</time>
<desc><![CDATA[lat.=36.695140, lon.=137.756590, Alt.=2625.985285m. Speed=0.000000m/h.]]></desc>
</trkpt>
<trkpt lat="36.695143" lon="137.756598">
<ele>2625.446232</ele>
<time>2014-08-17T23:50:00Z</time>
<desc><![CDATA[lat.=36.695143, lon.=137.756598, Alt.=2625.446232m. Speed=0.000000m/h.]]></desc>
</trkpt>
<trkpt lat="36.695136" lon="137.756598">
<ele>2624.848675</ele>
<time>2014-08-17T23:50:05Z</time>
<desc><![CDATA[lat.=36.695136, lon.=137.756598, Alt.=2624.848675m. Speed=0.000000m/h.]]></desc>
</trkpt>
<trkpt lat="36.695140" lon="137.756590">
<ele>2625.985285</ele>
<time>2014-08-17T23:50:10Z</time>
<desc><![CDATA[lat.=36.695140, lon.=137.756590, Alt.=2625.985285m. Speed=0.000000m/h.]]></desc>
</trkpt>
<trkpt lat="36.695143" lon="137.756598">
<ele>2625.446232</ele>
<time>2014-08-17T23:50:15Z</time>
<desc><![CDATA[lat.=36.695143, lon.=137.756598, Alt.=2625.446232m. Speed=0.000000m/h.]]></desc>
</trkpt>
<trkpt lat="36.695140" lon="137.756591">
<ele>2624.255086</ele>
<time>2014-08-17T23:50:20Z</time>
<desc><![CDATA[lat.=36.695140, lon.=137.756591, Alt.=2624.255086m. Speed=0.000000m/h.]]></desc>
</trkpt>
<trkpt lat="36.695140" lon="137.756592">
<ele>2622.524888</ele>
<time>2014-08-17T23:50:25Z</time>
<desc><![CDATA[lat.=36.695140, lon.=137.756592, Alt.=2622.524888m. Speed=1.000000m/h.]]></desc>
</trkpt>
<trkpt lat="36.695144" lon="137.756600">
<ele>2621.985835</ele>
<time>2014-08-17T23:50:30Z</time>
<desc><![CDATA[lat.=36.695144, lon.=137.756600, Alt.=2621.985835m. Speed=0.000000m/h.]]></desc>
</trkpt>
<trkpt lat="36.695169" lon="137.756624">
<ele>2623.293990</ele>
<time>2014-08-17T23:50:35Z</time>
<desc><![CDATA[lat.=36.695169, lon.=137.756624, Alt.=2623.293990m. Speed=0.000000m/h.]]></desc>
</trkpt>
<trkpt lat="36.695166" lon="137.756617">
<ele>2622.102844</ele>
<time>2014-08-17T23:50:40Z</time>
<desc><![CDATA[lat.=36.695166, lon.=137.756617, Alt.=2622.102844m. Speed=0.000000m/h.]]></desc>
</trkpt>
<trkpt lat="36.695169" lon="137.756641">
<ele>2621.618327</ele>
<time>2014-08-17T23:50:45Z</time>
<desc><![CDATA[lat.=36.695169, lon.=137.756641, Alt.=2621.618327m. Speed=1.000000m/h.]]></desc>
</trkpt>
<trkpt lat="36.695183" lon="137.756657">
<ele>2621.137780</ele>
<time>2014-08-17T23:50:50Z</time>
<desc><![CDATA[lat.=36.695183, lon.=137.756657, Alt.=2621.137780m. Speed=1.000000m/h.]]></desc>
</trkpt>
<trkpt lat="36.695194" lon="137.756665">
<ele>2622.926484</ele>
<time>2014-08-17T23:50:55Z</time>
<desc><![CDATA[lat.=36.695194, lon.=137.756665, Alt.=2622.926484m. Speed=0.000000m/h.]]></desc>
</trkpt>
<trkpt lat="36.695197" lon="137.756672">
<ele>2624.117631</ele>
<time>2014-08-17T23:51:00Z</time>
<desc><![CDATA[lat.=36.695197, lon.=137.756672, Alt.=2624.117631m. Speed=0.000000m/h.]]></desc>
</trkpt>
<trkpt lat="36.695190" lon="137.756672">
<ele>2623.520073</ele>
<time>2014-08-17T23:51:07Z</time>
<desc><![CDATA[lat.=36.695190, lon.=137.756672, Alt.=2623.520073m. Speed=0.000000m/h.]]></desc>
</trkpt>
<trkpt lat="36.695194" lon="137.756665">
<ele>2622.926484</ele>
<time>2014-08-17T23:51:12Z</time>
<desc><![CDATA[lat.=36.695194, lon.=137.756665, Alt.=2622.926484m. Speed=0.000000m/h.]]></desc>
</trkpt>
<trkpt lat="36.695187" lon="137.756665">
<ele>2622.328927</ele>
<time>2014-08-17T23:51:18Z</time>
<desc><![CDATA[lat.=36.695187, lon.=137.756665, Alt.=2622.328927m. Speed=0.000000m/h.]]></desc>
</trkpt>
<trkpt lat="36.695190" lon="137.756673">
<ele>2621.789875</ele>
<time>2014-08-17T23:51:27Z</time>
<desc><![CDATA[lat.=36.695190, lon.=137.756673, Alt.=2621.789875m. Speed=0.000000m/h.]]></desc>
</trkpt>
<trkpt lat="36.695194" lon="137.756665">
<ele>2621.196286</ele>
<time>2014-08-17T23:51:40Z</time>
<desc><![CDATA[lat.=36.695194, lon.=137.756665, Alt.=2621.196286m. Speed=0.000000m/h.]]></desc>
</trkpt>
<trkpt lat="36.695202" lon="137.756666">
<ele>2620.063645</ele>
<time>2014-08-17T23:51:45Z</time>
<desc><![CDATA[lat.=36.695202, lon.=137.756666, Alt.=2620.063645m. Speed=1.000000m/h.]]></desc>
</trkpt>
<trkpt lat="36.695220" lon="137.756692">
<ele>2617.313850</ele>
<time>2014-08-17T23:51:50Z</time>
<desc><![CDATA[lat.=36.695220, lon.=137.756692, Alt.=2617.313850m. Speed=2.000000m/h.]]></desc>
</trkpt>
<trkpt lat="36.695227" lon="137.756708">
<ele>2616.235747</ele>
<time>2014-08-17T23:51:55Z</time>
<desc><![CDATA[lat.=36.695227, lon.=137.756708, Alt.=2616.235747m. Speed=1.000000m/h.]]></desc>
</trkpt>
<trkpt lat="36.695235" lon="137.756725">
<ele>2615.157645</ele>
<time>2014-08-17T23:52:00Z</time>
<desc><![CDATA[lat.=36.695235, lon.=137.756725, Alt.=2615.157645m. Speed=0.000000m/h.]]></desc>
</trkpt>
<trkpt lat="36.695227" lon="137.756725">
<ele>2614.560086</ele>
<time>2014-08-17T23:52:05Z</time>
<desc><![CDATA[lat.=36.695227, lon.=137.756725, Alt.=2614.560086m. Speed=0.000000m/h.]]></desc>
</trkpt>
<trkpt lat="36.695235" lon="137.756725">
<ele>2615.157645</ele>
<time>2014-08-17T23:52:10Z</time>
<desc><![CDATA[lat.=36.695235, lon.=137.756725, Alt.=2615.157645m. Speed=0.000000m/h.]]></desc>
</trkpt>
<trkpt lat="36.695238" lon="137.756733">
<ele>2614.618593</ele>
<time>2014-08-17T23:52:16Z</time>
<desc><![CDATA[lat.=36.695238, lon.=137.756733, Alt.=2614.618593m. Speed=0.000000m/h.]]></desc>
</trkpt>
<trkpt lat="36.695235" lon="137.756726">
<ele>2613.427446</ele>
<time>2014-08-17T23:52:21Z</time>
<desc><![CDATA[lat.=36.695235, lon.=137.756726, Alt.=2613.427446m. Speed=0.000000m/h.]]></desc>
</trkpt>
<trkpt lat="36.695224" lon="137.756734">
<ele>2611.693278</ele>
<time>2014-08-17T23:52:26Z</time>
<desc><![CDATA[lat.=36.695224, lon.=137.756734, Alt.=2611.693278m. Speed=1.000000m/h.]]></desc>
</trkpt>
<trkpt lat="36.695199" lon="137.756726">
<ele>2608.709456</ele>
<time>2014-08-17T23:52:31Z</time>
<desc><![CDATA[lat.=36.695199, lon.=137.756726, Alt.=2608.709456m. Speed=1.000000m/h.]]></desc>
</trkpt>
<trkpt lat="36.695185" lon="137.756726">
<ele>2607.514341</ele>
<time>2014-08-17T23:52:36Z</time>
<desc><![CDATA[lat.=36.695185, lon.=137.756726, Alt.=2607.514341m. Speed=1.000000m/h.]]></desc>
</trkpt>
<trkpt lat="36.695184" lon="137.756742">
<ele>2609.299077</ele>
<time>2014-08-17T23:52:41Z</time>
<desc><![CDATA[lat.=36.695184, lon.=137.756742, Alt.=2609.299077m. Speed=0.000000m/h.]]></desc>
</trkpt>
<trkpt lat="36.695191" lon="137.756742">
<ele>2609.896635</ele>
<time>2014-08-17T23:52:46Z</time>
<desc><![CDATA[lat.=36.695191, lon.=137.756742, Alt.=2609.896635m. Speed=0.000000m/h.]]></desc>
</trkpt>
<trkpt lat="36.695199" lon="137.756742">
<ele>2610.494193</ele>
<time>2014-08-17T23:52:51Z</time>
<desc><![CDATA[lat.=36.695199, lon.=137.756742, Alt.=2610.494193m. Speed=0.000000m/h.]]></desc>
</trkpt>
<trkpt lat="36.695202" lon="137.756750">
<ele>2609.955142</ele>
<time>2014-08-17T23:53:00Z</time>
<desc><![CDATA[lat.=36.695202, lon.=137.756750, Alt.=2609.955142m. Speed=0.000000m/h.]]></desc>
</trkpt>
<trkpt lat="36.695199" lon="137.756742">
<ele>2610.494193</ele>
<time>2014-08-17T23:53:05Z</time>
<desc><![CDATA[lat.=36.695199, lon.=137.756742, Alt.=2610.494193m. Speed=0.000000m/h.]]></desc>
</trkpt>
<trkpt lat="36.695191" lon="137.756742">
<ele>2609.896635</ele>
<time>2014-08-17T23:53:10Z</time>
<desc><![CDATA[lat.=36.695191, lon.=137.756742, Alt.=2609.896635m. Speed=0.000000m/h.]]></desc>
</trkpt>
<trkpt lat="36.695195" lon="137.756750">
<ele>2609.357584</ele>
<time>2014-08-17T23:53:19Z</time>
<desc><![CDATA[lat.=36.695195, lon.=137.756750, Alt.=2609.357584m. Speed=0.000000m/h.]]></desc>
</trkpt>
<trkpt lat="36.695191" lon="137.756742">
<ele>2609.896635</ele>
<time>2014-08-17T23:53:33Z</time>
<desc><![CDATA[lat.=36.695191, lon.=137.756742, Alt.=2609.896635m. Speed=0.000000m/h.]]></desc>
</trkpt>
<trkpt lat="36.695195" lon="137.756749">
<ele>2611.087782</ele>
<time>2014-08-17T23:53:38Z</time>
<desc><![CDATA[lat.=36.695195, lon.=137.756749, Alt.=2611.087782m. Speed=0.000000m/h.]]></desc>
</trkpt>
<trkpt lat="36.695199" lon="137.756742">
<ele>2610.494193</ele>
<time>2014-08-17T23:53:43Z</time>
<desc><![CDATA[lat.=36.695199, lon.=137.756742, Alt.=2610.494193m. Speed=0.000000m/h.]]></desc>
</trkpt>
<trkpt lat="36.695195" lon="137.756749">
<ele>2611.087782</ele>
<time>2014-08-17T23:53:48Z</time>
<desc><![CDATA[lat.=36.695195, lon.=137.756749, Alt.=2611.087782m. Speed=0.000000m/h.]]></desc>
</trkpt>
<trkpt lat="36.695191" lon="137.756757">
<ele>2611.681372</ele>
<time>2014-08-17T23:54:15Z</time>
<desc><![CDATA[lat.=36.695191, lon.=137.756757, Alt.=2611.681372m. Speed=0.000000m/h.]]></desc>
</trkpt>
<trkpt lat="36.695187" lon="137.756764">
<ele>2612.274962</ele>
<time>2014-08-17T23:54:42Z</time>
<desc><![CDATA[lat.=36.695187, lon.=137.756764, Alt.=2612.274962m. Speed=0.000000m/h.]]></desc>
</trkpt>
<trkpt lat="36.695190" lon="137.756772">
<ele>2611.735911</ele>
<time>2014-08-17T23:55:13Z</time>
<desc><![CDATA[lat.=36.695190, lon.=137.756772, Alt.=2611.735911m. Speed=0.000000m/h.]]></desc>
</trkpt>
<trkpt lat="36.695186" lon="137.756780">
<ele>2612.329500</ele>
<time>2014-08-17T23:55:18Z</time>
<desc><![CDATA[lat.=36.695186, lon.=137.756780, Alt.=2612.329500m. Speed=0.000000m/h.]]></desc>
</trkpt>
<trkpt lat="36.695193" lon="137.756796">
<ele>2612.981597</ele>
<time>2014-08-17T23:55:23Z</time>
<desc><![CDATA[lat.=36.695193, lon.=137.756796, Alt.=2612.981597m. Speed=1.000000m/h.]]></desc>
</trkpt>
<trkpt lat="36.695182" lon="137.756804">
<ele>2611.247431</ele>
<time>2014-08-17T23:55:28Z</time>
<desc><![CDATA[lat.=36.695182, lon.=137.756804, Alt.=2611.247431m. Speed=0.000000m/h.]]></desc>
</trkpt>
<trkpt lat="36.695182" lon="137.756821">
<ele>2609.571772</ele>
<time>2014-08-17T23:55:33Z</time>
<desc><![CDATA[lat.=36.695182, lon.=137.756821, Alt.=2609.571772m. Speed=0.000000m/h.]]></desc>
</trkpt>
<trkpt lat="36.695186" lon="137.756829">
<ele>2609.032722</ele>
<time>2014-08-17T23:55:39Z</time>
<desc><![CDATA[lat.=36.695186, lon.=137.756829, Alt.=2609.032722m. Speed=0.000000m/h.]]></desc>
</trkpt>
<trkpt lat="36.695197" lon="137.756837">
<ele>2609.091229</ele>
<time>2014-08-17T23:55:44Z</time>
<desc><![CDATA[lat.=36.695197, lon.=137.756837, Alt.=2609.091229m. Speed=0.000000m/h.]]></desc>
</trkpt>
<trkpt lat="36.695194" lon="137.756830">
<ele>2607.900081</ele>
<time>2014-08-17T23:55:49Z</time>
<desc><![CDATA[lat.=36.695194, lon.=137.756830, Alt.=2607.900081m. Speed=0.000000m/h.]]></desc>
</trkpt>
<trkpt lat="36.695197" lon="137.756837">
<ele>2609.091229</ele>
<time>2014-08-17T23:56:01Z</time>
<desc><![CDATA[lat.=36.695197, lon.=137.756837, Alt.=2609.091229m. Speed=0.000000m/h.]]></desc>
</trkpt>
<trkpt lat="36.695190" lon="137.756837">
<ele>2608.493672</ele>
<time>2014-08-17T23:56:06Z</time>
<desc><![CDATA[lat.=36.695190, lon.=137.756837, Alt.=2608.493672m. Speed=0.000000m/h.]]></desc>
</trkpt>
<trkpt lat="36.695183" lon="137.756821">
<ele>2607.841574</ele>
<time>2014-08-17T23:56:11Z</time>
<desc><![CDATA[lat.=36.695183, lon.=137.756821, Alt.=2607.841574m. Speed=0.000000m/h.]]></desc>
</trkpt>
<trkpt lat="36.695175" lon="137.756837">
<ele>2607.298556</ele>
<time>2014-08-17T23:56:16Z</time>
<desc><![CDATA[lat.=36.695175, lon.=137.756837, Alt.=2607.298556m. Speed=0.000000m/h.]]></desc>
</trkpt>
<trkpt lat="36.695168" lon="137.756853">
<ele>2606.755539</ele>
<time>2014-08-17T23:56:21Z</time>
<desc><![CDATA[lat.=36.695168, lon.=137.756853, Alt.=2606.755539m. Speed=1.000000m/h.]]></desc>
</trkpt>
<trkpt lat="36.695171" lon="137.756861">
<ele>2606.216489</ele>
<time>2014-08-17T23:56:26Z</time>
<desc><![CDATA[lat.=36.695171, lon.=137.756861, Alt.=2606.216489m. Speed=0.000000m/h.]]></desc>
</trkpt>
<trkpt lat="36.695175" lon="137.756869">
<ele>2605.677439</ele>
<time>2014-08-17T23:56:32Z</time>
<desc><![CDATA[lat.=36.695175, lon.=137.756869, Alt.=2605.677439m. Speed=0.000000m/h.]]></desc>
</trkpt>
<trkpt lat="36.695178" lon="137.756878">
<ele>2605.138389</ele>
<time>2014-08-17T23:56:45Z</time>
<desc><![CDATA[lat.=36.695178, lon.=137.756878, Alt.=2605.138389m. Speed=0.000000m/h.]]></desc>
</trkpt>
<trkpt lat="36.695182" lon="137.756870">
<ele>2604.544798</ele>
<time>2014-08-17T23:56:50Z</time>
<desc><![CDATA[lat.=36.695182, lon.=137.756870, Alt.=2604.544798m. Speed=0.000000m/h.]]></desc>
</trkpt>
<trkpt lat="36.695186" lon="137.756878">
<ele>2604.005748</ele>
<time>2014-08-17T23:56:55Z</time>
<desc><![CDATA[lat.=36.695186, lon.=137.756878, Alt.=2604.005748m. Speed=0.000000m/h.]]></desc>
</trkpt>
<trkpt lat="36.695200" lon="137.756895">
<ele>2603.525206</ele>
<time>2014-08-17T23:57:00Z</time>
<desc><![CDATA[lat.=36.695200, lon.=137.756895, Alt.=2603.525206m. Speed=0.000000m/h.]]></desc>
</trkpt>
<trkpt lat="36.695204" lon="137.756888">
<ele>2602.931616</ele>
<time>2014-08-17T23:57:05Z</time>
<desc><![CDATA[lat.=36.695204, lon.=137.756888, Alt.=2602.931616m. Speed=0.000000m/h.]]></desc>
</trkpt>
<trkpt lat="36.695208" lon="137.756895">
<ele>2604.122765</ele>
<time>2014-08-17T23:57:10Z</time>
<desc><![CDATA[lat.=36.695208, lon.=137.756895, Alt.=2604.122765m. Speed=0.000000m/h.]]></desc>
</trkpt>
<trkpt lat="36.695211" lon="137.756903">
<ele>2603.583715</ele>
<time>2014-08-17T23:57:15Z</time>
<desc><![CDATA[lat.=36.695211, lon.=137.756903, Alt.=2603.583715m. Speed=0.000000m/h.]]></desc>
</trkpt>
<trkpt lat="36.695208" lon="137.756895">
<ele>2604.122765</ele>
<time>2014-08-17T23:57:20Z</time>
<desc><![CDATA[lat.=36.695208, lon.=137.756895, Alt.=2604.122765m. Speed=0.000000m/h.]]></desc>
</trkpt>
<trkpt lat="36.695211" lon="137.756903">
<ele>2605.313913</ele>
<time>2014-08-17T23:57:25Z</time>
<desc><![CDATA[lat.=36.695211, lon.=137.756903, Alt.=2605.313913m. Speed=0.000000m/h.]]></desc>
</trkpt>
<trkpt lat="36.695222" lon="137.756895">
<ele>2605.317881</ele>
<time>2014-08-17T23:57:32Z</time>
<desc><![CDATA[lat.=36.695222, lon.=137.756895, Alt.=2605.317881m. Speed=1.000000m/h.]]></desc>
</trkpt>
<trkpt lat="36.695247" lon="137.756920">
<ele>2604.895850</ele>
<time>2014-08-17T23:57:37Z</time>
<desc><![CDATA[lat.=36.695247, lon.=137.756920, Alt.=2604.895850m. Speed=2.000000m/h.]]></desc>
</trkpt>
<trkpt lat="36.695268" lon="137.756951">
<ele>2606.797611</ele>
<time>2014-08-17T23:57:42Z</time>
<desc><![CDATA[lat.=36.695268, lon.=137.756951, Alt.=2606.797611m. Speed=2.000000m/h.]]></desc>
</trkpt>
<trkpt lat="36.695269" lon="137.756970">
<ele>2601.661558</ele>
<time>2014-08-17T23:57:47Z</time>
<desc><![CDATA[lat.=36.695269, lon.=137.756970, Alt.=2601.661558m. Speed=1.000000m/h.]]></desc>
</trkpt>
<trkpt lat="36.695266" lon="137.756963">
<ele>2598.740210</ele>
<time>2014-08-17T23:57:52Z</time>
<desc><![CDATA[lat.=36.695266, lon.=137.756963, Alt.=2598.740210m. Speed=0.000000m/h.]]></desc>
</trkpt>
<trkpt lat="36.695263" lon="137.756955">
<ele>2597.549061</ele>
<time>2014-08-17T23:57:57Z</time>
<desc><![CDATA[lat.=36.695263, lon.=137.756955, Alt.=2597.549061m. Speed=0.000000m/h.]]></desc>
</trkpt>
<trkpt lat="36.695256" lon="137.756955">
<ele>2596.951502</ele>
<time>2014-08-17T23:58:04Z</time>
<desc><![CDATA[lat.=36.695256, lon.=137.756955, Alt.=2596.951502m. Speed=0.000000m/h.]]></desc>
</trkpt>
<trkpt lat="36.695245" lon="137.756948">
<ele>2595.162793</ele>
<time>2014-08-17T23:58:09Z</time>
<desc><![CDATA[lat.=36.695245, lon.=137.756948, Alt.=2595.162793m. Speed=0.000000m/h.]]></desc>
</trkpt>
<trkpt lat="36.695249" lon="137.756957">
<ele>2592.893547</ele>
<time>2014-08-17T23:58:14Z</time>
<desc><![CDATA[lat.=36.695249, lon.=137.756957, Alt.=2592.893547m. Speed=1.000000m/h.]]></desc>
</trkpt>
<trkpt lat="36.695245" lon="137.756981">
<ele>2591.811482</ele>
<time>2014-08-17T23:58:19Z</time>
<desc><![CDATA[lat.=36.695245, lon.=137.756981, Alt.=2591.811482m. Speed=1.000000m/h.]]></desc>
</trkpt>
<trkpt lat="36.695256" lon="137.757005">
<ele>2591.924536</ele>
<time>2014-08-17T23:58:24Z</time>
<desc><![CDATA[lat.=36.695256, lon.=137.757005, Alt.=2591.924536m. Speed=1.000000m/h.]]></desc>
</trkpt>
<trkpt lat="36.695252" lon="137.757029">
<ele>2590.842473</ele>
<time>2014-08-17T23:58:29Z</time>
<desc><![CDATA[lat.=36.695252, lon.=137.757029, Alt.=2590.842473m. Speed=1.000000m/h.]]></desc>
</trkpt>
<trkpt lat="36.695227" lon="137.757038">
<ele>2586.182993</ele>
<time>2014-08-17T23:58:34Z</time>
<desc><![CDATA[lat.=36.695227, lon.=137.757038, Alt.=2586.182993m. Speed=1.000000m/h.]]></desc>
</trkpt>
<trkpt lat="36.695244" lon="137.757045">
<ele>2590.299458</ele>
<time>2014-08-17T23:58:39Z</time>
<desc><![CDATA[lat.=36.695244, lon.=137.757045, Alt.=2590.299458m. Speed=1.000000m/h.]]></desc>
</trkpt>
<trkpt lat="36.695240" lon="137.757052">
<ele>2590.893050</ele>
<time>2014-08-17T23:58:55Z</time>
<desc><![CDATA[lat.=36.695240, lon.=137.757052, Alt.=2590.893050m. Speed=0.000000m/h.]]></desc>
</trkpt>
<trkpt lat="36.695248" lon="137.757053">
<ele>2589.760410</ele>
<time>2014-08-17T23:59:00Z</time>
<desc><![CDATA[lat.=36.695248, lon.=137.757053, Alt.=2589.760410m. Speed=0.000000m/h.]]></desc>
</trkpt>
<trkpt lat="36.695252" lon="137.757061">
<ele>2589.221363</ele>
<time>2014-08-17T23:59:05Z</time>
<desc><![CDATA[lat.=36.695252, lon.=137.757061, Alt.=2589.221363m. Speed=0.000000m/h.]]></desc>
</trkpt>
<trkpt lat="36.695248" lon="137.757070">
<ele>2588.084757</ele>
<time>2014-08-17T23:59:11Z</time>
<desc><![CDATA[lat.=36.695248, lon.=137.757070, Alt.=2588.084757m. Speed=0.000000m/h.]]></desc>
</trkpt>
<trkpt lat="36.695248" lon="137.757086">
<ele>2588.139302</ele>
<time>2014-08-17T23:59:16Z</time>
<desc><![CDATA[lat.=36.695248, lon.=137.757086, Alt.=2588.139302m. Speed=1.000000m/h.]]></desc>
</trkpt>
<trkpt lat="36.695247" lon="137.757117">
<ele>2588.248392</ele>
<time>2014-08-17T23:59:21Z</time>
<desc><![CDATA[lat.=36.695247, lon.=137.757117, Alt.=2588.248392m. Speed=1.000000m/h.]]></desc>
</trkpt>
<trkpt lat="36.695247" lon="137.757134">
<ele>2586.572740</ele>
<time>2014-08-17T23:59:26Z</time>
<desc><![CDATA[lat.=36.695247, lon.=137.757134, Alt.=2586.572740m. Speed=1.000000m/h.]]></desc>
</trkpt>
<trkpt lat="36.695243" lon="137.757141">
<ele>2587.166333</ele>
<time>2014-08-17T23:59:31Z</time>
<desc><![CDATA[lat.=36.695243, lon.=137.757141, Alt.=2587.166333m. Speed=0.000000m/h.]]></desc>
</trkpt>
<trkpt lat="36.695243" lon="137.757142">
<ele>2585.436134</ele>
<time>2014-08-17T23:59:36Z</time>
<desc><![CDATA[lat.=36.695243, lon.=137.757142, Alt.=2585.436134m. Speed=1.000000m/h.]]></desc>
</trkpt>
<trkpt lat="36.695236" lon="137.757142">
<ele>2584.838576</ele>
<time>2014-08-17T23:59:41Z</time>
<desc><![CDATA[lat.=36.695236, lon.=137.757142, Alt.=2584.838576m. Speed=0.000000m/h.]]></desc>
</trkpt>
<trkpt lat="36.695240" lon="137.757150">
<ele>2584.299529</ele>
<time>2014-08-17T23:59:46Z</time>
<desc><![CDATA[lat.=36.695240, lon.=137.757150, Alt.=2584.299529m. Speed=0.000000m/h.]]></desc>
</trkpt>
<trkpt lat="36.695243" lon="137.757175">
<ele>2582.084831</ele>
<time>2014-08-17T23:59:51Z</time>
<desc><![CDATA[lat.=36.695243, lon.=137.757175, Alt.=2582.084831m. Speed=0.000000m/h.]]></desc>
</trkpt>
<trkpt lat="36.695258" lon="137.757176">
<ele>2581.549751</ele>
<time>2014-08-17T23:59:56Z</time>
<desc><![CDATA[lat.=36.695258, lon.=137.757176, Alt.=2581.549751m. Speed=0.000000m/h.]]></desc>
</trkpt>
<trkpt lat="36.695265" lon="137.757192">
<ele>2580.471658</ele>
<time>2014-08-18T00:00:01Z</time>
<desc><![CDATA[lat.=36.695265, lon.=137.757192, Alt.=2580.471658m. Speed=0.000000m/h.]]></desc>
</trkpt>
<trkpt lat="36.695262" lon="137.757201">
<ele>2579.335053</ele>
<time>2014-08-18T00:00:06Z</time>
<desc><![CDATA[lat.=36.695262, lon.=137.757201, Alt.=2579.335053m. Speed=0.000000m/h.]]></desc>
</trkpt>
<trkpt lat="36.695273" lon="137.757209">
<ele>2579.393566</ele>
<time>2014-08-18T00:00:11Z</time>
<desc><![CDATA[lat.=36.695273, lon.=137.757209, Alt.=2579.393566m. Speed=0.000000m/h.]]></desc>
</trkpt>
<trkpt lat="36.695265" lon="137.757209">
<ele>2578.796008</ele>
<time>2014-08-18T00:00:16Z</time>
<desc><![CDATA[lat.=36.695265, lon.=137.757209, Alt.=2578.796008m. Speed=0.000000m/h.]]></desc>
</trkpt>
<trkpt lat="36.695280" lon="137.757209">
<ele>2579.991125</ele>
<time>2014-08-18T00:00:21Z</time>
<desc><![CDATA[lat.=36.695280, lon.=137.757209, Alt.=2579.991125m. Speed=0.000000m/h.]]></desc>
</trkpt>
<trkpt lat="36.695294" lon="137.757225">
<ele>2581.240791</ele>
<time>2014-08-18T00:00:26Z</time>
<desc><![CDATA[lat.=36.695294, lon.=137.757225, Alt.=2581.240791m. Speed=1.000000m/h.]]></desc>
</trkpt>
<trkpt lat="36.695305" lon="137.757234">
<ele>2579.569107</ele>
<time>2014-08-18T00:00:31Z</time>
<desc><![CDATA[lat.=36.695305, lon.=137.757234, Alt.=2579.569107m. Speed=1.000000m/h.]]></desc>
</trkpt>
<trkpt lat="36.695334" lon="137.757251">
<ele>2578.553498</ele>
<time>2014-08-18T00:00:36Z</time>
<desc><![CDATA[lat.=36.695334, lon.=137.757251, Alt.=2578.553498m. Speed=1.000000m/h.]]></desc>
</trkpt>
<trkpt lat="36.695331" lon="137.757244">
<ele>2577.362345</ele>
<time>2014-08-18T00:00:41Z</time>
<desc><![CDATA[lat.=36.695331, lon.=137.757244, Alt.=2577.362345m. Speed=1.000000m/h.]]></desc>
</trkpt>
<trkpt lat="36.695350" lon="137.757220">
<ele>2577.909325</ele>
<time>2014-08-18T00:00:46Z</time>
<desc><![CDATA[lat.=36.695350, lon.=137.757220, Alt.=2577.909325m. Speed=1.000000m/h.]]></desc>
</trkpt>
<trkpt lat="36.695364" lon="137.757204">
<ele>2580.780095</ele>
<time>2014-08-18T00:00:51Z</time>
<desc><![CDATA[lat.=36.695364, lon.=137.757204, Alt.=2580.780095m. Speed=0.000000m/h.]]></desc>
</trkpt>
<trkpt lat="36.695364" lon="137.757187">
<ele>2582.455746</ele>
<time>2014-08-18T00:00:56Z</time>
<desc><![CDATA[lat.=36.695364, lon.=137.757187, Alt.=2582.455746m. Speed=1.000000m/h.]]></desc>
</trkpt>
<trkpt lat="36.695361" lon="137.757164">
<ele>2581.210047</ele>
<time>2014-08-18T00:01:01Z</time>
<desc><![CDATA[lat.=36.695361, lon.=137.757164, Alt.=2581.210047m. Speed=1.000000m/h.]]></desc>
</trkpt>
<trkpt lat="36.695351" lon="137.757124">
<ele>2581.042441</ele>
<time>2014-08-18T00:01:06Z</time>
<desc><![CDATA[lat.=36.695351, lon.=137.757124, Alt.=2581.042441m. Speed=1.000000m/h.]]></desc>
</trkpt>
<trkpt lat="36.695333" lon="137.757116">
<ele>2580.386367</ele>
<time>2014-08-18T00:01:11Z</time>
<desc><![CDATA[lat.=36.695333, lon.=137.757116, Alt.=2580.386367m. Speed=2.000000m/h.]]></desc>
</trkpt>
<trkpt lat="36.695356" lon="137.757084">
<ele>2582.069957</ele>
<time>2014-08-18T00:01:16Z</time>
<desc><![CDATA[lat.=36.695356, lon.=137.757084, Alt.=2582.069957m. Speed=2.000000m/h.]]></desc>
</trkpt>
<trkpt lat="36.695349" lon="137.757068">
<ele>2581.417852</ele>
<time>2014-08-18T00:01:21Z</time>
<desc><![CDATA[lat.=36.695349, lon.=137.757068, Alt.=2581.417852m. Speed=1.000000m/h.]]></desc>
</trkpt>
<trkpt lat="36.695358" lon="137.757038">
<ele>2578.445927</ele>
<time>2014-08-18T00:01:26Z</time>
<desc><![CDATA[lat.=36.695358, lon.=137.757038, Alt.=2578.445927m. Speed=2.000000m/h.]]></desc>
</trkpt>
<trkpt lat="36.695370" lon="137.756983">
<ele>2578.286267</ele>
<time>2014-08-18T00:01:31Z</time>
<desc><![CDATA[lat.=36.695370, lon.=137.756983, Alt.=2578.286267m. Speed=2.000000m/h.]]></desc>
</trkpt>
<trkpt lat="36.695389" lon="137.756960">
<ele>2578.833255</ele>
<time>2014-08-18T00:01:36Z</time>
<desc><![CDATA[lat.=36.695389, lon.=137.756960, Alt.=2578.833255m. Speed=2.000000m/h.]]></desc>
</trkpt>
<trkpt lat="36.695385" lon="137.756952">
<ele>2579.372303</ele>
<time>2014-08-18T00:01:41Z</time>
<desc><![CDATA[lat.=36.695385, lon.=137.756952, Alt.=2579.372303m. Speed=0.000000m/h.]]></desc>
</trkpt>
<trkpt lat="36.695379" lon="137.756937">
<ele>2576.990002</ele>
<time>2014-08-18T00:01:46Z</time>
<desc><![CDATA[lat.=36.695379, lon.=137.756937, Alt.=2576.990002m. Speed=0.000000m/h.]]></desc>
</trkpt>
<trkpt lat="36.695368" lon="137.756929">
<ele>2575.201291</ele>
<time>2014-08-18T00:01:51Z</time>
<desc><![CDATA[lat.=36.695368, lon.=137.756929, Alt.=2575.201291m. Speed=0.000000m/h.]]></desc>
</trkpt>
<trkpt lat="36.695379" lon="137.756922">
<ele>2575.205262</ele>
<time>2014-08-18T00:01:56Z</time>
<desc><![CDATA[lat.=36.695379, lon.=137.756922, Alt.=2575.205262m. Speed=0.000000m/h.]]></desc>
</trkpt>
<trkpt lat="36.695384" lon="137.756882">
<ele>2574.502590</ele>
<time>2014-08-18T00:02:01Z</time>
<desc><![CDATA[lat.=36.695384, lon.=137.756882, Alt.=2574.502590m. Speed=2.000000m/h.]]></desc>
</trkpt>
<trkpt lat="36.695389" lon="137.756844">
<ele>2572.069722</ele>
<time>2014-08-18T00:02:06Z</time>
<desc><![CDATA[lat.=36.695389, lon.=137.756844, Alt.=2572.069722m. Speed=2.000000m/h.]]></desc>
</trkpt>
<trkpt lat="36.695405" lon="137.756797">
<ele>2571.371026</ele>
<time>2014-08-18T00:02:11Z</time>
<desc><![CDATA[lat.=36.695405, lon.=137.756797, Alt.=2571.371026m. Speed=2.000000m/h.]]></desc>
</trkpt>
<trkpt lat="36.695427" lon="137.756782">
<ele>2571.378972</ele>
<time>2014-08-18T00:02:16Z</time>
<desc><![CDATA[lat.=36.695427, lon.=137.756782, Alt.=2571.378972m. Speed=2.000000m/h.]]></desc>
</trkpt>
<trkpt lat="36.695471" lon="137.756783">
<ele>2573.234142</ele>
<time>2014-08-18T00:02:21Z</time>
<desc><![CDATA[lat.=36.695471, lon.=137.756783, Alt.=2573.234142m. Speed=2.000000m/h.]]></desc>
</trkpt>
<trkpt lat="36.695514" lon="137.756799">
<ele>2576.874054</ele>
<time>2014-08-18T00:02:26Z</time>
<desc><![CDATA[lat.=36.695514, lon.=137.756799, Alt.=2576.874054m. Speed=1.000000m/h.]]></desc>
</trkpt>
<trkpt lat="36.695533" lon="137.756791">
<ele>2577.475591</ele>
<time>2014-08-18T00:02:31Z</time>
<desc><![CDATA[lat.=36.695533, lon.=137.756791, Alt.=2577.475591m. Speed=2.000000m/h.]]></desc>
</trkpt>
<trkpt lat="36.695556" lon="137.756745">
<ele>2577.374466</ele>
<time>2014-08-18T00:02:36Z</time>
<desc><![CDATA[lat.=36.695556, lon.=137.756745, Alt.=2577.374466m. Speed=2.000000m/h.]]></desc>
</trkpt>
<trkpt lat="36.695582" lon="137.756722">
<ele>2578.519031</ele>
<time>2014-08-18T00:02:41Z</time>
<desc><![CDATA[lat.=36.695582, lon.=137.756722, Alt.=2578.519031m. Speed=2.000000m/h.]]></desc>
</trkpt>
<trkpt lat="36.695567" lon="137.756722">
<ele>2577.323905</ele>
<time>2014-08-18T00:02:46Z</time>
<desc><![CDATA[lat.=36.695567, lon.=137.756722, Alt.=2577.323905m. Speed=0.000000m/h.]]></desc>
</trkpt>
<trkpt lat="36.695571" lon="137.756714">
<ele>2576.730319</ele>
<time>2014-08-18T00:02:51Z</time>
<desc><![CDATA[lat.=36.695571, lon.=137.756714, Alt.=2576.730319m. Speed=0.000000m/h.]]></desc>
</trkpt>
<trkpt lat="36.695579" lon="137.756698">
<ele>2577.273345</ele>
<time>2014-08-18T00:02:56Z</time>
<desc><![CDATA[lat.=36.695579, lon.=137.756698, Alt.=2577.273345m. Speed=0.000000m/h.]]></desc>
</trkpt>
<trkpt lat="36.695569" lon="137.756676">
<ele>2573.699897</ele>
<time>2014-08-18T00:03:01Z</time>
<desc><![CDATA[lat.=36.695569, lon.=137.756676, Alt.=2573.699897m. Speed=1.000000m/h.]]></desc>
</trkpt>
<trkpt lat="36.695570" lon="137.756660">
<ele>2573.645361</ele>
<time>2014-08-18T00:03:06Z</time>
<desc><![CDATA[lat.=36.695570, lon.=137.756660, Alt.=2573.645361m. Speed=0.000000m/h.]]></desc>
</trkpt>
<trkpt lat="36.695585" lon="137.756645">
<ele>2573.055753</ele>
<time>2014-08-18T00:03:11Z</time>
<desc><![CDATA[lat.=36.695585, lon.=137.756645, Alt.=2573.055753m. Speed=1.000000m/h.]]></desc>
</trkpt>
<trkpt lat="36.695585" lon="137.756613">
<ele>2572.946681</ele>
<time>2014-08-18T00:03:16Z</time>
<desc><![CDATA[lat.=36.695585, lon.=137.756613, Alt.=2572.946681m. Speed=1.000000m/h.]]></desc>
</trkpt>
<trkpt lat="36.695587" lon="137.756582">
<ele>2571.107413</ele>
<time>2014-08-18T00:03:21Z</time>
<desc><![CDATA[lat.=36.695587, lon.=137.756582, Alt.=2571.107413m. Speed=0.000000m/h.]]></desc>
</trkpt>
<trkpt lat="36.695594" lon="137.756567">
<ele>2571.650442</ele>
<time>2014-08-18T00:03:26Z</time>
<desc><![CDATA[lat.=36.695594, lon.=137.756567, Alt.=2571.650442m. Speed=1.000000m/h.]]></desc>
</trkpt>
<trkpt lat="36.695584" lon="137.756543">
<ele>2569.807196</ele>
<time>2014-08-18T00:03:31Z</time>
<desc><![CDATA[lat.=36.695584, lon.=137.756543, Alt.=2569.807196m. Speed=1.000000m/h.]]></desc>
</trkpt>
<trkpt lat="36.695614" lon="137.756529">
<ele>2568.682519</ele>
<time>2014-08-18T00:03:36Z</time>
<desc><![CDATA[lat.=36.695614, lon.=137.756529, Alt.=2568.682519m. Speed=1.000000m/h.]]></desc>
</trkpt>
<trkpt lat="36.695632" lon="137.756537">
<ele>2569.338597</ele>
<time>2014-08-18T00:03:41Z</time>
<desc><![CDATA[lat.=36.695632, lon.=137.756537, Alt.=2569.338597m. Speed=0.000000m/h.]]></desc>
</trkpt>
<trkpt lat="36.695626" lon="137.756506">
<ele>2568.631966</ele>
<time>2014-08-18T00:03:46Z</time>
<desc><![CDATA[lat.=36.695626, lon.=137.756506, Alt.=2568.631966m. Speed=1.000000m/h.]]></desc>
</trkpt>
<trkpt lat="36.695640" lon="137.756506">
<ele>2569.827094</ele>
<time>2014-08-18T00:03:51Z</time>
<desc><![CDATA[lat.=36.695640, lon.=137.756506, Alt.=2569.827094m. Speed=0.000000m/h.]]></desc>
</trkpt>
<trkpt lat="36.695636" lon="137.756512">
<ele>2572.150876</ele>
<time>2014-08-18T00:03:56Z</time>
<desc><![CDATA[lat.=36.695636, lon.=137.756512, Alt.=2572.150876m. Speed=0.000000m/h.]]></desc>
</trkpt>
<trkpt lat="36.695629" lon="137.756497">
<ele>2571.498779</ele>
<time>2014-08-18T00:04:01Z</time>
<desc><![CDATA[lat.=36.695629, lon.=137.756497, Alt.=2571.498779m. Speed=0.000000m/h.]]></desc>
</trkpt>
<trkpt lat="36.695614" lon="137.756496">
<ele>2572.033849</ele>
<time>2014-08-18T00:04:06Z</time>
<desc><![CDATA[lat.=36.695614, lon.=137.756496, Alt.=2572.033849m. Speed=0.000000m/h.]]></desc>
</trkpt>
<trkpt lat="36.695618" lon="137.756504">
<ele>2571.494799</ele>
<time>2014-08-18T00:04:12Z</time>
<desc><![CDATA[lat.=36.695618, lon.=137.756504, Alt.=2571.494799m. Speed=0.000000m/h.]]></desc>
</trkpt>
<trkpt lat="36.695614" lon="137.756496">
<ele>2572.033849</ele>
<time>2014-08-18T00:04:17Z</time>
<desc><![CDATA[lat.=36.695614, lon.=137.756496, Alt.=2572.033849m. Speed=0.000000m/h.]]></desc>
</trkpt>
<trkpt lat="36.695618" lon="137.756504">
<ele>2571.494799</ele>
<time>2014-08-18T00:04:22Z</time>
<desc><![CDATA[lat.=36.695618, lon.=137.756504, Alt.=2571.494799m. Speed=0.000000m/h.]]></desc>
</trkpt>
<trkpt lat="36.695632" lon="137.756537">
<ele>2569.338597</ele>
<time>2014-08-18T00:04:27Z</time>
<desc><![CDATA[lat.=36.695632, lon.=137.756537, Alt.=2569.338597m. Speed=2.000000m/h.]]></desc>
</trkpt>
<trkpt lat="36.695643" lon="137.756546">
<ele>2567.666913</ele>
<time>2014-08-18T00:04:32Z</time>
<desc><![CDATA[lat.=36.695643, lon.=137.756546, Alt.=2567.666913m. Speed=1.000000m/h.]]></desc>
</trkpt>
<trkpt lat="36.695654" lon="137.756555">
<ele>2567.725427</ele>
<time>2014-08-18T00:04:37Z</time>
<desc><![CDATA[lat.=36.695654, lon.=137.756555, Alt.=2567.725427m. Speed=1.000000m/h.]]></desc>
</trkpt>
<trkpt lat="36.695662" lon="137.756555">
<ele>2566.592793</ele>
<time>2014-08-18T00:04:42Z</time>
<desc><![CDATA[lat.=36.695662, lon.=137.756555, Alt.=2566.592793m. Speed=0.000000m/h.]]></desc>
</trkpt>
<trkpt lat="36.695655" lon="137.756555">
<ele>2565.995228</ele>
<time>2014-08-18T00:04:47Z</time>
<desc><![CDATA[lat.=36.695655, lon.=137.756555, Alt.=2565.995228m. Speed=0.000000m/h.]]></desc>
</trkpt>
<trkpt lat="36.695665" lon="137.756564">
<ele>2566.053743</ele>
<time>2014-08-18T00:04:52Z</time>
<desc><![CDATA[lat.=36.695665, lon.=137.756564, Alt.=2566.053743m. Speed=0.000000m/h.]]></desc>
</trkpt>
<trkpt lat="36.695673" lon="137.756564">
<ele>2566.651308</ele>
<time>2014-08-18T00:04:58Z</time>
<desc><![CDATA[lat.=36.695673, lon.=137.756564, Alt.=2566.651308m. Speed=0.000000m/h.]]></desc>
</trkpt>
<trkpt lat="36.695677" lon="137.756573">
<ele>2564.382060</ele>
<time>2014-08-18T00:05:03Z</time>
<desc><![CDATA[lat.=36.695677, lon.=137.756573, Alt.=2564.382060m. Speed=0.000000m/h.]]></desc>
</trkpt>
<trkpt lat="36.695670" lon="137.756558">
<ele>2561.999762</ele>
<time>2014-08-18T00:05:08Z</time>
<desc><![CDATA[lat.=36.695670, lon.=137.756558, Alt.=2561.999762m. Speed=0.000000m/h.]]></desc>
</trkpt>
<trkpt lat="36.695677" lon="137.756558">
<ele>2562.597327</ele>
<time>2014-08-18T00:05:18Z</time>
<desc><![CDATA[lat.=36.695677, lon.=137.756558, Alt.=2562.597327m. Speed=0.000000m/h.]]></desc>
</trkpt>
<trkpt lat="36.695685" lon="137.756558">
<ele>2563.194892</ele>
<time>2014-08-18T00:05:51Z</time>
<desc><![CDATA[lat.=36.695685, lon.=137.756558, Alt.=2563.194892m. Speed=0.000000m/h.]]></desc>
</trkpt>
<trkpt lat="36.695689" lon="137.756550">
<ele>2562.601308</ele>
<time>2014-08-18T00:05:57Z</time>
<desc><![CDATA[lat.=36.695689, lon.=137.756550, Alt.=2562.601308m. Speed=0.000000m/h.]]></desc>
</trkpt>
<trkpt lat="36.695696" lon="137.756550">
<ele>2563.198873</ele>
<time>2014-08-18T00:06:19Z</time>
<desc><![CDATA[lat.=36.695696, lon.=137.756550, Alt.=2563.198873m. Speed=0.000000m/h.]]></desc>
</trkpt>
<trkpt lat="36.695692" lon="137.756558">
<ele>2563.792457</ele>
<time>2014-08-18T00:06:34Z</time>
<desc><![CDATA[lat.=36.695692, lon.=137.756558, Alt.=2563.792457m. Speed=0.000000m/h.]]></desc>
</trkpt>
<trkpt lat="36.695688" lon="137.756549">
<ele>2564.331506</ele>
<time>2014-08-18T00:06:39Z</time>
<desc><![CDATA[lat.=36.695688, lon.=137.756549, Alt.=2564.331506m. Speed=0.000000m/h.]]></desc>
</trkpt>
<trkpt lat="36.695684" lon="137.756557">
<ele>2564.925090</ele>
<time>2014-08-18T00:06:44Z</time>
<desc><![CDATA[lat.=36.695684, lon.=137.756557, Alt.=2564.925090m. Speed=0.000000m/h.]]></desc>
</trkpt>
<trkpt lat="36.695677" lon="137.756557">
<ele>2564.327525</ele>
<time>2014-08-18T00:06:55Z</time>
<desc><![CDATA[lat.=36.695677, lon.=137.756557, Alt.=2564.327525m. Speed=1.000000m/h.]]></desc>
</trkpt>
<trkpt lat="36.695669" lon="137.756556">
<ele>2565.460159</ele>
<time>2014-08-18T00:07:00Z</time>
<desc><![CDATA[lat.=36.695669, lon.=137.756556, Alt.=2565.460159m. Speed=0.000000m/h.]]></desc>
</trkpt>
<trkpt lat="36.695665" lon="137.756564">
<ele>2566.053743</ele>
<time>2014-08-18T00:07:10Z</time>
<desc><![CDATA[lat.=36.695665, lon.=137.756564, Alt.=2566.053743m. Speed=0.000000m/h.]]></desc>
</trkpt>
<trkpt lat="36.695673" lon="137.756564">
<ele>2566.651308</ele>
<time>2014-08-18T00:07:20Z</time>
<desc><![CDATA[lat.=36.695673, lon.=137.756564, Alt.=2566.651308m. Speed=0.000000m/h.]]></desc>
</trkpt>
<trkpt lat="36.695669" lon="137.756571">
<ele>2567.244892</ele>
<time>2014-08-18T00:07:25Z</time>
<desc><![CDATA[lat.=36.695669, lon.=137.756571, Alt.=2567.244892m. Speed=0.000000m/h.]]></desc>
</trkpt>
<trkpt lat="36.695665" lon="137.756564">
<ele>2566.053743</ele>
<time>2014-08-18T00:07:30Z</time>
<desc><![CDATA[lat.=36.695665, lon.=137.756564, Alt.=2566.053743m. Speed=0.000000m/h.]]></desc>
</trkpt>
<trkpt lat="36.695661" lon="137.756571">
<ele>2566.647327</ele>
<time>2014-08-18T00:07:38Z</time>
<desc><![CDATA[lat.=36.695661, lon.=137.756571, Alt.=2566.647327m. Speed=0.000000m/h.]]></desc>
</trkpt>
<trkpt lat="36.695669" lon="137.756572">
<ele>2565.514693</ele>
<time>2014-08-18T00:07:43Z</time>
<desc><![CDATA[lat.=36.695669, lon.=137.756572, Alt.=2565.514693m. Speed=0.000000m/h.]]></desc>
</trkpt>
<trkpt lat="36.695662" lon="137.756572">
<ele>2564.917129</ele>
<time>2014-08-18T00:07:48Z</time>
<desc><![CDATA[lat.=36.695662, lon.=137.756572, Alt.=2564.917129m. Speed=0.000000m/h.]]></desc>
</trkpt>
<trkpt lat="36.695655" lon="137.756572">
<ele>2564.319564</ele>
<time>2014-08-18T00:07:55Z</time>
<desc><![CDATA[lat.=36.695655, lon.=137.756572, Alt.=2564.319564m. Speed=0.000000m/h.]]></desc>
</trkpt>
<trkpt lat="36.695659" lon="137.756564">
<ele>2563.725980</ele>
<time>2014-08-18T00:08:00Z</time>
<desc><![CDATA[lat.=36.695659, lon.=137.756564, Alt.=2563.725980m. Speed=0.000000m/h.]]></desc>
</trkpt>
<trkpt lat="36.695655" lon="137.756572">
<ele>2564.319564</ele>
<time>2014-08-18T00:08:05Z</time>
<desc><![CDATA[lat.=36.695655, lon.=137.756572, Alt.=2564.319564m. Speed=0.000000m/h.]]></desc>
</trkpt>
<trkpt lat="36.695647" lon="137.756571">
<ele>2565.452199</ele>
<time>2014-08-18T00:08:26Z</time>
<desc><![CDATA[lat.=36.695647, lon.=137.756571, Alt.=2565.452199m. Speed=0.000000m/h.]]></desc>
</trkpt>
<trkpt lat="36.695654" lon="137.756571">
<ele>2566.049763</ele>
<time>2014-08-18T00:08:31Z</time>
<desc><![CDATA[lat.=36.695654, lon.=137.756571, Alt.=2566.049763m. Speed=0.000000m/h.]]></desc>
</trkpt>
<trkpt lat="36.695658" lon="137.756564">
<ele>2565.456179</ele>
<time>2014-08-18T00:08:42Z</time>
<desc><![CDATA[lat.=36.695658, lon.=137.756564, Alt.=2565.456179m. Speed=0.000000m/h.]]></desc>
</trkpt>
<trkpt lat="36.695662" lon="137.756572">
<ele>2564.917129</ele>
<time>2014-08-18T00:08:55Z</time>
<desc><![CDATA[lat.=36.695662, lon.=137.756572, Alt.=2564.917129m. Speed=0.000000m/h.]]></desc>
</trkpt>
<trkpt lat="36.695669" lon="137.756572">
<ele>2565.514693</ele>
<time>2014-08-18T00:09:00Z</time>
<desc><![CDATA[lat.=36.695669, lon.=137.756572, Alt.=2565.514693m. Speed=0.000000m/h.]]></desc>
</trkpt>
<trkpt lat="36.695687" lon="137.756564">
<ele>2566.116239</ele>
<time>2014-08-18T00:09:05Z</time>
<desc><![CDATA[lat.=36.695687, lon.=137.756564, Alt.=2566.116239m. Speed=1.000000m/h.]]></desc>
</trkpt>
<trkpt lat="36.695699" lon="137.756540">
<ele>2567.795884</ele>
<time>2014-08-18T00:09:10Z</time>
<desc><![CDATA[lat.=36.695699, lon.=137.756540, Alt.=2567.795884m. Speed=1.000000m/h.]]></desc>
</trkpt>
<trkpt lat="36.695714" lon="137.756509">
<ele>2567.151749</ele>
<time>2014-08-18T00:09:15Z</time>
<desc><![CDATA[lat.=36.695714, lon.=137.756509, Alt.=2567.151749m. Speed=1.000000m/h.]]></desc>
</trkpt>
<trkpt lat="36.695729" lon="137.756509">
<ele>2568.346879</ele>
<time>2014-08-18T00:09:20Z</time>
<desc><![CDATA[lat.=36.695729, lon.=137.756509, Alt.=2568.346879m. Speed=0.000000m/h.]]></desc>
</trkpt>
<trkpt lat="36.695732" lon="137.756501">
<ele>2569.483494</ele>
<time>2014-08-18T00:09:25Z</time>
<desc><![CDATA[lat.=36.695732, lon.=137.756501, Alt.=2569.483494m. Speed=0.000000m/h.]]></desc>
</trkpt>
<trkpt lat="36.695728" lon="137.756509">
<ele>2570.077078</ele>
<time>2014-08-18T00:09:30Z</time>
<desc><![CDATA[lat.=36.695728, lon.=137.756509, Alt.=2570.077078m. Speed=0.000000m/h.]]></desc>
</trkpt>
<trkpt lat="36.695732" lon="137.756501">
<ele>2569.483494</ele>
<time>2014-08-18T00:09:35Z</time>
<desc><![CDATA[lat.=36.695732, lon.=137.756501, Alt.=2569.483494m. Speed=0.000000m/h.]]></desc>
</trkpt>
<trkpt lat="36.695736" lon="137.756494">
<ele>2568.889912</ele>
<time>2014-08-18T00:09:40Z</time>
<desc><![CDATA[lat.=36.695736, lon.=137.756494, Alt.=2568.889912m. Speed=0.000000m/h.]]></desc>
</trkpt>
<trkpt lat="36.695732" lon="137.756501">
<ele>2569.483494</ele>
<time>2014-08-18T00:09:45Z</time>
<desc><![CDATA[lat.=36.695732, lon.=137.756501, Alt.=2569.483494m. Speed=0.000000m/h.]]></desc>
</trkpt>
<trkpt lat="36.695739" lon="137.756501">
<ele>2570.081060</ele>
<time>2014-08-18T00:09:51Z</time>
<desc><![CDATA[lat.=36.695739, lon.=137.756501, Alt.=2570.081060m. Speed=0.000000m/h.]]></desc>
</trkpt>
<trkpt lat="36.695732" lon="137.756501">
<ele>2569.483494</ele>
<time>2014-08-18T00:09:56Z</time>
<desc><![CDATA[lat.=36.695732, lon.=137.756501, Alt.=2569.483494m. Speed=0.000000m/h.]]></desc>
</trkpt>
<trkpt lat="36.695725" lon="137.756501">
<ele>2568.885929</ele>
<time>2014-08-18T00:10:03Z</time>
<desc><![CDATA[lat.=36.695725, lon.=137.756501, Alt.=2568.885929m. Speed=0.000000m/h.]]></desc>
</trkpt>
<trkpt lat="36.695729" lon="137.756494">
<ele>2568.292346</ele>
<time>2014-08-18T00:10:08Z</time>
<desc><![CDATA[lat.=36.695729, lon.=137.756494, Alt.=2568.292346m. Speed=0.000000m/h.]]></desc>
</trkpt>
<trkpt lat="36.695736" lon="137.756494">
<ele>2568.889912</ele>
<time>2014-08-18T00:10:15Z</time>
<desc><![CDATA[lat.=36.695736, lon.=137.756494, Alt.=2568.889912m. Speed=0.000000m/h.]]></desc>
</trkpt>
<trkpt lat="36.695732" lon="137.756501">
<ele>2569.483494</ele>
<time>2014-08-18T00:10:24Z</time>
<desc><![CDATA[lat.=36.695732, lon.=137.756501, Alt.=2569.483494m. Speed=0.000000m/h.]]></desc>
</trkpt>
<trkpt lat="36.695739" lon="137.756501">
<ele>2570.081060</ele>
<time>2014-08-18T00:10:29Z</time>
<desc><![CDATA[lat.=36.695739, lon.=137.756501, Alt.=2570.081060m. Speed=0.000000m/h.]]></desc>
</trkpt>
<trkpt lat="36.695743" lon="137.756494">
<ele>2569.487477</ele>
<time>2014-08-18T00:10:37Z</time>
<desc><![CDATA[lat.=36.695743, lon.=137.756494, Alt.=2569.487477m. Speed=1.000000m/h.]]></desc>
</trkpt>
<trkpt lat="36.695763" lon="137.756472">
<ele>2566.574097</ele>
<time>2014-08-18T00:10:42Z</time>
<desc><![CDATA[lat.=36.695763, lon.=137.756472, Alt.=2566.574097m. Speed=2.000000m/h.]]></desc>
</trkpt>
<trkpt lat="36.695794" lon="137.756443">
<ele>2563.664702</ele>
<time>2014-08-18T00:10:47Z</time>
<desc><![CDATA[lat.=36.695794, lon.=137.756443, Alt.=2563.664702m. Speed=2.000000m/h.]]></desc>
</trkpt>
<trkpt lat="36.695831" lon="137.756429">
<ele>2561.407408</ele>
<time>2014-08-18T00:10:52Z</time>
<desc><![CDATA[lat.=36.695831, lon.=137.756429, Alt.=2561.407408m. Speed=3.000000m/h.]]></desc>
</trkpt>
<trkpt lat="36.695854" lon="137.756415">
<ele>2559.685180</ele>
<time>2014-08-18T00:10:57Z</time>
<desc><![CDATA[lat.=36.695854, lon.=137.756415, Alt.=2559.685180m. Speed=2.000000m/h.]]></desc>
</trkpt>
<trkpt lat="36.695874" lon="137.756376">
<ele>2558.447474</ele>
<time>2014-08-18T00:11:02Z</time>
<desc><![CDATA[lat.=36.695874, lon.=137.756376, Alt.=2558.447474m. Speed=2.000000m/h.]]></desc>
</trkpt>
<trkpt lat="36.695892" lon="137.756369">
<ele>2559.049028</ele>
<time>2014-08-18T00:11:07Z</time>
<desc><![CDATA[lat.=36.695892, lon.=137.756369, Alt.=2559.049028m. Speed=2.000000m/h.]]></desc>
</trkpt>
<trkpt lat="36.695896" lon="137.756378">
<ele>2556.779780</ele>
<time>2014-08-18T00:11:12Z</time>
<desc><![CDATA[lat.=36.695896, lon.=137.756378, Alt.=2556.779780m. Speed=0.000000m/h.]]></desc>
</trkpt>
<trkpt lat="36.695889" lon="137.756378">
<ele>2556.182212</ele>
<time>2014-08-18T00:11:17Z</time>
<desc><![CDATA[lat.=36.695889, lon.=137.756378, Alt.=2556.182212m. Speed=0.000000m/h.]]></desc>
</trkpt>
<trkpt lat="36.695893" lon="137.756386">
<ele>2555.643162</ele>
<time>2014-08-18T00:11:23Z</time>
<desc><![CDATA[lat.=36.695893, lon.=137.756386, Alt.=2555.643162m. Speed=0.000000m/h.]]></desc>
</trkpt>
<trkpt lat="36.695889" lon="137.756394">
<ele>2556.236743</ele>
<time>2014-08-18T00:11:29Z</time>
<desc><![CDATA[lat.=36.695889, lon.=137.756394, Alt.=2556.236743m. Speed=0.000000m/h.]]></desc>
</trkpt>
<trkpt lat="36.695896" lon="137.756410">
<ele>2555.158643</ele>
<time>2014-08-18T00:11:34Z</time>
<desc><![CDATA[lat.=36.695896, lon.=137.756410, Alt.=2555.158643m. Speed=0.000000m/h.]]></desc>
</trkpt>
<trkpt lat="36.695904" lon="137.756395">
<ele>2553.971482</ele>
<time>2014-08-18T00:11:39Z</time>
<desc><![CDATA[lat.=36.695904, lon.=137.756395, Alt.=2553.971482m. Speed=0.000000m/h.]]></desc>
</trkpt>
<trkpt lat="36.695905" lon="137.756380">
<ele>2552.186753</ele>
<time>2014-08-18T00:11:44Z</time>
<desc><![CDATA[lat.=36.695905, lon.=137.756380, Alt.=2552.186753m. Speed=1.000000m/h.]]></desc>
</trkpt>
<trkpt lat="36.695920" lon="137.756365">
<ele>2551.597160</ele>
<time>2014-08-18T00:11:49Z</time>
<desc><![CDATA[lat.=36.695920, lon.=137.756365, Alt.=2551.597160m. Speed=0.000000m/h.]]></desc>
</trkpt>
<trkpt lat="36.695924" lon="137.756358">
<ele>2551.003580</ele>
<time>2014-08-18T00:11:54Z</time>
<desc><![CDATA[lat.=36.695924, lon.=137.756358, Alt.=2551.003580m. Speed=0.000000m/h.]]></desc>
</trkpt>
<trkpt lat="36.695928" lon="137.756350">
<ele>2550.410000</ele>
<time>2014-08-18T00:11:59Z</time>
<desc><![CDATA[lat.=36.695928, lon.=137.756350, Alt.=2550.410000m. Speed=1.000000m/h.]]></desc>
</trkpt>
<trkpt lat="36.695943" lon="137.756336">
<ele>2548.090210</ele>
<time>2014-08-18T00:12:04Z</time>
<desc><![CDATA[lat.=36.695943, lon.=137.756336, Alt.=2548.090210m. Speed=1.000000m/h.]]></desc>
</trkpt>
<trkpt lat="36.695940" lon="137.756328">
<ele>2546.899062</ele>
<time>2014-08-18T00:12:09Z</time>
<desc><![CDATA[lat.=36.695940, lon.=137.756328, Alt.=2546.899062m. Speed=0.000000m/h.]]></desc>
</trkpt>
<trkpt lat="36.695933" lon="137.756312">
<ele>2546.246964</ele>
<time>2014-08-18T00:12:14Z</time>
<desc><![CDATA[lat.=36.695933, lon.=137.756312, Alt.=2546.246964m. Speed=0.000000m/h.]]></desc>
</trkpt>
<trkpt lat="36.695926" lon="137.756312">
<ele>2545.649396</ele>
<time>2014-08-18T00:12:19Z</time>
<desc><![CDATA[lat.=36.695926, lon.=137.756312, Alt.=2545.649396m. Speed=1.000000m/h.]]></desc>
</trkpt>
<trkpt lat="36.695937" lon="137.756305">
<ele>2545.653384</ele>
<time>2014-08-18T00:12:24Z</time>
<desc><![CDATA[lat.=36.695937, lon.=137.756305, Alt.=2545.653384m. Speed=0.000000m/h.]]></desc>
</trkpt>
<trkpt lat="36.695944" lon="137.756305">
<ele>2546.250953</ele>
<time>2014-08-18T00:12:29Z</time>
<desc><![CDATA[lat.=36.695944, lon.=137.756305, Alt.=2546.250953m. Speed=0.000000m/h.]]></desc>
</trkpt>
<trkpt lat="36.695948" lon="137.756297">
<ele>2545.657373</ele>
<time>2014-08-18T00:12:34Z</time>
<desc><![CDATA[lat.=36.695948, lon.=137.756297, Alt.=2545.657373m. Speed=0.000000m/h.]]></desc>
</trkpt>
<trkpt lat="36.695956" lon="137.756298">
<ele>2544.524743</ele>
<time>2014-08-18T00:12:39Z</time>
<desc><![CDATA[lat.=36.695956, lon.=137.756298, Alt.=2544.524743m. Speed=0.000000m/h.]]></desc>
</trkpt>
<trkpt lat="36.695960" lon="137.756306">
<ele>2543.985693</ele>
<time>2014-08-18T00:12:44Z</time>
<desc><![CDATA[lat.=36.695960, lon.=137.756306, Alt.=2543.985693m. Speed=1.000000m/h.]]></desc>
</trkpt>
<trkpt lat="36.695963" lon="137.756315">
<ele>2543.446643</ele>
<time>2014-08-18T00:12:49Z</time>
<desc><![CDATA[lat.=36.695963, lon.=137.756315, Alt.=2543.446643m. Speed=0.000000m/h.]]></desc>
</trkpt>
<trkpt lat="36.695967" lon="137.756307">
<ele>2542.853063</ele>
<time>2014-08-18T00:12:54Z</time>
<desc><![CDATA[lat.=36.695967, lon.=137.756307, Alt.=2542.853063m. Speed=0.000000m/h.]]></desc>
</trkpt>
<trkpt lat="36.695972" lon="137.756284">
<ele>2542.204955</ele>
<time>2014-08-18T00:12:59Z</time>
<desc><![CDATA[lat.=36.695972, lon.=137.756284, Alt.=2542.204955m. Speed=2.000000m/h.]]></desc>
</trkpt>
<trkpt lat="36.695957" lon="137.756268">
<ele>2540.955289</ele>
<time>2014-08-18T00:13:04Z</time>
<desc><![CDATA[lat.=36.695957, lon.=137.756268, Alt.=2540.955289m. Speed=2.000000m/h.]]></desc>
</trkpt>
<trkpt lat="36.695961" lon="137.756261">
<ele>2540.361710</ele>
<time>2014-08-18T00:13:10Z</time>
<desc><![CDATA[lat.=36.695961, lon.=137.756261, Alt.=2540.361710m. Speed=0.000000m/h.]]></desc>
</trkpt>
<trkpt lat="36.695958" lon="137.756252">
<ele>2540.900761</ele>
<time>2014-08-18T00:13:15Z</time>
<desc><![CDATA[lat.=36.695958, lon.=137.756252, Alt.=2540.900761m. Speed=1.000000m/h.]]></desc>
</trkpt>
<trkpt lat="36.695966" lon="137.756237">
<ele>2539.713604</ele>
<time>2014-08-18T00:13:20Z</time>
<desc><![CDATA[lat.=36.695966, lon.=137.756237, Alt.=2539.713604m. Speed=1.000000m/h.]]></desc>
</trkpt>
<trkpt lat="36.695974" lon="137.756222">
<ele>2538.526447</ele>
<time>2014-08-18T00:13:25Z</time>
<desc><![CDATA[lat.=36.695974, lon.=137.756222, Alt.=2538.526447m. Speed=0.000000m/h.]]></desc>
</trkpt>
<trkpt lat="36.695981" lon="137.756223">
<ele>2537.393817</ele>
<time>2014-08-18T00:13:30Z</time>
<desc><![CDATA[lat.=36.695981, lon.=137.756223, Alt.=2537.393817m. Speed=0.000000m/h.]]></desc>
</trkpt>
<trkpt lat="36.695978" lon="137.756215">
<ele>2537.932868</ele>
<time>2014-08-18T00:13:35Z</time>
<desc><![CDATA[lat.=36.695978, lon.=137.756215, Alt.=2537.932868m. Speed=0.000000m/h.]]></desc>
</trkpt>
<trkpt lat="36.695993" lon="137.756200">
<ele>2537.343281</ele>
<time>2014-08-18T00:13:40Z</time>
<desc><![CDATA[lat.=36.695993, lon.=137.756200, Alt.=2537.343281m. Speed=1.000000m/h.]]></desc>
</trkpt>
<trkpt lat="36.696030" lon="137.756185">
<ele>2536.816204</ele>
<time>2014-08-18T00:13:45Z</time>
<desc><![CDATA[lat.=36.696030, lon.=137.756185, Alt.=2536.816204m. Speed=2.000000m/h.]]></desc>
</trkpt>
<trkpt lat="36.696071" lon="137.756163">
<ele>2537.425751</ele>
<time>2014-08-18T00:13:50Z</time>
<desc><![CDATA[lat.=36.696071, lon.=137.756163, Alt.=2537.425751m. Speed=2.000000m/h.]]></desc>
</trkpt>
<trkpt lat="36.696090" lon="137.756140">
<ele>2536.242590</ele>
<time>2014-08-18T00:13:55Z</time>
<desc><![CDATA[lat.=36.696090, lon.=137.756140, Alt.=2536.242590m. Speed=2.000000m/h.]]></desc>
</trkpt>
<trkpt lat="36.696102" lon="137.756117">
<ele>2536.192058</ele>
<time>2014-08-18T00:14:00Z</time>
<desc><![CDATA[lat.=36.696102, lon.=137.756117, Alt.=2536.192058m. Speed=2.000000m/h.]]></desc>
</trkpt>
<trkpt lat="36.696116" lon="137.756133">
<ele>2537.441725</ele>
<time>2014-08-18T00:14:05Z</time>
<desc><![CDATA[lat.=36.696116, lon.=137.756133, Alt.=2537.441725m. Speed=0.000000m/h.]]></desc>
</trkpt>
<trkpt lat="36.696101" lon="137.756132">
<ele>2537.976782</ele>
<time>2014-08-18T00:14:10Z</time>
<desc><![CDATA[lat.=36.696101, lon.=137.756132, Alt.=2537.976782m. Speed=0.000000m/h.]]></desc>
</trkpt>
<trkpt lat="36.696105" lon="137.756124">
<ele>2537.383206</ele>
<time>2014-08-18T00:14:15Z</time>
<desc><![CDATA[lat.=36.696105, lon.=137.756124, Alt.=2537.383206m. Speed=0.000000m/h.]]></desc>
</trkpt>
<trkpt lat="36.696109" lon="137.756133">
<ele>2536.844154</ele>
<time>2014-08-18T00:14:24Z</time>
<desc><![CDATA[lat.=36.696109, lon.=137.756133, Alt.=2536.844154m. Speed=0.000000m/h.]]></desc>
</trkpt>
<trkpt lat="36.696105" lon="137.756141">
<ele>2535.707533</ele>
<time>2014-08-18T00:14:29Z</time>
<desc><![CDATA[lat.=36.696105, lon.=137.756141, Alt.=2535.707533m. Speed=0.000000m/h.]]></desc>
</trkpt>
<trkpt lat="36.696113" lon="137.756125">
<ele>2536.250578</ele>
<time>2014-08-18T00:14:34Z</time>
<desc><![CDATA[lat.=36.696113, lon.=137.756125, Alt.=2536.250578m. Speed=1.000000m/h.]]></desc>
</trkpt>
<trkpt lat="36.696109" lon="137.756117">
<ele>2536.789629</ele>
<time>2014-08-18T00:14:40Z</time>
<desc><![CDATA[lat.=36.696109, lon.=137.756117, Alt.=2536.789629m. Speed=0.000000m/h.]]></desc>
</trkpt>
<trkpt lat="36.696113" lon="137.756109">
<ele>2537.926251</ele>
<time>2014-08-18T00:14:45Z</time>
<desc><![CDATA[lat.=36.696113, lon.=137.756109, Alt.=2537.926251m. Speed=0.000000m/h.]]></desc>
</trkpt>
<trkpt lat="36.696120" lon="137.756109">
<ele>2538.523822</ele>
<time>2014-08-18T00:14:54Z</time>
<desc><![CDATA[lat.=36.696120, lon.=137.756109, Alt.=2538.523822m. Speed=0.000000m/h.]]></desc>
</trkpt>
<trkpt lat="36.696113" lon="137.756109">
<ele>2537.926251</ele>
<time>2014-08-18T00:14:59Z</time>
<desc><![CDATA[lat.=36.696113, lon.=137.756109, Alt.=2537.926251m. Speed=0.000000m/h.]]></desc>
</trkpt>
<trkpt lat="36.696132" lon="137.756086">
<ele>2536.743093</ele>
<time>2014-08-18T00:15:04Z</time>
<desc><![CDATA[lat.=36.696132, lon.=137.756086, Alt.=2536.743093m. Speed=1.000000m/h.]]></desc>
</trkpt>
<trkpt lat="36.696125" lon="137.756086">
<ele>2536.145523</ele>
<time>2014-08-18T00:15:09Z</time>
<desc><![CDATA[lat.=36.696125, lon.=137.756086, Alt.=2536.145523m. Speed=0.000000m/h.]]></desc>
</trkpt>
<trkpt lat="36.696118" lon="137.756071">
<ele>2533.763229</ele>
<time>2014-08-18T00:15:14Z</time>
<desc><![CDATA[lat.=36.696118, lon.=137.756071, Alt.=2533.763229m. Speed=0.000000m/h.]]></desc>
</trkpt>
<trkpt lat="36.696122" lon="137.756081">
<ele>2529.763780</ele>
<time>2014-08-18T00:15:19Z</time>
<desc><![CDATA[lat.=36.696122, lon.=137.756081, Alt.=2529.763780m. Speed=0.000000m/h.]]></desc>
</trkpt>
<trkpt lat="36.696155" lon="137.756073">
<ele>2531.560489</ele>
<time>2014-08-18T00:15:24Z</time>
<desc><![CDATA[lat.=36.696155, lon.=137.756073, Alt.=2531.560489m. Speed=0.000000m/h.]]></desc>
</trkpt>
<trkpt lat="36.696189" lon="137.756051">
<ele>2531.572477</ele>
<time>2014-08-18T00:15:29Z</time>
<desc><![CDATA[lat.=36.696189, lon.=137.756051, Alt.=2531.572477m. Speed=2.000000m/h.]]></desc>
</trkpt>
<trkpt lat="36.696178" lon="137.756058">
<ele>2531.568481</ele>
<time>2014-08-18T00:15:34Z</time>
<desc><![CDATA[lat.=36.696178, lon.=137.756058, Alt.=2531.568481m. Speed=0.000000m/h.]]></desc>
</trkpt>
<trkpt lat="36.696197" lon="137.756052">
<ele>2528.709652</ele>
<time>2014-08-18T00:15:39Z</time>
<desc><![CDATA[lat.=36.696197, lon.=137.756052, Alt.=2528.709652m. Speed=1.000000m/h.]]></desc>
</trkpt>
<trkpt lat="36.696238" lon="137.756014">
<ele>2529.264693</ele>
<time>2014-08-18T00:15:44Z</time>
<desc><![CDATA[lat.=36.696238, lon.=137.756014, Alt.=2529.264693m. Speed=2.000000m/h.]]></desc>
</trkpt>
<trkpt lat="36.696294" lon="137.755976">
<ele>2531.014886</ele>
<time>2014-08-18T00:15:49Z</time>
<desc><![CDATA[lat.=36.696294, lon.=137.755976, Alt.=2531.014886m. Speed=3.000000m/h.]]></desc>
</trkpt>
<trkpt lat="36.696352" lon="137.755992">
<ele>2534.119799</ele>
<time>2014-08-18T00:15:54Z</time>
<desc><![CDATA[lat.=36.696352, lon.=137.755992, Alt.=2534.119799m. Speed=3.000000m/h.]]></desc>
</trkpt>
<trkpt lat="36.696352" lon="137.755959">
<ele>2537.471151</ele>
<time>2014-08-18T00:15:59Z</time>
<desc><![CDATA[lat.=36.696352, lon.=137.755959, Alt.=2537.471151m. Speed=3.000000m/h.]]></desc>
</trkpt>
<trkpt lat="36.696365" lon="137.755906">
<ele>2532.120993</ele>
<time>2014-08-18T00:16:04Z</time>
<desc><![CDATA[lat.=36.696365, lon.=137.755906, Alt.=2532.120993m. Speed=3.000000m/h.]]></desc>
</trkpt>
<trkpt lat="36.696391" lon="137.755884">
<ele>2531.535425</ele>
<time>2014-08-18T00:16:09Z</time>
<desc><![CDATA[lat.=36.696391, lon.=137.755884, Alt.=2531.535425m. Speed=3.000000m/h.]]></desc>
</trkpt>
<trkpt lat="36.696403" lon="137.755861">
<ele>2529.754710</ele>
<time>2014-08-18T00:16:14Z</time>
<desc><![CDATA[lat.=36.696403, lon.=137.755861, Alt.=2529.754710m. Speed=2.000000m/h.]]></desc>
</trkpt>
<trkpt lat="36.696408" lon="137.755855">
<ele>2527.430940</ele>
<time>2014-08-18T00:16:19Z</time>
<desc><![CDATA[lat.=36.696408, lon.=137.755855, Alt.=2527.430940m. Speed=2.000000m/h.]]></desc>
</trkpt>
<trkpt lat="36.696430" lon="137.755839">
<ele>2527.438947</ele>
<time>2014-08-18T00:16:24Z</time>
<desc><![CDATA[lat.=36.696430, lon.=137.755839, Alt.=2527.438947m. Speed=2.000000m/h.]]></desc>
</trkpt>
<trkpt lat="36.696449" lon="137.755833">
<ele>2524.580129</ele>
<time>2014-08-18T00:16:29Z</time>
<desc><![CDATA[lat.=36.696449, lon.=137.755833, Alt.=2524.580129m. Speed=2.000000m/h.]]></desc>
</trkpt>
<trkpt lat="36.696447" lon="137.755794">
<ele>2523.279945</ele>
<time>2014-08-18T00:16:34Z</time>
<desc><![CDATA[lat.=36.696447, lon.=137.755794, Alt.=2523.279945m. Speed=2.000000m/h.]]></desc>
</trkpt>
<trkpt lat="36.696511" lon="137.755809">
<ele>2530.442845</ele>
<time>2014-08-18T00:16:39Z</time>
<desc><![CDATA[lat.=36.696511, lon.=137.755809, Alt.=2530.442845m. Speed=2.000000m/h.]]></desc>
</trkpt>
<trkpt lat="36.696505" lon="137.755779">
<ele>2528.006033</ele>
<time>2014-08-18T00:16:44Z</time>
<desc><![CDATA[lat.=36.696505, lon.=137.755779, Alt.=2528.006033m. Speed=1.000000m/h.]]></desc>
</trkpt>
<trkpt lat="36.696513" lon="137.755779">
<ele>2526.873411</ele>
<time>2014-08-18T00:16:49Z</time>
<desc><![CDATA[lat.=36.696513, lon.=137.755779, Alt.=2526.873411m. Speed=0.000000m/h.]]></desc>
</trkpt>
<trkpt lat="36.696541" lon="137.755794">
<ele>2531.048434</ele>
<time>2014-08-18T00:16:54Z</time>
<desc><![CDATA[lat.=36.696541, lon.=137.755794, Alt.=2531.048434m. Speed=0.000000m/h.]]></desc>
</trkpt>
<trkpt lat="36.696523" lon="137.755787">
<ele>2528.662134</ele>
<time>2014-08-18T00:16:59Z</time>
<desc><![CDATA[lat.=36.696523, lon.=137.755787, Alt.=2528.662134m. Speed=0.000000m/h.]]></desc>
</trkpt>
<trkpt lat="36.696527" lon="137.755779">
<ele>2528.068564</ele>
<time>2014-08-18T00:17:04Z</time>
<desc><![CDATA[lat.=36.696527, lon.=137.755779, Alt.=2528.068564m. Speed=0.000000m/h.]]></desc>
</trkpt>
<trkpt lat="36.696520" lon="137.755779">
<ele>2527.470987</ele>
<time>2014-08-18T00:17:09Z</time>
<desc><![CDATA[lat.=36.696520, lon.=137.755779, Alt.=2527.470987m. Speed=0.000000m/h.]]></desc>
</trkpt>
<trkpt lat="36.696524" lon="137.755773">
<ele>2525.147219</ele>
<time>2014-08-18T00:17:14Z</time>
<desc><![CDATA[lat.=36.696524, lon.=137.755773, Alt.=2525.147219m. Speed=0.000000m/h.]]></desc>
</trkpt>
<trkpt lat="36.696517" lon="137.755773">
<ele>2524.549642</ele>
<time>2014-08-18T00:17:20Z</time>
<desc><![CDATA[lat.=36.696517, lon.=137.755773, Alt.=2524.549642m. Speed=0.000000m/h.]]></desc>
</trkpt>
<trkpt lat="36.696521" lon="137.755765">
<ele>2523.956072</ele>
<time>2014-08-18T00:17:25Z</time>
<desc><![CDATA[lat.=36.696521, lon.=137.755765, Alt.=2523.956072m. Speed=0.000000m/h.]]></desc>
</trkpt>
<trkpt lat="36.696514" lon="137.755765">
<ele>2523.358496</ele>
<time>2014-08-18T00:17:30Z</time>
<desc><![CDATA[lat.=36.696514, lon.=137.755765, Alt.=2523.358496m. Speed=0.000000m/h.]]></desc>
</trkpt>
<trkpt lat="36.696518" lon="137.755758">
<ele>2522.764926</ele>
<time>2014-08-18T00:17:35Z</time>
<desc><![CDATA[lat.=36.696518, lon.=137.755758, Alt.=2522.764926m. Speed=0.000000m/h.]]></desc>
</trkpt>
<trkpt lat="36.696511" lon="137.755758">
<ele>2522.167349</ele>
<time>2014-08-18T00:17:40Z</time>
<desc><![CDATA[lat.=36.696511, lon.=137.755758, Alt.=2522.167349m. Speed=0.000000m/h.]]></desc>
</trkpt>
<trkpt lat="36.696507" lon="137.755750">
<ele>2520.976203</ele>
<time>2014-08-18T00:17:50Z</time>
<desc><![CDATA[lat.=36.696507, lon.=137.755750, Alt.=2520.976203m. Speed=0.000000m/h.]]></desc>
</trkpt>
<trkpt lat="36.696504" lon="137.755742">
<ele>2521.515256</ele>
<time>2014-08-18T00:18:05Z</time>
<desc><![CDATA[lat.=36.696504, lon.=137.755742, Alt.=2521.515256m. Speed=1.000000m/h.]]></desc>
</trkpt>
<trkpt lat="36.696497" lon="137.755726">
<ele>2520.863162</ele>
<time>2014-08-18T00:18:10Z</time>
<desc><![CDATA[lat.=36.696497, lon.=137.755726, Alt.=2520.863162m. Speed=1.000000m/h.]]></desc>
</trkpt>
<trkpt lat="36.696519" lon="137.755711">
<ele>2520.871175</ele>
<time>2014-08-18T00:18:15Z</time>
<desc><![CDATA[lat.=36.696519, lon.=137.755711, Alt.=2520.871175m. Speed=0.000000m/h.]]></desc>
</trkpt>
<trkpt lat="36.696516" lon="137.755703">
<ele>2521.410228</ele>
<time>2014-08-18T00:18:20Z</time>
<desc><![CDATA[lat.=36.696516, lon.=137.755703, Alt.=2521.410228m. Speed=0.000000m/h.]]></desc>
</trkpt>
<trkpt lat="36.696520" lon="137.755695">
<ele>2520.816659</ele>
<time>2014-08-18T00:18:25Z</time>
<desc><![CDATA[lat.=36.696520, lon.=137.755695, Alt.=2520.816659m. Speed=0.000000m/h.]]></desc>
</trkpt>
<trkpt lat="36.696516" lon="137.755687">
<ele>2521.355711</ele>
<time>2014-08-18T00:18:31Z</time>
<desc><![CDATA[lat.=36.696516, lon.=137.755687, Alt.=2521.355711m. Speed=0.000000m/h.]]></desc>
</trkpt>
<trkpt lat="36.696509" lon="137.755687">
<ele>2520.758135</ele>
<time>2014-08-18T00:18:41Z</time>
<desc><![CDATA[lat.=36.696509, lon.=137.755687, Alt.=2520.758135m. Speed=0.000000m/h.]]></desc>
</trkpt>
<trkpt lat="36.696502" lon="137.755687">
<ele>2520.160559</ele>
<time>2014-08-18T00:18:51Z</time>
<desc><![CDATA[lat.=36.696502, lon.=137.755687, Alt.=2520.160559m. Speed=0.000000m/h.]]></desc>
</trkpt>
<trkpt lat="36.696506" lon="137.755679">
<ele>2519.566989</ele>
<time>2014-08-18T00:18:56Z</time>
<desc><![CDATA[lat.=36.696506, lon.=137.755679, Alt.=2519.566989m. Speed=0.000000m/h.]]></desc>
</trkpt>
<trkpt lat="36.696531" lon="137.755654">
<ele>2524.172031</ele>
<time>2014-08-18T00:19:01Z</time>
<desc><![CDATA[lat.=36.696531, lon.=137.755654, Alt.=2524.172031m. Speed=1.000000m/h.]]></desc>
</trkpt>
<trkpt lat="36.696561" lon="137.755624">
<ele>2524.723108</ele>
<time>2014-08-18T00:19:06Z</time>
<desc><![CDATA[lat.=36.696561, lon.=137.755624, Alt.=2524.723108m. Speed=2.000000m/h.]]></desc>
</trkpt>
<trkpt lat="36.696611" lon="137.755473">
<ele>2528.954581</ele>
<time>2014-08-18T00:19:11Z</time>
<desc><![CDATA[lat.=36.696611, lon.=137.755473, Alt.=2528.954581m. Speed=2.000000m/h.]]></desc>
</trkpt>
<trkpt lat="36.696666" lon="137.755334">
<ele>2544.219367</ele>
<time>2014-08-18T00:19:16Z</time>
<desc><![CDATA[lat.=36.696666, lon.=137.755334, Alt.=2544.219367m. Speed=3.000000m/h.]]></desc>
</trkpt>
<trkpt lat="36.696699" lon="137.755228">
<ele>2554.340062</ele>
<time>2014-08-18T00:19:21Z</time>
<desc><![CDATA[lat.=36.696699, lon.=137.755228, Alt.=2554.340062m. Speed=4.000000m/h.]]></desc>
</trkpt>
<trkpt lat="36.696826" lon="137.755139">
<ele>2568.823422</ele>
<time>2014-08-18T00:19:26Z</time>
<desc><![CDATA[lat.=36.696826, lon.=137.755139, Alt.=2568.823422m. Speed=4.000000m/h.]]></desc>
</trkpt>
<trkpt lat="36.696968" lon="137.755081">
<ele>2567.848064</ele>
<time>2014-08-18T00:19:31Z</time>
<desc><![CDATA[lat.=36.696968, lon.=137.755081, Alt.=2567.848064m. Speed=3.000000m/h.]]></desc>
</trkpt>
<trkpt lat="36.697009" lon="137.755026">
<ele>2570.078909</ele>
<time>2014-08-18T00:19:36Z</time>
<desc><![CDATA[lat.=36.697009, lon.=137.755026, Alt.=2570.078909m. Speed=2.000000m/h.]]></desc>
</trkpt>
<trkpt lat="36.697082" lon="137.754927">
<ele>2567.615797</ele>
<time>2014-08-18T00:19:41Z</time>
<desc><![CDATA[lat.=36.697082, lon.=137.754927, Alt.=2567.615797m. Speed=0.000000m/h.]]></desc>
</trkpt>
<trkpt lat="36.697046" lon="137.755243">
<ele>2547.822413</ele>
<time>2014-08-18T00:19:46Z</time>
<desc><![CDATA[lat.=36.697046, lon.=137.755243, Alt.=2547.822413m. Speed=0.000000m/h.]]></desc>
</trkpt>
<trkpt lat="36.697156" lon="137.755181">
<ele>2554.837957</ele>
<time>2014-08-18T00:19:51Z</time>
<desc><![CDATA[lat.=36.697156, lon.=137.755181, Alt.=2554.837957m. Speed=0.000000m/h.]]></desc>
</trkpt>
<trkpt lat="36.697148" lon="137.755278">
<ele>2547.646620</ele>
<time>2014-08-18T00:19:56Z</time>
<desc><![CDATA[lat.=36.697148, lon.=137.755278, Alt.=2547.646620m. Speed=0.000000m/h.]]></desc>
</trkpt>
<trkpt lat="36.697163" lon="137.755428">
<ele>2532.030391</ele>
<time>2014-08-18T00:20:01Z</time>
<desc><![CDATA[lat.=36.697163, lon.=137.755428, Alt.=2532.030391m. Speed=0.000000m/h.]]></desc>
</trkpt>
<trkpt lat="36.697193" lon="137.755445">
<ele>2531.014848</ele>
<time>2014-08-18T00:20:06Z</time>
<desc><![CDATA[lat.=36.697193, lon.=137.755445, Alt.=2531.014848m. Speed=0.000000m/h.]]></desc>
</trkpt>
<trkpt lat="36.697137" lon="137.755468">
<ele>2529.210022</ele>
<time>2014-08-18T00:20:11Z</time>
<desc><![CDATA[lat.=36.697137, lon.=137.755468, Alt.=2529.210022m. Speed=0.000000m/h.]]></desc>
</trkpt>
<trkpt lat="36.697155" lon="137.755476">
<ele>2529.866141</ele>
<time>2014-08-18T00:20:16Z</time>
<desc><![CDATA[lat.=36.697155, lon.=137.755476, Alt.=2529.866141m. Speed=0.000000m/h.]]></desc>
</trkpt>
<trkpt lat="36.697163" lon="137.755476">
<ele>2530.463727</ele>
<time>2014-08-18T00:20:21Z</time>
<desc><![CDATA[lat.=36.697163, lon.=137.755476, Alt.=2530.463727m. Speed=0.000000m/h.]]></desc>
</trkpt>
<trkpt lat="36.697169" lon="137.755476">
<ele>2532.791510</ele>
<time>2014-08-18T00:20:26Z</time>
<desc><![CDATA[lat.=36.697169, lon.=137.755476, Alt.=2532.791510m. Speed=1.000000m/h.]]></desc>
</trkpt>
<trkpt lat="36.697081" lon="137.755538">
<ele>2527.568739</ele>
<time>2014-08-18T00:20:31Z</time>
<desc><![CDATA[lat.=36.697081, lon.=137.755538, Alt.=2527.568739m. Speed=0.000000m/h.]]></desc>
</trkpt>
<trkpt lat="36.696967" lon="137.755576">
<ele>2522.767974</ele>
<time>2014-08-18T00:20:36Z</time>
<desc><![CDATA[lat.=36.696967, lon.=137.755576, Alt.=2522.767974m. Speed=0.000000m/h.]]></desc>
</trkpt>
<trkpt lat="36.696903" lon="137.755612">
<ele>2523.880505</ele>
<time>2014-08-18T00:20:41Z</time>
<desc><![CDATA[lat.=36.696903, lon.=137.755612, Alt.=2523.880505m. Speed=0.000000m/h.]]></desc>
</trkpt>
<trkpt lat="36.696747" lon="137.755686">
<ele>2523.715275</ele>
<time>2014-08-18T00:20:46Z</time>
<desc><![CDATA[lat.=36.696747, lon.=137.755686, Alt.=2523.715275m. Speed=0.000000m/h.]]></desc>
</trkpt>
<trkpt lat="36.696678" lon="137.755692">
<ele>2522.391028</ele>
<time>2014-08-18T00:20:51Z</time>
<desc><![CDATA[lat.=36.696678, lon.=137.755692, Alt.=2522.391028m. Speed=0.000000m/h.]]></desc>
</trkpt>
<trkpt lat="36.696627" lon="137.755708">
<ele>2518.262496</ele>
<time>2014-08-18T00:20:56Z</time>
<desc><![CDATA[lat.=36.696627, lon.=137.755708, Alt.=2518.262496m. Speed=0.000000m/h.]]></desc>
</trkpt>
<trkpt lat="36.696601" lon="137.755715">
<ele>2517.063332</ele>
<time>2014-08-18T00:21:01Z</time>
<desc><![CDATA[lat.=36.696601, lon.=137.755715, Alt.=2517.063332m. Speed=0.000000m/h.]]></desc>
</trkpt>
<trkpt lat="36.696605" lon="137.755724">
<ele>2516.524280</ele>
<time>2014-08-18T00:21:06Z</time>
<desc><![CDATA[lat.=36.696605, lon.=137.755724, Alt.=2516.524280m. Speed=0.000000m/h.]]></desc>
</trkpt>
<trkpt lat="36.696612" lon="137.755724">
<ele>2515.391659</ele>
<time>2014-08-18T00:21:11Z</time>
<desc><![CDATA[lat.=36.696612, lon.=137.755724, Alt.=2515.391659m. Speed=1.000000m/h.]]></desc>
</trkpt>
<trkpt lat="36.696634" lon="137.755741">
<ele>2515.508712</ele>
<time>2014-08-18T00:21:16Z</time>
<desc><![CDATA[lat.=36.696634, lon.=137.755741, Alt.=2515.508712m. Speed=1.000000m/h.]]></desc>
</trkpt>
<trkpt lat="36.696633" lon="137.755757">
<ele>2515.563229</ele>
<time>2014-08-18T00:21:21Z</time>
<desc><![CDATA[lat.=36.696633, lon.=137.755757, Alt.=2515.563229m. Speed=0.000000m/h.]]></desc>
</trkpt>
<trkpt lat="36.696622" lon="137.755764">
<ele>2515.559220</ele>
<time>2014-08-18T00:21:26Z</time>
<desc><![CDATA[lat.=36.696622, lon.=137.755764, Alt.=2515.559220m. Speed=0.000000m/h.]]></desc>
</trkpt>
<trkpt lat="36.696630" lon="137.755765">
<ele>2514.426600</ele>
<time>2014-08-18T00:21:31Z</time>
<desc><![CDATA[lat.=36.696630, lon.=137.755765, Alt.=2514.426600m. Speed=0.000000m/h.]]></desc>
</trkpt>
<trkpt lat="36.696630" lon="137.755766">
<ele>2512.696401</ele>
<time>2014-08-18T00:21:36Z</time>
<desc><![CDATA[lat.=36.696630, lon.=137.755766, Alt.=2512.696401m. Speed=0.000000m/h.]]></desc>
</trkpt>
<trkpt lat="36.696638" lon="137.755767">
<ele>2511.563781</ele>
<time>2014-08-18T00:21:41Z</time>
<desc><![CDATA[lat.=36.696638, lon.=137.755767, Alt.=2511.563781m. Speed=0.000000m/h.]]></desc>
</trkpt>
<trkpt lat="36.696642" lon="137.755759">
<ele>2510.970212</ele>
<time>2014-08-18T00:21:46Z</time>
<desc><![CDATA[lat.=36.696642, lon.=137.755759, Alt.=2510.970212m. Speed=0.000000m/h.]]></desc>
</trkpt>
<trkpt lat="36.696646" lon="137.755752">
<ele>2510.376643</ele>
<time>2014-08-18T00:21:51Z</time>
<desc><![CDATA[lat.=36.696646, lon.=137.755752, Alt.=2510.376643m. Speed=0.000000m/h.]]></desc>
</trkpt>
<trkpt lat="36.696657" lon="137.755744">
<ele>2510.380653</ele>
<time>2014-08-18T00:21:56Z</time>
<desc><![CDATA[lat.=36.696657, lon.=137.755744, Alt.=2510.380653m. Speed=0.000000m/h.]]></desc>
</trkpt>
<trkpt lat="36.696654" lon="137.755737">
<ele>2509.189506</ele>
<time>2014-08-18T00:22:01Z</time>
<desc><![CDATA[lat.=36.696654, lon.=137.755737, Alt.=2509.189506m. Speed=0.000000m/h.]]></desc>
</trkpt>
<trkpt lat="36.696662" lon="137.755722">
<ele>2508.002369</ele>
<time>2014-08-18T00:22:06Z</time>
<desc><![CDATA[lat.=36.696662, lon.=137.755722, Alt.=2508.002369m. Speed=1.000000m/h.]]></desc>
</trkpt>
<trkpt lat="36.696648" lon="137.755706">
<ele>2506.752695</ele>
<time>2014-08-18T00:22:11Z</time>
<desc><![CDATA[lat.=36.696648, lon.=137.755706, Alt.=2506.752695m. Speed=1.000000m/h.]]></desc>
</trkpt>
<trkpt lat="36.696644" lon="137.755698">
<ele>2505.561548</ele>
<time>2014-08-18T00:22:16Z</time>
<desc><![CDATA[lat.=36.696644, lon.=137.755698, Alt.=2505.561548m. Speed=0.000000m/h.]]></desc>
</trkpt>
<trkpt lat="36.696648" lon="137.755691">
<ele>2504.967980</ele>
<time>2014-08-18T00:22:21Z</time>
<desc><![CDATA[lat.=36.696648, lon.=137.755691, Alt.=2504.967980m. Speed=1.000000m/h.]]></desc>
</trkpt>
<trkpt lat="36.696656" lon="137.755675">
<ele>2505.511042</ele>
<time>2014-08-18T00:22:26Z</time>
<desc><![CDATA[lat.=36.696656, lon.=137.755675, Alt.=2505.511042m. Speed=0.000000m/h.]]></desc>
</trkpt>
<trkpt lat="36.696653" lon="137.755667">
<ele>2504.319896</ele>
<time>2014-08-18T00:22:31Z</time>
<desc><![CDATA[lat.=36.696653, lon.=137.755667, Alt.=2504.319896m. Speed=0.000000m/h.]]></desc>
</trkpt>
<trkpt lat="36.696650" lon="137.755660">
<ele>2503.128749</ele>
<time>2014-08-18T00:22:36Z</time>
<desc><![CDATA[lat.=36.696650, lon.=137.755660, Alt.=2503.128749m. Speed=0.000000m/h.]]></desc>
</trkpt>
<trkpt lat="36.696657" lon="137.755661">
<ele>2501.996129</ele>
<time>2014-08-18T00:22:42Z</time>
<desc><![CDATA[lat.=36.696657, lon.=137.755661, Alt.=2501.996129m. Speed=0.000000m/h.]]></desc>
</trkpt>
<trkpt lat="36.696650" lon="137.755645">
<ele>2501.344035</ele>
<time>2014-08-18T00:22:47Z</time>
<desc><![CDATA[lat.=36.696650, lon.=137.755645, Alt.=2501.344035m. Speed=0.000000m/h.]]></desc>
</trkpt>
<trkpt lat="36.696652" lon="137.755615">
<ele>2497.774608</ele>
<time>2014-08-18T00:22:52Z</time>
<desc><![CDATA[lat.=36.696652, lon.=137.755615, Alt.=2497.774608m. Speed=0.000000m/h.]]></desc>
</trkpt>
<trkpt lat="36.696646" lon="137.755584">
<ele>2495.337802</ele>
<time>2014-08-18T00:22:57Z</time>
<desc><![CDATA[lat.=36.696646, lon.=137.755584, Alt.=2495.337802m. Speed=0.000000m/h.]]></desc>
</trkpt>
<trkpt lat="36.696661" lon="137.755553">
<ele>2494.693732</ele>
<time>2014-08-18T00:23:02Z</time>
<desc><![CDATA[lat.=36.696661, lon.=137.755553, Alt.=2494.693732m. Speed=0.000000m/h.]]></desc>
</trkpt>
<trkpt lat="36.696655" lon="137.755521">
<ele>2493.987127</ele>
<time>2014-08-18T00:23:07Z</time>
<desc><![CDATA[lat.=36.696655, lon.=137.755521, Alt.=2493.987127m. Speed=0.000000m/h.]]></desc>
</trkpt>
<trkpt lat="36.696659" lon="137.755497">
<ele>2495.069246</ele>
<time>2014-08-18T00:23:12Z</time>
<desc><![CDATA[lat.=36.696659, lon.=137.755497, Alt.=2495.069246m. Speed=0.000000m/h.]]></desc>
</trkpt>
<trkpt lat="36.696655" lon="137.755489">
<ele>2495.608300</ele>
<time>2014-08-18T00:23:17Z</time>
<desc><![CDATA[lat.=36.696655, lon.=137.755489, Alt.=2495.608300m. Speed=0.000000m/h.]]></desc>
</trkpt>
<trkpt lat="36.696674" lon="137.755498">
<ele>2494.534205</ele>
<time>2014-08-18T00:23:22Z</time>
<desc><![CDATA[lat.=36.696674, lon.=137.755498, Alt.=2494.534205m. Speed=1.000000m/h.]]></desc>
</trkpt>
<trkpt lat="36.696681" lon="137.755499">
<ele>2493.401585</ele>
<time>2014-08-18T00:23:27Z</time>
<desc><![CDATA[lat.=36.696681, lon.=137.755499, Alt.=2493.401585m. Speed=1.000000m/h.]]></desc>
</trkpt>
<trkpt lat="36.696692" lon="137.755475">
<ele>2495.081284</ele>
<time>2014-08-18T00:23:32Z</time>
<desc><![CDATA[lat.=36.696692, lon.=137.755475, Alt.=2495.081284m. Speed=1.000000m/h.]]></desc>
</trkpt>
<trkpt lat="36.696712" lon="137.755452">
<ele>2493.898166</ele>
<time>2014-08-18T00:23:37Z</time>
<desc><![CDATA[lat.=36.696712, lon.=137.755452, Alt.=2493.898166m. Speed=2.000000m/h.]]></desc>
</trkpt>
<trkpt lat="36.696728" lon="137.755456">
<ele>2486.442331</ele>
<time>2014-08-18T00:23:42Z</time>
<desc><![CDATA[lat.=36.696728, lon.=137.755456, Alt.=2486.442331m. Speed=0.000000m/h.]]></desc>
</trkpt>
<trkpt lat="36.696735" lon="137.755457">
<ele>2485.309712</ele>
<time>2014-08-18T00:23:47Z</time>
<desc><![CDATA[lat.=36.696735, lon.=137.755457, Alt.=2485.309712m. Speed=0.000000m/h.]]></desc>
</trkpt>
<trkpt lat="36.696739" lon="137.755448">
<ele>2488.176544</ele>
<time>2014-08-18T00:23:52Z</time>
<desc><![CDATA[lat.=36.696739, lon.=137.755448, Alt.=2488.176544m. Speed=0.000000m/h.]]></desc>
</trkpt>
<trkpt lat="36.696739" lon="137.755432">
<ele>2488.122032</ele>
<time>2014-08-18T00:23:57Z</time>
<desc><![CDATA[lat.=36.696739, lon.=137.755432, Alt.=2488.122032m. Speed=0.000000m/h.]]></desc>
</trkpt>
<trkpt lat="36.696746" lon="137.755415">
<ele>2490.395299</ele>
<time>2014-08-18T00:24:02Z</time>
<desc><![CDATA[lat.=36.696746, lon.=137.755415, Alt.=2490.395299m. Speed=0.000000m/h.]]></desc>
</trkpt>
<trkpt lat="36.696746" lon="137.755431">
<ele>2490.449811</ele>
<time>2014-08-18T00:24:07Z</time>
<desc><![CDATA[lat.=36.696746, lon.=137.755431, Alt.=2490.449811m. Speed=0.000000m/h.]]></desc>
</trkpt>
<trkpt lat="36.696742" lon="137.755423">
<ele>2490.988864</ele>
<time>2014-08-18T00:24:12Z</time>
<desc><![CDATA[lat.=36.696742, lon.=137.755423, Alt.=2490.988864m. Speed=0.000000m/h.]]></desc>
</trkpt>
<trkpt lat="36.696750" lon="137.755407">
<ele>2491.531933</ele>
<time>2014-08-18T00:24:19Z</time>
<desc><![CDATA[lat.=36.696750, lon.=137.755407, Alt.=2491.531933m. Speed=0.000000m/h.]]></desc>
</trkpt>
<trkpt lat="36.696768" lon="137.755432">
<ele>2490.512351</ele>
<time>2014-08-18T00:24:24Z</time>
<desc><![CDATA[lat.=36.696768, lon.=137.755432, Alt.=2490.512351m. Speed=1.000000m/h.]]></desc>
</trkpt>
<trkpt lat="36.696768" lon="137.755449">
<ele>2488.836664</ele>
<time>2014-08-18T00:24:29Z</time>
<desc><![CDATA[lat.=36.696768, lon.=137.755449, Alt.=2488.836664m. Speed=0.000000m/h.]]></desc>
</trkpt>
<trkpt lat="36.696772" lon="137.755457">
<ele>2488.297611</ele>
<time>2014-08-18T00:24:34Z</time>
<desc><![CDATA[lat.=36.696772, lon.=137.755457, Alt.=2488.297611m. Speed=0.000000m/h.]]></desc>
</trkpt>
<trkpt lat="36.696768" lon="137.755449">
<ele>2487.106465</ele>
<time>2014-08-18T00:24:39Z</time>
<desc><![CDATA[lat.=36.696768, lon.=137.755449, Alt.=2487.106465m. Speed=0.000000m/h.]]></desc>
</trkpt>
<trkpt lat="36.696775" lon="137.755482">
<ele>2486.082871</ele>
<time>2014-08-18T00:24:44Z</time>
<desc><![CDATA[lat.=36.696775, lon.=137.755482, Alt.=2486.082871m. Speed=0.000000m/h.]]></desc>
</trkpt>
<trkpt lat="36.696779" lon="137.755490">
<ele>2485.543818</ele>
<time>2014-08-18T00:24:49Z</time>
<desc><![CDATA[lat.=36.696779, lon.=137.755490, Alt.=2485.543818m. Speed=0.000000m/h.]]></desc>
</trkpt>
<trkpt lat="36.696805" lon="137.755484">
<ele>2483.282596</ele>
<time>2014-08-18T00:24:54Z</time>
<desc><![CDATA[lat.=36.696805, lon.=137.755484, Alt.=2483.282596m. Speed=1.000000m/h.]]></desc>
</trkpt>
<trkpt lat="36.696813" lon="137.755485">
<ele>2482.149978</ele>
<time>2014-08-18T00:24:59Z</time>
<desc><![CDATA[lat.=36.696813, lon.=137.755485, Alt.=2482.149978m. Speed=0.000000m/h.]]></desc>
</trkpt>
<trkpt lat="36.696840" lon="137.755463">
<ele>2479.834246</ele>
<time>2014-08-18T00:25:04Z</time>
<desc><![CDATA[lat.=36.696840, lon.=137.755463, Alt.=2479.834246m. Speed=2.000000m/h.]]></desc>
</trkpt>
<trkpt lat="36.696863" lon="137.755433">
<ele>2478.057570</ele>
<time>2014-08-18T00:25:09Z</time>
<desc><![CDATA[lat.=36.696863, lon.=137.755433, Alt.=2478.057570m. Speed=2.000000m/h.]]></desc>
</trkpt>
<trkpt lat="36.696889" lon="137.755427">
<ele>2475.796353</ele>
<time>2014-08-18T00:25:14Z</time>
<desc><![CDATA[lat.=36.696889, lon.=137.755427, Alt.=2475.796353m. Speed=2.000000m/h.]]></desc>
</trkpt>
<trkpt lat="36.696892" lon="137.755434">
<ele>2478.717697</ele>
<time>2014-08-18T00:25:19Z</time>
<desc><![CDATA[lat.=36.696892, lon.=137.755434, Alt.=2478.717697m. Speed=0.000000m/h.]]></desc>
</trkpt>
<trkpt lat="36.696888" lon="137.755425">
<ele>2479.256750</ele>
<time>2014-08-18T00:25:24Z</time>
<desc><![CDATA[lat.=36.696888, lon.=137.755425, Alt.=2479.256750m. Speed=0.000000m/h.]]></desc>
</trkpt>
<trkpt lat="36.696877" lon="137.755433">
<ele>2479.252732</ele>
<time>2014-08-18T00:25:29Z</time>
<desc><![CDATA[lat.=36.696877, lon.=137.755433, Alt.=2479.252732m. Speed=0.000000m/h.]]></desc>
</trkpt>
<trkpt lat="36.696880" lon="137.755440">
<ele>2480.443878</ele>
<time>2014-08-18T00:25:34Z</time>
<desc><![CDATA[lat.=36.696880, lon.=137.755440, Alt.=2480.443878m. Speed=0.000000m/h.]]></desc>
</trkpt>
<trkpt lat="36.696914" lon="137.755418">
<ele>2480.455932</ele>
<time>2014-08-18T00:25:39Z</time>
<desc><![CDATA[lat.=36.696914, lon.=137.755418, Alt.=2480.455932m. Speed=2.000000m/h.]]></desc>
</trkpt>
<trkpt lat="36.696918" lon="137.755426">
<ele>2479.916879</ele>
<time>2014-08-18T00:25:44Z</time>
<desc><![CDATA[lat.=36.696918, lon.=137.755426, Alt.=2479.916879m. Speed=1.000000m/h.]]></desc>
</trkpt>
<trkpt lat="36.696921" lon="137.755434">
<ele>2479.377826</ele>
<time>2014-08-18T00:25:49Z</time>
<desc><![CDATA[lat.=36.696921, lon.=137.755434, Alt.=2479.377826m. Speed=0.000000m/h.]]></desc>
</trkpt>
<trkpt lat="36.696947" lon="137.755428">
<ele>2478.846811</ele>
<time>2014-08-18T00:25:54Z</time>
<desc><![CDATA[lat.=36.696947, lon.=137.755428, Alt.=2478.846811m. Speed=1.000000m/h.]]></desc>
</trkpt>
<trkpt lat="36.696970" lon="137.755413">
<ele>2477.124651</ele>
<time>2014-08-18T00:25:59Z</time>
<desc><![CDATA[lat.=36.696970, lon.=137.755413, Alt.=2477.124651m. Speed=2.000000m/h.]]></desc>
</trkpt>
<trkpt lat="36.696996" lon="137.755407">
<ele>2476.593638</ele>
<time>2014-08-18T00:26:04Z</time>
<desc><![CDATA[lat.=36.696996, lon.=137.755407, Alt.=2476.593638m. Speed=2.000000m/h.]]></desc>
</trkpt>
<trkpt lat="36.697008" lon="137.755401">
<ele>2473.137262</ele>
<time>2014-08-18T00:26:09Z</time>
<desc><![CDATA[lat.=36.697008, lon.=137.755401, Alt.=2473.137262m. Speed=0.000000m/h.]]></desc>
</trkpt>
<trkpt lat="36.696986" lon="137.755400">
<ele>2473.074711</ele>
<time>2014-08-18T00:26:14Z</time>
<desc><![CDATA[lat.=36.696986, lon.=137.755400, Alt.=2473.074711m. Speed=0.000000m/h.]]></desc>
</trkpt>
<trkpt lat="36.696985" lon="137.755398">
<ele>2476.535107</ele>
<time>2014-08-18T00:26:19Z</time>
<desc><![CDATA[lat.=36.696985, lon.=137.755398, Alt.=2476.535107m. Speed=0.000000m/h.]]></desc>
</trkpt>
<trkpt lat="36.696985" lon="137.755397">
<ele>2478.265306</ele>
<time>2014-08-18T00:26:24Z</time>
<desc><![CDATA[lat.=36.696985, lon.=137.755397, Alt.=2478.265306m. Speed=0.000000m/h.]]></desc>
</trkpt>
<trkpt lat="36.696992" lon="137.755397">
<ele>2478.862889</ele>
<time>2014-08-18T00:26:29Z</time>
<desc><![CDATA[lat.=36.696992, lon.=137.755397, Alt.=2478.862889m. Speed=0.000000m/h.]]></desc>
</trkpt>
<trkpt lat="36.697007" lon="137.755397">
<ele>2480.058055</ele>
<time>2014-08-18T00:26:34Z</time>
<desc><![CDATA[lat.=36.697007, lon.=137.755397, Alt.=2480.058055m. Speed=1.000000m/h.]]></desc>
</trkpt>
<trkpt lat="36.697029" lon="137.755398">
<ele>2480.120607</ele>
<time>2014-08-18T00:26:39Z</time>
<desc><![CDATA[lat.=36.697029, lon.=137.755398, Alt.=2480.120607m. Speed=0.000000m/h.]]></desc>
</trkpt>
<trkpt lat="36.697036" lon="137.755382">
<ele>2482.393879</ele>
<time>2014-08-18T00:26:44Z</time>
<desc><![CDATA[lat.=36.697036, lon.=137.755382, Alt.=2482.393879m. Speed=1.000000m/h.]]></desc>
</trkpt>
<trkpt lat="36.697054" lon="137.755374">
<ele>2482.995484</ele>
<time>2014-08-18T00:26:49Z</time>
<desc><![CDATA[lat.=36.697054, lon.=137.755374, Alt.=2482.995484m. Speed=0.000000m/h.]]></desc>
</trkpt>
<trkpt lat="36.697050" lon="137.755382">
<ele>2483.589046</ele>
<time>2014-08-18T00:26:54Z</time>
<desc><![CDATA[lat.=36.697050, lon.=137.755382, Alt.=2483.589046m. Speed=0.000000m/h.]]></desc>
</trkpt>
<trkpt lat="36.697058" lon="137.755382">
<ele>2484.186630</ele>
<time>2014-08-18T00:27:04Z</time>
<desc><![CDATA[lat.=36.697058, lon.=137.755382, Alt.=2484.186630m. Speed=0.000000m/h.]]></desc>
</trkpt>
<trkpt lat="36.697054" lon="137.755373">
<ele>2484.725683</ele>
<time>2014-08-18T00:27:09Z</time>
<desc><![CDATA[lat.=36.697054, lon.=137.755373, Alt.=2484.725683m. Speed=0.000000m/h.]]></desc>
</trkpt>
<trkpt lat="36.697065" lon="137.755382">
<ele>2484.784214</ele>
<time>2014-08-18T00:27:14Z</time>
<desc><![CDATA[lat.=36.697065, lon.=137.755382, Alt.=2484.784214m. Speed=0.000000m/h.]]></desc>
</trkpt>
<trkpt lat="36.697054" lon="137.755373">
<ele>2484.725683</ele>
<time>2014-08-18T00:27:19Z</time>
<desc><![CDATA[lat.=36.697054, lon.=137.755373, Alt.=2484.725683m. Speed=0.000000m/h.]]></desc>
</trkpt>
<trkpt lat="36.697054" lon="137.755373">
<ele>2486.455881</ele>
<time>2014-08-18T00:27:24Z</time>
<desc><![CDATA[lat.=36.697054, lon.=137.755373, Alt.=2486.455881m. Speed=0.000000m/h.]]></desc>
</trkpt>
<trkpt lat="36.697057" lon="137.755380">
<ele>2487.647027</ele>
<time>2014-08-18T00:27:29Z</time>
<desc><![CDATA[lat.=36.697057, lon.=137.755380, Alt.=2487.647027m. Speed=0.000000m/h.]]></desc>
</trkpt>
<trkpt lat="36.697053" lon="137.755372">
<ele>2488.186079</ele>
<time>2014-08-18T00:27:37Z</time>
<desc><![CDATA[lat.=36.697053, lon.=137.755372, Alt.=2488.186079m. Speed=0.000000m/h.]]></desc>
</trkpt>
<trkpt lat="36.697057" lon="137.755380">
<ele>2487.647027</ele>
<time>2014-08-18T00:27:42Z</time>
<desc><![CDATA[lat.=36.697057, lon.=137.755380, Alt.=2487.647027m. Speed=0.000000m/h.]]></desc>
</trkpt>
<trkpt lat="36.697061" lon="137.755373">
<ele>2487.053465</ele>
<time>2014-08-18T00:27:52Z</time>
<desc><![CDATA[lat.=36.697061, lon.=137.755373, Alt.=2487.053465m. Speed=0.000000m/h.]]></desc>
</trkpt>
<trkpt lat="36.697068" lon="137.755389">
<ele>2485.975361</ele>
<time>2014-08-18T00:27:57Z</time>
<desc><![CDATA[lat.=36.697068, lon.=137.755389, Alt.=2485.975361m. Speed=0.000000m/h.]]></desc>
</trkpt>
<trkpt lat="36.697083" lon="137.755406">
<ele>2485.494841</ele>
<time>2014-08-18T00:28:02Z</time>
<desc><![CDATA[lat.=36.697083, lon.=137.755406, Alt.=2485.494841m. Speed=1.000000m/h.]]></desc>
</trkpt>
<trkpt lat="36.697079" lon="137.755413">
<ele>2486.088403</ele>
<time>2014-08-18T00:28:07Z</time>
<desc><![CDATA[lat.=36.697079, lon.=137.755413, Alt.=2486.088403m. Speed=1.000000m/h.]]></desc>
</trkpt>
<trkpt lat="36.697082" lon="137.755422">
<ele>2485.549352</ele>
<time>2014-08-18T00:28:14Z</time>
<desc><![CDATA[lat.=36.697082, lon.=137.755422, Alt.=2485.549352m. Speed=0.000000m/h.]]></desc>
</trkpt>
<trkpt lat="36.697093" lon="137.755414">
<ele>2485.553374</ele>
<time>2014-08-18T00:28:19Z</time>
<desc><![CDATA[lat.=36.697093, lon.=137.755414, Alt.=2485.553374m. Speed=1.000000m/h.]]></desc>
</trkpt>
<trkpt lat="36.697126" lon="137.755407">
<ele>2487.350150</ele>
<time>2014-08-18T00:28:24Z</time>
<desc><![CDATA[lat.=36.697126, lon.=137.755407, Alt.=2487.350150m. Speed=1.000000m/h.]]></desc>
</trkpt>
<trkpt lat="36.697123" lon="137.755398">
<ele>2487.889202</ele>
<time>2014-08-18T00:28:29Z</time>
<desc><![CDATA[lat.=36.697123, lon.=137.755398, Alt.=2487.889202m. Speed=0.000000m/h.]]></desc>
</trkpt>
<trkpt lat="36.697126" lon="137.755407">
<ele>2487.350150</ele>
<time>2014-08-18T00:28:34Z</time>
<desc><![CDATA[lat.=36.697126, lon.=137.755407, Alt.=2487.350150m. Speed=0.000000m/h.]]></desc>
</trkpt>
<trkpt lat="36.697134" lon="137.755407">
<ele>2486.217537</ele>
<time>2014-08-18T00:28:39Z</time>
<desc><![CDATA[lat.=36.697134, lon.=137.755407, Alt.=2486.217537m. Speed=0.000000m/h.]]></desc>
</trkpt>
<trkpt lat="36.697127" lon="137.755407">
<ele>2485.619952</ele>
<time>2014-08-18T00:28:44Z</time>
<desc><![CDATA[lat.=36.697127, lon.=137.755407, Alt.=2485.619952m. Speed=0.000000m/h.]]></desc>
</trkpt>
<trkpt lat="36.697134" lon="137.755407">
<ele>2486.217537</ele>
<time>2014-08-18T00:28:49Z</time>
<desc><![CDATA[lat.=36.697134, lon.=137.755407, Alt.=2486.217537m. Speed=1.000000m/h.]]></desc>
</trkpt>
<trkpt lat="36.697157" lon="137.755376">
<ele>2486.171074</ele>
<time>2014-08-18T00:28:54Z</time>
<desc><![CDATA[lat.=36.697157, lon.=137.755376, Alt.=2486.171074m. Speed=2.000000m/h.]]></desc>
</trkpt>
<trkpt lat="36.697168" lon="137.755369">
<ele>2486.175098</ele>
<time>2014-08-18T00:28:59Z</time>
<desc><![CDATA[lat.=36.697168, lon.=137.755369, Alt.=2486.175098m. Speed=2.000000m/h.]]></desc>
</trkpt>
<trkpt lat="36.697175" lon="137.755370">
<ele>2485.042485</ele>
<time>2014-08-18T00:29:04Z</time>
<desc><![CDATA[lat.=36.697175, lon.=137.755370, Alt.=2485.042485m. Speed=1.000000m/h.]]></desc>
</trkpt>
<trkpt lat="36.697186" lon="137.755361">
<ele>2486.776708</ele>
<time>2014-08-18T00:29:09Z</time>
<desc><![CDATA[lat.=36.697186, lon.=137.755361, Alt.=2486.776708m. Speed=1.000000m/h.]]></desc>
</trkpt>
<trkpt lat="36.697216" lon="137.755362">
<ele>2487.436854</ele>
<time>2014-08-18T00:29:14Z</time>
<desc><![CDATA[lat.=36.697216, lon.=137.755362, Alt.=2487.436854m. Speed=1.000000m/h.]]></desc>
</trkpt>
<trkpt lat="36.697208" lon="137.755410">
<ele>2485.272599</ele>
<time>2014-08-18T00:29:19Z</time>
<desc><![CDATA[lat.=36.697208, lon.=137.755410, Alt.=2485.272599m. Speed=1.000000m/h.]]></desc>
</trkpt>
<trkpt lat="36.697248" lon="137.755404">
<ele>2484.206574</ele>
<time>2014-08-18T00:29:24Z</time>
<desc><![CDATA[lat.=36.697248, lon.=137.755404, Alt.=2484.206574m. Speed=1.000000m/h.]]></desc>
</trkpt>
<trkpt lat="36.697241" lon="137.755404">
<ele>2483.608987</ele>
<time>2014-08-18T00:29:29Z</time>
<desc><![CDATA[lat.=36.697241, lon.=137.755404, Alt.=2483.608987m. Speed=0.000000m/h.]]></desc>
</trkpt>
<trkpt lat="36.697252" lon="137.755380">
<ele>2485.288701</ele>
<time>2014-08-18T00:29:34Z</time>
<desc><![CDATA[lat.=36.697252, lon.=137.755380, Alt.=2485.288701m. Speed=1.000000m/h.]]></desc>
</trkpt>
<trkpt lat="36.697267" lon="137.755364">
<ele>2486.429365</ele>
<time>2014-08-18T00:29:39Z</time>
<desc><![CDATA[lat.=36.697267, lon.=137.755364, Alt.=2486.429365m. Speed=1.000000m/h.]]></desc>
</trkpt>
<trkpt lat="36.697278" lon="137.755372">
<ele>2488.218099</ele>
<time>2014-08-18T00:29:44Z</time>
<desc><![CDATA[lat.=36.697278, lon.=137.755372, Alt.=2488.218099m. Speed=1.000000m/h.]]></desc>
</trkpt>
<trkpt lat="36.697292" lon="137.755355">
<ele>2491.088962</ele>
<time>2014-08-18T00:29:49Z</time>
<desc><![CDATA[lat.=36.697292, lon.=137.755355, Alt.=2491.088962m. Speed=1.000000m/h.]]></desc>
</trkpt>
<trkpt lat="36.697303" lon="137.755364">
<ele>2491.147499</ele>
<time>2014-08-18T00:29:54Z</time>
<desc><![CDATA[lat.=36.697303, lon.=137.755364, Alt.=2491.147499m. Speed=1.000000m/h.]]></desc>
</trkpt>
<trkpt lat="36.697303" lon="137.755363">
<ele>2492.877697</ele>
<time>2014-08-18T00:29:59Z</time>
<desc><![CDATA[lat.=36.697303, lon.=137.755363, Alt.=2492.877697m. Speed=0.000000m/h.]]></desc>
</trkpt>
<trkpt lat="36.697306" lon="137.755371">
<ele>2492.338647</ele>
<time>2014-08-18T00:30:05Z</time>
<desc><![CDATA[lat.=36.697306, lon.=137.755371, Alt.=2492.338647m. Speed=0.000000m/h.]]></desc>
</trkpt>
<trkpt lat="36.697305" lon="137.755403">
<ele>2492.447666</ele>
<time>2014-08-18T00:30:10Z</time>
<desc><![CDATA[lat.=36.697305, lon.=137.755403, Alt.=2492.447666m. Speed=1.000000m/h.]]></desc>
</trkpt>
<trkpt lat="36.697301" lon="137.755426">
<ele>2493.095737</ele>
<time>2014-08-18T00:30:15Z</time>
<desc><![CDATA[lat.=36.697301, lon.=137.755426, Alt.=2493.095737m. Speed=0.000000m/h.]]></desc>
</trkpt>
<trkpt lat="36.697305" lon="137.755418">
<ele>2494.232375</ele>
<time>2014-08-18T00:30:20Z</time>
<desc><![CDATA[lat.=36.697305, lon.=137.755418, Alt.=2494.232375m. Speed=0.000000m/h.]]></desc>
</trkpt>
<trkpt lat="36.697300" lon="137.755440">
<ele>2496.610645</ele>
<time>2014-08-18T00:30:25Z</time>
<desc><![CDATA[lat.=36.697300, lon.=137.755440, Alt.=2496.610645m. Speed=1.000000m/h.]]></desc>
</trkpt>
<trkpt lat="36.697296" lon="137.755447">
<ele>2498.934404</ele>
<time>2014-08-18T00:30:30Z</time>
<desc><![CDATA[lat.=36.697296, lon.=137.755447, Alt.=2498.934404m. Speed=0.000000m/h.]]></desc>
</trkpt>
<trkpt lat="36.697296" lon="137.755464">
<ele>2497.258717</ele>
<time>2014-08-18T00:30:35Z</time>
<desc><![CDATA[lat.=36.697296, lon.=137.755464, Alt.=2497.258717m. Speed=0.000000m/h.]]></desc>
</trkpt>
<trkpt lat="36.697310" lon="137.755480">
<ele>2498.508403</ele>
<time>2014-08-18T00:30:40Z</time>
<desc><![CDATA[lat.=36.697310, lon.=137.755480, Alt.=2498.508403m. Speed=1.000000m/h.]]></desc>
</trkpt>
<trkpt lat="36.697317" lon="137.755496">
<ele>2497.430305</ele>
<time>2014-08-18T00:30:45Z</time>
<desc><![CDATA[lat.=36.697317, lon.=137.755496, Alt.=2497.430305m. Speed=1.000000m/h.]]></desc>
</trkpt>
<trkpt lat="36.697343" lon="137.755490">
<ele>2495.169111</ele>
<time>2014-08-18T00:30:50Z</time>
<desc><![CDATA[lat.=36.697343, lon.=137.755490, Alt.=2495.169111m. Speed=2.000000m/h.]]></desc>
</trkpt>
<trkpt lat="36.697361" lon="137.755465">
<ele>2499.176611</ele>
<time>2014-08-18T00:30:55Z</time>
<desc><![CDATA[lat.=36.697361, lon.=137.755465, Alt.=2499.176611m. Speed=2.000000m/h.]]></desc>
</trkpt>
<trkpt lat="36.697387" lon="137.755458">
<ele>2500.375815</ele>
<time>2014-08-18T00:31:00Z</time>
<desc><![CDATA[lat.=36.697387, lon.=137.755458, Alt.=2500.375815m. Speed=2.000000m/h.]]></desc>
</trkpt>
<trkpt lat="36.697401" lon="137.755440">
<ele>2504.976878</ele>
<time>2014-08-18T00:31:05Z</time>
<desc><![CDATA[lat.=36.697401, lon.=137.755440, Alt.=2504.976878m. Speed=2.000000m/h.]]></desc>
</trkpt>
<trkpt lat="36.697423" lon="137.755458">
<ele>2503.363759</ele>
<time>2014-08-18T00:31:10Z</time>
<desc><![CDATA[lat.=36.697423, lon.=137.755458, Alt.=2503.363759m. Speed=1.000000m/h.]]></desc>
</trkpt>
<trkpt lat="36.697438" lon="137.755474">
<ele>2502.883251</ele>
<time>2014-08-18T00:31:15Z</time>
<desc><![CDATA[lat.=36.697438, lon.=137.755474, Alt.=2502.883251m. Speed=1.000000m/h.]]></desc>
</trkpt>
<trkpt lat="36.697441" lon="137.755482">
<ele>2504.074401</ele>
<time>2014-08-18T00:31:20Z</time>
<desc><![CDATA[lat.=36.697441, lon.=137.755482, Alt.=2504.074401m. Speed=1.000000m/h.]]></desc>
</trkpt>
<trkpt lat="36.697459" lon="137.755490">
<ele>2504.730531</ele>
<time>2014-08-18T00:31:25Z</time>
<desc><![CDATA[lat.=36.697459, lon.=137.755490, Alt.=2504.730531m. Speed=1.000000m/h.]]></desc>
</trkpt>
<trkpt lat="36.697463" lon="137.755498">
<ele>2504.191483</ele>
<time>2014-08-18T00:31:30Z</time>
<desc><![CDATA[lat.=36.697463, lon.=137.755498, Alt.=2504.191483m. Speed=0.000000m/h.]]></desc>
</trkpt>
<trkpt lat="36.697466" lon="137.755507">
<ele>2503.652435</ele>
<time>2014-08-18T00:31:37Z</time>
<desc><![CDATA[lat.=36.697466, lon.=137.755507, Alt.=2503.652435m. Speed=0.000000m/h.]]></desc>
</trkpt>
<trkpt lat="36.697485" lon="137.755499">
<ele>2504.254054</ele>
<time>2014-08-18T00:31:42Z</time>
<desc><![CDATA[lat.=36.697485, lon.=137.755499, Alt.=2504.254054m. Speed=1.000000m/h.]]></desc>
</trkpt>
<trkpt lat="36.697503" lon="137.755492">
<ele>2504.855675</ele>
<time>2014-08-18T00:31:47Z</time>
<desc><![CDATA[lat.=36.697503, lon.=137.755492, Alt.=2504.855675m. Speed=0.000000m/h.]]></desc>
</trkpt>
<trkpt lat="36.697514" lon="137.755483">
<ele>2506.589903</ele>
<time>2014-08-18T00:31:52Z</time>
<desc><![CDATA[lat.=36.697514, lon.=137.755483, Alt.=2506.589903m. Speed=0.000000m/h.]]></desc>
</trkpt>
<trkpt lat="36.697514" lon="137.755467">
<ele>2508.265590</ele>
<time>2014-08-18T00:31:57Z</time>
<desc><![CDATA[lat.=36.697514, lon.=137.755467, Alt.=2508.265590m. Speed=0.000000m/h.]]></desc>
</trkpt>
<trkpt lat="36.697521" lon="137.755467">
<ele>2508.863180</ele>
<time>2014-08-18T00:32:04Z</time>
<desc><![CDATA[lat.=36.697521, lon.=137.755467, Alt.=2508.863180m. Speed=1.000000m/h.]]></desc>
</trkpt>
<trkpt lat="36.697540" lon="137.755428">
<ele>2509.355780</ele>
<time>2014-08-18T00:32:09Z</time>
<desc><![CDATA[lat.=36.697540, lon.=137.755428, Alt.=2509.355780m. Speed=1.000000m/h.]]></desc>
</trkpt>
<trkpt lat="36.697541" lon="137.755396">
<ele>2509.246759</ele>
<time>2014-08-18T00:32:14Z</time>
<desc><![CDATA[lat.=36.697541, lon.=137.755396, Alt.=2509.246759m. Speed=2.000000m/h.]]></desc>
</trkpt>
<trkpt lat="36.697537" lon="137.755404">
<ele>2509.840318</ele>
<time>2014-08-18T00:32:19Z</time>
<desc><![CDATA[lat.=36.697537, lon.=137.755404, Alt.=2509.840318m. Speed=0.000000m/h.]]></desc>
</trkpt>
<trkpt lat="36.697548" lon="137.755412">
<ele>2509.898860</ele>
<time>2014-08-18T00:32:24Z</time>
<desc><![CDATA[lat.=36.697548, lon.=137.755412, Alt.=2509.898860m. Speed=1.000000m/h.]]></desc>
</trkpt>
<trkpt lat="36.697540" lon="137.755411">
<ele>2511.031468</ele>
<time>2014-08-18T00:32:29Z</time>
<desc><![CDATA[lat.=36.697540, lon.=137.755411, Alt.=2511.031468m. Speed=0.000000m/h.]]></desc>
</trkpt>
<trkpt lat="36.697540" lon="137.755427">
<ele>2511.085978</ele>
<time>2014-08-18T00:32:34Z</time>
<desc><![CDATA[lat.=36.697540, lon.=137.755427, Alt.=2511.085978m. Speed=1.000000m/h.]]></desc>
</trkpt>
<trkpt lat="36.697535" lon="137.755450">
<ele>2511.734048</ele>
<time>2014-08-18T00:32:39Z</time>
<desc><![CDATA[lat.=36.697535, lon.=137.755450, Alt.=2511.734048m. Speed=1.000000m/h.]]></desc>
</trkpt>
<trkpt lat="36.697531" lon="137.755458">
<ele>2512.327607</ele>
<time>2014-08-18T00:32:44Z</time>
<desc><![CDATA[lat.=36.697531, lon.=137.755458, Alt.=2512.327607m. Speed=0.000000m/h.]]></desc>
</trkpt>
<trkpt lat="36.697557" lon="137.755450">
<ele>2513.526820</ele>
<time>2014-08-18T00:32:49Z</time>
<desc><![CDATA[lat.=36.697557, lon.=137.755450, Alt.=2513.526820m. Speed=1.000000m/h.]]></desc>
</trkpt>
<trkpt lat="36.697568" lon="137.755458">
<ele>2513.585363</ele>
<time>2014-08-18T00:32:54Z</time>
<desc><![CDATA[lat.=36.697568, lon.=137.755458, Alt.=2513.585363m. Speed=0.000000m/h.]]></desc>
</trkpt>
<trkpt lat="36.697575" lon="137.755474">
<ele>2514.237466</ele>
<time>2014-08-18T00:32:59Z</time>
<desc><![CDATA[lat.=36.697575, lon.=137.755474, Alt.=2514.237466m. Speed=0.000000m/h.]]></desc>
</trkpt>
<trkpt lat="36.697582" lon="137.755475">
<ele>2513.104859</ele>
<time>2014-08-18T00:33:04Z</time>
<desc><![CDATA[lat.=36.697582, lon.=137.755475, Alt.=2513.104859m. Speed=0.000000m/h.]]></desc>
</trkpt>
<trkpt lat="36.697593" lon="137.755467">
<ele>2514.839090</ele>
<time>2014-08-18T00:33:09Z</time>
<desc><![CDATA[lat.=36.697593, lon.=137.755467, Alt.=2514.839090m. Speed=0.000000m/h.]]></desc>
</trkpt>
<trkpt lat="36.697593" lon="137.755466">
<ele>2516.569287</ele>
<time>2014-08-18T00:33:14Z</time>
<desc><![CDATA[lat.=36.697593, lon.=137.755466, Alt.=2516.569287m. Speed=0.000000m/h.]]></desc>
</trkpt>
<trkpt lat="36.697597" lon="137.755474">
<ele>2516.030240</ele>
<time>2014-08-18T00:33:26Z</time>
<desc><![CDATA[lat.=36.697597, lon.=137.755474, Alt.=2516.030240m. Speed=0.000000m/h.]]></desc>
</trkpt>
<trkpt lat="36.697607" lon="137.755483">
<ele>2516.088784</ele>
<time>2014-08-18T00:33:31Z</time>
<desc><![CDATA[lat.=36.697607, lon.=137.755483, Alt.=2516.088784m. Speed=0.000000m/h.]]></desc>
</trkpt>
<trkpt lat="36.697615" lon="137.755483">
<ele>2516.686376</ele>
<time>2014-08-18T00:33:37Z</time>
<desc><![CDATA[lat.=36.697615, lon.=137.755483, Alt.=2516.686376m. Speed=0.000000m/h.]]></desc>
</trkpt>
<trkpt lat="36.697619" lon="137.755459">
<ele>2516.038306</ele>
<time>2014-08-18T00:33:42Z</time>
<desc><![CDATA[lat.=36.697619, lon.=137.755459, Alt.=2516.038306m. Speed=1.000000m/h.]]></desc>
</trkpt>
<trkpt lat="36.697619" lon="137.755458">
<ele>2517.768504</ele>
<time>2014-08-18T00:33:47Z</time>
<desc><![CDATA[lat.=36.697619, lon.=137.755458, Alt.=2517.768504m. Speed=0.000000m/h.]]></desc>
</trkpt>
<trkpt lat="36.697626" lon="137.755443">
<ele>2518.311585</ele>
<time>2014-08-18T00:33:52Z</time>
<desc><![CDATA[lat.=36.697626, lon.=137.755443, Alt.=2518.311585m. Speed=1.000000m/h.]]></desc>
</trkpt>
<trkpt lat="36.697641" lon="137.755427">
<ele>2519.452258</ele>
<time>2014-08-18T00:33:57Z</time>
<desc><![CDATA[lat.=36.697641, lon.=137.755427, Alt.=2519.452258m. Speed=1.000000m/h.]]></desc>
</trkpt>
<trkpt lat="36.697648" lon="137.755410">
<ele>2521.725538</ele>
<time>2014-08-18T00:34:02Z</time>
<desc><![CDATA[lat.=36.697648, lon.=137.755410, Alt.=2521.725538m. Speed=0.000000m/h.]]></desc>
</trkpt>
<trkpt lat="36.697645" lon="137.755386">
<ele>2522.210076</ele>
<time>2014-08-18T00:34:07Z</time>
<desc><![CDATA[lat.=36.697645, lon.=137.755386, Alt.=2522.210076m. Speed=0.000000m/h.]]></desc>
</trkpt>
<trkpt lat="36.697648" lon="137.755394">
<ele>2523.401226</ele>
<time>2014-08-18T00:34:12Z</time>
<desc><![CDATA[lat.=36.697648, lon.=137.755394, Alt.=2523.401226m. Speed=0.000000m/h.]]></desc>
</trkpt>
<trkpt lat="36.697644" lon="137.755401">
<ele>2523.994784</ele>
<time>2014-08-18T00:34:17Z</time>
<desc><![CDATA[lat.=36.697644, lon.=137.755401, Alt.=2523.994784m. Speed=0.000000m/h.]]></desc>
</trkpt>
<trkpt lat="36.697648" lon="137.755410">
<ele>2523.455736</ele>
<time>2014-08-18T00:34:22Z</time>
<desc><![CDATA[lat.=36.697648, lon.=137.755410, Alt.=2523.455736m. Speed=0.000000m/h.]]></desc>
</trkpt>
<trkpt lat="36.697640" lon="137.755425">
<ele>2522.912654</ele>
<time>2014-08-18T00:34:27Z</time>
<desc><![CDATA[lat.=36.697640, lon.=137.755425, Alt.=2522.912654m. Speed=0.000000m/h.]]></desc>
</trkpt>
<trkpt lat="36.697644" lon="137.755418">
<ele>2522.319096</ele>
<time>2014-08-18T00:34:32Z</time>
<desc><![CDATA[lat.=36.697644, lon.=137.755418, Alt.=2522.319096m. Speed=0.000000m/h.]]></desc>
</trkpt>
<trkpt lat="36.697640" lon="137.755425">
<ele>2522.912654</ele>
<time>2014-08-18T00:34:37Z</time>
<desc><![CDATA[lat.=36.697640, lon.=137.755425, Alt.=2522.912654m. Speed=0.000000m/h.]]></desc>
</trkpt>
<trkpt lat="36.697644" lon="137.755434">
<ele>2522.373606</ele>
<time>2014-08-18T00:34:43Z</time>
<desc><![CDATA[lat.=36.697644, lon.=137.755434, Alt.=2522.373606m. Speed=0.000000m/h.]]></desc>
</trkpt>
<trkpt lat="36.697647" lon="137.755457">
<ele>2523.619268</ele>
<time>2014-08-18T00:34:48Z</time>
<desc><![CDATA[lat.=36.697647, lon.=137.755457, Alt.=2523.619268m. Speed=1.000000m/h.]]></desc>
</trkpt>
<trkpt lat="36.697646" lon="137.755473">
<ele>2523.673779</ele>
<time>2014-08-18T00:34:53Z</time>
<desc><![CDATA[lat.=36.697646, lon.=137.755473, Alt.=2523.673779m. Speed=1.000000m/h.]]></desc>
</trkpt>
<trkpt lat="36.697653" lon="137.755488">
<ele>2526.056080</ele>
<time>2014-08-18T00:34:58Z</time>
<desc><![CDATA[lat.=36.697653, lon.=137.755488, Alt.=2526.056080m. Speed=1.000000m/h.]]></desc>
</trkpt>
<trkpt lat="36.697652" lon="137.755504">
<ele>2526.110592</ele>
<time>2014-08-18T00:35:03Z</time>
<desc><![CDATA[lat.=36.697652, lon.=137.755504, Alt.=2526.110592m. Speed=0.000000m/h.]]></desc>
</trkpt>
<trkpt lat="36.697656" lon="137.755496">
<ele>2525.517034</ele>
<time>2014-08-18T00:35:08Z</time>
<desc><![CDATA[lat.=36.697656, lon.=137.755496, Alt.=2525.517034m. Speed=0.000000m/h.]]></desc>
</trkpt>
<trkpt lat="36.697667" lon="137.755504">
<ele>2527.305777</ele>
<time>2014-08-18T00:35:13Z</time>
<desc><![CDATA[lat.=36.697667, lon.=137.755504, Alt.=2527.305777m. Speed=1.000000m/h.]]></desc>
</trkpt>
<trkpt lat="36.697697" lon="137.755505">
<ele>2526.235752</ele>
<time>2014-08-18T00:35:18Z</time>
<desc><![CDATA[lat.=36.697697, lon.=137.755505, Alt.=2526.235752m. Speed=1.000000m/h.]]></desc>
</trkpt>
<trkpt lat="36.697708" lon="137.755498">
<ele>2526.239787</ele>
<time>2014-08-18T00:35:23Z</time>
<desc><![CDATA[lat.=36.697708, lon.=137.755498, Alt.=2526.239787m. Speed=1.000000m/h.]]></desc>
</trkpt>
<trkpt lat="36.697741" lon="137.755492">
<ele>2524.576206</ele>
<time>2014-08-18T00:35:28Z</time>
<desc><![CDATA[lat.=36.697741, lon.=137.755492, Alt.=2524.576206m. Speed=1.000000m/h.]]></desc>
</trkpt>
<trkpt lat="36.697753" lon="137.755484">
<ele>2524.580242</ele>
<time>2014-08-18T00:35:33Z</time>
<desc><![CDATA[lat.=36.697753, lon.=137.755484, Alt.=2524.580242m. Speed=1.000000m/h.]]></desc>
</trkpt>
<trkpt lat="36.697760" lon="137.755452">
<ele>2526.799011</ele>
<time>2014-08-18T00:35:38Z</time>
<desc><![CDATA[lat.=36.697760, lon.=137.755452, Alt.=2526.799011m. Speed=1.000000m/h.]]></desc>
</trkpt>
<trkpt lat="36.697764" lon="137.755460">
<ele>2526.259965</ele>
<time>2014-08-18T00:35:43Z</time>
<desc><![CDATA[lat.=36.697764, lon.=137.755460, Alt.=2526.259965m. Speed=0.000000m/h.]]></desc>
</trkpt>
<trkpt lat="36.697775" lon="137.755453">
<ele>2526.264001</ele>
<time>2014-08-18T00:35:48Z</time>
<desc><![CDATA[lat.=36.697775, lon.=137.755453, Alt.=2526.264001m. Speed=0.000000m/h.]]></desc>
</trkpt>
<trkpt lat="36.697786" lon="137.755461">
<ele>2526.322549</ele>
<time>2014-08-18T00:35:53Z</time>
<desc><![CDATA[lat.=36.697786, lon.=137.755461, Alt.=2526.322549m. Speed=0.000000m/h.]]></desc>
</trkpt>
<trkpt lat="36.697774" lon="137.755468">
<ele>2528.048710</ele>
<time>2014-08-18T00:35:58Z</time>
<desc><![CDATA[lat.=36.697774, lon.=137.755468, Alt.=2528.048710m. Speed=1.000000m/h.]]></desc>
</trkpt>
<trkpt lat="36.697777" lon="137.755475">
<ele>2529.239862</ele>
<time>2014-08-18T00:36:03Z</time>
<desc><![CDATA[lat.=36.697777, lon.=137.755475, Alt.=2529.239862m. Speed=0.000000m/h.]]></desc>
</trkpt>
<trkpt lat="36.697777" lon="137.755490">
<ele>2531.024571</ele>
<time>2014-08-18T00:36:08Z</time>
<desc><![CDATA[lat.=36.697777, lon.=137.755490, Alt.=2531.024571m. Speed=0.000000m/h.]]></desc>
</trkpt>
<trkpt lat="36.697769" lon="137.755489">
<ele>2532.157175</ele>
<time>2014-08-18T00:36:13Z</time>
<desc><![CDATA[lat.=36.697769, lon.=137.755489, Alt.=2532.157175m. Speed=0.000000m/h.]]></desc>
</trkpt>
<trkpt lat="36.697761" lon="137.755504">
<ele>2533.344290</ele>
<time>2014-08-18T00:36:18Z</time>
<desc><![CDATA[lat.=36.697761, lon.=137.755504, Alt.=2533.344290m. Speed=0.000000m/h.]]></desc>
</trkpt>
<trkpt lat="36.697754" lon="137.755505">
<ele>2531.016499</ele>
<time>2014-08-18T00:36:23Z</time>
<desc><![CDATA[lat.=36.697754, lon.=137.755505, Alt.=2531.016499m. Speed=0.000000m/h.]]></desc>
</trkpt>
<trkpt lat="36.697762" lon="137.755505">
<ele>2531.614093</ele>
<time>2014-08-18T00:36:28Z</time>
<desc><![CDATA[lat.=36.697762, lon.=137.755505, Alt.=2531.614093m. Speed=1.000000m/h.]]></desc>
</trkpt>
<trkpt lat="36.697772" lon="137.755512">
<ele>2535.133036</ele>
<time>2014-08-18T00:36:33Z</time>
<desc><![CDATA[lat.=36.697772, lon.=137.755512, Alt.=2535.133036m. Speed=0.000000m/h.]]></desc>
</trkpt>
<trkpt lat="36.697782" lon="137.755520">
<ele>2535.191584</ele>
<time>2014-08-18T00:36:38Z</time>
<desc><![CDATA[lat.=36.697782, lon.=137.755520, Alt.=2535.191584m. Speed=0.000000m/h.]]></desc>
</trkpt>
<trkpt lat="36.697779" lon="137.755512">
<ele>2535.730630</ele>
<time>2014-08-18T00:36:44Z</time>
<desc><![CDATA[lat.=36.697779, lon.=137.755512, Alt.=2535.730630m. Speed=0.000000m/h.]]></desc>
</trkpt>
<trkpt lat="36.697786" lon="137.755512">
<ele>2536.328224</ele>
<time>2014-08-18T00:36:50Z</time>
<desc><![CDATA[lat.=36.697786, lon.=137.755512, Alt.=2536.328224m. Speed=0.000000m/h.]]></desc>
</trkpt>
<trkpt lat="36.697790" lon="137.755520">
<ele>2535.789178</ele>
<time>2014-08-18T00:36:56Z</time>
<desc><![CDATA[lat.=36.697790, lon.=137.755520, Alt.=2535.789178m. Speed=0.000000m/h.]]></desc>
</trkpt>
<trkpt lat="36.697782" lon="137.755519">
<ele>2536.921782</ele>
<time>2014-08-18T00:37:01Z</time>
<desc><![CDATA[lat.=36.697782, lon.=137.755519, Alt.=2536.921782m. Speed=0.000000m/h.]]></desc>
</trkpt>
<trkpt lat="36.697786" lon="137.755528">
<ele>2536.382736</ele>
<time>2014-08-18T00:37:14Z</time>
<desc><![CDATA[lat.=36.697786, lon.=137.755528, Alt.=2536.382736m. Speed=0.000000m/h.]]></desc>
</trkpt>
<trkpt lat="36.697782" lon="137.755519">
<ele>2536.921782</ele>
<time>2014-08-18T00:37:19Z</time>
<desc><![CDATA[lat.=36.697782, lon.=137.755519, Alt.=2536.921782m. Speed=0.000000m/h.]]></desc>
</trkpt>
<trkpt lat="36.697790" lon="137.755520">
<ele>2535.789178</ele>
<time>2014-08-18T00:37:48Z</time>
<desc><![CDATA[lat.=36.697790, lon.=137.755520, Alt.=2535.789178m. Speed=0.000000m/h.]]></desc>
</trkpt>
<trkpt lat="36.697794" lon="137.755513">
<ele>2535.195621</ele>
<time>2014-08-18T00:37:55Z</time>
<desc><![CDATA[lat.=36.697794, lon.=137.755513, Alt.=2535.195621m. Speed=0.000000m/h.]]></desc>
</trkpt>
<trkpt lat="36.697790" lon="137.755520">
<ele>2535.789178</ele>
<time>2014-08-18T00:38:00Z</time>
<desc><![CDATA[lat.=36.697790, lon.=137.755520, Alt.=2535.789178m. Speed=0.000000m/h.]]></desc>
</trkpt>
<trkpt lat="36.697789" lon="137.755519">
<ele>2537.519376</ele>
<time>2014-08-18T00:38:05Z</time>
<desc><![CDATA[lat.=36.697789, lon.=137.755519, Alt.=2537.519376m. Speed=0.000000m/h.]]></desc>
</trkpt>
<trkpt lat="36.697793" lon="137.755512">
<ele>2536.925818</ele>
<time>2014-08-18T00:38:10Z</time>
<desc><![CDATA[lat.=36.697793, lon.=137.755512, Alt.=2536.925818m. Speed=0.000000m/h.]]></desc>
</trkpt>
<trkpt lat="36.697809" lon="137.755481">
<ele>2536.281786</ele>
<time>2014-08-18T00:38:15Z</time>
<desc><![CDATA[lat.=36.697809, lon.=137.755481, Alt.=2536.281786m. Speed=2.000000m/h.]]></desc>
</trkpt>
<trkpt lat="36.697832" lon="137.755451">
<ele>2534.505152</ele>
<time>2014-08-18T00:38:20Z</time>
<desc><![CDATA[lat.=36.697832, lon.=137.755451, Alt.=2534.505152m. Speed=2.000000m/h.]]></desc>
</trkpt>
<trkpt lat="36.697848" lon="137.755420">
<ele>2533.861123</ele>
<time>2014-08-18T00:38:25Z</time>
<desc><![CDATA[lat.=36.697848, lon.=137.755420, Alt.=2533.861123m. Speed=2.000000m/h.]]></desc>
</trkpt>
<trkpt lat="36.697841" lon="137.755388">
<ele>2534.884706</ele>
<time>2014-08-18T00:38:30Z</time>
<desc><![CDATA[lat.=36.697841, lon.=137.755388, Alt.=2534.884706m. Speed=2.000000m/h.]]></desc>
</trkpt>
<trkpt lat="36.697847" lon="137.755387">
<ele>2537.212499</ele>
<time>2014-08-18T00:38:35Z</time>
<desc><![CDATA[lat.=36.697847, lon.=137.755387, Alt.=2537.212499m. Speed=1.000000m/h.]]></desc>
</trkpt>
<trkpt lat="36.697851" lon="137.755379">
<ele>2538.349141</ele>
<time>2014-08-18T00:38:40Z</time>
<desc><![CDATA[lat.=36.697851, lon.=137.755379, Alt.=2538.349141m. Speed=0.000000m/h.]]></desc>
</trkpt>
<trkpt lat="36.697855" lon="137.755371">
<ele>2537.755585</ele>
<time>2014-08-18T00:38:45Z</time>
<desc><![CDATA[lat.=36.697855, lon.=137.755371, Alt.=2537.755585m. Speed=0.000000m/h.]]></desc>
</trkpt>
<trkpt lat="36.697859" lon="137.755379">
<ele>2537.216538</ele>
<time>2014-08-18T00:38:51Z</time>
<desc><![CDATA[lat.=36.697859, lon.=137.755379, Alt.=2537.216538m. Speed=0.000000m/h.]]></desc>
</trkpt>
<trkpt lat="36.697862" lon="137.755388">
<ele>2536.677491</ele>
<time>2014-08-18T00:38:57Z</time>
<desc><![CDATA[lat.=36.697862, lon.=137.755388, Alt.=2536.677491m. Speed=0.000000m/h.]]></desc>
</trkpt>
<trkpt lat="36.697869" lon="137.755404">
<ele>2537.329596</ele>
<time>2014-08-18T00:39:02Z</time>
<desc><![CDATA[lat.=36.697869, lon.=137.755404, Alt.=2537.329596m. Speed=1.000000m/h.]]></desc>
</trkpt>
<trkpt lat="36.697869" lon="137.755419">
<ele>2537.384106</ele>
<time>2014-08-18T00:39:07Z</time>
<desc><![CDATA[lat.=36.697869, lon.=137.755419, Alt.=2537.384106m. Speed=0.000000m/h.]]></desc>
</trkpt>
<trkpt lat="36.697876" lon="137.755419">
<ele>2537.981702</ele>
<time>2014-08-18T00:39:12Z</time>
<desc><![CDATA[lat.=36.697876, lon.=137.755419, Alt.=2537.981702m. Speed=0.000000m/h.]]></desc>
</trkpt>
<trkpt lat="36.697883" lon="137.755419">
<ele>2538.579297</ele>
<time>2014-08-18T00:39:17Z</time>
<desc><![CDATA[lat.=36.697883, lon.=137.755419, Alt.=2538.579297m. Speed=0.000000m/h.]]></desc>
</trkpt>
<trkpt lat="36.697890" lon="137.755419">
<ele>2539.176893</ele>
<time>2014-08-18T00:39:22Z</time>
<desc><![CDATA[lat.=36.697890, lon.=137.755419, Alt.=2539.176893m. Speed=0.000000m/h.]]></desc>
</trkpt>
<trkpt lat="36.697898" lon="137.755419">
<ele>2539.774488</ele>
<time>2014-08-18T00:39:29Z</time>
<desc><![CDATA[lat.=36.697898, lon.=137.755419, Alt.=2539.774488m. Speed=0.000000m/h.]]></desc>
</trkpt>
<trkpt lat="36.697894" lon="137.755411">
<ele>2540.313534</ele>
<time>2014-08-18T00:39:34Z</time>
<desc><![CDATA[lat.=36.697894, lon.=137.755411, Alt.=2540.313534m. Speed=0.000000m/h.]]></desc>
</trkpt>
<trkpt lat="36.697901" lon="137.755411">
<ele>2540.911130</ele>
<time>2014-08-18T00:39:39Z</time>
<desc><![CDATA[lat.=36.697901, lon.=137.755411, Alt.=2540.911130m. Speed=0.000000m/h.]]></desc>
</trkpt>
<trkpt lat="36.697905" lon="137.755419">
<ele>2542.102282</ele>
<time>2014-08-18T00:39:44Z</time>
<desc><![CDATA[lat.=36.697905, lon.=137.755419, Alt.=2542.102282m. Speed=0.000000m/h.]]></desc>
</trkpt>
<trkpt lat="36.697912" lon="137.755419">
<ele>2542.699878</ele>
<time>2014-08-18T00:40:01Z</time>
<desc><![CDATA[lat.=36.697912, lon.=137.755419, Alt.=2542.699878m. Speed=0.000000m/h.]]></desc>
</trkpt>
<trkpt lat="36.697916" lon="137.755411">
<ele>2542.106322</ele>
<time>2014-08-18T00:40:06Z</time>
<desc><![CDATA[lat.=36.697916, lon.=137.755411, Alt.=2542.106322m. Speed=0.000000m/h.]]></desc>
</trkpt>
<trkpt lat="36.697934" lon="137.755404">
<ele>2542.707958</ele>
<time>2014-08-18T00:40:11Z</time>
<desc><![CDATA[lat.=36.697934, lon.=137.755404, Alt.=2542.707958m. Speed=1.000000m/h.]]></desc>
</trkpt>
<trkpt lat="36.697938" lon="137.755395">
<ele>2543.844601</ele>
<time>2014-08-18T00:40:16Z</time>
<desc><![CDATA[lat.=36.697938, lon.=137.755395, Alt.=2543.844601m. Speed=0.000000m/h.]]></desc>
</trkpt>
<trkpt lat="36.697957" lon="137.755372">
<ele>2544.391729</ele>
<time>2014-08-18T00:40:21Z</time>
<desc><![CDATA[lat.=36.697957, lon.=137.755372, Alt.=2544.391729m. Speed=1.000000m/h.]]></desc>
</trkpt>
<trkpt lat="36.697964" lon="137.755355">
<ele>2546.665014</ele>
<time>2014-08-18T00:40:26Z</time>
<desc><![CDATA[lat.=36.697964, lon.=137.755355, Alt.=2546.665014m. Speed=1.000000m/h.]]></desc>
</trkpt>
<trkpt lat="36.697975" lon="137.755347">
<ele>2548.399254</ele>
<time>2014-08-18T00:40:31Z</time>
<desc><![CDATA[lat.=36.697975, lon.=137.755347, Alt.=2548.399254m. Speed=1.000000m/h.]]></desc>
</trkpt>
<trkpt lat="36.697979" lon="137.755340">
<ele>2547.805699</ele>
<time>2014-08-18T00:40:36Z</time>
<desc><![CDATA[lat.=36.697979, lon.=137.755340, Alt.=2547.805699m. Speed=1.000000m/h.]]></desc>
</trkpt>
<trkpt lat="36.697986" lon="137.755324">
<ele>2548.348787</ele>
<time>2014-08-18T00:40:41Z</time>
<desc><![CDATA[lat.=36.697986, lon.=137.755324, Alt.=2548.348787m. Speed=1.000000m/h.]]></desc>
</trkpt>
<trkpt lat="36.697993" lon="137.755324">
<ele>2548.946384</ele>
<time>2014-08-18T00:40:46Z</time>
<desc><![CDATA[lat.=36.697993, lon.=137.755324, Alt.=2548.946384m. Speed=0.000000m/h.]]></desc>
</trkpt>
<trkpt lat="36.698001" lon="137.755324">
<ele>2549.543981</ele>
<time>2014-08-18T00:40:51Z</time>
<desc><![CDATA[lat.=36.698001, lon.=137.755324, Alt.=2549.543981m. Speed=0.000000m/h.]]></desc>
</trkpt>
<trkpt lat="36.698008" lon="137.755325">
<ele>2548.411381</ele>
<time>2014-08-18T00:40:56Z</time>
<desc><![CDATA[lat.=36.698008, lon.=137.755325, Alt.=2548.411381m. Speed=0.000000m/h.]]></desc>
</trkpt>
<trkpt lat="36.698001" lon="137.755324">
<ele>2549.543981</ele>
<time>2014-08-18T00:41:01Z</time>
<desc><![CDATA[lat.=36.698001, lon.=137.755324, Alt.=2549.543981m. Speed=0.000000m/h.]]></desc>
</trkpt>
<trkpt lat="36.698015" lon="137.755325">
<ele>2549.008978</ele>
<time>2014-08-18T00:41:06Z</time>
<desc><![CDATA[lat.=36.698015, lon.=137.755325, Alt.=2549.008978m. Speed=0.000000m/h.]]></desc>
</trkpt>
<trkpt lat="36.698023" lon="137.755325">
<ele>2549.606576</ele>
<time>2014-08-18T00:41:14Z</time>
<desc><![CDATA[lat.=36.698023, lon.=137.755325, Alt.=2549.606576m. Speed=0.000000m/h.]]></desc>
</trkpt>
<trkpt lat="36.698026" lon="137.755332">
<ele>2550.797727</ele>
<time>2014-08-18T00:41:19Z</time>
<desc><![CDATA[lat.=36.698026, lon.=137.755332, Alt.=2550.797727m. Speed=0.000000m/h.]]></desc>
</trkpt>
<trkpt lat="36.698030" lon="137.755309">
<ele>2550.149665</ele>
<time>2014-08-18T00:41:24Z</time>
<desc><![CDATA[lat.=36.698030, lon.=137.755309, Alt.=2550.149665m. Speed=1.000000m/h.]]></desc>
</trkpt>
<trkpt lat="36.698049" lon="137.755285">
<ele>2552.426997</ele>
<time>2014-08-18T00:41:29Z</time>
<desc><![CDATA[lat.=36.698049, lon.=137.755285, Alt.=2552.426997m. Speed=2.000000m/h.]]></desc>
</trkpt>
<trkpt lat="36.698060" lon="137.755261">
<ele>2554.106732</ele>
<time>2014-08-18T00:41:34Z</time>
<desc><![CDATA[lat.=36.698060, lon.=137.755261, Alt.=2554.106732m. Speed=2.000000m/h.]]></desc>
</trkpt>
<trkpt lat="36.698074" lon="137.755292">
<ele>2555.410943</ele>
<time>2014-08-18T00:41:39Z</time>
<desc><![CDATA[lat.=36.698074, lon.=137.755292, Alt.=2555.410943m. Speed=2.000000m/h.]]></desc>
</trkpt>
<trkpt lat="36.698092" lon="137.755301">
<ele>2554.336896</ele>
<time>2014-08-18T00:41:44Z</time>
<desc><![CDATA[lat.=36.698092, lon.=137.755301, Alt.=2554.336896m. Speed=1.000000m/h.]]></desc>
</trkpt>
<trkpt lat="36.698096" lon="137.755293">
<ele>2555.473540</ele>
<time>2014-08-18T00:41:49Z</time>
<desc><![CDATA[lat.=36.698096, lon.=137.755293, Alt.=2555.473540m. Speed=0.000000m/h.]]></desc>
</trkpt>
<trkpt lat="36.698084" lon="137.755284">
<ele>2557.145185</ele>
<time>2014-08-18T00:41:54Z</time>
<desc><![CDATA[lat.=36.698084, lon.=137.755284, Alt.=2557.145185m. Speed=0.000000m/h.]]></desc>
</trkpt>
<trkpt lat="36.698080" lon="137.755275">
<ele>2559.414429</ele>
<time>2014-08-18T00:41:59Z</time>
<desc><![CDATA[lat.=36.698080, lon.=137.755275, Alt.=2559.414429m. Speed=0.000000m/h.]]></desc>
</trkpt>
<trkpt lat="36.698077" lon="137.755267">
<ele>2559.953475</ele>
<time>2014-08-18T00:42:04Z</time>
<desc><![CDATA[lat.=36.698077, lon.=137.755267, Alt.=2559.953475m. Speed=0.000000m/h.]]></desc>
</trkpt>
<trkpt lat="36.698080" lon="137.755290">
<ele>2561.199134</ele>
<time>2014-08-18T00:42:09Z</time>
<desc><![CDATA[lat.=36.698080, lon.=137.755290, Alt.=2561.199134m. Speed=1.000000m/h.]]></desc>
</trkpt>
<trkpt lat="36.698087" lon="137.755322">
<ele>2560.175550</ele>
<time>2014-08-18T00:42:14Z</time>
<desc><![CDATA[lat.=36.698087, lon.=137.755322, Alt.=2560.175550m. Speed=2.000000m/h.]]></desc>
</trkpt>
<trkpt lat="36.698086" lon="137.755338">
<ele>2560.230058</ele>
<time>2014-08-18T00:42:19Z</time>
<desc><![CDATA[lat.=36.698086, lon.=137.755338, Alt.=2560.230058m. Speed=1.000000m/h.]]></desc>
</trkpt>
<trkpt lat="36.698096" lon="137.755361">
<ele>2562.073318</ele>
<time>2014-08-18T00:42:24Z</time>
<desc><![CDATA[lat.=36.698096, lon.=137.755361, Alt.=2562.073318m. Speed=2.000000m/h.]]></desc>
</trkpt>
<trkpt lat="36.698106" lon="137.755401">
<ele>2563.971088</ele>
<time>2014-08-18T00:42:29Z</time>
<desc><![CDATA[lat.=36.698106, lon.=137.755401, Alt.=2563.971088m. Speed=2.000000m/h.]]></desc>
</trkpt>
<trkpt lat="36.698106" lon="137.755401">
<ele>2562.240890</ele>
<time>2014-08-18T00:42:34Z</time>
<desc><![CDATA[lat.=36.698106, lon.=137.755401, Alt.=2562.240890m. Speed=0.000000m/h.]]></desc>
</trkpt>
<trkpt lat="36.698099" lon="137.755401">
<ele>2563.373489</ele>
<time>2014-08-18T00:42:39Z</time>
<desc><![CDATA[lat.=36.698099, lon.=137.755401, Alt.=2563.373489m. Speed=0.000000m/h.]]></desc>
</trkpt>
<trkpt lat="36.698106" lon="137.755401">
<ele>2563.971088</ele>
<time>2014-08-18T00:42:47Z</time>
<desc><![CDATA[lat.=36.698106, lon.=137.755401, Alt.=2563.971088m. Speed=0.000000m/h.]]></desc>
</trkpt>
<trkpt lat="36.698099" lon="137.755401">
<ele>2563.373489</ele>
<time>2014-08-18T00:42:52Z</time>
<desc><![CDATA[lat.=36.698099, lon.=137.755401, Alt.=2563.373489m. Speed=0.000000m/h.]]></desc>
</trkpt>
<trkpt lat="36.698103" lon="137.755393">
<ele>2562.779935</ele>
<time>2014-08-18T00:42:57Z</time>
<desc><![CDATA[lat.=36.698103, lon.=137.755393, Alt.=2562.779935m. Speed=0.000000m/h.]]></desc>
</trkpt>
<trkpt lat="36.698099" lon="137.755401">
<ele>2563.373489</ele>
<time>2014-08-18T00:43:03Z</time>
<desc><![CDATA[lat.=36.698099, lon.=137.755401, Alt.=2563.373489m. Speed=0.000000m/h.]]></desc>
</trkpt>
<trkpt lat="36.698103" lon="137.755393">
<ele>2562.779935</ele>
<time>2014-08-18T00:43:08Z</time>
<desc><![CDATA[lat.=36.698103, lon.=137.755393, Alt.=2562.779935m. Speed=1.000000m/h.]]></desc>
</trkpt>
<trkpt lat="36.698121" lon="137.755385">
<ele>2563.381578</ele>
<time>2014-08-18T00:43:13Z</time>
<desc><![CDATA[lat.=36.698121, lon.=137.755385, Alt.=2563.381578m. Speed=2.000000m/h.]]></desc>
</trkpt>
<trkpt lat="36.698118" lon="137.755378">
<ele>2562.190425</ele>
<time>2014-08-18T00:43:18Z</time>
<desc><![CDATA[lat.=36.698118, lon.=137.755378, Alt.=2562.190425m. Speed=0.000000m/h.]]></desc>
</trkpt>
<trkpt lat="36.698122" lon="137.755370">
<ele>2561.596871</ele>
<time>2014-08-18T00:43:23Z</time>
<desc><![CDATA[lat.=36.698122, lon.=137.755370, Alt.=2561.596871m. Speed=0.000000m/h.]]></desc>
</trkpt>
<trkpt lat="36.698115" lon="137.755370">
<ele>2560.999272</ele>
<time>2014-08-18T00:43:28Z</time>
<desc><![CDATA[lat.=36.698115, lon.=137.755370, Alt.=2560.999272m. Speed=1.000000m/h.]]></desc>
</trkpt>
<trkpt lat="36.698123" lon="137.755340">
<ele>2559.757656</ele>
<time>2014-08-18T00:43:33Z</time>
<desc><![CDATA[lat.=36.698123, lon.=137.755340, Alt.=2559.757656m. Speed=2.000000m/h.]]></desc>
</trkpt>
<trkpt lat="36.698121" lon="137.755300">
<ele>2558.457488</ele>
<time>2014-08-18T00:43:38Z</time>
<desc><![CDATA[lat.=36.698121, lon.=137.755300, Alt.=2558.457488m. Speed=2.000000m/h.]]></desc>
</trkpt>
<trkpt lat="36.698125" lon="137.755277">
<ele>2557.809427</ele>
<time>2014-08-18T00:43:43Z</time>
<desc><![CDATA[lat.=36.698125, lon.=137.755277, Alt.=2557.809427m. Speed=2.000000m/h.]]></desc>
</trkpt>
<trkpt lat="36.698155" lon="137.755295">
<ele>2555.063738</ele>
<time>2014-08-18T00:43:48Z</time>
<desc><![CDATA[lat.=36.698155, lon.=137.755295, Alt.=2555.063738m. Speed=2.000000m/h.]]></desc>
</trkpt>
<trkpt lat="36.698169" lon="137.755296">
<ele>2554.528739</ele>
<time>2014-08-18T00:43:53Z</time>
<desc><![CDATA[lat.=36.698169, lon.=137.755296, Alt.=2554.528739m. Speed=2.000000m/h.]]></desc>
</trkpt>
<trkpt lat="36.698206" lon="137.755313">
<ele>2554.110851</ele>
<time>2014-08-18T00:43:58Z</time>
<desc><![CDATA[lat.=36.698206, lon.=137.755313, Alt.=2554.110851m. Speed=2.000000m/h.]]></desc>
</trkpt>
<trkpt lat="36.698201" lon="137.755319">
<ele>2558.164799</ele>
<time>2014-08-18T00:44:03Z</time>
<desc><![CDATA[lat.=36.698201, lon.=137.755319, Alt.=2558.164799m. Speed=1.000000m/h.]]></desc>
</trkpt>
<trkpt lat="36.698216" lon="137.755304">
<ele>2557.575293</ele>
<time>2014-08-18T00:44:08Z</time>
<desc><![CDATA[lat.=36.698216, lon.=137.755304, Alt.=2557.575293m. Speed=1.000000m/h.]]></desc>
</trkpt>
<trkpt lat="36.698246" lon="137.755322">
<ele>2554.829610</ele>
<time>2014-08-18T00:44:13Z</time>
<desc><![CDATA[lat.=36.698246, lon.=137.755322, Alt.=2554.829610m. Speed=2.000000m/h.]]></desc>
</trkpt>
<trkpt lat="36.698260" lon="137.755306">
<ele>2557.700501</ele>
<time>2014-08-18T00:44:18Z</time>
<desc><![CDATA[lat.=36.698260, lon.=137.755306, Alt.=2557.700501m. Speed=1.000000m/h.]]></desc>
</trkpt>
<trkpt lat="36.698275" lon="137.755323">
<ele>2555.489816</ele>
<time>2014-08-18T00:44:23Z</time>
<desc><![CDATA[lat.=36.698275, lon.=137.755323, Alt.=2555.489816m. Speed=2.000000m/h.]]></desc>
</trkpt>
<trkpt lat="36.698298" lon="137.755309">
<ele>2553.767716</ele>
<time>2014-08-18T00:44:28Z</time>
<desc><![CDATA[lat.=36.698298, lon.=137.755309, Alt.=2553.767716m. Speed=2.000000m/h.]]></desc>
</trkpt>
<trkpt lat="36.698306" lon="137.755310">
<ele>2552.635120</ele>
<time>2014-08-18T00:44:33Z</time>
<desc><![CDATA[lat.=36.698306, lon.=137.755310, Alt.=2552.635120m. Speed=1.000000m/h.]]></desc>
</trkpt>
<trkpt lat="36.698318" lon="137.755288">
<ele>2549.124267</ele>
<time>2014-08-18T00:44:38Z</time>
<desc><![CDATA[lat.=36.698318, lon.=137.755288, Alt.=2549.124267m. Speed=2.000000m/h.]]></desc>
</trkpt>
<trkpt lat="36.698345" lon="137.755283">
<ele>2545.132928</ele>
<time>2014-08-18T00:44:43Z</time>
<desc><![CDATA[lat.=36.698345, lon.=137.755283, Alt.=2545.132928m. Speed=2.000000m/h.]]></desc>
</trkpt>
<trkpt lat="36.698371" lon="137.755277">
<ele>2542.871789</ele>
<time>2014-08-18T00:44:48Z</time>
<desc><![CDATA[lat.=36.698371, lon.=137.755277, Alt.=2542.871789m. Speed=2.000000m/h.]]></desc>
</trkpt>
<trkpt lat="36.698382" lon="137.755252">
<ele>2544.551531</ele>
<time>2014-08-18T00:44:53Z</time>
<desc><![CDATA[lat.=36.698382, lon.=137.755252, Alt.=2544.551531m. Speed=2.000000m/h.]]></desc>
</trkpt>
<trkpt lat="36.698416" lon="137.755262">
<ele>2542.942503</ele>
<time>2014-08-18T00:44:58Z</time>
<desc><![CDATA[lat.=36.698416, lon.=137.755262, Alt.=2542.942503m. Speed=2.000000m/h.]]></desc>
</trkpt>
<trkpt lat="36.698449" lon="137.755239">
<ele>2544.684859</ele>
<time>2014-08-18T00:45:03Z</time>
<desc><![CDATA[lat.=36.698449, lon.=137.755239, Alt.=2544.684859m. Speed=3.000000m/h.]]></desc>
</trkpt>
<trkpt lat="36.698476" lon="137.755201">
<ele>2544.044911</ele>
<time>2014-08-18T00:45:08Z</time>
<desc><![CDATA[lat.=36.698476, lon.=137.755201, Alt.=2544.044911m. Speed=2.000000m/h.]]></desc>
</trkpt>
<trkpt lat="36.698484" lon="137.755186">
<ele>2541.127614</ele>
<time>2014-08-18T00:45:13Z</time>
<desc><![CDATA[lat.=36.698484, lon.=137.755186, Alt.=2541.127614m. Speed=2.000000m/h.]]></desc>
</trkpt>
<trkpt lat="36.698503" lon="137.755164">
<ele>2539.944571</ele>
<time>2014-08-18T00:45:18Z</time>
<desc><![CDATA[lat.=36.698503, lon.=137.755164, Alt.=2539.944571m. Speed=2.000000m/h.]]></desc>
</trkpt>
<trkpt lat="36.698493" lon="137.755140">
<ele>2539.831507</ele>
<time>2014-08-18T00:45:23Z</time>
<desc><![CDATA[lat.=36.698493, lon.=137.755140, Alt.=2539.831507m. Speed=2.000000m/h.]]></desc>
</trkpt>
<trkpt lat="36.698515" lon="137.755140">
<ele>2539.894122</ele>
<time>2014-08-18T00:45:28Z</time>
<desc><![CDATA[lat.=36.698515, lon.=137.755140, Alt.=2539.894122m. Speed=2.000000m/h.]]></desc>
</trkpt>
<trkpt lat="36.698515" lon="137.755108">
<ele>2541.515311</ele>
<time>2014-08-18T00:45:33Z</time>
<desc><![CDATA[lat.=36.698515, lon.=137.755108, Alt.=2541.515311m. Speed=1.000000m/h.]]></desc>
</trkpt>
<trkpt lat="36.698527" lon="137.755086">
<ele>2539.734667</ele>
<time>2014-08-18T00:45:38Z</time>
<desc><![CDATA[lat.=36.698527, lon.=137.755086, Alt.=2539.734667m. Speed=2.000000m/h.]]></desc>
</trkpt>
<trkpt lat="36.698524" lon="137.755046">
<ele>2540.164706</ele>
<time>2014-08-18T00:45:43Z</time>
<desc><![CDATA[lat.=36.698524, lon.=137.755046, Alt.=2540.164706m. Speed=2.000000m/h.]]></desc>
</trkpt>
<trkpt lat="36.698533" lon="137.755016">
<ele>2535.462714</ele>
<time>2014-08-18T00:45:48Z</time>
<desc><![CDATA[lat.=36.698533, lon.=137.755016, Alt.=2535.462714m. Speed=2.000000m/h.]]></desc>
</trkpt>
<trkpt lat="36.698537" lon="137.755007">
<ele>2538.329562</ele>
<time>2014-08-18T00:45:53Z</time>
<desc><![CDATA[lat.=36.698537, lon.=137.755007, Alt.=2538.329562m. Speed=1.000000m/h.]]></desc>
</trkpt>
<trkpt lat="36.698533" lon="137.755016">
<ele>2537.192912</ele>
<time>2014-08-18T00:45:58Z</time>
<desc><![CDATA[lat.=36.698533, lon.=137.755016, Alt.=2537.192912m. Speed=0.000000m/h.]]></desc>
</trkpt>
<trkpt lat="36.698529" lon="137.755023">
<ele>2537.786459</ele>
<time>2014-08-18T00:46:03Z</time>
<desc><![CDATA[lat.=36.698529, lon.=137.755023, Alt.=2537.786459m. Speed=0.000000m/h.]]></desc>
</trkpt>
<trkpt lat="36.698529" lon="137.755007">
<ele>2539.462155</ele>
<time>2014-08-18T00:46:08Z</time>
<desc><![CDATA[lat.=36.698529, lon.=137.755007, Alt.=2539.462155m. Speed=1.000000m/h.]]></desc>
</trkpt>
<trkpt lat="36.698525" lon="137.755014">
<ele>2540.055702</ele>
<time>2014-08-18T00:46:13Z</time>
<desc><![CDATA[lat.=36.698525, lon.=137.755014, Alt.=2540.055702m. Speed=0.000000m/h.]]></desc>
</trkpt>
<trkpt lat="36.698532" lon="137.755014">
<ele>2540.653307</ele>
<time>2014-08-18T00:46:18Z</time>
<desc><![CDATA[lat.=36.698532, lon.=137.755014, Alt.=2540.653307m. Speed=0.000000m/h.]]></desc>
</trkpt>
<trkpt lat="36.698533" lon="137.755015">
<ele>2538.923109</ele>
<time>2014-08-18T00:46:23Z</time>
<desc><![CDATA[lat.=36.698533, lon.=137.755015, Alt.=2538.923109m. Speed=0.000000m/h.]]></desc>
</trkpt>
<trkpt lat="36.698537" lon="137.755007">
<ele>2538.329562</ele>
<time>2014-08-18T00:46:33Z</time>
<desc><![CDATA[lat.=36.698537, lon.=137.755007, Alt.=2538.329562m. Speed=0.000000m/h.]]></desc>
</trkpt>
<trkpt lat="36.698541" lon="137.755000">
<ele>2537.736015</ele>
<time>2014-08-18T00:46:38Z</time>
<desc><![CDATA[lat.=36.698541, lon.=137.755000, Alt.=2537.736015m. Speed=1.000000m/h.]]></desc>
</trkpt>
<trkpt lat="36.698545" lon="137.754976">
<ele>2537.087967</ele>
<time>2014-08-18T00:46:43Z</time>
<desc><![CDATA[lat.=36.698545, lon.=137.754976, Alt.=2537.087967m. Speed=1.000000m/h.]]></desc>
</trkpt>
<trkpt lat="36.698564" lon="137.754954">
<ele>2535.904931</ele>
<time>2014-08-18T00:46:48Z</time>
<desc><![CDATA[lat.=36.698564, lon.=137.754954, Alt.=2535.904931m. Speed=0.000000m/h.]]></desc>
</trkpt>
<trkpt lat="36.698568" lon="137.754963">
<ele>2533.635688</ele>
<time>2014-08-18T00:46:53Z</time>
<desc><![CDATA[lat.=36.698568, lon.=137.754963, Alt.=2533.635688m. Speed=0.000000m/h.]]></desc>
</trkpt>
<trkpt lat="36.698576" lon="137.754947">
<ele>2534.178792</ele>
<time>2014-08-18T00:46:58Z</time>
<desc><![CDATA[lat.=36.698576, lon.=137.754947, Alt.=2534.178792m. Speed=0.000000m/h.]]></desc>
</trkpt>
<trkpt lat="36.698569" lon="137.754931">
<ele>2533.526687</ele>
<time>2014-08-18T00:47:03Z</time>
<desc><![CDATA[lat.=36.698569, lon.=137.754931, Alt.=2533.526687m. Speed=1.000000m/h.]]></desc>
</trkpt>
<trkpt lat="36.698573" lon="137.754907">
<ele>2534.608839</ele>
<time>2014-08-18T00:47:08Z</time>
<desc><![CDATA[lat.=36.698573, lon.=137.754907, Alt.=2534.608839m. Speed=2.000000m/h.]]></desc>
</trkpt>
<trkpt lat="36.698573" lon="137.754876">
<ele>2534.499840</ele>
<time>2014-08-18T00:47:13Z</time>
<desc><![CDATA[lat.=36.698573, lon.=137.754876, Alt.=2534.499840m. Speed=2.000000m/h.]]></desc>
</trkpt>
<trkpt lat="36.698607" lon="137.754853">
<ele>2534.512020</ele>
<time>2014-08-18T00:47:18Z</time>
<desc><![CDATA[lat.=36.698607, lon.=137.754853, Alt.=2534.512020m. Speed=2.000000m/h.]]></desc>
</trkpt>
<trkpt lat="36.698618" lon="137.754846">
<ele>2534.516080</ele>
<time>2014-08-18T00:47:23Z</time>
<desc><![CDATA[lat.=36.698618, lon.=137.754846, Alt.=2534.516080m. Speed=2.000000m/h.]]></desc>
</trkpt>
<trkpt lat="36.698645" lon="137.754823">
<ele>2533.930658</ele>
<time>2014-08-18T00:47:28Z</time>
<desc><![CDATA[lat.=36.698645, lon.=137.754823, Alt.=2533.930658m. Speed=2.000000m/h.]]></desc>
</trkpt>
<trkpt lat="36.698664" lon="137.754817">
<ele>2531.071930</ele>
<time>2014-08-18T00:47:33Z</time>
<desc><![CDATA[lat.=36.698664, lon.=137.754817, Alt.=2531.071930m. Speed=2.000000m/h.]]></desc>
</trkpt>
<trkpt lat="36.698660" lon="137.754825">
<ele>2529.935277</ele>
<time>2014-08-18T00:47:38Z</time>
<desc><![CDATA[lat.=36.698660, lon.=137.754825, Alt.=2529.935277m. Speed=0.000000m/h.]]></desc>
</trkpt>
<trkpt lat="36.698664" lon="137.754817">
<ele>2531.071930</ele>
<time>2014-08-18T00:47:43Z</time>
<desc><![CDATA[lat.=36.698664, lon.=137.754817, Alt.=2531.071930m. Speed=0.000000m/h.]]></desc>
</trkpt>
<trkpt lat="36.698675" lon="137.754794">
<ele>2531.021495</ele>
<time>2014-08-18T00:47:48Z</time>
<desc><![CDATA[lat.=36.698675, lon.=137.754794, Alt.=2531.021495m. Speed=1.000000m/h.]]></desc>
</trkpt>
<trkpt lat="36.698679" lon="137.754786">
<ele>2530.427951</ele>
<time>2014-08-18T00:47:53Z</time>
<desc><![CDATA[lat.=36.698679, lon.=137.754786, Alt.=2530.427951m. Speed=1.000000m/h.]]></desc>
</trkpt>
<trkpt lat="36.698698" lon="137.754763">
<ele>2530.975124</ele>
<time>2014-08-18T00:47:58Z</time>
<desc><![CDATA[lat.=36.698698, lon.=137.754763, Alt.=2530.975124m. Speed=2.000000m/h.]]></desc>
</trkpt>
<trkpt lat="36.698717" lon="137.754756">
<ele>2529.846596</ele>
<time>2014-08-18T00:48:03Z</time>
<desc><![CDATA[lat.=36.698717, lon.=137.754756, Alt.=2529.846596m. Speed=1.000000m/h.]]></desc>
</trkpt>
<trkpt lat="36.698714" lon="137.754749">
<ele>2528.655446</ele>
<time>2014-08-18T00:48:09Z</time>
<desc><![CDATA[lat.=36.698714, lon.=137.754749, Alt.=2528.655446m. Speed=1.000000m/h.]]></desc>
</trkpt>
<trkpt lat="36.698725" lon="137.754725">
<ele>2528.605013</ele>
<time>2014-08-18T00:48:14Z</time>
<desc><![CDATA[lat.=36.698725, lon.=137.754725, Alt.=2528.605013m. Speed=2.000000m/h.]]></desc>
</trkpt>
<trkpt lat="36.698719" lon="137.754710">
<ele>2526.222713</ele>
<time>2014-08-18T00:48:19Z</time>
<desc><![CDATA[lat.=36.698719, lon.=137.754710, Alt.=2526.222713m. Speed=1.000000m/h.]]></desc>
</trkpt>
<trkpt lat="36.698720" lon="137.754679">
<ele>2526.113722</ele>
<time>2014-08-18T00:48:24Z</time>
<desc><![CDATA[lat.=36.698720, lon.=137.754679, Alt.=2526.113722m. Speed=2.000000m/h.]]></desc>
</trkpt>
<trkpt lat="36.698746" lon="137.754655">
<ele>2527.258507</ele>
<time>2014-08-18T00:48:29Z</time>
<desc><![CDATA[lat.=36.698746, lon.=137.754655, Alt.=2527.258507m. Speed=2.000000m/h.]]></desc>
</trkpt>
<trkpt lat="36.698760" lon="137.754639">
<ele>2528.399228</ele>
<time>2014-08-18T00:48:34Z</time>
<desc><![CDATA[lat.=36.698760, lon.=137.754639, Alt.=2528.399228m. Speed=2.000000m/h.]]></desc>
</trkpt>
<trkpt lat="36.698783" lon="137.754624">
<ele>2528.407360</ele>
<time>2014-08-18T00:48:39Z</time>
<desc><![CDATA[lat.=36.698783, lon.=137.754624, Alt.=2528.407360m. Speed=2.000000m/h.]]></desc>
</trkpt>
<trkpt lat="36.698798" lon="137.754609">
<ele>2527.817885</ele>
<time>2014-08-18T00:48:44Z</time>
<desc><![CDATA[lat.=36.698798, lon.=137.754609, Alt.=2527.817885m. Speed=2.000000m/h.]]></desc>
</trkpt>
<trkpt lat="36.698806" lon="137.754610">
<ele>2526.685296</ele>
<time>2014-08-18T00:48:49Z</time>
<desc><![CDATA[lat.=36.698806, lon.=137.754610, Alt.=2526.685296m. Speed=2.000000m/h.]]></desc>
</trkpt>
<trkpt lat="36.698810" lon="137.754587">
<ele>2526.037261</ele>
<time>2014-08-18T00:48:54Z</time>
<desc><![CDATA[lat.=36.698810, lon.=137.754587, Alt.=2526.037261m. Speed=2.000000m/h.]]></desc>
</trkpt>
<trkpt lat="36.698807" lon="137.754563">
<ele>2526.521817</ele>
<time>2014-08-18T00:48:59Z</time>
<desc><![CDATA[lat.=36.698807, lon.=137.754563, Alt.=2526.521817m. Speed=1.000000m/h.]]></desc>
</trkpt>
<trkpt lat="36.698826" lon="137.754556">
<ele>2525.393295</ele>
<time>2014-08-18T00:49:04Z</time>
<desc><![CDATA[lat.=36.698826, lon.=137.754556, Alt.=2525.393295m. Speed=2.000000m/h.]]></desc>
</trkpt>
<trkpt lat="36.698838" lon="137.754518">
<ele>2523.558181</ele>
<time>2014-08-18T00:49:09Z</time>
<desc><![CDATA[lat.=36.698838, lon.=137.754518, Alt.=2523.558181m. Speed=2.000000m/h.]]></desc>
</trkpt>
<trkpt lat="36.698846" lon="137.754503">
<ele>2520.640903</ele>
<time>2014-08-18T00:49:14Z</time>
<desc><![CDATA[lat.=36.698846, lon.=137.754503, Alt.=2520.640903m. Speed=2.000000m/h.]]></desc>
</trkpt>
<trkpt lat="36.698851" lon="137.754497">
<ele>2518.317165</ele>
<time>2014-08-18T00:49:19Z</time>
<desc><![CDATA[lat.=36.698851, lon.=137.754497, Alt.=2518.317165m. Speed=0.000000m/h.]]></desc>
</trkpt>
<trkpt lat="36.698861" lon="137.754504">
<ele>2520.105923</ele>
<time>2014-08-18T00:49:24Z</time>
<desc><![CDATA[lat.=36.698861, lon.=137.754504, Alt.=2520.105923m. Speed=0.000000m/h.]]></desc>
</trkpt>
<trkpt lat="36.698861" lon="137.754488">
<ele>2520.051432</ele>
<time>2014-08-18T00:49:29Z</time>
<desc><![CDATA[lat.=36.698861, lon.=137.754488, Alt.=2520.051432m. Speed=0.000000m/h.]]></desc>
</trkpt>
<trkpt lat="36.698853" lon="137.754487">
<ele>2522.914219</ele>
<time>2014-08-18T00:49:34Z</time>
<desc><![CDATA[lat.=36.698853, lon.=137.754487, Alt.=2522.914219m. Speed=0.000000m/h.]]></desc>
</trkpt>
<trkpt lat="36.698854" lon="137.754488">
<ele>2521.184021</ele>
<time>2014-08-18T00:49:39Z</time>
<desc><![CDATA[lat.=36.698854, lon.=137.754488, Alt.=2521.184021m. Speed=0.000000m/h.]]></desc>
</trkpt>
<trkpt lat="36.698869" lon="137.754488">
<ele>2520.649041</ele>
<time>2014-08-18T00:49:44Z</time>
<desc><![CDATA[lat.=36.698869, lon.=137.754488, Alt.=2520.649041m. Speed=1.000000m/h.]]></desc>
</trkpt>
<trkpt lat="36.698880" lon="137.754465">
<ele>2520.598620</ele>
<time>2014-08-18T00:49:49Z</time>
<desc><![CDATA[lat.=36.698880, lon.=137.754465, Alt.=2520.598620m. Speed=2.000000m/h.]]></desc>
</trkpt>
<trkpt lat="36.698915" lon="137.754444">
<ele>2517.150436</ele>
<time>2014-08-18T00:49:54Z</time>
<desc><![CDATA[lat.=36.698915, lon.=137.754444, Alt.=2517.150436m. Speed=2.000000m/h.]]></desc>
</trkpt>
<trkpt lat="36.698945" lon="137.754415">
<ele>2514.241303</ele>
<time>2014-08-18T00:49:59Z</time>
<desc><![CDATA[lat.=36.698945, lon.=137.754415, Alt.=2514.241303m. Speed=3.000000m/h.]]></desc>
</trkpt>
<trkpt lat="36.698957" lon="137.754375">
<ele>2514.136397</ele>
<time>2014-08-18T00:50:04Z</time>
<desc><![CDATA[lat.=36.698957, lon.=137.754375, Alt.=2514.136397m. Speed=2.000000m/h.]]></desc>
</trkpt>
<trkpt lat="36.698984" lon="137.754338">
<ele>2511.766318</ele>
<time>2014-08-18T00:50:09Z</time>
<desc><![CDATA[lat.=36.698984, lon.=137.754338, Alt.=2511.766318m. Speed=3.000000m/h.]]></desc>
</trkpt>
<trkpt lat="36.699011" lon="137.754315">
<ele>2512.911127</ele>
<time>2014-08-18T00:50:14Z</time>
<desc><![CDATA[lat.=36.699011, lon.=137.754315, Alt.=2512.911127m. Speed=3.000000m/h.]]></desc>
</trkpt>
<trkpt lat="36.699041" lon="137.754284">
<ele>2513.462400</ele>
<time>2014-08-18T00:50:19Z</time>
<desc><![CDATA[lat.=36.699041, lon.=137.754284, Alt.=2513.462400m. Speed=3.000000m/h.]]></desc>
</trkpt>
<trkpt lat="36.699073" lon="137.754276">
<ele>2515.259312</ele>
<time>2014-08-18T00:50:24Z</time>
<desc><![CDATA[lat.=36.699073, lon.=137.754276, Alt.=2515.259312m. Speed=3.000000m/h.]]></desc>
</trkpt>
<trkpt lat="36.699095" lon="137.754260">
<ele>2516.997662</ele>
<time>2014-08-18T00:50:29Z</time>
<desc><![CDATA[lat.=36.699095, lon.=137.754260, Alt.=2516.997662m. Speed=3.000000m/h.]]></desc>
</trkpt>
<trkpt lat="36.699115" lon="137.754239">
<ele>2514.084470</ele>
<time>2014-08-18T00:50:34Z</time>
<desc><![CDATA[lat.=36.699115, lon.=137.754239, Alt.=2514.084470m. Speed=2.000000m/h.]]></desc>
</trkpt>
<trkpt lat="36.699131" lon="137.754209">
<ele>2511.710328</ele>
<time>2014-08-18T00:50:39Z</time>
<desc><![CDATA[lat.=36.699131, lon.=137.754209, Alt.=2511.710328m. Speed=2.000000m/h.]]></desc>
</trkpt>
<trkpt lat="36.699158" lon="137.754187">
<ele>2507.664554</ele>
<time>2014-08-18T00:50:44Z</time>
<desc><![CDATA[lat.=36.699158, lon.=137.754187, Alt.=2507.664554m. Speed=2.000000m/h.]]></desc>
</trkpt>
<trkpt lat="36.699184" lon="137.754181">
<ele>2507.133662</ele>
<time>2014-08-18T00:50:49Z</time>
<desc><![CDATA[lat.=36.699184, lon.=137.754181, Alt.=2507.133662m. Speed=2.000000m/h.]]></desc>
</trkpt>
<trkpt lat="36.699187" lon="137.754187">
<ele>2510.055008</ele>
<time>2014-08-18T00:50:54Z</time>
<desc><![CDATA[lat.=36.699187, lon.=137.754187, Alt.=2510.055008m. Speed=0.000000m/h.]]></desc>
</trkpt>
<trkpt lat="36.699183" lon="137.754179">
<ele>2510.594058</ele>
<time>2014-08-18T00:51:00Z</time>
<desc><![CDATA[lat.=36.699183, lon.=137.754179, Alt.=2510.594058m. Speed=0.000000m/h.]]></desc>
</trkpt>
<trkpt lat="36.699209" lon="137.754172">
<ele>2511.793365</ele>
<time>2014-08-18T00:51:05Z</time>
<desc><![CDATA[lat.=36.699209, lon.=137.754172, Alt.=2511.793365m. Speed=2.000000m/h.]]></desc>
</trkpt>
<trkpt lat="36.699202" lon="137.754172">
<ele>2511.195751</ele>
<time>2014-08-18T00:51:10Z</time>
<desc><![CDATA[lat.=36.699202, lon.=137.754172, Alt.=2511.195751m. Speed=0.000000m/h.]]></desc>
</trkpt>
<trkpt lat="36.699195" lon="137.754172">
<ele>2510.598137</ele>
<time>2014-08-18T00:51:15Z</time>
<desc><![CDATA[lat.=36.699195, lon.=137.754172, Alt.=2510.598137m. Speed=0.000000m/h.]]></desc>
</trkpt>
<trkpt lat="36.699194" lon="137.754171">
<ele>2512.328335</ele>
<time>2014-08-18T00:51:20Z</time>
<desc><![CDATA[lat.=36.699194, lon.=137.754171, Alt.=2512.328335m. Speed=0.000000m/h.]]></desc>
</trkpt>
<trkpt lat="36.699165" lon="137.754170">
<ele>2511.668078</ele>
<time>2014-08-18T00:51:25Z</time>
<desc><![CDATA[lat.=36.699165, lon.=137.754170, Alt.=2511.668078m. Speed=2.000000m/h.]]></desc>
</trkpt>
<trkpt lat="36.699161" lon="137.754178">
<ele>2510.531415</ele>
<time>2014-08-18T00:51:30Z</time>
<desc><![CDATA[lat.=36.699161, lon.=137.754178, Alt.=2510.531415m. Speed=1.000000m/h.]]></desc>
</trkpt>
<trkpt lat="36.699168" lon="137.754178">
<ele>2512.859226</ele>
<time>2014-08-18T00:51:35Z</time>
<desc><![CDATA[lat.=36.699168, lon.=137.754178, Alt.=2512.859226m. Speed=0.000000m/h.]]></desc>
</trkpt>
<trkpt lat="36.699165" lon="137.754169">
<ele>2513.398276</ele>
<time>2014-08-18T00:51:41Z</time>
<desc><![CDATA[lat.=36.699165, lon.=137.754169, Alt.=2513.398276m. Speed=0.000000m/h.]]></desc>
</trkpt>
<trkpt lat="36.699172" lon="137.754169">
<ele>2513.995890</ele>
<time>2014-08-18T00:51:46Z</time>
<desc><![CDATA[lat.=36.699172, lon.=137.754169, Alt.=2513.995890m. Speed=0.000000m/h.]]></desc>
</trkpt>
<trkpt lat="36.699168" lon="137.754178">
<ele>2512.859226</ele>
<time>2014-08-18T00:51:55Z</time>
<desc><![CDATA[lat.=36.699168, lon.=137.754178, Alt.=2512.859226m. Speed=0.000000m/h.]]></desc>
</trkpt>
<trkpt lat="36.699164" lon="137.754185">
<ele>2513.452761</ele>
<time>2014-08-18T00:52:00Z</time>
<desc><![CDATA[lat.=36.699164, lon.=137.754185, Alt.=2513.452761m. Speed=0.000000m/h.]]></desc>
</trkpt>
<trkpt lat="36.699157" lon="137.754185">
<ele>2512.855148</ele>
<time>2014-08-18T00:52:19Z</time>
<desc><![CDATA[lat.=36.699157, lon.=137.754185, Alt.=2512.855148m. Speed=0.000000m/h.]]></desc>
</trkpt>
<trkpt lat="36.699164" lon="137.754185">
<ele>2513.452761</ele>
<time>2014-08-18T00:52:24Z</time>
<desc><![CDATA[lat.=36.699164, lon.=137.754185, Alt.=2513.452761m. Speed=0.000000m/h.]]></desc>
</trkpt>
<trkpt lat="36.699161" lon="137.754177">
<ele>2513.991811</ele>
<time>2014-08-18T00:52:35Z</time>
<desc><![CDATA[lat.=36.699161, lon.=137.754177, Alt.=2513.991811m. Speed=0.000000m/h.]]></desc>
</trkpt>
<trkpt lat="36.699164" lon="137.754185">
<ele>2513.452761</ele>
<time>2014-08-18T00:52:53Z</time>
<desc><![CDATA[lat.=36.699164, lon.=137.754185, Alt.=2513.452761m. Speed=0.000000m/h.]]></desc>
</trkpt>
<trkpt lat="36.699168" lon="137.754178">
<ele>2512.859226</ele>
<time>2014-08-18T00:53:26Z</time>
<desc><![CDATA[lat.=36.699168, lon.=137.754178, Alt.=2512.859226m. Speed=1.000000m/h.]]></desc>
</trkpt>
<trkpt lat="36.699188" lon="137.754139">
<ele>2511.621753</ele>
<time>2014-08-18T00:53:31Z</time>
<desc><![CDATA[lat.=36.699188, lon.=137.754139, Alt.=2511.621753m. Speed=2.000000m/h.]]></desc>
</trkpt>
<trkpt lat="36.699212" lon="137.754094">
<ele>2508.060550</ele>
<time>2014-08-18T00:53:36Z</time>
<desc><![CDATA[lat.=36.699212, lon.=137.754094, Alt.=2508.060550m. Speed=3.000000m/h.]]></desc>
</trkpt>
<trkpt lat="36.699220" lon="137.754048">
<ele>2506.764518</ele>
<time>2014-08-18T00:53:41Z</time>
<desc><![CDATA[lat.=36.699220, lon.=137.754048, Alt.=2506.764518m. Speed=3.000000m/h.]]></desc>
</trkpt>
<trkpt lat="36.699217" lon="137.754024">
<ele>2505.518889</ele>
<time>2014-08-18T00:53:46Z</time>
<desc><![CDATA[lat.=36.699217, lon.=137.754024, Alt.=2505.518889m. Speed=3.000000m/h.]]></desc>
</trkpt>
<trkpt lat="36.699256" lon="137.753996">
<ele>2501.477207</ele>
<time>2014-08-18T00:53:51Z</time>
<desc><![CDATA[lat.=36.699256, lon.=137.753996, Alt.=2501.477207m. Speed=3.000000m/h.]]></desc>
</trkpt>
<trkpt lat="36.699271" lon="137.753947">
<ele>2504.239193</ele>
<time>2014-08-18T00:53:56Z</time>
<desc><![CDATA[lat.=36.699271, lon.=137.753947, Alt.=2504.239193m. Speed=2.000000m/h.]]></desc>
</trkpt>
<trkpt lat="36.699290" lon="137.753924">
<ele>2504.786412</ele>
<time>2014-08-18T00:54:01Z</time>
<desc><![CDATA[lat.=36.699290, lon.=137.753924, Alt.=2504.786412m. Speed=2.000000m/h.]]></desc>
</trkpt>
<trkpt lat="36.699298" lon="137.753893">
<ele>2503.544870</ele>
<time>2014-08-18T00:54:06Z</time>
<desc><![CDATA[lat.=36.699298, lon.=137.753893, Alt.=2503.544870m. Speed=2.000000m/h.]]></desc>
</trkpt>
<trkpt lat="36.699292" lon="137.753878">
<ele>2501.162578</ele>
<time>2014-08-18T00:54:11Z</time>
<desc><![CDATA[lat.=36.699292, lon.=137.753878, Alt.=2501.162578m. Speed=1.000000m/h.]]></desc>
</trkpt>
<trkpt lat="36.699288" lon="137.753870">
<ele>2501.701630</ele>
<time>2014-08-18T00:54:16Z</time>
<desc><![CDATA[lat.=36.699288, lon.=137.753870, Alt.=2501.701630m. Speed=0.000000m/h.]]></desc>
</trkpt>
<trkpt lat="36.699296" lon="137.753838">
<ele>2502.190289</ele>
<time>2014-08-18T00:54:21Z</time>
<desc><![CDATA[lat.=36.699296, lon.=137.753838, Alt.=2502.190289m. Speed=1.000000m/h.]]></desc>
</trkpt>
<trkpt lat="36.699319" lon="137.753824">
<ele>2500.468261</ele>
<time>2014-08-18T00:54:26Z</time>
<desc><![CDATA[lat.=36.699319, lon.=137.753824, Alt.=2500.468261m. Speed=1.000000m/h.]]></desc>
</trkpt>
<trkpt lat="36.699316" lon="137.753817">
<ele>2499.277115</ele>
<time>2014-08-18T00:54:31Z</time>
<desc><![CDATA[lat.=36.699316, lon.=137.753817, Alt.=2499.277115m. Speed=0.000000m/h.]]></desc>
</trkpt>
<trkpt lat="36.699313" lon="137.753793">
<ele>2498.031493</ele>
<time>2014-08-18T00:54:36Z</time>
<desc><![CDATA[lat.=36.699313, lon.=137.753793, Alt.=2498.031493m. Speed=1.000000m/h.]]></desc>
</trkpt>
<trkpt lat="36.699287" lon="137.753768">
<ele>2498.453421</ele>
<time>2014-08-18T00:54:41Z</time>
<desc><![CDATA[lat.=36.699287, lon.=137.753768, Alt.=2498.453421m. Speed=1.000000m/h.]]></desc>
</trkpt>
<trkpt lat="36.699296" lon="137.753738">
<ele>2497.211886</ele>
<time>2014-08-18T00:54:46Z</time>
<desc><![CDATA[lat.=36.699296, lon.=137.753738, Alt.=2497.211886m. Speed=1.000000m/h.]]></desc>
</trkpt>
<trkpt lat="36.699296" lon="137.753723">
<ele>2495.427211</ele>
<time>2014-08-18T00:54:51Z</time>
<desc><![CDATA[lat.=36.699296, lon.=137.753723, Alt.=2495.427211m. Speed=1.000000m/h.]]></desc>
</trkpt>
<trkpt lat="36.699293" lon="137.753715">
<ele>2494.236067</ele>
<time>2014-08-18T00:54:56Z</time>
<desc><![CDATA[lat.=36.699293, lon.=137.753715, Alt.=2494.236067m. Speed=1.000000m/h.]]></desc>
</trkpt>
<trkpt lat="36.699297" lon="137.753690">
<ele>2497.048459</ele>
<time>2014-08-18T00:55:01Z</time>
<desc><![CDATA[lat.=36.699297, lon.=137.753690, Alt.=2497.048459m. Speed=0.000000m/h.]]></desc>
</trkpt>
<trkpt lat="36.699294" lon="137.753650">
<ele>2497.478564</ele>
<time>2014-08-18T00:55:06Z</time>
<desc><![CDATA[lat.=36.699294, lon.=137.753650, Alt.=2497.478564m. Speed=0.000000m/h.]]></desc>
</trkpt>
<trkpt lat="36.699297" lon="137.753642">
<ele>2498.615234</ele>
<time>2014-08-18T00:55:11Z</time>
<desc><![CDATA[lat.=36.699297, lon.=137.753642, Alt.=2498.615234m. Speed=1.000000m/h.]]></desc>
</trkpt>
<trkpt lat="36.699320" lon="137.753628">
<ele>2496.893210</ele>
<time>2014-08-18T00:55:16Z</time>
<desc><![CDATA[lat.=36.699320, lon.=137.753628, Alt.=2496.893210m. Speed=2.000000m/h.]]></desc>
</trkpt>
<trkpt lat="36.699354" lon="137.753622">
<ele>2495.229748</ele>
<time>2014-08-18T00:55:21Z</time>
<desc><![CDATA[lat.=36.699354, lon.=137.753622, Alt.=2495.229748m. Speed=2.000000m/h.]]></desc>
</trkpt>
<trkpt lat="36.699377" lon="137.753607">
<ele>2493.507727</ele>
<time>2014-08-18T00:55:26Z</time>
<desc><![CDATA[lat.=36.699377, lon.=137.753607, Alt.=2493.507727m. Speed=2.000000m/h.]]></desc>
</trkpt>
<trkpt lat="36.699374" lon="137.753584">
<ele>2492.262110</ele>
<time>2014-08-18T00:55:31Z</time>
<desc><![CDATA[lat.=36.699374, lon.=137.753584, Alt.=2492.262110m. Speed=2.000000m/h.]]></desc>
</trkpt>
<trkpt lat="36.699397" lon="137.753555">
<ele>2488.755419</ele>
<time>2014-08-18T00:55:36Z</time>
<desc><![CDATA[lat.=36.699397, lon.=137.753555, Alt.=2488.755419m. Speed=2.000000m/h.]]></desc>
</trkpt>
<trkpt lat="36.699416" lon="137.753531">
<ele>2491.032853</ele>
<time>2014-08-18T00:55:41Z</time>
<desc><![CDATA[lat.=36.699416, lon.=137.753531, Alt.=2491.032853m. Speed=2.000000m/h.]]></desc>
</trkpt>
<trkpt lat="36.699431" lon="137.753516">
<ele>2488.713218</ele>
<time>2014-08-18T00:55:46Z</time>
<desc><![CDATA[lat.=36.699431, lon.=137.753516, Alt.=2488.713218m. Speed=2.000000m/h.]]></desc>
</trkpt>
<trkpt lat="36.699457" lon="137.753510">
<ele>2488.182346</ele>
<time>2014-08-18T00:55:51Z</time>
<desc><![CDATA[lat.=36.699457, lon.=137.753510, Alt.=2488.182346m. Speed=2.000000m/h.]]></desc>
</trkpt>
<trkpt lat="36.699472" lon="137.753510">
<ele>2487.647383</ele>
<time>2014-08-18T00:55:56Z</time>
<desc><![CDATA[lat.=36.699472, lon.=137.753510, Alt.=2487.647383m. Speed=2.000000m/h.]]></desc>
</trkpt>
<trkpt lat="36.699502" lon="137.753496">
<ele>2486.522987</ele>
<time>2014-08-18T00:56:01Z</time>
<desc><![CDATA[lat.=36.699502, lon.=137.753496, Alt.=2486.522987m. Speed=2.000000m/h.]]></desc>
</trkpt>
<trkpt lat="36.699525" lon="137.753465">
<ele>2486.476702</ele>
<time>2014-08-18T00:56:06Z</time>
<desc><![CDATA[lat.=36.699525, lon.=137.753465, Alt.=2486.476702m. Speed=2.000000m/h.]]></desc>
</trkpt>
<trkpt lat="36.699547" lon="137.753450">
<ele>2488.215088</ele>
<time>2014-08-18T00:56:11Z</time>
<desc><![CDATA[lat.=36.699547, lon.=137.753450, Alt.=2488.215088m. Speed=2.000000m/h.]]></desc>
</trkpt>
<trkpt lat="36.699577" lon="137.753403">
<ele>2488.711957</ele>
<time>2014-08-18T00:56:16Z</time>
<desc><![CDATA[lat.=36.699577, lon.=137.753403, Alt.=2488.711957m. Speed=3.000000m/h.]]></desc>
</trkpt>
<trkpt lat="36.699607" lon="137.753372">
<ele>2489.263299</ele>
<time>2014-08-18T00:56:21Z</time>
<desc><![CDATA[lat.=36.699607, lon.=137.753372, Alt.=2489.263299m. Speed=3.000000m/h.]]></desc>
</trkpt>
<trkpt lat="36.699605" lon="137.753332">
<ele>2489.693418</ele>
<time>2014-08-18T00:56:26Z</time>
<desc><![CDATA[lat.=36.699605, lon.=137.753332, Alt.=2489.693418m. Speed=3.000000m/h.]]></desc>
</trkpt>
<trkpt lat="36.699584" lon="137.753301">
<ele>2487.791625</ele>
<time>2014-08-18T00:56:31Z</time>
<desc><![CDATA[lat.=36.699584, lon.=137.753301, Alt.=2487.791625m. Speed=2.000000m/h.]]></desc>
</trkpt>
<trkpt lat="36.699602" lon="137.753277">
<ele>2488.338874</ele>
<time>2014-08-18T00:56:36Z</time>
<desc><![CDATA[lat.=36.699602, lon.=137.753277, Alt.=2488.338874m. Speed=2.000000m/h.]]></desc>
</trkpt>
<trkpt lat="36.699607" lon="137.753238">
<ele>2487.636419</ele>
<time>2014-08-18T00:56:41Z</time>
<desc><![CDATA[lat.=36.699607, lon.=137.753238, Alt.=2487.636419m. Speed=2.000000m/h.]]></desc>
</trkpt>
<trkpt lat="36.699626" lon="137.753231">
<ele>2486.507938</ele>
<time>2014-08-18T00:56:46Z</time>
<desc><![CDATA[lat.=36.699626, lon.=137.753231, Alt.=2486.507938m. Speed=2.000000m/h.]]></desc>
</trkpt>
<trkpt lat="36.699634" lon="137.753216">
<ele>2487.051092</ele>
<time>2014-08-18T00:56:51Z</time>
<desc><![CDATA[lat.=36.699634, lon.=137.753216, Alt.=2487.051092m. Speed=1.000000m/h.]]></desc>
</trkpt>
<trkpt lat="36.699634" lon="137.753199">
<ele>2488.726825</ele>
<time>2014-08-18T00:56:56Z</time>
<desc><![CDATA[lat.=36.699634, lon.=137.753199, Alt.=2488.726825m. Speed=0.000000m/h.]]></desc>
</trkpt>
<trkpt lat="36.699634" lon="137.753216">
<ele>2487.051092</ele>
<time>2014-08-18T00:57:01Z</time>
<desc><![CDATA[lat.=36.699634, lon.=137.753216, Alt.=2487.051092m. Speed=0.000000m/h.]]></desc>
</trkpt>
<trkpt lat="36.699611" lon="137.753215">
<ele>2486.988431</ele>
<time>2014-08-18T00:57:06Z</time>
<desc><![CDATA[lat.=36.699611, lon.=137.753215, Alt.=2486.988431m. Speed=0.000000m/h.]]></desc>
</trkpt>
<trkpt lat="36.699612" lon="137.753216">
<ele>2485.258232</ele>
<time>2014-08-18T00:57:11Z</time>
<desc><![CDATA[lat.=36.699612, lon.=137.753216, Alt.=2485.258232m. Speed=0.000000m/h.]]></desc>
</trkpt>
<trkpt lat="36.699605" lon="137.753216">
<ele>2484.660613</ele>
<time>2014-08-18T00:57:16Z</time>
<desc><![CDATA[lat.=36.699605, lon.=137.753216, Alt.=2484.660613m. Speed=1.000000m/h.]]></desc>
</trkpt>
<trkpt lat="36.699583" lon="137.753199">
<ele>2484.543488</ele>
<time>2014-08-18T00:57:21Z</time>
<desc><![CDATA[lat.=36.699583, lon.=137.753199, Alt.=2484.543488m. Speed=1.000000m/h.]]></desc>
</trkpt>
<trkpt lat="36.699558" lon="137.753175">
<ele>2483.235223</ele>
<time>2014-08-18T00:57:26Z</time>
<desc><![CDATA[lat.=36.699558, lon.=137.753175, Alt.=2483.235223m. Speed=2.000000m/h.]]></desc>
</trkpt>
<trkpt lat="36.699581" lon="137.753144">
<ele>2483.188953</ele>
<time>2014-08-18T00:57:31Z</time>
<desc><![CDATA[lat.=36.699581, lon.=137.753144, Alt.=2483.188953m. Speed=3.000000m/h.]]></desc>
</trkpt>
<trkpt lat="36.699604" lon="137.753130">
<ele>2481.466950</ele>
<time>2014-08-18T00:57:36Z</time>
<desc><![CDATA[lat.=36.699604, lon.=137.753130, Alt.=2481.466950m. Speed=2.000000m/h.]]></desc>
</trkpt>
<trkpt lat="36.699601" lon="137.753106">
<ele>2480.221346</ele>
<time>2014-08-18T00:57:41Z</time>
<desc><![CDATA[lat.=36.699601, lon.=137.753106, Alt.=2480.221346m. Speed=2.000000m/h.]]></desc>
</trkpt>
<trkpt lat="36.699627" lon="137.753083">
<ele>2481.366221</ele>
<time>2014-08-18T00:57:46Z</time>
<desc><![CDATA[lat.=36.699627, lon.=137.753083, Alt.=2481.366221m. Speed=2.000000m/h.]]></desc>
</trkpt>
<trkpt lat="36.699646" lon="137.753060">
<ele>2481.913478</ele>
<time>2014-08-18T00:57:51Z</time>
<desc><![CDATA[lat.=36.699646, lon.=137.753060, Alt.=2481.913478m. Speed=3.000000m/h.]]></desc>
</trkpt>
<trkpt lat="36.699680" lon="137.753022">
<ele>2480.141118</ele>
<time>2014-08-18T00:57:56Z</time>
<desc><![CDATA[lat.=36.699680, lon.=137.753022, Alt.=2480.141118m. Speed=3.000000m/h.]]></desc>
</trkpt>
<trkpt lat="36.699699" lon="137.752999">
<ele>2480.688379</ele>
<time>2014-08-18T00:58:01Z</time>
<desc><![CDATA[lat.=36.699699, lon.=137.752999, Alt.=2480.688379m. Speed=3.000000m/h.]]></desc>
</trkpt>
<trkpt lat="36.699714" lon="137.752968">
<ele>2480.044501</ele>
<time>2014-08-18T00:58:06Z</time>
<desc><![CDATA[lat.=36.699714, lon.=137.752968, Alt.=2480.044501m. Speed=3.000000m/h.]]></desc>
</trkpt>
<trkpt lat="36.699737" lon="137.752921">
<ele>2479.943787</ele>
<time>2014-08-18T00:58:11Z</time>
<desc><![CDATA[lat.=36.699737, lon.=137.752921, Alt.=2479.943787m. Speed=3.000000m/h.]]></desc>
</trkpt>
<trkpt lat="36.699735" lon="137.752866">
<ele>2478.589270</ele>
<time>2014-08-18T00:58:16Z</time>
<desc><![CDATA[lat.=36.699735, lon.=137.752866, Alt.=2478.589270m. Speed=4.000000m/h.]]></desc>
</trkpt>
<trkpt lat="36.699742" lon="137.752814">
<ele>2472.641782</ele>
<time>2014-08-18T00:58:21Z</time>
<desc><![CDATA[lat.=36.699742, lon.=137.752814, Alt.=2472.641782m. Speed=3.000000m/h.]]></desc>
</trkpt>
<trkpt lat="36.699769" lon="137.752777">
<ele>2468.541620</ele>
<time>2014-08-18T00:58:26Z</time>
<desc><![CDATA[lat.=36.699769, lon.=137.752777, Alt.=2468.541620m. Speed=3.000000m/h.]]></desc>
</trkpt>
<trkpt lat="36.699773" lon="137.752737">
<ele>2469.569390</ele>
<time>2014-08-18T00:58:31Z</time>
<desc><![CDATA[lat.=36.699773, lon.=137.752737, Alt.=2469.569390m. Speed=3.000000m/h.]]></desc>
</trkpt>
<trkpt lat="36.699804" lon="137.752707">
<ele>2468.390570</ele>
<time>2014-08-18T00:58:36Z</time>
<desc><![CDATA[lat.=36.699804, lon.=137.752707, Alt.=2468.390570m. Speed=3.000000m/h.]]></desc>
</trkpt>
<trkpt lat="36.699816" lon="137.752636">
<ele>2468.176859</ele>
<time>2014-08-18T00:58:41Z</time>
<desc><![CDATA[lat.=36.699816, lon.=137.752636, Alt.=2468.176859m. Speed=3.000000m/h.]]></desc>
</trkpt>
<trkpt lat="36.699821" lon="137.752597">
<ele>2467.474437</ele>
<time>2014-08-18T00:58:46Z</time>
<desc><![CDATA[lat.=36.699821, lon.=137.752597, Alt.=2467.474437m. Speed=3.000000m/h.]]></desc>
</trkpt>
<trkpt lat="36.699825" lon="137.752572">
<ele>2470.286868</ele>
<time>2014-08-18T00:58:51Z</time>
<desc><![CDATA[lat.=36.699825, lon.=137.752572, Alt.=2470.286868m. Speed=3.000000m/h.]]></desc>
</trkpt>
<trkpt lat="36.699819" lon="137.752525">
<ele>2469.525889</ele>
<time>2014-08-18T00:58:56Z</time>
<desc><![CDATA[lat.=36.699819, lon.=137.752525, Alt.=2469.525889m. Speed=3.000000m/h.]]></desc>
</trkpt>
<trkpt lat="36.699812" lon="137.752494">
<ele>2467.089165</ele>
<time>2014-08-18T00:59:01Z</time>
<desc><![CDATA[lat.=36.699812, lon.=137.752494, Alt.=2467.089165m. Speed=3.000000m/h.]]></desc>
</trkpt>
<trkpt lat="36.699795" lon="137.752437">
<ele>2469.730030</ele>
<time>2014-08-18T00:59:06Z</time>
<desc><![CDATA[lat.=36.699795, lon.=137.752437, Alt.=2469.730030m. Speed=3.000000m/h.]]></desc>
</trkpt>
<trkpt lat="36.699799" lon="137.752381">
<ele>2470.703369</ele>
<time>2014-08-18T00:59:11Z</time>
<desc><![CDATA[lat.=36.699799, lon.=137.752381, Alt.=2470.703369m. Speed=3.000000m/h.]]></desc>
</trkpt>
<trkpt lat="36.699796" lon="137.752341">
<ele>2472.863736</ele>
<time>2014-08-18T00:59:16Z</time>
<desc><![CDATA[lat.=36.699796, lon.=137.752341, Alt.=2472.863736m. Speed=3.000000m/h.]]></desc>
</trkpt>
<trkpt lat="36.699815" lon="137.752318">
<ele>2471.680821</ele>
<time>2014-08-18T00:59:21Z</time>
<desc><![CDATA[lat.=36.699815, lon.=137.752318, Alt.=2471.680821m. Speed=3.000000m/h.]]></desc>
</trkpt>
<trkpt lat="36.699828" lon="137.752281">
<ele>2466.385440</ele>
<time>2014-08-18T00:59:26Z</time>
<desc><![CDATA[lat.=36.699828, lon.=137.752281, Alt.=2466.385440m. Speed=2.000000m/h.]]></desc>
</trkpt>
<trkpt lat="36.699809" lon="137.752253">
<ele>2474.325810</ele>
<time>2014-08-18T00:59:31Z</time>
<desc><![CDATA[lat.=36.699809, lon.=137.752253, Alt.=2474.325810m. Speed=2.000000m/h.]]></desc>
</trkpt>
<trkpt lat="36.699810" lon="137.752223">
<ele>2470.756519</ele>
<time>2014-08-18T00:59:36Z</time>
<desc><![CDATA[lat.=36.699810, lon.=137.752223, Alt.=2470.756519m. Speed=2.000000m/h.]]></desc>
</trkpt>
<trkpt lat="36.699818" lon="137.752191">
<ele>2472.975451</ele>
<time>2014-08-18T00:59:41Z</time>
<desc><![CDATA[lat.=36.699818, lon.=137.752191, Alt.=2472.975451m. Speed=3.000000m/h.]]></desc>
</trkpt>
<trkpt lat="36.699803" lon="137.752173">
<ele>2475.186160</ele>
<time>2014-08-18T00:59:46Z</time>
<desc><![CDATA[lat.=36.699803, lon.=137.752173, Alt.=2475.186160m. Speed=2.000000m/h.]]></desc>
</trkpt>
<trkpt lat="36.699803" lon="137.752156">
<ele>2478.592114</ele>
<time>2014-08-18T00:59:51Z</time>
<desc><![CDATA[lat.=36.699803, lon.=137.752156, Alt.=2478.592114m. Speed=2.000000m/h.]]></desc>
</trkpt>
<trkpt lat="36.699826" lon="137.752143">
<ele>2475.139939</ele>
<time>2014-08-18T00:59:56Z</time>
<desc><![CDATA[lat.=36.699826, lon.=137.752143, Alt.=2475.139939m. Speed=2.000000m/h.]]></desc>
</trkpt>
<trkpt lat="36.699834" lon="137.752111">
<ele>2475.628675</ele>
<time>2014-08-18T01:00:01Z</time>
<desc><![CDATA[lat.=36.699834, lon.=137.752111, Alt.=2475.628675m. Speed=2.000000m/h.]]></desc>
</trkpt>
<trkpt lat="36.699827" lon="137.752079">
<ele>2474.922166</ele>
<time>2014-08-18T01:00:06Z</time>
<desc><![CDATA[lat.=36.699827, lon.=137.752079, Alt.=2474.922166m. Speed=2.000000m/h.]]></desc>
</trkpt>
<trkpt lat="36.699828" lon="137.752049">
<ele>2473.083081</ele>
<time>2014-08-18T01:00:11Z</time>
<desc><![CDATA[lat.=36.699828, lon.=137.752049, Alt.=2473.083081m. Speed=2.000000m/h.]]></desc>
</trkpt>
<trkpt lat="36.699844" lon="137.752002">
<ele>2472.384802</ele>
<time>2014-08-18T01:00:16Z</time>
<desc><![CDATA[lat.=36.699844, lon.=137.752002, Alt.=2472.384802m. Speed=2.000000m/h.]]></desc>
</trkpt>
<trkpt lat="36.699852" lon="137.751970">
<ele>2474.603743</ele>
<time>2014-08-18T01:00:21Z</time>
<desc><![CDATA[lat.=36.699852, lon.=137.751970, Alt.=2474.603743m. Speed=2.000000m/h.]]></desc>
</trkpt>
<trkpt lat="36.699871" lon="137.751930">
<ele>2476.826801</ele>
<time>2014-08-18T01:00:26Z</time>
<desc><![CDATA[lat.=36.699871, lon.=137.751930, Alt.=2476.826801m. Speed=2.000000m/h.]]></desc>
</trkpt>
<trkpt lat="36.699878" lon="137.751914">
<ele>2477.369984</ele>
<time>2014-08-18T01:00:31Z</time>
<desc><![CDATA[lat.=36.699878, lon.=137.751914, Alt.=2477.369984m. Speed=2.000000m/h.]]></desc>
</trkpt>
<trkpt lat="36.699894" lon="137.751900">
<ele>2475.050393</ele>
<time>2014-08-18T01:00:36Z</time>
<desc><![CDATA[lat.=36.699894, lon.=137.751900, Alt.=2475.050393m. Speed=2.000000m/h.]]></desc>
</trkpt>
<trkpt lat="36.699899" lon="137.751877">
<ele>2472.672247</ele>
<time>2014-08-18T01:00:41Z</time>
<desc><![CDATA[lat.=36.699899, lon.=137.751877, Alt.=2472.672247m. Speed=2.000000m/h.]]></desc>
</trkpt>
<trkpt lat="36.699899" lon="137.751845">
<ele>2472.563370</ele>
<time>2014-08-18T01:00:46Z</time>
<desc><![CDATA[lat.=36.699899, lon.=137.751845, Alt.=2472.563370m. Speed=2.000000m/h.]]></desc>
</trkpt>
<trkpt lat="36.699883" lon="137.751791">
<ele>2470.013680</ele>
<time>2014-08-18T01:00:51Z</time>
<desc><![CDATA[lat.=36.699883, lon.=137.751791, Alt.=2470.013680m. Speed=2.000000m/h.]]></desc>
</trkpt>
<trkpt lat="36.699876" lon="137.751791">
<ele>2469.416056</ele>
<time>2014-08-18T01:00:56Z</time>
<desc><![CDATA[lat.=36.699876, lon.=137.751791, Alt.=2469.416056m. Speed=2.000000m/h.]]></desc>
</trkpt>
<trkpt lat="36.699912" lon="137.751792">
<ele>2468.943775</ele>
<time>2014-08-18T01:01:01Z</time>
<desc><![CDATA[lat.=36.699912, lon.=137.751792, Alt.=2468.943775m. Speed=1.000000m/h.]]></desc>
</trkpt>
<trkpt lat="36.699920" lon="137.751792">
<ele>2469.541399</ele>
<time>2014-08-18T01:01:06Z</time>
<desc><![CDATA[lat.=36.699920, lon.=137.751792, Alt.=2469.541399m. Speed=2.000000m/h.]]></desc>
</trkpt>
<trkpt lat="36.699938" lon="137.751784">
<ele>2471.873341</ele>
<time>2014-08-18T01:01:11Z</time>
<desc><![CDATA[lat.=36.699938, lon.=137.751784, Alt.=2471.873341m. Speed=2.000000m/h.]]></desc>
</trkpt>
<trkpt lat="36.699967" lon="137.751801">
<ele>2470.857877</ele>
<time>2014-08-18T01:01:16Z</time>
<desc><![CDATA[lat.=36.699967, lon.=137.751801, Alt.=2470.857877m. Speed=2.000000m/h.]]></desc>
</trkpt>
<trkpt lat="36.699978" lon="137.751794">
<ele>2470.861995</ele>
<time>2014-08-18T01:01:21Z</time>
<desc><![CDATA[lat.=36.699978, lon.=137.751794, Alt.=2470.861995m. Speed=2.000000m/h.]]></desc>
</trkpt>
<trkpt lat="36.700001" lon="137.751779">
<ele>2470.870234</ele>
<time>2014-08-18T01:01:26Z</time>
<desc><![CDATA[lat.=36.700001, lon.=137.751779, Alt.=2470.870234m. Speed=2.000000m/h.]]></desc>
</trkpt>
<trkpt lat="36.700030" lon="137.751779">
<ele>2471.530536</ele>
<time>2014-08-18T01:01:31Z</time>
<desc><![CDATA[lat.=36.700030, lon.=137.751779, Alt.=2471.530536m. Speed=2.000000m/h.]]></desc>
</trkpt>
<trkpt lat="36.700053" lon="137.751749">
<ele>2469.754141</ele>
<time>2014-08-18T01:01:36Z</time>
<desc><![CDATA[lat.=36.700053, lon.=137.751749, Alt.=2469.754141m. Speed=1.000000m/h.]]></desc>
</trkpt>
<trkpt lat="36.700058" lon="137.751710">
<ele>2469.051765</ele>
<time>2014-08-18T01:01:41Z</time>
<desc><![CDATA[lat.=36.700058, lon.=137.751710, Alt.=2469.051765m. Speed=2.000000m/h.]]></desc>
</trkpt>
<trkpt lat="36.700055" lon="137.751687">
<ele>2467.806199</ele>
<time>2014-08-18T01:01:46Z</time>
<desc><![CDATA[lat.=36.700055, lon.=137.751687, Alt.=2467.806199m. Speed=2.000000m/h.]]></desc>
</trkpt>
<trkpt lat="36.700051" lon="137.751678">
<ele>2468.345269</ele>
<time>2014-08-18T01:01:51Z</time>
<desc><![CDATA[lat.=36.700051, lon.=137.751678, Alt.=2468.345269m. Speed=0.000000m/h.]]></desc>
</trkpt>
<trkpt lat="36.700082" lon="137.751682">
<ele>2462.084775</ele>
<time>2014-08-18T01:01:56Z</time>
<desc><![CDATA[lat.=36.700082, lon.=137.751682, Alt.=2462.084775m. Speed=0.000000m/h.]]></desc>
</trkpt>
<trkpt lat="36.700086" lon="137.751674">
<ele>2463.221470</ele>
<time>2014-08-18T01:02:01Z</time>
<desc><![CDATA[lat.=36.700086, lon.=137.751674, Alt.=2463.221470m. Speed=0.000000m/h.]]></desc>
</trkpt>
<trkpt lat="36.700071" lon="137.751641">
<ele>2465.377749</ele>
<time>2014-08-18T01:02:06Z</time>
<desc><![CDATA[lat.=36.700071, lon.=137.751641, Alt.=2465.377749m. Speed=0.000000m/h.]]></desc>
</trkpt>
<trkpt lat="36.700075" lon="137.751633">
<ele>2464.784245</ele>
<time>2014-08-18T01:02:11Z</time>
<desc><![CDATA[lat.=36.700075, lon.=137.751633, Alt.=2464.784245m. Speed=1.000000m/h.]]></desc>
</trkpt>
<trkpt lat="36.700082" lon="137.751617">
<ele>2467.057637</ele>
<time>2014-08-18T01:02:16Z</time>
<desc><![CDATA[lat.=36.700082, lon.=137.751617, Alt.=2467.057637m. Speed=1.000000m/h.]]></desc>
</trkpt>
<trkpt lat="36.700079" lon="137.751608">
<ele>2467.596707</ele>
<time>2014-08-18T01:02:21Z</time>
<desc><![CDATA[lat.=36.700079, lon.=137.751608, Alt.=2467.596707m. Speed=0.000000m/h.]]></desc>
</trkpt>
<trkpt lat="36.700075" lon="137.751600">
<ele>2468.135778</ele>
<time>2014-08-18T01:02:26Z</time>
<desc><![CDATA[lat.=36.700075, lon.=137.751600, Alt.=2468.135778m. Speed=0.000000m/h.]]></desc>
</trkpt>
<trkpt lat="36.700075" lon="137.751601">
<ele>2466.405578</ele>
<time>2014-08-18T01:02:31Z</time>
<desc><![CDATA[lat.=36.700075, lon.=137.751601, Alt.=2466.405578m. Speed=0.000000m/h.]]></desc>
</trkpt>
<trkpt lat="36.700091" lon="137.751587">
<ele>2462.355798</ele>
<time>2014-08-18T01:02:36Z</time>
<desc><![CDATA[lat.=36.700091, lon.=137.751587, Alt.=2462.355798m. Speed=1.000000m/h.]]></desc>
</trkpt>
<trkpt lat="36.700110" lon="137.751596">
<ele>2461.281781</ele>
<time>2014-08-18T01:02:41Z</time>
<desc><![CDATA[lat.=36.700110, lon.=137.751596, Alt.=2461.281781m. Speed=0.000000m/h.]]></desc>
</trkpt>
<trkpt lat="36.700111" lon="137.751581">
<ele>2459.497149</ele>
<time>2014-08-18T01:02:46Z</time>
<desc><![CDATA[lat.=36.700111, lon.=137.751581, Alt.=2459.497149m. Speed=0.000000m/h.]]></desc>
</trkpt>
<trkpt lat="36.700104" lon="137.751566">
<ele>2458.845090</ele>
<time>2014-08-18T01:02:51Z</time>
<desc><![CDATA[lat.=36.700104, lon.=137.751566, Alt.=2458.845090m. Speed=0.000000m/h.]]></desc>
</trkpt>
<trkpt lat="36.700115" lon="137.751557">
<ele>2460.579413</ele>
<time>2014-08-18T01:02:56Z</time>
<desc><![CDATA[lat.=36.700115, lon.=137.751557, Alt.=2460.579413m. Speed=1.000000m/h.]]></desc>
</trkpt>
<trkpt lat="36.700133" lon="137.751533">
<ele>2462.856932</ele>
<time>2014-08-18T01:03:01Z</time>
<desc><![CDATA[lat.=36.700133, lon.=137.751533, Alt.=2462.856932m. Speed=1.000000m/h.]]></desc>
</trkpt>
<trkpt lat="36.700119" lon="137.751501">
<ele>2463.283016</ele>
<time>2014-08-18T01:03:06Z</time>
<desc><![CDATA[lat.=36.700119, lon.=137.751501, Alt.=2463.283016m. Speed=1.000000m/h.]]></desc>
</trkpt>
<trkpt lat="36.700146" lon="137.751480">
<ele>2459.237364</ele>
<time>2014-08-18T01:03:11Z</time>
<desc><![CDATA[lat.=36.700146, lon.=137.751480, Alt.=2459.237364m. Speed=1.000000m/h.]]></desc>
</trkpt>
<trkpt lat="36.700161" lon="137.751463">
<ele>2462.108388</ele>
<time>2014-08-18T01:03:16Z</time>
<desc><![CDATA[lat.=36.700161, lon.=137.751463, Alt.=2462.108388m. Speed=0.000000m/h.]]></desc>
</trkpt>
<trkpt lat="36.700139" lon="137.751448">
<ele>2460.261076</ele>
<time>2014-08-18T01:03:21Z</time>
<desc><![CDATA[lat.=36.700139, lon.=137.751448, Alt.=2460.261076m. Speed=0.000000m/h.]]></desc>
</trkpt>
<trkpt lat="36.700151" lon="137.751441">
<ele>2458.535002</ele>
<time>2014-08-18T01:03:26Z</time>
<desc><![CDATA[lat.=36.700151, lon.=137.751441, Alt.=2458.535002m. Speed=0.000000m/h.]]></desc>
</trkpt>
<trkpt lat="36.700133" lon="137.751417">
<ele>2457.824390</ele>
<time>2014-08-18T01:03:31Z</time>
<desc><![CDATA[lat.=36.700133, lon.=137.751417, Alt.=2457.824390m. Speed=1.000000m/h.]]></desc>
</trkpt>
<trkpt lat="36.700130" lon="137.751409">
<ele>2456.633262</ele>
<time>2014-08-18T01:03:36Z</time>
<desc><![CDATA[lat.=36.700130, lon.=137.751409, Alt.=2456.633262m. Speed=1.000000m/h.]]></desc>
</trkpt>
<trkpt lat="36.700124" lon="137.751395">
<ele>2452.520806</ele>
<time>2014-08-18T01:03:41Z</time>
<desc><![CDATA[lat.=36.700124, lon.=137.751395, Alt.=2452.520806m. Speed=1.000000m/h.]]></desc>
</trkpt>
<trkpt lat="36.700137" lon="137.751410">
<ele>2455.500689</ele>
<time>2014-08-18T01:03:46Z</time>
<desc><![CDATA[lat.=36.700137, lon.=137.751410, Alt.=2455.500689m. Speed=0.000000m/h.]]></desc>
</trkpt>
<trkpt lat="36.700133" lon="137.751401">
<ele>2457.769961</ele>
<time>2014-08-18T01:03:51Z</time>
<desc><![CDATA[lat.=36.700133, lon.=137.751401, Alt.=2457.769961m. Speed=0.000000m/h.]]></desc>
</trkpt>
<trkpt lat="36.700127" lon="137.751385">
<ele>2457.117905</ele>
<time>2014-08-18T01:03:56Z</time>
<desc><![CDATA[lat.=36.700127, lon.=137.751385, Alt.=2457.117905m. Speed=1.000000m/h.]]></desc>
</trkpt>
<trkpt lat="36.700153" lon="137.751396">
<ele>2453.181114</ele>
<time>2014-08-18T01:04:01Z</time>
<desc><![CDATA[lat.=36.700153, lon.=137.751396, Alt.=2453.181114m. Speed=1.000000m/h.]]></desc>
</trkpt>
<trkpt lat="36.700175" lon="137.751396">
<ele>2453.243797</ele>
<time>2014-08-18T01:04:06Z</time>
<desc><![CDATA[lat.=36.700175, lon.=137.751396, Alt.=2453.243797m. Speed=2.000000m/h.]]></desc>
</trkpt>
<trkpt lat="36.700212" lon="137.751414">
<ele>2451.095765</ele>
<time>2014-08-18T01:04:11Z</time>
<desc><![CDATA[lat.=36.700212, lon.=137.751414, Alt.=2451.095765m. Speed=2.000000m/h.]]></desc>
</trkpt>
<trkpt lat="36.700248" lon="137.751415">
<ele>2452.353708</ele>
<time>2014-08-18T01:04:16Z</time>
<desc><![CDATA[lat.=36.700248, lon.=137.751415, Alt.=2452.353708m. Speed=2.000000m/h.]]></desc>
</trkpt>
<trkpt lat="36.700275" lon="137.751393">
<ele>2450.038265</ele>
<time>2014-08-18T01:04:21Z</time>
<desc><![CDATA[lat.=36.700275, lon.=137.751393, Alt.=2450.038265m. Speed=2.000000m/h.]]></desc>
</trkpt>
<trkpt lat="36.700320" lon="137.751348">
<ele>2450.000356</ele>
<time>2014-08-18T01:04:26Z</time>
<desc><![CDATA[lat.=36.700320, lon.=137.751348, Alt.=2450.000356m. Speed=2.000000m/h.]]></desc>
</trkpt>
<trkpt lat="36.700347" lon="137.751325">
<ele>2449.415119</ele>
<time>2014-08-18T01:04:31Z</time>
<desc><![CDATA[lat.=36.700347, lon.=137.751325, Alt.=2449.415119m. Speed=2.000000m/h.]]></desc>
</trkpt>
<trkpt lat="36.700343" lon="137.751317">
<ele>2449.954190</ele>
<time>2014-08-18T01:04:36Z</time>
<desc><![CDATA[lat.=36.700343, lon.=137.751317, Alt.=2449.954190m. Speed=2.000000m/h.]]></desc>
</trkpt>
<trkpt lat="36.700351" lon="137.751302">
<ele>2448.767193</ele>
<time>2014-08-18T01:04:41Z</time>
<desc><![CDATA[lat.=36.700351, lon.=137.751302, Alt.=2448.767193m. Speed=0.000000m/h.]]></desc>
</trkpt>
<trkpt lat="36.700359" lon="137.751270">
<ele>2449.255970</ele>
<time>2014-08-18T01:04:46Z</time>
<desc><![CDATA[lat.=36.700359, lon.=137.751270, Alt.=2449.255970m. Speed=0.000000m/h.]]></desc>
</trkpt>
<trkpt lat="36.700384" lon="137.751295">
<ele>2448.834017</ele>
<time>2014-08-18T01:04:51Z</time>
<desc><![CDATA[lat.=36.700384, lon.=137.751295, Alt.=2448.834017m. Speed=0.000000m/h.]]></desc>
</trkpt>
<trkpt lat="36.700374" lon="137.751270">
<ele>2450.451231</ele>
<time>2014-08-18T01:04:56Z</time>
<desc><![CDATA[lat.=36.700374, lon.=137.751270, Alt.=2450.451231m. Speed=0.000000m/h.]]></desc>
</trkpt>
<trkpt lat="36.700381" lon="137.751270">
<ele>2451.048861</ele>
<time>2014-08-18T01:05:01Z</time>
<desc><![CDATA[lat.=36.700381, lon.=137.751270, Alt.=2451.048861m. Speed=0.000000m/h.]]></desc>
</trkpt>
<trkpt lat="36.700378" lon="137.751263">
<ele>2449.857733</ele>
<time>2014-08-18T01:05:06Z</time>
<desc><![CDATA[lat.=36.700378, lon.=137.751263, Alt.=2449.857733m. Speed=1.000000m/h.]]></desc>
</trkpt>
<trkpt lat="36.700386" lon="137.751247">
<ele>2448.670737</ele>
<time>2014-08-18T01:05:11Z</time>
<desc><![CDATA[lat.=36.700386, lon.=137.751247, Alt.=2448.670737m. Speed=1.000000m/h.]]></desc>
</trkpt>
<trkpt lat="36.700416" lon="137.751233">
<ele>2447.546435</ele>
<time>2014-08-18T01:05:16Z</time>
<desc><![CDATA[lat.=36.700416, lon.=137.751233, Alt.=2447.546435m. Speed=2.000000m/h.]]></desc>
</trkpt>
<trkpt lat="36.700416" lon="137.751217">
<ele>2447.492009</ele>
<time>2014-08-18T01:05:21Z</time>
<desc><![CDATA[lat.=36.700416, lon.=137.751217, Alt.=2447.492009m. Speed=0.000000m/h.]]></desc>
</trkpt>
<trkpt lat="36.700405" lon="137.751210">
<ele>2445.703250</ele>
<time>2014-08-18T01:05:26Z</time>
<desc><![CDATA[lat.=36.700405, lon.=137.751210, Alt.=2445.703250m. Speed=0.000000m/h.]]></desc>
</trkpt>
<trkpt lat="36.700406" lon="137.751211">
<ele>2443.973051</ele>
<time>2014-08-18T01:05:31Z</time>
<desc><![CDATA[lat.=36.700406, lon.=137.751211, Alt.=2443.973051m. Speed=0.000000m/h.]]></desc>
</trkpt>
<trkpt lat="36.700391" lon="137.751211">
<ele>2442.777789</ele>
<time>2014-08-18T01:05:36Z</time>
<desc><![CDATA[lat.=36.700391, lon.=137.751211, Alt.=2442.777789m. Speed=0.000000m/h.]]></desc>
</trkpt>
<trkpt lat="36.700399" lon="137.751211">
<ele>2441.645220</ele>
<time>2014-08-18T01:05:43Z</time>
<desc><![CDATA[lat.=36.700399, lon.=137.751211, Alt.=2441.645220m. Speed=0.000000m/h.]]></desc>
</trkpt>
<trkpt lat="36.700392" lon="137.751211">
<ele>2441.047589</ele>
<time>2014-08-18T01:05:48Z</time>
<desc><![CDATA[lat.=36.700392, lon.=137.751211, Alt.=2441.047589m. Speed=0.000000m/h.]]></desc>
</trkpt>
<trkpt lat="36.700396" lon="137.751204">
<ele>2440.454092</ele>
<time>2014-08-18T01:05:53Z</time>
<desc><![CDATA[lat.=36.700396, lon.=137.751204, Alt.=2440.454092m. Speed=0.000000m/h.]]></desc>
</trkpt>
<trkpt lat="36.700403" lon="137.751204">
<ele>2441.051723</ele>
<time>2014-08-18T01:05:58Z</time>
<desc><![CDATA[lat.=36.700403, lon.=137.751204, Alt.=2441.051723m. Speed=0.000000m/h.]]></desc>
</trkpt>
<trkpt lat="36.700407" lon="137.751196">
<ele>2440.458226</ele>
<time>2014-08-18T01:06:04Z</time>
<desc><![CDATA[lat.=36.700407, lon.=137.751196, Alt.=2440.458226m. Speed=0.000000m/h.]]></desc>
</trkpt>
<trkpt lat="36.700399" lon="137.751196">
<ele>2441.590795</ele>
<time>2014-08-18T01:06:09Z</time>
<desc><![CDATA[lat.=36.700399, lon.=137.751196, Alt.=2441.590795m. Speed=0.000000m/h.]]></desc>
</trkpt>
<trkpt lat="36.700403" lon="137.751203">
<ele>2442.781923</ele>
<time>2014-08-18T01:06:18Z</time>
<desc><![CDATA[lat.=36.700403, lon.=137.751203, Alt.=2442.781923m. Speed=0.000000m/h.]]></desc>
</trkpt>
<trkpt lat="36.700399" lon="137.751195">
<ele>2443.320995</ele>
<time>2014-08-18T01:06:23Z</time>
<desc><![CDATA[lat.=36.700399, lon.=137.751195, Alt.=2443.320995m. Speed=0.000000m/h.]]></desc>
</trkpt>
<trkpt lat="36.700403" lon="137.751187">
<ele>2442.727498</ele>
<time>2014-08-18T01:06:34Z</time>
<desc><![CDATA[lat.=36.700403, lon.=137.751187, Alt.=2442.727498m. Speed=0.000000m/h.]]></desc>
</trkpt>
<trkpt lat="36.700407" lon="137.751196">
<ele>2442.188426</ele>
<time>2014-08-18T01:06:39Z</time>
<desc><![CDATA[lat.=36.700407, lon.=137.751196, Alt.=2442.188426m. Speed=0.000000m/h.]]></desc>
</trkpt>
<trkpt lat="36.700399" lon="137.751196">
<ele>2441.590795</ele>
<time>2014-08-18T01:06:44Z</time>
<desc><![CDATA[lat.=36.700399, lon.=137.751196, Alt.=2441.590795m. Speed=0.000000m/h.]]></desc>
</trkpt>
<trkpt lat="36.700403" lon="137.751188">
<ele>2440.997298</ele>
<time>2014-08-18T01:07:02Z</time>
<desc><![CDATA[lat.=36.700403, lon.=137.751188, Alt.=2440.997298m. Speed=0.000000m/h.]]></desc>
</trkpt>
<trkpt lat="36.700407" lon="137.751196">
<ele>2440.458226</ele>
<time>2014-08-18T01:08:11Z</time>
<desc><![CDATA[lat.=36.700407, lon.=137.751196, Alt.=2440.458226m. Speed=0.000000m/h.]]></desc>
</trkpt>
<trkpt lat="36.700404" lon="137.751189">
<ele>2439.267098</ele>
<time>2014-08-18T01:08:16Z</time>
<desc><![CDATA[lat.=36.700404, lon.=137.751189, Alt.=2439.267098m. Speed=0.000000m/h.]]></desc>
</trkpt>
<trkpt lat="36.700407" lon="137.751196">
<ele>2440.458226</ele>
<time>2014-08-18T01:08:23Z</time>
<desc><![CDATA[lat.=36.700407, lon.=137.751196, Alt.=2440.458226m. Speed=0.000000m/h.]]></desc>
</trkpt>
<trkpt lat="36.700403" lon="137.751188">
<ele>2440.997298</ele>
<time>2014-08-18T01:08:33Z</time>
<desc><![CDATA[lat.=36.700403, lon.=137.751188, Alt.=2440.997298m. Speed=0.000000m/h.]]></desc>
</trkpt>
<trkpt lat="36.700411" lon="137.751188">
<ele>2441.594929</ele>
<time>2014-08-18T01:08:38Z</time>
<desc><![CDATA[lat.=36.700411, lon.=137.751188, Alt.=2441.594929m. Speed=0.000000m/h.]]></desc>
</trkpt>
<trkpt lat="36.700403" lon="137.751188">
<ele>2440.997298</ele>
<time>2014-08-18T01:08:43Z</time>
<desc><![CDATA[lat.=36.700403, lon.=137.751188, Alt.=2440.997298m. Speed=0.000000m/h.]]></desc>
</trkpt>
<trkpt lat="36.700407" lon="137.751196">
<ele>2442.188426</ele>
<time>2014-08-18T01:08:48Z</time>
<desc><![CDATA[lat.=36.700407, lon.=137.751196, Alt.=2442.188426m. Speed=0.000000m/h.]]></desc>
</trkpt>
<trkpt lat="36.700403" lon="137.751203">
<ele>2442.781923</ele>
<time>2014-08-18T01:08:58Z</time>
<desc><![CDATA[lat.=36.700403, lon.=137.751203, Alt.=2442.781923m. Speed=0.000000m/h.]]></desc>
</trkpt>
<trkpt lat="36.700407" lon="137.751196">
<ele>2442.188426</ele>
<time>2014-08-18T01:09:15Z</time>
<desc><![CDATA[lat.=36.700407, lon.=137.751196, Alt.=2442.188426m. Speed=0.000000m/h.]]></desc>
</trkpt>
<trkpt lat="36.700403" lon="137.751203">
<ele>2442.781923</ele>
<time>2014-08-18T01:09:22Z</time>
<desc><![CDATA[lat.=36.700403, lon.=137.751203, Alt.=2442.781923m. Speed=0.000000m/h.]]></desc>
</trkpt>
<trkpt lat="36.700407" lon="137.751196">
<ele>2442.188426</ele>
<time>2014-08-18T01:09:27Z</time>
<desc><![CDATA[lat.=36.700407, lon.=137.751196, Alt.=2442.188426m. Speed=0.000000m/h.]]></desc>
</trkpt>
<trkpt lat="36.700399" lon="137.751196">
<ele>2441.590795</ele>
<time>2014-08-18T01:09:32Z</time>
<desc><![CDATA[lat.=36.700399, lon.=137.751196, Alt.=2441.590795m. Speed=0.000000m/h.]]></desc>
</trkpt>
<trkpt lat="36.700407" lon="137.751196">
<ele>2442.188426</ele>
<time>2014-08-18T01:09:45Z</time>
<desc><![CDATA[lat.=36.700407, lon.=137.751196, Alt.=2442.188426m. Speed=0.000000m/h.]]></desc>
</trkpt>
<trkpt lat="36.700403" lon="137.751203">
<ele>2442.781923</ele>
<time>2014-08-18T01:09:50Z</time>
<desc><![CDATA[lat.=36.700403, lon.=137.751203, Alt.=2442.781923m. Speed=0.000000m/h.]]></desc>
</trkpt>
<trkpt lat="36.700395" lon="137.751203">
<ele>2442.184292</ele>
<time>2014-08-18T01:09:55Z</time>
<desc><![CDATA[lat.=36.700395, lon.=137.751203, Alt.=2442.184292m. Speed=0.000000m/h.]]></desc>
</trkpt>
<trkpt lat="36.700403" lon="137.751203">
<ele>2442.781923</ele>
<time>2014-08-18T01:10:00Z</time>
<desc><![CDATA[lat.=36.700403, lon.=137.751203, Alt.=2442.781923m. Speed=0.000000m/h.]]></desc>
</trkpt>
<trkpt lat="36.700395" lon="137.751203">
<ele>2442.184292</ele>
<time>2014-08-18T01:10:14Z</time>
<desc><![CDATA[lat.=36.700395, lon.=137.751203, Alt.=2442.184292m. Speed=0.000000m/h.]]></desc>
</trkpt>
<trkpt lat="36.700399" lon="137.751196">
<ele>2441.590795</ele>
<time>2014-08-18T01:10:36Z</time>
<desc><![CDATA[lat.=36.700399, lon.=137.751196, Alt.=2441.590795m. Speed=0.000000m/h.]]></desc>
</trkpt>
<trkpt lat="36.700403" lon="137.751204">
<ele>2441.051723</ele>
<time>2014-08-18T01:10:42Z</time>
<desc><![CDATA[lat.=36.700403, lon.=137.751204, Alt.=2441.051723m. Speed=0.000000m/h.]]></desc>
</trkpt>
<trkpt lat="36.700399" lon="137.751196">
<ele>2441.590795</ele>
<time>2014-08-18T01:11:01Z</time>
<desc><![CDATA[lat.=36.700399, lon.=137.751196, Alt.=2441.590795m. Speed=0.000000m/h.]]></desc>
</trkpt>
<trkpt lat="36.700403" lon="137.751204">
<ele>2441.051723</ele>
<time>2014-08-18T01:11:06Z</time>
<desc><![CDATA[lat.=36.700403, lon.=137.751204, Alt.=2441.051723m. Speed=0.000000m/h.]]></desc>
</trkpt>
<trkpt lat="36.700407" lon="137.751196">
<ele>2442.188426</ele>
<time>2014-08-18T01:11:11Z</time>
<desc><![CDATA[lat.=36.700407, lon.=137.751196, Alt.=2442.188426m. Speed=0.000000m/h.]]></desc>
</trkpt>
<trkpt lat="36.700403" lon="137.751204">
<ele>2441.051723</ele>
<time>2014-08-18T01:11:18Z</time>
<desc><![CDATA[lat.=36.700403, lon.=137.751204, Alt.=2441.051723m. Speed=0.000000m/h.]]></desc>
</trkpt>
<trkpt lat="36.700407" lon="137.751196">
<ele>2440.458226</ele>
<time>2014-08-18T01:11:39Z</time>
<desc><![CDATA[lat.=36.700407, lon.=137.751196, Alt.=2440.458226m. Speed=0.000000m/h.]]></desc>
</trkpt>
<trkpt lat="36.700403" lon="137.751204">
<ele>2441.051723</ele>
<time>2014-08-18T01:11:48Z</time>
<desc><![CDATA[lat.=36.700403, lon.=137.751204, Alt.=2441.051723m. Speed=0.000000m/h.]]></desc>
</trkpt>
<trkpt lat="36.700407" lon="137.751196">
<ele>2440.458226</ele>
<time>2014-08-18T01:11:53Z</time>
<desc><![CDATA[lat.=36.700407, lon.=137.751196, Alt.=2440.458226m. Speed=0.000000m/h.]]></desc>
</trkpt>
<trkpt lat="36.700403" lon="137.751204">
<ele>2441.051723</ele>
<time>2014-08-18T01:11:58Z</time>
<desc><![CDATA[lat.=36.700403, lon.=137.751204, Alt.=2441.051723m. Speed=0.000000m/h.]]></desc>
</trkpt>
<trkpt lat="36.700407" lon="137.751196">
<ele>2440.458226</ele>
<time>2014-08-18T01:12:03Z</time>
<desc><![CDATA[lat.=36.700407, lon.=137.751196, Alt.=2440.458226m. Speed=0.000000m/h.]]></desc>
</trkpt>
<trkpt lat="36.700403" lon="137.751188">
<ele>2440.997298</ele>
<time>2014-08-18T01:12:11Z</time>
<desc><![CDATA[lat.=36.700403, lon.=137.751188, Alt.=2440.997298m. Speed=0.000000m/h.]]></desc>
</trkpt>
<trkpt lat="36.700407" lon="137.751196">
<ele>2440.458226</ele>
<time>2014-08-18T01:12:16Z</time>
<desc><![CDATA[lat.=36.700407, lon.=137.751196, Alt.=2440.458226m. Speed=0.000000m/h.]]></desc>
</trkpt>
<trkpt lat="36.700430" lon="137.751165">
<ele>2440.412070</ele>
<time>2014-08-18T01:12:21Z</time>
<desc><![CDATA[lat.=36.700430, lon.=137.751165, Alt.=2440.412070m. Speed=2.000000m/h.]]></desc>
</trkpt>
<trkpt lat="36.700437" lon="137.751150">
<ele>2440.955277</ele>
<time>2014-08-18T01:12:26Z</time>
<desc><![CDATA[lat.=36.700437, lon.=137.751150, Alt.=2440.955277m. Speed=2.000000m/h.]]></desc>
</trkpt>
<trkpt lat="36.700441" lon="137.751109">
<ele>2443.713333</ele>
<time>2014-08-18T01:12:31Z</time>
<desc><![CDATA[lat.=36.700441, lon.=137.751109, Alt.=2443.713333m. Speed=3.000000m/h.]]></desc>
</trkpt>
<trkpt lat="36.700456" lon="137.751094">
<ele>2443.123973</ele>
<time>2014-08-18T01:12:36Z</time>
<desc><![CDATA[lat.=36.700456, lon.=137.751094, Alt.=2443.123973m. Speed=2.000000m/h.]]></desc>
</trkpt>
<trkpt lat="36.700464" lon="137.751095">
<ele>2441.991405</ele>
<time>2014-08-18T01:12:41Z</time>
<desc><![CDATA[lat.=36.700464, lon.=137.751095, Alt.=2441.991405m. Speed=2.000000m/h.]]></desc>
</trkpt>
<trkpt lat="36.700489" lon="137.751103">
<ele>2443.245228</ele>
<time>2014-08-18T01:12:46Z</time>
<desc><![CDATA[lat.=36.700489, lon.=137.751103, Alt.=2443.245228m. Speed=1.000000m/h.]]></desc>
</trkpt>
<trkpt lat="36.700500" lon="137.751095">
<ele>2444.979564</ele>
<time>2014-08-18T01:12:51Z</time>
<desc><![CDATA[lat.=36.700500, lon.=137.751095, Alt.=2444.979564m. Speed=2.000000m/h.]]></desc>
</trkpt>
<trkpt lat="36.700511" lon="137.751103">
<ele>2445.038124</ele>
<time>2014-08-18T01:12:56Z</time>
<desc><![CDATA[lat.=36.700511, lon.=137.751103, Alt.=2445.038124m. Speed=1.000000m/h.]]></desc>
</trkpt>
<trkpt lat="36.700511" lon="137.751086">
<ele>2446.713901</ele>
<time>2014-08-18T01:13:01Z</time>
<desc><![CDATA[lat.=36.700511, lon.=137.751086, Alt.=2446.713901m. Speed=2.000000m/h.]]></desc>
</trkpt>
<trkpt lat="36.700511" lon="137.751054">
<ele>2448.335257</ele>
<time>2014-08-18T01:13:06Z</time>
<desc><![CDATA[lat.=36.700511, lon.=137.751054, Alt.=2448.335257m. Speed=2.000000m/h.]]></desc>
</trkpt>
<trkpt lat="36.700526" lon="137.751055">
<ele>2447.800322</ele>
<time>2014-08-18T01:13:11Z</time>
<desc><![CDATA[lat.=36.700526, lon.=137.751055, Alt.=2447.800322m. Speed=1.000000m/h.]]></desc>
</trkpt>
<trkpt lat="36.700522" lon="137.751062">
<ele>2448.393816</ele>
<time>2014-08-18T01:13:16Z</time>
<desc><![CDATA[lat.=36.700522, lon.=137.751062, Alt.=2448.393816m. Speed=0.000000m/h.]]></desc>
</trkpt>
<trkpt lat="36.700526" lon="137.751071">
<ele>2446.124544</ele>
<time>2014-08-18T01:13:21Z</time>
<desc><![CDATA[lat.=36.700526, lon.=137.751071, Alt.=2446.124544m. Speed=1.000000m/h.]]></desc>
</trkpt>
<trkpt lat="36.700548" lon="137.751072">
<ele>2446.187242</ele>
<time>2014-08-18T01:13:26Z</time>
<desc><![CDATA[lat.=36.700548, lon.=137.751072, Alt.=2446.187242m. Speed=1.000000m/h.]]></desc>
</trkpt>
<trkpt lat="36.700552" lon="137.751048">
<ele>2447.269525</ele>
<time>2014-08-18T01:13:31Z</time>
<desc><![CDATA[lat.=36.700552, lon.=137.751048, Alt.=2447.269525m. Speed=1.000000m/h.]]></desc>
</trkpt>
<trkpt lat="36.700559" lon="137.751048">
<ele>2447.867158</ele>
<time>2014-08-18T01:13:36Z</time>
<desc><![CDATA[lat.=36.700559, lon.=137.751048, Alt.=2447.867158m. Speed=1.000000m/h.]]></desc>
</trkpt>
<trkpt lat="36.700570" lon="137.751055">
<ele>2451.386118</ele>
<time>2014-08-18T01:13:41Z</time>
<desc><![CDATA[lat.=36.700570, lon.=137.751055, Alt.=2451.386118m. Speed=0.000000m/h.]]></desc>
</trkpt>
<trkpt lat="36.700570" lon="137.751040">
<ele>2449.601497</ele>
<time>2014-08-18T01:13:46Z</time>
<desc><![CDATA[lat.=36.700570, lon.=137.751040, Alt.=2449.601497m. Speed=1.000000m/h.]]></desc>
</trkpt>
<trkpt lat="36.700582" lon="137.751032">
<ele>2449.605636</ele>
<time>2014-08-18T01:13:51Z</time>
<desc><![CDATA[lat.=36.700582, lon.=137.751032, Alt.=2449.605636m. Speed=0.000000m/h.]]></desc>
</trkpt>
<trkpt lat="36.700592" lon="137.751024">
<ele>2451.339975</ele>
<time>2014-08-18T01:13:56Z</time>
<desc><![CDATA[lat.=36.700592, lon.=137.751024, Alt.=2451.339975m. Speed=1.000000m/h.]]></desc>
</trkpt>
<trkpt lat="36.700603" lon="137.751016">
<ele>2453.074315</ele>
<time>2014-08-18T01:14:01Z</time>
<desc><![CDATA[lat.=36.700603, lon.=137.751016, Alt.=2453.074315m. Speed=1.000000m/h.]]></desc>
</trkpt>
<trkpt lat="36.700618" lon="137.750984">
<ele>2454.160740</ele>
<time>2014-08-18T01:14:06Z</time>
<desc><![CDATA[lat.=36.700618, lon.=137.750984, Alt.=2454.160740m. Speed=2.000000m/h.]]></desc>
</trkpt>
<trkpt lat="36.700644" lon="137.750977">
<ele>2455.360149</ele>
<time>2014-08-18T01:14:11Z</time>
<desc><![CDATA[lat.=36.700644, lon.=137.750977, Alt.=2455.360149m. Speed=2.000000m/h.]]></desc>
</trkpt>
<trkpt lat="36.700666" lon="137.750961">
<ele>2457.098632</ele>
<time>2014-08-18T01:14:16Z</time>
<desc><![CDATA[lat.=36.700666, lon.=137.750961, Alt.=2457.098632m. Speed=2.000000m/h.]]></desc>
</trkpt>
<trkpt lat="36.700704" lon="137.750931">
<ele>2456.517566</ele>
<time>2014-08-18T01:14:21Z</time>
<desc><![CDATA[lat.=36.700704, lon.=137.750931, Alt.=2456.517566m. Speed=2.000000m/h.]]></desc>
</trkpt>
<trkpt lat="36.700727" lon="137.750901">
<ele>2454.741233</ele>
<time>2014-08-18T01:14:26Z</time>
<desc><![CDATA[lat.=36.700727, lon.=137.750901, Alt.=2454.741233m. Speed=2.000000m/h.]]></desc>
</trkpt>
<trkpt lat="36.700746" lon="137.750877">
<ele>2455.288594</ele>
<time>2014-08-18T01:14:31Z</time>
<desc><![CDATA[lat.=36.700746, lon.=137.750877, Alt.=2455.288594m. Speed=2.000000m/h.]]></desc>
</trkpt>
<trkpt lat="36.700790" lon="137.750863">
<ele>2455.359591</ele>
<time>2014-08-18T01:14:36Z</time>
<desc><![CDATA[lat.=36.700790, lon.=137.750863, Alt.=2455.359591m. Speed=2.000000m/h.]]></desc>
</trkpt>
<trkpt lat="36.700790" lon="137.750847">
<ele>2455.305173</ele>
<time>2014-08-18T01:14:41Z</time>
<desc><![CDATA[lat.=36.700790, lon.=137.750847, Alt.=2455.305173m. Speed=1.000000m/h.]]></desc>
</trkpt>
<trkpt lat="36.700805" lon="137.750847">
<ele>2456.500446</ele>
<time>2014-08-18T01:14:46Z</time>
<desc><![CDATA[lat.=36.700805, lon.=137.750847, Alt.=2456.500446m. Speed=2.000000m/h.]]></desc>
</trkpt>
<trkpt lat="36.700813" lon="137.750849">
<ele>2453.637683</ele>
<time>2014-08-18T01:14:51Z</time>
<desc><![CDATA[lat.=36.700813, lon.=137.750849, Alt.=2453.637683m. Speed=1.000000m/h.]]></desc>
</trkpt>
<trkpt lat="36.700824" lon="137.750825">
<ele>2455.317611</ele>
<time>2014-08-18T01:14:56Z</time>
<desc><![CDATA[lat.=36.700824, lon.=137.750825, Alt.=2455.317611m. Speed=1.000000m/h.]]></desc>
</trkpt>
<trkpt lat="36.700816" lon="137.750824">
<ele>2456.450175</ele>
<time>2014-08-18T01:15:01Z</time>
<desc><![CDATA[lat.=36.700816, lon.=137.750824, Alt.=2456.450175m. Speed=0.000000m/h.]]></desc>
</trkpt>
<trkpt lat="36.700816" lon="137.750823">
<ele>2458.180375</ele>
<time>2014-08-18T01:15:06Z</time>
<desc><![CDATA[lat.=36.700816, lon.=137.750823, Alt.=2458.180375m. Speed=0.000000m/h.]]></desc>
</trkpt>
<trkpt lat="36.700835" lon="137.750800">
<ele>2458.727741</ele>
<time>2014-08-18T01:15:11Z</time>
<desc><![CDATA[lat.=36.700835, lon.=137.750800, Alt.=2458.727741m. Speed=2.000000m/h.]]></desc>
</trkpt>
<trkpt lat="36.700865" lon="137.750769">
<ele>2459.279256</ele>
<time>2014-08-18T01:15:16Z</time>
<desc><![CDATA[lat.=36.700865, lon.=137.750769, Alt.=2459.279256m. Speed=2.000000m/h.]]></desc>
</trkpt>
<trkpt lat="36.700876" lon="137.750746">
<ele>2459.228988</ele>
<time>2014-08-18T01:15:21Z</time>
<desc><![CDATA[lat.=36.700876, lon.=137.750746, Alt.=2459.228988m. Speed=2.000000m/h.]]></desc>
</trkpt>
<trkpt lat="36.700906" lon="137.750714">
<ele>2461.510708</ele>
<time>2014-08-18T01:15:26Z</time>
<desc><![CDATA[lat.=36.700906, lon.=137.750714, Alt.=2461.510708m. Speed=2.000000m/h.]]></desc>
</trkpt>
<trkpt lat="36.700946" lon="137.750756">
<ele>2458.878056</ele>
<time>2014-08-18T01:15:31Z</time>
<desc><![CDATA[lat.=36.700946, lon.=137.750756, Alt.=2458.878056m. Speed=2.000000m/h.]]></desc>
</trkpt>
<trkpt lat="36.700961" lon="137.750757">
<ele>2458.343133</ele>
<time>2014-08-18T01:15:36Z</time>
<desc><![CDATA[lat.=36.700961, lon.=137.750757, Alt.=2458.343133m. Speed=1.000000m/h.]]></desc>
</trkpt>
<trkpt lat="36.700973" lon="137.750717">
<ele>2459.968653</ele>
<time>2014-08-18T01:15:41Z</time>
<desc><![CDATA[lat.=36.700973, lon.=137.750717, Alt.=2459.968653m. Speed=2.000000m/h.]]></desc>
</trkpt>
<trkpt lat="36.700977" lon="137.750693">
<ele>2461.050950</ele>
<time>2014-08-18T01:15:46Z</time>
<desc><![CDATA[lat.=36.700977, lon.=137.750693, Alt.=2461.050950m. Speed=3.000000m/h.]]></desc>
</trkpt>
<trkpt lat="36.701010" lon="137.750670">
<ele>2461.063404</ele>
<time>2014-08-18T01:15:51Z</time>
<desc><![CDATA[lat.=36.701010, lon.=137.750670, Alt.=2461.063404m. Speed=3.000000m/h.]]></desc>
</trkpt>
<trkpt lat="36.701058" lon="137.750648">
<ele>2462.271141</ele>
<time>2014-08-18T01:15:56Z</time>
<desc><![CDATA[lat.=36.701058, lon.=137.750648, Alt.=2462.271141m. Speed=3.000000m/h.]]></desc>
</trkpt>
<trkpt lat="36.701073" lon="137.750616">
<ele>2465.087795</ele>
<time>2014-08-18T01:16:01Z</time>
<desc><![CDATA[lat.=36.701073, lon.=137.750616, Alt.=2465.087795m. Speed=3.000000m/h.]]></desc>
</trkpt>
<trkpt lat="36.701114" lon="137.750593">
<ele>2465.697898</ele>
<time>2014-08-18T01:16:06Z</time>
<desc><![CDATA[lat.=36.701114, lon.=137.750593, Alt.=2465.697898m. Speed=3.000000m/h.]]></desc>
</trkpt>
<trkpt lat="36.701141" lon="137.750588">
<ele>2459.976535</ele>
<time>2014-08-18T01:16:11Z</time>
<desc><![CDATA[lat.=36.701141, lon.=137.750588, Alt.=2459.976535m. Speed=3.000000m/h.]]></desc>
</trkpt>
<trkpt lat="36.701167" lon="137.750565">
<ele>2461.121562</ele>
<time>2014-08-18T01:16:16Z</time>
<desc><![CDATA[lat.=36.701167, lon.=137.750565, Alt.=2461.121562m. Speed=3.000000m/h.]]></desc>
</trkpt>
<trkpt lat="36.701189" lon="137.750534">
<ele>2462.805664</ele>
<time>2014-08-18T01:16:21Z</time>
<desc><![CDATA[lat.=36.701189, lon.=137.750534, Alt.=2462.805664m. Speed=3.000000m/h.]]></desc>
</trkpt>
<trkpt lat="36.701208" lon="137.750510">
<ele>2463.353052</ele>
<time>2014-08-18T01:16:26Z</time>
<desc><![CDATA[lat.=36.701208, lon.=137.750510, Alt.=2463.353052m. Speed=3.000000m/h.]]></desc>
</trkpt>
<trkpt lat="36.701227" lon="137.750520">
<ele>2460.548863</ele>
<time>2014-08-18T01:16:31Z</time>
<desc><![CDATA[lat.=36.701227, lon.=137.750520, Alt.=2460.548863m. Speed=2.000000m/h.]]></desc>
</trkpt>
<trkpt lat="36.701211" lon="137.750534">
<ele>2462.868389</ele>
<time>2014-08-18T01:16:36Z</time>
<desc><![CDATA[lat.=36.701211, lon.=137.750534, Alt.=2462.868389m. Speed=0.000000m/h.]]></desc>
</trkpt>
<trkpt lat="36.701207" lon="137.750525">
<ele>2465.137663</ele>
<time>2014-08-18T01:16:41Z</time>
<desc><![CDATA[lat.=36.701207, lon.=137.750525, Alt.=2465.137663m. Speed=0.000000m/h.]]></desc>
</trkpt>
<trkpt lat="36.701211" lon="137.750534">
<ele>2464.598589</ele>
<time>2014-08-18T01:16:46Z</time>
<desc><![CDATA[lat.=36.701211, lon.=137.750534, Alt.=2464.598589m. Speed=0.000000m/h.]]></desc>
</trkpt>
<trkpt lat="36.701207" lon="137.750525">
<ele>2465.137663</ele>
<time>2014-08-18T01:16:51Z</time>
<desc><![CDATA[lat.=36.701207, lon.=137.750525, Alt.=2465.137663m. Speed=1.000000m/h.]]></desc>
</trkpt>
<trkpt lat="36.701222" lon="137.750509">
<ele>2466.278536</ele>
<time>2014-08-18T01:16:56Z</time>
<desc><![CDATA[lat.=36.701222, lon.=137.750509, Alt.=2466.278536m. Speed=1.000000m/h.]]></desc>
</trkpt>
<trkpt lat="36.701260" lon="137.750495">
<ele>2465.751938</ele>
<time>2014-08-18T01:17:01Z</time>
<desc><![CDATA[lat.=36.701260, lon.=137.750495, Alt.=2465.751938m. Speed=2.000000m/h.]]></desc>
</trkpt>
<trkpt lat="36.701285" lon="137.750520">
<ele>2465.330005</ele>
<time>2014-08-18T01:17:06Z</time>
<desc><![CDATA[lat.=36.701285, lon.=137.750520, Alt.=2465.330005m. Speed=2.000000m/h.]]></desc>
</trkpt>
<trkpt lat="36.701288" lon="137.750544">
<ele>2464.845343</ele>
<time>2014-08-18T01:17:11Z</time>
<desc><![CDATA[lat.=36.701288, lon.=137.750544, Alt.=2464.845343m. Speed=2.000000m/h.]]></desc>
</trkpt>
<trkpt lat="36.701314" lon="137.750521">
<ele>2465.990378</ele>
<time>2014-08-18T01:17:16Z</time>
<desc><![CDATA[lat.=36.701314, lon.=137.750521, Alt.=2465.990378m. Speed=2.000000m/h.]]></desc>
</trkpt>
<trkpt lat="36.701345" lon="137.750507">
<ele>2463.135943</ele>
<time>2014-08-18T01:17:21Z</time>
<desc><![CDATA[lat.=36.701345, lon.=137.750507, Alt.=2463.135943m. Speed=2.000000m/h.]]></desc>
</trkpt>
<trkpt lat="36.701351" lon="137.750523">
<ele>2463.787998</ele>
<time>2014-08-18T01:17:26Z</time>
<desc><![CDATA[lat.=36.701351, lon.=137.750523, Alt.=2463.787998m. Speed=1.000000m/h.]]></desc>
</trkpt>
<trkpt lat="36.701340" lon="137.750530">
<ele>2465.514037</ele>
<time>2014-08-18T01:17:31Z</time>
<desc><![CDATA[lat.=36.701340, lon.=137.750530, Alt.=2465.514037m. Speed=1.000000m/h.]]></desc>
</trkpt>
<trkpt lat="36.701336" lon="137.750505">
<ele>2467.728898</ele>
<time>2014-08-18T01:17:36Z</time>
<desc><![CDATA[lat.=36.701336, lon.=137.750505, Alt.=2467.728898m. Speed=1.000000m/h.]]></desc>
</trkpt>
<trkpt lat="36.701329" lon="137.750473">
<ele>2468.752634</ele>
<time>2014-08-18T01:17:41Z</time>
<desc><![CDATA[lat.=36.701329, lon.=137.750473, Alt.=2468.752634m. Speed=2.000000m/h.]]></desc>
</trkpt>
<trkpt lat="36.701370" lon="137.750466">
<ele>2469.417171</ele>
<time>2014-08-18T01:17:46Z</time>
<desc><![CDATA[lat.=36.701370, lon.=137.750466, Alt.=2469.417171m. Speed=2.000000m/h.]]></desc>
</trkpt>
<trkpt lat="36.701395" lon="137.750458">
<ele>2470.616622</ele>
<time>2014-08-18T01:17:51Z</time>
<desc><![CDATA[lat.=36.701395, lon.=137.750458, Alt.=2470.616622m. Speed=1.000000m/h.]]></desc>
</trkpt>
<trkpt lat="36.701391" lon="137.750499">
<ele>2467.858525</ele>
<time>2014-08-18T01:17:56Z</time>
<desc><![CDATA[lat.=36.701391, lon.=137.750499, Alt.=2467.858525m. Speed=1.000000m/h.]]></desc>
</trkpt>
<trkpt lat="36.701405" lon="137.750513">
<ele>2472.568625</ele>
<time>2014-08-18T01:18:01Z</time>
<desc><![CDATA[lat.=36.701405, lon.=137.750513, Alt.=2472.568625m. Speed=1.000000m/h.]]></desc>
</trkpt>
<trkpt lat="36.701416" lon="137.750505">
<ele>2474.302987</ele>
<time>2014-08-18T01:18:06Z</time>
<desc><![CDATA[lat.=36.701416, lon.=137.750505, Alt.=2474.302987m. Speed=0.000000m/h.]]></desc>
</trkpt>
<trkpt lat="36.701408" lon="137.750520">
<ele>2475.489952</ele>
<time>2014-08-18T01:18:11Z</time>
<desc><![CDATA[lat.=36.701408, lon.=137.750520, Alt.=2475.489952m. Speed=0.000000m/h.]]></desc>
</trkpt>
<trkpt lat="36.701415" lon="137.750520">
<ele>2476.087597</ele>
<time>2014-08-18T01:18:16Z</time>
<desc><![CDATA[lat.=36.701415, lon.=137.750520, Alt.=2476.087597m. Speed=1.000000m/h.]]></desc>
</trkpt>
<trkpt lat="36.701418" lon="137.750512">
<ele>2477.224314</ele>
<time>2014-08-18T01:18:21Z</time>
<desc><![CDATA[lat.=36.701418, lon.=137.750512, Alt.=2477.224314m. Speed=1.000000m/h.]]></desc>
</trkpt>
<trkpt lat="36.701422" lon="137.750504">
<ele>2476.630832</ele>
<time>2014-08-18T01:18:27Z</time>
<desc><![CDATA[lat.=36.701422, lon.=137.750504, Alt.=2476.630832m. Speed=0.000000m/h.]]></desc>
</trkpt>
<trkpt lat="36.701426" lon="137.750496">
<ele>2477.767549</ele>
<time>2014-08-18T01:18:33Z</time>
<desc><![CDATA[lat.=36.701426, lon.=137.750496, Alt.=2477.767549m. Speed=1.000000m/h.]]></desc>
</trkpt>
<trkpt lat="36.701445" lon="137.750473">
<ele>2476.584747</ele>
<time>2014-08-18T01:18:38Z</time>
<desc><![CDATA[lat.=36.701445, lon.=137.750473, Alt.=2476.584747m. Speed=1.000000m/h.]]></desc>
</trkpt>
<trkpt lat="36.701449" lon="137.750482">
<ele>2476.045675</ele>
<time>2014-08-18T01:18:43Z</time>
<desc><![CDATA[lat.=36.701449, lon.=137.750482, Alt.=2476.045675m. Speed=1.000000m/h.]]></desc>
</trkpt>
<trkpt lat="36.701484" lon="137.750497">
<ele>2480.818513</ele>
<time>2014-08-18T01:18:48Z</time>
<desc><![CDATA[lat.=36.701484, lon.=137.750497, Alt.=2480.818513m. Speed=2.000000m/h.]]></desc>
</trkpt>
<trkpt lat="36.701490" lon="137.750528">
<ele>2483.255180</ele>
<time>2014-08-18T01:18:53Z</time>
<desc><![CDATA[lat.=36.701490, lon.=137.750528, Alt.=2483.255180m. Speed=1.000000m/h.]]></desc>
</trkpt>
<trkpt lat="36.701490" lon="137.750527">
<ele>2484.985380</ele>
<time>2014-08-18T01:18:58Z</time>
<desc><![CDATA[lat.=36.701490, lon.=137.750527, Alt.=2484.985380m. Speed=0.000000m/h.]]></desc>
</trkpt>
<trkpt lat="36.701508" lon="137.750519">
<ele>2485.587190</ele>
<time>2014-08-18T01:19:03Z</time>
<desc><![CDATA[lat.=36.701508, lon.=137.750519, Alt.=2485.587190m. Speed=1.000000m/h.]]></desc>
</trkpt>
<trkpt lat="36.701513" lon="137.750496">
<ele>2484.939297</ele>
<time>2014-08-18T01:19:08Z</time>
<desc><![CDATA[lat.=36.701513, lon.=137.750496, Alt.=2484.939297m. Speed=1.000000m/h.]]></desc>
</trkpt>
<trkpt lat="36.701527" lon="137.750480">
<ele>2486.080180</ele>
<time>2014-08-18T01:19:13Z</time>
<desc><![CDATA[lat.=36.701527, lon.=137.750480, Alt.=2486.080180m. Speed=1.000000m/h.]]></desc>
</trkpt>
<trkpt lat="36.701539" lon="137.750457">
<ele>2486.029936</ele>
<time>2014-08-18T01:19:18Z</time>
<desc><![CDATA[lat.=36.701539, lon.=137.750457, Alt.=2486.029936m. Speed=1.000000m/h.]]></desc>
</trkpt>
<trkpt lat="36.701550" lon="137.750449">
<ele>2487.764301</ele>
<time>2014-08-18T01:19:23Z</time>
<desc><![CDATA[lat.=36.701550, lon.=137.750449, Alt.=2487.764301m. Speed=1.000000m/h.]]></desc>
</trkpt>
<trkpt lat="36.701575" lon="137.750457">
<ele>2489.018170</ele>
<time>2014-08-18T01:19:28Z</time>
<desc><![CDATA[lat.=36.701575, lon.=137.750457, Alt.=2489.018170m. Speed=1.000000m/h.]]></desc>
</trkpt>
<trkpt lat="36.701604" lon="137.750491">
<ele>2486.326980</ele>
<time>2014-08-18T01:19:33Z</time>
<desc><![CDATA[lat.=36.701604, lon.=137.750491, Alt.=2486.326980m. Speed=1.000000m/h.]]></desc>
</trkpt>
<trkpt lat="36.701600" lon="137.750530">
<ele>2487.029283</ele>
<time>2014-08-18T01:19:38Z</time>
<desc><![CDATA[lat.=36.701600, lon.=137.750530, Alt.=2487.029283m. Speed=1.000000m/h.]]></desc>
</trkpt>
<trkpt lat="36.701611" lon="137.750539">
<ele>2485.357660</ele>
<time>2014-08-18T01:19:43Z</time>
<desc><![CDATA[lat.=36.701611, lon.=137.750539, Alt.=2485.357660m. Speed=0.000000m/h.]]></desc>
</trkpt>
<trkpt lat="36.701601" lon="137.750531">
<ele>2483.568883</ele>
<time>2014-08-18T01:19:48Z</time>
<desc><![CDATA[lat.=36.701601, lon.=137.750531, Alt.=2483.568883m. Speed=2.000000m/h.]]></desc>
</trkpt>
<trkpt lat="36.701588" lon="137.750501">
<ele>2478.804368</ele>
<time>2014-08-18T01:19:53Z</time>
<desc><![CDATA[lat.=36.701588, lon.=137.750501, Alt.=2478.804368m. Speed=0.000000m/h.]]></desc>
</trkpt>
<trkpt lat="36.701595" lon="137.750501">
<ele>2479.402015</ele>
<time>2014-08-18T01:19:58Z</time>
<desc><![CDATA[lat.=36.701595, lon.=137.750501, Alt.=2479.402015m. Speed=0.000000m/h.]]></desc>
</trkpt>
<trkpt lat="36.701609" lon="137.750501">
<ele>2480.597310</ele>
<time>2014-08-18T01:20:03Z</time>
<desc><![CDATA[lat.=36.701609, lon.=137.750501, Alt.=2480.597310m. Speed=0.000000m/h.]]></desc>
</trkpt>
<trkpt lat="36.701627" lon="137.750476">
<ele>2484.605114</ele>
<time>2014-08-18T01:20:08Z</time>
<desc><![CDATA[lat.=36.701627, lon.=137.750476, Alt.=2484.605114m. Speed=0.000000m/h.]]></desc>
</trkpt>
<trkpt lat="36.701623" lon="137.750484">
<ele>2485.198595</ele>
<time>2014-08-18T01:20:13Z</time>
<desc><![CDATA[lat.=36.701623, lon.=137.750484, Alt.=2485.198595m. Speed=0.000000m/h.]]></desc>
</trkpt>
<trkpt lat="36.701619" lon="137.750507">
<ele>2487.576686</ele>
<time>2014-08-18T01:20:18Z</time>
<desc><![CDATA[lat.=36.701619, lon.=137.750507, Alt.=2487.576686m. Speed=1.000000m/h.]]></desc>
</trkpt>
<trkpt lat="36.701629" lon="137.750515">
<ele>2487.635263</ele>
<time>2014-08-18T01:20:23Z</time>
<desc><![CDATA[lat.=36.701629, lon.=137.750515, Alt.=2487.635263m. Speed=0.000000m/h.]]></desc>
</trkpt>
<trkpt lat="36.701659" lon="137.750516">
<ele>2488.295656</ele>
<time>2014-08-18T01:20:28Z</time>
<desc><![CDATA[lat.=36.701659, lon.=137.750516, Alt.=2488.295656m. Speed=2.000000m/h.]]></desc>
</trkpt>
<trkpt lat="36.701647" lon="137.750538">
<ele>2490.076099</ele>
<time>2014-08-18T01:20:33Z</time>
<desc><![CDATA[lat.=36.701647, lon.=137.750538, Alt.=2490.076099m. Speed=1.000000m/h.]]></desc>
</trkpt>
<trkpt lat="36.701636" lon="137.750546">
<ele>2490.071932</ele>
<time>2014-08-18T01:20:38Z</time>
<desc><![CDATA[lat.=36.701636, lon.=137.750546, Alt.=2490.071932m. Speed=0.000000m/h.]]></desc>
</trkpt>
<trkpt lat="36.701631" lon="137.750552">
<ele>2492.395614</ele>
<time>2014-08-18T01:20:43Z</time>
<desc><![CDATA[lat.=36.701631, lon.=137.750552, Alt.=2492.395614m. Speed=1.000000m/h.]]></desc>
</trkpt>
<trkpt lat="36.701630" lon="137.750567">
<ele>2494.180225</ele>
<time>2014-08-18T01:20:48Z</time>
<desc><![CDATA[lat.=36.701630, lon.=137.750567, Alt.=2494.180225m. Speed=0.000000m/h.]]></desc>
</trkpt>
<trkpt lat="36.701634" lon="137.750575">
<ele>2495.371354</ele>
<time>2014-08-18T01:20:53Z</time>
<desc><![CDATA[lat.=36.701634, lon.=137.750575, Alt.=2495.371354m. Speed=0.000000m/h.]]></desc>
</trkpt>
<trkpt lat="36.701667" lon="137.750584">
<ele>2495.492678</ele>
<time>2014-08-18T01:20:58Z</time>
<desc><![CDATA[lat.=36.701667, lon.=137.750584, Alt.=2495.492678m. Speed=1.000000m/h.]]></desc>
</trkpt>
<trkpt lat="36.701666" lon="137.750583">
<ele>2497.222877</ele>
<time>2014-08-18T01:21:03Z</time>
<desc><![CDATA[lat.=36.701666, lon.=137.750583, Alt.=2497.222877m. Speed=0.000000m/h.]]></desc>
</trkpt>
<trkpt lat="36.701673" lon="137.750598">
<ele>2499.605137</ele>
<time>2014-08-18T01:21:08Z</time>
<desc><![CDATA[lat.=36.701673, lon.=137.750598, Alt.=2499.605137m. Speed=0.000000m/h.]]></desc>
</trkpt>
<trkpt lat="36.701672" lon="137.750613">
<ele>2501.389749</ele>
<time>2014-08-18T01:21:13Z</time>
<desc><![CDATA[lat.=36.701672, lon.=137.750613, Alt.=2501.389749m. Speed=0.000000m/h.]]></desc>
</trkpt>
<trkpt lat="36.701687" lon="137.750598">
<ele>2502.530634</ele>
<time>2014-08-18T01:21:18Z</time>
<desc><![CDATA[lat.=36.701687, lon.=137.750598, Alt.=2502.530634m. Speed=1.000000m/h.]]></desc>
</trkpt>
<trkpt lat="36.701724" lon="137.750599">
<ele>2502.058480</ele>
<time>2014-08-18T01:21:23Z</time>
<desc><![CDATA[lat.=36.701724, lon.=137.750599, Alt.=2502.058480m. Speed=1.000000m/h.]]></desc>
</trkpt>
<trkpt lat="36.701738" lon="137.750600">
<ele>2501.523580</ele>
<time>2014-08-18T01:21:28Z</time>
<desc><![CDATA[lat.=36.701738, lon.=137.750600, Alt.=2501.523580m. Speed=1.000000m/h.]]></desc>
</trkpt>
<trkpt lat="36.701746" lon="137.750585">
<ele>2500.336618</ele>
<time>2014-08-18T01:21:33Z</time>
<desc><![CDATA[lat.=36.701746, lon.=137.750585, Alt.=2500.336618m. Speed=1.000000m/h.]]></desc>
</trkpt>
<trkpt lat="36.701761" lon="137.750569">
<ele>2501.477505</ele>
<time>2014-08-18T01:21:38Z</time>
<desc><![CDATA[lat.=36.701761, lon.=137.750569, Alt.=2501.477505m. Speed=1.000000m/h.]]></desc>
</trkpt>
<trkpt lat="36.701765" lon="137.750561">
<ele>2500.884025</ele>
<time>2014-08-18T01:21:43Z</time>
<desc><![CDATA[lat.=36.701765, lon.=137.750561, Alt.=2500.884025m. Speed=0.000000m/h.]]></desc>
</trkpt>
<trkpt lat="36.701772" lon="137.750561">
<ele>2501.481675</ele>
<time>2014-08-18T01:21:48Z</time>
<desc><![CDATA[lat.=36.701772, lon.=137.750561, Alt.=2501.481675m. Speed=0.000000m/h.]]></desc>
</trkpt>
<trkpt lat="36.701776" lon="137.750570">
<ele>2500.942606</ele>
<time>2014-08-18T01:21:53Z</time>
<desc><![CDATA[lat.=36.701776, lon.=137.750570, Alt.=2500.942606m. Speed=0.000000m/h.]]></desc>
</trkpt>
<trkpt lat="36.701783" lon="137.750586">
<ele>2501.594667</ele>
<time>2014-08-18T01:21:58Z</time>
<desc><![CDATA[lat.=36.701783, lon.=137.750586, Alt.=2501.594667m. Speed=0.000000m/h.]]></desc>
</trkpt>
<trkpt lat="36.701779" lon="137.750594">
<ele>2500.457949</ele>
<time>2014-08-18T01:22:03Z</time>
<desc><![CDATA[lat.=36.701779, lon.=137.750594, Alt.=2500.457949m. Speed=0.000000m/h.]]></desc>
</trkpt>
<trkpt lat="36.701776" lon="137.750586">
<ele>2500.997017</ele>
<time>2014-08-18T01:22:08Z</time>
<desc><![CDATA[lat.=36.701776, lon.=137.750586, Alt.=2500.997017m. Speed=1.000000m/h.]]></desc>
</trkpt>
<trkpt lat="36.701779" lon="137.750594">
<ele>2500.457949</ele>
<time>2014-08-18T01:22:13Z</time>
<desc><![CDATA[lat.=36.701779, lon.=137.750594, Alt.=2500.457949m. Speed=0.000000m/h.]]></desc>
</trkpt>
<trkpt lat="36.701772" lon="137.750577">
<ele>2501.536086</ele>
<time>2014-08-18T01:22:18Z</time>
<desc><![CDATA[lat.=36.701772, lon.=137.750577, Alt.=2501.536086m. Speed=1.000000m/h.]]></desc>
</trkpt>
<trkpt lat="36.701776" lon="137.750569">
<ele>2502.672805</ele>
<time>2014-08-18T01:22:23Z</time>
<desc><![CDATA[lat.=36.701776, lon.=137.750569, Alt.=2502.672805m. Speed=1.000000m/h.]]></desc>
</trkpt>
<trkpt lat="36.701779" lon="137.750577">
<ele>2502.133736</ele>
<time>2014-08-18T01:22:29Z</time>
<desc><![CDATA[lat.=36.701779, lon.=137.750577, Alt.=2502.133736m. Speed=0.000000m/h.]]></desc>
</trkpt>
<trkpt lat="36.701805" lon="137.750587">
<ele>2499.927219</ele>
<time>2014-08-18T01:22:34Z</time>
<desc><![CDATA[lat.=36.701805, lon.=137.750587, Alt.=2499.927219m. Speed=0.000000m/h.]]></desc>
</trkpt>
<trkpt lat="36.701811" lon="137.750601">
<ele>2504.039680</ele>
<time>2014-08-18T01:22:39Z</time>
<desc><![CDATA[lat.=36.701811, lon.=137.750601, Alt.=2504.039680m. Speed=0.000000m/h.]]></desc>
</trkpt>
<trkpt lat="36.701825" lon="137.750634">
<ele>2503.613607</ele>
<time>2014-08-18T01:22:44Z</time>
<desc><![CDATA[lat.=36.701825, lon.=137.750634, Alt.=2503.613607m. Speed=1.000000m/h.]]></desc>
</trkpt>
<trkpt lat="36.701826" lon="137.750634">
<ele>2501.883408</ele>
<time>2014-08-18T01:22:49Z</time>
<desc><![CDATA[lat.=36.701826, lon.=137.750634, Alt.=2501.883408m. Speed=0.000000m/h.]]></desc>
</trkpt>
<trkpt lat="36.701829" lon="137.750642">
<ele>2503.074539</ele>
<time>2014-08-18T01:22:54Z</time>
<desc><![CDATA[lat.=36.701829, lon.=137.750642, Alt.=2503.074539m. Speed=0.000000m/h.]]></desc>
</trkpt>
<trkpt lat="36.701843" lon="137.750641">
<ele>2506.000040</ele>
<time>2014-08-18T01:22:59Z</time>
<desc><![CDATA[lat.=36.701843, lon.=137.750641, Alt.=2506.000040m. Speed=1.000000m/h.]]></desc>
</trkpt>
<trkpt lat="36.701857" lon="137.750657">
<ele>2507.249755</ele>
<time>2014-08-18T01:23:04Z</time>
<desc><![CDATA[lat.=36.701857, lon.=137.750657, Alt.=2507.249755m. Speed=1.000000m/h.]]></desc>
</trkpt>
<trkpt lat="36.701864" lon="137.750673">
<ele>2507.901820</ele>
<time>2014-08-18T01:23:09Z</time>
<desc><![CDATA[lat.=36.701864, lon.=137.750673, Alt.=2507.901820m. Speed=1.000000m/h.]]></desc>
</trkpt>
<trkpt lat="36.701860" lon="137.750696">
<ele>2508.549715</ele>
<time>2014-08-18T01:23:14Z</time>
<desc><![CDATA[lat.=36.701860, lon.=137.750696, Alt.=2508.549715m. Speed=1.000000m/h.]]></desc>
</trkpt>
<trkpt lat="36.701875" lon="137.750713">
<ele>2506.339033</ele>
<time>2014-08-18T01:23:19Z</time>
<desc><![CDATA[lat.=36.701875, lon.=137.750713, Alt.=2506.339033m. Speed=1.000000m/h.]]></desc>
</trkpt>
<trkpt lat="36.701877" lon="137.750736">
<ele>2509.314779</ele>
<time>2014-08-18T01:23:24Z</time>
<desc><![CDATA[lat.=36.701877, lon.=137.750736, Alt.=2509.314779m. Speed=0.000000m/h.]]></desc>
</trkpt>
<trkpt lat="36.701903" lon="137.750729">
<ele>2508.784054</ele>
<time>2014-08-18T01:23:29Z</time>
<desc><![CDATA[lat.=36.701903, lon.=137.750729, Alt.=2508.784054m. Speed=2.000000m/h.]]></desc>
</trkpt>
<trkpt lat="36.701918" lon="137.750714">
<ele>2508.194744</ele>
<time>2014-08-18T01:23:34Z</time>
<desc><![CDATA[lat.=36.701918, lon.=137.750714, Alt.=2508.194744m. Speed=2.000000m/h.]]></desc>
</trkpt>
<trkpt lat="36.701942" lon="137.750701">
<ele>2503.012489</ele>
<time>2014-08-18T01:23:39Z</time>
<desc><![CDATA[lat.=36.701942, lon.=137.750701, Alt.=2503.012489m. Speed=2.000000m/h.]]></desc>
</trkpt>
<trkpt lat="36.701922" lon="137.750690">
<ele>2509.277048</ele>
<time>2014-08-18T01:23:44Z</time>
<desc><![CDATA[lat.=36.701922, lon.=137.750690, Alt.=2509.277048m. Speed=1.000000m/h.]]></desc>
</trkpt>
<trkpt lat="36.701918" lon="137.750697">
<ele>2511.600728</ele>
<time>2014-08-18T01:23:49Z</time>
<desc><![CDATA[lat.=36.701918, lon.=137.750697, Alt.=2511.600728m. Speed=1.000000m/h.]]></desc>
</trkpt>
<trkpt lat="36.701936" lon="137.750706">
<ele>2510.526766</ele>
<time>2014-08-18T01:23:54Z</time>
<desc><![CDATA[lat.=36.701936, lon.=137.750706, Alt.=2510.526766m. Speed=1.000000m/h.]]></desc>
</trkpt>
<trkpt lat="36.701962" lon="137.750715">
<ele>2510.050458</ele>
<time>2014-08-18T01:23:59Z</time>
<desc><![CDATA[lat.=36.701962, lon.=137.750715, Alt.=2510.050458m. Speed=1.000000m/h.]]></desc>
</trkpt>
<trkpt lat="36.701957" lon="137.750738">
<ele>2512.428552</ele>
<time>2014-08-18T01:24:04Z</time>
<desc><![CDATA[lat.=36.701957, lon.=137.750738, Alt.=2512.428552m. Speed=2.000000m/h.]]></desc>
</trkpt>
<trkpt lat="36.701945" lon="137.750759">
<ele>2515.939194</ele>
<time>2014-08-18T01:24:09Z</time>
<desc><![CDATA[lat.=36.701945, lon.=137.750759, Alt.=2515.939194m. Speed=1.000000m/h.]]></desc>
</trkpt>
<trkpt lat="36.701966" lon="137.750774">
<ele>2519.516766</ele>
<time>2014-08-18T01:24:14Z</time>
<desc><![CDATA[lat.=36.701966, lon.=137.750774, Alt.=2519.516766m. Speed=2.000000m/h.]]></desc>
</trkpt>
<trkpt lat="36.701996" lon="137.750777">
<ele>2516.716780</ele>
<time>2014-08-18T01:24:19Z</time>
<desc><![CDATA[lat.=36.701996, lon.=137.750777, Alt.=2516.716780m. Speed=2.000000m/h.]]></desc>
</trkpt>
<trkpt lat="36.702030" lon="137.750787">
<ele>2513.377731</ele>
<time>2014-08-18T01:24:24Z</time>
<desc><![CDATA[lat.=36.702030, lon.=137.750787, Alt.=2513.377731m. Speed=2.000000m/h.]]></desc>
</trkpt>
<trkpt lat="36.702050" lon="137.750783">
<ele>2505.328562</ele>
<time>2014-08-18T01:24:29Z</time>
<desc><![CDATA[lat.=36.702050, lon.=137.750783, Alt.=2505.328562m. Speed=2.000000m/h.]]></desc>
</trkpt>
<trkpt lat="36.702034" lon="137.750814">
<ele>2507.702485</ele>
<time>2014-08-18T01:24:34Z</time>
<desc><![CDATA[lat.=36.702034, lon.=137.750814, Alt.=2507.702485m. Speed=1.000000m/h.]]></desc>
</trkpt>
<trkpt lat="36.702022" lon="137.750820">
<ele>2511.158710</ele>
<time>2014-08-18T01:24:39Z</time>
<desc><![CDATA[lat.=36.702022, lon.=137.750820, Alt.=2511.158710m. Speed=1.000000m/h.]]></desc>
</trkpt>
<trkpt lat="36.702014" lon="137.750819">
<ele>2512.291256</ele>
<time>2014-08-18T01:24:44Z</time>
<desc><![CDATA[lat.=36.702014, lon.=137.750819, Alt.=2512.291256m. Speed=0.000000m/h.]]></desc>
</trkpt>
<trkpt lat="36.702025" lon="137.750811">
<ele>2514.025628</ele>
<time>2014-08-18T01:24:49Z</time>
<desc><![CDATA[lat.=36.702025, lon.=137.750811, Alt.=2514.025628m. Speed=0.000000m/h.]]></desc>
</trkpt>
<trkpt lat="36.702032" lon="137.750811">
<ele>2514.623281</ele>
<time>2014-08-18T01:24:54Z</time>
<desc><![CDATA[lat.=36.702032, lon.=137.750811, Alt.=2514.623281m. Speed=0.000000m/h.]]></desc>
</trkpt>
<trkpt lat="36.702025" lon="137.750826">
<ele>2514.080044</ele>
<time>2014-08-18T01:24:59Z</time>
<desc><![CDATA[lat.=36.702025, lon.=137.750826, Alt.=2514.080044m. Speed=0.000000m/h.]]></desc>
</trkpt>
<trkpt lat="36.702032" lon="137.750811">
<ele>2514.623281</ele>
<time>2014-08-18T01:25:04Z</time>
<desc><![CDATA[lat.=36.702032, lon.=137.750811, Alt.=2514.623281m. Speed=1.000000m/h.]]></desc>
</trkpt>
<trkpt lat="36.702051" lon="137.750787">
<ele>2515.170692</ele>
<time>2014-08-18T01:25:09Z</time>
<desc><![CDATA[lat.=36.702051, lon.=137.750787, Alt.=2515.170692m. Speed=1.000000m/h.]]></desc>
</trkpt>
<trkpt lat="36.702073" lon="137.750803">
<ele>2517.018070</ele>
<time>2014-08-18T01:25:14Z</time>
<desc><![CDATA[lat.=36.702073, lon.=137.750803, Alt.=2517.018070m. Speed=1.000000m/h.]]></desc>
</trkpt>
<trkpt lat="36.702087" lon="137.750803">
<ele>2518.213378</ele>
<time>2014-08-18T01:25:19Z</time>
<desc><![CDATA[lat.=36.702087, lon.=137.750803, Alt.=2518.213378m. Speed=0.000000m/h.]]></desc>
</trkpt>
<trkpt lat="36.702092" lon="137.750814">
<ele>2512.483717</ele>
<time>2014-08-18T01:25:24Z</time>
<desc><![CDATA[lat.=36.702092, lon.=137.750814, Alt.=2512.483717m. Speed=1.000000m/h.]]></desc>
</trkpt>
<trkpt lat="36.702090" lon="137.750843">
<ele>2517.783147</ele>
<time>2014-08-18T01:25:29Z</time>
<desc><![CDATA[lat.=36.702090, lon.=137.750843, Alt.=2517.783147m. Speed=0.000000m/h.]]></desc>
</trkpt>
<trkpt lat="36.702097" lon="137.750842">
<ele>2520.111000</ele>
<time>2014-08-18T01:25:34Z</time>
<desc><![CDATA[lat.=36.702097, lon.=137.750842, Alt.=2520.111000m. Speed=1.000000m/h.]]></desc>
</trkpt>
<trkpt lat="36.702125" lon="137.750874">
<ele>2522.610453</ele>
<time>2014-08-18T01:25:39Z</time>
<desc><![CDATA[lat.=36.702125, lon.=137.750874, Alt.=2522.610453m. Speed=1.000000m/h.]]></desc>
</trkpt>
<trkpt lat="36.702132" lon="137.750875">
<ele>2521.477909</ele>
<time>2014-08-18T01:25:44Z</time>
<desc><![CDATA[lat.=36.702132, lon.=137.750875, Alt.=2521.477909m. Speed=0.000000m/h.]]></desc>
</trkpt>
<trkpt lat="36.702143" lon="137.750882">
<ele>2523.266700</ele>
<time>2014-08-18T01:25:49Z</time>
<desc><![CDATA[lat.=36.702143, lon.=137.750882, Alt.=2523.266700m. Speed=1.000000m/h.]]></desc>
</trkpt>
<trkpt lat="36.702145" lon="137.750888">
<ele>2527.918233</ele>
<time>2014-08-18T01:25:54Z</time>
<desc><![CDATA[lat.=36.702145, lon.=137.750888, Alt.=2527.918233m. Speed=1.000000m/h.]]></desc>
</trkpt>
<trkpt lat="36.702138" lon="137.750871">
<ele>2530.726559</ele>
<time>2014-08-18T01:25:59Z</time>
<desc><![CDATA[lat.=36.702138, lon.=137.750871, Alt.=2530.726559m. Speed=1.000000m/h.]]></desc>
</trkpt>
<trkpt lat="36.702141" lon="137.750878">
<ele>2531.917694</ele>
<time>2014-08-18T01:26:04Z</time>
<desc><![CDATA[lat.=36.702141, lon.=137.750878, Alt.=2531.917694m. Speed=0.000000m/h.]]></desc>
</trkpt>
<trkpt lat="36.702141" lon="137.750862">
<ele>2531.863277</ele>
<time>2014-08-18T01:26:11Z</time>
<desc><![CDATA[lat.=36.702141, lon.=137.750862, Alt.=2531.863277m. Speed=1.000000m/h.]]></desc>
</trkpt>
<trkpt lat="36.702160" lon="137.750839">
<ele>2532.410691</ele>
<time>2014-08-18T01:26:16Z</time>
<desc><![CDATA[lat.=36.702160, lon.=137.750839, Alt.=2532.410691m. Speed=1.000000m/h.]]></desc>
</trkpt>
<trkpt lat="36.702194" lon="137.750817">
<ele>2530.693019</ele>
<time>2014-08-18T01:26:21Z</time>
<desc><![CDATA[lat.=36.702194, lon.=137.750817, Alt.=2530.693019m. Speed=2.000000m/h.]]></desc>
</trkpt>
<trkpt lat="36.702209" lon="137.750834">
<ele>2530.212548</ele>
<time>2014-08-18T01:26:26Z</time>
<desc><![CDATA[lat.=36.702209, lon.=137.750834, Alt.=2530.212548m. Speed=2.000000m/h.]]></desc>
</trkpt>
<trkpt lat="36.702219" lon="137.750857">
<ele>2532.055757</ele>
<time>2014-08-18T01:26:31Z</time>
<desc><![CDATA[lat.=36.702219, lon.=137.750857, Alt.=2532.055757m. Speed=1.000000m/h.]]></desc>
</trkpt>
<trkpt lat="36.702226" lon="137.750857">
<ele>2532.653413</ele>
<time>2014-08-18T01:26:36Z</time>
<desc><![CDATA[lat.=36.702226, lon.=137.750857, Alt.=2532.653413m. Speed=0.000000m/h.]]></desc>
</trkpt>
<trkpt lat="36.702237" lon="137.750850">
<ele>2532.657590</ele>
<time>2014-08-18T01:26:41Z</time>
<desc><![CDATA[lat.=36.702237, lon.=137.750850, Alt.=2532.657590m. Speed=0.000000m/h.]]></desc>
</trkpt>
<trkpt lat="36.702236" lon="137.750865">
<ele>2534.442206</ele>
<time>2014-08-18T01:26:46Z</time>
<desc><![CDATA[lat.=36.702236, lon.=137.750865, Alt.=2534.442206m. Speed=1.000000m/h.]]></desc>
</trkpt>
<trkpt lat="36.702247" lon="137.750872">
<ele>2536.230998</ele>
<time>2014-08-18T01:26:51Z</time>
<desc><![CDATA[lat.=36.702247, lon.=137.750872, Alt.=2536.230998m. Speed=0.000000m/h.]]></desc>
</trkpt>
<trkpt lat="36.702240" lon="137.750872">
<ele>2535.633342</ele>
<time>2014-08-18T01:27:03Z</time>
<desc><![CDATA[lat.=36.702240, lon.=137.750872, Alt.=2535.633342m. Speed=1.000000m/h.]]></desc>
</trkpt>
<trkpt lat="36.702244" lon="137.750865">
<ele>2535.039862</ele>
<time>2014-08-18T01:27:08Z</time>
<desc><![CDATA[lat.=36.702244, lon.=137.750865, Alt.=2535.039862m. Speed=0.000000m/h.]]></desc>
</trkpt>
<trkpt lat="36.702244" lon="137.750849">
<ele>2534.985445</ele>
<time>2014-08-18T01:27:13Z</time>
<desc><![CDATA[lat.=36.702244, lon.=137.750849, Alt.=2534.985445m. Speed=1.000000m/h.]]></desc>
</trkpt>
<trkpt lat="36.702258" lon="137.750849">
<ele>2536.180759</ele>
<time>2014-08-18T01:27:18Z</time>
<desc><![CDATA[lat.=36.702258, lon.=137.750849, Alt.=2536.180759m. Speed=1.000000m/h.]]></desc>
</trkpt>
<trkpt lat="36.702273" lon="137.750833">
<ele>2537.321656</ele>
<time>2014-08-18T01:27:23Z</time>
<desc><![CDATA[lat.=36.702273, lon.=137.750833, Alt.=2537.321656m. Speed=1.000000m/h.]]></desc>
</trkpt>
<trkpt lat="36.702282" lon="137.750802">
<ele>2536.080282</ele>
<time>2014-08-18T01:27:28Z</time>
<desc><![CDATA[lat.=36.702282, lon.=137.750802, Alt.=2536.080282m. Speed=1.000000m/h.]]></desc>
</trkpt>
<trkpt lat="36.702296" lon="137.750803">
<ele>2535.545397</ele>
<time>2014-08-18T01:27:33Z</time>
<desc><![CDATA[lat.=36.702296, lon.=137.750803, Alt.=2535.545397m. Speed=1.000000m/h.]]></desc>
</trkpt>
<trkpt lat="36.702297" lon="137.750771">
<ele>2537.166765</ele>
<time>2014-08-18T01:27:38Z</time>
<desc><![CDATA[lat.=36.702297, lon.=137.750771, Alt.=2537.166765m. Speed=1.000000m/h.]]></desc>
</trkpt>
<trkpt lat="36.702301" lon="137.750747">
<ele>2538.249071</ele>
<time>2014-08-18T01:27:43Z</time>
<desc><![CDATA[lat.=36.702301, lon.=137.750747, Alt.=2538.249071m. Speed=1.000000m/h.]]></desc>
</trkpt>
<trkpt lat="36.702333" lon="137.750771">
<ele>2540.155053</ele>
<time>2014-08-18T01:27:48Z</time>
<desc><![CDATA[lat.=36.702333, lon.=137.750771, Alt.=2540.155053m. Speed=1.000000m/h.]]></desc>
</trkpt>
<trkpt lat="36.702369" lon="137.750804">
<ele>2539.791776</ele>
<time>2014-08-18T01:27:53Z</time>
<desc><![CDATA[lat.=36.702369, lon.=137.750804, Alt.=2539.791776m. Speed=1.000000m/h.]]></desc>
</trkpt>
<trkpt lat="36.702380" lon="137.750812">
<ele>2539.850372</ele>
<time>2014-08-18T01:27:58Z</time>
<desc><![CDATA[lat.=36.702380, lon.=137.750812, Alt.=2539.850372m. Speed=0.000000m/h.]]></desc>
</trkpt>
<trkpt lat="36.702383" lon="137.750836">
<ele>2539.365726</ele>
<time>2014-08-18T01:28:03Z</time>
<desc><![CDATA[lat.=36.702383, lon.=137.750836, Alt.=2539.365726m. Speed=1.000000m/h.]]></desc>
</trkpt>
<trkpt lat="36.702387" lon="137.750844">
<ele>2538.826664</ele>
<time>2014-08-18T01:28:08Z</time>
<desc><![CDATA[lat.=36.702387, lon.=137.750844, Alt.=2538.826664m. Speed=1.000000m/h.]]></desc>
</trkpt>
<trkpt lat="36.702364" lon="137.750843">
<ele>2540.494087</ele>
<time>2014-08-18T01:28:13Z</time>
<desc><![CDATA[lat.=36.702364, lon.=137.750843, Alt.=2540.494087m. Speed=0.000000m/h.]]></desc>
</trkpt>
<trkpt lat="36.702365" lon="137.750811">
<ele>2542.115453</ele>
<time>2014-08-18T01:28:18Z</time>
<desc><![CDATA[lat.=36.702365, lon.=137.750811, Alt.=2542.115453m. Speed=2.000000m/h.]]></desc>
</trkpt>
<trkpt lat="36.702353" lon="137.750817">
<ele>2543.841472</ele>
<time>2014-08-18T01:28:23Z</time>
<desc><![CDATA[lat.=36.702353, lon.=137.750817, Alt.=2543.841472m. Speed=0.000000m/h.]]></desc>
</trkpt>
<trkpt lat="36.702357" lon="137.750810">
<ele>2543.247994</ele>
<time>2014-08-18T01:28:28Z</time>
<desc><![CDATA[lat.=36.702357, lon.=137.750810, Alt.=2543.247994m. Speed=1.000000m/h.]]></desc>
</trkpt>
<trkpt lat="36.702361" lon="137.750786">
<ele>2542.600100</ele>
<time>2014-08-18T01:28:33Z</time>
<desc><![CDATA[lat.=36.702361, lon.=137.750786, Alt.=2542.600100m. Speed=1.000000m/h.]]></desc>
</trkpt>
<trkpt lat="36.702362" lon="137.750788">
<ele>2539.139702</ele>
<time>2014-08-18T01:28:38Z</time>
<desc><![CDATA[lat.=36.702362, lon.=137.750788, Alt.=2539.139702m. Speed=0.000000m/h.]]></desc>
</trkpt>
<trkpt lat="36.702375" lon="137.750802">
<ele>2543.849832</ele>
<time>2014-08-18T01:28:43Z</time>
<desc><![CDATA[lat.=36.702375, lon.=137.750802, Alt.=2543.849832m. Speed=1.000000m/h.]]></desc>
</trkpt>
<trkpt lat="36.702378" lon="137.750809">
<ele>2546.771167</ele>
<time>2014-08-18T01:28:48Z</time>
<desc><![CDATA[lat.=36.702378, lon.=137.750809, Alt.=2546.771167m. Speed=0.000000m/h.]]></desc>
</trkpt>
<trkpt lat="36.702393" lon="137.750810">
<ele>2546.236286</ele>
<time>2014-08-18T01:28:53Z</time>
<desc><![CDATA[lat.=36.702393, lon.=137.750810, Alt.=2546.236286m. Speed=0.000000m/h.]]></desc>
</trkpt>
<trkpt lat="36.702388" lon="137.750816">
<ele>2550.290161</ele>
<time>2014-08-18T01:28:58Z</time>
<desc><![CDATA[lat.=36.702388, lon.=137.750816, Alt.=2550.290161m. Speed=0.000000m/h.]]></desc>
</trkpt>
<trkpt lat="36.702384" lon="137.750823">
<ele>2552.613838</ele>
<time>2014-08-18T01:29:03Z</time>
<desc><![CDATA[lat.=36.702384, lon.=137.750823, Alt.=2552.613838m. Speed=0.000000m/h.]]></desc>
</trkpt>
<trkpt lat="36.702395" lon="137.750815">
<ele>2552.618019</ele>
<time>2014-08-18T01:29:08Z</time>
<desc><![CDATA[lat.=36.702395, lon.=137.750815, Alt.=2552.618019m. Speed=0.000000m/h.]]></desc>
</trkpt>
<trkpt lat="36.702388" lon="137.750815">
<ele>2552.020360</ele>
<time>2014-08-18T01:29:14Z</time>
<desc><![CDATA[lat.=36.702388, lon.=137.750815, Alt.=2552.020360m. Speed=0.000000m/h.]]></desc>
</trkpt>
<trkpt lat="36.702388" lon="137.750814">
<ele>2553.750559</ele>
<time>2014-08-18T01:29:19Z</time>
<desc><![CDATA[lat.=36.702388, lon.=137.750814, Alt.=2553.750559m. Speed=0.000000m/h.]]></desc>
</trkpt>
<trkpt lat="36.702398" lon="137.750823">
<ele>2553.809156</ele>
<time>2014-08-18T01:29:24Z</time>
<desc><![CDATA[lat.=36.702398, lon.=137.750823, Alt.=2553.809156m. Speed=0.000000m/h.]]></desc>
</trkpt>
<trkpt lat="36.702409" lon="137.750846">
<ele>2555.652368</ele>
<time>2014-08-18T01:29:29Z</time>
<desc><![CDATA[lat.=36.702409, lon.=137.750846, Alt.=2555.652368m. Speed=1.000000m/h.]]></desc>
</trkpt>
<trkpt lat="36.702426" lon="137.750870">
<ele>2556.363041</ele>
<time>2014-08-18T01:29:34Z</time>
<desc><![CDATA[lat.=36.702426, lon.=137.750870, Alt.=2556.363041m. Speed=2.000000m/h.]]></desc>
</trkpt>
<trkpt lat="36.702456" lon="137.750871">
<ele>2557.023479</ele>
<time>2014-08-18T01:29:39Z</time>
<desc><![CDATA[lat.=36.702456, lon.=137.750871, Alt.=2557.023479m. Speed=2.000000m/h.]]></desc>
</trkpt>
<trkpt lat="36.702455" lon="137.750886">
<ele>2558.808095</ele>
<time>2014-08-18T01:29:44Z</time>
<desc><![CDATA[lat.=36.702455, lon.=137.750886, Alt.=2558.808095m. Speed=0.000000m/h.]]></desc>
</trkpt>
<trkpt lat="36.702459" lon="137.750878">
<ele>2558.214617</ele>
<time>2014-08-18T01:29:49Z</time>
<desc><![CDATA[lat.=36.702459, lon.=137.750878, Alt.=2558.214617m. Speed=0.000000m/h.]]></desc>
</trkpt>
<trkpt lat="36.702467" lon="137.750863">
<ele>2557.027661</ele>
<time>2014-08-18T01:29:54Z</time>
<desc><![CDATA[lat.=36.702467, lon.=137.750863, Alt.=2557.027661m. Speed=1.000000m/h.]]></desc>
</trkpt>
<trkpt lat="36.702471" lon="137.750839">
<ele>2558.109965</ele>
<time>2014-08-18T01:29:59Z</time>
<desc><![CDATA[lat.=36.702471, lon.=137.750839, Alt.=2558.109965m. Speed=1.000000m/h.]]></desc>
</trkpt>
<trkpt lat="36.702464" lon="137.750823">
<ele>2557.457889</ele>
<time>2014-08-18T01:30:04Z</time>
<desc><![CDATA[lat.=36.702464, lon.=137.750823, Alt.=2557.457889m. Speed=2.000000m/h.]]></desc>
</trkpt>
<trkpt lat="36.702475" lon="137.750800">
<ele>2557.407656</ele>
<time>2014-08-18T01:30:09Z</time>
<desc><![CDATA[lat.=36.702475, lon.=137.750800, Alt.=2557.407656m. Speed=1.000000m/h.]]></desc>
</trkpt>
<trkpt lat="36.702476" lon="137.750768">
<ele>2557.298825</ele>
<time>2014-08-18T01:30:14Z</time>
<desc><![CDATA[lat.=36.702476, lon.=137.750768, Alt.=2557.298825m. Speed=1.000000m/h.]]></desc>
</trkpt>
<trkpt lat="36.702506" lon="137.750754">
<ele>2556.174653</ele>
<time>2014-08-18T01:30:19Z</time>
<desc><![CDATA[lat.=36.702506, lon.=137.750754, Alt.=2556.174653m. Speed=2.000000m/h.]]></desc>
</trkpt>
<trkpt lat="36.702539" lon="137.750763">
<ele>2556.296034</ele>
<time>2014-08-18T01:30:24Z</time>
<desc><![CDATA[lat.=36.702539, lon.=137.750763, Alt.=2556.296034m. Speed=1.000000m/h.]]></desc>
</trkpt>
<trkpt lat="36.702543" lon="137.750755">
<ele>2557.432756</ele>
<time>2014-08-18T01:30:29Z</time>
<desc><![CDATA[lat.=36.702543, lon.=137.750755, Alt.=2557.432756m. Speed=1.000000m/h.]]></desc>
</trkpt>
<trkpt lat="36.702546" lon="137.750747">
<ele>2558.569479</ele>
<time>2014-08-18T01:30:34Z</time>
<desc><![CDATA[lat.=36.702546, lon.=137.750747, Alt.=2558.569479m. Speed=1.000000m/h.]]></desc>
</trkpt>
<trkpt lat="36.702569" lon="137.750732">
<ele>2556.847650</ele>
<time>2014-08-18T01:30:39Z</time>
<desc><![CDATA[lat.=36.702569, lon.=137.750732, Alt.=2556.847650m. Speed=2.000000m/h.]]></desc>
</trkpt>
<trkpt lat="36.702565" lon="137.750724">
<ele>2557.386712</ele>
<time>2014-08-18T01:30:44Z</time>
<desc><![CDATA[lat.=36.702565, lon.=137.750724, Alt.=2557.386712m. Speed=1.000000m/h.]]></desc>
</trkpt>
<trkpt lat="36.702569" lon="137.750716">
<ele>2558.523435</ele>
<time>2014-08-18T01:30:49Z</time>
<desc><![CDATA[lat.=36.702569, lon.=137.750716, Alt.=2558.523435m. Speed=1.000000m/h.]]></desc>
</trkpt>
<trkpt lat="36.702595" lon="137.750741">
<ele>2556.371373</ele>
<time>2014-08-18T01:30:54Z</time>
<desc><![CDATA[lat.=36.702595, lon.=137.750741, Alt.=2556.371373m. Speed=2.000000m/h.]]></desc>
</trkpt>
<trkpt lat="36.702598" lon="137.750749">
<ele>2557.562511</ele>
<time>2014-08-18T01:30:59Z</time>
<desc><![CDATA[lat.=36.702598, lon.=137.750749, Alt.=2557.562511m. Speed=0.000000m/h.]]></desc>
</trkpt>
<trkpt lat="36.702594" lon="137.750741">
<ele>2558.101572</ele>
<time>2014-08-18T01:31:04Z</time>
<desc><![CDATA[lat.=36.702594, lon.=137.750741, Alt.=2558.101572m. Speed=1.000000m/h.]]></desc>
</trkpt>
<trkpt lat="36.702590" lon="137.750731">
<ele>2562.101031</ele>
<time>2014-08-18T01:31:09Z</time>
<desc><![CDATA[lat.=36.702590, lon.=137.750731, Alt.=2562.101031m. Speed=0.000000m/h.]]></desc>
</trkpt>
<trkpt lat="36.702585" lon="137.750737">
<ele>2566.154904</ele>
<time>2014-08-18T01:31:14Z</time>
<desc><![CDATA[lat.=36.702585, lon.=137.750737, Alt.=2566.154904m. Speed=1.000000m/h.]]></desc>
</trkpt>
<trkpt lat="36.702596" lon="137.750761">
<ele>2566.267919</ele>
<time>2014-08-18T01:31:19Z</time>
<desc><![CDATA[lat.=36.702596, lon.=137.750761, Alt.=2566.267919m. Speed=1.000000m/h.]]></desc>
</trkpt>
<trkpt lat="36.702595" lon="137.750777">
<ele>2566.322334</ele>
<time>2014-08-18T01:31:24Z</time>
<desc><![CDATA[lat.=36.702595, lon.=137.750777, Alt.=2566.322334m. Speed=1.000000m/h.]]></desc>
</trkpt>
<trkpt lat="36.702621" lon="137.750802">
<ele>2565.900474</ele>
<time>2014-08-18T01:31:29Z</time>
<desc><![CDATA[lat.=36.702621, lon.=137.750802, Alt.=2565.900474m. Speed=1.000000m/h.]]></desc>
</trkpt>
<trkpt lat="36.702624" lon="137.750793">
<ele>2567.037197</ele>
<time>2014-08-18T01:31:36Z</time>
<desc><![CDATA[lat.=36.702624, lon.=137.750793, Alt.=2567.037197m. Speed=1.000000m/h.]]></desc>
</trkpt>
<trkpt lat="36.702636" lon="137.750770">
<ele>2566.986968</ele>
<time>2014-08-18T01:31:41Z</time>
<desc><![CDATA[lat.=36.702636, lon.=137.750770, Alt.=2566.986968m. Speed=2.000000m/h.]]></desc>
</trkpt>
<trkpt lat="36.702662" lon="137.750747">
<ele>2566.401866</ele>
<time>2014-08-18T01:31:46Z</time>
<desc><![CDATA[lat.=36.702662, lon.=137.750747, Alt.=2566.401866m. Speed=1.000000m/h.]]></desc>
</trkpt>
<trkpt lat="36.702666" lon="137.750756">
<ele>2565.862805</ele>
<time>2014-08-18T01:31:52Z</time>
<desc><![CDATA[lat.=36.702666, lon.=137.750756, Alt.=2565.862805m. Speed=0.000000m/h.]]></desc>
</trkpt>
<trkpt lat="36.702681" lon="137.750740">
<ele>2567.003715</ele>
<time>2014-08-18T01:31:57Z</time>
<desc><![CDATA[lat.=36.702681, lon.=137.750740, Alt.=2567.003715m. Speed=1.000000m/h.]]></desc>
</trkpt>
<trkpt lat="36.702669" lon="137.750730">
<ele>2570.405511</ele>
<time>2014-08-18T01:32:02Z</time>
<desc><![CDATA[lat.=36.702669, lon.=137.750730, Alt.=2570.405511m. Speed=1.000000m/h.]]></desc>
</trkpt>
<trkpt lat="36.702661" lon="137.750713">
<ele>2573.213832</ele>
<time>2014-08-18T01:32:07Z</time>
<desc><![CDATA[lat.=36.702661, lon.=137.750713, Alt.=2573.213832m. Speed=1.000000m/h.]]></desc>
</trkpt>
<trkpt lat="36.702688" lon="137.750707">
<ele>2570.952948</ele>
<time>2014-08-18T01:32:12Z</time>
<desc><![CDATA[lat.=36.702688, lon.=137.750707, Alt.=2570.952948m. Speed=1.000000m/h.]]></desc>
</trkpt>
<trkpt lat="36.702694" lon="137.750738">
<ele>2573.389637</ele>
<time>2014-08-18T01:32:17Z</time>
<desc><![CDATA[lat.=36.702694, lon.=137.750738, Alt.=2573.389637m. Speed=1.000000m/h.]]></desc>
</trkpt>
<trkpt lat="36.702716" lon="137.750771">
<ele>2571.831058</ele>
<time>2014-08-18T01:32:22Z</time>
<desc><![CDATA[lat.=36.702716, lon.=137.750771, Alt.=2571.831058m. Speed=1.000000m/h.]]></desc>
</trkpt>
<trkpt lat="36.702714" lon="137.750802">
<ele>2573.670087</ele>
<time>2014-08-18T01:32:27Z</time>
<desc><![CDATA[lat.=36.702714, lon.=137.750802, Alt.=2573.670087m. Speed=0.000000m/h.]]></desc>
</trkpt>
<trkpt lat="36.702737" lon="137.750802">
<ele>2573.732878</ele>
<time>2014-08-18T01:32:32Z</time>
<desc><![CDATA[lat.=36.702737, lon.=137.750802, Alt.=2573.732878m. Speed=1.000000m/h.]]></desc>
</trkpt>
<trkpt lat="36.702748" lon="137.750779">
<ele>2573.682651</ele>
<time>2014-08-18T01:32:37Z</time>
<desc><![CDATA[lat.=36.702748, lon.=137.750779, Alt.=2573.682651m. Speed=1.000000m/h.]]></desc>
</trkpt>
<trkpt lat="36.702745" lon="137.750755">
<ele>2574.167296</ele>
<time>2014-08-18T01:32:42Z</time>
<desc><![CDATA[lat.=36.702745, lon.=137.750755, Alt.=2574.167296m. Speed=1.000000m/h.]]></desc>
</trkpt>
<trkpt lat="36.702741" lon="137.750747">
<ele>2574.706357</ele>
<time>2014-08-18T01:32:47Z</time>
<desc><![CDATA[lat.=36.702741, lon.=137.750747, Alt.=2574.706357m. Speed=0.000000m/h.]]></desc>
</trkpt>
<trkpt lat="36.702752" lon="137.750739">
<ele>2574.710546</ele>
<time>2014-08-18T01:32:52Z</time>
<desc><![CDATA[lat.=36.702752, lon.=137.750739, Alt.=2574.710546m. Speed=0.000000m/h.]]></desc>
</trkpt>
<trkpt lat="36.702752" lon="137.750738">
<ele>2576.440744</ele>
<time>2014-08-18T01:32:57Z</time>
<desc><![CDATA[lat.=36.702752, lon.=137.750738, Alt.=2576.440744m. Speed=0.000000m/h.]]></desc>
</trkpt>
<trkpt lat="36.702752" lon="137.750738">
<ele>2578.170943</ele>
<time>2014-08-18T01:33:02Z</time>
<desc><![CDATA[lat.=36.702752, lon.=137.750738, Alt.=2578.170943m. Speed=0.000000m/h.]]></desc>
</trkpt>
<trkpt lat="36.702752" lon="137.750722">
<ele>2578.116529</ele>
<time>2014-08-18T01:33:07Z</time>
<desc><![CDATA[lat.=36.702752, lon.=137.750722, Alt.=2578.116529m. Speed=1.000000m/h.]]></desc>
</trkpt>
<trkpt lat="36.702778" lon="137.750715">
<ele>2577.585847</ele>
<time>2014-08-18T01:33:12Z</time>
<desc><![CDATA[lat.=36.702778, lon.=137.750715, Alt.=2577.585847m. Speed=1.000000m/h.]]></desc>
</trkpt>
<trkpt lat="36.702804" lon="137.750724">
<ele>2577.109581</ele>
<time>2014-08-18T01:33:17Z</time>
<desc><![CDATA[lat.=36.702804, lon.=137.750724, Alt.=2577.109581m. Speed=1.000000m/h.]]></desc>
</trkpt>
<trkpt lat="36.702822" lon="137.750733">
<ele>2576.035652</ele>
<time>2014-08-18T01:33:22Z</time>
<desc><![CDATA[lat.=36.702822, lon.=137.750733, Alt.=2576.035652m. Speed=0.000000m/h.]]></desc>
</trkpt>
<trkpt lat="36.702825" lon="137.750741">
<ele>2577.226790</ele>
<time>2014-08-18T01:33:27Z</time>
<desc><![CDATA[lat.=36.702825, lon.=137.750741, Alt.=2577.226790m. Speed=1.000000m/h.]]></desc>
</trkpt>
<trkpt lat="36.702825" lon="137.750740">
<ele>2578.956989</ele>
<time>2014-08-18T01:33:32Z</time>
<desc><![CDATA[lat.=36.702825, lon.=137.750740, Alt.=2578.956989m. Speed=0.000000m/h.]]></desc>
</trkpt>
<trkpt lat="36.702825" lon="137.750724">
<ele>2578.902575</ele>
<time>2014-08-18T01:33:37Z</time>
<desc><![CDATA[lat.=36.702825, lon.=137.750724, Alt.=2578.902575m. Speed=0.000000m/h.]]></desc>
</trkpt>
<trkpt lat="36.702839" lon="137.750740">
<ele>2580.152318</ele>
<time>2014-08-18T01:33:42Z</time>
<desc><![CDATA[lat.=36.702839, lon.=137.750740, Alt.=2580.152318m. Speed=0.000000m/h.]]></desc>
</trkpt>
<trkpt lat="36.702843" lon="137.750748">
<ele>2579.613259</ele>
<time>2014-08-18T01:33:49Z</time>
<desc><![CDATA[lat.=36.702843, lon.=137.750748, Alt.=2579.613259m. Speed=0.000000m/h.]]></desc>
</trkpt>
<trkpt lat="36.702835" lon="137.750747">
<ele>2582.475991</ele>
<time>2014-08-18T01:33:54Z</time>
<desc><![CDATA[lat.=36.702835, lon.=137.750747, Alt.=2582.475991m. Speed=0.000000m/h.]]></desc>
</trkpt>
<trkpt lat="36.702828" lon="137.750746">
<ele>2583.608525</ele>
<time>2014-08-18T01:33:59Z</time>
<desc><![CDATA[lat.=36.702828, lon.=137.750746, Alt.=2583.608525m. Speed=0.000000m/h.]]></desc>
</trkpt>
<trkpt lat="36.702835" lon="137.750746">
<ele>2584.206189</ele>
<time>2014-08-18T01:34:04Z</time>
<desc><![CDATA[lat.=36.702835, lon.=137.750746, Alt.=2584.206189m. Speed=0.000000m/h.]]></desc>
</trkpt>
<trkpt lat="36.702838" lon="137.750769">
<ele>2585.451743</ele>
<time>2014-08-18T01:34:09Z</time>
<desc><![CDATA[lat.=36.702838, lon.=137.750769, Alt.=2585.451743m. Speed=1.000000m/h.]]></desc>
</trkpt>
<trkpt lat="36.702841" lon="137.750777">
<ele>2586.642882</ele>
<time>2014-08-18T01:34:14Z</time>
<desc><![CDATA[lat.=36.702841, lon.=137.750777, Alt.=2586.642882m. Speed=0.000000m/h.]]></desc>
</trkpt>
<trkpt lat="36.702848" lon="137.750777">
<ele>2585.510348</ele>
<time>2014-08-18T01:34:19Z</time>
<desc><![CDATA[lat.=36.702848, lon.=137.750777, Alt.=2585.510348m. Speed=0.000000m/h.]]></desc>
</trkpt>
<trkpt lat="36.702870" lon="137.750762">
<ele>2587.248929</ele>
<time>2014-08-18T01:34:24Z</time>
<desc><![CDATA[lat.=36.702870, lon.=137.750762, Alt.=2587.248929m. Speed=2.000000m/h.]]></desc>
</trkpt>
<trkpt lat="36.702885" lon="137.750762">
<ele>2586.714061</ele>
<time>2014-08-18T01:34:29Z</time>
<desc><![CDATA[lat.=36.702885, lon.=137.750762, Alt.=2586.714061m. Speed=1.000000m/h.]]></desc>
</trkpt>
<trkpt lat="36.702878" lon="137.750746">
<ele>2587.792180</ele>
<time>2014-08-18T01:34:34Z</time>
<desc><![CDATA[lat.=36.702878, lon.=137.750746, Alt.=2587.792180m. Speed=0.000000m/h.]]></desc>
</trkpt>
<trkpt lat="36.702881" lon="137.750753">
<ele>2588.983319</ele>
<time>2014-08-18T01:34:39Z</time>
<desc><![CDATA[lat.=36.702881, lon.=137.750753, Alt.=2588.983319m. Speed=0.000000m/h.]]></desc>
</trkpt>
<trkpt lat="36.702889" lon="137.750753">
<ele>2589.580985</ele>
<time>2014-08-18T01:34:44Z</time>
<desc><![CDATA[lat.=36.702889, lon.=137.750753, Alt.=2589.580985m. Speed=1.000000m/h.]]></desc>
</trkpt>
<trkpt lat="36.702899" lon="137.750762">
<ele>2589.639591</ele>
<time>2014-08-18T01:34:49Z</time>
<desc><![CDATA[lat.=36.702899, lon.=137.750762, Alt.=2589.639591m. Speed=1.000000m/h.]]></desc>
</trkpt>
<trkpt lat="36.702888" lon="137.750769">
<ele>2589.635399</ele>
<time>2014-08-18T01:34:54Z</time>
<desc><![CDATA[lat.=36.702888, lon.=137.750769, Alt.=2589.635399m. Speed=0.000000m/h.]]></desc>
</trkpt>
<trkpt lat="36.702892" lon="137.750777">
<ele>2589.096340</ele>
<time>2014-08-18T01:34:59Z</time>
<desc><![CDATA[lat.=36.702892, lon.=137.750777, Alt.=2589.096340m. Speed=0.000000m/h.]]></desc>
</trkpt>
<trkpt lat="36.702902" lon="137.750802">
<ele>2589.209362</ele>
<time>2014-08-18T01:35:04Z</time>
<desc><![CDATA[lat.=36.702902, lon.=137.750802, Alt.=2589.209362m. Speed=1.000000m/h.]]></desc>
</trkpt>
<trkpt lat="36.702909" lon="137.750817">
<ele>2589.861443</ele>
<time>2014-08-18T01:35:09Z</time>
<desc><![CDATA[lat.=36.702909, lon.=137.750817, Alt.=2589.861443m. Speed=0.000000m/h.]]></desc>
</trkpt>
<trkpt lat="36.702917" lon="137.750818">
<ele>2588.728911</ele>
<time>2014-08-18T01:35:15Z</time>
<desc><![CDATA[lat.=36.702917, lon.=137.750818, Alt.=2588.728911m. Speed=0.000000m/h.]]></desc>
</trkpt>
<trkpt lat="36.702924" lon="137.750818">
<ele>2589.326577</ele>
<time>2014-08-18T01:35:20Z</time>
<desc><![CDATA[lat.=36.702924, lon.=137.750818, Alt.=2589.326577m. Speed=1.000000m/h.]]></desc>
</trkpt>
<trkpt lat="36.702932" lon="137.750802">
<ele>2589.869828</ele>
<time>2014-08-18T01:35:25Z</time>
<desc><![CDATA[lat.=36.702932, lon.=137.750802, Alt.=2589.869828m. Speed=2.000000m/h.]]></desc>
</trkpt>
<trkpt lat="36.702943" lon="137.750795">
<ele>2589.874020</ele>
<time>2014-08-18T01:35:30Z</time>
<desc><![CDATA[lat.=36.702943, lon.=137.750795, Alt.=2589.874020m. Speed=1.000000m/h.]]></desc>
</trkpt>
<trkpt lat="36.702969" lon="137.750788">
<ele>2589.343348</ele>
<time>2014-08-18T01:35:35Z</time>
<desc><![CDATA[lat.=36.702969, lon.=137.750788, Alt.=2589.343348m. Speed=1.000000m/h.]]></desc>
</trkpt>
<trkpt lat="36.702984" lon="137.750772">
<ele>2590.484266</ele>
<time>2014-08-18T01:35:40Z</time>
<desc><![CDATA[lat.=36.702984, lon.=137.750772, Alt.=2590.484266m. Speed=1.000000m/h.]]></desc>
</trkpt>
<trkpt lat="36.702984" lon="137.750756">
<ele>2592.160050</ele>
<time>2014-08-18T01:35:45Z</time>
<desc><![CDATA[lat.=36.702984, lon.=137.750756, Alt.=2592.160050m. Speed=1.000000m/h.]]></desc>
</trkpt>
<trkpt lat="36.702987" lon="137.750731">
<ele>2594.972560</ele>
<time>2014-08-18T01:35:50Z</time>
<desc><![CDATA[lat.=36.702987, lon.=137.750731, Alt.=2594.972560m. Speed=1.000000m/h.]]></desc>
</trkpt>
<trkpt lat="36.702995" lon="137.750716">
<ele>2593.785615</ele>
<time>2014-08-18T01:35:55Z</time>
<desc><![CDATA[lat.=36.702995, lon.=137.750716, Alt.=2593.785615m. Speed=1.000000m/h.]]></desc>
</trkpt>
<trkpt lat="36.703007" lon="137.750692">
<ele>2593.735397</ele>
<time>2014-08-18T01:36:00Z</time>
<desc><![CDATA[lat.=36.703007, lon.=137.750692, Alt.=2593.735397m. Speed=2.000000m/h.]]></desc>
</trkpt>
<trkpt lat="36.703022" lon="137.750677">
<ele>2593.146120</ele>
<time>2014-08-18T01:36:05Z</time>
<desc><![CDATA[lat.=36.703022, lon.=137.750677, Alt.=2593.146120m. Speed=1.000000m/h.]]></desc>
</trkpt>
<trkpt lat="36.703033" lon="137.750671">
<ele>2591.420117</ele>
<time>2014-08-18T01:36:10Z</time>
<desc><![CDATA[lat.=36.703033, lon.=137.750671, Alt.=2591.420117m. Speed=0.000000m/h.]]></desc>
</trkpt>
<trkpt lat="36.703037" lon="137.750663">
<ele>2590.826645</ele>
<time>2014-08-18T01:36:15Z</time>
<desc><![CDATA[lat.=36.703037, lon.=137.750663, Alt.=2590.826645m. Speed=0.000000m/h.]]></desc>
</trkpt>
<trkpt lat="36.703052" lon="137.750647">
<ele>2591.967569</ele>
<time>2014-08-18T01:36:20Z</time>
<desc><![CDATA[lat.=36.703052, lon.=137.750647, Alt.=2591.967569m. Speed=1.000000m/h.]]></desc>
</trkpt>
<trkpt lat="36.703060" lon="137.750616">
<ele>2592.456413</ele>
<time>2014-08-18T01:36:25Z</time>
<desc><![CDATA[lat.=36.703060, lon.=137.750616, Alt.=2592.456413m. Speed=1.000000m/h.]]></desc>
</trkpt>
<trkpt lat="36.703071" lon="137.750607">
<ele>2594.190808</ele>
<time>2014-08-18T01:36:30Z</time>
<desc><![CDATA[lat.=36.703071, lon.=137.750607, Alt.=2594.190808m. Speed=1.000000m/h.]]></desc>
</trkpt>
<trkpt lat="36.703078" lon="137.750591">
<ele>2596.464264</ele>
<time>2014-08-18T01:36:35Z</time>
<desc><![CDATA[lat.=36.703078, lon.=137.750591, Alt.=2596.464264m. Speed=0.000000m/h.]]></desc>
</trkpt>
<trkpt lat="36.703071" lon="137.750591">
<ele>2595.866596</ele>
<time>2014-08-18T01:36:40Z</time>
<desc><![CDATA[lat.=36.703071, lon.=137.750591, Alt.=2595.866596m. Speed=0.000000m/h.]]></desc>
</trkpt>
<trkpt lat="36.703082" lon="137.750583">
<ele>2595.870793</ele>
<time>2014-08-18T01:36:45Z</time>
<desc><![CDATA[lat.=36.703082, lon.=137.750583, Alt.=2595.870793m. Speed=1.000000m/h.]]></desc>
</trkpt>
<trkpt lat="36.703086" lon="137.750575">
<ele>2597.007521</ele>
<time>2014-08-18T01:36:50Z</time>
<desc><![CDATA[lat.=36.703086, lon.=137.750575, Alt.=2597.007521m. Speed=0.000000m/h.]]></desc>
</trkpt>
<trkpt lat="36.703093" lon="137.750559">
<ele>2597.550779</ele>
<time>2014-08-18T01:36:55Z</time>
<desc><![CDATA[lat.=36.703093, lon.=137.750559, Alt.=2597.550779m. Speed=1.000000m/h.]]></desc>
</trkpt>
<trkpt lat="36.703119" lon="137.750552">
<ele>2598.750315</ele>
<time>2014-08-18T01:37:00Z</time>
<desc><![CDATA[lat.=36.703119, lon.=137.750552, Alt.=2598.750315m. Speed=1.000000m/h.]]></desc>
</trkpt>
<trkpt lat="36.703137" lon="137.750544">
<ele>2599.352183</ele>
<time>2014-08-18T01:37:05Z</time>
<desc><![CDATA[lat.=36.703137, lon.=137.750544, Alt.=2599.352183m. Speed=1.000000m/h.]]></desc>
</trkpt>
<trkpt lat="36.703149" lon="137.750537">
<ele>2599.356382</ele>
<time>2014-08-18T01:37:10Z</time>
<desc><![CDATA[lat.=36.703149, lon.=137.750537, Alt.=2599.356382m. Speed=1.000000m/h.]]></desc>
</trkpt>
<trkpt lat="36.703175" lon="137.750531">
<ele>2597.095524</ele>
<time>2014-08-18T01:37:15Z</time>
<desc><![CDATA[lat.=36.703175, lon.=137.750531, Alt.=2597.095524m. Speed=1.000000m/h.]]></desc>
</trkpt>
<trkpt lat="36.703190" lon="137.750515">
<ele>2598.236454</ele>
<time>2014-08-18T01:37:20Z</time>
<desc><![CDATA[lat.=36.703190, lon.=137.750515, Alt.=2598.236454m. Speed=1.000000m/h.]]></desc>
</trkpt>
<trkpt lat="36.703230" lon="137.750541">
<ele>2595.549559</ele>
<time>2014-08-18T01:37:25Z</time>
<desc><![CDATA[lat.=36.703230, lon.=137.750541, Alt.=2595.549559m. Speed=1.000000m/h.]]></desc>
</trkpt>
<trkpt lat="36.703244" lon="137.750572">
<ele>2598.583919</ele>
<time>2014-08-18T01:37:30Z</time>
<desc><![CDATA[lat.=36.703244, lon.=137.750572, Alt.=2598.583919m. Speed=1.000000m/h.]]></desc>
</trkpt>
<trkpt lat="36.703233" lon="137.750547">
<ele>2600.201095</ele>
<time>2014-08-18T01:37:35Z</time>
<desc><![CDATA[lat.=36.703233, lon.=137.750547, Alt.=2600.201095m. Speed=1.000000m/h.]]></desc>
</trkpt>
<trkpt lat="36.703229" lon="137.750539">
<ele>2600.740154</ele>
<time>2014-08-18T01:37:41Z</time>
<desc><![CDATA[lat.=36.703229, lon.=137.750539, Alt.=2600.740154m. Speed=0.000000m/h.]]></desc>
</trkpt>
<trkpt lat="36.703240" lon="137.750531">
<ele>2602.474554</ele>
<time>2014-08-18T01:37:46Z</time>
<desc><![CDATA[lat.=36.703240, lon.=137.750531, Alt.=2602.474554m. Speed=0.000000m/h.]]></desc>
</trkpt>
<trkpt lat="36.703236" lon="137.750537">
<ele>2604.798222</ele>
<time>2014-08-18T01:37:51Z</time>
<desc><![CDATA[lat.=36.703236, lon.=137.750537, Alt.=2604.798222m. Speed=0.000000m/h.]]></desc>
</trkpt>
<trkpt lat="36.703240" lon="137.750530">
<ele>2604.204753</ele>
<time>2014-08-18T01:37:56Z</time>
<desc><![CDATA[lat.=36.703240, lon.=137.750530, Alt.=2604.204753m. Speed=1.000000m/h.]]></desc>
</trkpt>
<trkpt lat="36.703251" lon="137.750522">
<ele>2604.208954</ele>
<time>2014-08-18T01:38:01Z</time>
<desc><![CDATA[lat.=36.703251, lon.=137.750522, Alt.=2604.208954m. Speed=1.000000m/h.]]></desc>
</trkpt>
<trkpt lat="36.703255" lon="137.750514">
<ele>2605.345684</ele>
<time>2014-08-18T01:38:06Z</time>
<desc><![CDATA[lat.=36.703255, lon.=137.750514, Alt.=2605.345684m. Speed=1.000000m/h.]]></desc>
</trkpt>
<trkpt lat="36.703261" lon="137.750513">
<ele>2607.673553</ele>
<time>2014-08-18T01:38:11Z</time>
<desc><![CDATA[lat.=36.703261, lon.=137.750513, Alt.=2607.673553m. Speed=1.000000m/h.]]></desc>
</trkpt>
<trkpt lat="36.703272" lon="137.750522">
<ele>2607.732165</ele>
<time>2014-08-18T01:38:16Z</time>
<desc><![CDATA[lat.=36.703272, lon.=137.750522, Alt.=2607.732165m. Speed=0.000000m/h.]]></desc>
</trkpt>
<trkpt lat="36.703273" lon="137.750506">
<ele>2607.677756</ele>
<time>2014-08-18T01:38:21Z</time>
<desc><![CDATA[lat.=36.703273, lon.=137.750506, Alt.=2607.677756m. Speed=0.000000m/h.]]></desc>
</trkpt>
<trkpt lat="36.703280" lon="137.750506">
<ele>2608.275427</ele>
<time>2014-08-18T01:38:26Z</time>
<desc><![CDATA[lat.=36.703280, lon.=137.750506, Alt.=2608.275427m. Speed=0.000000m/h.]]></desc>
</trkpt>
<trkpt lat="36.703284" lon="137.750498">
<ele>2607.681959</ele>
<time>2014-08-18T01:38:31Z</time>
<desc><![CDATA[lat.=36.703284, lon.=137.750498, Alt.=2607.681959m. Speed=0.000000m/h.]]></desc>
</trkpt>
<trkpt lat="36.703295" lon="137.750491">
<ele>2607.686162</ele>
<time>2014-08-18T01:38:36Z</time>
<desc><![CDATA[lat.=36.703295, lon.=137.750491, Alt.=2607.686162m. Speed=1.000000m/h.]]></desc>
</trkpt>
<trkpt lat="36.703317" lon="137.750492">
<ele>2607.748977</ele>
<time>2014-08-18T01:38:41Z</time>
<desc><![CDATA[lat.=36.703317, lon.=137.750492, Alt.=2607.748977m. Speed=0.000000m/h.]]></desc>
</trkpt>
<trkpt lat="36.703317" lon="137.750491">
<ele>2609.479176</ele>
<time>2014-08-18T01:38:46Z</time>
<desc><![CDATA[lat.=36.703317, lon.=137.750491, Alt.=2609.479176m. Speed=0.000000m/h.]]></desc>
</trkpt>
<trkpt lat="36.703324" lon="137.750491">
<ele>2610.076847</ele>
<time>2014-08-18T01:38:51Z</time>
<desc><![CDATA[lat.=36.703324, lon.=137.750491, Alt.=2610.076847m. Speed=1.000000m/h.]]></desc>
</trkpt>
<trkpt lat="36.703320" lon="137.750483">
<ele>2610.615906</ele>
<time>2014-08-18T01:38:56Z</time>
<desc><![CDATA[lat.=36.703320, lon.=137.750483, Alt.=2610.615906m. Speed=0.000000m/h.]]></desc>
</trkpt>
<trkpt lat="36.703317" lon="137.750474">
<ele>2611.154966</ele>
<time>2014-08-18T01:39:01Z</time>
<desc><![CDATA[lat.=36.703317, lon.=137.750474, Alt.=2611.154966m. Speed=0.000000m/h.]]></desc>
</trkpt>
<trkpt lat="36.703328" lon="137.750467">
<ele>2611.159170</ele>
<time>2014-08-18T01:39:06Z</time>
<desc><![CDATA[lat.=36.703328, lon.=137.750467, Alt.=2611.159170m. Speed=0.000000m/h.]]></desc>
</trkpt>
<trkpt lat="36.703349" lon="137.750483">
<ele>2613.006594</ele>
<time>2014-08-18T01:39:11Z</time>
<desc><![CDATA[lat.=36.703349, lon.=137.750483, Alt.=2613.006594m. Speed=0.000000m/h.]]></desc>
</trkpt>
<trkpt lat="36.703353" lon="137.750474">
<ele>2614.143325</ele>
<time>2014-08-18T01:39:16Z</time>
<desc><![CDATA[lat.=36.703353, lon.=137.750474, Alt.=2614.143325m. Speed=0.000000m/h.]]></desc>
</trkpt>
<trkpt lat="36.703356" lon="137.750466">
<ele>2615.280056</ele>
<time>2014-08-18T01:39:21Z</time>
<desc><![CDATA[lat.=36.703356, lon.=137.750466, Alt.=2615.280056m. Speed=0.000000m/h.]]></desc>
</trkpt>
<trkpt lat="36.703353" lon="137.750442">
<ele>2615.764707</ele>
<time>2014-08-18T01:39:26Z</time>
<desc><![CDATA[lat.=36.703353, lon.=137.750442, Alt.=2615.764707m. Speed=1.000000m/h.]]></desc>
</trkpt>
<trkpt lat="36.703382" lon="137.750458">
<ele>2616.479605</ele>
<time>2014-08-18T01:39:31Z</time>
<desc><![CDATA[lat.=36.703382, lon.=137.750458, Alt.=2616.479605m. Speed=1.000000m/h.]]></desc>
</trkpt>
<trkpt lat="36.703422" lon="137.750500">
<ele>2615.577331</ele>
<time>2014-08-18T01:39:36Z</time>
<desc><![CDATA[lat.=36.703422, lon.=137.750500, Alt.=2615.577331m. Speed=1.000000m/h.]]></desc>
</trkpt>
<trkpt lat="36.703448" lon="137.750493">
<ele>2615.046685</ele>
<time>2014-08-18T01:39:41Z</time>
<desc><![CDATA[lat.=36.703448, lon.=137.750493, Alt.=2615.046685m. Speed=1.000000m/h.]]></desc>
</trkpt>
<trkpt lat="36.703440" lon="137.750492">
<ele>2617.909409</ele>
<time>2014-08-18T01:39:46Z</time>
<desc><![CDATA[lat.=36.703440, lon.=137.750492, Alt.=2617.909409m. Speed=0.000000m/h.]]></desc>
</trkpt>
<trkpt lat="36.703443" lon="137.750499">
<ele>2619.100549</ele>
<time>2014-08-18T01:39:51Z</time>
<desc><![CDATA[lat.=36.703443, lon.=137.750499, Alt.=2619.100549m. Speed=0.000000m/h.]]></desc>
</trkpt>
<trkpt lat="36.703447" lon="137.750491">
<ele>2620.237280</ele>
<time>2014-08-18T01:39:56Z</time>
<desc><![CDATA[lat.=36.703447, lon.=137.750491, Alt.=2620.237280m. Speed=0.000000m/h.]]></desc>
</trkpt>
<trkpt lat="36.703465" lon="137.750499">
<ele>2620.893569</ele>
<time>2014-08-18T01:40:01Z</time>
<desc><![CDATA[lat.=36.703465, lon.=137.750499, Alt.=2620.893569m. Speed=0.000000m/h.]]></desc>
</trkpt>
<trkpt lat="36.703472" lon="137.750500">
<ele>2619.761045</ele>
<time>2014-08-18T01:40:06Z</time>
<desc><![CDATA[lat.=36.703472, lon.=137.750500, Alt.=2619.761045m. Speed=0.000000m/h.]]></desc>
</trkpt>
<trkpt lat="36.703491" lon="137.750510">
<ele>2616.956938</ele>
<time>2014-08-18T01:40:11Z</time>
<desc><![CDATA[lat.=36.703491, lon.=137.750510, Alt.=2616.956938m. Speed=0.000000m/h.]]></desc>
</trkpt>
<trkpt lat="36.703499" lon="137.750510">
<ele>2615.824414</ele>
<time>2014-08-18T01:40:16Z</time>
<desc><![CDATA[lat.=36.703499, lon.=137.750510, Alt.=2615.824414m. Speed=1.000000m/h.]]></desc>
</trkpt>
<trkpt lat="36.703506" lon="137.750510">
<ele>2616.422088</ele>
<time>2014-08-18T01:40:21Z</time>
<desc><![CDATA[lat.=36.703506, lon.=137.750510, Alt.=2616.422088m. Speed=0.000000m/h.]]></desc>
</trkpt>
<trkpt lat="36.703491" lon="137.750509">
<ele>2618.687136</ele>
<time>2014-08-18T01:40:26Z</time>
<desc><![CDATA[lat.=36.703491, lon.=137.750509, Alt.=2618.687136m. Speed=0.000000m/h.]]></desc>
</trkpt>
<trkpt lat="36.703498" lon="137.750509">
<ele>2619.284811</ele>
<time>2014-08-18T01:40:31Z</time>
<desc><![CDATA[lat.=36.703498, lon.=137.750509, Alt.=2619.284811m. Speed=0.000000m/h.]]></desc>
</trkpt>
<trkpt lat="36.703506" lon="137.750510">
<ele>2618.152286</ele>
<time>2014-08-18T01:40:36Z</time>
<desc><![CDATA[lat.=36.703506, lon.=137.750510, Alt.=2618.152286m. Speed=0.000000m/h.]]></desc>
</trkpt>
<trkpt lat="36.703498" lon="137.750509">
<ele>2619.284811</ele>
<time>2014-08-18T01:40:41Z</time>
<desc><![CDATA[lat.=36.703498, lon.=137.750509, Alt.=2619.284811m. Speed=0.000000m/h.]]></desc>
</trkpt>
<trkpt lat="36.703502" lon="137.750501">
<ele>2620.421542</ele>
<time>2014-08-18T01:40:46Z</time>
<desc><![CDATA[lat.=36.703502, lon.=137.750501, Alt.=2620.421542m. Speed=0.000000m/h.]]></desc>
</trkpt>
<trkpt lat="36.703497" lon="137.750523">
<ele>2622.799616</ele>
<time>2014-08-18T01:40:51Z</time>
<desc><![CDATA[lat.=36.703497, lon.=137.750523, Alt.=2622.799616m. Speed=0.000000m/h.]]></desc>
</trkpt>
<trkpt lat="36.703500" lon="137.750531">
<ele>2622.260559</ele>
<time>2014-08-18T01:40:56Z</time>
<desc><![CDATA[lat.=36.703500, lon.=137.750531, Alt.=2622.260559m. Speed=0.000000m/h.]]></desc>
</trkpt>
<trkpt lat="36.703512" lon="137.750540">
<ele>2620.588978</ele>
<time>2014-08-18T01:41:01Z</time>
<desc><![CDATA[lat.=36.703512, lon.=137.750540, Alt.=2620.588978m. Speed=0.000000m/h.]]></desc>
</trkpt>
<trkpt lat="36.703508" lon="137.750548">
<ele>2621.182445</ele>
<time>2014-08-18T01:41:10Z</time>
<desc><![CDATA[lat.=36.703508, lon.=137.750548, Alt.=2621.182445m. Speed=0.000000m/h.]]></desc>
</trkpt>
<trkpt lat="36.703512" lon="137.750540">
<ele>2620.588978</ele>
<time>2014-08-18T01:41:16Z</time>
<desc><![CDATA[lat.=36.703512, lon.=137.750540, Alt.=2620.588978m. Speed=0.000000m/h.]]></desc>
</trkpt>
<trkpt lat="36.703519" lon="137.750540">
<ele>2621.186652</ele>
<time>2014-08-18T01:41:24Z</time>
<desc><![CDATA[lat.=36.703519, lon.=137.750540, Alt.=2621.186652m. Speed=0.000000m/h.]]></desc>
</trkpt>
<trkpt lat="36.703504" lon="137.750556">
<ele>2621.775912</ele>
<time>2014-08-18T01:41:29Z</time>
<desc><![CDATA[lat.=36.703504, lon.=137.750556, Alt.=2621.775912m. Speed=0.000000m/h.]]></desc>
</trkpt>
<trkpt lat="36.703503" lon="137.750555">
<ele>2623.506110</ele>
<time>2014-08-18T01:41:34Z</time>
<desc><![CDATA[lat.=36.703503, lon.=137.750555, Alt.=2623.506110m. Speed=0.000000m/h.]]></desc>
</trkpt>
<trkpt lat="36.703511" lon="137.750555">
<ele>2624.103784</ele>
<time>2014-08-18T01:41:40Z</time>
<desc><![CDATA[lat.=36.703511, lon.=137.750555, Alt.=2624.103784m. Speed=0.000000m/h.]]></desc>
</trkpt>
<trkpt lat="36.703518" lon="137.750555">
<ele>2624.701458</ele>
<time>2014-08-18T01:41:50Z</time>
<desc><![CDATA[lat.=36.703518, lon.=137.750555, Alt.=2624.701458m. Speed=0.000000m/h.]]></desc>
</trkpt>
<trkpt lat="36.703510" lon="137.750554">
<ele>2625.833982</ele>
<time>2014-08-18T01:41:55Z</time>
<desc><![CDATA[lat.=36.703510, lon.=137.750554, Alt.=2625.833982m. Speed=0.000000m/h.]]></desc>
</trkpt>
<trkpt lat="36.703525" lon="137.750555">
<ele>2625.299133</ele>
<time>2014-08-18T01:42:00Z</time>
<desc><![CDATA[lat.=36.703525, lon.=137.750555, Alt.=2625.299133m. Speed=0.000000m/h.]]></desc>
</trkpt>
<trkpt lat="36.703521" lon="137.750562">
<ele>2625.892600</ele>
<time>2014-08-18T01:42:05Z</time>
<desc><![CDATA[lat.=36.703521, lon.=137.750562, Alt.=2625.892600m. Speed=0.000000m/h.]]></desc>
</trkpt>
<trkpt lat="36.703528" lon="137.750562">
<ele>2626.490274</ele>
<time>2014-08-18T01:42:10Z</time>
<desc><![CDATA[lat.=36.703528, lon.=137.750562, Alt.=2626.490274m. Speed=0.000000m/h.]]></desc>
</trkpt>
<trkpt lat="36.703532" lon="137.750571">
<ele>2625.951218</ele>
<time>2014-08-18T01:42:15Z</time>
<desc><![CDATA[lat.=36.703532, lon.=137.750571, Alt.=2625.951218m. Speed=0.000000m/h.]]></desc>
</trkpt>
<trkpt lat="36.703531" lon="137.750570">
<ele>2627.681416</ele>
<time>2014-08-18T01:42:20Z</time>
<desc><![CDATA[lat.=36.703531, lon.=137.750570, Alt.=2627.681416m. Speed=0.000000m/h.]]></desc>
</trkpt>
<trkpt lat="36.703528" lon="137.750577">
<ele>2628.274883</ele>
<time>2014-08-18T01:42:27Z</time>
<desc><![CDATA[lat.=36.703528, lon.=137.750577, Alt.=2628.274883m. Speed=0.000000m/h.]]></desc>
</trkpt>
<trkpt lat="36.703535" lon="137.750577">
<ele>2628.872557</ele>
<time>2014-08-18T01:42:32Z</time>
<desc><![CDATA[lat.=36.703535, lon.=137.750577, Alt.=2628.872557m. Speed=0.000000m/h.]]></desc>
</trkpt>
<trkpt lat="36.703531" lon="137.750585">
<ele>2629.466024</ele>
<time>2014-08-18T01:42:37Z</time>
<desc><![CDATA[lat.=36.703531, lon.=137.750585, Alt.=2629.466024m. Speed=0.000000m/h.]]></desc>
</trkpt>
<trkpt lat="36.703527" lon="137.750592">
<ele>2630.059491</ele>
<time>2014-08-18T01:42:42Z</time>
<desc><![CDATA[lat.=36.703527, lon.=137.750592, Alt.=2630.059491m. Speed=0.000000m/h.]]></desc>
</trkpt>
<trkpt lat="36.703530" lon="137.750600">
<ele>2631.250633</ele>
<time>2014-08-18T01:42:47Z</time>
<desc><![CDATA[lat.=36.703530, lon.=137.750600, Alt.=2631.250633m. Speed=0.000000m/h.]]></desc>
</trkpt>
<trkpt lat="36.703533" lon="137.750623">
<ele>2632.496186</ele>
<time>2014-08-18T01:42:52Z</time>
<desc><![CDATA[lat.=36.703533, lon.=137.750623, Alt.=2632.496186m. Speed=0.000000m/h.]]></desc>
</trkpt>
<trkpt lat="36.703529" lon="137.750631">
<ele>2633.089654</ele>
<time>2014-08-18T01:42:58Z</time>
<desc><![CDATA[lat.=36.703529, lon.=137.750631, Alt.=2633.089654m. Speed=0.000000m/h.]]></desc>
</trkpt>
<trkpt lat="36.703540" lon="137.750656">
<ele>2631.472486</ele>
<time>2014-08-18T01:43:03Z</time>
<desc><![CDATA[lat.=36.703540, lon.=137.750656, Alt.=2631.472486m. Speed=0.000000m/h.]]></desc>
</trkpt>
<trkpt lat="36.703543" lon="137.750663">
<ele>2632.663629</ele>
<time>2014-08-18T01:43:08Z</time>
<desc><![CDATA[lat.=36.703543, lon.=137.750663, Alt.=2632.663629m. Speed=0.000000m/h.]]></desc>
</trkpt>
<trkpt lat="36.703561" lon="137.750671">
<ele>2633.319923</ele>
<time>2014-08-18T01:43:13Z</time>
<desc><![CDATA[lat.=36.703561, lon.=137.750671, Alt.=2633.319923m. Speed=0.000000m/h.]]></desc>
</trkpt>
<trkpt lat="36.703564" lon="137.750679">
<ele>2634.511065</ele>
<time>2014-08-18T01:43:18Z</time>
<desc><![CDATA[lat.=36.703564, lon.=137.750679, Alt.=2634.511065m. Speed=0.000000m/h.]]></desc>
</trkpt>
<trkpt lat="36.703557" lon="137.750679">
<ele>2633.913390</ele>
<time>2014-08-18T01:43:23Z</time>
<desc><![CDATA[lat.=36.703557, lon.=137.750679, Alt.=2633.913390m. Speed=0.000000m/h.]]></desc>
</trkpt>
<trkpt lat="36.703560" lon="137.750686">
<ele>2635.104533</ele>
<time>2014-08-18T01:43:28Z</time>
<desc><![CDATA[lat.=36.703560, lon.=137.750686, Alt.=2635.104533m. Speed=0.000000m/h.]]></desc>
</trkpt>
<trkpt lat="36.703556" lon="137.750694">
<ele>2635.698001</ele>
<time>2014-08-18T01:43:33Z</time>
<desc><![CDATA[lat.=36.703556, lon.=137.750694, Alt.=2635.698001m. Speed=0.000000m/h.]]></desc>
</trkpt>
<trkpt lat="36.703586" lon="137.750679">
<ele>2636.304091</ele>
<time>2014-08-18T01:43:38Z</time>
<desc><![CDATA[lat.=36.703586, lon.=137.750679, Alt.=2636.304091m. Speed=1.000000m/h.]]></desc>
</trkpt>
<trkpt lat="36.703608" lon="137.750664">
<ele>2636.312507</ele>
<time>2014-08-18T01:43:43Z</time>
<desc><![CDATA[lat.=36.703608, lon.=137.750664, Alt.=2636.312507m. Speed=2.000000m/h.]]></desc>
</trkpt>
<trkpt lat="36.703612" lon="137.750640">
<ele>2637.394826</ele>
<time>2014-08-18T01:43:48Z</time>
<desc><![CDATA[lat.=36.703612, lon.=137.750640, Alt.=2637.394826m. Speed=2.000000m/h.]]></desc>
</trkpt>
<trkpt lat="36.703616" lon="137.750647">
<ele>2638.585969</ele>
<time>2014-08-18T01:43:53Z</time>
<desc><![CDATA[lat.=36.703616, lon.=137.750647, Alt.=2638.585969m. Speed=0.000000m/h.]]></desc>
</trkpt>
<trkpt lat="36.703626" lon="137.750639">
<ele>2640.320376</ele>
<time>2014-08-18T01:43:58Z</time>
<desc><![CDATA[lat.=36.703626, lon.=137.750639, Alt.=2640.320376m. Speed=1.000000m/h.]]></desc>
</trkpt>
<trkpt lat="36.703630" lon="137.750615">
<ele>2641.402696</ele>
<time>2014-08-18T01:44:03Z</time>
<desc><![CDATA[lat.=36.703630, lon.=137.750615, Alt.=2641.402696m. Speed=1.000000m/h.]]></desc>
</trkpt>
<trkpt lat="36.703638" lon="137.750615">
<ele>2642.000372</ele>
<time>2014-08-18T01:44:08Z</time>
<desc><![CDATA[lat.=36.703638, lon.=137.750615, Alt.=2642.000372m. Speed=0.000000m/h.]]></desc>
</trkpt>
<trkpt lat="36.703642" lon="137.750607">
<ele>2641.406905</ele>
<time>2014-08-18T01:44:13Z</time>
<desc><![CDATA[lat.=36.703642, lon.=137.750607, Alt.=2641.406905m. Speed=1.000000m/h.]]></desc>
</trkpt>
<trkpt lat="36.703660" lon="137.750600">
<ele>2642.008791</ele>
<time>2014-08-18T01:44:18Z</time>
<desc><![CDATA[lat.=36.703660, lon.=137.750600, Alt.=2642.008791m. Speed=1.000000m/h.]]></desc>
</trkpt>
<trkpt lat="36.703668" lon="137.750584">
<ele>2642.552057</ele>
<time>2014-08-18T01:44:23Z</time>
<desc><![CDATA[lat.=36.703668, lon.=137.750584, Alt.=2642.552057m. Speed=1.000000m/h.]]></desc>
</trkpt>
<trkpt lat="36.703679" lon="137.750577">
<ele>2642.556268</ele>
<time>2014-08-18T01:44:28Z</time>
<desc><![CDATA[lat.=36.703679, lon.=137.750577, Alt.=2642.556268m. Speed=1.000000m/h.]]></desc>
</trkpt>
<trkpt lat="36.703683" lon="137.750569">
<ele>2641.962802</ele>
<time>2014-08-18T01:44:33Z</time>
<desc><![CDATA[lat.=36.703683, lon.=137.750569, Alt.=2641.962802m. Speed=1.000000m/h.]]></desc>
</trkpt>
<trkpt lat="36.703683" lon="137.750552">
<ele>2643.638590</ele>
<time>2014-08-18T01:44:38Z</time>
<desc><![CDATA[lat.=36.703683, lon.=137.750552, Alt.=2643.638590m. Speed=1.000000m/h.]]></desc>
</trkpt>
<trkpt lat="36.703694" lon="137.750545">
<ele>2643.642801</ele>
<time>2014-08-18T01:44:43Z</time>
<desc><![CDATA[lat.=36.703694, lon.=137.750545, Alt.=2643.642801m. Speed=1.000000m/h.]]></desc>
</trkpt>
<trkpt lat="36.703708" lon="137.750544">
<ele>2646.568353</ele>
<time>2014-08-18T01:44:48Z</time>
<desc><![CDATA[lat.=36.703708, lon.=137.750544, Alt.=2646.568353m. Speed=1.000000m/h.]]></desc>
</trkpt>
<trkpt lat="36.703759" lon="137.750578">
<ele>2645.670321</ele>
<time>2014-08-18T01:44:53Z</time>
<desc><![CDATA[lat.=36.703759, lon.=137.750578, Alt.=2645.670321m. Speed=1.000000m/h.]]></desc>
</trkpt>
<trkpt lat="36.703767" lon="137.750579">
<ele>2644.537800</ele>
<time>2014-08-18T01:44:58Z</time>
<desc><![CDATA[lat.=36.703767, lon.=137.750579, Alt.=2644.537800m. Speed=0.000000m/h.]]></desc>
</trkpt>
<trkpt lat="36.703773" lon="137.750595">
<ele>2645.189889</ele>
<time>2014-08-18T01:45:03Z</time>
<desc><![CDATA[lat.=36.703773, lon.=137.750595, Alt.=2645.189889m. Speed=0.000000m/h.]]></desc>
</trkpt>
<trkpt lat="36.703781" lon="137.750595">
<ele>2645.787567</ele>
<time>2014-08-18T01:45:08Z</time>
<desc><![CDATA[lat.=36.703781, lon.=137.750595, Alt.=2645.787567m. Speed=0.000000m/h.]]></desc>
</trkpt>
<trkpt lat="36.703788" lon="137.750595">
<ele>2646.385245</ele>
<time>2014-08-18T01:45:13Z</time>
<desc><![CDATA[lat.=36.703788, lon.=137.750595, Alt.=2646.385245m. Speed=0.000000m/h.]]></desc>
</trkpt>
<trkpt lat="36.703784" lon="137.750586">
<ele>2646.924300</ele>
<time>2014-08-18T01:45:18Z</time>
<desc><![CDATA[lat.=36.703784, lon.=137.750586, Alt.=2646.924300m. Speed=1.000000m/h.]]></desc>
</trkpt>
<trkpt lat="36.703781" lon="137.750578">
<ele>2647.463354</ele>
<time>2014-08-18T01:45:23Z</time>
<desc><![CDATA[lat.=36.703781, lon.=137.750578, Alt.=2647.463354m. Speed=0.000000m/h.]]></desc>
</trkpt>
<trkpt lat="36.703781" lon="137.750562">
<ele>2647.408944</ele>
<time>2014-08-18T01:45:29Z</time>
<desc><![CDATA[lat.=36.703781, lon.=137.750562, Alt.=2647.408944m. Speed=1.000000m/h.]]></desc>
</trkpt>
<trkpt lat="36.703810" lon="137.750579">
<ele>2648.123869</ele>
<time>2014-08-18T01:45:34Z</time>
<desc><![CDATA[lat.=36.703810, lon.=137.750579, Alt.=2648.123869m. Speed=2.000000m/h.]]></desc>
</trkpt>
<trkpt lat="36.703810" lon="137.750578">
<ele>2649.854067</ele>
<time>2014-08-18T01:45:39Z</time>
<desc><![CDATA[lat.=36.703810, lon.=137.750578, Alt.=2649.854067m. Speed=1.000000m/h.]]></desc>
</trkpt>
<trkpt lat="36.703806" lon="137.750554">
<ele>2650.338712</ele>
<time>2014-08-18T01:45:44Z</time>
<desc><![CDATA[lat.=36.703806, lon.=137.750554, Alt.=2650.338712m. Speed=2.000000m/h.]]></desc>
</trkpt>
<trkpt lat="36.703825" lon="137.750546">
<ele>2650.940605</ele>
<time>2014-08-18T01:45:49Z</time>
<desc><![CDATA[lat.=36.703825, lon.=137.750546, Alt.=2650.940605m. Speed=0.000000m/h.]]></desc>
</trkpt>
<trkpt lat="36.703832" lon="137.750546">
<ele>2651.538283</ele>
<time>2014-08-18T01:45:54Z</time>
<desc><![CDATA[lat.=36.703832, lon.=137.750546, Alt.=2651.538283m. Speed=0.000000m/h.]]></desc>
</trkpt>
<trkpt lat="36.703828" lon="137.750537">
<ele>2653.807536</ele>
<time>2014-08-18T01:45:59Z</time>
<desc><![CDATA[lat.=36.703828, lon.=137.750537, Alt.=2653.807536m. Speed=1.000000m/h.]]></desc>
</trkpt>
<trkpt lat="36.703832" lon="137.750513">
<ele>2654.889861</ele>
<time>2014-08-18T01:46:04Z</time>
<desc><![CDATA[lat.=36.703832, lon.=137.750513, Alt.=2654.889861m. Speed=1.000000m/h.]]></desc>
</trkpt>
<trkpt lat="36.703829" lon="137.750489">
<ele>2655.374507</ele>
<time>2014-08-18T01:46:09Z</time>
<desc><![CDATA[lat.=36.703829, lon.=137.750489, Alt.=2655.374507m. Speed=1.000000m/h.]]></desc>
</trkpt>
<trkpt lat="36.703833" lon="137.750465">
<ele>2656.456833</ele>
<time>2014-08-18T01:46:14Z</time>
<desc><![CDATA[lat.=36.703833, lon.=137.750465, Alt.=2656.456833m. Speed=1.000000m/h.]]></desc>
</trkpt>
<trkpt lat="36.703870" lon="137.750452">
<ele>2654.200226</ele>
<time>2014-08-18T01:46:19Z</time>
<desc><![CDATA[lat.=36.703870, lon.=137.750452, Alt.=2654.200226m. Speed=2.000000m/h.]]></desc>
</trkpt>
<trkpt lat="36.703892" lon="137.750467">
<ele>2656.047673</ele>
<time>2014-08-18T01:46:24Z</time>
<desc><![CDATA[lat.=36.703892, lon.=137.750467, Alt.=2656.047673m. Speed=1.000000m/h.]]></desc>
</trkpt>
<trkpt lat="36.703888" lon="137.750459">
<ele>2656.586728</ele>
<time>2014-08-18T01:46:29Z</time>
<desc><![CDATA[lat.=36.703888, lon.=137.750459, Alt.=2656.586728m. Speed=0.000000m/h.]]></desc>
</trkpt>
<trkpt lat="36.703869" lon="137.750450">
<ele>2657.660623</ele>
<time>2014-08-18T01:46:34Z</time>
<desc><![CDATA[lat.=36.703869, lon.=137.750450, Alt.=2657.660623m. Speed=1.000000m/h.]]></desc>
</trkpt>
<trkpt lat="36.703862" lon="137.750434">
<ele>2658.738734</ele>
<time>2014-08-18T01:46:39Z</time>
<desc><![CDATA[lat.=36.703862, lon.=137.750434, Alt.=2658.738734m. Speed=1.000000m/h.]]></desc>
</trkpt>
<trkpt lat="36.703862" lon="137.750417">
<ele>2660.414525</ele>
<time>2014-08-18T01:46:44Z</time>
<desc><![CDATA[lat.=36.703862, lon.=137.750417, Alt.=2660.414525m. Speed=1.000000m/h.]]></desc>
</trkpt>
<trkpt lat="36.703851" lon="137.750392">
<ele>2662.031693</ele>
<time>2014-08-18T01:46:49Z</time>
<desc><![CDATA[lat.=36.703851, lon.=137.750392, Alt.=2662.031693m. Speed=2.000000m/h.]]></desc>
</trkpt>
<trkpt lat="36.703866" lon="137.750376">
<ele>2663.172645</ele>
<time>2014-08-18T01:46:54Z</time>
<desc><![CDATA[lat.=36.703866, lon.=137.750376, Alt.=2663.172645m. Speed=1.000000m/h.]]></desc>
</trkpt>
<trkpt lat="36.703899" lon="137.750402">
<ele>2661.618317</ele>
<time>2014-08-18T01:46:59Z</time>
<desc><![CDATA[lat.=36.703899, lon.=137.750402, Alt.=2661.618317m. Speed=1.000000m/h.]]></desc>
</trkpt>
<trkpt lat="36.703928" lon="137.750419">
<ele>2660.603047</ele>
<time>2014-08-18T01:47:04Z</time>
<desc><![CDATA[lat.=36.703928, lon.=137.750419, Alt.=2660.603047m. Speed=2.000000m/h.]]></desc>
</trkpt>
<trkpt lat="36.703928" lon="137.750434">
<ele>2662.387653</ele>
<time>2014-08-18T01:47:09Z</time>
<desc><![CDATA[lat.=36.703928, lon.=137.750434, Alt.=2662.387653m. Speed=0.000000m/h.]]></desc>
</trkpt>
<trkpt lat="36.703931" lon="137.750442">
<ele>2663.578795</ele>
<time>2014-08-18T01:47:14Z</time>
<desc><![CDATA[lat.=36.703931, lon.=137.750442, Alt.=2663.578795m. Speed=0.000000m/h.]]></desc>
</trkpt>
<trkpt lat="36.703946" lon="137.750443">
<ele>2663.043958</ele>
<time>2014-08-18T01:47:19Z</time>
<desc><![CDATA[lat.=36.703946, lon.=137.750443, Alt.=2663.043958m. Speed=2.000000m/h.]]></desc>
</trkpt>
<trkpt lat="36.703949" lon="137.750434">
<ele>2664.180693</ele>
<time>2014-08-18T01:47:24Z</time>
<desc><![CDATA[lat.=36.703949, lon.=137.750434, Alt.=2664.180693m. Speed=1.000000m/h.]]></desc>
</trkpt>
<trkpt lat="36.703942" lon="137.750418">
<ele>2665.258804</ele>
<time>2014-08-18T01:47:29Z</time>
<desc><![CDATA[lat.=36.703942, lon.=137.750418, Alt.=2665.258804m. Speed=1.000000m/h.]]></desc>
</trkpt>
<trkpt lat="36.703950" lon="137.750402">
<ele>2665.802077</ele>
<time>2014-08-18T01:47:34Z</time>
<desc><![CDATA[lat.=36.703950, lon.=137.750402, Alt.=2665.802077m. Speed=1.000000m/h.]]></desc>
</trkpt>
<trkpt lat="36.703946" lon="137.750394">
<ele>2666.341133</ele>
<time>2014-08-18T01:47:39Z</time>
<desc><![CDATA[lat.=36.703946, lon.=137.750394, Alt.=2666.341133m. Speed=1.000000m/h.]]></desc>
</trkpt>
<trkpt lat="36.703976" lon="137.750379">
<ele>2665.217053</ele>
<time>2014-08-18T01:47:44Z</time>
<desc><![CDATA[lat.=36.703976, lon.=137.750379, Alt.=2665.217053m. Speed=1.000000m/h.]]></desc>
</trkpt>
<trkpt lat="36.703991" lon="137.750380">
<ele>2664.682217</ele>
<time>2014-08-18T01:47:49Z</time>
<desc><![CDATA[lat.=36.703991, lon.=137.750380, Alt.=2664.682217m. Speed=0.000000m/h.]]></desc>
</trkpt>
<trkpt lat="36.703998" lon="137.750380">
<ele>2665.279898</ele>
<time>2014-08-18T01:47:54Z</time>
<desc><![CDATA[lat.=36.703998, lon.=137.750380, Alt.=2665.279898m. Speed=1.000000m/h.]]></desc>
</trkpt>
<trkpt lat="36.703990" lon="137.750379">
<ele>2666.412415</ele>
<time>2014-08-18T01:47:59Z</time>
<desc><![CDATA[lat.=36.703990, lon.=137.750379, Alt.=2666.412415m. Speed=0.000000m/h.]]></desc>
</trkpt>
<trkpt lat="36.703990" lon="137.750363">
<ele>2668.088207</ele>
<time>2014-08-18T01:48:04Z</time>
<desc><![CDATA[lat.=36.703990, lon.=137.750363, Alt.=2668.088207m. Speed=0.000000m/h.]]></desc>
</trkpt>
<trkpt lat="36.703983" lon="137.750346">
<ele>2669.166318</ele>
<time>2014-08-18T01:48:09Z</time>
<desc><![CDATA[lat.=36.703983, lon.=137.750346, Alt.=2669.166318m. Speed=1.000000m/h.]]></desc>
</trkpt>
<trkpt lat="36.703986" lon="137.750354">
<ele>2670.357460</ele>
<time>2014-08-18T01:48:14Z</time>
<desc><![CDATA[lat.=36.703986, lon.=137.750354, Alt.=2670.357460m. Speed=1.000000m/h.]]></desc>
</trkpt>
<trkpt lat="36.703983" lon="137.750346">
<ele>2670.896516</ele>
<time>2014-08-18T01:48:19Z</time>
<desc><![CDATA[lat.=36.703983, lon.=137.750346, Alt.=2670.896516m. Speed=0.000000m/h.]]></desc>
</trkpt>
<trkpt lat="36.703983" lon="137.750330">
<ele>2670.842111</ele>
<time>2014-08-18T01:48:24Z</time>
<desc><![CDATA[lat.=36.703983, lon.=137.750330, Alt.=2670.842111m. Speed=1.000000m/h.]]></desc>
</trkpt>
<trkpt lat="36.703987" lon="137.750321">
<ele>2671.978848</ele>
<time>2014-08-18T01:48:29Z</time>
<desc><![CDATA[lat.=36.703987, lon.=137.750321, Alt.=2671.978848m. Speed=0.000000m/h.]]></desc>
</trkpt>
<trkpt lat="36.703987" lon="137.750306">
<ele>2671.924443</ele>
<time>2014-08-18T01:48:34Z</time>
<desc><![CDATA[lat.=36.703987, lon.=137.750306, Alt.=2671.924443m. Speed=1.000000m/h.]]></desc>
</trkpt>
<trkpt lat="36.703977" lon="137.750282">
<ele>2671.811414</ele>
<time>2014-08-18T01:48:39Z</time>
<desc><![CDATA[lat.=36.703977, lon.=137.750282, Alt.=2671.811414m. Speed=1.000000m/h.]]></desc>
</trkpt>
<trkpt lat="36.703984" lon="137.750265">
<ele>2674.084888</ele>
<time>2014-08-18T01:48:44Z</time>
<desc><![CDATA[lat.=36.703984, lon.=137.750265, Alt.=2674.084888m. Speed=1.000000m/h.]]></desc>
</trkpt>
<trkpt lat="36.703973" lon="137.750240">
<ele>2675.702059</ele>
<time>2014-08-18T01:48:49Z</time>
<desc><![CDATA[lat.=36.703973, lon.=137.750240, Alt.=2675.702059m. Speed=1.000000m/h.]]></desc>
</trkpt>
<trkpt lat="36.703969" lon="137.750247">
<ele>2678.025718</ele>
<time>2014-08-18T01:48:54Z</time>
<desc><![CDATA[lat.=36.703969, lon.=137.750247, Alt.=2678.025718m. Speed=0.000000m/h.]]></desc>
</trkpt>
<trkpt lat="36.703976" lon="137.750248">
<ele>2676.893200</ele>
<time>2014-08-18T01:48:59Z</time>
<desc><![CDATA[lat.=36.703976, lon.=137.750248, Alt.=2676.893200m. Speed=0.000000m/h.]]></desc>
</trkpt>
<trkpt lat="36.703987" lon="137.750256">
<ele>2676.951824</ele>
<time>2014-08-18T01:49:04Z</time>
<desc><![CDATA[lat.=36.703987, lon.=137.750256, Alt.=2676.951824m. Speed=0.000000m/h.]]></desc>
</trkpt>
<trkpt lat="36.703991" lon="137.750248">
<ele>2676.358364</ele>
<time>2014-08-18T01:49:09Z</time>
<desc><![CDATA[lat.=36.703991, lon.=137.750248, Alt.=2676.358364m. Speed=0.000000m/h.]]></desc>
</trkpt>
<trkpt lat="36.704006" lon="137.750248">
<ele>2677.553726</ele>
<time>2014-08-18T01:49:14Z</time>
<desc><![CDATA[lat.=36.704006, lon.=137.750248, Alt.=2677.553726m. Speed=0.000000m/h.]]></desc>
</trkpt>
<trkpt lat="36.704006" lon="137.750233">
<ele>2677.499323</ele>
<time>2014-08-18T01:49:19Z</time>
<desc><![CDATA[lat.=36.704006, lon.=137.750233, Alt.=2677.499323m. Speed=1.000000m/h.]]></desc>
</trkpt>
<trkpt lat="36.704010" lon="137.750209">
<ele>2678.581658</ele>
<time>2014-08-18T01:49:24Z</time>
<desc><![CDATA[lat.=36.704010, lon.=137.750209, Alt.=2678.581658m. Speed=1.000000m/h.]]></desc>
</trkpt>
<trkpt lat="36.704003" lon="137.750192">
<ele>2679.659772</ele>
<time>2014-08-18T01:49:29Z</time>
<desc><![CDATA[lat.=36.704003, lon.=137.750192, Alt.=2679.659772m. Speed=1.000000m/h.]]></desc>
</trkpt>
<trkpt lat="36.704014" lon="137.750169">
<ele>2679.609591</ele>
<time>2014-08-18T01:49:34Z</time>
<desc><![CDATA[lat.=36.704014, lon.=137.750169, Alt.=2679.609591m. Speed=1.000000m/h.]]></desc>
</trkpt>
<trkpt lat="36.704029" lon="137.750153">
<ele>2680.750552</ele>
<time>2014-08-18T01:49:39Z</time>
<desc><![CDATA[lat.=36.704029, lon.=137.750153, Alt.=2680.750552m. Speed=1.000000m/h.]]></desc>
</trkpt>
<trkpt lat="36.704037" lon="137.750137">
<ele>2681.293832</ele>
<time>2014-08-18T01:49:44Z</time>
<desc><![CDATA[lat.=36.704037, lon.=137.750137, Alt.=2681.293832m. Speed=1.000000m/h.]]></desc>
</trkpt>
<trkpt lat="36.704059" lon="137.750122">
<ele>2681.302278</ele>
<time>2014-08-18T01:49:49Z</time>
<desc><![CDATA[lat.=36.704059, lon.=137.750122, Alt.=2681.302278m. Speed=1.000000m/h.]]></desc>
</trkpt>
<trkpt lat="36.704059" lon="137.750105">
<ele>2682.978076</ele>
<time>2014-08-18T01:49:54Z</time>
<desc><![CDATA[lat.=36.704059, lon.=137.750105, Alt.=2682.978076m. Speed=1.000000m/h.]]></desc>
</trkpt>
<trkpt lat="36.704081" lon="137.750107">
<ele>2681.310725</ele>
<time>2014-08-18T01:49:59Z</time>
<desc><![CDATA[lat.=36.704081, lon.=137.750107, Alt.=2681.310725m. Speed=1.000000m/h.]]></desc>
</trkpt>
<trkpt lat="36.704086" lon="137.750084">
<ele>2680.662867</ele>
<time>2014-08-18T01:50:04Z</time>
<desc><![CDATA[lat.=36.704086, lon.=137.750084, Alt.=2680.662867m. Speed=2.000000m/h.]]></desc>
</trkpt>
<trkpt lat="36.704082" lon="137.750059">
<ele>2682.877723</ele>
<time>2014-08-18T01:50:09Z</time>
<desc><![CDATA[lat.=36.704082, lon.=137.750059, Alt.=2682.877723m. Speed=1.000000m/h.]]></desc>
</trkpt>
<trkpt lat="36.704086" lon="137.750051">
<ele>2682.284265</ele>
<time>2014-08-18T01:50:14Z</time>
<desc><![CDATA[lat.=36.704086, lon.=137.750051, Alt.=2682.284265m. Speed=2.000000m/h.]]></desc>
</trkpt>
<trkpt lat="36.704101" lon="137.750051">
<ele>2683.479630</ele>
<time>2014-08-18T01:50:19Z</time>
<desc><![CDATA[lat.=36.704101, lon.=137.750051, Alt.=2683.479630m. Speed=2.000000m/h.]]></desc>
</trkpt>
<trkpt lat="36.704111" lon="137.750060">
<ele>2683.538254</ele>
<time>2014-08-18T01:50:24Z</time>
<desc><![CDATA[lat.=36.704111, lon.=137.750060, Alt.=2683.538254m. Speed=1.000000m/h.]]></desc>
</trkpt>
<trkpt lat="36.704104" lon="137.750043">
<ele>2684.616370</ele>
<time>2014-08-18T01:50:29Z</time>
<desc><![CDATA[lat.=36.704104, lon.=137.750043, Alt.=2684.616370m. Speed=1.000000m/h.]]></desc>
</trkpt>
<trkpt lat="36.704119" lon="137.750028">
<ele>2684.027138</ele>
<time>2014-08-18T01:50:34Z</time>
<desc><![CDATA[lat.=36.704119, lon.=137.750028, Alt.=2684.027138m. Speed=1.000000m/h.]]></desc>
</trkpt>
<trkpt lat="36.704149" lon="137.750013">
<ele>2684.633273</ele>
<time>2014-08-18T01:50:39Z</time>
<desc><![CDATA[lat.=36.704149, lon.=137.750013, Alt.=2684.633273m. Speed=2.000000m/h.]]></desc>
</trkpt>
<trkpt lat="36.704171" lon="137.750029">
<ele>2684.750524</ele>
<time>2014-08-18T01:50:44Z</time>
<desc><![CDATA[lat.=36.704171, lon.=137.750029, Alt.=2684.750524m. Speed=0.000000m/h.]]></desc>
</trkpt>
<trkpt lat="36.704182" lon="137.750038">
<ele>2684.809150</ele>
<time>2014-08-18T01:50:51Z</time>
<desc><![CDATA[lat.=36.704182, lon.=137.750038, Alt.=2684.809150m. Speed=0.000000m/h.]]></desc>
</trkpt>
<trkpt lat="36.704178" lon="137.750029">
<ele>2685.348207</ele>
<time>2014-08-18T01:50:56Z</time>
<desc><![CDATA[lat.=36.704178, lon.=137.750029, Alt.=2685.348207m. Speed=1.000000m/h.]]></desc>
</trkpt>
<trkpt lat="36.704189" lon="137.750038">
<ele>2685.406833</ele>
<time>2014-08-18T01:51:01Z</time>
<desc><![CDATA[lat.=36.704189, lon.=137.750038, Alt.=2685.406833m. Speed=1.000000m/h.]]></desc>
</trkpt>
<trkpt lat="36.704196" lon="137.750038">
<ele>2686.004517</ele>
<time>2014-08-18T01:51:06Z</time>
<desc><![CDATA[lat.=36.704196, lon.=137.750038, Alt.=2686.004517m. Speed=1.000000m/h.]]></desc>
</trkpt>
<trkpt lat="36.704218" lon="137.750023">
<ele>2686.012972</ele>
<time>2014-08-18T01:51:11Z</time>
<desc><![CDATA[lat.=36.704218, lon.=137.750023, Alt.=2686.012972m. Speed=1.000000m/h.]]></desc>
</trkpt>
<trkpt lat="36.704240" lon="137.750039">
<ele>2687.860424</ele>
<time>2014-08-18T01:51:16Z</time>
<desc><![CDATA[lat.=36.704240, lon.=137.750039, Alt.=2687.860424m. Speed=1.000000m/h.]]></desc>
</trkpt>
<trkpt lat="36.704238" lon="137.750085">
<ele>2689.753821</ele>
<time>2014-08-18T01:51:21Z</time>
<desc><![CDATA[lat.=36.704238, lon.=137.750085, Alt.=2689.753821m. Speed=2.000000m/h.]]></desc>
</trkpt>
<trkpt lat="36.704230" lon="137.750099">
<ele>2692.670934</ele>
<time>2014-08-18T01:51:26Z</time>
<desc><![CDATA[lat.=36.704230, lon.=137.750099, Alt.=2692.670934m. Speed=2.000000m/h.]]></desc>
</trkpt>
<trkpt lat="36.704243" lon="137.750130">
<ele>2695.705302</ele>
<time>2014-08-18T01:51:31Z</time>
<desc><![CDATA[lat.=36.704243, lon.=137.750130, Alt.=2695.705302m. Speed=1.000000m/h.]]></desc>
</trkpt>
<trkpt lat="36.704250" lon="137.750146">
<ele>2696.357388</ele>
<time>2014-08-18T01:51:36Z</time>
<desc><![CDATA[lat.=36.704250, lon.=137.750146, Alt.=2696.357388m. Speed=2.000000m/h.]]></desc>
</trkpt>
<trkpt lat="36.704253" lon="137.750170">
<ele>2695.872734</ele>
<time>2014-08-18T01:51:41Z</time>
<desc><![CDATA[lat.=36.704253, lon.=137.750170, Alt.=2695.872734m. Speed=0.000000m/h.]]></desc>
</trkpt>
<trkpt lat="36.704261" lon="137.750187">
<ele>2694.794623</ele>
<time>2014-08-18T01:51:46Z</time>
<desc><![CDATA[lat.=36.704261, lon.=137.750187, Alt.=2694.794623m. Speed=1.000000m/h.]]></desc>
</trkpt>
<trkpt lat="36.704267" lon="137.750219">
<ele>2693.770914</ele>
<time>2014-08-18T01:51:51Z</time>
<desc><![CDATA[lat.=36.704267, lon.=137.750219, Alt.=2693.770914m. Speed=2.000000m/h.]]></desc>
</trkpt>
<trkpt lat="36.704263" lon="137.750227">
<ele>2694.364372</ele>
<time>2014-08-18T01:51:56Z</time>
<desc><![CDATA[lat.=36.704263, lon.=137.750227, Alt.=2694.364372m. Speed=1.000000m/h.]]></desc>
</trkpt>
<trkpt lat="36.704260" lon="137.750219">
<ele>2693.173230</ele>
<time>2014-08-18T01:52:01Z</time>
<desc><![CDATA[lat.=36.704260, lon.=137.750219, Alt.=2693.173230m. Speed=0.000000m/h.]]></desc>
</trkpt>
<trkpt lat="36.704261" lon="137.750203">
<ele>2693.118827</ele>
<time>2014-08-18T01:52:06Z</time>
<desc><![CDATA[lat.=36.704261, lon.=137.750203, Alt.=2693.118827m. Speed=1.000000m/h.]]></desc>
</trkpt>
<trkpt lat="36.704264" lon="137.750195">
<ele>2694.255567</ele>
<time>2014-08-18T01:52:11Z</time>
<desc><![CDATA[lat.=36.704264, lon.=137.750195, Alt.=2694.255567m. Speed=1.000000m/h.]]></desc>
</trkpt>
<trkpt lat="36.704271" lon="137.750211">
<ele>2694.907654</ele>
<time>2014-08-18T01:52:16Z</time>
<desc><![CDATA[lat.=36.704271, lon.=137.750211, Alt.=2694.907654m. Speed=1.000000m/h.]]></desc>
</trkpt>
<trkpt lat="36.704286" lon="137.750196">
<ele>2694.318424</ele>
<time>2014-08-18T01:52:21Z</time>
<desc><![CDATA[lat.=36.704286, lon.=137.750196, Alt.=2694.318424m. Speed=2.000000m/h.]]></desc>
</trkpt>
<trkpt lat="36.704291" lon="137.750156">
<ele>2695.346361</ele>
<time>2014-08-18T01:52:26Z</time>
<desc><![CDATA[lat.=36.704291, lon.=137.750156, Alt.=2695.346361m. Speed=2.000000m/h.]]></desc>
</trkpt>
<trkpt lat="36.704298" lon="137.750140">
<ele>2695.889644</ele>
<time>2014-08-18T01:52:31Z</time>
<desc><![CDATA[lat.=36.704298, lon.=137.750140, Alt.=2695.889644m. Speed=1.000000m/h.]]></desc>
</trkpt>
<trkpt lat="36.704313" lon="137.750124">
<ele>2697.030614</ele>
<time>2014-08-18T01:52:36Z</time>
<desc><![CDATA[lat.=36.704313, lon.=137.750124, Alt.=2697.030614m. Speed=1.000000m/h.]]></desc>
</trkpt>
<trkpt lat="36.704324" lon="137.750117">
<ele>2697.034843</ele>
<time>2014-08-18T01:52:41Z</time>
<desc><![CDATA[lat.=36.704324, lon.=137.750117, Alt.=2697.034843m. Speed=1.000000m/h.]]></desc>
</trkpt>
<trkpt lat="36.704332" lon="137.750101">
<ele>2697.578128</ele>
<time>2014-08-18T01:52:46Z</time>
<desc><![CDATA[lat.=36.704332, lon.=137.750101, Alt.=2697.578128m. Speed=1.000000m/h.]]></desc>
</trkpt>
<trkpt lat="36.704340" lon="137.750086">
<ele>2696.391216</ele>
<time>2014-08-18T01:52:51Z</time>
<desc><![CDATA[lat.=36.704340, lon.=137.750086, Alt.=2696.391216m. Speed=1.000000m/h.]]></desc>
</trkpt>
<trkpt lat="36.704354" lon="137.750086">
<ele>2697.586588</ele>
<time>2014-08-18T01:52:56Z</time>
<desc><![CDATA[lat.=36.704354, lon.=137.750086, Alt.=2697.586588m. Speed=1.000000m/h.]]></desc>
</trkpt>
<trkpt lat="36.704362" lon="137.750070">
<ele>2698.129874</ele>
<time>2014-08-18T01:53:01Z</time>
<desc><![CDATA[lat.=36.704362, lon.=137.750070, Alt.=2698.129874m. Speed=1.000000m/h.]]></desc>
</trkpt>
<trkpt lat="36.704373" lon="137.750047">
<ele>2698.079705</ele>
<time>2014-08-18T01:53:06Z</time>
<desc><![CDATA[lat.=36.704373, lon.=137.750047, Alt.=2698.079705m. Speed=2.000000m/h.]]></desc>
</trkpt>
<trkpt lat="36.704392" lon="137.750023">
<ele>2698.627223</ele>
<time>2014-08-18T01:53:11Z</time>
<desc><![CDATA[lat.=36.704392, lon.=137.750023, Alt.=2698.627223m. Speed=2.000000m/h.]]></desc>
</trkpt>
<trkpt lat="36.704396" lon="137.750015">
<ele>2699.763966</ele>
<time>2014-08-18T01:53:16Z</time>
<desc><![CDATA[lat.=36.704396, lon.=137.750015, Alt.=2699.763966m. Speed=0.000000m/h.]]></desc>
</trkpt>
<trkpt lat="36.704392" lon="137.750023">
<ele>2700.357421</ele>
<time>2014-08-18T01:53:22Z</time>
<desc><![CDATA[lat.=36.704392, lon.=137.750023, Alt.=2700.357421m. Speed=0.000000m/h.]]></desc>
</trkpt>
<trkpt lat="36.704399" lon="137.750023">
<ele>2700.955108</ele>
<time>2014-08-18T01:53:27Z</time>
<desc><![CDATA[lat.=36.704399, lon.=137.750023, Alt.=2700.955108m. Speed=0.000000m/h.]]></desc>
</trkpt>
<trkpt lat="36.704403" lon="137.750014">
<ele>2702.091851</ele>
<time>2014-08-18T01:53:32Z</time>
<desc><![CDATA[lat.=36.704403, lon.=137.750014, Alt.=2702.091851m. Speed=0.000000m/h.]]></desc>
</trkpt>
<trkpt lat="36.704413" lon="137.750006">
<ele>2703.826281</ele>
<time>2014-08-18T01:53:37Z</time>
<desc><![CDATA[lat.=36.704413, lon.=137.750006, Alt.=2703.826281m. Speed=1.000000m/h.]]></desc>
</trkpt>
<trkpt lat="36.704425" lon="137.749999">
<ele>2703.830513</ele>
<time>2014-08-18T01:53:42Z</time>
<desc><![CDATA[lat.=36.704425, lon.=137.749999, Alt.=2703.830513m. Speed=1.000000m/h.]]></desc>
</trkpt>
<trkpt lat="36.704424" lon="137.750014">
<ele>2705.615110</ele>
<time>2014-08-18T01:53:47Z</time>
<desc><![CDATA[lat.=36.704424, lon.=137.750014, Alt.=2705.615110m. Speed=1.000000m/h.]]></desc>
</trkpt>
<trkpt lat="36.704426" lon="137.750036">
<ele>2708.590849</ele>
<time>2014-08-18T01:53:52Z</time>
<desc><![CDATA[lat.=36.704426, lon.=137.750036, Alt.=2708.590849m. Speed=1.000000m/h.]]></desc>
</trkpt>
<trkpt lat="36.704423" lon="137.750028">
<ele>2709.129904</ele>
<time>2014-08-18T01:53:59Z</time>
<desc><![CDATA[lat.=36.704423, lon.=137.750028, Alt.=2709.129904m. Speed=0.000000m/h.]]></desc>
</trkpt>
<trkpt lat="36.704419" lon="137.750019">
<ele>2711.399159</ele>
<time>2014-08-18T01:54:04Z</time>
<desc><![CDATA[lat.=36.704419, lon.=137.750019, Alt.=2711.399159m. Speed=0.000000m/h.]]></desc>
</trkpt>
<trkpt lat="36.704423" lon="137.750011">
<ele>2710.805704</ele>
<time>2014-08-18T01:54:09Z</time>
<desc><![CDATA[lat.=36.704423, lon.=137.750011, Alt.=2710.805704m. Speed=0.000000m/h.]]></desc>
</trkpt>
<trkpt lat="36.704433" lon="137.750020">
<ele>2710.864335</ele>
<time>2014-08-18T01:54:14Z</time>
<desc><![CDATA[lat.=36.704433, lon.=137.750020, Alt.=2710.864335m. Speed=0.000000m/h.]]></desc>
</trkpt>
<trkpt lat="36.704437" lon="137.750012">
<ele>2710.270880</ele>
<time>2014-08-18T01:54:19Z</time>
<desc><![CDATA[lat.=36.704437, lon.=137.750012, Alt.=2710.270880m. Speed=0.000000m/h.]]></desc>
</trkpt>
<trkpt lat="36.704442" lon="137.750005">
<ele>2707.947227</ele>
<time>2014-08-18T01:54:24Z</time>
<desc><![CDATA[lat.=36.704442, lon.=137.750005, Alt.=2707.947227m. Speed=0.000000m/h.]]></desc>
</trkpt>
<trkpt lat="36.704460" lon="137.749998">
<ele>2708.549148</ele>
<time>2014-08-18T01:54:29Z</time>
<desc><![CDATA[lat.=36.704460, lon.=137.749998, Alt.=2708.549148m. Speed=1.000000m/h.]]></desc>
</trkpt>
<trkpt lat="36.704482" lon="137.750014">
<ele>2708.666411</ele>
<time>2014-08-18T01:54:34Z</time>
<desc><![CDATA[lat.=36.704482, lon.=137.750014, Alt.=2708.666411m. Speed=1.000000m/h.]]></desc>
</trkpt>
<trkpt lat="36.704504" lon="137.749999">
<ele>2710.405077</ele>
<time>2014-08-18T01:54:39Z</time>
<desc><![CDATA[lat.=36.704504, lon.=137.749999, Alt.=2710.405077m. Speed=1.000000m/h.]]></desc>
</trkpt>
<trkpt lat="36.704508" lon="137.749990">
<ele>2711.541821</ele>
<time>2014-08-18T01:54:44Z</time>
<desc><![CDATA[lat.=36.704508, lon.=137.749990, Alt.=2711.541821m. Speed=0.000000m/h.]]></desc>
</trkpt>
<trkpt lat="36.704504" lon="137.749999">
<ele>2710.405077</ele>
<time>2014-08-18T01:54:49Z</time>
<desc><![CDATA[lat.=36.704504, lon.=137.749999, Alt.=2710.405077m. Speed=0.000000m/h.]]></desc>
</trkpt>
<trkpt lat="36.704510" lon="137.750014">
<ele>2712.787361</ele>
<time>2014-08-18T01:54:54Z</time>
<desc><![CDATA[lat.=36.704510, lon.=137.750014, Alt.=2712.787361m. Speed=0.000000m/h.]]></desc>
</trkpt>
<trkpt lat="36.704503" lon="137.750013">
<ele>2713.919871</ele>
<time>2014-08-18T01:54:59Z</time>
<desc><![CDATA[lat.=36.704503, lon.=137.750013, Alt.=2713.919871m. Speed=0.000000m/h.]]></desc>
</trkpt>
<trkpt lat="36.704506" lon="137.750037">
<ele>2713.435215</ele>
<time>2014-08-18T01:55:04Z</time>
<desc><![CDATA[lat.=36.704506, lon.=137.750037, Alt.=2713.435215m. Speed=0.000000m/h.]]></desc>
</trkpt>
<trkpt lat="36.704513" lon="137.750037">
<ele>2714.032903</ele>
<time>2014-08-18T01:55:09Z</time>
<desc><![CDATA[lat.=36.704513, lon.=137.750037, Alt.=2714.032903m. Speed=0.000000m/h.]]></desc>
</trkpt>
<trkpt lat="36.704517" lon="137.750045">
<ele>2713.493848</ele>
<time>2014-08-18T01:55:15Z</time>
<desc><![CDATA[lat.=36.704517, lon.=137.750045, Alt.=2713.493848m. Speed=0.000000m/h.]]></desc>
</trkpt>
<trkpt lat="36.704521" lon="137.750054">
<ele>2712.954792</ele>
<time>2014-08-18T01:55:21Z</time>
<desc><![CDATA[lat.=36.704521, lon.=137.750054, Alt.=2712.954792m. Speed=1.000000m/h.]]></desc>
</trkpt>
<trkpt lat="36.704528" lon="137.750054">
<ele>2713.552481</ele>
<time>2014-08-18T01:55:26Z</time>
<desc><![CDATA[lat.=36.704528, lon.=137.750054, Alt.=2713.552481m. Speed=0.000000m/h.]]></desc>
</trkpt>
<trkpt lat="36.704528" lon="137.750038">
<ele>2713.498082</ele>
<time>2014-08-18T01:55:31Z</time>
<desc><![CDATA[lat.=36.704528, lon.=137.750038, Alt.=2713.498082m. Speed=1.000000m/h.]]></desc>
</trkpt>
<trkpt lat="36.704550" lon="137.750022">
<ele>2715.236749</ele>
<time>2014-08-18T01:55:36Z</time>
<desc><![CDATA[lat.=36.704550, lon.=137.750022, Alt.=2715.236749m. Speed=2.000000m/h.]]></desc>
</trkpt>
<trkpt lat="36.704565" lon="137.750007">
<ele>2714.647530</ele>
<time>2014-08-18T01:55:41Z</time>
<desc><![CDATA[lat.=36.704565, lon.=137.750007, Alt.=2714.647530m. Speed=2.000000m/h.]]></desc>
</trkpt>
<trkpt lat="36.704568" lon="137.750014">
<ele>2717.568871</ele>
<time>2014-08-18T01:55:46Z</time>
<desc><![CDATA[lat.=36.704568, lon.=137.750014, Alt.=2717.568871m. Speed=0.000000m/h.]]></desc>
</trkpt>
<trkpt lat="36.704571" lon="137.750021">
<ele>2718.760014</ele>
<time>2014-08-18T01:55:52Z</time>
<desc><![CDATA[lat.=36.704571, lon.=137.750021, Alt.=2718.760014m. Speed=0.000000m/h.]]></desc>
</trkpt>
<trkpt lat="36.704582" lon="137.750029">
<ele>2718.818648</ele>
<time>2014-08-18T01:55:57Z</time>
<desc><![CDATA[lat.=36.704582, lon.=137.750029, Alt.=2718.818648m. Speed=0.000000m/h.]]></desc>
</trkpt>
<trkpt lat="36.704597" lon="137.750030">
<ele>2718.283829</ele>
<time>2014-08-18T01:56:02Z</time>
<desc><![CDATA[lat.=36.704597, lon.=137.750030, Alt.=2718.283829m. Speed=1.000000m/h.]]></desc>
</trkpt>
<trkpt lat="36.704616" lon="137.750023">
<ele>2718.885754</ele>
<time>2014-08-18T01:56:07Z</time>
<desc><![CDATA[lat.=36.704616, lon.=137.750023, Alt.=2718.885754m. Speed=1.000000m/h.]]></desc>
</trkpt>
<trkpt lat="36.704642" lon="137.749999">
<ele>2720.030972</ele>
<time>2014-08-18T01:56:12Z</time>
<desc><![CDATA[lat.=36.704642, lon.=137.749999, Alt.=2720.030972m. Speed=2.000000m/h.]]></desc>
</trkpt>
<trkpt lat="36.704645" lon="137.749991">
<ele>2721.167717</ele>
<time>2014-08-18T01:56:17Z</time>
<desc><![CDATA[lat.=36.704645, lon.=137.749991, Alt.=2721.167717m. Speed=1.000000m/h.]]></desc>
</trkpt>
<trkpt lat="36.704653" lon="137.749992">
<ele>2720.035210</ele>
<time>2014-08-18T01:56:22Z</time>
<desc><![CDATA[lat.=36.704653, lon.=137.749992, Alt.=2720.035210m. Speed=0.000000m/h.]]></desc>
</trkpt>
<trkpt lat="36.704663" lon="137.750016">
<ele>2720.148244</ele>
<time>2014-08-18T01:56:27Z</time>
<desc><![CDATA[lat.=36.704663, lon.=137.750016, Alt.=2720.148244m. Speed=0.000000m/h.]]></desc>
</trkpt>
<trkpt lat="36.704670" lon="137.750016">
<ele>2720.745934</ele>
<time>2014-08-18T01:56:32Z</time>
<desc><![CDATA[lat.=36.704670, lon.=137.750016, Alt.=2720.745934m. Speed=0.000000m/h.]]></desc>
</trkpt>
<trkpt lat="36.704677" lon="137.750032">
<ele>2721.398023</ele>
<time>2014-08-18T01:56:37Z</time>
<desc><![CDATA[lat.=36.704677, lon.=137.750032, Alt.=2721.398023m. Speed=0.000000m/h.]]></desc>
</trkpt>
<trkpt lat="36.704677" lon="137.750015">
<ele>2723.073822</ele>
<time>2014-08-18T01:56:42Z</time>
<desc><![CDATA[lat.=36.704677, lon.=137.750015, Alt.=2723.073822m. Speed=1.000000m/h.]]></desc>
</trkpt>
<trkpt lat="36.704689" lon="137.749975">
<ele>2724.699462</ele>
<time>2014-08-18T01:56:47Z</time>
<desc><![CDATA[lat.=36.704689, lon.=137.749975, Alt.=2724.699462m. Speed=1.000000m/h.]]></desc>
</trkpt>
<trkpt lat="36.704707" lon="137.749968">
<ele>2725.301392</ele>
<time>2014-08-18T01:56:52Z</time>
<desc><![CDATA[lat.=36.704707, lon.=137.749968, Alt.=2725.301392m. Speed=1.000000m/h.]]></desc>
</trkpt>
<trkpt lat="36.704726" lon="137.749960">
<ele>2725.903322</ele>
<time>2014-08-18T01:56:57Z</time>
<desc><![CDATA[lat.=36.704726, lon.=137.749960, Alt.=2725.903322m. Speed=2.000000m/h.]]></desc>
</trkpt>
<trkpt lat="36.704740" lon="137.749960">
<ele>2727.098705</ele>
<time>2014-08-18T01:57:02Z</time>
<desc><![CDATA[lat.=36.704740, lon.=137.749960, Alt.=2727.098705m. Speed=1.000000m/h.]]></desc>
</trkpt>
<trkpt lat="36.704737" lon="137.749952">
<ele>2727.637759</ele>
<time>2014-08-18T01:57:07Z</time>
<desc><![CDATA[lat.=36.704737, lon.=137.749952, Alt.=2727.637759m. Speed=0.000000m/h.]]></desc>
</trkpt>
<trkpt lat="36.704740" lon="137.749960">
<ele>2727.098705</ele>
<time>2014-08-18T01:57:12Z</time>
<desc><![CDATA[lat.=36.704740, lon.=137.749960, Alt.=2727.098705m. Speed=0.000000m/h.]]></desc>
</trkpt>
<trkpt lat="36.704744" lon="137.749952">
<ele>2728.235451</ele>
<time>2014-08-18T01:57:17Z</time>
<desc><![CDATA[lat.=36.704744, lon.=137.749952, Alt.=2728.235451m. Speed=0.000000m/h.]]></desc>
</trkpt>
<trkpt lat="36.704740" lon="137.749944">
<ele>2728.774505</ele>
<time>2014-08-18T01:57:24Z</time>
<desc><![CDATA[lat.=36.704740, lon.=137.749944, Alt.=2728.774505m. Speed=0.000000m/h.]]></desc>
</trkpt>
<trkpt lat="36.704744" lon="137.749952">
<ele>2728.235451</ele>
<time>2014-08-18T01:57:29Z</time>
<desc><![CDATA[lat.=36.704744, lon.=137.749952, Alt.=2728.235451m. Speed=1.000000m/h.]]></desc>
</trkpt>
<trkpt lat="36.704747" lon="137.749944">
<ele>2729.372197</ele>
<time>2014-08-18T01:57:34Z</time>
<desc><![CDATA[lat.=36.704747, lon.=137.749944, Alt.=2729.372197m. Speed=0.000000m/h.]]></desc>
</trkpt>
<trkpt lat="36.704762" lon="137.749944">
<ele>2730.567580</ele>
<time>2014-08-18T01:57:39Z</time>
<desc><![CDATA[lat.=36.704762, lon.=137.749944, Alt.=2730.567580m. Speed=1.000000m/h.]]></desc>
</trkpt>
<trkpt lat="36.704773" lon="137.749937">
<ele>2728.841623</ele>
<time>2014-08-18T01:57:44Z</time>
<desc><![CDATA[lat.=36.704773, lon.=137.749937, Alt.=2728.841623m. Speed=2.000000m/h.]]></desc>
</trkpt>
<trkpt lat="36.704781" lon="137.749921">
<ele>2729.384918</ele>
<time>2014-08-18T01:57:49Z</time>
<desc><![CDATA[lat.=36.704781, lon.=137.749921, Alt.=2729.384918m. Speed=1.000000m/h.]]></desc>
</trkpt>
<trkpt lat="36.704792" lon="137.749914">
<ele>2729.389159</ele>
<time>2014-08-18T01:57:54Z</time>
<desc><![CDATA[lat.=36.704792, lon.=137.749914, Alt.=2729.389159m. Speed=1.000000m/h.]]></desc>
</trkpt>
<trkpt lat="36.704803" lon="137.749922">
<ele>2729.447797</ele>
<time>2014-08-18T01:57:59Z</time>
<desc><![CDATA[lat.=36.704803, lon.=137.749922, Alt.=2729.447797m. Speed=0.000000m/h.]]></desc>
</trkpt>
<trkpt lat="36.704799" lon="137.749929">
<ele>2730.041248</ele>
<time>2014-08-18T01:58:04Z</time>
<desc><![CDATA[lat.=36.704799, lon.=137.749929, Alt.=2730.041248m. Speed=0.000000m/h.]]></desc>
</trkpt>
<trkpt lat="36.704795" lon="137.749937">
<ele>2730.634699</ele>
<time>2014-08-18T01:58:09Z</time>
<desc><![CDATA[lat.=36.704795, lon.=137.749937, Alt.=2730.634699m. Speed=0.000000m/h.]]></desc>
</trkpt>
<trkpt lat="36.704803" lon="137.749905">
<ele>2731.123598</ele>
<time>2014-08-18T01:58:14Z</time>
<desc><![CDATA[lat.=36.704803, lon.=137.749905, Alt.=2731.123598m. Speed=1.000000m/h.]]></desc>
</trkpt>
<trkpt lat="36.704814" lon="137.749914">
<ele>2731.182236</ele>
<time>2014-08-18T01:58:19Z</time>
<desc><![CDATA[lat.=36.704814, lon.=137.749914, Alt.=2731.182236m. Speed=0.000000m/h.]]></desc>
</trkpt>
<trkpt lat="36.704810" lon="137.749922">
<ele>2730.045489</ele>
<time>2014-08-18T01:58:24Z</time>
<desc><![CDATA[lat.=36.704810, lon.=137.749922, Alt.=2730.045489m. Speed=0.000000m/h.]]></desc>
</trkpt>
<trkpt lat="36.704821" lon="137.749930">
<ele>2730.104127</ele>
<time>2014-08-18T01:58:29Z</time>
<desc><![CDATA[lat.=36.704821, lon.=137.749930, Alt.=2730.104127m. Speed=0.000000m/h.]]></desc>
</trkpt>
<trkpt lat="36.704817" lon="137.749938">
<ele>2730.697578</ele>
<time>2014-08-18T01:58:37Z</time>
<desc><![CDATA[lat.=36.704817, lon.=137.749938, Alt.=2730.697578m. Speed=0.000000m/h.]]></desc>
</trkpt>
<trkpt lat="36.704820" lon="137.749961">
<ele>2731.943119</ele>
<time>2014-08-18T01:58:42Z</time>
<desc><![CDATA[lat.=36.704820, lon.=137.749961, Alt.=2731.943119m. Speed=1.000000m/h.]]></desc>
</trkpt>
<trkpt lat="36.704824" lon="137.749969">
<ele>2731.404065</ele>
<time>2014-08-18T01:58:48Z</time>
<desc><![CDATA[lat.=36.704824, lon.=137.749969, Alt.=2731.404065m. Speed=0.000000m/h.]]></desc>
</trkpt>
<trkpt lat="36.704831" lon="137.749969">
<ele>2732.001758</ele>
<time>2014-08-18T01:58:57Z</time>
<desc><![CDATA[lat.=36.704831, lon.=137.749969, Alt.=2732.001758m. Speed=1.000000m/h.]]></desc>
</trkpt>
<trkpt lat="36.704834" lon="137.749978">
<ele>2731.462704</ele>
<time>2014-08-18T01:59:02Z</time>
<desc><![CDATA[lat.=36.704834, lon.=137.749978, Alt.=2731.462704m. Speed=0.000000m/h.]]></desc>
</trkpt>
<trkpt lat="36.704838" lon="137.749969">
<ele>2732.599451</ele>
<time>2014-08-18T01:59:07Z</time>
<desc><![CDATA[lat.=36.704838, lon.=137.749969, Alt.=2732.599451m. Speed=0.000000m/h.]]></desc>
</trkpt>
<trkpt lat="36.704852" lon="137.749985">
<ele>2733.849234</ele>
<time>2014-08-18T01:59:12Z</time>
<desc><![CDATA[lat.=36.704852, lon.=137.749985, Alt.=2733.849234m. Speed=1.000000m/h.]]></desc>
</trkpt>
<trkpt lat="36.704856" lon="137.749977">
<ele>2734.985981</ele>
<time>2014-08-18T01:59:17Z</time>
<desc><![CDATA[lat.=36.704856, lon.=137.749977, Alt.=2734.985981m. Speed=1.000000m/h.]]></desc>
</trkpt>
<trkpt lat="36.704878" lon="137.749961">
<ele>2736.724663</ele>
<time>2014-08-18T01:59:22Z</time>
<desc><![CDATA[lat.=36.704878, lon.=137.749961, Alt.=2736.724663m. Speed=2.000000m/h.]]></desc>
</trkpt>
<trkpt lat="36.704885" lon="137.749961">
<ele>2737.322357</ele>
<time>2014-08-18T01:59:27Z</time>
<desc><![CDATA[lat.=36.704885, lon.=137.749961, Alt.=2737.322357m. Speed=0.000000m/h.]]></desc>
</trkpt>
<trkpt lat="36.704885" lon="137.749944">
<ele>2738.998157</ele>
<time>2014-08-18T01:59:32Z</time>
<desc><![CDATA[lat.=36.704885, lon.=137.749944, Alt.=2738.998157m. Speed=0.000000m/h.]]></desc>
</trkpt>
<trkpt lat="36.704896" lon="137.749936">
<ele>2740.732598</ele>
<time>2014-08-18T01:59:37Z</time>
<desc><![CDATA[lat.=36.704896, lon.=137.749936, Alt.=2740.732598m. Speed=1.000000m/h.]]></desc>
</trkpt>
<trkpt lat="36.704900" lon="137.749929">
<ele>2740.139148</ele>
<time>2014-08-18T01:59:42Z</time>
<desc><![CDATA[lat.=36.704900, lon.=137.749929, Alt.=2740.139148m. Speed=0.000000m/h.]]></desc>
</trkpt>
<trkpt lat="36.704899" lon="137.749928">
<ele>2741.869345</ele>
<time>2014-08-18T01:59:47Z</time>
<desc><![CDATA[lat.=36.704899, lon.=137.749928, Alt.=2741.869345m. Speed=0.000000m/h.]]></desc>
</trkpt>
<trkpt lat="36.704899" lon="137.749927">
<ele>2743.599543</ele>
<time>2014-08-18T01:59:52Z</time>
<desc><![CDATA[lat.=36.704899, lon.=137.749927, Alt.=2743.599543m. Speed=0.000000m/h.]]></desc>
</trkpt>
<trkpt lat="36.704903" lon="137.749919">
<ele>2744.736291</ele>
<time>2014-08-18T01:59:57Z</time>
<desc><![CDATA[lat.=36.704903, lon.=137.749919, Alt.=2744.736291m. Speed=0.000000m/h.]]></desc>
</trkpt>
<trkpt lat="36.704917" lon="137.749903">
<ele>2745.877282</ele>
<time>2014-08-18T02:00:02Z</time>
<desc><![CDATA[lat.=36.704917, lon.=137.749903, Alt.=2745.877282m. Speed=1.000000m/h.]]></desc>
</trkpt>
<trkpt lat="36.704921" lon="137.749896">
<ele>2745.283832</ele>
<time>2014-08-18T02:00:07Z</time>
<desc><![CDATA[lat.=36.704921, lon.=137.749896, Alt.=2745.283832m. Speed=0.000000m/h.]]></desc>
</trkpt>
<trkpt lat="36.704940" lon="137.749889">
<ele>2744.155573</ele>
<time>2014-08-18T02:00:12Z</time>
<desc><![CDATA[lat.=36.704940, lon.=137.749889, Alt.=2744.155573m. Speed=0.000000m/h.]]></desc>
</trkpt>
<trkpt lat="36.704955" lon="137.749873">
<ele>2745.296566</ele>
<time>2014-08-18T02:00:17Z</time>
<desc><![CDATA[lat.=36.704955, lon.=137.749873, Alt.=2745.296566m. Speed=1.000000m/h.]]></desc>
</trkpt>
<trkpt lat="36.704959" lon="137.749849">
<ele>2746.378919</ele>
<time>2014-08-18T02:00:22Z</time>
<desc><![CDATA[lat.=36.704959, lon.=137.749849, Alt.=2746.378919m. Speed=1.000000m/h.]]></desc>
</trkpt>
<trkpt lat="36.704963" lon="137.749826">
<ele>2745.731075</ele>
<time>2014-08-18T02:00:27Z</time>
<desc><![CDATA[lat.=36.704963, lon.=137.749826, Alt.=2745.731075m. Speed=2.000000m/h.]]></desc>
</trkpt>
<trkpt lat="36.704956" lon="137.749793">
<ele>2746.754790</ele>
<time>2014-08-18T02:00:32Z</time>
<desc><![CDATA[lat.=36.704956, lon.=137.749793, Alt.=2746.754790m. Speed=1.000000m/h.]]></desc>
</trkpt>
<trkpt lat="36.704968" lon="137.749786">
<ele>2746.759036</ele>
<time>2014-08-18T02:00:37Z</time>
<desc><![CDATA[lat.=36.704968, lon.=137.749786, Alt.=2746.759036m. Speed=1.000000m/h.]]></desc>
</trkpt>
<trkpt lat="36.704961" lon="137.749754">
<ele>2746.052554</ele>
<time>2014-08-18T02:00:42Z</time>
<desc><![CDATA[lat.=36.704961, lon.=137.749754, Alt.=2746.052554m. Speed=2.000000m/h.]]></desc>
</trkpt>
<trkpt lat="36.704984" lon="137.749723">
<ele>2746.006655</ele>
<time>2014-08-18T02:00:47Z</time>
<desc><![CDATA[lat.=36.704984, lon.=137.749723, Alt.=2746.006655m. Speed=2.000000m/h.]]></desc>
</trkpt>
<trkpt lat="36.705036" lon="137.749742">
<ele>2743.324123</ele>
<time>2014-08-18T02:00:52Z</time>
<desc><![CDATA[lat.=36.705036, lon.=137.749742, Alt.=2743.324123m. Speed=3.000000m/h.]]></desc>
</trkpt>
<trkpt lat="36.705042" lon="137.749774">
<ele>2744.030605</ele>
<time>2014-08-18T02:00:57Z</time>
<desc><![CDATA[lat.=36.705042, lon.=137.749774, Alt.=2744.030605m. Speed=2.000000m/h.]]></desc>
</trkpt>
<trkpt lat="36.705048" lon="137.749821">
<ele>2744.791483</ele>
<time>2014-08-18T02:01:02Z</time>
<desc><![CDATA[lat.=36.705048, lon.=137.749821, Alt.=2744.791483m. Speed=2.000000m/h.]]></desc>
</trkpt>
<trkpt lat="36.705048" lon="137.749820">
<ele>2748.251878</ele>
<time>2014-08-18T02:01:07Z</time>
<desc><![CDATA[lat.=36.705048, lon.=137.749820, Alt.=2748.251878m. Speed=1.000000m/h.]]></desc>
</trkpt>
<trkpt lat="36.705058" lon="137.749828">
<ele>2748.310520</ele>
<time>2014-08-18T02:01:12Z</time>
<desc><![CDATA[lat.=36.705058, lon.=137.749828, Alt.=2748.310520m. Speed=1.000000m/h.]]></desc>
</trkpt>
<trkpt lat="36.705051" lon="137.749844">
<ele>2747.767219</ele>
<time>2014-08-18T02:01:17Z</time>
<desc><![CDATA[lat.=36.705051, lon.=137.749844, Alt.=2747.767219m. Speed=0.000000m/h.]]></desc>
</trkpt>
<trkpt lat="36.705040" lon="137.749835">
<ele>2747.708577</ele>
<time>2014-08-18T02:01:22Z</time>
<desc><![CDATA[lat.=36.705040, lon.=137.749835, Alt.=2747.708577m. Speed=0.000000m/h.]]></desc>
</trkpt>
<trkpt lat="36.705036" lon="137.749843">
<ele>2748.302025</ele>
<time>2014-08-18T02:01:32Z</time>
<desc><![CDATA[lat.=36.705036, lon.=137.749843, Alt.=2748.302025m. Speed=0.000000m/h.]]></desc>
</trkpt>
<trkpt lat="36.705032" lon="137.749835">
<ele>2748.841079</ele>
<time>2014-08-18T02:01:37Z</time>
<desc><![CDATA[lat.=36.705032, lon.=137.749835, Alt.=2748.841079m. Speed=0.000000m/h.]]></desc>
</trkpt>
<trkpt lat="36.705025" lon="137.749835">
<ele>2748.243384</ele>
<time>2014-08-18T02:01:42Z</time>
<desc><![CDATA[lat.=36.705025, lon.=137.749835, Alt.=2748.243384m. Speed=0.000000m/h.]]></desc>
</trkpt>
<trkpt lat="36.705033" lon="137.749835">
<ele>2747.110881</ele>
<time>2014-08-18T02:01:47Z</time>
<desc><![CDATA[lat.=36.705033, lon.=137.749835, Alt.=2747.110881m. Speed=0.000000m/h.]]></desc>
</trkpt>
<trkpt lat="36.705025" lon="137.749835">
<ele>2746.513186</ele>
<time>2014-08-18T02:01:55Z</time>
<desc><![CDATA[lat.=36.705025, lon.=137.749835, Alt.=2746.513186m. Speed=0.000000m/h.]]></desc>
</trkpt>
<trkpt lat="36.705036" lon="137.749844">
<ele>2746.571828</ele>
<time>2014-08-18T02:02:00Z</time>
<desc><![CDATA[lat.=36.705036, lon.=137.749844, Alt.=2746.571828m. Speed=1.000000m/h.]]></desc>
</trkpt>
<trkpt lat="36.705048" lon="137.749837">
<ele>2744.845877</ele>
<time>2014-08-18T02:02:05Z</time>
<desc><![CDATA[lat.=36.705048, lon.=137.749837, Alt.=2744.845877m. Speed=0.000000m/h.]]></desc>
</trkpt>
<trkpt lat="36.705052" lon="137.749845">
<ele>2744.306824</ele>
<time>2014-08-18T02:02:10Z</time>
<desc><![CDATA[lat.=36.705052, lon.=137.749845, Alt.=2744.306824m. Speed=0.000000m/h.]]></desc>
</trkpt>
<trkpt lat="36.705059" lon="137.749845">
<ele>2744.904520</ele>
<time>2014-08-18T02:02:15Z</time>
<desc><![CDATA[lat.=36.705059, lon.=137.749845, Alt.=2744.904520m. Speed=2.000000m/h.]]></desc>
</trkpt>
<trkpt lat="36.705098" lon="137.749870">
<ele>2745.678145</ele>
<time>2014-08-18T02:02:20Z</time>
<desc><![CDATA[lat.=36.705098, lon.=137.749870, Alt.=2745.678145m. Speed=3.000000m/h.]]></desc>
</trkpt>
<trkpt lat="36.705131" lon="137.749878">
<ele>2747.529879</ele>
<time>2014-08-18T02:02:25Z</time>
<desc><![CDATA[lat.=36.705131, lon.=137.749878, Alt.=2747.529879m. Speed=3.000000m/h.]]></desc>
</trkpt>
<trkpt lat="36.705178" lon="137.749904">
<ele>2747.171011</ele>
<time>2014-08-18T02:02:30Z</time>
<desc><![CDATA[lat.=36.705178, lon.=137.749904, Alt.=2747.171011m. Speed=3.000000m/h.]]></desc>
</trkpt>
<trkpt lat="36.705219" lon="137.749946">
<ele>2744.538649</ele>
<time>2014-08-18T02:02:35Z</time>
<desc><![CDATA[lat.=36.705219, lon.=137.749946, Alt.=2744.538649m. Speed=4.000000m/h.]]></desc>
</trkpt>
<trkpt lat="36.705255" lon="137.749979">
<ele>2744.175540</ele>
<time>2014-08-18T02:02:40Z</time>
<desc><![CDATA[lat.=36.705255, lon.=137.749979, Alt.=2744.175540m. Speed=4.000000m/h.]]></desc>
</trkpt>
<trkpt lat="36.705298" lon="137.750013">
<ele>2742.679937</ele>
<time>2014-08-18T02:02:45Z</time>
<desc><![CDATA[lat.=36.705298, lon.=137.750013, Alt.=2742.679937m. Speed=4.000000m/h.]]></desc>
</trkpt>
<trkpt lat="36.705346" lon="137.750039">
<ele>2742.321089</ele>
<time>2014-08-18T02:02:50Z</time>
<desc><![CDATA[lat.=36.705346, lon.=137.750039, Alt.=2742.321089m. Speed=4.000000m/h.]]></desc>
</trkpt>
<trkpt lat="36.705394" lon="137.750049">
<ele>2740.177649</ele>
<time>2014-08-18T02:02:55Z</time>
<desc><![CDATA[lat.=36.705394, lon.=137.750049, Alt.=2740.177649m. Speed=4.000000m/h.]]></desc>
</trkpt>
<trkpt lat="36.705422" lon="137.750097">
<ele>2741.001453</ele>
<time>2014-08-18T02:03:00Z</time>
<desc><![CDATA[lat.=36.705422, lon.=137.750097, Alt.=2741.001453m. Speed=4.000000m/h.]]></desc>
</trkpt>
<trkpt lat="36.705447" lon="137.750138">
<ele>2740.634111</ele>
<time>2014-08-18T02:03:05Z</time>
<desc><![CDATA[lat.=36.705447, lon.=137.750138, Alt.=2740.634111m. Speed=4.000000m/h.]]></desc>
</trkpt>
<trkpt lat="36.705476" lon="137.750139">
<ele>2741.294720</ele>
<time>2014-08-18T02:03:10Z</time>
<desc><![CDATA[lat.=36.705476, lon.=137.750139, Alt.=2741.294720m. Speed=3.000000m/h.]]></desc>
</trkpt>
<trkpt lat="36.705476" lon="137.750138">
<ele>2743.024917</ele>
<time>2014-08-18T02:03:15Z</time>
<desc><![CDATA[lat.=36.705476, lon.=137.750138, Alt.=2743.024917m. Speed=0.000000m/h.]]></desc>
</trkpt>
<trkpt lat="36.705472" lon="137.750130">
<ele>2743.563965</ele>
<time>2014-08-18T02:03:22Z</time>
<desc><![CDATA[lat.=36.705472, lon.=137.750130, Alt.=2743.563965m. Speed=0.000000m/h.]]></desc>
</trkpt>
<trkpt lat="36.705464" lon="137.750145">
<ele>2744.750861</ele>
<time>2014-08-18T02:03:27Z</time>
<desc><![CDATA[lat.=36.705464, lon.=137.750145, Alt.=2744.750861m. Speed=0.000000m/h.]]></desc>
</trkpt>
<trkpt lat="36.705494" lon="137.750146">
<ele>2745.411471</ele>
<time>2014-08-18T02:03:32Z</time>
<desc><![CDATA[lat.=36.705494, lon.=137.750146, Alt.=2745.411471m. Speed=2.000000m/h.]]></desc>
</trkpt>
<trkpt lat="36.705526" lon="137.750155">
<ele>2745.533036</ele>
<time>2014-08-18T02:03:37Z</time>
<desc><![CDATA[lat.=36.705526, lon.=137.750155, Alt.=2745.533036m. Speed=3.000000m/h.]]></desc>
</trkpt>
<trkpt lat="36.705552" lon="137.750164">
<ele>2745.056900</ele>
<time>2014-08-18T02:03:42Z</time>
<desc><![CDATA[lat.=36.705552, lon.=137.750164, Alt.=2745.056900m. Speed=3.000000m/h.]]></desc>
</trkpt>
<trkpt lat="36.705571" lon="137.750156">
<ele>2745.658858</ele>
<time>2014-08-18T02:03:47Z</time>
<desc><![CDATA[lat.=36.705571, lon.=137.750156, Alt.=2745.658858m. Speed=2.000000m/h.]]></desc>
</trkpt>
<trkpt lat="36.705560" lon="137.750149">
<ele>2743.870005</ele>
<time>2014-08-18T02:03:52Z</time>
<desc><![CDATA[lat.=36.705560, lon.=137.750149, Alt.=2743.870005m. Speed=0.000000m/h.]]></desc>
</trkpt>
<trkpt lat="36.705571" lon="137.750157">
<ele>2743.928661</ele>
<time>2014-08-18T02:03:59Z</time>
<desc><![CDATA[lat.=36.705571, lon.=137.750157, Alt.=2743.928661m. Speed=0.000000m/h.]]></desc>
</trkpt>
<trkpt lat="36.705589" lon="137.750181">
<ele>2744.639422</ele>
<time>2014-08-18T02:04:04Z</time>
<desc><![CDATA[lat.=36.705589, lon.=137.750181, Alt.=2744.639422m. Speed=1.000000m/h.]]></desc>
</trkpt>
<trkpt lat="36.705603" lon="137.750182">
<ele>2744.104632</ele>
<time>2014-08-18T02:04:09Z</time>
<desc><![CDATA[lat.=36.705603, lon.=137.750182, Alt.=2744.104632m. Speed=0.000000m/h.]]></desc>
</trkpt>
<trkpt lat="36.705592" lon="137.750189">
<ele>2744.100376</ele>
<time>2014-08-18T02:04:14Z</time>
<desc><![CDATA[lat.=36.705592, lon.=137.750189, Alt.=2744.100376m. Speed=0.000000m/h.]]></desc>
</trkpt>
<trkpt lat="36.705585" lon="137.750189">
<ele>2743.502672</ele>
<time>2014-08-18T02:04:19Z</time>
<desc><![CDATA[lat.=36.705585, lon.=137.750189, Alt.=2743.502672m. Speed=0.000000m/h.]]></desc>
</trkpt>
<trkpt lat="36.705589" lon="137.750198">
<ele>2742.963626</ele>
<time>2014-08-18T02:04:24Z</time>
<desc><![CDATA[lat.=36.705589, lon.=137.750198, Alt.=2742.963626m. Speed=1.000000m/h.]]></desc>
</trkpt>
<trkpt lat="36.705618" lon="137.750214">
<ele>2743.678645</ele>
<time>2014-08-18T02:04:29Z</time>
<desc><![CDATA[lat.=36.705618, lon.=137.750214, Alt.=2743.678645m. Speed=2.000000m/h.]]></desc>
</trkpt>
<trkpt lat="36.705624" lon="137.750230">
<ele>2744.330751</ele>
<time>2014-08-18T02:04:34Z</time>
<desc><![CDATA[lat.=36.705624, lon.=137.750230, Alt.=2744.330751m. Speed=2.000000m/h.]]></desc>
</trkpt>
<trkpt lat="36.705639" lon="137.750231">
<ele>2743.795962</ele>
<time>2014-08-18T02:04:39Z</time>
<desc><![CDATA[lat.=36.705639, lon.=137.750231, Alt.=2743.795962m. Speed=0.000000m/h.]]></desc>
</trkpt>
<trkpt lat="36.705643" lon="137.750223">
<ele>2743.202514</ele>
<time>2014-08-18T02:04:44Z</time>
<desc><![CDATA[lat.=36.705643, lon.=137.750223, Alt.=2743.202514m. Speed=0.000000m/h.]]></desc>
</trkpt>
<trkpt lat="36.705636" lon="137.750223">
<ele>2742.604810</ele>
<time>2014-08-18T02:04:49Z</time>
<desc><![CDATA[lat.=36.705636, lon.=137.750223, Alt.=2742.604810m. Speed=0.000000m/h.]]></desc>
</trkpt>
<trkpt lat="36.705640" lon="137.750216">
<ele>2742.011363</ele>
<time>2014-08-18T02:04:55Z</time>
<desc><![CDATA[lat.=36.705640, lon.=137.750216, Alt.=2742.011363m. Speed=0.000000m/h.]]></desc>
</trkpt>
<trkpt lat="36.705647" lon="137.750216">
<ele>2742.609067</ele>
<time>2014-08-18T02:05:01Z</time>
<desc><![CDATA[lat.=36.705647, lon.=137.750216, Alt.=2742.609067m. Speed=1.000000m/h.]]></desc>
</trkpt>
<trkpt lat="36.705672" lon="137.750240">
<ele>2742.187340</ele>
<time>2014-08-18T02:05:06Z</time>
<desc><![CDATA[lat.=36.705672, lon.=137.750240, Alt.=2742.187340m. Speed=2.000000m/h.]]></desc>
</trkpt>
<trkpt lat="36.705694" lon="137.750257">
<ele>2742.304659</ele>
<time>2014-08-18T02:05:11Z</time>
<desc><![CDATA[lat.=36.705694, lon.=137.750257, Alt.=2742.304659m. Speed=2.000000m/h.]]></desc>
</trkpt>
<trkpt lat="36.705691" lon="137.750265">
<ele>2741.167910</ele>
<time>2014-08-18T02:05:16Z</time>
<desc><![CDATA[lat.=36.705691, lon.=137.750265, Alt.=2741.167910m. Speed=0.000000m/h.]]></desc>
</trkpt>
<trkpt lat="36.705705" lon="137.750266">
<ele>2740.633123</ele>
<time>2014-08-18T02:05:21Z</time>
<desc><![CDATA[lat.=36.705705, lon.=137.750266, Alt.=2740.633123m. Speed=1.000000m/h.]]></desc>
</trkpt>
<trkpt lat="36.705710" lon="137.750259">
<ele>2738.309479</ele>
<time>2014-08-18T02:05:26Z</time>
<desc><![CDATA[lat.=36.705710, lon.=137.750259, Alt.=2738.309479m. Speed=0.000000m/h.]]></desc>
</trkpt>
<trkpt lat="36.705706" lon="137.750267">
<ele>2738.902926</ele>
<time>2014-08-18T02:05:31Z</time>
<desc><![CDATA[lat.=36.705706, lon.=137.750267, Alt.=2738.902926m. Speed=0.000000m/h.]]></desc>
</trkpt>
<trkpt lat="36.705720" lon="137.750283">
<ele>2738.422542</ele>
<time>2014-08-18T02:05:36Z</time>
<desc><![CDATA[lat.=36.705720, lon.=137.750283, Alt.=2738.422542m. Speed=2.000000m/h.]]></desc>
</trkpt>
<trkpt lat="36.705760" lon="137.750325">
<ele>2737.520439</ele>
<time>2014-08-18T02:05:41Z</time>
<desc><![CDATA[lat.=36.705760, lon.=137.750325, Alt.=2737.520439m. Speed=3.000000m/h.]]></desc>
</trkpt>
<trkpt lat="36.705795" lon="137.750389">
<ele>2737.266194</ele>
<time>2014-08-18T02:05:46Z</time>
<desc><![CDATA[lat.=36.705795, lon.=137.750389, Alt.=2737.266194m. Speed=4.000000m/h.]]></desc>
</trkpt>
<trkpt lat="36.705832" lon="137.750423">
<ele>2736.903144</ele>
<time>2014-08-18T02:05:51Z</time>
<desc><![CDATA[lat.=36.705832, lon.=137.750423, Alt.=2736.903144m. Speed=4.000000m/h.]]></desc>
</trkpt>
<trkpt lat="36.705857" lon="137.750415">
<ele>2738.102817</ele>
<time>2014-08-18T02:05:56Z</time>
<desc><![CDATA[lat.=36.705857, lon.=137.750415, Alt.=2738.102817m. Speed=3.000000m/h.]]></desc>
</trkpt>
<trkpt lat="36.705861" lon="137.750408">
<ele>2737.509369</ele>
<time>2014-08-18T02:06:01Z</time>
<desc><![CDATA[lat.=36.705861, lon.=137.750408, Alt.=2737.509369m. Speed=0.000000m/h.]]></desc>
</trkpt>
<trkpt lat="36.705862" lon="137.750408">
<ele>2735.779173</ele>
<time>2014-08-18T02:06:06Z</time>
<desc><![CDATA[lat.=36.705862, lon.=137.750408, Alt.=2735.779173m. Speed=0.000000m/h.]]></desc>
</trkpt>
<trkpt lat="36.705858" lon="137.750417">
<ele>2734.642424</ele>
<time>2014-08-18T02:06:11Z</time>
<desc><![CDATA[lat.=36.705858, lon.=137.750417, Alt.=2734.642424m. Speed=0.000000m/h.]]></desc>
</trkpt>
<trkpt lat="36.705847" lon="137.750408">
<ele>2734.583759</ele>
<time>2014-08-18T02:06:16Z</time>
<desc><![CDATA[lat.=36.705847, lon.=137.750408, Alt.=2734.583759m. Speed=0.000000m/h.]]></desc>
</trkpt>
<trkpt lat="36.705854" lon="137.750408">
<ele>2735.181466</ele>
<time>2014-08-18T02:06:26Z</time>
<desc><![CDATA[lat.=36.705854, lon.=137.750408, Alt.=2735.181466m. Speed=1.000000m/h.]]></desc>
</trkpt>
<trkpt lat="36.705896" lon="137.750387">
<ele>2734.061757</ele>
<time>2014-08-18T02:06:31Z</time>
<desc><![CDATA[lat.=36.705896, lon.=137.750387, Alt.=2734.061757m. Speed=3.000000m/h.]]></desc>
</trkpt>
<trkpt lat="36.705947" lon="137.750404">
<ele>2734.839725</ele>
<time>2014-08-18T02:06:36Z</time>
<desc><![CDATA[lat.=36.705947, lon.=137.750404, Alt.=2734.839725m. Speed=4.000000m/h.]]></desc>
</trkpt>
<trkpt lat="36.705986" lon="137.750444">
<ele>2735.667842</ele>
<time>2014-08-18T02:06:41Z</time>
<desc><![CDATA[lat.=36.705986, lon.=137.750444, Alt.=2735.667842m. Speed=4.000000m/h.]]></desc>
</trkpt>
<trkpt lat="36.706007" lon="137.750493">
<ele>2735.893992</ele>
<time>2014-08-18T02:06:46Z</time>
<desc><![CDATA[lat.=36.706007, lon.=137.750493, Alt.=2735.893992m. Speed=3.000000m/h.]]></desc>
</trkpt>
<trkpt lat="36.706032" lon="137.750517">
<ele>2737.202488</ele>
<time>2014-08-18T02:06:51Z</time>
<desc><![CDATA[lat.=36.706032, lon.=137.750517, Alt.=2737.202488m. Speed=3.000000m/h.]]></desc>
</trkpt>
<trkpt lat="36.706076" lon="137.750518">
<ele>2737.328354</ele>
<time>2014-08-18T02:06:56Z</time>
<desc><![CDATA[lat.=36.706076, lon.=137.750518, Alt.=2737.328354m. Speed=3.000000m/h.]]></desc>
</trkpt>
<trkpt lat="36.706104" lon="137.750551">
<ele>2738.097815</ele>
<time>2014-08-18T02:07:01Z</time>
<desc><![CDATA[lat.=36.706104, lon.=137.750551, Alt.=2738.097815m. Speed=3.000000m/h.]]></desc>
</trkpt>
<trkpt lat="36.706141" lon="137.750552">
<ele>2737.625976</ele>
<time>2014-08-18T02:07:06Z</time>
<desc><![CDATA[lat.=36.706141, lon.=137.750552, Alt.=2737.625976m. Speed=4.000000m/h.]]></desc>
</trkpt>
<trkpt lat="36.706185" lon="137.750569">
<ele>2739.536457</ele>
<time>2014-08-18T02:07:11Z</time>
<desc><![CDATA[lat.=36.706185, lon.=137.750569, Alt.=2739.536457m. Speed=3.000000m/h.]]></desc>
</trkpt>
<trkpt lat="36.706206" lon="137.750618">
<ele>2738.032426</ele>
<time>2014-08-18T02:07:16Z</time>
<desc><![CDATA[lat.=36.706206, lon.=137.750618, Alt.=2738.032426m. Speed=3.000000m/h.]]></desc>
</trkpt>
<trkpt lat="36.706238" lon="137.750626">
<ele>2739.884238</ele>
<time>2014-08-18T02:07:21Z</time>
<desc><![CDATA[lat.=36.706238, lon.=137.750626, Alt.=2739.884238m. Speed=3.000000m/h.]]></desc>
</trkpt>
<trkpt lat="36.706286" lon="137.750635">
<ele>2741.201282</ele>
<time>2014-08-18T02:07:26Z</time>
<desc><![CDATA[lat.=36.706286, lon.=137.750635, Alt.=2741.201282m. Speed=4.000000m/h.]]></desc>
</trkpt>
<trkpt lat="36.706315" lon="137.750636">
<ele>2740.131743</ele>
<time>2014-08-18T02:07:31Z</time>
<desc><![CDATA[lat.=36.706315, lon.=137.750636, Alt.=2740.131743m. Speed=3.000000m/h.]]></desc>
</trkpt>
<trkpt lat="36.706353" lon="137.750623">
<ele>2737.875314</ele>
<time>2014-08-18T02:07:36Z</time>
<desc><![CDATA[lat.=36.706353, lon.=137.750623, Alt.=2737.875314m. Speed=3.000000m/h.]]></desc>
</trkpt>
<trkpt lat="36.706412" lon="137.750625">
<ele>2737.466442</ele>
<time>2014-08-18T02:07:41Z</time>
<desc><![CDATA[lat.=36.706412, lon.=137.750625, Alt.=2737.466442m. Speed=4.000000m/h.]]></desc>
</trkpt>
<trkpt lat="36.706448" lon="137.750642">
<ele>2738.779231</ele>
<time>2014-08-18T02:07:46Z</time>
<desc><![CDATA[lat.=36.706448, lon.=137.750642, Alt.=2738.779231m. Speed=4.000000m/h.]]></desc>
</trkpt>
<trkpt lat="36.706495" lon="137.750667">
<ele>2740.150704</ele>
<time>2014-08-18T02:07:51Z</time>
<desc><![CDATA[lat.=36.706495, lon.=137.750667, Alt.=2740.150704m. Speed=4.000000m/h.]]></desc>
</trkpt>
<trkpt lat="36.706539" lon="137.750684">
<ele>2740.331020</ele>
<time>2014-08-18T02:07:56Z</time>
<desc><![CDATA[lat.=36.706539, lon.=137.750684, Alt.=2740.331020m. Speed=4.000000m/h.]]></desc>
</trkpt>
<trkpt lat="36.706560" lon="137.750716">
<ele>2742.232992</ele>
<time>2014-08-18T02:08:01Z</time>
<desc><![CDATA[lat.=36.706560, lon.=137.750716, Alt.=2742.232992m. Speed=3.000000m/h.]]></desc>
</trkpt>
<trkpt lat="36.706596" lon="137.750732">
<ele>2743.545794</ele>
<time>2014-08-18T02:08:06Z</time>
<desc><![CDATA[lat.=36.706596, lon.=137.750732, Alt.=2743.545794m. Speed=3.000000m/h.]]></desc>
</trkpt>
<trkpt lat="36.706640" lon="137.750734">
<ele>2743.671709</ele>
<time>2014-08-18T02:08:11Z</time>
<desc><![CDATA[lat.=36.706640, lon.=137.750734, Alt.=2743.671709m. Speed=4.000000m/h.]]></desc>
</trkpt>
<trkpt lat="36.706684" lon="137.750735">
<ele>2743.797627</ele>
<time>2014-08-18T02:08:16Z</time>
<desc><![CDATA[lat.=36.706684, lon.=137.750735, Alt.=2743.797627m. Speed=4.000000m/h.]]></desc>
</trkpt>
<trkpt lat="36.706724" lon="137.750761">
<ele>2742.841210</ele>
<time>2014-08-18T02:08:21Z</time>
<desc><![CDATA[lat.=36.706724, lon.=137.750761, Alt.=2742.841210m. Speed=4.000000m/h.]]></desc>
</trkpt>
<trkpt lat="36.706776" lon="137.750763">
<ele>2741.834660</ele>
<time>2014-08-18T02:08:26Z</time>
<desc><![CDATA[lat.=36.706776, lon.=137.750763, Alt.=2741.834660m. Speed=4.000000m/h.]]></desc>
</trkpt>
<trkpt lat="36.706823" lon="137.750789">
<ele>2741.475971</ele>
<time>2014-08-18T02:08:31Z</time>
<desc><![CDATA[lat.=36.706823, lon.=137.750789, Alt.=2741.475971m. Speed=4.000000m/h.]]></desc>
</trkpt>
<trkpt lat="36.706875" lon="137.750807">
<ele>2740.523844</ele>
<time>2014-08-18T02:08:36Z</time>
<desc><![CDATA[lat.=36.706875, lon.=137.750807, Alt.=2740.523844m. Speed=4.000000m/h.]]></desc>
</trkpt>
<trkpt lat="36.706919" lon="137.750809">
<ele>2738.919588</ele>
<time>2014-08-18T02:08:41Z</time>
<desc><![CDATA[lat.=36.706919, lon.=137.750809, Alt.=2738.919588m. Speed=4.000000m/h.]]></desc>
</trkpt>
<trkpt lat="36.706982" lon="137.750803">
<ele>2739.647533</ele>
<time>2014-08-18T02:08:46Z</time>
<desc><![CDATA[lat.=36.706982, lon.=137.750803, Alt.=2739.647533m. Speed=4.000000m/h.]]></desc>
</trkpt>
<trkpt lat="36.707019" lon="137.750773">
<ele>2739.066934</ele>
<time>2014-08-18T02:08:51Z</time>
<desc><![CDATA[lat.=36.707019, lon.=137.750773, Alt.=2739.066934m. Speed=4.000000m/h.]]></desc>
</trkpt>
<trkpt lat="36.707067" lon="137.750767">
<ele>2738.599443</ele>
<time>2014-08-18T02:08:56Z</time>
<desc><![CDATA[lat.=36.707067, lon.=137.750767, Alt.=2738.599443m. Speed=4.000000m/h.]]></desc>
</trkpt>
<trkpt lat="36.707104" lon="137.750751">
<ele>2741.533653</ele>
<time>2014-08-18T02:09:01Z</time>
<desc><![CDATA[lat.=36.707104, lon.=137.750751, Alt.=2741.533653m. Speed=4.000000m/h.]]></desc>
</trkpt>
<trkpt lat="36.707141" lon="137.750736">
<ele>2742.737671</ele>
<time>2014-08-18T02:09:06Z</time>
<desc><![CDATA[lat.=36.707141, lon.=137.750736, Alt.=2742.737671m. Speed=3.000000m/h.]]></desc>
</trkpt>
<trkpt lat="36.707167" lon="137.750697">
<ele>2743.828585</ele>
<time>2014-08-18T02:09:11Z</time>
<desc><![CDATA[lat.=36.707167, lon.=137.750697, Alt.=2743.828585m. Speed=3.000000m/h.]]></desc>
</trkpt>
<trkpt lat="36.707193" lon="137.750658">
<ele>2744.919502</ele>
<time>2014-08-18T02:09:16Z</time>
<desc><![CDATA[lat.=36.707193, lon.=137.750658, Alt.=2744.919502m. Speed=3.000000m/h.]]></desc>
</trkpt>
<trkpt lat="36.707219" lon="137.750650">
<ele>2746.119241</ele>
<time>2014-08-18T02:09:21Z</time>
<desc><![CDATA[lat.=36.707219, lon.=137.750650, Alt.=2746.119241m. Speed=3.000000m/h.]]></desc>
</trkpt>
<trkpt lat="36.707223" lon="137.750643">
<ele>2745.525802</ele>
<time>2014-08-18T02:09:26Z</time>
<desc><![CDATA[lat.=36.707223, lon.=137.750643, Alt.=2745.525802m. Speed=3.000000m/h.]]></desc>
</trkpt>
<trkpt lat="36.707246" lon="137.750612">
<ele>2745.479968</ele>
<time>2014-08-18T02:09:31Z</time>
<desc><![CDATA[lat.=36.707246, lon.=137.750612, Alt.=2745.479968m. Speed=3.000000m/h.]]></desc>
</trkpt>
<trkpt lat="36.707257" lon="137.750622">
<ele>2742.078274</ele>
<time>2014-08-18T02:09:36Z</time>
<desc><![CDATA[lat.=36.707257, lon.=137.750622, Alt.=2742.078274m. Speed=2.000000m/h.]]></desc>
</trkpt>
<trkpt lat="36.707269" lon="137.750631">
<ele>2740.406775</ele>
<time>2014-08-18T02:09:41Z</time>
<desc><![CDATA[lat.=36.707269, lon.=137.750631, Alt.=2740.406775m. Speed=2.000000m/h.]]></desc>
</trkpt>
<trkpt lat="36.707284" lon="137.750616">
<ele>2739.817625</ele>
<time>2014-08-18T02:09:46Z</time>
<desc><![CDATA[lat.=36.707284, lon.=137.750616, Alt.=2739.817625m. Speed=1.000000m/h.]]></desc>
</trkpt>
<trkpt lat="36.707295" lon="137.750592">
<ele>2739.767506</ele>
<time>2014-08-18T02:09:51Z</time>
<desc><![CDATA[lat.=36.707295, lon.=137.750592, Alt.=2739.767506m. Speed=1.000000m/h.]]></desc>
</trkpt>
<trkpt lat="36.707313" lon="137.750601">
<ele>2740.423930</ele>
<time>2014-08-18T02:09:56Z</time>
<desc><![CDATA[lat.=36.707313, lon.=137.750601, Alt.=2740.423930m. Speed=1.000000m/h.]]></desc>
</trkpt>
<trkpt lat="36.707340" lon="137.750578">
<ele>2739.839072</ele>
<time>2014-08-18T02:10:01Z</time>
<desc><![CDATA[lat.=36.707340, lon.=137.750578, Alt.=2739.839072m. Speed=2.000000m/h.]]></desc>
</trkpt>
<trkpt lat="36.707361" lon="137.750578">
<ele>2741.632256</ele>
<time>2014-08-18T02:10:06Z</time>
<desc><![CDATA[lat.=36.707361, lon.=137.750578, Alt.=2741.632256m. Speed=2.000000m/h.]]></desc>
</trkpt>
<trkpt lat="36.707387" lon="137.750555">
<ele>2742.777597</ele>
<time>2014-08-18T02:10:11Z</time>
<desc><![CDATA[lat.=36.707387, lon.=137.750555, Alt.=2742.777597m. Speed=2.000000m/h.]]></desc>
</trkpt>
<trkpt lat="36.707402" lon="137.750571">
<ele>2742.297266</ele>
<time>2014-08-18T02:10:16Z</time>
<desc><![CDATA[lat.=36.707402, lon.=137.750571, Alt.=2742.297266m. Speed=2.000000m/h.]]></desc>
</trkpt>
<trkpt lat="36.707424" lon="137.750556">
<ele>2744.036045</ele>
<time>2014-08-18T02:10:21Z</time>
<desc><![CDATA[lat.=36.707424, lon.=137.750556, Alt.=2744.036045m. Speed=2.000000m/h.]]></desc>
</trkpt>
<trkpt lat="36.707443" lon="137.750532">
<ele>2744.583660</ele>
<time>2014-08-18T02:10:26Z</time>
<desc><![CDATA[lat.=36.707443, lon.=137.750532, Alt.=2744.583660m. Speed=2.000000m/h.]]></desc>
</trkpt>
<trkpt lat="36.707465" lon="137.750533">
<ele>2744.646653</ele>
<time>2014-08-18T02:10:31Z</time>
<desc><![CDATA[lat.=36.707465, lon.=137.750533, Alt.=2744.646653m. Speed=2.000000m/h.]]></desc>
</trkpt>
<trkpt lat="36.707494" lon="137.750518">
<ele>2745.252970</ele>
<time>2014-08-18T02:10:36Z</time>
<desc><![CDATA[lat.=36.707494, lon.=137.750518, Alt.=2745.252970m. Speed=2.000000m/h.]]></desc>
</trkpt>
<trkpt lat="36.707513" lon="137.750494">
<ele>2747.530784</ele>
<time>2014-08-18T02:10:41Z</time>
<desc><![CDATA[lat.=36.707513, lon.=137.750494, Alt.=2747.530784m. Speed=3.000000m/h.]]></desc>
</trkpt>
<trkpt lat="36.707546" lon="137.750487">
<ele>2747.598075</ele>
<time>2014-08-18T02:10:46Z</time>
<desc><![CDATA[lat.=36.707546, lon.=137.750487, Alt.=2747.598075m. Speed=3.000000m/h.]]></desc>
</trkpt>
<trkpt lat="36.707552" lon="137.750534">
<ele>2748.359025</ele>
<time>2014-08-18T02:10:51Z</time>
<desc><![CDATA[lat.=36.707552, lon.=137.750534, Alt.=2748.359025m. Speed=2.000000m/h.]]></desc>
</trkpt>
<trkpt lat="36.707578" lon="137.750510">
<ele>2751.234571</ele>
<time>2014-08-18T02:10:56Z</time>
<desc><![CDATA[lat.=36.707578, lon.=137.750510, Alt.=2751.234571m. Speed=2.000000m/h.]]></desc>
</trkpt>
<trkpt lat="36.707589" lon="137.750503">
<ele>2751.238867</ele>
<time>2014-08-18T02:11:01Z</time>
<desc><![CDATA[lat.=36.707589, lon.=137.750503, Alt.=2751.238867m. Speed=2.000000m/h.]]></desc>
</trkpt>
<trkpt lat="36.707600" lon="137.750512">
<ele>2749.567375</ele>
<time>2014-08-18T02:11:06Z</time>
<desc><![CDATA[lat.=36.707600, lon.=137.750512, Alt.=2749.567375m. Speed=2.000000m/h.]]></desc>
</trkpt>
<trkpt lat="36.707622" lon="137.750513">
<ele>2749.630375</ele>
<time>2014-08-18T02:11:11Z</time>
<desc><![CDATA[lat.=36.707622, lon.=137.750513, Alt.=2749.630375m. Speed=2.000000m/h.]]></desc>
</trkpt>
<trkpt lat="36.707640" lon="137.750504">
<ele>2751.962599</ele>
<time>2014-08-18T02:11:16Z</time>
<desc><![CDATA[lat.=36.707640, lon.=137.750504, Alt.=2751.962599m. Speed=2.000000m/h.]]></desc>
</trkpt>
<trkpt lat="36.707674" lon="137.750482">
<ele>2751.975493</ele>
<time>2014-08-18T02:11:21Z</time>
<desc><![CDATA[lat.=36.707674, lon.=137.750482, Alt.=2751.975493m. Speed=2.000000m/h.]]></desc>
</trkpt>
<trkpt lat="36.707715" lon="137.750460">
<ele>2750.855927</ele>
<time>2014-08-18T02:11:26Z</time>
<desc><![CDATA[lat.=36.707715, lon.=137.750460, Alt.=2750.855927m. Speed=3.000000m/h.]]></desc>
</trkpt>
<trkpt lat="36.707756" lon="137.750438">
<ele>2749.736365</ele>
<time>2014-08-18T02:11:31Z</time>
<desc><![CDATA[lat.=36.707756, lon.=137.750438, Alt.=2749.736365m. Speed=3.000000m/h.]]></desc>
</trkpt>
<trkpt lat="36.707775" lon="137.750431">
<ele>2750.338400</ele>
<time>2014-08-18T02:11:36Z</time>
<desc><![CDATA[lat.=36.707775, lon.=137.750431, Alt.=2750.338400m. Speed=3.000000m/h.]]></desc>
</trkpt>
<trkpt lat="36.707796" lon="137.750446">
<ele>2752.186007</ele>
<time>2014-08-18T02:11:41Z</time>
<desc><![CDATA[lat.=36.707796, lon.=137.750446, Alt.=2752.186007m. Speed=3.000000m/h.]]></desc>
</trkpt>
<trkpt lat="36.707829" lon="137.750439">
<ele>2753.983512</ele>
<time>2014-08-18T02:11:46Z</time>
<desc><![CDATA[lat.=36.707829, lon.=137.750439, Alt.=2753.983512m. Speed=3.000000m/h.]]></desc>
</trkpt>
<trkpt lat="36.707844" lon="137.750439">
<ele>2755.178982</ele>
<time>2014-08-18T02:11:51Z</time>
<desc><![CDATA[lat.=36.707844, lon.=137.750439, Alt.=2755.178982m. Speed=2.000000m/h.]]></desc>
</trkpt>
<trkpt lat="36.707862" lon="137.750416">
<ele>2755.726615</ele>
<time>2014-08-18T02:11:56Z</time>
<desc><![CDATA[lat.=36.707862, lon.=137.750416, Alt.=2755.726615m. Speed=2.000000m/h.]]></desc>
</trkpt>
<trkpt lat="36.707876" lon="137.750431">
<ele>2756.976490</ele>
<time>2014-08-18T02:12:01Z</time>
<desc><![CDATA[lat.=36.707876, lon.=137.750431, Alt.=2756.976490m. Speed=2.000000m/h.]]></desc>
</trkpt>
<trkpt lat="36.707873" lon="137.750391">
<ele>2759.136905</ele>
<time>2014-08-18T02:12:06Z</time>
<desc><![CDATA[lat.=36.707873, lon.=137.750391, Alt.=2759.136905m. Speed=1.000000m/h.]]></desc>
</trkpt>
<trkpt lat="36.707903" lon="137.750392">
<ele>2758.067457</ele>
<time>2014-08-18T02:12:11Z</time>
<desc><![CDATA[lat.=36.707903, lon.=137.750392, Alt.=2758.067457m. Speed=2.000000m/h.]]></desc>
</trkpt>
<trkpt lat="36.707944" lon="137.750386">
<ele>2757.002315</ele>
<time>2014-08-18T02:12:16Z</time>
<desc><![CDATA[lat.=36.707944, lon.=137.750386, Alt.=2757.002315m. Speed=3.000000m/h.]]></desc>
</trkpt>
<trkpt lat="36.707962" lon="137.750395">
<ele>2757.658761</ele>
<time>2014-08-18T02:12:21Z</time>
<desc><![CDATA[lat.=36.707962, lon.=137.750395, Alt.=2757.658761m. Speed=2.000000m/h.]]></desc>
</trkpt>
<trkpt lat="36.707954" lon="137.750394">
<ele>2758.791219</ele>
<time>2014-08-18T02:12:26Z</time>
<desc><![CDATA[lat.=36.707954, lon.=137.750394, Alt.=2758.791219m. Speed=0.000000m/h.]]></desc>
</trkpt>
<trkpt lat="36.707961" lon="137.750394">
<ele>2759.388956</ele>
<time>2014-08-18T02:12:31Z</time>
<desc><![CDATA[lat.=36.707961, lon.=137.750394, Alt.=2759.388956m. Speed=0.000000m/h.]]></desc>
</trkpt>
<trkpt lat="36.707961" lon="137.750393">
<ele>2761.119151</ele>
<time>2014-08-18T02:12:36Z</time>
<desc><![CDATA[lat.=36.707961, lon.=137.750393, Alt.=2761.119151m. Speed=0.000000m/h.]]></desc>
</trkpt>
<trkpt lat="36.707965" lon="137.750401">
<ele>2760.580123</ele>
<time>2014-08-18T02:12:41Z</time>
<desc><![CDATA[lat.=36.707965, lon.=137.750401, Alt.=2760.580123m. Speed=0.000000m/h.]]></desc>
</trkpt>
<trkpt lat="36.707964" lon="137.750401">
<ele>2762.310318</ele>
<time>2014-08-18T02:12:46Z</time>
<desc><![CDATA[lat.=36.707964, lon.=137.750401, Alt.=2762.310318m. Speed=0.000000m/h.]]></desc>
</trkpt>
<trkpt lat="36.707968" lon="137.750393">
<ele>2761.716887</ele>
<time>2014-08-18T02:12:52Z</time>
<desc><![CDATA[lat.=36.707968, lon.=137.750393, Alt.=2761.716887m. Speed=0.000000m/h.]]></desc>
</trkpt>
<trkpt lat="36.708005" lon="137.750394">
<ele>2762.975377</ele>
<time>2014-08-18T02:12:57Z</time>
<desc><![CDATA[lat.=36.708005, lon.=137.750394, Alt.=2762.975377m. Speed=2.000000m/h.]]></desc>
</trkpt>
<trkpt lat="36.708041" lon="137.750395">
<ele>2762.503674</ele>
<time>2014-08-18T02:13:02Z</time>
<desc><![CDATA[lat.=36.708041, lon.=137.750395, Alt.=2762.503674m. Speed=3.000000m/h.]]></desc>
</trkpt>
<trkpt lat="36.708071" lon="137.750397">
<ele>2761.434235</ele>
<time>2014-08-18T02:13:07Z</time>
<desc><![CDATA[lat.=36.708071, lon.=137.750397, Alt.=2761.434235m. Speed=3.000000m/h.]]></desc>
</trkpt>
<trkpt lat="36.708112" lon="137.750391">
<ele>2760.369107</ele>
<time>2014-08-18T02:13:12Z</time>
<desc><![CDATA[lat.=36.708112, lon.=137.750391, Alt.=2760.369107m. Speed=3.000000m/h.]]></desc>
</trkpt>
<trkpt lat="36.708160" lon="137.750385">
<ele>2759.901722</ele>
<time>2014-08-18T02:13:17Z</time>
<desc><![CDATA[lat.=36.708160, lon.=137.750385, Alt.=2759.901722m. Speed=4.000000m/h.]]></desc>
</trkpt>
<trkpt lat="36.708201" lon="137.750395">
<ele>2758.891004</ele>
<time>2014-08-18T02:13:22Z</time>
<desc><![CDATA[lat.=36.708201, lon.=137.750395, Alt.=2758.891004m. Speed=4.000000m/h.]]></desc>
</trkpt>
<trkpt lat="36.708252" lon="137.750397">
<ele>2757.884601</ele>
<time>2014-08-18T02:13:27Z</time>
<desc><![CDATA[lat.=36.708252, lon.=137.750397, Alt.=2757.884601m. Speed=4.000000m/h.]]></desc>
</trkpt>
<trkpt lat="36.708300" lon="137.750407">
<ele>2757.471632</ele>
<time>2014-08-18T02:13:32Z</time>
<desc><![CDATA[lat.=36.708300, lon.=137.750407, Alt.=2757.471632m. Speed=4.000000m/h.]]></desc>
</trkpt>
<trkpt lat="36.708343" lon="137.750423">
<ele>2759.382291</ele>
<time>2014-08-18T02:13:37Z</time>
<desc><![CDATA[lat.=36.708343, lon.=137.750423, Alt.=2759.382291m. Speed=4.000000m/h.]]></desc>
</trkpt>
<trkpt lat="36.708380" lon="137.750441">
<ele>2758.965016</ele>
<time>2014-08-18T02:13:42Z</time>
<desc><![CDATA[lat.=36.708380, lon.=137.750441, Alt.=2758.965016m. Speed=4.000000m/h.]]></desc>
</trkpt>
<trkpt lat="36.708390" lon="137.750448">
<ele>2760.753929</ele>
<time>2014-08-18T02:13:47Z</time>
<desc><![CDATA[lat.=36.708390, lon.=137.750448, Alt.=2760.753929m. Speed=3.000000m/h.]]></desc>
</trkpt>
<trkpt lat="36.708387" lon="137.750440">
<ele>2761.292953</ele>
<time>2014-08-18T02:13:52Z</time>
<desc><![CDATA[lat.=36.708387, lon.=137.750440, Alt.=2761.292953m. Speed=0.000000m/h.]]></desc>
</trkpt>
<trkpt lat="36.708409" lon="137.750441">
<ele>2761.355987</ele>
<time>2014-08-18T02:13:57Z</time>
<desc><![CDATA[lat.=36.708409, lon.=137.750441, Alt.=2761.355987m. Speed=2.000000m/h.]]></desc>
</trkpt>
<trkpt lat="36.708431" lon="137.750441">
<ele>2761.419021</ele>
<time>2014-08-18T02:14:02Z</time>
<desc><![CDATA[lat.=36.708431, lon.=137.750441, Alt.=2761.419021m. Speed=2.000000m/h.]]></desc>
</trkpt>
<trkpt lat="36.708430" lon="137.750473">
<ele>2761.527830</ele>
<time>2014-08-18T02:14:07Z</time>
<desc><![CDATA[lat.=36.708430, lon.=137.750473, Alt.=2761.527830m. Speed=2.000000m/h.]]></desc>
</trkpt>
<trkpt lat="36.708445" lon="137.750458">
<ele>2760.938717</ele>
<time>2014-08-18T02:14:12Z</time>
<desc><![CDATA[lat.=36.708445, lon.=137.750458, Alt.=2760.938717m. Speed=2.000000m/h.]]></desc>
</trkpt>
<trkpt lat="36.708463" lon="137.750482">
<ele>2761.649586</ele>
<time>2014-08-18T02:14:17Z</time>
<desc><![CDATA[lat.=36.708463, lon.=137.750482, Alt.=2761.649586m. Speed=2.000000m/h.]]></desc>
</trkpt>
<trkpt lat="36.708477" lon="137.750499">
<ele>2761.169284</ele>
<time>2014-08-18T02:14:22Z</time>
<desc><![CDATA[lat.=36.708477, lon.=137.750499, Alt.=2761.169284m. Speed=2.000000m/h.]]></desc>
</trkpt>
<trkpt lat="36.708507" lon="137.750484">
<ele>2761.775660</ele>
<time>2014-08-18T02:14:27Z</time>
<desc><![CDATA[lat.=36.708507, lon.=137.750484, Alt.=2761.775660m. Speed=2.000000m/h.]]></desc>
</trkpt>
<trkpt lat="36.708547" lon="137.750493">
<ele>2762.495165</ele>
<time>2014-08-18T02:14:32Z</time>
<desc><![CDATA[lat.=36.708547, lon.=137.750493, Alt.=2762.495165m. Speed=2.000000m/h.]]></desc>
</trkpt>
<trkpt lat="36.708536" lon="137.750516">
<ele>2762.545253</ele>
<time>2014-08-18T02:14:37Z</time>
<desc><![CDATA[lat.=36.708536, lon.=137.750516, Alt.=2762.545253m. Speed=2.000000m/h.]]></desc>
</trkpt>
<trkpt lat="36.708554" lon="137.750524">
<ele>2763.201721</ele>
<time>2014-08-18T02:14:42Z</time>
<desc><![CDATA[lat.=36.708554, lon.=137.750524, Alt.=2763.201721m. Speed=2.000000m/h.]]></desc>
</trkpt>
<trkpt lat="36.708561" lon="137.750524">
<ele>2763.799466</ele>
<time>2014-08-18T02:14:47Z</time>
<desc><![CDATA[lat.=36.708561, lon.=137.750524, Alt.=2763.799466m. Speed=1.000000m/h.]]></desc>
</trkpt>
<trkpt lat="36.708556" lon="137.750531">
<ele>2766.123088</ele>
<time>2014-08-18T02:14:52Z</time>
<desc><![CDATA[lat.=36.708556, lon.=137.750531, Alt.=2766.123088m. Speed=1.000000m/h.]]></desc>
</trkpt>
<trkpt lat="36.708563" lon="137.750513">
<ele>2771.857011</ele>
<time>2014-08-18T02:14:57Z</time>
<desc><![CDATA[lat.=36.708563, lon.=137.750513, Alt.=2771.857011m. Speed=1.000000m/h.]]></desc>
</trkpt>
<trkpt lat="36.708574" lon="137.750521">
<ele>2771.915734</ele>
<time>2014-08-18T02:15:02Z</time>
<desc><![CDATA[lat.=36.708574, lon.=137.750521, Alt.=2771.915734m. Speed=0.000000m/h.]]></desc>
</trkpt>
<trkpt lat="36.708591" lon="137.750529">
<ele>2774.302397</ele>
<time>2014-08-18T02:15:07Z</time>
<desc><![CDATA[lat.=36.708591, lon.=137.750529, Alt.=2774.302397m. Speed=0.000000m/h.]]></desc>
</trkpt>
<trkpt lat="36.708595" lon="137.750554">
<ele>2772.087587</ele>
<time>2014-08-18T02:15:12Z</time>
<desc><![CDATA[lat.=36.708595, lon.=137.750554, Alt.=2772.087587m. Speed=0.000000m/h.]]></desc>
</trkpt>
<trkpt lat="36.708595" lon="137.750570">
<ele>2770.411799</ele>
<time>2014-08-18T02:15:17Z</time>
<desc><![CDATA[lat.=36.708595, lon.=137.750570, Alt.=2770.411799m. Speed=0.000000m/h.]]></desc>
</trkpt>
<trkpt lat="36.708599" lon="137.750579">
<ele>2768.142584</ele>
<time>2014-08-18T02:15:22Z</time>
<desc><![CDATA[lat.=36.708599, lon.=137.750579, Alt.=2768.142584m. Speed=0.000000m/h.]]></desc>
</trkpt>
<trkpt lat="36.708595" lon="137.750587">
<ele>2767.005817</ele>
<time>2014-08-18T02:15:27Z</time>
<desc><![CDATA[lat.=36.708595, lon.=137.750587, Alt.=2767.005817m. Speed=0.000000m/h.]]></desc>
</trkpt>
<trkpt lat="36.708592" lon="137.750579">
<ele>2767.544838</ele>
<time>2014-08-18T02:15:32Z</time>
<desc><![CDATA[lat.=36.708592, lon.=137.750579, Alt.=2767.544838m. Speed=0.000000m/h.]]></desc>
</trkpt>
<trkpt lat="36.708588" lon="137.750571">
<ele>2768.083860</ele>
<time>2014-08-18T02:15:39Z</time>
<desc><![CDATA[lat.=36.708588, lon.=137.750571, Alt.=2768.083860m. Speed=0.000000m/h.]]></desc>
</trkpt>
<trkpt lat="36.708595" lon="137.750571">
<ele>2768.681605</ele>
<time>2014-08-18T02:15:50Z</time>
<desc><![CDATA[lat.=36.708595, lon.=137.750571, Alt.=2768.681605m. Speed=0.000000m/h.]]></desc>
</trkpt>
<trkpt lat="36.708588" lon="137.750570">
<ele>2769.814054</ele>
<time>2014-08-18T02:15:55Z</time>
<desc><![CDATA[lat.=36.708588, lon.=137.750570, Alt.=2769.814054m. Speed=0.000000m/h.]]></desc>
</trkpt>
<trkpt lat="36.708591" lon="137.750578">
<ele>2769.275033</ele>
<time>2014-08-18T02:16:05Z</time>
<desc><![CDATA[lat.=36.708591, lon.=137.750578, Alt.=2769.275033m. Speed=0.000000m/h.]]></desc>
</trkpt>
<trkpt lat="36.708602" lon="137.750587">
<ele>2769.333757</ele>
<time>2014-08-18T02:16:28Z</time>
<desc><![CDATA[lat.=36.708602, lon.=137.750587, Alt.=2769.333757m. Speed=2.000000m/h.]]></desc>
</trkpt>
<trkpt lat="36.708610" lon="137.750587">
<ele>2769.931503</ele>
<time>2014-08-18T02:16:33Z</time>
<desc><![CDATA[lat.=36.708610, lon.=137.750587, Alt.=2769.931503m. Speed=0.000000m/h.]]></desc>
</trkpt>
<trkpt lat="36.708606" lon="137.750594">
<ele>2770.524931</ele>
<time>2014-08-18T02:16:38Z</time>
<desc><![CDATA[lat.=36.708606, lon.=137.750594, Alt.=2770.524931m. Speed=0.000000m/h.]]></desc>
</trkpt>
<trkpt lat="36.708610" lon="137.750587">
<ele>2769.931503</ele>
<time>2014-08-18T02:16:45Z</time>
<desc><![CDATA[lat.=36.708610, lon.=137.750587, Alt.=2769.931503m. Speed=0.000000m/h.]]></desc>
</trkpt>
<trkpt lat="36.708617" lon="137.750587">
<ele>2770.529249</ele>
<time>2014-08-18T02:17:13Z</time>
<desc><![CDATA[lat.=36.708617, lon.=137.750587, Alt.=2770.529249m. Speed=0.000000m/h.]]></desc>
</trkpt>
<trkpt lat="36.708613" lon="137.750578">
<ele>2771.068269</ele>
<time>2014-08-18T02:17:18Z</time>
<desc><![CDATA[lat.=36.708613, lon.=137.750578, Alt.=2771.068269m. Speed=1.000000m/h.]]></desc>
</trkpt>
<trkpt lat="36.708642" lon="137.750579">
<ele>2771.729059</ele>
<time>2014-08-18T02:17:23Z</time>
<desc><![CDATA[lat.=36.708642, lon.=137.750579, Alt.=2771.729059m. Speed=2.000000m/h.]]></desc>
</trkpt>
<trkpt lat="36.708664" lon="137.750579">
<ele>2773.522297</ele>
<time>2014-08-18T02:17:28Z</time>
<desc><![CDATA[lat.=36.708664, lon.=137.750579, Alt.=2773.522297m. Speed=2.000000m/h.]]></desc>
</trkpt>
<trkpt lat="36.708686" lon="137.750596">
<ele>2773.639750</ele>
<time>2014-08-18T02:17:33Z</time>
<desc><![CDATA[lat.=36.708686, lon.=137.750596, Alt.=2773.639750m. Speed=1.000000m/h.]]></desc>
</trkpt>
<trkpt lat="36.708704" lon="137.750588">
<ele>2774.241816</ele>
<time>2014-08-18T02:17:38Z</time>
<desc><![CDATA[lat.=36.708704, lon.=137.750588, Alt.=2774.241816m. Speed=2.000000m/h.]]></desc>
</trkpt>
<trkpt lat="36.708719" lon="137.750573">
<ele>2773.652709</ele>
<time>2014-08-18T02:17:43Z</time>
<desc><![CDATA[lat.=36.708719, lon.=137.750573, Alt.=2773.652709m. Speed=1.000000m/h.]]></desc>
</trkpt>
<trkpt lat="36.708753" lon="137.750599">
<ele>2770.368502</ele>
<time>2014-08-18T02:17:48Z</time>
<desc><![CDATA[lat.=36.708753, lon.=137.750599, Alt.=2770.368502m. Speed=2.000000m/h.]]></desc>
</trkpt>
<trkpt lat="36.708767" lon="137.750615">
<ele>2771.618405</ele>
<time>2014-08-18T02:17:53Z</time>
<desc><![CDATA[lat.=36.708767, lon.=137.750615, Alt.=2771.618405m. Speed=2.000000m/h.]]></desc>
</trkpt>
<trkpt lat="36.708784" lon="137.750639">
<ele>2772.329290</ele>
<time>2014-08-18T02:17:58Z</time>
<desc><![CDATA[lat.=36.708784, lon.=137.750639, Alt.=2772.329290m. Speed=2.000000m/h.]]></desc>
</trkpt>
<trkpt lat="36.708806" lon="137.750655">
<ele>2774.176942</ele>
<time>2014-08-18T02:18:03Z</time>
<desc><![CDATA[lat.=36.708806, lon.=137.750655, Alt.=2774.176942m. Speed=2.000000m/h.]]></desc>
</trkpt>
<trkpt lat="36.708817" lon="137.750648">
<ele>2774.181264</ele>
<time>2014-08-18T02:18:08Z</time>
<desc><![CDATA[lat.=36.708817, lon.=137.750648, Alt.=2774.181264m. Speed=1.000000m/h.]]></desc>
</trkpt>
<trkpt lat="36.708806" lon="137.750623">
<ele>2775.798321</ele>
<time>2014-08-18T02:18:13Z</time>
<desc><![CDATA[lat.=36.708806, lon.=137.750623, Alt.=2775.798321m. Speed=0.000000m/h.]]></desc>
</trkpt>
<trkpt lat="36.708814" lon="137.750607">
<ele>2776.341662</ele>
<time>2014-08-18T02:18:18Z</time>
<desc><![CDATA[lat.=36.708814, lon.=137.750607, Alt.=2776.341662m. Speed=1.000000m/h.]]></desc>
</trkpt>
<trkpt lat="36.708847" lon="137.750616">
<ele>2776.463443</ele>
<time>2014-08-18T02:18:23Z</time>
<desc><![CDATA[lat.=36.708847, lon.=137.750616, Alt.=2776.463443m. Speed=2.000000m/h.]]></desc>
</trkpt>
<trkpt lat="36.708875" lon="137.750633">
<ele>2777.178653</ele>
<time>2014-08-18T02:18:28Z</time>
<desc><![CDATA[lat.=36.708875, lon.=137.750633, Alt.=2777.178653m. Speed=2.000000m/h.]]></desc>
</trkpt>
<trkpt lat="36.708886" lon="137.750641">
<ele>2777.237384</ele>
<time>2014-08-18T02:18:33Z</time>
<desc><![CDATA[lat.=36.708886, lon.=137.750641, Alt.=2777.237384m. Speed=0.000000m/h.]]></desc>
</trkpt>
<trkpt lat="36.708909" lon="137.750642">
<ele>2775.570245</ele>
<time>2014-08-18T02:18:38Z</time>
<desc><![CDATA[lat.=36.708909, lon.=137.750642, Alt.=2775.570245m. Speed=2.000000m/h.]]></desc>
</trkpt>
<trkpt lat="36.708938" lon="137.750643">
<ele>2776.231051</ele>
<time>2014-08-18T02:18:43Z</time>
<desc><![CDATA[lat.=36.708938, lon.=137.750643, Alt.=2776.231051m. Speed=2.000000m/h.]]></desc>
</trkpt>
<trkpt lat="36.708952" lon="137.750658">
<ele>2779.211153</ele>
<time>2014-08-18T02:18:48Z</time>
<desc><![CDATA[lat.=36.708952, lon.=137.750658, Alt.=2779.211153m. Speed=2.000000m/h.]]></desc>
</trkpt>
<trkpt lat="36.708936" lon="137.750672">
<ele>2781.530449</ele>
<time>2014-08-18T02:18:53Z</time>
<desc><![CDATA[lat.=36.708936, lon.=137.750672, Alt.=2781.530449m. Speed=1.000000m/h.]]></desc>
</trkpt>
<trkpt lat="36.708951" lon="137.750689">
<ele>2781.050165</ele>
<time>2014-08-18T02:18:58Z</time>
<desc><![CDATA[lat.=36.708951, lon.=137.750689, Alt.=2781.050165m. Speed=1.000000m/h.]]></desc>
</trkpt>
<trkpt lat="36.708957" lon="137.750705">
<ele>2781.702324</ele>
<time>2014-08-18T02:19:03Z</time>
<desc><![CDATA[lat.=36.708957, lon.=137.750705, Alt.=2781.702324m. Speed=1.000000m/h.]]></desc>
</trkpt>
<trkpt lat="36.708972" lon="137.750705">
<ele>2782.897825</ele>
<time>2014-08-18T02:19:08Z</time>
<desc><![CDATA[lat.=36.708972, lon.=137.750705, Alt.=2782.897825m. Speed=1.000000m/h.]]></desc>
</trkpt>
<trkpt lat="36.708979" lon="137.750721">
<ele>2783.549985</ele>
<time>2014-08-18T02:19:13Z</time>
<desc><![CDATA[lat.=36.708979, lon.=137.750721, Alt.=2783.549985m. Speed=1.000000m/h.]]></desc>
</trkpt>
<trkpt lat="36.708986" lon="137.750721">
<ele>2782.417542</ele>
<time>2014-08-18T02:19:20Z</time>
<desc><![CDATA[lat.=36.708986, lon.=137.750721, Alt.=2782.417542m. Speed=1.000000m/h.]]></desc>
</trkpt>
<trkpt lat="36.709008" lon="137.750721">
<ele>2784.210795</ele>
<time>2014-08-18T02:19:25Z</time>
<desc><![CDATA[lat.=36.709008, lon.=137.750721, Alt.=2784.210795m. Speed=1.000000m/h.]]></desc>
</trkpt>
<trkpt lat="36.709008" lon="137.750737">
<ele>2784.265205</ele>
<time>2014-08-18T02:19:30Z</time>
<desc><![CDATA[lat.=36.709008, lon.=137.750737, Alt.=2784.265205m. Speed=1.000000m/h.]]></desc>
</trkpt>
<trkpt lat="36.709022" lon="137.750753">
<ele>2785.515117</ele>
<time>2014-08-18T02:19:35Z</time>
<desc><![CDATA[lat.=36.709022, lon.=137.750753, Alt.=2785.515117m. Speed=1.000000m/h.]]></desc>
</trkpt>
<trkpt lat="36.709033" lon="137.750746">
<ele>2785.519442</ele>
<time>2014-08-18T02:19:40Z</time>
<desc><![CDATA[lat.=36.709033, lon.=137.750746, Alt.=2785.519442m. Speed=1.000000m/h.]]></desc>
</trkpt>
<trkpt lat="36.709040" lon="137.750761">
<ele>2786.171604</ele>
<time>2014-08-18T02:19:45Z</time>
<desc><![CDATA[lat.=36.709040, lon.=137.750761, Alt.=2786.171604m. Speed=1.000000m/h.]]></desc>
</trkpt>
<trkpt lat="36.709051" lon="137.750770">
<ele>2786.230340</ele>
<time>2014-08-18T02:19:50Z</time>
<desc><![CDATA[lat.=36.709051, lon.=137.750770, Alt.=2786.230340m. Speed=0.000000m/h.]]></desc>
</trkpt>
<trkpt lat="36.709062" lon="137.750762">
<ele>2786.234666</ele>
<time>2014-08-18T02:19:55Z</time>
<desc><![CDATA[lat.=36.709062, lon.=137.750762, Alt.=2786.234666m. Speed=1.000000m/h.]]></desc>
</trkpt>
<trkpt lat="36.709073" lon="137.750755">
<ele>2786.238992</ele>
<time>2014-08-18T02:20:00Z</time>
<desc><![CDATA[lat.=36.709073, lon.=137.750755, Alt.=2786.238992m. Speed=2.000000m/h.]]></desc>
</trkpt>
<trkpt lat="36.709088" lon="137.750771">
<ele>2785.758712</ele>
<time>2014-08-18T02:20:05Z</time>
<desc><![CDATA[lat.=36.709088, lon.=137.750771, Alt.=2785.758712m. Speed=1.000000m/h.]]></desc>
</trkpt>
<trkpt lat="36.709110" lon="137.750772">
<ele>2785.821776</ele>
<time>2014-08-18T02:20:10Z</time>
<desc><![CDATA[lat.=36.709110, lon.=137.750772, Alt.=2785.821776m. Speed=1.000000m/h.]]></desc>
</trkpt>
<trkpt lat="36.709113" lon="137.750796">
<ele>2785.337171</ele>
<time>2014-08-18T02:20:15Z</time>
<desc><![CDATA[lat.=36.709113, lon.=137.750796, Alt.=2785.337171m. Speed=1.000000m/h.]]></desc>
</trkpt>
<trkpt lat="36.709116" lon="137.750803">
<ele>2786.528350</ele>
<time>2014-08-18T02:20:20Z</time>
<desc><![CDATA[lat.=36.709116, lon.=137.750803, Alt.=2786.528350m. Speed=1.000000m/h.]]></desc>
</trkpt>
<trkpt lat="36.709116" lon="137.750820">
<ele>2784.852567</ele>
<time>2014-08-18T02:20:25Z</time>
<desc><![CDATA[lat.=36.709116, lon.=137.750820, Alt.=2784.852567m. Speed=0.000000m/h.]]></desc>
</trkpt>
<trkpt lat="36.709127" lon="137.750813">
<ele>2784.856894</ele>
<time>2014-08-18T02:20:30Z</time>
<desc><![CDATA[lat.=36.709127, lon.=137.750813, Alt.=2784.856894m. Speed=1.000000m/h.]]></desc>
</trkpt>
<trkpt lat="36.709138" lon="137.750805">
<ele>2784.861221</ele>
<time>2014-08-18T02:20:35Z</time>
<desc><![CDATA[lat.=36.709138, lon.=137.750805, Alt.=2784.861221m. Speed=0.000000m/h.]]></desc>
</trkpt>
<trkpt lat="36.709153" lon="137.750805">
<ele>2786.056727</ele>
<time>2014-08-18T02:20:40Z</time>
<desc><![CDATA[lat.=36.709153, lon.=137.750805, Alt.=2786.056727m. Speed=1.000000m/h.]]></desc>
</trkpt>
<trkpt lat="36.709171" lon="137.750797">
<ele>2788.389002</ele>
<time>2014-08-18T02:20:45Z</time>
<desc><![CDATA[lat.=36.709171, lon.=137.750797, Alt.=2788.389002m. Speed=1.000000m/h.]]></desc>
</trkpt>
<trkpt lat="36.709159" lon="137.750803">
<ele>2791.845062</ele>
<time>2014-08-18T02:20:50Z</time>
<desc><![CDATA[lat.=36.709159, lon.=137.750803, Alt.=2791.845062m. Speed=1.000000m/h.]]></desc>
</trkpt>
<trkpt lat="36.709177" lon="137.750811">
<ele>2792.501554</ele>
<time>2014-08-18T02:20:55Z</time>
<desc><![CDATA[lat.=36.709177, lon.=137.750811, Alt.=2792.501554m. Speed=1.000000m/h.]]></desc>
</trkpt>
<trkpt lat="36.709181" lon="137.750819">
<ele>2791.962539</ele>
<time>2014-08-18T02:21:00Z</time>
<desc><![CDATA[lat.=36.709181, lon.=137.750819, Alt.=2791.962539m. Speed=1.000000m/h.]]></desc>
</trkpt>
<trkpt lat="36.709207" lon="137.750813">
<ele>2791.432181</ele>
<time>2014-08-18T02:21:05Z</time>
<desc><![CDATA[lat.=36.709207, lon.=137.750813, Alt.=2791.432181m. Speed=1.000000m/h.]]></desc>
</trkpt>
<trkpt lat="36.709229" lon="137.750797">
<ele>2791.440839</ele>
<time>2014-08-18T02:21:10Z</time>
<desc><![CDATA[lat.=36.709229, lon.=137.750797, Alt.=2791.440839m. Speed=2.000000m/h.]]></desc>
</trkpt>
<trkpt lat="36.709240" lon="137.750807">
<ele>2789.769386</ele>
<time>2014-08-18T02:21:15Z</time>
<desc><![CDATA[lat.=36.709240, lon.=137.750807, Alt.=2789.769386m. Speed=2.000000m/h.]]></desc>
</trkpt>
<trkpt lat="36.709262" lon="137.750807">
<ele>2791.562649</ele>
<time>2014-08-18T02:21:20Z</time>
<desc><![CDATA[lat.=36.709262, lon.=137.750807, Alt.=2791.562649m. Speed=1.000000m/h.]]></desc>
</trkpt>
<trkpt lat="36.709265" lon="137.750830">
<ele>2792.808240</ele>
<time>2014-08-18T02:21:25Z</time>
<desc><![CDATA[lat.=36.709265, lon.=137.750830, Alt.=2792.808240m. Speed=0.000000m/h.]]></desc>
</trkpt>
<trkpt lat="36.709268" lon="137.750822">
<ele>2793.945009</ele>
<time>2014-08-18T02:21:31Z</time>
<desc><![CDATA[lat.=36.709268, lon.=137.750822, Alt.=2793.945009m. Speed=0.000000m/h.]]></desc>
</trkpt>
<trkpt lat="36.709272" lon="137.750814">
<ele>2793.351584</ele>
<time>2014-08-18T02:21:37Z</time>
<desc><![CDATA[lat.=36.709272, lon.=137.750814, Alt.=2793.351584m. Speed=1.000000m/h.]]></desc>
</trkpt>
<trkpt lat="36.709284" lon="137.750807">
<ele>2793.355914</ele>
<time>2014-08-18T02:21:42Z</time>
<desc><![CDATA[lat.=36.709284, lon.=137.750807, Alt.=2793.355914m. Speed=2.000000m/h.]]></desc>
</trkpt>
<trkpt lat="36.709328" lon="137.750808">
<ele>2793.482059</ele>
<time>2014-08-18T02:21:47Z</time>
<desc><![CDATA[lat.=36.709328, lon.=137.750808, Alt.=2793.482059m. Speed=3.000000m/h.]]></desc>
</trkpt>
<trkpt lat="36.709342" lon="137.750808">
<ele>2794.677570</ele>
<time>2014-08-18T02:21:52Z</time>
<desc><![CDATA[lat.=36.709342, lon.=137.750808, Alt.=2794.677570m. Speed=2.000000m/h.]]></desc>
</trkpt>
<trkpt lat="36.709342" lon="137.750824">
<ele>2794.731981</ele>
<time>2014-08-18T02:21:57Z</time>
<desc><![CDATA[lat.=36.709342, lon.=137.750824, Alt.=2794.731981m. Speed=0.000000m/h.]]></desc>
</trkpt>
<trkpt lat="36.709339" lon="137.750816">
<ele>2793.540801</ele>
<time>2014-08-18T02:22:02Z</time>
<desc><![CDATA[lat.=36.709339, lon.=137.750816, Alt.=2793.540801m. Speed=0.000000m/h.]]></desc>
</trkpt>
<trkpt lat="36.709335" lon="137.750809">
<ele>2792.349621</ele>
<time>2014-08-18T02:22:07Z</time>
<desc><![CDATA[lat.=36.709335, lon.=137.750809, Alt.=2792.349621m. Speed=0.000000m/h.]]></desc>
</trkpt>
<trkpt lat="36.709343" lon="137.750809">
<ele>2792.947377</ele>
<time>2014-08-18T02:22:12Z</time>
<desc><![CDATA[lat.=36.709343, lon.=137.750809, Alt.=2792.947377m. Speed=0.000000m/h.]]></desc>
</trkpt>
<trkpt lat="36.709350" lon="137.750809">
<ele>2793.545133</ele>
<time>2014-08-18T02:22:21Z</time>
<desc><![CDATA[lat.=36.709350, lon.=137.750809, Alt.=2793.545133m. Speed=0.000000m/h.]]></desc>
</trkpt>
<trkpt lat="36.709369" lon="137.750802">
<ele>2792.417027</ele>
<time>2014-08-18T02:22:26Z</time>
<desc><![CDATA[lat.=36.709369, lon.=137.750802, Alt.=2792.417027m. Speed=2.000000m/h.]]></desc>
</trkpt>
<trkpt lat="36.709392" lon="137.750772">
<ele>2790.641088</ele>
<time>2014-08-18T02:22:31Z</time>
<desc><![CDATA[lat.=36.709392, lon.=137.750772, Alt.=2790.641088m. Speed=2.000000m/h.]]></desc>
</trkpt>
<trkpt lat="36.709418" lon="137.750765">
<ele>2790.110741</ele>
<time>2014-08-18T02:22:36Z</time>
<desc><![CDATA[lat.=36.709418, lon.=137.750765, Alt.=2790.110741m. Speed=2.000000m/h.]]></desc>
</trkpt>
<trkpt lat="36.709447" lon="137.750782">
<ele>2789.095793</ele>
<time>2014-08-18T02:22:41Z</time>
<desc><![CDATA[lat.=36.709447, lon.=137.750782, Alt.=2789.095793m. Speed=2.000000m/h.]]></desc>
</trkpt>
<trkpt lat="36.709477" lon="137.750801">
<ele>2786.350653</ele>
<time>2014-08-18T02:22:46Z</time>
<desc><![CDATA[lat.=36.709477, lon.=137.750801, Alt.=2786.350653m. Speed=2.000000m/h.]]></desc>
</trkpt>
<trkpt lat="36.709510" lon="137.750793">
<ele>2788.148262</ele>
<time>2014-08-18T02:22:51Z</time>
<desc><![CDATA[lat.=36.709510, lon.=137.750793, Alt.=2788.148262m. Speed=3.000000m/h.]]></desc>
</trkpt>
<trkpt lat="36.709539" lon="137.750810">
<ele>2787.133319</ele>
<time>2014-08-18T02:22:56Z</time>
<desc><![CDATA[lat.=36.709539, lon.=137.750810, Alt.=2787.133319m. Speed=3.000000m/h.]]></desc>
</trkpt>
<trkpt lat="36.709575" lon="137.750827">
<ele>2788.446331</ele>
<time>2014-08-18T02:23:01Z</time>
<desc><![CDATA[lat.=36.709575, lon.=137.750827, Alt.=2788.446331m. Speed=3.000000m/h.]]></desc>
</trkpt>
<trkpt lat="36.709620" lon="137.750829">
<ele>2786.842307</ele>
<time>2014-08-18T02:23:06Z</time>
<desc><![CDATA[lat.=36.709620, lon.=137.750829, Alt.=2786.842307m. Speed=3.000000m/h.]]></desc>
</trkpt>
<trkpt lat="36.709616" lon="137.750837">
<ele>2787.435730</ele>
<time>2014-08-18T02:23:12Z</time>
<desc><![CDATA[lat.=36.709616, lon.=137.750837, Alt.=2787.435730m. Speed=1.000000m/h.]]></desc>
</trkpt>
<trkpt lat="36.709640" lon="137.750861">
<ele>2788.744410</ele>
<time>2014-08-18T02:23:17Z</time>
<desc><![CDATA[lat.=36.709640, lon.=137.750861, Alt.=2788.744410m. Speed=2.000000m/h.]]></desc>
</trkpt>
<trkpt lat="36.709685" lon="137.750862">
<ele>2788.870585</ele>
<time>2014-08-18T02:23:22Z</time>
<desc><![CDATA[lat.=36.709685, lon.=137.750862, Alt.=2788.870585m. Speed=3.000000m/h.]]></desc>
</trkpt>
<trkpt lat="36.709717" lon="137.750871">
<ele>2788.992425</ele>
<time>2014-08-18T02:23:27Z</time>
<desc><![CDATA[lat.=36.709717, lon.=137.750871, Alt.=2788.992425m. Speed=3.000000m/h.]]></desc>
</trkpt>
<trkpt lat="36.709725" lon="137.750871">
<ele>2789.590186</ele>
<time>2014-08-18T02:23:32Z</time>
<desc><![CDATA[lat.=36.709725, lon.=137.750871, Alt.=2789.590186m. Speed=0.000000m/h.]]></desc>
</trkpt>
<trkpt lat="36.709721" lon="137.750864">
<ele>2788.399003</ele>
<time>2014-08-18T02:23:37Z</time>
<desc><![CDATA[lat.=36.709721, lon.=137.750864, Alt.=2788.399003m. Speed=0.000000m/h.]]></desc>
</trkpt>
<trkpt lat="36.709718" lon="137.750872">
<ele>2787.262232</ele>
<time>2014-08-18T02:23:42Z</time>
<desc><![CDATA[lat.=36.709718, lon.=137.750872, Alt.=2787.262232m. Speed=0.000000m/h.]]></desc>
</trkpt>
<trkpt lat="36.709714" lon="137.750864">
<ele>2787.801242</ele>
<time>2014-08-18T02:23:47Z</time>
<desc><![CDATA[lat.=36.709714, lon.=137.750864, Alt.=2787.801242m. Speed=0.000000m/h.]]></desc>
</trkpt>
<trkpt lat="36.709718" lon="137.750872">
<ele>2787.262232</ele>
<time>2014-08-18T02:23:52Z</time>
<desc><![CDATA[lat.=36.709718, lon.=137.750872, Alt.=2787.262232m. Speed=0.000000m/h.]]></desc>
</trkpt>
<trkpt lat="36.709740" lon="137.750873">
<ele>2787.325322</ele>
<time>2014-08-18T02:23:57Z</time>
<desc><![CDATA[lat.=36.709740, lon.=137.750873, Alt.=2787.325322m. Speed=2.000000m/h.]]></desc>
</trkpt>
<trkpt lat="36.709768" lon="137.750905">
<ele>2788.095000</ele>
<time>2014-08-18T02:24:02Z</time>
<desc><![CDATA[lat.=36.709768, lon.=137.750905, Alt.=2788.095000m. Speed=3.000000m/h.]]></desc>
</trkpt>
<trkpt lat="36.709819" lon="137.750923">
<ele>2788.873362</ele>
<time>2014-08-18T02:24:07Z</time>
<desc><![CDATA[lat.=36.709819, lon.=137.750923, Alt.=2788.873362m. Speed=3.000000m/h.]]></desc>
</trkpt>
<trkpt lat="36.709837" lon="137.750947">
<ele>2789.584291</ele>
<time>2014-08-18T02:24:12Z</time>
<desc><![CDATA[lat.=36.709837, lon.=137.750947, Alt.=2789.584291m. Speed=3.000000m/h.]]></desc>
</trkpt>
<trkpt lat="36.709877" lon="137.750956">
<ele>2790.303905</ele>
<time>2014-08-18T02:24:17Z</time>
<desc><![CDATA[lat.=36.709877, lon.=137.750956, Alt.=2790.303905m. Speed=3.000000m/h.]]></desc>
</trkpt>
<trkpt lat="36.709906" lon="137.750973">
<ele>2789.288987</ele>
<time>2014-08-18T02:24:22Z</time>
<desc><![CDATA[lat.=36.709906, lon.=137.750973, Alt.=2789.288987m. Speed=3.000000m/h.]]></desc>
</trkpt>
<trkpt lat="36.709947" lon="137.750982">
<ele>2790.008606</ele>
<time>2014-08-18T02:24:27Z</time>
<desc><![CDATA[lat.=36.709947, lon.=137.750982, Alt.=2790.008606m. Speed=3.000000m/h.]]></desc>
</trkpt>
<trkpt lat="36.709983" lon="137.750983">
<ele>2791.267236</ele>
<time>2014-08-18T02:24:32Z</time>
<desc><![CDATA[lat.=36.709983, lon.=137.750983, Alt.=2791.267236m. Speed=3.000000m/h.]]></desc>
</trkpt>
<trkpt lat="36.710020" lon="137.750984">
<ele>2790.795676</ele>
<time>2014-08-18T02:24:37Z</time>
<desc><![CDATA[lat.=36.710020, lon.=137.750984, Alt.=2790.795676m. Speed=3.000000m/h.]]></desc>
</trkpt>
<trkpt lat="36.710039" lon="137.750978">
<ele>2789.667593</ele>
<time>2014-08-18T02:24:42Z</time>
<desc><![CDATA[lat.=36.710039, lon.=137.750978, Alt.=2789.667593m. Speed=2.000000m/h.]]></desc>
</trkpt>
<trkpt lat="36.710072" lon="137.750971">
<ele>2789.735043</ele>
<time>2014-08-18T02:24:47Z</time>
<desc><![CDATA[lat.=36.710072, lon.=137.750971, Alt.=2789.735043m. Speed=3.000000m/h.]]></desc>
</trkpt>
<trkpt lat="36.710094" lon="137.750971">
<ele>2791.528342</ele>
<time>2014-08-18T02:24:52Z</time>
<desc><![CDATA[lat.=36.710094, lon.=137.750971, Alt.=2791.528342m. Speed=2.000000m/h.]]></desc>
</trkpt>
<trkpt lat="36.710094" lon="137.750972">
<ele>2789.798149</ele>
<time>2014-08-18T02:24:57Z</time>
<desc><![CDATA[lat.=36.710094, lon.=137.750972, Alt.=2789.798149m. Speed=0.000000m/h.]]></desc>
</trkpt>
<trkpt lat="36.710098" lon="137.750963">
<ele>2790.934922</ele>
<time>2014-08-18T02:25:02Z</time>
<desc><![CDATA[lat.=36.710098, lon.=137.750963, Alt.=2790.934922m. Speed=0.000000m/h.]]></desc>
</trkpt>
<trkpt lat="36.710093" lon="137.750970">
<ele>2793.258535</ele>
<time>2014-08-18T02:25:07Z</time>
<desc><![CDATA[lat.=36.710093, lon.=137.750970, Alt.=2793.258535m. Speed=0.000000m/h.]]></desc>
</trkpt>
<trkpt lat="36.710090" lon="137.750962">
<ele>2793.797541</ele>
<time>2014-08-18T02:25:12Z</time>
<desc><![CDATA[lat.=36.710090, lon.=137.750962, Alt.=2793.797541m. Speed=0.000000m/h.]]></desc>
</trkpt>
<trkpt lat="36.710101" lon="137.750970">
<ele>2793.856301</ele>
<time>2014-08-18T02:25:17Z</time>
<desc><![CDATA[lat.=36.710101, lon.=137.750970, Alt.=2793.856301m. Speed=2.000000m/h.]]></desc>
</trkpt>
<trkpt lat="36.710137" lon="137.751003">
<ele>2793.493577</ele>
<time>2014-08-18T02:25:22Z</time>
<desc><![CDATA[lat.=36.710137, lon.=137.751003, Alt.=2793.493577m. Speed=3.000000m/h.]]></desc>
</trkpt>
<trkpt lat="36.710136" lon="137.751035">
<ele>2793.602406</ele>
<time>2014-08-18T02:25:27Z</time>
<desc><![CDATA[lat.=36.710136, lon.=137.751035, Alt.=2793.602406m. Speed=3.000000m/h.]]></desc>
</trkpt>
<trkpt lat="36.710168" lon="137.751060">
<ele>2793.778692</ele>
<time>2014-08-18T02:25:32Z</time>
<desc><![CDATA[lat.=36.710168, lon.=137.751060, Alt.=2793.778692m. Speed=3.000000m/h.]]></desc>
</trkpt>
<trkpt lat="36.710213" lon="137.751061">
<ele>2793.904913</ele>
<time>2014-08-18T02:25:37Z</time>
<desc><![CDATA[lat.=36.710213, lon.=137.751061, Alt.=2793.904913m. Speed=3.000000m/h.]]></desc>
</trkpt>
<trkpt lat="36.710238" lon="137.751086">
<ele>2793.483436</ele>
<time>2014-08-18T02:25:42Z</time>
<desc><![CDATA[lat.=36.710238, lon.=137.751086, Alt.=2793.483436m. Speed=3.000000m/h.]]></desc>
</trkpt>
<trkpt lat="36.710286" lon="137.751080">
<ele>2793.016243</ele>
<time>2014-08-18T02:25:47Z</time>
<desc><![CDATA[lat.=36.710286, lon.=137.751080, Alt.=2793.016243m. Speed=3.000000m/h.]]></desc>
</trkpt>
<trkpt lat="36.710326" lon="137.751090">
<ele>2792.005701</ele>
<time>2014-08-18T02:25:52Z</time>
<desc><![CDATA[lat.=36.710326, lon.=137.751090, Alt.=2792.005701m. Speed=3.000000m/h.]]></desc>
</trkpt>
<trkpt lat="36.710363" lon="137.751091">
<ele>2791.534165</ele>
<time>2014-08-18T02:25:57Z</time>
<desc><![CDATA[lat.=36.710363, lon.=137.751091, Alt.=2791.534165m. Speed=3.000000m/h.]]></desc>
</trkpt>
<trkpt lat="36.710392" lon="137.751108">
<ele>2792.249470</ele>
<time>2014-08-18T02:26:02Z</time>
<desc><![CDATA[lat.=36.710392, lon.=137.751108, Alt.=2792.249470m. Speed=3.000000m/h.]]></desc>
</trkpt>
<trkpt lat="36.710432" lon="137.751117">
<ele>2792.969128</ele>
<time>2014-08-18T02:26:07Z</time>
<desc><![CDATA[lat.=36.710432, lon.=137.751117, Alt.=2792.969128m. Speed=3.000000m/h.]]></desc>
</trkpt>
<trkpt lat="36.710469" lon="137.751134">
<ele>2792.552017</ele>
<time>2014-08-18T02:26:12Z</time>
<desc><![CDATA[lat.=36.710469, lon.=137.751134, Alt.=2792.552017m. Speed=3.000000m/h.]]></desc>
</trkpt>
<trkpt lat="36.710491" lon="137.751152">
<ele>2790.939364</ele>
<time>2014-08-18T02:26:17Z</time>
<desc><![CDATA[lat.=36.710491, lon.=137.751152, Alt.=2790.939364m. Speed=3.000000m/h.]]></desc>
</trkpt>
<trkpt lat="36.710527" lon="137.751168">
<ele>2792.252449</ele>
<time>2014-08-18T02:26:22Z</time>
<desc><![CDATA[lat.=36.710527, lon.=137.751168, Alt.=2792.252449m. Speed=3.000000m/h.]]></desc>
</trkpt>
<trkpt lat="36.710560" lon="137.751161">
<ele>2792.319929</ele>
<time>2014-08-18T02:26:27Z</time>
<desc><![CDATA[lat.=36.710560, lon.=137.751161, Alt.=2792.319929m. Speed=3.000000m/h.]]></desc>
</trkpt>
<trkpt lat="36.710579" lon="137.751171">
<ele>2789.516090</ele>
<time>2014-08-18T02:26:32Z</time>
<desc><![CDATA[lat.=36.710579, lon.=137.751171, Alt.=2789.516090m. Speed=2.000000m/h.]]></desc>
</trkpt>
<trkpt lat="36.710605" lon="137.751164">
<ele>2788.985799</ele>
<time>2014-08-18T02:26:37Z</time>
<desc><![CDATA[lat.=36.710605, lon.=137.751164, Alt.=2788.985799m. Speed=3.000000m/h.]]></desc>
</trkpt>
<trkpt lat="36.710631" lon="137.751173">
<ele>2788.509927</ele>
<time>2014-08-18T02:26:42Z</time>
<desc><![CDATA[lat.=36.710631, lon.=137.751173, Alt.=2788.509927m. Speed=3.000000m/h.]]></desc>
</trkpt>
<trkpt lat="36.710664" lon="137.751167">
<ele>2788.577414</ele>
<time>2014-08-18T02:26:47Z</time>
<desc><![CDATA[lat.=36.710664, lon.=137.751167, Alt.=2788.577414m. Speed=3.000000m/h.]]></desc>
</trkpt>
<trkpt lat="36.710719" lon="137.751161">
<ele>2788.708035</ele>
<time>2014-08-18T02:26:52Z</time>
<desc><![CDATA[lat.=36.710719, lon.=137.751161, Alt.=2788.708035m. Speed=3.000000m/h.]]></desc>
</trkpt>
<trkpt lat="36.710763" lon="137.751179">
<ele>2787.158528</ele>
<time>2014-08-18T02:26:57Z</time>
<desc><![CDATA[lat.=36.710763, lon.=137.751179, Alt.=2787.158528m. Speed=4.000000m/h.]]></desc>
</trkpt>
<trkpt lat="36.710788" lon="137.751203">
<ele>2788.467274</ele>
<time>2014-08-18T02:27:02Z</time>
<desc><![CDATA[lat.=36.710788, lon.=137.751203, Alt.=2788.467274m. Speed=3.000000m/h.]]></desc>
</trkpt>
<trkpt lat="36.710832" lon="137.751220">
<ele>2788.647966</ele>
<time>2014-08-18T02:27:07Z</time>
<desc><![CDATA[lat.=36.710832, lon.=137.751220, Alt.=2788.647966m. Speed=3.000000m/h.]]></desc>
</trkpt>
<trkpt lat="36.710869" lon="137.751221">
<ele>2789.906659</ele>
<time>2014-08-18T02:27:12Z</time>
<desc><![CDATA[lat.=36.710869, lon.=137.751221, Alt.=2789.906659m. Speed=3.000000m/h.]]></desc>
</trkpt>
<trkpt lat="36.710902" lon="137.751231">
<ele>2788.298386</ele>
<time>2014-08-18T02:27:17Z</time>
<desc><![CDATA[lat.=36.710902, lon.=137.751231, Alt.=2788.298386m. Speed=3.000000m/h.]]></desc>
</trkpt>
<trkpt lat="36.710938" lon="137.751247">
<ele>2789.611502</ele>
<time>2014-08-18T02:27:22Z</time>
<desc><![CDATA[lat.=36.710938, lon.=137.751247, Alt.=2789.611502m. Speed=3.000000m/h.]]></desc>
</trkpt>
<trkpt lat="36.710982" lon="137.751265">
<ele>2789.792208</ele>
<time>2014-08-18T02:27:27Z</time>
<desc><![CDATA[lat.=36.710982, lon.=137.751265, Alt.=2789.792208m. Speed=3.000000m/h.]]></desc>
</trkpt>
<trkpt lat="36.711018" lon="137.751282">
<ele>2789.375138</ele>
<time>2014-08-18T02:27:32Z</time>
<desc><![CDATA[lat.=36.711018, lon.=137.751282, Alt.=2789.375138m. Speed=3.000000m/h.]]></desc>
</trkpt>
<trkpt lat="36.711062" lon="137.751283">
<ele>2789.501432</ele>
<time>2014-08-18T02:27:37Z</time>
<desc><![CDATA[lat.=36.711062, lon.=137.751283, Alt.=2789.501432m. Speed=4.000000m/h.]]></desc>
</trkpt>
<trkpt lat="36.711091" lon="137.751299">
<ele>2791.946972</ele>
<time>2014-08-18T02:27:42Z</time>
<desc><![CDATA[lat.=36.711091, lon.=137.751299, Alt.=2791.946972m. Speed=3.000000m/h.]]></desc>
</trkpt>
<trkpt lat="36.711139" lon="137.751309">
<ele>2791.534276</ele>
<time>2014-08-18T02:27:47Z</time>
<desc><![CDATA[lat.=36.711139, lon.=137.751309, Alt.=2791.534276m. Speed=3.000000m/h.]]></desc>
</trkpt>
<trkpt lat="36.711175" lon="137.751311">
<ele>2791.062799</ele>
<time>2014-08-18T02:27:52Z</time>
<desc><![CDATA[lat.=36.711175, lon.=137.751311, Alt.=2791.062799m. Speed=3.000000m/h.]]></desc>
</trkpt>
<trkpt lat="36.711201" lon="137.751335">
<ele>2790.641377</ele>
<time>2014-08-18T02:27:57Z</time>
<desc><![CDATA[lat.=36.711201, lon.=137.751335, Alt.=2790.641377m. Speed=3.000000m/h.]]></desc>
</trkpt>
<trkpt lat="36.711223" lon="137.751336">
<ele>2790.704531</ele>
<time>2014-08-18T02:28:02Z</time>
<desc><![CDATA[lat.=36.711223, lon.=137.751336, Alt.=2790.704531m. Speed=3.000000m/h.]]></desc>
</trkpt>
<trkpt lat="36.711266" lon="137.751337">
<ele>2792.561034</ele>
<time>2014-08-18T02:28:07Z</time>
<desc><![CDATA[lat.=36.711266, lon.=137.751337, Alt.=2792.561034m. Speed=3.000000m/h.]]></desc>
</trkpt>
<trkpt lat="36.711311" lon="137.751323">
<ele>2792.632930</ele>
<time>2014-08-18T02:28:12Z</time>
<desc><![CDATA[lat.=36.711311, lon.=137.751323, Alt.=2792.632930m. Speed=3.000000m/h.]]></desc>
</trkpt>
<trkpt lat="36.711348" lon="137.751325">
<ele>2790.431273</ele>
<time>2014-08-18T02:28:17Z</time>
<desc><![CDATA[lat.=36.711348, lon.=137.751325, Alt.=2790.431273m. Speed=3.000000m/h.]]></desc>
</trkpt>
<trkpt lat="36.711374" lon="137.751302">
<ele>2791.576793</ele>
<time>2014-08-18T02:28:22Z</time>
<desc><![CDATA[lat.=36.711374, lon.=137.751302, Alt.=2791.576793m. Speed=3.000000m/h.]]></desc>
</trkpt>
<trkpt lat="36.711427" lon="137.751289">
<ele>2788.786100</ele>
<time>2014-08-18T02:28:27Z</time>
<desc><![CDATA[lat.=36.711427, lon.=137.751289, Alt.=2788.786100m. Speed=3.000000m/h.]]></desc>
</trkpt>
<trkpt lat="36.711452" lon="137.751297">
<ele>2790.040462</ele>
<time>2014-08-18T02:28:32Z</time>
<desc><![CDATA[lat.=36.711452, lon.=137.751297, Alt.=2790.040462m. Speed=3.000000m/h.]]></desc>
</trkpt>
<trkpt lat="36.711485" lon="137.751290">
<ele>2791.838192</ele>
<time>2014-08-18T02:28:37Z</time>
<desc><![CDATA[lat.=36.711485, lon.=137.751290, Alt.=2791.838192m. Speed=3.000000m/h.]]></desc>
</trkpt>
<trkpt lat="36.711517" lon="137.751298">
<ele>2793.690343</ele>
<time>2014-08-18T02:28:42Z</time>
<desc><![CDATA[lat.=36.711517, lon.=137.751298, Alt.=2793.690343m. Speed=3.000000m/h.]]></desc>
</trkpt>
<trkpt lat="36.711554" lon="137.751299">
<ele>2793.218892</ele>
<time>2014-08-18T02:28:47Z</time>
<desc><![CDATA[lat.=36.711554, lon.=137.751299, Alt.=2793.218892m. Speed=3.000000m/h.]]></desc>
</trkpt>
<trkpt lat="36.711599" lon="137.751286">
<ele>2791.560622</ele>
<time>2014-08-18T02:28:52Z</time>
<desc><![CDATA[lat.=36.711599, lon.=137.751286, Alt.=2791.560622m. Speed=3.000000m/h.]]></desc>
</trkpt>
<trkpt lat="36.711643" lon="137.751320">
<ele>2790.065612</ele>
<time>2014-08-18T02:28:57Z</time>
<desc><![CDATA[lat.=36.711643, lon.=137.751320, Alt.=2790.065612m. Speed=3.000000m/h.]]></desc>
</trkpt>
<trkpt lat="36.711698" lon="137.751297">
<ele>2791.872110</ele>
<time>2014-08-18T02:29:02Z</time>
<desc><![CDATA[lat.=36.711698, lon.=137.751297, Alt.=2791.872110m. Speed=3.000000m/h.]]></desc>
</trkpt>
<trkpt lat="36.711735" lon="137.751281">
<ele>2794.806636</ele>
<time>2014-08-18T02:29:07Z</time>
<desc><![CDATA[lat.=36.711735, lon.=137.751281, Alt.=2794.806636m. Speed=3.000000m/h.]]></desc>
</trkpt>
<trkpt lat="36.711771" lon="137.751250">
<ele>2797.686748</ele>
<time>2014-08-18T02:29:12Z</time>
<desc><![CDATA[lat.=36.711771, lon.=137.751250, Alt.=2797.686748m. Speed=3.000000m/h.]]></desc>
</trkpt>
<trkpt lat="36.711805" lon="137.751244">
<ele>2796.024116</ele>
<time>2014-08-18T02:29:17Z</time>
<desc><![CDATA[lat.=36.711805, lon.=137.751244, Alt.=2796.024116m. Speed=3.000000m/h.]]></desc>
</trkpt>
<trkpt lat="36.711830" lon="137.751236">
<ele>2798.954270</ele>
<time>2014-08-18T02:29:22Z</time>
<desc><![CDATA[lat.=36.711830, lon.=137.751236, Alt.=2798.954270m. Speed=3.000000m/h.]]></desc>
</trkpt>
<trkpt lat="36.711867" lon="137.751220">
<ele>2800.158615</ele>
<time>2014-08-18T02:29:27Z</time>
<desc><![CDATA[lat.=36.711867, lon.=137.751220, Alt.=2800.158615m. Speed=3.000000m/h.]]></desc>
</trkpt>
<trkpt lat="36.711897" lon="137.751239">
<ele>2797.413624</ele>
<time>2014-08-18T02:29:32Z</time>
<desc><![CDATA[lat.=36.711897, lon.=137.751239, Alt.=2797.413624m. Speed=3.000000m/h.]]></desc>
</trkpt>
<trkpt lat="36.711934" lon="137.751223">
<ele>2798.617975</ele>
<time>2014-08-18T02:29:37Z</time>
<desc><![CDATA[lat.=36.711934, lon.=137.751223, Alt.=2798.617975m. Speed=3.000000m/h.]]></desc>
</trkpt>
<trkpt lat="36.711962" lon="137.751206">
<ele>2804.415110</ele>
<time>2014-08-18T02:29:42Z</time>
<desc><![CDATA[lat.=36.711962, lon.=137.751206, Alt.=2804.415110m. Speed=3.000000m/h.]]></desc>
</trkpt>
<trkpt lat="36.711999" lon="137.751274">
<ele>2797.240597</ele>
<time>2014-08-18T02:29:47Z</time>
<desc><![CDATA[lat.=36.711999, lon.=137.751274, Alt.=2797.240597m. Speed=3.000000m/h.]]></desc>
</trkpt>
<trkpt lat="36.712018" lon="137.751266">
<ele>2797.842775</ele>
<time>2014-08-18T02:29:52Z</time>
<desc><![CDATA[lat.=36.712018, lon.=137.751266, Alt.=2797.842775m. Speed=3.000000m/h.]]></desc>
</trkpt>
<trkpt lat="36.712061" lon="137.751284">
<ele>2798.023572</ele>
<time>2014-08-18T02:29:57Z</time>
<desc><![CDATA[lat.=36.712061, lon.=137.751284, Alt.=2798.023572m. Speed=3.000000m/h.]]></desc>
</trkpt>
<trkpt lat="36.712093" lon="137.751308">
<ele>2799.930178</ele>
<time>2014-08-18T02:30:02Z</time>
<desc><![CDATA[lat.=36.712093, lon.=137.751308, Alt.=2799.930178m. Speed=3.000000m/h.]]></desc>
</trkpt>
<trkpt lat="36.712130" lon="137.751342">
<ele>2797.837416</ele>
<time>2014-08-18T02:30:07Z</time>
<desc><![CDATA[lat.=36.712130, lon.=137.751342, Alt.=2797.837416m. Speed=3.000000m/h.]]></desc>
</trkpt>
<trkpt lat="36.712156" lon="137.751335">
<ele>2797.307203</ele>
<time>2014-08-18T02:30:12Z</time>
<desc><![CDATA[lat.=36.712156, lon.=137.751335, Alt.=2797.307203m. Speed=3.000000m/h.]]></desc>
</trkpt>
<trkpt lat="36.712188" lon="137.751360">
<ele>2797.483625</ele>
<time>2014-08-18T02:30:17Z</time>
<desc><![CDATA[lat.=36.712188, lon.=137.751360, Alt.=2797.483625m. Speed=2.000000m/h.]]></desc>
</trkpt>
<trkpt lat="36.712233" lon="137.751362">
<ele>2795.879828</ele>
<time>2014-08-18T02:30:22Z</time>
<desc><![CDATA[lat.=36.712233, lon.=137.751362, Alt.=2795.879828m. Speed=3.000000m/h.]]></desc>
</trkpt>
<trkpt lat="36.712255" lon="137.751313">
<ele>2800.970342</ele>
<time>2014-08-18T02:30:27Z</time>
<desc><![CDATA[lat.=36.712255, lon.=137.751313, Alt.=2800.970342m. Speed=3.000000m/h.]]></desc>
</trkpt>
<trkpt lat="36.712296" lon="137.751324">
<ele>2798.229766</ele>
<time>2014-08-18T02:30:32Z</time>
<desc><![CDATA[lat.=36.712296, lon.=137.751324, Alt.=2798.229766m. Speed=3.000000m/h.]]></desc>
</trkpt>
<trkpt lat="36.712313" lon="137.751330">
<ele>2802.346755</ele>
<time>2014-08-18T02:30:37Z</time>
<desc><![CDATA[lat.=36.712313, lon.=137.751330, Alt.=2802.346755m. Speed=3.000000m/h.]]></desc>
</trkpt>
<trkpt lat="36.712350" lon="137.751316">
<ele>2801.820943</ele>
<time>2014-08-18T02:30:42Z</time>
<desc><![CDATA[lat.=36.712350, lon.=137.751316, Alt.=2801.820943m. Speed=3.000000m/h.]]></desc>
</trkpt>
<trkpt lat="36.712394" lon="137.751350">
<ele>2800.325998</ele>
<time>2014-08-18T02:30:47Z</time>
<desc><![CDATA[lat.=36.712394, lon.=137.751350, Alt.=2800.325998m. Speed=3.000000m/h.]]></desc>
</trkpt>
<trkpt lat="36.712446" lon="137.751369">
<ele>2797.644247</ele>
<time>2014-08-18T02:30:52Z</time>
<desc><![CDATA[lat.=36.712446, lon.=137.751369, Alt.=2797.644247m. Speed=3.000000m/h.]]></desc>
</trkpt>
<trkpt lat="36.712471" lon="137.751376">
<ele>2800.628850</ele>
<time>2014-08-18T02:30:57Z</time>
<desc><![CDATA[lat.=36.712471, lon.=137.751376, Alt.=2800.628850m. Speed=3.000000m/h.]]></desc>
</trkpt>
<trkpt lat="36.712519" lon="137.751370">
<ele>2800.161863</ele>
<time>2014-08-18T02:31:02Z</time>
<desc><![CDATA[lat.=36.712519, lon.=137.751370, Alt.=2800.161863m. Speed=3.000000m/h.]]></desc>
</trkpt>
<trkpt lat="36.712540" lon="137.751370">
<ele>2803.685456</ele>
<time>2014-08-18T02:31:07Z</time>
<desc><![CDATA[lat.=36.712540, lon.=137.751370, Alt.=2803.685456m. Speed=3.000000m/h.]]></desc>
</trkpt>
<trkpt lat="36.712562" lon="137.751337">
<ele>2807.100210</ele>
<time>2014-08-18T02:31:12Z</time>
<desc><![CDATA[lat.=36.712562, lon.=137.751337, Alt.=2807.100210m. Speed=3.000000m/h.]]></desc>
</trkpt>
<trkpt lat="36.712595" lon="137.751331">
<ele>2807.167819</ele>
<time>2014-08-18T02:31:17Z</time>
<desc><![CDATA[lat.=36.712595, lon.=137.751331, Alt.=2807.167819m. Speed=3.000000m/h.]]></desc>
</trkpt>
<trkpt lat="36.712636" lon="137.751340">
<ele>2806.157461</ele>
<time>2014-08-18T02:31:22Z</time>
<desc><![CDATA[lat.=36.712636, lon.=137.751340, Alt.=2806.157461m. Speed=3.000000m/h.]]></desc>
</trkpt>
<trkpt lat="36.712676" lon="137.751334">
<ele>2806.822878</ele>
<time>2014-08-18T02:31:27Z</time>
<desc><![CDATA[lat.=36.712676, lon.=137.751334, Alt.=2806.822878m. Speed=3.000000m/h.]]></desc>
</trkpt>
<trkpt lat="36.712710" lon="137.751343">
<ele>2805.214724</ele>
<time>2014-08-18T02:31:32Z</time>
<desc><![CDATA[lat.=36.712710, lon.=137.751343, Alt.=2805.214724m. Speed=3.000000m/h.]]></desc>
</trkpt>
<trkpt lat="36.712750" lon="137.751337">
<ele>2804.149955</ele>
<time>2014-08-18T02:31:37Z</time>
<desc><![CDATA[lat.=36.712750, lon.=137.751337, Alt.=2804.149955m. Speed=3.000000m/h.]]></desc>
</trkpt>
<trkpt lat="36.712787" lon="137.751355">
<ele>2803.733013</ele>
<time>2014-08-18T02:31:42Z</time>
<desc><![CDATA[lat.=36.712787, lon.=137.751355, Alt.=2803.733013m. Speed=3.000000m/h.]]></desc>
</trkpt>
<trkpt lat="36.712830" lon="137.751370">
<ele>2807.374258</ele>
<time>2014-08-18T02:31:47Z</time>
<desc><![CDATA[lat.=36.712830, lon.=137.751370, Alt.=2807.374258m. Speed=3.000000m/h.]]></desc>
</trkpt>
<trkpt lat="36.712862" lon="137.751395">
<ele>2807.550724</ele>
<time>2014-08-18T02:31:52Z</time>
<desc><![CDATA[lat.=36.712862, lon.=137.751395, Alt.=2807.550724m. Speed=3.000000m/h.]]></desc>
</trkpt>
<trkpt lat="36.712892" lon="137.751396">
<ele>2808.211755</ele>
<time>2014-08-18T02:31:57Z</time>
<desc><![CDATA[lat.=36.712892, lon.=137.751396, Alt.=2808.211755m. Speed=3.000000m/h.]]></desc>
</trkpt>
<trkpt lat="36.712914" lon="137.751365">
<ele>2808.166142</ele>
<time>2014-08-18T02:32:02Z</time>
<desc><![CDATA[lat.=36.712914, lon.=137.751365, Alt.=2808.166142m. Speed=3.000000m/h.]]></desc>
</trkpt>
<trkpt lat="36.712941" lon="137.751326">
<ele>2809.257321</ele>
<time>2014-08-18T02:32:07Z</time>
<desc><![CDATA[lat.=36.712941, lon.=137.751326, Alt.=2809.257321m. Speed=3.000000m/h.]]></desc>
</trkpt>
<trkpt lat="36.712971" lon="137.751312">
<ele>2808.133747</ele>
<time>2014-08-18T02:32:12Z</time>
<desc><![CDATA[lat.=36.712971, lon.=137.751312, Alt.=2808.133747m. Speed=3.000000m/h.]]></desc>
</trkpt>
<trkpt lat="36.712997" lon="137.751304">
<ele>2809.333767</ele>
<time>2014-08-18T02:32:17Z</time>
<desc><![CDATA[lat.=36.712997, lon.=137.751304, Alt.=2809.333767m. Speed=3.000000m/h.]]></desc>
</trkpt>
<trkpt lat="36.713015" lon="137.751281">
<ele>2809.881562</ele>
<time>2014-08-18T02:32:22Z</time>
<desc><![CDATA[lat.=36.713015, lon.=137.751281, Alt.=2809.881562m. Speed=2.000000m/h.]]></desc>
</trkpt>
<trkpt lat="36.713042" lon="137.751242">
<ele>2810.972750</ele>
<time>2014-08-18T02:32:27Z</time>
<desc><![CDATA[lat.=36.713042, lon.=137.751242, Alt.=2810.972750m. Speed=3.000000m/h.]]></desc>
</trkpt>
<trkpt lat="36.713079" lon="137.751227">
<ele>2812.177182</ele>
<time>2014-08-18T02:32:32Z</time>
<desc><![CDATA[lat.=36.713079, lon.=137.751227, Alt.=2812.177182m. Speed=3.000000m/h.]]></desc>
</trkpt>
<trkpt lat="36.713108" lon="137.751212">
<ele>2812.783809</ele>
<time>2014-08-18T02:32:37Z</time>
<desc><![CDATA[lat.=36.713108, lon.=137.751212, Alt.=2812.783809m. Speed=3.000000m/h.]]></desc>
</trkpt>
<trkpt lat="36.713134" lon="137.751204">
<ele>2813.983836</ele>
<time>2014-08-18T02:32:42Z</time>
<desc><![CDATA[lat.=36.713134, lon.=137.751204, Alt.=2813.983836m. Speed=2.000000m/h.]]></desc>
</trkpt>
<trkpt lat="36.713164" lon="137.751190">
<ele>2812.860276</ele>
<time>2014-08-18T02:32:47Z</time>
<desc><![CDATA[lat.=36.713164, lon.=137.751190, Alt.=2812.860276m. Speed=2.000000m/h.]]></desc>
</trkpt>
<trkpt lat="36.713182" lon="137.751214">
<ele>2813.571329</ele>
<time>2014-08-18T02:32:52Z</time>
<desc><![CDATA[lat.=36.713182, lon.=137.751214, Alt.=2813.571329m. Speed=2.000000m/h.]]></desc>
</trkpt>
<trkpt lat="36.713193" lon="137.751190">
<ele>2815.251514</ele>
<time>2014-08-18T02:32:57Z</time>
<desc><![CDATA[lat.=36.713193, lon.=137.751190, Alt.=2815.251514m. Speed=2.000000m/h.]]></desc>
</trkpt>
<trkpt lat="36.713218" lon="137.751199">
<ele>2814.775771</ele>
<time>2014-08-18T02:33:02Z</time>
<desc><![CDATA[lat.=36.713218, lon.=137.751199, Alt.=2814.775771m. Speed=2.000000m/h.]]></desc>
</trkpt>
<trkpt lat="36.713251" lon="137.751208">
<ele>2814.897840</ele>
<time>2014-08-18T02:33:07Z</time>
<desc><![CDATA[lat.=36.713251, lon.=137.751208, Alt.=2814.897840m. Speed=2.000000m/h.]]></desc>
</trkpt>
<trkpt lat="36.713277" lon="137.751201">
<ele>2814.367684</ele>
<time>2014-08-18T02:33:12Z</time>
<desc><![CDATA[lat.=36.713277, lon.=137.751201, Alt.=2814.367684m. Speed=2.000000m/h.]]></desc>
</trkpt>
<trkpt lat="36.713303" lon="137.751194">
<ele>2815.567720</ele>
<time>2014-08-18T02:33:17Z</time>
<desc><![CDATA[lat.=36.713303, lon.=137.751194, Alt.=2815.567720m. Speed=2.000000m/h.]]></desc>
</trkpt>
<trkpt lat="36.713329" lon="137.751170">
<ele>2816.713342</ele>
<time>2014-08-18T02:33:22Z</time>
<desc><![CDATA[lat.=36.713329, lon.=137.751170, Alt.=2816.713342m. Speed=2.000000m/h.]]></desc>
</trkpt>
<trkpt lat="36.713343" lon="137.751202">
<ele>2818.017797</ele>
<time>2014-08-18T02:33:27Z</time>
<desc><![CDATA[lat.=36.713343, lon.=137.751202, Alt.=2818.017797m. Speed=2.000000m/h.]]></desc>
</trkpt>
<trkpt lat="36.713364" lon="137.751218">
<ele>2819.865649</ele>
<time>2014-08-18T02:33:32Z</time>
<desc><![CDATA[lat.=36.713364, lon.=137.751218, Alt.=2819.865649m. Speed=2.000000m/h.]]></desc>
</trkpt>
<trkpt lat="36.713382" lon="137.751210">
<ele>2822.198066</ele>
<time>2014-08-18T02:33:37Z</time>
<desc><![CDATA[lat.=36.713382, lon.=137.751210, Alt.=2822.198066m. Speed=2.000000m/h.]]></desc>
</trkpt>
<trkpt lat="36.713397" lon="137.751178">
<ele>2823.284860</ele>
<time>2014-08-18T02:33:42Z</time>
<desc><![CDATA[lat.=36.713397, lon.=137.751178, Alt.=2823.284860m. Speed=2.000000m/h.]]></desc>
</trkpt>
<trkpt lat="36.713419" lon="137.751195">
<ele>2823.402524</ele>
<time>2014-08-18T02:33:47Z</time>
<desc><![CDATA[lat.=36.713419, lon.=137.751195, Alt.=2823.402524m. Speed=2.000000m/h.]]></desc>
</trkpt>
<trkpt lat="36.713452" lon="137.751188">
<ele>2823.470190</ele>
<time>2014-08-18T02:33:52Z</time>
<desc><![CDATA[lat.=36.713452, lon.=137.751188, Alt.=2823.470190m. Speed=2.000000m/h.]]></desc>
</trkpt>
<trkpt lat="36.713467" lon="137.751172">
<ele>2824.611401</ele>
<time>2014-08-18T02:33:57Z</time>
<desc><![CDATA[lat.=36.713467, lon.=137.751172, Alt.=2824.611401m. Speed=2.000000m/h.]]></desc>
</trkpt>
<trkpt lat="36.713496" lon="137.751189">
<ele>2823.596691</ele>
<time>2014-08-18T02:34:02Z</time>
<desc><![CDATA[lat.=36.713496, lon.=137.751189, Alt.=2823.596691m. Speed=2.000000m/h.]]></desc>
</trkpt>
<trkpt lat="36.713514" lon="137.751198">
<ele>2824.253339</ele>
<time>2014-08-18T02:34:07Z</time>
<desc><![CDATA[lat.=36.713514, lon.=137.751198, Alt.=2824.253339m. Speed=2.000000m/h.]]></desc>
</trkpt>
<trkpt lat="36.713544" lon="137.751167">
<ele>2824.805576</ele>
<time>2014-08-18T02:34:12Z</time>
<desc><![CDATA[lat.=36.713544, lon.=137.751167, Alt.=2824.805576m. Speed=2.000000m/h.]]></desc>
</trkpt>
<trkpt lat="36.713563" lon="137.751143">
<ele>2825.353396</ele>
<time>2014-08-18T02:34:17Z</time>
<desc><![CDATA[lat.=36.713563, lon.=137.751143, Alt.=2825.353396m. Speed=2.000000m/h.]]></desc>
</trkpt>
<trkpt lat="36.713586" lon="137.751128">
<ele>2825.362237</ele>
<time>2014-08-18T02:34:22Z</time>
<desc><![CDATA[lat.=36.713586, lon.=137.751128, Alt.=2825.362237m. Speed=2.000000m/h.]]></desc>
</trkpt>
<trkpt lat="36.713596" lon="137.751135">
<ele>2828.881452</ele>
<time>2014-08-18T02:34:27Z</time>
<desc><![CDATA[lat.=36.713596, lon.=137.751135, Alt.=2828.881452m. Speed=2.000000m/h.]]></desc>
</trkpt>
<trkpt lat="36.713594" lon="137.751182">
<ele>2830.774887</ele>
<time>2014-08-18T02:34:32Z</time>
<desc><![CDATA[lat.=36.713594, lon.=137.751182, Alt.=2830.774887m. Speed=2.000000m/h.]]></desc>
</trkpt>
<trkpt lat="36.713609" lon="137.751167">
<ele>2830.185912</ele>
<time>2014-08-18T02:34:37Z</time>
<desc><![CDATA[lat.=36.713609, lon.=137.751167, Alt.=2830.185912m. Speed=2.000000m/h.]]></desc>
</trkpt>
<trkpt lat="36.713613" lon="137.751159">
<ele>2829.592518</ele>
<time>2014-08-18T02:34:42Z</time>
<desc><![CDATA[lat.=36.713613, lon.=137.751159, Alt.=2829.592518m. Speed=0.000000m/h.]]></desc>
</trkpt>
<trkpt lat="36.713617" lon="137.751152">
<ele>2828.999123</ele>
<time>2014-08-18T02:34:47Z</time>
<desc><![CDATA[lat.=36.713617, lon.=137.751152, Alt.=2828.999123m. Speed=0.000000m/h.]]></desc>
</trkpt>
<trkpt lat="36.713624" lon="137.751152">
<ele>2829.596939</ele>
<time>2014-08-18T02:34:53Z</time>
<desc><![CDATA[lat.=36.713624, lon.=137.751152, Alt.=2829.596939m. Speed=0.000000m/h.]]></desc>
</trkpt>
<trkpt lat="36.713639" lon="137.751152">
<ele>2830.792571</ele>
<time>2014-08-18T02:34:58Z</time>
<desc><![CDATA[lat.=36.713639, lon.=137.751152, Alt.=2830.792571m. Speed=1.000000m/h.]]></desc>
</trkpt>
<trkpt lat="36.713650" lon="137.751128">
<ele>2832.472768</ele>
<time>2014-08-18T02:35:03Z</time>
<desc><![CDATA[lat.=36.713650, lon.=137.751128, Alt.=2832.472768m. Speed=1.000000m/h.]]></desc>
</trkpt>
<trkpt lat="36.713672" lon="137.751096">
<ele>2834.157389</ele>
<time>2014-08-18T02:35:08Z</time>
<desc><![CDATA[lat.=36.713672, lon.=137.751096, Alt.=2834.157389m. Speed=2.000000m/h.]]></desc>
</trkpt>
<trkpt lat="36.713676" lon="137.751104">
<ele>2835.348600</ele>
<time>2014-08-18T02:35:13Z</time>
<desc><![CDATA[lat.=36.713676, lon.=137.751104, Alt.=2835.348600m. Speed=0.000000m/h.]]></desc>
</trkpt>
<trkpt lat="36.713669" lon="137.751104">
<ele>2834.750783</ele>
<time>2014-08-18T02:35:18Z</time>
<desc><![CDATA[lat.=36.713669, lon.=137.751104, Alt.=2834.750783m. Speed=0.000000m/h.]]></desc>
</trkpt>
<trkpt lat="36.713676" lon="137.751104">
<ele>2835.348600</ele>
<time>2014-08-18T02:35:23Z</time>
<desc><![CDATA[lat.=36.713676, lon.=137.751104, Alt.=2835.348600m. Speed=0.000000m/h.]]></desc>
</trkpt>
<trkpt lat="36.713690" lon="137.751119">
<ele>2836.598647</ele>
<time>2014-08-18T02:35:28Z</time>
<desc><![CDATA[lat.=36.713690, lon.=137.751119, Alt.=2836.598647m. Speed=2.000000m/h.]]></desc>
</trkpt>
<trkpt lat="36.713697" lon="137.751135">
<ele>2837.250877</ele>
<time>2014-08-18T02:35:33Z</time>
<desc><![CDATA[lat.=36.713697, lon.=137.751135, Alt.=2837.250877m. Speed=1.000000m/h.]]></desc>
</trkpt>
<trkpt lat="36.713711" lon="137.751136">
<ele>2836.716321</ele>
<time>2014-08-18T02:35:38Z</time>
<desc><![CDATA[lat.=36.713711, lon.=137.751136, Alt.=2836.716321m. Speed=2.000000m/h.]]></desc>
</trkpt>
<trkpt lat="36.713738" lon="137.751129">
<ele>2836.186189</ele>
<time>2014-08-18T02:35:43Z</time>
<desc><![CDATA[lat.=36.713738, lon.=137.751129, Alt.=2836.186189m. Speed=2.000000m/h.]]></desc>
</trkpt>
<trkpt lat="36.713771" lon="137.751122">
<ele>2836.253876</ele>
<time>2014-08-18T02:35:48Z</time>
<desc><![CDATA[lat.=36.713771, lon.=137.751122, Alt.=2836.253876m. Speed=2.000000m/h.]]></desc>
</trkpt>
<trkpt lat="36.713778" lon="137.751139">
<ele>2835.175918</ele>
<time>2014-08-18T02:35:53Z</time>
<desc><![CDATA[lat.=36.713778, lon.=137.751139, Alt.=2835.175918m. Speed=2.000000m/h.]]></desc>
</trkpt>
<trkpt lat="36.713788" lon="137.751163">
<ele>2835.289172</ele>
<time>2014-08-18T02:35:58Z</time>
<desc><![CDATA[lat.=36.713788, lon.=137.751163, Alt.=2835.289172m. Speed=1.000000m/h.]]></desc>
</trkpt>
<trkpt lat="36.713807" lon="137.751155">
<ele>2835.891415</ele>
<time>2014-08-18T02:36:03Z</time>
<desc><![CDATA[lat.=36.713807, lon.=137.751155, Alt.=2835.891415m. Speed=1.000000m/h.]]></desc>
</trkpt>
<trkpt lat="36.713833" lon="137.751148">
<ele>2837.091478</ele>
<time>2014-08-18T02:36:08Z</time>
<desc><![CDATA[lat.=36.713833, lon.=137.751148, Alt.=2837.091478m. Speed=2.000000m/h.]]></desc>
</trkpt>
<trkpt lat="36.713848" lon="137.751116">
<ele>2838.178287</ele>
<time>2014-08-18T02:36:13Z</time>
<desc><![CDATA[lat.=36.713848, lon.=137.751116, Alt.=2838.178287m. Speed=2.000000m/h.]]></desc>
</trkpt>
<trkpt lat="36.713863" lon="137.751117">
<ele>2837.643735</ele>
<time>2014-08-18T02:36:18Z</time>
<desc><![CDATA[lat.=36.713863, lon.=137.751117, Alt.=2837.643735m. Speed=2.000000m/h.]]></desc>
</trkpt>
<trkpt lat="36.713873" lon="137.751109">
<ele>2839.378352</ele>
<time>2014-08-18T02:36:23Z</time>
<desc><![CDATA[lat.=36.713873, lon.=137.751109, Alt.=2839.378352m. Speed=2.000000m/h.]]></desc>
</trkpt>
<trkpt lat="36.713895" lon="137.751110">
<ele>2839.441620</ele>
<time>2014-08-18T02:36:28Z</time>
<desc><![CDATA[lat.=36.713895, lon.=137.751110, Alt.=2839.441620m. Speed=2.000000m/h.]]></desc>
</trkpt>
<trkpt lat="36.713910" lon="137.751126">
<ele>2838.961484</ele>
<time>2014-08-18T02:36:33Z</time>
<desc><![CDATA[lat.=36.713910, lon.=137.751126, Alt.=2838.961484m. Speed=2.000000m/h.]]></desc>
</trkpt>
<trkpt lat="36.713924" lon="137.751142">
<ele>2840.211537</ele>
<time>2014-08-18T02:36:38Z</time>
<desc><![CDATA[lat.=36.713924, lon.=137.751142, Alt.=2840.211537m. Speed=2.000000m/h.]]></desc>
</trkpt>
<trkpt lat="36.713950" lon="137.751134">
<ele>2841.411606</ele>
<time>2014-08-18T02:36:43Z</time>
<desc><![CDATA[lat.=36.713950, lon.=137.751134, Alt.=2841.411606m. Speed=1.000000m/h.]]></desc>
</trkpt>
<trkpt lat="36.713960" lon="137.751159">
<ele>2841.524863</ele>
<time>2014-08-18T02:36:48Z</time>
<desc><![CDATA[lat.=36.713960, lon.=137.751159, Alt.=2841.524863m. Speed=2.000000m/h.]]></desc>
</trkpt>
<trkpt lat="36.713964" lon="137.751167">
<ele>2840.985886</ele>
<time>2014-08-18T02:36:53Z</time>
<desc><![CDATA[lat.=36.713964, lon.=137.751167, Alt.=2840.985886m. Speed=1.000000m/h.]]></desc>
</trkpt>
<trkpt lat="36.713997" lon="137.751160">
<ele>2841.053587</ele>
<time>2014-08-18T02:36:58Z</time>
<desc><![CDATA[lat.=36.713997, lon.=137.751160, Alt.=2841.053587m. Speed=2.000000m/h.]]></desc>
</trkpt>
<trkpt lat="36.714003" lon="137.751192">
<ele>2841.760238</ele>
<time>2014-08-18T02:37:03Z</time>
<desc><![CDATA[lat.=36.714003, lon.=137.751192, Alt.=2841.760238m. Speed=2.000000m/h.]]></desc>
</trkpt>
<trkpt lat="36.714025" lon="137.751192">
<ele>2843.553702</ele>
<time>2014-08-18T02:37:08Z</time>
<desc><![CDATA[lat.=36.714025, lon.=137.751192, Alt.=2843.553702m. Speed=1.000000m/h.]]></desc>
</trkpt>
<trkpt lat="36.714040" lon="137.751176">
<ele>2844.694930</ele>
<time>2014-08-18T02:37:13Z</time>
<desc><![CDATA[lat.=36.714040, lon.=137.751176, Alt.=2844.694930m. Speed=2.000000m/h.]]></desc>
</trkpt>
<trkpt lat="36.714051" lon="137.751168">
<ele>2846.429550</ele>
<time>2014-08-18T02:37:18Z</time>
<desc><![CDATA[lat.=36.714051, lon.=137.751168, Alt.=2846.429550m. Speed=2.000000m/h.]]></desc>
</trkpt>
<trkpt lat="36.714065" lon="137.751183">
<ele>2847.679608</ele>
<time>2014-08-18T02:37:23Z</time>
<desc><![CDATA[lat.=36.714065, lon.=137.751183, Alt.=2847.679608m. Speed=2.000000m/h.]]></desc>
</trkpt>
<trkpt lat="36.714076" lon="137.751192">
<ele>2847.738454</ele>
<time>2014-08-18T02:37:28Z</time>
<desc><![CDATA[lat.=36.714076, lon.=137.751192, Alt.=2847.738454m. Speed=1.000000m/h.]]></desc>
</trkpt>
<trkpt lat="36.714101" lon="137.751200">
<ele>2848.992945</ele>
<time>2014-08-18T02:37:33Z</time>
<desc><![CDATA[lat.=36.714101, lon.=137.751200, Alt.=2848.992945m. Speed=2.000000m/h.]]></desc>
</trkpt>
<trkpt lat="36.714112" lon="137.751192">
<ele>2848.997376</ele>
<time>2014-08-18T02:37:38Z</time>
<desc><![CDATA[lat.=36.714112, lon.=137.751192, Alt.=2848.997376m. Speed=2.000000m/h.]]></desc>
</trkpt>
<trkpt lat="36.714127" lon="137.751192">
<ele>2850.193021</ele>
<time>2014-08-18T02:37:43Z</time>
<desc><![CDATA[lat.=36.714127, lon.=137.751192, Alt.=2850.193021m. Speed=2.000000m/h.]]></desc>
</trkpt>
<trkpt lat="36.714141" lon="137.751208">
<ele>2851.443082</ele>
<time>2014-08-18T02:37:48Z</time>
<desc><![CDATA[lat.=36.714141, lon.=137.751208, Alt.=2851.443082m. Speed=2.000000m/h.]]></desc>
</trkpt>
<trkpt lat="36.714158" lon="137.751216">
<ele>2853.829943</ele>
<time>2014-08-18T02:37:53Z</time>
<desc><![CDATA[lat.=36.714158, lon.=137.751216, Alt.=2853.829943m. Speed=2.000000m/h.]]></desc>
</trkpt>
<trkpt lat="36.714184" lon="137.751224">
<ele>2855.084438</ele>
<time>2014-08-18T02:37:58Z</time>
<desc><![CDATA[lat.=36.714184, lon.=137.751224, Alt.=2855.084438m. Speed=1.000000m/h.]]></desc>
</trkpt>
<trkpt lat="36.714213" lon="137.751209">
<ele>2855.691128</ele>
<time>2014-08-18T02:38:03Z</time>
<desc><![CDATA[lat.=36.714213, lon.=137.751209, Alt.=2855.691128m. Speed=2.000000m/h.]]></desc>
</trkpt>
<trkpt lat="36.714220" lon="137.751225">
<ele>2856.343368</ele>
<time>2014-08-18T02:38:08Z</time>
<desc><![CDATA[lat.=36.714220, lon.=137.751225, Alt.=2856.343368m. Speed=2.000000m/h.]]></desc>
</trkpt>
<trkpt lat="36.714238" lon="137.751265">
<ele>2855.378684</ele>
<time>2014-08-18T02:38:13Z</time>
<desc><![CDATA[lat.=36.714238, lon.=137.751265, Alt.=2855.378684m. Speed=2.000000m/h.]]></desc>
</trkpt>
<trkpt lat="36.714267" lon="137.751283">
<ele>2854.364020</ele>
<time>2014-08-18T02:38:18Z</time>
<desc><![CDATA[lat.=36.714267, lon.=137.751283, Alt.=2854.364020m. Speed=2.000000m/h.]]></desc>
</trkpt>
<trkpt lat="36.714293" lon="137.751259">
<ele>2855.509688</ele>
<time>2014-08-18T02:38:23Z</time>
<desc><![CDATA[lat.=36.714293, lon.=137.751259, Alt.=2855.509688m. Speed=2.000000m/h.]]></desc>
</trkpt>
<trkpt lat="36.714319" lon="137.751268">
<ele>2855.034000</ele>
<time>2014-08-18T02:38:28Z</time>
<desc><![CDATA[lat.=36.714319, lon.=137.751268, Alt.=2855.034000m. Speed=2.000000m/h.]]></desc>
</trkpt>
<trkpt lat="36.714340" lon="137.751284">
<ele>2856.881894</ele>
<time>2014-08-18T02:38:33Z</time>
<desc><![CDATA[lat.=36.714340, lon.=137.751284, Alt.=2856.881894m. Speed=2.000000m/h.]]></desc>
</trkpt>
<trkpt lat="36.714373" lon="137.751277">
<ele>2856.949618</ele>
<time>2014-08-18T02:38:38Z</time>
<desc><![CDATA[lat.=36.714373, lon.=137.751277, Alt.=2856.949618m. Speed=2.000000m/h.]]></desc>
</trkpt>
<trkpt lat="36.714369" lon="137.751268">
<ele>2859.218781</ele>
<time>2014-08-18T02:38:43Z</time>
<desc><![CDATA[lat.=36.714369, lon.=137.751268, Alt.=2859.218781m. Speed=0.000000m/h.]]></desc>
</trkpt>
<trkpt lat="36.714362" lon="137.751268">
<ele>2860.351144</ele>
<time>2014-08-18T02:38:48Z</time>
<desc><![CDATA[lat.=36.714362, lon.=137.751268, Alt.=2860.351144m. Speed=0.000000m/h.]]></desc>
</trkpt>
<trkpt lat="36.714365" lon="137.751259">
<ele>2861.487944</ele>
<time>2014-08-18T02:38:53Z</time>
<desc><![CDATA[lat.=36.714365, lon.=137.751259, Alt.=2861.487944m. Speed=0.000000m/h.]]></desc>
</trkpt>
<trkpt lat="36.714344" lon="137.751227">
<ele>2861.315824</ele>
<time>2014-08-18T02:38:58Z</time>
<desc><![CDATA[lat.=36.714344, lon.=137.751227, Alt.=2861.315824m. Speed=2.000000m/h.]]></desc>
</trkpt>
<trkpt lat="36.714348" lon="137.751220">
<ele>2860.722434</ele>
<time>2014-08-18T02:39:07Z</time>
<desc><![CDATA[lat.=36.714348, lon.=137.751220, Alt.=2860.722434m. Speed=0.000000m/h.]]></desc>
</trkpt>
<trkpt lat="36.714359" lon="137.751228">
<ele>2860.781286</ele>
<time>2014-08-18T02:39:12Z</time>
<desc><![CDATA[lat.=36.714359, lon.=137.751228, Alt.=2860.781286m. Speed=1.000000m/h.]]></desc>
</trkpt>
<trkpt lat="36.714387" lon="137.751260">
<ele>2861.551234</ele>
<time>2014-08-18T02:39:17Z</time>
<desc><![CDATA[lat.=36.714387, lon.=137.751260, Alt.=2861.551234m. Speed=3.000000m/h.]]></desc>
</trkpt>
<trkpt lat="36.714416" lon="137.751293">
<ele>2860.590994</ele>
<time>2014-08-18T02:39:22Z</time>
<desc><![CDATA[lat.=36.714416, lon.=137.751293, Alt.=2860.590994m. Speed=3.000000m/h.]]></desc>
</trkpt>
<trkpt lat="36.714445" lon="137.751326">
<ele>2859.630758</ele>
<time>2014-08-18T02:39:27Z</time>
<desc><![CDATA[lat.=36.714445, lon.=137.751326, Alt.=2859.630758m. Speed=3.000000m/h.]]></desc>
</trkpt>
<trkpt lat="36.714449" lon="137.751319">
<ele>2859.037369</ele>
<time>2014-08-18T02:39:32Z</time>
<desc><![CDATA[lat.=36.714449, lon.=137.751319, Alt.=2859.037369m. Speed=0.000000m/h.]]></desc>
</trkpt>
<trkpt lat="36.714445" lon="137.751326">
<ele>2859.630758</ele>
<time>2014-08-18T02:39:44Z</time>
<desc><![CDATA[lat.=36.714445, lon.=137.751326, Alt.=2859.630758m. Speed=0.000000m/h.]]></desc>
</trkpt>
<trkpt lat="36.714438" lon="137.751326">
<ele>2859.032931</ele>
<time>2014-08-18T02:39:49Z</time>
<desc><![CDATA[lat.=36.714438, lon.=137.751326, Alt.=2859.032931m. Speed=0.000000m/h.]]></desc>
</trkpt>
<trkpt lat="36.714428" lon="137.751302">
<ele>2858.919659</ele>
<time>2014-08-18T02:39:54Z</time>
<desc><![CDATA[lat.=36.714428, lon.=137.751302, Alt.=2858.919659m. Speed=2.000000m/h.]]></desc>
</trkpt>
<trkpt lat="36.714399" lon="137.751253">
<ele>2859.825481</ele>
<time>2014-08-18T02:39:59Z</time>
<desc><![CDATA[lat.=36.714399, lon.=137.751253, Alt.=2859.825481m. Speed=3.000000m/h.]]></desc>
</trkpt>
<trkpt lat="36.714377" lon="137.751220">
<ele>2861.383549</ele>
<time>2014-08-18T02:40:04Z</time>
<desc><![CDATA[lat.=36.714377, lon.=137.751220, Alt.=2861.383549m. Speed=3.000000m/h.]]></desc>
</trkpt>
<trkpt lat="36.714363" lon="137.751188">
<ele>2861.809256</ele>
<time>2014-08-18T02:40:09Z</time>
<desc><![CDATA[lat.=36.714363, lon.=137.751188, Alt.=2861.809256m. Speed=3.000000m/h.]]></desc>
</trkpt>
<trkpt lat="36.714333" lon="137.751170">
<ele>2864.554106</ele>
<time>2014-08-18T02:40:14Z</time>
<desc><![CDATA[lat.=36.714333, lon.=137.751170, Alt.=2864.554106m. Speed=2.000000m/h.]]></desc>
</trkpt>
<trkpt lat="36.714330" lon="137.751178">
<ele>2863.417306</ele>
<time>2014-08-18T02:40:21Z</time>
<desc><![CDATA[lat.=36.714330, lon.=137.751178, Alt.=2863.417306m. Speed=0.000000m/h.]]></desc>
</trkpt>
<trkpt lat="36.714349" lon="137.751172">
<ele>2860.559189</ele>
<time>2014-08-18T02:40:26Z</time>
<desc><![CDATA[lat.=36.714349, lon.=137.751172, Alt.=2860.559189m. Speed=0.000000m/h.]]></desc>
</trkpt>
<trkpt lat="36.714357" lon="137.751173">
<ele>2859.426825</ele>
<time>2014-08-18T02:40:31Z</time>
<desc><![CDATA[lat.=36.714357, lon.=137.751173, Alt.=2859.426825m. Speed=0.000000m/h.]]></desc>
</trkpt>
<trkpt lat="36.714364" lon="137.751174">
<ele>2858.294462</ele>
<time>2014-08-18T02:40:36Z</time>
<desc><![CDATA[lat.=36.714364, lon.=137.751174, Alt.=2858.294462m. Speed=0.000000m/h.]]></desc>
</trkpt>
<trkpt lat="36.714360" lon="137.751181">
<ele>2858.887851</ele>
<time>2014-08-18T02:40:59Z</time>
<desc><![CDATA[lat.=36.714360, lon.=137.751181, Alt.=2858.887851m. Speed=0.000000m/h.]]></desc>
</trkpt>
<trkpt lat="36.714356" lon="137.751189">
<ele>2859.481240</ele>
<time>2014-08-18T02:41:27Z</time>
<desc><![CDATA[lat.=36.714356, lon.=137.751189, Alt.=2859.481240m. Speed=0.000000m/h.]]></desc>
</trkpt>
<trkpt lat="36.714360" lon="137.751181">
<ele>2858.887851</ele>
<time>2014-08-18T02:41:46Z</time>
<desc><![CDATA[lat.=36.714360, lon.=137.751181, Alt.=2858.887851m. Speed=0.000000m/h.]]></desc>
</trkpt>
<trkpt lat="36.714356" lon="137.751189">
<ele>2859.481240</ele>
<time>2014-08-18T02:41:58Z</time>
<desc><![CDATA[lat.=36.714356, lon.=137.751189, Alt.=2859.481240m. Speed=0.000000m/h.]]></desc>
</trkpt>
<trkpt lat="36.714360" lon="137.751197">
<ele>2858.942266</ele>
<time>2014-08-18T02:42:12Z</time>
<desc><![CDATA[lat.=36.714360, lon.=137.751197, Alt.=2858.942266m. Speed=0.000000m/h.]]></desc>
</trkpt>
<trkpt lat="36.714360" lon="137.751213">
<ele>2858.996681</ele>
<time>2014-08-18T02:42:22Z</time>
<desc><![CDATA[lat.=36.714360, lon.=137.751213, Alt.=2858.996681m. Speed=1.000000m/h.]]></desc>
</trkpt>
<trkpt lat="36.714360" lon="137.751229">
<ele>2857.320907</ele>
<time>2014-08-18T02:42:27Z</time>
<desc><![CDATA[lat.=36.714360, lon.=137.751229, Alt.=2857.320907m. Speed=1.000000m/h.]]></desc>
</trkpt>
<trkpt lat="36.714362" lon="137.751269">
<ele>2856.890766</ele>
<time>2014-08-18T02:42:32Z</time>
<desc><![CDATA[lat.=36.714362, lon.=137.751269, Alt.=2856.890766m. Speed=2.000000m/h.]]></desc>
</trkpt>
<trkpt lat="36.714373" lon="137.751277">
<ele>2856.949618</ele>
<time>2014-08-18T02:42:37Z</time>
<desc><![CDATA[lat.=36.714373, lon.=137.751277, Alt.=2856.949618m. Speed=1.000000m/h.]]></desc>
</trkpt>
<trkpt lat="36.714377" lon="137.751269">
<ele>2858.086418</ele>
<time>2014-08-18T02:42:42Z</time>
<desc><![CDATA[lat.=36.714377, lon.=137.751269, Alt.=2858.086418m. Speed=0.000000m/h.]]></desc>
</trkpt>
<trkpt lat="36.714373" lon="137.751277">
<ele>2858.679808</ele>
<time>2014-08-18T02:42:47Z</time>
<desc><![CDATA[lat.=36.714373, lon.=137.751277, Alt.=2858.679808m. Speed=0.000000m/h.]]></desc>
</trkpt>
<trkpt lat="36.714384" lon="137.751269">
<ele>2858.684244</ele>
<time>2014-08-18T02:43:55Z</time>
<desc><![CDATA[lat.=36.714384, lon.=137.751269, Alt.=2858.684244m. Speed=0.000000m/h.]]></desc>
</trkpt>
<trkpt lat="36.714381" lon="137.751261">
<ele>2859.223218</ele>
<time>2014-08-18T02:44:00Z</time>
<desc><![CDATA[lat.=36.714381, lon.=137.751261, Alt.=2859.223218m. Speed=0.000000m/h.]]></desc>
</trkpt>
<trkpt lat="36.714380" lon="137.751277">
<ele>2859.277634</ele>
<time>2014-08-18T02:44:08Z</time>
<desc><![CDATA[lat.=36.714380, lon.=137.751277, Alt.=2859.277634m. Speed=1.000000m/h.]]></desc>
</trkpt>
<trkpt lat="36.714369" lon="137.751268">
<ele>2859.218781</ele>
<time>2014-08-18T02:44:13Z</time>
<desc><![CDATA[lat.=36.714369, lon.=137.751268, Alt.=2859.218781m. Speed=0.000000m/h.]]></desc>
</trkpt>
<trkpt lat="36.714377" lon="137.751268">
<ele>2859.816607</ele>
<time>2014-08-18T02:44:18Z</time>
<desc><![CDATA[lat.=36.714377, lon.=137.751268, Alt.=2859.816607m. Speed=0.000000m/h.]]></desc>
</trkpt>
<trkpt lat="36.714381" lon="137.751261">
<ele>2859.223218</ele>
<time>2014-08-18T02:44:23Z</time>
<desc><![CDATA[lat.=36.714381, lon.=137.751261, Alt.=2859.223218m. Speed=0.000000m/h.]]></desc>
</trkpt>
<trkpt lat="36.714377" lon="137.751268">
<ele>2859.816607</ele>
<time>2014-08-18T02:44:29Z</time>
<desc><![CDATA[lat.=36.714377, lon.=137.751268, Alt.=2859.816607m. Speed=0.000000m/h.]]></desc>
</trkpt>
<trkpt lat="36.714384" lon="137.751268">
<ele>2860.414434</ele>
<time>2014-08-18T02:44:41Z</time>
<desc><![CDATA[lat.=36.714384, lon.=137.751268, Alt.=2860.414434m. Speed=0.000000m/h.]]></desc>
</trkpt>
<trkpt lat="36.714395" lon="137.751245">
<ele>2860.364454</ele>
<time>2014-08-18T02:44:46Z</time>
<desc><![CDATA[lat.=36.714395, lon.=137.751245, Alt.=2860.364454m. Speed=0.000000m/h.]]></desc>
</trkpt>
<trkpt lat="36.714388" lon="137.751245">
<ele>2859.766628</ele>
<time>2014-08-18T02:44:52Z</time>
<desc><![CDATA[lat.=36.714388, lon.=137.751245, Alt.=2859.766628m. Speed=0.000000m/h.]]></desc>
</trkpt>
<trkpt lat="36.714377" lon="137.751268">
<ele>2859.816607</ele>
<time>2014-08-18T02:44:57Z</time>
<desc><![CDATA[lat.=36.714377, lon.=137.751268, Alt.=2859.816607m. Speed=0.000000m/h.]]></desc>
</trkpt>
<trkpt lat="36.714373" lon="137.751261">
<ele>2858.625391</ele>
<time>2014-08-18T02:45:02Z</time>
<desc><![CDATA[lat.=36.714373, lon.=137.751261, Alt.=2858.625391m. Speed=0.000000m/h.]]></desc>
</trkpt>
<trkpt lat="36.714381" lon="137.751261">
<ele>2859.223218</ele>
<time>2014-08-18T02:45:07Z</time>
<desc><![CDATA[lat.=36.714381, lon.=137.751261, Alt.=2859.223218m. Speed=0.000000m/h.]]></desc>
</trkpt>
<trkpt lat="36.714385" lon="137.751253">
<ele>2858.629828</ele>
<time>2014-08-18T02:45:24Z</time>
<desc><![CDATA[lat.=36.714385, lon.=137.751253, Alt.=2858.629828m. Speed=0.000000m/h.]]></desc>
</trkpt>
<trkpt lat="36.714395" lon="137.751262">
<ele>2858.688681</ele>
<time>2014-08-18T02:45:48Z</time>
<desc><![CDATA[lat.=36.714395, lon.=137.751262, Alt.=2858.688681m. Speed=1.000000m/h.]]></desc>
</trkpt>
<trkpt lat="36.714403" lon="137.751230">
<ele>2859.177676</ele>
<time>2014-08-18T02:45:53Z</time>
<desc><![CDATA[lat.=36.714403, lon.=137.751230, Alt.=2859.177676m. Speed=1.000000m/h.]]></desc>
</trkpt>
<trkpt lat="36.714399" lon="137.751238">
<ele>2859.771065</ele>
<time>2014-08-18T02:45:58Z</time>
<desc><![CDATA[lat.=36.714399, lon.=137.751238, Alt.=2859.771065m. Speed=0.000000m/h.]]></desc>
</trkpt>
<trkpt lat="36.714377" lon="137.751269">
<ele>2858.086418</ele>
<time>2014-08-18T02:46:03Z</time>
<desc><![CDATA[lat.=36.714377, lon.=137.751269, Alt.=2858.086418m. Speed=2.000000m/h.]]></desc>
</trkpt>
<trkpt lat="36.714358" lon="137.751260">
<ele>2859.159928</ele>
<time>2014-08-18T02:46:08Z</time>
<desc><![CDATA[lat.=36.714358, lon.=137.751260, Alt.=2859.159928m. Speed=0.000000m/h.]]></desc>
</trkpt>
<trkpt lat="36.714355" lon="137.751252">
<ele>2859.698902</ele>
<time>2014-08-18T02:46:13Z</time>
<desc><![CDATA[lat.=36.714355, lon.=137.751252, Alt.=2859.698902m. Speed=0.000000m/h.]]></desc>
</trkpt>
<trkpt lat="36.714358" lon="137.751259">
<ele>2860.890118</ele>
<time>2014-08-18T02:46:18Z</time>
<desc><![CDATA[lat.=36.714358, lon.=137.751259, Alt.=2860.890118m. Speed=0.000000m/h.]]></desc>
</trkpt>
<trkpt lat="36.714354" lon="137.751251">
<ele>2861.429092</ele>
<time>2014-08-18T02:46:23Z</time>
<desc><![CDATA[lat.=36.714354, lon.=137.751251, Alt.=2861.429092m. Speed=0.000000m/h.]]></desc>
</trkpt>
<trkpt lat="36.714350" lon="137.751259">
<ele>2862.022481</ele>
<time>2014-08-18T02:46:28Z</time>
<desc><![CDATA[lat.=36.714350, lon.=137.751259, Alt.=2862.022481m. Speed=0.000000m/h.]]></desc>
</trkpt>
<trkpt lat="36.714358" lon="137.751259">
<ele>2862.620307</ele>
<time>2014-08-18T02:46:33Z</time>
<desc><![CDATA[lat.=36.714358, lon.=137.751259, Alt.=2862.620307m. Speed=0.000000m/h.]]></desc>
</trkpt>
<trkpt lat="36.714369" lon="137.751251">
<ele>2862.624744</ele>
<time>2014-08-18T02:46:45Z</time>
<desc><![CDATA[lat.=36.714369, lon.=137.751251, Alt.=2862.624744m. Speed=1.000000m/h.]]></desc>
</trkpt>
<trkpt lat="36.714373" lon="137.751243">
<ele>2863.761544</ele>
<time>2014-08-18T02:46:50Z</time>
<desc><![CDATA[lat.=36.714373, lon.=137.751243, Alt.=2863.761544m. Speed=0.000000m/h.]]></desc>
</trkpt>
<trkpt lat="36.714369" lon="137.751251">
<ele>2862.624744</ele>
<time>2014-08-18T02:46:55Z</time>
<desc><![CDATA[lat.=36.714369, lon.=137.751251, Alt.=2862.624744m. Speed=1.000000m/h.]]></desc>
</trkpt>
<trkpt lat="36.714369" lon="137.751252">
<ele>2860.894554</ele>
<time>2014-08-18T02:47:00Z</time>
<desc><![CDATA[lat.=36.714369, lon.=137.751252, Alt.=2860.894554m. Speed=0.000000m/h.]]></desc>
</trkpt>
<trkpt lat="36.714365" lon="137.751259">
<ele>2861.487944</ele>
<time>2014-08-18T02:47:07Z</time>
<desc><![CDATA[lat.=36.714365, lon.=137.751259, Alt.=2861.487944m. Speed=0.000000m/h.]]></desc>
</trkpt>
<trkpt lat="36.714362" lon="137.751251">
<ele>2862.026918</ele>
<time>2014-08-18T02:47:14Z</time>
<desc><![CDATA[lat.=36.714362, lon.=137.751251, Alt.=2862.026918m. Speed=0.000000m/h.]]></desc>
</trkpt>
<trkpt lat="36.714369" lon="137.751251">
<ele>2862.624744</ele>
<time>2014-08-18T02:47:26Z</time>
<desc><![CDATA[lat.=36.714369, lon.=137.751251, Alt.=2862.624744m. Speed=1.000000m/h.]]></desc>
</trkpt>
<trkpt lat="36.714377" lon="137.751235">
<ele>2863.168154</ele>
<time>2014-08-18T02:47:31Z</time>
<desc><![CDATA[lat.=36.714377, lon.=137.751235, Alt.=2863.168154m. Speed=0.000000m/h.]]></desc>
</trkpt>
<trkpt lat="36.714373" lon="137.751227">
<ele>2863.707128</ele>
<time>2014-08-18T02:47:36Z</time>
<desc><![CDATA[lat.=36.714373, lon.=137.751227, Alt.=2863.707128m. Speed=0.000000m/h.]]></desc>
</trkpt>
<trkpt lat="36.714365" lon="137.751259">
<ele>2861.487944</ele>
<time>2014-08-18T02:47:41Z</time>
<desc><![CDATA[lat.=36.714365, lon.=137.751259, Alt.=2861.487944m. Speed=1.000000m/h.]]></desc>
</trkpt>
<trkpt lat="36.714358" lon="137.751259">
<ele>2860.890118</ele>
<time>2014-08-18T02:47:50Z</time>
<desc><![CDATA[lat.=36.714358, lon.=137.751259, Alt.=2860.890118m. Speed=0.000000m/h.]]></desc>
</trkpt>
<trkpt lat="36.714354" lon="137.751267">
<ele>2861.483508</ele>
<time>2014-08-18T02:48:19Z</time>
<desc><![CDATA[lat.=36.714354, lon.=137.751267, Alt.=2861.483508m. Speed=0.000000m/h.]]></desc>
</trkpt>
<trkpt lat="36.714380" lon="137.751244">
<ele>2862.629180</ele>
<time>2014-08-18T02:48:24Z</time>
<desc><![CDATA[lat.=36.714380, lon.=137.751244, Alt.=2862.629180m. Speed=2.000000m/h.]]></desc>
</trkpt>
<trkpt lat="36.714377" lon="137.751235">
<ele>2863.168154</ele>
<time>2014-08-18T02:48:29Z</time>
<desc><![CDATA[lat.=36.714377, lon.=137.751235, Alt.=2863.168154m. Speed=0.000000m/h.]]></desc>
</trkpt>
<trkpt lat="36.714384" lon="137.751252">
<ele>2862.090207</ele>
<time>2014-08-18T02:48:34Z</time>
<desc><![CDATA[lat.=36.714384, lon.=137.751252, Alt.=2862.090207m. Speed=1.000000m/h.]]></desc>
</trkpt>
<trkpt lat="36.714416" lon="137.751293">
<ele>2862.321184</ele>
<time>2014-08-18T02:48:39Z</time>
<desc><![CDATA[lat.=36.714416, lon.=137.751293, Alt.=2862.321184m. Speed=2.000000m/h.]]></desc>
</trkpt>
<trkpt lat="36.714453" lon="137.751295">
<ele>2860.119751</ele>
<time>2014-08-18T02:48:44Z</time>
<desc><![CDATA[lat.=36.714453, lon.=137.751295, Alt.=2860.119751m. Speed=3.000000m/h.]]></desc>
</trkpt>
<trkpt lat="36.714461" lon="137.751296">
<ele>2858.987389</ele>
<time>2014-08-18T02:48:49Z</time>
<desc><![CDATA[lat.=36.714461, lon.=137.751296, Alt.=2858.987389m. Speed=0.000000m/h.]]></desc>
</trkpt>
<trkpt lat="36.714468" lon="137.751296">
<ele>2857.855028</ele>
<time>2014-08-18T02:48:54Z</time>
<desc><![CDATA[lat.=36.714468, lon.=137.751296, Alt.=2857.855028m. Speed=0.000000m/h.]]></desc>
</trkpt>
<trkpt lat="36.714465" lon="137.751288">
<ele>2858.394000</ele>
<time>2014-08-18T02:48:59Z</time>
<desc><![CDATA[lat.=36.714465, lon.=137.751288, Alt.=2858.394000m. Speed=0.000000m/h.]]></desc>
</trkpt>
<trkpt lat="36.714494" lon="137.751305">
<ele>2859.109539</ele>
<time>2014-08-18T02:49:04Z</time>
<desc><![CDATA[lat.=36.714494, lon.=137.751305, Alt.=2859.109539m. Speed=2.000000m/h.]]></desc>
</trkpt>
<trkpt lat="36.714527" lon="137.751299">
<ele>2857.447084</ele>
<time>2014-08-18T02:49:09Z</time>
<desc><![CDATA[lat.=36.714527, lon.=137.751299, Alt.=2857.447084m. Speed=3.000000m/h.]]></desc>
</trkpt>
<trkpt lat="36.714560" lon="137.751308">
<ele>2857.569237</ele>
<time>2014-08-18T02:49:14Z</time>
<desc><![CDATA[lat.=36.714560, lon.=137.751308, Alt.=2857.569237m. Speed=3.000000m/h.]]></desc>
</trkpt>
<trkpt lat="36.714552" lon="137.751356">
<ele>2855.404472</ele>
<time>2014-08-18T02:49:19Z</time>
<desc><![CDATA[lat.=36.714552, lon.=137.751356, Alt.=2855.404472m. Speed=3.000000m/h.]]></desc>
</trkpt>
<trkpt lat="36.714590" lon="137.751358">
<ele>2853.203049</ele>
<time>2014-08-18T02:49:24Z</time>
<desc><![CDATA[lat.=36.714590, lon.=137.751358, Alt.=2853.203049m. Speed=3.000000m/h.]]></desc>
</trkpt>
<trkpt lat="36.714613" lon="137.751329">
<ele>2849.697135</ele>
<time>2014-08-18T02:49:29Z</time>
<desc><![CDATA[lat.=36.714613, lon.=137.751329, Alt.=2849.697135m. Speed=3.000000m/h.]]></desc>
</trkpt>
<trkpt lat="36.714631" lon="137.751353">
<ele>2850.408241</ele>
<time>2014-08-18T02:49:34Z</time>
<desc><![CDATA[lat.=36.714631, lon.=137.751353, Alt.=2850.408241m. Speed=3.000000m/h.]]></desc>
</trkpt>
<trkpt lat="36.714638" lon="137.751354">
<ele>2849.275882</ele>
<time>2014-08-18T02:49:40Z</time>
<desc><![CDATA[lat.=36.714638, lon.=137.751354, Alt.=2849.275882m. Speed=0.000000m/h.]]></desc>
</trkpt>
<trkpt lat="36.714642" lon="137.751361">
<ele>2850.467100</ele>
<time>2014-08-18T02:49:45Z</time>
<desc><![CDATA[lat.=36.714642, lon.=137.751361, Alt.=2850.467100m. Speed=1.000000m/h.]]></desc>
</trkpt>
<trkpt lat="36.714675" lon="137.751387">
<ele>2848.913491</ele>
<time>2014-08-18T02:49:50Z</time>
<desc><![CDATA[lat.=36.714675, lon.=137.751387, Alt.=2848.913491m. Speed=3.000000m/h.]]></desc>
</trkpt>
<trkpt lat="36.714710" lon="137.751436">
<ele>2848.605523</ele>
<time>2014-08-18T02:49:55Z</time>
<desc><![CDATA[lat.=36.714710, lon.=137.751436, Alt.=2848.605523m. Speed=4.000000m/h.]]></desc>
</trkpt>
<trkpt lat="36.714746" lon="137.751469">
<ele>2848.243141</ele>
<time>2014-08-18T02:50:00Z</time>
<desc><![CDATA[lat.=36.714746, lon.=137.751469, Alt.=2848.243141m. Speed=4.000000m/h.]]></desc>
</trkpt>
<trkpt lat="36.714779" lon="137.751494">
<ele>2848.419731</ele>
<time>2014-08-18T02:50:05Z</time>
<desc><![CDATA[lat.=36.714779, lon.=137.751494, Alt.=2848.419731m. Speed=4.000000m/h.]]></desc>
</trkpt>
<trkpt lat="36.714819" lon="137.751520">
<ele>2845.733778</ele>
<time>2014-08-18T02:50:10Z</time>
<desc><![CDATA[lat.=36.714819, lon.=137.751520, Alt.=2845.733778m. Speed=4.000000m/h.]]></desc>
</trkpt>
<trkpt lat="36.714863" lon="137.751537">
<ele>2845.914819</ele>
<time>2014-08-18T02:50:15Z</time>
<desc><![CDATA[lat.=36.714863, lon.=137.751537, Alt.=2845.914819m. Speed=4.000000m/h.]]></desc>
</trkpt>
<trkpt lat="36.714915" lon="137.751556">
<ele>2843.233320</ele>
<time>2014-08-18T02:50:20Z</time>
<desc><![CDATA[lat.=36.714915, lon.=137.751556, Alt.=2843.233320m. Speed=4.000000m/h.]]></desc>
</trkpt>
<trkpt lat="36.714952" lon="137.751558">
<ele>2842.762113</ele>
<time>2014-08-18T02:50:25Z</time>
<desc><![CDATA[lat.=36.714952, lon.=137.751558, Alt.=2842.762113m. Speed=4.000000m/h.]]></desc>
</trkpt>
<trkpt lat="36.714980" lon="137.751590">
<ele>2843.532106</ele>
<time>2014-08-18T02:50:30Z</time>
<desc><![CDATA[lat.=36.714980, lon.=137.751590, Alt.=2843.532106m. Speed=3.000000m/h.]]></desc>
</trkpt>
<trkpt lat="36.715013" lon="137.751616">
<ele>2841.978526</ele>
<time>2014-08-18T02:50:35Z</time>
<desc><![CDATA[lat.=36.715013, lon.=137.751616, Alt.=2841.978526m. Speed=3.000000m/h.]]></desc>
</trkpt>
<trkpt lat="36.715038" lon="137.751640">
<ele>2843.287490</ele>
<time>2014-08-18T02:50:40Z</time>
<desc><![CDATA[lat.=36.715038, lon.=137.751640, Alt.=2843.287490m. Speed=3.000000m/h.]]></desc>
</trkpt>
<trkpt lat="36.715074" lon="137.751689">
<ele>2842.979563</ele>
<time>2014-08-18T02:50:45Z</time>
<desc><![CDATA[lat.=36.715074, lon.=137.751689, Alt.=2842.979563m. Speed=4.000000m/h.]]></desc>
</trkpt>
<trkpt lat="36.715125" lon="137.751723">
<ele>2842.082702</ele>
<time>2014-08-18T02:50:50Z</time>
<desc><![CDATA[lat.=36.715125, lon.=137.751723, Alt.=2842.082702m. Speed=4.000000m/h.]]></desc>
</trkpt>
<trkpt lat="36.715143" lon="137.751763">
<ele>2841.118075</ele>
<time>2014-08-18T02:50:55Z</time>
<desc><![CDATA[lat.=36.715143, lon.=137.751763, Alt.=2841.118075m. Speed=4.000000m/h.]]></desc>
</trkpt>
<trkpt lat="36.715164" lon="137.751796">
<ele>2841.290250</ele>
<time>2014-08-18T02:51:00Z</time>
<desc><![CDATA[lat.=36.715164, lon.=137.751796, Alt.=2841.290250m. Speed=3.000000m/h.]]></desc>
</trkpt>
<trkpt lat="36.715197" lon="137.751789">
<ele>2841.358023</ele>
<time>2014-08-18T02:51:05Z</time>
<desc><![CDATA[lat.=36.715197, lon.=137.751789, Alt.=2841.358023m. Speed=3.000000m/h.]]></desc>
</trkpt>
<trkpt lat="36.715186" lon="137.751796">
<ele>2843.083762</ele>
<time>2014-08-18T02:51:10Z</time>
<desc><![CDATA[lat.=36.715186, lon.=137.751796, Alt.=2843.083762m. Speed=2.000000m/h.]]></desc>
</trkpt>
<trkpt lat="36.715200" lon="137.751812">
<ele>2842.603676</ele>
<time>2014-08-18T02:51:15Z</time>
<desc><![CDATA[lat.=36.715200, lon.=137.751812, Alt.=2842.603676m. Speed=1.000000m/h.]]></desc>
</trkpt>
<trkpt lat="36.715217" lon="137.751852">
<ele>2843.369244</ele>
<time>2014-08-18T02:51:20Z</time>
<desc><![CDATA[lat.=36.715217, lon.=137.751852, Alt.=2843.369244m. Speed=3.000000m/h.]]></desc>
</trkpt>
<trkpt lat="36.715254" lon="137.751886">
<ele>2841.276726</ele>
<time>2014-08-18T02:51:25Z</time>
<desc><![CDATA[lat.=36.715254, lon.=137.751886, Alt.=2841.276726m. Speed=3.000000m/h.]]></desc>
</trkpt>
<trkpt lat="36.715287" lon="137.751912">
<ele>2839.723173</ele>
<time>2014-08-18T02:51:30Z</time>
<desc><![CDATA[lat.=36.715287, lon.=137.751912, Alt.=2839.723173m. Speed=3.000000m/h.]]></desc>
</trkpt>
<trkpt lat="36.715320" lon="137.751937">
<ele>2838.169622</ele>
<time>2014-08-18T02:51:35Z</time>
<desc><![CDATA[lat.=36.715320, lon.=137.751937, Alt.=2838.169622m. Speed=3.000000m/h.]]></desc>
</trkpt>
<trkpt lat="36.715359" lon="137.751962">
<ele>2838.944103</ele>
<time>2014-08-18T02:51:40Z</time>
<desc><![CDATA[lat.=36.715359, lon.=137.751962, Alt.=2838.944103m. Speed=4.000000m/h.]]></desc>
</trkpt>
<trkpt lat="36.715403" lon="137.751979">
<ele>2839.125199</ele>
<time>2014-08-18T02:51:45Z</time>
<desc><![CDATA[lat.=36.715403, lon.=137.751979, Alt.=2839.125199m. Speed=4.000000m/h.]]></desc>
</trkpt>
<trkpt lat="36.715436" lon="137.751989">
<ele>2837.517228</ele>
<time>2014-08-18T02:51:50Z</time>
<desc><![CDATA[lat.=36.715436, lon.=137.751989, Alt.=2837.517228m. Speed=3.000000m/h.]]></desc>
</trkpt>
<trkpt lat="36.715432" lon="137.752012">
<ele>2838.165046</ele>
<time>2014-08-18T02:51:55Z</time>
<desc><![CDATA[lat.=36.715432, lon.=137.752012, Alt.=2838.165046m. Speed=2.000000m/h.]]></desc>
</trkpt>
<trkpt lat="36.715466" lon="137.752006">
<ele>2836.502647</ele>
<time>2014-08-18T02:52:00Z</time>
<desc><![CDATA[lat.=36.715466, lon.=137.752006, Alt.=2836.502647m. Speed=2.000000m/h.]]></desc>
</trkpt>
<trkpt lat="36.715480" lon="137.752023">
<ele>2836.022573</ele>
<time>2014-08-18T02:52:05Z</time>
<desc><![CDATA[lat.=36.715480, lon.=137.752023, Alt.=2836.022573m. Speed=2.000000m/h.]]></desc>
</trkpt>
<trkpt lat="36.715491" lon="137.752015">
<ele>2836.027027</ele>
<time>2014-08-18T02:52:10Z</time>
<desc><![CDATA[lat.=36.715491, lon.=137.752015, Alt.=2836.027027m. Speed=2.000000m/h.]]></desc>
</trkpt>
<trkpt lat="36.715528" lon="137.752034">
<ele>2833.880104</ele>
<time>2014-08-18T02:52:15Z</time>
<desc><![CDATA[lat.=36.715528, lon.=137.752034, Alt.=2833.880104m. Speed=3.000000m/h.]]></desc>
</trkpt>
<trkpt lat="36.715543" lon="137.752034">
<ele>2833.345602</ele>
<time>2014-08-18T02:52:20Z</time>
<desc><![CDATA[lat.=36.715543, lon.=137.752034, Alt.=2833.345602m. Speed=2.000000m/h.]]></desc>
</trkpt>
<trkpt lat="36.715572" lon="137.752067">
<ele>2832.385459</ele>
<time>2014-08-18T02:52:25Z</time>
<desc><![CDATA[lat.=36.715572, lon.=137.752067, Alt.=2832.385459m. Speed=3.000000m/h.]]></desc>
</trkpt>
<trkpt lat="36.715601" lon="137.752116">
<ele>2831.479752</ele>
<time>2014-08-18T02:52:30Z</time>
<desc><![CDATA[lat.=36.715601, lon.=137.752116, Alt.=2831.479752m. Speed=4.000000m/h.]]></desc>
</trkpt>
<trkpt lat="36.715645" lon="137.752134">
<ele>2829.930684</ele>
<time>2014-08-18T02:52:35Z</time>
<desc><![CDATA[lat.=36.715645, lon.=137.752134, Alt.=2829.930684m. Speed=4.000000m/h.]]></desc>
</trkpt>
<trkpt lat="36.715685" lon="137.752159">
<ele>2830.705196</ele>
<time>2014-08-18T02:52:40Z</time>
<desc><![CDATA[lat.=36.715685, lon.=137.752159, Alt.=2830.705196m. Speed=4.000000m/h.]]></desc>
</trkpt>
<trkpt lat="36.715713" lon="137.752192">
<ele>2829.745067</ele>
<time>2014-08-18T02:52:45Z</time>
<desc><![CDATA[lat.=36.715713, lon.=137.752192, Alt.=2829.745067m. Speed=3.000000m/h.]]></desc>
</trkpt>
<trkpt lat="36.715747" lon="137.752202">
<ele>2828.137118</ele>
<time>2014-08-18T02:52:50Z</time>
<desc><![CDATA[lat.=36.715747, lon.=137.752202, Alt.=2828.137118m. Speed=3.000000m/h.]]></desc>
</trkpt>
<trkpt lat="36.715761" lon="137.752235">
<ele>2825.981303</ele>
<time>2014-08-18T02:52:55Z</time>
<desc><![CDATA[lat.=36.715761, lon.=137.752235, Alt.=2825.981303m. Speed=3.000000m/h.]]></desc>
</trkpt>
<trkpt lat="36.715779" lon="137.752260">
<ele>2824.962289</ele>
<time>2014-08-18T02:53:00Z</time>
<desc><![CDATA[lat.=36.715779, lon.=137.752260, Alt.=2824.962289m. Speed=3.000000m/h.]]></desc>
</trkpt>
<trkpt lat="36.715793" lon="137.752293">
<ele>2824.536664</ele>
<time>2014-08-18T02:53:05Z</time>
<desc><![CDATA[lat.=36.715793, lon.=137.752293, Alt.=2824.536664m. Speed=2.000000m/h.]]></desc>
</trkpt>
<trkpt lat="36.715819" lon="137.752317">
<ele>2824.115499</ele>
<time>2014-08-18T02:53:10Z</time>
<desc><![CDATA[lat.=36.715819, lon.=137.752317, Alt.=2824.115499m. Speed=3.000000m/h.]]></desc>
</trkpt>
<trkpt lat="36.715834" lon="137.752319">
<ele>2821.850817</ele>
<time>2014-08-18T02:53:15Z</time>
<desc><![CDATA[lat.=36.715834, lon.=137.752319, Alt.=2821.850817m. Speed=3.000000m/h.]]></desc>
</trkpt>
<trkpt lat="36.715857" lon="137.752272">
<ele>2821.750863</ele>
<time>2014-08-18T02:53:20Z</time>
<desc><![CDATA[lat.=36.715857, lon.=137.752272, Alt.=2821.750863m. Speed=3.000000m/h.]]></desc>
</trkpt>
<trkpt lat="36.715886" lon="137.752290">
<ele>2820.736313</ele>
<time>2014-08-18T02:53:25Z</time>
<desc><![CDATA[lat.=36.715886, lon.=137.752290, Alt.=2820.736313m. Speed=3.000000m/h.]]></desc>
</trkpt>
<trkpt lat="36.715900" lon="137.752322">
<ele>2820.310692</ele>
<time>2014-08-18T02:53:30Z</time>
<desc><![CDATA[lat.=36.715900, lon.=137.752322, Alt.=2820.310692m. Speed=3.000000m/h.]]></desc>
</trkpt>
<trkpt lat="36.715937" lon="137.752323">
<ele>2821.569745</ele>
<time>2014-08-18T02:53:35Z</time>
<desc><![CDATA[lat.=36.715937, lon.=137.752323, Alt.=2821.569745m. Speed=3.000000m/h.]]></desc>
</trkpt>
<trkpt lat="36.715940" lon="137.752346">
<ele>2822.815417</ele>
<time>2014-08-18T02:53:40Z</time>
<desc><![CDATA[lat.=36.715940, lon.=137.752346, Alt.=2822.815417m. Speed=2.000000m/h.]]></desc>
</trkpt>
<trkpt lat="36.715954" lon="137.752346">
<ele>2824.011113</ele>
<time>2014-08-18T02:53:45Z</time>
<desc><![CDATA[lat.=36.715954, lon.=137.752346, Alt.=2824.011113m. Speed=1.000000m/h.]]></desc>
</trkpt>
<trkpt lat="36.715955" lon="137.752347">
<ele>2822.280926</ele>
<time>2014-08-18T02:53:50Z</time>
<desc><![CDATA[lat.=36.715955, lon.=137.752347, Alt.=2822.280926m. Speed=0.000000m/h.]]></desc>
</trkpt>
<trkpt lat="36.715947" lon="137.752330">
<ele>2823.358829</ele>
<time>2014-08-18T02:53:55Z</time>
<desc><![CDATA[lat.=36.715947, lon.=137.752330, Alt.=2823.358829m. Speed=0.000000m/h.]]></desc>
</trkpt>
<trkpt lat="36.715940" lon="137.752330">
<ele>2822.760980</ele>
<time>2014-08-18T02:54:00Z</time>
<desc><![CDATA[lat.=36.715940, lon.=137.752330, Alt.=2822.760980m. Speed=0.000000m/h.]]></desc>
</trkpt>
<trkpt lat="36.715941" lon="137.752331">
<ele>2821.030793</ele>
<time>2014-08-18T02:54:05Z</time>
<desc><![CDATA[lat.=36.715941, lon.=137.752331, Alt.=2821.030793m. Speed=0.000000m/h.]]></desc>
</trkpt>
<trkpt lat="36.715937" lon="137.752339">
<ele>2821.624181</ele>
<time>2014-08-18T02:54:26Z</time>
<desc><![CDATA[lat.=36.715937, lon.=137.752339, Alt.=2821.624181m. Speed=0.000000m/h.]]></desc>
</trkpt>
<trkpt lat="36.715933" lon="137.752330">
<ele>2822.163132</ele>
<time>2014-08-18T02:54:31Z</time>
<desc><![CDATA[lat.=36.715933, lon.=137.752330, Alt.=2822.163132m. Speed=0.000000m/h.]]></desc>
</trkpt>
<trkpt lat="36.715940" lon="137.752330">
<ele>2822.760980</ele>
<time>2014-08-18T02:54:40Z</time>
<desc><![CDATA[lat.=36.715940, lon.=137.752330, Alt.=2822.760980m. Speed=0.000000m/h.]]></desc>
</trkpt>
<trkpt lat="36.715955" lon="137.752315">
<ele>2822.172054</ele>
<time>2014-08-18T02:54:45Z</time>
<desc><![CDATA[lat.=36.715955, lon.=137.752315, Alt.=2822.172054m. Speed=2.000000m/h.]]></desc>
</trkpt>
<trkpt lat="36.715967" lon="137.752324">
<ele>2820.500763</ele>
<time>2014-08-18T02:54:50Z</time>
<desc><![CDATA[lat.=36.715967, lon.=137.752324, Alt.=2820.500763m. Speed=1.000000m/h.]]></desc>
</trkpt>
<trkpt lat="36.715981" lon="137.752357">
<ele>2820.075146</ele>
<time>2014-08-18T02:54:55Z</time>
<desc><![CDATA[lat.=36.715981, lon.=137.752357, Alt.=2820.075146m. Speed=2.000000m/h.]]></desc>
</trkpt>
<trkpt lat="36.716002" lon="137.752390">
<ele>2818.517193</ele>
<time>2014-08-18T02:55:00Z</time>
<desc><![CDATA[lat.=36.716002, lon.=137.752390, Alt.=2818.517193m. Speed=2.000000m/h.]]></desc>
</trkpt>
<trkpt lat="36.716017" lon="137.752423">
<ele>2816.361393</ele>
<time>2014-08-18T02:55:05Z</time>
<desc><![CDATA[lat.=36.716017, lon.=137.752423, Alt.=2816.361393m. Speed=3.000000m/h.]]></desc>
</trkpt>
<trkpt lat="36.716024" lon="137.752439">
<ele>2815.283493</ele>
<time>2014-08-18T02:55:10Z</time>
<desc><![CDATA[lat.=36.716024, lon.=137.752439, Alt.=2815.283493m. Speed=2.000000m/h.]]></desc>
</trkpt>
<trkpt lat="36.716050" lon="137.752465">
<ele>2813.132157</ele>
<time>2014-08-18T02:55:15Z</time>
<desc><![CDATA[lat.=36.716050, lon.=137.752465, Alt.=2813.132157m. Speed=2.000000m/h.]]></desc>
</trkpt>
<trkpt lat="36.716061" lon="137.752491">
<ele>2809.785123</ele>
<time>2014-08-18T02:55:20Z</time>
<desc><![CDATA[lat.=36.716061, lon.=137.752491, Alt.=2809.785123m. Speed=3.000000m/h.]]></desc>
</trkpt>
<trkpt lat="36.716095" lon="137.752485">
<ele>2808.122761</ele>
<time>2014-08-18T02:55:25Z</time>
<desc><![CDATA[lat.=36.716095, lon.=137.752485, Alt.=2808.122761m. Speed=3.000000m/h.]]></desc>
</trkpt>
<trkpt lat="36.716131" lon="137.752485">
<ele>2809.381827</ele>
<time>2014-08-18T02:55:30Z</time>
<desc><![CDATA[lat.=36.716131, lon.=137.752485, Alt.=2809.381827m. Speed=3.000000m/h.]]></desc>
</trkpt>
<trkpt lat="36.716201" lon="137.752496">
<ele>2809.032980</ele>
<time>2014-08-18T02:55:35Z</time>
<desc><![CDATA[lat.=36.716201, lon.=137.752496, Alt.=2809.032980m. Speed=4.000000m/h.]]></desc>
</trkpt>
<trkpt lat="36.716256" lon="137.752507">
<ele>2807.488437</ele>
<time>2014-08-18T02:55:40Z</time>
<desc><![CDATA[lat.=36.716256, lon.=137.752507, Alt.=2807.488437m. Speed=4.000000m/h.]]></desc>
</trkpt>
<trkpt lat="36.716315" lon="137.752525">
<ele>2807.135141</ele>
<time>2014-08-18T02:55:45Z</time>
<desc><![CDATA[lat.=36.716315, lon.=137.752525, Alt.=2807.135141m. Speed=5.000000m/h.]]></desc>
</trkpt>
<trkpt lat="36.716373" lon="137.752558">
<ele>2806.836291</ele>
<time>2014-08-18T02:55:50Z</time>
<desc><![CDATA[lat.=36.716373, lon.=137.752558, Alt.=2806.836291m. Speed=5.000000m/h.]]></desc>
</trkpt>
<trkpt lat="36.716424" lon="137.752592">
<ele>2805.939595</ele>
<time>2014-08-18T02:55:55Z</time>
<desc><![CDATA[lat.=36.716424, lon.=137.752592, Alt.=2805.939595m. Speed=5.000000m/h.]]></desc>
</trkpt>
<trkpt lat="36.716471" lon="137.752634">
<ele>2805.636292</ele>
<time>2014-08-18T02:56:00Z</time>
<desc><![CDATA[lat.=36.716471, lon.=137.752634, Alt.=2805.636292m. Speed=5.000000m/h.]]></desc>
</trkpt>
<trkpt lat="36.716522" lon="137.752651">
<ele>2806.415353</ele>
<time>2014-08-18T02:56:05Z</time>
<desc><![CDATA[lat.=36.716522, lon.=137.752651, Alt.=2806.415353m. Speed=5.000000m/h.]]></desc>
</trkpt>
<trkpt lat="36.716566" lon="137.752637">
<ele>2806.487677</ele>
<time>2014-08-18T02:56:10Z</time>
<desc><![CDATA[lat.=36.716566, lon.=137.752637, Alt.=2806.487677m. Speed=4.000000m/h.]]></desc>
</trkpt>
<trkpt lat="36.716618" lon="137.752623">
<ele>2807.157864</ele>
<time>2014-08-18T02:56:15Z</time>
<desc><![CDATA[lat.=36.716618, lon.=137.752623, Alt.=2807.157864m. Speed=4.000000m/h.]]></desc>
</trkpt>
<trkpt lat="36.716640" lon="137.752608">
<ele>2807.166809</ele>
<time>2014-08-18T02:56:20Z</time>
<desc><![CDATA[lat.=36.716640, lon.=137.752608, Alt.=2807.166809m. Speed=3.000000m/h.]]></desc>
</trkpt>
<trkpt lat="36.716685" lon="137.752609">
<ele>2807.293586</ele>
<time>2014-08-18T02:56:25Z</time>
<desc><![CDATA[lat.=36.716685, lon.=137.752609, Alt.=2807.293586m. Speed=3.000000m/h.]]></desc>
</trkpt>
<trkpt lat="36.716714" lon="137.752610">
<ele>2807.954835</ele>
<time>2014-08-18T02:56:30Z</time>
<desc><![CDATA[lat.=36.716714, lon.=137.752610, Alt.=2807.954835m. Speed=3.000000m/h.]]></desc>
</trkpt>
<trkpt lat="36.716714" lon="137.752611">
<ele>2806.224648</ele>
<time>2014-08-18T02:56:35Z</time>
<desc><![CDATA[lat.=36.716714, lon.=137.752611, Alt.=2806.224648m. Speed=0.000000m/h.]]></desc>
</trkpt>
<trkpt lat="36.716751" lon="137.752628">
<ele>2805.808013</ele>
<time>2014-08-18T02:56:40Z</time>
<desc><![CDATA[lat.=36.716751, lon.=137.752628, Alt.=2805.808013m. Speed=3.000000m/h.]]></desc>
</trkpt>
<trkpt lat="36.716806" lon="137.752622">
<ele>2805.939276</ele>
<time>2014-08-18T02:56:45Z</time>
<desc><![CDATA[lat.=36.716806, lon.=137.752622, Alt.=2805.939276m. Speed=4.000000m/h.]]></desc>
</trkpt>
<trkpt lat="36.716858" lon="137.752608">
<ele>2806.609487</ele>
<time>2014-08-18T02:56:50Z</time>
<desc><![CDATA[lat.=36.716858, lon.=137.752608, Alt.=2806.609487m. Speed=4.000000m/h.]]></desc>
</trkpt>
<trkpt lat="36.716910" lon="137.752578">
<ele>2805.495076</ele>
<time>2014-08-18T02:56:55Z</time>
<desc><![CDATA[lat.=36.716910, lon.=137.752578, Alt.=2805.495076m. Speed=4.000000m/h.]]></desc>
</trkpt>
<trkpt lat="36.716958" lon="137.752571">
<ele>2806.758680</ele>
<time>2014-08-18T02:57:00Z</time>
<desc><![CDATA[lat.=36.716958, lon.=137.752571, Alt.=2806.758680m. Speed=4.000000m/h.]]></desc>
</trkpt>
<trkpt lat="36.716998" lon="137.752596">
<ele>2807.533306</ele>
<time>2014-08-18T02:57:05Z</time>
<desc><![CDATA[lat.=36.716998, lon.=137.752596, Alt.=2807.533306m. Speed=4.000000m/h.]]></desc>
</trkpt>
<trkpt lat="36.717034" lon="137.752597">
<ele>2808.792436</ele>
<time>2014-08-18T02:57:10Z</time>
<desc><![CDATA[lat.=36.717034, lon.=137.752597, Alt.=2808.792436m. Speed=4.000000m/h.]]></desc>
</trkpt>
<trkpt lat="36.717082" lon="137.752590">
<ele>2810.056051</ele>
<time>2014-08-18T02:57:15Z</time>
<desc><![CDATA[lat.=36.717082, lon.=137.752590, Alt.=2810.056051m. Speed=4.000000m/h.]]></desc>
</trkpt>
<trkpt lat="36.717129" lon="137.752600">
<ele>2809.643926</ele>
<time>2014-08-18T02:57:20Z</time>
<desc><![CDATA[lat.=36.717129, lon.=137.752600, Alt.=2809.643926m. Speed=4.000000m/h.]]></desc>
</trkpt>
<trkpt lat="36.717184" lon="137.752625">
<ele>2811.614297</ele>
<time>2014-08-18T02:57:25Z</time>
<desc><![CDATA[lat.=36.717184, lon.=137.752625, Alt.=2811.614297m. Speed=5.000000m/h.]]></desc>
</trkpt>
<trkpt lat="36.717223" lon="137.752650">
<ele>2812.388942</ele>
<time>2014-08-18T02:57:30Z</time>
<desc><![CDATA[lat.=36.717223, lon.=137.752650, Alt.=2812.388942m. Speed=4.000000m/h.]]></desc>
</trkpt>
<trkpt lat="36.717268" lon="137.752636">
<ele>2812.461328</ele>
<time>2014-08-18T02:57:35Z</time>
<desc><![CDATA[lat.=36.717268, lon.=137.752636, Alt.=2812.461328m. Speed=4.000000m/h.]]></desc>
</trkpt>
<trkpt lat="36.717331" lon="137.752614">
<ele>2813.136072</ele>
<time>2014-08-18T02:57:40Z</time>
<desc><![CDATA[lat.=36.717331, lon.=137.752614, Alt.=2813.136072m. Speed=5.000000m/h.]]></desc>
</trkpt>
<trkpt lat="36.717375" lon="137.752599">
<ele>2813.208467</ele>
<time>2014-08-18T02:57:45Z</time>
<desc><![CDATA[lat.=36.717375, lon.=137.752599, Alt.=2813.208467m. Speed=5.000000m/h.]]></desc>
</trkpt>
<trkpt lat="36.717375" lon="137.752583">
<ele>2814.884213</ele>
<time>2014-08-18T02:57:50Z</time>
<desc><![CDATA[lat.=36.717375, lon.=137.752583, Alt.=2814.884213m. Speed=0.000000m/h.]]></desc>
</trkpt>
<trkpt lat="36.717376" lon="137.752584">
<ele>2813.154027</ele>
<time>2014-08-18T02:57:55Z</time>
<desc><![CDATA[lat.=36.717376, lon.=137.752584, Alt.=2813.154027m. Speed=0.000000m/h.]]></desc>
</trkpt>
<trkpt lat="36.717383" lon="137.752584">
<ele>2813.751895</ele>
<time>2014-08-18T02:58:00Z</time>
<desc><![CDATA[lat.=36.717383, lon.=137.752584, Alt.=2813.751895m. Speed=1.000000m/h.]]></desc>
</trkpt>
<trkpt lat="36.717379" lon="137.752575">
<ele>2814.290834</ele>
<time>2014-08-18T02:58:05Z</time>
<desc><![CDATA[lat.=36.717379, lon.=137.752575, Alt.=2814.290834m. Speed=0.000000m/h.]]></desc>
</trkpt>
<trkpt lat="36.717412" lon="137.752584">
<ele>2814.413183</ele>
<time>2014-08-18T02:58:10Z</time>
<desc><![CDATA[lat.=36.717412, lon.=137.752584, Alt.=2814.413183m. Speed=2.000000m/h.]]></desc>
</trkpt>
<trkpt lat="36.717471" lon="137.752587">
<ele>2814.005579</ele>
<time>2014-08-18T02:58:15Z</time>
<desc><![CDATA[lat.=36.717471, lon.=137.752587, Alt.=2814.005579m. Speed=4.000000m/h.]]></desc>
</trkpt>
<trkpt lat="36.717526" lon="137.752614">
<ele>2810.785429</ele>
<time>2014-08-18T02:58:20Z</time>
<desc><![CDATA[lat.=36.717526, lon.=137.752614, Alt.=2810.785429m. Speed=4.000000m/h.]]></desc>
</trkpt>
<trkpt lat="36.717570" lon="137.752648">
<ele>2809.290978</ele>
<time>2014-08-18T02:58:25Z</time>
<desc><![CDATA[lat.=36.717570, lon.=137.752648, Alt.=2809.290978m. Speed=4.000000m/h.]]></desc>
</trkpt>
<trkpt lat="36.717618" lon="137.752642">
<ele>2808.824456</ele>
<time>2014-08-18T02:58:30Z</time>
<desc><![CDATA[lat.=36.717618, lon.=137.752642, Alt.=2808.824456m. Speed=4.000000m/h.]]></desc>
</trkpt>
<trkpt lat="36.717656" lon="137.752579">
<ele>2809.865868</ele>
<time>2014-08-18T02:58:35Z</time>
<desc><![CDATA[lat.=36.717656, lon.=137.752579, Alt.=2809.865868m. Speed=4.000000m/h.]]></desc>
</trkpt>
<trkpt lat="36.717705" lon="137.752575">
<ele>2805.938983</ele>
<time>2014-08-18T02:58:40Z</time>
<desc><![CDATA[lat.=36.717705, lon.=137.752575, Alt.=2805.938983m. Speed=4.000000m/h.]]></desc>
</trkpt>
<trkpt lat="36.717768" lon="137.752586">
<ele>2803.262291</ele>
<time>2014-08-18T02:58:45Z</time>
<desc><![CDATA[lat.=36.717768, lon.=137.752586, Alt.=2803.262291m. Speed=4.000000m/h.]]></desc>
</trkpt>
<trkpt lat="36.717796" lon="137.752601">
<ele>2807.438413</ele>
<time>2014-08-18T02:58:50Z</time>
<desc><![CDATA[lat.=36.717796, lon.=137.752601, Alt.=2807.438413m. Speed=4.000000m/h.]]></desc>
</trkpt>
<trkpt lat="36.717807" lon="137.752594">
<ele>2807.442911</ele>
<time>2014-08-18T02:58:55Z</time>
<desc><![CDATA[lat.=36.717807, lon.=137.752594, Alt.=2807.442911m. Speed=3.000000m/h.]]></desc>
</trkpt>
<trkpt lat="36.717800" lon="137.752577">
<ele>2808.520782</ele>
<time>2014-08-18T02:59:00Z</time>
<desc><![CDATA[lat.=36.717800, lon.=137.752577, Alt.=2808.520782m. Speed=0.000000m/h.]]></desc>
</trkpt>
<trkpt lat="36.717826" lon="137.752570">
<ele>2807.990844</ele>
<time>2014-08-18T02:59:05Z</time>
<desc><![CDATA[lat.=36.717826, lon.=137.752570, Alt.=2807.990844m. Speed=3.000000m/h.]]></desc>
</trkpt>
<trkpt lat="36.717874" lon="137.752548">
<ele>2807.469908</ele>
<time>2014-08-18T02:59:10Z</time>
<desc><![CDATA[lat.=36.717874, lon.=137.752548, Alt.=2807.469908m. Speed=4.000000m/h.]]></desc>
</trkpt>
<trkpt lat="36.717938" lon="137.752527">
<ele>2806.414543</ele>
<time>2014-08-18T02:59:15Z</time>
<desc><![CDATA[lat.=36.717938, lon.=137.752527, Alt.=2806.414543m. Speed=5.000000m/h.]]></desc>
</trkpt>
<trkpt lat="36.717990" lon="137.752514">
<ele>2805.354683</ele>
<time>2014-08-18T02:59:20Z</time>
<desc><![CDATA[lat.=36.717990, lon.=137.752514, Alt.=2805.354683m. Speed=4.000000m/h.]]></desc>
</trkpt>
<trkpt lat="36.718042" lon="137.752485">
<ele>2804.240391</ele>
<time>2014-08-18T02:59:25Z</time>
<desc><![CDATA[lat.=36.718042, lon.=137.752485, Alt.=2804.240391m. Speed=5.000000m/h.]]></desc>
</trkpt>
<trkpt lat="36.718098" lon="137.752463">
<ele>2804.317356</ele>
<time>2014-08-18T02:59:30Z</time>
<desc><![CDATA[lat.=36.718098, lon.=137.752463, Alt.=2804.317356m. Speed=5.000000m/h.]]></desc>
</trkpt>
<trkpt lat="36.718160" lon="137.752473">
<ele>2803.370895</ele>
<time>2014-08-18T02:59:35Z</time>
<desc><![CDATA[lat.=36.718160, lon.=137.752473, Alt.=2803.370895m. Speed=5.000000m/h.]]></desc>
</trkpt>
<trkpt lat="36.718223" lon="137.752484">
<ele>2802.424442</ele>
<time>2014-08-18T02:59:40Z</time>
<desc><![CDATA[lat.=36.718223, lon.=137.752484, Alt.=2802.424442m. Speed=5.000000m/h.]]></desc>
</trkpt>
<trkpt lat="36.718275" lon="137.752470">
<ele>2803.094797</ele>
<time>2014-08-18T02:59:45Z</time>
<desc><![CDATA[lat.=36.718275, lon.=137.752470, Alt.=2803.094797m. Speed=5.000000m/h.]]></desc>
</trkpt>
<trkpt lat="36.718322" lon="137.752463">
<ele>2804.358528</ele>
<time>2014-08-18T02:59:50Z</time>
<desc><![CDATA[lat.=36.718322, lon.=137.752463, Alt.=2804.358528m. Speed=4.000000m/h.]]></desc>
</trkpt>
<trkpt lat="36.718378" lon="137.752425">
<ele>2804.381087</ele>
<time>2014-08-18T02:59:55Z</time>
<desc><![CDATA[lat.=36.718378, lon.=137.752425, Alt.=2804.381087m. Speed=5.000000m/h.]]></desc>
</trkpt>
<trkpt lat="36.718434" lon="137.752420">
<ele>2802.782340</ele>
<time>2014-08-18T03:00:00Z</time>
<desc><![CDATA[lat.=36.718434, lon.=137.752420, Alt.=2802.782340m. Speed=5.000000m/h.]]></desc>
</trkpt>
<trkpt lat="36.718497" lon="137.752398">
<ele>2803.457233</ele>
<time>2014-08-18T03:00:05Z</time>
<desc><![CDATA[lat.=36.718497, lon.=137.752398, Alt.=2803.457233m. Speed=5.000000m/h.]]></desc>
</trkpt>
<trkpt lat="36.718549" lon="137.752368">
<ele>2804.073181</ele>
<time>2014-08-18T03:00:10Z</time>
<desc><![CDATA[lat.=36.718549, lon.=137.752368, Alt.=2804.073181m. Speed=5.000000m/h.]]></desc>
</trkpt>
<trkpt lat="36.718612" lon="137.752363">
<ele>2803.072339</ele>
<time>2014-08-18T03:00:15Z</time>
<desc><![CDATA[lat.=36.718612, lon.=137.752363, Alt.=2803.072339m. Speed=5.000000m/h.]]></desc>
</trkpt>
<trkpt lat="36.718659" lon="137.752404">
<ele>2802.769223</ele>
<time>2014-08-18T03:00:20Z</time>
<desc><![CDATA[lat.=36.718659, lon.=137.752404, Alt.=2802.769223m. Speed=5.000000m/h.]]></desc>
</trkpt>
<trkpt lat="36.718703" lon="137.752407">
<ele>2801.165987</ele>
<time>2014-08-18T03:00:25Z</time>
<desc><![CDATA[lat.=36.718703, lon.=137.752407, Alt.=2801.165987m. Speed=4.000000m/h.]]></desc>
</trkpt>
<trkpt lat="36.718743" lon="137.752448">
<ele>2800.264994</ele>
<time>2014-08-18T03:00:30Z</time>
<desc><![CDATA[lat.=36.718743, lon.=137.752448, Alt.=2800.264994m. Speed=4.000000m/h.]]></desc>
</trkpt>
<trkpt lat="36.718795" lon="137.752467">
<ele>2797.583905</ele>
<time>2014-08-18T03:00:35Z</time>
<desc><![CDATA[lat.=36.718795, lon.=137.752467, Alt.=2797.583905m. Speed=4.000000m/h.]]></desc>
</trkpt>
<trkpt lat="36.718842" lon="137.752508">
<ele>2797.280811</ele>
<time>2014-08-18T03:00:40Z</time>
<desc><![CDATA[lat.=36.718842, lon.=137.752508, Alt.=2797.280811m. Speed=5.000000m/h.]]></desc>
</trkpt>
<trkpt lat="36.718889" lon="137.752534">
<ele>2796.923285</ele>
<time>2014-08-18T03:00:45Z</time>
<desc><![CDATA[lat.=36.718889, lon.=137.752534, Alt.=2796.923285m. Speed=5.000000m/h.]]></desc>
</trkpt>
<trkpt lat="36.718932" lon="137.752566">
<ele>2798.889316</ele>
<time>2014-08-18T03:00:50Z</time>
<desc><![CDATA[lat.=36.718932, lon.=137.752566, Alt.=2798.889316m. Speed=5.000000m/h.]]></desc>
</trkpt>
<trkpt lat="36.718965" lon="137.752592">
<ele>2797.336019</ele>
<time>2014-08-18T03:00:55Z</time>
<desc><![CDATA[lat.=36.718965, lon.=137.752592, Alt.=2797.336019m. Speed=4.000000m/h.]]></desc>
</trkpt>
<trkpt lat="36.718983" lon="137.752600">
<ele>2797.992872</ele>
<time>2014-08-18T03:01:00Z</time>
<desc><![CDATA[lat.=36.718983, lon.=137.752600, Alt.=2797.992872m. Speed=3.000000m/h.]]></desc>
</trkpt>
<trkpt lat="36.719020" lon="137.752569">
<ele>2799.143265</ele>
<time>2014-08-18T03:01:05Z</time>
<desc><![CDATA[lat.=36.719020, lon.=137.752569, Alt.=2799.143265m. Speed=4.000000m/h.]]></desc>
</trkpt>
<trkpt lat="36.719087" lon="137.752572">
<ele>2797.603551</ele>
<time>2014-08-18T03:01:10Z</time>
<desc><![CDATA[lat.=36.719087, lon.=137.752572, Alt.=2797.603551m. Speed=5.000000m/h.]]></desc>
</trkpt>
<trkpt lat="36.719139" lon="137.752559">
<ele>2794.813622</ele>
<time>2014-08-18T03:01:15Z</time>
<desc><![CDATA[lat.=36.719139, lon.=137.752559, Alt.=2794.813622m. Speed=4.000000m/h.]]></desc>
</trkpt>
<trkpt lat="36.719195" lon="137.752571">
<ele>2791.539211</ele>
<time>2014-08-18T03:01:20Z</time>
<desc><![CDATA[lat.=36.719195, lon.=137.752571, Alt.=2791.539211m. Speed=5.000000m/h.]]></desc>
</trkpt>
<trkpt lat="36.719262" lon="137.752574">
<ele>2789.999520</ele>
<time>2014-08-18T03:01:25Z</time>
<desc><![CDATA[lat.=36.719262, lon.=137.752574, Alt.=2789.999520m. Speed=5.000000m/h.]]></desc>
</trkpt>
<trkpt lat="36.719310" lon="137.752568">
<ele>2789.533157</ele>
<time>2014-08-18T03:01:30Z</time>
<desc><![CDATA[lat.=36.719310, lon.=137.752568, Alt.=2789.533157m. Speed=4.000000m/h.]]></desc>
</trkpt>
<trkpt lat="36.719350" lon="137.752545">
<ele>2791.874833</ele>
<time>2014-08-18T03:01:35Z</time>
<desc><![CDATA[lat.=36.719350, lon.=137.752545, Alt.=2791.874833m. Speed=4.000000m/h.]]></desc>
</trkpt>
<trkpt lat="36.719395" lon="137.752531">
<ele>2790.217219</ele>
<time>2014-08-18T03:01:40Z</time>
<desc><![CDATA[lat.=36.719395, lon.=137.752531, Alt.=2790.217219m. Speed=4.000000m/h.]]></desc>
</trkpt>
<trkpt lat="36.719447" lon="137.752534">
<ele>2787.481759</ele>
<time>2014-08-18T03:01:45Z</time>
<desc><![CDATA[lat.=36.719447, lon.=137.752534, Alt.=2787.481759m. Speed=4.000000m/h.]]></desc>
</trkpt>
<trkpt lat="36.719495" lon="137.752528">
<ele>2787.015413</ele>
<time>2014-08-18T03:01:50Z</time>
<desc><![CDATA[lat.=36.719495, lon.=137.752528, Alt.=2787.015413m. Speed=4.000000m/h.]]></desc>
</trkpt>
<trkpt lat="36.719536" lon="137.752506">
<ele>2785.896736</ele>
<time>2014-08-18T03:01:55Z</time>
<desc><![CDATA[lat.=36.719536, lon.=137.752506, Alt.=2785.896736m. Speed=4.000000m/h.]]></desc>
</trkpt>
<trkpt lat="36.719581" lon="137.752493">
<ele>2784.239139</ele>
<time>2014-08-18T03:02:00Z</time>
<desc><![CDATA[lat.=36.719581, lon.=137.752493, Alt.=2784.239139m. Speed=4.000000m/h.]]></desc>
</trkpt>
<trkpt lat="36.719637" lon="137.752503">
<ele>2782.694958</ele>
<time>2014-08-18T03:02:05Z</time>
<desc><![CDATA[lat.=36.719637, lon.=137.752503, Alt.=2782.694958m. Speed=4.000000m/h.]]></desc>
</trkpt>
<trkpt lat="36.719685" lon="137.752514">
<ele>2780.552884</ele>
<time>2014-08-18T03:02:10Z</time>
<desc><![CDATA[lat.=36.719685, lon.=137.752514, Alt.=2780.552884m. Speed=4.000000m/h.]]></desc>
</trkpt>
<trkpt lat="36.719722" lon="137.752500">
<ele>2780.027582</ele>
<time>2014-08-18T03:02:15Z</time>
<desc><![CDATA[lat.=36.719722, lon.=137.752500, Alt.=2780.027582m. Speed=4.000000m/h.]]></desc>
</trkpt>
<trkpt lat="36.719763" lon="137.752477">
<ele>2780.639108</ele>
<time>2014-08-18T03:02:20Z</time>
<desc><![CDATA[lat.=36.719763, lon.=137.752477, Alt.=2780.639108m. Speed=4.000000m/h.]]></desc>
</trkpt>
<trkpt lat="36.719807" lon="137.752495">
<ele>2779.090404</ele>
<time>2014-08-18T03:02:25Z</time>
<desc><![CDATA[lat.=36.719807, lon.=137.752495, Alt.=2779.090404m. Speed=4.000000m/h.]]></desc>
</trkpt>
<trkpt lat="36.719855" lon="137.752473">
<ele>2778.569656</ele>
<time>2014-08-18T03:02:30Z</time>
<desc><![CDATA[lat.=36.719855, lon.=137.752473, Alt.=2778.569656m. Speed=4.000000m/h.]]></desc>
</trkpt>
<trkpt lat="36.719911" lon="137.752467">
<ele>2778.701252</ele>
<time>2014-08-18T03:02:35Z</time>
<desc><![CDATA[lat.=36.719911, lon.=137.752467, Alt.=2778.701252m. Speed=4.000000m/h.]]></desc>
</trkpt>
<trkpt lat="36.719969" lon="137.752470">
<ele>2778.293933</ele>
<time>2014-08-18T03:02:40Z</time>
<desc><![CDATA[lat.=36.719969, lon.=137.752470, Alt.=2778.293933m. Speed=5.000000m/h.]]></desc>
</trkpt>
<trkpt lat="36.720016" lon="137.752511">
<ele>2777.990946</ele>
<time>2014-08-18T03:02:45Z</time>
<desc><![CDATA[lat.=36.720016, lon.=137.752511, Alt.=2777.990946m. Speed=5.000000m/h.]]></desc>
</trkpt>
<trkpt lat="36.720067" lon="137.752528">
<ele>2778.770354</ele>
<time>2014-08-18T03:02:50Z</time>
<desc><![CDATA[lat.=36.720067, lon.=137.752528, Alt.=2778.770354m. Speed=5.000000m/h.]]></desc>
</trkpt>
<trkpt lat="36.720115" lon="137.752521">
<ele>2780.034250</ele>
<time>2014-08-18T03:02:55Z</time>
<desc><![CDATA[lat.=36.720115, lon.=137.752521, Alt.=2780.034250m. Speed=4.000000m/h.]]></desc>
</trkpt>
<trkpt lat="36.720156" lon="137.752500">
<ele>2778.915623</ele>
<time>2014-08-18T03:03:00Z</time>
<desc><![CDATA[lat.=36.720156, lon.=137.752500, Alt.=2778.915623m. Speed=4.000000m/h.]]></desc>
</trkpt>
<trkpt lat="36.720201" lon="137.752502">
<ele>2777.312516</ele>
<time>2014-08-18T03:03:05Z</time>
<desc><![CDATA[lat.=36.720201, lon.=137.752502, Alt.=2777.312516m. Speed=4.000000m/h.]]></desc>
</trkpt>
<trkpt lat="36.720230" lon="137.752535">
<ele>2776.352654</ele>
<time>2014-08-18T03:03:10Z</time>
<desc><![CDATA[lat.=36.720230, lon.=137.752535, Alt.=2776.352654m. Speed=4.000000m/h.]]></desc>
</trkpt>
<trkpt lat="36.720247" lon="137.752576">
<ele>2775.388243</ele>
<time>2014-08-18T03:03:15Z</time>
<desc><![CDATA[lat.=36.720247, lon.=137.752576, Alt.=2775.388243m. Speed=3.000000m/h.]]></desc>
</trkpt>
<trkpt lat="36.720237" lon="137.752567">
<ele>2775.329254</ele>
<time>2014-08-18T03:03:20Z</time>
<desc><![CDATA[lat.=36.720237, lon.=137.752567, Alt.=2775.329254m. Speed=0.000000m/h.]]></desc>
</trkpt>
<trkpt lat="36.720219" lon="137.752559">
<ele>2774.672356</ele>
<time>2014-08-18T03:03:25Z</time>
<desc><![CDATA[lat.=36.720219, lon.=137.752559, Alt.=2774.672356m. Speed=0.000000m/h.]]></desc>
</trkpt>
<trkpt lat="36.720204" lon="137.752558">
<ele>2775.206724</ele>
<time>2014-08-18T03:03:30Z</time>
<desc><![CDATA[lat.=36.720204, lon.=137.752558, Alt.=2775.206724m. Speed=0.000000m/h.]]></desc>
</trkpt>
<trkpt lat="36.720207" lon="137.752567">
<ele>2774.667805</ele>
<time>2014-08-18T03:03:40Z</time>
<desc><![CDATA[lat.=36.720207, lon.=137.752567, Alt.=2774.667805m. Speed=0.000000m/h.]]></desc>
</trkpt>
<trkpt lat="36.720211" lon="137.752574">
<ele>2775.859070</ele>
<time>2014-08-18T03:03:45Z</time>
<desc><![CDATA[lat.=36.720211, lon.=137.752574, Alt.=2775.859070m. Speed=0.000000m/h.]]></desc>
</trkpt>
<trkpt lat="36.720222" lon="137.752567">
<ele>2775.863621</ele>
<time>2014-08-18T03:03:50Z</time>
<desc><![CDATA[lat.=36.720222, lon.=137.752567, Alt.=2775.863621m. Speed=1.000000m/h.]]></desc>
</trkpt>
<trkpt lat="36.720250" lon="137.752616">
<ele>2774.958202</ele>
<time>2014-08-18T03:03:55Z</time>
<desc><![CDATA[lat.=36.720250, lon.=137.752616, Alt.=2774.958202m. Speed=3.000000m/h.]]></desc>
</trkpt>
<trkpt lat="36.720264" lon="137.752680">
<ele>2772.911410</ele>
<time>2014-08-18T03:04:00Z</time>
<desc><![CDATA[lat.=36.720264, lon.=137.752680, Alt.=2772.911410m. Speed=3.000000m/h.]]></desc>
</trkpt>
<trkpt lat="36.720282" lon="137.752738">
<ele>2770.271265</ele>
<time>2014-08-18T03:04:05Z</time>
<desc><![CDATA[lat.=36.720282, lon.=137.752738, Alt.=2770.271265m. Speed=3.000000m/h.]]></desc>
</trkpt>
<trkpt lat="36.720336" lon="137.752779">
<ele>2770.566230</ele>
<time>2014-08-18T03:04:10Z</time>
<desc><![CDATA[lat.=36.720336, lon.=137.752779, Alt.=2770.566230m. Speed=4.000000m/h.]]></desc>
</trkpt>
<trkpt lat="36.720361" lon="137.752787">
<ele>2771.821044</ele>
<time>2014-08-18T03:04:15Z</time>
<desc><![CDATA[lat.=36.720361, lon.=137.752787, Alt.=2771.821044m. Speed=3.000000m/h.]]></desc>
</trkpt>
<trkpt lat="36.720390" lon="137.752804">
<ele>2772.536944</ele>
<time>2014-08-18T03:04:20Z</time>
<desc><![CDATA[lat.=36.720390, lon.=137.752804, Alt.=2772.536944m. Speed=2.000000m/h.]]></desc>
</trkpt>
<trkpt lat="36.720434" lon="137.752822">
<ele>2770.988301</ele>
<time>2014-08-18T03:04:25Z</time>
<desc><![CDATA[lat.=36.720434, lon.=137.752822, Alt.=2770.988301m. Speed=4.000000m/h.]]></desc>
</trkpt>
<trkpt lat="36.720489" lon="137.752848">
<ele>2769.498659</ele>
<time>2014-08-18T03:04:30Z</time>
<desc><![CDATA[lat.=36.720489, lon.=137.752848, Alt.=2769.498659m. Speed=4.000000m/h.]]></desc>
</trkpt>
<trkpt lat="36.720540" lon="137.752899">
<ele>2766.926643</ele>
<time>2014-08-18T03:04:35Z</time>
<desc><![CDATA[lat.=36.720540, lon.=137.752899, Alt.=2766.926643m. Speed=4.000000m/h.]]></desc>
</trkpt>
<trkpt lat="36.720592" lon="137.752917">
<ele>2765.975928</ele>
<time>2014-08-18T03:04:40Z</time>
<desc><![CDATA[lat.=36.720592, lon.=137.752917, Alt.=2765.975928m. Speed=5.000000m/h.]]></desc>
</trkpt>
<trkpt lat="36.720658" lon="137.752919">
<ele>2766.166602</ele>
<time>2014-08-18T03:04:45Z</time>
<desc><![CDATA[lat.=36.720658, lon.=137.752919, Alt.=2766.166602m. Speed=5.000000m/h.]]></desc>
</trkpt>
<trkpt lat="36.720716" lon="137.752937">
<ele>2765.813814</ele>
<time>2014-08-18T03:04:50Z</time>
<desc><![CDATA[lat.=36.720716, lon.=137.752937, Alt.=2765.813814m. Speed=5.000000m/h.]]></desc>
</trkpt>
<trkpt lat="36.720771" lon="137.752963">
<ele>2766.054389</ele>
<time>2014-08-18T03:04:55Z</time>
<desc><![CDATA[lat.=36.720771, lon.=137.752963, Alt.=2766.054389m. Speed=5.000000m/h.]]></desc>
</trkpt>
<trkpt lat="36.720825" lon="137.753004">
<ele>2766.349417</ele>
<time>2014-08-18T03:05:00Z</time>
<desc><![CDATA[lat.=36.720825, lon.=137.753004, Alt.=2766.349417m. Speed=5.000000m/h.]]></desc>
</trkpt>
<trkpt lat="36.720850" lon="137.753045">
<ele>2765.982968</ele>
<time>2014-08-18T03:05:05Z</time>
<desc><![CDATA[lat.=36.720850, lon.=137.753045, Alt.=2765.982968m. Speed=4.000000m/h.]]></desc>
</trkpt>
<trkpt lat="36.720872" lon="137.753079">
<ele>2762.695065</ele>
<time>2014-08-18T03:05:10Z</time>
<desc><![CDATA[lat.=36.720872, lon.=137.753079, Alt.=2762.695065m. Speed=4.000000m/h.]]></desc>
</trkpt>
<trkpt lat="36.720926" lon="137.753120">
<ele>2762.990109</ele>
<time>2014-08-18T03:05:15Z</time>
<desc><![CDATA[lat.=36.720926, lon.=137.753120, Alt.=2762.990109m. Speed=3.000000m/h.]]></desc>
</trkpt>
<trkpt lat="36.720959" lon="137.753129">
<ele>2763.112691</ele>
<time>2014-08-18T03:05:20Z</time>
<desc><![CDATA[lat.=36.720959, lon.=137.753129, Alt.=2763.112691m. Speed=3.000000m/h.]]></desc>
</trkpt>
<trkpt lat="36.720963" lon="137.753105">
<ele>2764.195069</ele>
<time>2014-08-18T03:05:25Z</time>
<desc><![CDATA[lat.=36.720963, lon.=137.753105, Alt.=2764.195069m. Speed=2.000000m/h.]]></desc>
</trkpt>
<trkpt lat="36.720981" lon="137.753113">
<ele>2764.851999</ele>
<time>2014-08-18T03:05:30Z</time>
<desc><![CDATA[lat.=36.720981, lon.=137.753113, Alt.=2764.851999m. Speed=2.000000m/h.]]></desc>
</trkpt>
<trkpt lat="36.720985" lon="137.753138">
<ele>2762.637357</ele>
<time>2014-08-18T03:05:35Z</time>
<desc><![CDATA[lat.=36.720985, lon.=137.753138, Alt.=2762.637357m. Speed=0.000000m/h.]]></desc>
</trkpt>
<trkpt lat="36.720989" lon="137.753131">
<ele>2762.044000</ele>
<time>2014-08-18T03:05:41Z</time>
<desc><![CDATA[lat.=36.720989, lon.=137.753131, Alt.=2762.044000m. Speed=0.000000m/h.]]></desc>
</trkpt>
<trkpt lat="36.720982" lon="137.753131">
<ele>2761.446082</ele>
<time>2014-08-18T03:05:49Z</time>
<desc><![CDATA[lat.=36.720982, lon.=137.753131, Alt.=2761.446082m. Speed=0.000000m/h.]]></desc>
</trkpt>
<trkpt lat="36.720989" lon="137.753132">
<ele>2760.313818</ele>
<time>2014-08-18T03:05:54Z</time>
<desc><![CDATA[lat.=36.720989, lon.=137.753132, Alt.=2760.313818m. Speed=0.000000m/h.]]></desc>
</trkpt>
<trkpt lat="36.720982" lon="137.753132">
<ele>2759.715899</ele>
<time>2014-08-18T03:06:00Z</time>
<desc><![CDATA[lat.=36.720982, lon.=137.753132, Alt.=2759.715899m. Speed=0.000000m/h.]]></desc>
</trkpt>
<trkpt lat="36.720986" lon="137.753124">
<ele>2759.122543</ele>
<time>2014-08-18T03:06:06Z</time>
<desc><![CDATA[lat.=36.720986, lon.=137.753124, Alt.=2759.122543m. Speed=0.000000m/h.]]></desc>
</trkpt>
<trkpt lat="36.720978" lon="137.753123">
<ele>2760.254807</ele>
<time>2014-08-18T03:06:11Z</time>
<desc><![CDATA[lat.=36.720978, lon.=137.753123, Alt.=2760.254807m. Speed=0.000000m/h.]]></desc>
</trkpt>
<trkpt lat="36.720982" lon="137.753116">
<ele>2759.661450</ele>
<time>2014-08-18T03:06:20Z</time>
<desc><![CDATA[lat.=36.720982, lon.=137.753116, Alt.=2759.661450m. Speed=0.000000m/h.]]></desc>
</trkpt>
<trkpt lat="36.720986" lon="137.753123">
<ele>2760.852725</ele>
<time>2014-08-18T03:06:25Z</time>
<desc><![CDATA[lat.=36.720986, lon.=137.753123, Alt.=2760.852725m. Speed=0.000000m/h.]]></desc>
</trkpt>
<trkpt lat="36.720982" lon="137.753115">
<ele>2761.391633</ele>
<time>2014-08-18T03:06:30Z</time>
<desc><![CDATA[lat.=36.720982, lon.=137.753115, Alt.=2761.391633m. Speed=0.000000m/h.]]></desc>
</trkpt>
<trkpt lat="36.720982" lon="137.753116">
<ele>2759.661450</ele>
<time>2014-08-18T03:06:37Z</time>
<desc><![CDATA[lat.=36.720982, lon.=137.753116, Alt.=2759.661450m. Speed=0.000000m/h.]]></desc>
</trkpt>
<trkpt lat="36.720975" lon="137.753116">
<ele>2759.063532</ele>
<time>2014-08-18T03:06:50Z</time>
<desc><![CDATA[lat.=36.720975, lon.=137.753116, Alt.=2759.063532m. Speed=0.000000m/h.]]></desc>
</trkpt>
<trkpt lat="36.720982" lon="137.753116">
<ele>2759.661450</ele>
<time>2014-08-18T03:06:55Z</time>
<desc><![CDATA[lat.=36.720982, lon.=137.753116, Alt.=2759.661450m. Speed=0.000000m/h.]]></desc>
</trkpt>
<trkpt lat="36.720978" lon="137.753123">
<ele>2760.254807</ele>
<time>2014-08-18T03:07:05Z</time>
<desc><![CDATA[lat.=36.720978, lon.=137.753123, Alt.=2760.254807m. Speed=0.000000m/h.]]></desc>
</trkpt>
<trkpt lat="36.720975" lon="137.753115">
<ele>2760.793714</ele>
<time>2014-08-18T03:07:10Z</time>
<desc><![CDATA[lat.=36.720975, lon.=137.753115, Alt.=2760.793714m. Speed=0.000000m/h.]]></desc>
</trkpt>
<trkpt lat="36.720978" lon="137.753123">
<ele>2760.254807</ele>
<time>2014-08-18T03:07:21Z</time>
<desc><![CDATA[lat.=36.720978, lon.=137.753123, Alt.=2760.254807m. Speed=0.000000m/h.]]></desc>
</trkpt>
<trkpt lat="36.720982" lon="137.753132">
<ele>2759.715899</ele>
<time>2014-08-18T03:07:26Z</time>
<desc><![CDATA[lat.=36.720982, lon.=137.753132, Alt.=2759.715899m. Speed=0.000000m/h.]]></desc>
</trkpt>
<trkpt lat="36.720978" lon="137.753123">
<ele>2760.254807</ele>
<time>2014-08-18T03:07:48Z</time>
<desc><![CDATA[lat.=36.720978, lon.=137.753123, Alt.=2760.254807m. Speed=0.000000m/h.]]></desc>
</trkpt>
<trkpt lat="36.720971" lon="137.753123">
<ele>2759.656888</ele>
<time>2014-08-18T03:08:49Z</time>
<desc><![CDATA[lat.=36.720971, lon.=137.753123, Alt.=2759.656888m. Speed=0.000000m/h.]]></desc>
</trkpt>
<trkpt lat="36.720975" lon="137.753116">
<ele>2759.063532</ele>
<time>2014-08-18T03:08:59Z</time>
<desc><![CDATA[lat.=36.720975, lon.=137.753116, Alt.=2759.063532m. Speed=0.000000m/h.]]></desc>
</trkpt>
<trkpt lat="36.720972" lon="137.753107">
<ele>2759.602440</ele>
<time>2014-08-18T03:09:15Z</time>
<desc><![CDATA[lat.=36.720972, lon.=137.753107, Alt.=2759.602440m. Speed=0.000000m/h.]]></desc>
</trkpt>
<trkpt lat="36.720976" lon="137.753100">
<ele>2759.009084</ele>
<time>2014-08-18T03:09:20Z</time>
<desc><![CDATA[lat.=36.720976, lon.=137.753100, Alt.=2759.009084m. Speed=0.000000m/h.]]></desc>
</trkpt>
<trkpt lat="36.720980" lon="137.753092">
<ele>2758.415728</ele>
<time>2014-08-18T03:09:25Z</time>
<desc><![CDATA[lat.=36.720980, lon.=137.753092, Alt.=2758.415728m. Speed=0.000000m/h.]]></desc>
</trkpt>
<trkpt lat="36.720987" lon="137.753092">
<ele>2759.013646</ele>
<time>2014-08-18T03:09:34Z</time>
<desc><![CDATA[lat.=36.720987, lon.=137.753092, Alt.=2759.013646m. Speed=0.000000m/h.]]></desc>
</trkpt>
<trkpt lat="36.720987" lon="137.753093">
<ele>2757.283464</ele>
<time>2014-08-18T03:09:39Z</time>
<desc><![CDATA[lat.=36.720987, lon.=137.753093, Alt.=2757.283464m. Speed=0.000000m/h.]]></desc>
</trkpt>
<trkpt lat="36.720991" lon="137.753101">
<ele>2756.744556</ele>
<time>2014-08-18T03:09:44Z</time>
<desc><![CDATA[lat.=36.720991, lon.=137.753101, Alt.=2756.744556m. Speed=0.000000m/h.]]></desc>
</trkpt>
<trkpt lat="36.720987" lon="137.753093">
<ele>2757.283464</ele>
<time>2014-08-18T03:09:49Z</time>
<desc><![CDATA[lat.=36.720987, lon.=137.753093, Alt.=2757.283464m. Speed=0.000000m/h.]]></desc>
</trkpt>
<trkpt lat="36.721002" lon="137.753078">
<ele>2756.694671</ele>
<time>2014-08-18T03:09:54Z</time>
<desc><![CDATA[lat.=36.721002, lon.=137.753078, Alt.=2756.694671m. Speed=0.000000m/h.]]></desc>
</trkpt>
<trkpt lat="36.721006" lon="137.753070">
<ele>2757.831498</ele>
<time>2014-08-18T03:09:59Z</time>
<desc><![CDATA[lat.=36.721006, lon.=137.753070, Alt.=2757.831498m. Speed=0.000000m/h.]]></desc>
</trkpt>
<trkpt lat="36.721006" lon="137.753086">
<ele>2757.885946</ele>
<time>2014-08-18T03:10:04Z</time>
<desc><![CDATA[lat.=36.721006, lon.=137.753086, Alt.=2757.885946m. Speed=0.000000m/h.]]></desc>
</trkpt>
<trkpt lat="36.720995" lon="137.753077">
<ele>2757.826935</ele>
<time>2014-08-18T03:10:09Z</time>
<desc><![CDATA[lat.=36.720995, lon.=137.753077, Alt.=2757.826935m. Speed=0.000000m/h.]]></desc>
</trkpt>
<trkpt lat="36.720991" lon="137.753085">
<ele>2758.420291</ele>
<time>2014-08-18T03:10:14Z</time>
<desc><![CDATA[lat.=36.720991, lon.=137.753085, Alt.=2758.420291m. Speed=0.000000m/h.]]></desc>
</trkpt>
<trkpt lat="36.720987" lon="137.753077">
<ele>2758.959199</ele>
<time>2014-08-18T03:10:19Z</time>
<desc><![CDATA[lat.=36.720987, lon.=137.753077, Alt.=2758.959199m. Speed=0.000000m/h.]]></desc>
</trkpt>
<trkpt lat="36.720991" lon="137.753085">
<ele>2758.420291</ele>
<time>2014-08-18T03:10:27Z</time>
<desc><![CDATA[lat.=36.720991, lon.=137.753085, Alt.=2758.420291m. Speed=0.000000m/h.]]></desc>
</trkpt>
<trkpt lat="36.720987" lon="137.753092">
<ele>2759.013646</ele>
<time>2014-08-18T03:10:32Z</time>
<desc><![CDATA[lat.=36.720987, lon.=137.753092, Alt.=2759.013646m. Speed=0.000000m/h.]]></desc>
</trkpt>
<trkpt lat="36.720990" lon="137.753116">
<ele>2758.529186</ele>
<time>2014-08-18T03:10:37Z</time>
<desc><![CDATA[lat.=36.720990, lon.=137.753116, Alt.=2758.529186m. Speed=0.000000m/h.]]></desc>
</trkpt>
<trkpt lat="36.720997" lon="137.753116">
<ele>2759.127105</ele>
<time>2014-08-18T03:10:42Z</time>
<desc><![CDATA[lat.=36.720997, lon.=137.753116, Alt.=2759.127105m. Speed=0.000000m/h.]]></desc>
</trkpt>
<trkpt lat="36.720990" lon="137.753116">
<ele>2760.259369</ele>
<time>2014-08-18T03:11:30Z</time>
<desc><![CDATA[lat.=36.720990, lon.=137.753116, Alt.=2760.259369m. Speed=0.000000m/h.]]></desc>
</trkpt>
<trkpt lat="36.720997" lon="137.753116">
<ele>2760.857288</ele>
<time>2014-08-18T03:11:38Z</time>
<desc><![CDATA[lat.=36.720997, lon.=137.753116, Alt.=2760.857288m. Speed=1.000000m/h.]]></desc>
</trkpt>
<trkpt lat="36.721026" lon="137.753132">
<ele>2761.573230</ele>
<time>2014-08-18T03:11:43Z</time>
<desc><![CDATA[lat.=36.721026, lon.=137.753132, Alt.=2761.573230m. Speed=2.000000m/h.]]></desc>
</trkpt>
<trkpt lat="36.721051" lon="137.753156">
<ele>2762.882530</ele>
<time>2014-08-18T03:11:48Z</time>
<desc><![CDATA[lat.=36.721051, lon.=137.753156, Alt.=2762.882530m. Speed=3.000000m/h.]]></desc>
</trkpt>
<trkpt lat="36.721044" lon="137.753174">
<ele>2758.878695</ele>
<time>2014-08-18T03:11:53Z</time>
<desc><![CDATA[lat.=36.721044, lon.=137.753174, Alt.=2758.878695m. Speed=3.000000m/h.]]></desc>
</trkpt>
<trkpt lat="36.721040" lon="137.753182">
<ele>2757.741868</ele>
<time>2014-08-18T03:11:58Z</time>
<desc><![CDATA[lat.=36.721040, lon.=137.753182, Alt.=2757.741868m. Speed=2.000000m/h.]]></desc>
</trkpt>
<trkpt lat="36.721040" lon="137.753181">
<ele>2759.472051</ele>
<time>2014-08-18T03:12:03Z</time>
<desc><![CDATA[lat.=36.721040, lon.=137.753181, Alt.=2759.472051m. Speed=0.000000m/h.]]></desc>
</trkpt>
<trkpt lat="36.721047" lon="137.753181">
<ele>2760.069970</ele>
<time>2014-08-18T03:12:08Z</time>
<desc><![CDATA[lat.=36.721047, lon.=137.753181, Alt.=2760.069970m. Speed=0.000000m/h.]]></desc>
</trkpt>
<trkpt lat="36.721043" lon="137.753173">
<ele>2760.608877</ele>
<time>2014-08-18T03:12:13Z</time>
<desc><![CDATA[lat.=36.721043, lon.=137.753173, Alt.=2760.608877m. Speed=0.000000m/h.]]></desc>
</trkpt>
<trkpt lat="36.721047" lon="137.753165">
<ele>2760.015521</ele>
<time>2014-08-18T03:12:18Z</time>
<desc><![CDATA[lat.=36.721047, lon.=137.753165, Alt.=2760.015521m. Speed=1.000000m/h.]]></desc>
</trkpt>
<trkpt lat="36.720997" lon="137.753132">
<ele>2759.181554</ele>
<time>2014-08-18T03:12:23Z</time>
<desc><![CDATA[lat.=36.720997, lon.=137.753132, Alt.=2759.181554m. Speed=3.000000m/h.]]></desc>
</trkpt>
<trkpt lat="36.720979" lon="137.753124">
<ele>2758.524624</ele>
<time>2014-08-18T03:12:28Z</time>
<desc><![CDATA[lat.=36.720979, lon.=137.753124, Alt.=2758.524624m. Speed=2.000000m/h.]]></desc>
</trkpt>
<trkpt lat="36.720954" lon="137.753067">
<ele>2760.566798</ele>
<time>2014-08-18T03:12:33Z</time>
<desc><![CDATA[lat.=36.720954, lon.=137.753067, Alt.=2760.566798m. Speed=3.000000m/h.]]></desc>
</trkpt>
<trkpt lat="36.720958" lon="137.753059">
<ele>2759.973443</ele>
<time>2014-08-18T03:12:38Z</time>
<desc><![CDATA[lat.=36.720958, lon.=137.753059, Alt.=2759.973443m. Speed=2.000000m/h.]]></desc>
</trkpt>
<trkpt lat="36.720954" lon="137.753051">
<ele>2760.512351</ele>
<time>2014-08-18T03:12:43Z</time>
<desc><![CDATA[lat.=36.720954, lon.=137.753051, Alt.=2760.512351m. Speed=0.000000m/h.]]></desc>
</trkpt>
<trkpt lat="36.720976" lon="137.753083">
<ele>2760.684819</ele>
<time>2014-08-18T03:12:48Z</time>
<desc><![CDATA[lat.=36.720976, lon.=137.753083, Alt.=2760.684819m. Speed=2.000000m/h.]]></desc>
</trkpt>
<trkpt lat="36.720968" lon="137.753083">
<ele>2760.086900</ele>
<time>2014-08-18T03:12:53Z</time>
<desc><![CDATA[lat.=36.720968, lon.=137.753083, Alt.=2760.086900m. Speed=0.000000m/h.]]></desc>
</trkpt>
<trkpt lat="36.720973" lon="137.753077">
<ele>2757.763361</ele>
<time>2014-08-18T03:12:58Z</time>
<desc><![CDATA[lat.=36.720973, lon.=137.753077, Alt.=2757.763361m. Speed=0.000000m/h.]]></desc>
</trkpt>
<trkpt lat="36.720977" lon="137.753069">
<ele>2757.170006</ele>
<time>2014-08-18T03:13:03Z</time>
<desc><![CDATA[lat.=36.720977, lon.=137.753069, Alt.=2757.170006m. Speed=0.000000m/h.]]></desc>
</trkpt>
<trkpt lat="36.720984" lon="137.753086">
<ele>2756.092189</ele>
<time>2014-08-18T03:13:08Z</time>
<desc><![CDATA[lat.=36.720984, lon.=137.753086, Alt.=2756.092189m. Speed=0.000000m/h.]]></desc>
</trkpt>
<trkpt lat="36.720980" lon="137.753077">
<ele>2756.631097</ele>
<time>2014-08-18T03:13:13Z</time>
<desc><![CDATA[lat.=36.720980, lon.=137.753077, Alt.=2756.631097m. Speed=0.000000m/h.]]></desc>
</trkpt>
<trkpt lat="36.720977" lon="137.753070">
<ele>2755.439823</ele>
<time>2014-08-18T03:13:18Z</time>
<desc><![CDATA[lat.=36.720977, lon.=137.753070, Alt.=2755.439823m. Speed=0.000000m/h.]]></desc>
</trkpt>
<trkpt lat="36.720981" lon="137.753078">
<ele>2754.900914</ele>
<time>2014-08-18T03:13:23Z</time>
<desc><![CDATA[lat.=36.720981, lon.=137.753078, Alt.=2754.900914m. Speed=0.000000m/h.]]></desc>
</trkpt>
<trkpt lat="36.720980" lon="137.753077">
<ele>2756.631097</ele>
<time>2014-08-18T03:13:28Z</time>
<desc><![CDATA[lat.=36.720980, lon.=137.753077, Alt.=2756.631097m. Speed=0.000000m/h.]]></desc>
</trkpt>
<trkpt lat="36.720980" lon="137.753077">
<ele>2758.361280</ele>
<time>2014-08-18T03:13:33Z</time>
<desc><![CDATA[lat.=36.720980, lon.=137.753077, Alt.=2758.361280m. Speed=0.000000m/h.]]></desc>
</trkpt>
<trkpt lat="36.720958" lon="137.753059">
<ele>2759.973443</ele>
<time>2014-08-18T03:13:38Z</time>
<desc><![CDATA[lat.=36.720958, lon.=137.753059, Alt.=2759.973443m. Speed=2.000000m/h.]]></desc>
</trkpt>
<trkpt lat="36.720951" lon="137.753027">
<ele>2760.996813</ele>
<time>2014-08-18T03:13:43Z</time>
<desc><![CDATA[lat.=36.720951, lon.=137.753027, Alt.=2760.996813m. Speed=2.000000m/h.]]></desc>
</trkpt>
<trkpt lat="36.720947" lon="137.753034">
<ele>2761.590169</ele>
<time>2014-08-18T03:13:49Z</time>
<desc><![CDATA[lat.=36.720947, lon.=137.753034, Alt.=2761.590169m. Speed=0.000000m/h.]]></desc>
</trkpt>
<trkpt lat="36.720947" lon="137.753035">
<ele>2759.859986</ele>
<time>2014-08-18T03:13:54Z</time>
<desc><![CDATA[lat.=36.720947, lon.=137.753035, Alt.=2759.859986m. Speed=0.000000m/h.]]></desc>
</trkpt>
<trkpt lat="36.720944" lon="137.753027">
<ele>2760.398895</ele>
<time>2014-08-18T03:14:03Z</time>
<desc><![CDATA[lat.=36.720944, lon.=137.753027, Alt.=2760.398895m. Speed=0.000000m/h.]]></desc>
</trkpt>
<trkpt lat="36.720947" lon="137.753035">
<ele>2759.859986</ele>
<time>2014-08-18T03:14:08Z</time>
<desc><![CDATA[lat.=36.720947, lon.=137.753035, Alt.=2759.859986m. Speed=0.000000m/h.]]></desc>
</trkpt>
<trkpt lat="36.720940" lon="137.753035">
<ele>2759.262068</ele>
<time>2014-08-18T03:14:13Z</time>
<desc><![CDATA[lat.=36.720940, lon.=137.753035, Alt.=2759.262068m. Speed=0.000000m/h.]]></desc>
</trkpt>
<trkpt lat="36.720947" lon="137.753035">
<ele>2759.859986</ele>
<time>2014-08-18T03:14:18Z</time>
<desc><![CDATA[lat.=36.720947, lon.=137.753035, Alt.=2759.859986m. Speed=0.000000m/h.]]></desc>
</trkpt>
<trkpt lat="36.720944" lon="137.753028">
<ele>2758.668712</ele>
<time>2014-08-18T03:14:28Z</time>
<desc><![CDATA[lat.=36.720944, lon.=137.753028, Alt.=2758.668712m. Speed=0.000000m/h.]]></desc>
</trkpt>
<trkpt lat="36.720944" lon="137.753043">
<ele>2758.723159</ele>
<time>2014-08-18T03:14:33Z</time>
<desc><![CDATA[lat.=36.720944, lon.=137.753043, Alt.=2758.723159m. Speed=0.000000m/h.]]></desc>
</trkpt>
<trkpt lat="36.720950" lon="137.753058">
<ele>2761.105707</ele>
<time>2014-08-18T03:14:38Z</time>
<desc><![CDATA[lat.=36.720950, lon.=137.753058, Alt.=2761.105707m. Speed=2.000000m/h.]]></desc>
</trkpt>
<trkpt lat="36.720964" lon="137.753074">
<ele>2762.355991</ele>
<time>2014-08-18T03:14:43Z</time>
<desc><![CDATA[lat.=36.720964, lon.=137.753074, Alt.=2762.355991m. Speed=0.000000m/h.]]></desc>
</trkpt>
<trkpt lat="36.720971" lon="137.753074">
<ele>2764.684092</ele>
<time>2014-08-18T03:14:48Z</time>
<desc><![CDATA[lat.=36.720971, lon.=137.753074, Alt.=2764.684092m. Speed=0.000000m/h.]]></desc>
</trkpt>
<trkpt lat="36.720978" lon="137.753074">
<ele>2765.282011</ele>
<time>2014-08-18T03:14:53Z</time>
<desc><![CDATA[lat.=36.720978, lon.=137.753074, Alt.=2765.282011m. Speed=0.000000m/h.]]></desc>
</trkpt>
<trkpt lat="36.720978" lon="137.753089">
<ele>2765.336459</ele>
<time>2014-08-18T03:14:58Z</time>
<desc><![CDATA[lat.=36.720978, lon.=137.753089, Alt.=2765.336459m. Speed=0.000000m/h.]]></desc>
</trkpt>
<trkpt lat="36.720982" lon="137.753098">
<ele>2764.797551</ele>
<time>2014-08-18T03:15:03Z</time>
<desc><![CDATA[lat.=36.720982, lon.=137.753098, Alt.=2764.797551m. Speed=0.000000m/h.]]></desc>
</trkpt>
<trkpt lat="36.720978" lon="137.753090">
<ele>2763.606276</ele>
<time>2014-08-18T03:15:08Z</time>
<desc><![CDATA[lat.=36.720978, lon.=137.753090, Alt.=2763.606276m. Speed=0.000000m/h.]]></desc>
</trkpt>
<trkpt lat="36.720979" lon="137.753091">
<ele>2761.876093</ele>
<time>2014-08-18T03:15:13Z</time>
<desc><![CDATA[lat.=36.720979, lon.=137.753091, Alt.=2761.876093m. Speed=0.000000m/h.]]></desc>
</trkpt>
<trkpt lat="36.720982" lon="137.753099">
<ele>2761.337185</ele>
<time>2014-08-18T03:15:19Z</time>
<desc><![CDATA[lat.=36.720982, lon.=137.753099, Alt.=2761.337185m. Speed=0.000000m/h.]]></desc>
</trkpt>
<trkpt lat="36.720986" lon="137.753091">
<ele>2762.474012</ele>
<time>2014-08-18T03:15:24Z</time>
<desc><![CDATA[lat.=36.720986, lon.=137.753091, Alt.=2762.474012m. Speed=0.000000m/h.]]></desc>
</trkpt>
<trkpt lat="36.720982" lon="137.753083">
<ele>2763.012920</ele>
<time>2014-08-18T03:15:29Z</time>
<desc><![CDATA[lat.=36.720982, lon.=137.753083, Alt.=2763.012920m. Speed=0.000000m/h.]]></desc>
</trkpt>
<trkpt lat="36.720975" lon="137.753083">
<ele>2762.415001</ele>
<time>2014-08-18T03:15:34Z</time>
<desc><![CDATA[lat.=36.720975, lon.=137.753083, Alt.=2762.415001m. Speed=0.000000m/h.]]></desc>
</trkpt>
<trkpt lat="36.720971" lon="137.753090">
<ele>2763.008357</ele>
<time>2014-08-18T03:15:50Z</time>
<desc><![CDATA[lat.=36.720971, lon.=137.753090, Alt.=2763.008357m. Speed=0.000000m/h.]]></desc>
</trkpt>
<trkpt lat="36.720975" lon="137.753083">
<ele>2762.415001</ele>
<time>2014-08-18T03:15:56Z</time>
<desc><![CDATA[lat.=36.720975, lon.=137.753083, Alt.=2762.415001m. Speed=0.000000m/h.]]></desc>
</trkpt>
<trkpt lat="36.720971" lon="137.753090">
<ele>2763.008357</ele>
<time>2014-08-18T03:16:01Z</time>
<desc><![CDATA[lat.=36.720971, lon.=137.753090, Alt.=2763.008357m. Speed=0.000000m/h.]]></desc>
</trkpt>
<trkpt lat="36.720975" lon="137.753098">
<ele>2762.469449</ele>
<time>2014-08-18T03:16:07Z</time>
<desc><![CDATA[lat.=36.720975, lon.=137.753098, Alt.=2762.469449m. Speed=0.000000m/h.]]></desc>
</trkpt>
<trkpt lat="36.720971" lon="137.753090">
<ele>2763.008357</ele>
<time>2014-08-18T03:16:12Z</time>
<desc><![CDATA[lat.=36.720971, lon.=137.753090, Alt.=2763.008357m. Speed=0.000000m/h.]]></desc>
</trkpt>
<trkpt lat="36.720978" lon="137.753090">
<ele>2763.606276</ele>
<time>2014-08-18T03:16:24Z</time>
<desc><![CDATA[lat.=36.720978, lon.=137.753090, Alt.=2763.606276m. Speed=0.000000m/h.]]></desc>
</trkpt>
<trkpt lat="36.720971" lon="137.753090">
<ele>2763.008357</ele>
<time>2014-08-18T03:16:45Z</time>
<desc><![CDATA[lat.=36.720971, lon.=137.753090, Alt.=2763.008357m. Speed=0.000000m/h.]]></desc>
</trkpt>
<trkpt lat="36.720978" lon="137.753090">
<ele>2763.606276</ele>
<time>2014-08-18T03:16:50Z</time>
<desc><![CDATA[lat.=36.720978, lon.=137.753090, Alt.=2763.606276m. Speed=0.000000m/h.]]></desc>
</trkpt>
<trkpt lat="36.720975" lon="137.753098">
<ele>2762.469449</ele>
<time>2014-08-18T03:16:55Z</time>
<desc><![CDATA[lat.=36.720975, lon.=137.753098, Alt.=2762.469449m. Speed=0.000000m/h.]]></desc>
</trkpt>
<trkpt lat="36.720971" lon="137.753090">
<ele>2763.008357</ele>
<time>2014-08-18T03:17:00Z</time>
<desc><![CDATA[lat.=36.720971, lon.=137.753090, Alt.=2763.008357m. Speed=0.000000m/h.]]></desc>
</trkpt>
<trkpt lat="36.720979" lon="137.753091">
<ele>2761.876093</ele>
<time>2014-08-18T03:17:05Z</time>
<desc><![CDATA[lat.=36.720979, lon.=137.753091, Alt.=2761.876093m. Speed=0.000000m/h.]]></desc>
</trkpt>
<trkpt lat="36.720982" lon="137.753099">
<ele>2761.337185</ele>
<time>2014-08-18T03:17:17Z</time>
<desc><![CDATA[lat.=36.720982, lon.=137.753099, Alt.=2761.337185m. Speed=0.000000m/h.]]></desc>
</trkpt>
<trkpt lat="36.720986" lon="137.753107">
<ele>2760.798277</ele>
<time>2014-08-18T03:17:35Z</time>
<desc><![CDATA[lat.=36.720986, lon.=137.753107, Alt.=2760.798277m. Speed=0.000000m/h.]]></desc>
</trkpt>
<trkpt lat="36.720979" lon="137.753107">
<ele>2760.200358</ele>
<time>2014-08-18T03:17:47Z</time>
<desc><![CDATA[lat.=36.720979, lon.=137.753107, Alt.=2760.200358m. Speed=0.000000m/h.]]></desc>
</trkpt>
<trkpt lat="36.720982" lon="137.753115">
<ele>2761.391633</ele>
<time>2014-08-18T03:17:53Z</time>
<desc><![CDATA[lat.=36.720982, lon.=137.753115, Alt.=2761.391633m. Speed=0.000000m/h.]]></desc>
</trkpt>
<trkpt lat="36.720975" lon="137.753115">
<ele>2760.793714</ele>
<time>2014-08-18T03:18:01Z</time>
<desc><![CDATA[lat.=36.720975, lon.=137.753115, Alt.=2760.793714m. Speed=0.000000m/h.]]></desc>
</trkpt>
<trkpt lat="36.720986" lon="137.753107">
<ele>2760.798277</ele>
<time>2014-08-18T03:18:06Z</time>
<desc><![CDATA[lat.=36.720986, lon.=137.753107, Alt.=2760.798277m. Speed=0.000000m/h.]]></desc>
</trkpt>
<trkpt lat="36.720982" lon="137.753099">
<ele>2761.337185</ele>
<time>2014-08-18T03:18:19Z</time>
<desc><![CDATA[lat.=36.720982, lon.=137.753099, Alt.=2761.337185m. Speed=0.000000m/h.]]></desc>
</trkpt>
<trkpt lat="36.720968" lon="137.753067">
<ele>2761.762635</ele>
<time>2014-08-18T03:18:24Z</time>
<desc><![CDATA[lat.=36.720968, lon.=137.753067, Alt.=2761.762635m. Speed=2.000000m/h.]]></desc>
</trkpt>
<trkpt lat="36.720951" lon="137.753026">
<ele>2762.726996</ele>
<time>2014-08-18T03:18:29Z</time>
<desc><![CDATA[lat.=36.720951, lon.=137.753026, Alt.=2762.726996m. Speed=2.000000m/h.]]></desc>
</trkpt>
<trkpt lat="36.720954" lon="137.753034">
<ele>2762.188087</ele>
<time>2014-08-18T03:18:34Z</time>
<desc><![CDATA[lat.=36.720954, lon.=137.753034, Alt.=2762.188087m. Speed=1.000000m/h.]]></desc>
</trkpt>
<trkpt lat="36.720961" lon="137.753049">
<ele>2764.570635</ele>
<time>2014-08-18T03:18:39Z</time>
<desc><![CDATA[lat.=36.720961, lon.=137.753049, Alt.=2764.570635m. Speed=0.000000m/h.]]></desc>
</trkpt>
<trkpt lat="36.720972" lon="137.753058">
<ele>2764.629645</ele>
<time>2014-08-18T03:18:44Z</time>
<desc><![CDATA[lat.=36.720972, lon.=137.753058, Alt.=2764.629645m. Speed=0.000000m/h.]]></desc>
</trkpt>
<trkpt lat="36.720978" lon="137.753089">
<ele>2765.336459</ele>
<time>2014-08-18T03:18:49Z</time>
<desc><![CDATA[lat.=36.720978, lon.=137.753089, Alt.=2765.336459m. Speed=2.000000m/h.]]></desc>
</trkpt>
<trkpt lat="36.720977" lon="137.753104">
<ele>2767.121089</ele>
<time>2014-08-18T03:18:54Z</time>
<desc><![CDATA[lat.=36.720977, lon.=137.753104, Alt.=2767.121089m. Speed=0.000000m/h.]]></desc>
</trkpt>
<trkpt lat="36.720970" lon="137.753104">
<ele>2766.523171</ele>
<time>2014-08-18T03:18:59Z</time>
<desc><![CDATA[lat.=36.720970, lon.=137.753104, Alt.=2766.523171m. Speed=0.000000m/h.]]></desc>
</trkpt>
<trkpt lat="36.720974" lon="137.753113">
<ele>2765.984263</ele>
<time>2014-08-18T03:19:04Z</time>
<desc><![CDATA[lat.=36.720974, lon.=137.753113, Alt.=2765.984263m. Speed=0.000000m/h.]]></desc>
</trkpt>
<trkpt lat="36.720978" lon="137.753105">
<ele>2765.390907</ele>
<time>2014-08-18T03:19:09Z</time>
<desc><![CDATA[lat.=36.720978, lon.=137.753105, Alt.=2765.390907m. Speed=0.000000m/h.]]></desc>
</trkpt>
<trkpt lat="36.720982" lon="137.753098">
<ele>2764.797551</ele>
<time>2014-08-18T03:19:22Z</time>
<desc><![CDATA[lat.=36.720982, lon.=137.753098, Alt.=2764.797551m. Speed=0.000000m/h.]]></desc>
</trkpt>
<trkpt lat="36.720974" lon="137.753098">
<ele>2764.199632</ele>
<time>2014-08-18T03:19:27Z</time>
<desc><![CDATA[lat.=36.720974, lon.=137.753098, Alt.=2764.199632m. Speed=0.000000m/h.]]></desc>
</trkpt>
<trkpt lat="36.720982" lon="137.753098">
<ele>2764.797551</ele>
<time>2014-08-18T03:19:32Z</time>
<desc><![CDATA[lat.=36.720982, lon.=137.753098, Alt.=2764.797551m. Speed=0.000000m/h.]]></desc>
</trkpt>
<trkpt lat="36.720974" lon="137.753097">
<ele>2765.929815</ele>
<time>2014-08-18T03:19:41Z</time>
<desc><![CDATA[lat.=36.720974, lon.=137.753097, Alt.=2765.929815m. Speed=0.000000m/h.]]></desc>
</trkpt>
<trkpt lat="36.720982" lon="137.753098">
<ele>2764.797551</ele>
<time>2014-08-18T03:19:47Z</time>
<desc><![CDATA[lat.=36.720982, lon.=137.753098, Alt.=2764.797551m. Speed=0.000000m/h.]]></desc>
</trkpt>
<trkpt lat="36.720978" lon="137.753105">
<ele>2765.390907</ele>
<time>2014-08-18T03:19:55Z</time>
<desc><![CDATA[lat.=36.720978, lon.=137.753105, Alt.=2765.390907m. Speed=0.000000m/h.]]></desc>
</trkpt>
<trkpt lat="36.720978" lon="137.753106">
<ele>2763.660724</ele>
<time>2014-08-18T03:20:03Z</time>
<desc><![CDATA[lat.=36.720978, lon.=137.753106, Alt.=2763.660724m. Speed=0.000000m/h.]]></desc>
</trkpt>
<trkpt lat="36.720982" lon="137.753114">
<ele>2763.121816</ele>
<time>2014-08-18T03:20:08Z</time>
<desc><![CDATA[lat.=36.720982, lon.=137.753114, Alt.=2763.121816m. Speed=0.000000m/h.]]></desc>
</trkpt>
<trkpt lat="36.720978" lon="137.753123">
<ele>2760.254807</ele>
<time>2014-08-18T03:20:13Z</time>
<desc><![CDATA[lat.=36.720978, lon.=137.753123, Alt.=2760.254807m. Speed=0.000000m/h.]]></desc>
</trkpt>
<trkpt lat="36.720986" lon="137.753123">
<ele>2760.852725</ele>
<time>2014-08-18T03:20:18Z</time>
<desc><![CDATA[lat.=36.720986, lon.=137.753123, Alt.=2760.852725m. Speed=0.000000m/h.]]></desc>
</trkpt>
<trkpt lat="36.720982" lon="137.753115">
<ele>2761.391633</ele>
<time>2014-08-18T03:20:28Z</time>
<desc><![CDATA[lat.=36.720982, lon.=137.753115, Alt.=2761.391633m. Speed=0.000000m/h.]]></desc>
</trkpt>
<trkpt lat="36.720985" lon="137.753122">
<ele>2762.582908</ele>
<time>2014-08-18T03:20:33Z</time>
<desc><![CDATA[lat.=36.720985, lon.=137.753122, Alt.=2762.582908m. Speed=0.000000m/h.]]></desc>
</trkpt>
<trkpt lat="36.720982" lon="137.753131">
<ele>2761.446082</ele>
<time>2014-08-18T03:20:38Z</time>
<desc><![CDATA[lat.=36.720982, lon.=137.753131, Alt.=2761.446082m. Speed=0.000000m/h.]]></desc>
</trkpt>
<trkpt lat="36.720978" lon="137.753122">
<ele>2761.984989</ele>
<time>2014-08-18T03:20:43Z</time>
<desc><![CDATA[lat.=36.720978, lon.=137.753122, Alt.=2761.984989m. Speed=0.000000m/h.]]></desc>
</trkpt>
<trkpt lat="36.720970" lon="137.753122">
<ele>2763.117253</ele>
<time>2014-08-18T03:20:48Z</time>
<desc><![CDATA[lat.=36.720970, lon.=137.753122, Alt.=2763.117253m. Speed=0.000000m/h.]]></desc>
</trkpt>
<trkpt lat="36.720978" lon="137.753122">
<ele>2763.715172</ele>
<time>2014-08-18T03:20:53Z</time>
<desc><![CDATA[lat.=36.720978, lon.=137.753122, Alt.=2763.715172m. Speed=0.000000m/h.]]></desc>
</trkpt>
<trkpt lat="36.720974" lon="137.753129">
<ele>2764.308528</ele>
<time>2014-08-18T03:20:58Z</time>
<desc><![CDATA[lat.=36.720974, lon.=137.753129, Alt.=2764.308528m. Speed=0.000000m/h.]]></desc>
</trkpt>
<trkpt lat="36.720977" lon="137.753121">
<ele>2765.445355</ele>
<time>2014-08-18T03:21:03Z</time>
<desc><![CDATA[lat.=36.720977, lon.=137.753121, Alt.=2765.445355m. Speed=0.000000m/h.]]></desc>
</trkpt>
<trkpt lat="36.720984" lon="137.753121">
<ele>2766.043273</ele>
<time>2014-08-18T03:21:10Z</time>
<desc><![CDATA[lat.=36.720984, lon.=137.753121, Alt.=2766.043273m. Speed=0.000000m/h.]]></desc>
</trkpt>
<trkpt lat="36.720980" lon="137.753128">
<ele>2766.636630</ele>
<time>2014-08-18T03:21:18Z</time>
<desc><![CDATA[lat.=36.720980, lon.=137.753128, Alt.=2766.636630m. Speed=0.000000m/h.]]></desc>
</trkpt>
<trkpt lat="36.720984" lon="137.753121">
<ele>2766.043273</ele>
<time>2014-08-18T03:21:25Z</time>
<desc><![CDATA[lat.=36.720984, lon.=137.753121, Alt.=2766.043273m. Speed=0.000000m/h.]]></desc>
</trkpt>
<trkpt lat="36.720977" lon="137.753121">
<ele>2765.445355</ele>
<time>2014-08-18T03:21:30Z</time>
<desc><![CDATA[lat.=36.720977, lon.=137.753121, Alt.=2765.445355m. Speed=0.000000m/h.]]></desc>
</trkpt>
<trkpt lat="36.720981" lon="137.753129">
<ele>2764.906447</ele>
<time>2014-08-18T03:21:35Z</time>
<desc><![CDATA[lat.=36.720981, lon.=137.753129, Alt.=2764.906447m. Speed=0.000000m/h.]]></desc>
</trkpt>
<trkpt lat="36.720985" lon="137.753122">
<ele>2764.313091</ele>
<time>2014-08-18T03:21:40Z</time>
<desc><![CDATA[lat.=36.720985, lon.=137.753122, Alt.=2764.313091m. Speed=0.000000m/h.]]></desc>
</trkpt>
<trkpt lat="36.720978" lon="137.753122">
<ele>2763.715172</ele>
<time>2014-08-18T03:21:45Z</time>
<desc><![CDATA[lat.=36.720978, lon.=137.753122, Alt.=2763.715172m. Speed=0.000000m/h.]]></desc>
</trkpt>
<trkpt lat="36.720970" lon="137.753122">
<ele>2763.117253</ele>
<time>2014-08-18T03:22:13Z</time>
<desc><![CDATA[lat.=36.720970, lon.=137.753122, Alt.=2763.117253m. Speed=0.000000m/h.]]></desc>
</trkpt>
<trkpt lat="36.720978" lon="137.753122">
<ele>2763.715172</ele>
<time>2014-08-18T03:22:19Z</time>
<desc><![CDATA[lat.=36.720978, lon.=137.753122, Alt.=2763.715172m. Speed=0.000000m/h.]]></desc>
</trkpt>
<trkpt lat="36.720974" lon="137.753113">
<ele>2764.254080</ele>
<time>2014-08-18T03:22:29Z</time>
<desc><![CDATA[lat.=36.720974, lon.=137.753113, Alt.=2764.254080m. Speed=0.000000m/h.]]></desc>
</trkpt>
<trkpt lat="36.720978" lon="137.753122">
<ele>2763.715172</ele>
<time>2014-08-18T03:22:42Z</time>
<desc><![CDATA[lat.=36.720978, lon.=137.753122, Alt.=2763.715172m. Speed=0.000000m/h.]]></desc>
</trkpt>
<trkpt lat="36.721007" lon="137.753122">
<ele>2764.376665</ele>
<time>2014-08-18T03:22:47Z</time>
<desc><![CDATA[lat.=36.721007, lon.=137.753122, Alt.=2764.376665m. Speed=2.000000m/h.]]></desc>
</trkpt>
<trkpt lat="36.721039" lon="137.753147">
<ele>2764.553701</ele>
<time>2014-08-18T03:22:52Z</time>
<desc><![CDATA[lat.=36.721039, lon.=137.753147, Alt.=2764.553701m. Speed=3.000000m/h.]]></desc>
</trkpt>
<trkpt lat="36.721061" lon="137.753163">
<ele>2766.401909</ele>
<time>2014-08-18T03:22:57Z</time>
<desc><![CDATA[lat.=36.721061, lon.=137.753163, Alt.=2766.401909m. Speed=2.000000m/h.]]></desc>
</trkpt>
<trkpt lat="36.721075" lon="137.753180">
<ele>2765.922015</ele>
<time>2014-08-18T03:23:02Z</time>
<desc><![CDATA[lat.=36.721075, lon.=137.753180, Alt.=2765.922015m. Speed=2.000000m/h.]]></desc>
</trkpt>
<trkpt lat="36.721100" lon="137.753205">
<ele>2765.501136</ele>
<time>2014-08-18T03:23:07Z</time>
<desc><![CDATA[lat.=36.721100, lon.=137.753205, Alt.=2765.501136m. Speed=2.000000m/h.]]></desc>
</trkpt>
<trkpt lat="36.721126" lon="137.753229">
<ele>2765.080260</ele>
<time>2014-08-18T03:23:12Z</time>
<desc><![CDATA[lat.=36.721126, lon.=137.753229, Alt.=2765.080260m. Speed=2.000000m/h.]]></desc>
</trkpt>
<trkpt lat="36.721136" lon="137.753253">
<ele>2766.923908</ele>
<time>2014-08-18T03:23:17Z</time>
<desc><![CDATA[lat.=36.721136, lon.=137.753253, Alt.=2766.923908m. Speed=2.000000m/h.]]></desc>
</trkpt>
<trkpt lat="36.721121" lon="137.753253">
<ele>2765.728067</ele>
<time>2014-08-18T03:23:22Z</time>
<desc><![CDATA[lat.=36.721121, lon.=137.753253, Alt.=2765.728067m. Speed=0.000000m/h.]]></desc>
</trkpt>
<trkpt lat="36.721103" lon="137.753244">
<ele>2765.071131</ele>
<time>2014-08-18T03:23:27Z</time>
<desc><![CDATA[lat.=36.721103, lon.=137.753244, Alt.=2765.071131m. Speed=0.000000m/h.]]></desc>
</trkpt>
<trkpt lat="36.721100" lon="137.753237">
<ele>2763.879854</ele>
<time>2014-08-18T03:23:32Z</time>
<desc><![CDATA[lat.=36.721100, lon.=137.753237, Alt.=2763.879854m. Speed=0.000000m/h.]]></desc>
</trkpt>
<trkpt lat="36.721097" lon="137.753229">
<ele>2764.418760</ele>
<time>2014-08-18T03:23:37Z</time>
<desc><![CDATA[lat.=36.721097, lon.=137.753229, Alt.=2764.418760m. Speed=0.000000m/h.]]></desc>
</trkpt>
<trkpt lat="36.721096" lon="137.753228">
<ele>2766.148943</ele>
<time>2014-08-18T03:23:42Z</time>
<desc><![CDATA[lat.=36.721096, lon.=137.753228, Alt.=2766.148943m. Speed=0.000000m/h.]]></desc>
</trkpt>
<trkpt lat="36.721099" lon="137.753235">
<ele>2767.340219</ele>
<time>2014-08-18T03:23:47Z</time>
<desc><![CDATA[lat.=36.721099, lon.=137.753235, Alt.=2767.340219m. Speed=0.000000m/h.]]></desc>
</trkpt>
<trkpt lat="36.721107" lon="137.753235">
<ele>2767.938140</ele>
<time>2014-08-18T03:23:54Z</time>
<desc><![CDATA[lat.=36.721107, lon.=137.753235, Alt.=2767.938140m. Speed=0.000000m/h.]]></desc>
</trkpt>
<trkpt lat="36.721103" lon="137.753243">
<ele>2768.531496</ele>
<time>2014-08-18T03:23:59Z</time>
<desc><![CDATA[lat.=36.721103, lon.=137.753243, Alt.=2768.531496m. Speed=0.000000m/h.]]></desc>
</trkpt>
<trkpt lat="36.721099" lon="137.753235">
<ele>2767.340219</ele>
<time>2014-08-18T03:24:04Z</time>
<desc><![CDATA[lat.=36.721099, lon.=137.753235, Alt.=2767.340219m. Speed=0.000000m/h.]]></desc>
</trkpt>
<trkpt lat="36.721107" lon="137.753235">
<ele>2767.938140</ele>
<time>2014-08-18T03:24:09Z</time>
<desc><![CDATA[lat.=36.721107, lon.=137.753235, Alt.=2767.938140m. Speed=1.000000m/h.]]></desc>
</trkpt>
<trkpt lat="36.721103" lon="137.753243">
<ele>2768.531496</ele>
<time>2014-08-18T03:24:14Z</time>
<desc><![CDATA[lat.=36.721103, lon.=137.753243, Alt.=2768.531496m. Speed=0.000000m/h.]]></desc>
</trkpt>
<trkpt lat="36.721106" lon="137.753235">
<ele>2769.668322</ele>
<time>2014-08-18T03:24:19Z</time>
<desc><![CDATA[lat.=36.721106, lon.=137.753235, Alt.=2769.668322m. Speed=0.000000m/h.]]></desc>
</trkpt>
<trkpt lat="36.721113" lon="137.753235">
<ele>2770.266243</ele>
<time>2014-08-18T03:24:27Z</time>
<desc><![CDATA[lat.=36.721113, lon.=137.753235, Alt.=2770.266243m. Speed=0.000000m/h.]]></desc>
</trkpt>
<trkpt lat="36.721109" lon="137.753242">
<ele>2770.859599</ele>
<time>2014-08-18T03:24:41Z</time>
<desc><![CDATA[lat.=36.721109, lon.=137.753242, Alt.=2770.859599m. Speed=0.000000m/h.]]></desc>
</trkpt>
<trkpt lat="36.721117" lon="137.753242">
<ele>2771.457520</ele>
<time>2014-08-18T03:24:47Z</time>
<desc><![CDATA[lat.=36.721117, lon.=137.753242, Alt.=2771.457520m. Speed=0.000000m/h.]]></desc>
</trkpt>
<trkpt lat="36.721121" lon="137.753235">
<ele>2770.864163</ele>
<time>2014-08-18T03:24:56Z</time>
<desc><![CDATA[lat.=36.721121, lon.=137.753235, Alt.=2770.864163m. Speed=0.000000m/h.]]></desc>
</trkpt>
<trkpt lat="36.721125" lon="137.753227">
<ele>2770.270807</ele>
<time>2014-08-18T03:25:05Z</time>
<desc><![CDATA[lat.=36.721125, lon.=137.753227, Alt.=2770.270807m. Speed=0.000000m/h.]]></desc>
</trkpt>
<trkpt lat="36.721143" lon="137.753236">
<ele>2769.197561</ele>
<time>2014-08-18T03:25:10Z</time>
<desc><![CDATA[lat.=36.721143, lon.=137.753236, Alt.=2769.197561m. Speed=1.000000m/h.]]></desc>
</trkpt>
<trkpt lat="36.721139" lon="137.753243">
<ele>2771.521099</ele>
<time>2014-08-18T03:25:15Z</time>
<desc><![CDATA[lat.=36.721139, lon.=137.753243, Alt.=2771.521099m. Speed=0.000000m/h.]]></desc>
</trkpt>
<trkpt lat="36.721135" lon="137.753235">
<ele>2772.060005</ele>
<time>2014-08-18T03:25:20Z</time>
<desc><![CDATA[lat.=36.721135, lon.=137.753235, Alt.=2772.060005m. Speed=0.000000m/h.]]></desc>
</trkpt>
<trkpt lat="36.721132" lon="137.753227">
<ele>2770.868728</ele>
<time>2014-08-18T03:25:25Z</time>
<desc><![CDATA[lat.=36.721132, lon.=137.753227, Alt.=2770.868728m. Speed=0.000000m/h.]]></desc>
</trkpt>
<trkpt lat="36.721140" lon="137.753195">
<ele>2771.357749</ele>
<time>2014-08-18T03:25:30Z</time>
<desc><![CDATA[lat.=36.721140, lon.=137.753195, Alt.=2771.357749m. Speed=2.000000m/h.]]></desc>
</trkpt>
<trkpt lat="36.721137" lon="137.753188">
<ele>2770.166472</ele>
<time>2014-08-18T03:25:35Z</time>
<desc><![CDATA[lat.=36.721137, lon.=137.753188, Alt.=2770.166472m. Speed=0.000000m/h.]]></desc>
</trkpt>
<trkpt lat="36.721137" lon="137.753189">
<ele>2768.436290</ele>
<time>2014-08-18T03:25:40Z</time>
<desc><![CDATA[lat.=36.721137, lon.=137.753189, Alt.=2768.436290m. Speed=0.000000m/h.]]></desc>
</trkpt>
<trkpt lat="36.721163" lon="137.753198">
<ele>2767.960965</ele>
<time>2014-08-18T03:25:45Z</time>
<desc><![CDATA[lat.=36.721163, lon.=137.753198, Alt.=2767.960965m. Speed=2.000000m/h.]]></desc>
</trkpt>
<trkpt lat="36.721207" lon="137.753168">
<ele>2767.979230</ele>
<time>2014-08-18T03:25:50Z</time>
<desc><![CDATA[lat.=36.721207, lon.=137.753168, Alt.=2767.979230m. Speed=3.000000m/h.]]></desc>
</trkpt>
<trkpt lat="36.721235" lon="137.753114">
<ele>2767.286113</ele>
<time>2014-08-18T03:25:55Z</time>
<desc><![CDATA[lat.=36.721235, lon.=137.753114, Alt.=2767.286113m. Speed=4.000000m/h.]]></desc>
</trkpt>
<trkpt lat="36.721277" lon="137.753060">
<ele>2766.058665</ele>
<time>2014-08-18T03:26:00Z</time>
<desc><![CDATA[lat.=36.721277, lon.=137.753060, Alt.=2766.058665m. Speed=4.000000m/h.]]></desc>
</trkpt>
<trkpt lat="36.721310" lon="137.753037">
<ele>2767.802557</ele>
<time>2014-08-18T03:26:05Z</time>
<desc><![CDATA[lat.=36.721310, lon.=137.753037, Alt.=2767.802557m. Speed=4.000000m/h.]]></desc>
</trkpt>
<trkpt lat="36.721341" lon="137.752992">
<ele>2764.840366</ele>
<time>2014-08-18T03:26:10Z</time>
<desc><![CDATA[lat.=36.721341, lon.=137.752992, Alt.=2764.840366m. Speed=4.000000m/h.]]></desc>
</trkpt>
<trkpt lat="36.721381" lon="137.752983">
<ele>2768.966816</ele>
<time>2014-08-18T03:26:15Z</time>
<desc><![CDATA[lat.=36.721381, lon.=137.752983, Alt.=2768.966816m. Speed=4.000000m/h.]]></desc>
</trkpt>
<trkpt lat="36.721425" lon="137.752970">
<ele>2767.309371</ele>
<time>2014-08-18T03:26:20Z</time>
<desc><![CDATA[lat.=36.721425, lon.=137.752970, Alt.=2767.309371m. Speed=4.000000m/h.]]></desc>
</trkpt>
<trkpt lat="36.721477" lon="137.752956">
<ele>2767.980038</ele>
<time>2014-08-18T03:26:25Z</time>
<desc><![CDATA[lat.=36.721477, lon.=137.752956, Alt.=2767.980038m. Speed=4.000000m/h.]]></desc>
</trkpt>
<trkpt lat="36.721525" lon="137.752950">
<ele>2767.513879</ele>
<time>2014-08-18T03:26:30Z</time>
<desc><![CDATA[lat.=36.721525, lon.=137.752950, Alt.=2767.513879m. Speed=3.000000m/h.]]></desc>
</trkpt>
<trkpt lat="36.721540" lon="137.752934">
<ele>2766.925105</ele>
<time>2014-08-18T03:26:35Z</time>
<desc><![CDATA[lat.=36.721540, lon.=137.752934, Alt.=2766.925105m. Speed=3.000000m/h.]]></desc>
</trkpt>
<trkpt lat="36.721581" lon="137.752927">
<ele>2769.321389</ele>
<time>2014-08-18T03:26:40Z</time>
<desc><![CDATA[lat.=36.721581, lon.=137.752927, Alt.=2769.321389m. Speed=3.000000m/h.]]></desc>
</trkpt>
<trkpt lat="36.721585" lon="137.752904">
<ele>2768.673595</ele>
<time>2014-08-18T03:26:45Z</time>
<desc><![CDATA[lat.=36.721585, lon.=137.752904, Alt.=2768.673595m. Speed=3.000000m/h.]]></desc>
</trkpt>
<trkpt lat="36.721614" lon="137.752889">
<ele>2769.280679</ele>
<time>2014-08-18T03:26:50Z</time>
<desc><![CDATA[lat.=36.721614, lon.=137.752889, Alt.=2769.280679m. Speed=3.000000m/h.]]></desc>
</trkpt>
<trkpt lat="36.721644" lon="137.752874">
<ele>2769.887764</ele>
<time>2014-08-18T03:26:55Z</time>
<desc><![CDATA[lat.=36.721644, lon.=137.752874, Alt.=2769.887764m. Speed=3.000000m/h.]]></desc>
</trkpt>
<trkpt lat="36.721656" lon="137.752850">
<ele>2769.837901</ele>
<time>2014-08-18T03:27:00Z</time>
<desc><![CDATA[lat.=36.721656, lon.=137.752850, Alt.=2769.837901m. Speed=2.000000m/h.]]></desc>
</trkpt>
<trkpt lat="36.721671" lon="137.752836">
<ele>2767.518950</ele>
<time>2014-08-18T03:27:05Z</time>
<desc><![CDATA[lat.=36.721671, lon.=137.752836, Alt.=2767.518950m. Speed=2.000000m/h.]]></desc>
</trkpt>
<trkpt lat="36.721705" lon="137.752830">
<ele>2765.856952</ele>
<time>2014-08-18T03:27:10Z</time>
<desc><![CDATA[lat.=36.721705, lon.=137.752830, Alt.=2765.856952m. Speed=2.000000m/h.]]></desc>
</trkpt>
<trkpt lat="36.721731" lon="137.752807">
<ele>2765.272767</ele>
<time>2014-08-18T03:27:15Z</time>
<desc><![CDATA[lat.=36.721731, lon.=137.752807, Alt.=2765.272767m. Speed=2.000000m/h.]]></desc>
</trkpt>
<trkpt lat="36.721757" lon="137.752800">
<ele>2766.473207</ele>
<time>2014-08-18T03:27:20Z</time>
<desc><![CDATA[lat.=36.721757, lon.=137.752800, Alt.=2766.473207m. Speed=2.000000m/h.]]></desc>
</trkpt>
<trkpt lat="36.721786" lon="137.752800">
<ele>2768.864926</ele>
<time>2014-08-18T03:27:25Z</time>
<desc><![CDATA[lat.=36.721786, lon.=137.752800, Alt.=2768.864926m. Speed=2.000000m/h.]]></desc>
</trkpt>
<trkpt lat="36.721804" lon="137.752792">
<ele>2769.467440</ele>
<time>2014-08-18T03:27:30Z</time>
<desc><![CDATA[lat.=36.721804, lon.=137.752792, Alt.=2769.467440m. Speed=2.000000m/h.]]></desc>
</trkpt>
<trkpt lat="36.721830" lon="137.752786">
<ele>2768.937702</ele>
<time>2014-08-18T03:27:35Z</time>
<desc><![CDATA[lat.=36.721830, lon.=137.752786, Alt.=2768.937702m. Speed=2.000000m/h.]]></desc>
</trkpt>
<trkpt lat="36.721849" lon="137.752778">
<ele>2769.540217</ele>
<time>2014-08-18T03:27:40Z</time>
<desc><![CDATA[lat.=36.721849, lon.=137.752778, Alt.=2769.540217m. Speed=2.000000m/h.]]></desc>
</trkpt>
<trkpt lat="36.721882" lon="137.752754">
<ele>2773.014337</ele>
<time>2014-08-18T03:27:45Z</time>
<desc><![CDATA[lat.=36.721882, lon.=137.752754, Alt.=2773.014337m. Speed=2.000000m/h.]]></desc>
</trkpt>
<trkpt lat="36.721907" lon="137.752746">
<ele>2774.214786</ele>
<time>2014-08-18T03:27:50Z</time>
<desc><![CDATA[lat.=36.721907, lon.=137.752746, Alt.=2774.214786m. Speed=2.000000m/h.]]></desc>
</trkpt>
<trkpt lat="36.721937" lon="137.752732">
<ele>2773.091708</ele>
<time>2014-08-18T03:27:55Z</time>
<desc><![CDATA[lat.=36.721937, lon.=137.752732, Alt.=2773.091708m. Speed=2.000000m/h.]]></desc>
</trkpt>
<trkpt lat="36.721956" lon="137.752708">
<ele>2775.369971</ele>
<time>2014-08-18T03:28:00Z</time>
<desc><![CDATA[lat.=36.721956, lon.=137.752708, Alt.=2775.369971m. Speed=2.000000m/h.]]></desc>
</trkpt>
<trkpt lat="36.721967" lon="137.752685">
<ele>2775.320119</ele>
<time>2014-08-18T03:28:05Z</time>
<desc><![CDATA[lat.=36.721967, lon.=137.752685, Alt.=2775.320119m. Speed=2.000000m/h.]]></desc>
</trkpt>
<trkpt lat="36.721989" lon="137.752702">
<ele>2773.707991</ele>
<time>2014-08-18T03:28:10Z</time>
<desc><![CDATA[lat.=36.721989, lon.=137.752702, Alt.=2773.707991m. Speed=2.000000m/h.]]></desc>
</trkpt>
<trkpt lat="36.722011" lon="137.752685">
<ele>2777.177534</ele>
<time>2014-08-18T03:28:15Z</time>
<desc><![CDATA[lat.=36.722011, lon.=137.752685, Alt.=2777.177534m. Speed=2.000000m/h.]]></desc>
</trkpt>
<trkpt lat="36.722030" lon="137.752679">
<ele>2776.049874</ele>
<time>2014-08-18T03:28:20Z</time>
<desc><![CDATA[lat.=36.722030, lon.=137.752679, Alt.=2776.049874m. Speed=2.000000m/h.]]></desc>
</trkpt>
<trkpt lat="36.722045" lon="137.752648">
<ele>2775.406681</ele>
<time>2014-08-18T03:28:25Z</time>
<desc><![CDATA[lat.=36.722045, lon.=137.752648, Alt.=2775.406681m. Speed=2.000000m/h.]]></desc>
</trkpt>
<trkpt lat="36.722067" lon="137.752648">
<ele>2777.200482</ele>
<time>2014-08-18T03:28:30Z</time>
<desc><![CDATA[lat.=36.722067, lon.=137.752648, Alt.=2777.200482m. Speed=2.000000m/h.]]></desc>
</trkpt>
<trkpt lat="36.722075" lon="137.752633">
<ele>2776.013796</ele>
<time>2014-08-18T03:28:35Z</time>
<desc><![CDATA[lat.=36.722075, lon.=137.752633, Alt.=2776.013796m. Speed=2.000000m/h.]]></desc>
</trkpt>
<trkpt lat="36.722098" lon="137.752619">
<ele>2772.562613</ele>
<time>2014-08-18T03:28:40Z</time>
<desc><![CDATA[lat.=36.722098, lon.=137.752619, Alt.=2772.562613m. Speed=2.000000m/h.]]></desc>
</trkpt>
<trkpt lat="36.722134" lon="137.752619">
<ele>2775.552286</ele>
<time>2014-08-18T03:28:45Z</time>
<desc><![CDATA[lat.=36.722134, lon.=137.752619, Alt.=2775.552286m. Speed=2.000000m/h.]]></desc>
</trkpt>
<trkpt lat="36.722149" lon="137.752587">
<ele>2778.369464</ele>
<time>2014-08-18T03:28:50Z</time>
<desc><![CDATA[lat.=36.722149, lon.=137.752587, Alt.=2778.369464m. Speed=2.000000m/h.]]></desc>
</trkpt>
<trkpt lat="36.722171" lon="137.752587">
<ele>2780.163270</ele>
<time>2014-08-18T03:28:55Z</time>
<desc><![CDATA[lat.=36.722171, lon.=137.752587, Alt.=2780.163270m. Speed=2.000000m/h.]]></desc>
</trkpt>
<trkpt lat="36.722189" lon="137.752563">
<ele>2782.441544</ele>
<time>2014-08-18T03:29:00Z</time>
<desc><![CDATA[lat.=36.722189, lon.=137.752563, Alt.=2782.441544m. Speed=2.000000m/h.]]></desc>
</trkpt>
<trkpt lat="36.722204" lon="137.752547">
<ele>2783.582980</ele>
<time>2014-08-18T03:29:05Z</time>
<desc><![CDATA[lat.=36.722204, lon.=137.752547, Alt.=2783.582980m. Speed=2.000000m/h.]]></desc>
</trkpt>
<trkpt lat="36.722219" lon="137.752515">
<ele>2784.669980</ele>
<time>2014-08-18T03:29:10Z</time>
<desc><![CDATA[lat.=36.722219, lon.=137.752515, Alt.=2784.669980m. Speed=2.000000m/h.]]></desc>
</trkpt>
<trkpt lat="36.722227" lon="137.752500">
<ele>2785.213480</ele>
<time>2014-08-18T03:29:15Z</time>
<desc><![CDATA[lat.=36.722227, lon.=137.752500, Alt.=2785.213480m. Speed=2.000000m/h.]]></desc>
</trkpt>
<trkpt lat="36.722241" lon="137.752484">
<ele>2786.354918</ele>
<time>2014-08-18T03:29:20Z</time>
<desc><![CDATA[lat.=36.722241, lon.=137.752484, Alt.=2786.354918m. Speed=2.000000m/h.]]></desc>
</trkpt>
<trkpt lat="36.722264" lon="137.752469">
<ele>2786.364110</ele>
<time>2014-08-18T03:29:25Z</time>
<desc><![CDATA[lat.=36.722264, lon.=137.752469, Alt.=2786.364110m. Speed=2.000000m/h.]]></desc>
</trkpt>
<trkpt lat="36.722290" lon="137.752445">
<ele>2787.510147</ele>
<time>2014-08-18T03:29:30Z</time>
<desc><![CDATA[lat.=36.722290, lon.=137.752445, Alt.=2787.510147m. Speed=2.000000m/h.]]></desc>
</trkpt>
<trkpt lat="36.722308" lon="137.752438">
<ele>2788.112681</ele>
<time>2014-08-18T03:29:35Z</time>
<desc><![CDATA[lat.=36.722308, lon.=137.752438, Alt.=2788.112681m. Speed=2.000000m/h.]]></desc>
</trkpt>
<trkpt lat="36.722331" lon="137.752423">
<ele>2788.121877</ele>
<time>2014-08-18T03:29:40Z</time>
<desc><![CDATA[lat.=36.722331, lon.=137.752423, Alt.=2788.121877m. Speed=2.000000m/h.]]></desc>
</trkpt>
<trkpt lat="36.722338" lon="137.752407">
<ele>2788.665382</ele>
<time>2014-08-18T03:29:45Z</time>
<desc><![CDATA[lat.=36.722338, lon.=137.752407, Alt.=2788.665382m. Speed=2.000000m/h.]]></desc>
</trkpt>
<trkpt lat="36.722350" lon="137.752384">
<ele>2786.885365</ele>
<time>2014-08-18T03:29:50Z</time>
<desc><![CDATA[lat.=36.722350, lon.=137.752384, Alt.=2786.885365m. Speed=2.000000m/h.]]></desc>
</trkpt>
<trkpt lat="36.722365" lon="137.752369">
<ele>2788.026808</ele>
<time>2014-08-18T03:29:55Z</time>
<desc><![CDATA[lat.=36.722365, lon.=137.752369, Alt.=2788.026808m. Speed=2.000000m/h.]]></desc>
</trkpt>
<trkpt lat="36.722387" lon="137.752354">
<ele>2788.036008</ele>
<time>2014-08-18T03:30:00Z</time>
<desc><![CDATA[lat.=36.722387, lon.=137.752354, Alt.=2788.036008m. Speed=2.000000m/h.]]></desc>
</trkpt>
<trkpt lat="36.722395" lon="137.752337">
<ele>2790.309697</ele>
<time>2014-08-18T03:30:05Z</time>
<desc><![CDATA[lat.=36.722395, lon.=137.752337, Alt.=2790.309697m. Speed=1.000000m/h.]]></desc>
</trkpt>
<trkpt lat="36.722409" lon="137.752321">
<ele>2791.451142</ele>
<time>2014-08-18T03:30:10Z</time>
<desc><![CDATA[lat.=36.722409, lon.=137.752321, Alt.=2791.451142m. Speed=2.000000m/h.]]></desc>
</trkpt>
<trkpt lat="36.722421" lon="137.752314">
<ele>2791.455744</ele>
<time>2014-08-18T03:30:15Z</time>
<desc><![CDATA[lat.=36.722421, lon.=137.752314, Alt.=2791.455744m. Speed=1.000000m/h.]]></desc>
</trkpt>
<trkpt lat="36.722428" lon="137.752298">
<ele>2791.999251</ele>
<time>2014-08-18T03:30:20Z</time>
<desc><![CDATA[lat.=36.722428, lon.=137.752298, Alt.=2791.999251m. Speed=1.000000m/h.]]></desc>
</trkpt>
<trkpt lat="36.722437" lon="137.752267">
<ele>2790.758146</ele>
<time>2014-08-18T03:30:25Z</time>
<desc><![CDATA[lat.=36.722437, lon.=137.752267, Alt.=2790.758146m. Speed=1.000000m/h.]]></desc>
</trkpt>
<trkpt lat="36.722445" lon="137.752252">
<ele>2789.571473</ele>
<time>2014-08-18T03:30:30Z</time>
<desc><![CDATA[lat.=36.722445, lon.=137.752252, Alt.=2789.571473m. Speed=1.000000m/h.]]></desc>
</trkpt>
<trkpt lat="36.722452" lon="137.752235">
<ele>2791.845165</ele>
<time>2014-08-18T03:30:35Z</time>
<desc><![CDATA[lat.=36.722452, lon.=137.752235, Alt.=2791.845165m. Speed=1.000000m/h.]]></desc>
</trkpt>
<trkpt lat="36.722467" lon="137.752220">
<ele>2792.986614</ele>
<time>2014-08-18T03:30:40Z</time>
<desc><![CDATA[lat.=36.722467, lon.=137.752220, Alt.=2792.986614m. Speed=2.000000m/h.]]></desc>
</trkpt>
<trkpt lat="36.722491" lon="137.752226">
<ele>2797.701891</ele>
<time>2014-08-18T03:30:45Z</time>
<desc><![CDATA[lat.=36.722491, lon.=137.752226, Alt.=2797.701891m. Speed=1.000000m/h.]]></desc>
</trkpt>
<trkpt lat="36.722500" lon="137.752248">
<ele>2803.005902</ele>
<time>2014-08-18T03:30:50Z</time>
<desc><![CDATA[lat.=36.722500, lon.=137.752248, Alt.=2803.005902m. Speed=0.000000m/h.]]></desc>
</trkpt>
<trkpt lat="36.722504" lon="137.752256">
<ele>2804.197178</ele>
<time>2014-08-18T03:30:55Z</time>
<desc><![CDATA[lat.=36.722504, lon.=137.752256, Alt.=2804.197178m. Speed=0.000000m/h.]]></desc>
</trkpt>
<trkpt lat="36.722508" lon="137.752248">
<ele>2803.603842</ele>
<time>2014-08-18T03:31:00Z</time>
<desc><![CDATA[lat.=36.722508, lon.=137.752248, Alt.=2803.603842m. Speed=0.000000m/h.]]></desc>
</trkpt>
<trkpt lat="36.722504" lon="137.752257">
<ele>2802.466995</ele>
<time>2014-08-18T03:31:05Z</time>
<desc><![CDATA[lat.=36.722504, lon.=137.752257, Alt.=2802.466995m. Speed=0.000000m/h.]]></desc>
</trkpt>
<trkpt lat="36.722511" lon="137.752257">
<ele>2803.064935</ele>
<time>2014-08-18T03:31:10Z</time>
<desc><![CDATA[lat.=36.722511, lon.=137.752257, Alt.=2803.064935m. Speed=0.000000m/h.]]></desc>
</trkpt>
<trkpt lat="36.722515" lon="137.752249">
<ele>2802.471599</ele>
<time>2014-08-18T03:31:18Z</time>
<desc><![CDATA[lat.=36.722515, lon.=137.752249, Alt.=2802.471599m. Speed=1.000000m/h.]]></desc>
</trkpt>
<trkpt lat="36.722530" lon="137.752233">
<ele>2803.613050</ele>
<time>2014-08-18T03:31:23Z</time>
<desc><![CDATA[lat.=36.722530, lon.=137.752233, Alt.=2803.613050m. Speed=2.000000m/h.]]></desc>
</trkpt>
<trkpt lat="36.722556" lon="137.752211">
<ele>2803.028924</ele>
<time>2014-08-18T03:31:28Z</time>
<desc><![CDATA[lat.=36.722556, lon.=137.752211, Alt.=2803.028924m. Speed=2.000000m/h.]]></desc>
</trkpt>
<trkpt lat="36.722561" lon="137.752187">
<ele>2802.381160</ele>
<time>2014-08-18T03:31:33Z</time>
<desc><![CDATA[lat.=36.722561, lon.=137.752187, Alt.=2802.381160m. Speed=2.000000m/h.]]></desc>
</trkpt>
<trkpt lat="36.722569" lon="137.752156">
<ele>2802.870244</ele>
<time>2014-08-18T03:31:38Z</time>
<desc><![CDATA[lat.=36.722569, lon.=137.752156, Alt.=2802.870244m. Speed=2.000000m/h.]]></desc>
</trkpt>
<trkpt lat="36.722569" lon="137.752106">
<ele>2807.897508</ele>
<time>2014-08-18T03:31:43Z</time>
<desc><![CDATA[lat.=36.722569, lon.=137.752106, Alt.=2807.897508m. Speed=2.000000m/h.]]></desc>
</trkpt>
<trkpt lat="36.722572" lon="137.752131">
<ele>2805.682846</ele>
<time>2014-08-18T03:31:48Z</time>
<desc><![CDATA[lat.=36.722572, lon.=137.752131, Alt.=2805.682846m. Speed=0.000000m/h.]]></desc>
</trkpt>
<trkpt lat="36.722576" lon="137.752123">
<ele>2806.819694</ele>
<time>2014-08-18T03:31:53Z</time>
<desc><![CDATA[lat.=36.722576, lon.=137.752123, Alt.=2806.819694m. Speed=0.000000m/h.]]></desc>
</trkpt>
<trkpt lat="36.722584" lon="137.752108">
<ele>2805.633025</ele>
<time>2014-08-18T03:31:58Z</time>
<desc><![CDATA[lat.=36.722584, lon.=137.752108, Alt.=2805.633025m. Speed=2.000000m/h.]]></desc>
</trkpt>
<trkpt lat="36.722606" lon="137.752092">
<ele>2805.642239</ele>
<time>2014-08-18T03:32:03Z</time>
<desc><![CDATA[lat.=36.722606, lon.=137.752092, Alt.=2805.642239m. Speed=2.000000m/h.]]></desc>
</trkpt>
<trkpt lat="36.722614" lon="137.752077">
<ele>2804.455572</ele>
<time>2014-08-18T03:32:08Z</time>
<desc><![CDATA[lat.=36.722614, lon.=137.752077, Alt.=2804.455572m. Speed=1.000000m/h.]]></desc>
</trkpt>
<trkpt lat="36.722622" lon="137.752046">
<ele>2804.944661</ele>
<time>2014-08-18T03:32:13Z</time>
<desc><![CDATA[lat.=36.722622, lon.=137.752046, Alt.=2804.944661m. Speed=2.000000m/h.]]></desc>
</trkpt>
<trkpt lat="36.722641" lon="137.752038">
<ele>2805.547211</ele>
<time>2014-08-18T03:32:18Z</time>
<desc><![CDATA[lat.=36.722641, lon.=137.752038, Alt.=2805.547211m. Speed=1.000000m/h.]]></desc>
</trkpt>
<trkpt lat="36.722637" lon="137.752014">
<ele>2806.031693</ele>
<time>2014-08-18T03:32:23Z</time>
<desc><![CDATA[lat.=36.722637, lon.=137.752014, Alt.=2806.031693m. Speed=2.000000m/h.]]></desc>
</trkpt>
<trkpt lat="36.722653" lon="137.751999">
<ele>2805.442969</ele>
<time>2014-08-18T03:32:28Z</time>
<desc><![CDATA[lat.=36.722653, lon.=137.751999, Alt.=2805.442969m. Speed=2.000000m/h.]]></desc>
</trkpt>
<trkpt lat="36.722657" lon="137.751975">
<ele>2806.525395</ele>
<time>2014-08-18T03:32:33Z</time>
<desc><![CDATA[lat.=36.722657, lon.=137.751975, Alt.=2806.525395m. Speed=1.000000m/h.]]></desc>
</trkpt>
<trkpt lat="36.722672" lon="137.751960">
<ele>2805.936672</ele>
<time>2014-08-18T03:32:38Z</time>
<desc><![CDATA[lat.=36.722672, lon.=137.751960, Alt.=2805.936672m. Speed=1.000000m/h.]]></desc>
</trkpt>
<trkpt lat="36.722669" lon="137.751937">
<ele>2804.690974</ele>
<time>2014-08-18T03:32:43Z</time>
<desc><![CDATA[lat.=36.722669, lon.=137.751937, Alt.=2804.690974m. Speed=1.000000m/h.]]></desc>
</trkpt>
<trkpt lat="36.722676" lon="137.751921">
<ele>2805.234492</ele>
<time>2014-08-18T03:32:48Z</time>
<desc><![CDATA[lat.=36.722676, lon.=137.751921, Alt.=2805.234492m. Speed=1.000000m/h.]]></desc>
</trkpt>
<trkpt lat="36.722662" lon="137.751904">
<ele>2807.444550</ele>
<time>2014-08-18T03:32:53Z</time>
<desc><![CDATA[lat.=36.722662, lon.=137.751904, Alt.=2807.444550m. Speed=2.000000m/h.]]></desc>
</trkpt>
<trkpt lat="36.722672" lon="137.751895">
<ele>2810.909526</ele>
<time>2014-08-18T03:32:58Z</time>
<desc><![CDATA[lat.=36.722672, lon.=137.751895, Alt.=2810.909526m. Speed=2.000000m/h.]]></desc>
</trkpt>
<trkpt lat="36.722668" lon="137.751870">
<ele>2813.124194</ele>
<time>2014-08-18T03:33:03Z</time>
<desc><![CDATA[lat.=36.722668, lon.=137.751870, Alt.=2813.124194m. Speed=1.000000m/h.]]></desc>
</trkpt>
<trkpt lat="36.722676" lon="137.751855">
<ele>2811.937532</ele>
<time>2014-08-18T03:33:08Z</time>
<desc><![CDATA[lat.=36.722676, lon.=137.751855, Alt.=2811.937532m. Speed=2.000000m/h.]]></desc>
</trkpt>
<trkpt lat="36.722684" lon="137.751838">
<ele>2814.211235</ele>
<time>2014-08-18T03:33:13Z</time>
<desc><![CDATA[lat.=36.722684, lon.=137.751838, Alt.=2814.211235m. Speed=1.000000m/h.]]></desc>
</trkpt>
<trkpt lat="36.722681" lon="137.751831">
<ele>2811.289779</ele>
<time>2014-08-18T03:33:18Z</time>
<desc><![CDATA[lat.=36.722681, lon.=137.751831, Alt.=2811.289779m. Speed=0.000000m/h.]]></desc>
</trkpt>
<trkpt lat="36.722672" lon="137.751846">
<ele>2814.206624</ele>
<time>2014-08-18T03:33:23Z</time>
<desc><![CDATA[lat.=36.722672, lon.=137.751846, Alt.=2814.206624m. Speed=0.000000m/h.]]></desc>
</trkpt>
<trkpt lat="36.722672" lon="137.751845">
<ele>2815.936806</ele>
<time>2014-08-18T03:33:28Z</time>
<desc><![CDATA[lat.=36.722672, lon.=137.751845, Alt.=2815.936806m. Speed=0.000000m/h.]]></desc>
</trkpt>
<trkpt lat="36.722668" lon="137.751852">
<ele>2816.530137</ele>
<time>2014-08-18T03:33:34Z</time>
<desc><![CDATA[lat.=36.722668, lon.=137.751852, Alt.=2816.530137m. Speed=0.000000m/h.]]></desc>
</trkpt>
<trkpt lat="36.722668" lon="137.751837">
<ele>2816.475716</ele>
<time>2014-08-18T03:33:39Z</time>
<desc><![CDATA[lat.=36.722668, lon.=137.751837, Alt.=2816.475716m. Speed=0.000000m/h.]]></desc>
</trkpt>
<trkpt lat="36.722683" lon="137.751821">
<ele>2817.617179</ele>
<time>2014-08-18T03:33:44Z</time>
<desc><![CDATA[lat.=36.722683, lon.=137.751821, Alt.=2817.617179m. Speed=1.000000m/h.]]></desc>
</trkpt>
<trkpt lat="36.722698" lon="137.751805">
<ele>2818.758643</ele>
<time>2014-08-18T03:33:49Z</time>
<desc><![CDATA[lat.=36.722698, lon.=137.751805, Alt.=2818.758643m. Speed=2.000000m/h.]]></desc>
</trkpt>
<trkpt lat="36.722698" lon="137.751789">
<ele>2818.704222</ele>
<time>2014-08-18T03:33:54Z</time>
<desc><![CDATA[lat.=36.722698, lon.=137.751789, Alt.=2818.704222m. Speed=2.000000m/h.]]></desc>
</trkpt>
<trkpt lat="36.722710" lon="137.751766">
<ele>2818.654414</ele>
<time>2014-08-18T03:33:59Z</time>
<desc><![CDATA[lat.=36.722710, lon.=137.751766, Alt.=2818.654414m. Speed=1.000000m/h.]]></desc>
</trkpt>
<trkpt lat="36.722729" lon="137.751743">
<ele>2817.472367</ele>
<time>2014-08-18T03:34:04Z</time>
<desc><![CDATA[lat.=36.722729, lon.=137.751743, Alt.=2817.472367m. Speed=2.000000m/h.]]></desc>
</trkpt>
<trkpt lat="36.722725" lon="137.751735">
<ele>2818.011277</ele>
<time>2014-08-18T03:34:09Z</time>
<desc><![CDATA[lat.=36.722725, lon.=137.751735, Alt.=2818.011277m. Speed=0.000000m/h.]]></desc>
</trkpt>
<trkpt lat="36.722729" lon="137.751727">
<ele>2819.148130</ele>
<time>2014-08-18T03:34:14Z</time>
<desc><![CDATA[lat.=36.722729, lon.=137.751727, Alt.=2819.148130m. Speed=0.000000m/h.]]></desc>
</trkpt>
<trkpt lat="36.722732" lon="137.751734">
<ele>2820.339403</ele>
<time>2014-08-18T03:34:19Z</time>
<desc><![CDATA[lat.=36.722732, lon.=137.751734, Alt.=2820.339403m. Speed=0.000000m/h.]]></desc>
</trkpt>
<trkpt lat="36.722747" lon="137.751734">
<ele>2821.535289</ele>
<time>2014-08-18T03:34:24Z</time>
<desc><![CDATA[lat.=36.722747, lon.=137.751734, Alt.=2821.535289m. Speed=1.000000m/h.]]></desc>
</trkpt>
<trkpt lat="36.722762" lon="137.751718">
<ele>2822.676757</ele>
<time>2014-08-18T03:34:29Z</time>
<desc><![CDATA[lat.=36.722762, lon.=137.751718, Alt.=2822.676757m. Speed=1.000000m/h.]]></desc>
</trkpt>
<trkpt lat="36.722776" lon="137.751703">
<ele>2823.818225</ele>
<time>2014-08-18T03:34:34Z</time>
<desc><![CDATA[lat.=36.722776, lon.=137.751703, Alt.=2823.818225m. Speed=2.000000m/h.]]></desc>
</trkpt>
<trkpt lat="36.722792" lon="137.751688">
<ele>2823.229511</ele>
<time>2014-08-18T03:34:39Z</time>
<desc><![CDATA[lat.=36.722792, lon.=137.751688, Alt.=2823.229511m. Speed=2.000000m/h.]]></desc>
</trkpt>
<trkpt lat="36.722800" lon="137.751657">
<ele>2821.988436</ele>
<time>2014-08-18T03:34:44Z</time>
<desc><![CDATA[lat.=36.722800, lon.=137.751657, Alt.=2821.988436m. Speed=2.000000m/h.]]></desc>
</trkpt>
<trkpt lat="36.722823" lon="137.751643">
<ele>2818.537302</ele>
<time>2014-08-18T03:34:49Z</time>
<desc><![CDATA[lat.=36.722823, lon.=137.751643, Alt.=2818.537302m. Speed=2.000000m/h.]]></desc>
</trkpt>
<trkpt lat="36.722845" lon="137.751660">
<ele>2816.925189</ele>
<time>2014-08-18T03:34:54Z</time>
<desc><![CDATA[lat.=36.722845, lon.=137.751660, Alt.=2816.925189m. Speed=2.000000m/h.]]></desc>
</trkpt>
<trkpt lat="36.722872" lon="137.751638">
<ele>2816.341095</ele>
<time>2014-08-18T03:34:59Z</time>
<desc><![CDATA[lat.=36.722872, lon.=137.751638, Alt.=2816.341095m. Speed=2.000000m/h.]]></desc>
</trkpt>
<trkpt lat="36.722898" lon="137.751615">
<ele>2817.487186</ele>
<time>2014-08-18T03:35:04Z</time>
<desc><![CDATA[lat.=36.722898, lon.=137.751615, Alt.=2817.487186m. Speed=3.000000m/h.]]></desc>
</trkpt>
<trkpt lat="36.722916" lon="137.751607">
<ele>2818.089751</ele>
<time>2014-08-18T03:35:09Z</time>
<desc><![CDATA[lat.=36.722916, lon.=137.751607, Alt.=2818.089751m. Speed=2.000000m/h.]]></desc>
</trkpt>
<trkpt lat="36.722928" lon="137.751584">
<ele>2818.039953</ele>
<time>2014-08-18T03:35:14Z</time>
<desc><![CDATA[lat.=36.722928, lon.=137.751584, Alt.=2818.039953m. Speed=2.000000m/h.]]></desc>
</trkpt>
<trkpt lat="36.722935" lon="137.751551">
<ele>2820.259249</ele>
<time>2014-08-18T03:35:19Z</time>
<desc><![CDATA[lat.=36.722935, lon.=137.751551, Alt.=2820.259249m. Speed=2.000000m/h.]]></desc>
</trkpt>
<trkpt lat="36.722961" lon="137.751545">
<ele>2819.729579</ele>
<time>2014-08-18T03:35:24Z</time>
<desc><![CDATA[lat.=36.722961, lon.=137.751545, Alt.=2819.729579m. Speed=2.000000m/h.]]></desc>
</trkpt>
<trkpt lat="36.722986" lon="137.751536">
<ele>2822.660275</ele>
<time>2014-08-18T03:35:29Z</time>
<desc><![CDATA[lat.=36.722986, lon.=137.751536, Alt.=2822.660275m. Speed=2.000000m/h.]]></desc>
</trkpt>
<trkpt lat="36.722998" lon="137.751513">
<ele>2822.610481</ele>
<time>2014-08-18T03:35:34Z</time>
<desc><![CDATA[lat.=36.722998, lon.=137.751513, Alt.=2822.610481m. Speed=2.000000m/h.]]></desc>
</trkpt>
<trkpt lat="36.723016" lon="137.751489">
<ele>2824.888818</ele>
<time>2014-08-18T03:35:39Z</time>
<desc><![CDATA[lat.=36.723016, lon.=137.751489, Alt.=2824.888818m. Speed=2.000000m/h.]]></desc>
</trkpt>
<trkpt lat="36.723034" lon="137.751481">
<ele>2827.221570</ele>
<time>2014-08-18T03:35:44Z</time>
<desc><![CDATA[lat.=36.723034, lon.=137.751481, Alt.=2827.221570m. Speed=2.000000m/h.]]></desc>
</trkpt>
<trkpt lat="36.723035" lon="137.751449">
<ele>2827.112742</ele>
<time>2014-08-18T03:35:49Z</time>
<desc><![CDATA[lat.=36.723035, lon.=137.751449, Alt.=2827.112742m. Speed=2.000000m/h.]]></desc>
</trkpt>
<trkpt lat="36.723047" lon="137.751426">
<ele>2827.062951</ele>
<time>2014-08-18T03:35:54Z</time>
<desc><![CDATA[lat.=36.723047, lon.=137.751426, Alt.=2827.062951m. Speed=2.000000m/h.]]></desc>
</trkpt>
<trkpt lat="36.723033" lon="137.751394">
<ele>2825.758230</ele>
<time>2014-08-18T03:35:59Z</time>
<desc><![CDATA[lat.=36.723033, lon.=137.751394, Alt.=2825.758230m. Speed=2.000000m/h.]]></desc>
</trkpt>
<trkpt lat="36.723037" lon="137.751354">
<ele>2826.786264</ele>
<time>2014-08-18T03:36:04Z</time>
<desc><![CDATA[lat.=36.723037, lon.=137.751354, Alt.=2826.786264m. Speed=3.000000m/h.]]></desc>
</trkpt>
<trkpt lat="36.723048" lon="137.751329">
<ele>2830.196842</ele>
<time>2014-08-18T03:36:09Z</time>
<desc><![CDATA[lat.=36.723048, lon.=137.751329, Alt.=2830.196842m. Speed=2.000000m/h.]]></desc>
</trkpt>
<trkpt lat="36.723060" lon="137.751290">
<ele>2830.092645</ele>
<time>2014-08-18T03:36:14Z</time>
<desc><![CDATA[lat.=36.723060, lon.=137.751290, Alt.=2830.092645m. Speed=3.000000m/h.]]></desc>
</trkpt>
<trkpt lat="36.723091" lon="137.751244">
<ele>2828.860840</ele>
<time>2014-08-18T03:36:19Z</time>
<desc><![CDATA[lat.=36.723091, lon.=137.751244, Alt.=2828.860840m. Speed=3.000000m/h.]]></desc>
</trkpt>
<trkpt lat="36.723124" lon="137.751222">
<ele>2828.874719</ele>
<time>2014-08-18T03:36:24Z</time>
<desc><![CDATA[lat.=36.723124, lon.=137.751222, Alt.=2828.874719m. Speed=3.000000m/h.]]></desc>
</trkpt>
<trkpt lat="36.723153" lon="137.751220">
<ele>2834.726881</ele>
<time>2014-08-18T03:36:29Z</time>
<desc><![CDATA[lat.=36.723153, lon.=137.751220, Alt.=2834.726881m. Speed=3.000000m/h.]]></desc>
</trkpt>
<trkpt lat="36.723156" lon="137.751244">
<ele>2834.242378</ele>
<time>2014-08-18T03:36:34Z</time>
<desc><![CDATA[lat.=36.723156, lon.=137.751244, Alt.=2834.242378m. Speed=2.000000m/h.]]></desc>
</trkpt>
<trkpt lat="36.723111" lon="137.751274">
<ele>2835.954054</ele>
<time>2014-08-18T03:36:39Z</time>
<desc><![CDATA[lat.=36.723111, lon.=137.751274, Alt.=2835.954054m. Speed=3.000000m/h.]]></desc>
</trkpt>
<trkpt lat="36.723107" lon="137.751281">
<ele>2836.547376</ele>
<time>2014-08-18T03:36:44Z</time>
<desc><![CDATA[lat.=36.723107, lon.=137.751281, Alt.=2836.547376m. Speed=0.000000m/h.]]></desc>
</trkpt>
<trkpt lat="36.723103" lon="137.751272">
<ele>2838.816471</ele>
<time>2014-08-18T03:36:49Z</time>
<desc><![CDATA[lat.=36.723103, lon.=137.751272, Alt.=2838.816471m. Speed=0.000000m/h.]]></desc>
</trkpt>
<trkpt lat="36.723133" lon="137.751258">
<ele>2837.693490</ele>
<time>2014-08-18T03:36:54Z</time>
<desc><![CDATA[lat.=36.723133, lon.=137.751258, Alt.=2837.693490m. Speed=2.000000m/h.]]></desc>
</trkpt>
<trkpt lat="36.723174" lon="137.751253">
<ele>2834.899365</ele>
<time>2014-08-18T03:36:59Z</time>
<desc><![CDATA[lat.=36.723174, lon.=137.751253, Alt.=2834.899365m. Speed=3.000000m/h.]]></desc>
</trkpt>
<trkpt lat="36.723215" lon="137.751264">
<ele>2830.429470</ele>
<time>2014-08-18T03:37:04Z</time>
<desc><![CDATA[lat.=36.723215, lon.=137.751264, Alt.=2830.429470m. Speed=3.000000m/h.]]></desc>
</trkpt>
<trkpt lat="36.723266" lon="137.751282">
<ele>2829.478984</ele>
<time>2014-08-18T03:37:09Z</time>
<desc><![CDATA[lat.=36.723266, lon.=137.751282, Alt.=2829.478984m. Speed=3.000000m/h.]]></desc>
</trkpt>
<trkpt lat="36.723289" lon="137.751284">
<ele>2826.082289</ele>
<time>2014-08-18T03:37:14Z</time>
<desc><![CDATA[lat.=36.723289, lon.=137.751284, Alt.=2826.082289m. Speed=3.000000m/h.]]></desc>
</trkpt>
<trkpt lat="36.723315" lon="137.751277">
<ele>2825.552638</ele>
<time>2014-08-18T03:37:19Z</time>
<desc><![CDATA[lat.=36.723315, lon.=137.751277, Alt.=2825.552638m. Speed=3.000000m/h.]]></desc>
</trkpt>
<trkpt lat="36.723349" lon="137.751271">
<ele>2823.890759</ele>
<time>2014-08-18T03:37:24Z</time>
<desc><![CDATA[lat.=36.723349, lon.=137.751271, Alt.=2823.890759m. Speed=3.000000m/h.]]></desc>
</trkpt>
<trkpt lat="36.723386" lon="137.751256">
<ele>2825.095927</ele>
<time>2014-08-18T03:37:29Z</time>
<desc><![CDATA[lat.=36.723386, lon.=137.751256, Alt.=2825.095927m. Speed=3.000000m/h.]]></desc>
</trkpt>
<trkpt lat="36.723433" lon="137.751250">
<ele>2826.360140</ele>
<time>2014-08-18T03:37:34Z</time>
<desc><![CDATA[lat.=36.723433, lon.=137.751250, Alt.=2826.360140m. Speed=3.000000m/h.]]></desc>
</trkpt>
<trkpt lat="36.723478" lon="137.751236">
<ele>2824.702903</ele>
<time>2014-08-18T03:37:39Z</time>
<desc><![CDATA[lat.=36.723478, lon.=137.751236, Alt.=2824.702903m. Speed=3.000000m/h.]]></desc>
</trkpt>
<trkpt lat="36.723507" lon="137.751236">
<ele>2827.094718</ele>
<time>2014-08-18T03:37:44Z</time>
<desc><![CDATA[lat.=36.723507, lon.=137.751236, Alt.=2827.094718m. Speed=3.000000m/h.]]></desc>
</trkpt>
<trkpt lat="36.723518" lon="137.751244">
<ele>2828.883945</ele>
<time>2014-08-18T03:37:49Z</time>
<desc><![CDATA[lat.=36.723518, lon.=137.751244, Alt.=2828.883945m. Speed=2.000000m/h.]]></desc>
</trkpt>
<trkpt lat="36.723521" lon="137.751251">
<ele>2830.075218</ele>
<time>2014-08-18T03:37:54Z</time>
<desc><![CDATA[lat.=36.723521, lon.=137.751251, Alt.=2830.075218m. Speed=0.000000m/h.]]></desc>
</trkpt>
<trkpt lat="36.723514" lon="137.751251">
<ele>2829.477264</ele>
<time>2014-08-18T03:37:59Z</time>
<desc><![CDATA[lat.=36.723514, lon.=137.751251, Alt.=2829.477264m. Speed=0.000000m/h.]]></desc>
</trkpt>
<trkpt lat="36.723536" lon="137.751269">
<ele>2827.865172</ele>
<time>2014-08-18T03:38:04Z</time>
<desc><![CDATA[lat.=36.723536, lon.=137.751269, Alt.=2827.865172m. Speed=2.000000m/h.]]></desc>
</trkpt>
<trkpt lat="36.723569" lon="137.751296">
<ele>2822.851762</ele>
<time>2014-08-18T03:38:09Z</time>
<desc><![CDATA[lat.=36.723569, lon.=137.751296, Alt.=2822.851762m. Speed=3.000000m/h.]]></desc>
</trkpt>
<trkpt lat="36.723581" lon="137.751305">
<ele>2821.180626</ele>
<time>2014-08-18T03:38:14Z</time>
<desc><![CDATA[lat.=36.723581, lon.=137.751305, Alt.=2821.180626m. Speed=0.000000m/h.]]></desc>
</trkpt>
<trkpt lat="36.723603" lon="137.751290">
<ele>2819.459716</ele>
<time>2014-08-18T03:38:19Z</time>
<desc><![CDATA[lat.=36.723603, lon.=137.751290, Alt.=2819.459716m. Speed=2.000000m/h.]]></desc>
</trkpt>
<trkpt lat="36.723634" lon="137.751260">
<ele>2818.282353</ele>
<time>2014-08-18T03:38:24Z</time>
<desc><![CDATA[lat.=36.723634, lon.=137.751260, Alt.=2818.282353m. Speed=3.000000m/h.]]></desc>
</trkpt>
<trkpt lat="36.723662" lon="137.751243">
<ele>2824.080133</ele>
<time>2014-08-18T03:38:29Z</time>
<desc><![CDATA[lat.=36.723662, lon.=137.751243, Alt.=2824.080133m. Speed=3.000000m/h.]]></desc>
</trkpt>
<trkpt lat="36.723658" lon="137.751250">
<ele>2826.403633</ele>
<time>2014-08-18T03:38:34Z</time>
<desc><![CDATA[lat.=36.723658, lon.=137.751250, Alt.=2826.403633m. Speed=0.000000m/h.]]></desc>
</trkpt>
<trkpt lat="36.723648" lon="137.751242">
<ele>2824.614403</ele>
<time>2014-08-18T03:38:39Z</time>
<desc><![CDATA[lat.=36.723648, lon.=137.751242, Alt.=2824.614403m. Speed=0.000000m/h.]]></desc>
</trkpt>
<trkpt lat="36.723657" lon="137.751265">
<ele>2828.188225</ele>
<time>2014-08-18T03:38:44Z</time>
<desc><![CDATA[lat.=36.723657, lon.=137.751265, Alt.=2828.188225m. Speed=0.000000m/h.]]></desc>
</trkpt>
<trkpt lat="36.723646" lon="137.751257">
<ele>2828.129178</ele>
<time>2014-08-18T03:38:49Z</time>
<desc><![CDATA[lat.=36.723646, lon.=137.751257, Alt.=2828.129178m. Speed=0.000000m/h.]]></desc>
</trkpt>
<trkpt lat="36.723643" lon="137.751265">
<ele>2826.992313</ele>
<time>2014-08-18T03:38:55Z</time>
<desc><![CDATA[lat.=36.723643, lon.=137.751265, Alt.=2826.992313m. Speed=0.000000m/h.]]></desc>
</trkpt>
<trkpt lat="36.723647" lon="137.751257">
<ele>2826.398995</ele>
<time>2014-08-18T03:39:00Z</time>
<desc><![CDATA[lat.=36.723647, lon.=137.751257, Alt.=2826.398995m. Speed=0.000000m/h.]]></desc>
</trkpt>
<trkpt lat="36.723669" lon="137.751275">
<ele>2824.786908</ele>
<time>2014-08-18T03:39:05Z</time>
<desc><![CDATA[lat.=36.723669, lon.=137.751275, Alt.=2824.786908m. Speed=1.000000m/h.]]></desc>
</trkpt>
<trkpt lat="36.723692" lon="137.751245">
<ele>2823.011594</ele>
<time>2014-08-18T03:39:10Z</time>
<desc><![CDATA[lat.=36.723692, lon.=137.751245, Alt.=2823.011594m. Speed=2.000000m/h.]]></desc>
</trkpt>
<trkpt lat="36.723730" lon="137.751199">
<ele>2820.647604</ele>
<time>2014-08-18T03:39:15Z</time>
<desc><![CDATA[lat.=36.723730, lon.=137.751199, Alt.=2820.647604m. Speed=3.000000m/h.]]></desc>
</trkpt>
<trkpt lat="36.723768" lon="137.751202">
<ele>2818.446844</ele>
<time>2014-08-18T03:39:20Z</time>
<desc><![CDATA[lat.=36.723768, lon.=137.751202, Alt.=2818.446844m. Speed=4.000000m/h.]]></desc>
</trkpt>
<trkpt lat="36.723778" lon="137.751258">
<ele>2816.938938</ele>
<time>2014-08-18T03:39:25Z</time>
<desc><![CDATA[lat.=36.723778, lon.=137.751258, Alt.=2816.938938m. Speed=3.000000m/h.]]></desc>
</trkpt>
<trkpt lat="36.723784" lon="137.751290">
<ele>2817.645716</ele>
<time>2014-08-18T03:39:30Z</time>
<desc><![CDATA[lat.=36.723784, lon.=137.751290, Alt.=2817.645716m. Speed=3.000000m/h.]]></desc>
</trkpt>
<trkpt lat="36.723821" lon="137.751324">
<ele>2815.553781</ele>
<time>2014-08-18T03:39:35Z</time>
<desc><![CDATA[lat.=36.723821, lon.=137.751324, Alt.=2815.553781m. Speed=3.000000m/h.]]></desc>
</trkpt>
<trkpt lat="36.723824" lon="137.751380">
<ele>2813.447926</ele>
<time>2014-08-18T03:39:40Z</time>
<desc><![CDATA[lat.=36.723824, lon.=137.751380, Alt.=2813.447926m. Speed=4.000000m/h.]]></desc>
</trkpt>
<trkpt lat="36.723853" lon="137.751397">
<ele>2814.163991</ele>
<time>2014-08-18T03:39:45Z</time>
<desc><![CDATA[lat.=36.723853, lon.=137.751397, Alt.=2814.163991m. Speed=3.000000m/h.]]></desc>
</trkpt>
<trkpt lat="36.723893" lon="137.751389">
<ele>2816.560469</ele>
<time>2014-08-18T03:39:50Z</time>
<desc><![CDATA[lat.=36.723893, lon.=137.751389, Alt.=2816.560469m. Speed=3.000000m/h.]]></desc>
</trkpt>
<trkpt lat="36.723941" lon="137.751383">
<ele>2816.094546</ele>
<time>2014-08-18T03:39:55Z</time>
<desc><![CDATA[lat.=36.723941, lon.=137.751383, Alt.=2816.094546m. Speed=4.000000m/h.]]></desc>
</trkpt>
<trkpt lat="36.723996" lon="137.751378">
<ele>2814.496407</ele>
<time>2014-08-18T03:40:00Z</time>
<desc><![CDATA[lat.=36.723996, lon.=137.751378, Alt.=2814.496407m. Speed=4.000000m/h.]]></desc>
</trkpt>
<trkpt lat="36.724037" lon="137.751388">
<ele>2811.756762</ele>
<time>2014-08-18T03:40:05Z</time>
<desc><![CDATA[lat.=36.724037, lon.=137.751388, Alt.=2811.756762m. Speed=4.000000m/h.]]></desc>
</trkpt>
<trkpt lat="36.724071" lon="137.751382">
<ele>2810.094928</ele>
<time>2014-08-18T03:40:10Z</time>
<desc><![CDATA[lat.=36.724071, lon.=137.751382, Alt.=2810.094928m. Speed=4.000000m/h.]]></desc>
</trkpt>
<trkpt lat="36.724115" lon="137.751385">
<ele>2808.492156</ele>
<time>2014-08-18T03:40:15Z</time>
<desc><![CDATA[lat.=36.724115, lon.=137.751385, Alt.=2808.492156m. Speed=4.000000m/h.]]></desc>
</trkpt>
<trkpt lat="36.724156" lon="137.751395">
<ele>2807.482702</ele>
<time>2014-08-18T03:40:20Z</time>
<desc><![CDATA[lat.=36.724156, lon.=137.751395, Alt.=2807.482702m. Speed=4.000000m/h.]]></desc>
</trkpt>
<trkpt lat="36.724203" lon="137.751404">
<ele>2808.801398</ele>
<time>2014-08-18T03:40:25Z</time>
<desc><![CDATA[lat.=36.724203, lon.=137.751404, Alt.=2808.801398m. Speed=4.000000m/h.]]></desc>
</trkpt>
<trkpt lat="36.724241" lon="137.751389">
<ele>2808.276442</ele>
<time>2014-08-18T03:40:30Z</time>
<desc><![CDATA[lat.=36.724241, lon.=137.751389, Alt.=2808.276442m. Speed=4.000000m/h.]]></desc>
</trkpt>
<trkpt lat="36.724278" lon="137.751375">
<ele>2807.751489</ele>
<time>2014-08-18T03:40:35Z</time>
<desc><![CDATA[lat.=36.724278, lon.=137.751375, Alt.=2807.751489m. Speed=4.000000m/h.]]></desc>
</trkpt>
<trkpt lat="36.724333" lon="137.751385">
<ele>2807.937980</ele>
<time>2014-08-18T03:40:40Z</time>
<desc><![CDATA[lat.=36.724333, lon.=137.751385, Alt.=2807.937980m. Speed=4.000000m/h.]]></desc>
</trkpt>
<trkpt lat="36.724391" lon="137.751386">
<ele>2809.261344</ele>
<time>2014-08-18T03:40:45Z</time>
<desc><![CDATA[lat.=36.724391, lon.=137.751386, Alt.=2809.261344m. Speed=4.000000m/h.]]></desc>
</trkpt>
<trkpt lat="36.724440" lon="137.751381">
<ele>2807.065286</ele>
<time>2014-08-18T03:40:50Z</time>
<desc><![CDATA[lat.=36.724440, lon.=137.751381, Alt.=2807.065286m. Speed=4.000000m/h.]]></desc>
</trkpt>
<trkpt lat="36.724495" lon="137.751359">
<ele>2807.142971</ele>
<time>2014-08-18T03:40:55Z</time>
<desc><![CDATA[lat.=36.724495, lon.=137.751359, Alt.=2807.142971m. Speed=4.000000m/h.]]></desc>
</trkpt>
<trkpt lat="36.724540" lon="137.751345">
<ele>2807.216005</ele>
<time>2014-08-18T03:41:00Z</time>
<desc><![CDATA[lat.=36.724540, lon.=137.751345, Alt.=2807.216005m. Speed=4.000000m/h.]]></desc>
</trkpt>
<trkpt lat="36.724592" lon="137.751347">
<ele>2806.211242</ele>
<time>2014-08-18T03:41:05Z</time>
<desc><![CDATA[lat.=36.724592, lon.=137.751347, Alt.=2806.211242m. Speed=4.000000m/h.]]></desc>
</trkpt>
<trkpt lat="36.724632" lon="137.751356">
<ele>2806.932007</ele>
<time>2014-08-18T03:41:10Z</time>
<desc><![CDATA[lat.=36.724632, lon.=137.751356, Alt.=2806.932007m. Speed=4.000000m/h.]]></desc>
</trkpt>
<trkpt lat="36.724654" lon="137.751325">
<ele>2806.886914</ele>
<time>2014-08-18T03:41:15Z</time>
<desc><![CDATA[lat.=36.724654, lon.=137.751325, Alt.=2806.886914m. Speed=3.000000m/h.]]></desc>
</trkpt>
<trkpt lat="36.724666" lon="137.751318">
<ele>2806.891574</ele>
<time>2014-08-18T03:41:20Z</time>
<desc><![CDATA[lat.=36.724666, lon.=137.751318, Alt.=2806.891574m. Speed=2.000000m/h.]]></desc>
</trkpt>
<trkpt lat="36.724702" lon="137.751319">
<ele>2806.421063</ele>
<time>2014-08-18T03:41:25Z</time>
<desc><![CDATA[lat.=36.724702, lon.=137.751319, Alt.=2806.421063m. Speed=3.000000m/h.]]></desc>
</trkpt>
<trkpt lat="36.724728" lon="137.751312">
<ele>2807.621665</ele>
<time>2014-08-18T03:41:30Z</time>
<desc><![CDATA[lat.=36.724728, lon.=137.751312, Alt.=2807.621665m. Speed=2.000000m/h.]]></desc>
</trkpt>
<trkpt lat="36.724757" lon="137.751328">
<ele>2810.067961</ele>
<time>2014-08-18T03:41:35Z</time>
<desc><![CDATA[lat.=36.724757, lon.=137.751328, Alt.=2810.067961m. Speed=2.000000m/h.]]></desc>
</trkpt>
<trkpt lat="36.724768" lon="137.751321">
<ele>2808.342441</ele>
<time>2014-08-18T03:41:40Z</time>
<desc><![CDATA[lat.=36.724768, lon.=137.751321, Alt.=2808.342441m. Speed=2.000000m/h.]]></desc>
</trkpt>
<trkpt lat="36.724802" lon="137.751298">
<ele>2808.356427</ele>
<time>2014-08-18T03:41:45Z</time>
<desc><![CDATA[lat.=36.724802, lon.=137.751298, Alt.=2808.356427m. Speed=3.000000m/h.]]></desc>
</trkpt>
<trkpt lat="36.724836" lon="137.751277">
<ele>2806.640235</ele>
<time>2014-08-18T03:41:50Z</time>
<desc><![CDATA[lat.=36.724836, lon.=137.751277, Alt.=2806.640235m. Speed=3.000000m/h.]]></desc>
</trkpt>
<trkpt lat="36.724880" lon="137.751262">
<ele>2808.443482</ele>
<time>2014-08-18T03:41:55Z</time>
<desc><![CDATA[lat.=36.724880, lon.=137.751262, Alt.=2808.443482m. Speed=4.000000m/h.]]></desc>
</trkpt>
<trkpt lat="36.724920" lon="137.751238">
<ele>2810.785633</ele>
<time>2014-08-18T03:42:00Z</time>
<desc><![CDATA[lat.=36.724920, lon.=137.751238, Alt.=2810.785633m. Speed=4.000000m/h.]]></desc>
</trkpt>
<trkpt lat="36.724954" lon="137.751216">
<ele>2810.799631</ele>
<time>2014-08-18T03:42:05Z</time>
<desc><![CDATA[lat.=36.724954, lon.=137.751216, Alt.=2810.799631m. Speed=3.000000m/h.]]></desc>
</trkpt>
<trkpt lat="36.724988" lon="137.751193">
<ele>2810.813633</ele>
<time>2014-08-18T03:42:10Z</time>
<desc><![CDATA[lat.=36.724988, lon.=137.751193, Alt.=2810.813633m. Speed=3.000000m/h.]]></desc>
</trkpt>
<trkpt lat="36.725020" lon="137.751185">
<ele>2814.342407</ele>
<time>2014-08-18T03:42:15Z</time>
<desc><![CDATA[lat.=36.725020, lon.=137.751185, Alt.=2814.342407m. Speed=3.000000m/h.]]></desc>
</trkpt>
<trkpt lat="36.725053" lon="137.751178">
<ele>2814.410821</ele>
<time>2014-08-18T03:42:20Z</time>
<desc><![CDATA[lat.=36.725053, lon.=137.751178, Alt.=2814.410821m. Speed=0.000000m/h.]]></desc>
</trkpt>
<trkpt lat="36.725064" lon="137.751186">
<ele>2814.469897</ele>
<time>2014-08-18T03:42:25Z</time>
<desc><![CDATA[lat.=36.725064, lon.=137.751186, Alt.=2814.469897m. Speed=1.000000m/h.]]></desc>
</trkpt>
<trkpt lat="36.725083" lon="137.751163">
<ele>2815.018136</ele>
<time>2014-08-18T03:42:30Z</time>
<desc><![CDATA[lat.=36.725083, lon.=137.751163, Alt.=2815.018136m. Speed=2.000000m/h.]]></desc>
</trkpt>
<trkpt lat="36.725110" lon="137.751125">
<ele>2814.379765</ele>
<time>2014-08-18T03:42:35Z</time>
<desc><![CDATA[lat.=36.725110, lon.=137.751125, Alt.=2814.379765m. Speed=3.000000m/h.]]></desc>
</trkpt>
<trkpt lat="36.725144" lon="137.751119">
<ele>2810.987822</ele>
<time>2014-08-18T03:42:40Z</time>
<desc><![CDATA[lat.=36.725144, lon.=137.751119, Alt.=2810.987822m. Speed=3.000000m/h.]]></desc>
</trkpt>
<trkpt lat="36.725157" lon="137.751067">
<ele>2805.638733</ele>
<time>2014-08-18T03:42:45Z</time>
<desc><![CDATA[lat.=36.725157, lon.=137.751067, Alt.=2805.638733m. Speed=3.000000m/h.]]></desc>
</trkpt>
<trkpt lat="36.725201" lon="137.751084">
<ele>2805.820640</ele>
<time>2014-08-18T03:42:50Z</time>
<desc><![CDATA[lat.=36.725201, lon.=137.751084, Alt.=2805.820640m. Speed=3.000000m/h.]]></desc>
</trkpt>
<trkpt lat="36.725248" lon="137.751093">
<ele>2807.139428</ele>
<time>2014-08-18T03:42:55Z</time>
<desc><![CDATA[lat.=36.725248, lon.=137.751093, Alt.=2807.139428m. Speed=4.000000m/h.]]></desc>
</trkpt>
<trkpt lat="36.725299" lon="137.751126">
<ele>2807.973727</ele>
<time>2014-08-18T03:43:00Z</time>
<desc><![CDATA[lat.=36.725299, lon.=137.751126, Alt.=2807.973727m. Speed=4.000000m/h.]]></desc>
</trkpt>
<trkpt lat="36.725358" lon="137.751113">
<ele>2807.512614</ele>
<time>2014-08-18T03:43:05Z</time>
<desc><![CDATA[lat.=36.725358, lon.=137.751113, Alt.=2807.512614m. Speed=4.000000m/h.]]></desc>
</trkpt>
<trkpt lat="36.725406" lon="137.751107">
<ele>2807.046830</ele>
<time>2014-08-18T03:43:10Z</time>
<desc><![CDATA[lat.=36.725406, lon.=137.751107, Alt.=2807.046830m. Speed=4.000000m/h.]]></desc>
</trkpt>
<trkpt lat="36.725458" lon="137.751092">
<ele>2807.717929</ele>
<time>2014-08-18T03:43:15Z</time>
<desc><![CDATA[lat.=36.725458, lon.=137.751092, Alt.=2807.717929m. Speed=4.000000m/h.]]></desc>
</trkpt>
<trkpt lat="36.725498" lon="137.751086">
<ele>2808.384353</ele>
<time>2014-08-18T03:43:20Z</time>
<desc><![CDATA[lat.=36.725498, lon.=137.751086, Alt.=2808.384353m. Speed=4.000000m/h.]]></desc>
</trkpt>
<trkpt lat="36.725543" lon="137.751071">
<ele>2808.457479</ele>
<time>2014-08-18T03:43:25Z</time>
<desc><![CDATA[lat.=36.725543, lon.=137.751071, Alt.=2808.457479m. Speed=4.000000m/h.]]></desc>
</trkpt>
<trkpt lat="36.725595" lon="137.751057">
<ele>2809.128592</ele>
<time>2014-08-18T03:43:30Z</time>
<desc><![CDATA[lat.=36.725595, lon.=137.751057, Alt.=2809.128592m. Speed=4.000000m/h.]]></desc>
</trkpt>
<trkpt lat="36.725618" lon="137.751027">
<ele>2807.353372</ele>
<time>2014-08-18T03:43:35Z</time>
<desc><![CDATA[lat.=36.725618, lon.=137.751027, Alt.=2807.353372m. Speed=3.000000m/h.]]></desc>
</trkpt>
<trkpt lat="36.725652" lon="137.750989">
<ele>2807.313019</ele>
<time>2014-08-18T03:43:40Z</time>
<desc><![CDATA[lat.=36.725652, lon.=137.750989, Alt.=2807.313019m. Speed=4.000000m/h.]]></desc>
</trkpt>
<trkpt lat="36.725685" lon="137.750966">
<ele>2807.327073</ele>
<time>2014-08-18T03:43:45Z</time>
<desc><![CDATA[lat.=36.725685, lon.=137.750966, Alt.=2807.327073m. Speed=3.000000m/h.]]></desc>
</trkpt>
<trkpt lat="36.725695" lon="137.750972">
<ele>2812.576704</ele>
<time>2014-08-18T03:43:50Z</time>
<desc><![CDATA[lat.=36.725695, lon.=137.750972, Alt.=2812.576704m. Speed=0.000000m/h.]]></desc>
</trkpt>
<trkpt lat="36.725688" lon="137.750956">
<ele>2811.924317</ele>
<time>2014-08-18T03:43:55Z</time>
<desc><![CDATA[lat.=36.725688, lon.=137.750956, Alt.=2811.924317m. Speed=0.000000m/h.]]></desc>
</trkpt>
<trkpt lat="36.725688" lon="137.750955">
<ele>2813.654498</ele>
<time>2014-08-18T03:44:00Z</time>
<desc><![CDATA[lat.=36.725688, lon.=137.750955, Alt.=2813.654498m. Speed=0.000000m/h.]]></desc>
</trkpt>
<trkpt lat="36.725694" lon="137.750970">
<ele>2816.037066</ele>
<time>2014-08-18T03:44:05Z</time>
<desc><![CDATA[lat.=36.725694, lon.=137.750970, Alt.=2816.037066m. Speed=0.000000m/h.]]></desc>
</trkpt>
<trkpt lat="36.725694" lon="137.750970">
<ele>2817.767247</ele>
<time>2014-08-18T03:44:10Z</time>
<desc><![CDATA[lat.=36.725694, lon.=137.750970, Alt.=2817.767247m. Speed=0.000000m/h.]]></desc>
</trkpt>
<trkpt lat="36.725705" lon="137.750962">
<ele>2817.771933</ele>
<time>2014-08-18T03:44:16Z</time>
<desc><![CDATA[lat.=36.725705, lon.=137.750962, Alt.=2817.771933m. Speed=1.000000m/h.]]></desc>
</trkpt>
<trkpt lat="36.725738" lon="137.750955">
<ele>2817.840392</ele>
<time>2014-08-18T03:44:21Z</time>
<desc><![CDATA[lat.=36.725738, lon.=137.750955, Alt.=2817.840392m. Speed=2.000000m/h.]]></desc>
</trkpt>
<trkpt lat="36.725782" lon="137.750957">
<ele>2817.967943</ele>
<time>2014-08-18T03:44:26Z</time>
<desc><![CDATA[lat.=36.725782, lon.=137.750957, Alt.=2817.967943m. Speed=3.000000m/h.]]></desc>
</trkpt>
<trkpt lat="36.725834" lon="137.750960">
<ele>2815.233123</ele>
<time>2014-08-18T03:44:31Z</time>
<desc><![CDATA[lat.=36.725834, lon.=137.750960, Alt.=2815.233123m. Speed=3.000000m/h.]]></desc>
</trkpt>
<trkpt lat="36.725872" lon="137.750962">
<ele>2813.032513</ele>
<time>2014-08-18T03:44:36Z</time>
<desc><![CDATA[lat.=36.725872, lon.=137.750962, Alt.=2813.032513m. Speed=4.000000m/h.]]></desc>
</trkpt>
<trkpt lat="36.725917" lon="137.750965">
<ele>2809.699714</ele>
<time>2014-08-18T03:44:41Z</time>
<desc><![CDATA[lat.=36.725917, lon.=137.750965, Alt.=2809.699714m. Speed=3.000000m/h.]]></desc>
</trkpt>
<trkpt lat="36.725951" lon="137.750960">
<ele>2806.307825</ele>
<time>2014-08-18T03:44:46Z</time>
<desc><![CDATA[lat.=36.725951, lon.=137.750960, Alt.=2806.307825m. Speed=3.000000m/h.]]></desc>
</trkpt>
<trkpt lat="36.725985" lon="137.750938">
<ele>2804.591718</ele>
<time>2014-08-18T03:44:51Z</time>
<desc><![CDATA[lat.=36.725985, lon.=137.750938, Alt.=2804.591718m. Speed=3.000000m/h.]]></desc>
</trkpt>
<trkpt lat="36.726029" lon="137.750941">
<ele>2802.989109</ele>
<time>2014-08-18T03:44:56Z</time>
<desc><![CDATA[lat.=36.726029, lon.=137.750941, Alt.=2802.989109m. Speed=3.000000m/h.]]></desc>
</trkpt>
<trkpt lat="36.726059" lon="137.750942">
<ele>2801.920705</ele>
<time>2014-08-18T03:45:01Z</time>
<desc><![CDATA[lat.=36.726059, lon.=137.750942, Alt.=2801.920705m. Speed=3.000000m/h.]]></desc>
</trkpt>
<trkpt lat="36.726107" lon="137.750937">
<ele>2799.724806</ele>
<time>2014-08-18T03:45:06Z</time>
<desc><![CDATA[lat.=36.726107, lon.=137.750937, Alt.=2799.724806m. Speed=3.000000m/h.]]></desc>
</trkpt>
<trkpt lat="36.726145" lon="137.750922">
<ele>2799.199996</ele>
<time>2014-08-18T03:45:11Z</time>
<desc><![CDATA[lat.=36.726145, lon.=137.750922, Alt.=2799.199996m. Speed=3.000000m/h.]]></desc>
</trkpt>
<trkpt lat="36.726184" lon="137.750931">
<ele>2801.651058</ele>
<time>2014-08-18T03:45:16Z</time>
<desc><![CDATA[lat.=36.726184, lon.=137.750931, Alt.=2801.651058m. Speed=3.000000m/h.]]></desc>
</trkpt>
<trkpt lat="36.726218" lon="137.750908">
<ele>2801.665148</ele>
<time>2014-08-18T03:45:21Z</time>
<desc><![CDATA[lat.=36.726218, lon.=137.750908, Alt.=2801.665148m. Speed=3.000000m/h.]]></desc>
</trkpt>
<trkpt lat="36.726243" lon="137.750916">
<ele>2802.920230</ele>
<time>2014-08-18T03:45:26Z</time>
<desc><![CDATA[lat.=36.726243, lon.=137.750916, Alt.=2802.920230m. Speed=3.000000m/h.]]></desc>
</trkpt>
<trkpt lat="36.726266" lon="137.750919">
<ele>2799.523665</ele>
<time>2014-08-18T03:45:31Z</time>
<desc><![CDATA[lat.=36.726266, lon.=137.750919, Alt.=2799.523665m. Speed=2.000000m/h.]]></desc>
</trkpt>
<trkpt lat="36.726291" lon="137.750927">
<ele>2800.778750</ele>
<time>2014-08-18T03:45:36Z</time>
<desc><![CDATA[lat.=36.726291, lon.=137.750927, Alt.=2800.778750m. Speed=2.000000m/h.]]></desc>
</trkpt>
<trkpt lat="36.726313" lon="137.750928">
<ele>2800.842549</ele>
<time>2014-08-18T03:45:41Z</time>
<desc><![CDATA[lat.=36.726313, lon.=137.750928, Alt.=2800.842549m. Speed=2.000000m/h.]]></desc>
</trkpt>
<trkpt lat="36.726350" lon="137.750913">
<ele>2802.047935</ele>
<time>2014-08-18T03:45:46Z</time>
<desc><![CDATA[lat.=36.726350, lon.=137.750913, Alt.=2802.047935m. Speed=3.000000m/h.]]></desc>
</trkpt>
<trkpt lat="36.726379" lon="137.750914">
<ele>2802.709730</ele>
<time>2014-08-18T03:45:51Z</time>
<desc><![CDATA[lat.=36.726379, lon.=137.750914, Alt.=2802.709730m. Speed=3.000000m/h.]]></desc>
</trkpt>
<trkpt lat="36.726415" lon="137.750929">
<ele>2805.754104</ele>
<time>2014-08-18T03:45:56Z</time>
<desc><![CDATA[lat.=36.726415, lon.=137.750929, Alt.=2805.754104m. Speed=3.000000m/h.]]></desc>
</trkpt>
<trkpt lat="36.726440" lon="137.750953">
<ele>2808.793778</ele>
<time>2014-08-18T03:46:01Z</time>
<desc><![CDATA[lat.=36.726440, lon.=137.750953, Alt.=2808.793778m. Speed=2.000000m/h.]]></desc>
</trkpt>
<trkpt lat="36.726473" lon="137.750947">
<ele>2807.132105</ele>
<time>2014-08-18T03:46:06Z</time>
<desc><![CDATA[lat.=36.726473, lon.=137.750947, Alt.=2807.132105m. Speed=3.000000m/h.]]></desc>
</trkpt>
<trkpt lat="36.726491" lon="137.750955">
<ele>2807.789204</ele>
<time>2014-08-18T03:46:11Z</time>
<desc><![CDATA[lat.=36.726491, lon.=137.750955, Alt.=2807.789204m. Speed=3.000000m/h.]]></desc>
</trkpt>
<trkpt lat="36.726531" lon="137.750963">
<ele>2810.240293</ele>
<time>2014-08-18T03:46:16Z</time>
<desc><![CDATA[lat.=36.726531, lon.=137.750963, Alt.=2810.240293m. Speed=3.000000m/h.]]></desc>
</trkpt>
<trkpt lat="36.726572" lon="137.750973">
<ele>2809.231024</ele>
<time>2014-08-18T03:46:21Z</time>
<desc><![CDATA[lat.=36.726572, lon.=137.750973, Alt.=2809.231024m. Speed=3.000000m/h.]]></desc>
</trkpt>
<trkpt lat="36.726612" lon="137.750999">
<ele>2808.276161</ele>
<time>2014-08-18T03:46:26Z</time>
<desc><![CDATA[lat.=36.726612, lon.=137.750999, Alt.=2808.276161m. Speed=3.000000m/h.]]></desc>
</trkpt>
<trkpt lat="36.726647" lon="137.751031">
<ele>2809.644774</ele>
<time>2014-08-18T03:46:31Z</time>
<desc><![CDATA[lat.=36.726647, lon.=137.751031, Alt.=2809.644774m. Speed=3.000000m/h.]]></desc>
</trkpt>
<trkpt lat="36.726684" lon="137.751049">
<ele>2807.498628</ele>
<time>2014-08-18T03:46:36Z</time>
<desc><![CDATA[lat.=36.726684, lon.=137.751049, Alt.=2807.498628m. Speed=3.000000m/h.]]></desc>
</trkpt>
<trkpt lat="36.726721" lon="137.751067">
<ele>2805.352484</ele>
<time>2014-08-18T03:46:41Z</time>
<desc><![CDATA[lat.=36.726721, lon.=137.751067, Alt.=2805.352484m. Speed=3.000000m/h.]]></desc>
</trkpt>
<trkpt lat="36.726763" lon="137.751081">
<ele>2812.455244</ele>
<time>2014-08-18T03:46:46Z</time>
<desc><![CDATA[lat.=36.726763, lon.=137.751081, Alt.=2812.455244m. Speed=3.000000m/h.]]></desc>
</trkpt>
<trkpt lat="36.726796" lon="137.751107">
<ele>2810.902399</ele>
<time>2014-08-18T03:46:51Z</time>
<desc><![CDATA[lat.=36.726796, lon.=137.751107, Alt.=2810.902399m. Speed=3.000000m/h.]]></desc>
</trkpt>
<trkpt lat="36.726792" lon="137.751147">
<ele>2809.874321</ele>
<time>2014-08-18T03:46:56Z</time>
<desc><![CDATA[lat.=36.726792, lon.=137.751147, Alt.=2809.874321m. Speed=3.000000m/h.]]></desc>
</trkpt>
<trkpt lat="36.726800" lon="137.751149">
<ele>2805.281780</ele>
<time>2014-08-18T03:47:01Z</time>
<desc><![CDATA[lat.=36.726800, lon.=137.751149, Alt.=2805.281780m. Speed=2.000000m/h.]]></desc>
</trkpt>
<trkpt lat="36.726833" lon="137.751175">
<ele>2803.728940</ele>
<time>2014-08-18T03:47:06Z</time>
<desc><![CDATA[lat.=36.726833, lon.=137.751175, Alt.=2803.728940m. Speed=3.000000m/h.]]></desc>
</trkpt>
<trkpt lat="36.726825" lon="137.751222">
<ele>2805.024338</ele>
<time>2014-08-18T03:47:11Z</time>
<desc><![CDATA[lat.=36.726825, lon.=137.751222, Alt.=2805.024338m. Speed=3.000000m/h.]]></desc>
</trkpt>
<trkpt lat="36.726830" lon="137.751267">
<ele>2810.976100</ele>
<time>2014-08-18T03:47:16Z</time>
<desc><![CDATA[lat.=36.726830, lon.=137.751267, Alt.=2810.976100m. Speed=3.000000m/h.]]></desc>
</trkpt>
<trkpt lat="36.726830" lon="137.751284">
<ele>2807.570148</ele>
<time>2014-08-18T03:47:21Z</time>
<desc><![CDATA[lat.=36.726830, lon.=137.751284, Alt.=2807.570148m. Speed=2.000000m/h.]]></desc>
</trkpt>
<trkpt lat="36.726855" lon="137.751291">
<ele>2810.555444</ele>
<time>2014-08-18T03:47:26Z</time>
<desc><![CDATA[lat.=36.726855, lon.=137.751291, Alt.=2810.555444m. Speed=2.000000m/h.]]></desc>
</trkpt>
<trkpt lat="36.726871" lon="137.751346">
<ele>2813.105967</ele>
<time>2014-08-18T03:47:31Z</time>
<desc><![CDATA[lat.=36.726871, lon.=137.751346, Alt.=2813.105967m. Speed=3.000000m/h.]]></desc>
</trkpt>
<trkpt lat="36.726872" lon="137.751396">
<ele>2808.078656</ele>
<time>2014-08-18T03:47:36Z</time>
<desc><![CDATA[lat.=36.726872, lon.=137.751396, Alt.=2808.078656m. Speed=3.000000m/h.]]></desc>
</trkpt>
<trkpt lat="36.726882" lon="137.751438">
<ele>2804.786234</ele>
<time>2014-08-18T03:47:41Z</time>
<desc><![CDATA[lat.=36.726882, lon.=137.751438, Alt.=2804.786234m. Speed=3.000000m/h.]]></desc>
</trkpt>
<trkpt lat="36.726890" lon="137.751471">
<ele>2800.302518</ele>
<time>2014-08-18T03:47:46Z</time>
<desc><![CDATA[lat.=36.726890, lon.=137.751471, Alt.=2800.302518m. Speed=3.000000m/h.]]></desc>
</trkpt>
<trkpt lat="36.726918" lon="137.751519">
<ele>2802.857760</ele>
<time>2014-08-18T03:47:51Z</time>
<desc><![CDATA[lat.=36.726918, lon.=137.751519, Alt.=2802.857760m. Speed=3.000000m/h.]]></desc>
</trkpt>
<trkpt lat="36.726924" lon="137.751583">
<ele>2801.943235</ele>
<time>2014-08-18T03:47:56Z</time>
<desc><![CDATA[lat.=36.726924, lon.=137.751583, Alt.=2801.943235m. Speed=4.000000m/h.]]></desc>
</trkpt>
<trkpt lat="36.726933" lon="137.751638">
<ele>2803.895778</ele>
<time>2014-08-18T03:48:01Z</time>
<desc><![CDATA[lat.=36.726933, lon.=137.751638, Alt.=2803.895778m. Speed=4.000000m/h.]]></desc>
</trkpt>
<trkpt lat="36.726962" lon="137.751687">
<ele>2802.990673</ele>
<time>2014-08-18T03:48:06Z</time>
<desc><![CDATA[lat.=36.726962, lon.=137.751687, Alt.=2802.990673m. Speed=4.000000m/h.]]></desc>
</trkpt>
<trkpt lat="36.726951" lon="137.751728">
<ele>2797.904261</ele>
<time>2014-08-18T03:48:11Z</time>
<desc><![CDATA[lat.=36.726951, lon.=137.751728, Alt.=2797.904261m. Speed=3.000000m/h.]]></desc>
</trkpt>
<trkpt lat="36.726959" lon="137.751762">
<ele>2793.420559</ele>
<time>2014-08-18T03:48:16Z</time>
<desc><![CDATA[lat.=36.726959, lon.=137.751762, Alt.=2793.420559m. Speed=3.000000m/h.]]></desc>
</trkpt>
<trkpt lat="36.726977" lon="137.751788">
<ele>2790.671742</ele>
<time>2014-08-18T03:48:21Z</time>
<desc><![CDATA[lat.=36.726977, lon.=137.751788, Alt.=2790.671742m. Speed=3.000000m/h.]]></desc>
</trkpt>
<trkpt lat="36.727009" lon="137.751828">
<ele>2792.633711</ele>
<time>2014-08-18T03:48:26Z</time>
<desc><![CDATA[lat.=36.727009, lon.=137.751828, Alt.=2792.633711m. Speed=3.000000m/h.]]></desc>
</trkpt>
<trkpt lat="36.726985" lon="137.751873">
<ele>2794.463318</ele>
<time>2014-08-18T03:48:31Z</time>
<desc><![CDATA[lat.=36.726985, lon.=137.751873, Alt.=2794.463318m. Speed=3.000000m/h.]]></desc>
</trkpt>
<trkpt lat="36.727003" lon="137.751898">
<ele>2795.174865</ele>
<time>2014-08-18T03:48:36Z</time>
<desc><![CDATA[lat.=36.727003, lon.=137.751898, Alt.=2795.174865m. Speed=3.000000m/h.]]></desc>
</trkpt>
<trkpt lat="36.726992" lon="137.751937">
<ele>2793.548822</ele>
<time>2014-08-18T03:48:41Z</time>
<desc><![CDATA[lat.=36.726992, lon.=137.751937, Alt.=2793.548822m. Speed=3.000000m/h.]]></desc>
</trkpt>
<trkpt lat="36.727001" lon="137.752009">
<ele>2793.825633</ele>
<time>2014-08-18T03:48:46Z</time>
<desc><![CDATA[lat.=36.727001, lon.=137.752009, Alt.=2793.825633m. Speed=4.000000m/h.]]></desc>
</trkpt>
<trkpt lat="36.727022" lon="137.752041">
<ele>2793.998307</ele>
<time>2014-08-18T03:48:51Z</time>
<desc><![CDATA[lat.=36.727022, lon.=137.752041, Alt.=2793.998307m. Speed=3.000000m/h.]]></desc>
</trkpt>
<trkpt lat="36.727033" lon="137.752083">
<ele>2790.705922</ele>
<time>2014-08-18T03:48:56Z</time>
<desc><![CDATA[lat.=36.727033, lon.=137.752083, Alt.=2790.705922m. Speed=3.000000m/h.]]></desc>
</trkpt>
<trkpt lat="36.727047" lon="137.752132">
<ele>2788.604843</ele>
<time>2014-08-18T03:49:01Z</time>
<desc><![CDATA[lat.=36.727047, lon.=137.752132, Alt.=2788.604843m. Speed=3.000000m/h.]]></desc>
</trkpt>
<trkpt lat="36.727057" lon="137.752187">
<ele>2788.827247</ele>
<time>2014-08-18T03:49:06Z</time>
<desc><![CDATA[lat.=36.727057, lon.=137.752187, Alt.=2788.827247m. Speed=3.000000m/h.]]></desc>
</trkpt>
<trkpt lat="36.727074" lon="137.752243">
<ele>2789.647658</ele>
<time>2014-08-18T03:49:11Z</time>
<desc><![CDATA[lat.=36.727074, lon.=137.752243, Alt.=2789.647658m. Speed=3.000000m/h.]]></desc>
</trkpt>
<trkpt lat="36.727091" lon="137.752299">
<ele>2790.468074</ele>
<time>2014-08-18T03:49:16Z</time>
<desc><![CDATA[lat.=36.727091, lon.=137.752299, Alt.=2790.468074m. Speed=4.000000m/h.]]></desc>
</trkpt>
<trkpt lat="36.727087" lon="137.752356">
<ele>2786.034124</ele>
<time>2014-08-18T03:49:21Z</time>
<desc><![CDATA[lat.=36.727087, lon.=137.752356, Alt.=2786.034124m. Speed=4.000000m/h.]]></desc>
</trkpt>
<trkpt lat="36.727094" lon="137.752404">
<ele>2785.065238</ele>
<time>2014-08-18T03:49:26Z</time>
<desc><![CDATA[lat.=36.727094, lon.=137.752404, Alt.=2785.065238m. Speed=4.000000m/h.]]></desc>
</trkpt>
<trkpt lat="36.727105" lon="137.752446">
<ele>2780.042694</ele>
<time>2014-08-18T03:49:31Z</time>
<desc><![CDATA[lat.=36.727105, lon.=137.752446, Alt.=2780.042694m. Speed=3.000000m/h.]]></desc>
</trkpt>
<trkpt lat="36.727139" lon="137.752508">
<ele>2786.710800</ele>
<time>2014-08-18T03:49:36Z</time>
<desc><![CDATA[lat.=36.727139, lon.=137.752508, Alt.=2786.710800m. Speed=4.000000m/h.]]></desc>
</trkpt>
<trkpt lat="36.727139" lon="137.752509">
<ele>2784.980621</ele>
<time>2014-08-18T03:49:41Z</time>
<desc><![CDATA[lat.=36.727139, lon.=137.752509, Alt.=2784.980621m. Speed=0.000000m/h.]]></desc>
</trkpt>
<trkpt lat="36.727132" lon="137.752508">
<ele>2786.112795</ele>
<time>2014-08-18T03:49:46Z</time>
<desc><![CDATA[lat.=36.727132, lon.=137.752508, Alt.=2786.112795m. Speed=0.000000m/h.]]></desc>
</trkpt>
<trkpt lat="36.727138" lon="137.752524">
<ele>2786.765232</ele>
<time>2014-08-18T03:49:51Z</time>
<desc><![CDATA[lat.=36.727138, lon.=137.752524, Alt.=2786.765232m. Speed=2.000000m/h.]]></desc>
</trkpt>
<trkpt lat="36.727144" lon="137.752555">
<ele>2789.202280</ele>
<time>2014-08-18T03:49:56Z</time>
<desc><![CDATA[lat.=36.727144, lon.=137.752555, Alt.=2789.202280m. Speed=3.000000m/h.]]></desc>
</trkpt>
<trkpt lat="36.727138" lon="137.752555">
<ele>2786.874097</ele>
<time>2014-08-18T03:50:01Z</time>
<desc><![CDATA[lat.=36.727138, lon.=137.752555, Alt.=2786.874097m. Speed=0.000000m/h.]]></desc>
</trkpt>
<trkpt lat="36.727155" lon="137.752563">
<ele>2789.261415</ele>
<time>2014-08-18T03:50:06Z</time>
<desc><![CDATA[lat.=36.727155, lon.=137.752563, Alt.=2789.261415m. Speed=0.000000m/h.]]></desc>
</trkpt>
<trkpt lat="36.727158" lon="137.752570">
<ele>2792.182902</ele>
<time>2014-08-18T03:50:11Z</time>
<desc><![CDATA[lat.=36.727158, lon.=137.752570, Alt.=2792.182902m. Speed=0.000000m/h.]]></desc>
</trkpt>
<trkpt lat="36.727198" lon="137.752611">
<ele>2791.282569</ele>
<time>2014-08-18T03:50:16Z</time>
<desc><![CDATA[lat.=36.727198, lon.=137.752611, Alt.=2791.282569m. Speed=3.000000m/h.]]></desc>
</trkpt>
<trkpt lat="36.727252" lon="137.752637">
<ele>2791.523819</ele>
<time>2014-08-18T03:50:21Z</time>
<desc><![CDATA[lat.=36.727252, lon.=137.752637, Alt.=2791.523819m. Speed=4.000000m/h.]]></desc>
</trkpt>
<trkpt lat="36.727284" lon="137.752708">
<ele>2793.594718</ele>
<time>2014-08-18T03:50:26Z</time>
<desc><![CDATA[lat.=36.727284, lon.=137.752708, Alt.=2793.594718m. Speed=4.000000m/h.]]></desc>
</trkpt>
<trkpt lat="36.727336" lon="137.752729">
<ele>2804.217050</ele>
<time>2014-08-18T03:50:31Z</time>
<desc><![CDATA[lat.=36.727336, lon.=137.752729, Alt.=2804.217050m. Speed=3.000000m/h.]]></desc>
</trkpt>
<trkpt lat="36.727332" lon="137.752754">
<ele>2801.404433</ele>
<time>2014-08-18T03:50:36Z</time>
<desc><![CDATA[lat.=36.727332, lon.=137.752754, Alt.=2801.404433m. Speed=2.000000m/h.]]></desc>
</trkpt>
<trkpt lat="36.727318" lon="137.752788">
<ele>2795.126757</ele>
<time>2014-08-18T03:50:41Z</time>
<desc><![CDATA[lat.=36.727318, lon.=137.752788, Alt.=2795.126757m. Speed=3.000000m/h.]]></desc>
</trkpt>
<trkpt lat="36.727359" lon="137.752814">
<ele>2792.441832</ele>
<time>2014-08-18T03:50:46Z</time>
<desc><![CDATA[lat.=36.727359, lon.=137.752814, Alt.=2792.441832m. Speed=3.000000m/h.]]></desc>
</trkpt>
<trkpt lat="36.727400" lon="137.752842">
<ele>2788.026732</ele>
<time>2014-08-18T03:50:51Z</time>
<desc><![CDATA[lat.=36.727400, lon.=137.752842, Alt.=2788.026732m. Speed=4.000000m/h.]]></desc>
</trkpt>
<trkpt lat="36.727447" lon="137.752885">
<ele>2784.264085</ele>
<time>2014-08-18T03:50:56Z</time>
<desc><![CDATA[lat.=36.727447, lon.=137.752885, Alt.=2784.264085m. Speed=4.000000m/h.]]></desc>
</trkpt>
<trkpt lat="36.727458" lon="137.752925">
<ele>2782.701930</ele>
<time>2014-08-18T03:51:01Z</time>
<desc><![CDATA[lat.=36.727458, lon.=137.752925, Alt.=2782.701930m. Speed=4.000000m/h.]]></desc>
</trkpt>
<trkpt lat="36.727486" lon="137.752973">
<ele>2783.527112</ele>
<time>2014-08-18T03:51:06Z</time>
<desc><![CDATA[lat.=36.727486, lon.=137.752973, Alt.=2783.527112m. Speed=4.000000m/h.]]></desc>
</trkpt>
<trkpt lat="36.727507" lon="137.753021">
<ele>2785.484465</ele>
<time>2014-08-18T03:51:11Z</time>
<desc><![CDATA[lat.=36.727507, lon.=137.753021, Alt.=2785.484465m. Speed=4.000000m/h.]]></desc>
</trkpt>
<trkpt lat="36.727528" lon="137.753070">
<ele>2783.981466</ele>
<time>2014-08-18T03:51:16Z</time>
<desc><![CDATA[lat.=36.727528, lon.=137.753070, Alt.=2783.981466m. Speed=4.000000m/h.]]></desc>
</trkpt>
<trkpt lat="36.727541" lon="137.753117">
<ele>2785.340817</ele>
<time>2014-08-18T03:51:21Z</time>
<desc><![CDATA[lat.=36.727541, lon.=137.753117, Alt.=2785.340817m. Speed=4.000000m/h.]]></desc>
</trkpt>
<trkpt lat="36.727578" lon="137.753152">
<ele>2781.519047</ele>
<time>2014-08-18T03:51:26Z</time>
<desc><![CDATA[lat.=36.727578, lon.=137.753152, Alt.=2781.519047m. Speed=4.000000m/h.]]></desc>
</trkpt>
<trkpt lat="36.727588" lon="137.753207">
<ele>2781.741532</ele>
<time>2014-08-18T03:51:31Z</time>
<desc><![CDATA[lat.=36.727588, lon.=137.753207, Alt.=2781.741532m. Speed=4.000000m/h.]]></desc>
</trkpt>
<trkpt lat="36.727591" lon="137.753264">
<ele>2779.635832</ele>
<time>2014-08-18T03:51:36Z</time>
<desc><![CDATA[lat.=36.727591, lon.=137.753264, Alt.=2779.635832m. Speed=4.000000m/h.]]></desc>
</trkpt>
<trkpt lat="36.727583" lon="137.753280">
<ele>2779.092267</ele>
<time>2014-08-18T03:51:41Z</time>
<desc><![CDATA[lat.=36.727583, lon.=137.753280, Alt.=2779.092267m. Speed=3.000000m/h.]]></desc>
</trkpt>
<trkpt lat="36.727581" lon="137.753342">
<ele>2781.040235</ele>
<time>2014-08-18T03:51:46Z</time>
<desc><![CDATA[lat.=36.727581, lon.=137.753342, Alt.=2781.040235m. Speed=4.000000m/h.]]></desc>
</trkpt>
<trkpt lat="36.727595" lon="137.753407">
<ele>2778.993697</ele>
<time>2014-08-18T03:51:51Z</time>
<desc><![CDATA[lat.=36.727595, lon.=137.753407, Alt.=2778.993697m. Speed=4.000000m/h.]]></desc>
</trkpt>
<trkpt lat="36.727619" lon="137.753479">
<ele>2778.736496</ele>
<time>2014-08-18T03:51:56Z</time>
<desc><![CDATA[lat.=36.727619, lon.=137.753479, Alt.=2778.736496m. Speed=4.000000m/h.]]></desc>
</trkpt>
<trkpt lat="36.727622" lon="137.753535">
<ele>2778.360992</ele>
<time>2014-08-18T03:52:01Z</time>
<desc><![CDATA[lat.=36.727622, lon.=137.753535, Alt.=2778.360992m. Speed=4.000000m/h.]]></desc>
</trkpt>
<trkpt lat="36.727632" lon="137.753591">
<ele>2776.853327</ele>
<time>2014-08-18T03:52:06Z</time>
<desc><![CDATA[lat.=36.727632, lon.=137.753591, Alt.=2776.853327m. Speed=4.000000m/h.]]></desc>
</trkpt>
<trkpt lat="36.727676" lon="137.753609">
<ele>2775.305321</ele>
<time>2014-08-18T03:52:11Z</time>
<desc><![CDATA[lat.=36.727676, lon.=137.753609, Alt.=2775.305321m. Speed=3.000000m/h.]]></desc>
</trkpt>
<trkpt lat="36.727694" lon="137.753617">
<ele>2777.692667</ele>
<time>2014-08-18T03:52:16Z</time>
<desc><![CDATA[lat.=36.727694, lon.=137.753617, Alt.=2777.692667m. Speed=3.000000m/h.]]></desc>
</trkpt>
<trkpt lat="36.727708" lon="137.753633">
<ele>2778.943146</ele>
<time>2014-08-18T03:52:21Z</time>
<desc><![CDATA[lat.=36.727708, lon.=137.753633, Alt.=2778.943146m. Speed=2.000000m/h.]]></desc>
</trkpt>
<trkpt lat="36.727733" lon="137.753657">
<ele>2780.252784</ele>
<time>2014-08-18T03:52:26Z</time>
<desc><![CDATA[lat.=36.727733, lon.=137.753657, Alt.=2780.252784m. Speed=2.000000m/h.]]></desc>
</trkpt>
<trkpt lat="36.727755" lon="137.753674">
<ele>2778.640924</ele>
<time>2014-08-18T03:52:31Z</time>
<desc><![CDATA[lat.=36.727755, lon.=137.753674, Alt.=2778.640924m. Speed=2.000000m/h.]]></desc>
</trkpt>
<trkpt lat="36.727769" lon="137.753691">
<ele>2778.161229</ele>
<time>2014-08-18T03:52:36Z</time>
<desc><![CDATA[lat.=36.727769, lon.=137.753691, Alt.=2778.161229m. Speed=2.000000m/h.]]></desc>
</trkpt>
<trkpt lat="36.727776" lon="137.753723">
<ele>2777.137976</ele>
<time>2014-08-18T03:52:41Z</time>
<desc><![CDATA[lat.=36.727776, lon.=137.753723, Alt.=2777.137976m. Speed=2.000000m/h.]]></desc>
</trkpt>
<trkpt lat="36.727794" lon="137.753763">
<ele>2777.904061</ele>
<time>2014-08-18T03:52:46Z</time>
<desc><![CDATA[lat.=36.727794, lon.=137.753763, Alt.=2777.904061m. Speed=2.000000m/h.]]></desc>
</trkpt>
<trkpt lat="36.727812" lon="137.753756">
<ele>2778.506780</ele>
<time>2014-08-18T03:52:51Z</time>
<desc><![CDATA[lat.=36.727812, lon.=137.753756, Alt.=2778.506780m. Speed=2.000000m/h.]]></desc>
</trkpt>
<trkpt lat="36.727835" lon="137.753725">
<ele>2778.461735</ele>
<time>2014-08-18T03:52:56Z</time>
<desc><![CDATA[lat.=36.727835, lon.=137.753725, Alt.=2778.461735m. Speed=2.000000m/h.]]></desc>
</trkpt>
<trkpt lat="36.727850" lon="137.753710">
<ele>2777.873132</ele>
<time>2014-08-18T03:53:01Z</time>
<desc><![CDATA[lat.=36.727850, lon.=137.753710, Alt.=2777.873132m. Speed=2.000000m/h.]]></desc>
</trkpt>
<trkpt lat="36.727852" lon="137.753749">
<ele>2779.173367</ele>
<time>2014-08-18T03:53:06Z</time>
<desc><![CDATA[lat.=36.727852, lon.=137.753749, Alt.=2779.173367m. Speed=2.000000m/h.]]></desc>
</trkpt>
<trkpt lat="36.727873" lon="137.753780">
<ele>2781.076324</ele>
<time>2014-08-18T03:53:11Z</time>
<desc><![CDATA[lat.=36.727873, lon.=137.753780, Alt.=2781.076324m. Speed=2.000000m/h.]]></desc>
</trkpt>
<trkpt lat="36.727899" lon="137.753773">
<ele>2782.277061</ele>
<time>2014-08-18T03:53:16Z</time>
<desc><![CDATA[lat.=36.727899, lon.=137.753773, Alt.=2782.277061m. Speed=2.000000m/h.]]></desc>
</trkpt>
<trkpt lat="36.727922" lon="137.753726">
<ele>2782.177563</ele>
<time>2014-08-18T03:53:21Z</time>
<desc><![CDATA[lat.=36.727922, lon.=137.753726, Alt.=2782.177563m. Speed=2.000000m/h.]]></desc>
</trkpt>
<trkpt lat="36.727937" lon="137.753711">
<ele>2781.588963</ele>
<time>2014-08-18T03:53:26Z</time>
<desc><![CDATA[lat.=36.727937, lon.=137.753711, Alt.=2781.588963m. Speed=2.000000m/h.]]></desc>
</trkpt>
<trkpt lat="36.727947" lon="137.753750">
<ele>2785.217391</ele>
<time>2014-08-18T03:53:31Z</time>
<desc><![CDATA[lat.=36.727947, lon.=137.753750, Alt.=2785.217391m. Speed=2.000000m/h.]]></desc>
</trkpt>
<trkpt lat="36.727965" lon="137.753742">
<ele>2785.820116</ele>
<time>2014-08-18T03:53:36Z</time>
<desc><![CDATA[lat.=36.727965, lon.=137.753742, Alt.=2785.820116m. Speed=2.000000m/h.]]></desc>
</trkpt>
<trkpt lat="36.727980" lon="137.753727">
<ele>2785.231516</ele>
<time>2014-08-18T03:53:41Z</time>
<desc><![CDATA[lat.=36.727980, lon.=137.753727, Alt.=2785.231516m. Speed=1.000000m/h.]]></desc>
</trkpt>
<trkpt lat="36.727984" lon="137.753735">
<ele>2784.692664</ele>
<time>2014-08-18T03:53:46Z</time>
<desc><![CDATA[lat.=36.727984, lon.=137.753735, Alt.=2784.692664m. Speed=2.000000m/h.]]></desc>
</trkpt>
<trkpt lat="36.727994" lon="137.753775">
<ele>2784.860740</ele>
<time>2014-08-18T03:53:51Z</time>
<desc><![CDATA[lat.=36.727994, lon.=137.753775, Alt.=2784.860740m. Speed=2.000000m/h.]]></desc>
</trkpt>
<trkpt lat="36.728000" lon="137.753806">
<ele>2787.297847</ele>
<time>2014-08-18T03:53:56Z</time>
<desc><![CDATA[lat.=36.728000, lon.=137.753806, Alt.=2787.297847m. Speed=2.000000m/h.]]></desc>
</trkpt>
<trkpt lat="36.728014" lon="137.753822">
<ele>2788.548338</ele>
<time>2014-08-18T03:54:01Z</time>
<desc><![CDATA[lat.=36.728014, lon.=137.753822, Alt.=2788.548338m. Speed=2.000000m/h.]]></desc>
</trkpt>
<trkpt lat="36.728040" lon="137.753814">
<ele>2789.749082</ele>
<time>2014-08-18T03:54:06Z</time>
<desc><![CDATA[lat.=36.728040, lon.=137.753814, Alt.=2789.749082m. Speed=1.000000m/h.]]></desc>
</trkpt>
<trkpt lat="36.728048" lon="137.753783">
<ele>2788.508009</ele>
<time>2014-08-18T03:54:11Z</time>
<desc><![CDATA[lat.=36.728048, lon.=137.753783, Alt.=2788.508009m. Speed=2.000000m/h.]]></desc>
</trkpt>
<trkpt lat="36.728065" lon="137.753807">
<ele>2790.949827</ele>
<time>2014-08-18T03:54:16Z</time>
<desc><![CDATA[lat.=36.728065, lon.=137.753807, Alt.=2790.949827m. Speed=2.000000m/h.]]></desc>
</trkpt>
<trkpt lat="36.728072" lon="137.753823">
<ele>2791.602302</ele>
<time>2014-08-18T03:54:21Z</time>
<desc><![CDATA[lat.=36.728072, lon.=137.753823, Alt.=2791.602302m. Speed=1.000000m/h.]]></desc>
</trkpt>
<trkpt lat="36.728075" lon="137.753846">
<ele>2792.848085</ele>
<time>2014-08-18T03:54:26Z</time>
<desc><![CDATA[lat.=36.728075, lon.=137.753846, Alt.=2792.848085m. Speed=1.000000m/h.]]></desc>
</trkpt>
<trkpt lat="36.728086" lon="137.753854">
<ele>2792.907253</ele>
<time>2014-08-18T03:54:31Z</time>
<desc><![CDATA[lat.=36.728086, lon.=137.753854, Alt.=2792.907253m. Speed=1.000000m/h.]]></desc>
</trkpt>
<trkpt lat="36.728086" lon="137.753855">
<ele>2791.177076</ele>
<time>2014-08-18T03:54:36Z</time>
<desc><![CDATA[lat.=36.728086, lon.=137.753855, Alt.=2791.177076m. Speed=0.000000m/h.]]></desc>
</trkpt>
<trkpt lat="36.728101" lon="137.753839">
<ele>2792.318655</ele>
<time>2014-08-18T03:54:41Z</time>
<desc><![CDATA[lat.=36.728101, lon.=137.753839, Alt.=2792.318655m. Speed=1.000000m/h.]]></desc>
</trkpt>
<trkpt lat="36.728103" lon="137.753809">
<ele>2788.749387</ele>
<time>2014-08-18T03:54:46Z</time>
<desc><![CDATA[lat.=36.728103, lon.=137.753809, Alt.=2788.749387m. Speed=2.000000m/h.]]></desc>
</trkpt>
<trkpt lat="36.728106" lon="137.753816">
<ele>2791.670890</ele>
<time>2014-08-18T03:54:51Z</time>
<desc><![CDATA[lat.=36.728106, lon.=137.753816, Alt.=2791.670890m. Speed=2.000000m/h.]]></desc>
</trkpt>
<trkpt lat="36.728123" lon="137.753840">
<ele>2792.382533</ele>
<time>2014-08-18T03:54:56Z</time>
<desc><![CDATA[lat.=36.728123, lon.=137.753840, Alt.=2792.382533m. Speed=2.000000m/h.]]></desc>
</trkpt>
<trkpt lat="36.728133" lon="137.753863">
<ele>2794.226336</ele>
<time>2014-08-18T03:55:01Z</time>
<desc><![CDATA[lat.=36.728133, lon.=137.753863, Alt.=2794.226336m. Speed=2.000000m/h.]]></desc>
</trkpt>
<trkpt lat="36.728147" lon="137.753895">
<ele>2795.531291</ele>
<time>2014-08-18T03:55:06Z</time>
<desc><![CDATA[lat.=36.728147, lon.=137.753895, Alt.=2795.531291m. Speed=2.000000m/h.]]></desc>
</trkpt>
<trkpt lat="36.728170" lon="137.753881">
<ele>2793.810536</ele>
<time>2014-08-18T03:55:11Z</time>
<desc><![CDATA[lat.=36.728170, lon.=137.753881, Alt.=2793.810536m. Speed=1.000000m/h.]]></desc>
</trkpt>
<trkpt lat="36.728189" lon="137.753857">
<ele>2794.358810</ele>
<time>2014-08-18T03:55:16Z</time>
<desc><![CDATA[lat.=36.728189, lon.=137.753857, Alt.=2794.358810m. Speed=2.000000m/h.]]></desc>
</trkpt>
<trkpt lat="36.728218" lon="137.753858">
<ele>2795.020712</ele>
<time>2014-08-18T03:55:21Z</time>
<desc><![CDATA[lat.=36.728218, lon.=137.753858, Alt.=2795.020712m. Speed=2.000000m/h.]]></desc>
</trkpt>
<trkpt lat="36.728240" lon="137.753842">
<ele>2796.760315</ele>
<time>2014-08-18T03:55:26Z</time>
<desc><![CDATA[lat.=36.728240, lon.=137.753842, Alt.=2796.760315m. Speed=2.000000m/h.]]></desc>
</trkpt>
<trkpt lat="36.728261" lon="137.753858">
<ele>2798.608833</ele>
<time>2014-08-18T03:55:31Z</time>
<desc><![CDATA[lat.=36.728261, lon.=137.753858, Alt.=2798.608833m. Speed=2.000000m/h.]]></desc>
</trkpt>
<trkpt lat="36.728264" lon="137.753881">
<ele>2799.854619</ele>
<time>2014-08-18T03:55:36Z</time>
<desc><![CDATA[lat.=36.728264, lon.=137.753881, Alt.=2799.854619m. Speed=2.000000m/h.]]></desc>
</trkpt>
<trkpt lat="36.728284" lon="137.753878">
<ele>2808.569387</ele>
<time>2014-08-18T03:55:41Z</time>
<desc><![CDATA[lat.=36.728284, lon.=137.753878, Alt.=2808.569387m. Speed=0.000000m/h.]]></desc>
</trkpt>
<trkpt lat="36.728280" lon="137.753886">
<ele>2809.162694</ele>
<time>2014-08-18T03:55:46Z</time>
<desc><![CDATA[lat.=36.728280, lon.=137.753886, Alt.=2809.162694m. Speed=0.000000m/h.]]></desc>
</trkpt>
<trkpt lat="36.728281" lon="137.753887">
<ele>2807.432518</ele>
<time>2014-08-18T03:55:51Z</time>
<desc><![CDATA[lat.=36.728281, lon.=137.753887, Alt.=2807.432518m. Speed=0.000000m/h.]]></desc>
</trkpt>
<trkpt lat="36.728270" lon="137.753879">
<ele>2805.643169</ele>
<time>2014-08-18T03:55:56Z</time>
<desc><![CDATA[lat.=36.728270, lon.=137.753879, Alt.=2805.643169m. Speed=0.000000m/h.]]></desc>
</trkpt>
<trkpt lat="36.728285" lon="137.753881">
<ele>2803.378858</ele>
<time>2014-08-18T03:56:01Z</time>
<desc><![CDATA[lat.=36.728285, lon.=137.753881, Alt.=2803.378858m. Speed=1.000000m/h.]]></desc>
</trkpt>
<trkpt lat="36.728307" lon="137.753881">
<ele>2803.442744</ele>
<time>2014-08-18T03:56:06Z</time>
<desc><![CDATA[lat.=36.728307, lon.=137.753881, Alt.=2803.442744m. Speed=2.000000m/h.]]></desc>
</trkpt>
<trkpt lat="36.728337" lon="137.753899">
<ele>2802.428935</ele>
<time>2014-08-18T03:56:11Z</time>
<desc><![CDATA[lat.=36.728337, lon.=137.753899, Alt.=2802.428935m. Speed=2.000000m/h.]]></desc>
</trkpt>
<trkpt lat="36.728370" lon="137.753908">
<ele>2800.821822</ele>
<time>2014-08-18T03:56:16Z</time>
<desc><![CDATA[lat.=36.728370, lon.=137.753908, Alt.=2800.821822m. Speed=2.000000m/h.]]></desc>
</trkpt>
<trkpt lat="36.728392" lon="137.753909">
<ele>2800.885712</ele>
<time>2014-08-18T03:56:21Z</time>
<desc><![CDATA[lat.=36.728392, lon.=137.753909, Alt.=2800.885712m. Speed=2.000000m/h.]]></desc>
</trkpt>
<trkpt lat="36.728436" lon="137.753911">
<ele>2801.013495</ele>
<time>2014-08-18T03:56:26Z</time>
<desc><![CDATA[lat.=36.728436, lon.=137.753911, Alt.=2801.013495m. Speed=2.000000m/h.]]></desc>
</trkpt>
<trkpt lat="36.728450" lon="137.753943">
<ele>2800.588283</ele>
<time>2014-08-18T03:56:31Z</time>
<desc><![CDATA[lat.=36.728450, lon.=137.753943, Alt.=2800.588283m. Speed=2.000000m/h.]]></desc>
</trkpt>
<trkpt lat="36.728471" lon="137.753958">
<ele>2804.166989</ele>
<time>2014-08-18T03:56:36Z</time>
<desc><![CDATA[lat.=36.728471, lon.=137.753958, Alt.=2804.166989m. Speed=2.000000m/h.]]></desc>
</trkpt>
<trkpt lat="36.728496" lon="137.753981">
<ele>2807.206850</ele>
<time>2014-08-18T03:56:41Z</time>
<desc><![CDATA[lat.=36.728496, lon.=137.753981, Alt.=2807.206850m. Speed=2.000000m/h.]]></desc>
</trkpt>
<trkpt lat="36.728506" lon="137.753989">
<ele>2808.996204</ele>
<time>2014-08-18T03:56:46Z</time>
<desc><![CDATA[lat.=36.728506, lon.=137.753989, Alt.=2808.996204m. Speed=2.000000m/h.]]></desc>
</trkpt>
<trkpt lat="36.728510" lon="137.754031">
<ele>2803.375751</ele>
<time>2014-08-18T03:56:51Z</time>
<desc><![CDATA[lat.=36.728510, lon.=137.754031, Alt.=2803.375751m. Speed=2.000000m/h.]]></desc>
</trkpt>
<trkpt lat="36.728513" lon="137.754054">
<ele>2806.351719</ele>
<time>2014-08-18T03:56:56Z</time>
<desc><![CDATA[lat.=36.728513, lon.=137.754054, Alt.=2806.351719m. Speed=2.000000m/h.]]></desc>
</trkpt>
<trkpt lat="36.728504" lon="137.754051">
<ele>2812.674399</ele>
<time>2014-08-18T03:57:01Z</time>
<desc><![CDATA[lat.=36.728504, lon.=137.754051, Alt.=2812.674399m. Speed=2.000000m/h.]]></desc>
</trkpt>
<trkpt lat="36.728496" lon="137.754065">
<ele>2815.591189</ele>
<time>2014-08-18T03:57:06Z</time>
<desc><![CDATA[lat.=36.728496, lon.=137.754065, Alt.=2815.591189m. Speed=2.000000m/h.]]></desc>
</trkpt>
<trkpt lat="36.728465" lon="137.754079">
<ele>2816.713909</ele>
<time>2014-08-18T03:57:11Z</time>
<desc><![CDATA[lat.=36.728465, lon.=137.754079, Alt.=2816.713909m. Speed=2.000000m/h.]]></desc>
</trkpt>
<trkpt lat="36.728446" lon="137.754101">
<ele>2819.625985</ele>
<time>2014-08-18T03:57:16Z</time>
<desc><![CDATA[lat.=36.728446, lon.=137.754101, Alt.=2819.625985m. Speed=2.000000m/h.]]></desc>
</trkpt>
<trkpt lat="36.728442" lon="137.754125">
<ele>2818.543579</ele>
<time>2014-08-18T03:57:21Z</time>
<desc><![CDATA[lat.=36.728442, lon.=137.754125, Alt.=2818.543579m. Speed=2.000000m/h.]]></desc>
</trkpt>
<trkpt lat="36.728460" lon="137.754167">
<ele>2814.119179</ele>
<time>2014-08-18T03:57:26Z</time>
<desc><![CDATA[lat.=36.728460, lon.=137.754167, Alt.=2814.119179m. Speed=3.000000m/h.]]></desc>
</trkpt>
<trkpt lat="36.728496" lon="137.754200">
<ele>2815.488049</ele>
<time>2014-08-18T03:57:31Z</time>
<desc><![CDATA[lat.=36.728496, lon.=137.754200, Alt.=2815.488049m. Speed=3.000000m/h.]]></desc>
</trkpt>
<trkpt lat="36.728507" lon="137.754240">
<ele>2813.925983</ele>
<time>2014-08-18T03:57:36Z</time>
<desc><![CDATA[lat.=36.728507, lon.=137.754240, Alt.=2813.925983m. Speed=2.000000m/h.]]></desc>
</trkpt>
<trkpt lat="36.728546" lon="137.754265">
<ele>2814.701550</ele>
<time>2014-08-18T03:57:41Z</time>
<desc><![CDATA[lat.=36.728546, lon.=137.754265, Alt.=2814.701550m. Speed=2.000000m/h.]]></desc>
</trkpt>
<trkpt lat="36.728557" lon="137.754289">
<ele>2814.815198</ele>
<time>2014-08-18T03:57:46Z</time>
<desc><![CDATA[lat.=36.728557, lon.=137.754289, Alt.=2814.815198m. Speed=2.000000m/h.]]></desc>
</trkpt>
<trkpt lat="36.728571" lon="137.754322">
<ele>2814.390004</ele>
<time>2014-08-18T03:57:51Z</time>
<desc><![CDATA[lat.=36.728571, lon.=137.754322, Alt.=2814.390004m. Speed=2.000000m/h.]]></desc>
</trkpt>
<trkpt lat="36.728567" lon="137.754345">
<ele>2815.037780</ele>
<time>2014-08-18T03:57:56Z</time>
<desc><![CDATA[lat.=36.728567, lon.=137.754345, Alt.=2815.037780m. Speed=2.000000m/h.]]></desc>
</trkpt>
<trkpt lat="36.728566" lon="137.754376">
<ele>2816.876891</ele>
<time>2014-08-18T03:58:01Z</time>
<desc><![CDATA[lat.=36.728566, lon.=137.754376, Alt.=2816.876891m. Speed=2.000000m/h.]]></desc>
</trkpt>
<trkpt lat="36.728573" lon="137.754392">
<ele>2815.799208</ele>
<time>2014-08-18T03:58:06Z</time>
<desc><![CDATA[lat.=36.728573, lon.=137.754392, Alt.=2815.799208m. Speed=1.000000m/h.]]></desc>
</trkpt>
<trkpt lat="36.728587" lon="137.754408">
<ele>2817.049726</ele>
<time>2014-08-18T03:58:11Z</time>
<desc><![CDATA[lat.=36.728587, lon.=137.754408, Alt.=2817.049726m. Speed=2.000000m/h.]]></desc>
</trkpt>
<trkpt lat="36.728597" lon="137.754448">
<ele>2817.217848</ele>
<time>2014-08-18T03:58:16Z</time>
<desc><![CDATA[lat.=36.728597, lon.=137.754448, Alt.=2817.217848m. Speed=2.000000m/h.]]></desc>
</trkpt>
<trkpt lat="36.728607" lon="137.754471">
<ele>2819.061678</ele>
<time>2014-08-18T03:58:21Z</time>
<desc><![CDATA[lat.=36.728607, lon.=137.754471, Alt.=2819.061678m. Speed=2.000000m/h.]]></desc>
</trkpt>
<trkpt lat="36.728640" lon="137.754496">
<ele>2819.239235</ele>
<time>2014-08-18T03:58:26Z</time>
<desc><![CDATA[lat.=36.728640, lon.=137.754496, Alt.=2819.239235m. Speed=2.000000m/h.]]></desc>
</trkpt>
<trkpt lat="36.728684" lon="137.754498">
<ele>2819.367040</ele>
<time>2014-08-18T03:58:31Z</time>
<desc><![CDATA[lat.=36.728684, lon.=137.754498, Alt.=2819.367040m. Speed=3.000000m/h.]]></desc>
</trkpt>
<trkpt lat="36.728687" lon="137.754538">
<ele>2818.937142</ele>
<time>2014-08-18T03:58:36Z</time>
<desc><![CDATA[lat.=36.728687, lon.=137.754538, Alt.=2818.937142m. Speed=3.000000m/h.]]></desc>
</trkpt>
<trkpt lat="36.728685" lon="137.754569">
<ele>2820.776260</ele>
<time>2014-08-18T03:58:41Z</time>
<desc><![CDATA[lat.=36.728685, lon.=137.754569, Alt.=2820.776260m. Speed=2.000000m/h.]]></desc>
</trkpt>
<trkpt lat="36.728733" lon="137.754578">
<ele>2822.095407</ele>
<time>2014-08-18T03:58:46Z</time>
<desc><![CDATA[lat.=36.728733, lon.=137.754578, Alt.=2822.095407m. Speed=2.000000m/h.]]></desc>
</trkpt>
<trkpt lat="36.728758" lon="137.754586">
<ele>2823.350650</ele>
<time>2014-08-18T03:58:51Z</time>
<desc><![CDATA[lat.=36.728758, lon.=137.754586, Alt.=2823.350650m. Speed=2.000000m/h.]]></desc>
</trkpt>
<trkpt lat="36.728775" lon="137.754625">
<ele>2825.846988</ele>
<time>2014-08-18T03:58:56Z</time>
<desc><![CDATA[lat.=36.728775, lon.=137.754625, Alt.=2825.846988m. Speed=2.000000m/h.]]></desc>
</trkpt>
<trkpt lat="36.728782" lon="137.754657">
<ele>2824.823786</ele>
<time>2014-08-18T03:59:01Z</time>
<desc><![CDATA[lat.=36.728782, lon.=137.754657, Alt.=2824.823786m. Speed=2.000000m/h.]]></desc>
</trkpt>
<trkpt lat="36.728796" lon="137.754690">
<ele>2824.398613</ele>
<time>2014-08-18T03:59:06Z</time>
<desc><![CDATA[lat.=36.728796, lon.=137.754690, Alt.=2824.398613m. Speed=2.000000m/h.]]></desc>
</trkpt>
<trkpt lat="36.728802" lon="137.754721">
<ele>2825.105590</ele>
<time>2014-08-18T03:59:11Z</time>
<desc><![CDATA[lat.=36.728802, lon.=137.754721, Alt.=2825.105590m. Speed=2.000000m/h.]]></desc>
</trkpt>
<trkpt lat="36.728834" lon="137.754761">
<ele>2828.797992</ele>
<time>2014-08-18T03:59:16Z</time>
<desc><![CDATA[lat.=36.728834, lon.=137.754761, Alt.=2828.797992m. Speed=3.000000m/h.]]></desc>
</trkpt>
<trkpt lat="36.728856" lon="137.754794">
<ele>2827.240679</ele>
<time>2014-08-18T03:59:21Z</time>
<desc><![CDATA[lat.=36.728856, lon.=137.754794, Alt.=2827.240679m. Speed=3.000000m/h.]]></desc>
</trkpt>
<trkpt lat="36.728866" lon="137.754819">
<ele>2825.624173</ele>
<time>2014-08-18T03:59:26Z</time>
<desc><![CDATA[lat.=36.728866, lon.=137.754819, Alt.=2825.624173m. Speed=3.000000m/h.]]></desc>
</trkpt>
<trkpt lat="36.728888" lon="137.754851">
<ele>2825.797039</ele>
<time>2014-08-18T03:59:31Z</time>
<desc><![CDATA[lat.=36.728888, lon.=137.754851, Alt.=2825.797039m. Speed=3.000000m/h.]]></desc>
</trkpt>
<trkpt lat="36.728920" lon="137.754875">
<ele>2827.704800</ele>
<time>2014-08-18T03:59:36Z</time>
<desc><![CDATA[lat.=36.728920, lon.=137.754875, Alt.=2827.704800m. Speed=3.000000m/h.]]></desc>
</trkpt>
<trkpt lat="36.728912" lon="137.754923">
<ele>2825.540029</ele>
<time>2014-08-18T03:59:41Z</time>
<desc><![CDATA[lat.=36.728912, lon.=137.754923, Alt.=2825.540029m. Speed=2.000000m/h.]]></desc>
</trkpt>
<trkpt lat="36.728922" lon="137.754947">
<ele>2825.653704</ele>
<time>2014-08-18T03:59:46Z</time>
<desc><![CDATA[lat.=36.728922, lon.=137.754947, Alt.=2825.653704m. Speed=2.000000m/h.]]></desc>
</trkpt>
<trkpt lat="36.728944" lon="137.754964">
<ele>2825.772098</ele>
<time>2014-08-18T03:59:51Z</time>
<desc><![CDATA[lat.=36.728944, lon.=137.754964, Alt.=2825.772098m. Speed=2.000000m/h.]]></desc>
</trkpt>
<trkpt lat="36.728959" lon="137.754965">
<ele>2823.507808</ele>
<time>2014-08-18T03:59:56Z</time>
<desc><![CDATA[lat.=36.728959, lon.=137.754965, Alt.=2823.507808m. Speed=2.000000m/h.]]></desc>
</trkpt>
<trkpt lat="36.728963" lon="137.754989">
<ele>2823.023455</ele>
<time>2014-08-18T04:00:01Z</time>
<desc><![CDATA[lat.=36.728963, lon.=137.754989, Alt.=2823.023455m. Speed=2.000000m/h.]]></desc>
</trkpt>
<trkpt lat="36.728984" lon="137.755005">
<ele>2824.872026</ele>
<time>2014-08-18T04:00:06Z</time>
<desc><![CDATA[lat.=36.728984, lon.=137.755005, Alt.=2824.872026m. Speed=2.000000m/h.]]></desc>
</trkpt>
<trkpt lat="36.729012" lon="137.754988">
<ele>2830.670020</ele>
<time>2014-08-18T04:00:11Z</time>
<desc><![CDATA[lat.=36.729012, lon.=137.754988, Alt.=2830.670020m. Speed=2.000000m/h.]]></desc>
</trkpt>
<trkpt lat="36.729041" lon="137.755004">
<ele>2833.116624</ele>
<time>2014-08-18T04:00:16Z</time>
<desc><![CDATA[lat.=36.729041, lon.=137.755004, Alt.=2833.116624m. Speed=2.000000m/h.]]></desc>
</trkpt>
<trkpt lat="36.729044" lon="137.755011">
<ele>2834.307968</ele>
<time>2014-08-18T04:00:21Z</time>
<desc><![CDATA[lat.=36.729044, lon.=137.755011, Alt.=2834.307968m. Speed=0.000000m/h.]]></desc>
</trkpt>
<trkpt lat="36.729047" lon="137.755035">
<ele>2835.553791</ele>
<time>2014-08-18T04:00:26Z</time>
<desc><![CDATA[lat.=36.729047, lon.=137.755035, Alt.=2835.553791m. Speed=2.000000m/h.]]></desc>
</trkpt>
<trkpt lat="36.729043" lon="137.755058">
<ele>2836.201584</ele>
<time>2014-08-18T04:00:31Z</time>
<desc><![CDATA[lat.=36.729043, lon.=137.755058, Alt.=2836.201584m. Speed=2.000000m/h.]]></desc>
</trkpt>
<trkpt lat="36.729038" lon="137.755081">
<ele>2836.849377</ele>
<time>2014-08-18T04:00:36Z</time>
<desc><![CDATA[lat.=36.729038, lon.=137.755081, Alt.=2836.849377m. Speed=2.000000m/h.]]></desc>
</trkpt>
<trkpt lat="36.729026" lon="137.755103">
<ele>2840.359490</ele>
<time>2014-08-18T04:00:41Z</time>
<desc><![CDATA[lat.=36.729026, lon.=137.755103, Alt.=2840.359490m. Speed=1.000000m/h.]]></desc>
</trkpt>
<trkpt lat="36.729040" lon="137.755119">
<ele>2841.610034</ele>
<time>2014-08-18T04:00:46Z</time>
<desc><![CDATA[lat.=36.729040, lon.=137.755119, Alt.=2841.610034m. Speed=1.000000m/h.]]></desc>
</trkpt>
<trkpt lat="36.729058" lon="137.755111">
<ele>2842.212785</ele>
<time>2014-08-18T04:00:51Z</time>
<desc><![CDATA[lat.=36.729058, lon.=137.755111, Alt.=2842.212785m. Speed=1.000000m/h.]]></desc>
</trkpt>
<trkpt lat="36.729070" lon="137.755105">
<ele>2840.487329</ele>
<time>2014-08-18T04:00:56Z</time>
<desc><![CDATA[lat.=36.729070, lon.=137.755105, Alt.=2840.487329m. Speed=1.000000m/h.]]></desc>
</trkpt>
<trkpt lat="36.729088" lon="137.755097">
<ele>2841.090081</ele>
<time>2014-08-18T04:01:01Z</time>
<desc><![CDATA[lat.=36.729088, lon.=137.755097, Alt.=2841.090081m. Speed=2.000000m/h.]]></desc>
</trkpt>
<trkpt lat="36.729100" lon="137.755106">
<ele>2839.419108</ele>
<time>2014-08-18T04:01:06Z</time>
<desc><![CDATA[lat.=36.729100, lon.=137.755106, Alt.=2839.419108m. Speed=2.000000m/h.]]></desc>
</trkpt>
<trkpt lat="36.729122" lon="137.755108">
<ele>2837.752856</ele>
<time>2014-08-18T04:01:11Z</time>
<desc><![CDATA[lat.=36.729122, lon.=137.755108, Alt.=2837.752856m. Speed=2.000000m/h.]]></desc>
</trkpt>
<trkpt lat="36.729144" lon="137.755108">
<ele>2837.816780</ele>
<time>2014-08-18T04:01:16Z</time>
<desc><![CDATA[lat.=36.729144, lon.=137.755108, Alt.=2837.816780m. Speed=2.000000m/h.]]></desc>
</trkpt>
<trkpt lat="36.729174" lon="137.755110">
<ele>2836.748563</ele>
<time>2014-08-18T04:01:21Z</time>
<desc><![CDATA[lat.=36.729174, lon.=137.755110, Alt.=2836.748563m. Speed=2.000000m/h.]]></desc>
</trkpt>
<trkpt lat="36.729174" lon="137.755111">
<ele>2835.018388</ele>
<time>2014-08-18T04:01:26Z</time>
<desc><![CDATA[lat.=36.729174, lon.=137.755111, Alt.=2835.018388m. Speed=2.000000m/h.]]></desc>
</trkpt>
<trkpt lat="36.729189" lon="137.755096">
<ele>2834.429798</ele>
<time>2014-08-18T04:01:31Z</time>
<desc><![CDATA[lat.=36.729189, lon.=137.755096, Alt.=2834.429798m. Speed=2.000000m/h.]]></desc>
</trkpt>
<trkpt lat="36.729204" lon="137.755081">
<ele>2833.841210</ele>
<time>2014-08-18T04:01:36Z</time>
<desc><![CDATA[lat.=36.729204, lon.=137.755081, Alt.=2833.841210m. Speed=2.000000m/h.]]></desc>
</trkpt>
<trkpt lat="36.729245" lon="137.755090">
<ele>2834.562375</ele>
<time>2014-08-18T04:01:41Z</time>
<desc><![CDATA[lat.=36.729245, lon.=137.755090, Alt.=2834.562375m. Speed=2.000000m/h.]]></desc>
</trkpt>
<trkpt lat="36.729259" lon="137.755090">
<ele>2834.028270</ele>
<time>2014-08-18T04:01:46Z</time>
<desc><![CDATA[lat.=36.729259, lon.=137.755090, Alt.=2834.028270m. Speed=2.000000m/h.]]></desc>
</trkpt>
<trkpt lat="36.729276" lon="137.755113">
<ele>2838.200341</ele>
<time>2014-08-18T04:01:51Z</time>
<desc><![CDATA[lat.=36.729276, lon.=137.755113, Alt.=2838.200341m. Speed=2.000000m/h.]]></desc>
</trkpt>
<trkpt lat="36.729268" lon="137.755128">
<ele>2839.386962</ele>
<time>2014-08-18T04:01:56Z</time>
<desc><![CDATA[lat.=36.729268, lon.=137.755128, Alt.=2839.386962m. Speed=2.000000m/h.]]></desc>
</trkpt>
<trkpt lat="36.729271" lon="137.755151">
<ele>2840.632791</ele>
<time>2014-08-18T04:02:01Z</time>
<desc><![CDATA[lat.=36.729271, lon.=137.755151, Alt.=2840.632791m. Speed=2.000000m/h.]]></desc>
</trkpt>
<trkpt lat="36.729260" lon="137.755175">
<ele>2840.682550</ele>
<time>2014-08-18T04:02:06Z</time>
<desc><![CDATA[lat.=36.729260, lon.=137.755175, Alt.=2840.682550m. Speed=1.000000m/h.]]></desc>
</trkpt>
<trkpt lat="36.729286" lon="137.755168">
<ele>2840.153168</ele>
<time>2014-08-18T04:02:11Z</time>
<desc><![CDATA[lat.=36.729286, lon.=137.755168, Alt.=2840.153168m. Speed=2.000000m/h.]]></desc>
</trkpt>
<trkpt lat="36.729311" lon="137.755193">
<ele>2839.732754</ele>
<time>2014-08-18T04:02:16Z</time>
<desc><![CDATA[lat.=36.729311, lon.=137.755193, Alt.=2839.732754m. Speed=2.000000m/h.]]></desc>
</trkpt>
<trkpt lat="36.729329" lon="137.755185">
<ele>2840.335514</ele>
<time>2014-08-18T04:02:21Z</time>
<desc><![CDATA[lat.=36.729329, lon.=137.755185, Alt.=2840.335514m. Speed=2.000000m/h.]]></desc>
</trkpt>
<trkpt lat="36.729355" lon="137.755194">
<ele>2841.590793</ele>
<time>2014-08-18T04:02:26Z</time>
<desc><![CDATA[lat.=36.729355, lon.=137.755194, Alt.=2841.590793m. Speed=2.000000m/h.]]></desc>
</trkpt>
<trkpt lat="36.729362" lon="137.755209">
<ele>2842.243312</ele>
<time>2014-08-18T04:02:31Z</time>
<desc><![CDATA[lat.=36.729362, lon.=137.755209, Alt.=2842.243312m. Speed=2.000000m/h.]]></desc>
</trkpt>
<trkpt lat="36.729372" lon="137.755218">
<ele>2842.302521</ele>
<time>2014-08-18T04:02:36Z</time>
<desc><![CDATA[lat.=36.729372, lon.=137.755218, Alt.=2842.302521m. Speed=2.000000m/h.]]></desc>
</trkpt>
<trkpt lat="36.729391" lon="137.755227">
<ele>2841.229592</ele>
<time>2014-08-18T04:02:41Z</time>
<desc><![CDATA[lat.=36.729391, lon.=137.755227, Alt.=2841.229592m. Speed=1.000000m/h.]]></desc>
</trkpt>
<trkpt lat="36.729419" lon="137.755242">
<ele>2843.676222</ele>
<time>2014-08-18T04:02:46Z</time>
<desc><![CDATA[lat.=36.729419, lon.=137.755242, Alt.=2843.676222m. Speed=2.000000m/h.]]></desc>
</trkpt>
<trkpt lat="36.729444" lon="137.755282">
<ele>2845.040476</ele>
<time>2014-08-18T04:02:51Z</time>
<desc><![CDATA[lat.=36.729444, lon.=137.755282, Alt.=2845.040476m. Speed=2.000000m/h.]]></desc>
</trkpt>
<trkpt lat="36.729462" lon="137.755290">
<ele>2847.427899</ele>
<time>2014-08-18T04:02:56Z</time>
<desc><![CDATA[lat.=36.729462, lon.=137.755290, Alt.=2847.427899m. Speed=2.000000m/h.]]></desc>
</trkpt>
<trkpt lat="36.729483" lon="137.755306">
<ele>2849.276497</ele>
<time>2014-08-18T04:03:01Z</time>
<desc><![CDATA[lat.=36.729483, lon.=137.755306, Alt.=2849.276497m. Speed=2.000000m/h.]]></desc>
</trkpt>
<trkpt lat="36.729490" lon="137.755306">
<ele>2849.874534</ele>
<time>2014-08-18T04:03:06Z</time>
<desc><![CDATA[lat.=36.729490, lon.=137.755306, Alt.=2849.874534m. Speed=1.000000m/h.]]></desc>
</trkpt>
<trkpt lat="36.729505" lon="137.755306">
<ele>2849.340436</ele>
<time>2014-08-18T04:03:11Z</time>
<desc><![CDATA[lat.=36.729505, lon.=137.755306, Alt.=2849.340436m. Speed=2.000000m/h.]]></desc>
</trkpt>
<trkpt lat="36.729523" lon="137.755314">
<ele>2851.727861</ele>
<time>2014-08-18T04:03:16Z</time>
<desc><![CDATA[lat.=36.729523, lon.=137.755314, Alt.=2851.727861m. Speed=1.000000m/h.]]></desc>
</trkpt>
<trkpt lat="36.729549" lon="137.755307">
<ele>2851.198491</ele>
<time>2014-08-18T04:03:21Z</time>
<desc><![CDATA[lat.=36.729549, lon.=137.755307, Alt.=2851.198491m. Speed=2.000000m/h.]]></desc>
</trkpt>
<trkpt lat="36.729553" lon="137.755300">
<ele>2848.875006</ele>
<time>2014-08-18T04:03:26Z</time>
<desc><![CDATA[lat.=36.729553, lon.=137.755300, Alt.=2848.875006m. Speed=1.000000m/h.]]></desc>
</trkpt>
<trkpt lat="36.729582" lon="137.755317">
<ele>2849.591473</ele>
<time>2014-08-18T04:03:31Z</time>
<desc><![CDATA[lat.=36.729582, lon.=137.755317, Alt.=2849.591473m. Speed=2.000000m/h.]]></desc>
</trkpt>
<trkpt lat="36.729600" lon="137.755326">
<ele>2848.518553</ele>
<time>2014-08-18T04:03:36Z</time>
<desc><![CDATA[lat.=36.729600, lon.=137.755326, Alt.=2848.518553m. Speed=1.000000m/h.]]></desc>
</trkpt>
<trkpt lat="36.729614" lon="137.755341">
<ele>2851.499291</ele>
<time>2014-08-18T04:03:41Z</time>
<desc><![CDATA[lat.=36.729614, lon.=137.755341, Alt.=2851.499291m. Speed=1.000000m/h.]]></desc>
</trkpt>
<trkpt lat="36.729632" lon="137.755350">
<ele>2850.426372</ele>
<time>2014-08-18T04:03:46Z</time>
<desc><![CDATA[lat.=36.729632, lon.=137.755350, Alt.=2850.426372m. Speed=1.000000m/h.]]></desc>
</trkpt>
<trkpt lat="36.729643" lon="137.755358">
<ele>2850.485588</ele>
<time>2014-08-18T04:03:51Z</time>
<desc><![CDATA[lat.=36.729643, lon.=137.755358, Alt.=2850.485588m. Speed=2.000000m/h.]]></desc>
</trkpt>
<trkpt lat="36.729643" lon="137.755373">
<ele>2852.270249</ele>
<time>2014-08-18T04:03:56Z</time>
<desc><![CDATA[lat.=36.729643, lon.=137.755373, Alt.=2852.270249m. Speed=2.000000m/h.]]></desc>
</trkpt>
<trkpt lat="36.729635" lon="137.755389">
<ele>2853.456870</ele>
<time>2014-08-18T04:04:01Z</time>
<desc><![CDATA[lat.=36.729635, lon.=137.755389, Alt.=2853.456870m. Speed=1.000000m/h.]]></desc>
</trkpt>
<trkpt lat="36.729649" lon="137.755389">
<ele>2852.922776</ele>
<time>2014-08-18T04:04:06Z</time>
<desc><![CDATA[lat.=36.729649, lon.=137.755389, Alt.=2852.922776m. Speed=1.000000m/h.]]></desc>
</trkpt>
<trkpt lat="36.729661" lon="137.755383">
<ele>2849.467157</ele>
<time>2014-08-18T04:04:11Z</time>
<desc><![CDATA[lat.=36.729661, lon.=137.755383, Alt.=2849.467157m. Speed=1.000000m/h.]]></desc>
</trkpt>
<trkpt lat="36.729675" lon="137.755399">
<ele>2850.717725</ele>
<time>2014-08-18T04:04:16Z</time>
<desc><![CDATA[lat.=36.729675, lon.=137.755399, Alt.=2850.717725m. Speed=2.000000m/h.]]></desc>
</trkpt>
<trkpt lat="36.729692" lon="137.755422">
<ele>2854.889818</ele>
<time>2014-08-18T04:04:21Z</time>
<desc><![CDATA[lat.=36.729692, lon.=137.755422, Alt.=2854.889818m. Speed=2.000000m/h.]]></desc>
</trkpt>
<trkpt lat="36.729699" lon="137.755453">
<ele>2855.596834</ele>
<time>2014-08-18T04:04:26Z</time>
<desc><![CDATA[lat.=36.729699, lon.=137.755453, Alt.=2855.596834m. Speed=1.000000m/h.]]></desc>
</trkpt>
<trkpt lat="36.729721" lon="137.755454">
<ele>2855.660783</ele>
<time>2014-08-18T04:04:31Z</time>
<desc><![CDATA[lat.=36.729721, lon.=137.755454, Alt.=2855.660783m. Speed=1.000000m/h.]]></desc>
</trkpt>
<trkpt lat="36.729735" lon="137.755454">
<ele>2856.856865</ele>
<time>2014-08-18T04:04:36Z</time>
<desc><![CDATA[lat.=36.729735, lon.=137.755454, Alt.=2856.856865m. Speed=1.000000m/h.]]></desc>
</trkpt>
<trkpt lat="36.729761" lon="137.755447">
<ele>2858.057679</ele>
<time>2014-08-18T04:04:41Z</time>
<desc><![CDATA[lat.=36.729761, lon.=137.755447, Alt.=2858.057679m. Speed=1.000000m/h.]]></desc>
</trkpt>
<trkpt lat="36.729794" lon="137.755439">
<ele>2859.856536</ele>
<time>2014-08-18T04:04:46Z</time>
<desc><![CDATA[lat.=36.729794, lon.=137.755439, Alt.=2859.856536m. Speed=2.000000m/h.]]></desc>
</trkpt>
<trkpt lat="36.729791" lon="137.755448">
<ele>2856.989498</ele>
<time>2014-08-18T04:04:51Z</time>
<desc><![CDATA[lat.=36.729791, lon.=137.755448, Alt.=2856.989498m. Speed=1.000000m/h.]]></desc>
</trkpt>
<trkpt lat="36.729841" lon="137.755448">
<ele>2861.175794</ele>
<time>2014-08-18T04:04:56Z</time>
<desc><![CDATA[lat.=36.729841, lon.=137.755448, Alt.=2861.175794m. Speed=2.000000m/h.]]></desc>
</trkpt>
<trkpt lat="36.729852" lon="137.755456">
<ele>2861.235015</ele>
<time>2014-08-18T04:05:02Z</time>
<desc><![CDATA[lat.=36.729852, lon.=137.755456, Alt.=2861.235015m. Speed=2.000000m/h.]]></desc>
</trkpt>
<trkpt lat="36.729852" lon="137.755472">
<ele>2861.289504</ele>
<time>2014-08-18T04:05:07Z</time>
<desc><![CDATA[lat.=36.729852, lon.=137.755472, Alt.=2861.289504m. Speed=1.000000m/h.]]></desc>
</trkpt>
<trkpt lat="36.729881" lon="137.755489">
<ele>2862.005991</ele>
<time>2014-08-18T04:05:12Z</time>
<desc><![CDATA[lat.=36.729881, lon.=137.755489, Alt.=2862.005991m. Speed=2.000000m/h.]]></desc>
</trkpt>
<trkpt lat="36.729899" lon="137.755497">
<ele>2862.663256</ele>
<time>2014-08-18T04:05:17Z</time>
<desc><![CDATA[lat.=36.729899, lon.=137.755497, Alt.=2862.663256m. Speed=2.000000m/h.]]></desc>
</trkpt>
<trkpt lat="36.729891" lon="137.755513">
<ele>2862.119702</ele>
<time>2014-08-18T04:05:22Z</time>
<desc><![CDATA[lat.=36.729891, lon.=137.755513, Alt.=2862.119702m. Speed=2.000000m/h.]]></desc>
</trkpt>
<trkpt lat="36.729898" lon="137.755544">
<ele>2862.826725</ele>
<time>2014-08-18T04:05:27Z</time>
<desc><![CDATA[lat.=36.729898, lon.=137.755544, Alt.=2862.826725m. Speed=2.000000m/h.]]></desc>
</trkpt>
<trkpt lat="36.729904" lon="137.755575">
<ele>2865.263922</ele>
<time>2014-08-18T04:05:32Z</time>
<desc><![CDATA[lat.=36.729904, lon.=137.755575, Alt.=2865.263922m. Speed=2.000000m/h.]]></desc>
</trkpt>
<trkpt lat="36.729918" lon="137.755591">
<ele>2866.514500</ele>
<time>2014-08-18T04:05:37Z</time>
<desc><![CDATA[lat.=36.729918, lon.=137.755591, Alt.=2866.514500m. Speed=2.000000m/h.]]></desc>
</trkpt>
<trkpt lat="36.729925" lon="137.755608">
<ele>2865.436862</ele>
<time>2014-08-18T04:05:42Z</time>
<desc><![CDATA[lat.=36.729925, lon.=137.755608, Alt.=2865.436862m. Speed=1.000000m/h.]]></desc>
</trkpt>
<trkpt lat="36.729936" lon="137.755617">
<ele>2863.765913</ele>
<time>2014-08-18T04:05:47Z</time>
<desc><![CDATA[lat.=36.729936, lon.=137.755617, Alt.=2863.765913m. Speed=1.000000m/h.]]></desc>
</trkpt>
<trkpt lat="36.729940" lon="137.755625">
<ele>2863.227093</ele>
<time>2014-08-18T04:05:52Z</time>
<desc><![CDATA[lat.=36.729940, lon.=137.755625, Alt.=2863.227093m. Speed=1.000000m/h.]]></desc>
</trkpt>
<trkpt lat="36.729961" lon="137.755642">
<ele>2863.345544</ele>
<time>2014-08-18T04:05:57Z</time>
<desc><![CDATA[lat.=36.729961, lon.=137.755642, Alt.=2863.345544m. Speed=1.000000m/h.]]></desc>
</trkpt>
<trkpt lat="36.729980" lon="137.755634">
<ele>2863.948323</ele>
<time>2014-08-18T04:06:02Z</time>
<desc><![CDATA[lat.=36.729980, lon.=137.755634, Alt.=2863.948323m. Speed=1.000000m/h.]]></desc>
</trkpt>
<trkpt lat="36.730013" lon="137.755610">
<ele>2867.422874</ele>
<time>2014-08-18T04:06:07Z</time>
<desc><![CDATA[lat.=36.730013, lon.=137.755610, Alt.=2867.422874m. Speed=2.000000m/h.]]></desc>
</trkpt>
<trkpt lat="36.730034" lon="137.755610">
<ele>2869.217010</ele>
<time>2014-08-18T04:06:12Z</time>
<desc><![CDATA[lat.=36.730034, lon.=137.755610, Alt.=2869.217010m. Speed=2.000000m/h.]]></desc>
</trkpt>
<trkpt lat="36.730054" lon="137.755587">
<ele>2868.035127</ele>
<time>2014-08-18T04:06:17Z</time>
<desc><![CDATA[lat.=36.730054, lon.=137.755587, Alt.=2868.035127m. Speed=2.000000m/h.]]></desc>
</trkpt>
<trkpt lat="36.730073" lon="137.755565">
<ele>2866.853245</ele>
<time>2014-08-18T04:06:22Z</time>
<desc><![CDATA[lat.=36.730073, lon.=137.755565, Alt.=2866.853245m. Speed=2.000000m/h.]]></desc>
</trkpt>
<trkpt lat="36.730092" lon="137.755541">
<ele>2867.401538</ele>
<time>2014-08-18T04:06:27Z</time>
<desc><![CDATA[lat.=36.730092, lon.=137.755541, Alt.=2867.401538m. Speed=2.000000m/h.]]></desc>
</trkpt>
<trkpt lat="36.730084" lon="137.755541">
<ele>2866.803492</ele>
<time>2014-08-18T04:06:32Z</time>
<desc><![CDATA[lat.=36.730084, lon.=137.755541, Alt.=2866.803492m. Speed=1.000000m/h.]]></desc>
</trkpt>
<trkpt lat="36.730096" lon="137.755534">
<ele>2866.808230</ele>
<time>2014-08-18T04:06:37Z</time>
<desc><![CDATA[lat.=36.730096, lon.=137.755534, Alt.=2866.808230m. Speed=1.000000m/h.]]></desc>
</trkpt>
<trkpt lat="36.730114" lon="137.755526">
<ele>2867.411014</ele>
<time>2014-08-18T04:06:42Z</time>
<desc><![CDATA[lat.=36.730114, lon.=137.755526, Alt.=2867.411014m. Speed=1.000000m/h.]]></desc>
</trkpt>
<trkpt lat="36.730132" lon="137.755535">
<ele>2868.068289</ele>
<time>2014-08-18T04:06:47Z</time>
<desc><![CDATA[lat.=36.730132, lon.=137.755535, Alt.=2868.068289m. Speed=1.000000m/h.]]></desc>
</trkpt>
<trkpt lat="36.730139" lon="137.755534">
<ele>2870.396509</ele>
<time>2014-08-18T04:06:52Z</time>
<desc><![CDATA[lat.=36.730139, lon.=137.755534, Alt.=2870.396509m. Speed=1.000000m/h.]]></desc>
</trkpt>
<trkpt lat="36.730142" lon="137.755542">
<ele>2869.857690</ele>
<time>2014-08-18T04:06:57Z</time>
<desc><![CDATA[lat.=36.730142, lon.=137.755542, Alt.=2869.857690m. Speed=1.000000m/h.]]></desc>
</trkpt>
<trkpt lat="36.730164" lon="137.755558">
<ele>2871.706321</ele>
<time>2014-08-18T04:07:02Z</time>
<desc><![CDATA[lat.=36.730164, lon.=137.755558, Alt.=2871.706321m. Speed=1.000000m/h.]]></desc>
</trkpt>
<trkpt lat="36.730175" lon="137.755550">
<ele>2871.711061</ele>
<time>2014-08-18T04:07:07Z</time>
<desc><![CDATA[lat.=36.730175, lon.=137.755550, Alt.=2871.711061m. Speed=1.000000m/h.]]></desc>
</trkpt>
<trkpt lat="36.730194" lon="137.755527">
<ele>2872.259358</ele>
<time>2014-08-18T04:07:12Z</time>
<desc><![CDATA[lat.=36.730194, lon.=137.755527, Alt.=2872.259358m. Speed=1.000000m/h.]]></desc>
</trkpt>
<trkpt lat="36.730208" lon="137.755543">
<ele>2873.509943</ele>
<time>2014-08-18T04:07:17Z</time>
<desc><![CDATA[lat.=36.730208, lon.=137.755543, Alt.=2873.509943m. Speed=1.000000m/h.]]></desc>
</trkpt>
<trkpt lat="36.730218" lon="137.755566">
<ele>2875.353836</ele>
<time>2014-08-18T04:07:22Z</time>
<desc><![CDATA[lat.=36.730218, lon.=137.755566, Alt.=2875.353836m. Speed=2.000000m/h.]]></desc>
</trkpt>
<trkpt lat="36.730225" lon="137.755583">
<ele>2874.276201</ele>
<time>2014-08-18T04:07:27Z</time>
<desc><![CDATA[lat.=36.730225, lon.=137.755583, Alt.=2874.276201m. Speed=2.000000m/h.]]></desc>
</trkpt>
<trkpt lat="36.730232" lon="137.755599">
<ele>2874.928740</ele>
<time>2014-08-18T04:07:32Z</time>
<desc><![CDATA[lat.=36.730232, lon.=137.755599, Alt.=2874.928740m. Speed=1.000000m/h.]]></desc>
</trkpt>
<trkpt lat="36.730264" lon="137.755590">
<ele>2878.457799</ele>
<time>2014-08-18T04:07:37Z</time>
<desc><![CDATA[lat.=36.730264, lon.=137.755590, Alt.=2878.457799m. Speed=2.000000m/h.]]></desc>
</trkpt>
<trkpt lat="36.730280" lon="137.755559">
<ele>2879.544916</ele>
<time>2014-08-18T04:07:42Z</time>
<desc><![CDATA[lat.=36.730280, lon.=137.755559, Alt.=2879.544916m. Speed=2.000000m/h.]]></desc>
</trkpt>
<trkpt lat="36.730298" lon="137.755567">
<ele>2880.202196</ele>
<time>2014-08-18T04:07:47Z</time>
<desc><![CDATA[lat.=36.730298, lon.=137.755567, Alt.=2880.202196m. Speed=1.000000m/h.]]></desc>
</trkpt>
<trkpt lat="36.730301" lon="137.755591">
<ele>2879.717869</ele>
<time>2014-08-18T04:07:52Z</time>
<desc><![CDATA[lat.=36.730301, lon.=137.755591, Alt.=2879.717869m. Speed=1.000000m/h.]]></desc>
</trkpt>
<trkpt lat="36.730319" lon="137.755599">
<ele>2882.105324</ele>
<time>2014-08-18T04:07:57Z</time>
<desc><![CDATA[lat.=36.730319, lon.=137.755599, Alt.=2882.105324m. Speed=1.000000m/h.]]></desc>
</trkpt>
<trkpt lat="36.730341" lon="137.755583">
<ele>2883.844982</ele>
<time>2014-08-18T04:08:02Z</time>
<desc><![CDATA[lat.=36.730341, lon.=137.755583, Alt.=2883.844982m. Speed=1.000000m/h.]]></desc>
</trkpt>
<trkpt lat="36.730355" lon="137.755584">
<ele>2883.310909</ele>
<time>2014-08-18T04:08:07Z</time>
<desc><![CDATA[lat.=36.730355, lon.=137.755584, Alt.=2883.310909m. Speed=1.000000m/h.]]></desc>
</trkpt>
<trkpt lat="36.730370" lon="137.755600">
<ele>2882.831326</ele>
<time>2014-08-18T04:08:12Z</time>
<desc><![CDATA[lat.=36.730370, lon.=137.755600, Alt.=2882.831326m. Speed=1.000000m/h.]]></desc>
</trkpt>
<trkpt lat="36.730385" lon="137.755568">
<ele>2885.648619</ele>
<time>2014-08-18T04:08:17Z</time>
<desc><![CDATA[lat.=36.730385, lon.=137.755568, Alt.=2885.648619m. Speed=2.000000m/h.]]></desc>
</trkpt>
<trkpt lat="36.730402" lon="137.755559">
<ele>2889.711759</ele>
<time>2014-08-18T04:08:22Z</time>
<desc><![CDATA[lat.=36.730402, lon.=137.755559, Alt.=2889.711759m. Speed=2.000000m/h.]]></desc>
</trkpt>
<trkpt lat="36.730428" lon="137.755569">
<ele>2887.506749</ele>
<time>2014-08-18T04:08:27Z</time>
<desc><![CDATA[lat.=36.730428, lon.=137.755569, Alt.=2887.506749m. Speed=1.000000m/h.]]></desc>
</trkpt>
<trkpt lat="36.730436" lon="137.755536">
<ele>2889.725993</ele>
<time>2014-08-18T04:08:32Z</time>
<desc><![CDATA[lat.=36.730436, lon.=137.755536, Alt.=2889.725993m. Speed=2.000000m/h.]]></desc>
</trkpt>
<trkpt lat="36.730444" lon="137.755537">
<ele>2888.593871</ele>
<time>2014-08-18T04:08:37Z</time>
<desc><![CDATA[lat.=36.730444, lon.=137.755537, Alt.=2888.593871m. Speed=2.000000m/h.]]></desc>
</trkpt>
<trkpt lat="36.730432" lon="137.755577">
<ele>2886.967932</ele>
<time>2014-08-18T04:08:42Z</time>
<desc><![CDATA[lat.=36.730432, lon.=137.755577, Alt.=2886.967932m. Speed=2.000000m/h.]]></desc>
</trkpt>
<trkpt lat="36.730443" lon="137.755585">
<ele>2887.027167</ele>
<time>2014-08-18T04:08:47Z</time>
<desc><![CDATA[lat.=36.730443, lon.=137.755585, Alt.=2887.027167m. Speed=1.000000m/h.]]></desc>
</trkpt>
<trkpt lat="36.730469" lon="137.755578">
<ele>2886.497842</ele>
<time>2014-08-18T04:08:52Z</time>
<desc><![CDATA[lat.=36.730469, lon.=137.755578, Alt.=2886.497842m. Speed=2.000000m/h.]]></desc>
</trkpt>
<trkpt lat="36.730484" lon="137.755579">
<ele>2885.963772</ele>
<time>2014-08-18T04:08:57Z</time>
<desc><![CDATA[lat.=36.730484, lon.=137.755579, Alt.=2885.963772m. Speed=1.000000m/h.]]></desc>
</trkpt>
<trkpt lat="36.730502" lon="137.755572">
<ele>2886.566569</ele>
<time>2014-08-18T04:09:02Z</time>
<desc><![CDATA[lat.=36.730502, lon.=137.755572, Alt.=2886.566569m. Speed=1.000000m/h.]]></desc>
</trkpt>
<trkpt lat="36.730513" lon="137.755580">
<ele>2886.625806</ele>
<time>2014-08-18T04:09:07Z</time>
<desc><![CDATA[lat.=36.730513, lon.=137.755580, Alt.=2886.625806m. Speed=1.000000m/h.]]></desc>
</trkpt>
<trkpt lat="36.730509" lon="137.755603">
<ele>2887.273602</ele>
<time>2014-08-18T04:09:12Z</time>
<desc><![CDATA[lat.=36.730509, lon.=137.755603, Alt.=2887.273602m. Speed=2.000000m/h.]]></desc>
</trkpt>
<trkpt lat="36.730508" lon="137.755634">
<ele>2889.112757</ele>
<time>2014-08-18T04:09:17Z</time>
<desc><![CDATA[lat.=36.730508, lon.=137.755634, Alt.=2889.112757m. Speed=2.000000m/h.]]></desc>
</trkpt>
<trkpt lat="36.730496" lon="137.755657">
<ele>2890.892676</ele>
<time>2014-08-18T04:09:22Z</time>
<desc><![CDATA[lat.=36.730496, lon.=137.755657, Alt.=2890.892676m. Speed=2.000000m/h.]]></desc>
</trkpt>
<trkpt lat="36.730498" lon="137.755680">
<ele>2892.138527</ele>
<time>2014-08-18T04:09:27Z</time>
<desc><![CDATA[lat.=36.730498, lon.=137.755680, Alt.=2892.138527m. Speed=1.000000m/h.]]></desc>
</trkpt>
<trkpt lat="36.730510" lon="137.755673">
<ele>2890.413099</ele>
<time>2014-08-18T04:09:32Z</time>
<desc><![CDATA[lat.=36.730510, lon.=137.755673, Alt.=2890.413099m. Speed=1.000000m/h.]]></desc>
</trkpt>
<trkpt lat="36.730536" lon="137.755666">
<ele>2891.613949</ele>
<time>2014-08-18T04:09:37Z</time>
<desc><![CDATA[lat.=36.730536, lon.=137.755666, Alt.=2891.613949m. Speed=1.000000m/h.]]></desc>
</trkpt>
<trkpt lat="36.730558" lon="137.755651">
<ele>2891.623442</ele>
<time>2014-08-18T04:09:42Z</time>
<desc><![CDATA[lat.=36.730558, lon.=137.755651, Alt.=2891.623442m. Speed=1.000000m/h.]]></desc>
</trkpt>
<trkpt lat="36.730577" lon="137.755643">
<ele>2892.226241</ele>
<time>2014-08-18T04:09:47Z</time>
<desc><![CDATA[lat.=36.730577, lon.=137.755643, Alt.=2892.226241m. Speed=1.000000m/h.]]></desc>
</trkpt>
<trkpt lat="36.730592" lon="137.755628">
<ele>2891.637683</ele>
<time>2014-08-18T04:09:52Z</time>
<desc><![CDATA[lat.=36.730592, lon.=137.755628, Alt.=2891.637683m. Speed=1.000000m/h.]]></desc>
</trkpt>
<trkpt lat="36.730610" lon="137.755620">
<ele>2893.970657</ele>
<time>2014-08-18T04:09:57Z</time>
<desc><![CDATA[lat.=36.730610, lon.=137.755620, Alt.=2893.970657m. Speed=1.000000m/h.]]></desc>
</trkpt>
<trkpt lat="36.730599" lon="137.755612">
<ele>2892.181245</ele>
<time>2014-08-18T04:10:02Z</time>
<desc><![CDATA[lat.=36.730599, lon.=137.755612, Alt.=2892.181245m. Speed=0.000000m/h.]]></desc>
</trkpt>
<trkpt lat="36.730603" lon="137.755620">
<ele>2893.372604</ele>
<time>2014-08-18T04:10:09Z</time>
<desc><![CDATA[lat.=36.730603, lon.=137.755620, Alt.=2893.372604m. Speed=1.000000m/h.]]></desc>
</trkpt>
<trkpt lat="36.730609" lon="137.755636">
<ele>2894.025148</ele>
<time>2014-08-18T04:10:14Z</time>
<desc><![CDATA[lat.=36.730609, lon.=137.755636, Alt.=2894.025148m. Speed=0.000000m/h.]]></desc>
</trkpt>
<trkpt lat="36.730606" lon="137.755627">
<ele>2894.563963</ele>
<time>2014-08-18T04:10:19Z</time>
<desc><![CDATA[lat.=36.730606, lon.=137.755627, Alt.=2894.563963m. Speed=1.000000m/h.]]></desc>
</trkpt>
<trkpt lat="36.730615" lon="137.755666">
<ele>2896.462358</ele>
<time>2014-08-18T04:10:24Z</time>
<desc><![CDATA[lat.=36.730615, lon.=137.755666, Alt.=2896.462358m. Speed=1.000000m/h.]]></desc>
</trkpt>
<trkpt lat="36.730623" lon="137.755666">
<ele>2897.060412</ele>
<time>2014-08-18T04:10:29Z</time>
<desc><![CDATA[lat.=36.730623, lon.=137.755666, Alt.=2897.060412m. Speed=0.000000m/h.]]></desc>
</trkpt>
<trkpt lat="36.730634" lon="137.755660">
<ele>2895.334987</ele>
<time>2014-08-18T04:10:34Z</time>
<desc><![CDATA[lat.=36.730634, lon.=137.755660, Alt.=2895.334987m. Speed=1.000000m/h.]]></desc>
</trkpt>
<trkpt lat="36.730649" lon="137.755660">
<ele>2896.531094</ele>
<time>2014-08-18T04:10:39Z</time>
<desc><![CDATA[lat.=36.730649, lon.=137.755660, Alt.=2896.531094m. Speed=1.000000m/h.]]></desc>
</trkpt>
<trkpt lat="36.730666" lon="137.755683">
<ele>2898.973054</ele>
<time>2014-08-18T04:10:44Z</time>
<desc><![CDATA[lat.=36.730666, lon.=137.755683, Alt.=2898.973054m. Speed=1.000000m/h.]]></desc>
</trkpt>
<trkpt lat="36.730677" lon="137.755675">
<ele>2900.707976</ele>
<time>2014-08-18T04:10:49Z</time>
<desc><![CDATA[lat.=36.730677, lon.=137.755675, Alt.=2900.707976m. Speed=1.000000m/h.]]></desc>
</trkpt>
<trkpt lat="36.730703" lon="137.755636">
<ele>2901.799851</ele>
<time>2014-08-18T04:10:54Z</time>
<desc><![CDATA[lat.=36.730703, lon.=137.755636, Alt.=2901.799851m. Speed=2.000000m/h.]]></desc>
</trkpt>
<trkpt lat="36.730710" lon="137.755651">
<ele>2902.452397</ele>
<time>2014-08-18T04:10:59Z</time>
<desc><![CDATA[lat.=36.730710, lon.=137.755651, Alt.=2902.452397m. Speed=2.000000m/h.]]></desc>
</trkpt>
<trkpt lat="36.730713" lon="137.755675">
<ele>2903.698249</ele>
<time>2014-08-18T04:11:04Z</time>
<desc><![CDATA[lat.=36.730713, lon.=137.755675, Alt.=2903.698249m. Speed=2.000000m/h.]]></desc>
</trkpt>
<trkpt lat="36.730717" lon="137.755667">
<ele>2903.104944</ele>
<time>2014-08-18T04:11:09Z</time>
<desc><![CDATA[lat.=36.730717, lon.=137.755667, Alt.=2903.104944m. Speed=1.000000m/h.]]></desc>
</trkpt>
<trkpt lat="36.730747" lon="137.755636">
<ele>2905.388181</ele>
<time>2014-08-18T04:11:14Z</time>
<desc><![CDATA[lat.=36.730747, lon.=137.755636, Alt.=2905.388181m. Speed=2.000000m/h.]]></desc>
</trkpt>
<trkpt lat="36.730758" lon="137.755612">
<ele>2905.338442</ele>
<time>2014-08-18T04:11:19Z</time>
<desc><![CDATA[lat.=36.730758, lon.=137.755612, Alt.=2905.338442m. Speed=2.000000m/h.]]></desc>
</trkpt>
<trkpt lat="36.730765" lon="137.755628">
<ele>2905.990988</ele>
<time>2014-08-18T04:11:24Z</time>
<desc><![CDATA[lat.=36.730765, lon.=137.755628, Alt.=2905.990988m. Speed=1.000000m/h.]]></desc>
</trkpt>
<trkpt lat="36.730783" lon="137.755652">
<ele>2906.702777</ele>
<time>2014-08-18T04:11:29Z</time>
<desc><![CDATA[lat.=36.730783, lon.=137.755652, Alt.=2906.702777m. Speed=1.000000m/h.]]></desc>
</trkpt>
<trkpt lat="36.730775" lon="137.755668">
<ele>2906.159213</ele>
<time>2014-08-18T04:11:34Z</time>
<desc><![CDATA[lat.=36.730775, lon.=137.755668, Alt.=2906.159213m. Speed=1.000000m/h.]]></desc>
</trkpt>
<trkpt lat="36.730796" lon="137.755683">
<ele>2909.738046</ele>
<time>2014-08-18T04:11:39Z</time>
<desc><![CDATA[lat.=36.730796, lon.=137.755683, Alt.=2909.738046m. Speed=0.000000m/h.]]></desc>
</trkpt>
<trkpt lat="36.730806" lon="137.755673">
<ele>2914.933316</ele>
<time>2014-08-18T04:11:44Z</time>
<desc><![CDATA[lat.=36.730806, lon.=137.755673, Alt.=2914.933316m. Speed=1.000000m/h.]]></desc>
</trkpt>
<trkpt lat="36.730821" lon="137.755657">
<ele>2916.074937</ele>
<time>2014-08-18T04:11:49Z</time>
<desc><![CDATA[lat.=36.730821, lon.=137.755657, Alt.=2916.074937m. Speed=1.000000m/h.]]></desc>
</trkpt>
<trkpt lat="36.730825" lon="137.755634">
<ele>2915.427142</ele>
<time>2014-08-18T04:11:54Z</time>
<desc><![CDATA[lat.=36.730825, lon.=137.755634, Alt.=2915.427142m. Speed=1.000000m/h.]]></desc>
</trkpt>
<trkpt lat="36.730836" lon="137.755643">
<ele>2913.756213</ele>
<time>2014-08-18T04:11:59Z</time>
<desc><![CDATA[lat.=36.730836, lon.=137.755643, Alt.=2913.756213m. Speed=1.000000m/h.]]></desc>
</trkpt>
<trkpt lat="36.730833" lon="137.755651">
<ele>2912.619344</ele>
<time>2014-08-18T04:12:04Z</time>
<desc><![CDATA[lat.=36.730833, lon.=137.755651, Alt.=2912.619344m. Speed=0.000000m/h.]]></desc>
</trkpt>
<trkpt lat="36.730836" lon="137.755675">
<ele>2912.135023</ele>
<time>2014-08-18T04:12:09Z</time>
<desc><![CDATA[lat.=36.730836, lon.=137.755675, Alt.=2912.135023m. Speed=1.000000m/h.]]></desc>
</trkpt>
<trkpt lat="36.730843" lon="137.755692">
<ele>2911.057399</ele>
<time>2014-08-18T04:12:14Z</time>
<desc><![CDATA[lat.=36.730843, lon.=137.755692, Alt.=2911.057399m. Speed=1.000000m/h.]]></desc>
</trkpt>
<trkpt lat="36.730850" lon="137.755724">
<ele>2911.764440</ele>
<time>2014-08-18T04:12:19Z</time>
<desc><![CDATA[lat.=36.730850, lon.=137.755724, Alt.=2911.764440m. Speed=1.000000m/h.]]></desc>
</trkpt>
<trkpt lat="36.730864" lon="137.755739">
<ele>2913.015047</ele>
<time>2014-08-18T04:12:24Z</time>
<desc><![CDATA[lat.=36.730864, lon.=137.755739, Alt.=2913.015047m. Speed=1.000000m/h.]]></desc>
</trkpt>
<trkpt lat="36.730874" lon="137.755763">
<ele>2914.858959</ele>
<time>2014-08-18T04:12:29Z</time>
<desc><![CDATA[lat.=36.730874, lon.=137.755763, Alt.=2914.858959m. Speed=1.000000m/h.]]></desc>
</trkpt>
<trkpt lat="36.730899" lon="137.755771">
<ele>2916.114320</ele>
<time>2014-08-18T04:12:34Z</time>
<desc><![CDATA[lat.=36.730899, lon.=137.755771, Alt.=2916.114320m. Speed=1.000000m/h.]]></desc>
</trkpt>
<trkpt lat="36.730910" lon="137.755764">
<ele>2916.119073</ele>
<time>2014-08-18T04:12:39Z</time>
<desc><![CDATA[lat.=36.730910, lon.=137.755764, Alt.=2916.119073m. Speed=1.000000m/h.]]></desc>
</trkpt>
<trkpt lat="36.730911" lon="137.755732">
<ele>2916.010086</ele>
<time>2014-08-18T04:12:44Z</time>
<desc><![CDATA[lat.=36.730911, lon.=137.755732, Alt.=2916.010086m. Speed=1.000000m/h.]]></desc>
</trkpt>
<trkpt lat="36.730918" lon="137.755731">
<ele>2918.338317</ele>
<time>2014-08-18T04:12:49Z</time>
<desc><![CDATA[lat.=36.730918, lon.=137.755731, Alt.=2918.338317m. Speed=1.000000m/h.]]></desc>
</trkpt>
<trkpt lat="36.730933" lon="137.755700">
<ele>2919.425447</ele>
<time>2014-08-18T04:12:54Z</time>
<desc><![CDATA[lat.=36.730933, lon.=137.755700, Alt.=2919.425447m. Speed=2.000000m/h.]]></desc>
</trkpt>
<trkpt lat="36.730944" lon="137.755691">
<ele>2921.160375</ele>
<time>2014-08-18T04:12:59Z</time>
<desc><![CDATA[lat.=36.730944, lon.=137.755691, Alt.=2921.160375m. Speed=1.000000m/h.]]></desc>
</trkpt>
<trkpt lat="36.730944" lon="137.755691">
<ele>2922.890547</ele>
<time>2014-08-18T04:13:04Z</time>
<desc><![CDATA[lat.=36.730944, lon.=137.755691, Alt.=2922.890547m. Speed=0.000000m/h.]]></desc>
</trkpt>
<trkpt lat="36.730956" lon="137.755651">
<ele>2922.786319</ele>
<time>2014-08-18T04:13:09Z</time>
<desc><![CDATA[lat.=36.730956, lon.=137.755651, Alt.=2922.786319m. Speed=2.000000m/h.]]></desc>
</trkpt>
<trkpt lat="36.730974" lon="137.755676">
<ele>2921.767943</ele>
<time>2014-08-18T04:13:14Z</time>
<desc><![CDATA[lat.=36.730974, lon.=137.755676, Alt.=2921.767943m. Speed=1.000000m/h.]]></desc>
</trkpt>
<trkpt lat="36.730966" lon="137.755676">
<ele>2921.169885</ele>
<time>2014-08-18T04:13:19Z</time>
<desc><![CDATA[lat.=36.730966, lon.=137.755676, Alt.=2921.169885m. Speed=0.000000m/h.]]></desc>
</trkpt>
<trkpt lat="36.730978" lon="137.755653">
<ele>2921.120149</ele>
<time>2014-08-18T04:13:24Z</time>
<desc><![CDATA[lat.=36.730978, lon.=137.755653, Alt.=2921.120149m. Speed=1.000000m/h.]]></desc>
</trkpt>
<trkpt lat="36.730986" lon="137.755638">
<ele>2919.933543</ele>
<time>2014-08-18T04:13:29Z</time>
<desc><![CDATA[lat.=36.730986, lon.=137.755638, Alt.=2919.933543m. Speed=1.000000m/h.]]></desc>
</trkpt>
<trkpt lat="36.731004" lon="137.755645">
<ele>2922.321022</ele>
<time>2014-08-18T04:13:34Z</time>
<desc><![CDATA[lat.=36.731004, lon.=137.755645, Alt.=2922.321022m. Speed=1.000000m/h.]]></desc>
</trkpt>
<trkpt lat="36.731026" lon="137.755615">
<ele>2922.276045</ele>
<time>2014-08-18T04:13:39Z</time>
<desc><![CDATA[lat.=36.731026, lon.=137.755615, Alt.=2922.276045m. Speed=1.000000m/h.]]></desc>
</trkpt>
<trkpt lat="36.731040" lon="137.755630">
<ele>2923.526654</ele>
<time>2014-08-18T04:13:44Z</time>
<desc><![CDATA[lat.=36.731040, lon.=137.755630, Alt.=2923.526654m. Speed=1.000000m/h.]]></desc>
</trkpt>
<trkpt lat="36.731048" lon="137.755631">
<ele>2922.394541</ele>
<time>2014-08-18T04:13:49Z</time>
<desc><![CDATA[lat.=36.731048, lon.=137.755631, Alt.=2922.394541m. Speed=0.000000m/h.]]></desc>
</trkpt>
<trkpt lat="36.731056" lon="137.755615">
<ele>2922.938110</ele>
<time>2014-08-18T04:13:54Z</time>
<desc><![CDATA[lat.=36.731056, lon.=137.755615, Alt.=2922.938110m. Speed=1.000000m/h.]]></desc>
</trkpt>
<trkpt lat="36.731059" lon="137.755624">
<ele>2922.399299</ele>
<time>2014-08-18T04:14:00Z</time>
<desc><![CDATA[lat.=36.731059, lon.=137.755624, Alt.=2922.399299m. Speed=0.000000m/h.]]></desc>
</trkpt>
<trkpt lat="36.731056" lon="137.755616">
<ele>2921.207937</ele>
<time>2014-08-18T04:14:05Z</time>
<desc><![CDATA[lat.=36.731056, lon.=137.755616, Alt.=2921.207937m. Speed=0.000000m/h.]]></desc>
</trkpt>
<trkpt lat="36.731063" lon="137.755616">
<ele>2921.805997</ele>
<time>2014-08-18T04:14:10Z</time>
<desc><![CDATA[lat.=36.731063, lon.=137.755616, Alt.=2921.805997m. Speed=0.000000m/h.]]></desc>
</trkpt>
<trkpt lat="36.731067" lon="137.755624">
<ele>2921.267186</ele>
<time>2014-08-18T04:14:15Z</time>
<desc><![CDATA[lat.=36.731067, lon.=137.755624, Alt.=2921.267186m. Speed=0.000000m/h.]]></desc>
</trkpt>
<trkpt lat="36.731085" lon="137.755617">
<ele>2921.870004</ele>
<time>2014-08-18T04:14:20Z</time>
<desc><![CDATA[lat.=36.731085, lon.=137.755617, Alt.=2921.870004m. Speed=1.000000m/h.]]></desc>
</trkpt>
<trkpt lat="36.731093" lon="137.755617">
<ele>2922.468064</ele>
<time>2014-08-18T04:14:25Z</time>
<desc><![CDATA[lat.=36.731093, lon.=137.755617, Alt.=2922.468064m. Speed=0.000000m/h.]]></desc>
</trkpt>
<trkpt lat="36.731104" lon="137.755609">
<ele>2922.472823</ele>
<time>2014-08-18T04:14:30Z</time>
<desc><![CDATA[lat.=36.731104, lon.=137.755609, Alt.=2922.472823m. Speed=0.000000m/h.]]></desc>
</trkpt>
<trkpt lat="36.731115" lon="137.755618">
<ele>2922.532072</ele>
<time>2014-08-18T04:14:35Z</time>
<desc><![CDATA[lat.=36.731115, lon.=137.755618, Alt.=2922.532072m. Speed=0.000000m/h.]]></desc>
</trkpt>
<trkpt lat="36.731115" lon="137.755602">
<ele>2922.477582</ele>
<time>2014-08-18T04:14:40Z</time>
<desc><![CDATA[lat.=36.731115, lon.=137.755602, Alt.=2922.477582m. Speed=0.000000m/h.]]></desc>
</trkpt>
<trkpt lat="36.731118" lon="137.755609">
<ele>2923.668944</ele>
<time>2014-08-18T04:14:45Z</time>
<desc><![CDATA[lat.=36.731118, lon.=137.755609, Alt.=2923.668944m. Speed=0.000000m/h.]]></desc>
</trkpt>
<trkpt lat="36.731129" lon="137.755602">
<ele>2923.673703</ele>
<time>2014-08-18T04:14:50Z</time>
<desc><![CDATA[lat.=36.731129, lon.=137.755602, Alt.=2923.673703m. Speed=1.000000m/h.]]></desc>
</trkpt>
<trkpt lat="36.731148" lon="137.755594">
<ele>2924.276524</ele>
<time>2014-08-18T04:14:55Z</time>
<desc><![CDATA[lat.=36.731148, lon.=137.755594, Alt.=2924.276524m. Speed=1.000000m/h.]]></desc>
</trkpt>
<trkpt lat="36.731166" lon="137.755586">
<ele>2926.609518</ele>
<time>2014-08-18T04:15:00Z</time>
<desc><![CDATA[lat.=36.731166, lon.=137.755586, Alt.=2926.609518m. Speed=0.000000m/h.]]></desc>
</trkpt>
<trkpt lat="36.731173" lon="137.755586">
<ele>2927.207579</ele>
<time>2014-08-18T04:15:05Z</time>
<desc><![CDATA[lat.=36.731173, lon.=137.755586, Alt.=2927.207579m. Speed=0.000000m/h.]]></desc>
</trkpt>
<trkpt lat="36.731191" lon="137.755578">
<ele>2927.810401</ele>
<time>2014-08-18T04:15:10Z</time>
<desc><![CDATA[lat.=36.731191, lon.=137.755578, Alt.=2927.810401m. Speed=1.000000m/h.]]></desc>
</trkpt>
<trkpt lat="36.731210" lon="137.755571">
<ele>2928.413224</ele>
<time>2014-08-18T04:15:15Z</time>
<desc><![CDATA[lat.=36.731210, lon.=137.755571, Alt.=2928.413224m. Speed=1.000000m/h.]]></desc>
</trkpt>
<trkpt lat="36.731214" lon="137.755563">
<ele>2927.819924</ele>
<time>2014-08-18T04:15:20Z</time>
<desc><![CDATA[lat.=36.731214, lon.=137.755563, Alt.=2927.819924m. Speed=1.000000m/h.]]></desc>
</trkpt>
<trkpt lat="36.731225" lon="137.755556">
<ele>2927.824686</ele>
<time>2014-08-18T04:15:25Z</time>
<desc><![CDATA[lat.=36.731225, lon.=137.755556, Alt.=2927.824686m. Speed=0.000000m/h.]]></desc>
</trkpt>
<trkpt lat="36.731247" lon="137.755540">
<ele>2929.564383</ele>
<time>2014-08-18T04:15:30Z</time>
<desc><![CDATA[lat.=36.731247, lon.=137.755540, Alt.=2929.564383m. Speed=1.000000m/h.]]></desc>
</trkpt>
<trkpt lat="36.731254" lon="137.755555">
<ele>2931.947107</ele>
<time>2014-08-18T04:15:35Z</time>
<desc><![CDATA[lat.=36.731254, lon.=137.755555, Alt.=2931.947107m. Speed=2.000000m/h.]]></desc>
</trkpt>
<trkpt lat="36.731272" lon="137.755548">
<ele>2932.549933</ele>
<time>2014-08-18T04:15:40Z</time>
<desc><![CDATA[lat.=36.731272, lon.=137.755548, Alt.=2932.549933m. Speed=1.000000m/h.]]></desc>
</trkpt>
<trkpt lat="36.731287" lon="137.755516">
<ele>2933.637081</ele>
<time>2014-08-18T04:15:45Z</time>
<desc><![CDATA[lat.=36.731287, lon.=137.755516, Alt.=2933.637081m. Speed=2.000000m/h.]]></desc>
</trkpt>
<trkpt lat="36.731303" lon="137.755469">
<ele>2934.669743</ele>
<time>2014-08-18T04:15:50Z</time>
<desc><![CDATA[lat.=36.731303, lon.=137.755469, Alt.=2934.669743m. Speed=2.000000m/h.]]></desc>
</trkpt>
<trkpt lat="36.731326" lon="137.755422">
<ele>2934.570299</ele>
<time>2014-08-18T04:15:55Z</time>
<desc><![CDATA[lat.=36.731326, lon.=137.755422, Alt.=2934.570299m. Speed=3.000000m/h.]]></desc>
</trkpt>
<trkpt lat="36.731348" lon="137.755390">
<ele>2936.255518</ele>
<time>2014-08-18T04:16:00Z</time>
<desc><![CDATA[lat.=36.731348, lon.=137.755390, Alt.=2936.255518m. Speed=3.000000m/h.]]></desc>
</trkpt>
<trkpt lat="36.731352" lon="137.755349">
<ele>2940.743768</ele>
<time>2014-08-18T04:16:05Z</time>
<desc><![CDATA[lat.=36.731352, lon.=137.755349, Alt.=2940.743768m. Speed=3.000000m/h.]]></desc>
</trkpt>
<trkpt lat="36.731377" lon="137.755325">
<ele>2943.620351</ele>
<time>2014-08-18T04:16:10Z</time>
<desc><![CDATA[lat.=36.731377, lon.=137.755325, Alt.=2943.620351m. Speed=3.000000m/h.]]></desc>
</trkpt>
<trkpt lat="36.731370" lon="137.755325">
<ele>2943.022287</ele>
<time>2014-08-18T04:16:20Z</time>
<desc><![CDATA[lat.=36.731370, lon.=137.755325, Alt.=2943.022287m. Speed=0.000000m/h.]]></desc>
</trkpt>
<trkpt lat="36.731366" lon="137.755332">
<ele>2943.615584</ele>
<time>2014-08-18T04:16:25Z</time>
<desc><![CDATA[lat.=36.731366, lon.=137.755332, Alt.=2943.615584m. Speed=0.000000m/h.]]></desc>
</trkpt>
<trkpt lat="36.731370" lon="137.755325">
<ele>2943.022287</ele>
<time>2014-08-18T04:16:32Z</time>
<desc><![CDATA[lat.=36.731370, lon.=137.755325, Alt.=2943.022287m. Speed=0.000000m/h.]]></desc>
</trkpt>
<trkpt lat="36.731370" lon="137.755308">
<ele>2944.697975</ele>
<time>2014-08-18T04:16:37Z</time>
<desc><![CDATA[lat.=36.731370, lon.=137.755308, Alt.=2944.697975m. Speed=0.000000m/h.]]></desc>
</trkpt>
<trkpt lat="36.731378" lon="137.755293">
<ele>2943.511383</ele>
<time>2014-08-18T04:16:42Z</time>
<desc><![CDATA[lat.=36.731378, lon.=137.755293, Alt.=2943.511383m. Speed=0.000000m/h.]]></desc>
</trkpt>
<trkpt lat="36.731385" lon="137.755293">
<ele>2944.109447</ele>
<time>2014-08-18T04:16:48Z</time>
<desc><![CDATA[lat.=36.731385, lon.=137.755293, Alt.=2944.109447m. Speed=0.000000m/h.]]></desc>
</trkpt>
<trkpt lat="36.731382" lon="137.755285">
<ele>2944.648259</ele>
<time>2014-08-18T04:16:56Z</time>
<desc><![CDATA[lat.=36.731382, lon.=137.755285, Alt.=2944.648259m. Speed=0.000000m/h.]]></desc>
</trkpt>
<trkpt lat="36.731382" lon="137.755269">
<ele>2944.593776</ele>
<time>2014-08-18T04:17:01Z</time>
<desc><![CDATA[lat.=36.731382, lon.=137.755269, Alt.=2944.593776m. Speed=0.000000m/h.]]></desc>
</trkpt>
<trkpt lat="36.731393" lon="137.755277">
<ele>2944.653027</ele>
<time>2014-08-18T04:17:06Z</time>
<desc><![CDATA[lat.=36.731393, lon.=137.755277, Alt.=2944.653027m. Speed=0.000000m/h.]]></desc>
</trkpt>
<trkpt lat="36.731397" lon="137.755270">
<ele>2944.059731</ele>
<time>2014-08-18T04:17:11Z</time>
<desc><![CDATA[lat.=36.731397, lon.=137.755270, Alt.=2944.059731m. Speed=0.000000m/h.]]></desc>
</trkpt>
<trkpt lat="36.731404" lon="137.755270">
<ele>2944.657796</ele>
<time>2014-08-18T04:17:19Z</time>
<desc><![CDATA[lat.=36.731404, lon.=137.755270, Alt.=2944.657796m. Speed=0.000000m/h.]]></desc>
</trkpt>
<trkpt lat="36.731397" lon="137.755270">
<ele>2944.059731</ele>
<time>2014-08-18T04:17:24Z</time>
<desc><![CDATA[lat.=36.731397, lon.=137.755270, Alt.=2944.059731m. Speed=0.000000m/h.]]></desc>
</trkpt>
<trkpt lat="36.731401" lon="137.755278">
<ele>2943.520919</ele>
<time>2014-08-18T04:17:29Z</time>
<desc><![CDATA[lat.=36.731401, lon.=137.755278, Alt.=2943.520919m. Speed=0.000000m/h.]]></desc>
</trkpt>
<trkpt lat="36.731408" lon="137.755278">
<ele>2944.118984</ele>
<time>2014-08-18T04:17:50Z</time>
<desc><![CDATA[lat.=36.731408, lon.=137.755278, Alt.=2944.118984m. Speed=0.000000m/h.]]></desc>
</trkpt>
<trkpt lat="36.731412" lon="137.755271">
<ele>2943.525688</ele>
<time>2014-08-18T04:18:14Z</time>
<desc><![CDATA[lat.=36.731412, lon.=137.755271, Alt.=2943.525688m. Speed=1.000000m/h.]]></desc>
</trkpt>
<trkpt lat="36.731422" lon="137.755295">
<ele>2943.639424</ele>
<time>2014-08-18T04:18:19Z</time>
<desc><![CDATA[lat.=36.731422, lon.=137.755295, Alt.=2943.639424m. Speed=2.000000m/h.]]></desc>
</trkpt>
<trkpt lat="36.731429" lon="137.755295">
<ele>2944.237489</ele>
<time>2014-08-18T04:18:24Z</time>
<desc><![CDATA[lat.=36.731429, lon.=137.755295, Alt.=2944.237489m. Speed=0.000000m/h.]]></desc>
</trkpt>
<trkpt lat="36.731433" lon="137.755287">
<ele>2943.644193</ele>
<time>2014-08-18T04:18:29Z</time>
<desc><![CDATA[lat.=36.731433, lon.=137.755287, Alt.=2943.644193m. Speed=0.000000m/h.]]></desc>
</trkpt>
<trkpt lat="36.731441" lon="137.755287">
<ele>2944.242258</ele>
<time>2014-08-18T04:19:11Z</time>
<desc><![CDATA[lat.=36.731441, lon.=137.755287, Alt.=2944.242258m. Speed=0.000000m/h.]]></desc>
</trkpt>
<trkpt lat="36.731425" lon="137.755302">
<ele>2944.830785</ele>
<time>2014-08-18T04:19:16Z</time>
<desc><![CDATA[lat.=36.731425, lon.=137.755302, Alt.=2944.830785m. Speed=2.000000m/h.]]></desc>
</trkpt>
<trkpt lat="36.731418" lon="137.755318">
<ele>2944.287204</ele>
<time>2014-08-18T04:19:21Z</time>
<desc><![CDATA[lat.=36.731418, lon.=137.755318, Alt.=2944.287204m. Speed=2.000000m/h.]]></desc>
</trkpt>
<trkpt lat="36.731410" lon="137.755317">
<ele>2945.419312</ele>
<time>2014-08-18T04:19:26Z</time>
<desc><![CDATA[lat.=36.731410, lon.=137.755317, Alt.=2945.419312m. Speed=0.000000m/h.]]></desc>
</trkpt>
<trkpt lat="36.731407" lon="137.755309">
<ele>2945.958124</ele>
<time>2014-08-18T04:19:35Z</time>
<desc><![CDATA[lat.=36.731407, lon.=137.755309, Alt.=2945.958124m. Speed=1.000000m/h.]]></desc>
</trkpt>
<trkpt lat="36.731429" lon="137.755295">
<ele>2944.237489</ele>
<time>2014-08-18T04:19:40Z</time>
<desc><![CDATA[lat.=36.731429, lon.=137.755295, Alt.=2944.237489m. Speed=2.000000m/h.]]></desc>
</trkpt>
<trkpt lat="36.731433" lon="137.755287">
<ele>2943.644193</ele>
<time>2014-08-18T04:19:45Z</time>
<desc><![CDATA[lat.=36.731433, lon.=137.755287, Alt.=2943.644193m. Speed=0.000000m/h.]]></desc>
</trkpt>
<trkpt lat="36.731423" lon="137.755279">
<ele>2943.584940</ele>
<time>2014-08-18T04:19:50Z</time>
<desc><![CDATA[lat.=36.731423, lon.=137.755279, Alt.=2943.584940m. Speed=0.000000m/h.]]></desc>
</trkpt>
<trkpt lat="36.731430" lon="137.755280">
<ele>2942.452832</ele>
<time>2014-08-18T04:19:55Z</time>
<desc><![CDATA[lat.=36.731430, lon.=137.755280, Alt.=2942.452832m. Speed=0.000000m/h.]]></desc>
</trkpt>
<trkpt lat="36.731423" lon="137.755280">
<ele>2941.854767</ele>
<time>2014-08-18T04:20:00Z</time>
<desc><![CDATA[lat.=36.731423, lon.=137.755280, Alt.=2941.854767m. Speed=0.000000m/h.]]></desc>
</trkpt>
<trkpt lat="36.731419" lon="137.755287">
<ele>2942.448063</ele>
<time>2014-08-18T04:20:05Z</time>
<desc><![CDATA[lat.=36.731419, lon.=137.755287, Alt.=2942.448063m. Speed=1.000000m/h.]]></desc>
</trkpt>
<trkpt lat="36.731404" lon="137.755319">
<ele>2941.360902</ele>
<time>2014-08-18T04:20:10Z</time>
<desc><![CDATA[lat.=36.731404, lon.=137.755319, Alt.=2941.360902m. Speed=1.000000m/h.]]></desc>
</trkpt>
<trkpt lat="36.731403" lon="137.755318">
<ele>2943.091075</ele>
<time>2014-08-18T04:20:15Z</time>
<desc><![CDATA[lat.=36.731403, lon.=137.755318, Alt.=2943.091075m. Speed=0.000000m/h.]]></desc>
</trkpt>
<trkpt lat="36.731415" lon="137.755295">
<ele>2943.041359</ele>
<time>2014-08-18T04:20:20Z</time>
<desc><![CDATA[lat.=36.731415, lon.=137.755295, Alt.=2943.041359m. Speed=2.000000m/h.]]></desc>
</trkpt>
<trkpt lat="36.731423" lon="137.755280">
<ele>2941.854767</ele>
<time>2014-08-18T04:20:25Z</time>
<desc><![CDATA[lat.=36.731423, lon.=137.755280, Alt.=2941.854767m. Speed=0.000000m/h.]]></desc>
</trkpt>
<trkpt lat="36.731430" lon="137.755280">
<ele>2942.452832</ele>
<time>2014-08-18T04:20:30Z</time>
<desc><![CDATA[lat.=36.731430, lon.=137.755280, Alt.=2942.452832m. Speed=0.000000m/h.]]></desc>
</trkpt>
<trkpt lat="36.731433" lon="137.755287">
<ele>2943.644193</ele>
<time>2014-08-18T04:20:35Z</time>
<desc><![CDATA[lat.=36.731433, lon.=137.755287, Alt.=2943.644193m. Speed=0.000000m/h.]]></desc>
</trkpt>
<trkpt lat="36.731429" lon="137.755295">
<ele>2944.237489</ele>
<time>2014-08-18T04:20:40Z</time>
<desc><![CDATA[lat.=36.731429, lon.=137.755295, Alt.=2944.237489m. Speed=0.000000m/h.]]></desc>
</trkpt>
<trkpt lat="36.731422" lon="137.755294">
<ele>2945.369597</ele>
<time>2014-08-18T04:20:45Z</time>
<desc><![CDATA[lat.=36.731422, lon.=137.755294, Alt.=2945.369597m. Speed=0.000000m/h.]]></desc>
</trkpt>
<trkpt lat="36.731429" lon="137.755294">
<ele>2945.967661</ele>
<time>2014-08-18T04:21:47Z</time>
<desc><![CDATA[lat.=36.731429, lon.=137.755294, Alt.=2945.967661m. Speed=0.000000m/h.]]></desc>
</trkpt>
<trkpt lat="36.731418" lon="137.755286">
<ele>2945.908409</ele>
<time>2014-08-18T04:21:52Z</time>
<desc><![CDATA[lat.=36.731418, lon.=137.755286, Alt.=2945.908409m. Speed=0.000000m/h.]]></desc>
</trkpt>
<trkpt lat="36.731429" lon="137.755278">
<ele>2945.913178</ele>
<time>2014-08-18T04:22:04Z</time>
<desc><![CDATA[lat.=36.731429, lon.=137.755278, Alt.=2945.913178m. Speed=1.000000m/h.]]></desc>
</trkpt>
<trkpt lat="36.731445" lon="137.755247">
<ele>2945.270168</ele>
<time>2014-08-18T04:22:09Z</time>
<desc><![CDATA[lat.=36.731445, lon.=137.755247, Alt.=2945.270168m. Speed=2.000000m/h.]]></desc>
</trkpt>
<trkpt lat="36.731446" lon="137.755200">
<ele>2945.106721</ele>
<time>2014-08-18T04:22:14Z</time>
<desc><![CDATA[lat.=36.731446, lon.=137.755200, Alt.=2945.106721m. Speed=3.000000m/h.]]></desc>
</trkpt>
<trkpt lat="36.731450" lon="137.755177">
<ele>2944.458944</ele>
<time>2014-08-18T04:22:19Z</time>
<desc><![CDATA[lat.=36.731450, lon.=137.755177, Alt.=2944.458944m. Speed=0.000000m/h.]]></desc>
</trkpt>
<trkpt lat="36.731446" lon="137.755184">
<ele>2945.052239</ele>
<time>2014-08-18T04:22:26Z</time>
<desc><![CDATA[lat.=36.731446, lon.=137.755184, Alt.=2945.052239m. Speed=0.000000m/h.]]></desc>
</trkpt>
<trkpt lat="36.731443" lon="137.755176">
<ele>2945.591052</ele>
<time>2014-08-18T04:22:32Z</time>
<desc><![CDATA[lat.=36.731443, lon.=137.755176, Alt.=2945.591052m. Speed=0.000000m/h.]]></desc>
</trkpt>
<trkpt lat="36.731450" lon="137.755160">
<ele>2946.134636</ele>
<time>2014-08-18T04:22:37Z</time>
<desc><![CDATA[lat.=36.731450, lon.=137.755160, Alt.=2946.134636m. Speed=1.000000m/h.]]></desc>
</trkpt>
<trkpt lat="36.731454" lon="137.755168">
<ele>2945.595823</ele>
<time>2014-08-18T04:22:42Z</time>
<desc><![CDATA[lat.=36.731454, lon.=137.755168, Alt.=2945.595823m. Speed=0.000000m/h.]]></desc>
</trkpt>
<trkpt lat="36.731450" lon="137.755160">
<ele>2946.134636</ele>
<time>2014-08-18T04:22:47Z</time>
<desc><![CDATA[lat.=36.731450, lon.=137.755160, Alt.=2946.134636m. Speed=0.000000m/h.]]></desc>
</trkpt>
<trkpt lat="36.731454" lon="137.755168">
<ele>2945.595823</ele>
<time>2014-08-18T04:22:52Z</time>
<desc><![CDATA[lat.=36.731454, lon.=137.755168, Alt.=2945.595823m. Speed=0.000000m/h.]]></desc>
</trkpt>
<trkpt lat="36.731461" lon="137.755168">
<ele>2946.193888</ele>
<time>2014-08-18T04:23:07Z</time>
<desc><![CDATA[lat.=36.731461, lon.=137.755168, Alt.=2946.193888m. Speed=0.000000m/h.]]></desc>
</trkpt>
<trkpt lat="36.731473" lon="137.755145">
<ele>2946.144178</ele>
<time>2014-08-18T04:23:12Z</time>
<desc><![CDATA[lat.=36.731473, lon.=137.755145, Alt.=2946.144178m. Speed=2.000000m/h.]]></desc>
</trkpt>
<trkpt lat="36.731496" lon="137.755098">
<ele>2946.044761</ele>
<time>2014-08-18T04:23:17Z</time>
<desc><![CDATA[lat.=36.731496, lon.=137.755098, Alt.=2946.044761m. Speed=3.000000m/h.]]></desc>
</trkpt>
<trkpt lat="36.731508" lon="137.755043">
<ele>2945.886095</ele>
<time>2014-08-18T04:23:22Z</time>
<desc><![CDATA[lat.=36.731508, lon.=137.755043, Alt.=2945.886095m. Speed=3.000000m/h.]]></desc>
</trkpt>
<trkpt lat="36.731505" lon="137.755035">
<ele>2946.424909</ele>
<time>2014-08-18T04:23:27Z</time>
<desc><![CDATA[lat.=36.731505, lon.=137.755035, Alt.=2946.424909m. Speed=0.000000m/h.]]></desc>
</trkpt>
<trkpt lat="36.731513" lon="137.755004">
<ele>2945.183845</ele>
<time>2014-08-18T04:23:32Z</time>
<desc><![CDATA[lat.=36.731513, lon.=137.755004, Alt.=2945.183845m. Speed=2.000000m/h.]]></desc>
</trkpt>
<trkpt lat="36.731529" lon="137.754958">
<ele>2944.486372</ele>
<time>2014-08-18T04:23:37Z</time>
<desc><![CDATA[lat.=36.731529, lon.=137.754958, Alt.=2944.486372m. Speed=3.000000m/h.]]></desc>
</trkpt>
<trkpt lat="36.731538" lon="137.754895">
<ele>2943.136359</ele>
<time>2014-08-18T04:23:42Z</time>
<desc><![CDATA[lat.=36.731538, lon.=137.754895, Alt.=2943.136359m. Speed=3.000000m/h.]]></desc>
</trkpt>
<trkpt lat="36.731532" lon="137.754848">
<ele>2940.644693</ele>
<time>2014-08-18T04:23:47Z</time>
<desc><![CDATA[lat.=36.731532, lon.=137.754848, Alt.=2940.644693m. Speed=3.000000m/h.]]></desc>
</trkpt>
<trkpt lat="36.731541" lon="137.754801">
<ele>2941.079335</ele>
<time>2014-08-18T04:23:52Z</time>
<desc><![CDATA[lat.=36.731541, lon.=137.754801, Alt.=2941.079335m. Speed=3.000000m/h.]]></desc>
</trkpt>
<trkpt lat="36.731542" lon="137.754754">
<ele>2939.185741</ele>
<time>2014-08-18T04:23:57Z</time>
<desc><![CDATA[lat.=36.731542, lon.=137.754754, Alt.=2939.185741m. Speed=3.000000m/h.]]></desc>
</trkpt>
<trkpt lat="36.731554" lon="137.754716">
<ele>2937.351400</ele>
<time>2014-08-18T04:24:02Z</time>
<desc><![CDATA[lat.=36.731554, lon.=137.754716, Alt.=2937.351400m. Speed=3.000000m/h.]]></desc>
</trkpt>
<trkpt lat="36.731571" lon="137.754670">
<ele>2934.923771</ele>
<time>2014-08-18T04:24:07Z</time>
<desc><![CDATA[lat.=36.731571, lon.=137.754670, Alt.=2934.923771m. Speed=3.000000m/h.]]></desc>
</trkpt>
<trkpt lat="36.731579" lon="137.754623">
<ele>2933.628251</ele>
<time>2014-08-18T04:24:12Z</time>
<desc><![CDATA[lat.=36.731579, lon.=137.754623, Alt.=2933.628251m. Speed=3.000000m/h.]]></desc>
</trkpt>
<trkpt lat="36.731603" lon="137.754593">
<ele>2931.853166</ele>
<time>2014-08-18T04:24:17Z</time>
<desc><![CDATA[lat.=36.731603, lon.=137.754593, Alt.=2931.853166m. Speed=3.000000m/h.]]></desc>
</trkpt>
<trkpt lat="36.731592" lon="137.754553">
<ele>2931.684978</ele>
<time>2014-08-18T04:24:22Z</time>
<desc><![CDATA[lat.=36.731592, lon.=137.754553, Alt.=2931.684978m. Speed=3.000000m/h.]]></desc>
</trkpt>
<trkpt lat="36.731597" lon="137.754530">
<ele>2931.037221</ele>
<time>2014-08-18T04:24:27Z</time>
<desc><![CDATA[lat.=36.731597, lon.=137.754530, Alt.=2931.037221m. Speed=2.000000m/h.]]></desc>
</trkpt>
<trkpt lat="36.731604" lon="137.754530">
<ele>2931.635288</ele>
<time>2014-08-18T04:24:32Z</time>
<desc><![CDATA[lat.=36.731604, lon.=137.754530, Alt.=2931.635288m. Speed=1.000000m/h.]]></desc>
</trkpt>
<trkpt lat="36.731597" lon="137.754498">
<ele>2932.658458</ele>
<time>2014-08-18T04:24:37Z</time>
<desc><![CDATA[lat.=36.731597, lon.=137.754498, Alt.=2932.658458m. Speed=2.000000m/h.]]></desc>
</trkpt>
<trkpt lat="36.731575" lon="137.754480">
<ele>2934.270136</ele>
<time>2014-08-18T04:24:42Z</time>
<desc><![CDATA[lat.=36.731575, lon.=137.754480, Alt.=2934.270136m. Speed=2.000000m/h.]]></desc>
</trkpt>
<trkpt lat="36.731590" lon="137.754465">
<ele>2935.411802</ele>
<time>2014-08-18T04:24:47Z</time>
<desc><![CDATA[lat.=36.731590, lon.=137.754465, Alt.=2935.411802m. Speed=2.000000m/h.]]></desc>
</trkpt>
<trkpt lat="36.731626" lon="137.754514">
<ele>2933.375022</ele>
<time>2014-08-18T04:24:52Z</time>
<desc><![CDATA[lat.=36.731626, lon.=137.754514, Alt.=2933.375022m. Speed=3.000000m/h.]]></desc>
</trkpt>
<trkpt lat="36.731641" lon="137.754531">
<ele>2932.895453</ele>
<time>2014-08-18T04:24:57Z</time>
<desc><![CDATA[lat.=36.731641, lon.=137.754531, Alt.=2932.895453m. Speed=2.000000m/h.]]></desc>
</trkpt>
<trkpt lat="36.731633" lon="137.754531">
<ele>2932.297385</ele>
<time>2014-08-18T04:25:02Z</time>
<desc><![CDATA[lat.=36.731633, lon.=137.754531, Alt.=2932.297385m. Speed=0.000000m/h.]]></desc>
</trkpt>
<trkpt lat="36.731630" lon="137.754539">
<ele>2931.160499</ele>
<time>2014-08-18T04:25:07Z</time>
<desc><![CDATA[lat.=36.731630, lon.=137.754539, Alt.=2931.160499m. Speed=0.000000m/h.]]></desc>
</trkpt>
<trkpt lat="36.731651" lon="137.754556">
<ele>2931.278998</ele>
<time>2014-08-18T04:25:12Z</time>
<desc><![CDATA[lat.=36.731651, lon.=137.754556, Alt.=2931.278998m. Speed=2.000000m/h.]]></desc>
</trkpt>
<trkpt lat="36.731677" lon="137.754565">
<ele>2930.804211</ele>
<time>2014-08-18T04:25:17Z</time>
<desc><![CDATA[lat.=36.731677, lon.=137.754565, Alt.=2930.804211m. Speed=2.000000m/h.]]></desc>
</trkpt>
<trkpt lat="36.731714" lon="137.754566">
<ele>2930.334208</ele>
<time>2014-08-18T04:25:22Z</time>
<desc><![CDATA[lat.=36.731714, lon.=137.754566, Alt.=2930.334208m. Speed=2.000000m/h.]]></desc>
</trkpt>
<trkpt lat="36.731725" lon="137.754559">
<ele>2930.338990</ele>
<time>2014-08-18T04:25:27Z</time>
<desc><![CDATA[lat.=36.731725, lon.=137.754559, Alt.=2930.338990m. Speed=0.000000m/h.]]></desc>
</trkpt>
<trkpt lat="36.731733" lon="137.754560">
<ele>2927.476712</ele>
<time>2014-08-18T04:25:32Z</time>
<desc><![CDATA[lat.=36.731733, lon.=137.754560, Alt.=2927.476712m. Speed=2.000000m/h.]]></desc>
</trkpt>
<trkpt lat="36.731770" lon="137.754578">
<ele>2925.331009</ele>
<time>2014-08-18T04:25:37Z</time>
<desc><![CDATA[lat.=36.731770, lon.=137.754578, Alt.=2925.331009m. Speed=3.000000m/h.]]></desc>
</trkpt>
<trkpt lat="36.731814" lon="137.754579">
<ele>2927.189255</ele>
<time>2014-08-18T04:25:42Z</time>
<desc><![CDATA[lat.=36.731814, lon.=137.754579, Alt.=2927.189255m. Speed=3.000000m/h.]]></desc>
</trkpt>
<trkpt lat="36.731833" lon="137.754589">
<ele>2924.386233</ele>
<time>2014-08-18T04:25:47Z</time>
<desc><![CDATA[lat.=36.731833, lon.=137.754589, Alt.=2924.386233m. Speed=2.000000m/h.]]></desc>
</trkpt>
<trkpt lat="36.731863" lon="137.754592">
<ele>2919.857824</ele>
<time>2014-08-18T04:25:52Z</time>
<desc><![CDATA[lat.=36.731863, lon.=137.754592, Alt.=2919.857824m. Speed=3.000000m/h.]]></desc>
</trkpt>
<trkpt lat="36.731904" lon="137.754602">
<ele>2917.118844</ele>
<time>2014-08-18T04:25:57Z</time>
<desc><![CDATA[lat.=36.731904, lon.=137.754602, Alt.=2917.118844m. Speed=3.000000m/h.]]></desc>
</trkpt>
<trkpt lat="36.731944" lon="137.754628">
<ele>2916.164512</ele>
<time>2014-08-18T04:26:02Z</time>
<desc><![CDATA[lat.=36.731944, lon.=137.754628, Alt.=2916.164512m. Speed=3.000000m/h.]]></desc>
</trkpt>
<trkpt lat="36.731985" lon="137.754638">
<ele>2915.155712</ele>
<time>2014-08-18T04:26:07Z</time>
<desc><![CDATA[lat.=36.731985, lon.=137.754638, Alt.=2915.155712m. Speed=3.000000m/h.]]></desc>
</trkpt>
<trkpt lat="36.732000" lon="137.754607">
<ele>2914.512744</ele>
<time>2014-08-18T04:26:12Z</time>
<desc><![CDATA[lat.=36.732000, lon.=137.754607, Alt.=2914.512744m. Speed=3.000000m/h.]]></desc>
</trkpt>
<trkpt lat="36.731997" lon="137.754567">
<ele>2914.942621</ele>
<time>2014-08-18T04:26:17Z</time>
<desc><![CDATA[lat.=36.731997, lon.=137.754567, Alt.=2914.942621m. Speed=3.000000m/h.]]></desc>
</trkpt>
<trkpt lat="36.732006" lon="137.754537">
<ele>2911.971410</ele>
<time>2014-08-18T04:26:22Z</time>
<desc><![CDATA[lat.=36.732006, lon.=137.754537, Alt.=2911.971410m. Speed=3.000000m/h.]]></desc>
</trkpt>
<trkpt lat="36.732053" lon="137.754563">
<ele>2911.615157</ele>
<time>2014-08-18T04:26:27Z</time>
<desc><![CDATA[lat.=36.732053, lon.=137.754563, Alt.=2911.615157m. Speed=3.000000m/h.]]></desc>
</trkpt>
<trkpt lat="36.732076" lon="137.754516">
<ele>2911.515799</ele>
<time>2014-08-18T04:26:32Z</time>
<desc><![CDATA[lat.=36.732076, lon.=137.754516, Alt.=2911.515799m. Speed=4.000000m/h.]]></desc>
</trkpt>
<trkpt lat="36.732114" lon="137.754502">
<ele>2910.991356</ele>
<time>2014-08-18T04:26:37Z</time>
<desc><![CDATA[lat.=36.732114, lon.=137.754502, Alt.=2910.991356m. Speed=4.000000m/h.]]></desc>
</trkpt>
<trkpt lat="36.732126" lon="137.754463">
<ele>2909.157040</ele>
<time>2014-08-18T04:26:42Z</time>
<desc><![CDATA[lat.=36.732126, lon.=137.754463, Alt.=2909.157040m. Speed=3.000000m/h.]]></desc>
</trkpt>
<trkpt lat="36.732159" lon="137.754489">
<ele>2907.604645</ele>
<time>2014-08-18T04:26:47Z</time>
<desc><![CDATA[lat.=36.732159, lon.=137.754489, Alt.=2907.604645m. Speed=3.000000m/h.]]></desc>
</trkpt>
<trkpt lat="36.732207" lon="137.754515">
<ele>2905.518231</ele>
<time>2014-08-18T04:26:52Z</time>
<desc><![CDATA[lat.=36.732207, lon.=137.754515, Alt.=2905.518231m. Speed=3.000000m/h.]]></desc>
</trkpt>
<trkpt lat="36.732259" lon="137.754502">
<ele>2904.459778</ele>
<time>2014-08-18T04:26:57Z</time>
<desc><![CDATA[lat.=36.732259, lon.=137.754502, Alt.=2904.459778m. Speed=4.000000m/h.]]></desc>
</trkpt>
<trkpt lat="36.732303" lon="137.754504">
<ele>2902.857720</ele>
<time>2014-08-18T04:27:02Z</time>
<desc><![CDATA[lat.=36.732303, lon.=137.754504, Alt.=2902.857720m. Speed=4.000000m/h.]]></desc>
</trkpt>
<trkpt lat="36.732344" lon="137.754499">
<ele>2900.064306</ele>
<time>2014-08-18T04:27:07Z</time>
<desc><![CDATA[lat.=36.732344, lon.=137.754499, Alt.=2900.064306m. Speed=4.000000m/h.]]></desc>
</trkpt>
<trkpt lat="36.732379" lon="137.754462">
<ele>2896.563884</ele>
<time>2014-08-18T04:27:12Z</time>
<desc><![CDATA[lat.=36.732379, lon.=137.754462, Alt.=2896.563884m. Speed=4.000000m/h.]]></desc>
</trkpt>
<trkpt lat="36.732421" lon="137.754441">
<ele>2893.716011</ele>
<time>2014-08-18T04:27:17Z</time>
<desc><![CDATA[lat.=36.732421, lon.=137.754441, Alt.=2893.716011m. Speed=4.000000m/h.]]></desc>
</trkpt>
<trkpt lat="36.732459" lon="137.754412">
<ele>2891.406955</ele>
<time>2014-08-18T04:27:22Z</time>
<desc><![CDATA[lat.=36.732459, lon.=137.754412, Alt.=2891.406955m. Speed=4.000000m/h.]]></desc>
</trkpt>
<trkpt lat="36.732508" lon="137.754374">
<ele>2890.832877</ele>
<time>2014-08-18T04:27:27Z</time>
<desc><![CDATA[lat.=36.732508, lon.=137.754374, Alt.=2890.832877m. Speed=4.000000m/h.]]></desc>
</trkpt>
<trkpt lat="36.732563" lon="137.754369">
<ele>2889.235642</ele>
<time>2014-08-18T04:27:32Z</time>
<desc><![CDATA[lat.=36.732563, lon.=137.754369, Alt.=2889.235642m. Speed=4.000000m/h.]]></desc>
</trkpt>
<trkpt lat="36.732614" lon="137.754370">
<ele>2891.692037</ele>
<time>2014-08-18T04:27:37Z</time>
<desc><![CDATA[lat.=36.732614, lon.=137.754370, Alt.=2891.692037m. Speed=4.000000m/h.]]></desc>
</trkpt>
<trkpt lat="36.732662" lon="137.754379">
<ele>2891.281369</ele>
<time>2014-08-18T04:27:42Z</time>
<desc><![CDATA[lat.=36.732662, lon.=137.754379, Alt.=2891.281369m. Speed=4.000000m/h.]]></desc>
</trkpt>
<trkpt lat="36.732703" lon="137.754357">
<ele>2891.893866</ele>
<time>2014-08-18T04:27:47Z</time>
<desc><![CDATA[lat.=36.732703, lon.=137.754357, Alt.=2891.893866m. Speed=4.000000m/h.]]></desc>
</trkpt>
<trkpt lat="36.732726" lon="137.754311">
<ele>2890.064377</ele>
<time>2014-08-18T04:27:52Z</time>
<desc><![CDATA[lat.=36.732726, lon.=137.754311, Alt.=2890.064377m. Speed=4.000000m/h.]]></desc>
</trkpt>
<trkpt lat="36.732768" lon="137.754290">
<ele>2887.216536</ele>
<time>2014-08-18T04:27:57Z</time>
<desc><![CDATA[lat.=36.732768, lon.=137.754290, Alt.=2887.216536m. Speed=4.000000m/h.]]></desc>
</trkpt>
<trkpt lat="36.732815" lon="137.754315">
<ele>2886.860345</ele>
<time>2014-08-18T04:28:02Z</time>
<desc><![CDATA[lat.=36.732815, lon.=137.754315, Alt.=2886.860345m. Speed=4.000000m/h.]]></desc>
</trkpt>
<trkpt lat="36.732867" lon="137.754317">
<ele>2887.586592</ele>
<time>2014-08-18T04:28:07Z</time>
<desc><![CDATA[lat.=36.732867, lon.=137.754317, Alt.=2887.586592m. Speed=4.000000m/h.]]></desc>
</trkpt>
<trkpt lat="36.732908" lon="137.754311">
<ele>2886.523398</ele>
<time>2014-08-18T04:28:12Z</time>
<desc><![CDATA[lat.=36.732908, lon.=137.754311, Alt.=2886.523398m. Speed=4.000000m/h.]]></desc>
</trkpt>
<trkpt lat="36.732948" lon="137.754337">
<ele>2885.569134</ele>
<time>2014-08-18T04:28:17Z</time>
<desc><![CDATA[lat.=36.732948, lon.=137.754337, Alt.=2885.569134m. Speed=4.000000m/h.]]></desc>
</trkpt>
<trkpt lat="36.732985" lon="137.754338">
<ele>2885.099220</ele>
<time>2014-08-18T04:28:22Z</time>
<desc><![CDATA[lat.=36.732985, lon.=137.754338, Alt.=2885.099220m. Speed=4.000000m/h.]]></desc>
</trkpt>
<trkpt lat="36.732999" lon="137.754338">
<ele>2886.295394</ele>
<time>2014-08-18T04:28:27Z</time>
<desc><![CDATA[lat.=36.732999, lon.=137.754338, Alt.=2886.295394m. Speed=3.000000m/h.]]></desc>
</trkpt>
<trkpt lat="36.733001" lon="137.754361">
<ele>2889.271392</ele>
<time>2014-08-18T04:28:32Z</time>
<desc><![CDATA[lat.=36.733001, lon.=137.754361, Alt.=2889.271392m. Speed=0.000000m/h.]]></desc>
</trkpt>
<trkpt lat="36.733009" lon="137.754361">
<ele>2889.869479</ele>
<time>2014-08-18T04:28:37Z</time>
<desc><![CDATA[lat.=36.733009, lon.=137.754361, Alt.=2889.869479m. Speed=1.000000m/h.]]></desc>
</trkpt>
<trkpt lat="36.733042" lon="137.754386">
<ele>2888.317137</ele>
<time>2014-08-18T04:28:42Z</time>
<desc><![CDATA[lat.=36.733042, lon.=137.754386, Alt.=2888.317137m. Speed=2.000000m/h.]]></desc>
</trkpt>
<trkpt lat="36.733072" lon="137.754356">
<ele>2887.140214</ele>
<time>2014-08-18T04:28:47Z</time>
<desc><![CDATA[lat.=36.733072, lon.=137.754356, Alt.=2887.140214m. Speed=2.000000m/h.]]></desc>
</trkpt>
<trkpt lat="36.733113" lon="137.754334">
<ele>2886.022571</ele>
<time>2014-08-18T04:28:52Z</time>
<desc><![CDATA[lat.=36.733113, lon.=137.754334, Alt.=2886.022571m. Speed=3.000000m/h.]]></desc>
</trkpt>
<trkpt lat="36.733139" lon="137.754360">
<ele>2883.872147</ele>
<time>2014-08-18T04:28:57Z</time>
<desc><![CDATA[lat.=36.733139, lon.=137.754360, Alt.=2883.872147m. Speed=3.000000m/h.]]></desc>
</trkpt>
<trkpt lat="36.733169" lon="137.754378">
<ele>2881.128450</ele>
<time>2014-08-18T04:29:02Z</time>
<desc><![CDATA[lat.=36.733169, lon.=137.754378, Alt.=2881.128450m. Speed=3.000000m/h.]]></desc>
</trkpt>
<trkpt lat="36.733191" lon="137.754364">
<ele>2879.407909</ele>
<time>2014-08-18T04:29:07Z</time>
<desc><![CDATA[lat.=36.733191, lon.=137.754364, Alt.=2879.407909m. Speed=3.000000m/h.]]></desc>
</trkpt>
<trkpt lat="36.733220" lon="137.754397">
<ele>2878.448852</ele>
<time>2014-08-18T04:29:12Z</time>
<desc><![CDATA[lat.=36.733220, lon.=137.754397, Alt.=2878.448852m. Speed=3.000000m/h.]]></desc>
</trkpt>
<trkpt lat="36.733231" lon="137.754438">
<ele>2876.886892</ele>
<time>2014-08-18T04:29:17Z</time>
<desc><![CDATA[lat.=36.733231, lon.=137.754438, Alt.=2876.886892m. Speed=3.000000m/h.]]></desc>
</trkpt>
<trkpt lat="36.733246" lon="137.754423">
<ele>2874.568262</ele>
<time>2014-08-18T04:29:22Z</time>
<desc><![CDATA[lat.=36.733246, lon.=137.754423, Alt.=2874.568262m. Speed=3.000000m/h.]]></desc>
</trkpt>
<trkpt lat="36.733264" lon="137.754447">
<ele>2875.280101</ele>
<time>2014-08-18T04:29:27Z</time>
<desc><![CDATA[lat.=36.733264, lon.=137.754447, Alt.=2875.280101m. Speed=2.000000m/h.]]></desc>
</trkpt>
<trkpt lat="36.733297" lon="137.754456">
<ele>2875.403484</ele>
<time>2014-08-18T04:29:32Z</time>
<desc><![CDATA[lat.=36.733297, lon.=137.754456, Alt.=2875.403484m. Speed=3.000000m/h.]]></desc>
</trkpt>
<trkpt lat="36.733315" lon="137.754481">
<ele>2874.385153</ele>
<time>2014-08-18T04:29:37Z</time>
<desc><![CDATA[lat.=36.733315, lon.=137.754481, Alt.=2874.385153m. Speed=3.000000m/h.]]></desc>
</trkpt>
<trkpt lat="36.733345" lon="137.754451">
<ele>2873.208242</ele>
<time>2014-08-18T04:29:42Z</time>
<desc><![CDATA[lat.=36.733345, lon.=137.754451, Alt.=2873.208242m. Speed=3.000000m/h.]]></desc>
</trkpt>
<trkpt lat="36.733356" lon="137.754475">
<ele>2873.321993</ele>
<time>2014-08-18T04:29:47Z</time>
<desc><![CDATA[lat.=36.733356, lon.=137.754475, Alt.=2873.321993m. Speed=3.000000m/h.]]></desc>
</trkpt>
<trkpt lat="36.733363" lon="137.754492">
<ele>2872.244379</ele>
<time>2014-08-18T04:29:52Z</time>
<desc><![CDATA[lat.=36.733363, lon.=137.754492, Alt.=2872.244379m. Speed=2.000000m/h.]]></desc>
</trkpt>
<trkpt lat="36.733378" lon="137.754492">
<ele>2873.440563</ele>
<time>2014-08-18T04:29:57Z</time>
<desc><![CDATA[lat.=36.733378, lon.=137.754492, Alt.=2873.440563m. Speed=0.000000m/h.]]></desc>
</trkpt>
<trkpt lat="36.733382" lon="137.754484">
<ele>2872.847290</ele>
<time>2014-08-18T04:30:03Z</time>
<desc><![CDATA[lat.=36.733382, lon.=137.754484, Alt.=2872.847290m. Speed=1.000000m/h.]]></desc>
</trkpt>
<trkpt lat="36.733408" lon="137.754494">
<ele>2870.642416</ele>
<time>2014-08-18T04:30:08Z</time>
<desc><![CDATA[lat.=36.733408, lon.=137.754494, Alt.=2870.642416m. Speed=2.000000m/h.]]></desc>
</trkpt>
<trkpt lat="36.733422" lon="137.754527">
<ele>2868.487191</ele>
<time>2014-08-18T04:30:13Z</time>
<desc><![CDATA[lat.=36.733422, lon.=137.754527, Alt.=2868.487191m. Speed=3.000000m/h.]]></desc>
</trkpt>
<trkpt lat="36.733467" lon="137.754514">
<ele>2866.830767</ele>
<time>2014-08-18T04:30:18Z</time>
<desc><![CDATA[lat.=36.733467, lon.=137.754514, Alt.=2866.830767m. Speed=3.000000m/h.]]></desc>
</trkpt>
<trkpt lat="36.733478" lon="137.754539">
<ele>2865.214350</ele>
<time>2014-08-18T04:30:23Z</time>
<desc><![CDATA[lat.=36.733478, lon.=137.754539, Alt.=2865.214350m. Speed=3.000000m/h.]]></desc>
</trkpt>
<trkpt lat="36.733500" lon="137.754555">
<ele>2865.332926</ele>
<time>2014-08-18T04:30:28Z</time>
<desc><![CDATA[lat.=36.733500, lon.=137.754555, Alt.=2865.332926m. Speed=3.000000m/h.]]></desc>
</trkpt>
<trkpt lat="36.733533" lon="137.754549">
<ele>2863.671686</ele>
<time>2014-08-18T04:30:33Z</time>
<desc><![CDATA[lat.=36.733533, lon.=137.754549, Alt.=2863.671686m. Speed=3.000000m/h.]]></desc>
</trkpt>
<trkpt lat="36.733555" lon="137.754582">
<ele>2862.114562</ele>
<time>2014-08-18T04:30:38Z</time>
<desc><![CDATA[lat.=36.733555, lon.=137.754582, Alt.=2862.114562m. Speed=3.000000m/h.]]></desc>
</trkpt>
<trkpt lat="36.733589" lon="137.754593">
<ele>2858.777621</ele>
<time>2014-08-18T04:30:43Z</time>
<desc><![CDATA[lat.=36.733589, lon.=137.754593, Alt.=2858.777621m. Speed=3.000000m/h.]]></desc>
</trkpt>
<trkpt lat="36.733629" lon="137.754618">
<ele>2857.823419</ele>
<time>2014-08-18T04:30:48Z</time>
<desc><![CDATA[lat.=36.733629, lon.=137.754618, Alt.=2857.823419m. Speed=4.000000m/h.]]></desc>
</trkpt>
<trkpt lat="36.733672" lon="137.754652">
<ele>2858.060590</ele>
<time>2014-08-18T04:30:53Z</time>
<desc><![CDATA[lat.=36.733672, lon.=137.754652, Alt.=2858.060590m. Speed=4.000000m/h.]]></desc>
</trkpt>
<trkpt lat="36.733690" lon="137.754676">
<ele>2858.772450</ele>
<time>2014-08-18T04:30:58Z</time>
<desc><![CDATA[lat.=36.733690, lon.=137.754676, Alt.=2858.772450m. Speed=3.000000m/h.]]></desc>
</trkpt>
<trkpt lat="36.733737" lon="137.754701">
<ele>2860.146527</ele>
<time>2014-08-18T04:31:03Z</time>
<desc><![CDATA[lat.=36.733737, lon.=137.754701, Alt.=2860.146527m. Speed=4.000000m/h.]]></desc>
</trkpt>
<trkpt lat="36.733777" lon="137.754710">
<ele>2860.868041</ele>
<time>2014-08-18T04:31:08Z</time>
<desc><![CDATA[lat.=36.733777, lon.=137.754710, Alt.=2860.868041m. Speed=4.000000m/h.]]></desc>
</trkpt>
<trkpt lat="36.733809" lon="137.754734">
<ele>2861.045931</ele>
<time>2014-08-18T04:31:13Z</time>
<desc><![CDATA[lat.=36.733809, lon.=137.754734, Alt.=2861.045931m. Speed=3.000000m/h.]]></desc>
</trkpt>
<trkpt lat="36.733831" lon="137.754751">
<ele>2861.164525</ele>
<time>2014-08-18T04:31:18Z</time>
<desc><![CDATA[lat.=36.733831, lon.=137.754751, Alt.=2861.164525m. Speed=3.000000m/h.]]></desc>
</trkpt>
<trkpt lat="36.733845" lon="137.754784">
<ele>2859.009323</ele>
<time>2014-08-18T04:31:23Z</time>
<desc><![CDATA[lat.=36.733845, lon.=137.754784, Alt.=2859.009323m. Speed=3.000000m/h.]]></desc>
</trkpt>
<trkpt lat="36.733863" lon="137.754808">
<ele>2859.721193</ele>
<time>2014-08-18T04:31:28Z</time>
<desc><![CDATA[lat.=36.733863, lon.=137.754808, Alt.=2859.721193m. Speed=2.000000m/h.]]></desc>
</trkpt>
<trkpt lat="36.733877" lon="137.754840">
<ele>2861.026337</ele>
<time>2014-08-18T04:31:33Z</time>
<desc><![CDATA[lat.=36.733877, lon.=137.754840, Alt.=2861.026337m. Speed=2.000000m/h.]]></desc>
</trkpt>
<trkpt lat="36.733881" lon="137.754849">
<ele>2858.757366</ele>
<time>2014-08-18T04:31:38Z</time>
<desc><![CDATA[lat.=36.733881, lon.=137.754849, Alt.=2858.757366m. Speed=2.000000m/h.]]></desc>
</trkpt>
<trkpt lat="36.733904" lon="137.754835">
<ele>2857.036848</ele>
<time>2014-08-18T04:31:43Z</time>
<desc><![CDATA[lat.=36.733904, lon.=137.754835, Alt.=2857.036848m. Speed=2.000000m/h.]]></desc>
</trkpt>
<trkpt lat="36.733914" lon="137.754842">
<ele>2858.826319</ele>
<time>2014-08-18T04:31:48Z</time>
<desc><![CDATA[lat.=36.733914, lon.=137.754842, Alt.=2858.826319m. Speed=1.000000m/h.]]></desc>
</trkpt>
<trkpt lat="36.733951" lon="137.754794">
<ele>2863.383572</ele>
<time>2014-08-18T04:31:53Z</time>
<desc><![CDATA[lat.=36.733951, lon.=137.754794, Alt.=2863.383572m. Speed=2.000000m/h.]]></desc>
</trkpt>
<trkpt lat="36.733974" lon="137.754780">
<ele>2861.663058</ele>
<time>2014-08-18T04:31:58Z</time>
<desc><![CDATA[lat.=36.733974, lon.=137.754780, Alt.=2861.663058m. Speed=2.000000m/h.]]></desc>
</trkpt>
<trkpt lat="36.733983" lon="137.754819">
<ele>2863.561475</ele>
<time>2014-08-18T04:32:03Z</time>
<desc><![CDATA[lat.=36.733983, lon.=137.754819, Alt.=2863.561475m. Speed=2.000000m/h.]]></desc>
</trkpt>
<trkpt lat="36.733975" lon="137.754850">
<ele>2864.802492</ele>
<time>2014-08-18T04:32:08Z</time>
<desc><![CDATA[lat.=36.733975, lon.=137.754850, Alt.=2864.802492m. Speed=2.000000m/h.]]></desc>
</trkpt>
<trkpt lat="36.733948" lon="137.754888">
<ele>2865.440582</ele>
<time>2014-08-18T04:32:13Z</time>
<desc><![CDATA[lat.=36.733948, lon.=137.754888, Alt.=2865.440582m. Speed=3.000000m/h.]]></desc>
</trkpt>
<trkpt lat="36.733952" lon="137.754896">
<ele>2864.901784</ele>
<time>2014-08-18T04:32:18Z</time>
<desc><![CDATA[lat.=36.733952, lon.=137.754896, Alt.=2864.901784m. Speed=2.000000m/h.]]></desc>
</trkpt>
<trkpt lat="36.733937" lon="137.754911">
<ele>2865.490229</ele>
<time>2014-08-18T04:32:23Z</time>
<desc><![CDATA[lat.=36.733937, lon.=137.754911, Alt.=2865.490229m. Speed=2.000000m/h.]]></desc>
</trkpt>
<trkpt lat="36.733946" lon="137.754950">
<ele>2867.388652</ele>
<time>2014-08-18T04:32:28Z</time>
<desc><![CDATA[lat.=36.733946, lon.=137.754950, Alt.=2867.388652m. Speed=2.000000m/h.]]></desc>
</trkpt>
<trkpt lat="36.733968" lon="137.754967">
<ele>2867.507257</ele>
<time>2014-08-18T04:32:33Z</time>
<desc><![CDATA[lat.=36.733968, lon.=137.754967, Alt.=2867.507257m. Speed=0.000000m/h.]]></desc>
</trkpt>
<trkpt lat="36.733983" lon="137.754984">
<ele>2865.297592</ele>
<time>2014-08-18T04:32:38Z</time>
<desc><![CDATA[lat.=36.733983, lon.=137.754984, Alt.=2865.297592m. Speed=1.000000m/h.]]></desc>
</trkpt>
<trkpt lat="36.733982" lon="137.755032">
<ele>2865.461021</ele>
<time>2014-08-18T04:32:43Z</time>
<desc><![CDATA[lat.=36.733982, lon.=137.755032, Alt.=2865.461021m. Speed=2.000000m/h.]]></desc>
</trkpt>
<trkpt lat="36.733981" lon="137.755047">
<ele>2867.245669</ele>
<time>2014-08-18T04:32:48Z</time>
<desc><![CDATA[lat.=36.733981, lon.=137.755047, Alt.=2867.245669m. Speed=0.000000m/h.]]></desc>
</trkpt>
<trkpt lat="36.733995" lon="137.755079">
<ele>2866.820654</ele>
<time>2014-08-18T04:32:53Z</time>
<desc><![CDATA[lat.=36.733995, lon.=137.755079, Alt.=2866.820654m. Speed=2.000000m/h.]]></desc>
</trkpt>
<trkpt lat="36.733995" lon="137.755096">
<ele>2865.144961</ele>
<time>2014-08-18T04:32:58Z</time>
<desc><![CDATA[lat.=36.733995, lon.=137.755096, Alt.=2865.144961m. Speed=0.000000m/h.]]></desc>
</trkpt>
<trkpt lat="36.733999" lon="137.755088">
<ele>2866.281858</ele>
<time>2014-08-18T04:33:03Z</time>
<desc><![CDATA[lat.=36.733999, lon.=137.755088, Alt.=2866.281858m. Speed=0.000000m/h.]]></desc>
</trkpt>
<trkpt lat="36.734003" lon="137.755096">
<ele>2865.743062</ele>
<time>2014-08-18T04:33:08Z</time>
<desc><![CDATA[lat.=36.734003, lon.=137.755096, Alt.=2865.743062m. Speed=0.000000m/h.]]></desc>
</trkpt>
<trkpt lat="36.734005" lon="137.755119">
<ele>2866.988916</ele>
<time>2014-08-18T04:33:13Z</time>
<desc><![CDATA[lat.=36.734005, lon.=137.755119, Alt.=2866.988916m. Speed=1.000000m/h.]]></desc>
</trkpt>
<trkpt lat="36.733998" lon="137.755119">
<ele>2866.390815</ele>
<time>2014-08-18T04:33:18Z</time>
<desc><![CDATA[lat.=36.733998, lon.=137.755119, Alt.=2866.390815m. Speed=0.000000m/h.]]></desc>
</trkpt>
<trkpt lat="36.734005" lon="137.755119">
<ele>2866.988916</ele>
<time>2014-08-18T04:33:23Z</time>
<desc><![CDATA[lat.=36.734005, lon.=137.755119, Alt.=2866.988916m. Speed=0.000000m/h.]]></desc>
</trkpt>
<trkpt lat="36.733998" lon="137.755119">
<ele>2866.390815</ele>
<time>2014-08-18T04:33:28Z</time>
<desc><![CDATA[lat.=36.733998, lon.=137.755119, Alt.=2866.390815m. Speed=0.000000m/h.]]></desc>
</trkpt>
<trkpt lat="36.734002" lon="137.755112">
<ele>2865.797540</ele>
<time>2014-08-18T04:33:35Z</time>
<desc><![CDATA[lat.=36.734002, lon.=137.755112, Alt.=2865.797540m. Speed=0.000000m/h.]]></desc>
</trkpt>
<trkpt lat="36.733995" lon="137.755111">
<ele>2866.929611</ele>
<time>2014-08-18T04:33:40Z</time>
<desc><![CDATA[lat.=36.733995, lon.=137.755111, Alt.=2866.929611m. Speed=0.000000m/h.]]></desc>
</trkpt>
<trkpt lat="36.733998" lon="137.755119">
<ele>2866.390815</ele>
<time>2014-08-18T04:33:46Z</time>
<desc><![CDATA[lat.=36.733998, lon.=137.755119, Alt.=2866.390815m. Speed=0.000000m/h.]]></desc>
</trkpt>
<trkpt lat="36.733987" lon="137.755143">
<ele>2864.710296</ele>
<time>2014-08-18T04:33:51Z</time>
<desc><![CDATA[lat.=36.733987, lon.=137.755143, Alt.=2864.710296m. Speed=2.000000m/h.]]></desc>
</trkpt>
<trkpt lat="36.734020" lon="137.755153">
<ele>2863.103563</ele>
<time>2014-08-18T04:33:56Z</time>
<desc><![CDATA[lat.=36.734020, lon.=137.755153, Alt.=2863.103563m. Speed=2.000000m/h.]]></desc>
</trkpt>
<trkpt lat="36.734061" lon="137.755146">
<ele>2863.770624</ele>
<time>2014-08-18T04:34:01Z</time>
<desc><![CDATA[lat.=36.734061, lon.=137.755146, Alt.=2863.770624m. Speed=2.000000m/h.]]></desc>
</trkpt>
<trkpt lat="36.734091" lon="137.755132">
<ele>2862.648211</ele>
<time>2014-08-18T04:34:06Z</time>
<desc><![CDATA[lat.=36.734091, lon.=137.755132, Alt.=2862.648211m. Speed=2.000000m/h.]]></desc>
</trkpt>
<trkpt lat="36.734106" lon="137.755133">
<ele>2860.384074</ele>
<time>2014-08-18T04:34:11Z</time>
<desc><![CDATA[lat.=36.734106, lon.=137.755133, Alt.=2860.384074m. Speed=3.000000m/h.]]></desc>
</trkpt>
<trkpt lat="36.734102" lon="137.755158">
<ele>2859.301656</ele>
<time>2014-08-18T04:34:16Z</time>
<desc><![CDATA[lat.=36.734102, lon.=137.755158, Alt.=2859.301656m. Speed=2.000000m/h.]]></desc>
</trkpt>
<trkpt lat="36.734125" lon="137.755127">
<ele>2857.526663</ele>
<time>2014-08-18T04:34:21Z</time>
<desc><![CDATA[lat.=36.734125, lon.=137.755127, Alt.=2857.526663m. Speed=2.000000m/h.]]></desc>
</trkpt>
<trkpt lat="36.734140" lon="137.755161">
<ele>2855.371485</ele>
<time>2014-08-18T04:34:26Z</time>
<desc><![CDATA[lat.=36.734140, lon.=137.755161, Alt.=2855.371485m. Speed=2.000000m/h.]]></desc>
</trkpt>
<trkpt lat="36.734139" lon="137.755193">
<ele>2853.750273</ele>
<time>2014-08-18T04:34:31Z</time>
<desc><![CDATA[lat.=36.734139, lon.=137.755193, Alt.=2853.750273m. Speed=2.000000m/h.]]></desc>
</trkpt>
<trkpt lat="36.734110" lon="137.755225">
<ele>2851.466823</ele>
<time>2014-08-18T04:34:36Z</time>
<desc><![CDATA[lat.=36.734110, lon.=137.755225, Alt.=2851.466823m. Speed=3.000000m/h.]]></desc>
</trkpt>
<trkpt lat="36.734095" lon="137.755240">
<ele>2852.055270</ele>
<time>2014-08-18T04:34:41Z</time>
<desc><![CDATA[lat.=36.734095, lon.=137.755240, Alt.=2852.055270m. Speed=2.000000m/h.]]></desc>
</trkpt>
<trkpt lat="36.734120" lon="137.755248">
<ele>2853.310784</ele>
<time>2014-08-18T04:34:46Z</time>
<desc><![CDATA[lat.=36.734120, lon.=137.755248, Alt.=2853.310784m. Speed=2.000000m/h.]]></desc>
</trkpt>
<trkpt lat="36.734138" lon="137.755273">
<ele>2852.292506</ele>
<time>2014-08-18T04:34:51Z</time>
<desc><![CDATA[lat.=36.734138, lon.=137.755273, Alt.=2852.292506m. Speed=2.000000m/h.]]></desc>
</trkpt>
<trkpt lat="36.734123" lon="137.755305">
<ele>2849.475094</ele>
<time>2014-08-18T04:34:56Z</time>
<desc><![CDATA[lat.=36.734123, lon.=137.755305, Alt.=2849.475094m. Speed=2.000000m/h.]]></desc>
</trkpt>
<trkpt lat="36.734138" lon="137.755322">
<ele>2848.995611</ele>
<time>2014-08-18T04:35:01Z</time>
<desc><![CDATA[lat.=36.734138, lon.=137.755322, Alt.=2848.995611m. Speed=2.000000m/h.]]></desc>
</trkpt>
<trkpt lat="36.734160" lon="137.755323">
<ele>2849.059749</ele>
<time>2014-08-18T04:35:06Z</time>
<desc><![CDATA[lat.=36.734160, lon.=137.755323, Alt.=2849.059749m. Speed=1.000000m/h.]]></desc>
</trkpt>
<trkpt lat="36.734177" lon="137.755363">
<ele>2848.095958</ele>
<time>2014-08-18T04:35:11Z</time>
<desc><![CDATA[lat.=36.734177, lon.=137.755363, Alt.=2848.095958m. Speed=2.000000m/h.]]></desc>
</trkpt>
<trkpt lat="36.734155" lon="137.755395">
<ele>2846.410616</ele>
<time>2014-08-18T04:35:16Z</time>
<desc><![CDATA[lat.=36.734155, lon.=137.755395, Alt.=2846.410616m. Speed=2.000000m/h.]]></desc>
</trkpt>
<trkpt lat="36.734144" lon="137.755419">
<ele>2844.730102</ele>
<time>2014-08-18T04:35:21Z</time>
<desc><![CDATA[lat.=36.734144, lon.=137.755419, Alt.=2844.730102m. Speed=2.000000m/h.]]></desc>
</trkpt>
<trkpt lat="36.734170" lon="137.755412">
<ele>2844.200965</ele>
<time>2014-08-18T04:35:26Z</time>
<desc><![CDATA[lat.=36.734170, lon.=137.755412, Alt.=2844.200965m. Speed=3.000000m/h.]]></desc>
</trkpt>
<trkpt lat="36.734203" lon="137.755390">
<ele>2844.215448</ele>
<time>2014-08-18T04:35:31Z</time>
<desc><![CDATA[lat.=36.734203, lon.=137.755390, Alt.=2844.215448m. Speed=3.000000m/h.]]></desc>
</trkpt>
<trkpt lat="36.734226" lon="137.755374">
<ele>2844.225106</ele>
<time>2014-08-18T04:35:36Z</time>
<desc><![CDATA[lat.=36.734226, lon.=137.755374, Alt.=2844.225106m. Speed=2.000000m/h.]]></desc>
</trkpt>
<trkpt lat="36.734244" lon="137.755367">
<ele>2844.828039</ele>
<time>2014-08-18T04:35:41Z</time>
<desc><![CDATA[lat.=36.734244, lon.=137.755367, Alt.=2844.828039m. Speed=2.000000m/h.]]></desc>
</trkpt>
<trkpt lat="36.734255" lon="137.755375">
<ele>2844.887352</ele>
<time>2014-08-18T04:35:46Z</time>
<desc><![CDATA[lat.=36.734255, lon.=137.755375, Alt.=2844.887352m. Speed=1.000000m/h.]]></desc>
</trkpt>
<trkpt lat="36.734259" lon="137.755368">
<ele>2842.563906</ele>
<time>2014-08-18T04:35:51Z</time>
<desc><![CDATA[lat.=36.734259, lon.=137.755368, Alt.=2842.563906m. Speed=0.000000m/h.]]></desc>
</trkpt>
<trkpt lat="36.734263" lon="137.755378">
<ele>2840.294945</ele>
<time>2014-08-18T04:35:56Z</time>
<desc><![CDATA[lat.=36.734263, lon.=137.755378, Alt.=2840.294945m. Speed=0.000000m/h.]]></desc>
</trkpt>
<trkpt lat="36.734271" lon="137.755378">
<ele>2839.162879</ele>
<time>2014-08-18T04:36:06Z</time>
<desc><![CDATA[lat.=36.734271, lon.=137.755378, Alt.=2839.162879m. Speed=1.000000m/h.]]></desc>
</trkpt>
<trkpt lat="36.734274" lon="137.755418">
<ele>2838.733055</ele>
<time>2014-08-18T04:36:11Z</time>
<desc><![CDATA[lat.=36.734274, lon.=137.755418, Alt.=2838.733055m. Speed=2.000000m/h.]]></desc>
</trkpt>
<trkpt lat="36.734278" lon="137.755443">
<ele>2836.518579</ele>
<time>2014-08-18T04:36:16Z</time>
<desc><![CDATA[lat.=36.734278, lon.=137.755443, Alt.=2836.518579m. Speed=1.000000m/h.]]></desc>
</trkpt>
<trkpt lat="36.734288" lon="137.755435">
<ele>2838.253579</ele>
<time>2014-08-18T04:36:21Z</time>
<desc><![CDATA[lat.=36.734288, lon.=137.755435, Alt.=2838.253579m. Speed=2.000000m/h.]]></desc>
</trkpt>
<trkpt lat="36.734318" lon="137.755436">
<ele>2837.185658</ele>
<time>2014-08-18T04:36:26Z</time>
<desc><![CDATA[lat.=36.734318, lon.=137.755436, Alt.=2837.185658m. Speed=2.000000m/h.]]></desc>
</trkpt>
<trkpt lat="36.734321" lon="137.755477">
<ele>2835.025668</ele>
<time>2014-08-18T04:36:31Z</time>
<desc><![CDATA[lat.=36.734321, lon.=137.755477, Alt.=2835.025668m. Speed=2.000000m/h.]]></desc>
</trkpt>
<trkpt lat="36.734317" lon="137.755484">
<ele>2835.618943</ele>
<time>2014-08-18T04:36:36Z</time>
<desc><![CDATA[lat.=36.734317, lon.=137.755484, Alt.=2835.618943m. Speed=0.000000m/h.]]></desc>
</trkpt>
<trkpt lat="36.734314" lon="137.755493">
<ele>2834.482048</ele>
<time>2014-08-18T04:36:41Z</time>
<desc><![CDATA[lat.=36.734314, lon.=137.755493, Alt.=2834.482048m. Speed=1.000000m/h.]]></desc>
</trkpt>
<trkpt lat="36.734306" lon="137.755541">
<ele>2832.317231</ele>
<time>2014-08-18T04:36:46Z</time>
<desc><![CDATA[lat.=36.734306, lon.=137.755541, Alt.=2832.317231m. Speed=2.000000m/h.]]></desc>
</trkpt>
<trkpt lat="36.734309" lon="137.755582">
<ele>2830.157246</ele>
<time>2014-08-18T04:36:51Z</time>
<desc><![CDATA[lat.=36.734309, lon.=137.755582, Alt.=2830.157246m. Speed=3.000000m/h.]]></desc>
</trkpt>
<trkpt lat="36.734283" lon="137.755621">
<ele>2829.065184</ele>
<time>2014-08-18T04:36:56Z</time>
<desc><![CDATA[lat.=36.734283, lon.=137.755621, Alt.=2829.065184m. Speed=3.000000m/h.]]></desc>
</trkpt>
<trkpt lat="36.734279" lon="137.755645">
<ele>2827.982779</ele>
<time>2014-08-18T04:37:01Z</time>
<desc><![CDATA[lat.=36.734279, lon.=137.755645, Alt.=2827.982779m. Speed=2.000000m/h.]]></desc>
</trkpt>
<trkpt lat="36.734311" lon="137.755670">
<ele>2828.160730</ele>
<time>2014-08-18T04:37:06Z</time>
<desc><![CDATA[lat.=36.734311, lon.=137.755670, Alt.=2828.160730m. Speed=3.000000m/h.]]></desc>
</trkpt>
<trkpt lat="36.734285" lon="137.755709">
<ele>2827.068671</ele>
<time>2014-08-18T04:37:11Z</time>
<desc><![CDATA[lat.=36.734285, lon.=137.755709, Alt.=2827.068671m. Speed=3.000000m/h.]]></desc>
</trkpt>
<trkpt lat="36.734299" lon="137.755725">
<ele>2826.589201</ele>
<time>2014-08-18T04:37:16Z</time>
<desc><![CDATA[lat.=36.734299, lon.=137.755725, Alt.=2826.589201m. Speed=2.000000m/h.]]></desc>
</trkpt>
<trkpt lat="36.734318" lon="137.755750">
<ele>2825.570945</ele>
<time>2014-08-18T04:37:21Z</time>
<desc><![CDATA[lat.=36.734318, lon.=137.755750, Alt.=2825.570945m. Speed=2.000000m/h.]]></desc>
</trkpt>
<trkpt lat="36.734302" lon="137.755798">
<ele>2822.808038</ele>
<time>2014-08-18T04:37:26Z</time>
<desc><![CDATA[lat.=36.734302, lon.=137.755798, Alt.=2822.808038m. Speed=2.000000m/h.]]></desc>
</trkpt>
<trkpt lat="36.734312" lon="137.755838">
<ele>2822.976341</ele>
<time>2014-08-18T04:37:31Z</time>
<desc><![CDATA[lat.=36.734312, lon.=137.755838, Alt.=2822.976341m. Speed=3.000000m/h.]]></desc>
</trkpt>
<trkpt lat="36.734319" lon="137.755887">
<ele>2822.007756</ele>
<time>2014-08-18T04:37:36Z</time>
<desc><![CDATA[lat.=36.734319, lon.=137.755887, Alt.=2822.007756m. Speed=3.000000m/h.]]></desc>
</trkpt>
<trkpt lat="36.734359" lon="137.755912">
<ele>2821.053652</ele>
<time>2014-08-18T04:37:41Z</time>
<desc><![CDATA[lat.=36.734359, lon.=137.755912, Alt.=2821.053652m. Speed=3.000000m/h.]]></desc>
</trkpt>
<trkpt lat="36.734386" lon="137.755906">
<ele>2818.794351</ele>
<time>2014-08-18T04:37:46Z</time>
<desc><![CDATA[lat.=36.734386, lon.=137.755906, Alt.=2818.794351m. Speed=3.000000m/h.]]></desc>
</trkpt>
<trkpt lat="36.734409" lon="137.755844">
<ele>2816.910357</ele>
<time>2014-08-18T04:37:51Z</time>
<desc><![CDATA[lat.=36.734409, lon.=137.755844, Alt.=2816.910357m. Speed=3.000000m/h.]]></desc>
</trkpt>
<trkpt lat="36.734439" lon="137.755862">
<ele>2815.896937</ele>
<time>2014-08-18T04:37:56Z</time>
<desc><![CDATA[lat.=36.734439, lon.=137.755862, Alt.=2815.896937m. Speed=3.000000m/h.]]></desc>
</trkpt>
<trkpt lat="36.734460" lon="137.755893">
<ele>2817.800245</ele>
<time>2014-08-18T04:38:01Z</time>
<desc><![CDATA[lat.=36.734460, lon.=137.755893, Alt.=2817.800245m. Speed=3.000000m/h.]]></desc>
</trkpt>
<trkpt lat="36.734475" lon="137.755911">
<ele>2815.590614</ele>
<time>2014-08-18T04:38:06Z</time>
<desc><![CDATA[lat.=36.734475, lon.=137.755911, Alt.=2815.590614m. Speed=2.000000m/h.]]></desc>
</trkpt>
<trkpt lat="36.734500" lon="137.755936">
<ele>2815.170477</ele>
<time>2014-08-18T04:38:11Z</time>
<desc><![CDATA[lat.=36.734500, lon.=137.755936, Alt.=2815.170477m. Speed=2.000000m/h.]]></desc>
</trkpt>
<trkpt lat="36.734481" lon="137.755942">
<ele>2816.297710</ele>
<time>2014-08-18T04:38:16Z</time>
<desc><![CDATA[lat.=36.734481, lon.=137.755942, Alt.=2816.297710m. Speed=0.000000m/h.]]></desc>
</trkpt>
<trkpt lat="36.734488" lon="137.755942">
<ele>2816.895817</ele>
<time>2014-08-18T04:38:21Z</time>
<desc><![CDATA[lat.=36.734488, lon.=137.755942, Alt.=2816.895817m. Speed=0.000000m/h.]]></desc>
</trkpt>
<trkpt lat="36.734485" lon="137.755934">
<ele>2817.434601</ele>
<time>2014-08-18T04:38:29Z</time>
<desc><![CDATA[lat.=36.734485, lon.=137.755934, Alt.=2817.434601m. Speed=0.000000m/h.]]></desc>
</trkpt>
<trkpt lat="36.734492" lon="137.755935">
<ele>2816.302539</ele>
<time>2014-08-18T04:38:34Z</time>
<desc><![CDATA[lat.=36.734492, lon.=137.755935, Alt.=2816.302539m. Speed=0.000000m/h.]]></desc>
</trkpt>
<trkpt lat="36.734489" lon="137.755926">
<ele>2816.841323</ele>
<time>2014-08-18T04:38:39Z</time>
<desc><![CDATA[lat.=36.734489, lon.=137.755926, Alt.=2816.841323m. Speed=0.000000m/h.]]></desc>
</trkpt>
<trkpt lat="36.734493" lon="137.755919">
<ele>2816.248045</ele>
<time>2014-08-18T04:38:45Z</time>
<desc><![CDATA[lat.=36.734493, lon.=137.755919, Alt.=2816.248045m. Speed=0.000000m/h.]]></desc>
</trkpt>
<trkpt lat="36.734489" lon="137.755911">
<ele>2816.786829</ele>
<time>2014-08-18T04:38:55Z</time>
<desc><![CDATA[lat.=36.734489, lon.=137.755911, Alt.=2816.786829m. Speed=0.000000m/h.]]></desc>
</trkpt>
<trkpt lat="36.734515" lon="137.755888">
<ele>2816.203211</ele>
<time>2014-08-18T04:39:00Z</time>
<desc><![CDATA[lat.=36.734515, lon.=137.755888, Alt.=2816.203211m. Speed=2.000000m/h.]]></desc>
</trkpt>
<trkpt lat="36.734522" lon="137.755937">
<ele>2813.504461</ele>
<time>2014-08-18T04:39:05Z</time>
<desc><![CDATA[lat.=36.734522, lon.=137.755937, Alt.=2813.504461m. Speed=2.000000m/h.]]></desc>
</trkpt>
<trkpt lat="36.734537" lon="137.755970">
<ele>2811.349327</ele>
<time>2014-08-18T04:39:10Z</time>
<desc><![CDATA[lat.=36.734537, lon.=137.755970, Alt.=2811.349327m. Speed=2.000000m/h.]]></desc>
</trkpt>
<trkpt lat="36.734551" lon="137.755970">
<ele>2812.545544</ele>
<time>2014-08-18T04:39:15Z</time>
<desc><![CDATA[lat.=36.734551, lon.=137.755970, Alt.=2812.545544m. Speed=2.000000m/h.]]></desc>
</trkpt>
<trkpt lat="36.734567" lon="137.755939">
<ele>2811.902602</ele>
<time>2014-08-18T04:39:20Z</time>
<desc><![CDATA[lat.=36.734567, lon.=137.755939, Alt.=2811.902602m. Speed=2.000000m/h.]]></desc>
</trkpt>
<trkpt lat="36.734589" lon="137.755924">
<ele>2811.912265</ele>
<time>2014-08-18T04:39:25Z</time>
<desc><![CDATA[lat.=36.734589, lon.=137.755924, Alt.=2811.912265m. Speed=2.000000m/h.]]></desc>
</trkpt>
<trkpt lat="36.734586" lon="137.755884">
<ele>2812.342061</ele>
<time>2014-08-18T04:39:30Z</time>
<desc><![CDATA[lat.=36.734586, lon.=137.755884, Alt.=2812.342061m. Speed=2.000000m/h.]]></desc>
</trkpt>
<trkpt lat="36.734598" lon="137.755878">
<ele>2810.616724</ele>
<time>2014-08-18T04:39:35Z</time>
<desc><![CDATA[lat.=36.734598, lon.=137.755878, Alt.=2810.616724m. Speed=2.000000m/h.]]></desc>
</trkpt>
<trkpt lat="36.734620" lon="137.755911">
<ele>2809.059699</ele>
<time>2014-08-18T04:39:40Z</time>
<desc><![CDATA[lat.=36.734620, lon.=137.755911, Alt.=2809.059699m. Speed=2.000000m/h.]]></desc>
</trkpt>
<trkpt lat="36.734631" lon="137.755936">
<ele>2805.713180</ele>
<time>2014-08-18T04:39:45Z</time>
<desc><![CDATA[lat.=36.734631, lon.=137.755936, Alt.=2805.713180m. Speed=2.000000m/h.]]></desc>
</trkpt>
<trkpt lat="36.734635" lon="137.755962">
<ele>2801.768552</ele>
<time>2014-08-18T04:39:50Z</time>
<desc><![CDATA[lat.=36.734635, lon.=137.755962, Alt.=2801.768552m. Speed=2.000000m/h.]]></desc>
</trkpt>
<trkpt lat="36.734669" lon="137.755956">
<ele>2800.107375</ele>
<time>2014-08-18T04:39:55Z</time>
<desc><![CDATA[lat.=36.734669, lon.=137.755956, Alt.=2800.107375m. Speed=2.000000m/h.]]></desc>
</trkpt>
<trkpt lat="36.734688" lon="137.755918">
<ele>2798.871161</ele>
<time>2014-08-18T04:40:00Z</time>
<desc><![CDATA[lat.=36.734688, lon.=137.755918, Alt.=2798.871161m. Speed=2.000000m/h.]]></desc>
</trkpt>
<trkpt lat="36.734697" lon="137.755871">
<ele>2797.575621</ele>
<time>2014-08-18T04:40:05Z</time>
<desc><![CDATA[lat.=36.734697, lon.=137.755871, Alt.=2797.575621m. Speed=2.000000m/h.]]></desc>
</trkpt>
<trkpt lat="36.734716" lon="137.755848">
<ele>2796.393904</ele>
<time>2014-08-18T04:40:10Z</time>
<desc><![CDATA[lat.=36.734716, lon.=137.755848, Alt.=2796.393904m. Speed=2.000000m/h.]]></desc>
</trkpt>
<trkpt lat="36.734731" lon="137.755833">
<ele>2795.805464</ele>
<time>2014-08-18T04:40:15Z</time>
<desc><![CDATA[lat.=36.734731, lon.=137.755833, Alt.=2795.805464m. Speed=2.000000m/h.]]></desc>
</trkpt>
<trkpt lat="36.734750" lon="137.755810">
<ele>2796.353919</ele>
<time>2014-08-18T04:40:20Z</time>
<desc><![CDATA[lat.=36.734750, lon.=137.755810, Alt.=2796.353919m. Speed=2.000000m/h.]]></desc>
</trkpt>
<trkpt lat="36.734772" lon="137.755827">
<ele>2794.742406</ele>
<time>2014-08-18T04:40:25Z</time>
<desc><![CDATA[lat.=36.734772, lon.=137.755827, Alt.=2794.742406m. Speed=2.000000m/h.]]></desc>
</trkpt>
<trkpt lat="36.734778" lon="137.755859">
<ele>2795.449502</ele>
<time>2014-08-18T04:40:30Z</time>
<desc><![CDATA[lat.=36.734778, lon.=137.755859, Alt.=2795.449502m. Speed=2.000000m/h.]]></desc>
</trkpt>
<trkpt lat="36.734789" lon="137.755883">
<ele>2795.563325</ele>
<time>2014-08-18T04:40:35Z</time>
<desc><![CDATA[lat.=36.734789, lon.=137.755883, Alt.=2795.563325m. Speed=2.000000m/h.]]></desc>
</trkpt>
<trkpt lat="36.734819" lon="137.755885">
<ele>2792.765264</ele>
<time>2014-08-18T04:40:40Z</time>
<desc><![CDATA[lat.=36.734819, lon.=137.755885, Alt.=2792.765264m. Speed=2.000000m/h.]]></desc>
</trkpt>
<trkpt lat="36.734826" lon="137.755918">
<ele>2791.742194</ele>
<time>2014-08-18T04:40:45Z</time>
<desc><![CDATA[lat.=36.734826, lon.=137.755918, Alt.=2791.742194m. Speed=2.000000m/h.]]></desc>
</trkpt>
<trkpt lat="36.734841" lon="137.755935">
<ele>2789.532573</ele>
<time>2014-08-18T04:40:50Z</time>
<desc><![CDATA[lat.=36.734841, lon.=137.755935, Alt.=2789.532573m. Speed=2.000000m/h.]]></desc>
</trkpt>
<trkpt lat="36.734863" lon="137.755952">
<ele>2787.921067</ele>
<time>2014-08-18T04:40:55Z</time>
<desc><![CDATA[lat.=36.734863, lon.=137.755952, Alt.=2787.921067m. Speed=2.000000m/h.]]></desc>
</trkpt>
<trkpt lat="36.734893" lon="137.755938">
<ele>2786.798686</ele>
<time>2014-08-18T04:41:00Z</time>
<desc><![CDATA[lat.=36.734893, lon.=137.755938, Alt.=2786.798686m. Speed=2.000000m/h.]]></desc>
</trkpt>
<trkpt lat="36.734918" lon="137.755963">
<ele>2786.378570</ele>
<time>2014-08-18T04:41:05Z</time>
<desc><![CDATA[lat.=36.734918, lon.=137.755963, Alt.=2786.378570m. Speed=3.000000m/h.]]></desc>
</trkpt>
<trkpt lat="36.734947" lon="137.756012">
<ele>2785.474172</ele>
<time>2014-08-18T04:41:10Z</time>
<desc><![CDATA[lat.=36.734947, lon.=137.756012, Alt.=2785.474172m. Speed=3.000000m/h.]]></desc>
</trkpt>
<trkpt lat="36.734979" lon="137.756037">
<ele>2785.652176</ele>
<time>2014-08-18T04:41:15Z</time>
<desc><![CDATA[lat.=36.734979, lon.=137.756037, Alt.=2785.652176m. Speed=3.000000m/h.]]></desc>
</trkpt>
<trkpt lat="36.734994" lon="137.756037">
<ele>2785.118236</ele>
<time>2014-08-18T04:41:20Z</time>
<desc><![CDATA[lat.=36.734994, lon.=137.756037, Alt.=2785.118236m. Speed=1.000000m/h.]]></desc>
</trkpt>
<trkpt lat="36.735013" lon="137.756015">
<ele>2783.936525</ele>
<time>2014-08-18T04:41:25Z</time>
<desc><![CDATA[lat.=36.735013, lon.=137.756015, Alt.=2783.936525m. Speed=2.000000m/h.]]></desc>
</trkpt>
<trkpt lat="36.734996" lon="137.755959">
<ele>2783.115590</ele>
<time>2014-08-18T04:41:30Z</time>
<desc><![CDATA[lat.=36.734996, lon.=137.755959, Alt.=2783.115590m. Speed=3.000000m/h.]]></desc>
</trkpt>
<trkpt lat="36.734994" lon="137.755904">
<ele>2781.760719</ele>
<time>2014-08-18T04:41:35Z</time>
<desc><![CDATA[lat.=36.734994, lon.=137.755904, Alt.=2781.760719m. Speed=3.000000m/h.]]></desc>
</trkpt>
<trkpt lat="36.735018" lon="137.755858">
<ele>2779.931246</ele>
<time>2014-08-18T04:41:40Z</time>
<desc><![CDATA[lat.=36.735018, lon.=137.755858, Alt.=2779.931246m. Speed=3.000000m/h.]]></desc>
</trkpt>
<trkpt lat="36.735047" lon="137.755892">
<ele>2777.242184</ele>
<time>2014-08-18T04:41:45Z</time>
<desc><![CDATA[lat.=36.735047, lon.=137.755892, Alt.=2777.242184m. Speed=3.000000m/h.]]></desc>
</trkpt>
<trkpt lat="36.735077" lon="137.755895">
<ele>2774.444138</ele>
<time>2014-08-18T04:41:50Z</time>
<desc><![CDATA[lat.=36.735077, lon.=137.755895, Alt.=2774.444138m. Speed=3.000000m/h.]]></desc>
</trkpt>
<trkpt lat="36.735096" lon="137.755920">
<ele>2771.695745</ele>
<time>2014-08-18T04:41:55Z</time>
<desc><![CDATA[lat.=36.735096, lon.=137.755920, Alt.=2771.695745m. Speed=3.000000m/h.]]></desc>
</trkpt>
<trkpt lat="36.735100" lon="137.755864">
<ele>2772.669162</ele>
<time>2014-08-18T04:42:00Z</time>
<desc><![CDATA[lat.=36.735100, lon.=137.755864, Alt.=2772.669162m. Speed=3.000000m/h.]]></desc>
</trkpt>
<trkpt lat="36.735119" lon="137.755842">
<ele>2771.487460</ele>
<time>2014-08-18T04:42:05Z</time>
<desc><![CDATA[lat.=36.735119, lon.=137.755842, Alt.=2771.487460m. Speed=3.000000m/h.]]></desc>
</trkpt>
<trkpt lat="36.735156" lon="137.755859">
<ele>2771.072197</ele>
<time>2014-08-18T04:42:10Z</time>
<desc><![CDATA[lat.=36.735156, lon.=137.755859, Alt.=2771.072197m. Speed=3.000000m/h.]]></desc>
</trkpt>
<trkpt lat="36.735203" lon="137.755901">
<ele>2770.770768</ele>
<time>2014-08-18T04:42:15Z</time>
<desc><![CDATA[lat.=36.735203, lon.=137.755901, Alt.=2770.770768m. Speed=3.000000m/h.]]></desc>
</trkpt>
<trkpt lat="36.735208" lon="137.755878">
<ele>2768.392834</ele>
<time>2014-08-18T04:42:20Z</time>
<desc><![CDATA[lat.=36.735208, lon.=137.755878, Alt.=2768.392834m. Speed=3.000000m/h.]]></desc>
</trkpt>
<trkpt lat="36.735209" lon="137.755816">
<ele>2766.444696</ele>
<time>2014-08-18T04:42:25Z</time>
<desc><![CDATA[lat.=36.735209, lon.=137.755816, Alt.=2766.444696m. Speed=3.000000m/h.]]></desc>
</trkpt>
<trkpt lat="36.735195" lon="137.755783">
<ele>2766.869647</ele>
<time>2014-08-18T04:42:30Z</time>
<desc><![CDATA[lat.=36.735195, lon.=137.755783, Alt.=2766.869647m. Speed=3.000000m/h.]]></desc>
</trkpt>
<trkpt lat="36.735204" lon="137.755752">
<ele>2765.628614</ele>
<time>2014-08-18T04:42:35Z</time>
<desc><![CDATA[lat.=36.735204, lon.=137.755752, Alt.=2765.628614m. Speed=2.000000m/h.]]></desc>
</trkpt>
<trkpt lat="36.735240" lon="137.755785">
<ele>2765.267846</ele>
<time>2014-08-18T04:42:40Z</time>
<desc><![CDATA[lat.=36.735240, lon.=137.755785, Alt.=2765.267846m. Speed=3.000000m/h.]]></desc>
</trkpt>
<trkpt lat="36.735266" lon="137.755811">
<ele>2763.117574</ele>
<time>2014-08-18T04:42:45Z</time>
<desc><![CDATA[lat.=36.735266, lon.=137.755811, Alt.=2763.117574m. Speed=3.000000m/h.]]></desc>
</trkpt>
<trkpt lat="36.735274" lon="137.755780">
<ele>2761.876541</ele>
<time>2014-08-18T04:42:50Z</time>
<desc><![CDATA[lat.=36.735274, lon.=137.755780, Alt.=2761.876541m. Speed=2.000000m/h.]]></desc>
</trkpt>
<trkpt lat="36.735261" lon="137.755734">
<ele>2758.786663</ele>
<time>2014-08-18T04:42:55Z</time>
<desc><![CDATA[lat.=36.735261, lon.=137.755734, Alt.=2758.786663m. Speed=2.000000m/h.]]></desc>
</trkpt>
<trkpt lat="36.735295" lon="137.755728">
<ele>2755.395359</ele>
<time>2014-08-18T04:43:00Z</time>
<desc><![CDATA[lat.=36.735295, lon.=137.755728, Alt.=2755.395359m. Speed=2.000000m/h.]]></desc>
</trkpt>
<trkpt lat="36.735309" lon="137.755761">
<ele>2754.970408</ele>
<time>2014-08-18T04:43:05Z</time>
<desc><![CDATA[lat.=36.735309, lon.=137.755761, Alt.=2754.970408m. Speed=2.000000m/h.]]></desc>
</trkpt>
<trkpt lat="36.735305" lon="137.755768">
<ele>2755.563679</ele>
<time>2014-08-18T04:43:11Z</time>
<desc><![CDATA[lat.=36.735305, lon.=137.755768, Alt.=2755.563679m. Speed=0.000000m/h.]]></desc>
</trkpt>
<trkpt lat="36.735320" lon="137.755769">
<ele>2755.029747</ele>
<time>2014-08-18T04:43:16Z</time>
<desc><![CDATA[lat.=36.735320, lon.=137.755769, Alt.=2755.029747m. Speed=1.000000m/h.]]></desc>
</trkpt>
<trkpt lat="36.735342" lon="137.755786">
<ele>2755.148427</ele>
<time>2014-08-18T04:43:21Z</time>
<desc><![CDATA[lat.=36.735342, lon.=137.755786, Alt.=2755.148427m. Speed=0.000000m/h.]]></desc>
</trkpt>
<trkpt lat="36.735360" lon="137.755779">
<ele>2754.021227</ele>
<time>2014-08-18T04:43:26Z</time>
<desc><![CDATA[lat.=36.735360, lon.=137.755779, Alt.=2754.021227m. Speed=2.000000m/h.]]></desc>
</trkpt>
<trkpt lat="36.735386" lon="137.755787">
<ele>2755.276808</ele>
<time>2014-08-18T04:43:31Z</time>
<desc><![CDATA[lat.=36.735386, lon.=137.755787, Alt.=2755.276808m. Speed=2.000000m/h.]]></desc>
</trkpt>
<trkpt lat="36.735415" lon="137.755789">
<ele>2754.208951</ele>
<time>2014-08-18T04:43:36Z</time>
<desc><![CDATA[lat.=36.735415, lon.=137.755789, Alt.=2754.208951m. Speed=2.000000m/h.]]></desc>
</trkpt>
<trkpt lat="36.735426" lon="137.755813">
<ele>2754.322784</ele>
<time>2014-08-18T04:43:41Z</time>
<desc><![CDATA[lat.=36.735426, lon.=137.755813, Alt.=2754.322784m. Speed=2.000000m/h.]]></desc>
</trkpt>
<trkpt lat="36.735448" lon="137.755830">
<ele>2752.711300</ele>
<time>2014-08-18T04:43:46Z</time>
<desc><![CDATA[lat.=36.735448, lon.=137.755830, Alt.=2752.711300m. Speed=2.000000m/h.]]></desc>
</trkpt>
<trkpt lat="36.735466" lon="137.755839">
<ele>2751.638595</ele>
<time>2014-08-18T04:43:51Z</time>
<desc><![CDATA[lat.=36.735466, lon.=137.755839, Alt.=2751.638595m. Speed=2.000000m/h.]]></desc>
</trkpt>
<trkpt lat="36.735486" lon="137.755833">
<ele>2748.781230</ele>
<time>2014-08-18T04:43:56Z</time>
<desc><![CDATA[lat.=36.735486, lon.=137.755833, Alt.=2748.781230m. Speed=0.000000m/h.]]></desc>
</trkpt>
<trkpt lat="36.735482" lon="137.755841">
<ele>2749.374499</ele>
<time>2014-08-18T04:44:01Z</time>
<desc><![CDATA[lat.=36.735482, lon.=137.755841, Alt.=2749.374499m. Speed=0.000000m/h.]]></desc>
</trkpt>
<trkpt lat="36.735497" lon="137.755810">
<ele>2748.731590</ele>
<time>2014-08-18T04:44:06Z</time>
<desc><![CDATA[lat.=36.735497, lon.=137.755810, Alt.=2748.731590m. Speed=2.000000m/h.]]></desc>
</trkpt>
<trkpt lat="36.735500" lon="137.755834">
<ele>2748.247304</ele>
<time>2014-08-18T04:44:11Z</time>
<desc><![CDATA[lat.=36.735500, lon.=137.755834, Alt.=2748.247304m. Speed=1.000000m/h.]]></desc>
</trkpt>
<trkpt lat="36.735519" lon="137.755859">
<ele>2747.229093</ele>
<time>2014-08-18T04:44:16Z</time>
<desc><![CDATA[lat.=36.735519, lon.=137.755859, Alt.=2747.229093m. Speed=2.000000m/h.]]></desc>
</trkpt>
<trkpt lat="36.735541" lon="137.755844">
<ele>2747.238798</ele>
<time>2014-08-18T04:44:21Z</time>
<desc><![CDATA[lat.=36.735541, lon.=137.755844, Alt.=2747.238798m. Speed=1.000000m/h.]]></desc>
</trkpt>
<trkpt lat="36.735556" lon="137.755844">
<ele>2746.704874</ele>
<time>2014-08-18T04:44:26Z</time>
<desc><![CDATA[lat.=36.735556, lon.=137.755844, Alt.=2746.704874m. Speed=2.000000m/h.]]></desc>
</trkpt>
<trkpt lat="36.735581" lon="137.755886">
<ele>2744.609112</ele>
<time>2014-08-18T04:44:31Z</time>
<desc><![CDATA[lat.=36.735581, lon.=137.755886, Alt.=2744.609112m. Speed=3.000000m/h.]]></desc>
</trkpt>
<trkpt lat="36.735599" lon="137.755894">
<ele>2745.266581</ele>
<time>2014-08-18T04:44:36Z</time>
<desc><![CDATA[lat.=36.735599, lon.=137.755894, Alt.=2745.266581m. Speed=3.000000m/h.]]></desc>
</trkpt>
<trkpt lat="36.735608" lon="137.755832">
<ele>2743.916567</ele>
<time>2014-08-18T04:44:41Z</time>
<desc><![CDATA[lat.=36.735608, lon.=137.755832, Alt.=2743.916567m. Speed=3.000000m/h.]]></desc>
</trkpt>
<trkpt lat="36.735634" lon="137.755825">
<ele>2743.387499</ele>
<time>2014-08-18T04:44:46Z</time>
<desc><![CDATA[lat.=36.735634, lon.=137.755825, Alt.=2743.387499m. Speed=3.000000m/h.]]></desc>
</trkpt>
<trkpt lat="36.735682" lon="137.755851">
<ele>2743.031620</ele>
<time>2014-08-18T04:44:51Z</time>
<desc><![CDATA[lat.=36.735682, lon.=137.755851, Alt.=2743.031620m. Speed=3.000000m/h.]]></desc>
</trkpt>
<trkpt lat="36.735700" lon="137.755860">
<ele>2740.228755</ele>
<time>2014-08-18T04:44:56Z</time>
<desc><![CDATA[lat.=36.735700, lon.=137.755860, Alt.=2740.228755m. Speed=3.000000m/h.]]></desc>
</trkpt>
<trkpt lat="36.735733" lon="137.755886">
<ele>2738.676633</ele>
<time>2014-08-18T04:45:01Z</time>
<desc><![CDATA[lat.=36.735733, lon.=137.755886, Alt.=2738.676633m. Speed=3.000000m/h.]]></desc>
</trkpt>
<trkpt lat="36.735766" lon="137.755927">
<ele>2738.909175</ele>
<time>2014-08-18T04:45:06Z</time>
<desc><![CDATA[lat.=36.735766, lon.=137.755927, Alt.=2738.909175m. Speed=3.000000m/h.]]></desc>
</trkpt>
<trkpt lat="36.735796" lon="137.755896">
<ele>2737.732355</ele>
<time>2014-08-18T04:45:11Z</time>
<desc><![CDATA[lat.=36.735796, lon.=137.755896, Alt.=2737.732355m. Speed=3.000000m/h.]]></desc>
</trkpt>
<trkpt lat="36.735852" lon="137.755891">
<ele>2736.135465</ele>
<time>2014-08-18T04:45:16Z</time>
<desc><![CDATA[lat.=36.735852, lon.=137.755891, Alt.=2736.135465m. Speed=4.000000m/h.]]></desc>
</trkpt>
<trkpt lat="36.735888" lon="137.755909">
<ele>2733.990086</ele>
<time>2014-08-18T04:45:21Z</time>
<desc><![CDATA[lat.=36.735888, lon.=137.755909, Alt.=2733.990086m. Speed=3.000000m/h.]]></desc>
</trkpt>
<trkpt lat="36.735909" lon="137.755958">
<ele>2734.217779</ele>
<time>2014-08-18T04:45:26Z</time>
<desc><![CDATA[lat.=36.735909, lon.=137.755958, Alt.=2734.217779m. Speed=4.000000m/h.]]></desc>
</trkpt>
<trkpt lat="36.735927" lon="137.755998">
<ele>2733.254081</ele>
<time>2014-08-18T04:45:31Z</time>
<desc><![CDATA[lat.=36.735927, lon.=137.755998, Alt.=2733.254081m. Speed=4.000000m/h.]]></desc>
</trkpt>
<trkpt lat="36.735938" lon="137.756006">
<ele>2735.043604</ele>
<time>2014-08-18T04:45:36Z</time>
<desc><![CDATA[lat.=36.735938, lon.=137.756006, Alt.=2735.043604m. Speed=0.000000m/h.]]></desc>
</trkpt>
<trkpt lat="36.735945" lon="137.756006">
<ele>2733.911564</ele>
<time>2014-08-18T04:45:41Z</time>
<desc><![CDATA[lat.=36.735945, lon.=137.756006, Alt.=2733.911564m. Speed=1.000000m/h.]]></desc>
</trkpt>
<trkpt lat="36.735993" lon="137.756016">
<ele>2733.501224</ele>
<time>2014-08-18T04:45:46Z</time>
<desc><![CDATA[lat.=36.735993, lon.=137.756016, Alt.=2733.501224m. Speed=3.000000m/h.]]></desc>
</trkpt>
<trkpt lat="36.735982" lon="137.756024">
<ele>2733.496363</ele>
<time>2014-08-18T04:45:51Z</time>
<desc><![CDATA[lat.=36.735982, lon.=137.756024, Alt.=2733.496363m. Speed=0.000000m/h.]]></desc>
</trkpt>
<trkpt lat="36.736000" lon="137.756032">
<ele>2734.153847</ele>
<time>2014-08-18T04:45:56Z</time>
<desc><![CDATA[lat.=36.736000, lon.=137.756032, Alt.=2734.153847m. Speed=0.000000m/h.]]></desc>
</trkpt>
<trkpt lat="36.736011" lon="137.756040">
<ele>2734.213204</ele>
<time>2014-08-18T04:46:01Z</time>
<desc><![CDATA[lat.=36.736011, lon.=137.756040, Alt.=2734.213204m. Speed=0.000000m/h.]]></desc>
</trkpt>
<trkpt lat="36.736015" lon="137.756049">
<ele>2731.944263</ele>
<time>2014-08-18T04:46:06Z</time>
<desc><![CDATA[lat.=36.736015, lon.=137.756049, Alt.=2731.944263m. Speed=2.000000m/h.]]></desc>
</trkpt>
<trkpt lat="36.736047" lon="137.756091">
<ele>2730.446664</ele>
<time>2014-08-18T04:46:11Z</time>
<desc><![CDATA[lat.=36.736047, lon.=137.756091, Alt.=2730.446664m. Speed=3.000000m/h.]]></desc>
</trkpt>
<trkpt lat="36.736057" lon="137.756147">
<ele>2730.669513</ele>
<time>2014-08-18T04:46:16Z</time>
<desc><![CDATA[lat.=36.736057, lon.=137.756147, Alt.=2730.669513m. Speed=3.000000m/h.]]></desc>
</trkpt>
<trkpt lat="36.736061" lon="137.756156">
<ele>2728.400574</ele>
<time>2014-08-18T04:46:21Z</time>
<desc><![CDATA[lat.=36.736061, lon.=137.756156, Alt.=2728.400574m. Speed=0.000000m/h.]]></desc>
</trkpt>
<trkpt lat="36.736061" lon="137.756188">
<ele>2726.779401</ele>
<time>2014-08-18T04:46:26Z</time>
<desc><![CDATA[lat.=36.736061, lon.=137.756188, Alt.=2726.779401m. Speed=2.000000m/h.]]></desc>
</trkpt>
<trkpt lat="36.736078" lon="137.756228">
<ele>2727.545888</ele>
<time>2014-08-18T04:46:31Z</time>
<desc><![CDATA[lat.=36.736078, lon.=137.756228, Alt.=2727.545888m. Speed=2.000000m/h.]]></desc>
</trkpt>
<trkpt lat="36.736079" lon="137.756197">
<ele>2725.706722</ele>
<time>2014-08-18T04:46:36Z</time>
<desc><![CDATA[lat.=36.736079, lon.=137.756197, Alt.=2725.706722m. Speed=0.000000m/h.]]></desc>
</trkpt>
<trkpt lat="36.736093" lon="137.756213">
<ele>2726.957481</ele>
<time>2014-08-18T04:46:41Z</time>
<desc><![CDATA[lat.=36.736093, lon.=137.756213, Alt.=2726.957481m. Speed=0.000000m/h.]]></desc>
</trkpt>
<trkpt lat="36.736082" lon="137.756220">
<ele>2728.682788</ele>
<time>2014-08-18T04:46:46Z</time>
<desc><![CDATA[lat.=36.736082, lon.=137.756220, Alt.=2728.682788m. Speed=0.000000m/h.]]></desc>
</trkpt>
<trkpt lat="36.736074" lon="137.756220">
<ele>2728.084658</ele>
<time>2014-08-18T04:46:51Z</time>
<desc><![CDATA[lat.=36.736074, lon.=137.756220, Alt.=2728.084658m. Speed=0.000000m/h.]]></desc>
</trkpt>
<trkpt lat="36.736082" lon="137.756220">
<ele>2728.682788</ele>
<time>2014-08-18T04:46:56Z</time>
<desc><![CDATA[lat.=36.736082, lon.=137.756220, Alt.=2728.682788m. Speed=0.000000m/h.]]></desc>
</trkpt>
<trkpt lat="36.736078" lon="137.756212">
<ele>2727.491389</ele>
<time>2014-08-18T04:47:01Z</time>
<desc><![CDATA[lat.=36.736078, lon.=137.756212, Alt.=2727.491389m. Speed=0.000000m/h.]]></desc>
</trkpt>
<trkpt lat="36.736082" lon="137.756205">
<ele>2726.898120</ele>
<time>2014-08-18T04:47:06Z</time>
<desc><![CDATA[lat.=36.736082, lon.=137.756205, Alt.=2726.898120m. Speed=0.000000m/h.]]></desc>
</trkpt>
<trkpt lat="36.736103" lon="137.756236">
<ele>2728.801509</ele>
<time>2014-08-18T04:47:11Z</time>
<desc><![CDATA[lat.=36.736103, lon.=137.756236, Alt.=2728.801509m. Speed=2.000000m/h.]]></desc>
</trkpt>
<trkpt lat="36.736117" lon="137.756268">
<ele>2730.106768</ele>
<time>2014-08-18T04:47:16Z</time>
<desc><![CDATA[lat.=36.736117, lon.=137.756268, Alt.=2730.106768m. Speed=3.000000m/h.]]></desc>
</trkpt>
<trkpt lat="36.736156" lon="137.756325">
<ele>2729.261818</ele>
<time>2014-08-18T04:47:21Z</time>
<desc><![CDATA[lat.=36.736156, lon.=137.756325, Alt.=2729.261818m. Speed=3.000000m/h.]]></desc>
</trkpt>
<trkpt lat="36.736185" lon="137.756391">
<ele>2726.681844</ele>
<time>2014-08-18T04:47:26Z</time>
<desc><![CDATA[lat.=36.736185, lon.=137.756391, Alt.=2726.681844m. Speed=4.000000m/h.]]></desc>
</trkpt>
<trkpt lat="36.736209" lon="137.756430">
<ele>2728.046477</ele>
<time>2014-08-18T04:47:31Z</time>
<desc><![CDATA[lat.=36.736209, lon.=137.756430, Alt.=2728.046477m. Speed=4.000000m/h.]]></desc>
</trkpt>
<trkpt lat="36.736227" lon="137.756471">
<ele>2727.082813</ele>
<time>2014-08-18T04:47:36Z</time>
<desc><![CDATA[lat.=36.736227, lon.=137.756471, Alt.=2727.082813m. Speed=3.000000m/h.]]></desc>
</trkpt>
<trkpt lat="36.736248" lon="137.756519">
<ele>2727.310554</ele>
<time>2014-08-18T04:47:41Z</time>
<desc><![CDATA[lat.=36.736248, lon.=137.756519, Alt.=2727.310554m. Speed=3.000000m/h.]]></desc>
</trkpt>
<trkpt lat="36.736276" lon="137.756551">
<ele>2729.812094</ele>
<time>2014-08-18T04:47:46Z</time>
<desc><![CDATA[lat.=36.736276, lon.=137.756551, Alt.=2729.812094m. Speed=3.000000m/h.]]></desc>
</trkpt>
<trkpt lat="36.736271" lon="137.756573">
<ele>2733.920205</ele>
<time>2014-08-18T04:47:51Z</time>
<desc><![CDATA[lat.=36.736271, lon.=137.756573, Alt.=2733.920205m. Speed=2.000000m/h.]]></desc>
</trkpt>
<trkpt lat="36.736282" lon="137.756581">
<ele>2733.979573</ele>
<time>2014-08-18T04:47:56Z</time>
<desc><![CDATA[lat.=36.736282, lon.=137.756581, Alt.=2733.979573m. Speed=2.000000m/h.]]></desc>
</trkpt>
<trkpt lat="36.736297" lon="137.756598">
<ele>2731.770009</ele>
<time>2014-08-18T04:48:01Z</time>
<desc><![CDATA[lat.=36.736297, lon.=137.756598, Alt.=2731.770009m. Speed=2.000000m/h.]]></desc>
</trkpt>
<trkpt lat="36.736300" lon="137.756622">
<ele>2733.015919</ele>
<time>2014-08-18T04:48:06Z</time>
<desc><![CDATA[lat.=36.736300, lon.=137.756622, Alt.=2733.015919m. Speed=2.000000m/h.]]></desc>
</trkpt>
<trkpt lat="36.736333" lon="137.756615">
<ele>2733.085014</ele>
<time>2014-08-18T04:48:11Z</time>
<desc><![CDATA[lat.=36.736333, lon.=137.756615, Alt.=2733.085014m. Speed=2.000000m/h.]]></desc>
</trkpt>
<trkpt lat="36.736333" lon="137.756631">
<ele>2731.409353</ele>
<time>2014-08-18T04:48:16Z</time>
<desc><![CDATA[lat.=36.736333, lon.=137.756631, Alt.=2731.409353m. Speed=2.000000m/h.]]></desc>
</trkpt>
<trkpt lat="36.736333" lon="137.756664">
<ele>2729.788199</ele>
<time>2014-08-18T04:48:21Z</time>
<desc><![CDATA[lat.=36.736333, lon.=137.756664, Alt.=2729.788199m. Speed=2.000000m/h.]]></desc>
</trkpt>
<trkpt lat="36.736320" lon="137.756701">
<ele>2733.352688</ele>
<time>2014-08-18T04:48:26Z</time>
<desc><![CDATA[lat.=36.736320, lon.=137.756701, Alt.=2733.352688m. Speed=2.000000m/h.]]></desc>
</trkpt>
<trkpt lat="36.736349" lon="137.756718">
<ele>2734.069563</ele>
<time>2014-08-18T04:48:31Z</time>
<desc><![CDATA[lat.=36.736349, lon.=137.756718, Alt.=2734.069563m. Speed=2.000000m/h.]]></desc>
</trkpt>
<trkpt lat="36.736382" lon="137.756711">
<ele>2734.138660</ele>
<time>2014-08-18T04:48:36Z</time>
<desc><![CDATA[lat.=36.736382, lon.=137.756711, Alt.=2734.138660m. Speed=2.000000m/h.]]></desc>
</trkpt>
<trkpt lat="36.736411" lon="137.756728">
<ele>2734.855538</ele>
<time>2014-08-18T04:48:41Z</time>
<desc><![CDATA[lat.=36.736411, lon.=137.756728, Alt.=2734.855538m. Speed=2.000000m/h.]]></desc>
</trkpt>
<trkpt lat="36.736399" lon="137.756766">
<ele>2736.689860</ele>
<time>2014-08-18T04:48:46Z</time>
<desc><![CDATA[lat.=36.736399, lon.=137.756766, Alt.=2736.689860m. Speed=2.000000m/h.]]></desc>
</trkpt>
<trkpt lat="36.736406" lon="137.756766">
<ele>2737.287995</ele>
<time>2014-08-18T04:48:51Z</time>
<desc><![CDATA[lat.=36.736406, lon.=137.756766, Alt.=2737.287995m. Speed=1.000000m/h.]]></desc>
</trkpt>
<trkpt lat="36.736442" lon="137.756784">
<ele>2736.872843</ele>
<time>2014-08-18T04:48:56Z</time>
<desc><![CDATA[lat.=36.736442, lon.=137.756784, Alt.=2736.872843m. Speed=2.000000m/h.]]></desc>
</trkpt>
<trkpt lat="36.736460" lon="137.756775">
<ele>2739.206009</ele>
<time>2014-08-18T04:49:01Z</time>
<desc><![CDATA[lat.=36.736460, lon.=137.756775, Alt.=2739.206009m. Speed=1.000000m/h.]]></desc>
</trkpt>
<trkpt lat="36.736467" lon="137.756790">
<ele>2741.588822</ele>
<time>2014-08-18T04:49:06Z</time>
<desc><![CDATA[lat.=36.736467, lon.=137.756790, Alt.=2741.588822m. Speed=2.000000m/h.]]></desc>
</trkpt>
<trkpt lat="36.736459" lon="137.756806">
<ele>2741.045197</ele>
<time>2014-08-18T04:49:11Z</time>
<desc><![CDATA[lat.=36.736459, lon.=137.756806, Alt.=2741.045197m. Speed=2.000000m/h.]]></desc>
</trkpt>
<trkpt lat="36.736485" lon="137.756815">
<ele>2740.570675</ele>
<time>2014-08-18T04:49:16Z</time>
<desc><![CDATA[lat.=36.736485, lon.=137.756815, Alt.=2740.570675m. Speed=1.000000m/h.]]></desc>
</trkpt>
<trkpt lat="36.736511" lon="137.756808">
<ele>2740.041643</ele>
<time>2014-08-18T04:49:21Z</time>
<desc><![CDATA[lat.=36.736511, lon.=137.756808, Alt.=2740.041643m. Speed=2.000000m/h.]]></desc>
</trkpt>
<trkpt lat="36.736529" lon="137.756817">
<ele>2738.968987</ele>
<time>2014-08-18T04:49:26Z</time>
<desc><![CDATA[lat.=36.736529, lon.=137.756817, Alt.=2738.968987m. Speed=2.000000m/h.]]></desc>
</trkpt>
<trkpt lat="36.736541" lon="137.756811">
<ele>2737.243686</ele>
<time>2014-08-18T04:49:31Z</time>
<desc><![CDATA[lat.=36.736541, lon.=137.756811, Alt.=2737.243686m. Speed=2.000000m/h.]]></desc>
</trkpt>
<trkpt lat="36.736570" lon="137.756827">
<ele>2737.960575</ele>
<time>2014-08-18T04:49:36Z</time>
<desc><![CDATA[lat.=36.736570, lon.=137.756827, Alt.=2737.960575m. Speed=2.000000m/h.]]></desc>
</trkpt>
<trkpt lat="36.736599" lon="137.756828">
<ele>2738.622955</ele>
<time>2014-08-18T04:49:41Z</time>
<desc><![CDATA[lat.=36.736599, lon.=137.756828, Alt.=2738.622955m. Speed=2.000000m/h.]]></desc>
</trkpt>
<trkpt lat="36.736632" lon="137.756820">
<ele>2742.152402</ele>
<time>2014-08-18T04:49:46Z</time>
<desc><![CDATA[lat.=36.736632, lon.=137.756820, Alt.=2742.152402m. Speed=2.000000m/h.]]></desc>
</trkpt>
<trkpt lat="36.736668" lon="137.756820">
<ele>2745.143091</ele>
<time>2014-08-18T04:49:51Z</time>
<desc><![CDATA[lat.=36.736668, lon.=137.756820, Alt.=2745.143091m. Speed=2.000000m/h.]]></desc>
</trkpt>
<trkpt lat="36.736689" lon="137.756836">
<ele>2746.992017</ele>
<time>2014-08-18T04:49:56Z</time>
<desc><![CDATA[lat.=36.736689, lon.=137.756836, Alt.=2746.992017m. Speed=2.000000m/h.]]></desc>
</trkpt>
<trkpt lat="36.736711" lon="137.756837">
<ele>2745.326098</ele>
<time>2014-08-18T04:50:01Z</time>
<desc><![CDATA[lat.=36.736711, lon.=137.756837, Alt.=2745.326098m. Speed=2.000000m/h.]]></desc>
</trkpt>
<trkpt lat="36.736726" lon="137.756837">
<ele>2746.522376</ele>
<time>2014-08-18T04:50:06Z</time>
<desc><![CDATA[lat.=36.736726, lon.=137.756837, Alt.=2746.522376m. Speed=2.000000m/h.]]></desc>
</trkpt>
<trkpt lat="36.736758" lon="137.756829">
<ele>2750.051830</ele>
<time>2014-08-18T04:50:11Z</time>
<desc><![CDATA[lat.=36.736758, lon.=137.756829, Alt.=2750.051830m. Speed=2.000000m/h.]]></desc>
</trkpt>
<trkpt lat="36.736795" lon="137.756830">
<ele>2749.582194</ele>
<time>2014-08-18T04:50:16Z</time>
<desc><![CDATA[lat.=36.736795, lon.=137.756830, Alt.=2749.582194m. Speed=2.000000m/h.]]></desc>
</trkpt>
<trkpt lat="36.736828" lon="137.756824">
<ele>2749.651319</ele>
<time>2014-08-18T04:50:21Z</time>
<desc><![CDATA[lat.=36.736828, lon.=137.756824, Alt.=2749.651319m. Speed=3.000000m/h.]]></desc>
</trkpt>
<trkpt lat="36.736862" lon="137.756834">
<ele>2746.314622</ele>
<time>2014-08-18T04:50:26Z</time>
<desc><![CDATA[lat.=36.736862, lon.=137.756834, Alt.=2746.314622m. Speed=3.000000m/h.]]></desc>
</trkpt>
<trkpt lat="36.736909" lon="137.756843">
<ele>2747.634544</ele>
<time>2014-08-18T04:50:31Z</time>
<desc><![CDATA[lat.=36.736909, lon.=137.756843, Alt.=2747.634544m. Speed=2.000000m/h.]]></desc>
</trkpt>
<trkpt lat="36.736931" lon="137.756842">
<ele>2751.159136</ele>
<time>2014-08-18T04:50:36Z</time>
<desc><![CDATA[lat.=36.736931, lon.=137.756842, Alt.=2751.159136m. Speed=2.000000m/h.]]></desc>
</trkpt>
<trkpt lat="36.736956" lon="137.756851">
<ele>2752.414805</ele>
<time>2014-08-18T04:50:41Z</time>
<desc><![CDATA[lat.=36.736956, lon.=137.756851, Alt.=2752.414805m. Speed=2.000000m/h.]]></desc>
</trkpt>
<trkpt lat="36.736968" lon="137.756830">
<ele>2763.937581</ele>
<time>2014-08-18T04:50:46Z</time>
<desc><![CDATA[lat.=36.736968, lon.=137.756830, Alt.=2763.937581m. Speed=2.000000m/h.]]></desc>
</trkpt>
<trkpt lat="36.736991" lon="137.756849">
<ele>2758.865851</ele>
<time>2014-08-18T04:50:51Z</time>
<desc><![CDATA[lat.=36.736991, lon.=137.756849, Alt.=2758.865851m. Speed=2.000000m/h.]]></desc>
</trkpt>
<trkpt lat="36.737025" lon="137.756859">
<ele>2757.259332</ele>
<time>2014-08-18T04:50:56Z</time>
<desc><![CDATA[lat.=36.737025, lon.=137.756859, Alt.=2757.259332m. Speed=2.000000m/h.]]></desc>
</trkpt>
<trkpt lat="36.737046" lon="137.756876">
<ele>2757.378105</ele>
<time>2014-08-18T04:51:01Z</time>
<desc><![CDATA[lat.=36.737046, lon.=137.756876, Alt.=2757.378105m. Speed=2.000000m/h.]]></desc>
</trkpt>
<trkpt lat="36.737054" lon="137.756892">
<ele>2756.300593</ele>
<time>2014-08-18T04:51:06Z</time>
<desc><![CDATA[lat.=36.737054, lon.=137.756892, Alt.=2756.300593m. Speed=2.000000m/h.]]></desc>
</trkpt>
<trkpt lat="36.737083" lon="137.756893">
<ele>2756.963001</ele>
<time>2014-08-18T04:51:11Z</time>
<desc><![CDATA[lat.=36.737083, lon.=137.756893, Alt.=2756.963001m. Speed=2.000000m/h.]]></desc>
</trkpt>
<trkpt lat="36.737116" lon="137.756903">
<ele>2753.626321</ele>
<time>2014-08-18T04:51:16Z</time>
<desc><![CDATA[lat.=36.737116, lon.=137.756903, Alt.=2753.626321m. Speed=2.000000m/h.]]></desc>
</trkpt>
<trkpt lat="36.737150" lon="137.756897">
<ele>2753.695466</ele>
<time>2014-08-18T04:51:21Z</time>
<desc><![CDATA[lat.=36.737150, lon.=137.756897, Alt.=2753.695466m. Speed=2.000000m/h.]]></desc>
</trkpt>
<trkpt lat="36.737168" lon="137.756888">
<ele>2756.028656</ele>
<time>2014-08-18T04:51:26Z</time>
<desc><![CDATA[lat.=36.737168, lon.=137.756888, Alt.=2756.028656m. Speed=2.000000m/h.]]></desc>
</trkpt>
<trkpt lat="36.737186" lon="137.756880">
<ele>2758.361847</ele>
<time>2014-08-18T04:51:31Z</time>
<desc><![CDATA[lat.=36.737186, lon.=137.756880, Alt.=2758.361847m. Speed=2.000000m/h.]]></desc>
</trkpt>
<trkpt lat="36.737207" lon="137.756897">
<ele>2758.480628</ele>
<time>2014-08-18T04:51:36Z</time>
<desc><![CDATA[lat.=36.737207, lon.=137.756897, Alt.=2758.480628m. Speed=2.000000m/h.]]></desc>
</trkpt>
<trkpt lat="36.737204" lon="137.756906">
<ele>2755.613561</ele>
<time>2014-08-18T04:51:41Z</time>
<desc><![CDATA[lat.=36.737204, lon.=137.756906, Alt.=2755.613561m. Speed=0.000000m/h.]]></desc>
</trkpt>
<trkpt lat="36.737233" lon="137.756988">
<ele>2751.358039</ele>
<time>2014-08-18T04:51:46Z</time>
<desc><![CDATA[lat.=36.737233, lon.=137.756988, Alt.=2751.358039m. Speed=0.000000m/h.]]></desc>
</trkpt>
<trkpt lat="36.737248" lon="137.756989">
<ele>2750.824165</ele>
<time>2014-08-18T04:51:51Z</time>
<desc><![CDATA[lat.=36.737248, lon.=137.756989, Alt.=2750.824165m. Speed=0.000000m/h.]]></desc>
</trkpt>
<trkpt lat="36.737255" lon="137.756956">
<ele>2753.043452</ele>
<time>2014-08-18T04:51:56Z</time>
<desc><![CDATA[lat.=36.737255, lon.=137.756956, Alt.=2753.043452m. Speed=0.000000m/h.]]></desc>
</trkpt>
<trkpt lat="36.737277" lon="137.756939">
<ele>2758.243713</ele>
<time>2014-08-18T04:52:01Z</time>
<desc><![CDATA[lat.=36.737277, lon.=137.756939, Alt.=2758.243713m. Speed=0.000000m/h.]]></desc>
</trkpt>
<trkpt lat="36.737277" lon="137.756940">
<ele>2756.513546</ele>
<time>2014-08-18T04:52:06Z</time>
<desc><![CDATA[lat.=36.737277, lon.=137.756940, Alt.=2756.513546m. Speed=0.000000m/h.]]></desc>
</trkpt>
<trkpt lat="36.737277" lon="137.756923">
<ele>2758.189201</ele>
<time>2014-08-18T04:52:11Z</time>
<desc><![CDATA[lat.=36.737277, lon.=137.756923, Alt.=2758.189201m. Speed=0.000000m/h.]]></desc>
</trkpt>
<trkpt lat="36.737303" lon="137.756916">
<ele>2757.660209</ele>
<time>2014-08-18T04:52:16Z</time>
<desc><![CDATA[lat.=36.737303, lon.=137.756916, Alt.=2757.660209m. Speed=1.000000m/h.]]></desc>
</trkpt>
<trkpt lat="36.737313" lon="137.756907">
<ele>2761.125424</ele>
<time>2014-08-18T04:52:21Z</time>
<desc><![CDATA[lat.=36.737313, lon.=137.756907, Alt.=2761.125424m. Speed=0.000000m/h.]]></desc>
</trkpt>
<trkpt lat="36.737311" lon="137.756917">
<ele>2756.528189</ele>
<time>2014-08-18T04:52:26Z</time>
<desc><![CDATA[lat.=36.737311, lon.=137.756917, Alt.=2756.528189m. Speed=0.000000m/h.]]></desc>
</trkpt>
<trkpt lat="36.737303" lon="137.756934">
<ele>2754.254387</ele>
<time>2014-08-18T04:52:31Z</time>
<desc><![CDATA[lat.=36.737303, lon.=137.756934, Alt.=2754.254387m. Speed=0.000000m/h.]]></desc>
</trkpt>
<trkpt lat="36.737292" lon="137.756924">
<ele>2757.655327</ele>
<time>2014-08-18T04:52:36Z</time>
<desc><![CDATA[lat.=36.737292, lon.=137.756924, Alt.=2757.655327m. Speed=1.000000m/h.]]></desc>
</trkpt>
<trkpt lat="36.737240" lon="137.756889">
<ele>2760.279946</ele>
<time>2014-08-18T04:52:41Z</time>
<desc><![CDATA[lat.=36.737240, lon.=137.756889, Alt.=2760.279946m. Speed=2.000000m/h.]]></desc>
</trkpt>
<trkpt lat="36.737279" lon="137.756827">
<ele>2759.592302</ele>
<time>2014-08-18T04:52:46Z</time>
<desc><![CDATA[lat.=36.737279, lon.=137.756827, Alt.=2759.592302m. Speed=3.000000m/h.]]></desc>
</trkpt>
<trkpt lat="36.737327" lon="137.756806">
<ele>2759.073075</ele>
<time>2014-08-18T04:52:51Z</time>
<desc><![CDATA[lat.=36.737327, lon.=137.756806, Alt.=2759.073075m. Speed=4.000000m/h.]]></desc>
</trkpt>
<trkpt lat="36.737372" lon="137.756808">
<ele>2757.471461</ele>
<time>2014-08-18T04:52:56Z</time>
<desc><![CDATA[lat.=36.737372, lon.=137.756808, Alt.=2757.471461m. Speed=3.000000m/h.]]></desc>
</trkpt>
<trkpt lat="36.737416" lon="137.756793">
<ele>2759.275674</ele>
<time>2014-08-18T04:53:01Z</time>
<desc><![CDATA[lat.=36.737416, lon.=137.756793, Alt.=2759.275674m. Speed=4.000000m/h.]]></desc>
</trkpt>
<trkpt lat="36.737464" lon="137.756770">
<ele>2760.486629</ele>
<time>2014-08-18T04:53:06Z</time>
<desc><![CDATA[lat.=36.737464, lon.=137.756770, Alt.=2760.486629m. Speed=4.000000m/h.]]></desc>
</trkpt>
<trkpt lat="36.737494" lon="137.756756">
<ele>2759.364384</ele>
<time>2014-08-18T04:53:11Z</time>
<desc><![CDATA[lat.=36.737494, lon.=137.756756, Alt.=2759.364384m. Speed=4.000000m/h.]]></desc>
</trkpt>
<trkpt lat="36.737538" lon="137.756741">
<ele>2761.168609</ele>
<time>2014-08-18T04:53:16Z</time>
<desc><![CDATA[lat.=36.737538, lon.=137.756741, Alt.=2761.168609m. Speed=4.000000m/h.]]></desc>
</trkpt>
<trkpt lat="36.737586" lon="137.756734">
<ele>2762.434084</ele>
<time>2014-08-18T04:53:21Z</time>
<desc><![CDATA[lat.=36.737586, lon.=137.756734, Alt.=2762.434084m. Speed=3.000000m/h.]]></desc>
</trkpt>
<trkpt lat="36.737600" lon="137.756734">
<ele>2763.630387</ele>
<time>2014-08-18T04:53:26Z</time>
<desc><![CDATA[lat.=36.737600, lon.=137.756734, Alt.=2763.630387m. Speed=3.000000m/h.]]></desc>
</trkpt>
<trkpt lat="36.737626" lon="137.756744">
<ele>2761.425754</ele>
<time>2014-08-18T04:53:31Z</time>
<desc><![CDATA[lat.=36.737626, lon.=137.756744, Alt.=2761.425754m. Speed=2.000000m/h.]]></desc>
</trkpt>
<trkpt lat="36.737658" lon="137.756736">
<ele>2764.955266</ele>
<time>2014-08-18T04:53:36Z</time>
<desc><![CDATA[lat.=36.737658, lon.=137.756736, Alt.=2764.955266m. Speed=2.000000m/h.]]></desc>
</trkpt>
<trkpt lat="36.737684" lon="137.756745">
<ele>2764.480802</ele>
<time>2014-08-18T04:53:41Z</time>
<desc><![CDATA[lat.=36.737684, lon.=137.756745, Alt.=2764.480802m. Speed=2.000000m/h.]]></desc>
</trkpt>
<trkpt lat="36.737706" lon="137.756745">
<ele>2766.275260</ele>
<time>2014-08-18T04:53:46Z</time>
<desc><![CDATA[lat.=36.737706, lon.=137.756745, Alt.=2766.275260m. Speed=2.000000m/h.]]></desc>
</trkpt>
<trkpt lat="36.737727" lon="137.756745">
<ele>2768.069718</ele>
<time>2014-08-18T04:53:51Z</time>
<desc><![CDATA[lat.=36.737727, lon.=137.756745, Alt.=2768.069718m. Speed=2.000000m/h.]]></desc>
</trkpt>
<trkpt lat="36.737761" lon="137.756738">
<ele>2768.138904</ele>
<time>2014-08-18T04:53:56Z</time>
<desc><![CDATA[lat.=36.737761, lon.=137.756738, Alt.=2768.138904m. Speed=2.000000m/h.]]></desc>
</trkpt>
<trkpt lat="36.737798" lon="137.756740">
<ele>2765.939173</ele>
<time>2014-08-18T04:54:01Z</time>
<desc><![CDATA[lat.=36.737798, lon.=137.756740, Alt.=2765.939173m. Speed=3.000000m/h.]]></desc>
</trkpt>
<trkpt lat="36.737804" lon="137.756772">
<ele>2766.646343</ele>
<time>2014-08-18T04:54:06Z</time>
<desc><![CDATA[lat.=36.737804, lon.=137.756772, Alt.=2766.646343m. Speed=2.000000m/h.]]></desc>
</trkpt>
<trkpt lat="36.737819" lon="137.756773">
<ele>2766.112485</ele>
<time>2014-08-18T04:54:11Z</time>
<desc><![CDATA[lat.=36.737819, lon.=137.756773, Alt.=2766.112485m. Speed=1.000000m/h.]]></desc>
</trkpt>
<trkpt lat="36.737849" lon="137.756774">
<ele>2765.044770</ele>
<time>2014-08-18T04:54:16Z</time>
<desc><![CDATA[lat.=36.737849, lon.=137.756774, Alt.=2765.044770m. Speed=2.000000m/h.]]></desc>
</trkpt>
<trkpt lat="36.737878" lon="137.756791">
<ele>2765.761731</ele>
<time>2014-08-18T04:54:21Z</time>
<desc><![CDATA[lat.=36.737878, lon.=137.756791, Alt.=2765.761731m. Speed=2.000000m/h.]]></desc>
</trkpt>
<trkpt lat="36.737907" lon="137.756775">
<ele>2768.099844</ele>
<time>2014-08-18T04:54:26Z</time>
<desc><![CDATA[lat.=36.737907, lon.=137.756775, Alt.=2768.099844m. Speed=2.000000m/h.]]></desc>
</trkpt>
<trkpt lat="36.737929" lon="137.756792">
<ele>2766.488486</ele>
<time>2014-08-18T04:54:31Z</time>
<desc><![CDATA[lat.=36.737929, lon.=137.756792, Alt.=2766.488486m. Speed=2.000000m/h.]]></desc>
</trkpt>
<trkpt lat="36.737943" lon="137.756825">
<ele>2766.063650</ele>
<time>2014-08-18T04:54:36Z</time>
<desc><![CDATA[lat.=36.737943, lon.=137.756825, Alt.=2766.063650m. Speed=2.000000m/h.]]></desc>
</trkpt>
<trkpt lat="36.737961" lon="137.756816">
<ele>2770.127035</ele>
<time>2014-08-18T04:54:41Z</time>
<desc><![CDATA[lat.=36.737961, lon.=137.756816, Alt.=2770.127035m. Speed=2.000000m/h.]]></desc>
</trkpt>
<trkpt lat="36.737964" lon="137.756840">
<ele>2769.642794</ele>
<time>2014-08-18T04:54:46Z</time>
<desc><![CDATA[lat.=36.737964, lon.=137.756840, Alt.=2769.642794m. Speed=2.000000m/h.]]></desc>
</trkpt>
<trkpt lat="36.737982" lon="137.756848">
<ele>2770.300357</ele>
<time>2014-08-18T04:54:51Z</time>
<desc><![CDATA[lat.=36.737982, lon.=137.756848, Alt.=2770.300357m. Speed=1.000000m/h.]]></desc>
</trkpt>
<trkpt lat="36.737993" lon="137.756856">
<ele>2772.089930</ele>
<time>2014-08-18T04:54:56Z</time>
<desc><![CDATA[lat.=36.737993, lon.=137.756856, Alt.=2772.089930m. Speed=2.000000m/h.]]></desc>
</trkpt>
<trkpt lat="36.737981" lon="137.756862">
<ele>2773.815200</ele>
<time>2014-08-18T04:55:01Z</time>
<desc><![CDATA[lat.=36.737981, lon.=137.756862, Alt.=2773.815200m. Speed=1.000000m/h.]]></desc>
</trkpt>
<trkpt lat="36.737955" lon="137.756869">
<ele>2774.344157</ele>
<time>2014-08-18T04:55:06Z</time>
<desc><![CDATA[lat.=36.737955, lon.=137.756869, Alt.=2774.344157m. Speed=1.000000m/h.]]></desc>
</trkpt>
<trkpt lat="36.737943" lon="137.756875">
<ele>2777.799594</ele>
<time>2014-08-18T04:55:11Z</time>
<desc><![CDATA[lat.=36.737943, lon.=137.756875, Alt.=2777.799594m. Speed=1.000000m/h.]]></desc>
</trkpt>
<trkpt lat="36.737925" lon="137.756866">
<ele>2778.872199</ele>
<time>2014-08-18T04:55:16Z</time>
<desc><![CDATA[lat.=36.737925, lon.=137.756866, Alt.=2778.872199m. Speed=1.000000m/h.]]></desc>
</trkpt>
<trkpt lat="36.737914" lon="137.756891">
<ele>2775.461482</ele>
<time>2014-08-18T04:55:21Z</time>
<desc><![CDATA[lat.=36.737914, lon.=137.756891, Alt.=2775.461482m. Speed=1.000000m/h.]]></desc>
</trkpt>
<trkpt lat="36.737921" lon="137.756907">
<ele>2776.114149</ele>
<time>2014-08-18T04:55:26Z</time>
<desc><![CDATA[lat.=36.737921, lon.=137.756907, Alt.=2776.114149m. Speed=1.000000m/h.]]></desc>
</trkpt>
<trkpt lat="36.737954" lon="137.756932">
<ele>2774.562201</ele>
<time>2014-08-18T04:55:31Z</time>
<desc><![CDATA[lat.=36.737954, lon.=137.756932, Alt.=2774.562201m. Speed=2.000000m/h.]]></desc>
</trkpt>
<trkpt lat="36.737960" lon="137.756947">
<ele>2776.945036</ele>
<time>2014-08-18T04:55:36Z</time>
<desc><![CDATA[lat.=36.737960, lon.=137.756947, Alt.=2776.945036m. Speed=1.000000m/h.]]></desc>
</trkpt>
<trkpt lat="36.737978" lon="137.756938">
<ele>2781.008420</ele>
<time>2014-08-18T04:55:41Z</time>
<desc><![CDATA[lat.=36.737978, lon.=137.756938, Alt.=2781.008420m. Speed=1.000000m/h.]]></desc>
</trkpt>
<trkpt lat="36.737981" lon="137.756962">
<ele>2780.524183</ele>
<time>2014-08-18T04:55:46Z</time>
<desc><![CDATA[lat.=36.737981, lon.=137.756962, Alt.=2780.524183m. Speed=1.000000m/h.]]></desc>
</trkpt>
<trkpt lat="36.738018" lon="137.756964">
<ele>2780.054634</ele>
<time>2014-08-18T04:55:51Z</time>
<desc><![CDATA[lat.=36.738018, lon.=137.756964, Alt.=2780.054634m. Speed=1.000000m/h.]]></desc>
</trkpt>
<trkpt lat="36.738021" lon="137.756988">
<ele>2779.570399</ele>
<time>2014-08-18T04:55:56Z</time>
<desc><![CDATA[lat.=36.738021, lon.=137.756988, Alt.=2779.570399m. Speed=1.000000m/h.]]></desc>
</trkpt>
<trkpt lat="36.738024" lon="137.756996">
<ele>2780.761817</ele>
<time>2014-08-18T04:56:01Z</time>
<desc><![CDATA[lat.=36.738024, lon.=137.756996, Alt.=2780.761817m. Speed=1.000000m/h.]]></desc>
</trkpt>
<trkpt lat="36.738035" lon="137.757003">
<ele>2782.551392</ele>
<time>2014-08-18T04:56:06Z</time>
<desc><![CDATA[lat.=36.738035, lon.=137.757003, Alt.=2782.551392m. Speed=0.000000m/h.]]></desc>
</trkpt>
<trkpt lat="36.738042" lon="137.757003">
<ele>2783.149549</ele>
<time>2014-08-18T04:56:11Z</time>
<desc><![CDATA[lat.=36.738042, lon.=137.757003, Alt.=2783.149549m. Speed=0.000000m/h.]]></desc>
</trkpt>
<trkpt lat="36.738064" lon="137.757020">
<ele>2783.268369</ele>
<time>2014-08-18T04:56:16Z</time>
<desc><![CDATA[lat.=36.738064, lon.=137.757020, Alt.=2783.268369m. Speed=1.000000m/h.]]></desc>
</trkpt>
<trkpt lat="36.738049" lon="137.757019">
<ele>2783.802220</ele>
<time>2014-08-18T04:56:21Z</time>
<desc><![CDATA[lat.=36.738049, lon.=137.757019, Alt.=2783.802220m. Speed=1.000000m/h.]]></desc>
</trkpt>
<trkpt lat="36.738034" lon="137.757017">
<ele>2786.066237</ele>
<time>2014-08-18T04:56:26Z</time>
<desc><![CDATA[lat.=36.738034, lon.=137.757017, Alt.=2786.066237m. Speed=0.000000m/h.]]></desc>
</trkpt>
<trkpt lat="36.738026" lon="137.757017">
<ele>2785.468080</ele>
<time>2014-08-18T04:56:31Z</time>
<desc><![CDATA[lat.=36.738026, lon.=137.757017, Alt.=2785.468080m. Speed=1.000000m/h.]]></desc>
</trkpt>
<trkpt lat="36.737996" lon="137.757031">
<ele>2788.320464</ele>
<time>2014-08-18T04:56:36Z</time>
<desc><![CDATA[lat.=36.737996, lon.=137.757031, Alt.=2788.320464m. Speed=1.000000m/h.]]></desc>
</trkpt>
<trkpt lat="36.738003" lon="137.757047">
<ele>2788.973135</ele>
<time>2014-08-18T04:56:41Z</time>
<desc><![CDATA[lat.=36.738003, lon.=137.757047, Alt.=2788.973135m. Speed=1.000000m/h.]]></desc>
</trkpt>
<trkpt lat="36.737980" lon="137.757062">
<ele>2788.963345</ele>
<time>2014-08-18T04:56:46Z</time>
<desc><![CDATA[lat.=36.737980, lon.=137.757062, Alt.=2788.963345m. Speed=1.000000m/h.]]></desc>
</trkpt>
<trkpt lat="36.737983" lon="137.757068">
<ele>2791.884929</ele>
<time>2014-08-18T04:56:51Z</time>
<desc><![CDATA[lat.=36.737983, lon.=137.757068, Alt.=2791.884929m. Speed=1.000000m/h.]]></desc>
</trkpt>
<trkpt lat="36.737973" lon="137.757078">
<ele>2788.419703</ele>
<time>2014-08-18T04:56:56Z</time>
<desc><![CDATA[lat.=36.737973, lon.=137.757078, Alt.=2788.419703m. Speed=1.000000m/h.]]></desc>
</trkpt>
<trkpt lat="36.737972" lon="137.757092">
<ele>2791.934550</ele>
<time>2014-08-18T04:57:01Z</time>
<desc><![CDATA[lat.=36.737972, lon.=137.757092, Alt.=2791.934550m. Speed=1.000000m/h.]]></desc>
</trkpt>
<trkpt lat="36.737975" lon="137.757115">
<ele>2793.180483</ele>
<time>2014-08-18T04:57:06Z</time>
<desc><![CDATA[lat.=36.737975, lon.=137.757115, Alt.=2793.180483m. Speed=1.000000m/h.]]></desc>
</trkpt>
<trkpt lat="36.738004" lon="137.757117">
<ele>2792.112778</ele>
<time>2014-08-18T04:57:11Z</time>
<desc><![CDATA[lat.=36.738004, lon.=137.757117, Alt.=2792.112778m. Speed=1.000000m/h.]]></desc>
</trkpt>
<trkpt lat="36.738011" lon="137.757149">
<ele>2791.089800</ele>
<time>2014-08-18T04:57:16Z</time>
<desc><![CDATA[lat.=36.738011, lon.=137.757149, Alt.=2791.089800m. Speed=1.000000m/h.]]></desc>
</trkpt>
<trkpt lat="36.738022" lon="137.757173">
<ele>2791.203726</ele>
<time>2014-08-18T04:57:21Z</time>
<desc><![CDATA[lat.=36.738022, lon.=137.757173, Alt.=2791.203726m. Speed=1.000000m/h.]]></desc>
</trkpt>
<trkpt lat="36.738021" lon="137.757189">
<ele>2791.258243</ele>
<time>2014-08-18T04:57:26Z</time>
<desc><![CDATA[lat.=36.738021, lon.=137.757189, Alt.=2791.258243m. Speed=1.000000m/h.]]></desc>
</trkpt>
<trkpt lat="36.738054" lon="137.757197">
<ele>2793.112126</ele>
<time>2014-08-18T04:57:31Z</time>
<desc><![CDATA[lat.=36.738054, lon.=137.757197, Alt.=2793.112126m. Speed=1.000000m/h.]]></desc>
</trkpt>
<trkpt lat="36.738038" lon="137.757196">
<ele>2795.376143</ele>
<time>2014-08-18T04:57:36Z</time>
<desc><![CDATA[lat.=36.738038, lon.=137.757196, Alt.=2795.376143m. Speed=1.000000m/h.]]></desc>
</trkpt>
<trkpt lat="36.738038" lon="137.757195">
<ele>2797.106309</ele>
<time>2014-08-18T04:57:41Z</time>
<desc><![CDATA[lat.=36.738038, lon.=137.757195, Alt.=2797.106309m. Speed=1.000000m/h.]]></desc>
</trkpt>
<trkpt lat="36.738023" lon="137.757227">
<ele>2796.019029</ele>
<time>2014-08-18T04:57:46Z</time>
<desc><![CDATA[lat.=36.738023, lon.=137.757227, Alt.=2796.019029m. Speed=1.000000m/h.]]></desc>
</trkpt>
<trkpt lat="36.738018" lon="137.757233">
<ele>2798.342458</ele>
<time>2014-08-18T04:57:51Z</time>
<desc><![CDATA[lat.=36.738018, lon.=137.757233, Alt.=2798.342458m. Speed=1.000000m/h.]]></desc>
</trkpt>
<trkpt lat="36.738015" lon="137.757225">
<ele>2798.881204</ele>
<time>2014-08-18T04:57:56Z</time>
<desc><![CDATA[lat.=36.738015, lon.=137.757225, Alt.=2798.881204m. Speed=0.000000m/h.]]></desc>
</trkpt>
<trkpt lat="36.738007" lon="137.757241">
<ele>2798.337564</ele>
<time>2014-08-18T04:58:01Z</time>
<desc><![CDATA[lat.=36.738007, lon.=137.757241, Alt.=2798.337564m. Speed=1.000000m/h.]]></desc>
</trkpt>
<trkpt lat="36.738007" lon="137.757256">
<ele>2800.122248</ele>
<time>2014-08-18T04:58:06Z</time>
<desc><![CDATA[lat.=36.738007, lon.=137.757256, Alt.=2800.122248m. Speed=1.000000m/h.]]></desc>
</trkpt>
<trkpt lat="36.738002" lon="137.757279">
<ele>2800.770030</ele>
<time>2014-08-18T04:58:11Z</time>
<desc><![CDATA[lat.=36.738002, lon.=137.757279, Alt.=2800.770030m. Speed=1.000000m/h.]]></desc>
</trkpt>
<trkpt lat="36.737995" lon="137.757278">
<ele>2801.902039</ele>
<time>2014-08-18T04:58:16Z</time>
<desc><![CDATA[lat.=36.737995, lon.=137.757278, Alt.=2801.902039m. Speed=1.000000m/h.]]></desc>
</trkpt>
<trkpt lat="36.737994" lon="137.757278">
<ele>2803.632205</ele>
<time>2014-08-18T04:58:21Z</time>
<desc><![CDATA[lat.=36.737994, lon.=137.757278, Alt.=2803.632205m. Speed=0.000000m/h.]]></desc>
</trkpt>
<trkpt lat="36.737979" lon="137.757293">
<ele>2802.490410</ele>
<time>2014-08-18T04:58:26Z</time>
<desc><![CDATA[lat.=36.737979, lon.=137.757293, Alt.=2802.490410m. Speed=0.000000m/h.]]></desc>
</trkpt>
<trkpt lat="36.737968" lon="137.757301">
<ele>2802.485518</ele>
<time>2014-08-18T04:58:31Z</time>
<desc><![CDATA[lat.=36.737968, lon.=137.757301, Alt.=2802.485518m. Speed=1.000000m/h.]]></desc>
</trkpt>
<trkpt lat="36.737968" lon="137.757318">
<ele>2800.809871</ele>
<time>2014-08-18T04:58:36Z</time>
<desc><![CDATA[lat.=36.737968, lon.=137.757318, Alt.=2800.809871m. Speed=0.000000m/h.]]></desc>
</trkpt>
<trkpt lat="36.737983" lon="137.757318">
<ele>2802.006184</ele>
<time>2014-08-18T04:58:41Z</time>
<desc><![CDATA[lat.=36.737983, lon.=137.757318, Alt.=2802.006184m. Speed=0.000000m/h.]]></desc>
</trkpt>
<trkpt lat="36.737989" lon="137.757349">
<ele>2802.713380</ele>
<time>2014-08-18T04:58:46Z</time>
<desc><![CDATA[lat.=36.737989, lon.=137.757349, Alt.=2802.713380m. Speed=1.000000m/h.]]></desc>
</trkpt>
<trkpt lat="36.737978" lon="137.757356">
<ele>2804.438654</ele>
<time>2014-08-18T04:58:51Z</time>
<desc><![CDATA[lat.=36.737978, lon.=137.757356, Alt.=2804.438654m. Speed=0.000000m/h.]]></desc>
</trkpt>
<trkpt lat="36.738018" lon="137.757366">
<ele>2803.430361</ele>
<time>2014-08-18T04:58:56Z</time>
<desc><![CDATA[lat.=36.738018, lon.=137.757366, Alt.=2803.430361m. Speed=1.000000m/h.]]></desc>
</trkpt>
<trkpt lat="36.738018" lon="137.757382">
<ele>2803.484881</ele>
<time>2014-08-18T04:59:01Z</time>
<desc><![CDATA[lat.=36.738018, lon.=137.757382, Alt.=2803.484881m. Speed=0.000000m/h.]]></desc>
</trkpt>
<trkpt lat="36.738010" lon="137.757365">
<ele>2804.562370</ele>
<time>2014-08-18T04:59:06Z</time>
<desc><![CDATA[lat.=36.738010, lon.=137.757365, Alt.=2804.562370m. Speed=0.000000m/h.]]></desc>
</trkpt>
<trkpt lat="36.738006" lon="137.757372">
<ele>2806.885800</ele>
<time>2014-08-18T04:59:11Z</time>
<desc><![CDATA[lat.=36.738006, lon.=137.757372, Alt.=2806.885800m. Speed=0.000000m/h.]]></desc>
</trkpt>
<trkpt lat="36.738010" lon="137.757364">
<ele>2806.292536</ele>
<time>2014-08-18T04:59:16Z</time>
<desc><![CDATA[lat.=36.738010, lon.=137.757364, Alt.=2806.292536m. Speed=0.000000m/h.]]></desc>
</trkpt>
<trkpt lat="36.738014" lon="137.757373">
<ele>2805.753791</ele>
<time>2014-08-18T04:59:21Z</time>
<desc><![CDATA[lat.=36.738014, lon.=137.757373, Alt.=2805.753791m. Speed=0.000000m/h.]]></desc>
</trkpt>
<trkpt lat="36.738006" lon="137.757373">
<ele>2805.155635</ele>
<time>2014-08-18T04:59:26Z</time>
<desc><![CDATA[lat.=36.738006, lon.=137.757373, Alt.=2805.155635m. Speed=0.000000m/h.]]></desc>
</trkpt>
<trkpt lat="36.738017" lon="137.757381">
<ele>2805.215047</ele>
<time>2014-08-18T04:59:31Z</time>
<desc><![CDATA[lat.=36.738017, lon.=137.757381, Alt.=2805.215047m. Speed=0.000000m/h.]]></desc>
</trkpt>
<trkpt lat="36.738020" lon="137.757404">
<ele>2806.460990</ele>
<time>2014-08-18T04:59:36Z</time>
<desc><![CDATA[lat.=36.738020, lon.=137.757404, Alt.=2806.460990m. Speed=2.000000m/h.]]></desc>
</trkpt>
<trkpt lat="36.737998" lon="137.757419">
<ele>2806.451206</ele>
<time>2014-08-18T04:59:41Z</time>
<desc><![CDATA[lat.=36.737998, lon.=137.757419, Alt.=2806.451206m. Speed=2.000000m/h.]]></desc>
</trkpt>
<trkpt lat="36.738001" lon="137.757443">
<ele>2805.966983</ele>
<time>2014-08-18T04:59:46Z</time>
<desc><![CDATA[lat.=36.738001, lon.=137.757443, Alt.=2805.966983m. Speed=1.000000m/h.]]></desc>
</trkpt>
<trkpt lat="36.738008" lon="137.757459">
<ele>2806.619662</ele>
<time>2014-08-18T04:59:51Z</time>
<desc><![CDATA[lat.=36.738008, lon.=137.757459, Alt.=2806.619662m. Speed=1.000000m/h.]]></desc>
</trkpt>
<trkpt lat="36.737981" lon="137.757482">
<ele>2807.203146</ele>
<time>2014-08-18T04:59:56Z</time>
<desc><![CDATA[lat.=36.737981, lon.=137.757482, Alt.=2807.203146m. Speed=1.000000m/h.]]></desc>
</trkpt>
<trkpt lat="36.737985" lon="137.757490">
<ele>2806.664402</ele>
<time>2014-08-18T05:00:01Z</time>
<desc><![CDATA[lat.=36.737985, lon.=137.757490, Alt.=2806.664402m. Speed=1.000000m/h.]]></desc>
</trkpt>
<trkpt lat="36.737970" lon="137.757505">
<ele>2807.252778</ele>
<time>2014-08-18T05:00:06Z</time>
<desc><![CDATA[lat.=36.737970, lon.=137.757505, Alt.=2807.252778m. Speed=1.000000m/h.]]></desc>
</trkpt>
<trkpt lat="36.737984" lon="137.757537">
<ele>2808.558137</ele>
<time>2014-08-18T05:00:11Z</time>
<desc><![CDATA[lat.=36.737984, lon.=137.757537, Alt.=2808.558137m. Speed=1.000000m/h.]]></desc>
</trkpt>
<trkpt lat="36.738012" lon="137.757553">
<ele>2809.275122</ele>
<time>2014-08-18T05:00:16Z</time>
<desc><![CDATA[lat.=36.738012, lon.=137.757553, Alt.=2809.275122m. Speed=2.000000m/h.]]></desc>
</trkpt>
<trkpt lat="36.738026" lon="137.757569">
<ele>2810.525960</ele>
<time>2014-08-18T05:00:21Z</time>
<desc><![CDATA[lat.=36.738026, lon.=137.757569, Alt.=2810.525960m. Speed=2.000000m/h.]]></desc>
</trkpt>
<trkpt lat="36.738055" lon="137.757586">
<ele>2811.242948</ele>
<time>2014-08-18T05:00:26Z</time>
<desc><![CDATA[lat.=36.738055, lon.=137.757586, Alt.=2811.242948m. Speed=2.000000m/h.]]></desc>
</trkpt>
<trkpt lat="36.738073" lon="137.757594">
<ele>2811.900522</ele>
<time>2014-08-18T05:00:31Z</time>
<desc><![CDATA[lat.=36.738073, lon.=137.757594, Alt.=2811.900522m. Speed=2.000000m/h.]]></desc>
</trkpt>
<trkpt lat="36.738077" lon="137.757602">
<ele>2811.361781</ele>
<time>2014-08-18T05:00:36Z</time>
<desc><![CDATA[lat.=36.738077, lon.=137.757602, Alt.=2811.361781m. Speed=0.000000m/h.]]></desc>
</trkpt>
<trkpt lat="36.738081" lon="137.757610">
<ele>2810.823039</ele>
<time>2014-08-18T05:00:41Z</time>
<desc><![CDATA[lat.=36.738081, lon.=137.757610, Alt.=2810.823039m. Speed=0.000000m/h.]]></desc>
</trkpt>
<trkpt lat="36.738106" lon="137.757619">
<ele>2812.078772</ele>
<time>2014-08-18T05:00:46Z</time>
<desc><![CDATA[lat.=36.738106, lon.=137.757619, Alt.=2812.078772m. Speed=2.000000m/h.]]></desc>
</trkpt>
<trkpt lat="36.738135" lon="137.757635">
<ele>2812.795766</ele>
<time>2014-08-18T05:00:51Z</time>
<desc><![CDATA[lat.=36.738135, lon.=137.757635, Alt.=2812.795766m. Speed=2.000000m/h.]]></desc>
</trkpt>
<trkpt lat="36.738168" lon="137.757661">
<ele>2811.243856</ele>
<time>2014-08-18T05:00:56Z</time>
<desc><![CDATA[lat.=36.738168, lon.=137.757661, Alt.=2811.243856m. Speed=3.000000m/h.]]></desc>
</trkpt>
<trkpt lat="36.738190" lon="137.757678">
<ele>2809.632529</ele>
<time>2014-08-18T05:01:01Z</time>
<desc><![CDATA[lat.=36.738190, lon.=137.757678, Alt.=2809.632529m. Speed=3.000000m/h.]]></desc>
</trkpt>
<trkpt lat="36.738196" lon="137.757710">
<ele>2810.339741</ele>
<time>2014-08-18T05:01:06Z</time>
<desc><![CDATA[lat.=36.738196, lon.=137.757710, Alt.=2810.339741m. Speed=2.000000m/h.]]></desc>
</trkpt>
<trkpt lat="36.738218" lon="137.757726">
<ele>2810.458582</ele>
<time>2014-08-18T05:01:11Z</time>
<desc><![CDATA[lat.=36.738218, lon.=137.757726, Alt.=2810.458582m. Speed=2.000000m/h.]]></desc>
</trkpt>
<trkpt lat="36.738244" lon="137.757735">
<ele>2809.984158</ele>
<time>2014-08-18T05:01:16Z</time>
<desc><![CDATA[lat.=36.738244, lon.=137.757735, Alt.=2809.984158m. Speed=3.000000m/h.]]></desc>
</trkpt>
<trkpt lat="36.738280" lon="137.757752">
<ele>2811.299322</ele>
<time>2014-08-18T05:01:21Z</time>
<desc><![CDATA[lat.=36.738280, lon.=137.757752, Alt.=2811.299322m. Speed=3.000000m/h.]]></desc>
</trkpt>
<trkpt lat="36.738294" lon="137.757785">
<ele>2809.144369</ele>
<time>2014-08-18T05:01:26Z</time>
<desc><![CDATA[lat.=36.738294, lon.=137.757785, Alt.=2809.144369m. Speed=2.000000m/h.]]></desc>
</trkpt>
<trkpt lat="36.738319" lon="137.757809">
<ele>2812.184808</ele>
<time>2014-08-18T05:01:31Z</time>
<desc><![CDATA[lat.=36.738319, lon.=137.757809, Alt.=2812.184808m. Speed=2.000000m/h.]]></desc>
</trkpt>
<trkpt lat="36.738340" lon="137.757824">
<ele>2814.033821</ele>
<time>2014-08-18T05:01:36Z</time>
<desc><![CDATA[lat.=36.738340, lon.=137.757824, Alt.=2814.033821m. Speed=2.000000m/h.]]></desc>
</trkpt>
<trkpt lat="36.738354" lon="137.757840">
<ele>2815.284673</ele>
<time>2014-08-18T05:01:41Z</time>
<desc><![CDATA[lat.=36.738354, lon.=137.757840, Alt.=2815.284673m. Speed=2.000000m/h.]]></desc>
</trkpt>
<trkpt lat="36.738372" lon="137.757864">
<ele>2815.996789</ele>
<time>2014-08-18T05:01:46Z</time>
<desc><![CDATA[lat.=36.738372, lon.=137.757864, Alt.=2815.996789m. Speed=2.000000m/h.]]></desc>
</trkpt>
<trkpt lat="36.738394" lon="137.757881">
<ele>2816.115641</ele>
<time>2014-08-18T05:01:51Z</time>
<desc><![CDATA[lat.=36.738394, lon.=137.757881, Alt.=2816.115641m. Speed=2.000000m/h.]]></desc>
</trkpt>
<trkpt lat="36.738385" lon="137.757895">
<ele>2819.032339</ele>
<time>2014-08-18T05:01:56Z</time>
<desc><![CDATA[lat.=36.738385, lon.=137.757895, Alt.=2819.032339m. Speed=1.000000m/h.]]></desc>
</trkpt>
<trkpt lat="36.738388" lon="137.757903">
<ele>2820.223768</ele>
<time>2014-08-18T05:02:01Z</time>
<desc><![CDATA[lat.=36.738388, lon.=137.757903, Alt.=2820.223768m. Speed=1.000000m/h.]]></desc>
</trkpt>
<trkpt lat="36.738399" lon="137.757927">
<ele>2820.337725</ele>
<time>2014-08-18T05:02:06Z</time>
<desc><![CDATA[lat.=36.738399, lon.=137.757927, Alt.=2820.337725m. Speed=1.000000m/h.]]></desc>
</trkpt>
<trkpt lat="36.738399" lon="137.757959">
<ele>2818.716622</ele>
<time>2014-08-18T05:02:11Z</time>
<desc><![CDATA[lat.=36.738399, lon.=137.757959, Alt.=2818.716622m. Speed=1.000000m/h.]]></desc>
</trkpt>
<trkpt lat="36.738431" lon="137.757967">
<ele>2822.300702</ele>
<time>2014-08-18T05:02:16Z</time>
<desc><![CDATA[lat.=36.738431, lon.=137.757967, Alt.=2822.300702m. Speed=1.000000m/h.]]></desc>
</trkpt>
<trkpt lat="36.738460" lon="137.757967">
<ele>2822.963189</ele>
<time>2014-08-18T05:02:21Z</time>
<desc><![CDATA[lat.=36.738460, lon.=137.757967, Alt.=2822.963189m. Speed=0.000000m/h.]]></desc>
</trkpt>
<trkpt lat="36.738456" lon="137.757959">
<ele>2823.501924</ele>
<time>2014-08-18T05:02:26Z</time>
<desc><![CDATA[lat.=36.738456, lon.=137.757959, Alt.=2823.501924m. Speed=0.000000m/h.]]></desc>
</trkpt>
<trkpt lat="36.738456" lon="137.757958">
<ele>2825.232089</ele>
<time>2014-08-18T05:02:31Z</time>
<desc><![CDATA[lat.=36.738456, lon.=137.757958, Alt.=2825.232089m. Speed=0.000000m/h.]]></desc>
</trkpt>
<trkpt lat="36.738448" lon="137.757958">
<ele>2826.364091</ele>
<time>2014-08-18T05:02:36Z</time>
<desc><![CDATA[lat.=36.738448, lon.=137.757958, Alt.=2826.364091m. Speed=1.000000m/h.]]></desc>
</trkpt>
<trkpt lat="36.738466" lon="137.757982">
<ele>2825.346049</ele>
<time>2014-08-18T05:02:41Z</time>
<desc><![CDATA[lat.=36.738466, lon.=137.757982, Alt.=2825.346049m. Speed=2.000000m/h.]]></desc>
</trkpt>
<trkpt lat="36.738488" lon="137.757998">
<ele>2827.195072</ele>
<time>2014-08-18T05:02:46Z</time>
<desc><![CDATA[lat.=36.738488, lon.=137.757998, Alt.=2827.195072m. Speed=1.000000m/h.]]></desc>
</trkpt>
<trkpt lat="36.738491" lon="137.758023">
<ele>2824.980705</ele>
<time>2014-08-18T05:02:51Z</time>
<desc><![CDATA[lat.=36.738491, lon.=137.758023, Alt.=2824.980705m. Speed=1.000000m/h.]]></desc>
</trkpt>
<trkpt lat="36.738498" lon="137.758038">
<ele>2827.363566</ele>
<time>2014-08-18T05:02:56Z</time>
<desc><![CDATA[lat.=36.738498, lon.=137.758038, Alt.=2827.363566m. Speed=0.000000m/h.]]></desc>
</trkpt>
<trkpt lat="36.738494" lon="137.758046">
<ele>2827.956834</ele>
<time>2014-08-18T05:03:02Z</time>
<desc><![CDATA[lat.=36.738494, lon.=137.758046, Alt.=2827.956834m. Speed=1.000000m/h.]]></desc>
</trkpt>
<trkpt lat="36.738515" lon="137.758078">
<ele>2828.130227</ele>
<time>2014-08-18T05:03:07Z</time>
<desc><![CDATA[lat.=36.738515, lon.=137.758078, Alt.=2828.130227m. Speed=1.000000m/h.]]></desc>
</trkpt>
<trkpt lat="36.738534" lon="137.758087">
<ele>2827.057658</ele>
<time>2014-08-18T05:03:12Z</time>
<desc><![CDATA[lat.=36.738534, lon.=137.758087, Alt.=2827.057658m. Speed=1.000000m/h.]]></desc>
</trkpt>
<trkpt lat="36.738540" lon="137.758119">
<ele>2826.034726</ele>
<time>2014-08-18T05:03:17Z</time>
<desc><![CDATA[lat.=36.738540, lon.=137.758119, Alt.=2826.034726m. Speed=1.000000m/h.]]></desc>
</trkpt>
<trkpt lat="36.738584" lon="137.758119">
<ele>2829.623714</ele>
<time>2014-08-18T05:03:22Z</time>
<desc><![CDATA[lat.=36.738584, lon.=137.758119, Alt.=2829.623714m. Speed=2.000000m/h.]]></desc>
</trkpt>
<trkpt lat="36.738601" lon="137.758143">
<ele>2832.066011</ele>
<time>2014-08-18T05:03:27Z</time>
<desc><![CDATA[lat.=36.738601, lon.=137.758143, Alt.=2832.066011m. Speed=2.000000m/h.]]></desc>
</trkpt>
<trkpt lat="36.738616" lon="137.758160">
<ele>2829.856547</ele>
<time>2014-08-18T05:03:32Z</time>
<desc><![CDATA[lat.=36.738616, lon.=137.758160, Alt.=2829.856547m. Speed=2.000000m/h.]]></desc>
</trkpt>
<trkpt lat="36.738634" lon="137.758153">
<ele>2830.459611</ele>
<time>2014-08-18T05:03:37Z</time>
<desc><![CDATA[lat.=36.738634, lon.=137.758153, Alt.=2830.459611m. Speed=1.000000m/h.]]></desc>
</trkpt>
<trkpt lat="36.738638" lon="137.758177">
<ele>2829.975415</ele>
<time>2014-08-18T05:03:42Z</time>
<desc><![CDATA[lat.=36.738638, lon.=137.758177, Alt.=2829.975415m. Speed=1.000000m/h.]]></desc>
</trkpt>
<trkpt lat="36.738648" lon="137.758183">
<ele>2833.495178</ele>
<time>2014-08-18T05:03:47Z</time>
<desc><![CDATA[lat.=36.738648, lon.=137.758183, Alt.=2833.495178m. Speed=1.000000m/h.]]></desc>
</trkpt>
<trkpt lat="36.738665" lon="137.758208">
<ele>2834.207315</ele>
<time>2014-08-18T05:03:52Z</time>
<desc><![CDATA[lat.=36.738665, lon.=137.758208, Alt.=2834.207315m. Speed=1.000000m/h.]]></desc>
</trkpt>
<trkpt lat="36.738680" lon="137.758225">
<ele>2831.997855</ele>
<time>2014-08-18T05:03:57Z</time>
<desc><![CDATA[lat.=36.738680, lon.=137.758225, Alt.=2831.997855m. Speed=2.000000m/h.]]></desc>
</trkpt>
<trkpt lat="36.738698" lon="137.758249">
<ele>2832.709994</ele>
<time>2014-08-18T05:04:02Z</time>
<desc><![CDATA[lat.=36.738698, lon.=137.758249, Alt.=2832.709994m. Speed=2.000000m/h.]]></desc>
</trkpt>
<trkpt lat="36.738716" lon="137.758258">
<ele>2831.637433</ele>
<time>2014-08-18T05:04:07Z</time>
<desc><![CDATA[lat.=36.738716, lon.=137.758258, Alt.=2831.637433m. Speed=1.000000m/h.]]></desc>
</trkpt>
<trkpt lat="36.738712" lon="137.758265">
<ele>2833.960865</ele>
<time>2014-08-18T05:04:12Z</time>
<desc><![CDATA[lat.=36.738712, lon.=137.758265, Alt.=2833.960865m. Speed=1.000000m/h.]]></desc>
</trkpt>
<trkpt lat="36.738737" lon="137.758273">
<ele>2835.216635</ele>
<time>2014-08-18T05:04:17Z</time>
<desc><![CDATA[lat.=36.738737, lon.=137.758273, Alt.=2835.216635m. Speed=2.000000m/h.]]></desc>
</trkpt>
<trkpt lat="36.738774" lon="137.758290">
<ele>2834.801681</ele>
<time>2014-08-18T05:04:22Z</time>
<desc><![CDATA[lat.=36.738774, lon.=137.758290, Alt.=2834.801681m. Speed=2.000000m/h.]]></desc>
</trkpt>
<trkpt lat="36.738792" lon="137.758315">
<ele>2833.783661</ele>
<time>2014-08-18T05:04:27Z</time>
<desc><![CDATA[lat.=36.738792, lon.=137.758315, Alt.=2833.783661m. Speed=2.000000m/h.]]></desc>
</trkpt>
<trkpt lat="36.738813" lon="137.758332">
<ele>2833.902539</ele>
<time>2014-08-18T05:04:32Z</time>
<desc><![CDATA[lat.=36.738813, lon.=137.758332, Alt.=2833.902539m. Speed=2.000000m/h.]]></desc>
</trkpt>
<trkpt lat="36.738828" lon="137.758348">
<ele>2833.423250</ele>
<time>2014-08-18T05:04:37Z</time>
<desc><![CDATA[lat.=36.738828, lon.=137.758348, Alt.=2833.423250m. Speed=2.000000m/h.]]></desc>
</trkpt>
<trkpt lat="36.738850" lon="137.758365">
<ele>2833.542131</ele>
<time>2014-08-18T05:04:42Z</time>
<desc><![CDATA[lat.=36.738850, lon.=137.758365, Alt.=2833.542131m. Speed=2.000000m/h.]]></desc>
</trkpt>
<trkpt lat="36.738871" lon="137.758381">
<ele>2835.391176</ele>
<time>2014-08-18T05:04:47Z</time>
<desc><![CDATA[lat.=36.738871, lon.=137.758381, Alt.=2835.391176m. Speed=2.000000m/h.]]></desc>
</trkpt>
<trkpt lat="36.738881" lon="137.758405">
<ele>2835.505158</ele>
<time>2014-08-18T05:04:52Z</time>
<desc><![CDATA[lat.=36.738881, lon.=137.758405, Alt.=2835.505158m. Speed=2.000000m/h.]]></desc>
</trkpt>
<trkpt lat="36.738910" lon="137.758421">
<ele>2836.222211</ele>
<time>2014-08-18T05:04:57Z</time>
<desc><![CDATA[lat.=36.738910, lon.=137.758421, Alt.=2836.222211m. Speed=2.000000m/h.]]></desc>
</trkpt>
<trkpt lat="36.738932" lon="137.758438">
<ele>2836.341096</ele>
<time>2014-08-18T05:05:02Z</time>
<desc><![CDATA[lat.=36.738932, lon.=137.758438, Alt.=2836.341096m. Speed=2.000000m/h.]]></desc>
</trkpt>
<trkpt lat="36.738946" lon="137.758454">
<ele>2837.591977</ele>
<time>2014-08-18T05:05:07Z</time>
<desc><![CDATA[lat.=36.738946, lon.=137.758454, Alt.=2837.591977m. Speed=2.000000m/h.]]></desc>
</trkpt>
<trkpt lat="36.738968" lon="137.758470">
<ele>2837.710864</ele>
<time>2014-08-18T05:05:12Z</time>
<desc><![CDATA[lat.=36.738968, lon.=137.758470, Alt.=2837.710864m. Speed=2.000000m/h.]]></desc>
</trkpt>
<trkpt lat="36.738989" lon="137.758486">
<ele>2839.559917</ele>
<time>2014-08-18T05:05:17Z</time>
<desc><![CDATA[lat.=36.738989, lon.=137.758486, Alt.=2839.559917m. Speed=2.000000m/h.]]></desc>
</trkpt>
<trkpt lat="36.739014" lon="137.758511">
<ele>2839.140082</ele>
<time>2014-08-18T05:05:22Z</time>
<desc><![CDATA[lat.=36.739014, lon.=137.758511, Alt.=2839.140082m. Speed=3.000000m/h.]]></desc>
</trkpt>
<trkpt lat="36.739021" lon="137.758527">
<ele>2839.792795</ele>
<time>2014-08-18T05:05:27Z</time>
<desc><![CDATA[lat.=36.739021, lon.=137.758527, Alt.=2839.792795m. Speed=2.000000m/h.]]></desc>
</trkpt>
<trkpt lat="36.739050" lon="137.758559">
<ele>2840.564401</ele>
<time>2014-08-18T05:05:32Z</time>
<desc><![CDATA[lat.=36.739050, lon.=137.758559, Alt.=2840.564401m. Speed=2.000000m/h.]]></desc>
</trkpt>
<trkpt lat="36.739094" lon="137.758577">
<ele>2839.017484</ele>
<time>2014-08-18T05:05:37Z</time>
<desc><![CDATA[lat.=36.739094, lon.=137.758577, Alt.=2839.017484m. Speed=2.000000m/h.]]></desc>
</trkpt>
<trkpt lat="36.739133" lon="137.758585">
<ele>2843.199785</ele>
<time>2014-08-18T05:05:42Z</time>
<desc><![CDATA[lat.=36.739133, lon.=137.758585, Alt.=2843.199785m. Speed=3.000000m/h.]]></desc>
</trkpt>
<trkpt lat="36.739157" lon="137.758591">
<ele>2849.646071</ele>
<time>2014-08-18T05:05:47Z</time>
<desc><![CDATA[lat.=36.739157, lon.=137.758591, Alt.=2849.646071m. Speed=3.000000m/h.]]></desc>
</trkpt>
<trkpt lat="36.739209" lon="137.758593">
<ele>2848.642793</ele>
<time>2014-08-18T05:05:52Z</time>
<desc><![CDATA[lat.=36.739209, lon.=137.758593, Alt.=2848.642793m. Speed=3.000000m/h.]]></desc>
</trkpt>
<trkpt lat="36.739239" lon="137.758579">
<ele>2847.520618</ele>
<time>2014-08-18T05:05:57Z</time>
<desc><![CDATA[lat.=36.739239, lon.=137.758579, Alt.=2847.520618m. Speed=3.000000m/h.]]></desc>
</trkpt>
<trkpt lat="36.739269" lon="137.758582">
<ele>2842.992660</ele>
<time>2014-08-18T05:06:02Z</time>
<desc><![CDATA[lat.=36.739269, lon.=137.758582, Alt.=2842.992660m. Speed=3.000000m/h.]]></desc>
</trkpt>
<trkpt lat="36.739310" lon="137.758592">
<ele>2840.254320</ele>
<time>2014-08-18T05:06:07Z</time>
<desc><![CDATA[lat.=36.739310, lon.=137.758592, Alt.=2840.254320m. Speed=3.000000m/h.]]></desc>
</trkpt>
<trkpt lat="36.739351" lon="137.758603">
<ele>2837.515984</ele>
<time>2014-08-18T05:06:12Z</time>
<desc><![CDATA[lat.=36.739351, lon.=137.758603, Alt.=2837.515984m. Speed=3.000000m/h.]]></desc>
</trkpt>
<trkpt lat="36.739365" lon="137.758601">
<ele>2842.172663</ele>
<time>2014-08-18T05:06:17Z</time>
<desc><![CDATA[lat.=36.739365, lon.=137.758601, Alt.=2842.172663m. Speed=0.000000m/h.]]></desc>
</trkpt>
<trkpt lat="36.739391" lon="137.758595">
<ele>2841.643762</ele>
<time>2014-08-18T05:06:22Z</time>
<desc><![CDATA[lat.=36.739391, lon.=137.758595, Alt.=2841.643762m. Speed=2.000000m/h.]]></desc>
</trkpt>
<trkpt lat="36.739416" lon="137.758620">
<ele>2841.223949</ele>
<time>2014-08-18T05:06:27Z</time>
<desc><![CDATA[lat.=36.739416, lon.=137.758620, Alt.=2841.223949m. Speed=3.000000m/h.]]></desc>
</trkpt>
<trkpt lat="36.739441" lon="137.758661">
<ele>2839.128520</ele>
<time>2014-08-18T05:06:32Z</time>
<desc><![CDATA[lat.=36.739441, lon.=137.758661, Alt.=2839.128520m. Speed=3.000000m/h.]]></desc>
</trkpt>
<trkpt lat="36.739464" lon="137.758678">
<ele>2837.517269</ele>
<time>2014-08-18T05:06:37Z</time>
<desc><![CDATA[lat.=36.739464, lon.=137.758678, Alt.=2837.517269m. Speed=3.000000m/h.]]></desc>
</trkpt>
<trkpt lat="36.739500" lon="137.758679">
<ele>2838.777993</ele>
<time>2014-08-18T05:06:42Z</time>
<desc><![CDATA[lat.=36.739500, lon.=137.758679, Alt.=2838.777993m. Speed=3.000000m/h.]]></desc>
</trkpt>
<trkpt lat="36.739543" lon="137.758696">
<ele>2840.691443</ele>
<time>2014-08-18T05:06:47Z</time>
<desc><![CDATA[lat.=36.739543, lon.=137.758696, Alt.=2840.691443m. Speed=3.000000m/h.]]></desc>
</trkpt>
<trkpt lat="36.739568" lon="137.758736">
<ele>2840.326188</ele>
<time>2014-08-18T05:06:52Z</time>
<desc><![CDATA[lat.=36.739568, lon.=137.758736, Alt.=2840.326188m. Speed=3.000000m/h.]]></desc>
</trkpt>
<trkpt lat="36.739612" lon="137.758769">
<ele>2840.564028</ele>
<time>2014-08-18T05:06:57Z</time>
<desc><![CDATA[lat.=36.739612, lon.=137.758769, Alt.=2840.564028m. Speed=3.000000m/h.]]></desc>
</trkpt>
<trkpt lat="36.739629" lon="137.758794">
<ele>2841.276215</ele>
<time>2014-08-18T05:07:02Z</time>
<desc><![CDATA[lat.=36.739629, lon.=137.758794, Alt.=2841.276215m. Speed=3.000000m/h.]]></desc>
</trkpt>
<trkpt lat="36.739654" lon="137.758834">
<ele>2840.910969</ele>
<time>2014-08-18T05:07:07Z</time>
<desc><![CDATA[lat.=36.739654, lon.=137.758834, Alt.=2840.910969m. Speed=3.000000m/h.]]></desc>
</trkpt>
<trkpt lat="36.739697" lon="137.758833">
<ele>2846.230213</ele>
<time>2014-08-18T05:07:12Z</time>
<desc><![CDATA[lat.=36.739697, lon.=137.758833, Alt.=2846.230213m. Speed=3.000000m/h.]]></desc>
</trkpt>
<trkpt lat="36.739708" lon="137.758841">
<ele>2848.019839</ele>
<time>2014-08-18T05:07:17Z</time>
<desc><![CDATA[lat.=36.739708, lon.=137.758841, Alt.=2848.019839m. Speed=0.000000m/h.]]></desc>
</trkpt>
<trkpt lat="36.739762" lon="137.758867">
<ele>2848.262612</ele>
<time>2014-08-18T05:07:22Z</time>
<desc><![CDATA[lat.=36.739762, lon.=137.758867, Alt.=2848.262612m. Speed=3.000000m/h.]]></desc>
</trkpt>
<trkpt lat="36.739824" lon="137.758909">
<ele>2847.427960</ele>
<time>2014-08-18T05:07:27Z</time>
<desc><![CDATA[lat.=36.739824, lon.=137.758909, Alt.=2847.427960m. Speed=4.000000m/h.]]></desc>
</trkpt>
<trkpt lat="36.739875" lon="137.758927">
<ele>2846.479299</ele>
<time>2014-08-18T05:07:32Z</time>
<desc><![CDATA[lat.=36.739875, lon.=137.758927, Alt.=2846.479299m. Speed=4.000000m/h.]]></desc>
</trkpt>
<trkpt lat="36.739915" lon="137.758968">
<ele>2845.580275</ele>
<time>2014-08-18T05:07:37Z</time>
<desc><![CDATA[lat.=36.739915, lon.=137.758968, Alt.=2845.580275m. Speed=4.000000m/h.]]></desc>
</trkpt>
<trkpt lat="36.739962" lon="137.758977">
<ele>2848.630664</ele>
<time>2014-08-18T05:07:42Z</time>
<desc><![CDATA[lat.=36.739962, lon.=137.758977, Alt.=2848.630664m. Speed=4.000000m/h.]]></desc>
</trkpt>
<trkpt lat="36.740014" lon="137.758996">
<ele>2844.221693</ele>
<time>2014-08-18T05:07:47Z</time>
<desc><![CDATA[lat.=36.740014, lon.=137.758996, Alt.=2844.221693m. Speed=4.000000m/h.]]></desc>
</trkpt>
<trkpt lat="36.740066" lon="137.759014">
<ele>2843.273053</ele>
<time>2014-08-18T05:07:52Z</time>
<desc><![CDATA[lat.=36.740066, lon.=137.759014, Alt.=2843.273053m. Speed=4.000000m/h.]]></desc>
</trkpt>
<trkpt lat="36.740113" lon="137.759024">
<ele>2842.863131</ele>
<time>2014-08-18T05:07:57Z</time>
<desc><![CDATA[lat.=36.740113, lon.=137.759024, Alt.=2842.863131m. Speed=4.000000m/h.]]></desc>
</trkpt>
<trkpt lat="36.740160" lon="137.759049">
<ele>2844.237928</ele>
<time>2014-08-18T05:08:02Z</time>
<desc><![CDATA[lat.=36.740160, lon.=137.759049, Alt.=2844.237928m. Speed=4.000000m/h.]]></desc>
</trkpt>
<trkpt lat="36.740211" lon="137.759083">
<ele>2843.343856</ele>
<time>2014-08-18T05:08:07Z</time>
<desc><![CDATA[lat.=36.740211, lon.=137.759083, Alt.=2843.343856m. Speed=4.000000m/h.]]></desc>
</trkpt>
<trkpt lat="36.740240" lon="137.759115">
<ele>2844.115551</ele>
<time>2014-08-18T05:08:12Z</time>
<desc><![CDATA[lat.=36.740240, lon.=137.759115, Alt.=2844.115551m. Speed=4.000000m/h.]]></desc>
</trkpt>
<trkpt lat="36.740291" lon="137.759133">
<ele>2844.897098</ele>
<time>2014-08-18T05:08:17Z</time>
<desc><![CDATA[lat.=36.740291, lon.=137.759133, Alt.=2844.897098m. Speed=4.000000m/h.]]></desc>
</trkpt>
<trkpt lat="36.740319" lon="137.759165">
<ele>2845.668799</ele>
<time>2014-08-18T05:08:22Z</time>
<desc><![CDATA[lat.=36.740319, lon.=137.759165, Alt.=2845.668799m. Speed=4.000000m/h.]]></desc>
</trkpt>
<trkpt lat="36.740356" lon="137.759199">
<ele>2843.578369</ele>
<time>2014-08-18T05:08:27Z</time>
<desc><![CDATA[lat.=36.740356, lon.=137.759199, Alt.=2843.578369m. Speed=3.000000m/h.]]></desc>
</trkpt>
<trkpt lat="36.740373" lon="137.759223">
<ele>2844.290594</ele>
<time>2014-08-18T05:08:32Z</time>
<desc><![CDATA[lat.=36.740373, lon.=137.759223, Alt.=2844.290594m. Speed=3.000000m/h.]]></desc>
</trkpt>
<trkpt lat="36.740387" lon="137.759254">
<ele>2847.326248</ele>
<time>2014-08-18T05:08:37Z</time>
<desc><![CDATA[lat.=36.740387, lon.=137.759254, Alt.=2847.326248m. Speed=3.000000m/h.]]></desc>
</trkpt>
<trkpt lat="36.740404" lon="137.759278">
<ele>2848.038476</ele>
<time>2014-08-18T05:08:42Z</time>
<desc><![CDATA[lat.=36.740404, lon.=137.759278, Alt.=2848.038476m. Speed=2.000000m/h.]]></desc>
</trkpt>
<trkpt lat="36.740433" lon="137.759295">
<ele>2848.755633</ele>
<time>2014-08-18T05:08:47Z</time>
<desc><![CDATA[lat.=36.740433, lon.=137.759295, Alt.=2848.755633m. Speed=2.000000m/h.]]></desc>
</trkpt>
<trkpt lat="36.740469" lon="137.759311">
<ele>2850.070983</ele>
<time>2014-08-18T05:08:52Z</time>
<desc><![CDATA[lat.=36.740469, lon.=137.759311, Alt.=2850.070983m. Speed=3.000000m/h.]]></desc>
</trkpt>
<trkpt lat="36.740473" lon="137.759320">
<ele>2847.802114</ele>
<time>2014-08-18T05:08:57Z</time>
<desc><![CDATA[lat.=36.740473, lon.=137.759320, Alt.=2847.802114m. Speed=2.000000m/h.]]></desc>
</trkpt>
<trkpt lat="36.740473" lon="137.759303">
<ele>2851.207881</ele>
<time>2014-08-18T05:09:02Z</time>
<desc><![CDATA[lat.=36.740473, lon.=137.759303, Alt.=2851.207881m. Speed=0.000000m/h.]]></desc>
</trkpt>
<trkpt lat="36.740469" lon="137.759310">
<ele>2853.531307</ele>
<time>2014-08-18T05:09:07Z</time>
<desc><![CDATA[lat.=36.740469, lon.=137.759310, Alt.=2853.531307m. Speed=0.000000m/h.]]></desc>
</trkpt>
<trkpt lat="36.740480" lon="137.759303">
<ele>2851.806073</ele>
<time>2014-08-18T05:09:12Z</time>
<desc><![CDATA[lat.=36.740480, lon.=137.759303, Alt.=2851.806073m. Speed=0.000000m/h.]]></desc>
</trkpt>
<trkpt lat="36.740480" lon="137.759319">
<ele>2851.860629</ele>
<time>2014-08-18T05:09:17Z</time>
<desc><![CDATA[lat.=36.740480, lon.=137.759319, Alt.=2851.860629m. Speed=0.000000m/h.]]></desc>
</trkpt>
<trkpt lat="36.740480" lon="137.759302">
<ele>2853.536235</ele>
<time>2014-08-18T05:09:22Z</time>
<desc><![CDATA[lat.=36.740480, lon.=137.759302, Alt.=2853.536235m. Speed=1.000000m/h.]]></desc>
</trkpt>
<trkpt lat="36.740476" lon="137.759310">
<ele>2854.129498</ele>
<time>2014-08-18T05:09:27Z</time>
<desc><![CDATA[lat.=36.740476, lon.=137.759310, Alt.=2854.129498m. Speed=0.000000m/h.]]></desc>
</trkpt>
<trkpt lat="36.740473" lon="137.759302">
<ele>2852.938043</ele>
<time>2014-08-18T05:09:32Z</time>
<desc><![CDATA[lat.=36.740473, lon.=137.759302, Alt.=2852.938043m. Speed=0.000000m/h.]]></desc>
</trkpt>
<trkpt lat="36.740476" lon="137.759310">
<ele>2852.399336</ele>
<time>2014-08-18T05:09:37Z</time>
<desc><![CDATA[lat.=36.740476, lon.=137.759310, Alt.=2852.399336m. Speed=0.000000m/h.]]></desc>
</trkpt>
<trkpt lat="36.740477" lon="137.759311">
<ele>2850.669174</ele>
<time>2014-08-18T05:09:42Z</time>
<desc><![CDATA[lat.=36.740477, lon.=137.759311, Alt.=2850.669174m. Speed=0.000000m/h.]]></desc>
</trkpt>
<trkpt lat="36.740473" lon="137.759319">
<ele>2851.262438</ele>
<time>2014-08-18T05:09:48Z</time>
<desc><![CDATA[lat.=36.740473, lon.=137.759319, Alt.=2851.262438m. Speed=0.000000m/h.]]></desc>
</trkpt>
<trkpt lat="36.740480" lon="137.759303">
<ele>2851.806073</ele>
<time>2014-08-18T05:09:53Z</time>
<desc><![CDATA[lat.=36.740480, lon.=137.759303, Alt.=2851.806073m. Speed=0.000000m/h.]]></desc>
</trkpt>
<trkpt lat="36.740487" lon="137.759303">
<ele>2852.404264</ele>
<time>2014-08-18T05:09:59Z</time>
<desc><![CDATA[lat.=36.740487, lon.=137.759303, Alt.=2852.404264m. Speed=0.000000m/h.]]></desc>
</trkpt>
<trkpt lat="36.740483" lon="137.759310">
<ele>2852.997528</ele>
<time>2014-08-18T05:10:04Z</time>
<desc><![CDATA[lat.=36.740483, lon.=137.759310, Alt.=2852.997528m. Speed=0.000000m/h.]]></desc>
</trkpt>
<trkpt lat="36.740476" lon="137.759310">
<ele>2854.129498</ele>
<time>2014-08-18T05:10:15Z</time>
<desc><![CDATA[lat.=36.740476, lon.=137.759310, Alt.=2854.129498m. Speed=0.000000m/h.]]></desc>
</trkpt>
<trkpt lat="36.740491" lon="137.759310">
<ele>2853.595719</ele>
<time>2014-08-18T05:10:21Z</time>
<desc><![CDATA[lat.=36.740491, lon.=137.759310, Alt.=2853.595719m. Speed=2.000000m/h.]]></desc>
</trkpt>
<trkpt lat="36.740505" lon="137.759343">
<ele>2853.171055</ele>
<time>2014-08-18T05:10:26Z</time>
<desc><![CDATA[lat.=36.740505, lon.=137.759343, Alt.=2853.171055m. Speed=2.000000m/h.]]></desc>
</trkpt>
<trkpt lat="36.740520" lon="137.759344">
<ele>2850.907115</ele>
<time>2014-08-18T05:10:31Z</time>
<desc><![CDATA[lat.=36.740520, lon.=137.759344, Alt.=2850.907115m. Speed=0.000000m/h.]]></desc>
</trkpt>
<trkpt lat="36.740528" lon="137.759345">
<ele>2849.775145</ele>
<time>2014-08-18T05:10:36Z</time>
<desc><![CDATA[lat.=36.740528, lon.=137.759345, Alt.=2849.775145m. Speed=1.000000m/h.]]></desc>
</trkpt>
<trkpt lat="36.740583" lon="137.759355">
<ele>2849.963462</ele>
<time>2014-08-18T05:10:41Z</time>
<desc><![CDATA[lat.=36.740583, lon.=137.759355, Alt.=2849.963462m. Speed=3.000000m/h.]]></desc>
</trkpt>
<trkpt lat="36.740623" lon="137.759364">
<ele>2850.685561</ele>
<time>2014-08-18T05:10:46Z</time>
<desc><![CDATA[lat.=36.740623, lon.=137.759364, Alt.=2850.685561m. Speed=4.000000m/h.]]></desc>
</trkpt>
<trkpt lat="36.740648" lon="137.759372">
<ele>2851.941436</ele>
<time>2014-08-18T05:10:51Z</time>
<desc><![CDATA[lat.=36.740648, lon.=137.759372, Alt.=2851.941436m. Speed=3.000000m/h.]]></desc>
</trkpt>
<trkpt lat="36.740699" lon="137.759374">
<ele>2852.668472</ele>
<time>2014-08-18T05:10:56Z</time>
<desc><![CDATA[lat.=36.740699, lon.=137.759374, Alt.=2852.668472m. Speed=3.000000m/h.]]></desc>
</trkpt>
<trkpt lat="36.740731" lon="137.759398">
<ele>2854.577104</ele>
<time>2014-08-18T05:11:01Z</time>
<desc><![CDATA[lat.=36.740731, lon.=137.759398, Alt.=2854.577104m. Speed=3.000000m/h.]]></desc>
</trkpt>
<trkpt lat="36.740749" lon="137.759422">
<ele>2855.289349</ele>
<time>2014-08-18T05:11:06Z</time>
<desc><![CDATA[lat.=36.740749, lon.=137.759422, Alt.=2855.289349m. Speed=3.000000m/h.]]></desc>
</trkpt>
<trkpt lat="36.740783" lon="137.759400">
<ele>2853.573986</ele>
<time>2014-08-18T05:11:11Z</time>
<desc><![CDATA[lat.=36.740783, lon.=137.759400, Alt.=2853.573986m. Speed=3.000000m/h.]]></desc>
</trkpt>
<trkpt lat="36.740817" lon="137.759378">
<ele>2851.858626</ele>
<time>2014-08-18T05:11:16Z</time>
<desc><![CDATA[lat.=36.740817, lon.=137.759378, Alt.=2851.858626m. Speed=3.000000m/h.]]></desc>
</trkpt>
<trkpt lat="36.740844" lon="137.759372">
<ele>2849.599630</ele>
<time>2014-08-18T05:11:21Z</time>
<desc><![CDATA[lat.=36.740844, lon.=137.759372, Alt.=2849.599630m. Speed=2.000000m/h.]]></desc>
</trkpt>
<trkpt lat="36.740840" lon="137.759381">
<ele>2848.462730</ele>
<time>2014-08-18T05:11:26Z</time>
<desc><![CDATA[lat.=36.740840, lon.=137.759381, Alt.=2848.462730m. Speed=0.000000m/h.]]></desc>
</trkpt>
<trkpt lat="36.740829" lon="137.759388">
<ele>2848.457795</ele>
<time>2014-08-18T05:11:31Z</time>
<desc><![CDATA[lat.=36.740829, lon.=137.759388, Alt.=2848.457795m. Speed=0.000000m/h.]]></desc>
</trkpt>
<trkpt lat="36.740836" lon="137.759389">
<ele>2847.325830</ele>
<time>2014-08-18T05:11:36Z</time>
<desc><![CDATA[lat.=36.740836, lon.=137.759389, Alt.=2847.325830m. Speed=0.000000m/h.]]></desc>
</trkpt>
<trkpt lat="36.740840" lon="137.759397">
<ele>2846.787127</ele>
<time>2014-08-18T05:11:41Z</time>
<desc><![CDATA[lat.=36.740840, lon.=137.759397, Alt.=2846.787127m. Speed=0.000000m/h.]]></desc>
</trkpt>
<trkpt lat="36.740844" lon="137.759389">
<ele>2847.924027</ele>
<time>2014-08-18T05:11:46Z</time>
<desc><![CDATA[lat.=36.740844, lon.=137.759389, Alt.=2847.924027m. Speed=0.000000m/h.]]></desc>
</trkpt>
<trkpt lat="36.740840" lon="137.759396">
<ele>2848.517288</ele>
<time>2014-08-18T05:11:51Z</time>
<desc><![CDATA[lat.=36.740840, lon.=137.759396, Alt.=2848.517288m. Speed=0.000000m/h.]]></desc>
</trkpt>
<trkpt lat="36.740836" lon="137.759388">
<ele>2849.055992</ele>
<time>2014-08-18T05:11:57Z</time>
<desc><![CDATA[lat.=36.740836, lon.=137.759388, Alt.=2849.055992m. Speed=0.000000m/h.]]></desc>
</trkpt>
<trkpt lat="36.740821" lon="137.759371">
<ele>2851.265365</ele>
<time>2014-08-18T05:12:02Z</time>
<desc><![CDATA[lat.=36.740821, lon.=137.759371, Alt.=2851.265365m. Speed=0.000000m/h.]]></desc>
</trkpt>
<trkpt lat="36.740817" lon="137.759362">
<ele>2851.804069</ele>
<time>2014-08-18T05:12:07Z</time>
<desc><![CDATA[lat.=36.740817, lon.=137.759362, Alt.=2851.804069m. Speed=1.000000m/h.]]></desc>
</trkpt>
<trkpt lat="36.740814" lon="137.759354">
<ele>2852.342773</ele>
<time>2014-08-18T05:12:12Z</time>
<desc><![CDATA[lat.=36.740814, lon.=137.759354, Alt.=2852.342773m. Speed=0.000000m/h.]]></desc>
</trkpt>
<trkpt lat="36.740807" lon="137.759354">
<ele>2851.744577</ele>
<time>2014-08-18T05:12:23Z</time>
<desc><![CDATA[lat.=36.740807, lon.=137.759354, Alt.=2851.744577m. Speed=0.000000m/h.]]></desc>
</trkpt>
<trkpt lat="36.740810" lon="137.759362">
<ele>2851.205873</ele>
<time>2014-08-18T05:12:28Z</time>
<desc><![CDATA[lat.=36.740810, lon.=137.759362, Alt.=2851.205873m. Speed=0.000000m/h.]]></desc>
</trkpt>
<trkpt lat="36.740807" lon="137.759354">
<ele>2851.744577</ele>
<time>2014-08-18T05:12:33Z</time>
<desc><![CDATA[lat.=36.740807, lon.=137.759354, Alt.=2851.744577m. Speed=0.000000m/h.]]></desc>
</trkpt>
<trkpt lat="36.740803" lon="137.759346">
<ele>2852.283281</ele>
<time>2014-08-18T05:12:41Z</time>
<desc><![CDATA[lat.=36.740803, lon.=137.759346, Alt.=2852.283281m. Speed=0.000000m/h.]]></desc>
</trkpt>
<trkpt lat="36.740796" lon="137.759330">
<ele>2851.630528</ele>
<time>2014-08-18T05:12:46Z</time>
<desc><![CDATA[lat.=36.740796, lon.=137.759330, Alt.=2851.630528m. Speed=0.000000m/h.]]></desc>
</trkpt>
<trkpt lat="36.740786" lon="137.759307">
<ele>2849.786318</ele>
<time>2014-08-18T05:12:51Z</time>
<desc><![CDATA[lat.=36.740786, lon.=137.759307, Alt.=2849.786318m. Speed=0.000000m/h.]]></desc>
</trkpt>
<trkpt lat="36.740779" lon="137.759291">
<ele>2849.133566</ele>
<time>2014-08-18T05:12:56Z</time>
<desc><![CDATA[lat.=36.740779, lon.=137.759291, Alt.=2849.133566m. Speed=1.000000m/h.]]></desc>
</trkpt>
<trkpt lat="36.740765" lon="137.759274">
<ele>2849.612781</ele>
<time>2014-08-18T05:13:01Z</time>
<desc><![CDATA[lat.=36.740765, lon.=137.759274, Alt.=2849.612781m. Speed=1.000000m/h.]]></desc>
</trkpt>
<trkpt lat="36.740761" lon="137.759266">
<ele>2850.151486</ele>
<time>2014-08-18T05:13:06Z</time>
<desc><![CDATA[lat.=36.740761, lon.=137.759266, Alt.=2850.151486m. Speed=0.000000m/h.]]></desc>
</trkpt>
<trkpt lat="36.740757" lon="137.759258">
<ele>2850.690192</ele>
<time>2014-08-18T05:13:11Z</time>
<desc><![CDATA[lat.=36.740757, lon.=137.759258, Alt.=2850.690192m. Speed=0.000000m/h.]]></desc>
</trkpt>
<trkpt lat="36.740736" lon="137.759242">
<ele>2848.841051</ele>
<time>2014-08-18T05:13:16Z</time>
<desc><![CDATA[lat.=36.740736, lon.=137.759242, Alt.=2848.841051m. Speed=1.000000m/h.]]></desc>
</trkpt>
<trkpt lat="36.740722" lon="137.759226">
<ele>2847.590106</ele>
<time>2014-08-18T05:13:21Z</time>
<desc><![CDATA[lat.=36.740722, lon.=137.759226, Alt.=2847.590106m. Speed=1.000000m/h.]]></desc>
</trkpt>
<trkpt lat="36.740716" lon="137.759211">
<ele>2845.207194</ele>
<time>2014-08-18T05:13:26Z</time>
<desc><![CDATA[lat.=36.740716, lon.=137.759211, Alt.=2845.207194m. Speed=2.000000m/h.]]></desc>
</trkpt>
<trkpt lat="36.740702" lon="137.759195">
<ele>2843.956250</ele>
<time>2014-08-18T05:13:31Z</time>
<desc><![CDATA[lat.=36.740702, lon.=137.759195, Alt.=2843.956250m. Speed=1.000000m/h.]]></desc>
</trkpt>
<trkpt lat="36.740680" lon="137.759179">
<ele>2842.107113</ele>
<time>2014-08-18T05:13:36Z</time>
<desc><![CDATA[lat.=36.740680, lon.=137.759179, Alt.=2842.107113m. Speed=2.000000m/h.]]></desc>
</trkpt>
<trkpt lat="36.740651" lon="137.759163">
<ele>2841.389944</ele>
<time>2014-08-18T05:13:41Z</time>
<desc><![CDATA[lat.=36.740651, lon.=137.759163, Alt.=2841.389944m. Speed=2.000000m/h.]]></desc>
</trkpt>
<trkpt lat="36.740678" lon="137.759141">
<ele>2839.076388</ele>
<time>2014-08-18T05:13:46Z</time>
<desc><![CDATA[lat.=36.740678, lon.=137.759141, Alt.=2839.076388m. Speed=2.000000m/h.]]></desc>
</trkpt>
<trkpt lat="36.740711" lon="137.759134">
<ele>2840.875905</ele>
<time>2014-08-18T05:13:51Z</time>
<desc><![CDATA[lat.=36.740711, lon.=137.759134, Alt.=2840.875905m. Speed=2.000000m/h.]]></desc>
</trkpt>
<trkpt lat="36.740726" lon="137.759152">
<ele>2836.936362</ele>
<time>2014-08-18T05:13:56Z</time>
<desc><![CDATA[lat.=36.740726, lon.=137.759152, Alt.=2836.936362m. Speed=2.000000m/h.]]></desc>
</trkpt>
<trkpt lat="36.740756" lon="137.759171">
<ele>2832.463048</ele>
<time>2014-08-18T05:14:01Z</time>
<desc><![CDATA[lat.=36.740756, lon.=137.759171, Alt.=2832.463048m. Speed=2.000000m/h.]]></desc>
</trkpt>
<trkpt lat="36.740756" lon="137.759154">
<ele>2834.138657</ele>
<time>2014-08-18T05:14:06Z</time>
<desc><![CDATA[lat.=36.740756, lon.=137.759154, Alt.=2834.138657m. Speed=2.000000m/h.]]></desc>
</trkpt>
<trkpt lat="36.740756" lon="137.759121">
<ele>2837.489874</ele>
<time>2014-08-18T05:14:11Z</time>
<desc><![CDATA[lat.=36.740756, lon.=137.759121, Alt.=2837.489874m. Speed=1.000000m/h.]]></desc>
</trkpt>
<trkpt lat="36.740779" lon="137.759107">
<ele>2835.769584</ele>
<time>2014-08-18T05:14:16Z</time>
<desc><![CDATA[lat.=36.740779, lon.=137.759107, Alt.=2835.769584m. Speed=1.000000m/h.]]></desc>
</trkpt>
<trkpt lat="36.740798" lon="137.759083">
<ele>2836.318164</ele>
<time>2014-08-18T05:14:21Z</time>
<desc><![CDATA[lat.=36.740798, lon.=137.759083, Alt.=2836.318164m. Speed=1.000000m/h.]]></desc>
</trkpt>
<trkpt lat="36.740799" lon="137.759068">
<ele>2834.533450</ele>
<time>2014-08-18T05:14:26Z</time>
<desc><![CDATA[lat.=36.740799, lon.=137.759068, Alt.=2834.533450m. Speed=1.000000m/h.]]></desc>
</trkpt>
<trkpt lat="36.740825" lon="137.759062">
<ele>2832.274455</ele>
<time>2014-08-18T05:14:31Z</time>
<desc><![CDATA[lat.=36.740825, lon.=137.759062, Alt.=2832.274455m. Speed=1.000000m/h.]]></desc>
</trkpt>
<trkpt lat="36.740825" lon="137.759046">
<ele>2833.950066</ele>
<time>2014-08-18T05:14:36Z</time>
<desc><![CDATA[lat.=36.740825, lon.=137.759046, Alt.=2833.950066m. Speed=0.000000m/h.]]></desc>
</trkpt>
<trkpt lat="36.740815" lon="137.759006">
<ele>2833.781475</ele>
<time>2014-08-18T05:14:41Z</time>
<desc><![CDATA[lat.=36.740815, lon.=137.759006, Alt.=2833.781475m. Speed=1.000000m/h.]]></desc>
</trkpt>
<trkpt lat="36.740830" lon="137.759006">
<ele>2833.247705</ele>
<time>2014-08-18T05:14:46Z</time>
<desc><![CDATA[lat.=36.740830, lon.=137.759006, Alt.=2833.247705m. Speed=2.000000m/h.]]></desc>
</trkpt>
<trkpt lat="36.740826" lon="137.758998">
<ele>2833.786413</ele>
<time>2014-08-18T05:14:51Z</time>
<desc><![CDATA[lat.=36.740826, lon.=137.758998, Alt.=2833.786413m. Speed=1.000000m/h.]]></desc>
</trkpt>
<trkpt lat="36.740845" lon="137.758975">
<ele>2834.334998</ele>
<time>2014-08-18T05:14:56Z</time>
<desc><![CDATA[lat.=36.740845, lon.=137.758975, Alt.=2834.334998m. Speed=2.000000m/h.]]></desc>
</trkpt>
<trkpt lat="36.740853" lon="137.758976">
<ele>2831.472870</ele>
<time>2014-08-18T05:15:01Z</time>
<desc><![CDATA[lat.=36.740853, lon.=137.758976, Alt.=2831.472870m. Speed=1.000000m/h.]]></desc>
</trkpt>
<trkpt lat="36.740872" lon="137.758970">
<ele>2828.615682</ele>
<time>2014-08-18T05:15:06Z</time>
<desc><![CDATA[lat.=36.740872, lon.=137.758970, Alt.=2828.615682m. Speed=2.000000m/h.]]></desc>
</trkpt>
<trkpt lat="36.740895" lon="137.758940">
<ele>2826.840850</ele>
<time>2014-08-18T05:15:11Z</time>
<desc><![CDATA[lat.=36.740895, lon.=137.758940, Alt.=2826.840850m. Speed=2.000000m/h.]]></desc>
</trkpt>
<trkpt lat="36.740929" lon="137.758917">
<ele>2828.585834</ele>
<time>2014-08-18T05:15:16Z</time>
<desc><![CDATA[lat.=36.740929, lon.=137.758917, Alt.=2828.585834m. Speed=2.000000m/h.]]></desc>
</trkpt>
<trkpt lat="36.740951" lon="137.758902">
<ele>2828.595717</ele>
<time>2014-08-18T05:15:21Z</time>
<desc><![CDATA[lat.=36.740951, lon.=137.758902, Alt.=2828.595717m. Speed=2.000000m/h.]]></desc>
</trkpt>
<trkpt lat="36.740941" lon="137.758879">
<ele>2826.751517</ele>
<time>2014-08-18T05:15:26Z</time>
<desc><![CDATA[lat.=36.740941, lon.=137.758879, Alt.=2826.751517m. Speed=1.000000m/h.]]></desc>
</trkpt>
<trkpt lat="36.740930" lon="137.758870">
<ele>2826.692027</ele>
<time>2014-08-18T05:15:31Z</time>
<desc><![CDATA[lat.=36.740930, lon.=137.758870, Alt.=2826.692027m. Speed=1.000000m/h.]]></desc>
</trkpt>
<trkpt lat="36.740916" lon="137.758870">
<ele>2825.495632</ele>
<time>2014-08-18T05:15:36Z</time>
<desc><![CDATA[lat.=36.740916, lon.=137.758870, Alt.=2825.495632m. Speed=1.000000m/h.]]></desc>
</trkpt>
<trkpt lat="36.740898" lon="137.758846">
<ele>2824.783398</ele>
<time>2014-08-18T05:15:41Z</time>
<desc><![CDATA[lat.=36.740898, lon.=137.758846, Alt.=2824.783398m. Speed=1.000000m/h.]]></desc>
</trkpt>
<trkpt lat="36.740902" lon="137.758823">
<ele>2824.135595</ele>
<time>2014-08-18T05:15:46Z</time>
<desc><![CDATA[lat.=36.740902, lon.=137.758823, Alt.=2824.135595m. Speed=2.000000m/h.]]></desc>
</trkpt>
<trkpt lat="36.740932" lon="137.758824">
<ele>2823.068061</ele>
<time>2014-08-18T05:15:51Z</time>
<desc><![CDATA[lat.=36.740932, lon.=137.758824, Alt.=2823.068061m. Speed=1.000000m/h.]]></desc>
</trkpt>
<trkpt lat="36.740944" lon="137.758818">
<ele>2821.342841</ele>
<time>2014-08-18T05:15:56Z</time>
<desc><![CDATA[lat.=36.740944, lon.=137.758818, Alt.=2821.342841m. Speed=1.000000m/h.]]></desc>
</trkpt>
<trkpt lat="36.740962" lon="137.758793">
<ele>2823.621597</ele>
<time>2014-08-18T05:16:01Z</time>
<desc><![CDATA[lat.=36.740962, lon.=137.758793, Alt.=2823.621597m. Speed=2.000000m/h.]]></desc>
</trkpt>
<trkpt lat="36.740985" lon="137.758779">
<ele>2821.901322</ele>
<time>2014-08-18T05:16:06Z</time>
<desc><![CDATA[lat.=36.740985, lon.=137.758779, Alt.=2821.901322m. Speed=2.000000m/h.]]></desc>
</trkpt>
<trkpt lat="36.740992" lon="137.758780">
<ele>2820.769358</ele>
<time>2014-08-18T05:16:11Z</time>
<desc><![CDATA[lat.=36.740992, lon.=137.758780, Alt.=2820.769358m. Speed=1.000000m/h.]]></desc>
</trkpt>
<trkpt lat="36.740986" lon="137.758764">
<ele>2820.116614</ele>
<time>2014-08-18T05:16:16Z</time>
<desc><![CDATA[lat.=36.740986, lon.=137.758764, Alt.=2820.116614m. Speed=0.000000m/h.]]></desc>
</trkpt>
<trkpt lat="36.740989" lon="137.758772">
<ele>2819.577905</ele>
<time>2014-08-18T05:16:21Z</time>
<desc><![CDATA[lat.=36.740989, lon.=137.758772, Alt.=2819.577905m. Speed=0.000000m/h.]]></desc>
</trkpt>
<trkpt lat="36.740978" lon="137.758764">
<ele>2819.518415</ele>
<time>2014-08-18T05:16:26Z</time>
<desc><![CDATA[lat.=36.740978, lon.=137.758764, Alt.=2819.518415m. Speed=0.000000m/h.]]></desc>
</trkpt>
<trkpt lat="36.740971" lon="137.758764">
<ele>2818.920217</ele>
<time>2014-08-18T05:16:31Z</time>
<desc><![CDATA[lat.=36.740971, lon.=137.758764, Alt.=2818.920217m. Speed=0.000000m/h.]]></desc>
</trkpt>
<trkpt lat="36.740967" lon="137.758756">
<ele>2819.458926</ele>
<time>2014-08-18T05:16:36Z</time>
<desc><![CDATA[lat.=36.740967, lon.=137.758756, Alt.=2819.458926m. Speed=0.000000m/h.]]></desc>
</trkpt>
<trkpt lat="36.740960" lon="137.758756">
<ele>2818.860728</ele>
<time>2014-08-18T05:16:41Z</time>
<desc><![CDATA[lat.=36.740960, lon.=137.758756, Alt.=2818.860728m. Speed=0.000000m/h.]]></desc>
</trkpt>
<trkpt lat="36.740943" lon="137.758732">
<ele>2818.148496</ele>
<time>2014-08-18T05:16:46Z</time>
<desc><![CDATA[lat.=36.740943, lon.=137.758732, Alt.=2818.148496m. Speed=1.000000m/h.]]></desc>
</trkpt>
<trkpt lat="36.740939" lon="137.758723">
<ele>2818.687206</ele>
<time>2014-08-18T05:16:51Z</time>
<desc><![CDATA[lat.=36.740939, lon.=137.758723, Alt.=2818.687206m. Speed=0.000000m/h.]]></desc>
</trkpt>
<trkpt lat="36.740947" lon="137.758724">
<ele>2817.555241</ele>
<time>2014-08-18T05:16:59Z</time>
<desc><![CDATA[lat.=36.740947, lon.=137.758724, Alt.=2817.555241m. Speed=0.000000m/h.]]></desc>
</trkpt>
<trkpt lat="36.740951" lon="137.758717">
<ele>2816.961987</ele>
<time>2014-08-18T05:17:04Z</time>
<desc><![CDATA[lat.=36.740951, lon.=137.758717, Alt.=2816.961987m. Speed=1.000000m/h.]]></desc>
</trkpt>
<trkpt lat="36.740947" lon="137.758724">
<ele>2817.555241</ele>
<time>2014-08-18T05:17:12Z</time>
<desc><![CDATA[lat.=36.740947, lon.=137.758724, Alt.=2817.555241m. Speed=0.000000m/h.]]></desc>
</trkpt>
<trkpt lat="36.740951" lon="137.758717">
<ele>2816.961987</ele>
<time>2014-08-18T05:17:17Z</time>
<desc><![CDATA[lat.=36.740951, lon.=137.758717, Alt.=2816.961987m. Speed=0.000000m/h.]]></desc>
</trkpt>
<trkpt lat="36.740947" lon="137.758724">
<ele>2817.555241</ele>
<time>2014-08-18T05:17:23Z</time>
<desc><![CDATA[lat.=36.740947, lon.=137.758724, Alt.=2817.555241m. Speed=0.000000m/h.]]></desc>
</trkpt>
<trkpt lat="36.740950" lon="137.758733">
<ele>2817.016532</ele>
<time>2014-08-18T05:17:31Z</time>
<desc><![CDATA[lat.=36.740950, lon.=137.758733, Alt.=2817.016532m. Speed=0.000000m/h.]]></desc>
</trkpt>
<trkpt lat="36.740947" lon="137.758724">
<ele>2817.555241</ele>
<time>2014-08-18T05:17:36Z</time>
<desc><![CDATA[lat.=36.740947, lon.=137.758724, Alt.=2817.555241m. Speed=0.000000m/h.]]></desc>
</trkpt>
<trkpt lat="36.740943" lon="137.758716">
<ele>2818.093951</ele>
<time>2014-08-18T05:17:50Z</time>
<desc><![CDATA[lat.=36.740943, lon.=137.758716, Alt.=2818.093951m. Speed=0.000000m/h.]]></desc>
</trkpt>
<trkpt lat="36.740939" lon="137.758708">
<ele>2818.632661</ele>
<time>2014-08-18T05:17:59Z</time>
<desc><![CDATA[lat.=36.740939, lon.=137.758708, Alt.=2818.632661m. Speed=0.000000m/h.]]></desc>
</trkpt>
<trkpt lat="36.740932" lon="137.758708">
<ele>2818.034463</ele>
<time>2014-08-18T05:18:27Z</time>
<desc><![CDATA[lat.=36.740932, lon.=137.758708, Alt.=2818.034463m. Speed=0.000000m/h.]]></desc>
</trkpt>
<trkpt lat="36.740936" lon="137.758716">
<ele>2817.495753</ele>
<time>2014-08-18T05:18:32Z</time>
<desc><![CDATA[lat.=36.740936, lon.=137.758716, Alt.=2817.495753m. Speed=0.000000m/h.]]></desc>
</trkpt>
<trkpt lat="36.740932" lon="137.758708">
<ele>2818.034463</ele>
<time>2014-08-18T05:18:43Z</time>
<desc><![CDATA[lat.=36.740932, lon.=137.758708, Alt.=2818.034463m. Speed=0.000000m/h.]]></desc>
</trkpt>
<trkpt lat="36.740926" lon="137.758676">
<ele>2817.327177</ele>
<time>2014-08-18T05:18:48Z</time>
<desc><![CDATA[lat.=36.740926, lon.=137.758676, Alt.=2817.327177m. Speed=2.000000m/h.]]></desc>
</trkpt>
<trkpt lat="36.740930" lon="137.758669">
<ele>2815.003760</ele>
<time>2014-08-18T05:18:53Z</time>
<desc><![CDATA[lat.=36.740930, lon.=137.758669, Alt.=2815.003760m. Speed=0.000000m/h.]]></desc>
</trkpt>
<trkpt lat="36.740942" lon="137.758663">
<ele>2813.278542</ele>
<time>2014-08-18T05:18:58Z</time>
<desc><![CDATA[lat.=36.740942, lon.=137.758663, Alt.=2813.278542m. Speed=0.000000m/h.]]></desc>
</trkpt>
<trkpt lat="36.740920" lon="137.758662">
<ele>2813.214111</ele>
<time>2014-08-18T05:19:03Z</time>
<desc><![CDATA[lat.=36.740920, lon.=137.758662, Alt.=2813.214111m. Speed=1.000000m/h.]]></desc>
</trkpt>
<trkpt lat="36.740905" lon="137.758628">
<ele>2817.099116</ele>
<time>2014-08-18T05:19:08Z</time>
<desc><![CDATA[lat.=36.740905, lon.=137.758628, Alt.=2817.099116m. Speed=2.000000m/h.]]></desc>
</trkpt>
<trkpt lat="36.740939" lon="137.758606">
<ele>2815.383785</ele>
<time>2014-08-18T05:19:13Z</time>
<desc><![CDATA[lat.=36.740939, lon.=137.758606, Alt.=2815.383785m. Speed=2.000000m/h.]]></desc>
</trkpt>
<trkpt lat="36.740958" lon="137.758600">
<ele>2812.526603</ele>
<time>2014-08-18T05:19:18Z</time>
<desc><![CDATA[lat.=36.740958, lon.=137.758600, Alt.=2812.526603m. Speed=2.000000m/h.]]></desc>
</trkpt>
<trkpt lat="36.740948" lon="137.758577">
<ele>2810.682411</ele>
<time>2014-08-18T05:19:23Z</time>
<desc><![CDATA[lat.=36.740948, lon.=137.758577, Alt.=2810.682411m. Speed=2.000000m/h.]]></desc>
</trkpt>
<trkpt lat="36.740930" lon="137.758553">
<ele>2809.970185</ele>
<time>2014-08-18T05:19:28Z</time>
<desc><![CDATA[lat.=36.740930, lon.=137.758553, Alt.=2809.970185m. Speed=2.000000m/h.]]></desc>
</trkpt>
<trkpt lat="36.740898" lon="137.758529">
<ele>2808.061566</ele>
<time>2014-08-18T05:19:33Z</time>
<desc><![CDATA[lat.=36.740898, lon.=137.758529, Alt.=2808.061566m. Speed=2.000000m/h.]]></desc>
</trkpt>
<trkpt lat="36.740877" lon="137.758513">
<ele>2806.212433</ele>
<time>2014-08-18T05:19:38Z</time>
<desc><![CDATA[lat.=36.740877, lon.=137.758513, Alt.=2806.212433m. Speed=2.000000m/h.]]></desc>
</trkpt>
<trkpt lat="36.740859" lon="137.758488">
<ele>2807.230374</ele>
<time>2014-08-18T05:19:43Z</time>
<desc><![CDATA[lat.=36.740859, lon.=137.758488, Alt.=2807.230374m. Speed=2.000000m/h.]]></desc>
</trkpt>
<trkpt lat="36.740879" lon="137.758468">
<ele>2800.858325</ele>
<time>2014-08-18T05:19:48Z</time>
<desc><![CDATA[lat.=36.740879, lon.=137.758468, Alt.=2800.858325m. Speed=2.000000m/h.]]></desc>
</trkpt>
<trkpt lat="36.740901" lon="137.758453">
<ele>2800.868214</ele>
<time>2014-08-18T05:19:53Z</time>
<desc><![CDATA[lat.=36.740901, lon.=137.758453, Alt.=2800.868214m. Speed=2.000000m/h.]]></desc>
</trkpt>
<trkpt lat="36.740898" lon="137.758428">
<ele>2803.082550</ele>
<time>2014-08-18T05:19:58Z</time>
<desc><![CDATA[lat.=36.740898, lon.=137.758428, Alt.=2803.082550m. Speed=1.000000m/h.]]></desc>
</trkpt>
<trkpt lat="36.740921" lon="137.758397">
<ele>2803.037902</ele>
<time>2014-08-18T05:20:03Z</time>
<desc><![CDATA[lat.=36.740921, lon.=137.758397, Alt.=2803.037902m. Speed=2.000000m/h.]]></desc>
</trkpt>
<trkpt lat="36.740870" lon="137.758379">
<ele>2802.256309</ele>
<time>2014-08-18T05:20:08Z</time>
<desc><![CDATA[lat.=36.740870, lon.=137.758379, Alt.=2802.256309m. Speed=3.000000m/h.]]></desc>
</trkpt>
<trkpt lat="36.740878" lon="137.758348">
<ele>2802.745430</ele>
<time>2014-08-18T05:20:13Z</time>
<desc><![CDATA[lat.=36.740878, lon.=137.758348, Alt.=2802.745430m. Speed=3.000000m/h.]]></desc>
</trkpt>
<trkpt lat="36.740889" lon="137.758341">
<ele>2801.020213</ele>
<time>2014-08-18T05:20:18Z</time>
<desc><![CDATA[lat.=36.740889, lon.=137.758341, Alt.=2801.020213m. Speed=0.000000m/h.]]></desc>
</trkpt>
<trkpt lat="36.740893" lon="137.758350">
<ele>2798.751336</ele>
<time>2014-08-18T05:20:23Z</time>
<desc><![CDATA[lat.=36.740893, lon.=137.758350, Alt.=2798.751336m. Speed=1.000000m/h.]]></desc>
</trkpt>
<trkpt lat="36.740875" lon="137.758343">
<ele>2796.363493</ele>
<time>2014-08-18T05:20:28Z</time>
<desc><![CDATA[lat.=36.740875, lon.=137.758343, Alt.=2796.363493m. Speed=2.000000m/h.]]></desc>
</trkpt>
<trkpt lat="36.740891" lon="137.758311">
<ele>2797.450813</ele>
<time>2014-08-18T05:20:33Z</time>
<desc><![CDATA[lat.=36.740891, lon.=137.758311, Alt.=2797.450813m. Speed=2.000000m/h.]]></desc>
</trkpt>
<trkpt lat="36.740902" lon="137.758304">
<ele>2795.725597</ele>
<time>2014-08-18T05:20:38Z</time>
<desc><![CDATA[lat.=36.740902, lon.=137.758304, Alt.=2795.725597m. Speed=2.000000m/h.]]></desc>
</trkpt>
<trkpt lat="36.740925" lon="137.758290">
<ele>2794.005327</ele>
<time>2014-08-18T05:20:43Z</time>
<desc><![CDATA[lat.=36.740925, lon.=137.758290, Alt.=2794.005327m. Speed=2.000000m/h.]]></desc>
</trkpt>
<trkpt lat="36.740941" lon="137.758260">
<ele>2791.632325</ele>
<time>2014-08-18T05:20:48Z</time>
<desc><![CDATA[lat.=36.740941, lon.=137.758260, Alt.=2791.632325m. Speed=2.000000m/h.]]></desc>
</trkpt>
<trkpt lat="36.740909" lon="137.758236">
<ele>2789.723714</ele>
<time>2014-08-18T05:20:53Z</time>
<desc><![CDATA[lat.=36.740909, lon.=137.758236, Alt.=2789.723714m. Speed=3.000000m/h.]]></desc>
</trkpt>
<trkpt lat="36.740924" lon="137.758221">
<ele>2789.135411</ele>
<time>2014-08-18T05:20:58Z</time>
<desc><![CDATA[lat.=36.740924, lon.=137.758221, Alt.=2789.135411m. Speed=2.000000m/h.]]></desc>
</trkpt>
<trkpt lat="36.740954" lon="137.758190">
<ele>2789.688970</ele>
<time>2014-08-18T05:21:03Z</time>
<desc><![CDATA[lat.=36.740954, lon.=137.758190, Alt.=2789.688970m. Speed=2.000000m/h.]]></desc>
</trkpt>
<trkpt lat="36.740981" lon="137.758184">
<ele>2787.429990</ele>
<time>2014-08-18T05:21:08Z</time>
<desc><![CDATA[lat.=36.740981, lon.=137.758184, Alt.=2787.429990m. Speed=2.000000m/h.]]></desc>
</trkpt>
<trkpt lat="36.741004" lon="137.758170">
<ele>2783.979564</ele>
<time>2014-08-18T05:21:13Z</time>
<desc><![CDATA[lat.=36.741004, lon.=137.758170, Alt.=2783.979564m. Speed=2.000000m/h.]]></desc>
</trkpt>
<trkpt lat="36.741000" lon="137.758162">
<ele>2784.518279</ele>
<time>2014-08-18T05:21:18Z</time>
<desc><![CDATA[lat.=36.741000, lon.=137.758162, Alt.=2784.518279m. Speed=0.000000m/h.]]></desc>
</trkpt>
<trkpt lat="36.741004" lon="137.758138">
<ele>2785.600659</ele>
<time>2014-08-18T05:21:23Z</time>
<desc><![CDATA[lat.=36.741004, lon.=137.758138, Alt.=2785.600659m. Speed=1.000000m/h.]]></desc>
</trkpt>
<trkpt lat="36.741020" lon="137.758124">
<ele>2783.282198</ele>
<time>2014-08-18T05:21:28Z</time>
<desc><![CDATA[lat.=36.741020, lon.=137.758124, Alt.=2783.282198m. Speed=2.000000m/h.]]></desc>
</trkpt>
<trkpt lat="36.741038" lon="137.758100">
<ele>2783.830816</ele>
<time>2014-08-18T05:21:33Z</time>
<desc><![CDATA[lat.=36.741038, lon.=137.758100, Alt.=2783.830816m. Speed=2.000000m/h.]]></desc>
</trkpt>
<trkpt lat="36.741068" lon="137.758086">
<ele>2782.708756</ele>
<time>2014-08-18T05:21:38Z</time>
<desc><![CDATA[lat.=36.741068, lon.=137.758086, Alt.=2782.708756m. Speed=2.000000m/h.]]></desc>
</trkpt>
<trkpt lat="36.741058" lon="137.758063">
<ele>2780.864577</ele>
<time>2014-08-18T05:21:43Z</time>
<desc><![CDATA[lat.=36.741058, lon.=137.758063, Alt.=2780.864577m. Speed=2.000000m/h.]]></desc>
</trkpt>
<trkpt lat="36.741034" lon="137.758023">
<ele>2779.499632</ele>
<time>2014-08-18T05:21:48Z</time>
<desc><![CDATA[lat.=36.741034, lon.=137.758023, Alt.=2779.499632m. Speed=2.000000m/h.]]></desc>
</trkpt>
<trkpt lat="36.741041" lon="137.757990">
<ele>2781.718933</ele>
<time>2014-08-18T05:21:53Z</time>
<desc><![CDATA[lat.=36.741041, lon.=137.757990, Alt.=2781.718933m. Speed=2.000000m/h.]]></desc>
</trkpt>
<trkpt lat="36.741079" lon="137.758009">
<ele>2777.843810</ele>
<time>2014-08-18T05:21:58Z</time>
<desc><![CDATA[lat.=36.741079, lon.=137.758009, Alt.=2777.843810m. Speed=3.000000m/h.]]></desc>
</trkpt>
<trkpt lat="36.741069" lon="137.757987">
<ele>2772.539307</ele>
<time>2014-08-18T05:22:03Z</time>
<desc><![CDATA[lat.=36.741069, lon.=137.757987, Alt.=2772.539307m. Speed=3.000000m/h.]]></desc>
</trkpt>
<trkpt lat="36.741056" lon="137.757940">
<ele>2771.179319</ele>
<time>2014-08-18T05:22:08Z</time>
<desc><![CDATA[lat.=36.741056, lon.=137.757940, Alt.=2771.179319m. Speed=4.000000m/h.]]></desc>
</trkpt>
<trkpt lat="36.741057" lon="137.757909">
<ele>2769.340097</ele>
<time>2014-08-18T05:22:13Z</time>
<desc><![CDATA[lat.=36.741057, lon.=137.757909, Alt.=2769.340097m. Speed=3.000000m/h.]]></desc>
</trkpt>
<trkpt lat="36.741058" lon="137.757895">
<ele>2765.825243</ele>
<time>2014-08-18T05:22:18Z</time>
<desc><![CDATA[lat.=36.741058, lon.=137.757895, Alt.=2765.825243m. Speed=3.000000m/h.]]></desc>
</trkpt>
<trkpt lat="36.741100" lon="137.757873">
<ele>2764.708142</ele>
<time>2014-08-18T05:22:23Z</time>
<desc><![CDATA[lat.=36.741100, lon.=137.757873, Alt.=2764.708142m. Speed=4.000000m/h.]]></desc>
</trkpt>
<trkpt lat="36.741122" lon="137.757826">
<ele>2766.339161</ele>
<time>2014-08-18T05:22:28Z</time>
<desc><![CDATA[lat.=36.741122, lon.=137.757826, Alt.=2766.339161m. Speed=3.000000m/h.]]></desc>
</trkpt>
<trkpt lat="36.741164" lon="137.757804">
<ele>2765.222067</ele>
<time>2014-08-18T05:22:33Z</time>
<desc><![CDATA[lat.=36.741164, lon.=137.757804, Alt.=2765.222067m. Speed=3.000000m/h.]]></desc>
</trkpt>
<trkpt lat="36.741182" lon="137.757764">
<ele>2767.446336</ele>
<time>2014-08-18T05:22:38Z</time>
<desc><![CDATA[lat.=36.741182, lon.=137.757764, Alt.=2767.446336m. Speed=3.000000m/h.]]></desc>
</trkpt>
<trkpt lat="36.741187" lon="137.757725">
<ele>2766.744042</ele>
<time>2014-08-18T05:22:43Z</time>
<desc><![CDATA[lat.=36.741187, lon.=137.757725, Alt.=2766.744042m. Speed=3.000000m/h.]]></desc>
</trkpt>
<trkpt lat="36.741192" lon="137.757703">
<ele>2762.635947</ele>
<time>2014-08-18T05:22:48Z</time>
<desc><![CDATA[lat.=36.741192, lon.=137.757703, Alt.=2762.635947m. Speed=3.000000m/h.]]></desc>
</trkpt>
<trkpt lat="36.741216" lon="137.757657">
<ele>2760.806654</ele>
<time>2014-08-18T05:22:53Z</time>
<desc><![CDATA[lat.=36.741216, lon.=137.757657, Alt.=2760.806654m. Speed=3.000000m/h.]]></desc>
</trkpt>
<trkpt lat="36.741221" lon="137.757586">
<ele>2759.995320</ele>
<time>2014-08-18T05:22:58Z</time>
<desc><![CDATA[lat.=36.741221, lon.=137.757586, Alt.=2759.995320m. Speed=4.000000m/h.]]></desc>
</trkpt>
<trkpt lat="36.741237" lon="137.757540">
<ele>2759.297995</ele>
<time>2014-08-18T05:23:03Z</time>
<desc><![CDATA[lat.=36.741237, lon.=137.757540, Alt.=2759.297995m. Speed=4.000000m/h.]]></desc>
</trkpt>
<trkpt lat="36.741275" lon="137.757494">
<ele>2758.665118</ele>
<time>2014-08-18T05:23:08Z</time>
<desc><![CDATA[lat.=36.741275, lon.=137.757494, Alt.=2758.665118m. Speed=4.000000m/h.]]></desc>
</trkpt>
<trkpt lat="36.741313" lon="137.757448">
<ele>2758.032246</ele>
<time>2014-08-18T05:23:13Z</time>
<desc><![CDATA[lat.=36.741313, lon.=137.757448, Alt.=2758.032246m. Speed=4.000000m/h.]]></desc>
</trkpt>
<trkpt lat="36.741328" lon="137.757433">
<ele>2757.443970</ele>
<time>2014-08-18T05:23:18Z</time>
<desc><![CDATA[lat.=36.741328, lon.=137.757433, Alt.=2757.443970m. Speed=3.000000m/h.]]></desc>
</trkpt>
<trkpt lat="36.741328" lon="137.757432">
<ele>2759.174133</ele>
<time>2014-08-18T05:23:23Z</time>
<desc><![CDATA[lat.=36.741328, lon.=137.757432, Alt.=2759.174133m. Speed=0.000000m/h.]]></desc>
</trkpt>
<trkpt lat="36.741313" lon="137.757431">
<ele>2759.707890</ele>
<time>2014-08-18T05:23:28Z</time>
<desc><![CDATA[lat.=36.741313, lon.=137.757431, Alt.=2759.707890m. Speed=0.000000m/h.]]></desc>
</trkpt>
<trkpt lat="36.741328" lon="137.757416">
<ele>2759.119614</ele>
<time>2014-08-18T05:23:33Z</time>
<desc><![CDATA[lat.=36.741328, lon.=137.757416, Alt.=2759.119614m. Speed=2.000000m/h.]]></desc>
</trkpt>
<trkpt lat="36.741381" lon="137.757387">
<ele>2758.007513</ele>
<time>2014-08-18T05:23:38Z</time>
<desc><![CDATA[lat.=36.741381, lon.=137.757387, Alt.=2758.007513m. Speed=4.000000m/h.]]></desc>
</trkpt>
<trkpt lat="36.741422" lon="137.757349">
<ele>2756.835935</ele>
<time>2014-08-18T05:23:43Z</time>
<desc><![CDATA[lat.=36.741422, lon.=137.757349, Alt.=2756.835935m. Speed=4.000000m/h.]]></desc>
</trkpt>
<trkpt lat="36.741432" lon="137.757288">
<ele>2753.755746</ele>
<time>2014-08-18T05:23:48Z</time>
<desc><![CDATA[lat.=36.741432, lon.=137.757288, Alt.=2753.755746m. Speed=4.000000m/h.]]></desc>
</trkpt>
<trkpt lat="36.741430" lon="137.757200">
<ele>2754.021891</ele>
<time>2014-08-18T05:23:53Z</time>
<desc><![CDATA[lat.=36.741430, lon.=137.757200, Alt.=2754.021891m. Speed=4.000000m/h.]]></desc>
</trkpt>
<trkpt lat="36.741442" lon="137.757145">
<ele>2753.863318</ele>
<time>2014-08-18T05:23:58Z</time>
<desc><![CDATA[lat.=36.741442, lon.=137.757145, Alt.=2753.863318m. Speed=4.000000m/h.]]></desc>
</trkpt>
<trkpt lat="36.741465" lon="137.757099">
<ele>2753.764231</ele>
<time>2014-08-18T05:24:03Z</time>
<desc><![CDATA[lat.=36.741465, lon.=137.757099, Alt.=2753.764231m. Speed=4.000000m/h.]]></desc>
</trkpt>
<trkpt lat="36.741477" lon="137.757075">
<ele>2753.714689</ele>
<time>2014-08-18T05:24:08Z</time>
<desc><![CDATA[lat.=36.741477, lon.=137.757075, Alt.=2753.714689m. Speed=3.000000m/h.]]></desc>
</trkpt>
<trkpt lat="36.741500" lon="137.757045">
<ele>2751.939955</ele>
<time>2014-08-18T05:24:13Z</time>
<desc><![CDATA[lat.=36.741500, lon.=137.757045, Alt.=2751.939955m. Speed=3.000000m/h.]]></desc>
</trkpt>
<trkpt lat="36.741531" lon="137.757016">
<ele>2749.033267</ele>
<time>2014-08-18T05:24:18Z</time>
<desc><![CDATA[lat.=36.741531, lon.=137.757016, Alt.=2749.033267m. Speed=3.000000m/h.]]></desc>
</trkpt>
<trkpt lat="36.741569" lon="137.756987">
<ele>2746.724787</ele>
<time>2014-08-18T05:24:23Z</time>
<desc><![CDATA[lat.=36.741569, lon.=137.756987, Alt.=2746.724787m. Speed=3.000000m/h.]]></desc>
</trkpt>
<trkpt lat="36.741585" lon="137.756956">
<ele>2746.082018</ele>
<time>2014-08-18T05:24:28Z</time>
<desc><![CDATA[lat.=36.741585, lon.=137.756956, Alt.=2746.082018m. Speed=3.000000m/h.]]></desc>
</trkpt>
<trkpt lat="36.741593" lon="137.756925">
<ele>2744.841043</ele>
<time>2014-08-18T05:24:33Z</time>
<desc><![CDATA[lat.=36.741593, lon.=137.756925, Alt.=2744.841043m. Speed=3.000000m/h.]]></desc>
</trkpt>
<trkpt lat="36.741609" lon="137.756895">
<ele>2742.468113</ele>
<time>2014-08-18T05:24:38Z</time>
<desc><![CDATA[lat.=36.741609, lon.=137.756895, Alt.=2742.468113m. Speed=3.000000m/h.]]></desc>
</trkpt>
<trkpt lat="36.741614" lon="137.756856">
<ele>2740.035702</ele>
<time>2014-08-18T05:24:43Z</time>
<desc><![CDATA[lat.=36.741614, lon.=137.756856, Alt.=2740.035702m. Speed=3.000000m/h.]]></desc>
</trkpt>
<trkpt lat="36.741611" lon="137.756801">
<ele>2740.410905</ele>
<time>2014-08-18T05:24:48Z</time>
<desc><![CDATA[lat.=36.741611, lon.=137.756801, Alt.=2740.410905m. Speed=3.000000m/h.]]></desc>
</trkpt>
<trkpt lat="36.741556" lon="137.756757">
<ele>2745.303989</ele>
<time>2014-08-18T05:24:53Z</time>
<desc><![CDATA[lat.=36.741556, lon.=137.756757, Alt.=2745.303989m. Speed=2.000000m/h.]]></desc>
</trkpt>
<trkpt lat="36.741528" lon="137.756741">
<ele>2742.856658</ele>
<time>2014-08-18T05:24:58Z</time>
<desc><![CDATA[lat.=36.741528, lon.=137.756741, Alt.=2742.856658m. Speed=3.000000m/h.]]></desc>
</trkpt>
<trkpt lat="36.741488" lon="137.756717">
<ele>2740.349850</ele>
<time>2014-08-18T05:25:03Z</time>
<desc><![CDATA[lat.=36.741488, lon.=137.756717, Alt.=2740.349850m. Speed=4.000000m/h.]]></desc>
</trkpt>
<trkpt lat="36.741490" lon="137.756671">
<ele>2736.726009</ele>
<time>2014-08-18T05:25:08Z</time>
<desc><![CDATA[lat.=36.741490, lon.=137.756671, Alt.=2736.726009m. Speed=3.000000m/h.]]></desc>
</trkpt>
<trkpt lat="36.741454" lon="137.756672">
<ele>2732.004819</ele>
<time>2014-08-18T05:25:13Z</time>
<desc><![CDATA[lat.=36.741454, lon.=137.756672, Alt.=2732.004819m. Speed=3.000000m/h.]]></desc>
</trkpt>
<trkpt lat="36.741437" lon="137.756649">
<ele>2729.562469</ele>
<time>2014-08-18T05:25:18Z</time>
<desc><![CDATA[lat.=36.741437, lon.=137.756649, Alt.=2729.562469m. Speed=3.000000m/h.]]></desc>
</trkpt>
<trkpt lat="36.741467" lon="137.756618">
<ele>2730.116119</ele>
<time>2014-08-18T05:25:23Z</time>
<desc><![CDATA[lat.=36.741467, lon.=137.756618, Alt.=2730.116119m. Speed=3.000000m/h.]]></desc>
</trkpt>
<trkpt lat="36.741508" lon="137.756579">
<ele>2730.674747</ele>
<time>2014-08-18T05:25:28Z</time>
<desc><![CDATA[lat.=36.741508, lon.=137.756579, Alt.=2730.674747m. Speed=4.000000m/h.]]></desc>
</trkpt>
<trkpt lat="36.741553" lon="137.756550">
<ele>2728.964489</ele>
<time>2014-08-18T05:25:33Z</time>
<desc><![CDATA[lat.=36.741553, lon.=137.756550, Alt.=2728.964489m. Speed=4.000000m/h.]]></desc>
</trkpt>
<trkpt lat="36.741588" lon="137.756512">
<ele>2727.194756</ele>
<time>2014-08-18T05:25:38Z</time>
<desc><![CDATA[lat.=36.741588, lon.=137.756512, Alt.=2727.194756m. Speed=4.000000m/h.]]></desc>
</trkpt>
<trkpt lat="36.741611" lon="137.756466">
<ele>2727.095713</ele>
<time>2014-08-18T05:25:43Z</time>
<desc><![CDATA[lat.=36.741611, lon.=137.756466, Alt.=2727.095713m. Speed=4.000000m/h.]]></desc>
</trkpt>
<trkpt lat="36.741671" lon="137.756436">
<ele>2726.581884</ele>
<time>2014-08-18T05:25:48Z</time>
<desc><![CDATA[lat.=36.741671, lon.=137.756436, Alt.=2726.581884m. Speed=4.000000m/h.]]></desc>
</trkpt>
<trkpt lat="36.741712" lon="137.756414">
<ele>2727.195035</ele>
<time>2014-08-18T05:25:53Z</time>
<desc><![CDATA[lat.=36.741712, lon.=137.756414, Alt.=2727.195035m. Speed=4.000000m/h.]]></desc>
</trkpt>
<trkpt lat="36.741756" lon="137.756399">
<ele>2727.269463</ele>
<time>2014-08-18T05:25:58Z</time>
<desc><![CDATA[lat.=36.741756, lon.=137.756399, Alt.=2727.269463m. Speed=4.000000m/h.]]></desc>
</trkpt>
<trkpt lat="36.741797" lon="137.756377">
<ele>2727.882623</ele>
<time>2014-08-18T05:26:03Z</time>
<desc><![CDATA[lat.=36.741797, lon.=137.756377, Alt.=2727.882623m. Speed=4.000000m/h.]]></desc>
</trkpt>
<trkpt lat="36.741834" lon="137.756346">
<ele>2729.034514</ele>
<time>2014-08-18T05:26:08Z</time>
<desc><![CDATA[lat.=36.741834, lon.=137.756346, Alt.=2729.034514m. Speed=4.000000m/h.]]></desc>
</trkpt>
<trkpt lat="36.741869" lon="137.756309">
<ele>2725.534646</ele>
<time>2014-08-18T05:26:13Z</time>
<desc><![CDATA[lat.=36.741869, lon.=137.756309, Alt.=2725.534646m. Speed=4.000000m/h.]]></desc>
</trkpt>
<trkpt lat="36.741920" lon="137.756311">
<ele>2724.531633</ele>
<time>2014-08-18T05:26:18Z</time>
<desc><![CDATA[lat.=36.741920, lon.=137.756311, Alt.=2724.531633m. Speed=4.000000m/h.]]></desc>
</trkpt>
<trkpt lat="36.741944" lon="137.756265">
<ele>2724.432617</ele>
<time>2014-08-18T05:26:23Z</time>
<desc><![CDATA[lat.=36.741944, lon.=137.756265, Alt.=2724.432617m. Speed=4.000000m/h.]]></desc>
</trkpt>
<trkpt lat="36.741975" lon="137.756203">
<ele>2723.147157</ele>
<time>2014-08-18T05:26:28Z</time>
<desc><![CDATA[lat.=36.741975, lon.=137.756203, Alt.=2723.147157m. Speed=4.000000m/h.]]></desc>
</trkpt>
<trkpt lat="36.742016" lon="137.756165">
<ele>2723.705846</ele>
<time>2014-08-18T05:26:33Z</time>
<desc><![CDATA[lat.=36.742016, lon.=137.756165, Alt.=2723.705846m. Speed=4.000000m/h.]]></desc>
</trkpt>
<trkpt lat="36.742040" lon="137.756086">
<ele>2723.497858</ele>
<time>2014-08-18T05:26:38Z</time>
<desc><![CDATA[lat.=36.742040, lon.=137.756086, Alt.=2723.497858m. Speed=4.000000m/h.]]></desc>
</trkpt>
<trkpt lat="36.742069" lon="137.756055">
<ele>2725.781728</ele>
<time>2014-08-18T05:26:43Z</time>
<desc><![CDATA[lat.=36.742069, lon.=137.756055, Alt.=2725.781728m. Speed=4.000000m/h.]]></desc>
</trkpt>
<trkpt lat="36.742095" lon="137.756031">
<ele>2726.928658</ele>
<time>2014-08-18T05:26:48Z</time>
<desc><![CDATA[lat.=36.742095, lon.=137.756031, Alt.=2726.928658m. Speed=3.000000m/h.]]></desc>
</trkpt>
<trkpt lat="36.742114" lon="137.756008">
<ele>2727.477376</ele>
<time>2014-08-18T05:26:53Z</time>
<desc><![CDATA[lat.=36.742114, lon.=137.756008, Alt.=2727.477376m. Speed=3.000000m/h.]]></desc>
</trkpt>
<trkpt lat="36.742141" lon="137.755986">
<ele>2726.894145</ele>
<time>2014-08-18T05:26:58Z</time>
<desc><![CDATA[lat.=36.742141, lon.=137.755986, Alt.=2726.894145m. Speed=3.000000m/h.]]></desc>
</trkpt>
<trkpt lat="36.742160" lon="137.755931">
<ele>2727.333887</ele>
<time>2014-08-18T05:27:03Z</time>
<desc><![CDATA[lat.=36.742160, lon.=137.755931, Alt.=2727.333887m. Speed=3.000000m/h.]]></desc>
</trkpt>
<trkpt lat="36.742183" lon="137.755901">
<ele>2725.559227</ele>
<time>2014-08-18T05:27:08Z</time>
<desc><![CDATA[lat.=36.742183, lon.=137.755901, Alt.=2725.559227m. Speed=3.000000m/h.]]></desc>
</trkpt>
<trkpt lat="36.742228" lon="137.755870">
<ele>2725.579217</ele>
<time>2014-08-18T05:27:13Z</time>
<desc><![CDATA[lat.=36.742228, lon.=137.755870, Alt.=2725.579217m. Speed=4.000000m/h.]]></desc>
</trkpt>
<trkpt lat="36.742266" lon="137.755840">
<ele>2725.000995</ele>
<time>2014-08-18T05:27:18Z</time>
<desc><![CDATA[lat.=36.742266, lon.=137.755840, Alt.=2725.000995m. Speed=3.000000m/h.]]></desc>
</trkpt>
<trkpt lat="36.742281" lon="137.755809">
<ele>2726.088455</ele>
<time>2014-08-18T05:27:23Z</time>
<desc><![CDATA[lat.=36.742281, lon.=137.755809, Alt.=2726.088455m. Speed=4.000000m/h.]]></desc>
</trkpt>
<trkpt lat="36.742327" lon="137.755764">
<ele>2724.323807</ele>
<time>2014-08-18T05:27:28Z</time>
<desc><![CDATA[lat.=36.742327, lon.=137.755764, Alt.=2724.323807m. Speed=4.000000m/h.]]></desc>
</trkpt>
<trkpt lat="36.742375" lon="137.755742">
<ele>2723.805084</ele>
<time>2014-08-18T05:27:33Z</time>
<desc><![CDATA[lat.=36.742375, lon.=137.755742, Alt.=2723.805084m. Speed=4.000000m/h.]]></desc>
</trkpt>
<trkpt lat="36.742405" lon="137.755711">
<ele>2724.358823</ele>
<time>2014-08-18T05:27:38Z</time>
<desc><![CDATA[lat.=36.742405, lon.=137.755711, Alt.=2724.358823m. Speed=4.000000m/h.]]></desc>
</trkpt>
<trkpt lat="36.742432" lon="137.755672">
<ele>2723.721132</ele>
<time>2014-08-18T05:27:43Z</time>
<desc><![CDATA[lat.=36.742432, lon.=137.755672, Alt.=2723.721132m. Speed=3.000000m/h.]]></desc>
</trkpt>
<trkpt lat="36.742489" lon="137.755636">
<ele>2720.285829</ele>
<time>2014-08-18T05:27:48Z</time>
<desc><![CDATA[lat.=36.742489, lon.=137.755636, Alt.=2720.285829m. Speed=4.000000m/h.]]></desc>
</trkpt>
<trkpt lat="36.742529" lon="137.755614">
<ele>2720.899069</ele>
<time>2014-08-18T05:27:53Z</time>
<desc><![CDATA[lat.=36.742529, lon.=137.755614, Alt.=2720.899069m. Speed=4.000000m/h.]]></desc>
</trkpt>
<trkpt lat="36.742555" lon="137.755574">
<ele>2723.721717</ele>
<time>2014-08-18T05:27:58Z</time>
<desc><![CDATA[lat.=36.742555, lon.=137.755574, Alt.=2723.721717m. Speed=3.000000m/h.]]></desc>
</trkpt>
<trkpt lat="36.742578" lon="137.755526">
<ele>2725.352936</ele>
<time>2014-08-18T05:28:03Z</time>
<desc><![CDATA[lat.=36.742578, lon.=137.755526, Alt.=2725.352936m. Speed=3.000000m/h.]]></desc>
</trkpt>
<trkpt lat="36.742594" lon="137.755480">
<ele>2724.655773</ele>
<time>2014-08-18T05:28:08Z</time>
<desc><![CDATA[lat.=36.742594, lon.=137.755480, Alt.=2724.655773m. Speed=3.000000m/h.]]></desc>
</trkpt>
<trkpt lat="36.742613" lon="137.755441">
<ele>2725.150046</ele>
<time>2014-08-18T05:28:13Z</time>
<desc><![CDATA[lat.=36.742613, lon.=137.755441, Alt.=2725.150046m. Speed=3.000000m/h.]]></desc>
</trkpt>
<trkpt lat="36.742632" lon="137.755417">
<ele>2725.698799</ele>
<time>2014-08-18T05:28:18Z</time>
<desc><![CDATA[lat.=36.742632, lon.=137.755417, Alt.=2725.698799m. Speed=3.000000m/h.]]></desc>
</trkpt>
<trkpt lat="36.742644" lon="137.755394">
<ele>2725.649333</ele>
<time>2014-08-18T05:28:23Z</time>
<desc><![CDATA[lat.=36.742644, lon.=137.755394, Alt.=2725.649333m. Speed=2.000000m/h.]]></desc>
</trkpt>
<trkpt lat="36.742655" lon="137.755371">
<ele>2725.599867</ele>
<time>2014-08-18T05:28:28Z</time>
<desc><![CDATA[lat.=36.742655, lon.=137.755371, Alt.=2725.599867m. Speed=2.000000m/h.]]></desc>
</trkpt>
<trkpt lat="36.742656" lon="137.755355">
<ele>2725.545389</ele>
<time>2014-08-18T05:28:33Z</time>
<desc><![CDATA[lat.=36.742656, lon.=137.755355, Alt.=2725.545389m. Speed=1.000000m/h.]]></desc>
</trkpt>
<trkpt lat="36.742685" lon="137.755340">
<ele>2726.153637</ele>
<time>2014-08-18T05:28:38Z</time>
<desc><![CDATA[lat.=36.742685, lon.=137.755340, Alt.=2726.153637m. Speed=2.000000m/h.]]></desc>
</trkpt>
<trkpt lat="36.742708" lon="137.755325">
<ele>2726.163663</ele>
<time>2014-08-18T05:28:43Z</time>
<desc><![CDATA[lat.=36.742708, lon.=137.755325, Alt.=2726.163663m. Speed=2.000000m/h.]]></desc>
</trkpt>
<trkpt lat="36.742719" lon="137.755334">
<ele>2724.492989</ele>
<time>2014-08-18T05:28:48Z</time>
<desc><![CDATA[lat.=36.742719, lon.=137.755334, Alt.=2724.492989m. Speed=2.000000m/h.]]></desc>
</trkpt>
<trkpt lat="36.742741" lon="137.755318">
<ele>2726.233182</ele>
<time>2014-08-18T05:28:53Z</time>
<desc><![CDATA[lat.=36.742741, lon.=137.755318, Alt.=2726.233182m. Speed=2.000000m/h.]]></desc>
</trkpt>
<trkpt lat="36.742748" lon="137.755302">
<ele>2726.776929</ele>
<time>2014-08-18T05:28:58Z</time>
<desc><![CDATA[lat.=36.742748, lon.=137.755302, Alt.=2726.776929m. Speed=2.000000m/h.]]></desc>
</trkpt>
<trkpt lat="36.742781" lon="137.755295">
<ele>2728.576614</ele>
<time>2014-08-18T05:29:03Z</time>
<desc><![CDATA[lat.=36.742781, lon.=137.755295, Alt.=2728.576614m. Speed=3.000000m/h.]]></desc>
</trkpt>
<trkpt lat="36.742841" lon="137.755298">
<ele>2724.711586</ele>
<time>2014-08-18T05:29:08Z</time>
<desc><![CDATA[lat.=36.742841, lon.=137.755298, Alt.=2724.711586m. Speed=3.000000m/h.]]></desc>
</trkpt>
<trkpt lat="36.742885" lon="137.755268">
<ele>2726.461819</ele>
<time>2014-08-18T05:29:13Z</time>
<desc><![CDATA[lat.=36.742885, lon.=137.755268, Alt.=2726.461819m. Speed=3.000000m/h.]]></desc>
</trkpt>
<trkpt lat="36.742915" lon="137.755253">
<ele>2727.070081</ele>
<time>2014-08-18T05:29:18Z</time>
<desc><![CDATA[lat.=36.742915, lon.=137.755253, Alt.=2727.070081m. Speed=3.000000m/h.]]></desc>
</trkpt>
<trkpt lat="36.742949" lon="137.755263">
<ele>2723.733760</ele>
<time>2014-08-18T05:29:23Z</time>
<desc><![CDATA[lat.=36.742949, lon.=137.755263, Alt.=2723.733760m. Speed=3.000000m/h.]]></desc>
</trkpt>
<trkpt lat="36.742993" lon="137.755232">
<ele>2727.214169</ele>
<time>2014-08-18T05:29:28Z</time>
<desc><![CDATA[lat.=36.742993, lon.=137.755232, Alt.=2727.214169m. Speed=3.000000m/h.]]></desc>
</trkpt>
<trkpt lat="36.743004" lon="137.755223">
<ele>2728.949353</ele>
<time>2014-08-18T05:29:33Z</time>
<desc><![CDATA[lat.=36.743004, lon.=137.755223, Alt.=2728.949353m. Speed=1.000000m/h.]]></desc>
</trkpt>
<trkpt lat="36.743007" lon="137.755232">
<ele>2728.410622</ele>
<time>2014-08-18T05:29:38Z</time>
<desc><![CDATA[lat.=36.743007, lon.=137.755232, Alt.=2728.410622m. Speed=0.000000m/h.]]></desc>
</trkpt>
<trkpt lat="36.743010" lon="137.755238">
<ele>2731.332219</ele>
<time>2014-08-18T05:29:43Z</time>
<desc><![CDATA[lat.=36.743010, lon.=137.755238, Alt.=2731.332219m. Speed=2.000000m/h.]]></desc>
</trkpt>
<trkpt lat="36.743039" lon="137.755239">
<ele>2731.994963</ele>
<time>2014-08-18T05:29:48Z</time>
<desc><![CDATA[lat.=36.743039, lon.=137.755239, Alt.=2731.994963m. Speed=3.000000m/h.]]></desc>
</trkpt>
<trkpt lat="36.743059" lon="137.755216">
<ele>2730.813574</ele>
<time>2014-08-18T05:29:53Z</time>
<desc><![CDATA[lat.=36.743059, lon.=137.755216, Alt.=2730.813574m. Speed=3.000000m/h.]]></desc>
</trkpt>
<trkpt lat="36.743096" lon="137.755171">
<ele>2730.180964</ele>
<time>2014-08-18T05:29:58Z</time>
<desc><![CDATA[lat.=36.743096, lon.=137.755171, Alt.=2730.180964m. Speed=4.000000m/h.]]></desc>
</trkpt>
<trkpt lat="36.743142" lon="137.755141">
<ele>2728.470896</ele>
<time>2014-08-18T05:30:03Z</time>
<desc><![CDATA[lat.=36.743142, lon.=137.755141, Alt.=2728.470896m. Speed=3.000000m/h.]]></desc>
</trkpt>
<trkpt lat="36.743134" lon="137.755140">
<ele>2729.602832</ele>
<time>2014-08-18T05:30:08Z</time>
<desc><![CDATA[lat.=36.743134, lon.=137.755140, Alt.=2729.602832m. Speed=0.000000m/h.]]></desc>
</trkpt>
<trkpt lat="36.743134" lon="137.755140">
<ele>2731.332996</ele>
<time>2014-08-18T05:30:13Z</time>
<desc><![CDATA[lat.=36.743134, lon.=137.755140, Alt.=2731.332996m. Speed=0.000000m/h.]]></desc>
</trkpt>
<trkpt lat="36.743175" lon="137.755119">
<ele>2728.485972</ele>
<time>2014-08-18T05:30:18Z</time>
<desc><![CDATA[lat.=36.743175, lon.=137.755119, Alt.=2728.485972m. Speed=2.000000m/h.]]></desc>
</trkpt>
<trkpt lat="36.743225" lon="137.755098">
<ele>2724.507018</ele>
<time>2014-08-18T05:30:23Z</time>
<desc><![CDATA[lat.=36.743225, lon.=137.755098, Alt.=2724.507018m. Speed=3.000000m/h.]]></desc>
</trkpt>
<trkpt lat="36.743258" lon="137.755092">
<ele>2724.576571</ele>
<time>2014-08-18T05:30:28Z</time>
<desc><![CDATA[lat.=36.743258, lon.=137.755092, Alt.=2724.576571m. Speed=3.000000m/h.]]></desc>
</trkpt>
<trkpt lat="36.743295" lon="137.755093">
<ele>2724.107396</ele>
<time>2014-08-18T05:30:33Z</time>
<desc><![CDATA[lat.=36.743295, lon.=137.755093, Alt.=2724.107396m. Speed=3.000000m/h.]]></desc>
</trkpt>
<trkpt lat="36.743318" lon="137.755046">
<ele>2724.008512</ele>
<time>2014-08-18T05:30:38Z</time>
<desc><![CDATA[lat.=36.743318, lon.=137.755046, Alt.=2724.008512m. Speed=3.000000m/h.]]></desc>
</trkpt>
<trkpt lat="36.743351" lon="137.755040">
<ele>2724.078072</ele>
<time>2014-08-18T05:30:43Z</time>
<desc><![CDATA[lat.=36.743351, lon.=137.755040, Alt.=2724.078072m. Speed=3.000000m/h.]]></desc>
</trkpt>
<trkpt lat="36.743370" lon="137.755032">
<ele>2724.681334</ele>
<time>2014-08-18T05:30:48Z</time>
<desc><![CDATA[lat.=36.743370, lon.=137.755032, Alt.=2724.681334m. Speed=3.000000m/h.]]></desc>
</trkpt>
<trkpt lat="36.743370" lon="137.755000">
<ele>2726.302558</ele>
<time>2014-08-18T05:30:53Z</time>
<desc><![CDATA[lat.=36.743370, lon.=137.755000, Alt.=2726.302558m. Speed=0.000000m/h.]]></desc>
</trkpt>
<trkpt lat="36.743396" lon="137.754993">
<ele>2725.773890</ele>
<time>2014-08-18T05:30:58Z</time>
<desc><![CDATA[lat.=36.743396, lon.=137.754993, Alt.=2725.773890m. Speed=1.000000m/h.]]></desc>
</trkpt>
<trkpt lat="36.743400" lon="137.755001">
<ele>2725.235159</ele>
<time>2014-08-18T05:31:05Z</time>
<desc><![CDATA[lat.=36.743400, lon.=137.755001, Alt.=2725.235159m. Speed=2.000000m/h.]]></desc>
</trkpt>
<trkpt lat="36.743425" lon="137.755026">
<ele>2724.815431</ele>
<time>2014-08-18T05:31:10Z</time>
<desc><![CDATA[lat.=36.743425, lon.=137.755026, Alt.=2724.815431m. Speed=2.000000m/h.]]></desc>
</trkpt>
<trkpt lat="36.743462" lon="137.755044">
<ele>2722.670574</ele>
<time>2014-08-18T05:31:15Z</time>
<desc><![CDATA[lat.=36.743462, lon.=137.755044, Alt.=2722.670574m. Speed=3.000000m/h.]]></desc>
</trkpt>
<trkpt lat="36.743514" lon="137.755047">
<ele>2719.937554</ele>
<time>2014-08-18T05:31:20Z</time>
<desc><![CDATA[lat.=36.743514, lon.=137.755047, Alt.=2719.937554m. Speed=3.000000m/h.]]></desc>
</trkpt>
<trkpt lat="36.743535" lon="137.755096">
<ele>2718.435341</ele>
<time>2014-08-18T05:31:25Z</time>
<desc><![CDATA[lat.=36.743535, lon.=137.755096, Alt.=2718.435341m. Speed=3.000000m/h.]]></desc>
</trkpt>
<trkpt lat="36.743553" lon="137.755121">
<ele>2717.417389</ele>
<time>2014-08-18T05:31:30Z</time>
<desc><![CDATA[lat.=36.743553, lon.=137.755121, Alt.=2717.417389m. Speed=3.000000m/h.]]></desc>
</trkpt>
<trkpt lat="36.743579" lon="137.755131">
<ele>2715.213036</ele>
<time>2014-08-18T05:31:35Z</time>
<desc><![CDATA[lat.=36.743579, lon.=137.755131, Alt.=2715.213036m. Speed=3.000000m/h.]]></desc>
</trkpt>
<trkpt lat="36.743605" lon="137.755172">
<ele>2713.117631</ele>
<time>2014-08-18T05:31:40Z</time>
<desc><![CDATA[lat.=36.743605, lon.=137.755172, Alt.=2713.117631m. Speed=3.000000m/h.]]></desc>
</trkpt>
<trkpt lat="36.743608" lon="137.755212">
<ele>2712.687850</ele>
<time>2014-08-18T05:31:45Z</time>
<desc><![CDATA[lat.=36.743608, lon.=137.755212, Alt.=2712.687850m. Speed=2.000000m/h.]]></desc>
</trkpt>
<trkpt lat="36.743641" lon="137.755206">
<ele>2711.027263</ele>
<time>2014-08-18T05:31:50Z</time>
<desc><![CDATA[lat.=36.743641, lon.=137.755206, Alt.=2711.027263m. Speed=2.000000m/h.]]></desc>
</trkpt>
<trkpt lat="36.743668" lon="137.755152">
<ele>2710.335188</ele>
<time>2014-08-18T05:31:55Z</time>
<desc><![CDATA[lat.=36.743668, lon.=137.755152, Alt.=2710.335188m. Speed=3.000000m/h.]]></desc>
</trkpt>
<trkpt lat="36.743701" lon="137.755193">
<ele>2708.838024</ele>
<time>2014-08-18T05:32:00Z</time>
<desc><![CDATA[lat.=36.743701, lon.=137.755193, Alt.=2708.838024m. Speed=4.000000m/h.]]></desc>
</trkpt>
<trkpt lat="36.743745" lon="137.755244">
<ele>2705.670212</ele>
<time>2014-08-18T05:32:05Z</time>
<desc><![CDATA[lat.=36.743745, lon.=137.755244, Alt.=2705.670212m. Speed=5.000000m/h.]]></desc>
</trkpt>
<trkpt lat="36.743788" lon="137.755278">
<ele>2704.178096</ele>
<time>2014-08-18T05:32:10Z</time>
<desc><![CDATA[lat.=36.743788, lon.=137.755278, Alt.=2704.178096m. Speed=4.000000m/h.]]></desc>
</trkpt>
<trkpt lat="36.743803" lon="137.755295">
<ele>2701.968719</ele>
<time>2014-08-18T05:32:15Z</time>
<desc><![CDATA[lat.=36.743803, lon.=137.755295, Alt.=2701.968719m. Speed=4.000000m/h.]]></desc>
</trkpt>
<trkpt lat="36.743855" lon="137.755282">
<ele>2700.911422</ele>
<time>2014-08-18T05:32:20Z</time>
<desc><![CDATA[lat.=36.743855, lon.=137.755282, Alt.=2700.911422m. Speed=4.000000m/h.]]></desc>
</trkpt>
<trkpt lat="36.743911" lon="137.755261">
<ele>2699.260932</ele>
<time>2014-08-18T05:32:25Z</time>
<desc><![CDATA[lat.=36.743911, lon.=137.755261, Alt.=2699.260932m. Speed=5.000000m/h.]]></desc>
</trkpt>
<trkpt lat="36.743963" lon="137.755263">
<ele>2698.258121</ele>
<time>2014-08-18T05:32:30Z</time>
<desc><![CDATA[lat.=36.743963, lon.=137.755263, Alt.=2698.258121m. Speed=4.000000m/h.]]></desc>
</trkpt>
<trkpt lat="36.743965" lon="137.755301">
<ele>2701.288672</ele>
<time>2014-08-18T05:32:35Z</time>
<desc><![CDATA[lat.=36.743965, lon.=137.755301, Alt.=2701.288672m. Speed=4.000000m/h.]]></desc>
</trkpt>
<trkpt lat="36.743962" lon="137.755294">
<ele>2700.097233</ele>
<time>2014-08-18T05:32:41Z</time>
<desc><![CDATA[lat.=36.743962, lon.=137.755294, Alt.=2700.097233m. Speed=0.000000m/h.]]></desc>
</trkpt>
<trkpt lat="36.743958" lon="137.755301">
<ele>2700.690432</ele>
<time>2014-08-18T05:32:48Z</time>
<desc><![CDATA[lat.=36.743958, lon.=137.755301, Alt.=2700.690432m. Speed=0.000000m/h.]]></desc>
</trkpt>
<trkpt lat="36.743988" lon="137.755303">
<ele>2699.623067</ele>
<time>2014-08-18T05:32:53Z</time>
<desc><![CDATA[lat.=36.743988, lon.=137.755303, Alt.=2699.623067m. Speed=2.000000m/h.]]></desc>
</trkpt>
<trkpt lat="36.744022" lon="137.755249">
<ele>2697.799081</ele>
<time>2014-08-18T05:32:58Z</time>
<desc><![CDATA[lat.=36.744022, lon.=137.755249, Alt.=2697.799081m. Speed=3.000000m/h.]]></desc>
</trkpt>
<trkpt lat="36.744063" lon="137.755276">
<ele>2695.115548</ele>
<time>2014-08-18T05:33:03Z</time>
<desc><![CDATA[lat.=36.744063, lon.=137.755276, Alt.=2695.115548m. Speed=3.000000m/h.]]></desc>
</trkpt>
<trkpt lat="36.744088" lon="137.755333">
<ele>2693.074650</ele>
<time>2014-08-18T05:33:08Z</time>
<desc><![CDATA[lat.=36.744088, lon.=137.755333, Alt.=2693.074650m. Speed=4.000000m/h.]]></desc>
</trkpt>
<trkpt lat="36.744154" lon="137.755352">
<ele>2691.592655</ele>
<time>2014-08-18T05:33:13Z</time>
<desc><![CDATA[lat.=36.744154, lon.=137.755352, Alt.=2691.592655m. Speed=4.000000m/h.]]></desc>
</trkpt>
<trkpt lat="36.744192" lon="137.755306">
<ele>2690.960117</ele>
<time>2014-08-18T05:33:18Z</time>
<desc><![CDATA[lat.=36.744192, lon.=137.755306, Alt.=2690.960117m. Speed=4.000000m/h.]]></desc>
</trkpt>
<trkpt lat="36.744211" lon="137.755283">
<ele>2691.508932</ele>
<time>2014-08-18T05:33:23Z</time>
<desc><![CDATA[lat.=36.744211, lon.=137.755283, Alt.=2691.508932m. Speed=3.000000m/h.]]></desc>
</trkpt>
<trkpt lat="36.744207" lon="137.755274">
<ele>2693.777818</ele>
<time>2014-08-18T05:33:28Z</time>
<desc><![CDATA[lat.=36.744207, lon.=137.755274, Alt.=2693.777818m. Speed=0.000000m/h.]]></desc>
</trkpt>
<trkpt lat="36.744203" lon="137.755281">
<ele>2694.371015</ele>
<time>2014-08-18T05:33:39Z</time>
<desc><![CDATA[lat.=36.744203, lon.=137.755281, Alt.=2694.371015m. Speed=0.000000m/h.]]></desc>
</trkpt>
<trkpt lat="36.744218" lon="137.755265">
<ele>2695.513028</ele>
<time>2014-08-18T05:33:44Z</time>
<desc><![CDATA[lat.=36.744218, lon.=137.755265, Alt.=2695.513028m. Speed=1.000000m/h.]]></desc>
</trkpt>
<trkpt lat="36.744247" lon="137.755315">
<ele>2692.878939</ele>
<time>2014-08-18T05:33:49Z</time>
<desc><![CDATA[lat.=36.744247, lon.=137.755315, Alt.=2692.878939m. Speed=3.000000m/h.]]></desc>
</trkpt>
<trkpt lat="36.744284" lon="137.755317">
<ele>2690.679672</ele>
<time>2014-08-18T05:33:54Z</time>
<desc><![CDATA[lat.=36.744284, lon.=137.755317, Alt.=2690.679672m. Speed=3.000000m/h.]]></desc>
</trkpt>
<trkpt lat="36.744351" lon="137.755305">
<ele>2687.358588</ele>
<time>2014-08-18T05:33:59Z</time>
<desc><![CDATA[lat.=36.744351, lon.=137.755305, Alt.=2687.358588m. Speed=4.000000m/h.]]></desc>
</trkpt>
<trkpt lat="36.744377" lon="137.755331">
<ele>2685.208753</ele>
<time>2014-08-18T05:34:04Z</time>
<desc><![CDATA[lat.=36.744377, lon.=137.755331, Alt.=2685.208753m. Speed=4.000000m/h.]]></desc>
</trkpt>
<trkpt lat="36.744399" lon="137.755316">
<ele>2685.218854</ele>
<time>2014-08-18T05:34:09Z</time>
<desc><![CDATA[lat.=36.744399, lon.=137.755316, Alt.=2685.218854m. Speed=4.000000m/h.]]></desc>
</trkpt>
<trkpt lat="36.744433" lon="137.755293">
<ele>2685.234006</ele>
<time>2014-08-18T05:34:14Z</time>
<desc><![CDATA[lat.=36.744433, lon.=137.755293, Alt.=2685.234006m. Speed=3.000000m/h.]]></desc>
</trkpt>
<trkpt lat="36.744462" lon="137.755327">
<ele>2682.545455</ele>
<time>2014-08-18T05:34:19Z</time>
<desc><![CDATA[lat.=36.744462, lon.=137.755327, Alt.=2682.545455m. Speed=3.000000m/h.]]></desc>
</trkpt>
<trkpt lat="36.744481" lon="137.755321">
<ele>2679.688429</ele>
<time>2014-08-18T05:34:24Z</time>
<desc><![CDATA[lat.=36.744481, lon.=137.755321, Alt.=2679.688429m. Speed=3.000000m/h.]]></desc>
</trkpt>
<trkpt lat="36.744530" lon="137.755332">
<ele>2677.548707</ele>
<time>2014-08-18T05:34:29Z</time>
<desc><![CDATA[lat.=36.744530, lon.=137.755332, Alt.=2677.548707m. Speed=4.000000m/h.]]></desc>
</trkpt>
<trkpt lat="36.744588" lon="137.755366">
<ele>2677.253158</ele>
<time>2014-08-18T05:34:34Z</time>
<desc><![CDATA[lat.=36.744588, lon.=137.755366, Alt.=2677.253158m. Speed=5.000000m/h.]]></desc>
</trkpt>
<trkpt lat="36.744638" lon="137.755399">
<ele>2678.089530</ele>
<time>2014-08-18T05:34:39Z</time>
<desc><![CDATA[lat.=36.744638, lon.=137.755399, Alt.=2678.089530m. Speed=5.000000m/h.]]></desc>
</trkpt>
<trkpt lat="36.744671" lon="137.755424">
<ele>2678.268126</ele>
<time>2014-08-18T05:34:44Z</time>
<desc><![CDATA[lat.=36.744671, lon.=137.755424, Alt.=2678.268126m. Speed=4.000000m/h.]]></desc>
</trkpt>
<trkpt lat="36.744741" lon="137.755435">
<ele>2676.193013</ele>
<time>2014-08-18T05:34:49Z</time>
<desc><![CDATA[lat.=36.744741, lon.=137.755435, Alt.=2676.193013m. Speed=4.000000m/h.]]></desc>
</trkpt>
<trkpt lat="36.744763" lon="137.755452">
<ele>2676.312082</ele>
<time>2014-08-18T05:34:54Z</time>
<desc><![CDATA[lat.=36.744763, lon.=137.755452, Alt.=2676.312082m. Speed=4.000000m/h.]]></desc>
</trkpt>
<trkpt lat="36.744795" lon="137.755476">
<ele>2676.490687</ele>
<time>2014-08-18T05:34:59Z</time>
<desc><![CDATA[lat.=36.744795, lon.=137.755476, Alt.=2676.490687m. Speed=3.000000m/h.]]></desc>
</trkpt>
<trkpt lat="36.744806" lon="137.755469">
<ele>2676.495744</ele>
<time>2014-08-18T05:35:04Z</time>
<desc><![CDATA[lat.=36.744806, lon.=137.755469, Alt.=2676.495744m. Speed=2.000000m/h.]]></desc>
</trkpt>
<trkpt lat="36.744802" lon="137.755476">
<ele>2677.088939</ele>
<time>2014-08-18T05:35:09Z</time>
<desc><![CDATA[lat.=36.744802, lon.=137.755476, Alt.=2677.088939m. Speed=0.000000m/h.]]></desc>
</trkpt>
<trkpt lat="36.744820" lon="137.755500">
<ele>2677.801205</ele>
<time>2014-08-18T05:35:14Z</time>
<desc><![CDATA[lat.=36.744820, lon.=137.755500, Alt.=2677.801205m. Speed=2.000000m/h.]]></desc>
</trkpt>
<trkpt lat="36.744864" lon="137.755534">
<ele>2676.309190</ele>
<time>2014-08-18T05:35:19Z</time>
<desc><![CDATA[lat.=36.744864, lon.=137.755534, Alt.=2676.309190m. Speed=3.000000m/h.]]></desc>
</trkpt>
<trkpt lat="36.744891" lon="137.755479">
<ele>2677.347319</ele>
<time>2014-08-18T05:35:24Z</time>
<desc><![CDATA[lat.=36.744891, lon.=137.755479, Alt.=2677.347319m. Speed=3.000000m/h.]]></desc>
</trkpt>
<trkpt lat="36.744896" lon="137.755408">
<ele>2678.266379</ele>
<time>2014-08-18T05:35:29Z</time>
<desc><![CDATA[lat.=36.744896, lon.=137.755408, Alt.=2678.266379m. Speed=4.000000m/h.]]></desc>
</trkpt>
<trkpt lat="36.744917" lon="137.755323">
<ele>2675.136990</ele>
<time>2014-08-18T05:35:34Z</time>
<desc><![CDATA[lat.=36.744917, lon.=137.755323, Alt.=2675.136990m. Speed=5.000000m/h.]]></desc>
</trkpt>
<trkpt lat="36.744968" lon="137.755357">
<ele>2674.243230</ele>
<time>2014-08-18T05:35:39Z</time>
<desc><![CDATA[lat.=36.744968, lon.=137.755357, Alt.=2674.243230m. Speed=5.000000m/h.]]></desc>
</trkpt>
<trkpt lat="36.745005" lon="137.755359">
<ele>2672.044015</ele>
<time>2014-08-18T05:35:44Z</time>
<desc><![CDATA[lat.=36.745005, lon.=137.755359, Alt.=2672.044015m. Speed=4.000000m/h.]]></desc>
</trkpt>
<trkpt lat="36.745046" lon="137.755353">
<ele>2670.981774</ele>
<time>2014-08-18T05:35:49Z</time>
<desc><![CDATA[lat.=36.745046, lon.=137.755353, Alt.=2670.981774m. Speed=4.000000m/h.]]></desc>
</trkpt>
<trkpt lat="36.745086" lon="137.755379">
<ele>2670.028488</ele>
<time>2014-08-18T05:35:54Z</time>
<desc><![CDATA[lat.=36.745086, lon.=137.755379, Alt.=2670.028488m. Speed=4.000000m/h.]]></desc>
</trkpt>
<trkpt lat="36.745111" lon="137.755403">
<ele>2669.608855</ele>
<time>2014-08-18T05:35:59Z</time>
<desc><![CDATA[lat.=36.745111, lon.=137.755403, Alt.=2669.608855m. Speed=4.000000m/h.]]></desc>
</trkpt>
<trkpt lat="36.745155" lon="137.755453">
<ele>2668.171338</ele>
<time>2014-08-18T05:36:04Z</time>
<desc><![CDATA[lat.=36.745155, lon.=137.755453, Alt.=2668.171338m. Speed=4.000000m/h.]]></desc>
</trkpt>
<trkpt lat="36.745195" lon="137.755463">
<ele>2667.163585</ele>
<time>2014-08-18T05:36:09Z</time>
<desc><![CDATA[lat.=36.745195, lon.=137.755463, Alt.=2667.163585m. Speed=4.000000m/h.]]></desc>
</trkpt>
<trkpt lat="36.745258" lon="137.755458">
<ele>2666.165970</ele>
<time>2014-08-18T05:36:14Z</time>
<desc><![CDATA[lat.=36.745258, lon.=137.755458, Alt.=2666.165970m. Speed=4.000000m/h.]]></desc>
</trkpt>
<trkpt lat="36.745299" lon="137.755451">
<ele>2666.833911</ele>
<time>2014-08-18T05:36:19Z</time>
<desc><![CDATA[lat.=36.745299, lon.=137.755451, Alt.=2666.833911m. Speed=4.000000m/h.]]></desc>
</trkpt>
<trkpt lat="36.745340" lon="137.755446">
<ele>2664.041530</ele>
<time>2014-08-18T05:36:24Z</time>
<desc><![CDATA[lat.=36.745340, lon.=137.755446, Alt.=2664.041530m. Speed=3.000000m/h.]]></desc>
</trkpt>
<trkpt lat="36.745343" lon="137.755454">
<ele>2663.502818</ele>
<time>2014-08-18T05:36:29Z</time>
<desc><![CDATA[lat.=36.745343, lon.=137.755454, Alt.=2663.502818m. Speed=0.000000m/h.]]></desc>
</trkpt>
<trkpt lat="36.745340" lon="137.755446">
<ele>2664.041530</ele>
<time>2014-08-18T05:36:34Z</time>
<desc><![CDATA[lat.=36.745340, lon.=137.755446, Alt.=2664.041530m. Speed=0.000000m/h.]]></desc>
</trkpt>
<trkpt lat="36.745362" lon="137.755447">
<ele>2662.375985</ele>
<time>2014-08-18T05:36:39Z</time>
<desc><![CDATA[lat.=36.745362, lon.=137.755447, Alt.=2662.375985m. Speed=2.000000m/h.]]></desc>
</trkpt>
<trkpt lat="36.745384" lon="137.755465">
<ele>2660.764918</ele>
<time>2014-08-18T05:36:44Z</time>
<desc><![CDATA[lat.=36.745384, lon.=137.755465, Alt.=2660.764918m. Speed=2.000000m/h.]]></desc>
</trkpt>
<trkpt lat="36.745392" lon="137.755465">
<ele>2659.633016</ele>
<time>2014-08-18T05:36:49Z</time>
<desc><![CDATA[lat.=36.745392, lon.=137.755465, Alt.=2659.633016m. Speed=0.000000m/h.]]></desc>
</trkpt>
<trkpt lat="36.745407" lon="137.755450">
<ele>2659.044897</ele>
<time>2014-08-18T05:36:54Z</time>
<desc><![CDATA[lat.=36.745407, lon.=137.755450, Alt.=2659.044897m. Speed=1.000000m/h.]]></desc>
</trkpt>
<trkpt lat="36.745429" lon="137.755468">
<ele>2657.433832</ele>
<time>2014-08-18T05:36:59Z</time>
<desc><![CDATA[lat.=36.745429, lon.=137.755468, Alt.=2657.433832m. Speed=2.000000m/h.]]></desc>
</trkpt>
<trkpt lat="36.745444" lon="137.755468">
<ele>2656.900192</ele>
<time>2014-08-18T05:37:04Z</time>
<desc><![CDATA[lat.=36.745444, lon.=137.755468, Alt.=2656.900192m. Speed=0.000000m/h.]]></desc>
</trkpt>
<trkpt lat="36.745456" lon="137.755445">
<ele>2656.850786</ele>
<time>2014-08-18T05:37:09Z</time>
<desc><![CDATA[lat.=36.745456, lon.=137.755445, Alt.=2656.850786m. Speed=1.000000m/h.]]></desc>
</trkpt>
<trkpt lat="36.745456" lon="137.755429">
<ele>2656.796310</ele>
<time>2014-08-18T05:37:14Z</time>
<desc><![CDATA[lat.=36.745456, lon.=137.755429, Alt.=2656.796310m. Speed=0.000000m/h.]]></desc>
</trkpt>
<trkpt lat="36.745464" lon="137.755430">
<ele>2655.664409</ele>
<time>2014-08-18T05:37:19Z</time>
<desc><![CDATA[lat.=36.745464, lon.=137.755430, Alt.=2655.664409m. Speed=0.000000m/h.]]></desc>
</trkpt>
<trkpt lat="36.745467" lon="137.755438">
<ele>2655.125697</ele>
<time>2014-08-18T05:37:24Z</time>
<desc><![CDATA[lat.=36.745467, lon.=137.755438, Alt.=2655.125697m. Speed=0.000000m/h.]]></desc>
</trkpt>
<trkpt lat="36.745463" lon="137.755446">
<ele>2655.718885</ele>
<time>2014-08-18T05:37:29Z</time>
<desc><![CDATA[lat.=36.745463, lon.=137.755446, Alt.=2655.718885m. Speed=0.000000m/h.]]></desc>
</trkpt>
<trkpt lat="36.745460" lon="137.755438">
<ele>2656.257597</ele>
<time>2014-08-18T05:37:34Z</time>
<desc><![CDATA[lat.=36.745460, lon.=137.755438, Alt.=2656.257597m. Speed=0.000000m/h.]]></desc>
</trkpt>
<trkpt lat="36.745486" lon="137.755432">
<ele>2653.998869</ele>
<time>2014-08-18T05:37:39Z</time>
<desc><![CDATA[lat.=36.745486, lon.=137.755432, Alt.=2653.998869m. Speed=2.000000m/h.]]></desc>
</trkpt>
<trkpt lat="36.745501" lon="137.755449">
<ele>2651.789545</ele>
<time>2014-08-18T05:37:44Z</time>
<desc><![CDATA[lat.=36.745501, lon.=137.755449, Alt.=2651.789545m. Speed=0.000000m/h.]]></desc>
</trkpt>
<trkpt lat="36.745493" lon="137.755448">
<ele>2652.921445</ele>
<time>2014-08-18T05:37:49Z</time>
<desc><![CDATA[lat.=36.745493, lon.=137.755448, Alt.=2652.921445m. Speed=0.000000m/h.]]></desc>
</trkpt>
<trkpt lat="36.745519" lon="137.755473">
<ele>2652.501834</ele>
<time>2014-08-18T05:37:54Z</time>
<desc><![CDATA[lat.=36.745519, lon.=137.755473, Alt.=2652.501834m. Speed=3.000000m/h.]]></desc>
</trkpt>
<trkpt lat="36.745567" lon="137.755435">
<ele>2651.928941</ele>
<time>2014-08-18T05:37:59Z</time>
<desc><![CDATA[lat.=36.745567, lon.=137.755435, Alt.=2651.928941m. Speed=3.000000m/h.]]></desc>
</trkpt>
<trkpt lat="36.745585" lon="137.755476">
<ele>2650.965548</ele>
<time>2014-08-18T05:38:04Z</time>
<desc><![CDATA[lat.=36.745585, lon.=137.755476, Alt.=2650.965548m. Speed=3.000000m/h.]]></desc>
</trkpt>
<trkpt lat="36.745623" lon="137.755446">
<ele>2650.387586</ele>
<time>2014-08-18T05:38:09Z</time>
<desc><![CDATA[lat.=36.745623, lon.=137.755446, Alt.=2650.387586m. Speed=3.000000m/h.]]></desc>
</trkpt>
<trkpt lat="36.745646" lon="137.755399">
<ele>2650.288786</ele>
<time>2014-08-18T05:38:14Z</time>
<desc><![CDATA[lat.=36.745646, lon.=137.755399, Alt.=2650.288786m. Speed=3.000000m/h.]]></desc>
</trkpt>
<trkpt lat="36.745669" lon="137.755353">
<ele>2648.459827</ele>
<time>2014-08-18T05:38:19Z</time>
<desc><![CDATA[lat.=36.745669, lon.=137.755353, Alt.=2648.459827m. Speed=3.000000m/h.]]></desc>
</trkpt>
<trkpt lat="36.745699" lon="137.755356">
<ele>2645.662398</ele>
<time>2014-08-18T05:38:24Z</time>
<desc><![CDATA[lat.=36.745699, lon.=137.755356, Alt.=2645.662398m. Speed=3.000000m/h.]]></desc>
</trkpt>
<trkpt lat="36.745717" lon="137.755412">
<ele>2644.753482</ele>
<time>2014-08-18T05:38:29Z</time>
<desc><![CDATA[lat.=36.745717, lon.=137.755412, Alt.=2644.753482m. Speed=3.000000m/h.]]></desc>
</trkpt>
<trkpt lat="36.745758" lon="137.755391">
<ele>2641.906659</ele>
<time>2014-08-18T05:38:34Z</time>
<desc><![CDATA[lat.=36.745758, lon.=137.755391, Alt.=2641.906659m. Speed=3.000000m/h.]]></desc>
</trkpt>
<trkpt lat="36.745770" lon="137.755352">
<ele>2641.802788</ele>
<time>2014-08-18T05:38:39Z</time>
<desc><![CDATA[lat.=36.745770, lon.=137.755352, Alt.=2641.802788m. Speed=3.000000m/h.]]></desc>
</trkpt>
<trkpt lat="36.745808" lon="137.755338">
<ele>2641.279318</ele>
<time>2014-08-18T05:38:44Z</time>
<desc><![CDATA[lat.=36.745808, lon.=137.755338, Alt.=2641.279318m. Speed=3.000000m/h.]]></desc>
</trkpt>
<trkpt lat="36.745840" lon="137.755347">
<ele>2641.403511</ele>
<time>2014-08-18T05:38:49Z</time>
<desc><![CDATA[lat.=36.745840, lon.=137.755347, Alt.=2641.403511m. Speed=3.000000m/h.]]></desc>
</trkpt>
<trkpt lat="36.745874" lon="137.755340">
<ele>2641.473231</ele>
<time>2014-08-18T05:38:54Z</time>
<desc><![CDATA[lat.=36.745874, lon.=137.755340, Alt.=2641.473231m. Speed=3.000000m/h.]]></desc>
</trkpt>
<trkpt lat="36.745914" lon="137.755350">
<ele>2640.465533</ele>
<time>2014-08-18T05:38:59Z</time>
<desc><![CDATA[lat.=36.745914, lon.=137.755350, Alt.=2640.465533m. Speed=3.000000m/h.]]></desc>
</trkpt>
<trkpt lat="36.745974" lon="137.755320">
<ele>2639.952242</ele>
<time>2014-08-18T05:39:04Z</time>
<desc><![CDATA[lat.=36.745974, lon.=137.755320, Alt.=2639.952242m. Speed=4.000000m/h.]]></desc>
</trkpt>
<trkpt lat="36.745967" lon="137.755304">
<ele>2641.029662</ele>
<time>2014-08-18T05:39:09Z</time>
<desc><![CDATA[lat.=36.745967, lon.=137.755304, Alt.=2641.029662m. Speed=0.000000m/h.]]></desc>
</trkpt>
<trkpt lat="36.745959" lon="137.755287">
<ele>2642.107082</ele>
<time>2014-08-18T05:39:14Z</time>
<desc><![CDATA[lat.=36.745959, lon.=137.755287, Alt.=2642.107082m. Speed=0.000000m/h.]]></desc>
</trkpt>
<trkpt lat="36.745963" lon="137.755295">
<ele>2643.298533</ele>
<time>2014-08-18T05:39:19Z</time>
<desc><![CDATA[lat.=36.745963, lon.=137.755295, Alt.=2643.298533m. Speed=0.000000m/h.]]></desc>
</trkpt>
<trkpt lat="36.745963" lon="137.755296">
<ele>2641.568372</ele>
<time>2014-08-18T05:39:24Z</time>
<desc><![CDATA[lat.=36.745963, lon.=137.755296, Alt.=2641.568372m. Speed=0.000000m/h.]]></desc>
</trkpt>
<trkpt lat="36.745970" lon="137.755296">
<ele>2642.166640</ele>
<time>2014-08-18T05:39:30Z</time>
<desc><![CDATA[lat.=36.745970, lon.=137.755296, Alt.=2642.166640m. Speed=1.000000m/h.]]></desc>
</trkpt>
<trkpt lat="36.745992" lon="137.755280">
<ele>2643.906972</ele>
<time>2014-08-18T05:39:35Z</time>
<desc><![CDATA[lat.=36.745992, lon.=137.755280, Alt.=2643.906972m. Speed=2.000000m/h.]]></desc>
</trkpt>
<trkpt lat="36.745996" lon="137.755271">
<ele>2645.043950</ele>
<time>2014-08-18T05:39:40Z</time>
<desc><![CDATA[lat.=36.745996, lon.=137.755271, Alt.=2645.043950m. Speed=0.000000m/h.]]></desc>
</trkpt>
<trkpt lat="36.746003" lon="137.755271">
<ele>2645.642219</ele>
<time>2014-08-18T05:39:45Z</time>
<desc><![CDATA[lat.=36.746003, lon.=137.755271, Alt.=2645.642219m. Speed=1.000000m/h.]]></desc>
</trkpt>
<trkpt lat="36.746032" lon="137.755272">
<ele>2646.305133</ele>
<time>2014-08-18T05:39:50Z</time>
<desc><![CDATA[lat.=36.746032, lon.=137.755272, Alt.=2646.305133m. Speed=2.000000m/h.]]></desc>
</trkpt>
<trkpt lat="36.746070" lon="137.755258">
<ele>2645.781683</ele>
<time>2014-08-18T05:39:55Z</time>
<desc><![CDATA[lat.=36.746070, lon.=137.755258, Alt.=2645.781683m. Speed=3.000000m/h.]]></desc>
</trkpt>
<trkpt lat="36.746100" lon="137.755244">
<ele>2644.659967</ele>
<time>2014-08-18T05:40:00Z</time>
<desc><![CDATA[lat.=36.746100, lon.=137.755244, Alt.=2644.659967m. Speed=2.000000m/h.]]></desc>
</trkpt>
<trkpt lat="36.746122" lon="137.755213">
<ele>2644.615671</ele>
<time>2014-08-18T05:40:05Z</time>
<desc><![CDATA[lat.=36.746122, lon.=137.755213, Alt.=2644.615671m. Speed=2.000000m/h.]]></desc>
</trkpt>
<trkpt lat="36.746141" lon="137.755189">
<ele>2645.164559</ele>
<time>2014-08-18T05:40:10Z</time>
<desc><![CDATA[lat.=36.746141, lon.=137.755189, Alt.=2645.164559m. Speed=2.000000m/h.]]></desc>
</trkpt>
<trkpt lat="36.746160" lon="137.755166">
<ele>2645.713449</ele>
<time>2014-08-18T05:40:15Z</time>
<desc><![CDATA[lat.=36.746160, lon.=137.755166, Alt.=2645.713449m. Speed=2.000000m/h.]]></desc>
</trkpt>
<trkpt lat="36.746167" lon="137.755149">
<ele>2647.987411</ele>
<time>2014-08-18T05:40:20Z</time>
<desc><![CDATA[lat.=36.746167, lon.=137.755149, Alt.=2647.987411m. Speed=2.000000m/h.]]></desc>
</trkpt>
<trkpt lat="36.746186" lon="137.755110">
<ele>2650.211994</ele>
<time>2014-08-18T05:40:25Z</time>
<desc><![CDATA[lat.=36.746186, lon.=137.755110, Alt.=2650.211994m. Speed=2.000000m/h.]]></desc>
</trkpt>
<trkpt lat="36.746212" lon="137.755135">
<ele>2648.062245</ele>
<time>2014-08-18T05:40:30Z</time>
<desc><![CDATA[lat.=36.746212, lon.=137.755135, Alt.=2648.062245m. Speed=2.000000m/h.]]></desc>
</trkpt>
<trkpt lat="36.746216" lon="137.755111">
<ele>2649.144756</ele>
<time>2014-08-18T05:40:35Z</time>
<desc><![CDATA[lat.=36.746216, lon.=137.755111, Alt.=2649.144756m. Speed=2.000000m/h.]]></desc>
</trkpt>
<trkpt lat="36.746230" lon="137.755095">
<ele>2650.286830</ele>
<time>2014-08-18T05:40:40Z</time>
<desc><![CDATA[lat.=36.746230, lon.=137.755095, Alt.=2650.286830m. Speed=2.000000m/h.]]></desc>
</trkpt>
<trkpt lat="36.746252" lon="137.755112">
<ele>2650.405954</ele>
<time>2014-08-18T05:40:45Z</time>
<desc><![CDATA[lat.=36.746252, lon.=137.755112, Alt.=2650.405954m. Speed=2.000000m/h.]]></desc>
</trkpt>
<trkpt lat="36.746252" lon="137.755079">
<ele>2653.757339</ele>
<time>2014-08-18T05:40:50Z</time>
<desc><![CDATA[lat.=36.746252, lon.=137.755079, Alt.=2653.757339m. Speed=2.000000m/h.]]></desc>
</trkpt>
<trkpt lat="36.746274" lon="137.755079">
<ele>2653.821994</ele>
<time>2014-08-18T05:40:55Z</time>
<desc><![CDATA[lat.=36.746274, lon.=137.755079, Alt.=2653.821994m. Speed=2.000000m/h.]]></desc>
</trkpt>
<trkpt lat="36.746300" lon="137.755105">
<ele>2651.672248</ele>
<time>2014-08-18T05:41:00Z</time>
<desc><![CDATA[lat.=36.746300, lon.=137.755105, Alt.=2651.672248m. Speed=2.000000m/h.]]></desc>
</trkpt>
<trkpt lat="36.746290" lon="137.755065">
<ele>2651.503747</ele>
<time>2014-08-18T05:41:05Z</time>
<desc><![CDATA[lat.=36.746290, lon.=137.755065, Alt.=2651.503747m. Speed=2.000000m/h.]]></desc>
</trkpt>
<trkpt lat="36.746298" lon="137.755034">
<ele>2651.993083</ele>
<time>2014-08-18T05:41:10Z</time>
<desc><![CDATA[lat.=36.746298, lon.=137.755034, Alt.=2651.993083m. Speed=2.000000m/h.]]></desc>
</trkpt>
<trkpt lat="36.746312" lon="137.755034">
<ele>2653.189629</ele>
<time>2014-08-18T05:41:15Z</time>
<desc><![CDATA[lat.=36.746312, lon.=137.755034, Alt.=2653.189629m. Speed=2.000000m/h.]]></desc>
</trkpt>
<trkpt lat="36.746323" lon="137.755009">
<ele>2654.870417</ele>
<time>2014-08-18T05:41:20Z</time>
<desc><![CDATA[lat.=36.746323, lon.=137.755009, Alt.=2654.870417m. Speed=2.000000m/h.]]></desc>
</trkpt>
<trkpt lat="36.746316" lon="137.754976">
<ele>2657.623533</ele>
<time>2014-08-18T05:41:25Z</time>
<desc><![CDATA[lat.=36.746316, lon.=137.754976, Alt.=2657.623533m. Speed=2.000000m/h.]]></desc>
</trkpt>
<trkpt lat="36.746320" lon="137.754953">
<ele>2656.975888</ele>
<time>2014-08-18T05:41:30Z</time>
<desc><![CDATA[lat.=36.746320, lon.=137.754953, Alt.=2656.975888m. Speed=2.000000m/h.]]></desc>
</trkpt>
<trkpt lat="36.746332" lon="137.754946">
<ele>2655.250822</ele>
<time>2014-08-18T05:41:35Z</time>
<desc><![CDATA[lat.=36.746332, lon.=137.754946, Alt.=2655.250822m. Speed=1.000000m/h.]]></desc>
</trkpt>
<trkpt lat="36.746328" lon="137.754921">
<ele>2657.465229</ele>
<time>2014-08-18T05:41:40Z</time>
<desc><![CDATA[lat.=36.746328, lon.=137.754921, Alt.=2657.465229m. Speed=2.000000m/h.]]></desc>
</trkpt>
<trkpt lat="36.746335" lon="137.754905">
<ele>2659.739198</ele>
<time>2014-08-18T05:41:45Z</time>
<desc><![CDATA[lat.=36.746335, lon.=137.754905, Alt.=2659.739198m. Speed=0.000000m/h.]]></desc>
</trkpt>
<trkpt lat="36.746343" lon="137.754922">
<ele>2656.931614</ele>
<time>2014-08-18T05:41:50Z</time>
<desc><![CDATA[lat.=36.746343, lon.=137.754922, Alt.=2656.931614m. Speed=0.000000m/h.]]></desc>
</trkpt>
<trkpt lat="36.746365" lon="137.754923">
<ele>2656.996273</ele>
<time>2014-08-18T05:41:55Z</time>
<desc><![CDATA[lat.=36.746365, lon.=137.754923, Alt.=2656.996273m. Speed=2.000000m/h.]]></desc>
</trkpt>
<trkpt lat="36.746372" lon="137.754923">
<ele>2657.594547</ele>
<time>2014-08-18T05:42:00Z</time>
<desc><![CDATA[lat.=36.746372, lon.=137.754923, Alt.=2657.594547m. Speed=1.000000m/h.]]></desc>
</trkpt>
<trkpt lat="36.746369" lon="137.754883">
<ele>2658.024327</ele>
<time>2014-08-18T05:42:05Z</time>
<desc><![CDATA[lat.=36.746369, lon.=137.754883, Alt.=2658.024327m. Speed=2.000000m/h.]]></desc>
</trkpt>
<trkpt lat="36.746377" lon="137.754867">
<ele>2658.568136</ele>
<time>2014-08-18T05:42:10Z</time>
<desc><![CDATA[lat.=36.746377, lon.=137.754867, Alt.=2658.568136m. Speed=2.000000m/h.]]></desc>
</trkpt>
<trkpt lat="36.746406" lon="137.754900">
<ele>2657.609839</ele>
<time>2014-08-18T05:42:15Z</time>
<desc><![CDATA[lat.=36.746406, lon.=137.754900, Alt.=2657.609839m. Speed=2.000000m/h.]]></desc>
</trkpt>
<trkpt lat="36.746431" lon="137.754925">
<ele>2657.190256</ele>
<time>2014-08-18T05:42:20Z</time>
<desc><![CDATA[lat.=36.746431, lon.=137.754925, Alt.=2657.190256m. Speed=2.000000m/h.]]></desc>
</trkpt>
<trkpt lat="36.746438" lon="137.754941">
<ele>2657.842997</ele>
<time>2014-08-18T05:42:25Z</time>
<desc><![CDATA[lat.=36.746438, lon.=137.754941, Alt.=2657.842997m. Speed=2.000000m/h.]]></desc>
</trkpt>
<trkpt lat="36.746431" lon="137.754892">
<ele>2660.541648</ele>
<time>2014-08-18T05:42:30Z</time>
<desc><![CDATA[lat.=36.746431, lon.=137.754892, Alt.=2660.541648m. Speed=2.000000m/h.]]></desc>
</trkpt>
<trkpt lat="36.746453" lon="137.754908">
<ele>2662.390938</ele>
<time>2014-08-18T05:42:35Z</time>
<desc><![CDATA[lat.=36.746453, lon.=137.754908, Alt.=2662.390938m. Speed=2.000000m/h.]]></desc>
</trkpt>
<trkpt lat="36.746474" lon="137.754908">
<ele>2664.185763</ele>
<time>2014-08-18T05:42:40Z</time>
<desc><![CDATA[lat.=36.746474, lon.=137.754908, Alt.=2664.185763m. Speed=2.000000m/h.]]></desc>
</trkpt>
<trkpt lat="36.746459" lon="137.754874">
<ele>2668.070768</ele>
<time>2014-08-18T05:42:45Z</time>
<desc><![CDATA[lat.=36.746459, lon.=137.754874, Alt.=2668.070768m. Speed=2.000000m/h.]]></desc>
</trkpt>
<trkpt lat="36.746463" lon="137.754849">
<ele>2670.883451</ele>
<time>2014-08-18T05:42:50Z</time>
<desc><![CDATA[lat.=36.746463, lon.=137.754849, Alt.=2670.883451m. Speed=2.000000m/h.]]></desc>
</trkpt>
<trkpt lat="36.746475" lon="137.754811">
<ele>2669.049461</ele>
<time>2014-08-18T05:42:55Z</time>
<desc><![CDATA[lat.=36.746475, lon.=137.754811, Alt.=2669.049461m. Speed=2.000000m/h.]]></desc>
</trkpt>
<trkpt lat="36.746486" lon="137.754787">
<ele>2670.730260</ele>
<time>2014-08-18T05:43:00Z</time>
<desc><![CDATA[lat.=36.746486, lon.=137.754787, Alt.=2670.730260m. Speed=2.000000m/h.]]></desc>
</trkpt>
<trkpt lat="36.746498" lon="137.754796">
<ele>2669.059662</ele>
<time>2014-08-18T05:43:05Z</time>
<desc><![CDATA[lat.=36.746498, lon.=137.754796, Alt.=2669.059662m. Speed=2.000000m/h.]]></desc>
</trkpt>
<trkpt lat="36.746522" lon="137.754820">
<ele>2670.370242</ele>
<time>2014-08-18T05:43:10Z</time>
<desc><![CDATA[lat.=36.746522, lon.=137.754820, Alt.=2670.370242m. Speed=2.000000m/h.]]></desc>
</trkpt>
<trkpt lat="36.746544" lon="137.754836">
<ele>2670.489372</ele>
<time>2014-08-18T05:43:15Z</time>
<desc><![CDATA[lat.=36.746544, lon.=137.754836, Alt.=2670.489372m. Speed=2.000000m/h.]]></desc>
</trkpt>
<trkpt lat="36.746555" lon="137.754860">
<ele>2670.603402</ele>
<time>2014-08-18T05:43:20Z</time>
<desc><![CDATA[lat.=36.746555, lon.=137.754860, Alt.=2670.603402m. Speed=1.000000m/h.]]></desc>
</trkpt>
<trkpt lat="36.746554" lon="137.754860">
<ele>2672.333564</ele>
<time>2014-08-18T05:43:25Z</time>
<desc><![CDATA[lat.=36.746554, lon.=137.754860, Alt.=2672.333564m. Speed=1.000000m/h.]]></desc>
</trkpt>
<trkpt lat="36.746555" lon="137.754845">
<ele>2670.548938</ele>
<time>2014-08-18T05:43:30Z</time>
<desc><![CDATA[lat.=36.746555, lon.=137.754845, Alt.=2670.548938m. Speed=1.000000m/h.]]></desc>
</trkpt>
<trkpt lat="36.746563" lon="137.754845">
<ele>2669.417053</ele>
<time>2014-08-18T05:43:35Z</time>
<desc><![CDATA[lat.=36.746563, lon.=137.754845, Alt.=2669.417053m. Speed=0.000000m/h.]]></desc>
</trkpt>
<trkpt lat="36.746559" lon="137.754837">
<ele>2669.955763</ele>
<time>2014-08-18T05:43:41Z</time>
<desc><![CDATA[lat.=36.746559, lon.=137.754837, Alt.=2669.955763m. Speed=0.000000m/h.]]></desc>
</trkpt>
<trkpt lat="36.746559" lon="137.754838">
<ele>2668.225602</ele>
<time>2014-08-18T05:43:46Z</time>
<desc><![CDATA[lat.=36.746559, lon.=137.754838, Alt.=2668.225602m. Speed=0.000000m/h.]]></desc>
</trkpt>
<trkpt lat="36.746578" lon="137.754831">
<ele>2667.098819</ele>
<time>2014-08-18T05:43:51Z</time>
<desc><![CDATA[lat.=36.746578, lon.=137.754831, Alt.=2667.098819m. Speed=1.000000m/h.]]></desc>
</trkpt>
<trkpt lat="36.746571" lon="137.754797">
<ele>2671.582100</ele>
<time>2014-08-18T05:43:56Z</time>
<desc><![CDATA[lat.=36.746571, lon.=137.754797, Alt.=2671.582100m. Speed=2.000000m/h.]]></desc>
</trkpt>
<trkpt lat="36.746581" lon="137.754789">
<ele>2673.317364</ele>
<time>2014-08-18T05:44:01Z</time>
<desc><![CDATA[lat.=36.746581, lon.=137.754789, Alt.=2673.317364m. Speed=2.000000m/h.]]></desc>
</trkpt>
<trkpt lat="36.746585" lon="137.754798">
<ele>2671.048491</ele>
<time>2014-08-18T05:44:06Z</time>
<desc><![CDATA[lat.=36.746585, lon.=137.754798, Alt.=2671.048491m. Speed=0.000000m/h.]]></desc>
</trkpt>
<trkpt lat="36.746589" lon="137.754806">
<ele>2670.509781</ele>
<time>2014-08-18T05:44:11Z</time>
<desc><![CDATA[lat.=36.746589, lon.=137.754806, Alt.=2670.509781m. Speed=0.000000m/h.]]></desc>
</trkpt>
<trkpt lat="36.746596" lon="137.754822">
<ele>2671.162521</ele>
<time>2014-08-18T05:44:16Z</time>
<desc><![CDATA[lat.=36.746596, lon.=137.754822, Alt.=2671.162521m. Speed=1.000000m/h.]]></desc>
</trkpt>
<trkpt lat="36.746614" lon="137.754830">
<ele>2671.820365</ele>
<time>2014-08-18T05:44:21Z</time>
<desc><![CDATA[lat.=36.746614, lon.=137.754830, Alt.=2671.820365m. Speed=2.000000m/h.]]></desc>
</trkpt>
<trkpt lat="36.746617" lon="137.754805">
<ele>2674.633051</ele>
<time>2014-08-18T05:44:26Z</time>
<desc><![CDATA[lat.=36.746617, lon.=137.754805, Alt.=2674.633051m. Speed=1.000000m/h.]]></desc>
</trkpt>
<trkpt lat="36.746622" lon="137.754766">
<ele>2675.661113</ele>
<time>2014-08-18T05:44:31Z</time>
<desc><![CDATA[lat.=36.746622, lon.=137.754766, Alt.=2675.661113m. Speed=2.000000m/h.]]></desc>
</trkpt>
<trkpt lat="36.746640" lon="137.754775">
<ele>2674.588795</ele>
<time>2014-08-18T05:44:36Z</time>
<desc><![CDATA[lat.=36.746640, lon.=137.754775, Alt.=2674.588795m. Speed=2.000000m/h.]]></desc>
</trkpt>
<trkpt lat="36.746673" lon="137.754800">
<ele>2673.037336</ele>
<time>2014-08-18T05:44:41Z</time>
<desc><![CDATA[lat.=36.746673, lon.=137.754800, Alt.=2673.037336m. Speed=2.000000m/h.]]></desc>
</trkpt>
<trkpt lat="36.746677" lon="137.754776">
<ele>2674.119861</ele>
<time>2014-08-18T05:44:46Z</time>
<desc><![CDATA[lat.=36.746677, lon.=137.754776, Alt.=2674.119861m. Speed=1.000000m/h.]]></desc>
</trkpt>
<trkpt lat="36.746696" lon="137.754752">
<ele>2676.398944</ele>
<time>2014-08-18T05:44:51Z</time>
<desc><![CDATA[lat.=36.746696, lon.=137.754752, Alt.=2676.398944m. Speed=2.000000m/h.]]></desc>
</trkpt>
<trkpt lat="36.746717" lon="137.754769">
<ele>2676.518080</ele>
<time>2014-08-18T05:44:56Z</time>
<desc><![CDATA[lat.=36.746717, lon.=137.754769, Alt.=2676.518080m. Speed=2.000000m/h.]]></desc>
</trkpt>
<trkpt lat="36.746721" lon="137.754760">
<ele>2677.655069</ele>
<time>2014-08-18T05:45:01Z</time>
<desc><![CDATA[lat.=36.746721, lon.=137.754760, Alt.=2677.655069m. Speed=1.000000m/h.]]></desc>
</trkpt>
<trkpt lat="36.746732" lon="137.754752">
<ele>2679.390337</ele>
<time>2014-08-18T05:45:06Z</time>
<desc><![CDATA[lat.=36.746732, lon.=137.754752, Alt.=2679.390337m. Speed=1.000000m/h.]]></desc>
</trkpt>
<trkpt lat="36.746742" lon="137.754760">
<ele>2679.449906</ele>
<time>2014-08-18T05:45:11Z</time>
<desc><![CDATA[lat.=36.746742, lon.=137.754760, Alt.=2679.449906m. Speed=1.000000m/h.]]></desc>
</trkpt>
<trkpt lat="36.746767" lon="137.754768">
<ele>2682.436195</ele>
<time>2014-08-18T05:45:16Z</time>
<desc><![CDATA[lat.=36.746767, lon.=137.754768, Alt.=2682.436195m. Speed=2.000000m/h.]]></desc>
</trkpt>
<trkpt lat="36.746789" lon="137.754784">
<ele>2682.555335</ele>
<time>2014-08-18T05:45:21Z</time>
<desc><![CDATA[lat.=36.746789, lon.=137.754784, Alt.=2682.555335m. Speed=2.000000m/h.]]></desc>
</trkpt>
<trkpt lat="36.746796" lon="137.754768">
<ele>2684.829314</ele>
<time>2014-08-18T05:45:26Z</time>
<desc><![CDATA[lat.=36.746796, lon.=137.754768, Alt.=2684.829314m. Speed=2.000000m/h.]]></desc>
</trkpt>
<trkpt lat="36.746818" lon="137.754784">
<ele>2684.948455</ele>
<time>2014-08-18T05:45:31Z</time>
<desc><![CDATA[lat.=36.746818, lon.=137.754784, Alt.=2684.948455m. Speed=1.000000m/h.]]></desc>
</trkpt>
<trkpt lat="36.746847" lon="137.754785">
<ele>2685.611414</ele>
<time>2014-08-18T05:45:36Z</time>
<desc><![CDATA[lat.=36.746847, lon.=137.754785, Alt.=2685.611414m. Speed=2.000000m/h.]]></desc>
</trkpt>
<trkpt lat="36.746865" lon="137.754809">
<ele>2686.323730</ele>
<time>2014-08-18T05:45:41Z</time>
<desc><![CDATA[lat.=36.746865, lon.=137.754809, Alt.=2686.323730m. Speed=2.000000m/h.]]></desc>
</trkpt>
<trkpt lat="36.746883" lon="137.754818">
<ele>2686.981583</ele>
<time>2014-08-18T05:45:46Z</time>
<desc><![CDATA[lat.=36.746883, lon.=137.754818, Alt.=2686.981583m. Speed=1.000000m/h.]]></desc>
</trkpt>
<trkpt lat="36.746901" lon="137.754793">
<ele>2689.260672</ele>
<time>2014-08-18T05:45:51Z</time>
<desc><![CDATA[lat.=36.746901, lon.=137.754793, Alt.=2689.260672m. Speed=1.000000m/h.]]></desc>
</trkpt>
<trkpt lat="36.746898" lon="137.754769">
<ele>2689.744918</ele>
<time>2014-08-18T05:45:56Z</time>
<desc><![CDATA[lat.=36.746898, lon.=137.754769, Alt.=2689.744918m. Speed=1.000000m/h.]]></desc>
</trkpt>
<trkpt lat="36.746894" lon="137.754761">
<ele>2690.283627</ele>
<time>2014-08-18T05:46:01Z</time>
<desc><![CDATA[lat.=36.746894, lon.=137.754761, Alt.=2690.283627m. Speed=1.000000m/h.]]></desc>
</trkpt>
<trkpt lat="36.746899" lon="137.754738">
<ele>2689.635993</ele>
<time>2014-08-18T05:46:06Z</time>
<desc><![CDATA[lat.=36.746899, lon.=137.754738, Alt.=2689.635993m. Speed=1.000000m/h.]]></desc>
</trkpt>
<trkpt lat="36.746902" lon="137.754729">
<ele>2690.772984</ele>
<time>2014-08-18T05:46:11Z</time>
<desc><![CDATA[lat.=36.746902, lon.=137.754729, Alt.=2690.772984m. Speed=1.000000m/h.]]></desc>
</trkpt>
<trkpt lat="36.746917" lon="137.754730">
<ele>2690.239385</ele>
<time>2014-08-18T05:46:16Z</time>
<desc><![CDATA[lat.=36.746917, lon.=137.754730, Alt.=2690.239385m. Speed=1.000000m/h.]]></desc>
</trkpt>
<trkpt lat="36.746932" lon="137.754730">
<ele>2691.435948</ele>
<time>2014-08-18T05:46:21Z</time>
<desc><![CDATA[lat.=36.746932, lon.=137.754730, Alt.=2691.435948m. Speed=1.000000m/h.]]></desc>
</trkpt>
<trkpt lat="36.746935" lon="137.754705">
<ele>2694.248639</ele>
<time>2014-08-18T05:46:26Z</time>
<desc><![CDATA[lat.=36.746935, lon.=137.754705, Alt.=2694.248639m. Speed=2.000000m/h.]]></desc>
</trkpt>
<trkpt lat="36.746943" lon="137.754706">
<ele>2693.116759</ele>
<time>2014-08-18T05:46:31Z</time>
<desc><![CDATA[lat.=36.746943, lon.=137.754706, Alt.=2693.116759m. Speed=0.000000m/h.]]></desc>
</trkpt>
<trkpt lat="36.746946" lon="137.754714">
<ele>2692.578050</ele>
<time>2014-08-18T05:46:38Z</time>
<desc><![CDATA[lat.=36.746946, lon.=137.754714, Alt.=2692.578050m. Speed=0.000000m/h.]]></desc>
</trkpt>
<trkpt lat="36.746943" lon="137.754706">
<ele>2693.116759</ele>
<time>2014-08-18T05:46:43Z</time>
<desc><![CDATA[lat.=36.746943, lon.=137.754706, Alt.=2693.116759m. Speed=0.000000m/h.]]></desc>
</trkpt>
<trkpt lat="36.746935" lon="137.754705">
<ele>2694.248639</ele>
<time>2014-08-18T05:46:48Z</time>
<desc><![CDATA[lat.=36.746935, lon.=137.754705, Alt.=2694.248639m. Speed=1.000000m/h.]]></desc>
</trkpt>
<trkpt lat="36.746936" lon="137.754673">
<ele>2695.869879</ele>
<time>2014-08-18T05:46:53Z</time>
<desc><![CDATA[lat.=36.746936, lon.=137.754673, Alt.=2695.869879m. Speed=2.000000m/h.]]></desc>
</trkpt>
<trkpt lat="36.746940" lon="137.754665">
<ele>2695.276708</ele>
<time>2014-08-18T05:46:58Z</time>
<desc><![CDATA[lat.=36.746940, lon.=137.754665, Alt.=2695.276708m. Speed=0.000000m/h.]]></desc>
</trkpt>
<trkpt lat="36.746951" lon="137.754674">
<ele>2693.606119</ele>
<time>2014-08-18T05:47:03Z</time>
<desc><![CDATA[lat.=36.746951, lon.=137.754674, Alt.=2693.606119m. Speed=0.000000m/h.]]></desc>
</trkpt>
<trkpt lat="36.746948" lon="137.754667">
<ele>2692.414667</ele>
<time>2014-08-18T05:47:10Z</time>
<desc><![CDATA[lat.=36.746948, lon.=137.754667, Alt.=2692.414667m. Speed=0.000000m/h.]]></desc>
</trkpt>
<trkpt lat="36.746951" lon="137.754675">
<ele>2691.875958</ele>
<time>2014-08-18T05:47:15Z</time>
<desc><![CDATA[lat.=36.746951, lon.=137.754675, Alt.=2691.875958m. Speed=0.000000m/h.]]></desc>
</trkpt>
<trkpt lat="36.746966" lon="137.754675">
<ele>2693.072522</ele>
<time>2014-08-18T05:47:20Z</time>
<desc><![CDATA[lat.=36.746966, lon.=137.754675, Alt.=2693.072522m. Speed=2.000000m/h.]]></desc>
</trkpt>
<trkpt lat="36.746984" lon="137.754684">
<ele>2693.730377</ele>
<time>2014-08-18T05:47:25Z</time>
<desc><![CDATA[lat.=36.746984, lon.=137.754684, Alt.=2693.730377m. Speed=2.000000m/h.]]></desc>
</trkpt>
<trkpt lat="36.746988" lon="137.754659">
<ele>2694.812908</ele>
<time>2014-08-18T05:47:30Z</time>
<desc><![CDATA[lat.=36.746988, lon.=137.754659, Alt.=2694.812908m. Speed=2.000000m/h.]]></desc>
</trkpt>
<trkpt lat="36.747004" lon="137.754629">
<ele>2692.440230</ele>
<time>2014-08-18T05:47:35Z</time>
<desc><![CDATA[lat.=36.747004, lon.=137.754629, Alt.=2692.440230m. Speed=2.000000m/h.]]></desc>
</trkpt>
<trkpt lat="36.746989" lon="137.754596">
<ele>2694.595069</ele>
<time>2014-08-18T05:47:40Z</time>
<desc><![CDATA[lat.=36.746989, lon.=137.754596, Alt.=2694.595069m. Speed=2.000000m/h.]]></desc>
</trkpt>
<trkpt lat="36.746997" lon="137.754565">
<ele>2695.084435</ele>
<time>2014-08-18T05:47:45Z</time>
<desc><![CDATA[lat.=36.746997, lon.=137.754565, Alt.=2695.084435m. Speed=2.000000m/h.]]></desc>
</trkpt>
<trkpt lat="36.747023" lon="137.754558">
<ele>2694.555953</ele>
<time>2014-08-18T05:47:50Z</time>
<desc><![CDATA[lat.=36.747023, lon.=137.754558, Alt.=2694.555953m. Speed=1.000000m/h.]]></desc>
</trkpt>
<trkpt lat="36.747020" lon="137.754550">
<ele>2693.364501</ele>
<time>2014-08-18T05:47:55Z</time>
<desc><![CDATA[lat.=36.747020, lon.=137.754550, Alt.=2693.364501m. Speed=0.000000m/h.]]></desc>
</trkpt>
<trkpt lat="36.747020" lon="137.754518">
<ele>2694.985747</ele>
<time>2014-08-18T05:48:00Z</time>
<desc><![CDATA[lat.=36.747020, lon.=137.754518, Alt.=2694.985747m. Speed=2.000000m/h.]]></desc>
</trkpt>
<trkpt lat="36.747035" lon="137.754486">
<ele>2696.073399</ele>
<time>2014-08-18T05:48:05Z</time>
<desc><![CDATA[lat.=36.747035, lon.=137.754486, Alt.=2696.073399m. Speed=2.000000m/h.]]></desc>
</trkpt>
<trkpt lat="36.747057" lon="137.754519">
<ele>2694.516840</ele>
<time>2014-08-18T05:48:10Z</time>
<desc><![CDATA[lat.=36.747057, lon.=137.754519, Alt.=2694.516840m. Speed=2.000000m/h.]]></desc>
</trkpt>
<trkpt lat="36.747060" lon="137.754544">
<ele>2694.032587</ele>
<time>2014-08-18T05:48:15Z</time>
<desc><![CDATA[lat.=36.747060, lon.=137.754544, Alt.=2694.032587m. Speed=1.000000m/h.]]></desc>
</trkpt>
<trkpt lat="36.747078" lon="137.754552">
<ele>2694.690445</ele>
<time>2014-08-18T05:48:20Z</time>
<desc><![CDATA[lat.=36.747078, lon.=137.754552, Alt.=2694.690445m. Speed=2.000000m/h.]]></desc>
</trkpt>
<trkpt lat="36.747096" lon="137.754560">
<ele>2695.348303</ele>
<time>2014-08-18T05:48:25Z</time>
<desc><![CDATA[lat.=36.747096, lon.=137.754560, Alt.=2695.348303m. Speed=2.000000m/h.]]></desc>
</trkpt>
<trkpt lat="36.747114" lon="137.754568">
<ele>2697.736323</ele>
<time>2014-08-18T05:48:30Z</time>
<desc><![CDATA[lat.=36.747114, lon.=137.754568, Alt.=2697.736323m. Speed=2.000000m/h.]]></desc>
</trkpt>
<trkpt lat="36.747129" lon="137.754536">
<ele>2698.823975</ele>
<time>2014-08-18T05:48:35Z</time>
<desc><![CDATA[lat.=36.747129, lon.=137.754536, Alt.=2698.823975m. Speed=2.000000m/h.]]></desc>
</trkpt>
<trkpt lat="36.747126" lon="137.754495">
<ele>2700.983932</ele>
<time>2014-08-18T05:48:40Z</time>
<desc><![CDATA[lat.=36.747126, lon.=137.754495, Alt.=2700.983932m. Speed=2.000000m/h.]]></desc>
</trkpt>
<trkpt lat="36.747119" lon="137.754462">
<ele>2703.737058</ele>
<time>2014-08-18T05:48:45Z</time>
<desc><![CDATA[lat.=36.747119, lon.=137.754462, Alt.=2703.737058m. Speed=2.000000m/h.]]></desc>
</trkpt>
<trkpt lat="36.747123" lon="137.754438">
<ele>2704.819597</ele>
<time>2014-08-18T05:48:50Z</time>
<desc><![CDATA[lat.=36.747123, lon.=137.754438, Alt.=2704.819597m. Speed=2.000000m/h.]]></desc>
</trkpt>
<trkpt lat="36.747123" lon="137.754406">
<ele>2704.710686</ele>
<time>2014-08-18T05:48:55Z</time>
<desc><![CDATA[lat.=36.747123, lon.=137.754406, Alt.=2704.710686m. Speed=2.000000m/h.]]></desc>
</trkpt>
<trkpt lat="36.747135" lon="137.754383">
<ele>2704.661349</ele>
<time>2014-08-18T05:49:00Z</time>
<desc><![CDATA[lat.=36.747135, lon.=137.754383, Alt.=2704.661349m. Speed=2.000000m/h.]]></desc>
</trkpt>
<trkpt lat="36.747157" lon="137.754416">
<ele>2703.104790</ele>
<time>2014-08-18T05:49:05Z</time>
<desc><![CDATA[lat.=36.747157, lon.=137.754416, Alt.=2703.104790m. Speed=2.000000m/h.]]></desc>
</trkpt>
<trkpt lat="36.747164" lon="137.754433">
<ele>2702.027369</ele>
<time>2014-08-18T05:49:10Z</time>
<desc><![CDATA[lat.=36.747164, lon.=137.754433, Alt.=2702.027369m. Speed=0.000000m/h.]]></desc>
</trkpt>
<trkpt lat="36.747171" lon="137.754433">
<ele>2702.625654</ele>
<time>2014-08-18T05:49:15Z</time>
<desc><![CDATA[lat.=36.747171, lon.=137.754433, Alt.=2702.625654m. Speed=0.000000m/h.]]></desc>
</trkpt>
<trkpt lat="36.747178" lon="137.754433">
<ele>2703.223939</ele>
<time>2014-08-18T05:49:20Z</time>
<desc><![CDATA[lat.=36.747178, lon.=137.754433, Alt.=2703.223939m. Speed=0.000000m/h.]]></desc>
</trkpt>
<trkpt lat="36.747171" lon="137.754432">
<ele>2704.355815</ele>
<time>2014-08-18T05:49:25Z</time>
<desc><![CDATA[lat.=36.747171, lon.=137.754432, Alt.=2704.355815m. Speed=1.000000m/h.]]></desc>
</trkpt>
<trkpt lat="36.747196" lon="137.754456">
<ele>2705.666417</ele>
<time>2014-08-18T05:49:30Z</time>
<desc><![CDATA[lat.=36.747196, lon.=137.754456, Alt.=2705.666417m. Speed=2.000000m/h.]]></desc>
</trkpt>
<trkpt lat="36.747210" lon="137.754440">
<ele>2708.538693</ele>
<time>2014-08-18T05:49:35Z</time>
<desc><![CDATA[lat.=36.747210, lon.=137.754440, Alt.=2708.538693m. Speed=2.000000m/h.]]></desc>
</trkpt>
<trkpt lat="36.747207" lon="137.754400">
<ele>2708.968493</ele>
<time>2014-08-18T05:49:40Z</time>
<desc><![CDATA[lat.=36.747207, lon.=137.754400, Alt.=2708.968493m. Speed=2.000000m/h.]]></desc>
</trkpt>
<trkpt lat="36.747234" lon="137.754377">
<ele>2708.385568</ele>
<time>2014-08-18T05:49:45Z</time>
<desc><![CDATA[lat.=36.747234, lon.=137.754377, Alt.=2708.385568m. Speed=2.000000m/h.]]></desc>
</trkpt>
<trkpt lat="36.747242" lon="137.754330">
<ele>2708.820492</ele>
<time>2014-08-18T05:49:50Z</time>
<desc><![CDATA[lat.=36.747242, lon.=137.754330, Alt.=2708.820492m. Speed=2.000000m/h.]]></desc>
</trkpt>
<trkpt lat="36.747260" lon="137.754354">
<ele>2709.532807</ele>
<time>2014-08-18T05:49:55Z</time>
<desc><![CDATA[lat.=36.747260, lon.=137.754354, Alt.=2709.532807m. Speed=2.000000m/h.]]></desc>
</trkpt>
<trkpt lat="36.747281" lon="137.754387">
<ele>2707.976252</ele>
<time>2014-08-18T05:50:00Z</time>
<desc><![CDATA[lat.=36.747281, lon.=137.754387, Alt.=2707.976252m. Speed=2.000000m/h.]]></desc>
</trkpt>
<trkpt lat="36.747310" lon="137.754404">
<ele>2708.693692</ele>
<time>2014-08-18T05:50:05Z</time>
<desc><![CDATA[lat.=36.747310, lon.=137.754404, Alt.=2708.693692m. Speed=2.000000m/h.]]></desc>
</trkpt>
<trkpt lat="36.747318" lon="137.754371">
<ele>2710.913232</ele>
<time>2014-08-18T05:50:10Z</time>
<desc><![CDATA[lat.=36.747318, lon.=137.754371, Alt.=2710.913232m. Speed=2.000000m/h.]]></desc>
</trkpt>
<trkpt lat="36.747325" lon="137.754355">
<ele>2711.457064</ele>
<time>2014-08-18T05:50:15Z</time>
<desc><![CDATA[lat.=36.747325, lon.=137.754355, Alt.=2711.457064m. Speed=2.000000m/h.]]></desc>
</trkpt>
<trkpt lat="36.747340" lon="137.754323">
<ele>2714.274893</ele>
<time>2014-08-18T05:50:20Z</time>
<desc><![CDATA[lat.=36.747340, lon.=137.754323, Alt.=2714.274893m. Speed=2.000000m/h.]]></desc>
</trkpt>
<trkpt lat="36.747348" lon="137.754291">
<ele>2714.764274</ele>
<time>2014-08-18T05:50:25Z</time>
<desc><![CDATA[lat.=36.747348, lon.=137.754291, Alt.=2714.764274m. Speed=2.000000m/h.]]></desc>
</trkpt>
<trkpt lat="36.747374" lon="137.754285">
<ele>2714.235813</ele>
<time>2014-08-18T05:50:30Z</time>
<desc><![CDATA[lat.=36.747374, lon.=137.754285, Alt.=2714.235813m. Speed=2.000000m/h.]]></desc>
</trkpt>
<trkpt lat="36.747385" lon="137.754293">
<ele>2714.295390</ele>
<time>2014-08-18T05:50:35Z</time>
<desc><![CDATA[lat.=36.747385, lon.=137.754293, Alt.=2714.295390m. Speed=2.000000m/h.]]></desc>
</trkpt>
<trkpt lat="36.747414" lon="137.754310">
<ele>2713.282673</ele>
<time>2014-08-18T05:50:40Z</time>
<desc><![CDATA[lat.=36.747414, lon.=137.754310, Alt.=2713.282673m. Speed=2.000000m/h.]]></desc>
</trkpt>
<trkpt lat="36.747425" lon="137.754318">
<ele>2713.342251</ele>
<time>2014-08-18T05:50:45Z</time>
<desc><![CDATA[lat.=36.747425, lon.=137.754318, Alt.=2713.342251m. Speed=1.000000m/h.]]></desc>
</trkpt>
<trkpt lat="36.747439" lon="137.754318">
<ele>2714.538829</ele>
<time>2014-08-18T05:50:50Z</time>
<desc><![CDATA[lat.=36.747439, lon.=137.754318, Alt.=2714.538829m. Speed=1.000000m/h.]]></desc>
</trkpt>
<trkpt lat="36.747472" lon="137.754328">
<ele>2714.663114</ele>
<time>2014-08-18T05:50:55Z</time>
<desc><![CDATA[lat.=36.747472, lon.=137.754328, Alt.=2714.663114m. Speed=2.000000m/h.]]></desc>
</trkpt>
<trkpt lat="36.747494" lon="137.754344">
<ele>2714.782274</ele>
<time>2014-08-18T05:51:00Z</time>
<desc><![CDATA[lat.=36.747494, lon.=137.754344, Alt.=2714.782274m. Speed=2.000000m/h.]]></desc>
</trkpt>
<trkpt lat="36.747512" lon="137.754352">
<ele>2715.440144</ele>
<time>2014-08-18T05:51:05Z</time>
<desc><![CDATA[lat.=36.747512, lon.=137.754352, Alt.=2715.440144m. Speed=2.000000m/h.]]></desc>
</trkpt>
<trkpt lat="36.747531" lon="137.754313">
<ele>2715.934655</ele>
<time>2014-08-18T05:51:10Z</time>
<desc><![CDATA[lat.=36.747531, lon.=137.754313, Alt.=2715.934655m. Speed=2.000000m/h.]]></desc>
</trkpt>
<trkpt lat="36.747553" lon="137.754330">
<ele>2716.053817</ele>
<time>2014-08-18T05:51:15Z</time>
<desc><![CDATA[lat.=36.747553, lon.=137.754330, Alt.=2716.053817m. Speed=2.000000m/h.]]></desc>
</trkpt>
<trkpt lat="36.747559" lon="137.754328">
<ele>2720.112431</ele>
<time>2014-08-18T05:51:20Z</time>
<desc><![CDATA[lat.=36.747559, lon.=137.754328, Alt.=2720.112431m. Speed=2.000000m/h.]]></desc>
</trkpt>
<trkpt lat="36.747552" lon="137.754312">
<ele>2721.189848</ele>
<time>2014-08-18T05:51:25Z</time>
<desc><![CDATA[lat.=36.747552, lon.=137.754312, Alt.=2721.189848m. Speed=0.000000m/h.]]></desc>
</trkpt>
<trkpt lat="36.747575" lon="137.754297">
<ele>2721.200106</ele>
<time>2014-08-18T05:51:30Z</time>
<desc><![CDATA[lat.=36.747575, lon.=137.754297, Alt.=2721.200106m. Speed=2.000000m/h.]]></desc>
</trkpt>
<trkpt lat="36.747600" lon="137.754322">
<ele>2720.780561</ele>
<time>2014-08-18T05:51:35Z</time>
<desc><![CDATA[lat.=36.747600, lon.=137.754322, Alt.=2720.780561m. Speed=2.000000m/h.]]></desc>
</trkpt>
<trkpt lat="36.747611" lon="137.754314">
<ele>2720.785690</ele>
<time>2014-08-18T05:51:40Z</time>
<desc><![CDATA[lat.=36.747611, lon.=137.754314, Alt.=2720.785690m. Speed=2.000000m/h.]]></desc>
</trkpt>
<trkpt lat="36.747633" lon="137.754282">
<ele>2722.471659</ele>
<time>2014-08-18T05:51:45Z</time>
<desc><![CDATA[lat.=36.747633, lon.=137.754282, Alt.=2722.471659m. Speed=2.000000m/h.]]></desc>
</trkpt>
<trkpt lat="36.747671" lon="137.754252">
<ele>2721.893891</ele>
<time>2014-08-18T05:51:50Z</time>
<desc><![CDATA[lat.=36.747671, lon.=137.754252, Alt.=2721.893891m. Speed=3.000000m/h.]]></desc>
</trkpt>
<trkpt lat="36.747687" lon="137.754221">
<ele>2721.251411</ele>
<time>2014-08-18T05:51:55Z</time>
<desc><![CDATA[lat.=36.747687, lon.=137.754221, Alt.=2721.251411m. Speed=3.000000m/h.]]></desc>
</trkpt>
<trkpt lat="36.747727" lon="137.754215">
<ele>2720.189391</ele>
<time>2014-08-18T05:52:00Z</time>
<desc><![CDATA[lat.=36.747727, lon.=137.754215, Alt.=2720.189391m. Speed=3.000000m/h.]]></desc>
</trkpt>
<trkpt lat="36.747765" lon="137.754185">
<ele>2721.341793</ele>
<time>2014-08-18T05:52:05Z</time>
<desc><![CDATA[lat.=36.747765, lon.=137.754185, Alt.=2721.341793m. Speed=3.000000m/h.]]></desc>
</trkpt>
<trkpt lat="36.747790" lon="137.754160">
<ele>2724.219226</ele>
<time>2014-08-18T05:52:10Z</time>
<desc><![CDATA[lat.=36.747790, lon.=137.754160, Alt.=2724.219226m. Speed=3.000000m/h.]]></desc>
</trkpt>
<trkpt lat="36.747786" lon="137.754168">
<ele>2724.812385</ele>
<time>2014-08-18T05:52:15Z</time>
<desc><![CDATA[lat.=36.747786, lon.=137.754168, Alt.=2724.812385m. Speed=0.000000m/h.]]></desc>
</trkpt>
<trkpt lat="36.747790" lon="137.754160">
<ele>2724.219226</ele>
<time>2014-08-18T05:52:20Z</time>
<desc><![CDATA[lat.=36.747790, lon.=137.754160, Alt.=2724.219226m. Speed=0.000000m/h.]]></desc>
</trkpt>
<trkpt lat="36.747794" lon="137.754153">
<ele>2723.626067</ele>
<time>2014-08-18T05:52:35Z</time>
<desc><![CDATA[lat.=36.747794, lon.=137.754153, Alt.=2723.626067m. Speed=0.000000m/h.]]></desc>
</trkpt>
<trkpt lat="36.747798" lon="137.754161">
<ele>2723.087358</ele>
<time>2014-08-18T05:52:43Z</time>
<desc><![CDATA[lat.=36.747798, lon.=137.754161, Alt.=2723.087358m. Speed=0.000000m/h.]]></desc>
</trkpt>
<trkpt lat="36.747794" lon="137.754153">
<ele>2723.626067</ele>
<time>2014-08-18T05:52:48Z</time>
<desc><![CDATA[lat.=36.747794, lon.=137.754153, Alt.=2723.626067m. Speed=1.000000m/h.]]></desc>
</trkpt>
<trkpt lat="36.747828" lon="137.754115">
<ele>2723.587025</ele>
<time>2014-08-18T05:52:53Z</time>
<desc><![CDATA[lat.=36.747828, lon.=137.754115, Alt.=2723.587025m. Speed=3.000000m/h.]]></desc>
</trkpt>
<trkpt lat="36.747869" lon="137.754076">
<ele>2724.146281</ele>
<time>2014-08-18T05:52:58Z</time>
<desc><![CDATA[lat.=36.747869, lon.=137.754076, Alt.=2724.146281m. Speed=4.000000m/h.]]></desc>
</trkpt>
<trkpt lat="36.747925" lon="137.754054">
<ele>2724.226420</ele>
<time>2014-08-18T05:53:03Z</time>
<desc><![CDATA[lat.=36.747925, lon.=137.754054, Alt.=2724.226420m. Speed=4.000000m/h.]]></desc>
</trkpt>
<trkpt lat="36.747956" lon="137.754008">
<ele>2722.995938</ele>
<time>2014-08-18T05:53:08Z</time>
<desc><![CDATA[lat.=36.747956, lon.=137.754008, Alt.=2722.995938m. Speed=4.000000m/h.]]></desc>
</trkpt>
<trkpt lat="36.748005" lon="137.753971">
<ele>2722.423345</ele>
<time>2014-08-18T05:53:13Z</time>
<desc><![CDATA[lat.=36.748005, lon.=137.753971, Alt.=2722.423345m. Speed=4.000000m/h.]]></desc>
</trkpt>
<trkpt lat="36.748042" lon="137.753941">
<ele>2721.845616</ele>
<time>2014-08-18T05:53:18Z</time>
<desc><![CDATA[lat.=36.748042, lon.=137.753941, Alt.=2721.845616m. Speed=4.000000m/h.]]></desc>
</trkpt>
<trkpt lat="36.748038" lon="137.753947">
<ele>2724.168932</ele>
<time>2014-08-18T05:53:23Z</time>
<desc><![CDATA[lat.=36.748038, lon.=137.753947, Alt.=2724.168932m. Speed=3.000000m/h.]]></desc>
</trkpt>
<trkpt lat="36.748019" lon="137.753938">
<ele>2726.971370</ele>
<time>2014-08-18T05:53:28Z</time>
<desc><![CDATA[lat.=36.748019, lon.=137.753938, Alt.=2726.971370m. Speed=0.000000m/h.]]></desc>
</trkpt>
<trkpt lat="36.748012" lon="137.753938">
<ele>2726.373073</ele>
<time>2014-08-18T05:53:33Z</time>
<desc><![CDATA[lat.=36.748012, lon.=137.753938, Alt.=2726.373073m. Speed=0.000000m/h.]]></desc>
</trkpt>
<trkpt lat="36.748001" lon="137.753929">
<ele>2726.313486</ele>
<time>2014-08-18T05:53:38Z</time>
<desc><![CDATA[lat.=36.748001, lon.=137.753929, Alt.=2726.313486m. Speed=0.000000m/h.]]></desc>
</trkpt>
<trkpt lat="36.748005" lon="137.753938">
<ele>2725.774777</ele>
<time>2014-08-18T05:53:43Z</time>
<desc><![CDATA[lat.=36.748005, lon.=137.753938, Alt.=2725.774777m. Speed=0.000000m/h.]]></desc>
</trkpt>
<trkpt lat="36.748012" lon="137.753922">
<ele>2726.318628</ele>
<time>2014-08-18T05:53:48Z</time>
<desc><![CDATA[lat.=36.748012, lon.=137.753922, Alt.=2726.318628m. Speed=2.000000m/h.]]></desc>
</trkpt>
<trkpt lat="36.748031" lon="137.753914">
<ele>2726.922067</ele>
<time>2014-08-18T05:53:53Z</time>
<desc><![CDATA[lat.=36.748031, lon.=137.753914, Alt.=2726.922067m. Speed=1.000000m/h.]]></desc>
</trkpt>
<trkpt lat="36.748038" lon="137.753915">
<ele>2725.790203</ele>
<time>2014-08-18T05:53:58Z</time>
<desc><![CDATA[lat.=36.748038, lon.=137.753915, Alt.=2725.790203m. Speed=0.000000m/h.]]></desc>
</trkpt>
<trkpt lat="36.748035" lon="137.753875">
<ele>2726.220024</ele>
<time>2014-08-18T05:54:03Z</time>
<desc><![CDATA[lat.=36.748035, lon.=137.753875, Alt.=2726.220024m. Speed=3.000000m/h.]]></desc>
</trkpt>
<trkpt lat="36.748073" lon="137.753845">
<ele>2725.642301</ele>
<time>2014-08-18T05:54:08Z</time>
<desc><![CDATA[lat.=36.748073, lon.=137.753845, Alt.=2725.642301m. Speed=3.000000m/h.]]></desc>
</trkpt>
<trkpt lat="36.748115" lon="137.753807">
<ele>2724.471428</ele>
<time>2014-08-18T05:54:13Z</time>
<desc><![CDATA[lat.=36.748115, lon.=137.753807, Alt.=2724.471428m. Speed=4.000000m/h.]]></desc>
</trkpt>
<trkpt lat="36.748137" lon="137.753760">
<ele>2726.102996</ele>
<time>2014-08-18T05:54:18Z</time>
<desc><![CDATA[lat.=36.748137, lon.=137.753760, Alt.=2726.102996m. Speed=4.000000m/h.]]></desc>
</trkpt>
<trkpt lat="36.748168" lon="137.753713">
<ele>2726.602706</ele>
<time>2014-08-18T05:54:23Z</time>
<desc><![CDATA[lat.=36.748168, lon.=137.753713, Alt.=2726.602706m. Speed=3.000000m/h.]]></desc>
</trkpt>
<trkpt lat="36.748198" lon="137.753683">
<ele>2725.426699</ele>
<time>2014-08-18T05:54:28Z</time>
<desc><![CDATA[lat.=36.748198, lon.=137.753683, Alt.=2725.426699m. Speed=3.000000m/h.]]></desc>
</trkpt>
<trkpt lat="36.748235" lon="137.753669">
<ele>2724.903434</ele>
<time>2014-08-18T05:54:33Z</time>
<desc><![CDATA[lat.=36.748235, lon.=137.753669, Alt.=2724.903434m. Speed=3.000000m/h.]]></desc>
</trkpt>
<trkpt lat="36.748283" lon="137.753680">
<ele>2722.764040</ele>
<time>2014-08-18T05:54:38Z</time>
<desc><![CDATA[lat.=36.748283, lon.=137.753680, Alt.=2722.764040m. Speed=4.000000m/h.]]></desc>
</trkpt>
<trkpt lat="36.748332" lon="137.753673">
<ele>2722.300373</ele>
<time>2014-08-18T05:54:43Z</time>
<desc><![CDATA[lat.=36.748332, lon.=137.753673, Alt.=2722.300373m. Speed=4.000000m/h.]]></desc>
</trkpt>
<trkpt lat="36.748379" lon="137.753667">
<ele>2723.566871</ele>
<time>2014-08-18T05:54:48Z</time>
<desc><![CDATA[lat.=36.748379, lon.=137.753667, Alt.=2723.566871m. Speed=4.000000m/h.]]></desc>
</trkpt>
<trkpt lat="36.748394" lon="137.753635">
<ele>2724.654596</ele>
<time>2014-08-18T05:54:53Z</time>
<desc><![CDATA[lat.=36.748394, lon.=137.753635, Alt.=2724.654596m. Speed=3.000000m/h.]]></desc>
</trkpt>
<trkpt lat="36.748402" lon="137.753635">
<ele>2725.252899</ele>
<time>2014-08-18T05:54:58Z</time>
<desc><![CDATA[lat.=36.748402, lon.=137.753635, Alt.=2725.252899m. Speed=0.000000m/h.]]></desc>
</trkpt>
<trkpt lat="36.748394" lon="137.753635">
<ele>2724.654596</ele>
<time>2014-08-18T05:55:03Z</time>
<desc><![CDATA[lat.=36.748394, lon.=137.753635, Alt.=2724.654596m. Speed=0.000000m/h.]]></desc>
</trkpt>
<trkpt lat="36.748398" lon="137.753627">
<ele>2725.791609</ele>
<time>2014-08-18T05:55:08Z</time>
<desc><![CDATA[lat.=36.748398, lon.=137.753627, Alt.=2725.791609m. Speed=0.000000m/h.]]></desc>
</trkpt>
<trkpt lat="36.748427" lon="137.753628">
<ele>2726.454657</ele>
<time>2014-08-18T05:55:13Z</time>
<desc><![CDATA[lat.=36.748427, lon.=137.753628, Alt.=2726.454657m. Speed=2.000000m/h.]]></desc>
</trkpt>
<trkpt lat="36.748490" lon="137.753639">
<ele>2723.781726</ele>
<time>2014-08-18T05:55:18Z</time>
<desc><![CDATA[lat.=36.748490, lon.=137.753639, Alt.=2723.781726m. Speed=4.000000m/h.]]></desc>
</trkpt>
<trkpt lat="36.748538" lon="137.753649">
<ele>2723.372517</ele>
<time>2014-08-18T05:55:23Z</time>
<desc><![CDATA[lat.=36.748538, lon.=137.753649, Alt.=2723.372517m. Speed=4.000000m/h.]]></desc>
</trkpt>
<trkpt lat="36.748553" lon="137.753649">
<ele>2722.838964</ele>
<time>2014-08-18T05:55:28Z</time>
<desc><![CDATA[lat.=36.748553, lon.=137.753649, Alt.=2722.838964m. Speed=3.000000m/h.]]></desc>
</trkpt>
<trkpt lat="36.748560" lon="137.753634">
<ele>2723.382830</ele>
<time>2014-08-18T05:55:33Z</time>
<desc><![CDATA[lat.=36.748560, lon.=137.753634, Alt.=2723.382830m. Speed=0.000000m/h.]]></desc>
</trkpt>
<trkpt lat="36.748549" lon="137.753625">
<ele>2723.323234</ele>
<time>2014-08-18T05:55:38Z</time>
<desc><![CDATA[lat.=36.748549, lon.=137.753625, Alt.=2723.323234m. Speed=0.000000m/h.]]></desc>
</trkpt>
<trkpt lat="36.748553" lon="137.753617">
<ele>2724.460248</ele>
<time>2014-08-18T05:55:43Z</time>
<desc><![CDATA[lat.=36.748553, lon.=137.753617, Alt.=2724.460248m. Speed=0.000000m/h.]]></desc>
</trkpt>
<trkpt lat="36.748579" lon="137.753610">
<ele>2725.662014</ele>
<time>2014-08-18T05:55:48Z</time>
<desc><![CDATA[lat.=36.748579, lon.=137.753610, Alt.=2725.662014m. Speed=3.000000m/h.]]></desc>
</trkpt>
<trkpt lat="36.748641" lon="137.753620">
<ele>2724.719262</ele>
<time>2014-08-18T05:55:53Z</time>
<desc><![CDATA[lat.=36.748641, lon.=137.753620, Alt.=2724.719262m. Speed=4.000000m/h.]]></desc>
</trkpt>
<trkpt lat="36.748682" lon="137.753613">
<ele>2725.387484</ele>
<time>2014-08-18T05:55:58Z</time>
<desc><![CDATA[lat.=36.748682, lon.=137.753613, Alt.=2725.387484m. Speed=4.000000m/h.]]></desc>
</trkpt>
<trkpt lat="36.748730" lon="137.753607">
<ele>2724.923854</ele>
<time>2014-08-18T05:56:03Z</time>
<desc><![CDATA[lat.=36.748730, lon.=137.753607, Alt.=2724.923854m. Speed=4.000000m/h.]]></desc>
</trkpt>
<trkpt lat="36.748763" lon="137.753601">
<ele>2724.993774</ele>
<time>2014-08-18T05:56:08Z</time>
<desc><![CDATA[lat.=36.748763, lon.=137.753601, Alt.=2724.993774m. Speed=3.000000m/h.]]></desc>
</trkpt>
<trkpt lat="36.748797" lon="137.753561">
<ele>2726.684983</ele>
<time>2014-08-18T05:56:13Z</time>
<desc><![CDATA[lat.=36.748797, lon.=137.753561, Alt.=2726.684983m. Speed=3.000000m/h.]]></desc>
</trkpt>
<trkpt lat="36.748831" lon="137.753523">
<ele>2726.646035</ele>
<time>2014-08-18T05:56:18Z</time>
<desc><![CDATA[lat.=36.748831, lon.=137.753523, Alt.=2726.646035m. Speed=3.000000m/h.]]></desc>
</trkpt>
<trkpt lat="36.748861" lon="137.753509">
<ele>2725.524510</ele>
<time>2014-08-18T05:56:23Z</time>
<desc><![CDATA[lat.=36.748861, lon.=137.753509, Alt.=2725.524510m. Speed=3.000000m/h.]]></desc>
</trkpt>
<trkpt lat="36.748883" lon="137.753461">
<ele>2727.156129</ele>
<time>2014-08-18T05:56:28Z</time>
<desc><![CDATA[lat.=36.748883, lon.=137.753461, Alt.=2727.156129m. Speed=3.000000m/h.]]></desc>
</trkpt>
<trkpt lat="36.748924" lon="137.753439">
<ele>2727.769936</ele>
<time>2014-08-18T05:56:33Z</time>
<desc><![CDATA[lat.=36.748924, lon.=137.753439, Alt.=2727.769936m. Speed=3.000000m/h.]]></desc>
</trkpt>
<trkpt lat="36.748939" lon="137.753423">
<ele>2728.912121</ele>
<time>2014-08-18T05:56:38Z</time>
<desc><![CDATA[lat.=36.748939, lon.=137.753423, Alt.=2728.912121m. Speed=3.000000m/h.]]></desc>
</trkpt>
<trkpt lat="36.748957" lon="137.753399">
<ele>2731.191325</ele>
<time>2014-08-18T05:56:43Z</time>
<desc><![CDATA[lat.=36.748957, lon.=137.753399, Alt.=2731.191325m. Speed=2.000000m/h.]]></desc>
</trkpt>
<trkpt lat="36.748977" lon="137.753360">
<ele>2731.685935</ele>
<time>2014-08-18T05:56:48Z</time>
<desc><![CDATA[lat.=36.748977, lon.=137.753360, Alt.=2731.685935m. Speed=3.000000m/h.]]></desc>
</trkpt>
<trkpt lat="36.749006" lon="137.753360">
<ele>2732.349016</ele>
<time>2014-08-18T05:56:53Z</time>
<desc><![CDATA[lat.=36.749006, lon.=137.753360, Alt.=2732.349016m. Speed=2.000000m/h.]]></desc>
</trkpt>
<trkpt lat="36.749039" lon="137.753354">
<ele>2732.418957</ele>
<time>2014-08-18T05:56:58Z</time>
<desc><![CDATA[lat.=36.749039, lon.=137.753354, Alt.=2732.418957m. Speed=2.000000m/h.]]></desc>
</trkpt>
<trkpt lat="36.749065" lon="137.753363">
<ele>2731.945021</ele>
<time>2014-08-18T05:57:03Z</time>
<desc><![CDATA[lat.=36.749065, lon.=137.753363, Alt.=2731.945021m. Speed=2.000000m/h.]]></desc>
</trkpt>
<trkpt lat="36.749079" lon="137.753363">
<ele>2733.141645</ele>
<time>2014-08-18T05:57:08Z</time>
<desc><![CDATA[lat.=36.749079, lon.=137.753363, Alt.=2733.141645m. Speed=2.000000m/h.]]></desc>
</trkpt>
<trkpt lat="36.749094" lon="137.753363">
<ele>2734.338268</ele>
<time>2014-08-18T05:57:13Z</time>
<desc><![CDATA[lat.=36.749094, lon.=137.753363, Alt.=2734.338268m. Speed=2.000000m/h.]]></desc>
</trkpt>
<trkpt lat="36.749112" lon="137.753355">
<ele>2734.941751</ele>
<time>2014-08-18T05:57:18Z</time>
<desc><![CDATA[lat.=36.749112, lon.=137.753355, Alt.=2734.941751m. Speed=2.000000m/h.]]></desc>
</trkpt>
<trkpt lat="36.749135" lon="137.753340">
<ele>2734.952094</ele>
<time>2014-08-18T05:57:23Z</time>
<desc><![CDATA[lat.=36.749135, lon.=137.753340, Alt.=2734.952094m. Speed=2.000000m/h.]]></desc>
</trkpt>
<trkpt lat="36.749142" lon="137.753324">
<ele>2735.495974</ele>
<time>2014-08-18T05:57:28Z</time>
<desc><![CDATA[lat.=36.749142, lon.=137.753324, Alt.=2735.495974m. Speed=2.000000m/h.]]></desc>
</trkpt>
<trkpt lat="36.749157" lon="137.753341">
<ele>2735.016871</ele>
<time>2014-08-18T05:57:33Z</time>
<desc><![CDATA[lat.=36.749157, lon.=137.753341, Alt.=2735.016871m. Speed=0.000000m/h.]]></desc>
</trkpt>
<trkpt lat="36.749161" lon="137.753333">
<ele>2734.423731</ele>
<time>2014-08-18T05:57:39Z</time>
<desc><![CDATA[lat.=36.749161, lon.=137.753333, Alt.=2734.423731m. Speed=0.000000m/h.]]></desc>
</trkpt>
<trkpt lat="36.749171" lon="137.753342">
<ele>2734.483336</ele>
<time>2014-08-18T05:57:44Z</time>
<desc><![CDATA[lat.=36.749171, lon.=137.753342, Alt.=2734.483336m. Speed=0.000000m/h.]]></desc>
</trkpt>
<trkpt lat="36.749175" lon="137.753350">
<ele>2733.944628</ele>
<time>2014-08-18T05:57:49Z</time>
<desc><![CDATA[lat.=36.749175, lon.=137.753350, Alt.=2733.944628m. Speed=0.000000m/h.]]></desc>
</trkpt>
<trkpt lat="36.749178" lon="137.753358">
<ele>2735.136082</ele>
<time>2014-08-18T05:57:54Z</time>
<desc><![CDATA[lat.=36.749178, lon.=137.753358, Alt.=2735.136082m. Speed=1.000000m/h.]]></desc>
</trkpt>
<trkpt lat="36.749174" lon="137.753365">
<ele>2735.729222</ele>
<time>2014-08-18T05:57:59Z</time>
<desc><![CDATA[lat.=36.749174, lon.=137.753365, Alt.=2735.729222m. Speed=0.000000m/h.]]></desc>
</trkpt>
<trkpt lat="36.749175" lon="137.753366">
<ele>2733.999061</ele>
<time>2014-08-18T05:58:04Z</time>
<desc><![CDATA[lat.=36.749175, lon.=137.753366, Alt.=2733.999061m. Speed=0.000000m/h.]]></desc>
</trkpt>
<trkpt lat="36.749182" lon="137.753349">
<ele>2736.273102</ele>
<time>2014-08-18T05:58:09Z</time>
<desc><![CDATA[lat.=36.749182, lon.=137.753349, Alt.=2736.273102m. Speed=1.000000m/h.]]></desc>
</trkpt>
<trkpt lat="36.749175" lon="137.753317">
<ele>2737.296085</ele>
<time>2014-08-18T05:58:14Z</time>
<desc><![CDATA[lat.=36.749175, lon.=137.753317, Alt.=2737.296085m. Speed=2.000000m/h.]]></desc>
</trkpt>
<trkpt lat="36.749198" lon="137.753286">
<ele>2737.252000</ele>
<time>2014-08-18T05:58:19Z</time>
<desc><![CDATA[lat.=36.749198, lon.=137.753286, Alt.=2737.252000m. Speed=2.000000m/h.]]></desc>
</trkpt>
<trkpt lat="36.749216" lon="137.753294">
<ele>2737.909919</ele>
<time>2014-08-18T05:58:24Z</time>
<desc><![CDATA[lat.=36.749216, lon.=137.753294, Alt.=2737.909919m. Speed=2.000000m/h.]]></desc>
</trkpt>
<trkpt lat="36.749226" lon="137.753285">
<ele>2741.375415</ele>
<time>2014-08-18T05:58:29Z</time>
<desc><![CDATA[lat.=36.749226, lon.=137.753285, Alt.=2741.375415m. Speed=2.000000m/h.]]></desc>
</trkpt>
<trkpt lat="36.749249" lon="137.753254">
<ele>2741.331334</ele>
<time>2014-08-18T05:58:34Z</time>
<desc><![CDATA[lat.=36.749249, lon.=137.753254, Alt.=2741.331334m. Speed=2.000000m/h.]]></desc>
</trkpt>
<trkpt lat="36.749274" lon="137.753279">
<ele>2740.911839</ele>
<time>2014-08-18T05:58:39Z</time>
<desc><![CDATA[lat.=36.749274, lon.=137.753279, Alt.=2740.911839m. Speed=2.000000m/h.]]></desc>
</trkpt>
<trkpt lat="36.749297" lon="137.753248">
<ele>2742.597920</ele>
<time>2014-08-18T05:58:44Z</time>
<desc><![CDATA[lat.=36.749297, lon.=137.753248, Alt.=2742.597920m. Speed=2.000000m/h.]]></desc>
</trkpt>
<trkpt lat="36.749297" lon="137.753215">
<ele>2744.219220</ele>
<time>2014-08-18T05:58:49Z</time>
<desc><![CDATA[lat.=36.749297, lon.=137.753215, Alt.=2744.219220m. Speed=2.000000m/h.]]></desc>
</trkpt>
<trkpt lat="36.749294" lon="137.753175">
<ele>2746.379230</ele>
<time>2014-08-18T05:58:54Z</time>
<desc><![CDATA[lat.=36.749294, lon.=137.753175, Alt.=2746.379230m. Speed=2.000000m/h.]]></desc>
</trkpt>
<trkpt lat="36.749316" lon="137.753176">
<ele>2744.713853</ele>
<time>2014-08-18T05:58:59Z</time>
<desc><![CDATA[lat.=36.749316, lon.=137.753176, Alt.=2744.713853m. Speed=2.000000m/h.]]></desc>
</trkpt>
<trkpt lat="36.749339" lon="137.753178">
<ele>2743.048476</ele>
<time>2014-08-18T05:59:04Z</time>
<desc><![CDATA[lat.=36.749339, lon.=137.753178, Alt.=2743.048476m. Speed=2.000000m/h.]]></desc>
</trkpt>
<trkpt lat="36.749334" lon="137.753201">
<ele>2743.696043</ele>
<time>2014-08-18T05:59:09Z</time>
<desc><![CDATA[lat.=36.749334, lon.=137.753201, Alt.=2743.696043m. Speed=1.000000m/h.]]></desc>
</trkpt>
<trkpt lat="36.749361" lon="137.753212">
<ele>2738.031637</ele>
<time>2014-08-18T05:59:14Z</time>
<desc><![CDATA[lat.=36.749361, lon.=137.753212, Alt.=2738.031637m. Speed=0.000000m/h.]]></desc>
</trkpt>
<trkpt lat="36.749353" lon="137.753211">
<ele>2740.893644</ele>
<time>2014-08-18T05:59:19Z</time>
<desc><![CDATA[lat.=36.749353, lon.=137.753211, Alt.=2740.893644m. Speed=1.000000m/h.]]></desc>
</trkpt>
<trkpt lat="36.749364" lon="137.753219">
<ele>2740.953252</ele>
<time>2014-08-18T05:59:24Z</time>
<desc><![CDATA[lat.=36.749364, lon.=137.753219, Alt.=2740.953252m. Speed=0.000000m/h.]]></desc>
</trkpt>
<trkpt lat="36.749360" lon="137.753227">
<ele>2741.546390</ele>
<time>2014-08-18T05:59:29Z</time>
<desc><![CDATA[lat.=36.749360, lon.=137.753227, Alt.=2741.546390m. Speed=0.000000m/h.]]></desc>
</trkpt>
<trkpt lat="36.749371" lon="137.753202">
<ele>2743.227299</ele>
<time>2014-08-18T05:59:34Z</time>
<desc><![CDATA[lat.=36.749371, lon.=137.753202, Alt.=2743.227299m. Speed=1.000000m/h.]]></desc>
</trkpt>
<trkpt lat="36.749368" lon="137.753162">
<ele>2745.387309</ele>
<time>2014-08-18T05:59:39Z</time>
<desc><![CDATA[lat.=36.749368, lon.=137.753162, Alt.=2745.387309m. Speed=2.000000m/h.]]></desc>
</trkpt>
<trkpt lat="36.749387" lon="137.753138">
<ele>2745.936375</ele>
<time>2014-08-18T05:59:44Z</time>
<desc><![CDATA[lat.=36.749387, lon.=137.753138, Alt.=2745.936375m. Speed=2.000000m/h.]]></desc>
</trkpt>
<trkpt lat="36.749409" lon="137.753123">
<ele>2747.676895</ele>
<time>2014-08-18T05:59:49Z</time>
<desc><![CDATA[lat.=36.749409, lon.=137.753123, Alt.=2747.676895m. Speed=2.000000m/h.]]></desc>
</trkpt>
<trkpt lat="36.749438" lon="137.753140">
<ele>2746.664267</ele>
<time>2014-08-18T05:59:54Z</time>
<desc><![CDATA[lat.=36.749438, lon.=137.753140, Alt.=2746.664267m. Speed=2.000000m/h.]]></desc>
</trkpt>
<trkpt lat="36.749456" lon="137.753132">
<ele>2747.267765</ele>
<time>2014-08-18T05:59:59Z</time>
<desc><![CDATA[lat.=36.749456, lon.=137.753132, Alt.=2747.267765m. Speed=2.000000m/h.]]></desc>
</trkpt>
<trkpt lat="36.749482" lon="137.753125">
<ele>2748.469580</ele>
<time>2014-08-18T06:00:04Z</time>
<desc><![CDATA[lat.=36.749482, lon.=137.753125, Alt.=2748.469580m. Speed=2.000000m/h.]]></desc>
</trkpt>
<trkpt lat="36.749519" lon="137.753143">
<ele>2746.325113</ele>
<time>2014-08-18T06:00:09Z</time>
<desc><![CDATA[lat.=36.749519, lon.=137.753143, Alt.=2746.325113m. Speed=2.000000m/h.]]></desc>
</trkpt>
<trkpt lat="36.749515" lon="137.753118">
<ele>2748.539554</ele>
<time>2014-08-18T06:00:14Z</time>
<desc><![CDATA[lat.=36.749515, lon.=137.753118, Alt.=2748.539554m. Speed=2.000000m/h.]]></desc>
</trkpt>
<trkpt lat="36.749526" lon="137.753093">
<ele>2751.950630</ele>
<time>2014-08-18T06:00:19Z</time>
<desc><![CDATA[lat.=36.749526, lon.=137.753093, Alt.=2751.950630m. Speed=2.000000m/h.]]></desc>
</trkpt>
<trkpt lat="36.749544" lon="137.753102">
<ele>2752.608559</ele>
<time>2014-08-18T06:00:24Z</time>
<desc><![CDATA[lat.=36.749544, lon.=137.753102, Alt.=2752.608559m. Speed=1.000000m/h.]]></desc>
</trkpt>
<trkpt lat="36.749552" lon="137.753119">
<ele>2749.800983</ele>
<time>2014-08-18T06:00:29Z</time>
<desc><![CDATA[lat.=36.749552, lon.=137.753119, Alt.=2749.800983m. Speed=0.000000m/h.]]></desc>
</trkpt>
<trkpt lat="36.749548" lon="137.753111">
<ele>2750.339690</ele>
<time>2014-08-18T06:00:35Z</time>
<desc><![CDATA[lat.=36.749548, lon.=137.753111, Alt.=2750.339690m. Speed=0.000000m/h.]]></desc>
</trkpt>
<trkpt lat="36.749559" lon="137.753102">
<ele>2752.075034</ele>
<time>2014-08-18T06:00:40Z</time>
<desc><![CDATA[lat.=36.749559, lon.=137.753102, Alt.=2752.075034m. Speed=1.000000m/h.]]></desc>
</trkpt>
<trkpt lat="36.749596" lon="137.753088">
<ele>2751.551878</ele>
<time>2014-08-18T06:00:45Z</time>
<desc><![CDATA[lat.=36.749596, lon.=137.753088, Alt.=2751.551878m. Speed=2.000000m/h.]]></desc>
</trkpt>
<trkpt lat="36.749611" lon="137.753056">
<ele>2754.369823</ele>
<time>2014-08-18T06:00:50Z</time>
<desc><![CDATA[lat.=36.749611, lon.=137.753056, Alt.=2754.369823m. Speed=2.000000m/h.]]></desc>
</trkpt>
<trkpt lat="36.749615" lon="137.753031">
<ele>2757.182585</ele>
<time>2014-08-18T06:00:55Z</time>
<desc><![CDATA[lat.=36.749615, lon.=137.753031, Alt.=2757.182585m. Speed=2.000000m/h.]]></desc>
</trkpt>
<trkpt lat="36.749641" lon="137.753007">
<ele>2758.329983</ele>
<time>2014-08-18T06:01:00Z</time>
<desc><![CDATA[lat.=36.749641, lon.=137.753007, Alt.=2758.329983m. Speed=2.000000m/h.]]></desc>
</trkpt>
<trkpt lat="36.749671" lon="137.752993">
<ele>2757.208514</ele>
<time>2014-08-18T06:01:05Z</time>
<desc><![CDATA[lat.=36.749671, lon.=137.752993, Alt.=2757.208514m. Speed=2.000000m/h.]]></desc>
</trkpt>
<trkpt lat="36.749685" lon="137.752993">
<ele>2758.405154</ele>
<time>2014-08-18T06:01:10Z</time>
<desc><![CDATA[lat.=36.749685, lon.=137.752993, Alt.=2758.405154m. Speed=2.000000m/h.]]></desc>
</trkpt>
<trkpt lat="36.749692" lon="137.753010">
<ele>2757.327739</ele>
<time>2014-08-18T06:01:15Z</time>
<desc><![CDATA[lat.=36.749692, lon.=137.753010, Alt.=2757.327739m. Speed=0.000000m/h.]]></desc>
</trkpt>
<trkpt lat="36.749707" lon="137.753011">
<ele>2756.794219</ele>
<time>2014-08-18T06:01:20Z</time>
<desc><![CDATA[lat.=36.749707, lon.=137.753011, Alt.=2756.794219m. Speed=1.000000m/h.]]></desc>
</trkpt>
<trkpt lat="36.749737" lon="137.752995">
<ele>2757.402915</ele>
<time>2014-08-18T06:01:25Z</time>
<desc><![CDATA[lat.=36.749737, lon.=137.752995, Alt.=2757.402915m. Speed=2.000000m/h.]]></desc>
</trkpt>
<trkpt lat="36.749737" lon="137.752962">
<ele>2760.754387</ele>
<time>2014-08-18T06:01:30Z</time>
<desc><![CDATA[lat.=36.749737, lon.=137.752962, Alt.=2760.754387m. Speed=2.000000m/h.]]></desc>
</trkpt>
<trkpt lat="36.749748" lon="137.752922">
<ele>2762.380888</ele>
<time>2014-08-18T06:01:35Z</time>
<desc><![CDATA[lat.=36.749748, lon.=137.752922, Alt.=2762.380888m. Speed=2.000000m/h.]]></desc>
</trkpt>
<trkpt lat="36.749745" lon="137.752883">
<ele>2762.810749</ele>
<time>2014-08-18T06:01:40Z</time>
<desc><![CDATA[lat.=36.749745, lon.=137.752883, Alt.=2762.810749m. Speed=2.000000m/h.]]></desc>
</trkpt>
<trkpt lat="36.749752" lon="137.752866">
<ele>2765.084808</ele>
<time>2014-08-18T06:01:45Z</time>
<desc><![CDATA[lat.=36.749752, lon.=137.752866, Alt.=2765.084808m. Speed=2.000000m/h.]]></desc>
</trkpt>
<trkpt lat="36.749760" lon="137.752851">
<ele>2763.898545</ele>
<time>2014-08-18T06:01:50Z</time>
<desc><![CDATA[lat.=36.749760, lon.=137.752851, Alt.=2763.898545m. Speed=1.000000m/h.]]></desc>
</trkpt>
<trkpt lat="36.749768" lon="137.752818">
<ele>2766.118183</ele>
<time>2014-08-18T06:01:55Z</time>
<desc><![CDATA[lat.=36.749768, lon.=137.752818, Alt.=2766.118183m. Speed=2.000000m/h.]]></desc>
</trkpt>
<trkpt lat="36.749786" lon="137.752811">
<ele>2766.721695</ele>
<time>2014-08-18T06:02:00Z</time>
<desc><![CDATA[lat.=36.749786, lon.=137.752811, Alt.=2766.721695m. Speed=2.000000m/h.]]></desc>
</trkpt>
<trkpt lat="36.749815" lon="137.752877">
<ele>2762.412028</ele>
<time>2014-08-18T06:02:05Z</time>
<desc><![CDATA[lat.=36.749815, lon.=137.752877, Alt.=2762.412028m. Speed=2.000000m/h.]]></desc>
</trkpt>
<trkpt lat="36.749811" lon="137.752916">
<ele>2763.114006</ele>
<time>2014-08-18T06:02:10Z</time>
<desc><![CDATA[lat.=36.749811, lon.=137.752916, Alt.=2763.114006m. Speed=2.000000m/h.]]></desc>
</trkpt>
<trkpt lat="36.749836" lon="137.752924">
<ele>2766.100426</ele>
<time>2014-08-18T06:02:15Z</time>
<desc><![CDATA[lat.=36.749836, lon.=137.752924, Alt.=2766.100426m. Speed=2.000000m/h.]]></desc>
</trkpt>
<trkpt lat="36.749832" lon="137.752899">
<ele>2768.314871</ele>
<time>2014-08-18T06:02:20Z</time>
<desc><![CDATA[lat.=36.749832, lon.=137.752899, Alt.=2768.314871m. Speed=1.000000m/h.]]></desc>
</trkpt>
<trkpt lat="36.749847" lon="137.752884">
<ele>2767.726931</ele>
<time>2014-08-18T06:02:25Z</time>
<desc><![CDATA[lat.=36.749847, lon.=137.752884, Alt.=2767.726931m. Speed=2.000000m/h.]]></desc>
</trkpt>
<trkpt lat="36.749869" lon="137.752901">
<ele>2767.846161</ele>
<time>2014-08-18T06:02:30Z</time>
<desc><![CDATA[lat.=36.749869, lon.=137.752901, Alt.=2767.846161m. Speed=2.000000m/h.]]></desc>
</trkpt>
<trkpt lat="36.749876" lon="137.752917">
<ele>2766.768747</ele>
<time>2014-08-18T06:02:35Z</time>
<desc><![CDATA[lat.=36.749876, lon.=137.752917, Alt.=2766.768747m. Speed=2.000000m/h.]]></desc>
</trkpt>
<trkpt lat="36.749891" lon="137.752919">
<ele>2764.505071</ele>
<time>2014-08-18T06:02:40Z</time>
<desc><![CDATA[lat.=36.749891, lon.=137.752919, Alt.=2764.505071m. Speed=2.000000m/h.]]></desc>
</trkpt>
<trkpt lat="36.749905" lon="137.752918">
<ele>2767.431878</ele>
<time>2014-08-18T06:02:45Z</time>
<desc><![CDATA[lat.=36.749905, lon.=137.752918, Alt.=2767.431878m. Speed=1.000000m/h.]]></desc>
</trkpt>
<trkpt lat="36.749902" lon="137.752895">
<ele>2766.186001</ele>
<time>2014-08-18T06:02:50Z</time>
<desc><![CDATA[lat.=36.749902, lon.=137.752895, Alt.=2766.186001m. Speed=0.000000m/h.]]></desc>
</trkpt>
<trkpt lat="36.749895" lon="137.752894">
<ele>2767.317838</ele>
<time>2014-08-18T06:02:58Z</time>
<desc><![CDATA[lat.=36.749895, lon.=137.752894, Alt.=2767.317838m. Speed=0.000000m/h.]]></desc>
</trkpt>
<trkpt lat="36.749898" lon="137.752886">
<ele>2768.454869</ele>
<time>2014-08-18T06:03:03Z</time>
<desc><![CDATA[lat.=36.749898, lon.=137.752886, Alt.=2768.454869m. Speed=0.000000m/h.]]></desc>
</trkpt>
<trkpt lat="36.749906" lon="137.752886">
<ele>2769.053192</ele>
<time>2014-08-18T06:03:08Z</time>
<desc><![CDATA[lat.=36.749906, lon.=137.752886, Alt.=2769.053192m. Speed=0.000000m/h.]]></desc>
</trkpt>
<trkpt lat="36.749906" lon="137.752869">
<ele>2770.728930</ele>
<time>2014-08-18T06:03:13Z</time>
<desc><![CDATA[lat.=36.749906, lon.=137.752869, Alt.=2770.728930m. Speed=1.000000m/h.]]></desc>
</trkpt>
<trkpt lat="36.749894" lon="137.752876">
<ele>2772.453898</ele>
<time>2014-08-18T06:03:18Z</time>
<desc><![CDATA[lat.=36.749894, lon.=137.752876, Alt.=2772.453898m. Speed=0.000000m/h.]]></desc>
</trkpt>
<trkpt lat="36.749901" lon="137.752876">
<ele>2773.052221</ele>
<time>2014-08-18T06:03:23Z</time>
<desc><![CDATA[lat.=36.749901, lon.=137.752876, Alt.=2773.052221m. Speed=0.000000m/h.]]></desc>
</trkpt>
<trkpt lat="36.749905" lon="137.752867">
<ele>2774.189252</ele>
<time>2014-08-18T06:03:28Z</time>
<desc><![CDATA[lat.=36.749905, lon.=137.752867, Alt.=2774.189252m. Speed=0.000000m/h.]]></desc>
</trkpt>
<trkpt lat="36.749904" lon="137.752867">
<ele>2775.919413</ele>
<time>2014-08-18T06:03:33Z</time>
<desc><![CDATA[lat.=36.749904, lon.=137.752867, Alt.=2775.919413m. Speed=0.000000m/h.]]></desc>
</trkpt>
<trkpt lat="36.749916" lon="137.752859">
<ele>2775.924606</ele>
<time>2014-08-18T06:03:38Z</time>
<desc><![CDATA[lat.=36.749916, lon.=137.752859, Alt.=2775.924606m. Speed=0.000000m/h.]]></desc>
</trkpt>
<trkpt lat="36.749901" lon="137.752858">
<ele>2776.458121</ele>
<time>2014-08-18T06:03:43Z</time>
<desc><![CDATA[lat.=36.749901, lon.=137.752858, Alt.=2776.458121m. Speed=0.000000m/h.]]></desc>
</trkpt>
<trkpt lat="36.749904" lon="137.752866">
<ele>2777.649574</ele>
<time>2014-08-18T06:03:48Z</time>
<desc><![CDATA[lat.=36.749904, lon.=137.752866, Alt.=2777.649574m. Speed=0.000000m/h.]]></desc>
</trkpt>
<trkpt lat="36.749896" lon="137.752865">
<ele>2778.781412</ele>
<time>2014-08-18T06:03:53Z</time>
<desc><![CDATA[lat.=36.749896, lon.=137.752865, Alt.=2778.781412m. Speed=0.000000m/h.]]></desc>
</trkpt>
<trkpt lat="36.749893" lon="137.752857">
<ele>2779.320120</ele>
<time>2014-08-18T06:03:59Z</time>
<desc><![CDATA[lat.=36.749893, lon.=137.752857, Alt.=2779.320120m. Speed=0.000000m/h.]]></desc>
</trkpt>
<trkpt lat="36.749896" lon="137.752849">
<ele>2780.457150</ele>
<time>2014-08-18T06:04:04Z</time>
<desc><![CDATA[lat.=36.749896, lon.=137.752849, Alt.=2780.457150m. Speed=0.000000m/h.]]></desc>
</trkpt>
<trkpt lat="36.749904" lon="137.752849">
<ele>2781.055474</ele>
<time>2014-08-18T06:04:14Z</time>
<desc><![CDATA[lat.=36.749904, lon.=137.752849, Alt.=2781.055474m. Speed=0.000000m/h.]]></desc>
</trkpt>
<trkpt lat="36.749926" lon="137.752834">
<ele>2781.065860</ele>
<time>2014-08-18T06:04:19Z</time>
<desc><![CDATA[lat.=36.749926, lon.=137.752834, Alt.=2781.065860m. Speed=2.000000m/h.]]></desc>
</trkpt>
<trkpt lat="36.749944" lon="137.752842">
<ele>2781.723800</ele>
<time>2014-08-18T06:04:24Z</time>
<desc><![CDATA[lat.=36.749944, lon.=137.752842, Alt.=2781.723800m. Speed=2.000000m/h.]]></desc>
</trkpt>
<trkpt lat="36.750000" lon="137.752837">
<ele>2778.398296</ele>
<time>2014-08-18T06:04:29Z</time>
<desc><![CDATA[lat.=36.750000, lon.=137.752837, Alt.=2778.398296m. Speed=2.000000m/h.]]></desc>
</trkpt>
<trkpt lat="36.750039" lon="137.752809">
<ele>2774.360433</ele>
<time>2014-08-18T06:04:34Z</time>
<desc><![CDATA[lat.=36.750039, lon.=137.752809, Alt.=2774.360433m. Speed=2.000000m/h.]]></desc>
</trkpt>
<trkpt lat="36.750062" lon="137.752795">
<ele>2770.910505</ele>
<time>2014-08-18T06:04:39Z</time>
<desc><![CDATA[lat.=36.750062, lon.=137.752795, Alt.=2770.910505m. Speed=1.000000m/h.]]></desc>
</trkpt>
<trkpt lat="36.750065" lon="137.752786">
<ele>2773.777698</ele>
<time>2014-08-18T06:04:44Z</time>
<desc><![CDATA[lat.=36.750065, lon.=137.752786, Alt.=2773.777698m. Speed=1.000000m/h.]]></desc>
</trkpt>
<trkpt lat="36.750079" lon="137.752786">
<ele>2774.974349</ele>
<time>2014-08-18T06:04:49Z</time>
<desc><![CDATA[lat.=36.750079, lon.=137.752786, Alt.=2774.974349m. Speed=0.000000m/h.]]></desc>
</trkpt>
<trkpt lat="36.750087" lon="137.752770">
<ele>2775.518254</ele>
<time>2014-08-18T06:04:54Z</time>
<desc><![CDATA[lat.=36.750087, lon.=137.752770, Alt.=2775.518254m. Speed=1.000000m/h.]]></desc>
</trkpt>
<trkpt lat="36.750109" lon="137.752770">
<ele>2777.313232</ele>
<time>2014-08-18T06:04:59Z</time>
<desc><![CDATA[lat.=36.750109, lon.=137.752770, Alt.=2777.313232m. Speed=2.000000m/h.]]></desc>
</trkpt>
<trkpt lat="36.750120" lon="137.752747">
<ele>2777.264010</ele>
<time>2014-08-18T06:05:04Z</time>
<desc><![CDATA[lat.=36.750120, lon.=137.752747, Alt.=2777.264010m. Speed=2.000000m/h.]]></desc>
</trkpt>
<trkpt lat="36.750139" lon="137.752740">
<ele>2777.867535</ele>
<time>2014-08-18T06:05:09Z</time>
<desc><![CDATA[lat.=36.750139, lon.=137.752740, Alt.=2777.867535m. Speed=2.000000m/h.]]></desc>
</trkpt>
<trkpt lat="36.750149" lon="137.752747">
<ele>2779.657316</ele>
<time>2014-08-18T06:05:14Z</time>
<desc><![CDATA[lat.=36.750149, lon.=137.752747, Alt.=2779.657316m. Speed=2.000000m/h.]]></desc>
</trkpt>
<trkpt lat="36.750174" lon="137.752755">
<ele>2780.913590</ele>
<time>2014-08-18T06:05:19Z</time>
<desc><![CDATA[lat.=36.750174, lon.=137.752755, Alt.=2780.913590m. Speed=1.000000m/h.]]></desc>
</trkpt>
<trkpt lat="36.750182" lon="137.752755">
<ele>2781.511917</ele>
<time>2014-08-18T06:05:24Z</time>
<desc><![CDATA[lat.=36.750182, lon.=137.752755, Alt.=2781.511917m. Speed=0.000000m/h.]]></desc>
</trkpt>
<trkpt lat="36.750178" lon="137.752747">
<ele>2782.050624</ele>
<time>2014-08-18T06:05:29Z</time>
<desc><![CDATA[lat.=36.750178, lon.=137.752747, Alt.=2782.050624m. Speed=0.000000m/h.]]></desc>
</trkpt>
<trkpt lat="36.750186" lon="137.752731">
<ele>2782.594531</ele>
<time>2014-08-18T06:05:34Z</time>
<desc><![CDATA[lat.=36.750186, lon.=137.752731, Alt.=2782.594531m. Speed=1.000000m/h.]]></desc>
</trkpt>
<trkpt lat="36.750189" lon="137.752723">
<ele>2783.731565</ele>
<time>2014-08-18T06:05:39Z</time>
<desc><![CDATA[lat.=36.750189, lon.=137.752723, Alt.=2783.731565m. Speed=1.000000m/h.]]></desc>
</trkpt>
<trkpt lat="36.750200" lon="137.752715">
<ele>2783.736765</ele>
<time>2014-08-18T06:05:44Z</time>
<desc><![CDATA[lat.=36.750200, lon.=137.752715, Alt.=2783.736765m. Speed=0.000000m/h.]]></desc>
</trkpt>
<trkpt lat="36.750189" lon="137.752706">
<ele>2787.137467</ele>
<time>2014-08-18T06:05:49Z</time>
<desc><![CDATA[lat.=36.750189, lon.=137.752706, Alt.=2787.137467m. Speed=0.000000m/h.]]></desc>
</trkpt>
<trkpt lat="36.750177" lon="137.752712">
<ele>2788.862427</ele>
<time>2014-08-18T06:05:54Z</time>
<desc><![CDATA[lat.=36.750177, lon.=137.752712, Alt.=2788.862427m. Speed=0.000000m/h.]]></desc>
</trkpt>
<trkpt lat="36.750180" lon="137.752720">
<ele>2790.053881</ele>
<time>2014-08-18T06:05:59Z</time>
<desc><![CDATA[lat.=36.750180, lon.=137.752720, Alt.=2790.053881m. Speed=1.000000m/h.]]></desc>
</trkpt>
<trkpt lat="36.750221" lon="137.752714">
<ele>2788.992070</ele>
<time>2014-08-18T06:06:04Z</time>
<desc><![CDATA[lat.=36.750221, lon.=137.752714, Alt.=2788.992070m. Speed=2.000000m/h.]]></desc>
</trkpt>
<trkpt lat="36.750265" lon="137.752699">
<ele>2790.797458</ele>
<time>2014-08-18T06:06:09Z</time>
<desc><![CDATA[lat.=36.750265, lon.=137.752699, Alt.=2790.797458m. Speed=2.000000m/h.]]></desc>
</trkpt>
<trkpt lat="36.750266" lon="137.752683">
<ele>2790.743038</ele>
<time>2014-08-18T06:06:14Z</time>
<desc><![CDATA[lat.=36.750266, lon.=137.752683, Alt.=2790.743038m. Speed=1.000000m/h.]]></desc>
</trkpt>
<trkpt lat="36.750255" lon="137.752675">
<ele>2790.683417</ele>
<time>2014-08-18T06:06:19Z</time>
<desc><![CDATA[lat.=36.750255, lon.=137.752675, Alt.=2790.683417m. Speed=1.000000m/h.]]></desc>
</trkpt>
<trkpt lat="36.750270" lon="137.752643">
<ele>2791.771237</ele>
<time>2014-08-18T06:06:24Z</time>
<desc><![CDATA[lat.=36.750270, lon.=137.752643, Alt.=2791.771237m. Speed=1.000000m/h.]]></desc>
</trkpt>
<trkpt lat="36.750270" lon="137.752659">
<ele>2791.825655</ele>
<time>2014-08-18T06:06:29Z</time>
<desc><![CDATA[lat.=36.750270, lon.=137.752659, Alt.=2791.825655m. Speed=0.000000m/h.]]></desc>
</trkpt>
<trkpt lat="36.750273" lon="137.752667">
<ele>2791.286948</ele>
<time>2014-08-18T06:06:35Z</time>
<desc><![CDATA[lat.=36.750273, lon.=137.752667, Alt.=2791.286948m. Speed=0.000000m/h.]]></desc>
</trkpt>
<trkpt lat="36.750266" lon="137.752666">
<ele>2792.418781</ele>
<time>2014-08-18T06:06:40Z</time>
<desc><![CDATA[lat.=36.750266, lon.=137.752666, Alt.=2792.418781m. Speed=0.000000m/h.]]></desc>
</trkpt>
<trkpt lat="36.750252" lon="137.752634">
<ele>2792.843449</ele>
<time>2014-08-18T06:06:45Z</time>
<desc><![CDATA[lat.=36.750252, lon.=137.752634, Alt.=2792.843449m. Speed=1.000000m/h.]]></desc>
</trkpt>
<trkpt lat="36.750255" lon="137.752642">
<ele>2792.304741</ele>
<time>2014-08-18T06:06:51Z</time>
<desc><![CDATA[lat.=36.750255, lon.=137.752642, Alt.=2792.304741m. Speed=1.000000m/h.]]></desc>
</trkpt>
<trkpt lat="36.750318" lon="137.752621">
<ele>2792.983505</ele>
<time>2014-08-18T06:06:56Z</time>
<desc><![CDATA[lat.=36.750318, lon.=137.752621, Alt.=2792.983505m. Speed=1.000000m/h.]]></desc>
</trkpt>
<trkpt lat="36.750330" lon="137.752597">
<ele>2792.934292</ele>
<time>2014-08-18T06:07:01Z</time>
<desc><![CDATA[lat.=36.750330, lon.=137.752597, Alt.=2792.934292m. Speed=1.000000m/h.]]></desc>
</trkpt>
<trkpt lat="36.750348" lon="137.752590">
<ele>2793.537826</ele>
<time>2014-08-18T06:07:06Z</time>
<desc><![CDATA[lat.=36.750348, lon.=137.752590, Alt.=2793.537826m. Speed=1.000000m/h.]]></desc>
</trkpt>
<trkpt lat="36.750352" lon="137.752566">
<ele>2792.890286</ele>
<time>2014-08-18T06:07:11Z</time>
<desc><![CDATA[lat.=36.750352, lon.=137.752566, Alt.=2792.890286m. Speed=1.000000m/h.]]></desc>
</trkpt>
<trkpt lat="36.750371" lon="137.752543">
<ele>2793.439405</ele>
<time>2014-08-18T06:07:16Z</time>
<desc><![CDATA[lat.=36.750371, lon.=137.752543, Alt.=2793.439405m. Speed=2.000000m/h.]]></desc>
</trkpt>
<trkpt lat="36.750404" lon="137.752553">
<ele>2791.833696</ele>
<time>2014-08-18T06:07:21Z</time>
<desc><![CDATA[lat.=36.750404, lon.=137.752553, Alt.=2791.833696m. Speed=1.000000m/h.]]></desc>
</trkpt>
<trkpt lat="36.750434" lon="137.752554">
<ele>2792.496856</ele>
<time>2014-08-18T06:07:26Z</time>
<desc><![CDATA[lat.=36.750434, lon.=137.752554, Alt.=2792.496856m. Speed=2.000000m/h.]]></desc>
</trkpt>
<trkpt lat="36.750445" lon="137.752578">
<ele>2790.880736</ele>
<time>2014-08-18T06:07:31Z</time>
<desc><![CDATA[lat.=36.750445, lon.=137.752578, Alt.=2790.880736m. Speed=2.000000m/h.]]></desc>
</trkpt>
<trkpt lat="36.750455" lon="137.752603">
<ele>2790.994777</ele>
<time>2014-08-18T06:07:36Z</time>
<desc><![CDATA[lat.=36.750455, lon.=137.752603, Alt.=2790.994777m. Speed=2.000000m/h.]]></desc>
</trkpt>
<trkpt lat="36.750485" lon="137.752587">
<ele>2791.603524</ele>
<time>2014-08-18T06:07:41Z</time>
<desc><![CDATA[lat.=36.750485, lon.=137.752587, Alt.=2791.603524m. Speed=2.000000m/h.]]></desc>
</trkpt>
<trkpt lat="36.750499" lon="137.752572">
<ele>2792.745770</ele>
<time>2014-08-18T06:07:46Z</time>
<desc><![CDATA[lat.=36.750499, lon.=137.752572, Alt.=2792.745770m. Speed=0.000000m/h.]]></desc>
</trkpt>
<trkpt lat="36.750496" lon="137.752548">
<ele>2793.230061</ele>
<time>2014-08-18T06:07:51Z</time>
<desc><![CDATA[lat.=36.750496, lon.=137.752548, Alt.=2793.230061m. Speed=0.000000m/h.]]></desc>
</trkpt>
<trkpt lat="36.750511" lon="137.752531">
<ele>2796.102469</ele>
<time>2014-08-18T06:07:56Z</time>
<desc><![CDATA[lat.=36.750511, lon.=137.752531, Alt.=2796.102469m. Speed=2.000000m/h.]]></desc>
</trkpt>
<trkpt lat="36.750507" lon="137.752507">
<ele>2796.586760</ele>
<time>2014-08-18T06:08:01Z</time>
<desc><![CDATA[lat.=36.750507, lon.=137.752507, Alt.=2796.586760m. Speed=0.000000m/h.]]></desc>
</trkpt>
<trkpt lat="36.750500" lon="137.752507">
<ele>2795.988428</ele>
<time>2014-08-18T06:08:09Z</time>
<desc><![CDATA[lat.=36.750500, lon.=137.752507, Alt.=2795.988428m. Speed=0.000000m/h.]]></desc>
</trkpt>
<trkpt lat="36.750504" lon="137.752515">
<ele>2795.449721</ele>
<time>2014-08-18T06:08:16Z</time>
<desc><![CDATA[lat.=36.750504, lon.=137.752515, Alt.=2795.449721m. Speed=0.000000m/h.]]></desc>
</trkpt>
<trkpt lat="36.750508" lon="137.752508">
<ele>2794.856599</ele>
<time>2014-08-18T06:08:21Z</time>
<desc><![CDATA[lat.=36.750508, lon.=137.752508, Alt.=2794.856599m. Speed=0.000000m/h.]]></desc>
</trkpt>
<trkpt lat="36.750515" lon="137.752508">
<ele>2795.454931</ele>
<time>2014-08-18T06:08:26Z</time>
<desc><![CDATA[lat.=36.750515, lon.=137.752508, Alt.=2795.454931m. Speed=0.000000m/h.]]></desc>
</trkpt>
<trkpt lat="36.750508" lon="137.752508">
<ele>2794.856599</ele>
<time>2014-08-18T06:08:31Z</time>
<desc><![CDATA[lat.=36.750508, lon.=137.752508, Alt.=2794.856599m. Speed=1.000000m/h.]]></desc>
</trkpt>
<trkpt lat="36.750523" lon="137.752460">
<ele>2795.890018</ele>
<time>2014-08-18T06:08:36Z</time>
<desc><![CDATA[lat.=36.750523, lon.=137.752460, Alt.=2795.890018m. Speed=3.000000m/h.]]></desc>
</trkpt>
<trkpt lat="36.750539" lon="137.752413">
<ele>2796.923441</ele>
<time>2014-08-18T06:08:41Z</time>
<desc><![CDATA[lat.=36.750539, lon.=137.752413, Alt.=2796.923441m. Speed=3.000000m/h.]]></desc>
</trkpt>
<trkpt lat="36.750538" lon="137.752412">
<ele>2798.653602</ele>
<time>2014-08-18T06:08:46Z</time>
<desc><![CDATA[lat.=36.750538, lon.=137.752412, Alt.=2798.653602m. Speed=0.000000m/h.]]></desc>
</trkpt>
<trkpt lat="36.750535" lon="137.752404">
<ele>2799.192309</ele>
<time>2014-08-18T06:08:51Z</time>
<desc><![CDATA[lat.=36.750535, lon.=137.752404, Alt.=2799.192309m. Speed=0.000000m/h.]]></desc>
</trkpt>
<trkpt lat="36.750531" lon="137.752395">
<ele>2799.731017</ele>
<time>2014-08-18T06:09:00Z</time>
<desc><![CDATA[lat.=36.750531, lon.=137.752395, Alt.=2799.731017m. Speed=0.000000m/h.]]></desc>
</trkpt>
<trkpt lat="36.750539" lon="137.752380">
<ele>2800.274936</ele>
<time>2014-08-18T06:09:07Z</time>
<desc><![CDATA[lat.=36.750539, lon.=137.752380, Alt.=2800.274936m. Speed=2.000000m/h.]]></desc>
</trkpt>
<trkpt lat="36.750554" lon="137.752349">
<ele>2799.632615</ele>
<time>2014-08-18T06:09:12Z</time>
<desc><![CDATA[lat.=36.750554, lon.=137.752349, Alt.=2799.632615m. Speed=2.000000m/h.]]></desc>
</trkpt>
<trkpt lat="36.750588" lon="137.752310">
<ele>2799.593841</ele>
<time>2014-08-18T06:09:17Z</time>
<desc><![CDATA[lat.=36.750588, lon.=137.752310, Alt.=2799.593841m. Speed=3.000000m/h.]]></desc>
</trkpt>
<trkpt lat="36.750611" lon="137.752264">
<ele>2799.495446</ele>
<time>2014-08-18T06:09:22Z</time>
<desc><![CDATA[lat.=36.750611, lon.=137.752264, Alt.=2799.495446m. Speed=3.000000m/h.]]></desc>
</trkpt>
<trkpt lat="36.750634" lon="137.752233">
<ele>2799.451465</ele>
<time>2014-08-18T06:09:27Z</time>
<desc><![CDATA[lat.=36.750634, lon.=137.752233, Alt.=2799.451465m. Speed=3.000000m/h.]]></desc>
</trkpt>
<trkpt lat="36.750657" lon="137.752202">
<ele>2799.407486</ele>
<time>2014-08-18T06:09:32Z</time>
<desc><![CDATA[lat.=36.750657, lon.=137.752202, Alt.=2799.407486m. Speed=3.000000m/h.]]></desc>
</trkpt>
<trkpt lat="36.750672" lon="137.752170">
<ele>2800.495336</ele>
<time>2014-08-18T06:09:37Z</time>
<desc><![CDATA[lat.=36.750672, lon.=137.752170, Alt.=2800.495336m. Speed=3.000000m/h.]]></desc>
</trkpt>
<trkpt lat="36.750698" lon="137.752147">
<ele>2801.642812</ele>
<time>2014-08-18T06:09:42Z</time>
<desc><![CDATA[lat.=36.750698, lon.=137.752147, Alt.=2801.642812m. Speed=3.000000m/h.]]></desc>
</trkpt>
<trkpt lat="36.750721" lon="137.752116">
<ele>2801.598839</ele>
<time>2014-08-18T06:09:47Z</time>
<desc><![CDATA[lat.=36.750721, lon.=137.752116, Alt.=2801.598839m. Speed=3.000000m/h.]]></desc>
</trkpt>
<trkpt lat="36.750744" lon="137.752085">
<ele>2801.554869</ele>
<time>2014-08-18T06:09:52Z</time>
<desc><![CDATA[lat.=36.750744, lon.=137.752085, Alt.=2801.554869m. Speed=2.000000m/h.]]></desc>
</trkpt>
<trkpt lat="36.750751" lon="137.752085">
<ele>2802.153204</ele>
<time>2014-08-18T06:09:57Z</time>
<desc><![CDATA[lat.=36.750751, lon.=137.752085, Alt.=2802.153204m. Speed=2.000000m/h.]]></desc>
</trkpt>
<trkpt lat="36.750747" lon="137.752077">
<ele>2802.691913</ele>
<time>2014-08-18T06:10:02Z</time>
<desc><![CDATA[lat.=36.750747, lon.=137.752077, Alt.=2802.691913m. Speed=0.000000m/h.]]></desc>
</trkpt>
<trkpt lat="36.750751" lon="137.752085">
<ele>2802.153204</ele>
<time>2014-08-18T06:10:08Z</time>
<desc><![CDATA[lat.=36.750751, lon.=137.752085, Alt.=2802.153204m. Speed=0.000000m/h.]]></desc>
</trkpt>
<trkpt lat="36.750758" lon="137.752085">
<ele>2802.751539</ele>
<time>2014-08-18T06:10:16Z</time>
<desc><![CDATA[lat.=36.750758, lon.=137.752085, Alt.=2802.751539m. Speed=0.000000m/h.]]></desc>
</trkpt>
<trkpt lat="36.750762" lon="137.752078">
<ele>2802.158423</ele>
<time>2014-08-18T06:10:21Z</time>
<desc><![CDATA[lat.=36.750762, lon.=137.752078, Alt.=2802.158423m. Speed=0.000000m/h.]]></desc>
</trkpt>
<trkpt lat="36.750785" lon="137.752047">
<ele>2802.114455</ele>
<time>2014-08-18T06:10:26Z</time>
<desc><![CDATA[lat.=36.750785, lon.=137.752047, Alt.=2802.114455m. Speed=2.000000m/h.]]></desc>
</trkpt>
<trkpt lat="36.750797" lon="137.752008">
<ele>2802.010864</ele>
<time>2014-08-18T06:10:31Z</time>
<desc><![CDATA[lat.=36.750797, lon.=137.752008, Alt.=2802.010864m. Speed=3.000000m/h.]]></desc>
</trkpt>
<trkpt lat="36.750808" lon="137.752000">
<ele>2802.016084</ele>
<time>2014-08-18T06:10:36Z</time>
<desc><![CDATA[lat.=36.750808, lon.=137.752000, Alt.=2802.016084m. Speed=0.000000m/h.]]></desc>
</trkpt>
<trkpt lat="36.750801" lon="137.751984">
<ele>2801.363344</ele>
<time>2014-08-18T06:10:41Z</time>
<desc><![CDATA[lat.=36.750801, lon.=137.751984, Alt.=2801.363344m. Speed=0.000000m/h.]]></desc>
</trkpt>
<trkpt lat="36.750804" lon="137.751992">
<ele>2802.554795</ele>
<time>2014-08-18T06:10:46Z</time>
<desc><![CDATA[lat.=36.750804, lon.=137.751992, Alt.=2802.554795m. Speed=0.000000m/h.]]></desc>
</trkpt>
<trkpt lat="36.750801" lon="137.751984">
<ele>2803.093505</ele>
<time>2014-08-18T06:10:52Z</time>
<desc><![CDATA[lat.=36.750801, lon.=137.751984, Alt.=2803.093505m. Speed=1.000000m/h.]]></desc>
</trkpt>
<trkpt lat="36.750805" lon="137.751976">
<ele>2802.500390</ele>
<time>2014-08-18T06:10:57Z</time>
<desc><![CDATA[lat.=36.750805, lon.=137.751976, Alt.=2802.500390m. Speed=0.000000m/h.]]></desc>
</trkpt>
<trkpt lat="36.750816" lon="137.751952">
<ele>2804.181368</ele>
<time>2014-08-18T06:11:02Z</time>
<desc><![CDATA[lat.=36.750816, lon.=137.751952, Alt.=2804.181368m. Speed=1.000000m/h.]]></desc>
</trkpt>
<trkpt lat="36.750813" lon="137.751945">
<ele>2802.989917</ele>
<time>2014-08-18T06:11:07Z</time>
<desc><![CDATA[lat.=36.750813, lon.=137.751945, Alt.=2802.989917m. Speed=0.000000m/h.]]></desc>
</trkpt>
<trkpt lat="36.750817" lon="137.751937">
<ele>2802.396803</ele>
<time>2014-08-18T06:11:12Z</time>
<desc><![CDATA[lat.=36.750817, lon.=137.751937, Alt.=2802.396803m. Speed=0.000000m/h.]]></desc>
</trkpt>
<trkpt lat="36.750820" lon="137.751945">
<ele>2801.858092</ele>
<time>2014-08-18T06:11:17Z</time>
<desc><![CDATA[lat.=36.750820, lon.=137.751945, Alt.=2801.858092m. Speed=0.000000m/h.]]></desc>
</trkpt>
<trkpt lat="36.750828" lon="137.751929">
<ele>2802.402024</ele>
<time>2014-08-18T06:11:22Z</time>
<desc><![CDATA[lat.=36.750828, lon.=137.751929, Alt.=2802.402024m. Speed=1.000000m/h.]]></desc>
</trkpt>
<trkpt lat="36.750854" lon="137.751922">
<ele>2803.603919</ele>
<time>2014-08-18T06:11:27Z</time>
<desc><![CDATA[lat.=36.750854, lon.=137.751922, Alt.=2803.603919m. Speed=2.000000m/h.]]></desc>
</trkpt>
<trkpt lat="36.750850" lon="137.751914">
<ele>2804.142630</ele>
<time>2014-08-18T06:11:32Z</time>
<desc><![CDATA[lat.=36.750850, lon.=137.751914, Alt.=2804.142630m. Speed=0.000000m/h.]]></desc>
</trkpt>
<trkpt lat="36.750857" lon="137.751929">
<ele>2804.795370</ele>
<time>2014-08-18T06:11:38Z</time>
<desc><![CDATA[lat.=36.750857, lon.=137.751929, Alt.=2804.795370m. Speed=0.000000m/h.]]></desc>
</trkpt>
<trkpt lat="36.750871" lon="137.751929">
<ele>2805.992043</ele>
<time>2014-08-18T06:11:43Z</time>
<desc><![CDATA[lat.=36.750871, lon.=137.751929, Alt.=2805.992043m. Speed=1.000000m/h.]]></desc>
</trkpt>
<trkpt lat="36.750879" lon="137.751914">
<ele>2806.535977</ele>
<time>2014-08-18T06:11:48Z</time>
<desc><![CDATA[lat.=36.750879, lon.=137.751914, Alt.=2806.535977m. Speed=0.000000m/h.]]></desc>
</trkpt>
<trkpt lat="36.750879" lon="137.751914">
<ele>2804.805815</ele>
<time>2014-08-18T06:11:53Z</time>
<desc><![CDATA[lat.=36.750879, lon.=137.751914, Alt.=2804.805815m. Speed=0.000000m/h.]]></desc>
</trkpt>
<trkpt lat="36.750883" lon="137.751923">
<ele>2804.267105</ele>
<time>2014-08-18T06:12:01Z</time>
<desc><![CDATA[lat.=36.750883, lon.=137.751923, Alt.=2804.267105m. Speed=0.000000m/h.]]></desc>
</trkpt>
<trkpt lat="36.750890" lon="137.751923">
<ele>2804.865442</ele>
<time>2014-08-18T06:12:06Z</time>
<desc><![CDATA[lat.=36.750890, lon.=137.751923, Alt.=2804.865442m. Speed=0.000000m/h.]]></desc>
</trkpt>
<trkpt lat="36.750894" lon="137.751915">
<ele>2804.272328</ele>
<time>2014-08-18T06:12:11Z</time>
<desc><![CDATA[lat.=36.750894, lon.=137.751915, Alt.=2804.272328m. Speed=0.000000m/h.]]></desc>
</trkpt>
<trkpt lat="36.750901" lon="137.751915">
<ele>2804.870665</ele>
<time>2014-08-18T06:12:16Z</time>
<desc><![CDATA[lat.=36.750901, lon.=137.751915, Alt.=2804.870665m. Speed=1.000000m/h.]]></desc>
</trkpt>
<trkpt lat="36.750931" lon="137.751899">
<ele>2807.209612</ele>
<time>2014-08-18T06:12:21Z</time>
<desc><![CDATA[lat.=36.750931, lon.=137.751899, Alt.=2807.209612m. Speed=2.000000m/h.]]></desc>
</trkpt>
<trkpt lat="36.750953" lon="137.751884">
<ele>2808.950222</ele>
<time>2014-08-18T06:12:26Z</time>
<desc><![CDATA[lat.=36.750953, lon.=137.751884, Alt.=2808.950222m. Speed=2.000000m/h.]]></desc>
</trkpt>
<trkpt lat="36.750971" lon="137.751876">
<ele>2809.553786</ele>
<time>2014-08-18T06:12:31Z</time>
<desc><![CDATA[lat.=36.750971, lon.=137.751876, Alt.=2809.553786m. Speed=2.000000m/h.]]></desc>
</trkpt>
<trkpt lat="36.750982" lon="137.751884">
<ele>2809.613414</ele>
<time>2014-08-18T06:12:36Z</time>
<desc><![CDATA[lat.=36.750982, lon.=137.751884, Alt.=2809.613414m. Speed=0.000000m/h.]]></desc>
</trkpt>
<trkpt lat="36.750993" lon="137.751877">
<ele>2809.618640</ele>
<time>2014-08-18T06:12:41Z</time>
<desc><![CDATA[lat.=36.750993, lon.=137.751877, Alt.=2809.618640m. Speed=1.000000m/h.]]></desc>
</trkpt>
<trkpt lat="36.751001" lon="137.751861">
<ele>2810.162576</ele>
<time>2014-08-18T06:12:46Z</time>
<desc><![CDATA[lat.=36.751001, lon.=137.751861, Alt.=2810.162576m. Speed=0.000000m/h.]]></desc>
</trkpt>
<trkpt lat="36.750993" lon="137.751860">
<ele>2811.294398</ele>
<time>2014-08-18T06:12:51Z</time>
<desc><![CDATA[lat.=36.750993, lon.=137.751860, Alt.=2811.294398m. Speed=1.000000m/h.]]></desc>
</trkpt>
<trkpt lat="36.751008" lon="137.751829">
<ele>2812.382272</ele>
<time>2014-08-18T06:12:56Z</time>
<desc><![CDATA[lat.=36.751008, lon.=137.751829, Alt.=2812.382272m. Speed=1.000000m/h.]]></desc>
</trkpt>
<trkpt lat="36.751012" lon="137.751805">
<ele>2813.464920</ele>
<time>2014-08-18T06:13:01Z</time>
<desc><![CDATA[lat.=36.751012, lon.=137.751805, Alt.=2813.464920m. Speed=1.000000m/h.]]></desc>
</trkpt>
<trkpt lat="36.751016" lon="137.751797">
<ele>2812.871808</ele>
<time>2014-08-18T06:13:10Z</time>
<desc><![CDATA[lat.=36.751016, lon.=137.751797, Alt.=2812.871808m. Speed=1.000000m/h.]]></desc>
</trkpt>
<trkpt lat="36.751023" lon="137.751797">
<ele>2813.470147</ele>
<time>2014-08-18T06:13:15Z</time>
<desc><![CDATA[lat.=36.751023, lon.=137.751797, Alt.=2813.470147m. Speed=0.000000m/h.]]></desc>
</trkpt>
<trkpt lat="36.751027" lon="137.751789">
<ele>2812.877035</ele>
<time>2014-08-18T06:13:20Z</time>
<desc><![CDATA[lat.=36.751027, lon.=137.751789, Alt.=2812.877035m. Speed=1.000000m/h.]]></desc>
</trkpt>
<trkpt lat="36.751049" lon="137.751789">
<ele>2814.672053</ele>
<time>2014-08-18T06:13:25Z</time>
<desc><![CDATA[lat.=36.751049, lon.=137.751789, Alt.=2814.672053m. Speed=2.000000m/h.]]></desc>
</trkpt>
<trkpt lat="36.751075" lon="137.751783">
<ele>2812.413638</ele>
<time>2014-08-18T06:13:30Z</time>
<desc><![CDATA[lat.=36.751075, lon.=137.751783, Alt.=2812.413638m. Speed=1.000000m/h.]]></desc>
</trkpt>
<trkpt lat="36.751064" lon="137.751791">
<ele>2812.408409</ele>
<time>2014-08-18T06:13:35Z</time>
<desc><![CDATA[lat.=36.751064, lon.=137.751791, Alt.=2812.408409m. Speed=0.000000m/h.]]></desc>
</trkpt>
<trkpt lat="36.751065" lon="137.751775">
<ele>2812.354009</ele>
<time>2014-08-18T06:13:40Z</time>
<desc><![CDATA[lat.=36.751065, lon.=137.751775, Alt.=2812.354009m. Speed=0.000000m/h.]]></desc>
</trkpt>
<trkpt lat="36.751068" lon="137.751783">
<ele>2811.815298</ele>
<time>2014-08-18T06:13:45Z</time>
<desc><![CDATA[lat.=36.751068, lon.=137.751783, Alt.=2811.815298m. Speed=1.000000m/h.]]></desc>
</trkpt>
<trkpt lat="36.751065" lon="137.751776">
<ele>2810.623847</ele>
<time>2014-08-18T06:13:50Z</time>
<desc><![CDATA[lat.=36.751065, lon.=137.751776, Alt.=2810.623847m. Speed=0.000000m/h.]]></desc>
</trkpt>
<trkpt lat="36.751057" lon="137.751775">
<ele>2811.755669</ele>
<time>2014-08-18T06:13:55Z</time>
<desc><![CDATA[lat.=36.751057, lon.=137.751775, Alt.=2811.755669m. Speed=0.000000m/h.]]></desc>
</trkpt>
<trkpt lat="36.751061" lon="137.751783">
<ele>2811.216959</ele>
<time>2014-08-18T06:14:06Z</time>
<desc><![CDATA[lat.=36.751061, lon.=137.751783, Alt.=2811.216959m. Speed=0.000000m/h.]]></desc>
</trkpt>
<trkpt lat="36.751057" lon="137.751775">
<ele>2811.755669</ele>
<time>2014-08-18T06:14:11Z</time>
<desc><![CDATA[lat.=36.751057, lon.=137.751775, Alt.=2811.755669m. Speed=0.000000m/h.]]></desc>
</trkpt>
<trkpt lat="36.751053" lon="137.751783">
<ele>2812.348780</ele>
<time>2014-08-18T06:14:16Z</time>
<desc><![CDATA[lat.=36.751053, lon.=137.751783, Alt.=2812.348780m. Speed=0.000000m/h.]]></desc>
</trkpt>
<trkpt lat="36.751061" lon="137.751783">
<ele>2811.216959</ele>
<time>2014-08-18T06:14:21Z</time>
<desc><![CDATA[lat.=36.751061, lon.=137.751783, Alt.=2811.216959m. Speed=0.000000m/h.]]></desc>
</trkpt>
<trkpt lat="36.751061" lon="137.751768">
<ele>2811.162558</ele>
<time>2014-08-18T06:14:26Z</time>
<desc><![CDATA[lat.=36.751061, lon.=137.751768, Alt.=2811.162558m. Speed=0.000000m/h.]]></desc>
</trkpt>
<trkpt lat="36.751065" lon="137.751776">
<ele>2810.623847</ele>
<time>2014-08-18T06:14:33Z</time>
<desc><![CDATA[lat.=36.751065, lon.=137.751776, Alt.=2810.623847m. Speed=0.000000m/h.]]></desc>
</trkpt>
<trkpt lat="36.751058" lon="137.751776">
<ele>2810.025508</ele>
<time>2014-08-18T06:14:40Z</time>
<desc><![CDATA[lat.=36.751058, lon.=137.751776, Alt.=2810.025508m. Speed=0.000000m/h.]]></desc>
</trkpt>
<trkpt lat="36.751061" lon="137.751784">
<ele>2809.486797</ele>
<time>2014-08-18T06:14:45Z</time>
<desc><![CDATA[lat.=36.751061, lon.=137.751784, Alt.=2809.486797m. Speed=0.000000m/h.]]></desc>
</trkpt>
<trkpt lat="36.751069" lon="137.751785">
<ele>2808.354976</ele>
<time>2014-08-18T06:14:50Z</time>
<desc><![CDATA[lat.=36.751069, lon.=137.751785, Alt.=2808.354976m. Speed=0.000000m/h.]]></desc>
</trkpt>
<trkpt lat="36.751065" lon="137.751793">
<ele>2807.217926</ele>
<time>2014-08-18T06:14:56Z</time>
<desc><![CDATA[lat.=36.751065, lon.=137.751793, Alt.=2807.217926m. Speed=0.000000m/h.]]></desc>
</trkpt>
<trkpt lat="36.751069" lon="137.751801">
<ele>2808.409377</ele>
<time>2014-08-18T06:15:09Z</time>
<desc><![CDATA[lat.=36.751069, lon.=137.751801, Alt.=2808.409377m. Speed=0.000000m/h.]]></desc>
</trkpt>
<trkpt lat="36.751073" lon="137.751793">
<ele>2807.816265</ele>
<time>2014-08-18T06:15:15Z</time>
<desc><![CDATA[lat.=36.751073, lon.=137.751793, Alt.=2807.816265m. Speed=0.000000m/h.]]></desc>
</trkpt>
<trkpt lat="36.751065" lon="137.751793">
<ele>2808.948087</ele>
<time>2014-08-18T06:15:20Z</time>
<desc><![CDATA[lat.=36.751065, lon.=137.751793, Alt.=2808.948087m. Speed=0.000000m/h.]]></desc>
</trkpt>
<trkpt lat="36.751061" lon="137.751800">
<ele>2809.541198</ele>
<time>2014-08-18T06:15:44Z</time>
<desc><![CDATA[lat.=36.751061, lon.=137.751800, Alt.=2809.541198m. Speed=0.000000m/h.]]></desc>
</trkpt>
<trkpt lat="36.751065" lon="137.751793">
<ele>2808.948087</ele>
<time>2014-08-18T06:15:49Z</time>
<desc><![CDATA[lat.=36.751065, lon.=137.751793, Alt.=2808.948087m. Speed=0.000000m/h.]]></desc>
</trkpt>
<trkpt lat="36.751061" lon="137.751800">
<ele>2809.541198</ele>
<time>2014-08-18T06:15:54Z</time>
<desc><![CDATA[lat.=36.751061, lon.=137.751800, Alt.=2809.541198m. Speed=0.000000m/h.]]></desc>
</trkpt>
<trkpt lat="36.751065" lon="137.751793">
<ele>2808.948087</ele>
<time>2014-08-18T06:15:59Z</time>
<desc><![CDATA[lat.=36.751065, lon.=137.751793, Alt.=2808.948087m. Speed=0.000000m/h.]]></desc>
</trkpt>
<trkpt lat="36.751061" lon="137.751800">
<ele>2809.541198</ele>
<time>2014-08-18T06:16:11Z</time>
<desc><![CDATA[lat.=36.751061, lon.=137.751800, Alt.=2809.541198m. Speed=0.000000m/h.]]></desc>
</trkpt>
<trkpt lat="36.751057" lon="137.751792">
<ele>2810.079909</ele>
<time>2014-08-18T06:16:17Z</time>
<desc><![CDATA[lat.=36.751057, lon.=137.751792, Alt.=2810.079909m. Speed=0.000000m/h.]]></desc>
</trkpt>
<trkpt lat="36.751061" lon="137.751784">
<ele>2809.486797</ele>
<time>2014-08-18T06:16:22Z</time>
<desc><![CDATA[lat.=36.751061, lon.=137.751784, Alt.=2809.486797m. Speed=2.000000m/h.]]></desc>
</trkpt>
<trkpt lat="36.751069" lon="137.751784">
<ele>2810.085137</ele>
<time>2014-08-18T06:16:27Z</time>
<desc><![CDATA[lat.=36.751069, lon.=137.751784, Alt.=2810.085137m. Speed=0.000000m/h.]]></desc>
</trkpt>
<trkpt lat="36.751072" lon="137.751793">
<ele>2809.546426</ele>
<time>2014-08-18T06:16:44Z</time>
<desc><![CDATA[lat.=36.751072, lon.=137.751793, Alt.=2809.546426m. Speed=0.000000m/h.]]></desc>
</trkpt>
<trkpt lat="36.751076" lon="137.751785">
<ele>2808.953315</ele>
<time>2014-08-18T06:16:49Z</time>
<desc><![CDATA[lat.=36.751076, lon.=137.751785, Alt.=2808.953315m. Speed=0.000000m/h.]]></desc>
</trkpt>
<trkpt lat="36.751073" lon="137.751777">
<ele>2809.492026</ele>
<time>2014-08-18T06:17:01Z</time>
<desc><![CDATA[lat.=36.751073, lon.=137.751777, Alt.=2809.492026m. Speed=0.000000m/h.]]></desc>
</trkpt>
<trkpt lat="36.751076" lon="137.751785">
<ele>2808.953315</ele>
<time>2014-08-18T06:17:06Z</time>
<desc><![CDATA[lat.=36.751076, lon.=137.751785, Alt.=2808.953315m. Speed=0.000000m/h.]]></desc>
</trkpt>
<trkpt lat="36.751080" lon="137.751777">
<ele>2808.360204</ele>
<time>2014-08-18T06:17:11Z</time>
<desc><![CDATA[lat.=36.751080, lon.=137.751777, Alt.=2808.360204m. Speed=0.000000m/h.]]></desc>
</trkpt>
<trkpt lat="36.751077" lon="137.751769">
<ele>2808.898915</ele>
<time>2014-08-18T06:17:21Z</time>
<desc><![CDATA[lat.=36.751077, lon.=137.751769, Alt.=2808.898915m. Speed=0.000000m/h.]]></desc>
</trkpt>
<trkpt lat="36.751080" lon="137.751777">
<ele>2808.360204</ele>
<time>2014-08-18T06:17:26Z</time>
<desc><![CDATA[lat.=36.751080, lon.=137.751777, Alt.=2808.360204m. Speed=0.000000m/h.]]></desc>
</trkpt>
<trkpt lat="36.751077" lon="137.751770">
<ele>2807.168754</ele>
<time>2014-08-18T06:17:31Z</time>
<desc><![CDATA[lat.=36.751077, lon.=137.751770, Alt.=2807.168754m. Speed=0.000000m/h.]]></desc>
</trkpt>
<trkpt lat="36.751081" lon="137.751778">
<ele>2806.630043</ele>
<time>2014-08-18T06:17:44Z</time>
<desc><![CDATA[lat.=36.751081, lon.=137.751778, Alt.=2806.630043m. Speed=0.000000m/h.]]></desc>
</trkpt>
<trkpt lat="36.751069" lon="137.751769">
<ele>2808.300575</ele>
<time>2014-08-18T06:17:49Z</time>
<desc><![CDATA[lat.=36.751069, lon.=137.751769, Alt.=2808.300575m. Speed=0.000000m/h.]]></desc>
</trkpt>
<trkpt lat="36.751065" lon="137.751777">
<ele>2808.893686</ele>
<time>2014-08-18T06:17:54Z</time>
<desc><![CDATA[lat.=36.751065, lon.=137.751777, Alt.=2808.893686m. Speed=0.000000m/h.]]></desc>
</trkpt>
<trkpt lat="36.751073" lon="137.751777">
<ele>2809.492026</ele>
<time>2014-08-18T06:17:59Z</time>
<desc><![CDATA[lat.=36.751073, lon.=137.751777, Alt.=2809.492026m. Speed=0.000000m/h.]]></desc>
</trkpt>
<trkpt lat="36.751065" lon="137.751776">
<ele>2810.623847</ele>
<time>2014-08-18T06:18:04Z</time>
<desc><![CDATA[lat.=36.751065, lon.=137.751776, Alt.=2810.623847m. Speed=0.000000m/h.]]></desc>
</trkpt>
<trkpt lat="36.751061" lon="137.751783">
<ele>2811.216959</ele>
<time>2014-08-18T06:18:14Z</time>
<desc><![CDATA[lat.=36.751061, lon.=137.751783, Alt.=2811.216959m. Speed=0.000000m/h.]]></desc>
</trkpt>
<trkpt lat="36.751057" lon="137.751775">
<ele>2811.755669</ele>
<time>2014-08-18T06:18:19Z</time>
<desc><![CDATA[lat.=36.751057, lon.=137.751775, Alt.=2811.755669m. Speed=0.000000m/h.]]></desc>
</trkpt>
<trkpt lat="36.751061" lon="137.751768">
<ele>2811.162558</ele>
<time>2014-08-18T06:18:24Z</time>
<desc><![CDATA[lat.=36.751061, lon.=137.751768, Alt.=2811.162558m. Speed=0.000000m/h.]]></desc>
</trkpt>
<trkpt lat="36.751069" lon="137.751768">
<ele>2811.760898</ele>
<time>2014-08-18T06:18:29Z</time>
<desc><![CDATA[lat.=36.751069, lon.=137.751768, Alt.=2811.760898m. Speed=0.000000m/h.]]></desc>
</trkpt>
<trkpt lat="36.751065" lon="137.751759">
<ele>2812.299608</ele>
<time>2014-08-18T06:18:34Z</time>
<desc><![CDATA[lat.=36.751065, lon.=137.751759, Alt.=2812.299608m. Speed=0.000000m/h.]]></desc>
</trkpt>
<trkpt lat="36.751058" lon="137.751744">
<ele>2811.646869</ele>
<time>2014-08-18T06:18:39Z</time>
<desc><![CDATA[lat.=36.751058, lon.=137.751744, Alt.=2811.646869m. Speed=1.000000m/h.]]></desc>
</trkpt>
<trkpt lat="36.751050" lon="137.751743">
<ele>2812.778691</ele>
<time>2014-08-18T06:18:44Z</time>
<desc><![CDATA[lat.=36.751050, lon.=137.751743, Alt.=2812.778691m. Speed=0.000000m/h.]]></desc>
</trkpt>
<trkpt lat="36.751054" lon="137.751735">
<ele>2812.185580</ele>
<time>2014-08-18T06:18:51Z</time>
<desc><![CDATA[lat.=36.751054, lon.=137.751735, Alt.=2812.185580m. Speed=0.000000m/h.]]></desc>
</trkpt>
<trkpt lat="36.751080" lon="137.751760">
<ele>2811.766126</ele>
<time>2014-08-18T06:18:56Z</time>
<desc><![CDATA[lat.=36.751080, lon.=137.751760, Alt.=2811.766126m. Speed=1.000000m/h.]]></desc>
</trkpt>
<trkpt lat="36.751076" lon="137.751768">
<ele>2812.359237</ele>
<time>2014-08-18T06:19:01Z</time>
<desc><![CDATA[lat.=36.751076, lon.=137.751768, Alt.=2812.359237m. Speed=0.000000m/h.]]></desc>
</trkpt>
<trkpt lat="36.751076" lon="137.751751">
<ele>2814.034998</ele>
<time>2014-08-18T06:19:06Z</time>
<desc><![CDATA[lat.=36.751076, lon.=137.751751, Alt.=2814.034998m. Speed=0.000000m/h.]]></desc>
</trkpt>
<trkpt lat="36.751068" lon="137.751735">
<ele>2815.112420</ele>
<time>2014-08-18T06:19:11Z</time>
<desc><![CDATA[lat.=36.751068, lon.=137.751735, Alt.=2815.112420m. Speed=0.000000m/h.]]></desc>
</trkpt>
<trkpt lat="36.751068" lon="137.751750">
<ele>2815.166820</ele>
<time>2014-08-18T06:19:16Z</time>
<desc><![CDATA[lat.=36.751068, lon.=137.751750, Alt.=2815.166820m. Speed=0.000000m/h.]]></desc>
</trkpt>
<trkpt lat="36.751072" lon="137.751759">
<ele>2814.628109</ele>
<time>2014-08-18T06:19:22Z</time>
<desc><![CDATA[lat.=36.751072, lon.=137.751759, Alt.=2814.628109m. Speed=0.000000m/h.]]></desc>
</trkpt>
<trkpt lat="36.751076" lon="137.751751">
<ele>2814.034998</ele>
<time>2014-08-18T06:19:27Z</time>
<desc><![CDATA[lat.=36.751076, lon.=137.751751, Alt.=2814.034998m. Speed=0.000000m/h.]]></desc>
</trkpt>
<trkpt lat="36.751072" lon="137.751743">
<ele>2814.573709</ele>
<time>2014-08-18T06:19:32Z</time>
<desc><![CDATA[lat.=36.751072, lon.=137.751743, Alt.=2814.573709m. Speed=0.000000m/h.]]></desc>
</trkpt>
<trkpt lat="36.751076" lon="137.751751">
<ele>2814.034998</ele>
<time>2014-08-18T06:19:42Z</time>
<desc><![CDATA[lat.=36.751076, lon.=137.751751, Alt.=2814.034998m. Speed=0.000000m/h.]]></desc>
</trkpt>
<trkpt lat="36.751069" lon="137.751751">
<ele>2813.436659</ele>
<time>2014-08-18T06:19:47Z</time>
<desc><![CDATA[lat.=36.751069, lon.=137.751751, Alt.=2813.436659m. Speed=0.000000m/h.]]></desc>
</trkpt>
<trkpt lat="36.751073" lon="137.751744">
<ele>2812.843548</ele>
<time>2014-08-18T06:20:05Z</time>
<desc><![CDATA[lat.=36.751073, lon.=137.751744, Alt.=2812.843548m. Speed=0.000000m/h.]]></desc>
</trkpt>
<trkpt lat="36.751076" lon="137.751752">
<ele>2812.304837</ele>
<time>2014-08-18T06:20:10Z</time>
<desc><![CDATA[lat.=36.751076, lon.=137.751752, Alt.=2812.304837m. Speed=0.000000m/h.]]></desc>
</trkpt>
<trkpt lat="36.751073" lon="137.751744">
<ele>2812.843548</ele>
<time>2014-08-18T06:20:18Z</time>
<desc><![CDATA[lat.=36.751073, lon.=137.751744, Alt.=2812.843548m. Speed=0.000000m/h.]]></desc>
</trkpt>
<trkpt lat="36.751076" lon="137.751752">
<ele>2812.304837</ele>
<time>2014-08-18T06:20:23Z</time>
<desc><![CDATA[lat.=36.751076, lon.=137.751752, Alt.=2812.304837m. Speed=0.000000m/h.]]></desc>
</trkpt>
<trkpt lat="36.751069" lon="137.751752">
<ele>2811.706497</ele>
<time>2014-08-18T06:20:28Z</time>
<desc><![CDATA[lat.=36.751069, lon.=137.751752, Alt.=2811.706497m. Speed=0.000000m/h.]]></desc>
</trkpt>
<trkpt lat="36.751077" lon="137.751753">
<ele>2810.574676</ele>
<time>2014-08-18T06:20:33Z</time>
<desc><![CDATA[lat.=36.751077, lon.=137.751753, Alt.=2810.574676m. Speed=0.000000m/h.]]></desc>
</trkpt>
<trkpt lat="36.751069" lon="137.751752">
<ele>2811.706497</ele>
<time>2014-08-18T06:20:39Z</time>
<desc><![CDATA[lat.=36.751069, lon.=137.751752, Alt.=2811.706497m. Speed=0.000000m/h.]]></desc>
</trkpt>
<trkpt lat="36.751073" lon="137.751760">
<ele>2811.167787</ele>
<time>2014-08-18T06:20:44Z</time>
<desc><![CDATA[lat.=36.751073, lon.=137.751760, Alt.=2811.167787m. Speed=0.000000m/h.]]></desc>
</trkpt>
<trkpt lat="36.751069" lon="137.751752">
<ele>2811.706497</ele>
<time>2014-08-18T06:21:07Z</time>
<desc><![CDATA[lat.=36.751069, lon.=137.751752, Alt.=2811.706497m. Speed=0.000000m/h.]]></desc>
</trkpt>
<trkpt lat="36.751055" lon="137.751736">
<ele>2810.455419</ele>
<time>2014-08-18T06:21:12Z</time>
<desc><![CDATA[lat.=36.751055, lon.=137.751736, Alt.=2810.455419m. Speed=2.000000m/h.]]></desc>
</trkpt>
<trkpt lat="36.751069" lon="137.751753">
<ele>2809.976336</ele>
<time>2014-08-18T06:21:17Z</time>
<desc><![CDATA[lat.=36.751069, lon.=137.751753, Alt.=2809.976336m. Speed=2.000000m/h.]]></desc>
</trkpt>
<trkpt lat="36.751088" lon="137.751762">
<ele>2808.904144</ele>
<time>2014-08-18T06:21:22Z</time>
<desc><![CDATA[lat.=36.751088, lon.=137.751762, Alt.=2808.904144m. Speed=2.000000m/h.]]></desc>
</trkpt>
<trkpt lat="36.751099" lon="137.751771">
<ele>2807.233612</ele>
<time>2014-08-18T06:21:27Z</time>
<desc><![CDATA[lat.=36.751099, lon.=137.751771, Alt.=2807.233612m. Speed=0.000000m/h.]]></desc>
</trkpt>
<trkpt lat="36.751103" lon="137.751763">
<ele>2806.640501</ele>
<time>2014-08-18T06:21:32Z</time>
<desc><![CDATA[lat.=36.751103, lon.=137.751763, Alt.=2806.640501m. Speed=0.000000m/h.]]></desc>
</trkpt>
<trkpt lat="36.751115" lon="137.751741">
<ele>2804.861170</ele>
<time>2014-08-18T06:21:37Z</time>
<desc><![CDATA[lat.=36.751115, lon.=137.751741, Alt.=2804.861170m. Speed=2.000000m/h.]]></desc>
</trkpt>
<trkpt lat="36.751118" lon="137.751732">
<ele>2807.728382</ele>
<time>2014-08-18T06:21:42Z</time>
<desc><![CDATA[lat.=36.751118, lon.=137.751732, Alt.=2807.728382m. Speed=2.000000m/h.]]></desc>
</trkpt>
<trkpt lat="36.751111" lon="137.751732">
<ele>2807.130042</ele>
<time>2014-08-18T06:21:47Z</time>
<desc><![CDATA[lat.=36.751111, lon.=137.751732, Alt.=2807.130042m. Speed=0.000000m/h.]]></desc>
</trkpt>
<trkpt lat="36.751112" lon="137.751717">
<ele>2805.345481</ele>
<time>2014-08-18T06:21:52Z</time>
<desc><![CDATA[lat.=36.751112, lon.=137.751717, Alt.=2805.345481m. Speed=0.000000m/h.]]></desc>
</trkpt>
<trkpt lat="36.751115" lon="137.751725">
<ele>2804.806770</ele>
<time>2014-08-18T06:22:00Z</time>
<desc><![CDATA[lat.=36.751115, lon.=137.751725, Alt.=2804.806770m. Speed=0.000000m/h.]]></desc>
</trkpt>
<trkpt lat="36.751133" lon="137.751733">
<ele>2805.464740</ele>
<time>2014-08-18T06:22:05Z</time>
<desc><![CDATA[lat.=36.751133, lon.=137.751733, Alt.=2805.464740m. Speed=2.000000m/h.]]></desc>
</trkpt>
<trkpt lat="36.751133" lon="137.751766">
<ele>2802.113218</ele>
<time>2014-08-18T06:22:10Z</time>
<desc><![CDATA[lat.=36.751133, lon.=137.751766, Alt.=2802.113218m. Speed=2.000000m/h.]]></desc>
</trkpt>
<trkpt lat="36.751141" lon="137.751783">
<ele>2801.035798</ele>
<time>2014-08-18T06:22:15Z</time>
<desc><![CDATA[lat.=36.751141, lon.=137.751783, Alt.=2801.035798m. Speed=0.000000m/h.]]></desc>
</trkpt>
<trkpt lat="36.751171" lon="137.751768">
<ele>2799.914438</ele>
<time>2014-08-18T06:22:20Z</time>
<desc><![CDATA[lat.=36.751171, lon.=137.751768, Alt.=2799.914438m. Speed=1.000000m/h.]]></desc>
</trkpt>
<trkpt lat="36.751209" lon="137.751756">
<ele>2795.931100</ele>
<time>2014-08-18T06:22:25Z</time>
<desc><![CDATA[lat.=36.751209, lon.=137.751756, Alt.=2795.931100m. Speed=2.000000m/h.]]></desc>
</trkpt>
<trkpt lat="36.751209" lon="137.751740">
<ele>2795.876700</ele>
<time>2014-08-18T06:22:30Z</time>
<desc><![CDATA[lat.=36.751209, lon.=137.751740, Alt.=2795.876700m. Speed=1.000000m/h.]]></desc>
</trkpt>
<trkpt lat="36.751277" lon="137.751729">
<ele>2789.096251</ele>
<time>2014-08-18T06:22:35Z</time>
<desc><![CDATA[lat.=36.751277, lon.=137.751729, Alt.=2789.096251m. Speed=2.000000m/h.]]></desc>
</trkpt>
<trkpt lat="36.751242" lon="137.751749">
<ele>2796.001196</ele>
<time>2014-08-18T06:22:40Z</time>
<desc><![CDATA[lat.=36.751242, lon.=137.751749, Alt.=2796.001196m. Speed=0.000000m/h.]]></desc>
</trkpt>
<trkpt lat="36.751236" lon="137.751734">
<ele>2793.618293</ele>
<time>2014-08-18T06:22:45Z</time>
<desc><![CDATA[lat.=36.751236, lon.=137.751734, Alt.=2793.618293m. Speed=0.000000m/h.]]></desc>
</trkpt>
<trkpt lat="36.751212" lon="137.751763">
<ele>2797.122551</ele>
<time>2014-08-18T06:22:50Z</time>
<desc><![CDATA[lat.=36.751212, lon.=137.751763, Alt.=2797.122551m. Speed=0.000000m/h.]]></desc>
</trkpt>
<trkpt lat="36.751213" lon="137.751748">
<ele>2795.337990</ele>
<time>2014-08-18T06:22:55Z</time>
<desc><![CDATA[lat.=36.751213, lon.=137.751748, Alt.=2795.337990m. Speed=0.000000m/h.]]></desc>
</trkpt>
<trkpt lat="36.751220" lon="137.751765">
<ele>2794.260571</ele>
<time>2014-08-18T06:23:00Z</time>
<desc><![CDATA[lat.=36.751220, lon.=137.751765, Alt.=2794.260571m. Speed=1.000000m/h.]]></desc>
</trkpt>
<trkpt lat="36.751223" lon="137.751805">
<ele>2793.830662</ele>
<time>2014-08-18T06:23:05Z</time>
<desc><![CDATA[lat.=36.751223, lon.=137.751805, Alt.=2793.830662m. Speed=2.000000m/h.]]></desc>
</trkpt>
<trkpt lat="36.751260" lon="137.751806">
<ele>2793.362050</ele>
<time>2014-08-18T06:23:10Z</time>
<desc><![CDATA[lat.=36.751260, lon.=137.751806, Alt.=2793.362050m. Speed=2.000000m/h.]]></desc>
</trkpt>
<trkpt lat="36.751300" lon="137.751815">
<ele>2794.084893</ele>
<time>2014-08-18T06:23:15Z</time>
<desc><![CDATA[lat.=36.751300, lon.=137.751815, Alt.=2794.084893m. Speed=2.000000m/h.]]></desc>
</trkpt>
<trkpt lat="36.751348" lon="137.751809">
<ele>2793.621520</ele>
<time>2014-08-18T06:23:20Z</time>
<desc><![CDATA[lat.=36.751348, lon.=137.751809, Alt.=2793.621520m. Speed=2.000000m/h.]]></desc>
</trkpt>
<trkpt lat="36.751374" lon="137.751786">
<ele>2794.769041</ele>
<time>2014-08-18T06:23:25Z</time>
<desc><![CDATA[lat.=36.751374, lon.=137.751786, Alt.=2794.769041m. Speed=2.000000m/h.]]></desc>
</trkpt>
<trkpt lat="36.751423" lon="137.751765">
<ele>2792.521115</ele>
<time>2014-08-18T06:23:30Z</time>
<desc><![CDATA[lat.=36.751423, lon.=137.751765, Alt.=2792.521115m. Speed=3.000000m/h.]]></desc>
</trkpt>
<trkpt lat="36.751445" lon="137.751750">
<ele>2792.531588</ele>
<time>2014-08-18T06:23:35Z</time>
<desc><![CDATA[lat.=36.751445, lon.=137.751750, Alt.=2792.531588m. Speed=3.000000m/h.]]></desc>
</trkpt>
<trkpt lat="36.751467" lon="137.751750">
<ele>2794.326623</ele>
<time>2014-08-18T06:23:40Z</time>
<desc><![CDATA[lat.=36.751467, lon.=137.751750, Alt.=2794.326623m. Speed=2.000000m/h.]]></desc>
</trkpt>
<trkpt lat="36.751497" lon="137.751752">
<ele>2791.529522</ele>
<time>2014-08-18T06:23:45Z</time>
<desc><![CDATA[lat.=36.751497, lon.=137.751752, Alt.=2791.529522m. Speed=2.000000m/h.]]></desc>
</trkpt>
<trkpt lat="36.751545" lon="137.751747">
<ele>2789.336007</ele>
<time>2014-08-18T06:23:50Z</time>
<desc><![CDATA[lat.=36.751545, lon.=137.751747, Alt.=2789.336007m. Speed=3.000000m/h.]]></desc>
</trkpt>
<trkpt lat="36.751556" lon="137.751754">
<ele>2791.125807</ele>
<time>2014-08-18T06:23:55Z</time>
<desc><![CDATA[lat.=36.751556, lon.=137.751754, Alt.=2791.125807m. Speed=2.000000m/h.]]></desc>
</trkpt>
<trkpt lat="36.751593" lon="137.751756">
<ele>2790.657218</ele>
<time>2014-08-18T06:24:00Z</time>
<desc><![CDATA[lat.=36.751593, lon.=137.751756, Alt.=2790.657218m. Speed=3.000000m/h.]]></desc>
</trkpt>
<trkpt lat="36.751645" lon="137.751759">
<ele>2787.925006</ele>
<time>2014-08-18T06:24:05Z</time>
<desc><![CDATA[lat.=36.751645, lon.=137.751759, Alt.=2787.925006m. Speed=3.000000m/h.]]></desc>
</trkpt>
<trkpt lat="36.751693" lon="137.751754">
<ele>2785.731505</ele>
<time>2014-08-18T06:24:10Z</time>
<desc><![CDATA[lat.=36.751693, lon.=137.751754, Alt.=2785.731505m. Speed=3.000000m/h.]]></desc>
</trkpt>
<trkpt lat="36.751738" lon="137.751740">
<ele>2784.076715</ele>
<time>2014-08-18T06:24:15Z</time>
<desc><![CDATA[lat.=36.751738, lon.=137.751740, Alt.=2784.076715m. Speed=3.000000m/h.]]></desc>
</trkpt>
<trkpt lat="36.751771" lon="137.751748">
<ele>2785.931406</ele>
<time>2014-08-18T06:24:20Z</time>
<desc><![CDATA[lat.=36.751771, lon.=137.751748, Alt.=2785.931406m. Speed=3.000000m/h.]]></desc>
</trkpt>
<trkpt lat="36.751811" lon="137.751742">
<ele>2786.599888</ele>
<time>2014-08-18T06:24:25Z</time>
<desc><![CDATA[lat.=36.751811, lon.=137.751742, Alt.=2786.599888m. Speed=3.000000m/h.]]></desc>
</trkpt>
<trkpt lat="36.751859" lon="137.751752">
<ele>2784.460803</ele>
<time>2014-08-18T06:24:30Z</time>
<desc><![CDATA[lat.=36.751859, lon.=137.751752, Alt.=2784.460803m. Speed=3.000000m/h.]]></desc>
</trkpt>
<trkpt lat="36.751882" lon="137.751737">
<ele>2784.471295</ele>
<time>2014-08-18T06:24:35Z</time>
<desc><![CDATA[lat.=36.751882, lon.=137.751737, Alt.=2784.471295m. Speed=3.000000m/h.]]></desc>
</trkpt>
<trkpt lat="36.751889" lon="137.751737">
<ele>2785.069646</ele>
<time>2014-08-18T06:24:41Z</time>
<desc><![CDATA[lat.=36.751889, lon.=137.751737, Alt.=2785.069646m. Speed=1.000000m/h.]]></desc>
</trkpt>
<trkpt lat="36.751877" lon="137.751760">
<ele>2786.848959</ele>
<time>2014-08-18T06:24:46Z</time>
<desc><![CDATA[lat.=36.751877, lon.=137.751760, Alt.=2786.848959m. Speed=0.000000m/h.]]></desc>
</trkpt>
<trkpt lat="36.751910" lon="137.751753">
<ele>2786.919099</ele>
<time>2014-08-18T06:24:51Z</time>
<desc><![CDATA[lat.=36.751910, lon.=137.751753, Alt.=2786.919099m. Speed=2.000000m/h.]]></desc>
</trkpt>
<trkpt lat="36.751943" lon="137.751761">
<ele>2788.773800</ele>
<time>2014-08-18T06:24:56Z</time>
<desc><![CDATA[lat.=36.751943, lon.=137.751761, Alt.=2788.773800m. Speed=3.000000m/h.]]></desc>
</trkpt>
<trkpt lat="36.751975" lon="137.751786">
<ele>2788.952743</ele>
<time>2014-08-18T06:25:01Z</time>
<desc><![CDATA[lat.=36.751975, lon.=137.751786, Alt.=2788.952743m. Speed=3.000000m/h.]]></desc>
</trkpt>
<trkpt lat="36.751960" lon="137.751785">
<ele>2789.486199</ele>
<time>2014-08-18T06:25:06Z</time>
<desc><![CDATA[lat.=36.751960, lon.=137.751785, Alt.=2789.486199m. Speed=0.000000m/h.]]></desc>
</trkpt>
<trkpt lat="36.751998" lon="137.751788">
<ele>2787.287479</ele>
<time>2014-08-18T06:25:11Z</time>
<desc><![CDATA[lat.=36.751998, lon.=137.751788, Alt.=2787.287479m. Speed=0.000000m/h.]]></desc>
</trkpt>
<trkpt lat="36.752046" lon="137.751782">
<ele>2786.824172</ele>
<time>2014-08-18T06:25:16Z</time>
<desc><![CDATA[lat.=36.752046, lon.=137.751782, Alt.=2786.824172m. Speed=2.000000m/h.]]></desc>
</trkpt>
<trkpt lat="36.752112" lon="137.751785">
<ele>2785.288713</ele>
<time>2014-08-18T06:25:21Z</time>
<desc><![CDATA[lat.=36.752112, lon.=137.751785, Alt.=2785.288713m. Speed=3.000000m/h.]]></desc>
</trkpt>
<trkpt lat="36.752137" lon="137.751793">
<ele>2786.545073</ele>
<time>2014-08-18T06:25:26Z</time>
<desc><![CDATA[lat.=36.752137, lon.=137.751793, Alt.=2786.545073m. Speed=3.000000m/h.]]></desc>
</trkpt>
<trkpt lat="36.752158" lon="137.751840">
<ele>2788.503339</ele>
<time>2014-08-18T06:25:31Z</time>
<desc><![CDATA[lat.=36.752158, lon.=137.751840, Alt.=2788.503339m. Speed=3.000000m/h.]]></desc>
</trkpt>
<trkpt lat="36.752152" lon="137.751877">
<ele>2794.395726</ele>
<time>2014-08-18T06:25:36Z</time>
<desc><![CDATA[lat.=36.752152, lon.=137.751877, Alt.=2794.395726m. Speed=2.000000m/h.]]></desc>
</trkpt>
<trkpt lat="36.752227" lon="137.751883">
<ele>2788.268156</ele>
<time>2014-08-18T06:25:41Z</time>
<desc><![CDATA[lat.=36.752227, lon.=137.751883, Alt.=2788.268156m. Speed=2.000000m/h.]]></desc>
</trkpt>
<trkpt lat="36.752260" lon="137.751876">
<ele>2788.338317</ele>
<time>2014-08-18T06:25:46Z</time>
<desc><![CDATA[lat.=36.752260, lon.=137.751876, Alt.=2788.338317m. Speed=2.000000m/h.]]></desc>
</trkpt>
<trkpt lat="36.752287" lon="137.751870">
<ele>2786.079963</ele>
<time>2014-08-18T06:25:51Z</time>
<desc><![CDATA[lat.=36.752287, lon.=137.751870, Alt.=2786.079963m. Speed=2.000000m/h.]]></desc>
</trkpt>
<trkpt lat="36.752317" lon="137.751840">
<ele>2784.904268</ele>
<time>2014-08-18T06:25:56Z</time>
<desc><![CDATA[lat.=36.752317, lon.=137.751840, Alt.=2784.904268m. Speed=2.000000m/h.]]></desc>
</trkpt>
<trkpt lat="36.752309" lon="137.751822">
<ele>2789.441991</ele>
<time>2014-08-18T06:26:01Z</time>
<desc><![CDATA[lat.=36.752309, lon.=137.751822, Alt.=2789.441991m. Speed=0.000000m/h.]]></desc>
</trkpt>
<trkpt lat="36.752317" lon="137.751822">
<ele>2788.310188</ele>
<time>2014-08-18T06:26:06Z</time>
<desc><![CDATA[lat.=36.752317, lon.=137.751822, Alt.=2788.310188m. Speed=0.000000m/h.]]></desc>
</trkpt>
<trkpt lat="36.752335" lon="137.751831">
<ele>2788.968201</ele>
<time>2014-08-18T06:26:11Z</time>
<desc><![CDATA[lat.=36.752335, lon.=137.751831, Alt.=2788.968201m. Speed=2.000000m/h.]]></desc>
</trkpt>
<trkpt lat="36.752345" lon="137.751855">
<ele>2789.082258</ele>
<time>2014-08-18T06:26:16Z</time>
<desc><![CDATA[lat.=36.752345, lon.=137.751855, Alt.=2789.082258m. Speed=2.000000m/h.]]></desc>
</trkpt>
<trkpt lat="36.752390" lon="137.751857">
<ele>2787.481924</ele>
<time>2014-08-18T06:26:21Z</time>
<desc><![CDATA[lat.=36.752390, lon.=137.751857, Alt.=2787.481924m. Speed=3.000000m/h.]]></desc>
</trkpt>
<trkpt lat="36.752411" lon="137.751889">
<ele>2787.655641</ele>
<time>2014-08-18T06:26:26Z</time>
<desc><![CDATA[lat.=36.752411, lon.=137.751889, Alt.=2787.655641m. Speed=3.000000m/h.]]></desc>
</trkpt>
<trkpt lat="36.752482" lon="137.751886">
<ele>2783.796969</ele>
<time>2014-08-18T06:26:31Z</time>
<desc><![CDATA[lat.=36.752482, lon.=137.751886, Alt.=2783.796969m. Speed=3.000000m/h.]]></desc>
</trkpt>
<trkpt lat="36.752512" lon="137.751871">
<ele>2782.675686</ele>
<time>2014-08-18T06:26:36Z</time>
<desc><![CDATA[lat.=36.752512, lon.=137.751871, Alt.=2782.675686m. Speed=3.000000m/h.]]></desc>
</trkpt>
<trkpt lat="36.752533" lon="137.751904">
<ele>2782.849409</ele>
<time>2014-08-18T06:26:41Z</time>
<desc><![CDATA[lat.=36.752533, lon.=137.751904, Alt.=2782.849409m. Speed=3.000000m/h.]]></desc>
</trkpt>
<trkpt lat="36.752535" lon="137.751942">
<ele>2785.879834</ele>
<time>2014-08-18T06:26:46Z</time>
<desc><![CDATA[lat.=36.752535, lon.=137.751942, Alt.=2785.879834m. Speed=3.000000m/h.]]></desc>
</trkpt>
<trkpt lat="36.752564" lon="137.751975">
<ele>2786.651922</ele>
<time>2014-08-18T06:26:51Z</time>
<desc><![CDATA[lat.=36.752564, lon.=137.751975, Alt.=2786.651922m. Speed=3.000000m/h.]]></desc>
</trkpt>
<trkpt lat="36.752567" lon="137.751965">
<ele>2791.249300</ele>
<time>2014-08-18T06:26:56Z</time>
<desc><![CDATA[lat.=36.752567, lon.=137.751965, Alt.=2791.249300m. Speed=3.000000m/h.]]></desc>
</trkpt>
<trkpt lat="36.752603" lon="137.751982">
<ele>2790.835187</ele>
<time>2014-08-18T06:27:01Z</time>
<desc><![CDATA[lat.=36.752603, lon.=137.751982, Alt.=2790.835187m. Speed=3.000000m/h.]]></desc>
</trkpt>
<trkpt lat="36.752588" lon="137.751997">
<ele>2791.423029</ele>
<time>2014-08-18T06:27:06Z</time>
<desc><![CDATA[lat.=36.752588, lon.=137.751997, Alt.=2791.423029m. Speed=0.000000m/h.]]></desc>
</trkpt>
<trkpt lat="36.752615" lon="137.751991">
<ele>2789.164691</ele>
<time>2014-08-18T06:27:11Z</time>
<desc><![CDATA[lat.=36.752615, lon.=137.751991, Alt.=2789.164691m. Speed=0.000000m/h.]]></desc>
</trkpt>
<trkpt lat="36.752644" lon="137.751992">
<ele>2789.827977</ele>
<time>2014-08-18T06:27:16Z</time>
<desc><![CDATA[lat.=36.752644, lon.=137.751992, Alt.=2789.827977m. Speed=2.000000m/h.]]></desc>
</trkpt>
<trkpt lat="36.752647" lon="137.752048">
<ele>2787.722332</ele>
<time>2014-08-18T06:27:21Z</time>
<desc><![CDATA[lat.=36.752647, lon.=137.752048, Alt.=2787.722332m. Speed=3.000000m/h.]]></desc>
</trkpt>
<trkpt lat="36.752706" lon="137.752067">
<ele>2785.642995</ele>
<time>2014-08-18T06:27:26Z</time>
<desc><![CDATA[lat.=36.752706, lon.=137.752067, Alt.=2785.642995m. Speed=3.000000m/h.]]></desc>
</trkpt>
<trkpt lat="36.752765" lon="137.752086">
<ele>2783.563665</ele>
<time>2014-08-18T06:27:31Z</time>
<desc><![CDATA[lat.=36.752765, lon.=137.752086, Alt.=2783.563665m. Speed=3.000000m/h.]]></desc>
</trkpt>
<trkpt lat="36.752801" lon="137.752088">
<ele>2783.095163</ele>
<time>2014-08-18T06:27:36Z</time>
<desc><![CDATA[lat.=36.752801, lon.=137.752088, Alt.=2783.095163m. Speed=3.000000m/h.]]></desc>
</trkpt>
<trkpt lat="36.752831" lon="137.752122">
<ele>2780.406952</ele>
<time>2014-08-18T06:27:41Z</time>
<desc><![CDATA[lat.=36.752831, lon.=137.752122, Alt.=2780.406952m. Speed=3.000000m/h.]]></desc>
</trkpt>
<trkpt lat="36.752872" lon="137.752116">
<ele>2777.615195</ele>
<time>2014-08-18T06:27:46Z</time>
<desc><![CDATA[lat.=36.752872, lon.=137.752116, Alt.=2777.615195m. Speed=3.000000m/h.]]></desc>
</trkpt>
<trkpt lat="36.752867" lon="137.752155">
<ele>2780.047268</ele>
<time>2014-08-18T06:27:51Z</time>
<desc><![CDATA[lat.=36.752867, lon.=137.752155, Alt.=2780.047268m. Speed=3.000000m/h.]]></desc>
</trkpt>
<trkpt lat="36.752895" lon="137.752203">
<ele>2780.873789</ele>
<time>2014-08-18T06:27:56Z</time>
<desc><![CDATA[lat.=36.752895, lon.=137.752203, Alt.=2780.873789m. Speed=3.000000m/h.]]></desc>
</trkpt>
<trkpt lat="36.752878" lon="137.752248">
<ele>2785.030762</ele>
<time>2014-08-18T06:28:01Z</time>
<desc><![CDATA[lat.=36.752878, lon.=137.752248, Alt.=2785.030762m. Speed=3.000000m/h.]]></desc>
</trkpt>
<trkpt lat="36.752895" lon="137.752287">
<ele>2787.527776</ele>
<time>2014-08-18T06:28:06Z</time>
<desc><![CDATA[lat.=36.752895, lon.=137.752287, Alt.=2787.527776m. Speed=3.000000m/h.]]></desc>
</trkpt>
<trkpt lat="36.752924" lon="137.752320">
<ele>2786.569738</ele>
<time>2014-08-18T06:28:11Z</time>
<desc><![CDATA[lat.=36.752924, lon.=137.752320, Alt.=2786.569738m. Speed=3.000000m/h.]]></desc>
</trkpt>
<trkpt lat="36.752899" lon="137.752396">
<ele>2793.697491</ele>
<time>2014-08-18T06:28:16Z</time>
<desc><![CDATA[lat.=36.752899, lon.=137.752396, Alt.=2793.697491m. Speed=3.000000m/h.]]></desc>
</trkpt>
<trkpt lat="36.752907" lon="137.752449">
<ele>2799.110878</ele>
<time>2014-08-18T06:28:21Z</time>
<desc><![CDATA[lat.=36.752907, lon.=137.752449, Alt.=2799.110878m. Speed=3.000000m/h.]]></desc>
</trkpt>
<trkpt lat="36.752884" lon="137.752479">
<ele>2800.884927</ele>
<time>2014-08-18T06:28:26Z</time>
<desc><![CDATA[lat.=36.752884, lon.=137.752479, Alt.=2800.884927m. Speed=2.000000m/h.]]></desc>
</trkpt>
<trkpt lat="36.752954" lon="137.752490">
<ele>2798.810889</ele>
<time>2014-08-18T06:28:31Z</time>
<desc><![CDATA[lat.=36.752954, lon.=137.752490, Alt.=2798.810889m. Speed=3.000000m/h.]]></desc>
</trkpt>
<trkpt lat="36.752994" lon="137.752515">
<ele>2799.588285</ele>
<time>2014-08-18T06:28:36Z</time>
<desc><![CDATA[lat.=36.752994, lon.=137.752515, Alt.=2799.588285m. Speed=3.000000m/h.]]></desc>
</trkpt>
<trkpt lat="36.753030" lon="137.752548">
<ele>2799.228628</ele>
<time>2014-08-18T06:28:41Z</time>
<desc><![CDATA[lat.=36.753030, lon.=137.752548, Alt.=2799.228628m. Speed=3.000000m/h.]]></desc>
</trkpt>
<trkpt lat="36.753055" lon="137.752589">
<ele>2798.863712</ele>
<time>2014-08-18T06:28:46Z</time>
<desc><![CDATA[lat.=36.753055, lon.=137.752589, Alt.=2798.863712m. Speed=3.000000m/h.]]></desc>
</trkpt>
<trkpt lat="36.752980" lon="137.752684">
<ele>2811.699600</ele>
<time>2014-08-18T06:28:51Z</time>
<desc><![CDATA[lat.=36.752980, lon.=137.752684, Alt.=2811.699600m. Speed=3.000000m/h.]]></desc>
</trkpt>
<trkpt lat="36.753017" lon="137.752701">
<ele>2811.285532</ele>
<time>2014-08-18T06:28:56Z</time>
<desc><![CDATA[lat.=36.753017, lon.=137.752701, Alt.=2811.285532m. Speed=3.000000m/h.]]></desc>
</trkpt>
<trkpt lat="36.753080" lon="137.752729">
<ele>2806.937407</ele>
<time>2014-08-18T06:29:01Z</time>
<desc><![CDATA[lat.=36.753080, lon.=137.752729, Alt.=2806.937407m. Speed=3.000000m/h.]]></desc>
</trkpt>
<trkpt lat="36.753197" lon="137.752731">
<ele>2794.557926</ele>
<time>2014-08-18T06:29:06Z</time>
<desc><![CDATA[lat.=36.753197, lon.=137.752731, Alt.=2794.557926m. Speed=4.000000m/h.]]></desc>
</trkpt>
<trkpt lat="36.753214" lon="137.752771">
<ele>2795.324816</ele>
<time>2014-08-18T06:29:11Z</time>
<desc><![CDATA[lat.=36.753214, lon.=137.752771, Alt.=2795.324816m. Speed=3.000000m/h.]]></desc>
</trkpt>
<trkpt lat="36.753285" lon="137.752768">
<ele>2789.736091</ele>
<time>2014-08-18T06:29:16Z</time>
<desc><![CDATA[lat.=36.753285, lon.=137.752768, Alt.=2789.736091m. Speed=3.000000m/h.]]></desc>
</trkpt>
<trkpt lat="36.753287" lon="137.752806">
<ele>2792.766561</ele>
<time>2014-08-18T06:29:21Z</time>
<desc><![CDATA[lat.=36.753287, lon.=137.752806, Alt.=2792.766561m. Speed=3.000000m/h.]]></desc>
</trkpt>
<trkpt lat="36.753290" lon="137.752846">
<ele>2792.336717</ele>
<time>2014-08-18T06:29:26Z</time>
<desc><![CDATA[lat.=36.753290, lon.=137.752846, Alt.=2792.336717m. Speed=3.000000m/h.]]></desc>
</trkpt>
<trkpt lat="36.753308" lon="137.752887">
<ele>2789.643298</ele>
<time>2014-08-18T06:29:31Z</time>
<desc><![CDATA[lat.=36.753308, lon.=137.752887, Alt.=2789.643298m. Speed=3.000000m/h.]]></desc>
</trkpt>
<trkpt lat="36.753311" lon="137.752927">
<ele>2789.213458</ele>
<time>2014-08-18T06:29:36Z</time>
<desc><![CDATA[lat.=36.753311, lon.=137.752927, Alt.=2789.213458m. Speed=3.000000m/h.]]></desc>
</trkpt>
<trkpt lat="36.753325" lon="137.752975">
<ele>2790.573466</ele>
<time>2014-08-18T06:29:41Z</time>
<desc><![CDATA[lat.=36.753325, lon.=137.752975, Alt.=2790.573466m. Speed=3.000000m/h.]]></desc>
</trkpt>
<trkpt lat="36.753335" lon="137.753015">
<ele>2790.742001</ele>
<time>2014-08-18T06:29:46Z</time>
<desc><![CDATA[lat.=36.753335, lon.=137.753015, Alt.=2790.742001m. Speed=3.000000m/h.]]></desc>
</trkpt>
<trkpt lat="36.753367" lon="137.753056">
<ele>2789.245336</ele>
<time>2014-08-18T06:29:51Z</time>
<desc><![CDATA[lat.=36.753367, lon.=137.753056, Alt.=2789.245336m. Speed=3.000000m/h.]]></desc>
</trkpt>
<trkpt lat="36.753396" lon="137.753089">
<ele>2788.287356</ele>
<time>2014-08-18T06:29:56Z</time>
<desc><![CDATA[lat.=36.753396, lon.=137.753089, Alt.=2788.287356m. Speed=3.000000m/h.]]></desc>
</trkpt>
<trkpt lat="36.753405" lon="137.753144">
<ele>2790.240482</ele>
<time>2014-08-18T06:30:01Z</time>
<desc><![CDATA[lat.=36.753405, lon.=137.753144, Alt.=2790.240482m. Speed=3.000000m/h.]]></desc>
</trkpt>
<trkpt lat="36.753400" lon="137.753183">
<ele>2792.672599</ele>
<time>2014-08-18T06:30:06Z</time>
<desc><![CDATA[lat.=36.753400, lon.=137.753183, Alt.=2792.672599m. Speed=3.000000m/h.]]></desc>
</trkpt>
<trkpt lat="36.753411" lon="137.753207">
<ele>2792.786718</ele>
<time>2014-08-18T06:30:11Z</time>
<desc><![CDATA[lat.=36.753411, lon.=137.753207, Alt.=2792.786718m. Speed=3.000000m/h.]]></desc>
</trkpt>
<trkpt lat="36.753401" lon="137.753252">
<ele>2797.542102</ele>
<time>2014-08-18T06:30:16Z</time>
<desc><![CDATA[lat.=36.753401, lon.=137.753252, Alt.=2797.542102m. Speed=2.000000m/h.]]></desc>
</trkpt>
<trkpt lat="36.753438" lon="137.753270">
<ele>2795.397919</ele>
<time>2014-08-18T06:30:21Z</time>
<desc><![CDATA[lat.=36.753438, lon.=137.753270, Alt.=2795.397919m. Speed=3.000000m/h.]]></desc>
</trkpt>
<trkpt lat="36.753444" lon="137.753300">
<ele>2799.565464</ele>
<time>2014-08-18T06:30:26Z</time>
<desc><![CDATA[lat.=36.753444, lon.=137.753300, Alt.=2799.565464m. Speed=3.000000m/h.]]></desc>
</trkpt>
<trkpt lat="36.753484" lon="137.753326">
<ele>2798.612765</ele>
<time>2014-08-18T06:30:31Z</time>
<desc><![CDATA[lat.=36.753484, lon.=137.753326, Alt.=2798.612765m. Speed=3.000000m/h.]]></desc>
</trkpt>
<trkpt lat="36.753494" lon="137.753365">
<ele>2800.511478</ele>
<time>2014-08-18T06:30:36Z</time>
<desc><![CDATA[lat.=36.753494, lon.=137.753365, Alt.=2800.511478m. Speed=3.000000m/h.]]></desc>
</trkpt>
<trkpt lat="36.753542" lon="137.753375">
<ele>2798.372571</ele>
<time>2014-08-18T06:30:41Z</time>
<desc><![CDATA[lat.=36.753542, lon.=137.753375, Alt.=2798.372571m. Speed=3.000000m/h.]]></desc>
</trkpt>
<trkpt lat="36.753582" lon="137.753401">
<ele>2797.419882</ele>
<time>2014-08-18T06:30:46Z</time>
<desc><![CDATA[lat.=36.753582, lon.=137.753401, Alt.=2797.419882m. Speed=3.000000m/h.]]></desc>
</trkpt>
<trkpt lat="36.753600" lon="137.753425">
<ele>2798.132387</ele>
<time>2014-08-18T06:30:51Z</time>
<desc><![CDATA[lat.=36.753600, lon.=137.753425, Alt.=2798.132387m. Speed=3.000000m/h.]]></desc>
</trkpt>
<trkpt lat="36.753629" lon="137.753458">
<ele>2797.174435</ele>
<time>2014-08-18T06:30:56Z</time>
<desc><![CDATA[lat.=36.753629, lon.=137.753458, Alt.=2797.174435m. Speed=2.000000m/h.]]></desc>
</trkpt>
<trkpt lat="36.753640" lon="137.753484">
<ele>2793.828252</ele>
<time>2014-08-18T06:31:01Z</time>
<desc><![CDATA[lat.=36.753640, lon.=137.753484, Alt.=2793.828252m. Speed=2.000000m/h.]]></desc>
</trkpt>
<trkpt lat="36.753662" lon="137.753502">
<ele>2790.487339</ele>
<time>2014-08-18T06:31:06Z</time>
<desc><![CDATA[lat.=36.753662, lon.=137.753502, Alt.=2790.487339m. Speed=2.000000m/h.]]></desc>
</trkpt>
<trkpt lat="36.753668" lon="137.753549">
<ele>2792.979172</ele>
<time>2014-08-18T06:31:11Z</time>
<desc><![CDATA[lat.=36.753668, lon.=137.753549, Alt.=2792.979172m. Speed=2.000000m/h.]]></desc>
</trkpt>
<trkpt lat="36.753689" lon="137.753580">
<ele>2794.883168</ele>
<time>2014-08-18T06:31:16Z</time>
<desc><![CDATA[lat.=36.753689, lon.=137.753580, Alt.=2794.883168m. Speed=2.000000m/h.]]></desc>
</trkpt>
<trkpt lat="36.753696" lon="137.753596">
<ele>2795.535979</ele>
<time>2014-08-18T06:31:21Z</time>
<desc><![CDATA[lat.=36.753696, lon.=137.753596, Alt.=2795.535979m. Speed=2.000000m/h.]]></desc>
</trkpt>
<trkpt lat="36.753728" lon="137.753621">
<ele>2795.715089</ele>
<time>2014-08-18T06:31:26Z</time>
<desc><![CDATA[lat.=36.753728, lon.=137.753621, Alt.=2795.715089m. Speed=2.000000m/h.]]></desc>
</trkpt>
<trkpt lat="36.753734" lon="137.753652">
<ele>2798.152494</ele>
<time>2014-08-18T06:31:31Z</time>
<desc><![CDATA[lat.=36.753734, lon.=137.753652, Alt.=2798.152494m. Speed=2.000000m/h.]]></desc>
</trkpt>
<trkpt lat="36.753756" lon="137.753684">
<ele>2798.326339</ele>
<time>2014-08-18T06:31:36Z</time>
<desc><![CDATA[lat.=36.753756, lon.=137.753684, Alt.=2798.326339m. Speed=2.000000m/h.]]></desc>
</trkpt>
<trkpt lat="36.753773" lon="137.753708">
<ele>2799.038858</ele>
<time>2014-08-18T06:31:41Z</time>
<desc><![CDATA[lat.=36.753773, lon.=137.753708, Alt.=2799.038858m. Speed=2.000000m/h.]]></desc>
</trkpt>
<trkpt lat="36.753814" lon="137.753734">
<ele>2798.086198</ele>
<time>2014-08-18T06:31:46Z</time>
<desc><![CDATA[lat.=36.753814, lon.=137.753734, Alt.=2798.086198m. Speed=2.000000m/h.]]></desc>
</trkpt>
<trkpt lat="36.753816" lon="137.753774">
<ele>2797.656402</ele>
<time>2014-08-18T06:31:51Z</time>
<desc><![CDATA[lat.=36.753816, lon.=137.753774, Alt.=2797.656402m. Speed=2.000000m/h.]]></desc>
</trkpt>
<trkpt lat="36.753857" lon="137.753800">
<ele>2794.973590</ele>
<time>2014-08-18T06:31:56Z</time>
<desc><![CDATA[lat.=36.753857, lon.=137.753800, Alt.=2794.973590m. Speed=2.000000m/h.]]></desc>
</trkpt>
<trkpt lat="36.753855" lon="137.753830">
<ele>2798.542782</ele>
<time>2014-08-18T06:32:01Z</time>
<desc><![CDATA[lat.=36.753855, lon.=137.753830, Alt.=2798.542782m. Speed=2.000000m/h.]]></desc>
</trkpt>
<trkpt lat="36.753884" lon="137.753847">
<ele>2799.260579</ele>
<time>2014-08-18T06:32:06Z</time>
<desc><![CDATA[lat.=36.753884, lon.=137.753847, Alt.=2799.260579m. Speed=2.000000m/h.]]></desc>
</trkpt>
<trkpt lat="36.753917" lon="137.753872">
<ele>2797.709552</ele>
<time>2014-08-18T06:32:11Z</time>
<desc><![CDATA[lat.=36.753917, lon.=137.753872, Alt.=2797.709552m. Speed=2.000000m/h.]]></desc>
</trkpt>
<trkpt lat="36.753931" lon="137.753904">
<ele>2799.015191</ele>
<time>2014-08-18T06:32:16Z</time>
<desc><![CDATA[lat.=36.753931, lon.=137.753904, Alt.=2799.015191m. Speed=2.000000m/h.]]></desc>
</trkpt>
<trkpt lat="36.753937" lon="137.753935">
<ele>2801.452609</ele>
<time>2014-08-18T06:32:21Z</time>
<desc><![CDATA[lat.=36.753937, lon.=137.753935, Alt.=2801.452609m. Speed=2.000000m/h.]]></desc>
</trkpt>
<trkpt lat="36.753962" lon="137.753959">
<ele>2802.763522</ele>
<time>2014-08-18T06:32:26Z</time>
<desc><![CDATA[lat.=36.753962, lon.=137.753959, Alt.=2802.763522m. Speed=2.000000m/h.]]></desc>
</trkpt>
<trkpt lat="36.753964" lon="137.753965">
<ele>2807.415325</ele>
<time>2014-08-18T06:32:31Z</time>
<desc><![CDATA[lat.=36.753964, lon.=137.753965, Alt.=2807.415325m. Speed=2.000000m/h.]]></desc>
</trkpt>
<trkpt lat="36.753983" lon="137.753990">
<ele>2806.397703</ele>
<time>2014-08-18T06:32:36Z</time>
<desc><![CDATA[lat.=36.753983, lon.=137.753990, Alt.=2806.397703m. Speed=2.000000m/h.]]></desc>
</trkpt>
<trkpt lat="36.753977" lon="137.754028">
<ele>2808.829854</ele>
<time>2014-08-18T06:32:41Z</time>
<desc><![CDATA[lat.=36.753977, lon.=137.754028, Alt.=2808.829854m. Speed=2.000000m/h.]]></desc>
</trkpt>
<trkpt lat="36.753988" lon="137.754052">
<ele>2808.944011</ele>
<time>2014-08-18T06:32:46Z</time>
<desc><![CDATA[lat.=36.753988, lon.=137.754052, Alt.=2808.944011m. Speed=2.000000m/h.]]></desc>
</trkpt>
<trkpt lat="36.753998" lon="137.754076">
<ele>2810.788325</ele>
<time>2014-08-18T06:32:51Z</time>
<desc><![CDATA[lat.=36.753998, lon.=137.754076, Alt.=2810.788325m. Speed=2.000000m/h.]]></desc>
</trkpt>
<trkpt lat="36.754020" lon="137.754093">
<ele>2809.177598</ele>
<time>2014-08-18T06:32:56Z</time>
<desc><![CDATA[lat.=36.754020, lon.=137.754093, Alt.=2809.177598m. Speed=2.000000m/h.]]></desc>
</trkpt>
<trkpt lat="36.754045" lon="137.754118">
<ele>2808.758363</ele>
<time>2014-08-18T06:33:01Z</time>
<desc><![CDATA[lat.=36.754045, lon.=137.754118, Alt.=2808.758363m. Speed=2.000000m/h.]]></desc>
</trkpt>
<trkpt lat="36.754078" lon="137.754143">
<ele>2808.937512</ele>
<time>2014-08-18T06:33:06Z</time>
<desc><![CDATA[lat.=36.754078, lon.=137.754143, Alt.=2808.937512m. Speed=2.000000m/h.]]></desc>
</trkpt>
<trkpt lat="36.754107" lon="137.754176">
<ele>2807.979617</ele>
<time>2014-08-18T06:33:11Z</time>
<desc><![CDATA[lat.=36.754107, lon.=137.754176, Alt.=2807.979617m. Speed=2.000000m/h.]]></desc>
</trkpt>
<trkpt lat="36.754136" lon="137.754192">
<ele>2808.697435</ele>
<time>2014-08-18T06:33:16Z</time>
<desc><![CDATA[lat.=36.754136, lon.=137.754192, Alt.=2808.697435m. Speed=2.000000m/h.]]></desc>
</trkpt>
<trkpt lat="36.754150" lon="137.754208">
<ele>2809.948646</ele>
<time>2014-08-18T06:33:21Z</time>
<desc><![CDATA[lat.=36.754150, lon.=137.754208, Alt.=2809.948646m. Speed=2.000000m/h.]]></desc>
</trkpt>
<trkpt lat="36.754171" lon="137.754241">
<ele>2810.122531</ele>
<time>2014-08-18T06:33:26Z</time>
<desc><![CDATA[lat.=36.754171, lon.=137.754241, Alt.=2810.122531m. Speed=2.000000m/h.]]></desc>
</trkpt>
<trkpt lat="36.754200" lon="137.754258">
<ele>2809.110198</ele>
<time>2014-08-18T06:33:31Z</time>
<desc><![CDATA[lat.=36.754200, lon.=137.754258, Alt.=2809.110198m. Speed=2.000000m/h.]]></desc>
</trkpt>
<trkpt lat="36.754222" lon="137.754258">
<ele>2810.905348</ele>
<time>2014-08-18T06:33:36Z</time>
<desc><![CDATA[lat.=36.754222, lon.=137.754258, Alt.=2810.905348m. Speed=2.000000m/h.]]></desc>
</trkpt>
<trkpt lat="36.754243" lon="137.754274">
<ele>2812.754947</ele>
<time>2014-08-18T06:33:41Z</time>
<desc><![CDATA[lat.=36.754243, lon.=137.754274, Alt.=2812.754947m. Speed=2.000000m/h.]]></desc>
</trkpt>
<trkpt lat="36.754273" lon="137.754275">
<ele>2813.418327</ele>
<time>2014-08-18T06:33:46Z</time>
<desc><![CDATA[lat.=36.754273, lon.=137.754275, Alt.=2813.418327m. Speed=2.000000m/h.]]></desc>
</trkpt>
<trkpt lat="36.754282" lon="137.754314">
<ele>2815.317102</ele>
<time>2014-08-18T06:33:51Z</time>
<desc><![CDATA[lat.=36.754282, lon.=137.754314, Alt.=2815.317102m. Speed=2.000000m/h.]]></desc>
</trkpt>
<trkpt lat="36.754304" lon="137.754330">
<ele>2817.166704</ele>
<time>2014-08-18T06:33:56Z</time>
<desc><![CDATA[lat.=36.754304, lon.=137.754330, Alt.=2817.166704m. Speed=2.000000m/h.]]></desc>
</trkpt>
<trkpt lat="36.754325" lon="137.754345">
<ele>2819.016308</ele>
<time>2014-08-18T06:34:01Z</time>
<desc><![CDATA[lat.=36.754325, lon.=137.754345, Alt.=2819.016308m. Speed=2.000000m/h.]]></desc>
</trkpt>
<trkpt lat="36.754339" lon="137.754377">
<ele>2820.321977</ele>
<time>2014-08-18T06:34:06Z</time>
<desc><![CDATA[lat.=36.754339, lon.=137.754377, Alt.=2820.321977m. Speed=2.000000m/h.]]></desc>
</trkpt>
<trkpt lat="36.754383" lon="137.754395">
<ele>2818.776271</ele>
<time>2014-08-18T06:34:11Z</time>
<desc><![CDATA[lat.=36.754383, lon.=137.754395, Alt.=2818.776271m. Speed=2.000000m/h.]]></desc>
</trkpt>
<trkpt lat="36.754415" lon="137.754420">
<ele>2818.955450</ele>
<time>2014-08-18T06:34:16Z</time>
<desc><![CDATA[lat.=36.754415, lon.=137.754420, Alt.=2818.955450m. Speed=2.000000m/h.]]></desc>
</trkpt>
<trkpt lat="36.754448" lon="137.754429">
<ele>2819.080181</ele>
<time>2014-08-18T06:34:21Z</time>
<desc><![CDATA[lat.=36.754448, lon.=137.754429, Alt.=2819.080181m. Speed=3.000000m/h.]]></desc>
</trkpt>
<trkpt lat="36.754489" lon="137.754439">
<ele>2818.073145</ele>
<time>2014-08-18T06:34:26Z</time>
<desc><![CDATA[lat.=36.754489, lon.=137.754439, Alt.=2818.073145m. Speed=2.000000m/h.]]></desc>
</trkpt>
<trkpt lat="36.754510" lon="137.754455">
<ele>2818.192602</ele>
<time>2014-08-18T06:34:31Z</time>
<desc><![CDATA[lat.=36.754510, lon.=137.754455, Alt.=2818.192602m. Speed=2.000000m/h.]]></desc>
</trkpt>
<trkpt lat="36.754536" lon="137.754464">
<ele>2819.449107</ele>
<time>2014-08-18T06:34:36Z</time>
<desc><![CDATA[lat.=36.754536, lon.=137.754464, Alt.=2819.449107m. Speed=2.000000m/h.]]></desc>
</trkpt>
<trkpt lat="36.754568" lon="137.754489">
<ele>2819.628297</ele>
<time>2014-08-18T06:34:41Z</time>
<desc><![CDATA[lat.=36.754568, lon.=137.754489, Alt.=2819.628297m. Speed=3.000000m/h.]]></desc>
</trkpt>
<trkpt lat="36.754582" lon="137.754520">
<ele>2820.933978</ele>
<time>2014-08-18T06:34:46Z</time>
<desc><![CDATA[lat.=36.754582, lon.=137.754520, Alt.=2820.933978m. Speed=2.000000m/h.]]></desc>
</trkpt>
<trkpt lat="36.754603" lon="137.754536">
<ele>2822.783597</ele>
<time>2014-08-18T06:34:51Z</time>
<desc><![CDATA[lat.=36.754603, lon.=137.754536, Alt.=2822.783597m. Speed=2.000000m/h.]]></desc>
</trkpt>
<trkpt lat="36.754613" lon="137.754559">
<ele>2824.627938</ele>
<time>2014-08-18T06:34:56Z</time>
<desc><![CDATA[lat.=36.754613, lon.=137.754559, Alt.=2824.627938m. Speed=2.000000m/h.]]></desc>
</trkpt>
<trkpt lat="36.754638" lon="137.754583">
<ele>2825.938902</ele>
<time>2014-08-18T06:35:01Z</time>
<desc><![CDATA[lat.=36.754638, lon.=137.754583, Alt.=2825.938902m. Speed=2.000000m/h.]]></desc>
</trkpt>
<trkpt lat="36.754660" lon="137.754600">
<ele>2826.058368</ele>
<time>2014-08-18T06:35:06Z</time>
<desc><![CDATA[lat.=36.754660, lon.=137.754600, Alt.=2826.058368m. Speed=2.000000m/h.]]></desc>
</trkpt>
<trkpt lat="36.754692" lon="137.754625">
<ele>2826.237571</ele>
<time>2014-08-18T06:35:11Z</time>
<desc><![CDATA[lat.=36.754692, lon.=137.754625, Alt.=2826.237571m. Speed=3.000000m/h.]]></desc>
</trkpt>
<trkpt lat="36.754691" lon="137.754656">
<ele>2828.076635</ele>
<time>2014-08-18T06:35:16Z</time>
<desc><![CDATA[lat.=36.754691, lon.=137.754656, Alt.=2828.076635m. Speed=2.000000m/h.]]></desc>
</trkpt>
<trkpt lat="36.754721" lon="137.754690">
<ele>2823.658485</ele>
<time>2014-08-18T06:35:21Z</time>
<desc><![CDATA[lat.=36.754721, lon.=137.754690, Alt.=2823.658485m. Speed=2.000000m/h.]]></desc>
</trkpt>
<trkpt lat="36.754735" lon="137.754723">
<ele>2823.234022</ele>
<time>2014-08-18T06:35:26Z</time>
<desc><![CDATA[lat.=36.754735, lon.=137.754723, Alt.=2823.234022m. Speed=2.000000m/h.]]></desc>
</trkpt>
<trkpt lat="36.754737" lon="137.754762">
<ele>2824.534436</ele>
<time>2014-08-18T06:35:31Z</time>
<desc><![CDATA[lat.=36.754737, lon.=137.754762, Alt.=2824.534436m. Speed=2.000000m/h.]]></desc>
</trkpt>
<trkpt lat="36.754751" lon="137.754793">
<ele>2825.840133</ele>
<time>2014-08-18T06:35:36Z</time>
<desc><![CDATA[lat.=36.754751, lon.=137.754793, Alt.=2825.840133m. Speed=2.000000m/h.]]></desc>
</trkpt>
<trkpt lat="36.754769" lon="137.754818">
<ele>2826.552719</ele>
<time>2014-08-18T06:35:41Z</time>
<desc><![CDATA[lat.=36.754769, lon.=137.754818, Alt.=2826.552719m. Speed=2.000000m/h.]]></desc>
</trkpt>
<trkpt lat="36.754810" lon="137.754828">
<ele>2823.815558</ele>
<time>2014-08-18T06:35:46Z</time>
<desc><![CDATA[lat.=36.754810, lon.=137.754828, Alt.=2823.815558m. Speed=2.000000m/h.]]></desc>
</trkpt>
<trkpt lat="36.754816" lon="137.754859">
<ele>2826.253022</ele>
<time>2014-08-18T06:35:51Z</time>
<desc><![CDATA[lat.=36.754816, lon.=137.754859, Alt.=2826.253022m. Speed=2.000000m/h.]]></desc>
</trkpt>
<trkpt lat="36.754841" lon="137.754884">
<ele>2825.833850</ele>
<time>2014-08-18T06:35:56Z</time>
<desc><![CDATA[lat.=36.754841, lon.=137.754884, Alt.=2825.833850m. Speed=2.000000m/h.]]></desc>
</trkpt>
<trkpt lat="36.754832" lon="137.754914">
<ele>2828.804687</ele>
<time>2014-08-18T06:36:01Z</time>
<desc><![CDATA[lat.=36.754832, lon.=137.754914, Alt.=2828.804687m. Speed=2.000000m/h.]]></desc>
</trkpt>
<trkpt lat="36.754861" lon="137.754931">
<ele>2829.522561</ele>
<time>2014-08-18T06:36:06Z</time>
<desc><![CDATA[lat.=36.754861, lon.=137.754931, Alt.=2829.522561m. Speed=2.000000m/h.]]></desc>
</trkpt>
<trkpt lat="36.754883" lon="137.754963">
<ele>2829.696505</ele>
<time>2014-08-18T06:36:11Z</time>
<desc><![CDATA[lat.=36.754883, lon.=137.754963, Alt.=2829.696505m. Speed=2.000000m/h.]]></desc>
</trkpt>
<trkpt lat="36.754891" lon="137.754981">
<ele>2825.158893</ele>
<time>2014-08-18T06:36:16Z</time>
<desc><![CDATA[lat.=36.754891, lon.=137.754981, Alt.=2825.158893m. Speed=2.000000m/h.]]></desc>
</trkpt>
<trkpt lat="36.754889" lon="137.755011">
<ele>2828.728126</ele>
<time>2014-08-18T06:36:21Z</time>
<desc><![CDATA[lat.=36.754889, lon.=137.755011, Alt.=2828.728126m. Speed=2.000000m/h.]]></desc>
</trkpt>
<trkpt lat="36.754911" lon="137.755011">
<ele>2830.523306</ele>
<time>2014-08-18T06:36:26Z</time>
<desc><![CDATA[lat.=36.754911, lon.=137.755011, Alt.=2830.523306m. Speed=1.000000m/h.]]></desc>
</trkpt>
<trkpt lat="36.754907" lon="137.755003">
<ele>2831.061956</ele>
<time>2014-08-18T06:36:31Z</time>
<desc><![CDATA[lat.=36.754907, lon.=137.755003, Alt.=2831.061956m. Speed=0.000000m/h.]]></desc>
</trkpt>
<trkpt lat="36.754903" lon="137.754995">
<ele>2831.600606</ele>
<time>2014-08-18T06:36:36Z</time>
<desc><![CDATA[lat.=36.754903, lon.=137.754995, Alt.=2831.600606m. Speed=0.000000m/h.]]></desc>
</trkpt>
<trkpt lat="36.754893" lon="137.754986">
<ele>2831.540864</ele>
<time>2014-08-18T06:36:41Z</time>
<desc><![CDATA[lat.=36.754893, lon.=137.754986, Alt.=2831.540864m. Speed=0.000000m/h.]]></desc>
</trkpt>
<trkpt lat="36.754900" lon="137.754986">
<ele>2832.139257</ele>
<time>2014-08-18T06:36:46Z</time>
<desc><![CDATA[lat.=36.754900, lon.=137.754986, Alt.=2832.139257m. Speed=0.000000m/h.]]></desc>
</trkpt>
<trkpt lat="36.754903" lon="137.754978">
<ele>2833.276300</ele>
<time>2014-08-18T06:36:51Z</time>
<desc><![CDATA[lat.=36.754903, lon.=137.754978, Alt.=2833.276300m. Speed=0.000000m/h.]]></desc>
</trkpt>
<trkpt lat="36.754910" lon="137.754994">
<ele>2833.929155</ele>
<time>2014-08-18T06:37:19Z</time>
<desc><![CDATA[lat.=36.754910, lon.=137.754994, Alt.=2833.929155m. Speed=2.000000m/h.]]></desc>
</trkpt>
<trkpt lat="36.754932" lon="137.755026">
<ele>2834.103103</ele>
<time>2014-08-18T06:37:24Z</time>
<desc><![CDATA[lat.=36.754932, lon.=137.755026, Alt.=2834.103103m. Speed=2.000000m/h.]]></desc>
</trkpt>
<trkpt lat="36.754923" lon="137.755074">
<ele>2833.668097</ele>
<time>2014-08-18T06:37:29Z</time>
<desc><![CDATA[lat.=36.754923, lon.=137.755074, Alt.=2833.668097m. Speed=2.000000m/h.]]></desc>
</trkpt>
<trkpt lat="36.754960" lon="137.755092">
<ele>2831.524063</ele>
<time>2014-08-18T06:37:34Z</time>
<desc><![CDATA[lat.=36.754960, lon.=137.755092, Alt.=2831.524063m. Speed=2.000000m/h.]]></desc>
</trkpt>
<trkpt lat="36.754971" lon="137.755116">
<ele>2831.638272</ele>
<time>2014-08-18T06:37:39Z</time>
<desc><![CDATA[lat.=36.754971, lon.=137.755116, Alt.=2831.638272m. Speed=2.000000m/h.]]></desc>
</trkpt>
<trkpt lat="36.754974" lon="137.755139">
<ele>2832.884242</ele>
<time>2014-08-18T06:37:44Z</time>
<desc><![CDATA[lat.=36.754974, lon.=137.755139, Alt.=2832.884242m. Speed=2.000000m/h.]]></desc>
</trkpt>
<trkpt lat="36.754980" lon="137.755155">
<ele>2833.537101</ele>
<time>2014-08-18T06:37:49Z</time>
<desc><![CDATA[lat.=36.754980, lon.=137.755155, Alt.=2833.537101m. Speed=2.000000m/h.]]></desc>
</trkpt>
<trkpt lat="36.754968" lon="137.755194">
<ele>2833.640749</ele>
<time>2014-08-18T06:37:54Z</time>
<desc><![CDATA[lat.=36.754968, lon.=137.755194, Alt.=2833.640749m. Speed=2.000000m/h.]]></desc>
</trkpt>
<trkpt lat="36.754998" lon="137.755211">
<ele>2832.628481</ele>
<time>2014-08-18T06:37:59Z</time>
<desc><![CDATA[lat.=36.754998, lon.=137.755211, Alt.=2832.628481m. Speed=2.000000m/h.]]></desc>
</trkpt>
<trkpt lat="36.755001" lon="137.755235">
<ele>2833.874455</ele>
<time>2014-08-18T06:38:04Z</time>
<desc><![CDATA[lat.=36.755001, lon.=137.755235, Alt.=2833.874455m. Speed=2.000000m/h.]]></desc>
</trkpt>
<trkpt lat="36.755023" lon="137.755252">
<ele>2832.263795</ele>
<time>2014-08-18T06:38:09Z</time>
<desc><![CDATA[lat.=36.755023, lon.=137.755252, Alt.=2832.263795m. Speed=2.000000m/h.]]></desc>
</trkpt>
<trkpt lat="36.755048" lon="137.755277">
<ele>2831.844646</ele>
<time>2014-08-18T06:38:14Z</time>
<desc><![CDATA[lat.=36.755048, lon.=137.755277, Alt.=2831.844646m. Speed=2.000000m/h.]]></desc>
</trkpt>
<trkpt lat="36.755047" lon="137.755308">
<ele>2833.683734</ele>
<time>2014-08-18T06:38:19Z</time>
<desc><![CDATA[lat.=36.755047, lon.=137.755308, Alt.=2833.683734m. Speed=2.000000m/h.]]></desc>
</trkpt>
<trkpt lat="36.755061" lon="137.755339">
<ele>2834.989460</ele>
<time>2014-08-18T06:38:24Z</time>
<desc><![CDATA[lat.=36.755061, lon.=137.755339, Alt.=2834.989460m. Speed=2.000000m/h.]]></desc>
</trkpt>
<trkpt lat="36.755067" lon="137.755355">
<ele>2837.372479</ele>
<time>2014-08-18T06:38:29Z</time>
<desc><![CDATA[lat.=36.755067, lon.=137.755355, Alt.=2837.372479m. Speed=1.000000m/h.]]></desc>
</trkpt>
<trkpt lat="36.755066" lon="137.755370">
<ele>2839.157102</ele>
<time>2014-08-18T06:38:34Z</time>
<desc><![CDATA[lat.=36.755066, lon.=137.755370, Alt.=2839.157102m. Speed=1.000000m/h.]]></desc>
</trkpt>
<trkpt lat="36.755099" lon="137.755379">
<ele>2839.281885</ele>
<time>2014-08-18T06:38:39Z</time>
<desc><![CDATA[lat.=36.755099, lon.=137.755379, Alt.=2839.281885m. Speed=2.000000m/h.]]></desc>
</trkpt>
<trkpt lat="36.755116" lon="137.755418">
<ele>2841.779125</ele>
<time>2014-08-18T06:38:44Z</time>
<desc><![CDATA[lat.=36.755116, lon.=137.755418, Alt.=2841.779125m. Speed=2.000000m/h.]]></desc>
</trkpt>
<trkpt lat="36.755149" lon="137.755427">
<ele>2841.903912</ele>
<time>2014-08-18T06:38:49Z</time>
<desc><![CDATA[lat.=36.755149, lon.=137.755427, Alt.=2841.903912m. Speed=2.000000m/h.]]></desc>
</trkpt>
<trkpt lat="36.755148" lon="137.755458">
<ele>2842.012852</ele>
<time>2014-08-18T06:38:54Z</time>
<desc><![CDATA[lat.=36.755148, lon.=137.755458, Alt.=2842.012852m. Speed=2.000000m/h.]]></desc>
</trkpt>
<trkpt lat="36.755151" lon="137.755482">
<ele>2843.258833</ele>
<time>2014-08-18T06:38:59Z</time>
<desc><![CDATA[lat.=36.755151, lon.=137.755482, Alt.=2843.258833m. Speed=1.000000m/h.]]></desc>
</trkpt>
<trkpt lat="36.755162" lon="137.755491">
<ele>2841.588432</ele>
<time>2014-08-18T06:39:04Z</time>
<desc><![CDATA[lat.=36.755162, lon.=137.755491, Alt.=2841.588432m. Speed=1.000000m/h.]]></desc>
</trkpt>
<trkpt lat="36.755168" lon="137.755522">
<ele>2844.025925</ele>
<time>2014-08-18T06:39:09Z</time>
<desc><![CDATA[lat.=36.755168, lon.=137.755522, Alt.=2844.025925m. Speed=1.000000m/h.]]></desc>
</trkpt>
<trkpt lat="36.755164" lon="137.755546">
<ele>2842.943357</ele>
<time>2014-08-18T06:39:14Z</time>
<desc><![CDATA[lat.=36.755164, lon.=137.755546, Alt.=2842.943357m. Speed=2.000000m/h.]]></desc>
</trkpt>
<trkpt lat="36.755168" lon="137.755570">
<ele>2842.459187</ele>
<time>2014-08-18T06:39:19Z</time>
<desc><![CDATA[lat.=36.755168, lon.=137.755570, Alt.=2842.459187m. Speed=2.000000m/h.]]></desc>
</trkpt>
<trkpt lat="36.755159" lon="137.755584">
<ele>2845.375572</ele>
<time>2014-08-18T06:39:24Z</time>
<desc><![CDATA[lat.=36.755159, lon.=137.755584, Alt.=2845.375572m. Speed=0.000000m/h.]]></desc>
</trkpt>
<trkpt lat="36.755173" lon="137.755600">
<ele>2846.626838</ele>
<time>2014-08-18T06:39:29Z</time>
<desc><![CDATA[lat.=36.755173, lon.=137.755600, Alt.=2846.626838m. Speed=2.000000m/h.]]></desc>
</trkpt>
<trkpt lat="36.755195" lon="137.755632">
<ele>2846.800822</ele>
<time>2014-08-18T06:39:34Z</time>
<desc><![CDATA[lat.=36.755195, lon.=137.755632, Alt.=2846.800822m. Speed=2.000000m/h.]]></desc>
</trkpt>
<trkpt lat="36.755202" lon="137.755665">
<ele>2845.778013</ele>
<time>2014-08-18T06:39:39Z</time>
<desc><![CDATA[lat.=36.755202, lon.=137.755665, Alt.=2845.778013m. Speed=2.000000m/h.]]></desc>
</trkpt>
<trkpt lat="36.755197" lon="137.755687">
<ele>2848.155758</ele>
<time>2014-08-18T06:39:44Z</time>
<desc><![CDATA[lat.=36.755197, lon.=137.755687, Alt.=2848.155758m. Speed=2.000000m/h.]]></desc>
</trkpt>
<trkpt lat="36.755196" lon="137.755718">
<ele>2849.994862</ele>
<time>2014-08-18T06:39:49Z</time>
<desc><![CDATA[lat.=36.755196, lon.=137.755718, Alt.=2849.994862m. Speed=2.000000m/h.]]></desc>
</trkpt>
<trkpt lat="36.755196" lon="137.755736">
<ele>2846.589029</ele>
<time>2014-08-18T06:39:54Z</time>
<desc><![CDATA[lat.=36.755196, lon.=137.755736, Alt.=2846.589029m. Speed=2.000000m/h.]]></desc>
</trkpt>
<trkpt lat="36.755203" lon="137.755769">
<ele>2843.836070</ele>
<time>2014-08-18T06:39:59Z</time>
<desc><![CDATA[lat.=36.755203, lon.=137.755769, Alt.=2843.836070m. Speed=2.000000m/h.]]></desc>
</trkpt>
<trkpt lat="36.755207" lon="137.755793">
<ele>2843.351907</ele>
<time>2014-08-18T06:40:04Z</time>
<desc><![CDATA[lat.=36.755207, lon.=137.755793, Alt.=2843.351907m. Speed=2.000000m/h.]]></desc>
</trkpt>
<trkpt lat="36.755206" lon="137.755824">
<ele>2843.460861</ele>
<time>2014-08-18T06:40:09Z</time>
<desc><![CDATA[lat.=36.755206, lon.=137.755824, Alt.=2843.460861m. Speed=2.000000m/h.]]></desc>
</trkpt>
<trkpt lat="36.755198" lon="137.755840">
<ele>2842.916941</ele>
<time>2014-08-18T06:40:14Z</time>
<desc><![CDATA[lat.=36.755198, lon.=137.755840, Alt.=2842.916941m. Speed=2.000000m/h.]]></desc>
</trkpt>
<trkpt lat="36.755201" lon="137.755864">
<ele>2844.162934</ele>
<time>2014-08-18T06:40:19Z</time>
<desc><![CDATA[lat.=36.755201, lon.=137.755864, Alt.=2844.162934m. Speed=2.000000m/h.]]></desc>
</trkpt>
<trkpt lat="36.755196" lon="137.755902">
<ele>2846.595163</ele>
<time>2014-08-18T06:40:24Z</time>
<desc><![CDATA[lat.=36.755196, lon.=137.755902, Alt.=2846.595163m. Speed=1.000000m/h.]]></desc>
</trkpt>
<trkpt lat="36.755221" lon="137.755926">
<ele>2847.906196</ele>
<time>2014-08-18T06:40:29Z</time>
<desc><![CDATA[lat.=36.755221, lon.=137.755926, Alt.=2847.906196m. Speed=2.000000m/h.]]></desc>
</trkpt>
<trkpt lat="36.755221" lon="137.755942">
<ele>2847.960676</ele>
<time>2014-08-18T06:40:34Z</time>
<desc><![CDATA[lat.=36.755221, lon.=137.755942, Alt.=2847.960676m. Speed=2.000000m/h.]]></desc>
</trkpt>
<trkpt lat="36.755238" lon="137.755966">
<ele>2848.673313</ele>
<time>2014-08-18T06:40:39Z</time>
<desc><![CDATA[lat.=36.755238, lon.=137.755966, Alt.=2848.673313m. Speed=2.000000m/h.]]></desc>
</trkpt>
<trkpt lat="36.755244" lon="137.755997">
<ele>2851.110826</ele>
<time>2014-08-18T06:40:44Z</time>
<desc><![CDATA[lat.=36.755244, lon.=137.755997, Alt.=2851.110826m. Speed=2.000000m/h.]]></desc>
</trkpt>
<trkpt lat="36.755244" lon="137.756029">
<ele>2849.489635</ele>
<time>2014-08-18T06:40:49Z</time>
<desc><![CDATA[lat.=36.755244, lon.=137.756029, Alt.=2849.489635m. Speed=2.000000m/h.]]></desc>
</trkpt>
<trkpt lat="36.755255" lon="137.756054">
<ele>2847.873723</ele>
<time>2014-08-18T06:40:54Z</time>
<desc><![CDATA[lat.=36.755255, lon.=137.756054, Alt.=2847.873723m. Speed=2.000000m/h.]]></desc>
</trkpt>
<trkpt lat="36.755273" lon="137.756080">
<ele>2845.126058</ele>
<time>2014-08-18T06:40:59Z</time>
<desc><![CDATA[lat.=36.755273, lon.=137.756080, Alt.=2845.126058m. Speed=2.000000m/h.]]></desc>
</trkpt>
<trkpt lat="36.755291" lon="137.756104">
<ele>2845.838701</ele>
<time>2014-08-18T06:41:04Z</time>
<desc><![CDATA[lat.=36.755291, lon.=137.756104, Alt.=2845.838701m. Speed=2.000000m/h.]]></desc>
</trkpt>
<trkpt lat="36.755312" lon="137.756135">
<ele>2847.742864</ele>
<time>2014-08-18T06:41:09Z</time>
<desc><![CDATA[lat.=36.755312, lon.=137.756135, Alt.=2847.742864m. Speed=2.000000m/h.]]></desc>
</trkpt>
<trkpt lat="36.755300" lon="137.756158">
<ele>2849.522222</ele>
<time>2014-08-18T06:41:14Z</time>
<desc><![CDATA[lat.=36.755300, lon.=137.756158, Alt.=2849.522222m. Speed=2.000000m/h.]]></desc>
</trkpt>
<trkpt lat="36.755299" lon="137.756189">
<ele>2851.361344</ele>
<time>2014-08-18T06:41:19Z</time>
<desc><![CDATA[lat.=36.755299, lon.=137.756189, Alt.=2851.361344m. Speed=2.000000m/h.]]></desc>
</trkpt>
<trkpt lat="36.755313" lon="137.756204">
<ele>2854.342780</ele>
<time>2014-08-18T06:41:24Z</time>
<desc><![CDATA[lat.=36.755313, lon.=137.756204, Alt.=2854.342780m. Speed=1.000000m/h.]]></desc>
</trkpt>
<trkpt lat="36.755312" lon="137.756219">
<ele>2856.127419</ele>
<time>2014-08-18T06:41:29Z</time>
<desc><![CDATA[lat.=36.755312, lon.=137.756219, Alt.=2856.127419m. Speed=1.000000m/h.]]></desc>
</trkpt>
<trkpt lat="36.755319" lon="137.756235">
<ele>2856.780303</ele>
<time>2014-08-18T06:41:34Z</time>
<desc><![CDATA[lat.=36.755319, lon.=137.756235, Alt.=2856.780303m. Speed=2.000000m/h.]]></desc>
</trkpt>
<trkpt lat="36.755310" lon="137.756264">
<ele>2861.481337</ele>
<time>2014-08-18T06:41:39Z</time>
<desc><![CDATA[lat.=36.755310, lon.=137.756264, Alt.=2861.481337m. Speed=1.000000m/h.]]></desc>
</trkpt>
<trkpt lat="36.755309" lon="137.756280">
<ele>2861.535823</ele>
<time>2014-08-18T06:41:44Z</time>
<desc><![CDATA[lat.=36.755309, lon.=137.756280, Alt.=2861.535823m. Speed=1.000000m/h.]]></desc>
</trkpt>
<trkpt lat="36.755324" lon="137.756296">
<ele>2861.056954</ele>
<time>2014-08-18T06:41:49Z</time>
<desc><![CDATA[lat.=36.755324, lon.=137.756296, Alt.=2861.056954m. Speed=1.000000m/h.]]></desc>
</trkpt>
<trkpt lat="36.755323" lon="137.756328">
<ele>2861.165928</ele>
<time>2014-08-18T06:41:54Z</time>
<desc><![CDATA[lat.=36.755323, lon.=137.756328, Alt.=2861.165928m. Speed=1.000000m/h.]]></desc>
</trkpt>
<trkpt lat="36.755345" lon="137.756345">
<ele>2861.285460</ele>
<time>2014-08-18T06:41:59Z</time>
<desc><![CDATA[lat.=36.755345, lon.=137.756345, Alt.=2861.285460m. Speed=2.000000m/h.]]></desc>
</trkpt>
<trkpt lat="36.755363" lon="137.756370">
<ele>2860.267960</ele>
<time>2014-08-18T06:42:04Z</time>
<desc><![CDATA[lat.=36.755363, lon.=137.756370, Alt.=2860.267960m. Speed=2.000000m/h.]]></desc>
</trkpt>
<trkpt lat="36.755350" lon="137.756391">
<ele>2863.777477</ele>
<time>2014-08-18T06:42:09Z</time>
<desc><![CDATA[lat.=36.755350, lon.=137.756391, Alt.=2863.777477m. Speed=1.000000m/h.]]></desc>
</trkpt>
<trkpt lat="36.755360" lon="137.756414">
<ele>2867.352040</ele>
<time>2014-08-18T06:42:14Z</time>
<desc><![CDATA[lat.=36.755360, lon.=137.756414, Alt.=2867.352040m. Speed=1.000000m/h.]]></desc>
</trkpt>
<trkpt lat="36.755371" lon="137.756423">
<ele>2865.681653</ele>
<time>2014-08-18T06:42:19Z</time>
<desc><![CDATA[lat.=36.755371, lon.=137.756423, Alt.=2865.681653m. Speed=1.000000m/h.]]></desc>
</trkpt>
<trkpt lat="36.755389" lon="137.756447">
<ele>2866.394310</ele>
<time>2014-08-18T06:42:24Z</time>
<desc><![CDATA[lat.=36.755389, lon.=137.756447, Alt.=2866.394310m. Speed=2.000000m/h.]]></desc>
</trkpt>
<trkpt lat="36.755377" lon="137.756469">
<ele>2869.903829</ele>
<time>2014-08-18T06:42:29Z</time>
<desc><![CDATA[lat.=36.755377, lon.=137.756469, Alt.=2869.903829m. Speed=1.000000m/h.]]></desc>
</trkpt>
<trkpt lat="36.755387" lon="137.756493">
<ele>2870.018087</ele>
<time>2014-08-18T06:42:34Z</time>
<desc><![CDATA[lat.=36.755387, lon.=137.756493, Alt.=2870.018087m. Speed=2.000000m/h.]]></desc>
</trkpt>
<trkpt lat="36.755386" lon="137.756524">
<ele>2871.857223</ele>
<time>2014-08-18T06:42:39Z</time>
<desc><![CDATA[lat.=36.755386, lon.=137.756524, Alt.=2871.857223m. Speed=2.000000m/h.]]></desc>
</trkpt>
<trkpt lat="36.755404" lon="137.756516">
<ele>2874.191054</ele>
<time>2014-08-18T06:42:44Z</time>
<desc><![CDATA[lat.=36.755404, lon.=137.756516, Alt.=2874.191054m. Speed=1.000000m/h.]]></desc>
</trkpt>
<trkpt lat="36.755450" lon="137.756522">
<ele>2880.703132</ele>
<time>2014-08-18T06:42:49Z</time>
<desc><![CDATA[lat.=36.755450, lon.=137.756522, Alt.=2880.703132m. Speed=2.000000m/h.]]></desc>
</trkpt>
<trkpt lat="36.755489" lon="137.756545">
<ele>2886.671305</ele>
<time>2014-08-18T06:42:54Z</time>
<desc><![CDATA[lat.=36.755489, lon.=137.756545, Alt.=2886.671305m. Speed=2.000000m/h.]]></desc>
</trkpt>
<trkpt lat="36.755511" lon="137.756562">
<ele>2885.060695</ele>
<time>2014-08-18T06:42:59Z</time>
<desc><![CDATA[lat.=36.755511, lon.=137.756562, Alt.=2885.060695m. Speed=2.000000m/h.]]></desc>
</trkpt>
<trkpt lat="36.755503" lon="137.756594">
<ele>2884.571278</ele>
<time>2014-08-18T06:43:04Z</time>
<desc><![CDATA[lat.=36.755503, lon.=137.756594, Alt.=2884.571278m. Speed=2.000000m/h.]]></desc>
</trkpt>
<trkpt lat="36.755495" lon="137.756609">
<ele>2885.757522</ele>
<time>2014-08-18T06:43:09Z</time>
<desc><![CDATA[lat.=36.755495, lon.=137.756609, Alt.=2885.757522m. Speed=2.000000m/h.]]></desc>
</trkpt>
<trkpt lat="36.755487" lon="137.756641">
<ele>2885.268107</ele>
<time>2014-08-18T06:43:14Z</time>
<desc><![CDATA[lat.=36.755487, lon.=137.756641, Alt.=2885.268107m. Speed=1.000000m/h.]]></desc>
</trkpt>
<trkpt lat="36.755487" lon="137.756670">
<ele>2877.659159</ele>
<time>2014-08-18T09:02:32Z</time>
<desc><![CDATA[lat.=36.755487, lon.=137.756670, Alt.=2877.659159m. Speed=0.000000m/h.]]></desc>
</trkpt>
<trkpt lat="36.755605" lon="137.756734">
<ele>2879.464913</ele>
<time>2014-08-18T09:02:37Z</time>
<desc><![CDATA[lat.=36.755605, lon.=137.756734, Alt.=2879.464913m. Speed=0.000000m/h.]]></desc>
</trkpt>
<trkpt lat="36.755700" lon="137.756713">
<ele>2883.669560</ele>
<time>2014-08-18T09:02:42Z</time>
<desc><![CDATA[lat.=36.755700, lon.=137.756713, Alt.=2883.669560m. Speed=1.000000m/h.]]></desc>
</trkpt>
<trkpt lat="36.755826" lon="137.756756">
<ele>2886.279470</ele>
<time>2014-08-18T09:02:47Z</time>
<desc><![CDATA[lat.=36.755826, lon.=137.756756, Alt.=2886.279470m. Speed=2.000000m/h.]]></desc>
</trkpt>
<trkpt lat="36.755910" lon="137.756812">
<ele>2885.364046</ele>
<time>2014-08-18T09:02:52Z</time>
<desc><![CDATA[lat.=36.755910, lon.=137.756812, Alt.=2885.364046m. Speed=2.000000m/h.]]></desc>
</trkpt>
<trkpt lat="36.755999" lon="137.756919">
<ele>2887.696245</ele>
<time>2014-08-18T09:02:57Z</time>
<desc><![CDATA[lat.=36.755999, lon.=137.756919, Alt.=2887.696245m. Speed=2.000000m/h.]]></desc>
</trkpt>
<trkpt lat="36.756028" lon="137.756904">
<ele>2888.305229</ele>
<time>2014-08-18T09:03:02Z</time>
<desc><![CDATA[lat.=36.756028, lon.=137.756904, Alt.=2888.305229m. Speed=0.000000m/h.]]></desc>
</trkpt>
<trkpt lat="36.756051" lon="137.756889">
<ele>2888.315806</ele>
<time>2014-08-18T09:03:07Z</time>
<desc><![CDATA[lat.=36.756051, lon.=137.756889, Alt.=2888.315806m. Speed=0.000000m/h.]]></desc>
</trkpt>
<trkpt lat="36.756069" lon="137.756882">
<ele>2888.919504</ele>
<time>2014-08-18T09:03:12Z</time>
<desc><![CDATA[lat.=36.756069, lon.=137.756882, Alt.=2888.919504m. Speed=0.000000m/h.]]></desc>
</trkpt>
<trkpt lat="36.756077" lon="137.756866">
<ele>2889.463416</ele>
<time>2014-08-18T09:03:17Z</time>
<desc><![CDATA[lat.=36.756077, lon.=137.756866, Alt.=2889.463416m. Speed=0.000000m/h.]]></desc>
</trkpt>
<trkpt lat="36.756076" lon="137.756865">
<ele>2891.193569</ele>
<time>2014-08-18T09:03:22Z</time>
<desc><![CDATA[lat.=36.756076, lon.=137.756865, Alt.=2891.193569m. Speed=0.000000m/h.]]></desc>
</trkpt>
<trkpt lat="36.756109" lon="137.756874">
<ele>2891.318433</ele>
<time>2014-08-18T09:03:27Z</time>
<desc><![CDATA[lat.=36.756109, lon.=137.756874, Alt.=2891.318433m. Speed=2.000000m/h.]]></desc>
</trkpt>
<trkpt lat="36.756134" lon="137.756898">
<ele>2892.629539</ele>
<time>2014-08-18T09:03:32Z</time>
<desc><![CDATA[lat.=36.756134, lon.=137.756898, Alt.=2892.629539m. Speed=2.000000m/h.]]></desc>
</trkpt>
<trkpt lat="36.756164" lon="137.756916">
<ele>2891.617375</ele>
<time>2014-08-18T09:03:37Z</time>
<desc><![CDATA[lat.=36.756164, lon.=137.756916, Alt.=2891.617375m. Speed=2.000000m/h.]]></desc>
</trkpt>
<trkpt lat="36.756182" lon="137.756940">
<ele>2890.599922</ele>
<time>2014-08-18T09:03:42Z</time>
<desc><![CDATA[lat.=36.756182, lon.=137.756940, Alt.=2890.599922m. Speed=2.000000m/h.]]></desc>
</trkpt>
<trkpt lat="36.756185" lon="137.756965">
<ele>2888.385647</ele>
<time>2014-08-18T09:03:47Z</time>
<desc><![CDATA[lat.=36.756185, lon.=137.756965, Alt.=2888.385647m. Speed=2.000000m/h.]]></desc>
</trkpt>
<trkpt lat="36.756218" lon="137.756974">
<ele>2888.510519</ele>
<time>2014-08-18T09:03:52Z</time>
<desc><![CDATA[lat.=36.756218, lon.=137.756974, Alt.=2888.510519m. Speed=2.000000m/h.]]></desc>
</trkpt>
<trkpt lat="36.756228" lon="137.756998">
<ele>2890.354963</ele>
<time>2014-08-18T09:03:57Z</time>
<desc><![CDATA[lat.=36.756228, lon.=137.756998, Alt.=2890.354963m. Speed=2.000000m/h.]]></desc>
</trkpt>
<trkpt lat="36.756268" lon="137.756990">
<ele>2892.753902</ele>
<time>2014-08-18T09:04:02Z</time>
<desc><![CDATA[lat.=36.756268, lon.=137.756990, Alt.=2892.753902m. Speed=2.000000m/h.]]></desc>
</trkpt>
<trkpt lat="36.756294" lon="137.756998">
<ele>2894.010520</ele>
<time>2014-08-18T09:04:07Z</time>
<desc><![CDATA[lat.=36.756294, lon.=137.756998, Alt.=2894.010520m. Speed=2.000000m/h.]]></desc>
</trkpt>
<trkpt lat="36.756308" lon="137.757015">
<ele>2893.531693</ele>
<time>2014-08-18T09:04:12Z</time>
<desc><![CDATA[lat.=36.756308, lon.=137.757015, Alt.=2893.531693m. Speed=2.000000m/h.]]></desc>
</trkpt>
<trkpt lat="36.756341" lon="137.757024">
<ele>2893.656574</ele>
<time>2014-08-18T09:04:17Z</time>
<desc><![CDATA[lat.=36.756341, lon.=137.757024, Alt.=2893.656574m. Speed=2.000000m/h.]]></desc>
</trkpt>
<trkpt lat="36.756351" lon="137.757048">
<ele>2893.770869</ele>
<time>2014-08-18T09:04:22Z</time>
<desc><![CDATA[lat.=36.756351, lon.=137.757048, Alt.=2893.770869m. Speed=2.000000m/h.]]></desc>
</trkpt>
<trkpt lat="36.756366" lon="137.757081">
<ele>2893.346546</ele>
<time>2014-08-18T09:04:27Z</time>
<desc><![CDATA[lat.=36.756366, lon.=137.757081, Alt.=2893.346546m. Speed=2.000000m/h.]]></desc>
</trkpt>
<trkpt lat="36.756376" lon="137.757089">
<ele>2893.406341</ele>
<time>2014-08-18T09:04:32Z</time>
<desc><![CDATA[lat.=36.756376, lon.=137.757089, Alt.=2893.406341m. Speed=2.000000m/h.]]></desc>
</trkpt>
<trkpt lat="36.756409" lon="137.757081">
<ele>2895.206877</ele>
<time>2014-08-18T09:04:37Z</time>
<desc><![CDATA[lat.=36.756409, lon.=137.757081, Alt.=2895.206877m. Speed=2.000000m/h.]]></desc>
</trkpt>
<trkpt lat="36.756431" lon="137.757066">
<ele>2896.947619</ele>
<time>2014-08-18T09:04:42Z</time>
<desc><![CDATA[lat.=36.756431, lon.=137.757066, Alt.=2896.947619m. Speed=2.000000m/h.]]></desc>
</trkpt>
<trkpt lat="36.756431" lon="137.757081">
<ele>2897.002121</ele>
<time>2014-08-18T09:04:47Z</time>
<desc><![CDATA[lat.=36.756431, lon.=137.757081, Alt.=2897.002121m. Speed=2.000000m/h.]]></desc>
</trkpt>
<trkpt lat="36.756442" lon="137.757090">
<ele>2897.061917</ele>
<time>2014-08-18T09:04:52Z</time>
<desc><![CDATA[lat.=36.756442, lon.=137.757090, Alt.=2897.061917m. Speed=2.000000m/h.]]></desc>
</trkpt>
<trkpt lat="36.756445" lon="137.757130">
<ele>2896.632304</ele>
<time>2014-08-18T09:04:57Z</time>
<desc><![CDATA[lat.=36.756445, lon.=137.757130, Alt.=2896.632304m. Speed=2.000000m/h.]]></desc>
</trkpt>
<trkpt lat="36.756452" lon="137.757146">
<ele>2895.555069</ele>
<time>2014-08-18T09:05:02Z</time>
<desc><![CDATA[lat.=36.756452, lon.=137.757146, Alt.=2895.555069m. Speed=2.000000m/h.]]></desc>
</trkpt>
<trkpt lat="36.756459" lon="137.757162">
<ele>2896.207987</ele>
<time>2014-08-18T09:05:07Z</time>
<desc><![CDATA[lat.=36.756459, lon.=137.757162, Alt.=2896.207987m. Speed=2.000000m/h.]]></desc>
</trkpt>
<trkpt lat="36.756505" lon="137.757169">
<ele>2900.990013</ele>
<time>2014-08-18T09:05:12Z</time>
<desc><![CDATA[lat.=36.756505, lon.=137.757169, Alt.=2900.990013m. Speed=2.000000m/h.]]></desc>
</trkpt>
<trkpt lat="36.756530" lon="137.757194">
<ele>2902.301147</ele>
<time>2014-08-18T09:05:17Z</time>
<desc><![CDATA[lat.=36.756530, lon.=137.757194, Alt.=2902.301147m. Speed=2.000000m/h.]]></desc>
</trkpt>
<trkpt lat="36.756589" lon="137.757163">
<ele>2905.249320</ele>
<time>2014-08-18T09:05:22Z</time>
<desc><![CDATA[lat.=36.756589, lon.=137.757163, Alt.=2905.249320m. Speed=2.000000m/h.]]></desc>
</trkpt>
<trkpt lat="36.756607" lon="137.757187">
<ele>2905.962041</ele>
<time>2014-08-18T09:05:27Z</time>
<desc><![CDATA[lat.=36.756607, lon.=137.757187, Alt.=2905.962041m. Speed=2.000000m/h.]]></desc>
</trkpt>
<trkpt lat="36.756622" lon="137.757204">
<ele>2903.753075</ele>
<time>2014-08-18T09:05:32Z</time>
<desc><![CDATA[lat.=36.756622, lon.=137.757204, Alt.=2903.753075m. Speed=2.000000m/h.]]></desc>
</trkpt>
<trkpt lat="36.756613" lon="137.757235">
<ele>2904.993818</ele>
<time>2014-08-18T09:05:37Z</time>
<desc><![CDATA[lat.=36.756613, lon.=137.757235, Alt.=2904.993818m. Speed=2.000000m/h.]]></desc>
</trkpt>
<trkpt lat="36.756616" lon="137.757258">
<ele>2906.239859</ele>
<time>2014-08-18T09:05:42Z</time>
<desc><![CDATA[lat.=36.756616, lon.=137.757258, Alt.=2906.239859m. Speed=2.000000m/h.]]></desc>
</trkpt>
<trkpt lat="36.756623" lon="137.757291">
<ele>2905.217135</ele>
<time>2014-08-18T09:05:47Z</time>
<desc><![CDATA[lat.=36.756623, lon.=137.757291, Alt.=2905.217135m. Speed=2.000000m/h.]]></desc>
</trkpt>
<trkpt lat="36.756633" lon="137.757315">
<ele>2905.331443</ele>
<time>2014-08-18T09:05:52Z</time>
<desc><![CDATA[lat.=36.756633, lon.=137.757315, Alt.=2905.331443m. Speed=2.000000m/h.]]></desc>
</trkpt>
<trkpt lat="36.756651" lon="137.757340">
<ele>2904.314019</ele>
<time>2014-08-18T09:05:57Z</time>
<desc><![CDATA[lat.=36.756651, lon.=137.757340, Alt.=2904.314019m. Speed=2.000000m/h.]]></desc>
</trkpt>
<trkpt lat="36.756688" lon="137.757340">
<ele>2905.575957</ele>
<time>2014-08-18T09:06:02Z</time>
<desc><![CDATA[lat.=36.756688, lon.=137.757340, Alt.=2905.575957m. Speed=2.000000m/h.]]></desc>
</trkpt>
<trkpt lat="36.756680" lon="137.757371">
<ele>2906.816704</ele>
<time>2014-08-18T09:06:07Z</time>
<desc><![CDATA[lat.=36.756680, lon.=137.757371, Alt.=2906.816704m. Speed=2.000000m/h.]]></desc>
</trkpt>
<trkpt lat="36.756680" lon="137.757374">
<ele>2918.389151</ele>
<time>2014-08-18T09:06:12Z</time>
<desc><![CDATA[lat.=36.756680, lon.=137.757374, Alt.=2918.389151m. Speed=0.000000m/h.]]></desc>
</trkpt>
<trkpt lat="36.756676" lon="137.757382">
<ele>2918.982271</ele>
<time>2014-08-18T09:06:17Z</time>
<desc><![CDATA[lat.=36.756676, lon.=137.757382, Alt.=2918.982271m. Speed=0.000000m/h.]]></desc>
</trkpt>
<trkpt lat="36.756673" lon="137.757374">
<ele>2917.790733</ele>
<time>2014-08-18T09:06:22Z</time>
<desc><![CDATA[lat.=36.756673, lon.=137.757374, Alt.=2917.790733m. Speed=0.000000m/h.]]></desc>
</trkpt>
<trkpt lat="36.756681" lon="137.757375">
<ele>2916.658999</ele>
<time>2014-08-18T09:06:27Z</time>
<desc><![CDATA[lat.=36.756681, lon.=137.757375, Alt.=2916.658999m. Speed=0.000000m/h.]]></desc>
</trkpt>
<trkpt lat="36.756685" lon="137.757367">
<ele>2916.065879</ele>
<time>2014-08-18T09:06:32Z</time>
<desc><![CDATA[lat.=36.756685, lon.=137.757367, Alt.=2916.065879m. Speed=0.000000m/h.]]></desc>
</trkpt>
<trkpt lat="36.756688" lon="137.757375">
<ele>2917.257418</ele>
<time>2014-08-18T09:06:37Z</time>
<desc><![CDATA[lat.=36.756688, lon.=137.757375, Alt.=2917.257418m. Speed=0.000000m/h.]]></desc>
</trkpt>
<trkpt lat="36.756696" lon="137.757376">
<ele>2916.125684</ele>
<time>2014-08-18T09:06:42Z</time>
<desc><![CDATA[lat.=36.756696, lon.=137.757376, Alt.=2916.125684m. Speed=0.000000m/h.]]></desc>
</trkpt>
<trkpt lat="36.756692" lon="137.757368">
<ele>2914.934146</ele>
<time>2014-08-18T09:06:47Z</time>
<desc><![CDATA[lat.=36.756692, lon.=137.757368, Alt.=2914.934146m. Speed=0.000000m/h.]]></desc>
</trkpt>
<trkpt lat="36.756688" lon="137.757407">
<ele>2915.636281</ele>
<time>2014-08-18T09:06:52Z</time>
<desc><![CDATA[lat.=36.756688, lon.=137.757407, Alt.=2915.636281m. Speed=2.000000m/h.]]></desc>
</trkpt>
<trkpt lat="36.756702" lon="137.757440">
<ele>2915.211982</ele>
<time>2014-08-18T09:06:57Z</time>
<desc><![CDATA[lat.=36.756702, lon.=137.757440, Alt.=2915.211982m. Speed=2.000000m/h.]]></desc>
</trkpt>
<trkpt lat="36.756731" lon="137.757457">
<ele>2914.199862</ele>
<time>2014-08-18T09:07:02Z</time>
<desc><![CDATA[lat.=36.756731, lon.=137.757457, Alt.=2914.199862m. Speed=2.000000m/h.]]></desc>
</trkpt>
<trkpt lat="36.756790" lon="137.757442">
<ele>2917.202555</ele>
<time>2014-08-18T09:07:07Z</time>
<desc><![CDATA[lat.=36.756790, lon.=137.757442, Alt.=2917.202555m. Speed=2.000000m/h.]]></desc>
</trkpt>
<trkpt lat="36.756815" lon="137.757467">
<ele>2916.783560</ele>
<time>2014-08-18T09:07:12Z</time>
<desc><![CDATA[lat.=36.756815, lon.=137.757467, Alt.=2916.783560m. Speed=3.000000m/h.]]></desc>
</trkpt>
<trkpt lat="36.756859" lon="137.757468">
<ele>2918.643930</ele>
<time>2014-08-18T09:07:17Z</time>
<desc><![CDATA[lat.=36.756859, lon.=137.757468, Alt.=2918.643930m. Speed=3.000000m/h.]]></desc>
</trkpt>
<trkpt lat="36.756895" lon="137.757468">
<ele>2919.905882</ele>
<time>2014-08-18T09:07:22Z</time>
<desc><![CDATA[lat.=36.756895, lon.=137.757468, Alt.=2919.905882m. Speed=3.000000m/h.]]></desc>
</trkpt>
<trkpt lat="36.756917" lon="137.757469">
<ele>2919.970994</ele>
<time>2014-08-18T09:07:27Z</time>
<desc><![CDATA[lat.=36.756917, lon.=137.757469, Alt.=2919.970994m. Speed=3.000000m/h.]]></desc>
</trkpt>
<trkpt lat="36.756932" lon="137.757486">
<ele>2919.492195</ele>
<time>2014-08-18T09:07:32Z</time>
<desc><![CDATA[lat.=36.756932, lon.=137.757486, Alt.=2919.492195m. Speed=3.000000m/h.]]></desc>
</trkpt>
<trkpt lat="36.756964" lon="137.757494">
<ele>2921.347272</ele>
<time>2014-08-18T09:07:37Z</time>
<desc><![CDATA[lat.=36.756964, lon.=137.757494, Alt.=2921.347272m. Speed=2.000000m/h.]]></desc>
</trkpt>
<trkpt lat="36.757012" lon="137.757471">
<ele>2922.560027</ele>
<time>2014-08-18T09:07:42Z</time>
<desc><![CDATA[lat.=36.757012, lon.=137.757471, Alt.=2922.560027m. Speed=3.000000m/h.]]></desc>
</trkpt>
<trkpt lat="36.757034" lon="137.757488">
<ele>2922.679653</ele>
<time>2014-08-18T09:07:47Z</time>
<desc><![CDATA[lat.=36.757034, lon.=137.757488, Alt.=2922.679653m. Speed=3.000000m/h.]]></desc>
</trkpt>
<trkpt lat="36.757029" lon="137.757528">
<ele>2921.651639</ele>
<time>2014-08-18T09:07:52Z</time>
<desc><![CDATA[lat.=36.757029, lon.=137.757528, Alt.=2921.651639m. Speed=3.000000m/h.]]></desc>
</trkpt>
<trkpt lat="36.757066" lon="137.757528">
<ele>2924.643755</ele>
<time>2014-08-18T09:07:57Z</time>
<desc><![CDATA[lat.=36.757066, lon.=137.757528, Alt.=2924.643755m. Speed=2.000000m/h.]]></desc>
</trkpt>
<trkpt lat="36.757069" lon="137.757519">
<ele>2927.510939</ele>
<time>2014-08-18T09:08:02Z</time>
<desc><![CDATA[lat.=36.757069, lon.=137.757519, Alt.=2927.510939m. Speed=2.000000m/h.]]></desc>
</trkpt>
<trkpt lat="36.757072" lon="137.757526">
<ele>2928.702481</ele>
<time>2014-08-18T09:08:07Z</time>
<desc><![CDATA[lat.=36.757072, lon.=137.757526, Alt.=2928.702481m. Speed=0.000000m/h.]]></desc>
</trkpt>
<trkpt lat="36.757076" lon="137.757519">
<ele>2928.109362</ele>
<time>2014-08-18T09:08:17Z</time>
<desc><![CDATA[lat.=36.757076, lon.=137.757519, Alt.=2928.109362m. Speed=1.000000m/h.]]></desc>
</trkpt>
<trkpt lat="36.757110" lon="137.757496">
<ele>2928.125278</ele>
<time>2014-08-18T09:08:22Z</time>
<desc><![CDATA[lat.=36.757110, lon.=137.757496, Alt.=2928.125278m. Speed=2.000000m/h.]]></desc>
</trkpt>
<trkpt lat="36.757112" lon="137.757535">
<ele>2929.425840</ele>
<time>2014-08-18T09:08:27Z</time>
<desc><![CDATA[lat.=36.757112, lon.=137.757535, Alt.=2929.425840m. Speed=3.000000m/h.]]></desc>
</trkpt>
<trkpt lat="36.757096" lon="137.757582">
<ele>2930.122674</ele>
<time>2014-08-18T09:08:32Z</time>
<desc><![CDATA[lat.=36.757096, lon.=137.757582, Alt.=2930.122674m. Speed=3.000000m/h.]]></desc>
</trkpt>
<trkpt lat="36.757080" lon="137.757628">
<ele>2932.549663</ele>
<time>2014-08-18T09:08:37Z</time>
<desc><![CDATA[lat.=36.757080, lon.=137.757628, Alt.=2932.549663m. Speed=3.000000m/h.]]></desc>
</trkpt>
<trkpt lat="36.757060" lon="137.757682">
<ele>2933.839624</ele>
<time>2014-08-18T09:08:42Z</time>
<desc><![CDATA[lat.=36.757060, lon.=137.757682, Alt.=2933.839624m. Speed=3.000000m/h.]]></desc>
</trkpt>
<trkpt lat="36.757044" lon="137.757746">
<ele>2932.860831</ele>
<time>2014-08-18T09:08:47Z</time>
<desc><![CDATA[lat.=36.757044, lon.=137.757746, Alt.=2932.860831m. Speed=3.000000m/h.]]></desc>
</trkpt>
<trkpt lat="36.757039" lon="137.757785">
<ele>2933.562981</ele>
<time>2014-08-18T09:08:52Z</time>
<desc><![CDATA[lat.=36.757039, lon.=137.757785, Alt.=2933.562981m. Speed=3.000000m/h.]]></desc>
</trkpt>
<trkpt lat="36.757028" lon="137.757793">
<ele>2931.827529</ele>
<time>2014-08-18T09:08:57Z</time>
<desc><![CDATA[lat.=36.757028, lon.=137.757793, Alt.=2931.827529m. Speed=0.000000m/h.]]></desc>
</trkpt>
<trkpt lat="36.757036" lon="137.757794">
<ele>2930.695801</ele>
<time>2014-08-18T09:09:02Z</time>
<desc><![CDATA[lat.=36.757036, lon.=137.757794, Alt.=2930.695801m. Speed=0.000000m/h.]]></desc>
</trkpt>
<trkpt lat="36.757047" lon="137.757802">
<ele>2930.755618</ele>
<time>2014-08-18T09:09:07Z</time>
<desc><![CDATA[lat.=36.757047, lon.=137.757802, Alt.=2930.755618m. Speed=0.000000m/h.]]></desc>
</trkpt>
<trkpt lat="36.757020" lon="137.757840">
<ele>2931.392653</ele>
<time>2014-08-18T09:09:12Z</time>
<desc><![CDATA[lat.=36.757020, lon.=137.757840, Alt.=2931.392653m. Speed=2.000000m/h.]]></desc>
</trkpt>
<trkpt lat="36.757031" lon="137.757865">
<ele>2931.506986</ele>
<time>2014-08-18T09:09:17Z</time>
<desc><![CDATA[lat.=36.757031, lon.=137.757865, Alt.=2931.506986m. Speed=2.000000m/h.]]></desc>
</trkpt>
<trkpt lat="36.757038" lon="137.757865">
<ele>2930.375258</ele>
<time>2014-08-18T09:09:22Z</time>
<desc><![CDATA[lat.=36.757038, lon.=137.757865, Alt.=2930.375258m. Speed=0.000000m/h.]]></desc>
</trkpt>
<trkpt lat="36.757027" lon="137.757873">
<ele>2930.369958</ele>
<time>2014-08-18T09:09:27Z</time>
<desc><![CDATA[lat.=36.757027, lon.=137.757873, Alt.=2930.369958m. Speed=0.000000m/h.]]></desc>
</trkpt>
<trkpt lat="36.757038" lon="137.757865">
<ele>2932.105409</ele>
<time>2014-08-18T09:09:32Z</time>
<desc><![CDATA[lat.=36.757038, lon.=137.757865, Alt.=2932.105409m. Speed=0.000000m/h.]]></desc>
</trkpt>
<trkpt lat="36.757065" lon="137.757810">
<ele>2933.144009</ele>
<time>2014-08-18T09:09:37Z</time>
<desc><![CDATA[lat.=36.757065, lon.=137.757810, Alt.=2933.144009m. Speed=3.000000m/h.]]></desc>
</trkpt>
<trkpt lat="36.757092" lon="137.757755">
<ele>2932.452463</ele>
<time>2014-08-18T09:09:42Z</time>
<desc><![CDATA[lat.=36.757092, lon.=137.757755, Alt.=2932.452463m. Speed=3.000000m/h.]]></desc>
</trkpt>
<trkpt lat="36.757096" lon="137.757699">
<ele>2935.156104</ele>
<time>2014-08-18T09:09:47Z</time>
<desc><![CDATA[lat.=36.757096, lon.=137.757699, Alt.=2935.156104m. Speed=4.000000m/h.]]></desc>
</trkpt>
<trkpt lat="36.757120" lon="137.757637">
<ele>2933.273024</ele>
<time>2014-08-18T09:09:52Z</time>
<desc><![CDATA[lat.=36.757120, lon.=137.757637, Alt.=2933.273024m. Speed=4.000000m/h.]]></desc>
</trkpt>
<trkpt lat="36.757140" lon="137.757583">
<ele>2931.983068</ele>
<time>2014-08-18T09:09:57Z</time>
<desc><![CDATA[lat.=36.757140, lon.=137.757583, Alt.=2931.983068m. Speed=4.000000m/h.]]></desc>
</trkpt>
<trkpt lat="36.757170" lon="137.757553">
<ele>2930.807444</ele>
<time>2014-08-18T09:10:02Z</time>
<desc><![CDATA[lat.=36.757170, lon.=137.757553, Alt.=2930.807444m. Speed=4.000000m/h.]]></desc>
</trkpt>
<trkpt lat="36.757192" lon="137.757537">
<ele>2932.548209</ele>
<time>2014-08-18T09:10:07Z</time>
<desc><![CDATA[lat.=36.757192, lon.=137.757537, Alt.=2932.548209m. Speed=3.000000m/h.]]></desc>
</trkpt>
<trkpt lat="36.757230" lon="137.757523">
<ele>2932.025524</ele>
<time>2014-08-18T09:10:12Z</time>
<desc><![CDATA[lat.=36.757230, lon.=137.757523, Alt.=2932.025524m. Speed=3.000000m/h.]]></desc>
</trkpt>
<trkpt lat="36.757270" lon="137.757515">
<ele>2934.424537</ele>
<time>2014-08-18T09:10:17Z</time>
<desc><![CDATA[lat.=36.757270, lon.=137.757515, Alt.=2934.424537m. Speed=3.000000m/h.]]></desc>
</trkpt>
<trkpt lat="36.757310" lon="137.757525">
<ele>2933.417760</ele>
<time>2014-08-18T09:10:22Z</time>
<desc><![CDATA[lat.=36.757310, lon.=137.757525, Alt.=2933.417760m. Speed=3.000000m/h.]]></desc>
</trkpt>
<trkpt lat="36.757325" lon="137.757542">
<ele>2931.208822</ele>
<time>2014-08-18T09:10:27Z</time>
<desc><![CDATA[lat.=36.757325, lon.=137.757542, Alt.=2931.208822m. Speed=3.000000m/h.]]></desc>
</trkpt>
<trkpt lat="36.757361" lon="137.757560">
<ele>2930.795167</ele>
<time>2014-08-18T09:10:32Z</time>
<desc><![CDATA[lat.=36.757361, lon.=137.757560, Alt.=2930.795167m. Speed=3.000000m/h.]]></desc>
</trkpt>
<trkpt lat="36.757372" lon="137.757568">
<ele>2930.854988</ele>
<time>2014-08-18T09:10:37Z</time>
<desc><![CDATA[lat.=36.757372, lon.=137.757568, Alt.=2930.854988m. Speed=2.000000m/h.]]></desc>
</trkpt>
<trkpt lat="36.757390" lon="137.757593">
<ele>2929.837597</ele>
<time>2014-08-18T09:10:42Z</time>
<desc><![CDATA[lat.=36.757390, lon.=137.757593, Alt.=2929.837597m. Speed=3.000000m/h.]]></desc>
</trkpt>
<trkpt lat="36.757438" lon="137.757585">
<ele>2932.835050</ele>
<time>2014-08-18T09:10:47Z</time>
<desc><![CDATA[lat.=36.757438, lon.=137.757585, Alt.=2932.835050m. Speed=3.000000m/h.]]></desc>
</trkpt>
<trkpt lat="36.757474" lon="137.757586">
<ele>2934.097044</ele>
<time>2014-08-18T09:10:52Z</time>
<desc><![CDATA[lat.=36.757474, lon.=137.757586, Alt.=2934.097044m. Speed=3.000000m/h.]]></desc>
</trkpt>
<trkpt lat="36.757496" lon="137.757603">
<ele>2934.216692</ele>
<time>2014-08-18T09:10:57Z</time>
<desc><![CDATA[lat.=36.757496, lon.=137.757603, Alt.=2934.216692m. Speed=2.000000m/h.]]></desc>
</trkpt>
<trkpt lat="36.757509" lon="137.757601">
<ele>2938.873852</ele>
<time>2014-08-18T09:11:02Z</time>
<desc><![CDATA[lat.=36.757509, lon.=137.757601, Alt.=2938.873852m. Speed=0.000000m/h.]]></desc>
</trkpt>
<trkpt lat="36.757517" lon="137.757601">
<ele>2939.472282</ele>
<time>2014-08-18T09:11:11Z</time>
<desc><![CDATA[lat.=36.757517, lon.=137.757601, Alt.=2939.472282m. Speed=0.000000m/h.]]></desc>
</trkpt>
<trkpt lat="36.757524" lon="137.757601">
<ele>2940.070712</ele>
<time>2014-08-18T09:11:16Z</time>
<desc><![CDATA[lat.=36.757524, lon.=137.757601, Alt.=2940.070712m. Speed=1.000000m/h.]]></desc>
</trkpt>
<trkpt lat="36.757527" lon="137.757593">
<ele>2941.207746</ele>
<time>2014-08-18T09:11:21Z</time>
<desc><![CDATA[lat.=36.757527, lon.=137.757593, Alt.=2941.207746m. Speed=0.000000m/h.]]></desc>
</trkpt>
<trkpt lat="36.757535" lon="137.757593">
<ele>2941.806176</ele>
<time>2014-08-18T09:11:29Z</time>
<desc><![CDATA[lat.=36.757535, lon.=137.757593, Alt.=2941.806176m. Speed=0.000000m/h.]]></desc>
</trkpt>
<trkpt lat="36.757553" lon="137.757569">
<ele>2942.355411</ele>
<time>2014-08-18T09:11:34Z</time>
<desc><![CDATA[lat.=36.757553, lon.=137.757569, Alt.=2942.355411m. Speed=2.000000m/h.]]></desc>
</trkpt>
<trkpt lat="36.757576" lon="137.757587">
<ele>2940.744911</ele>
<time>2014-08-18T09:11:39Z</time>
<desc><![CDATA[lat.=36.757576, lon.=137.757587, Alt.=2940.744911m. Speed=2.000000m/h.]]></desc>
</trkpt>
<trkpt lat="36.757590" lon="137.757603">
<ele>2940.266132</ele>
<time>2014-08-18T09:11:44Z</time>
<desc><![CDATA[lat.=36.757590, lon.=137.757603, Alt.=2940.266132m. Speed=2.000000m/h.]]></desc>
</trkpt>
<trkpt lat="36.757619" lon="137.757604">
<ele>2940.929705</ele>
<time>2014-08-18T09:11:49Z</time>
<desc><![CDATA[lat.=36.757619, lon.=137.757604, Alt.=2940.929705m. Speed=2.000000m/h.]]></desc>
</trkpt>
<trkpt lat="36.757619" lon="137.757637">
<ele>2939.308577</ele>
<time>2014-08-18T09:11:54Z</time>
<desc><![CDATA[lat.=36.757619, lon.=137.757637, Alt.=2939.308577m. Speed=2.000000m/h.]]></desc>
</trkpt>
<trkpt lat="36.757673" lon="137.757629">
<ele>2942.904483</ele>
<time>2014-08-18T09:11:59Z</time>
<desc><![CDATA[lat.=36.757673, lon.=137.757629, Alt.=2942.904483m. Speed=2.000000m/h.]]></desc>
</trkpt>
<trkpt lat="36.757680" lon="137.757645">
<ele>2943.557426</ele>
<time>2014-08-18T09:12:04Z</time>
<desc><![CDATA[lat.=36.757680, lon.=137.757645, Alt.=2943.557426m. Speed=2.000000m/h.]]></desc>
</trkpt>
<trkpt lat="36.757665" lon="137.757659">
<ele>2945.875375</ele>
<time>2014-08-18T09:12:09Z</time>
<desc><![CDATA[lat.=36.757665, lon.=137.757659, Alt.=2945.875375m. Speed=2.000000m/h.]]></desc>
</trkpt>
<trkpt lat="36.757690" lon="137.757667">
<ele>2948.862218</ele>
<time>2014-08-18T09:12:14Z</time>
<desc><![CDATA[lat.=36.757690, lon.=137.757667, Alt.=2948.862218m. Speed=2.000000m/h.]]></desc>
</trkpt>
<trkpt lat="36.757689" lon="137.757666">
<ele>2950.592369</ele>
<time>2014-08-18T09:12:19Z</time>
<desc><![CDATA[lat.=36.757689, lon.=137.757666, Alt.=2950.592369m. Speed=0.000000m/h.]]></desc>
</trkpt>
<trkpt lat="36.757704" lon="137.757667">
<ele>2950.059083</ele>
<time>2014-08-18T09:12:24Z</time>
<desc><![CDATA[lat.=36.757704, lon.=137.757667, Alt.=2950.059083m. Speed=1.000000m/h.]]></desc>
</trkpt>
<trkpt lat="36.757718" lon="137.757699">
<ele>2949.634822</ele>
<time>2014-08-18T09:12:29Z</time>
<desc><![CDATA[lat.=36.757718, lon.=137.757699, Alt.=2949.634822m. Speed=2.000000m/h.]]></desc>
</trkpt>
<trkpt lat="36.757751" lon="137.757709">
<ele>2948.029650</ele>
<time>2014-08-18T09:12:34Z</time>
<desc><![CDATA[lat.=36.757751, lon.=137.757709, Alt.=2948.029650m. Speed=2.000000m/h.]]></desc>
</trkpt>
<trkpt lat="36.757773" lon="137.757725">
<ele>2948.149312</ele>
<time>2014-08-18T09:12:39Z</time>
<desc><![CDATA[lat.=36.757773, lon.=137.757725, Alt.=2948.149312m. Speed=2.000000m/h.]]></desc>
</trkpt>
<trkpt lat="36.757795" lon="137.757742">
<ele>2948.268976</ele>
<time>2014-08-18T09:12:44Z</time>
<desc><![CDATA[lat.=36.757795, lon.=137.757742, Alt.=2948.268976m. Speed=2.000000m/h.]]></desc>
</trkpt>
<trkpt lat="36.757802" lon="137.757774">
<ele>2947.246287</ele>
<time>2014-08-18T09:12:49Z</time>
<desc><![CDATA[lat.=36.757802, lon.=137.757774, Alt.=2947.246287m. Speed=2.000000m/h.]]></desc>
</trkpt>
<trkpt lat="36.757816" lon="137.757790">
<ele>2948.497668</ele>
<time>2014-08-18T09:12:54Z</time>
<desc><![CDATA[lat.=36.757816, lon.=137.757790, Alt.=2948.497668m. Speed=2.000000m/h.]]></desc>
</trkpt>
<trkpt lat="36.757834" lon="137.757815">
<ele>2947.480300</ele>
<time>2014-08-18T09:12:59Z</time>
<desc><![CDATA[lat.=36.757834, lon.=137.757815, Alt.=2947.480300m. Speed=2.000000m/h.]]></desc>
</trkpt>
<trkpt lat="36.757840" lon="137.757847">
<ele>2948.187765</ele>
<time>2014-08-18T09:13:04Z</time>
<desc><![CDATA[lat.=36.757840, lon.=137.757847, Alt.=2948.187765m. Speed=2.000000m/h.]]></desc>
</trkpt>
<trkpt lat="36.757880" lon="137.757856">
<ele>2948.911187</ele>
<time>2014-08-18T09:13:09Z</time>
<desc><![CDATA[lat.=36.757880, lon.=137.757856, Alt.=2948.911187m. Speed=3.000000m/h.]]></desc>
</trkpt>
<trkpt lat="36.757913" lon="137.757881">
<ele>2949.090694</ele>
<time>2014-08-18T09:13:14Z</time>
<desc><![CDATA[lat.=36.757913, lon.=137.757881, Alt.=2949.090694m. Speed=3.000000m/h.]]></desc>
</trkpt>
<trkpt lat="36.757927" lon="137.757896">
<ele>2950.342081</ele>
<time>2014-08-18T09:13:19Z</time>
<desc><![CDATA[lat.=36.757927, lon.=137.757896, Alt.=2950.342081m. Speed=2.000000m/h.]]></desc>
</trkpt>
<trkpt lat="36.757952" lon="137.757921">
<ele>2949.923155</ele>
<time>2014-08-18T09:13:24Z</time>
<desc><![CDATA[lat.=36.757952, lon.=137.757921, Alt.=2949.923155m. Speed=2.000000m/h.]]></desc>
</trkpt>
<trkpt lat="36.757981" lon="137.757938">
<ele>2950.641267</ele>
<time>2014-08-18T09:13:29Z</time>
<desc><![CDATA[lat.=36.757981, lon.=137.757938, Alt.=2950.641267m. Speed=2.000000m/h.]]></desc>
</trkpt>
<trkpt lat="36.757999" lon="137.757963">
<ele>2949.623909</ele>
<time>2014-08-18T09:13:34Z</time>
<desc><![CDATA[lat.=36.757999, lon.=137.757963, Alt.=2949.623909m. Speed=2.000000m/h.]]></desc>
</trkpt>
<trkpt lat="36.758035" lon="137.757979">
<ele>2950.940460</ele>
<time>2014-08-18T09:13:39Z</time>
<desc><![CDATA[lat.=36.758035, lon.=137.757979, Alt.=2950.940460m. Speed=3.000000m/h.]]></desc>
</trkpt>
<trkpt lat="36.758057" lon="137.757995">
<ele>2952.790290</ele>
<time>2014-08-18T09:13:44Z</time>
<desc><![CDATA[lat.=36.758057, lon.=137.757995, Alt.=2952.790290m. Speed=3.000000m/h.]]></desc>
</trkpt>
<trkpt lat="36.758085" lon="137.758027">
<ele>2953.562927</ele>
<time>2014-08-18T09:13:49Z</time>
<desc><![CDATA[lat.=36.758085, lon.=137.758027, Alt.=2953.562927m. Speed=3.000000m/h.]]></desc>
</trkpt>
<trkpt lat="36.758102" lon="137.758051">
<ele>2956.005875</ele>
<time>2014-08-18T09:13:54Z</time>
<desc><![CDATA[lat.=36.758102, lon.=137.758051, Alt.=2956.005875m. Speed=3.000000m/h.]]></desc>
</trkpt>
<trkpt lat="36.758153" lon="137.758067">
<ele>2958.519313</ele>
<time>2014-08-18T09:13:59Z</time>
<desc><![CDATA[lat.=36.758153, lon.=137.758067, Alt.=2958.519313m. Speed=2.000000m/h.]]></desc>
</trkpt>
<trkpt lat="36.758171" lon="137.758092">
<ele>2957.501965</ele>
<time>2014-08-18T09:14:04Z</time>
<desc><![CDATA[lat.=36.758171, lon.=137.758092, Alt.=2957.501965m. Speed=3.000000m/h.]]></desc>
</trkpt>
<trkpt lat="36.758200" lon="137.758109">
<ele>2958.220092</ele>
<time>2014-08-18T09:14:09Z</time>
<desc><![CDATA[lat.=36.758200, lon.=137.758109, Alt.=2958.220092m. Speed=3.000000m/h.]]></desc>
</trkpt>
<trkpt lat="36.758214" lon="137.758141">
<ele>2957.795863</ele>
<time>2014-08-18T09:14:14Z</time>
<desc><![CDATA[lat.=36.758214, lon.=137.758141, Alt.=2957.795863m. Speed=2.000000m/h.]]></desc>
</trkpt>
<trkpt lat="36.758239" lon="137.758149">
<ele>2959.052587</ele>
<time>2014-08-18T09:14:19Z</time>
<desc><![CDATA[lat.=36.758239, lon.=137.758149, Alt.=2959.052587m. Speed=2.000000m/h.]]></desc>
</trkpt>
<trkpt lat="36.758260" lon="137.758180">
<ele>2962.687100</ele>
<time>2014-08-18T09:14:24Z</time>
<desc><![CDATA[lat.=36.758260, lon.=137.758180, Alt.=2962.687100m. Speed=2.000000m/h.]]></desc>
</trkpt>
<trkpt lat="36.758278" lon="137.758204">
<ele>2963.399909</ele>
<time>2014-08-18T09:14:29Z</time>
<desc><![CDATA[lat.=36.758278, lon.=137.758204, Alt.=2963.399909m. Speed=2.000000m/h.]]></desc>
</trkpt>
<trkpt lat="36.758287" lon="137.758244">
<ele>2965.298951</ele>
<time>2014-08-18T09:14:34Z</time>
<desc><![CDATA[lat.=36.758287, lon.=137.758244, Alt.=2965.298951m. Speed=2.000000m/h.]]></desc>
</trkpt>
<trkpt lat="36.758335" lon="137.758253">
<ele>2966.620853</ele>
<time>2014-08-18T09:14:39Z</time>
<desc><![CDATA[lat.=36.758335, lon.=137.758253, Alt.=2966.620853m. Speed=3.000000m/h.]]></desc>
</trkpt>
<trkpt lat="36.758360" lon="137.758293">
<ele>2966.256483</ele>
<time>2014-08-18T09:14:44Z</time>
<desc><![CDATA[lat.=36.758360, lon.=137.758293, Alt.=2966.256483m. Speed=3.000000m/h.]]></desc>
</trkpt>
<trkpt lat="36.758373" lon="137.758325">
<ele>2967.562415</ele>
<time>2014-08-18T09:14:49Z</time>
<desc><![CDATA[lat.=36.758373, lon.=137.758325, Alt.=2967.562415m. Speed=3.000000m/h.]]></desc>
</trkpt>
<trkpt lat="36.758361" lon="137.758363">
<ele>2969.396289</ele>
<time>2014-08-18T09:14:54Z</time>
<desc><![CDATA[lat.=36.758361, lon.=137.758363, Alt.=2969.396289m. Speed=3.000000m/h.]]></desc>
</trkpt>
<trkpt lat="36.758389" lon="137.758396">
<ele>2970.168958</ele>
<time>2014-08-18T09:14:59Z</time>
<desc><![CDATA[lat.=36.758389, lon.=137.758396, Alt.=2970.168958m. Speed=3.000000m/h.]]></desc>
</trkpt>
<trkpt lat="36.758407" lon="137.758420">
<ele>2970.881778</ele>
<time>2014-08-18T09:15:04Z</time>
<desc><![CDATA[lat.=36.758407, lon.=137.758420, Alt.=2970.881778m. Speed=3.000000m/h.]]></desc>
</trkpt>
<trkpt lat="36.758457" lon="137.758452">
<ele>2973.449780</ele>
<time>2014-08-18T09:15:09Z</time>
<desc><![CDATA[lat.=36.758457, lon.=137.758452, Alt.=2973.449780m. Speed=2.000000m/h.]]></desc>
</trkpt>
<trkpt lat="36.758490" lon="137.758478">
<ele>2971.899192</ele>
<time>2014-08-18T09:15:14Z</time>
<desc><![CDATA[lat.=36.758490, lon.=137.758478, Alt.=2971.899192m. Speed=3.000000m/h.]]></desc>
</trkpt>
<trkpt lat="36.758537" lon="137.758485">
<ele>2976.681414</ele>
<time>2014-08-18T09:15:19Z</time>
<desc><![CDATA[lat.=36.758537, lon.=137.758485, Alt.=2976.681414m. Speed=2.000000m/h.]]></desc>
</trkpt>
<trkpt lat="36.758543" lon="137.758534">
<ele>2975.713294</ele>
<time>2014-08-18T09:15:24Z</time>
<desc><![CDATA[lat.=36.758543, lon.=137.758534, Alt.=2975.713294m. Speed=2.000000m/h.]]></desc>
</trkpt>
<trkpt lat="36.758543" lon="137.758550">
<ele>2974.037673</ele>
<time>2014-08-18T09:15:29Z</time>
<desc><![CDATA[lat.=36.758543, lon.=137.758550, Alt.=2974.037673m. Speed=1.000000m/h.]]></desc>
</trkpt>
<trkpt lat="36.758547" lon="137.758542">
<ele>2975.174706</ele>
<time>2014-08-18T09:15:34Z</time>
<desc><![CDATA[lat.=36.758547, lon.=137.758542, Alt.=2975.174706m. Speed=0.000000m/h.]]></desc>
</trkpt>
<trkpt lat="36.758561" lon="137.758542">
<ele>2976.371594</ele>
<time>2014-08-18T09:15:39Z</time>
<desc><![CDATA[lat.=36.758561, lon.=137.758542, Alt.=2976.371594m. Speed=0.000000m/h.]]></desc>
</trkpt>
<trkpt lat="36.758568" lon="137.758541">
<ele>2978.700187</ele>
<time>2014-08-18T09:15:44Z</time>
<desc><![CDATA[lat.=36.758568, lon.=137.758541, Alt.=2978.700187m. Speed=0.000000m/h.]]></desc>
</trkpt>
<trkpt lat="36.758572" lon="137.758533">
<ele>2979.837220</ele>
<time>2014-08-18T09:15:49Z</time>
<desc><![CDATA[lat.=36.758572, lon.=137.758533, Alt.=2979.837220m. Speed=0.000000m/h.]]></desc>
</trkpt>
<trkpt lat="36.758583" lon="137.758541">
<ele>2979.897076</ele>
<time>2014-08-18T09:15:54Z</time>
<desc><![CDATA[lat.=36.758583, lon.=137.758541, Alt.=2979.897076m. Speed=1.000000m/h.]]></desc>
</trkpt>
<trkpt lat="36.758600" lon="137.758564">
<ele>2982.340056</ele>
<time>2014-08-18T09:15:59Z</time>
<desc><![CDATA[lat.=36.758600, lon.=137.758564, Alt.=2982.340056m. Speed=1.000000m/h.]]></desc>
</trkpt>
<trkpt lat="36.758621" lon="137.758564">
<ele>2984.135391</ele>
<time>2014-08-18T09:16:04Z</time>
<desc><![CDATA[lat.=36.758621, lon.=137.758564, Alt.=2984.135391m. Speed=0.000000m/h.]]></desc>
</trkpt>
<trkpt lat="36.758618" lon="137.758573">
<ele>2982.998359</ele>
<time>2014-08-18T09:16:16Z</time>
<desc><![CDATA[lat.=36.758618, lon.=137.758573, Alt.=2982.998359m. Speed=1.000000m/h.]]></desc>
</trkpt>
<trkpt lat="36.758611" lon="137.758540">
<ele>2984.021005</ele>
<time>2014-08-18T09:16:21Z</time>
<desc><![CDATA[lat.=36.758611, lon.=137.758540, Alt.=2984.021005m. Speed=2.000000m/h.]]></desc>
</trkpt>
<trkpt lat="36.758627" lon="137.758509">
<ele>2983.378689</ele>
<time>2014-08-18T09:16:26Z</time>
<desc><![CDATA[lat.=36.758627, lon.=137.758509, Alt.=2983.378689m. Speed=2.000000m/h.]]></desc>
</trkpt>
<trkpt lat="36.758623" lon="137.758502">
<ele>2982.187128</ele>
<time>2014-08-18T09:16:31Z</time>
<desc><![CDATA[lat.=36.758623, lon.=137.758502, Alt.=2982.187128m. Speed=2.000000m/h.]]></desc>
</trkpt>
<trkpt lat="36.758612" lon="137.758509">
<ele>2983.911948</ele>
<time>2014-08-18T09:16:36Z</time>
<desc><![CDATA[lat.=36.758612, lon.=137.758509, Alt.=2983.911948m. Speed=0.000000m/h.]]></desc>
</trkpt>
<trkpt lat="36.758594" lon="137.758500">
<ele>2983.253646</ele>
<time>2014-08-18T09:16:41Z</time>
<desc><![CDATA[lat.=36.758594, lon.=137.758500, Alt.=2983.253646m. Speed=2.000000m/h.]]></desc>
</trkpt>
<trkpt lat="36.758568" lon="137.758492">
<ele>2981.996900</ele>
<time>2014-08-18T09:16:46Z</time>
<desc><![CDATA[lat.=36.758568, lon.=137.758492, Alt.=2981.996900m. Speed=2.000000m/h.]]></desc>
</trkpt>
<trkpt lat="36.758576" lon="137.758493">
<ele>2980.865196</ele>
<time>2014-08-18T09:16:51Z</time>
<desc><![CDATA[lat.=36.758576, lon.=137.758493, Alt.=2980.865196m. Speed=0.000000m/h.]]></desc>
</trkpt>
<trkpt lat="36.758594" lon="137.758500">
<ele>2983.253646</ele>
<time>2014-08-18T09:16:56Z</time>
<desc><![CDATA[lat.=36.758594, lon.=137.758500, Alt.=2983.253646m. Speed=0.000000m/h.]]></desc>
</trkpt>
<trkpt lat="36.758589" lon="137.758491">
<ele>2987.252532</ele>
<time>2014-08-18T09:17:01Z</time>
<desc><![CDATA[lat.=36.758589, lon.=137.758491, Alt.=2987.252532m. Speed=2.000000m/h.]]></desc>
</trkpt>
<trkpt lat="36.758574" lon="137.758489">
<ele>2989.515941</ele>
<time>2014-08-18T09:17:06Z</time>
<desc><![CDATA[lat.=36.758574, lon.=137.758489, Alt.=2989.515941m. Speed=0.000000m/h.]]></desc>
</trkpt>
<trkpt lat="36.758574" lon="137.758505">
<ele>2989.570469</ele>
<time>2014-08-18T09:17:11Z</time>
<desc><![CDATA[lat.=36.758574, lon.=137.758505, Alt.=2989.570469m. Speed=0.000000m/h.]]></desc>
</trkpt>
<trkpt lat="36.758574" lon="137.758489">
<ele>2989.515941</ele>
<time>2014-08-18T09:17:16Z</time>
<desc><![CDATA[lat.=36.758574, lon.=137.758489, Alt.=2989.515941m. Speed=0.000000m/h.]]></desc>
</trkpt>
<trkpt lat="36.758570" lon="137.758481">
<ele>2990.054529</ele>
<time>2014-08-18T09:17:22Z</time>
<desc><![CDATA[lat.=36.758570, lon.=137.758481, Alt.=2990.054529m. Speed=0.000000m/h.]]></desc>
</trkpt>
<trkpt lat="36.758563" lon="137.758497">
<ele>2989.510613</ele>
<time>2014-08-18T09:17:27Z</time>
<desc><![CDATA[lat.=36.758563, lon.=137.758497, Alt.=2989.510613m. Speed=0.000000m/h.]]></desc>
</trkpt>
<trkpt lat="36.758552" lon="137.758488">
<ele>2989.450757</ele>
<time>2014-08-18T09:17:32Z</time>
<desc><![CDATA[lat.=36.758552, lon.=137.758488, Alt.=2989.450757m. Speed=0.000000m/h.]]></desc>
</trkpt>
<trkpt lat="36.758548" lon="137.758480">
<ele>2989.989345</ele>
<time>2014-08-18T09:17:51Z</time>
<desc><![CDATA[lat.=36.758548, lon.=137.758480, Alt.=2989.989345m. Speed=0.000000m/h.]]></desc>
</trkpt>
<trkpt lat="36.758560" lon="137.758473">
<ele>2989.994674</ele>
<time>2014-08-18T09:17:56Z</time>
<desc><![CDATA[lat.=36.758560, lon.=137.758473, Alt.=2989.994674m. Speed=0.000000m/h.]]></desc>
</trkpt>
<trkpt lat="36.758556" lon="137.758480">
<ele>2990.587790</ele>
<time>2014-08-18T09:18:20Z</time>
<desc><![CDATA[lat.=36.758556, lon.=137.758480, Alt.=2990.587790m. Speed=0.000000m/h.]]></desc>
</trkpt>
<trkpt lat="36.758548" lon="137.758480">
<ele>2989.989345</ele>
<time>2014-08-18T09:18:25Z</time>
<desc><![CDATA[lat.=36.758548, lon.=137.758480, Alt.=2989.989345m. Speed=1.000000m/h.]]></desc>
</trkpt>
<trkpt lat="36.758577" lon="137.758545">
<ele>2989.140938</ele>
<time>2014-08-18T09:18:30Z</time>
<desc><![CDATA[lat.=36.758577, lon.=137.758545, Alt.=2989.140938m. Speed=3.000000m/h.]]></desc>
</trkpt>
<trkpt lat="36.758631" lon="137.758570">
<ele>2991.115845</ele>
<time>2014-08-18T09:18:35Z</time>
<desc><![CDATA[lat.=36.758631, lon.=137.758570, Alt.=2991.115845m. Speed=3.000000m/h.]]></desc>
</trkpt>
<trkpt lat="36.758645" lon="137.758585">
<ele>2992.367265</ele>
<time>2014-08-18T09:18:40Z</time>
<desc><![CDATA[lat.=36.758645, lon.=137.758585, Alt.=2992.367265m. Speed=0.000000m/h.]]></desc>
</trkpt>
<trkpt lat="36.758641" lon="137.758594">
<ele>2991.230233</ele>
<time>2014-08-18T09:18:45Z</time>
<desc><![CDATA[lat.=36.758641, lon.=137.758594, Alt.=2991.230233m. Speed=0.000000m/h.]]></desc>
</trkpt>
<trkpt lat="36.758642" lon="137.758595">
<ele>2989.500084</ele>
<time>2014-08-18T09:18:50Z</time>
<desc><![CDATA[lat.=36.758642, lon.=137.758595, Alt.=2989.500084m. Speed=0.000000m/h.]]></desc>
</trkpt>
<trkpt lat="36.758638" lon="137.758602">
<ele>2990.093200</ele>
<time>2014-08-18T09:18:55Z</time>
<desc><![CDATA[lat.=36.758638, lon.=137.758602, Alt.=2990.093200m. Speed=0.000000m/h.]]></desc>
</trkpt>
<trkpt lat="36.758634" lon="137.758594">
<ele>2990.631787</ele>
<time>2014-08-18T09:19:00Z</time>
<desc><![CDATA[lat.=36.758634, lon.=137.758594, Alt.=2990.631787m. Speed=0.000000m/h.]]></desc>
</trkpt>
<trkpt lat="36.758627" lon="137.758594">
<ele>2990.033342</ele>
<time>2014-08-18T09:19:07Z</time>
<desc><![CDATA[lat.=36.758627, lon.=137.758594, Alt.=2990.033342m. Speed=0.000000m/h.]]></desc>
</trkpt>
<trkpt lat="36.758631" lon="137.758586">
<ele>2989.440225</ele>
<time>2014-08-18T09:19:14Z</time>
<desc><![CDATA[lat.=36.758631, lon.=137.758586, Alt.=2989.440225m. Speed=0.000000m/h.]]></desc>
</trkpt>
<trkpt lat="36.758624" lon="137.758586">
<ele>2988.841780</ele>
<time>2014-08-18T09:19:25Z</time>
<desc><![CDATA[lat.=36.758624, lon.=137.758586, Alt.=2988.841780m. Speed=0.000000m/h.]]></desc>
</trkpt>
<trkpt lat="36.758628" lon="137.758579">
<ele>2988.248663</ele>
<time>2014-08-18T09:19:30Z</time>
<desc><![CDATA[lat.=36.758628, lon.=137.758579, Alt.=2988.248663m. Speed=0.000000m/h.]]></desc>
</trkpt>
<trkpt lat="36.758632" lon="137.758571">
<ele>2987.655547</ele>
<time>2014-08-18T09:19:35Z</time>
<desc><![CDATA[lat.=36.758632, lon.=137.758571, Alt.=2987.655547m. Speed=0.000000m/h.]]></desc>
</trkpt>
<trkpt lat="36.758624" lon="137.758571">
<ele>2987.057102</ele>
<time>2014-08-18T09:19:40Z</time>
<desc><![CDATA[lat.=36.758624, lon.=137.758571, Alt.=2987.057102m. Speed=0.000000m/h.]]></desc>
</trkpt>
<trkpt lat="36.758632" lon="137.758572">
<ele>2985.925398</ele>
<time>2014-08-18T09:19:45Z</time>
<desc><![CDATA[lat.=36.758632, lon.=137.758572, Alt.=2985.925398m. Speed=0.000000m/h.]]></desc>
</trkpt>
<trkpt lat="36.758628" lon="137.758564">
<ele>2986.463985</ele>
<time>2014-08-18T09:19:50Z</time>
<desc><![CDATA[lat.=36.758628, lon.=137.758564, Alt.=2986.463985m. Speed=0.000000m/h.]]></desc>
</trkpt>
<trkpt lat="36.758625" lon="137.758572">
<ele>2985.326953</ele>
<time>2014-08-18T09:19:55Z</time>
<desc><![CDATA[lat.=36.758625, lon.=137.758572, Alt.=2985.326953m. Speed=0.000000m/h.]]></desc>
</trkpt>
<trkpt lat="36.758621" lon="137.758564">
<ele>2985.865540</ele>
<time>2014-08-18T09:20:01Z</time>
<desc><![CDATA[lat.=36.758621, lon.=137.758564, Alt.=2985.865540m. Speed=0.000000m/h.]]></desc>
</trkpt>
<trkpt lat="36.758621" lon="137.758564">
<ele>2984.135391</ele>
<time>2014-08-18T09:20:06Z</time>
<desc><![CDATA[lat.=36.758621, lon.=137.758564, Alt.=2984.135391m. Speed=0.000000m/h.]]></desc>
</trkpt>
<trkpt lat="36.758614" lon="137.758564">
<ele>2983.536946</ele>
<time>2014-08-18T09:20:24Z</time>
<desc><![CDATA[lat.=36.758614, lon.=137.758564, Alt.=2983.536946m. Speed=0.000000m/h.]]></desc>
</trkpt>
<trkpt lat="36.758618" lon="137.758557">
<ele>2982.943830</ele>
<time>2014-08-18T09:20:36Z</time>
<desc><![CDATA[lat.=36.758618, lon.=137.758557, Alt.=2982.943830m. Speed=0.000000m/h.]]></desc>
</trkpt>
<trkpt lat="36.758611" lon="137.758557">
<ele>2982.345384</ele>
<time>2014-08-18T09:20:41Z</time>
<desc><![CDATA[lat.=36.758611, lon.=137.758557, Alt.=2982.345384m. Speed=0.000000m/h.]]></desc>
</trkpt>
<trkpt lat="36.758607" lon="137.758565">
<ele>2981.208352</ele>
<time>2014-08-18T09:20:49Z</time>
<desc><![CDATA[lat.=36.758607, lon.=137.758565, Alt.=2981.208352m. Speed=0.000000m/h.]]></desc>
</trkpt>
<trkpt lat="36.758600" lon="137.758565">
<ele>2980.609907</ele>
<time>2014-08-18T09:21:15Z</time>
<desc><![CDATA[lat.=36.758600, lon.=137.758565, Alt.=2980.609907m. Speed=0.000000m/h.]]></desc>
</trkpt>
<trkpt lat="36.758593" lon="137.758565">
<ele>2980.011462</ele>
<time>2014-08-18T09:22:02Z</time>
<desc><![CDATA[lat.=36.758593, lon.=137.758565, Alt.=2980.011462m. Speed=0.000000m/h.]]></desc>
</trkpt>
<trkpt lat="36.758597" lon="137.758558">
<ele>2979.418346</ele>
<time>2014-08-18T09:22:09Z</time>
<desc><![CDATA[lat.=36.758597, lon.=137.758558, Alt.=2979.418346m. Speed=0.000000m/h.]]></desc>
</trkpt>
<trkpt lat="36.758589" lon="137.758557">
<ele>2980.550050</ele>
<time>2014-08-18T09:22:15Z</time>
<desc><![CDATA[lat.=36.758589, lon.=137.758557, Alt.=2980.550050m. Speed=0.000000m/h.]]></desc>
</trkpt>
<trkpt lat="36.758597" lon="137.758558">
<ele>2979.418346</ele>
<time>2014-08-18T09:22:20Z</time>
<desc><![CDATA[lat.=36.758597, lon.=137.758558, Alt.=2979.418346m. Speed=0.000000m/h.]]></desc>
</trkpt>
<trkpt lat="36.758590" lon="137.758558">
<ele>2978.819901</ele>
<time>2014-08-18T09:22:29Z</time>
<desc><![CDATA[lat.=36.758590, lon.=137.758558, Alt.=2978.819901m. Speed=0.000000m/h.]]></desc>
</trkpt>
<trkpt lat="36.758593" lon="137.758566">
<ele>2978.281313</ele>
<time>2014-08-18T09:22:39Z</time>
<desc><![CDATA[lat.=36.758593, lon.=137.758566, Alt.=2978.281313m. Speed=0.000000m/h.]]></desc>
</trkpt>
<trkpt lat="36.758589" lon="137.758573">
<ele>2978.874430</ele>
<time>2014-08-18T09:22:44Z</time>
<desc><![CDATA[lat.=36.758589, lon.=137.758573, Alt.=2978.874430m. Speed=0.000000m/h.]]></desc>
</trkpt>
<trkpt lat="36.758582" lon="137.758573">
<ele>2980.006134</ele>
<time>2014-08-18T09:22:54Z</time>
<desc><![CDATA[lat.=36.758582, lon.=137.758573, Alt.=2980.006134m. Speed=0.000000m/h.]]></desc>
</trkpt>
<trkpt lat="36.758579" lon="137.758565">
<ele>2978.814573</ele>
<time>2014-08-18T09:22:59Z</time>
<desc><![CDATA[lat.=36.758579, lon.=137.758565, Alt.=2978.814573m. Speed=0.000000m/h.]]></desc>
</trkpt>
<trkpt lat="36.758583" lon="137.758558">
<ele>2978.221456</ele>
<time>2014-08-18T09:23:30Z</time>
<desc><![CDATA[lat.=36.758583, lon.=137.758558, Alt.=2978.221456m. Speed=0.000000m/h.]]></desc>
</trkpt>
<trkpt lat="36.758597" lon="137.758574">
<ele>2977.742726</ele>
<time>2014-08-18T09:23:35Z</time>
<desc><![CDATA[lat.=36.758597, lon.=137.758574, Alt.=2977.742726m. Speed=1.000000m/h.]]></desc>
</trkpt>
<trkpt lat="36.758638" lon="137.758552">
<ele>2976.627008</ele>
<time>2014-08-18T09:23:40Z</time>
<desc><![CDATA[lat.=36.758638, lon.=137.758552, Alt.=2976.627008m. Speed=2.000000m/h.]]></desc>
</trkpt>
<trkpt lat="36.758673" lon="137.758498">
<ele>2976.533941</ele>
<time>2014-08-18T09:23:45Z</time>
<desc><![CDATA[lat.=36.758673, lon.=137.758498, Alt.=2976.533941m. Speed=2.000000m/h.]]></desc>
</trkpt>
<trkpt lat="36.758659" lon="137.758482">
<ele>2975.282522</ele>
<time>2014-08-18T09:23:50Z</time>
<desc><![CDATA[lat.=36.758659, lon.=137.758482, Alt.=2975.282522m. Speed=2.000000m/h.]]></desc>
</trkpt>
<trkpt lat="36.758655" lon="137.758491">
<ele>2974.145488</ele>
<time>2014-08-18T09:23:55Z</time>
<desc><![CDATA[lat.=36.758655, lon.=137.758491, Alt.=2974.145488m. Speed=0.000000m/h.]]></desc>
</trkpt>
<trkpt lat="36.758647" lon="137.758507">
<ele>2973.601570</ele>
<time>2014-08-18T09:24:00Z</time>
<desc><![CDATA[lat.=36.758647, lon.=137.758507, Alt.=2973.601570m. Speed=0.000000m/h.]]></desc>
</trkpt>
<trkpt lat="36.758644" lon="137.758498">
<ele>2974.140158</ele>
<time>2014-08-18T09:24:05Z</time>
<desc><![CDATA[lat.=36.758644, lon.=137.758498, Alt.=2974.140158m. Speed=0.000000m/h.]]></desc>
</trkpt>
<trkpt lat="36.758637" lon="137.758498">
<ele>2973.541713</ele>
<time>2014-08-18T09:24:10Z</time>
<desc><![CDATA[lat.=36.758637, lon.=137.758498, Alt.=2973.541713m. Speed=0.000000m/h.]]></desc>
</trkpt>
<trkpt lat="36.758633" lon="137.758491">
<ele>2972.350152</ele>
<time>2014-08-18T09:24:15Z</time>
<desc><![CDATA[lat.=36.758633, lon.=137.758491, Alt.=2972.350152m. Speed=0.000000m/h.]]></desc>
</trkpt>
<trkpt lat="36.758633" lon="137.758507">
<ele>2972.404679</ele>
<time>2014-08-18T09:24:24Z</time>
<desc><![CDATA[lat.=36.758633, lon.=137.758507, Alt.=2972.404679m. Speed=1.000000m/h.]]></desc>
</trkpt>
<trkpt lat="36.758614" lon="137.758513">
<ele>2973.531054</ele>
<time>2014-08-18T09:24:29Z</time>
<desc><![CDATA[lat.=36.758614, lon.=137.758513, Alt.=2973.531054m. Speed=2.000000m/h.]]></desc>
</trkpt>
<trkpt lat="36.758622" lon="137.758497">
<ele>2974.074971</ele>
<time>2014-08-18T09:24:34Z</time>
<desc><![CDATA[lat.=36.758622, lon.=137.758497, Alt.=2974.074971m. Speed=0.000000m/h.]]></desc>
</trkpt>
<trkpt lat="36.758621" lon="137.758497">
<ele>2975.805120</ele>
<time>2014-08-18T09:24:39Z</time>
<desc><![CDATA[lat.=36.758621, lon.=137.758497, Alt.=2975.805120m. Speed=1.000000m/h.]]></desc>
</trkpt>
<trkpt lat="36.758603" lon="137.758488">
<ele>2976.876967</ele>
<time>2014-08-18T09:24:44Z</time>
<desc><![CDATA[lat.=36.758603, lon.=137.758488, Alt.=2976.876967m. Speed=1.000000m/h.]]></desc>
</trkpt>
<trkpt lat="36.758595" lon="137.758503">
<ele>2978.063199</ele>
<time>2014-08-18T09:24:49Z</time>
<desc><![CDATA[lat.=36.758595, lon.=137.758503, Alt.=2978.063199m. Speed=0.000000m/h.]]></desc>
</trkpt>
<trkpt lat="36.758595" lon="137.758503">
<ele>2976.333050</ele>
<time>2014-08-18T09:24:54Z</time>
<desc><![CDATA[lat.=36.758595, lon.=137.758503, Alt.=2976.333050m. Speed=0.000000m/h.]]></desc>
</trkpt>
<trkpt lat="36.758576" lon="137.758510">
<ele>2977.459426</ele>
<time>2014-08-18T09:24:59Z</time>
<desc><![CDATA[lat.=36.758576, lon.=137.758510, Alt.=2977.459426m. Speed=2.000000m/h.]]></desc>
</trkpt>
<trkpt lat="36.758550" lon="137.758533">
<ele>2978.041887</ele>
<time>2014-08-18T09:25:04Z</time>
<desc><![CDATA[lat.=36.758550, lon.=137.758533, Alt.=2978.041887m. Speed=1.000000m/h.]]></desc>
</trkpt>
<trkpt lat="36.758560" lon="137.758540">
<ele>2979.831892</ele>
<time>2014-08-18T09:25:09Z</time>
<desc><![CDATA[lat.=36.758560, lon.=137.758540, Alt.=2979.831892m. Speed=0.000000m/h.]]></desc>
</trkpt>
<trkpt lat="36.758561" lon="137.758541">
<ele>2978.101743</ele>
<time>2014-08-18T09:25:14Z</time>
<desc><![CDATA[lat.=36.758561, lon.=137.758541, Alt.=2978.101743m. Speed=0.000000m/h.]]></desc>
</trkpt>
<trkpt lat="36.758557" lon="137.758549">
<ele>2976.964711</ele>
<time>2014-08-18T09:25:19Z</time>
<desc><![CDATA[lat.=36.758557, lon.=137.758549, Alt.=2976.964711m. Speed=0.000000m/h.]]></desc>
</trkpt>
<trkpt lat="36.758554" lon="137.758558">
<ele>2975.827679</ele>
<time>2014-08-18T09:25:26Z</time>
<desc><![CDATA[lat.=36.758554, lon.=137.758558, Alt.=2975.827679m. Speed=0.000000m/h.]]></desc>
</trkpt>
<trkpt lat="36.758557" lon="137.758566">
<ele>2975.289091</ele>
<time>2014-08-18T09:25:45Z</time>
<desc><![CDATA[lat.=36.758557, lon.=137.758566, Alt.=2975.289091m. Speed=0.000000m/h.]]></desc>
</trkpt>
<trkpt lat="36.758565" lon="137.758566">
<ele>2975.887535</ele>
<time>2014-08-18T09:25:51Z</time>
<desc><![CDATA[lat.=36.758565, lon.=137.758566, Alt.=2975.887535m. Speed=0.000000m/h.]]></desc>
</trkpt>
<trkpt lat="36.758569" lon="137.758558">
<ele>2975.294418</ele>
<time>2014-08-18T09:26:21Z</time>
<desc><![CDATA[lat.=36.758569, lon.=137.758558, Alt.=2975.294418m. Speed=0.000000m/h.]]></desc>
</trkpt>
<trkpt lat="36.758565" lon="137.758566">
<ele>2975.887535</ele>
<time>2014-08-18T09:26:26Z</time>
<desc><![CDATA[lat.=36.758565, lon.=137.758566, Alt.=2975.887535m. Speed=0.000000m/h.]]></desc>
</trkpt>
<trkpt lat="36.758561" lon="137.758558">
<ele>2974.695974</ele>
<time>2014-08-18T09:26:31Z</time>
<desc><![CDATA[lat.=36.758561, lon.=137.758558, Alt.=2974.695974m. Speed=0.000000m/h.]]></desc>
</trkpt>
<trkpt lat="36.758568" lon="137.758574">
<ele>2975.348948</ele>
<time>2014-08-18T09:26:36Z</time>
<desc><![CDATA[lat.=36.758568, lon.=137.758574, Alt.=2975.348948m. Speed=0.000000m/h.]]></desc>
</trkpt>
<trkpt lat="36.758572" lon="137.758567">
<ele>2974.755831</ele>
<time>2014-08-18T09:26:41Z</time>
<desc><![CDATA[lat.=36.758572, lon.=137.758567, Alt.=2974.755831m. Speed=0.000000m/h.]]></desc>
</trkpt>
<trkpt lat="36.758569" lon="137.758558">
<ele>2975.294418</ele>
<time>2014-08-18T09:27:08Z</time>
<desc><![CDATA[lat.=36.758569, lon.=137.758558, Alt.=2975.294418m. Speed=0.000000m/h.]]></desc>
</trkpt>
<trkpt lat="36.758565" lon="137.758566">
<ele>2975.887535</ele>
<time>2014-08-18T09:27:13Z</time>
<desc><![CDATA[lat.=36.758565, lon.=137.758566, Alt.=2975.887535m. Speed=0.000000m/h.]]></desc>
</trkpt>
<trkpt lat="36.758572" lon="137.758566">
<ele>2976.485980</ele>
<time>2014-08-18T09:27:18Z</time>
<desc><![CDATA[lat.=36.758572, lon.=137.758566, Alt.=2976.485980m. Speed=0.000000m/h.]]></desc>
</trkpt>
<trkpt lat="36.758576" lon="137.758558">
<ele>2975.892863</ele>
<time>2014-08-18T09:27:41Z</time>
<desc><![CDATA[lat.=36.758576, lon.=137.758558, Alt.=2975.892863m. Speed=0.000000m/h.]]></desc>
</trkpt>
<trkpt lat="36.758572" lon="137.758566">
<ele>2976.485980</ele>
<time>2014-08-18T09:27:46Z</time>
<desc><![CDATA[lat.=36.758572, lon.=137.758566, Alt.=2976.485980m. Speed=0.000000m/h.]]></desc>
</trkpt>
<trkpt lat="36.758576" lon="137.758558">
<ele>2975.892863</ele>
<time>2014-08-18T09:28:01Z</time>
<desc><![CDATA[lat.=36.758576, lon.=137.758558, Alt.=2975.892863m. Speed=0.000000m/h.]]></desc>
</trkpt>
<trkpt lat="36.758579" lon="137.758567">
<ele>2975.354275</ele>
<time>2014-08-18T09:28:12Z</time>
<desc><![CDATA[lat.=36.758579, lon.=137.758567, Alt.=2975.354275m. Speed=0.000000m/h.]]></desc>
</trkpt>
<trkpt lat="36.758576" lon="137.758558">
<ele>2975.892863</ele>
<time>2014-08-18T09:28:50Z</time>
<desc><![CDATA[lat.=36.758576, lon.=137.758558, Alt.=2975.892863m. Speed=0.000000m/h.]]></desc>
</trkpt>
<trkpt lat="36.758572" lon="137.758566">
<ele>2976.485980</ele>
<time>2014-08-18T09:28:55Z</time>
<desc><![CDATA[lat.=36.758572, lon.=137.758566, Alt.=2976.485980m. Speed=0.000000m/h.]]></desc>
</trkpt>
<trkpt lat="36.758579" lon="137.758566">
<ele>2977.084424</ele>
<time>2014-08-18T09:29:02Z</time>
<desc><![CDATA[lat.=36.758579, lon.=137.758566, Alt.=2977.084424m. Speed=0.000000m/h.]]></desc>
</trkpt>
<trkpt lat="36.758568" lon="137.758573">
<ele>2977.079096</ele>
<time>2014-08-18T09:29:18Z</time>
<desc><![CDATA[lat.=36.758568, lon.=137.758573, Alt.=2977.079096m. Speed=0.000000m/h.]]></desc>
</trkpt>
<trkpt lat="36.758564" lon="137.758565">
<ele>2977.617684</ele>
<time>2014-08-18T09:29:41Z</time>
<desc><![CDATA[lat.=36.758564, lon.=137.758565, Alt.=2977.617684m. Speed=0.000000m/h.]]></desc>
</trkpt>
<trkpt lat="36.758571" lon="137.758565">
<ele>2978.216129</ele>
<time>2014-08-18T09:29:47Z</time>
<desc><![CDATA[lat.=36.758571, lon.=137.758565, Alt.=2978.216129m. Speed=0.000000m/h.]]></desc>
</trkpt>
<trkpt lat="36.758560" lon="137.758573">
<ele>2978.210801</ele>
<time>2014-08-18T09:29:52Z</time>
<desc><![CDATA[lat.=36.758560, lon.=137.758573, Alt.=2978.210801m. Speed=0.000000m/h.]]></desc>
</trkpt>
<trkpt lat="36.758564" lon="137.758565">
<ele>2977.617684</ele>
<time>2014-08-18T09:29:57Z</time>
<desc><![CDATA[lat.=36.758564, lon.=137.758565, Alt.=2977.617684m. Speed=0.000000m/h.]]></desc>
</trkpt>
<trkpt lat="36.758560" lon="137.758573">
<ele>2978.210801</ele>
<time>2014-08-18T09:30:10Z</time>
<desc><![CDATA[lat.=36.758560, lon.=137.758573, Alt.=2978.210801m. Speed=0.000000m/h.]]></desc>
</trkpt>
<trkpt lat="36.758557" lon="137.758565">
<ele>2977.019240</ele>
<time>2014-08-18T09:30:15Z</time>
<desc><![CDATA[lat.=36.758557, lon.=137.758565, Alt.=2977.019240m. Speed=0.000000m/h.]]></desc>
</trkpt>
<trkpt lat="36.758553" lon="137.758573">
<ele>2977.612357</ele>
<time>2014-08-18T09:30:20Z</time>
<desc><![CDATA[lat.=36.758553, lon.=137.758573, Alt.=2977.612357m. Speed=0.000000m/h.]]></desc>
</trkpt>
<trkpt lat="36.758560" lon="137.758573">
<ele>2978.210801</ele>
<time>2014-08-18T09:30:30Z</time>
<desc><![CDATA[lat.=36.758560, lon.=137.758573, Alt.=2978.210801m. Speed=0.000000m/h.]]></desc>
</trkpt>
<trkpt lat="36.758557" lon="137.758564">
<ele>2978.749389</ele>
<time>2014-08-18T09:30:49Z</time>
<desc><![CDATA[lat.=36.758557, lon.=137.758564, Alt.=2978.749389m. Speed=0.000000m/h.]]></desc>
</trkpt>
<trkpt lat="36.758561" lon="137.758557">
<ele>2978.156272</ele>
<time>2014-08-18T09:30:55Z</time>
<desc><![CDATA[lat.=36.758561, lon.=137.758557, Alt.=2978.156272m. Speed=0.000000m/h.]]></desc>
</trkpt>
<trkpt lat="36.758553" lon="137.758557">
<ele>2977.557828</ele>
<time>2014-08-18T09:31:00Z</time>
<desc><![CDATA[lat.=36.758553, lon.=137.758557, Alt.=2977.557828m. Speed=0.000000m/h.]]></desc>
</trkpt>
<trkpt lat="36.758538" lon="137.758556">
<ele>2978.091088</ele>
<time>2014-08-18T09:31:05Z</time>
<desc><![CDATA[lat.=36.758538, lon.=137.758556, Alt.=2978.091088m. Speed=0.000000m/h.]]></desc>
</trkpt>
<trkpt lat="36.758546" lon="137.758556">
<ele>2978.689532</ele>
<time>2014-08-18T09:31:10Z</time>
<desc><![CDATA[lat.=36.758546, lon.=137.758556, Alt.=2978.689532m. Speed=0.000000m/h.]]></desc>
</trkpt>
<trkpt lat="36.758545" lon="137.758555">
<ele>2980.419681</ele>
<time>2014-08-18T09:31:15Z</time>
<desc><![CDATA[lat.=36.758545, lon.=137.758555, Alt.=2980.419681m. Speed=0.000000m/h.]]></desc>
</trkpt>
<trkpt lat="36.758549" lon="137.758548">
<ele>2979.826564</ele>
<time>2014-08-18T09:31:34Z</time>
<desc><![CDATA[lat.=36.758549, lon.=137.758548, Alt.=2979.826564m. Speed=1.000000m/h.]]></desc>
</trkpt>
<trkpt lat="36.758532" lon="137.758525">
<ele>2977.383587</ele>
<time>2014-08-18T09:31:39Z</time>
<desc><![CDATA[lat.=36.758532, lon.=137.758525, Alt.=2977.383587m. Speed=1.000000m/h.]]></desc>
</trkpt>
<trkpt lat="36.758525" lon="137.758509">
<ele>2976.730615</ele>
<time>2014-08-18T09:31:44Z</time>
<desc><![CDATA[lat.=36.758525, lon.=137.758509, Alt.=2976.730615m. Speed=0.000000m/h.]]></desc>
</trkpt>
<trkpt lat="36.758522" lon="137.758501">
<ele>2975.539054</ele>
<time>2014-08-18T09:31:49Z</time>
<desc><![CDATA[lat.=36.758522, lon.=137.758501, Alt.=2975.539054m. Speed=0.000000m/h.]]></desc>
</trkpt>
<trkpt lat="36.758515" lon="137.758501">
<ele>2974.940611</ele>
<time>2014-08-18T09:31:54Z</time>
<desc><![CDATA[lat.=36.758515, lon.=137.758501, Alt.=2974.940611m. Speed=0.000000m/h.]]></desc>
</trkpt>
<trkpt lat="36.758519" lon="137.758494">
<ele>2974.347494</ele>
<time>2014-08-18T09:31:59Z</time>
<desc><![CDATA[lat.=36.758519, lon.=137.758494, Alt.=2974.347494m. Speed=0.000000m/h.]]></desc>
</trkpt>
<trkpt lat="36.758540" lon="137.758542">
<ele>2974.576261</ele>
<time>2014-08-18T09:32:04Z</time>
<desc><![CDATA[lat.=36.758540, lon.=137.758542, Alt.=2974.576261m. Speed=1.000000m/h.]]></desc>
</trkpt>
<trkpt lat="36.758565" lon="137.758551">
<ele>2974.102857</ele>
<time>2014-08-18T09:32:09Z</time>
<desc><![CDATA[lat.=36.758565, lon.=137.758551, Alt.=2974.102857m. Speed=2.000000m/h.]]></desc>
</trkpt>
<trkpt lat="36.758591" lon="137.758543">
<ele>2975.305074</ele>
<time>2014-08-18T09:32:14Z</time>
<desc><![CDATA[lat.=36.758591, lon.=137.758543, Alt.=2975.305074m. Speed=1.000000m/h.]]></desc>
</trkpt>
<trkpt lat="36.758595" lon="137.758535">
<ele>2976.442107</ele>
<time>2014-08-18T09:32:19Z</time>
<desc><![CDATA[lat.=36.758595, lon.=137.758535, Alt.=2976.442107m. Speed=0.000000m/h.]]></desc>
</trkpt>
<trkpt lat="36.758598" lon="137.758527">
<ele>2977.579139</ele>
<time>2014-08-18T09:32:24Z</time>
<desc><![CDATA[lat.=36.758598, lon.=137.758527, Alt.=2977.579139m. Speed=0.000000m/h.]]></desc>
</trkpt>
<trkpt lat="36.758605" lon="137.758527">
<ele>2978.177584</ele>
<time>2014-08-18T09:32:29Z</time>
<desc><![CDATA[lat.=36.758605, lon.=137.758527, Alt.=2978.177584m. Speed=0.000000m/h.]]></desc>
</trkpt>
<trkpt lat="36.758613" lon="137.758527">
<ele>2978.776029</ele>
<time>2014-08-18T09:32:34Z</time>
<desc><![CDATA[lat.=36.758613, lon.=137.758527, Alt.=2978.776029m. Speed=0.000000m/h.]]></desc>
</trkpt>
<trkpt lat="36.758602" lon="137.758519">
<ele>2978.716172</ele>
<time>2014-08-18T09:32:39Z</time>
<desc><![CDATA[lat.=36.758602, lon.=137.758519, Alt.=2978.716172m. Speed=0.000000m/h.]]></desc>
</trkpt>
<trkpt lat="36.758591" lon="137.758510">
<ele>2978.656315</ele>
<time>2014-08-18T09:32:44Z</time>
<desc><![CDATA[lat.=36.758591, lon.=137.758510, Alt.=2978.656315m. Speed=0.000000m/h.]]></desc>
</trkpt>
<trkpt lat="36.758584" lon="137.758510">
<ele>2978.057870</ele>
<time>2014-08-18T09:33:02Z</time>
<desc><![CDATA[lat.=36.758584, lon.=137.758510, Alt.=2978.057870m. Speed=0.000000m/h.]]></desc>
</trkpt>
<trkpt lat="36.758591" lon="137.758510">
<ele>2978.656315</ele>
<time>2014-08-18T09:33:13Z</time>
<desc><![CDATA[lat.=36.758591, lon.=137.758510, Alt.=2978.656315m. Speed=0.000000m/h.]]></desc>
</trkpt>
<trkpt lat="36.758584" lon="137.758510">
<ele>2978.057870</ele>
<time>2014-08-18T09:33:28Z</time>
<desc><![CDATA[lat.=36.758584, lon.=137.758510, Alt.=2978.057870m. Speed=0.000000m/h.]]></desc>
</trkpt>
<trkpt lat="36.758565" lon="137.758518">
<ele>2977.454098</ele>
<time>2014-08-18T09:33:33Z</time>
<desc><![CDATA[lat.=36.758565, lon.=137.758518, Alt.=2977.454098m. Speed=1.000000m/h.]]></desc>
</trkpt>
<trkpt lat="36.758554" lon="137.758526">
<ele>2975.718621</ele>
<time>2014-08-18T09:33:38Z</time>
<desc><![CDATA[lat.=36.758554, lon.=137.758526, Alt.=2975.718621m. Speed=0.000000m/h.]]></desc>
</trkpt>
<trkpt lat="36.758558" lon="137.758534">
<ele>2975.180033</ele>
<time>2014-08-18T09:33:43Z</time>
<desc><![CDATA[lat.=36.758558, lon.=137.758534, Alt.=2975.180033m. Speed=0.000000m/h.]]></desc>
</trkpt>
<trkpt lat="36.758558" lon="137.758551">
<ele>2973.504413</ele>
<time>2014-08-18T09:33:48Z</time>
<desc><![CDATA[lat.=36.758558, lon.=137.758551, Alt.=2973.504413m. Speed=0.000000m/h.]]></desc>
</trkpt>
<trkpt lat="36.758551" lon="137.758567">
<ele>2972.960498</ele>
<time>2014-08-18T09:33:53Z</time>
<desc><![CDATA[lat.=36.758551, lon.=137.758567, Alt.=2972.960498m. Speed=0.000000m/h.]]></desc>
</trkpt>
<trkpt lat="36.758547" lon="137.758574">
<ele>2973.553615</ele>
<time>2014-08-18T09:34:10Z</time>
<desc><![CDATA[lat.=36.758547, lon.=137.758574, Alt.=2973.553615m. Speed=0.000000m/h.]]></desc>
</trkpt>
<trkpt lat="36.758551" lon="137.758567">
<ele>2972.960498</ele>
<time>2014-08-18T09:34:15Z</time>
<desc><![CDATA[lat.=36.758551, lon.=137.758567, Alt.=2972.960498m. Speed=0.000000m/h.]]></desc>
</trkpt>
<trkpt lat="36.758555" lon="137.758559">
<ele>2972.367381</ele>
<time>2014-08-18T09:34:24Z</time>
<desc><![CDATA[lat.=36.758555, lon.=137.758559, Alt.=2972.367381m. Speed=0.000000m/h.]]></desc>
</trkpt>
<trkpt lat="36.758569" lon="137.758559">
<ele>2973.564269</ele>
<time>2014-08-18T09:34:29Z</time>
<desc><![CDATA[lat.=36.758569, lon.=137.758559, Alt.=2973.564269m. Speed=1.000000m/h.]]></desc>
</trkpt>
<trkpt lat="36.758573" lon="137.758551">
<ele>2974.701302</ele>
<time>2014-08-18T09:34:34Z</time>
<desc><![CDATA[lat.=36.758573, lon.=137.758551, Alt.=2974.701302m. Speed=0.000000m/h.]]></desc>
</trkpt>
<trkpt lat="36.758569" lon="137.758543">
<ele>2973.509740</ele>
<time>2014-08-18T09:34:39Z</time>
<desc><![CDATA[lat.=36.758569, lon.=137.758543, Alt.=2973.509740m. Speed=0.000000m/h.]]></desc>
</trkpt>
<trkpt lat="36.758573" lon="137.758551">
<ele>2974.701302</ele>
<time>2014-08-18T09:34:44Z</time>
<desc><![CDATA[lat.=36.758573, lon.=137.758551, Alt.=2974.701302m. Speed=0.000000m/h.]]></desc>
</trkpt>
<trkpt lat="36.758580" lon="137.758551">
<ele>2975.299746</ele>
<time>2014-08-18T09:34:49Z</time>
<desc><![CDATA[lat.=36.758580, lon.=137.758551, Alt.=2975.299746m. Speed=0.000000m/h.]]></desc>
</trkpt>
<trkpt lat="36.758587" lon="137.758551">
<ele>2975.898191</ele>
<time>2014-08-18T09:34:54Z</time>
<desc><![CDATA[lat.=36.758587, lon.=137.758551, Alt.=2975.898191m. Speed=0.000000m/h.]]></desc>
</trkpt>
<trkpt lat="36.758591" lon="137.758543">
<ele>2977.035223</ele>
<time>2014-08-18T09:34:59Z</time>
<desc><![CDATA[lat.=36.758591, lon.=137.758543, Alt.=2977.035223m. Speed=0.000000m/h.]]></desc>
</trkpt>
<trkpt lat="36.758594" lon="137.758550">
<ele>2978.226784</ele>
<time>2014-08-18T09:35:21Z</time>
<desc><![CDATA[lat.=36.758594, lon.=137.758550, Alt.=2978.226784m. Speed=0.000000m/h.]]></desc>
</trkpt>
<trkpt lat="36.758587" lon="137.758550">
<ele>2977.628340</ele>
<time>2014-08-18T09:35:26Z</time>
<desc><![CDATA[lat.=36.758587, lon.=137.758550, Alt.=2977.628340m. Speed=0.000000m/h.]]></desc>
</trkpt>
<trkpt lat="36.758565" lon="137.758549">
<ele>2977.563155</ele>
<time>2014-08-18T09:35:31Z</time>
<desc><![CDATA[lat.=36.758565, lon.=137.758549, Alt.=2977.563155m. Speed=1.000000m/h.]]></desc>
</trkpt>
<trkpt lat="36.758529" lon="137.758501">
<ele>2976.137498</ele>
<time>2014-08-18T09:35:36Z</time>
<desc><![CDATA[lat.=36.758529, lon.=137.758501, Alt.=2976.137498m. Speed=3.000000m/h.]]></desc>
</trkpt>
<trkpt lat="36.758487" lon="137.758453">
<ele>2974.113403</ele>
<time>2014-08-18T09:35:41Z</time>
<desc><![CDATA[lat.=36.758487, lon.=137.758453, Alt.=2974.113403m. Speed=3.000000m/h.]]></desc>
</trkpt>
<trkpt lat="36.758415" lon="137.758421">
<ele>2969.750071</ele>
<time>2014-08-18T09:35:46Z</time>
<desc><![CDATA[lat.=36.758415, lon.=137.758421, Alt.=2969.750071m. Speed=4.000000m/h.]]></desc>
</trkpt>
<trkpt lat="36.758357" lon="137.758404">
<ele>2966.638159</ele>
<time>2014-08-18T09:35:51Z</time>
<desc><![CDATA[lat.=36.758357, lon.=137.758404, Alt.=2966.638159m. Speed=4.000000m/h.]]></desc>
</trkpt>
<trkpt lat="36.758287" lon="137.758393">
<ele>2966.981229</ele>
<time>2014-08-18T09:35:56Z</time>
<desc><![CDATA[lat.=36.758287, lon.=137.758393, Alt.=2966.981229m. Speed=4.000000m/h.]]></desc>
</trkpt>
<trkpt lat="36.758243" lon="137.758375">
<ele>2968.526510</ele>
<time>2014-08-18T09:36:01Z</time>
<desc><![CDATA[lat.=36.758243, lon.=137.758375, Alt.=2968.526510m. Speed=4.000000m/h.]]></desc>
</trkpt>
<trkpt lat="36.758225" lon="137.758366">
<ele>2969.598372</ele>
<time>2014-08-18T09:36:06Z</time>
<desc><![CDATA[lat.=36.758225, lon.=137.758366, Alt.=2969.598372m. Speed=3.000000m/h.]]></desc>
</trkpt>
<trkpt lat="36.758231" lon="137.758381">
<ele>2973.711636</ele>
<time>2014-08-18T09:36:11Z</time>
<desc><![CDATA[lat.=36.758231, lon.=137.758381, Alt.=2973.711636m. Speed=2.000000m/h.]]></desc>
</trkpt>
<trkpt lat="36.758209" lon="137.758364">
<ele>2973.591941</ele>
<time>2014-08-18T09:36:16Z</time>
<desc><![CDATA[lat.=36.758209, lon.=137.758364, Alt.=2973.591941m. Speed=2.000000m/h.]]></desc>
</trkpt>
<trkpt lat="36.758213" lon="137.758356">
<ele>2974.728973</ele>
<time>2014-08-18T09:36:21Z</time>
<desc><![CDATA[lat.=36.758213, lon.=137.758356, Alt.=2974.728973m. Speed=1.000000m/h.]]></desc>
</trkpt>
<trkpt lat="36.758220" lon="137.758372">
<ele>2973.651789</ele>
<time>2014-08-18T09:36:26Z</time>
<desc><![CDATA[lat.=36.758220, lon.=137.758372, Alt.=2973.651789m. Speed=0.000000m/h.]]></desc>
</trkpt>
<trkpt lat="36.758223" lon="137.758380">
<ele>2974.843346</ele>
<time>2014-08-18T09:36:31Z</time>
<desc><![CDATA[lat.=36.758223, lon.=137.758380, Alt.=2974.843346m. Speed=0.000000m/h.]]></desc>
</trkpt>
<trkpt lat="36.758215" lon="137.758379">
<ele>2975.975056</ele>
<time>2014-08-18T09:36:37Z</time>
<desc><![CDATA[lat.=36.758215, lon.=137.758379, Alt.=2975.975056m. Speed=1.000000m/h.]]></desc>
</trkpt>
<trkpt lat="36.758212" lon="137.758387">
<ele>2974.838024</ele>
<time>2014-08-18T09:36:42Z</time>
<desc><![CDATA[lat.=36.758212, lon.=137.758387, Alt.=2974.838024m. Speed=0.000000m/h.]]></desc>
</trkpt>
<trkpt lat="36.758205" lon="137.758387">
<ele>2974.239585</ele>
<time>2014-08-18T09:36:47Z</time>
<desc><![CDATA[lat.=36.758205, lon.=137.758387, Alt.=2974.239585m. Speed=0.000000m/h.]]></desc>
</trkpt>
<trkpt lat="36.758209" lon="137.758364">
<ele>2973.591941</ele>
<time>2014-08-18T09:36:52Z</time>
<desc><![CDATA[lat.=36.758209, lon.=137.758364, Alt.=2973.591941m. Speed=1.000000m/h.]]></desc>
</trkpt>
<trkpt lat="36.758213" lon="137.758356">
<ele>2972.998824</ele>
<time>2014-08-18T09:36:57Z</time>
<desc><![CDATA[lat.=36.758213, lon.=137.758356, Alt.=2972.998824m. Speed=0.000000m/h.]]></desc>
</trkpt>
<trkpt lat="36.758217" lon="137.758349">
<ele>2972.405706</ele>
<time>2014-08-18T09:37:02Z</time>
<desc><![CDATA[lat.=36.758217, lon.=137.758349, Alt.=2972.405706m. Speed=0.000000m/h.]]></desc>
</trkpt>
<trkpt lat="36.758221" lon="137.758341">
<ele>2971.812588</ele>
<time>2014-08-18T09:37:07Z</time>
<desc><![CDATA[lat.=36.758221, lon.=137.758341, Alt.=2971.812588m. Speed=0.000000m/h.]]></desc>
</trkpt>
<trkpt lat="36.758214" lon="137.758341">
<ele>2971.214149</ele>
<time>2014-08-18T09:37:12Z</time>
<desc><![CDATA[lat.=36.758214, lon.=137.758341, Alt.=2971.214149m. Speed=0.000000m/h.]]></desc>
</trkpt>
<trkpt lat="36.758221" lon="137.758341">
<ele>2971.812588</ele>
<time>2014-08-18T09:37:17Z</time>
<desc><![CDATA[lat.=36.758221, lon.=137.758341, Alt.=2971.812588m. Speed=0.000000m/h.]]></desc>
</trkpt>
<trkpt lat="36.758210" lon="137.758333">
<ele>2971.752741</ele>
<time>2014-08-18T09:37:22Z</time>
<desc><![CDATA[lat.=36.758210, lon.=137.758333, Alt.=2971.752741m. Speed=0.000000m/h.]]></desc>
</trkpt>
<trkpt lat="36.758217" lon="137.758333">
<ele>2972.351181</ele>
<time>2014-08-18T09:37:27Z</time>
<desc><![CDATA[lat.=36.758217, lon.=137.758333, Alt.=2972.351181m. Speed=0.000000m/h.]]></desc>
</trkpt>
<trkpt lat="36.758210" lon="137.758333">
<ele>2971.752741</ele>
<time>2014-08-18T09:37:32Z</time>
<desc><![CDATA[lat.=36.758210, lon.=137.758333, Alt.=2971.752741m. Speed=0.000000m/h.]]></desc>
</trkpt>
<trkpt lat="36.758217" lon="137.758332">
<ele>2974.081330</ele>
<time>2014-08-18T09:37:37Z</time>
<desc><![CDATA[lat.=36.758217, lon.=137.758332, Alt.=2974.081330m. Speed=0.000000m/h.]]></desc>
</trkpt>
<trkpt lat="36.758221" lon="137.758325">
<ele>2973.488213</ele>
<time>2014-08-18T09:37:42Z</time>
<desc><![CDATA[lat.=36.758221, lon.=137.758325, Alt.=2973.488213m. Speed=0.000000m/h.]]></desc>
</trkpt>
<trkpt lat="36.758228" lon="137.758324">
<ele>2975.816802</ele>
<time>2014-08-18T09:37:47Z</time>
<desc><![CDATA[lat.=36.758228, lon.=137.758324, Alt.=2975.816802m. Speed=0.000000m/h.]]></desc>
</trkpt>
<trkpt lat="36.758235" lon="137.758324">
<ele>2976.415242</ele>
<time>2014-08-18T09:37:52Z</time>
<desc><![CDATA[lat.=36.758235, lon.=137.758324, Alt.=2976.415242m. Speed=0.000000m/h.]]></desc>
</trkpt>
<trkpt lat="36.758224" lon="137.758332">
<ele>2976.409919</ele>
<time>2014-08-18T09:38:03Z</time>
<desc><![CDATA[lat.=36.758224, lon.=137.758332, Alt.=2976.409919m. Speed=1.000000m/h.]]></desc>
</trkpt>
<trkpt lat="36.758217" lon="137.758332">
<ele>2975.811480</ele>
<time>2014-08-18T09:38:08Z</time>
<desc><![CDATA[lat.=36.758217, lon.=137.758332, Alt.=2975.811480m. Speed=0.000000m/h.]]></desc>
</trkpt>
<trkpt lat="36.758219" lon="137.758338">
<ele>2978.733186</ele>
<time>2014-08-18T09:38:13Z</time>
<desc><![CDATA[lat.=36.758219, lon.=137.758338, Alt.=2978.733186m. Speed=0.000000m/h.]]></desc>
</trkpt>
<trkpt lat="36.758227" lon="137.758338">
<ele>2979.331626</ele>
<time>2014-08-18T09:38:18Z</time>
<desc><![CDATA[lat.=36.758227, lon.=137.758338, Alt.=2979.331626m. Speed=0.000000m/h.]]></desc>
</trkpt>
<trkpt lat="36.758215" lon="137.758346">
<ele>2979.326304</ele>
<time>2014-08-18T09:38:23Z</time>
<desc><![CDATA[lat.=36.758215, lon.=137.758346, Alt.=2979.326304m. Speed=0.000000m/h.]]></desc>
</trkpt>
<trkpt lat="36.758219" lon="137.758354">
<ele>2978.787711</ele>
<time>2014-08-18T09:38:29Z</time>
<desc><![CDATA[lat.=36.758219, lon.=137.758354, Alt.=2978.787711m. Speed=0.000000m/h.]]></desc>
</trkpt>
<trkpt lat="36.758216" lon="137.758347">
<ele>2977.596154</ele>
<time>2014-08-18T09:38:34Z</time>
<desc><![CDATA[lat.=36.758216, lon.=137.758347, Alt.=2977.596154m. Speed=0.000000m/h.]]></desc>
</trkpt>
<trkpt lat="36.758205" lon="137.758355">
<ele>2975.860683</ele>
<time>2014-08-18T09:38:39Z</time>
<desc><![CDATA[lat.=36.758205, lon.=137.758355, Alt.=2975.860683m. Speed=0.000000m/h.]]></desc>
</trkpt>
<trkpt lat="36.758212" lon="137.758355">
<ele>2976.459122</ele>
<time>2014-08-18T09:38:51Z</time>
<desc><![CDATA[lat.=36.758212, lon.=137.758355, Alt.=2976.459122m. Speed=0.000000m/h.]]></desc>
</trkpt>
<trkpt lat="36.758205" lon="137.758355">
<ele>2975.860683</ele>
<time>2014-08-18T09:38:56Z</time>
<desc><![CDATA[lat.=36.758205, lon.=137.758355, Alt.=2975.860683m. Speed=0.000000m/h.]]></desc>
</trkpt>
<trkpt lat="36.758209" lon="137.758347">
<ele>2975.267565</ele>
<time>2014-08-18T09:39:06Z</time>
<desc><![CDATA[lat.=36.758209, lon.=137.758347, Alt.=2975.267565m. Speed=0.000000m/h.]]></desc>
</trkpt>
<trkpt lat="36.758205" lon="137.758339">
<ele>2975.806158</ele>
<time>2014-08-18T09:39:14Z</time>
<desc><![CDATA[lat.=36.758205, lon.=137.758339, Alt.=2975.806158m. Speed=0.000000m/h.]]></desc>
</trkpt>
<trkpt lat="36.758183" lon="137.758338">
<ele>2975.740990</ele>
<time>2014-08-18T09:39:19Z</time>
<desc><![CDATA[lat.=36.758183, lon.=137.758338, Alt.=2975.740990m. Speed=2.000000m/h.]]></desc>
</trkpt>
<trkpt lat="36.758165" lon="137.758329">
<ele>2976.812854</ele>
<time>2014-08-18T09:39:24Z</time>
<desc><![CDATA[lat.=36.758165, lon.=137.758329, Alt.=2976.812854m. Speed=2.000000m/h.]]></desc>
</trkpt>
<trkpt lat="36.758154" lon="137.758320">
<ele>2978.483158</ele>
<time>2014-08-18T09:39:29Z</time>
<desc><![CDATA[lat.=36.758154, lon.=137.758320, Alt.=2978.483158m. Speed=2.000000m/h.]]></desc>
</trkpt>
<trkpt lat="36.758143" lon="137.758329">
<ele>2976.747688</ele>
<time>2014-08-18T09:39:34Z</time>
<desc><![CDATA[lat.=36.758143, lon.=137.758329, Alt.=2976.747688m. Speed=0.000000m/h.]]></desc>
</trkpt>
<trkpt lat="36.758135" lon="137.758344">
<ele>2976.203774</ele>
<time>2014-08-18T09:39:39Z</time>
<desc><![CDATA[lat.=36.758135, lon.=137.758344, Alt.=2976.203774m. Speed=0.000000m/h.]]></desc>
</trkpt>
<trkpt lat="36.758132" lon="137.758337">
<ele>2975.012218</ele>
<time>2014-08-18T09:39:44Z</time>
<desc><![CDATA[lat.=36.758132, lon.=137.758337, Alt.=2975.012218m. Speed=0.000000m/h.]]></desc>
</trkpt>
<trkpt lat="36.758138" lon="137.758352">
<ele>2977.395331</ele>
<time>2014-08-18T09:39:49Z</time>
<desc><![CDATA[lat.=36.758138, lon.=137.758352, Alt.=2977.395331m. Speed=0.000000m/h.]]></desc>
</trkpt>
<trkpt lat="36.758135" lon="137.758344">
<ele>2976.203774</ele>
<time>2014-08-18T09:39:54Z</time>
<desc><![CDATA[lat.=36.758135, lon.=137.758344, Alt.=2976.203774m. Speed=0.000000m/h.]]></desc>
</trkpt>
<trkpt lat="36.758128" lon="137.758344">
<ele>2975.605336</ele>
<time>2014-08-18T09:40:03Z</time>
<desc><![CDATA[lat.=36.758128, lon.=137.758344, Alt.=2975.605336m. Speed=0.000000m/h.]]></desc>
</trkpt>
<trkpt lat="36.758132" lon="137.758353">
<ele>2975.066743</ele>
<time>2014-08-18T09:40:08Z</time>
<desc><![CDATA[lat.=36.758132, lon.=137.758353, Alt.=2975.066743m. Speed=0.000000m/h.]]></desc>
</trkpt>
<trkpt lat="36.758136" lon="137.758345">
<ele>2974.473625</ele>
<time>2014-08-18T09:40:13Z</time>
<desc><![CDATA[lat.=36.758136, lon.=137.758345, Alt.=2974.473625m. Speed=0.000000m/h.]]></desc>
</trkpt>
<trkpt lat="36.758132" lon="137.758353">
<ele>2975.066743</ele>
<time>2014-08-18T09:40:22Z</time>
<desc><![CDATA[lat.=36.758132, lon.=137.758353, Alt.=2975.066743m. Speed=0.000000m/h.]]></desc>
</trkpt>
<trkpt lat="36.758142" lon="137.758344">
<ele>2976.802213</ele>
<time>2014-08-18T09:40:27Z</time>
<desc><![CDATA[lat.=36.758142, lon.=137.758344, Alt.=2976.802213m. Speed=0.000000m/h.]]></desc>
</trkpt>
<trkpt lat="36.758135" lon="137.758344">
<ele>2976.203774</ele>
<time>2014-08-18T09:40:32Z</time>
<desc><![CDATA[lat.=36.758135, lon.=137.758344, Alt.=2976.203774m. Speed=0.000000m/h.]]></desc>
</trkpt>
<trkpt lat="36.758150" lon="137.758344">
<ele>2977.400651</ele>
<time>2014-08-18T09:40:37Z</time>
<desc><![CDATA[lat.=36.758150, lon.=137.758344, Alt.=2977.400651m. Speed=0.000000m/h.]]></desc>
</trkpt>
<trkpt lat="36.758154" lon="137.758337">
<ele>2976.807533</ele>
<time>2014-08-18T09:40:43Z</time>
<desc><![CDATA[lat.=36.758154, lon.=137.758337, Alt.=2976.807533m. Speed=0.000000m/h.]]></desc>
</trkpt>
<trkpt lat="36.758154" lon="137.758322">
<ele>2975.022859</ele>
<time>2014-08-18T09:40:48Z</time>
<desc><![CDATA[lat.=36.758154, lon.=137.758322, Alt.=2975.022859m. Speed=0.000000m/h.]]></desc>
</trkpt>
<trkpt lat="36.758152" lon="137.758315">
<ele>2972.101153</ele>
<time>2014-08-18T09:40:53Z</time>
<desc><![CDATA[lat.=36.758152, lon.=137.758315, Alt.=2972.101153m. Speed=1.000000m/h.]]></desc>
</trkpt>
<trkpt lat="36.758187" lon="137.758330">
<ele>2976.878021</ele>
<time>2014-08-18T09:40:58Z</time>
<desc><![CDATA[lat.=36.758187, lon.=137.758330, Alt.=2976.878021m. Speed=0.000000m/h.]]></desc>
</trkpt>
<trkpt lat="36.758154" lon="137.758305">
<ele>2976.698484</ele>
<time>2014-08-18T09:41:03Z</time>
<desc><![CDATA[lat.=36.758154, lon.=137.758305, Alt.=2976.698484m. Speed=2.000000m/h.]]></desc>
</trkpt>
<trkpt lat="36.758129" lon="137.758298">
<ele>2973.711612</ele>
<time>2014-08-18T09:41:08Z</time>
<desc><![CDATA[lat.=36.758129, lon.=137.758298, Alt.=2973.711612m. Speed=0.000000m/h.]]></desc>
</trkpt>
<trkpt lat="36.758129" lon="137.758313">
<ele>2975.496286</ele>
<time>2014-08-18T09:41:13Z</time>
<desc><![CDATA[lat.=36.758129, lon.=137.758313, Alt.=2975.496286m. Speed=0.000000m/h.]]></desc>
</trkpt>
<trkpt lat="36.758126" lon="137.758305">
<ele>2974.304730</ele>
<time>2014-08-18T09:41:18Z</time>
<desc><![CDATA[lat.=36.758126, lon.=137.758305, Alt.=2974.304730m. Speed=0.000000m/h.]]></desc>
</trkpt>
<trkpt lat="36.758122" lon="137.758314">
<ele>2973.167699</ele>
<time>2014-08-18T09:41:23Z</time>
<desc><![CDATA[lat.=36.758122, lon.=137.758314, Alt.=2973.167699m. Speed=0.000000m/h.]]></desc>
</trkpt>
<trkpt lat="36.758126" lon="137.758306">
<ele>2972.574581</ele>
<time>2014-08-18T09:41:28Z</time>
<desc><![CDATA[lat.=36.758126, lon.=137.758306, Alt.=2972.574581m. Speed=0.000000m/h.]]></desc>
</trkpt>
<trkpt lat="36.758122" lon="137.758314">
<ele>2973.167699</ele>
<time>2014-08-18T09:41:33Z</time>
<desc><![CDATA[lat.=36.758122, lon.=137.758314, Alt.=2973.167699m. Speed=0.000000m/h.]]></desc>
</trkpt>
<trkpt lat="36.758111" lon="137.758305">
<ele>2973.107854</ele>
<time>2014-08-18T09:41:38Z</time>
<desc><![CDATA[lat.=36.758111, lon.=137.758305, Alt.=2973.107854m. Speed=0.000000m/h.]]></desc>
</trkpt>
<trkpt lat="36.758115" lon="137.758314">
<ele>2972.569260</ele>
<time>2014-08-18T09:41:43Z</time>
<desc><![CDATA[lat.=36.758115, lon.=137.758314, Alt.=2972.569260m. Speed=0.000000m/h.]]></desc>
</trkpt>
<trkpt lat="36.758105" lon="137.758290">
<ele>2970.724742</ele>
<time>2014-08-18T09:41:48Z</time>
<desc><![CDATA[lat.=36.758105, lon.=137.758290, Alt.=2970.724742m. Speed=0.000000m/h.]]></desc>
</trkpt>
<trkpt lat="36.758079" lon="137.758281">
<ele>2971.198172</ele>
<time>2014-08-18T09:41:53Z</time>
<desc><![CDATA[lat.=36.758079, lon.=137.758281, Alt.=2971.198172m. Speed=2.000000m/h.]]></desc>
</trkpt>
<trkpt lat="36.758043" lon="137.758249">
<ele>2969.827088</ele>
<time>2014-08-18T09:41:58Z</time>
<desc><![CDATA[lat.=36.758043, lon.=137.758249, Alt.=2969.827088m. Speed=3.000000m/h.]]></desc>
</trkpt>
<trkpt lat="36.758023" lon="137.758186">
<ele>2967.813686</ele>
<time>2014-08-18T09:42:03Z</time>
<desc><![CDATA[lat.=36.758023, lon.=137.758186, Alt.=2967.813686m. Speed=3.000000m/h.]]></desc>
</trkpt>
<trkpt lat="36.758023" lon="137.758168">
<ele>2971.219464</ele>
<time>2014-08-18T09:42:08Z</time>
<desc><![CDATA[lat.=36.758023, lon.=137.758168, Alt.=2971.219464m. Speed=3.000000m/h.]]></desc>
</trkpt>
<trkpt lat="36.758062" lon="137.758108">
<ele>2967.072965</ele>
<time>2014-08-18T09:42:13Z</time>
<desc><![CDATA[lat.=36.758062, lon.=137.758108, Alt.=2967.072965m. Speed=4.000000m/h.]]></desc>
</trkpt>
<trkpt lat="36.758066" lon="137.758069">
<ele>2966.370809</ele>
<time>2014-08-18T09:42:18Z</time>
<desc><![CDATA[lat.=36.758066, lon.=137.758069, Alt.=2966.370809m. Speed=3.000000m/h.]]></desc>
</trkpt>
<trkpt lat="36.758037" lon="137.758051">
<ele>2967.382840</ele>
<time>2014-08-18T09:42:23Z</time>
<desc><![CDATA[lat.=36.758037, lon.=137.758051, Alt.=2967.382840m. Speed=3.000000m/h.]]></desc>
</trkpt>
<trkpt lat="36.758044" lon="137.758035">
<ele>2969.656907</ele>
<time>2014-08-18T09:42:28Z</time>
<desc><![CDATA[lat.=36.758044, lon.=137.758035, Alt.=2969.656907m. Speed=2.000000m/h.]]></desc>
</trkpt>
<trkpt lat="36.758050" lon="137.758013">
<ele>2965.548973</ele>
<time>2014-08-18T09:42:33Z</time>
<desc><![CDATA[lat.=36.758050, lon.=137.758013, Alt.=2965.548973m. Speed=1.000000m/h.]]></desc>
</trkpt>
<trkpt lat="36.758090" lon="137.757974">
<ele>2967.839008</ele>
<time>2014-08-18T09:42:38Z</time>
<desc><![CDATA[lat.=36.758090, lon.=137.757974, Alt.=2967.839008m. Speed=3.000000m/h.]]></desc>
</trkpt>
<trkpt lat="36.758085" lon="137.757911">
<ele>2967.022501</ele>
<time>2014-08-18T09:42:43Z</time>
<desc><![CDATA[lat.=36.758085, lon.=137.757911, Alt.=2967.022501m. Speed=3.000000m/h.]]></desc>
</trkpt>
<trkpt lat="36.758077" lon="137.757911">
<ele>2966.424064</ele>
<time>2014-08-18T09:42:48Z</time>
<desc><![CDATA[lat.=36.758077, lon.=137.757911, Alt.=2966.424064m. Speed=0.000000m/h.]]></desc>
</trkpt>
<trkpt lat="36.758056" lon="137.757927">
<ele>2962.953119</ele>
<time>2014-08-18T09:42:53Z</time>
<desc><![CDATA[lat.=36.758056, lon.=137.757927, Alt.=2962.953119m. Speed=0.000000m/h.]]></desc>
</trkpt>
<trkpt lat="36.758052" lon="137.757936">
<ele>2961.816083</ele>
<time>2014-08-18T09:42:58Z</time>
<desc><![CDATA[lat.=36.758052, lon.=137.757936, Alt.=2961.816083m. Speed=1.000000m/h.]]></desc>
</trkpt>
<trkpt lat="36.758015" lon="137.757933">
<ele>2964.014349</ele>
<time>2014-08-18T09:43:03Z</time>
<desc><![CDATA[lat.=36.758015, lon.=137.757933, Alt.=2964.014349m. Speed=3.000000m/h.]]></desc>
</trkpt>
<trkpt lat="36.757957" lon="137.757884">
<ele>2962.523608</ele>
<time>2014-08-18T09:43:08Z</time>
<desc><![CDATA[lat.=36.757957, lon.=137.757884, Alt.=2962.523608m. Speed=4.000000m/h.]]></desc>
</trkpt>
<trkpt lat="36.757882" lon="137.757843">
<ele>2960.429123</ele>
<time>2014-08-18T09:43:13Z</time>
<desc><![CDATA[lat.=36.757882, lon.=137.757843, Alt.=2960.429123m. Speed=5.000000m/h.]]></desc>
</trkpt>
<trkpt lat="36.757860" lon="137.757827">
<ele>2958.579304</ele>
<time>2014-08-18T09:43:18Z</time>
<desc><![CDATA[lat.=36.757860, lon.=137.757827, Alt.=2958.579304m. Speed=4.000000m/h.]]></desc>
</trkpt>
<trkpt lat="36.757839" lon="137.757779">
<ele>2958.350607</ele>
<time>2014-08-18T09:43:23Z</time>
<desc><![CDATA[lat.=36.757839, lon.=137.757779, Alt.=2958.350607m. Speed=4.000000m/h.]]></desc>
</trkpt>
<trkpt lat="36.757793" lon="137.757738">
<ele>2956.919727</ele>
<time>2014-08-18T09:43:28Z</time>
<desc><![CDATA[lat.=36.757793, lon.=137.757738, Alt.=2956.919727m. Speed=3.000000m/h.]]></desc>
</trkpt>
<trkpt lat="36.757804" lon="137.757731">
<ele>2956.925046</ele>
<time>2014-08-18T09:43:33Z</time>
<desc><![CDATA[lat.=36.757804, lon.=137.757731, Alt.=2956.925046m. Speed=1.000000m/h.]]></desc>
</trkpt>
<trkpt lat="36.757786" lon="137.757706">
<ele>2957.942418</ele>
<time>2014-08-18T09:43:38Z</time>
<desc><![CDATA[lat.=36.757786, lon.=137.757706, Alt.=2957.942418m. Speed=2.000000m/h.]]></desc>
</trkpt>
<trkpt lat="36.757721" lon="137.757689">
<ele>2954.232158</ele>
<time>2014-08-18T09:43:43Z</time>
<desc><![CDATA[lat.=36.757721, lon.=137.757689, Alt.=2954.232158m. Speed=4.000000m/h.]]></desc>
</trkpt>
<trkpt lat="36.757660" lon="137.757665">
<ele>2949.928792</ele>
<time>2014-08-18T09:43:48Z</time>
<desc><![CDATA[lat.=36.757660, lon.=137.757665, Alt.=2949.928792m. Speed=4.000000m/h.]]></desc>
</trkpt>
<trkpt lat="36.757625" lon="137.757601">
<ele>2948.448739</ele>
<time>2014-08-18T09:43:53Z</time>
<desc><![CDATA[lat.=36.757625, lon.=137.757601, Alt.=2948.448739m. Speed=4.000000m/h.]]></desc>
</trkpt>
<trkpt lat="36.757578" lon="137.757609">
<ele>2943.721118</ele>
<time>2014-08-18T09:43:58Z</time>
<desc><![CDATA[lat.=36.757578, lon.=137.757609, Alt.=2943.721118m. Speed=4.000000m/h.]]></desc>
</trkpt>
<trkpt lat="36.757549" lon="137.757642">
<ele>2939.706269</ele>
<time>2014-08-18T09:44:03Z</time>
<desc><![CDATA[lat.=36.757549, lon.=137.757642, Alt.=2939.706269m. Speed=3.000000m/h.]]></desc>
</trkpt>
<trkpt lat="36.757519" lon="137.757657">
<ele>2939.097212</ele>
<time>2014-08-18T09:44:08Z</time>
<desc><![CDATA[lat.=36.757519, lon.=137.757657, Alt.=2939.097212m. Speed=3.000000m/h.]]></desc>
</trkpt>
<trkpt lat="36.757534" lon="137.757657">
<ele>2940.294071</ele>
<time>2014-08-18T09:44:13Z</time>
<desc><![CDATA[lat.=36.757534, lon.=137.757657, Alt.=2940.294071m. Speed=0.000000m/h.]]></desc>
</trkpt>
<trkpt lat="36.757498" lon="137.757625">
<ele>2937.192899</ele>
<time>2014-08-18T09:44:18Z</time>
<desc><![CDATA[lat.=36.757498, lon.=137.757625, Alt.=2937.192899m. Speed=3.000000m/h.]]></desc>
</trkpt>
<trkpt lat="36.757449" lon="137.757594">
<ele>2932.894873</ele>
<time>2014-08-18T09:44:23Z</time>
<desc><![CDATA[lat.=36.757449, lon.=137.757594, Alt.=2932.894873m. Speed=4.000000m/h.]]></desc>
</trkpt>
<trkpt lat="36.757390" lon="137.757608">
<ele>2931.622259</ele>
<time>2014-08-18T09:44:28Z</time>
<desc><![CDATA[lat.=36.757390, lon.=137.757608, Alt.=2931.622259m. Speed=4.000000m/h.]]></desc>
</trkpt>
<trkpt lat="36.757346" lon="137.757591">
<ele>2929.707333</ele>
<time>2014-08-18T09:44:33Z</time>
<desc><![CDATA[lat.=36.757346, lon.=137.757591, Alt.=2929.707333m. Speed=4.000000m/h.]]></desc>
</trkpt>
<trkpt lat="36.757315" lon="137.757552">
<ele>2926.013059</ele>
<time>2014-08-18T09:44:38Z</time>
<desc><![CDATA[lat.=36.757315, lon.=137.757552, Alt.=2926.013059m. Speed=3.000000m/h.]]></desc>
</trkpt>
<trkpt lat="36.757325" lon="137.757559">
<ele>2929.533181</ele>
<time>2014-08-18T09:44:43Z</time>
<desc><![CDATA[lat.=36.757325, lon.=137.757559, Alt.=2929.533181m. Speed=0.000000m/h.]]></desc>
</trkpt>
<trkpt lat="36.757263" lon="137.757533">
<ele>2928.690167</ele>
<time>2014-08-18T09:44:48Z</time>
<desc><![CDATA[lat.=36.757263, lon.=137.757533, Alt.=2928.690167m. Speed=3.000000m/h.]]></desc>
</trkpt>
<trkpt lat="36.757218" lon="137.757529">
<ele>2933.750367</ele>
<time>2014-08-18T09:44:53Z</time>
<desc><![CDATA[lat.=36.757218, lon.=137.757529, Alt.=2933.750367m. Speed=4.000000m/h.]]></desc>
</trkpt>
<trkpt lat="36.757163" lon="137.757536">
<ele>2931.884660</ele>
<time>2014-08-18T09:44:58Z</time>
<desc><![CDATA[lat.=36.757163, lon.=137.757536, Alt.=2931.884660m. Speed=4.000000m/h.]]></desc>
</trkpt>
<trkpt lat="36.757166" lon="137.757543">
<ele>2934.806354</ele>
<time>2014-08-18T09:45:03Z</time>
<desc><![CDATA[lat.=36.757166, lon.=137.757543, Alt.=2934.806354m. Speed=3.000000m/h.]]></desc>
</trkpt>
<trkpt lat="36.757181" lon="137.757545">
<ele>2930.812750</ele>
<time>2014-08-18T09:45:08Z</time>
<desc><![CDATA[lat.=36.757181, lon.=137.757545, Alt.=2930.812750m. Speed=0.000000m/h.]]></desc>
</trkpt>
<trkpt lat="36.757178" lon="137.757538">
<ele>2929.621207</ele>
<time>2014-08-18T09:45:13Z</time>
<desc><![CDATA[lat.=36.757178, lon.=137.757538, Alt.=2929.621207m. Speed=0.000000m/h.]]></desc>
</trkpt>
<trkpt lat="36.757182" lon="137.757546">
<ele>2929.082599</ele>
<time>2014-08-18T09:45:18Z</time>
<desc><![CDATA[lat.=36.757182, lon.=137.757546, Alt.=2929.082599m. Speed=0.000000m/h.]]></desc>
</trkpt>
<trkpt lat="36.757171" lon="137.757554">
<ele>2929.077293</ele>
<time>2014-08-18T09:45:24Z</time>
<desc><![CDATA[lat.=36.757171, lon.=137.757554, Alt.=2929.077293m. Speed=2.000000m/h.]]></desc>
</trkpt>
<trkpt lat="36.757100" lon="137.757574">
<ele>2931.259706</ele>
<time>2014-08-18T09:45:29Z</time>
<desc><![CDATA[lat.=36.757100, lon.=137.757574, Alt.=2931.259706m. Speed=4.000000m/h.]]></desc>
</trkpt>
<trkpt lat="36.757061" lon="137.757651">
<ele>2932.000448</ele>
<time>2014-08-18T09:45:34Z</time>
<desc><![CDATA[lat.=36.757061, lon.=137.757651, Alt.=2932.000448m. Speed=4.000000m/h.]]></desc>
</trkpt>
<trkpt lat="36.757049" lon="137.757706">
<ele>2932.158683</ele>
<time>2014-08-18T09:45:39Z</time>
<desc><![CDATA[lat.=36.757049, lon.=137.757706, Alt.=2932.158683m. Speed=4.000000m/h.]]></desc>
</trkpt>
<trkpt lat="36.757035" lon="137.757707">
<ele>2929.231686</ele>
<time>2014-08-18T09:45:44Z</time>
<desc><![CDATA[lat.=36.757035, lon.=137.757707, Alt.=2929.231686m. Speed=0.000000m/h.]]></desc>
</trkpt>
<trkpt lat="36.757037" lon="137.757762">
<ele>2930.586772</ele>
<time>2014-08-18T09:45:49Z</time>
<desc><![CDATA[lat.=36.757037, lon.=137.757762, Alt.=2930.586772m. Speed=3.000000m/h.]]></desc>
</trkpt>
<trkpt lat="36.757017" lon="137.757834">
<ele>2928.470957</ele>
<time>2014-08-18T09:45:54Z</time>
<desc><![CDATA[lat.=36.757017, lon.=137.757834, Alt.=2928.470957m. Speed=3.000000m/h.]]></desc>
</trkpt>
<trkpt lat="36.757021" lon="137.757841">
<ele>2929.662502</ele>
<time>2014-08-18T09:45:59Z</time>
<desc><![CDATA[lat.=36.757021, lon.=137.757841, Alt.=2929.662502m. Speed=0.000000m/h.]]></desc>
</trkpt>
<trkpt lat="36.757042" lon="137.757840">
<ele>2933.187922</ele>
<time>2014-08-18T09:46:04Z</time>
<desc><![CDATA[lat.=36.757042, lon.=137.757840, Alt.=2933.187922m. Speed=0.000000m/h.]]></desc>
</trkpt>
<trkpt lat="36.757032" lon="137.757834">
<ele>2929.667803</ele>
<time>2014-08-18T09:46:09Z</time>
<desc><![CDATA[lat.=36.757032, lon.=137.757834, Alt.=2929.667803m. Speed=0.000000m/h.]]></desc>
</trkpt>
<trkpt lat="36.757043" lon="137.757826">
<ele>2929.673104</ele>
<time>2014-08-18T09:46:14Z</time>
<desc><![CDATA[lat.=36.757043, lon.=137.757826, Alt.=2929.673104m. Speed=0.000000m/h.]]></desc>
</trkpt>
<trkpt lat="36.757039" lon="137.757834">
<ele>2930.266226</ele>
<time>2014-08-18T09:46:19Z</time>
<desc><![CDATA[lat.=36.757039, lon.=137.757834, Alt.=2930.266226m. Speed=0.000000m/h.]]></desc>
</trkpt>
<trkpt lat="36.757024" lon="137.757833">
<ele>2930.799531</ele>
<time>2014-08-18T09:46:24Z</time>
<desc><![CDATA[lat.=36.757024, lon.=137.757833, Alt.=2930.799531m. Speed=1.000000m/h.]]></desc>
</trkpt>
<trkpt lat="36.757021" lon="137.757841">
<ele>2929.662502</ele>
<time>2014-08-18T09:46:29Z</time>
<desc><![CDATA[lat.=36.757021, lon.=137.757841, Alt.=2929.662502m. Speed=0.000000m/h.]]></desc>
</trkpt>
<trkpt lat="36.757024" lon="137.757849">
<ele>2929.123896</ele>
<time>2014-08-18T09:46:34Z</time>
<desc><![CDATA[lat.=36.757024, lon.=137.757849, Alt.=2929.123896m. Speed=0.000000m/h.]]></desc>
</trkpt>
<trkpt lat="36.757017" lon="137.757849">
<ele>2928.525473</ele>
<time>2014-08-18T09:46:40Z</time>
<desc><![CDATA[lat.=36.757017, lon.=137.757849, Alt.=2928.525473m. Speed=0.000000m/h.]]></desc>
</trkpt>
<trkpt lat="36.757010" lon="137.757849">
<ele>2927.927051</ele>
<time>2014-08-18T09:46:45Z</time>
<desc><![CDATA[lat.=36.757010, lon.=137.757849, Alt.=2927.927051m. Speed=0.000000m/h.]]></desc>
</trkpt>
<trkpt lat="36.757006" lon="137.757841">
<ele>2928.465657</ele>
<time>2014-08-18T09:46:50Z</time>
<desc><![CDATA[lat.=36.757006, lon.=137.757841, Alt.=2928.465657m. Speed=0.000000m/h.]]></desc>
</trkpt>
<trkpt lat="36.756999" lon="137.757841">
<ele>2927.867234</ele>
<time>2014-08-18T09:46:55Z</time>
<desc><![CDATA[lat.=36.756999, lon.=137.757841, Alt.=2927.867234m. Speed=0.000000m/h.]]></desc>
</trkpt>
<trkpt lat="36.757006" lon="137.757841">
<ele>2928.465657</ele>
<time>2014-08-18T09:47:00Z</time>
<desc><![CDATA[lat.=36.757006, lon.=137.757841, Alt.=2928.465657m. Speed=0.000000m/h.]]></desc>
</trkpt>
<trkpt lat="36.757006" lon="137.757825">
<ele>2930.141292</ele>
<time>2014-08-18T09:47:05Z</time>
<desc><![CDATA[lat.=36.757006, lon.=137.757825, Alt.=2930.141292m. Speed=1.000000m/h.]]></desc>
</trkpt>
<trkpt lat="36.756993" lon="137.757777">
<ele>2928.780901</ele>
<time>2014-08-18T09:47:10Z</time>
<desc><![CDATA[lat.=36.756993, lon.=137.757777, Alt.=2928.780901m. Speed=2.000000m/h.]]></desc>
</trkpt>
<trkpt lat="36.756987" lon="137.757730">
<ele>2928.018936</ele>
<time>2014-08-18T09:47:15Z</time>
<desc><![CDATA[lat.=36.756987, lon.=137.757730, Alt.=2928.018936m. Speed=3.000000m/h.]]></desc>
</trkpt>
<trkpt lat="36.756981" lon="137.757666">
<ele>2927.202460</ele>
<time>2014-08-18T09:47:20Z</time>
<desc><![CDATA[lat.=36.756981, lon.=137.757666, Alt.=2927.202460m. Speed=3.000000m/h.]]></desc>
</trkpt>
<trkpt lat="36.756964" lon="137.757611">
<ele>2926.380688</ele>
<time>2014-08-18T09:47:25Z</time>
<desc><![CDATA[lat.=36.756964, lon.=137.757611, Alt.=2926.380688m. Speed=3.000000m/h.]]></desc>
</trkpt>
<trkpt lat="36.756965" lon="137.757563">
<ele>2927.947306</ele>
<time>2014-08-18T09:47:30Z</time>
<desc><![CDATA[lat.=36.756965, lon.=137.757563, Alt.=2927.947306m. Speed=3.000000m/h.]]></desc>
</trkpt>
<trkpt lat="36.756958" lon="137.757514">
<ele>2928.915505</ele>
<time>2014-08-18T09:47:35Z</time>
<desc><![CDATA[lat.=36.756958, lon.=137.757514, Alt.=2928.915505m. Speed=3.000000m/h.]]></desc>
</trkpt>
<trkpt lat="36.756973" lon="137.757548">
<ele>2926.761067</ele>
<time>2014-08-18T09:47:40Z</time>
<desc><![CDATA[lat.=36.756973, lon.=137.757548, Alt.=2926.761067m. Speed=0.000000m/h.]]></desc>
</trkpt>
<trkpt lat="36.756973" lon="137.757565">
<ele>2923.355275</ele>
<time>2014-08-18T09:47:45Z</time>
<desc><![CDATA[lat.=36.756973, lon.=137.757565, Alt.=2923.355275m. Speed=0.000000m/h.]]></desc>
</trkpt>
<trkpt lat="36.756977" lon="137.757573">
<ele>2922.816666</ele>
<time>2014-08-18T09:47:50Z</time>
<desc><![CDATA[lat.=36.756977, lon.=137.757573, Alt.=2922.816666m. Speed=0.000000m/h.]]></desc>
</trkpt>
<trkpt lat="36.756984" lon="137.757574">
<ele>2921.684937</ele>
<time>2014-08-18T09:47:55Z</time>
<desc><![CDATA[lat.=36.756984, lon.=137.757574, Alt.=2921.684937m. Speed=0.000000m/h.]]></desc>
</trkpt>
<trkpt lat="36.756981" lon="137.757582">
<ele>2920.547906</ele>
<time>2014-08-18T09:48:00Z</time>
<desc><![CDATA[lat.=36.756981, lon.=137.757582, Alt.=2920.547906m. Speed=0.000000m/h.]]></desc>
</trkpt>
<trkpt lat="36.756977" lon="137.757575">
<ele>2919.356364</ele>
<time>2014-08-18T09:48:05Z</time>
<desc><![CDATA[lat.=36.756977, lon.=137.757575, Alt.=2919.356364m. Speed=0.000000m/h.]]></desc>
</trkpt>
<trkpt lat="36.756970" lon="137.757574">
<ele>2920.488093</ele>
<time>2014-08-18T09:48:10Z</time>
<desc><![CDATA[lat.=36.756970, lon.=137.757574, Alt.=2920.488093m. Speed=0.000000m/h.]]></desc>
</trkpt>
<trkpt lat="36.756963" lon="137.757574">
<ele>2919.889671</ele>
<time>2014-08-18T09:48:15Z</time>
<desc><![CDATA[lat.=36.756963, lon.=137.757574, Alt.=2919.889671m. Speed=0.000000m/h.]]></desc>
</trkpt>
<trkpt lat="36.756955" lon="137.757573">
<ele>2921.021400</ele>
<time>2014-08-18T09:48:20Z</time>
<desc><![CDATA[lat.=36.756955, lon.=137.757573, Alt.=2921.021400m. Speed=0.000000m/h.]]></desc>
</trkpt>
<trkpt lat="36.756952" lon="137.757566">
<ele>2919.829858</ele>
<time>2014-08-18T09:48:25Z</time>
<desc><![CDATA[lat.=36.756952, lon.=137.757566, Alt.=2919.829858m. Speed=0.000000m/h.]]></desc>
</trkpt>
<trkpt lat="36.756948" lon="137.757557">
<ele>2920.368467</ele>
<time>2014-08-18T09:48:30Z</time>
<desc><![CDATA[lat.=36.756948, lon.=137.757557, Alt.=2920.368467m. Speed=0.000000m/h.]]></desc>
</trkpt>
<trkpt lat="36.756955" lon="137.757557">
<ele>2920.966889</ele>
<time>2014-08-18T09:48:36Z</time>
<desc><![CDATA[lat.=36.756955, lon.=137.757557, Alt.=2920.966889m. Speed=0.000000m/h.]]></desc>
</trkpt>
<trkpt lat="36.756948" lon="137.757557">
<ele>2920.368467</ele>
<time>2014-08-18T09:48:41Z</time>
<desc><![CDATA[lat.=36.756948, lon.=137.757557, Alt.=2920.368467m. Speed=0.000000m/h.]]></desc>
</trkpt>
<trkpt lat="36.756952" lon="137.757550">
<ele>2919.775348</ele>
<time>2014-08-18T09:48:50Z</time>
<desc><![CDATA[lat.=36.756952, lon.=137.757550, Alt.=2919.775348m. Speed=1.000000m/h.]]></desc>
</trkpt>
<trkpt lat="36.756942" lon="137.757510">
<ele>2919.606516</ele>
<time>2014-08-18T09:48:55Z</time>
<desc><![CDATA[lat.=36.756942, lon.=137.757510, Alt.=2919.606516m. Speed=2.000000m/h.]]></desc>
</trkpt>
<trkpt lat="36.756910" lon="137.757485">
<ele>2919.427082</ele>
<time>2014-08-18T09:49:00Z</time>
<desc><![CDATA[lat.=36.756910, lon.=137.757485, Alt.=2919.427082m. Speed=2.000000m/h.]]></desc>
</trkpt>
<trkpt lat="36.756869" lon="137.757492">
<ele>2918.758248</ele>
<time>2014-08-18T09:49:05Z</time>
<desc><![CDATA[lat.=36.756869, lon.=137.757492, Alt.=2918.758248m. Speed=2.000000m/h.]]></desc>
</trkpt>
<trkpt lat="36.756855" lon="137.757444">
<ele>2919.128032</ele>
<time>2014-08-18T09:49:10Z</time>
<desc><![CDATA[lat.=36.756855, lon.=137.757444, Alt.=2919.128032m. Speed=3.000000m/h.]]></desc>
</trkpt>
<trkpt lat="36.756819" lon="137.757459">
<ele>2916.190440</ele>
<time>2014-08-18T09:49:15Z</time>
<desc><![CDATA[lat.=36.756819, lon.=137.757459, Alt.=2916.190440m. Speed=3.000000m/h.]]></desc>
</trkpt>
<trkpt lat="36.756790" lon="137.757459">
<ele>2915.526912</ele>
<time>2014-08-18T09:49:20Z</time>
<desc><![CDATA[lat.=36.756790, lon.=137.757459, Alt.=2915.526912m. Speed=3.000000m/h.]]></desc>
</trkpt>
<trkpt lat="36.756756" lon="137.757481">
<ele>2915.511015</ele>
<time>2014-08-18T09:49:25Z</time>
<desc><![CDATA[lat.=36.756756, lon.=137.757481, Alt.=2915.511015m. Speed=3.000000m/h.]]></desc>
</trkpt>
<trkpt lat="36.756728" lon="137.757465">
<ele>2913.062831</ele>
<time>2014-08-18T09:49:30Z</time>
<desc><![CDATA[lat.=36.756728, lon.=137.757465, Alt.=2913.062831m. Speed=3.000000m/h.]]></desc>
</trkpt>
<trkpt lat="36.756688" lon="137.757441">
<ele>2912.284994</ele>
<time>2014-08-18T09:49:35Z</time>
<desc><![CDATA[lat.=36.756688, lon.=137.757441, Alt.=2912.284994m. Speed=2.000000m/h.]]></desc>
</trkpt>
<trkpt lat="36.756673" lon="137.757456">
<ele>2912.872818</ele>
<time>2014-08-18T09:49:40Z</time>
<desc><![CDATA[lat.=36.756673, lon.=137.757456, Alt.=2912.872818m. Speed=2.000000m/h.]]></desc>
</trkpt>
<trkpt lat="36.756640" lon="137.757463">
<ele>2911.072268</ele>
<time>2014-08-18T09:49:45Z</time>
<desc><![CDATA[lat.=36.756640, lon.=137.757463, Alt.=2911.072268m. Speed=2.000000m/h.]]></desc>
</trkpt>
<trkpt lat="36.756632" lon="137.757446">
<ele>2913.879645</ele>
<time>2014-08-18T09:49:50Z</time>
<desc><![CDATA[lat.=36.756632, lon.=137.757446, Alt.=2913.879645m. Speed=3.000000m/h.]]></desc>
</trkpt>
<trkpt lat="36.756656" lon="137.757383">
<ele>2913.726715</ele>
<time>2014-08-18T09:49:55Z</time>
<desc><![CDATA[lat.=36.756656, lon.=137.757383, Alt.=2913.726715m. Speed=3.000000m/h.]]></desc>
</trkpt>
<trkpt lat="36.756660" lon="137.757328">
<ele>2914.700226</ele>
<time>2014-08-18T09:50:00Z</time>
<desc><![CDATA[lat.=36.756660, lon.=137.757328, Alt.=2914.700226m. Speed=3.000000m/h.]]></desc>
</trkpt>
<trkpt lat="36.756690" lon="137.757280">
<ele>2916.930381</ele>
<time>2014-08-18T09:50:05Z</time>
<desc><![CDATA[lat.=36.756690, lon.=137.757280, Alt.=2916.930381m. Speed=3.000000m/h.]]></desc>
</trkpt>
<trkpt lat="36.756643" lon="137.757287">
<ele>2915.663145</ele>
<time>2014-08-18T09:50:10Z</time>
<desc><![CDATA[lat.=36.756643, lon.=137.757287, Alt.=2915.663145m. Speed=3.000000m/h.]]></desc>
</trkpt>
<trkpt lat="36.756619" lon="137.757249">
<ele>2910.837194</ele>
<time>2014-08-18T09:50:15Z</time>
<desc><![CDATA[lat.=36.756619, lon.=137.757249, Alt.=2910.837194m. Speed=3.000000m/h.]]></desc>
</trkpt>
<trkpt lat="36.756594" lon="137.757224">
<ele>2909.526054</ele>
<time>2014-08-18T09:50:20Z</time>
<desc><![CDATA[lat.=36.756594, lon.=137.757224, Alt.=2909.526054m. Speed=2.000000m/h.]]></desc>
</trkpt>
<trkpt lat="36.756579" lon="137.757224">
<ele>2910.059373</ele>
<time>2014-08-18T09:50:25Z</time>
<desc><![CDATA[lat.=36.756579, lon.=137.757224, Alt.=2910.059373m. Speed=0.000000m/h.]]></desc>
</trkpt>
<trkpt lat="36.756583" lon="137.757233">
<ele>2907.790605</ele>
<time>2014-08-18T09:50:30Z</time>
<desc><![CDATA[lat.=36.756583, lon.=137.757233, Alt.=2907.790605m. Speed=0.000000m/h.]]></desc>
</trkpt>
<trkpt lat="36.756590" lon="137.757249">
<ele>2906.713375</ele>
<time>2014-08-18T09:50:35Z</time>
<desc><![CDATA[lat.=36.756590, lon.=137.757249, Alt.=2906.713375m. Speed=0.000000m/h.]]></desc>
</trkpt>
<trkpt lat="36.756587" lon="137.757258">
<ele>2905.576343</ele>
<time>2014-08-18T09:50:40Z</time>
<desc><![CDATA[lat.=36.756587, lon.=137.757258, Alt.=2905.576343m. Speed=0.000000m/h.]]></desc>
</trkpt>
<trkpt lat="36.756587" lon="137.757242">
<ele>2905.521838</ele>
<time>2014-08-18T09:50:45Z</time>
<desc><![CDATA[lat.=36.756587, lon.=137.757242, Alt.=2905.521838m. Speed=1.000000m/h.]]></desc>
</trkpt>
<trkpt lat="36.756610" lon="137.757210">
<ele>2907.208081</ele>
<time>2014-08-18T09:50:50Z</time>
<desc><![CDATA[lat.=36.756610, lon.=137.757210, Alt.=2907.208081m. Speed=2.000000m/h.]]></desc>
</trkpt>
<trkpt lat="36.756569" lon="137.757184">
<ele>2908.160412</ele>
<time>2014-08-18T09:50:55Z</time>
<desc><![CDATA[lat.=36.756569, lon.=137.757184, Alt.=2908.160412m. Speed=2.000000m/h.]]></desc>
</trkpt>
<trkpt lat="36.756540" lon="137.757167">
<ele>2909.172548</ele>
<time>2014-08-18T09:51:00Z</time>
<desc><![CDATA[lat.=36.756540, lon.=137.757167, Alt.=2909.172548m. Speed=2.000000m/h.]]></desc>
</trkpt>
<trkpt lat="36.756496" lon="137.757166">
<ele>2907.312205</ele>
<time>2014-08-18T09:51:05Z</time>
<desc><![CDATA[lat.=36.756496, lon.=137.757166, Alt.=2907.312205m. Speed=2.000000m/h.]]></desc>
</trkpt>
<trkpt lat="36.756507" lon="137.757158">
<ele>2909.047653</ele>
<time>2014-08-18T09:51:10Z</time>
<desc><![CDATA[lat.=36.756507, lon.=137.757158, Alt.=2909.047653m. Speed=0.000000m/h.]]></desc>
</trkpt>
<trkpt lat="36.756522" lon="137.757160">
<ele>2906.784181</ele>
<time>2014-08-18T09:51:15Z</time>
<desc><![CDATA[lat.=36.756522, lon.=137.757160, Alt.=2906.784181m. Speed=0.000000m/h.]]></desc>
</trkpt>
<trkpt lat="36.756530" lon="137.757161">
<ele>2903.922293</ele>
<time>2014-08-18T09:51:20Z</time>
<desc><![CDATA[lat.=36.756530, lon.=137.757161, Alt.=2903.922293m. Speed=0.000000m/h.]]></desc>
</trkpt>
<trkpt lat="36.756531" lon="137.757162">
<ele>2902.192141</ele>
<time>2014-08-18T09:51:25Z</time>
<desc><![CDATA[lat.=36.756531, lon.=137.757162, Alt.=2902.192141m. Speed=0.000000m/h.]]></desc>
</trkpt>
<trkpt lat="36.756527" lon="137.757169">
<ele>2902.785260</ele>
<time>2014-08-18T09:51:30Z</time>
<desc><![CDATA[lat.=36.756527, lon.=137.757169, Alt.=2902.785260m. Speed=0.000000m/h.]]></desc>
</trkpt>
<trkpt lat="36.756520" lon="137.757169">
<ele>2902.186845</ele>
<time>2014-08-18T09:51:38Z</time>
<desc><![CDATA[lat.=36.756520, lon.=137.757169, Alt.=2902.186845m. Speed=0.000000m/h.]]></desc>
</trkpt>
<trkpt lat="36.756505" lon="137.757169">
<ele>2902.720165</ele>
<time>2014-08-18T09:51:43Z</time>
<desc><![CDATA[lat.=36.756505, lon.=137.757169, Alt.=2902.720165m. Speed=1.000000m/h.]]></desc>
</trkpt>
<trkpt lat="36.756490" lon="137.757168">
<ele>2903.253486</ele>
<time>2014-08-18T09:51:48Z</time>
<desc><![CDATA[lat.=36.756490, lon.=137.757168, Alt.=2903.253486m. Speed=1.000000m/h.]]></desc>
</trkpt>
<trkpt lat="36.756450" lon="137.757160">
<ele>2900.800028</ele>
<time>2014-08-18T09:51:53Z</time>
<desc><![CDATA[lat.=36.756450, lon.=137.757160, Alt.=2900.800028m. Speed=2.000000m/h.]]></desc>
</trkpt>
<trkpt lat="36.756426" lon="137.757120">
<ele>2899.434396</ele>
<time>2014-08-18T09:51:58Z</time>
<desc><![CDATA[lat.=36.756426, lon.=137.757120, Alt.=2899.434396m. Speed=3.000000m/h.]]></desc>
</trkpt>
<trkpt lat="36.756415" lon="137.757079">
<ele>2900.995748</ele>
<time>2014-08-18T09:52:03Z</time>
<desc><![CDATA[lat.=36.756415, lon.=137.757079, Alt.=2900.995748m. Speed=3.000000m/h.]]></desc>
</trkpt>
<trkpt lat="36.756369" lon="137.757072">
<ele>2896.213730</ele>
<time>2014-08-18T09:52:08Z</time>
<desc><![CDATA[lat.=36.756369, lon.=137.757072, Alt.=2896.213730m. Speed=3.000000m/h.]]></desc>
</trkpt>
<trkpt lat="36.756361" lon="137.757055">
<ele>2897.290967</ele>
<time>2014-08-18T09:52:13Z</time>
<desc><![CDATA[lat.=36.756361, lon.=137.757055, Alt.=2897.290967m. Speed=3.000000m/h.]]></desc>
</trkpt>
<trkpt lat="36.756307" lon="137.757062">
<ele>2895.425347</ele>
<time>2014-08-18T09:52:18Z</time>
<desc><![CDATA[lat.=36.756307, lon.=137.757062, Alt.=2895.425347m. Speed=3.000000m/h.]]></desc>
</trkpt>
<trkpt lat="36.756279" lon="137.757048">
<ele>2887.786739</ele>
<time>2014-08-18T09:52:23Z</time>
<desc><![CDATA[lat.=36.756279, lon.=137.757048, Alt.=2887.786739m. Speed=3.000000m/h.]]></desc>
</trkpt>
<trkpt lat="36.756254" lon="137.757024">
<ele>2886.475622</ele>
<time>2014-08-18T09:52:28Z</time>
<desc><![CDATA[lat.=36.756254, lon.=137.757024, Alt.=2886.475622m. Speed=3.000000m/h.]]></desc>
</trkpt>
<trkpt lat="36.756221" lon="137.757015">
<ele>2886.350747</ele>
<time>2014-08-18T09:52:33Z</time>
<desc><![CDATA[lat.=36.756221, lon.=137.757015, Alt.=2886.350747m. Speed=2.000000m/h.]]></desc>
</trkpt>
<trkpt lat="36.756214" lon="137.757014">
<ele>2887.482487</ele>
<time>2014-08-18T09:52:38Z</time>
<desc><![CDATA[lat.=36.756214, lon.=137.757014, Alt.=2887.482487m. Speed=2.000000m/h.]]></desc>
</trkpt>
<trkpt lat="36.756189" lon="137.756990">
<ele>2886.171374</ele>
<time>2014-08-18T09:52:43Z</time>
<desc><![CDATA[lat.=36.756189, lon.=137.756990, Alt.=2886.171374m. Speed=2.000000m/h.]]></desc>
</trkpt>
<trkpt lat="36.756163" lon="137.756996">
<ele>2888.429566</ele>
<time>2014-08-18T09:52:48Z</time>
<desc><![CDATA[lat.=36.756163, lon.=137.756996, Alt.=2888.429566m. Speed=3.000000m/h.]]></desc>
</trkpt>
<trkpt lat="36.756141" lon="137.756964">
<ele>2888.255487</ele>
<time>2014-08-18T09:52:53Z</time>
<desc><![CDATA[lat.=36.756141, lon.=137.756964, Alt.=2888.255487m. Speed=3.000000m/h.]]></desc>
</trkpt>
<trkpt lat="36.756101" lon="137.756939">
<ele>2887.477711</ele>
<time>2014-08-18T09:52:58Z</time>
<desc><![CDATA[lat.=36.756101, lon.=137.756939, Alt.=2887.477711m. Speed=3.000000m/h.]]></desc>
</trkpt>
<trkpt lat="36.756099" lon="137.756883">
<ele>2887.852838</ele>
<time>2014-08-18T09:53:03Z</time>
<desc><![CDATA[lat.=36.756099, lon.=137.756883, Alt.=2887.852838m. Speed=3.000000m/h.]]></desc>
</trkpt>
<trkpt lat="36.756070" lon="137.756867">
<ele>2887.134854</ele>
<time>2014-08-18T09:53:08Z</time>
<desc><![CDATA[lat.=36.756070, lon.=137.756867, Alt.=2887.134854m. Speed=3.000000m/h.]]></desc>
</trkpt>
<trkpt lat="36.756027" lon="137.756852">
<ele>2881.759749</ele>
<time>2014-08-18T09:53:13Z</time>
<desc><![CDATA[lat.=36.756027, lon.=137.756852, Alt.=2881.759749m. Speed=3.000000m/h.]]></desc>
</trkpt>
<trkpt lat="36.755991" lon="137.756851">
<ele>2880.497859</ele>
<time>2014-08-18T09:53:18Z</time>
<desc><![CDATA[lat.=36.755991, lon.=137.756851, Alt.=2880.497859m. Speed=3.000000m/h.]]></desc>
</trkpt>
<trkpt lat="36.755962" lon="137.756834">
<ele>2879.779881</ele>
<time>2014-08-18T09:53:23Z</time>
<desc><![CDATA[lat.=36.755962, lon.=137.756834, Alt.=2879.779881m. Speed=3.000000m/h.]]></desc>
</trkpt>
<trkpt lat="36.755944" lon="137.756794">
<ele>2880.742849</ele>
<time>2014-08-18T09:53:28Z</time>
<desc><![CDATA[lat.=36.755944, lon.=137.756794, Alt.=2880.742849m. Speed=3.000000m/h.]]></desc>
</trkpt>
<trkpt lat="36.755912" lon="137.756769">
<ele>2880.563501</ele>
<time>2014-08-18T09:53:33Z</time>
<desc><![CDATA[lat.=36.755912, lon.=137.756769, Alt.=2880.563501m. Speed=3.000000m/h.]]></desc>
</trkpt>
<trkpt lat="36.755902" lon="137.756729">
<ele>2880.394728</ele>
<time>2014-08-18T09:53:38Z</time>
<desc><![CDATA[lat.=36.755902, lon.=137.756729, Alt.=2880.394728m. Speed=2.000000m/h.]]></desc>
</trkpt>
<trkpt lat="36.755873" lon="137.756729">
<ele>2878.001101</ele>
<time>2014-08-18T09:53:43Z</time>
<desc><![CDATA[lat.=36.755873, lon.=137.756729, Alt.=2878.001101m. Speed=2.000000m/h.]]></desc>
</trkpt>
<trkpt lat="36.755840" lon="137.756721">
<ele>2876.146100</ele>
<time>2014-08-18T09:53:48Z</time>
<desc><![CDATA[lat.=36.755840, lon.=137.756721, Alt.=2876.146100m. Speed=3.000000m/h.]]></desc>
</trkpt>
<trkpt lat="36.755856" lon="137.756705">
<ele>2875.558266</ele>
<time>2014-08-18T09:53:53Z</time>
<desc><![CDATA[lat.=36.755856, lon.=137.756705, Alt.=2875.558266m. Speed=0.000000m/h.]]></desc>
</trkpt>
<trkpt lat="36.755848" lon="137.756705">
<ele>2874.959859</ele>
<time>2014-08-18T09:53:58Z</time>
<desc><![CDATA[lat.=36.755848, lon.=137.756705, Alt.=2874.959859m. Speed=0.000000m/h.]]></desc>
</trkpt>
<trkpt lat="36.755852" lon="137.756697">
<ele>2876.096892</ele>
<time>2014-08-18T09:54:03Z</time>
<desc><![CDATA[lat.=36.755852, lon.=137.756697, Alt.=2876.096892m. Speed=0.000000m/h.]]></desc>
</trkpt>
<trkpt lat="36.755830" lon="137.756696">
<ele>2876.031826</ele>
<time>2014-08-18T09:54:08Z</time>
<desc><![CDATA[lat.=36.755830, lon.=137.756696, Alt.=2876.031826m. Speed=1.000000m/h.]]></desc>
</trkpt>
<trkpt lat="36.755798" lon="137.756721">
<ele>2870.825512</ele>
<time>2014-08-18T09:54:13Z</time>
<desc><![CDATA[lat.=36.755798, lon.=137.756721, Alt.=2870.825512m. Speed=2.000000m/h.]]></desc>
</trkpt>
<trkpt lat="36.755772" lon="137.756712">
<ele>2871.299074</ele>
<time>2014-08-18T09:54:18Z</time>
<desc><![CDATA[lat.=36.755772, lon.=137.756712, Alt.=2871.299074m. Speed=2.000000m/h.]]></desc>
</trkpt>
<trkpt lat="36.755735" lon="137.756694">
<ele>2873.443013</ele>
<time>2014-08-18T09:54:23Z</time>
<desc><![CDATA[lat.=36.755735, lon.=137.756694, Alt.=2873.443013m. Speed=2.000000m/h.]]></desc>
</trkpt>
<trkpt lat="36.755728" lon="137.756678">
<ele>2874.520267</ele>
<time>2014-08-18T09:54:28Z</time>
<desc><![CDATA[lat.=36.755728, lon.=137.756678, Alt.=2874.520267m. Speed=1.000000m/h.]]></desc>
</trkpt>
<trkpt lat="36.755702" lon="137.756684">
<ele>2875.048328</ele>
<time>2014-08-18T09:54:33Z</time>
<desc><![CDATA[lat.=36.755702, lon.=137.756684, Alt.=2875.048328m. Speed=1.000000m/h.]]></desc>
</trkpt>
<trkpt lat="36.755688" lon="137.756669">
<ele>2873.797025</ele>
<time>2014-08-18T09:54:38Z</time>
<desc><![CDATA[lat.=36.755688, lon.=137.756669, Alt.=2873.797025m. Speed=1.000000m/h.]]></desc>
</trkpt>
<trkpt lat="36.755655" lon="137.756676">
<ele>2871.996531</ele>
<time>2014-08-18T09:54:43Z</time>
<desc><![CDATA[lat.=36.755655, lon.=137.756676, Alt.=2871.996531m. Speed=2.000000m/h.]]></desc>
</trkpt>
<trkpt lat="36.755625" lon="137.756675">
<ele>2871.333070</ele>
<time>2014-08-18T09:54:48Z</time>
<desc><![CDATA[lat.=36.755625, lon.=137.756675, Alt.=2871.333070m. Speed=2.000000m/h.]]></desc>
</trkpt>
<trkpt lat="36.755614" lon="137.756698">
<ele>2873.112436</ele>
<time>2014-08-18T09:54:53Z</time>
<desc><![CDATA[lat.=36.755614, lon.=137.756698, Alt.=2873.112436m. Speed=2.000000m/h.]]></desc>
</trkpt>
<trkpt lat="36.755591" lon="137.756697">
<ele>2873.047381</ele>
<time>2014-08-18T09:54:58Z</time>
<desc><![CDATA[lat.=36.755591, lon.=137.756697, Alt.=2873.047381m. Speed=1.000000m/h.]]></desc>
</trkpt>
<trkpt lat="36.755573" lon="137.756689">
<ele>2872.389203</ele>
<time>2014-08-18T09:55:03Z</time>
<desc><![CDATA[lat.=36.755573, lon.=137.756689, Alt.=2872.389203m. Speed=1.000000m/h.]]></desc>
</trkpt>
<trkpt lat="36.755552" lon="137.756673">
<ele>2870.539502</ele>
<time>2014-08-18T09:55:08Z</time>
<desc><![CDATA[lat.=36.755552, lon.=137.756673, Alt.=2870.539502m. Speed=1.000000m/h.]]></desc>
</trkpt>
<trkpt lat="36.755530" lon="137.756688">
<ele>2870.528943</ele>
<time>2014-08-18T09:55:13Z</time>
<desc><![CDATA[lat.=36.755530, lon.=137.756688, Alt.=2870.528943m. Speed=1.000000m/h.]]></desc>
</trkpt>
<trkpt lat="36.755512" lon="137.756663">
<ele>2871.546427</ele>
<time>2014-08-18T09:55:18Z</time>
<desc><![CDATA[lat.=36.755512, lon.=137.756663, Alt.=2871.546427m. Speed=1.000000m/h.]]></desc>
</trkpt>
</trkseg>
</trk>
<trk>
<name><![CDATA[Track2014/08/19_06:47-2]]></name>
<trkseg>
<trkpt lat="36.755519" lon="137.756664">
<ele>2870.414676</ele>
<time>2014-08-18T21:49:58Z</time>
<desc><![CDATA[lat.=36.755519, lon.=137.756664, Alt.=2870.414676m. Speed=1.000000m/h.]]></desc>
</trkpt>
<trkpt lat="36.755529" lon="137.756704">
<ele>2870.583437</ele>
<time>2014-08-18T21:50:03Z</time>
<desc><![CDATA[lat.=36.755529, lon.=137.756704, Alt.=2870.583437m. Speed=2.000000m/h.]]></desc>
</trkpt>
<trkpt lat="36.755547" lon="137.756711">
<ele>2872.971766</ele>
<time>2014-08-18T21:50:08Z</time>
<desc><![CDATA[lat.=36.755547, lon.=137.756711, Alt.=2872.971766m. Speed=1.000000m/h.]]></desc>
</trkpt>
<trkpt lat="36.755555" lon="137.756712">
<ele>2871.840016</ele>
<time>2014-08-18T21:50:13Z</time>
<desc><![CDATA[lat.=36.755555, lon.=137.756712, Alt.=2871.840016m. Speed=0.000000m/h.]]></desc>
</trkpt>
<trkpt lat="36.755562" lon="137.756712">
<ele>2872.438418</ele>
<time>2014-08-18T21:50:18Z</time>
<desc><![CDATA[lat.=36.755562, lon.=137.756712, Alt.=2872.438418m. Speed=0.000000m/h.]]></desc>
</trkpt>
<trkpt lat="36.755587" lon="137.756704">
<ele>2875.370656</ele>
<time>2014-08-18T21:50:23Z</time>
<desc><![CDATA[lat.=36.755587, lon.=137.756704, Alt.=2875.370656m. Speed=1.000000m/h.]]></desc>
</trkpt>
<trkpt lat="36.755631" lon="137.756689">
<ele>2877.176427</ele>
<time>2014-08-18T21:50:28Z</time>
<desc><![CDATA[lat.=36.755631, lon.=137.756689, Alt.=2877.176427m. Speed=2.000000m/h.]]></desc>
</trkpt>
<trkpt lat="36.755661" lon="137.756674">
<ele>2877.785394</ele>
<time>2014-08-18T21:50:33Z</time>
<desc><![CDATA[lat.=36.755661, lon.=137.756674, Alt.=2877.785394m. Speed=2.000000m/h.]]></desc>
</trkpt>
<trkpt lat="36.755690" lon="137.756658">
<ele>2880.124516</ele>
<time>2014-08-18T21:50:38Z</time>
<desc><![CDATA[lat.=36.755690, lon.=137.756658, Alt.=2880.124516m. Speed=2.000000m/h.]]></desc>
</trkpt>
<trkpt lat="36.755730" lon="137.756651">
<ele>2880.793264</ele>
<time>2014-08-18T21:50:43Z</time>
<desc><![CDATA[lat.=36.755730, lon.=137.756651, Alt.=2880.793264m. Speed=2.000000m/h.]]></desc>
</trkpt>
<trkpt lat="36.755752" lon="137.756651">
<ele>2882.588479</ele>
<time>2014-08-18T21:50:48Z</time>
<desc><![CDATA[lat.=36.755752, lon.=137.756651, Alt.=2882.588479m. Speed=2.000000m/h.]]></desc>
</trkpt>
<trkpt lat="36.755796" lon="137.756686">
<ele>2879.367287</ele>
<time>2014-08-18T21:50:53Z</time>
<desc><![CDATA[lat.=36.755796, lon.=137.756686, Alt.=2879.367287m. Speed=2.000000m/h.]]></desc>
</trkpt>
<trkpt lat="36.755840" lon="137.756687">
<ele>2879.497417</ele>
<time>2014-08-18T21:50:58Z</time>
<desc><![CDATA[lat.=36.755840, lon.=137.756687, Alt.=2879.497417m. Speed=2.000000m/h.]]></desc>
</trkpt>
<trkpt lat="36.755884" lon="137.756688">
<ele>2881.357704</ele>
<time>2014-08-18T21:51:03Z</time>
<desc><![CDATA[lat.=36.755884, lon.=137.756688, Alt.=2881.357704m. Speed=2.000000m/h.]]></desc>
</trkpt>
<trkpt lat="36.755898" lon="137.756704">
<ele>2882.609012</ele>
<time>2014-08-18T21:51:08Z</time>
<desc><![CDATA[lat.=36.755898, lon.=137.756704, Alt.=2882.609012m. Speed=2.000000m/h.]]></desc>
</trkpt>
<trkpt lat="36.755919" lon="137.756736">
<ele>2882.783070</ele>
<time>2014-08-18T21:51:13Z</time>
<desc><![CDATA[lat.=36.755919, lon.=137.756736, Alt.=2882.783070m. Speed=2.000000m/h.]]></desc>
</trkpt>
<trkpt lat="36.755945" lon="137.756745">
<ele>2882.309515</ele>
<time>2014-08-18T21:51:18Z</time>
<desc><![CDATA[lat.=36.755945, lon.=137.756745, Alt.=2882.309515m. Speed=2.000000m/h.]]></desc>
</trkpt>
<trkpt lat="36.755963" lon="137.756769">
<ele>2883.022202</ele>
<time>2014-08-18T21:51:23Z</time>
<desc><![CDATA[lat.=36.755963, lon.=137.756769, Alt.=2883.022202m. Speed=2.000000m/h.]]></desc>
</trkpt>
<trkpt lat="36.755976" lon="137.756801">
<ele>2884.328010</ele>
<time>2014-08-18T21:51:28Z</time>
<desc><![CDATA[lat.=36.755976, lon.=137.756801, Alt.=2884.328010m. Speed=2.000000m/h.]]></desc>
</trkpt>
<trkpt lat="36.755983" lon="137.756833">
<ele>2885.035411</ele>
<time>2014-08-18T21:51:33Z</time>
<desc><![CDATA[lat.=36.755983, lon.=137.756833, Alt.=2885.035411m. Speed=2.000000m/h.]]></desc>
</trkpt>
<trkpt lat="36.756001" lon="137.756857">
<ele>2885.748101</ele>
<time>2014-08-18T21:51:38Z</time>
<desc><![CDATA[lat.=36.756001, lon.=137.756857, Alt.=2885.748101m. Speed=2.000000m/h.]]></desc>
</trkpt>
<trkpt lat="36.756034" lon="137.756882">
<ele>2884.197306</ele>
<time>2014-08-18T21:51:43Z</time>
<desc><![CDATA[lat.=36.756034, lon.=137.756882, Alt.=2884.197306m. Speed=2.000000m/h.]]></desc>
</trkpt>
<trkpt lat="36.756062" lon="137.756899">
<ele>2884.915288</ele>
<time>2014-08-18T21:51:48Z</time>
<desc><![CDATA[lat.=36.756062, lon.=137.756899, Alt.=2884.915288m. Speed=2.000000m/h.]]></desc>
</trkpt>
<trkpt lat="36.756088" lon="137.756924">
<ele>2884.496240</ele>
<time>2014-08-18T21:51:53Z</time>
<desc><![CDATA[lat.=36.756088, lon.=137.756924, Alt.=2884.496240m. Speed=2.000000m/h.]]></desc>
</trkpt>
<trkpt lat="36.756109" lon="137.756924">
<ele>2886.291470</ele>
<time>2014-08-18T21:51:58Z</time>
<desc><![CDATA[lat.=36.756109, lon.=137.756924, Alt.=2886.291470m. Speed=2.000000m/h.]]></desc>
</trkpt>
<trkpt lat="36.756123" lon="137.756940">
<ele>2887.542789</ele>
<time>2014-08-18T21:52:03Z</time>
<desc><![CDATA[lat.=36.756123, lon.=137.756940, Alt.=2887.542789m. Speed=2.000000m/h.]]></desc>
</trkpt>
<trkpt lat="36.756149" lon="137.756948">
<ele>2888.799398</ele>
<time>2014-08-18T21:52:08Z</time>
<desc><![CDATA[lat.=36.756149, lon.=137.756948, Alt.=2888.799398m. Speed=2.000000m/h.]]></desc>
</trkpt>
<trkpt lat="36.756155" lon="137.756980">
<ele>2889.506808</ele>
<time>2014-08-18T21:52:13Z</time>
<desc><![CDATA[lat.=36.756155, lon.=137.756980, Alt.=2889.506808m. Speed=2.000000m/h.]]></desc>
</trkpt>
<trkpt lat="36.756173" lon="137.756988">
<ele>2890.165008</ele>
<time>2014-08-18T21:52:18Z</time>
<desc><![CDATA[lat.=36.756173, lon.=137.756988, Alt.=2890.165008m. Speed=2.000000m/h.]]></desc>
</trkpt>
<trkpt lat="36.756202" lon="137.757004">
<ele>2890.883001</ele>
<time>2014-08-18T21:52:23Z</time>
<desc><![CDATA[lat.=36.756202, lon.=137.757004, Alt.=2890.883001m. Speed=2.000000m/h.]]></desc>
</trkpt>
<trkpt lat="36.756209" lon="137.757020">
<ele>2891.535912</ele>
<time>2014-08-18T21:52:28Z</time>
<desc><![CDATA[lat.=36.756209, lon.=137.757020, Alt.=2891.535912m. Speed=2.000000m/h.]]></desc>
</trkpt>
<trkpt lat="36.756228" lon="137.757014">
<ele>2890.409463</ele>
<time>2014-08-18T21:52:33Z</time>
<desc><![CDATA[lat.=36.756228, lon.=137.757014, Alt.=2890.409463m. Speed=1.000000m/h.]]></desc>
</trkpt>
<trkpt lat="36.756257" lon="137.757014">
<ele>2891.072958</ele>
<time>2014-08-18T21:52:38Z</time>
<desc><![CDATA[lat.=36.756257, lon.=137.757014, Alt.=2891.072958m. Speed=2.000000m/h.]]></desc>
</trkpt>
<trkpt lat="36.756256" lon="137.757046">
<ele>2891.181959</ele>
<time>2014-08-18T21:52:43Z</time>
<desc><![CDATA[lat.=36.756256, lon.=137.757046, Alt.=2891.181959m. Speed=2.000000m/h.]]></desc>
</trkpt>
<trkpt lat="36.756268" lon="137.757023">
<ele>2891.132750</ele>
<time>2014-08-18T21:52:48Z</time>
<desc><![CDATA[lat.=36.756268, lon.=137.757023, Alt.=2891.132750m. Speed=2.000000m/h.]]></desc>
</trkpt>
<trkpt lat="36.756286" lon="137.757031">
<ele>2891.790955</ele>
<time>2014-08-18T21:52:53Z</time>
<desc><![CDATA[lat.=36.756286, lon.=137.757031, Alt.=2891.790955m. Speed=2.000000m/h.]]></desc>
</trkpt>
<trkpt lat="36.756307" lon="137.757047">
<ele>2893.640694</ele>
<time>2014-08-18T21:52:58Z</time>
<desc><![CDATA[lat.=36.756307, lon.=137.757047, Alt.=2893.640694m. Speed=2.000000m/h.]]></desc>
</trkpt>
<trkpt lat="36.756325" lon="137.757072">
<ele>2892.623250</ele>
<time>2014-08-18T21:53:03Z</time>
<desc><![CDATA[lat.=36.756325, lon.=137.757072, Alt.=2892.623250m. Speed=1.000000m/h.]]></desc>
</trkpt>
<trkpt lat="36.756310" lon="137.757087">
<ele>2893.211078</ele>
<time>2014-08-18T21:53:08Z</time>
<desc><![CDATA[lat.=36.756310, lon.=137.757087, Alt.=2893.211078m. Speed=1.000000m/h.]]></desc>
</trkpt>
<trkpt lat="36.756343" lon="137.757079">
<ele>2895.011610</ele>
<time>2014-08-18T21:53:13Z</time>
<desc><![CDATA[lat.=36.756343, lon.=137.757079, Alt.=2895.011610m. Speed=2.000000m/h.]]></desc>
</trkpt>
<trkpt lat="36.756361" lon="137.757072">
<ele>2895.615316</ele>
<time>2014-08-18T21:53:18Z</time>
<desc><![CDATA[lat.=36.756361, lon.=137.757072, Alt.=2895.615316m. Speed=2.000000m/h.]]></desc>
</trkpt>
<trkpt lat="36.756369" lon="137.757056">
<ele>2896.159229</ele>
<time>2014-08-18T21:53:23Z</time>
<desc><![CDATA[lat.=36.756369, lon.=137.757056, Alt.=2896.159229m. Speed=2.000000m/h.]]></desc>
</trkpt>
<trkpt lat="36.756380" lon="137.757096">
<ele>2894.597875</ele>
<time>2014-08-18T21:53:28Z</time>
<desc><![CDATA[lat.=36.756380, lon.=137.757096, Alt.=2894.597875m. Speed=2.000000m/h.]]></desc>
</trkpt>
<trkpt lat="36.756408" lon="137.757096">
<ele>2896.991531</ele>
<time>2014-08-18T21:53:33Z</time>
<desc><![CDATA[lat.=36.756408, lon.=137.757096, Alt.=2896.991531m. Speed=1.000000m/h.]]></desc>
</trkpt>
<trkpt lat="36.756423" lon="137.757113">
<ele>2896.512710</ele>
<time>2014-08-18T21:53:38Z</time>
<desc><![CDATA[lat.=36.756423, lon.=137.757113, Alt.=2896.512710m. Speed=2.000000m/h.]]></desc>
</trkpt>
<trkpt lat="36.756422" lon="137.757145">
<ele>2896.621714</ele>
<time>2014-08-18T21:53:43Z</time>
<desc><![CDATA[lat.=36.756422, lon.=137.757145, Alt.=2896.621714m. Speed=1.000000m/h.]]></desc>
</trkpt>
<trkpt lat="36.756433" lon="137.757153">
<ele>2896.681511</ele>
<time>2014-08-18T21:53:48Z</time>
<desc><![CDATA[lat.=36.756433, lon.=137.757153, Alt.=2896.681511m. Speed=1.000000m/h.]]></desc>
</trkpt>
<trkpt lat="36.756440" lon="137.757169">
<ele>2897.334429</ele>
<time>2014-08-18T21:53:53Z</time>
<desc><![CDATA[lat.=36.756440, lon.=137.757169, Alt.=2897.334429m. Speed=1.000000m/h.]]></desc>
</trkpt>
<trkpt lat="36.756458" lon="137.757193">
<ele>2898.047145</ele>
<time>2014-08-18T21:53:58Z</time>
<desc><![CDATA[lat.=36.756458, lon.=137.757193, Alt.=2898.047145m. Speed=1.000000m/h.]]></desc>
</trkpt>
<trkpt lat="36.756494" lon="137.757178">
<ele>2899.254566</ele>
<time>2014-08-18T21:54:03Z</time>
<desc><![CDATA[lat.=36.756494, lon.=137.757178, Alt.=2899.254566m. Speed=2.000000m/h.]]></desc>
</trkpt>
<trkpt lat="36.756501" lon="137.757194">
<ele>2899.907485</ele>
<time>2014-08-18T21:54:08Z</time>
<desc><![CDATA[lat.=36.756501, lon.=137.757194, Alt.=2899.907485m. Speed=1.000000m/h.]]></desc>
</trkpt>
<trkpt lat="36.756508" lon="137.757194">
<ele>2900.505900</ele>
<time>2014-08-18T21:54:13Z</time>
<desc><![CDATA[lat.=36.756508, lon.=137.757194, Alt.=2900.505900m. Speed=1.000000m/h.]]></desc>
</trkpt>
<trkpt lat="36.756520" lon="137.757170">
<ele>2900.456693</ele>
<time>2014-08-18T21:54:18Z</time>
<desc><![CDATA[lat.=36.756520, lon.=137.757170, Alt.=2900.456693m. Speed=1.000000m/h.]]></desc>
</trkpt>
<trkpt lat="36.756549" lon="137.757188">
<ele>2899.444556</ele>
<time>2014-08-18T21:54:23Z</time>
<desc><![CDATA[lat.=36.756549, lon.=137.757188, Alt.=2899.444556m. Speed=2.000000m/h.]]></desc>
</trkpt>
<trkpt lat="36.756552" lon="137.757211">
<ele>2900.690596</ele>
<time>2014-08-18T21:54:28Z</time>
<desc><![CDATA[lat.=36.756552, lon.=137.757211, Alt.=2900.690596m. Speed=2.000000m/h.]]></desc>
</trkpt>
<trkpt lat="36.756537" lon="137.757225">
<ele>2903.008571</ele>
<time>2014-08-18T21:54:33Z</time>
<desc><![CDATA[lat.=36.756537, lon.=137.757225, Alt.=2903.008571m. Speed=2.000000m/h.]]></desc>
</trkpt>
<trkpt lat="36.756569" lon="137.757249">
<ele>2904.918125</ele>
<time>2014-08-18T21:54:38Z</time>
<desc><![CDATA[lat.=36.756569, lon.=137.757249, Alt.=2904.918125m. Speed=2.000000m/h.]]></desc>
</trkpt>
<trkpt lat="36.756576" lon="137.757233">
<ele>2905.462037</ele>
<time>2014-08-18T21:54:43Z</time>
<desc><![CDATA[lat.=36.756576, lon.=137.757233, Alt.=2905.462037m. Speed=2.000000m/h.]]></desc>
</trkpt>
<trkpt lat="36.756598" lon="137.757249">
<ele>2907.311792</ele>
<time>2014-08-18T21:54:48Z</time>
<desc><![CDATA[lat.=36.756598, lon.=137.757249, Alt.=2907.311792m. Speed=2.000000m/h.]]></desc>
</trkpt>
<trkpt lat="36.756597" lon="137.757264">
<ele>2909.096448</ele>
<time>2014-08-18T21:54:53Z</time>
<desc><![CDATA[lat.=36.756597, lon.=137.757264, Alt.=2909.096448m. Speed=1.000000m/h.]]></desc>
</trkpt>
<trkpt lat="36.756611" lon="137.757297">
<ele>2908.672141</ele>
<time>2014-08-18T21:54:58Z</time>
<desc><![CDATA[lat.=36.756611, lon.=137.757297, Alt.=2908.672141m. Speed=2.000000m/h.]]></desc>
</trkpt>
<trkpt lat="36.756607" lon="137.757321">
<ele>2907.589615</ele>
<time>2014-08-18T21:55:03Z</time>
<desc><![CDATA[lat.=36.756607, lon.=137.757321, Alt.=2907.589615m. Speed=2.000000m/h.]]></desc>
</trkpt>
<trkpt lat="36.756621" lon="137.757337">
<ele>2908.840956</ele>
<time>2014-08-18T21:55:08Z</time>
<desc><![CDATA[lat.=36.756621, lon.=137.757337, Alt.=2908.840956m. Speed=1.000000m/h.]]></desc>
</trkpt>
<trkpt lat="36.756654" lon="137.757329">
<ele>2910.641505</ele>
<time>2014-08-18T21:55:13Z</time>
<desc><![CDATA[lat.=36.756654, lon.=137.757329, Alt.=2910.641505m. Speed=2.000000m/h.]]></desc>
</trkpt>
<trkpt lat="36.756661" lon="137.757345">
<ele>2911.294429</ele>
<time>2014-08-18T21:55:18Z</time>
<desc><![CDATA[lat.=36.756661, lon.=137.757345, Alt.=2911.294429m. Speed=2.000000m/h.]]></desc>
</trkpt>
<trkpt lat="36.756653" lon="137.757360">
<ele>2912.480670</ele>
<time>2014-08-18T21:55:23Z</time>
<desc><![CDATA[lat.=36.756653, lon.=137.757360, Alt.=2912.480670m. Speed=1.000000m/h.]]></desc>
</trkpt>
<trkpt lat="36.756663" lon="137.757384">
<ele>2912.594981</ele>
<time>2014-08-18T21:55:28Z</time>
<desc><![CDATA[lat.=36.756663, lon.=137.757384, Alt.=2912.594981m. Speed=1.000000m/h.]]></desc>
</trkpt>
<trkpt lat="36.756659" lon="137.757407">
<ele>2913.242609</ele>
<time>2014-08-18T21:55:33Z</time>
<desc><![CDATA[lat.=36.756659, lon.=137.757407, Alt.=2913.242609m. Speed=2.000000m/h.]]></desc>
</trkpt>
<trkpt lat="36.756666" lon="137.757440">
<ele>2912.219892</ele>
<time>2014-08-18T21:55:38Z</time>
<desc><![CDATA[lat.=36.756666, lon.=137.757440, Alt.=2912.219892m. Speed=1.000000m/h.]]></desc>
</trkpt>
<trkpt lat="36.756673" lon="137.757472">
<ele>2911.197175</ele>
<time>2014-08-18T21:55:43Z</time>
<desc><![CDATA[lat.=36.756673, lon.=137.757472, Alt.=2911.197175m. Speed=1.000000m/h.]]></desc>
</trkpt>
<trkpt lat="36.756706" lon="137.757481">
<ele>2911.322084</ele>
<time>2014-08-18T21:55:48Z</time>
<desc><![CDATA[lat.=36.756706, lon.=137.757481, Alt.=2911.322084m. Speed=2.000000m/h.]]></desc>
</trkpt>
<trkpt lat="36.756734" lon="137.757498">
<ele>2912.040117</ele>
<time>2014-08-18T21:55:53Z</time>
<desc><![CDATA[lat.=36.756734, lon.=137.757498, Alt.=2912.040117m. Speed=2.000000m/h.]]></desc>
</trkpt>
<trkpt lat="36.756742" lon="137.757482">
<ele>2912.584026</ele>
<time>2014-08-18T21:55:58Z</time>
<desc><![CDATA[lat.=36.756742, lon.=137.757482, Alt.=2912.584026m. Speed=1.000000m/h.]]></desc>
</trkpt>
<trkpt lat="36.756779" lon="137.757483">
<ele>2912.115819</ele>
<time>2014-08-18T21:56:03Z</time>
<desc><![CDATA[lat.=36.756779, lon.=137.757483, Alt.=2912.115819m. Speed=2.000000m/h.]]></desc>
</trkpt>
<trkpt lat="36.756786" lon="137.757499">
<ele>2912.768748</ele>
<time>2014-08-18T21:56:08Z</time>
<desc><![CDATA[lat.=36.756786, lon.=137.757499, Alt.=2912.768748m. Speed=2.000000m/h.]]></desc>
</trkpt>
<trkpt lat="36.756811" lon="137.757508">
<ele>2914.025396</ele>
<time>2014-08-18T21:56:13Z</time>
<desc><![CDATA[lat.=36.756811, lon.=137.757508, Alt.=2914.025396m. Speed=2.000000m/h.]]></desc>
</trkpt>
<trkpt lat="36.756789" lon="137.757507">
<ele>2913.960288</ele>
<time>2014-08-18T21:56:18Z</time>
<desc><![CDATA[lat.=36.756789, lon.=137.757507, Alt.=2913.960288m. Speed=1.000000m/h.]]></desc>
</trkpt>
<trkpt lat="36.756822" lon="137.757483">
<ele>2915.706337</ele>
<time>2014-08-18T21:56:23Z</time>
<desc><![CDATA[lat.=36.756822, lon.=137.757483, Alt.=2915.706337m. Speed=2.000000m/h.]]></desc>
</trkpt>
<trkpt lat="36.756829" lon="137.757500">
<ele>2914.629115</ele>
<time>2014-08-18T21:56:28Z</time>
<desc><![CDATA[lat.=36.756829, lon.=137.757500, Alt.=2914.629115m. Speed=2.000000m/h.]]></desc>
</trkpt>
<trkpt lat="36.756851" lon="137.757501">
<ele>2914.694225</ele>
<time>2014-08-18T21:56:33Z</time>
<desc><![CDATA[lat.=36.756851, lon.=137.757501, Alt.=2914.694225m. Speed=2.000000m/h.]]></desc>
</trkpt>
<trkpt lat="36.756899" lon="137.757494">
<ele>2915.961478</ele>
<time>2014-08-18T21:56:38Z</time>
<desc><![CDATA[lat.=36.756899, lon.=137.757494, Alt.=2915.961478m. Speed=2.000000m/h.]]></desc>
</trkpt>
<trkpt lat="36.756895" lon="137.757518">
<ele>2914.878956</ele>
<time>2014-08-18T21:56:43Z</time>
<desc><![CDATA[lat.=36.756895, lon.=137.757518, Alt.=2914.878956m. Speed=2.000000m/h.]]></desc>
</trkpt>
<trkpt lat="36.756909" lon="137.757534">
<ele>2916.130308</ele>
<time>2014-08-18T21:56:48Z</time>
<desc><![CDATA[lat.=36.756909, lon.=137.757534, Alt.=2916.130308m. Speed=2.000000m/h.]]></desc>
</trkpt>
<trkpt lat="36.756935" lon="137.757527">
<ele>2915.602301</ele>
<time>2014-08-18T21:56:53Z</time>
<desc><![CDATA[lat.=36.756935, lon.=137.757527, Alt.=2915.602301m. Speed=2.000000m/h.]]></desc>
</trkpt>
<trkpt lat="36.756969" lon="137.757520">
<ele>2915.672718</ele>
<time>2014-08-18T21:56:58Z</time>
<desc><![CDATA[lat.=36.756969, lon.=137.757520, Alt.=2915.672718m. Speed=2.000000m/h.]]></desc>
</trkpt>
<trkpt lat="36.757001" lon="137.757513">
<ele>2917.473288</ele>
<time>2014-08-18T21:57:03Z</time>
<desc><![CDATA[lat.=36.757001, lon.=137.757513, Alt.=2917.473288m. Speed=2.000000m/h.]]></desc>
</trkpt>
<trkpt lat="36.757008" lon="137.757529">
<ele>2918.126220</ele>
<time>2014-08-18T21:57:08Z</time>
<desc><![CDATA[lat.=36.757008, lon.=137.757529, Alt.=2918.126220m. Speed=2.000000m/h.]]></desc>
</trkpt>
<trkpt lat="36.757018" lon="137.757552">
<ele>2919.970695</ele>
<time>2014-08-18T21:57:13Z</time>
<desc><![CDATA[lat.=36.757018, lon.=137.757552, Alt.=2919.970695m. Speed=2.000000m/h.]]></desc>
</trkpt>
<trkpt lat="36.757025" lon="137.757551">
<ele>2922.299269</ele>
<time>2014-08-18T21:57:18Z</time>
<desc><![CDATA[lat.=36.757025, lon.=137.757551, Alt.=2922.299269m. Speed=2.000000m/h.]]></desc>
</trkpt>
<trkpt lat="36.757026" lon="137.757552">
<ele>2920.569117</ele>
<time>2014-08-18T21:57:23Z</time>
<desc><![CDATA[lat.=36.757026, lon.=137.757552, Alt.=2920.569117m. Speed=2.000000m/h.]]></desc>
</trkpt>
<trkpt lat="36.757037" lon="137.757545">
<ele>2920.574421</ele>
<time>2014-08-18T21:57:28Z</time>
<desc><![CDATA[lat.=36.757037, lon.=137.757545, Alt.=2920.574421m. Speed=2.000000m/h.]]></desc>
</trkpt>
<trkpt lat="36.757070" lon="137.757538">
<ele>2920.644844</ele>
<time>2014-08-18T21:57:33Z</time>
<desc><![CDATA[lat.=36.757070, lon.=137.757538, Alt.=2920.644844m. Speed=2.000000m/h.]]></desc>
</trkpt>
<trkpt lat="36.757070" lon="137.757554">
<ele>2920.699354</ele>
<time>2014-08-18T21:57:38Z</time>
<desc><![CDATA[lat.=36.757070, lon.=137.757554, Alt.=2920.699354m. Speed=2.000000m/h.]]></desc>
</trkpt>
<trkpt lat="36.757065" lon="137.757560">
<ele>2923.022624</ele>
<time>2014-08-18T21:57:43Z</time>
<desc><![CDATA[lat.=36.757065, lon.=137.757560, Alt.=2923.022624m. Speed=2.000000m/h.]]></desc>
</trkpt>
<trkpt lat="36.757057" lon="137.757591">
<ele>2924.263374</ele>
<time>2014-08-18T21:57:48Z</time>
<desc><![CDATA[lat.=36.757057, lon.=137.757591, Alt.=2924.263374m. Speed=2.000000m/h.]]></desc>
</trkpt>
<trkpt lat="36.757093" lon="137.757592">
<ele>2925.525340</ele>
<time>2014-08-18T21:57:53Z</time>
<desc><![CDATA[lat.=36.757093, lon.=137.757592, Alt.=2925.525340m. Speed=2.000000m/h.]]></desc>
</trkpt>
<trkpt lat="36.757122" lon="137.757592">
<ele>2927.919036</ele>
<time>2014-08-18T21:57:58Z</time>
<desc><![CDATA[lat.=36.757122, lon.=137.757592, Alt.=2927.919036m. Speed=2.000000m/h.]]></desc>
</trkpt>
<trkpt lat="36.757138" lon="137.757578">
<ele>2925.601072</ele>
<time>2014-08-18T21:58:03Z</time>
<desc><![CDATA[lat.=36.757138, lon.=137.757578, Alt.=2925.601072m. Speed=2.000000m/h.]]></desc>
</trkpt>
<trkpt lat="36.757167" lon="137.757563">
<ele>2926.210109</ele>
<time>2014-08-18T21:58:08Z</time>
<desc><![CDATA[lat.=36.757167, lon.=137.757563, Alt.=2926.210109m. Speed=2.000000m/h.]]></desc>
</trkpt>
<trkpt lat="36.757230" lon="137.757557">
<ele>2926.944091</ele>
<time>2014-08-18T21:58:13Z</time>
<desc><![CDATA[lat.=36.757230, lon.=137.757557, Alt.=2926.944091m. Speed=2.000000m/h.]]></desc>
</trkpt>
<trkpt lat="36.757248" lon="137.757549">
<ele>2927.547825</ele>
<time>2014-08-18T21:58:18Z</time>
<desc><![CDATA[lat.=36.757248, lon.=137.757549, Alt.=2927.547825m. Speed=2.000000m/h.]]></desc>
</trkpt>
<trkpt lat="36.757314" lon="137.757566">
<ele>2929.527871</ele>
<time>2014-08-18T21:58:23Z</time>
<desc><![CDATA[lat.=36.757314, lon.=137.757566, Alt.=2929.527871m. Speed=2.000000m/h.]]></desc>
</trkpt>
<trkpt lat="36.757372" lon="137.757585">
<ele>2929.179348</ele>
<time>2014-08-18T21:58:28Z</time>
<desc><![CDATA[lat.=36.757372, lon.=137.757585, Alt.=2929.179348m. Speed=3.000000m/h.]]></desc>
</trkpt>
<trkpt lat="36.757386" lon="137.757584">
<ele>2932.106354</ele>
<time>2014-08-18T21:58:33Z</time>
<desc><![CDATA[lat.=36.757386, lon.=137.757584, Alt.=2932.106354m. Speed=2.000000m/h.]]></desc>
</trkpt>
<trkpt lat="36.757426" lon="137.757593">
<ele>2932.829738</ele>
<time>2014-08-18T21:58:38Z</time>
<desc><![CDATA[lat.=36.757426, lon.=137.757593, Alt.=2932.829738m. Speed=2.000000m/h.]]></desc>
</trkpt>
<trkpt lat="36.757412" lon="137.757576">
<ele>2933.308522</ele>
<time>2014-08-18T21:58:43Z</time>
<desc><![CDATA[lat.=36.757412, lon.=137.757576, Alt.=2933.308522m. Speed=2.000000m/h.]]></desc>
</trkpt>
<trkpt lat="36.757368" lon="137.757575">
<ele>2933.178256</ele>
<time>2014-08-18T21:58:48Z</time>
<desc><![CDATA[lat.=36.757368, lon.=137.757575, Alt.=2933.178256m. Speed=0.000000m/h.]]></desc>
</trkpt>
<trkpt lat="36.757364" lon="137.757582">
<ele>2933.771372</ele>
<time>2014-08-18T21:58:53Z</time>
<desc><![CDATA[lat.=36.757364, lon.=137.757582, Alt.=2933.771372m. Speed=0.000000m/h.]]></desc>
</trkpt>
<trkpt lat="36.757371" lon="137.757582">
<ele>2934.369800</ele>
<time>2014-08-18T21:58:58Z</time>
<desc><![CDATA[lat.=36.757371, lon.=137.757582, Alt.=2934.369800m. Speed=0.000000m/h.]]></desc>
</trkpt>
<trkpt lat="36.757382" lon="137.757575">
<ele>2934.375111</ele>
<time>2014-08-18T21:59:03Z</time>
<desc><![CDATA[lat.=36.757382, lon.=137.757575, Alt.=2934.375111m. Speed=1.000000m/h.]]></desc>
</trkpt>
<trkpt lat="36.757408" lon="137.757600">
<ele>2933.956149</ele>
<time>2014-08-18T21:59:08Z</time>
<desc><![CDATA[lat.=36.757408, lon.=137.757600, Alt.=2933.956149m. Speed=2.000000m/h.]]></desc>
</trkpt>
<trkpt lat="36.757440" lon="137.757624">
<ele>2934.135618</ele>
<time>2014-08-18T21:59:13Z</time>
<desc><![CDATA[lat.=36.757440, lon.=137.757624, Alt.=2934.135618m. Speed=2.000000m/h.]]></desc>
</trkpt>
<trkpt lat="36.757477" lon="137.757625">
<ele>2935.397611</ele>
<time>2014-08-18T21:59:18Z</time>
<desc><![CDATA[lat.=36.757477, lon.=137.757625, Alt.=2935.397611m. Speed=2.000000m/h.]]></desc>
</trkpt>
<trkpt lat="36.757488" lon="137.757634">
<ele>2933.727285</ele>
<time>2014-08-18T21:59:23Z</time>
<desc><![CDATA[lat.=36.757488, lon.=137.757634, Alt.=2933.727285m. Speed=1.000000m/h.]]></desc>
</trkpt>
<trkpt lat="36.757507" lon="137.757611">
<ele>2934.276516</ele>
<time>2014-08-18T21:59:28Z</time>
<desc><![CDATA[lat.=36.757507, lon.=137.757611, Alt.=2934.276516m. Speed=2.000000m/h.]]></desc>
</trkpt>
<trkpt lat="36.757521" lon="137.757611">
<ele>2935.473376</ele>
<time>2014-08-18T21:59:33Z</time>
<desc><![CDATA[lat.=36.757521, lon.=137.757611, Alt.=2935.473376m. Speed=2.000000m/h.]]></desc>
</trkpt>
<trkpt lat="36.757532" lon="137.757635">
<ele>2935.587712</ele>
<time>2014-08-18T21:59:38Z</time>
<desc><![CDATA[lat.=36.757532, lon.=137.757635, Alt.=2935.587712m. Speed=2.000000m/h.]]></desc>
</trkpt>
<trkpt lat="36.757550" lon="137.757628">
<ele>2936.191456</ele>
<time>2014-08-18T21:59:43Z</time>
<desc><![CDATA[lat.=36.757550, lon.=137.757628, Alt.=2936.191456m. Speed=1.000000m/h.]]></desc>
</trkpt>
<trkpt lat="36.757561" lon="137.757620">
<ele>2936.196771</ele>
<time>2014-08-18T21:59:48Z</time>
<desc><![CDATA[lat.=36.757561, lon.=137.757620, Alt.=2936.196771m. Speed=1.000000m/h.]]></desc>
</trkpt>
<trkpt lat="36.757579" lon="137.757628">
<ele>2938.585178</ele>
<time>2014-08-18T21:59:53Z</time>
<desc><![CDATA[lat.=36.757579, lon.=137.757628, Alt.=2938.585178m. Speed=2.000000m/h.]]></desc>
</trkpt>
<trkpt lat="36.757589" lon="137.757651">
<ele>2940.429666</ele>
<time>2014-08-18T21:59:58Z</time>
<desc><![CDATA[lat.=36.757589, lon.=137.757651, Alt.=2940.429666m. Speed=2.000000m/h.]]></desc>
</trkpt>
<trkpt lat="36.757581" lon="137.757666">
<ele>2941.615898</ele>
<time>2014-08-18T22:00:03Z</time>
<desc><![CDATA[lat.=36.757581, lon.=137.757666, Alt.=2941.615898m. Speed=2.000000m/h.]]></desc>
</trkpt>
<trkpt lat="36.757587" lon="137.757698">
<ele>2942.323354</ele>
<time>2014-08-18T22:00:08Z</time>
<desc><![CDATA[lat.=36.757587, lon.=137.757698, Alt.=2942.323354m. Speed=2.000000m/h.]]></desc>
</trkpt>
<trkpt lat="36.757580" lon="137.757698">
<ele>2941.724923</ele>
<time>2014-08-18T22:00:13Z</time>
<desc><![CDATA[lat.=36.757580, lon.=137.757698, Alt.=2941.724923m. Speed=0.000000m/h.]]></desc>
</trkpt>
<trkpt lat="36.757599" lon="137.757691">
<ele>2940.598518</ele>
<time>2014-08-18T22:00:18Z</time>
<desc><![CDATA[lat.=36.757599, lon.=137.757691, Alt.=2940.598518m. Speed=1.000000m/h.]]></desc>
</trkpt>
<trkpt lat="36.757621" lon="137.757707">
<ele>2940.718173</ele>
<time>2014-08-18T22:00:23Z</time>
<desc><![CDATA[lat.=36.757621, lon.=137.757707, Alt.=2940.718173m. Speed=2.000000m/h.]]></desc>
</trkpt>
<trkpt lat="36.757657" lon="137.757724">
<ele>2942.034693</ele>
<time>2014-08-18T22:00:28Z</time>
<desc><![CDATA[lat.=36.757657, lon.=137.757724, Alt.=2942.034693m. Speed=2.000000m/h.]]></desc>
</trkpt>
<trkpt lat="36.757686" lon="137.757708">
<ele>2944.373908</ele>
<time>2014-08-18T22:00:33Z</time>
<desc><![CDATA[lat.=36.757686, lon.=137.757708, Alt.=2944.373908m. Speed=2.000000m/h.]]></desc>
</trkpt>
<trkpt lat="36.757693" lon="137.757724">
<ele>2945.026853</ele>
<time>2014-08-18T22:00:38Z</time>
<desc><![CDATA[lat.=36.757693, lon.=137.757724, Alt.=2945.026853m. Speed=2.000000m/h.]]></desc>
</trkpt>
<trkpt lat="36.757700" lon="137.757724">
<ele>2945.625285</ele>
<time>2014-08-18T22:00:43Z</time>
<desc><![CDATA[lat.=36.757700, lon.=137.757724, Alt.=2945.625285m. Speed=1.000000m/h.]]></desc>
</trkpt>
<trkpt lat="36.757740" lon="137.757733">
<ele>2946.348695</ele>
<time>2014-08-18T22:00:48Z</time>
<desc><![CDATA[lat.=36.757740, lon.=137.757733, Alt.=2946.348695m. Speed=2.000000m/h.]]></desc>
</trkpt>
<trkpt lat="36.757755" lon="137.757750">
<ele>2945.869924</ele>
<time>2014-08-18T22:00:53Z</time>
<desc><![CDATA[lat.=36.757755, lon.=137.757750, Alt.=2945.869924m. Speed=2.000000m/h.]]></desc>
</trkpt>
<trkpt lat="36.757766" lon="137.757758">
<ele>2945.929756</ele>
<time>2014-08-18T22:00:58Z</time>
<desc><![CDATA[lat.=36.757766, lon.=137.757758, Alt.=2945.929756m. Speed=2.000000m/h.]]></desc>
</trkpt>
<trkpt lat="36.757783" lon="137.757765">
<ele>2948.318171</ele>
<time>2014-08-18T22:01:03Z</time>
<desc><![CDATA[lat.=36.757783, lon.=137.757765, Alt.=2948.318171m. Speed=2.000000m/h.]]></desc>
</trkpt>
<trkpt lat="36.757815" lon="137.757789">
<ele>2950.227819</ele>
<time>2014-08-18T22:01:08Z</time>
<desc><![CDATA[lat.=36.757815, lon.=137.757789, Alt.=2950.227819m. Speed=2.000000m/h.]]></desc>
</trkpt>
<trkpt lat="36.757815" lon="137.757804">
<ele>2952.012484</ele>
<time>2014-08-18T22:01:13Z</time>
<desc><![CDATA[lat.=36.757815, lon.=137.757804, Alt.=2952.012484m. Speed=1.000000m/h.]]></desc>
</trkpt>
<trkpt lat="36.757829" lon="137.757805">
<ele>2951.479201</ele>
<time>2014-08-18T22:01:18Z</time>
<desc><![CDATA[lat.=36.757829, lon.=137.757805, Alt.=2951.479201m. Speed=2.000000m/h.]]></desc>
</trkpt>
<trkpt lat="36.757829" lon="137.757821">
<ele>2951.533716</ele>
<time>2014-08-18T22:01:23Z</time>
<desc><![CDATA[lat.=36.757829, lon.=137.757821, Alt.=2951.533716m. Speed=2.000000m/h.]]></desc>
</trkpt>
<trkpt lat="36.757821" lon="137.757837">
<ele>2950.989797</ele>
<time>2014-08-18T22:01:28Z</time>
<desc><![CDATA[lat.=36.757821, lon.=137.757837, Alt.=2950.989797m. Speed=2.000000m/h.]]></desc>
</trkpt>
<trkpt lat="36.757854" lon="137.757845">
<ele>2952.844934</ele>
<time>2014-08-18T22:01:33Z</time>
<desc><![CDATA[lat.=36.757854, lon.=137.757845, Alt.=2952.844934m. Speed=2.000000m/h.]]></desc>
</trkpt>
<trkpt lat="36.757868" lon="137.757862">
<ele>2952.366169</ele>
<time>2014-08-18T22:01:38Z</time>
<desc><![CDATA[lat.=36.757868, lon.=137.757862, Alt.=2952.366169m. Speed=2.000000m/h.]]></desc>
</trkpt>
<trkpt lat="36.757904" lon="137.757878">
<ele>2953.682709</ele>
<time>2014-08-18T22:01:43Z</time>
<desc><![CDATA[lat.=36.757904, lon.=137.757878, Alt.=2953.682709m. Speed=2.000000m/h.]]></desc>
</trkpt>
<trkpt lat="36.757904" lon="137.757894">
<ele>2953.737225</ele>
<time>2014-08-18T22:01:48Z</time>
<desc><![CDATA[lat.=36.757904, lon.=137.757894, Alt.=2953.737225m. Speed=1.000000m/h.]]></desc>
</trkpt>
<trkpt lat="36.757925" lon="137.757910">
<ele>2955.587048</ele>
<time>2014-08-18T22:01:53Z</time>
<desc><![CDATA[lat.=36.757925, lon.=137.757910, Alt.=2955.587048m. Speed=2.000000m/h.]]></desc>
</trkpt>
<trkpt lat="36.757925" lon="137.757926">
<ele>2955.641564</ele>
<time>2014-08-18T22:01:58Z</time>
<desc><![CDATA[lat.=36.757925, lon.=137.757926, Alt.=2955.641564m. Speed=1.000000m/h.]]></desc>
</trkpt>
<trkpt lat="36.757929" lon="137.757934">
<ele>2955.102966</ele>
<time>2014-08-18T22:02:03Z</time>
<desc><![CDATA[lat.=36.757929, lon.=137.757934, Alt.=2955.102966m. Speed=1.000000m/h.]]></desc>
</trkpt>
<trkpt lat="36.757962" lon="137.757943">
<ele>2955.227960</ele>
<time>2014-08-18T22:02:08Z</time>
<desc><![CDATA[lat.=36.757962, lon.=137.757943, Alt.=2955.227960m. Speed=2.000000m/h.]]></desc>
</trkpt>
<trkpt lat="36.757986" lon="137.757967">
<ele>2956.539188</ele>
<time>2014-08-18T22:02:13Z</time>
<desc><![CDATA[lat.=36.757986, lon.=137.757967, Alt.=2956.539188m. Speed=2.000000m/h.]]></desc>
</trkpt>
<trkpt lat="36.758001" lon="137.757967">
<ele>2957.736061</ele>
<time>2014-08-18T22:02:18Z</time>
<desc><![CDATA[lat.=36.758001, lon.=137.757967, Alt.=2957.736061m. Speed=2.000000m/h.]]></desc>
</trkpt>
<trkpt lat="36.758019" lon="137.757975">
<ele>2958.394336</ele>
<time>2014-08-18T22:02:23Z</time>
<desc><![CDATA[lat.=36.758019, lon.=137.757975, Alt.=2958.394336m. Speed=2.000000m/h.]]></desc>
</trkpt>
<trkpt lat="36.758022" lon="137.758000">
<ele>2957.910257</ele>
<time>2014-08-18T22:02:28Z</time>
<desc><![CDATA[lat.=36.758022, lon.=137.758000, Alt.=2957.910257m. Speed=2.000000m/h.]]></desc>
</trkpt>
<trkpt lat="36.758037" lon="137.758016">
<ele>2957.431499</ele>
<time>2014-08-18T22:02:33Z</time>
<desc><![CDATA[lat.=36.758037, lon.=137.758016, Alt.=2957.431499m. Speed=1.000000m/h.]]></desc>
</trkpt>
<trkpt lat="36.758062" lon="137.758025">
<ele>2956.958064</ele>
<time>2014-08-18T22:02:38Z</time>
<desc><![CDATA[lat.=36.758062, lon.=137.758025, Alt.=2956.958064m. Speed=2.000000m/h.]]></desc>
</trkpt>
<trkpt lat="36.758073" lon="137.758033">
<ele>2958.748055</ele>
<time>2014-08-18T22:02:43Z</time>
<desc><![CDATA[lat.=36.758073, lon.=137.758033, Alt.=2958.748055m. Speed=2.000000m/h.]]></desc>
</trkpt>
<trkpt lat="36.758080" lon="137.758049">
<ele>2959.401011</ele>
<time>2014-08-18T22:02:48Z</time>
<desc><![CDATA[lat.=36.758080, lon.=137.758049, Alt.=2959.401011m. Speed=1.000000m/h.]]></desc>
</trkpt>
<trkpt lat="36.758065" lon="137.758048">
<ele>2959.934286</ele>
<time>2014-08-18T22:02:53Z</time>
<desc><![CDATA[lat.=36.758065, lon.=137.758048, Alt.=2959.934286m. Speed=0.000000m/h.]]></desc>
</trkpt>
<trkpt lat="36.758082" lon="137.758072">
<ele>2960.647084</ele>
<time>2014-08-18T22:02:58Z</time>
<desc><![CDATA[lat.=36.758082, lon.=137.758072, Alt.=2960.647084m. Speed=1.000000m/h.]]></desc>
</trkpt>
<trkpt lat="36.758101" lon="137.758080">
<ele>2961.305364</ele>
<time>2014-08-18T22:03:03Z</time>
<desc><![CDATA[lat.=36.758101, lon.=137.758080, Alt.=2961.305364m. Speed=1.000000m/h.]]></desc>
</trkpt>
<trkpt lat="36.758119" lon="137.758088">
<ele>2961.963644</ele>
<time>2014-08-18T22:03:08Z</time>
<desc><![CDATA[lat.=36.758119, lon.=137.758088, Alt.=2961.963644m. Speed=2.000000m/h.]]></desc>
</trkpt>
<trkpt lat="36.758129" lon="137.758113">
<ele>2962.078007</ele>
<time>2014-08-18T22:03:13Z</time>
<desc><![CDATA[lat.=36.758129, lon.=137.758113, Alt.=2962.078007m. Speed=1.000000m/h.]]></desc>
</trkpt>
<trkpt lat="36.758158" lon="137.758113">
<ele>2962.741611</ele>
<time>2014-08-18T22:03:18Z</time>
<desc><![CDATA[lat.=36.758158, lon.=137.758113, Alt.=2962.741611m. Speed=2.000000m/h.]]></desc>
</trkpt>
<trkpt lat="36.758169" lon="137.758122">
<ele>2962.801455</ele>
<time>2014-08-18T22:03:23Z</time>
<desc><![CDATA[lat.=36.758169, lon.=137.758122, Alt.=2962.801455m. Speed=1.000000m/h.]]></desc>
</trkpt>
<trkpt lat="36.758183" lon="137.758137">
<ele>2964.052854</ele>
<time>2014-08-18T22:03:28Z</time>
<desc><![CDATA[lat.=36.758183, lon.=137.758137, Alt.=2964.052854m. Speed=1.000000m/h.]]></desc>
</trkpt>
<trkpt lat="36.758197" lon="137.758153">
<ele>2965.304253</ele>
<time>2014-08-18T22:03:33Z</time>
<desc><![CDATA[lat.=36.758197, lon.=137.758153, Alt.=2965.304253m. Speed=2.000000m/h.]]></desc>
</trkpt>
<trkpt lat="36.758215" lon="137.758177">
<ele>2966.017059</ele>
<time>2014-08-18T22:03:38Z</time>
<desc><![CDATA[lat.=36.758215, lon.=137.758177, Alt.=2966.017059m. Speed=2.000000m/h.]]></desc>
</trkpt>
<trkpt lat="36.758233" lon="137.758186">
<ele>2966.675344</ele>
<time>2014-08-18T22:03:43Z</time>
<desc><![CDATA[lat.=36.758233, lon.=137.758186, Alt.=2966.675344m. Speed=2.000000m/h.]]></desc>
</trkpt>
<trkpt lat="36.758255" lon="137.758202">
<ele>2966.795037</ele>
<time>2014-08-18T22:03:48Z</time>
<desc><![CDATA[lat.=36.758255, lon.=137.758202, Alt.=2966.795037m. Speed=2.000000m/h.]]></desc>
</trkpt>
<trkpt lat="36.758265" lon="137.758226">
<ele>2966.909406</ele>
<time>2014-08-18T22:03:53Z</time>
<desc><![CDATA[lat.=36.758265, lon.=137.758226, Alt.=2966.909406m. Speed=2.000000m/h.]]></desc>
</trkpt>
<trkpt lat="36.758275" lon="137.758250">
<ele>2968.753925</ele>
<time>2014-08-18T22:03:58Z</time>
<desc><![CDATA[lat.=36.758275, lon.=137.758250, Alt.=2968.753925m. Speed=2.000000m/h.]]></desc>
</trkpt>
<trkpt lat="36.758279" lon="137.758274">
<ele>2968.269856</ele>
<time>2014-08-18T22:04:03Z</time>
<desc><![CDATA[lat.=36.758279, lon.=137.758274, Alt.=2968.269856m. Speed=2.000000m/h.]]></desc>
</trkpt>
<trkpt lat="36.758304" lon="137.758283">
<ele>2967.796436</ele>
<time>2014-08-18T22:04:08Z</time>
<desc><![CDATA[lat.=36.758304, lon.=137.758283, Alt.=2967.796436m. Speed=2.000000m/h.]]></desc>
</trkpt>
<trkpt lat="36.758318" lon="137.758299">
<ele>2969.047841</ele>
<time>2014-08-18T22:04:13Z</time>
<desc><![CDATA[lat.=36.758318, lon.=137.758299, Alt.=2969.047841m. Speed=2.000000m/h.]]></desc>
</trkpt>
<trkpt lat="36.758343" lon="137.758323">
<ele>2970.359097</ele>
<time>2014-08-18T22:04:18Z</time>
<desc><![CDATA[lat.=36.758343, lon.=137.758323, Alt.=2970.359097m. Speed=2.000000m/h.]]></desc>
</trkpt>
<trkpt lat="36.758346" lon="137.758346">
<ele>2971.605180</ele>
<time>2014-08-18T22:04:23Z</time>
<desc><![CDATA[lat.=36.758346, lon.=137.758346, Alt.=2971.605180m. Speed=2.000000m/h.]]></desc>
</trkpt>
<trkpt lat="36.758352" lon="137.758361">
<ele>2973.988295</ele>
<time>2014-08-18T22:04:28Z</time>
<desc><![CDATA[lat.=36.758352, lon.=137.758361, Alt.=2973.988295m. Speed=2.000000m/h.]]></desc>
</trkpt>
<trkpt lat="36.758363" lon="137.758385">
<ele>2974.102671</ele>
<time>2014-08-18T22:04:33Z</time>
<desc><![CDATA[lat.=36.758363, lon.=137.758385, Alt.=2974.102671m. Speed=2.000000m/h.]]></desc>
</trkpt>
<trkpt lat="36.758377" lon="137.758402">
<ele>2973.623931</ele>
<time>2014-08-18T22:04:38Z</time>
<desc><![CDATA[lat.=36.758377, lon.=137.758402, Alt.=2973.623931m. Speed=2.000000m/h.]]></desc>
</trkpt>
<trkpt lat="36.758392" lon="137.758434">
<ele>2973.199719</ele>
<time>2014-08-18T22:04:43Z</time>
<desc><![CDATA[lat.=36.758392, lon.=137.758434, Alt.=2973.199719m. Speed=2.000000m/h.]]></desc>
</trkpt>
<trkpt lat="36.758395" lon="137.758475">
<ele>2971.040034</ele>
<time>2014-08-18T22:04:48Z</time>
<desc><![CDATA[lat.=36.758395, lon.=137.758475, Alt.=2971.040034m. Speed=2.000000m/h.]]></desc>
</trkpt>
<trkpt lat="36.758412" lon="137.758466">
<ele>2975.104099</ele>
<time>2014-08-18T22:04:53Z</time>
<desc><![CDATA[lat.=36.758412, lon.=137.758466, Alt.=2975.104099m. Speed=1.000000m/h.]]></desc>
</trkpt>
<trkpt lat="36.758412" lon="137.758449">
<ele>2976.779721</ele>
<time>2014-08-18T22:04:58Z</time>
<desc><![CDATA[lat.=36.758412, lon.=137.758449, Alt.=2976.779721m. Speed=0.000000m/h.]]></desc>
</trkpt>
<trkpt lat="36.758416" lon="137.758442">
<ele>2976.186604</ele>
<time>2014-08-18T22:05:03Z</time>
<desc><![CDATA[lat.=36.758416, lon.=137.758442, Alt.=2976.186604m. Speed=0.000000m/h.]]></desc>
</trkpt>
<trkpt lat="36.758424" lon="137.758442">
<ele>2976.785047</ele>
<time>2014-08-18T22:05:08Z</time>
<desc><![CDATA[lat.=36.758424, lon.=137.758442, Alt.=2976.785047m. Speed=0.000000m/h.]]></desc>
</trkpt>
<trkpt lat="36.758442" lon="137.758450">
<ele>2977.443342</ele>
<time>2014-08-18T22:05:13Z</time>
<desc><![CDATA[lat.=36.758442, lon.=137.758450, Alt.=2977.443342m. Speed=2.000000m/h.]]></desc>
</trkpt>
<trkpt lat="36.758467" lon="137.758458">
<ele>2978.700081</ele>
<time>2014-08-18T22:05:18Z</time>
<desc><![CDATA[lat.=36.758467, lon.=137.758458, Alt.=2978.700081m. Speed=2.000000m/h.]]></desc>
</trkpt>
<trkpt lat="36.758485" lon="137.758466">
<ele>2979.358378</ele>
<time>2014-08-18T22:05:23Z</time>
<desc><![CDATA[lat.=36.758485, lon.=137.758466, Alt.=2979.358378m. Speed=1.000000m/h.]]></desc>
</trkpt>
<trkpt lat="36.758507" lon="137.758483">
<ele>2979.478086</ele>
<time>2014-08-18T22:05:28Z</time>
<desc><![CDATA[lat.=36.758507, lon.=137.758483, Alt.=2979.478086m. Speed=2.000000m/h.]]></desc>
</trkpt>
<trkpt lat="36.758514" lon="137.758483">
<ele>2980.076530</ele>
<time>2014-08-18T22:05:34Z</time>
<desc><![CDATA[lat.=36.758514, lon.=137.758483, Alt.=2980.076530m. Speed=0.000000m/h.]]></desc>
</trkpt>
<trkpt lat="36.758521" lon="137.758483">
<ele>2980.674974</ele>
<time>2014-08-18T22:05:48Z</time>
<desc><![CDATA[lat.=36.758521, lon.=137.758483, Alt.=2980.674974m. Speed=0.000000m/h.]]></desc>
</trkpt>
<trkpt lat="36.758521" lon="137.758499">
<ele>2980.729501</ele>
<time>2014-08-18T22:05:55Z</time>
<desc><![CDATA[lat.=36.758521, lon.=137.758499, Alt.=2980.729501m. Speed=2.000000m/h.]]></desc>
</trkpt>
<trkpt lat="36.758520" lon="137.758515">
<ele>2980.784029</ele>
<time>2014-08-18T22:06:00Z</time>
<desc><![CDATA[lat.=36.758520, lon.=137.758515, Alt.=2980.784029m. Speed=0.000000m/h.]]></desc>
</trkpt>
<trkpt lat="36.758514" lon="137.758499">
<ele>2980.131058</ele>
<time>2014-08-18T22:06:05Z</time>
<desc><![CDATA[lat.=36.758514, lon.=137.758499, Alt.=2980.131058m. Speed=1.000000m/h.]]></desc>
</trkpt>
<trkpt lat="36.758517" lon="137.758507">
<ele>2979.592469</ele>
<time>2014-08-18T22:06:10Z</time>
<desc><![CDATA[lat.=36.758517, lon.=137.758507, Alt.=2979.592469m. Speed=0.000000m/h.]]></desc>
</trkpt>
<trkpt lat="36.758510" lon="137.758507">
<ele>2978.994025</ele>
<time>2014-08-18T22:06:31Z</time>
<desc><![CDATA[lat.=36.758510, lon.=137.758507, Alt.=2978.994025m. Speed=0.000000m/h.]]></desc>
</trkpt>
<trkpt lat="36.758517" lon="137.758507">
<ele>2979.592469</ele>
<time>2014-08-18T22:06:38Z</time>
<desc><![CDATA[lat.=36.758517, lon.=137.758507, Alt.=2979.592469m. Speed=0.000000m/h.]]></desc>
</trkpt>
<trkpt lat="36.758528" lon="137.758500">
<ele>2979.597796</ele>
<time>2014-08-18T22:07:16Z</time>
<desc><![CDATA[lat.=36.758528, lon.=137.758500, Alt.=2979.597796m. Speed=2.000000m/h.]]></desc>
</trkpt>
<trkpt lat="36.758532" lon="137.758508">
<ele>2979.059208</ele>
<time>2014-08-18T22:07:21Z</time>
<desc><![CDATA[lat.=36.758532, lon.=137.758508, Alt.=2979.059208m. Speed=1.000000m/h.]]></desc>
</trkpt>
<trkpt lat="36.758547" lon="137.758509">
<ele>2978.525947</ele>
<time>2014-08-18T22:07:26Z</time>
<desc><![CDATA[lat.=36.758547, lon.=137.758509, Alt.=2978.525947m. Speed=1.000000m/h.]]></desc>
</trkpt>
<trkpt lat="36.758558" lon="137.758501">
<ele>2978.531274</ele>
<time>2014-08-18T22:07:31Z</time>
<desc><![CDATA[lat.=36.758558, lon.=137.758501, Alt.=2978.531274m. Speed=0.000000m/h.]]></desc>
</trkpt>
<trkpt lat="36.758572" lon="137.758501">
<ele>2979.728163</ele>
<time>2014-08-18T22:07:36Z</time>
<desc><![CDATA[lat.=36.758572, lon.=137.758501, Alt.=2979.728163m. Speed=1.000000m/h.]]></desc>
</trkpt>
<trkpt lat="36.758602" lon="137.758519">
<ele>2978.716172</ele>
<time>2014-08-18T22:07:41Z</time>
<desc><![CDATA[lat.=36.758602, lon.=137.758519, Alt.=2978.716172m. Speed=2.000000m/h.]]></desc>
</trkpt>
<trkpt lat="36.758638" lon="137.758536">
<ele>2978.302628</ele>
<time>2014-08-18T22:07:46Z</time>
<desc><![CDATA[lat.=36.758638, lon.=137.758536, Alt.=2978.302628m. Speed=3.000000m/h.]]></desc>
</trkpt>
<trkpt lat="36.758683" lon="137.758522">
<ele>2976.648327</ele>
<time>2014-08-18T22:07:51Z</time>
<desc><![CDATA[lat.=36.758683, lon.=137.758522, Alt.=2976.648327m. Speed=3.000000m/h.]]></desc>
</trkpt>
<trkpt lat="36.758702" lon="137.758516">
<ele>2975.521955</ele>
<time>2014-08-18T22:07:56Z</time>
<desc><![CDATA[lat.=36.758702, lon.=137.758516, Alt.=2975.521955m. Speed=2.000000m/h.]]></desc>
</trkpt>
<trkpt lat="36.758736" lon="137.758493">
<ele>2975.537949</ele>
<time>2014-08-18T22:08:01Z</time>
<desc><![CDATA[lat.=36.758736, lon.=137.758493, Alt.=2975.537949m. Speed=2.000000m/h.]]></desc>
</trkpt>
<trkpt lat="36.758770" lon="137.758471">
<ele>2973.823798</ele>
<time>2014-08-18T22:08:06Z</time>
<desc><![CDATA[lat.=36.758770, lon.=137.758471, Alt.=2973.823798m. Speed=3.000000m/h.]]></desc>
</trkpt>
<trkpt lat="36.758788" lon="137.758464">
<ele>2972.697429</ele>
<time>2014-08-18T22:08:11Z</time>
<desc><![CDATA[lat.=36.758788, lon.=137.758464, Alt.=2972.697429m. Speed=3.000000m/h.]]></desc>
</trkpt>
<trkpt lat="36.758821" lon="137.758473">
<ele>2972.822484</ele>
<time>2014-08-18T22:08:16Z</time>
<desc><![CDATA[lat.=36.758821, lon.=137.758473, Alt.=2972.822484m. Speed=3.000000m/h.]]></desc>
</trkpt>
<trkpt lat="36.758855" lon="137.758467">
<ele>2971.162865</ele>
<time>2014-08-18T22:08:21Z</time>
<desc><![CDATA[lat.=36.758855, lon.=137.758467, Alt.=2971.162865m. Speed=3.000000m/h.]]></desc>
</trkpt>
<trkpt lat="36.758877" lon="137.758452">
<ele>2971.173535</ele>
<time>2014-08-18T22:08:26Z</time>
<desc><![CDATA[lat.=36.758877, lon.=137.758452, Alt.=2971.173535m. Speed=2.000000m/h.]]></desc>
</trkpt>
<trkpt lat="36.758911" lon="137.758446">
<ele>2971.244069</ele>
<time>2014-08-18T22:08:31Z</time>
<desc><![CDATA[lat.=36.758911, lon.=137.758446, Alt.=2971.244069m. Speed=3.000000m/h.]]></desc>
</trkpt>
<trkpt lat="36.758933" lon="137.758431">
<ele>2971.254742</ele>
<time>2014-08-18T22:08:36Z</time>
<desc><![CDATA[lat.=36.758933, lon.=137.758431, Alt.=2971.254742m. Speed=3.000000m/h.]]></desc>
</trkpt>
<trkpt lat="36.758952" lon="137.758391">
<ele>2973.479626</ele>
<time>2014-08-18T22:08:41Z</time>
<desc><![CDATA[lat.=36.758952, lon.=137.758391, Alt.=2973.479626m. Speed=3.000000m/h.]]></desc>
</trkpt>
<trkpt lat="36.758956" lon="137.758384">
<ele>2971.156365</ele>
<time>2014-08-18T22:08:46Z</time>
<desc><![CDATA[lat.=36.758956, lon.=137.758384, Alt.=2971.156365m. Speed=0.000000m/h.]]></desc>
</trkpt>
<trkpt lat="36.758963" lon="137.758384">
<ele>2971.754815</ele>
<time>2014-08-18T22:08:51Z</time>
<desc><![CDATA[lat.=36.758963, lon.=137.758384, Alt.=2971.754815m. Speed=0.000000m/h.]]></desc>
</trkpt>
<trkpt lat="36.758986" lon="137.758385">
<ele>2970.089867</ele>
<time>2014-08-18T22:08:56Z</time>
<desc><![CDATA[lat.=36.758986, lon.=137.758385, Alt.=2970.089867m. Speed=2.000000m/h.]]></desc>
</trkpt>
<trkpt lat="36.759004" lon="137.758394">
<ele>2970.748182</ele>
<time>2014-08-18T22:09:01Z</time>
<desc><![CDATA[lat.=36.759004, lon.=137.758394, Alt.=2970.748182m. Speed=2.000000m/h.]]></desc>
</trkpt>
<trkpt lat="36.759034" lon="137.758395">
<ele>2969.681687</ele>
<time>2014-08-18T22:09:06Z</time>
<desc><![CDATA[lat.=36.759034, lon.=137.758395, Alt.=2969.681687m. Speed=2.000000m/h.]]></desc>
</trkpt>
<trkpt lat="36.759049" lon="137.758380">
<ele>2969.093915</ele>
<time>2014-08-18T22:09:11Z</time>
<desc><![CDATA[lat.=36.759049, lon.=137.758380, Alt.=2969.093915m. Speed=1.000000m/h.]]></desc>
</trkpt>
<trkpt lat="36.759064" lon="137.758382">
<ele>2966.830520</ele>
<time>2014-08-18T22:09:16Z</time>
<desc><![CDATA[lat.=36.759064, lon.=137.758382, Alt.=2966.830520m. Speed=0.000000m/h.]]></desc>
</trkpt>
<trkpt lat="36.759079" lon="137.758367">
<ele>2966.242749</ele>
<time>2014-08-18T22:09:21Z</time>
<desc><![CDATA[lat.=36.759079, lon.=137.758367, Alt.=2966.242749m. Speed=2.000000m/h.]]></desc>
</trkpt>
<trkpt lat="36.759113" lon="137.758361">
<ele>2964.583148</ele>
<time>2014-08-18T22:09:26Z</time>
<desc><![CDATA[lat.=36.759113, lon.=137.758361, Alt.=2964.583148m. Speed=2.000000m/h.]]></desc>
</trkpt>
<trkpt lat="36.759146" lon="137.758355">
<ele>2962.923549</ele>
<time>2014-08-18T22:09:31Z</time>
<desc><![CDATA[lat.=36.759146, lon.=137.758355, Alt.=2962.923549m. Speed=2.000000m/h.]]></desc>
</trkpt>
<trkpt lat="36.759157" lon="137.758346">
<ele>2966.389188</ele>
<time>2014-08-18T22:09:36Z</time>
<desc><![CDATA[lat.=36.759157, lon.=137.758346, Alt.=2966.389188m. Speed=2.000000m/h.]]></desc>
</trkpt>
<trkpt lat="36.759175" lon="137.758355">
<ele>2965.317360</ele>
<time>2014-08-18T22:09:41Z</time>
<desc><![CDATA[lat.=36.759175, lon.=137.758355, Alt.=2965.317360m. Speed=2.000000m/h.]]></desc>
</trkpt>
<trkpt lat="36.759190" lon="137.758371">
<ele>2964.838642</ele>
<time>2014-08-18T22:09:46Z</time>
<desc><![CDATA[lat.=36.759190, lon.=137.758371, Alt.=2964.838642m. Speed=2.000000m/h.]]></desc>
</trkpt>
<trkpt lat="36.759204" lon="137.758388">
<ele>2964.359925</ele>
<time>2014-08-18T22:09:51Z</time>
<desc><![CDATA[lat.=36.759204, lon.=137.758388, Alt.=2964.359925m. Speed=2.000000m/h.]]></desc>
</trkpt>
<trkpt lat="36.759245" lon="137.758382">
<ele>2963.298785</ele>
<time>2014-08-18T22:09:56Z</time>
<desc><![CDATA[lat.=36.759245, lon.=137.758382, Alt.=2963.298785m. Speed=2.000000m/h.]]></desc>
</trkpt>
<trkpt lat="36.759260" lon="137.758398">
<ele>2962.820070</ele>
<time>2014-08-18T22:10:01Z</time>
<desc><![CDATA[lat.=36.759260, lon.=137.758398, Alt.=2962.820070m. Speed=2.000000m/h.]]></desc>
</trkpt>
<trkpt lat="36.759271" lon="137.758392">
<ele>2961.095266</ele>
<time>2014-08-18T22:10:06Z</time>
<desc><![CDATA[lat.=36.759271, lon.=137.758392, Alt.=2961.095266m. Speed=0.000000m/h.]]></desc>
</trkpt>
<trkpt lat="36.759282" lon="137.758384">
<ele>2961.100610</ele>
<time>2014-08-18T22:10:11Z</time>
<desc><![CDATA[lat.=36.759282, lon.=137.758384, Alt.=2961.100610m. Speed=1.000000m/h.]]></desc>
</trkpt>
<trkpt lat="36.759301" lon="137.758377">
<ele>2959.974261</ele>
<time>2014-08-18T22:10:16Z</time>
<desc><![CDATA[lat.=36.759301, lon.=137.758377, Alt.=2959.974261m. Speed=2.000000m/h.]]></desc>
</trkpt>
<trkpt lat="36.759323" lon="137.758395">
<ele>2958.363854</ele>
<time>2014-08-18T22:10:21Z</time>
<desc><![CDATA[lat.=36.759323, lon.=137.758395, Alt.=2958.363854m. Speed=2.000000m/h.]]></desc>
</trkpt>
<trkpt lat="36.759342" lon="137.758387">
<ele>2958.967655</ele>
<time>2014-08-18T22:10:26Z</time>
<desc><![CDATA[lat.=36.759342, lon.=137.758387, Alt.=2958.967655m. Speed=2.000000m/h.]]></desc>
</trkpt>
<trkpt lat="36.759357" lon="137.758356">
<ele>2960.055516</ele>
<time>2014-08-18T22:10:31Z</time>
<desc><![CDATA[lat.=36.759357, lon.=137.758356, Alt.=2960.055516m. Speed=2.000000m/h.]]></desc>
</trkpt>
<trkpt lat="36.759371" lon="137.758372">
<ele>2959.576803</ele>
<time>2014-08-18T22:10:36Z</time>
<desc><![CDATA[lat.=36.759371, lon.=137.758372, Alt.=2959.576803m. Speed=1.000000m/h.]]></desc>
</trkpt>
<trkpt lat="36.759394" lon="137.758374">
<ele>2957.911873</ele>
<time>2014-08-18T22:10:41Z</time>
<desc><![CDATA[lat.=36.759394, lon.=137.758374, Alt.=2957.911873m. Speed=1.000000m/h.]]></desc>
</trkpt>
<trkpt lat="36.759397" lon="137.758398">
<ele>2955.697666</ele>
<time>2014-08-18T22:10:46Z</time>
<desc><![CDATA[lat.=36.759397, lon.=137.758398, Alt.=2955.697666m. Speed=2.000000m/h.]]></desc>
</trkpt>
<trkpt lat="36.759423" lon="137.758408">
<ele>2955.224303</ele>
<time>2014-08-18T22:10:51Z</time>
<desc><![CDATA[lat.=36.759423, lon.=137.758408, Alt.=2955.224303m. Speed=2.000000m/h.]]></desc>
</trkpt>
<trkpt lat="36.759457" lon="137.758385">
<ele>2955.240347</ele>
<time>2014-08-18T22:10:56Z</time>
<desc><![CDATA[lat.=36.759457, lon.=137.758385, Alt.=2955.240347m. Speed=2.000000m/h.]]></desc>
</trkpt>
<trkpt lat="36.759475" lon="137.758410">
<ele>2954.223055</ele>
<time>2014-08-18T22:11:01Z</time>
<desc><![CDATA[lat.=36.759475, lon.=137.758410, Alt.=2954.223055m. Speed=2.000000m/h.]]></desc>
</trkpt>
<trkpt lat="36.759493" lon="137.758435">
<ele>2953.205764</ele>
<time>2014-08-18T22:11:06Z</time>
<desc><![CDATA[lat.=36.759493, lon.=137.758435, Alt.=2953.205764m. Speed=2.000000m/h.]]></desc>
</trkpt>
<trkpt lat="36.759507" lon="137.758435">
<ele>2954.402679</ele>
<time>2014-08-18T22:11:11Z</time>
<desc><![CDATA[lat.=36.759507, lon.=137.758435, Alt.=2954.402679m. Speed=2.000000m/h.]]></desc>
</trkpt>
<trkpt lat="36.759529" lon="137.758451">
<ele>2954.522430</ele>
<time>2014-08-18T22:11:16Z</time>
<desc><![CDATA[lat.=36.759529, lon.=137.758451, Alt.=2954.522430m. Speed=2.000000m/h.]]></desc>
</trkpt>
<trkpt lat="36.759551" lon="137.758468">
<ele>2954.642182</ele>
<time>2014-08-18T22:11:21Z</time>
<desc><![CDATA[lat.=36.759551, lon.=137.758468, Alt.=2954.642182m. Speed=2.000000m/h.]]></desc>
</trkpt>
<trkpt lat="36.759572" lon="137.758501">
<ele>2953.086314</ele>
<time>2014-08-18T22:11:26Z</time>
<desc><![CDATA[lat.=36.759572, lon.=137.758501, Alt.=2953.086314m. Speed=3.000000m/h.]]></desc>
</trkpt>
<trkpt lat="36.759590" lon="137.758526">
<ele>2952.069030</ele>
<time>2014-08-18T22:11:31Z</time>
<desc><![CDATA[lat.=36.759590, lon.=137.758526, Alt.=2952.069030m. Speed=2.000000m/h.]]></desc>
</trkpt>
<trkpt lat="36.759620" lon="137.758527">
<ele>2951.002569</ele>
<time>2014-08-18T22:11:36Z</time>
<desc><![CDATA[lat.=36.759620, lon.=137.758527, Alt.=2951.002569m. Speed=2.000000m/h.]]></desc>
</trkpt>
<trkpt lat="36.759627" lon="137.758527">
<ele>2951.601028</ele>
<time>2014-08-18T22:11:41Z</time>
<desc><![CDATA[lat.=36.759627, lon.=137.758527, Alt.=2951.601028m. Speed=1.000000m/h.]]></desc>
</trkpt>
<trkpt lat="36.759653" lon="137.758552">
<ele>2951.182206</ele>
<time>2014-08-18T22:11:46Z</time>
<desc><![CDATA[lat.=36.759653, lon.=137.758552, Alt.=2951.182206m. Speed=2.000000m/h.]]></desc>
</trkpt>
<trkpt lat="36.759686" lon="137.758562">
<ele>2949.577169</ele>
<time>2014-08-18T22:11:51Z</time>
<desc><![CDATA[lat.=36.759686, lon.=137.758562, Alt.=2949.577169m. Speed=2.000000m/h.]]></desc>
</trkpt>
<trkpt lat="36.759711" lon="137.758587">
<ele>2949.158351</ele>
<time>2014-08-18T22:11:56Z</time>
<desc><![CDATA[lat.=36.759711, lon.=137.758587, Alt.=2949.158351m. Speed=3.000000m/h.]]></desc>
</trkpt>
<trkpt lat="36.759729" lon="137.758612">
<ele>2948.141074</ele>
<time>2014-08-18T22:12:01Z</time>
<desc><![CDATA[lat.=36.759729, lon.=137.758612, Alt.=2948.141074m. Speed=3.000000m/h.]]></desc>
</trkpt>
<trkpt lat="36.759762" lon="137.758653">
<ele>2946.645102</ele>
<time>2014-08-18T22:12:06Z</time>
<desc><![CDATA[lat.=36.759762, lon.=137.758653, Alt.=2946.645102m. Speed=3.000000m/h.]]></desc>
</trkpt>
<trkpt lat="36.759798" lon="137.758671">
<ele>2946.231643</ele>
<time>2014-08-18T22:12:11Z</time>
<desc><![CDATA[lat.=36.759798, lon.=137.758671, Alt.=2946.231643m. Speed=3.000000m/h.]]></desc>
</trkpt>
<trkpt lat="36.759831" lon="137.758695">
<ele>2948.141444</ele>
<time>2014-08-18T22:12:16Z</time>
<desc><![CDATA[lat.=36.759831, lon.=137.758695, Alt.=2948.141444m. Speed=3.000000m/h.]]></desc>
</trkpt>
<trkpt lat="36.759860" lon="137.758712">
<ele>2947.129528</ele>
<time>2014-08-18T22:12:21Z</time>
<desc><![CDATA[lat.=36.759860, lon.=137.758712, Alt.=2947.129528m. Speed=3.000000m/h.]]></desc>
</trkpt>
<trkpt lat="36.759881" lon="137.758729">
<ele>2947.249300</ele>
<time>2014-08-18T22:12:26Z</time>
<desc><![CDATA[lat.=36.759881, lon.=137.758729, Alt.=2947.249300m. Speed=3.000000m/h.]]></desc>
</trkpt>
<trkpt lat="36.759882" lon="137.758729">
<ele>2945.519152</ele>
<time>2014-08-18T22:12:31Z</time>
<desc><![CDATA[lat.=36.759882, lon.=137.758729, Alt.=2945.519152m. Speed=1.000000m/h.]]></desc>
</trkpt>
<trkpt lat="36.759914" lon="137.758754">
<ele>2945.698811</ele>
<time>2014-08-18T22:12:36Z</time>
<desc><![CDATA[lat.=36.759914, lon.=137.758754, Alt.=2945.698811m. Speed=2.000000m/h.]]></desc>
</trkpt>
<trkpt lat="36.759954" lon="137.758779">
<ele>2946.476938</ele>
<time>2014-08-18T22:12:41Z</time>
<desc><![CDATA[lat.=36.759954, lon.=137.758779, Alt.=2946.476938m. Speed=3.000000m/h.]]></desc>
</trkpt>
<trkpt lat="36.759990" lon="137.758812">
<ele>2946.118028</ele>
<time>2014-08-18T22:12:46Z</time>
<desc><![CDATA[lat.=36.759990, lon.=137.758812, Alt.=2946.118028m. Speed=3.000000m/h.]]></desc>
</trkpt>
<trkpt lat="36.760023" lon="137.758821">
<ele>2946.243164</ele>
<time>2014-08-18T22:12:51Z</time>
<desc><![CDATA[lat.=36.760023, lon.=137.758821, Alt.=2946.243164m. Speed=3.000000m/h.]]></desc>
</trkpt>
<trkpt lat="36.760059" lon="137.758854">
<ele>2945.884261</ele>
<time>2014-08-18T22:12:56Z</time>
<desc><![CDATA[lat.=36.760059, lon.=137.758854, Alt.=2945.884261m. Speed=3.000000m/h.]]></desc>
</trkpt>
<trkpt lat="36.760085" lon="137.758879">
<ele>2945.465470</ele>
<time>2014-08-18T22:13:01Z</time>
<desc><![CDATA[lat.=36.760085, lon.=137.758879, Alt.=2945.465470m. Speed=3.000000m/h.]]></desc>
</trkpt>
<trkpt lat="36.760103" lon="137.758904">
<ele>2944.448215</ele>
<time>2014-08-18T22:13:06Z</time>
<desc><![CDATA[lat.=36.760103, lon.=137.758904, Alt.=2944.448215m. Speed=3.000000m/h.]]></desc>
</trkpt>
<trkpt lat="36.760147" lon="137.758922">
<ele>2942.903105</ele>
<time>2014-08-18T22:13:11Z</time>
<desc><![CDATA[lat.=36.760147, lon.=137.758922, Alt.=2942.903105m. Speed=3.000000m/h.]]></desc>
</trkpt>
<trkpt lat="36.760184" lon="137.758924">
<ele>2942.435144</ele>
<time>2014-08-18T22:13:16Z</time>
<desc><![CDATA[lat.=36.760184, lon.=137.758924, Alt.=2942.435144m. Speed=3.000000m/h.]]></desc>
</trkpt>
<trkpt lat="36.760225" lon="137.758918">
<ele>2941.374078</ele>
<time>2014-08-18T22:13:21Z</time>
<desc><![CDATA[lat.=36.760225, lon.=137.758918, Alt.=2941.374078m. Speed=3.000000m/h.]]></desc>
</trkpt>
<trkpt lat="36.760265" lon="137.758927">
<ele>2942.097698</ele>
<time>2014-08-18T22:13:26Z</time>
<desc><![CDATA[lat.=36.760265, lon.=137.758927, Alt.=2942.097698m. Speed=3.000000m/h.]]></desc>
</trkpt>
<trkpt lat="36.760312" lon="137.758937">
<ele>2941.689642</ele>
<time>2014-08-18T22:13:31Z</time>
<desc><![CDATA[lat.=36.760312, lon.=137.758937, Alt.=2941.689642m. Speed=3.000000m/h.]]></desc>
</trkpt>
<trkpt lat="36.760353" lon="137.758962">
<ele>2940.737658</ele>
<time>2014-08-18T22:13:36Z</time>
<desc><![CDATA[lat.=36.760353, lon.=137.758962, Alt.=2940.737658m. Speed=4.000000m/h.]]></desc>
</trkpt>
<trkpt lat="36.760379" lon="137.758955">
<ele>2940.209812</ele>
<time>2014-08-18T22:13:41Z</time>
<desc><![CDATA[lat.=36.760379, lon.=137.758955, Alt.=2940.209812m. Speed=3.000000m/h.]]></desc>
</trkpt>
<trkpt lat="36.760407" lon="137.758989">
<ele>2939.252470</ele>
<time>2014-08-18T22:13:46Z</time>
<desc><![CDATA[lat.=36.760407, lon.=137.758989, Alt.=2939.252470m. Speed=3.000000m/h.]]></desc>
</trkpt>
<trkpt lat="36.760448" lon="137.758998">
<ele>2939.976105</ele>
<time>2014-08-18T22:13:51Z</time>
<desc><![CDATA[lat.=36.760448, lon.=137.758998, Alt.=2939.976105m. Speed=3.000000m/h.]]></desc>
</trkpt>
<trkpt lat="36.760484" lon="137.758998">
<ele>2941.238312</ele>
<time>2014-08-18T22:13:56Z</time>
<desc><![CDATA[lat.=36.760484, lon.=137.758998, Alt.=2941.238312m. Speed=3.000000m/h.]]></desc>
</trkpt>
<trkpt lat="36.760525" lon="137.758992">
<ele>2941.907417</ele>
<time>2014-08-18T22:14:01Z</time>
<desc><![CDATA[lat.=36.760525, lon.=137.758992, Alt.=2941.907417m. Speed=3.000000m/h.]]></desc>
</trkpt>
<trkpt lat="36.760565" lon="137.759001">
<ele>2942.631061</ele>
<time>2014-08-18T22:14:06Z</time>
<desc><![CDATA[lat.=36.760565, lon.=137.759001, Alt.=2942.631061m. Speed=3.000000m/h.]]></desc>
</trkpt>
<trkpt lat="36.760601" lon="137.758986">
<ele>2943.838740</ele>
<time>2014-08-18T22:14:11Z</time>
<desc><![CDATA[lat.=36.760601, lon.=137.758986, Alt.=2943.838740m. Speed=3.000000m/h.]]></desc>
</trkpt>
<trkpt lat="36.760643" lon="137.758947">
<ele>2944.398783</ele>
<time>2014-08-18T22:14:16Z</time>
<desc><![CDATA[lat.=36.760643, lon.=137.758947, Alt.=2944.398783m. Speed=3.000000m/h.]]></desc>
</trkpt>
<trkpt lat="36.760680" lon="137.758917">
<ele>2943.821787</ele>
<time>2014-08-18T22:14:21Z</time>
<desc><![CDATA[lat.=36.760680, lon.=137.758917, Alt.=2943.821787m. Speed=3.000000m/h.]]></desc>
</trkpt>
<trkpt lat="36.760703" lon="137.758902">
<ele>2943.832528</ele>
<time>2014-08-18T22:14:26Z</time>
<desc><![CDATA[lat.=36.760703, lon.=137.758902, Alt.=2943.832528m. Speed=0.000000m/h.]]></desc>
</trkpt>
<trkpt lat="36.760681" lon="137.758901">
<ele>2943.767253</ele>
<time>2014-08-18T22:14:31Z</time>
<desc><![CDATA[lat.=36.760681, lon.=137.758901, Alt.=2943.767253m. Speed=0.000000m/h.]]></desc>
</trkpt>
<trkpt lat="36.760681" lon="137.758902">
<ele>2942.037106</ele>
<time>2014-08-18T22:14:36Z</time>
<desc><![CDATA[lat.=36.760681, lon.=137.758902, Alt.=2942.037106m. Speed=0.000000m/h.]]></desc>
</trkpt>
<trkpt lat="36.760674" lon="137.758902">
<ele>2941.438632</ele>
<time>2014-08-18T22:14:41Z</time>
<desc><![CDATA[lat.=36.760674, lon.=137.758902, Alt.=2941.438632m. Speed=0.000000m/h.]]></desc>
</trkpt>
<trkpt lat="36.760677" lon="137.758894">
<ele>2942.575675</ele>
<time>2014-08-18T22:14:48Z</time>
<desc><![CDATA[lat.=36.760677, lon.=137.758894, Alt.=2942.575675m. Speed=0.000000m/h.]]></desc>
</trkpt>
<trkpt lat="36.760677" lon="137.758893">
<ele>2944.305822</ele>
<time>2014-08-18T22:14:53Z</time>
<desc><![CDATA[lat.=36.760677, lon.=137.758893, Alt.=2944.305822m. Speed=0.000000m/h.]]></desc>
</trkpt>
<trkpt lat="36.760673" lon="137.758885">
<ele>2944.844392</ele>
<time>2014-08-18T22:15:00Z</time>
<desc><![CDATA[lat.=36.760673, lon.=137.758885, Alt.=2944.844392m. Speed=0.000000m/h.]]></desc>
</trkpt>
<trkpt lat="36.760677" lon="137.758893">
<ele>2944.305822</ele>
<time>2014-08-18T22:15:05Z</time>
<desc><![CDATA[lat.=36.760677, lon.=137.758893, Alt.=2944.305822m. Speed=0.000000m/h.]]></desc>
</trkpt>
<trkpt lat="36.760674" lon="137.758886">
<ele>2943.114245</ele>
<time>2014-08-18T22:15:10Z</time>
<desc><![CDATA[lat.=36.760674, lon.=137.758886, Alt.=2943.114245m. Speed=0.000000m/h.]]></desc>
</trkpt>
<trkpt lat="36.760667" lon="137.758886">
<ele>2942.515771</ele>
<time>2014-08-18T22:15:16Z</time>
<desc><![CDATA[lat.=36.760667, lon.=137.758886, Alt.=2942.515771m. Speed=0.000000m/h.]]></desc>
</trkpt>
<trkpt lat="36.760670" lon="137.758894">
<ele>2941.977201</ele>
<time>2014-08-18T22:15:22Z</time>
<desc><![CDATA[lat.=36.760670, lon.=137.758894, Alt.=2941.977201m. Speed=0.000000m/h.]]></desc>
</trkpt>
<trkpt lat="36.760674" lon="137.758886">
<ele>2941.384098</ele>
<time>2014-08-18T22:15:28Z</time>
<desc><![CDATA[lat.=36.760674, lon.=137.758886, Alt.=2941.384098m. Speed=0.000000m/h.]]></desc>
</trkpt>
<trkpt lat="36.760667" lon="137.758886">
<ele>2940.785624</ele>
<time>2014-08-18T22:15:33Z</time>
<desc><![CDATA[lat.=36.760667, lon.=137.758886, Alt.=2940.785624m. Speed=0.000000m/h.]]></desc>
</trkpt>
<trkpt lat="36.760674" lon="137.758886">
<ele>2941.384098</ele>
<time>2014-08-18T22:15:38Z</time>
<desc><![CDATA[lat.=36.760674, lon.=137.758886, Alt.=2941.384098m. Speed=0.000000m/h.]]></desc>
</trkpt>
<trkpt lat="36.760667" lon="137.758886">
<ele>2940.785624</ele>
<time>2014-08-18T22:15:45Z</time>
<desc><![CDATA[lat.=36.760667, lon.=137.758886, Alt.=2940.785624m. Speed=0.000000m/h.]]></desc>
</trkpt>
<trkpt lat="36.760674" lon="137.758886">
<ele>2941.384098</ele>
<time>2014-08-18T22:15:50Z</time>
<desc><![CDATA[lat.=36.760674, lon.=137.758886, Alt.=2941.384098m. Speed=0.000000m/h.]]></desc>
</trkpt>
<trkpt lat="36.760667" lon="137.758886">
<ele>2940.785624</ele>
<time>2014-08-18T22:15:55Z</time>
<desc><![CDATA[lat.=36.760667, lon.=137.758886, Alt.=2940.785624m. Speed=0.000000m/h.]]></desc>
</trkpt>
<trkpt lat="36.760663" lon="137.758878">
<ele>2941.324194</ele>
<time>2014-08-18T22:16:18Z</time>
<desc><![CDATA[lat.=36.760663, lon.=137.758878, Alt.=2941.324194m. Speed=0.000000m/h.]]></desc>
</trkpt>
<trkpt lat="36.760667" lon="137.758886">
<ele>2940.785624</ele>
<time>2014-08-18T22:16:26Z</time>
<desc><![CDATA[lat.=36.760667, lon.=137.758886, Alt.=2940.785624m. Speed=0.000000m/h.]]></desc>
</trkpt>
<trkpt lat="36.760660" lon="137.758886">
<ele>2940.187150</ele>
<time>2014-08-18T22:16:37Z</time>
<desc><![CDATA[lat.=36.760660, lon.=137.758886, Alt.=2940.187150m. Speed=0.000000m/h.]]></desc>
</trkpt>
<trkpt lat="36.760663" lon="137.758895">
<ele>2939.648581</ele>
<time>2014-08-18T22:16:42Z</time>
<desc><![CDATA[lat.=36.760663, lon.=137.758895, Alt.=2939.648581m. Speed=0.000000m/h.]]></desc>
</trkpt>
<trkpt lat="36.760656" lon="137.758895">
<ele>2939.050107</ele>
<time>2014-08-18T22:17:01Z</time>
<desc><![CDATA[lat.=36.760656, lon.=137.758895, Alt.=2939.050107m. Speed=0.000000m/h.]]></desc>
</trkpt>
<trkpt lat="36.760660" lon="137.758887">
<ele>2938.457003</ele>
<time>2014-08-18T22:17:40Z</time>
<desc><![CDATA[lat.=36.760660, lon.=137.758887, Alt.=2938.457003m. Speed=0.000000m/h.]]></desc>
</trkpt>
<trkpt lat="36.760656" lon="137.758895">
<ele>2939.050107</ele>
<time>2014-08-18T22:17:52Z</time>
<desc><![CDATA[lat.=36.760656, lon.=137.758895, Alt.=2939.050107m. Speed=0.000000m/h.]]></desc>
</trkpt>
<trkpt lat="36.760660" lon="137.758903">
<ele>2938.511538</ele>
<time>2014-08-18T22:18:01Z</time>
<desc><![CDATA[lat.=36.760660, lon.=137.758903, Alt.=2938.511538m. Speed=0.000000m/h.]]></desc>
</trkpt>
<trkpt lat="36.760656" lon="137.758895">
<ele>2939.050107</ele>
<time>2014-08-18T22:18:06Z</time>
<desc><![CDATA[lat.=36.760656, lon.=137.758895, Alt.=2939.050107m. Speed=0.000000m/h.]]></desc>
</trkpt>
<trkpt lat="36.760660" lon="137.758903">
<ele>2938.511538</ele>
<time>2014-08-18T22:18:13Z</time>
<desc><![CDATA[lat.=36.760660, lon.=137.758903, Alt.=2938.511538m. Speed=0.000000m/h.]]></desc>
</trkpt>
<trkpt lat="36.760656" lon="137.758895">
<ele>2939.050107</ele>
<time>2014-08-18T22:18:18Z</time>
<desc><![CDATA[lat.=36.760656, lon.=137.758895, Alt.=2939.050107m. Speed=0.000000m/h.]]></desc>
</trkpt>
<trkpt lat="36.760660" lon="137.758903">
<ele>2938.511538</ele>
<time>2014-08-18T22:18:59Z</time>
<desc><![CDATA[lat.=36.760660, lon.=137.758903, Alt.=2938.511538m. Speed=0.000000m/h.]]></desc>
</trkpt>
<trkpt lat="36.760656" lon="137.758895">
<ele>2939.050107</ele>
<time>2014-08-18T22:19:04Z</time>
<desc><![CDATA[lat.=36.760656, lon.=137.758895, Alt.=2939.050107m. Speed=0.000000m/h.]]></desc>
</trkpt>
<trkpt lat="36.760652" lon="137.758902">
<ele>2939.643211</ele>
<time>2014-08-18T22:19:27Z</time>
<desc><![CDATA[lat.=36.760652, lon.=137.758902, Alt.=2939.643211m. Speed=0.000000m/h.]]></desc>
</trkpt>
<trkpt lat="36.760663" lon="137.758895">
<ele>2939.648581</ele>
<time>2014-08-18T22:20:34Z</time>
<desc><![CDATA[lat.=36.760663, lon.=137.758895, Alt.=2939.648581m. Speed=1.000000m/h.]]></desc>
</trkpt>
<trkpt lat="36.760693" lon="137.758895">
<ele>2940.312329</ele>
<time>2014-08-18T22:20:39Z</time>
<desc><![CDATA[lat.=36.760693, lon.=137.758895, Alt.=2940.312329m. Speed=2.000000m/h.]]></desc>
</trkpt>
<trkpt lat="36.760730" lon="137.758881">
<ele>2939.789873</ele>
<time>2014-08-18T22:20:44Z</time>
<desc><![CDATA[lat.=36.760730, lon.=137.758881, Alt.=2939.789873m. Speed=2.000000m/h.]]></desc>
</trkpt>
<trkpt lat="36.760770" lon="137.758874">
<ele>2940.458998</ele>
<time>2014-08-18T22:20:49Z</time>
<desc><![CDATA[lat.=36.760770, lon.=137.758874, Alt.=2940.458998m. Speed=3.000000m/h.]]></desc>
</trkpt>
<trkpt lat="36.760792" lon="137.758858">
<ele>2942.199890</ele>
<time>2014-08-18T22:20:54Z</time>
<desc><![CDATA[lat.=36.760792, lon.=137.758858, Alt.=2942.199890m. Speed=2.000000m/h.]]></desc>
</trkpt>
<trkpt lat="36.760796" lon="137.758867">
<ele>2941.661322</ele>
<time>2014-08-18T22:20:59Z</time>
<desc><![CDATA[lat.=36.760796, lon.=137.758867, Alt.=2941.661322m. Speed=1.000000m/h.]]></desc>
</trkpt>
<trkpt lat="36.760819" lon="137.758836">
<ele>2941.617535</ele>
<time>2014-08-18T22:21:04Z</time>
<desc><![CDATA[lat.=36.760819, lon.=137.758836, Alt.=2941.617535m. Speed=2.000000m/h.]]></desc>
</trkpt>
<trkpt lat="36.760842" lon="137.758822">
<ele>2939.898137</ele>
<time>2014-08-18T22:21:09Z</time>
<desc><![CDATA[lat.=36.760842, lon.=137.758822, Alt.=2939.898137m. Speed=2.000000m/h.]]></desc>
</trkpt>
<trkpt lat="36.760864" lon="137.758823">
<ele>2938.233272</ele>
<time>2014-08-18T22:21:14Z</time>
<desc><![CDATA[lat.=36.760864, lon.=137.758823, Alt.=2938.233272m. Speed=2.000000m/h.]]></desc>
</trkpt>
<trkpt lat="36.760909" lon="137.758825">
<ele>2936.633692</ele>
<time>2014-08-18T22:21:19Z</time>
<desc><![CDATA[lat.=36.760909, lon.=137.758825, Alt.=2936.633692m. Speed=2.000000m/h.]]></desc>
</trkpt>
<trkpt lat="36.760938" lon="137.758827">
<ele>2935.567308</ele>
<time>2014-08-18T22:21:24Z</time>
<desc><![CDATA[lat.=36.760938, lon.=137.758827, Alt.=2935.567308m. Speed=3.000000m/h.]]></desc>
</trkpt>
<trkpt lat="36.760975" lon="137.758828">
<ele>2935.099403</ele>
<time>2014-08-18T22:21:29Z</time>
<desc><![CDATA[lat.=36.760975, lon.=137.758828, Alt.=2935.099403m. Speed=3.000000m/h.]]></desc>
</trkpt>
<trkpt lat="36.761008" lon="137.758838">
<ele>2935.224602</ele>
<time>2014-08-18T22:21:34Z</time>
<desc><![CDATA[lat.=36.761008, lon.=137.758838, Alt.=2935.224602m. Speed=3.000000m/h.]]></desc>
</trkpt>
<trkpt lat="36.761045" lon="137.758839">
<ele>2934.756702</ele>
<time>2014-08-18T22:21:39Z</time>
<desc><![CDATA[lat.=36.761045, lon.=137.758839, Alt.=2934.756702m. Speed=3.000000m/h.]]></desc>
</trkpt>
<trkpt lat="36.761074" lon="137.758841">
<ele>2933.690326</ele>
<time>2014-08-18T22:21:44Z</time>
<desc><![CDATA[lat.=36.761074, lon.=137.758841, Alt.=2933.690326m. Speed=3.000000m/h.]]></desc>
</trkpt>
<trkpt lat="36.761100" lon="137.758850">
<ele>2933.217051</ele>
<time>2014-08-18T22:21:49Z</time>
<desc><![CDATA[lat.=36.761100, lon.=137.758850, Alt.=2933.217051m. Speed=3.000000m/h.]]></desc>
</trkpt>
<trkpt lat="36.761093" lon="137.758850">
<ele>2930.888424</ele>
<time>2014-08-18T22:21:54Z</time>
<desc><![CDATA[lat.=36.761093, lon.=137.758850, Alt.=2930.888424m. Speed=2.000000m/h.]]></desc>
</trkpt>
<trkpt lat="36.761116" lon="137.758835">
<ele>2930.899184</ele>
<time>2014-08-18T22:21:59Z</time>
<desc><![CDATA[lat.=36.761116, lon.=137.758835, Alt.=2930.899184m. Speed=1.000000m/h.]]></desc>
</trkpt>
<trkpt lat="36.761149" lon="137.758829">
<ele>2930.969859</ele>
<time>2014-08-18T22:22:04Z</time>
<desc><![CDATA[lat.=36.761149, lon.=137.758829, Alt.=2930.969859m. Speed=2.000000m/h.]]></desc>
</trkpt>
<trkpt lat="36.761186" lon="137.758846">
<ele>2930.556502</ele>
<time>2014-08-18T22:22:09Z</time>
<desc><![CDATA[lat.=36.761186, lon.=137.758846, Alt.=2930.556502m. Speed=3.000000m/h.]]></desc>
</trkpt>
<trkpt lat="36.761222" lon="137.758847">
<ele>2930.088615</ele>
<time>2014-08-18T22:22:14Z</time>
<desc><![CDATA[lat.=36.761222, lon.=137.758847, Alt.=2930.088615m. Speed=3.000000m/h.]]></desc>
</trkpt>
<trkpt lat="36.761266" lon="137.758849">
<ele>2930.219213</ele>
<time>2014-08-18T22:22:19Z</time>
<desc><![CDATA[lat.=36.761266, lon.=137.758849, Alt.=2930.219213m. Speed=4.000000m/h.]]></desc>
</trkpt>
<trkpt lat="36.761307" lon="137.758859">
<ele>2929.212767</ele>
<time>2014-08-18T22:22:24Z</time>
<desc><![CDATA[lat.=36.761307, lon.=137.758859, Alt.=2929.212767m. Speed=4.000000m/h.]]></desc>
</trkpt>
<trkpt lat="36.761351" lon="137.758861">
<ele>2927.613225</ele>
<time>2014-08-18T22:22:29Z</time>
<desc><![CDATA[lat.=36.761351, lon.=137.758861, Alt.=2927.613225m. Speed=3.000000m/h.]]></desc>
</trkpt>
<trkpt lat="36.761395" lon="137.758878">
<ele>2927.798367</ele>
<time>2014-08-18T22:22:34Z</time>
<desc><![CDATA[lat.=36.761395, lon.=137.758878, Alt.=2927.798367m. Speed=4.000000m/h.]]></desc>
</trkpt>
<trkpt lat="36.761436" lon="137.758888">
<ele>2926.791931</ele>
<time>2014-08-18T22:22:39Z</time>
<desc><![CDATA[lat.=36.761436, lon.=137.758888, Alt.=2926.791931m. Speed=3.000000m/h.]]></desc>
</trkpt>
<trkpt lat="36.761476" lon="137.758898">
<ele>2925.785498</ele>
<time>2014-08-18T22:22:44Z</time>
<desc><![CDATA[lat.=36.761476, lon.=137.758898, Alt.=2925.785498m. Speed=3.000000m/h.]]></desc>
</trkpt>
<trkpt lat="36.761520" lon="137.758916">
<ele>2924.240506</ele>
<time>2014-08-18T22:22:49Z</time>
<desc><![CDATA[lat.=36.761520, lon.=137.758916, Alt.=2924.240506m. Speed=3.000000m/h.]]></desc>
</trkpt>
<trkpt lat="36.761553" lon="137.758925">
<ele>2924.365740</ele>
<time>2014-08-18T22:22:54Z</time>
<desc><![CDATA[lat.=36.761553, lon.=137.758925, Alt.=2924.365740m. Speed=3.000000m/h.]]></desc>
</trkpt>
<trkpt lat="36.761594" lon="137.758935">
<ele>2923.359317</ele>
<time>2014-08-18T22:22:59Z</time>
<desc><![CDATA[lat.=36.761594, lon.=137.758935, Alt.=2923.359317m. Speed=4.000000m/h.]]></desc>
</trkpt>
<trkpt lat="36.761638" lon="137.758936">
<ele>2923.489946</ele>
<time>2014-08-18T22:23:04Z</time>
<desc><![CDATA[lat.=36.761638, lon.=137.758936, Alt.=2923.489946m. Speed=4.000000m/h.]]></desc>
</trkpt>
<trkpt lat="36.761679" lon="137.758915">
<ele>2922.374462</ele>
<time>2014-08-18T22:23:09Z</time>
<desc><![CDATA[lat.=36.761679, lon.=137.758915, Alt.=2922.374462m. Speed=4.000000m/h.]]></desc>
</trkpt>
<trkpt lat="36.761713" lon="137.758876">
<ele>2922.336105</ele>
<time>2014-08-18T22:23:14Z</time>
<desc><![CDATA[lat.=36.761713, lon.=137.758876, Alt.=2922.336105m. Speed=4.000000m/h.]]></desc>
</trkpt>
<trkpt lat="36.761739" lon="137.758854">
<ele>2921.753796</ele>
<time>2014-08-18T22:23:19Z</time>
<desc><![CDATA[lat.=36.761739, lon.=137.758854, Alt.=2921.753796m. Speed=3.000000m/h.]]></desc>
</trkpt>
<trkpt lat="36.761761" lon="137.758886">
<ele>2921.928183</ele>
<time>2014-08-18T22:23:24Z</time>
<desc><![CDATA[lat.=36.761761, lon.=137.758886, Alt.=2921.928183m. Speed=3.000000m/h.]]></desc>
</trkpt>
<trkpt lat="36.761794" lon="137.758879">
<ele>2921.998899</ele>
<time>2014-08-18T22:23:29Z</time>
<desc><![CDATA[lat.=36.761794, lon.=137.758879, Alt.=2921.998899m. Speed=2.000000m/h.]]></desc>
</trkpt>
<trkpt lat="36.761816" lon="137.758881">
<ele>2920.334076</ele>
<time>2014-08-18T22:23:34Z</time>
<desc><![CDATA[lat.=36.761816, lon.=137.758881, Alt.=2920.334076m. Speed=2.000000m/h.]]></desc>
</trkpt>
<trkpt lat="36.761835" lon="137.758889">
<ele>2920.992494</ele>
<time>2014-08-18T22:23:39Z</time>
<desc><![CDATA[lat.=36.761835, lon.=137.758889, Alt.=2920.992494m. Speed=2.000000m/h.]]></desc>
</trkpt>
<trkpt lat="36.761845" lon="137.758914">
<ele>2919.376811</ele>
<time>2014-08-18T22:23:44Z</time>
<desc><![CDATA[lat.=36.761845, lon.=137.758914, Alt.=2919.376811m. Speed=2.000000m/h.]]></desc>
</trkpt>
<trkpt lat="36.761830" lon="137.758946">
<ele>2918.288899</ele>
<time>2014-08-18T22:23:49Z</time>
<desc><![CDATA[lat.=36.761830, lon.=137.758946, Alt.=2918.288899m. Speed=2.000000m/h.]]></desc>
</trkpt>
<trkpt lat="36.761863" lon="137.758937">
<ele>2921.819911</ele>
<time>2014-08-18T22:23:54Z</time>
<desc><![CDATA[lat.=36.761863, lon.=137.758937, Alt.=2921.819911m. Speed=2.000000m/h.]]></desc>
</trkpt>
<trkpt lat="36.761866" lon="137.758929">
<ele>2922.956962</ele>
<time>2014-08-18T22:23:59Z</time>
<desc><![CDATA[lat.=36.761866, lon.=137.758929, Alt.=2922.956962m. Speed=0.000000m/h.]]></desc>
</trkpt>
<trkpt lat="36.761852" lon="137.758929">
<ele>2921.759981</ele>
<time>2014-08-18T22:24:04Z</time>
<desc><![CDATA[lat.=36.761852, lon.=137.758929, Alt.=2921.759981m. Speed=0.000000m/h.]]></desc>
</trkpt>
<trkpt lat="36.761845" lon="137.758929">
<ele>2921.161491</ele>
<time>2014-08-18T22:24:09Z</time>
<desc><![CDATA[lat.=36.761845, lon.=137.758929, Alt.=2921.161491m. Speed=0.000000m/h.]]></desc>
</trkpt>
<trkpt lat="36.761841" lon="137.758937">
<ele>2921.754586</ele>
<time>2014-08-18T22:24:14Z</time>
<desc><![CDATA[lat.=36.761841, lon.=137.758937, Alt.=2921.754586m. Speed=0.000000m/h.]]></desc>
</trkpt>
<trkpt lat="36.761848" lon="137.758937">
<ele>2920.622930</ele>
<time>2014-08-18T22:24:19Z</time>
<desc><![CDATA[lat.=36.761848, lon.=137.758937, Alt.=2920.622930m. Speed=0.000000m/h.]]></desc>
</trkpt>
<trkpt lat="36.761870" lon="137.758970">
<ele>2920.797324</ele>
<time>2014-08-18T22:24:24Z</time>
<desc><![CDATA[lat.=36.761870, lon.=137.758970, Alt.=2920.797324m. Speed=2.000000m/h.]]></desc>
</trkpt>
<trkpt lat="36.761888" lon="137.759011">
<ele>2918.104524</ele>
<time>2014-08-18T22:24:29Z</time>
<desc><![CDATA[lat.=36.761888, lon.=137.759011, Alt.=2918.104524m. Speed=2.000000m/h.]]></desc>
</trkpt>
<trkpt lat="36.761876" lon="137.759035">
<ele>2916.423519</ele>
<time>2014-08-18T22:24:34Z</time>
<desc><![CDATA[lat.=36.761876, lon.=137.759035, Alt.=2916.423519m. Speed=2.000000m/h.]]></desc>
</trkpt>
<trkpt lat="36.761891" lon="137.759052">
<ele>2915.944891</ele>
<time>2014-08-18T22:24:39Z</time>
<desc><![CDATA[lat.=36.761891, lon.=137.759052, Alt.=2915.944891m. Speed=1.000000m/h.]]></desc>
</trkpt>
<trkpt lat="36.761913" lon="137.759069">
<ele>2914.334609</ele>
<time>2014-08-18T22:24:44Z</time>
<desc><![CDATA[lat.=36.761913, lon.=137.759069, Alt.=2914.334609m. Speed=2.000000m/h.]]></desc>
</trkpt>
<trkpt lat="36.761946" lon="137.759078">
<ele>2914.459870</ele>
<time>2014-08-18T22:24:49Z</time>
<desc><![CDATA[lat.=36.761946, lon.=137.759078, Alt.=2914.459870m. Speed=2.000000m/h.]]></desc>
</trkpt>
<trkpt lat="36.761953" lon="137.759095">
<ele>2913.382753</ele>
<time>2014-08-18T22:24:54Z</time>
<desc><![CDATA[lat.=36.761953, lon.=137.759095, Alt.=2913.382753m. Speed=1.000000m/h.]]></desc>
</trkpt>
<trkpt lat="36.761957" lon="137.759087">
<ele>2914.519803</ele>
<time>2014-08-18T22:24:59Z</time>
<desc><![CDATA[lat.=36.761957, lon.=137.759087, Alt.=2914.519803m. Speed=0.000000m/h.]]></desc>
</trkpt>
<trkpt lat="36.761964" lon="137.759087">
<ele>2913.388149</ele>
<time>2014-08-18T22:25:04Z</time>
<desc><![CDATA[lat.=36.761964, lon.=137.759087, Alt.=2913.388149m. Speed=0.000000m/h.]]></desc>
</trkpt>
<trkpt lat="36.761968" lon="137.759079">
<ele>2914.525199</ele>
<time>2014-08-18T22:25:09Z</time>
<desc><![CDATA[lat.=36.761968, lon.=137.759079, Alt.=2914.525199m. Speed=0.000000m/h.]]></desc>
</trkpt>
<trkpt lat="36.761975" lon="137.759079">
<ele>2915.123691</ele>
<time>2014-08-18T22:25:14Z</time>
<desc><![CDATA[lat.=36.761975, lon.=137.759079, Alt.=2915.123691m. Speed=0.000000m/h.]]></desc>
</trkpt>
<trkpt lat="36.761972" lon="137.759071">
<ele>2913.932104</ele>
<time>2014-08-18T22:25:19Z</time>
<desc><![CDATA[lat.=36.761972, lon.=137.759071, Alt.=2913.932104m. Speed=0.000000m/h.]]></desc>
</trkpt>
<trkpt lat="36.761976" lon="137.759080">
<ele>2913.393546</ele>
<time>2014-08-18T22:25:24Z</time>
<desc><![CDATA[lat.=36.761976, lon.=137.759080, Alt.=2913.393546m. Speed=0.000000m/h.]]></desc>
</trkpt>
<trkpt lat="36.761983" lon="137.759080">
<ele>2913.992038</ele>
<time>2014-08-18T22:25:35Z</time>
<desc><![CDATA[lat.=36.761983, lon.=137.759080, Alt.=2913.992038m. Speed=0.000000m/h.]]></desc>
</trkpt>
<trkpt lat="36.761986" lon="137.759071">
<ele>2915.129088</ele>
<time>2014-08-18T22:25:42Z</time>
<desc><![CDATA[lat.=36.761986, lon.=137.759071, Alt.=2915.129088m. Speed=0.000000m/h.]]></desc>
</trkpt>
<trkpt lat="36.761990" lon="137.759064">
<ele>2914.535993</ele>
<time>2014-08-18T22:25:52Z</time>
<desc><![CDATA[lat.=36.761990, lon.=137.759064, Alt.=2914.535993m. Speed=0.000000m/h.]]></desc>
</trkpt>
<trkpt lat="36.761994" lon="137.759072">
<ele>2913.997435</ele>
<time>2014-08-18T22:25:57Z</time>
<desc><![CDATA[lat.=36.761994, lon.=137.759072, Alt.=2913.997435m. Speed=0.000000m/h.]]></desc>
</trkpt>
<trkpt lat="36.761987" lon="137.759072">
<ele>2913.398943</ele>
<time>2014-08-18T22:26:02Z</time>
<desc><![CDATA[lat.=36.761987, lon.=137.759072, Alt.=2913.398943m. Speed=0.000000m/h.]]></desc>
</trkpt>
<trkpt lat="36.761990" lon="137.759081">
<ele>2912.860384</ele>
<time>2014-08-18T22:26:14Z</time>
<desc><![CDATA[lat.=36.761990, lon.=137.759081, Alt.=2912.860384m. Speed=0.000000m/h.]]></desc>
</trkpt>
<trkpt lat="36.761983" lon="137.759081">
<ele>2912.261892</ele>
<time>2014-08-18T22:26:19Z</time>
<desc><![CDATA[lat.=36.761983, lon.=137.759081, Alt.=2912.261892m. Speed=0.000000m/h.]]></desc>
</trkpt>
<trkpt lat="36.761990" lon="137.759081">
<ele>2912.860384</ele>
<time>2014-08-18T22:26:31Z</time>
<desc><![CDATA[lat.=36.761990, lon.=137.759081, Alt.=2912.860384m. Speed=1.000000m/h.]]></desc>
</trkpt>
<trkpt lat="36.762016" lon="137.759105">
<ele>2912.441695</ele>
<time>2014-08-18T22:26:36Z</time>
<desc><![CDATA[lat.=36.762016, lon.=137.759105, Alt.=2912.441695m. Speed=2.000000m/h.]]></desc>
</trkpt>
<trkpt lat="36.762056" lon="137.759115">
<ele>2911.435310</ele>
<time>2014-08-18T22:26:41Z</time>
<desc><![CDATA[lat.=36.762056, lon.=137.759115, Alt.=2911.435310m. Speed=3.000000m/h.]]></desc>
</trkpt>
<trkpt lat="36.762085" lon="137.759116">
<ele>2912.099138</ele>
<time>2014-08-18T22:26:46Z</time>
<desc><![CDATA[lat.=36.762085, lon.=137.759116, Alt.=2912.099138m. Speed=3.000000m/h.]]></desc>
</trkpt>
<trkpt lat="36.762130" lon="137.759118">
<ele>2910.499665</ele>
<time>2014-08-18T22:26:51Z</time>
<desc><![CDATA[lat.=36.762130, lon.=137.759118, Alt.=2910.499665m. Speed=2.000000m/h.]]></desc>
</trkpt>
<trkpt lat="36.762144" lon="137.759135">
<ele>2910.021045</ele>
<time>2014-08-18T22:26:56Z</time>
<desc><![CDATA[lat.=36.762144, lon.=137.759135, Alt.=2910.021045m. Speed=2.000000m/h.]]></desc>
</trkpt>
<trkpt lat="36.762170" lon="137.759144">
<ele>2909.547827</ele>
<time>2014-08-18T22:27:01Z</time>
<desc><![CDATA[lat.=36.762170, lon.=137.759144, Alt.=2909.547827m. Speed=3.000000m/h.]]></desc>
</trkpt>
<trkpt lat="36.762211" lon="137.759122">
<ele>2908.432379</ele>
<time>2014-08-18T22:27:06Z</time>
<desc><![CDATA[lat.=36.762211, lon.=137.759122, Alt.=2908.432379m. Speed=3.000000m/h.]]></desc>
</trkpt>
<trkpt lat="36.762241" lon="137.759140">
<ele>2905.690462</ele>
<time>2014-08-18T22:27:11Z</time>
<desc><![CDATA[lat.=36.762241, lon.=137.759140, Alt.=2905.690462m. Speed=3.000000m/h.]]></desc>
</trkpt>
<trkpt lat="36.762270" lon="137.759157">
<ele>2906.408839</ele>
<time>2014-08-18T22:27:16Z</time>
<desc><![CDATA[lat.=36.762270, lon.=137.759157, Alt.=2906.408839m. Speed=3.000000m/h.]]></desc>
</trkpt>
<trkpt lat="36.762310" lon="137.759183">
<ele>2903.726868</ele>
<time>2014-08-18T22:27:21Z</time>
<desc><![CDATA[lat.=36.762310, lon.=137.759183, Alt.=2903.726868m. Speed=3.000000m/h.]]></desc>
</trkpt>
<trkpt lat="36.762355" lon="137.759185">
<ele>2903.857559</ele>
<time>2014-08-18T22:27:26Z</time>
<desc><![CDATA[lat.=36.762355, lon.=137.759185, Alt.=2903.857559m. Speed=3.000000m/h.]]></desc>
</trkpt>
<trkpt lat="36.762391" lon="137.759186">
<ele>2903.389757</ele>
<time>2014-08-18T22:27:31Z</time>
<desc><![CDATA[lat.=36.762391, lon.=137.759186, Alt.=2903.389757m. Speed=3.000000m/h.]]></desc>
</trkpt>
<trkpt lat="36.762401" lon="137.759225">
<ele>2907.019070</ele>
<time>2014-08-18T22:27:36Z</time>
<desc><![CDATA[lat.=36.762401, lon.=137.759225, Alt.=2907.019070m. Speed=3.000000m/h.]]></desc>
</trkpt>
<trkpt lat="36.762441" lon="137.759218">
<ele>2907.688322</ele>
<time>2014-08-18T22:27:41Z</time>
<desc><![CDATA[lat.=36.762441, lon.=137.759218, Alt.=2907.688322m. Speed=3.000000m/h.]]></desc>
</trkpt>
<trkpt lat="36.762474" lon="137.759243">
<ele>2907.868159</ele>
<time>2014-08-18T22:27:46Z</time>
<desc><![CDATA[lat.=36.762474, lon.=137.759243, Alt.=2907.868159m. Speed=3.000000m/h.]]></desc>
</trkpt>
<trkpt lat="36.762506" lon="137.759268">
<ele>2908.047997</ele>
<time>2014-08-18T22:27:51Z</time>
<desc><![CDATA[lat.=36.762506, lon.=137.759268, Alt.=2908.047997m. Speed=3.000000m/h.]]></desc>
</trkpt>
<trkpt lat="36.762550" lon="137.759286">
<ele>2906.503101</ele>
<time>2014-08-18T22:27:56Z</time>
<desc><![CDATA[lat.=36.762550, lon.=137.759286, Alt.=2906.503101m. Speed=3.000000m/h.]]></desc>
</trkpt>
<trkpt lat="36.762557" lon="137.759301">
<ele>2908.886287</ele>
<time>2014-08-18T22:28:01Z</time>
<desc><![CDATA[lat.=36.762557, lon.=137.759301, Alt.=2908.886287m. Speed=3.000000m/h.]]></desc>
</trkpt>
<trkpt lat="36.762612" lon="137.759310">
<ele>2909.076949</ele>
<time>2014-08-18T22:28:06Z</time>
<desc><![CDATA[lat.=36.762612, lon.=137.759310, Alt.=2909.076949m. Speed=4.000000m/h.]]></desc>
</trkpt>
<trkpt lat="36.762667" lon="137.759304">
<ele>2909.213076</ele>
<time>2014-08-18T22:28:11Z</time>
<desc><![CDATA[lat.=36.762667, lon.=137.759304, Alt.=2909.213076m. Speed=3.000000m/h.]]></desc>
</trkpt>
<trkpt lat="36.762700" lon="137.759314">
<ele>2909.338388</ele>
<time>2014-08-18T22:28:16Z</time>
<desc><![CDATA[lat.=36.762700, lon.=137.759314, Alt.=2909.338388m. Speed=3.000000m/h.]]></desc>
</trkpt>
<trkpt lat="36.762718" lon="137.759354">
<ele>2908.375780</ele>
<time>2014-08-18T22:28:21Z</time>
<desc><![CDATA[lat.=36.762718, lon.=137.759354, Alt.=2908.375780m. Speed=3.000000m/h.]]></desc>
</trkpt>
<trkpt lat="36.762729" lon="137.759379">
<ele>2906.760129</ele>
<time>2014-08-18T22:28:26Z</time>
<desc><![CDATA[lat.=36.762729, lon.=137.759379, Alt.=2906.760129m. Speed=2.000000m/h.]]></desc>
</trkpt>
<trkpt lat="36.762736" lon="137.759396">
<ele>2905.683029</ele>
<time>2014-08-18T22:28:31Z</time>
<desc><![CDATA[lat.=36.762736, lon.=137.759396, Alt.=2905.683029m. Speed=2.000000m/h.]]></desc>
</trkpt>
<trkpt lat="36.762747" lon="137.759404">
<ele>2905.742982</ele>
<time>2014-08-18T22:28:36Z</time>
<desc><![CDATA[lat.=36.762747, lon.=137.759404, Alt.=2905.742982m. Speed=1.000000m/h.]]></desc>
</trkpt>
<trkpt lat="36.762754" lon="137.759404">
<ele>2906.341485</ele>
<time>2014-08-18T22:28:46Z</time>
<desc><![CDATA[lat.=36.762754, lon.=137.759404, Alt.=2906.341485m. Speed=0.000000m/h.]]></desc>
</trkpt>
<trkpt lat="36.762754" lon="137.759405">
<ele>2904.611340</ele>
<time>2014-08-18T22:28:51Z</time>
<desc><![CDATA[lat.=36.762754, lon.=137.759405, Alt.=2904.611340m. Speed=0.000000m/h.]]></desc>
</trkpt>
<trkpt lat="36.762761" lon="137.759420">
<ele>2905.264386</ele>
<time>2014-08-18T22:28:56Z</time>
<desc><![CDATA[lat.=36.762761, lon.=137.759420, Alt.=2905.264386m. Speed=0.000000m/h.]]></desc>
</trkpt>
<trkpt lat="36.762765" lon="137.759429">
<ele>2904.725837</ele>
<time>2014-08-18T22:29:03Z</time>
<desc><![CDATA[lat.=36.762765, lon.=137.759429, Alt.=2904.725837m. Speed=0.000000m/h.]]></desc>
</trkpt>
<trkpt lat="36.762754" lon="137.759420">
<ele>2904.665883</ele>
<time>2014-08-18T22:29:08Z</time>
<desc><![CDATA[lat.=36.762754, lon.=137.759420, Alt.=2904.665883m. Speed=0.000000m/h.]]></desc>
</trkpt>
<trkpt lat="36.762761" lon="137.759420">
<ele>2905.264386</ele>
<time>2014-08-18T22:29:13Z</time>
<desc><![CDATA[lat.=36.762761, lon.=137.759420, Alt.=2905.264386m. Speed=0.000000m/h.]]></desc>
</trkpt>
<trkpt lat="36.762754" lon="137.759420">
<ele>2904.665883</ele>
<time>2014-08-18T22:29:18Z</time>
<desc><![CDATA[lat.=36.762754, lon.=137.759420, Alt.=2904.665883m. Speed=0.000000m/h.]]></desc>
</trkpt>
<trkpt lat="36.762761" lon="137.759436">
<ele>2905.318930</ele>
<time>2014-08-18T22:29:23Z</time>
<desc><![CDATA[lat.=36.762761, lon.=137.759436, Alt.=2905.318930m. Speed=0.000000m/h.]]></desc>
</trkpt>
<trkpt lat="36.762779" lon="137.759429">
<ele>2905.922843</ele>
<time>2014-08-18T22:29:28Z</time>
<desc><![CDATA[lat.=36.762779, lon.=137.759429, Alt.=2905.922843m. Speed=1.000000m/h.]]></desc>
</trkpt>
<trkpt lat="36.762783" lon="137.759420">
<ele>2907.059896</ele>
<time>2014-08-18T22:29:33Z</time>
<desc><![CDATA[lat.=36.762783, lon.=137.759420, Alt.=2907.059896m. Speed=0.000000m/h.]]></desc>
</trkpt>
<trkpt lat="36.762779" lon="137.759412">
<ele>2907.598445</ele>
<time>2014-08-18T22:29:38Z</time>
<desc><![CDATA[lat.=36.762779, lon.=137.759412, Alt.=2907.598445m. Speed=0.000000m/h.]]></desc>
</trkpt>
<trkpt lat="36.762772" lon="137.759412">
<ele>2906.999942</ele>
<time>2014-08-18T22:29:43Z</time>
<desc><![CDATA[lat.=36.762772, lon.=137.759412, Alt.=2906.999942m. Speed=0.000000m/h.]]></desc>
</trkpt>
<trkpt lat="36.762779" lon="137.759412">
<ele>2907.598445</ele>
<time>2014-08-18T22:29:56Z</time>
<desc><![CDATA[lat.=36.762779, lon.=137.759412, Alt.=2907.598445m. Speed=0.000000m/h.]]></desc>
</trkpt>
<trkpt lat="36.762776" lon="137.759420">
<ele>2906.461393</ele>
<time>2014-08-18T22:30:01Z</time>
<desc><![CDATA[lat.=36.762776, lon.=137.759420, Alt.=2906.461393m. Speed=0.000000m/h.]]></desc>
</trkpt>
<trkpt lat="36.762783" lon="137.759420">
<ele>2907.059896</ele>
<time>2014-08-18T22:30:07Z</time>
<desc><![CDATA[lat.=36.762783, lon.=137.759420, Alt.=2907.059896m. Speed=0.000000m/h.]]></desc>
</trkpt>
<trkpt lat="36.762776" lon="137.759420">
<ele>2906.461393</ele>
<time>2014-08-18T22:30:12Z</time>
<desc><![CDATA[lat.=36.762776, lon.=137.759420, Alt.=2906.461393m. Speed=0.000000m/h.]]></desc>
</trkpt>
<trkpt lat="36.762772" lon="137.759412">
<ele>2906.999942</ele>
<time>2014-08-18T22:30:22Z</time>
<desc><![CDATA[lat.=36.762772, lon.=137.759412, Alt.=2906.999942m. Speed=0.000000m/h.]]></desc>
</trkpt>
<trkpt lat="36.762768" lon="137.759420">
<ele>2907.593034</ele>
<time>2014-08-18T22:30:28Z</time>
<desc><![CDATA[lat.=36.762768, lon.=137.759420, Alt.=2907.593034m. Speed=0.000000m/h.]]></desc>
</trkpt>
<trkpt lat="36.762772" lon="137.759412">
<ele>2906.999942</ele>
<time>2014-08-18T22:30:35Z</time>
<desc><![CDATA[lat.=36.762772, lon.=137.759412, Alt.=2906.999942m. Speed=0.000000m/h.]]></desc>
</trkpt>
<trkpt lat="36.762783" lon="137.759420">
<ele>2907.059896</ele>
<time>2014-08-18T22:30:43Z</time>
<desc><![CDATA[lat.=36.762783, lon.=137.759420, Alt.=2907.059896m. Speed=0.000000m/h.]]></desc>
</trkpt>
<trkpt lat="36.762780" lon="137.759413">
<ele>2905.868300</ele>
<time>2014-08-18T22:30:48Z</time>
<desc><![CDATA[lat.=36.762780, lon.=137.759413, Alt.=2905.868300m. Speed=0.000000m/h.]]></desc>
</trkpt>
<trkpt lat="36.762787" lon="137.759413">
<ele>2906.466804</ele>
<time>2014-08-18T22:30:53Z</time>
<desc><![CDATA[lat.=36.762787, lon.=137.759413, Alt.=2906.466804m. Speed=0.000000m/h.]]></desc>
</trkpt>
<trkpt lat="36.762783" lon="137.759420">
<ele>2907.059896</ele>
<time>2014-08-18T22:31:06Z</time>
<desc><![CDATA[lat.=36.762783, lon.=137.759420, Alt.=2907.059896m. Speed=0.000000m/h.]]></desc>
</trkpt>
<trkpt lat="36.762787" lon="137.759413">
<ele>2906.466804</ele>
<time>2014-08-18T22:31:15Z</time>
<desc><![CDATA[lat.=36.762787, lon.=137.759413, Alt.=2906.466804m. Speed=0.000000m/h.]]></desc>
</trkpt>
<trkpt lat="36.762783" lon="137.759420">
<ele>2907.059896</ele>
<time>2014-08-18T22:31:20Z</time>
<desc><![CDATA[lat.=36.762783, lon.=137.759420, Alt.=2907.059896m. Speed=0.000000m/h.]]></desc>
</trkpt>
<trkpt lat="36.762790" lon="137.759420">
<ele>2907.658399</ele>
<time>2014-08-18T22:31:26Z</time>
<desc><![CDATA[lat.=36.762790, lon.=137.759420, Alt.=2907.658399m. Speed=0.000000m/h.]]></desc>
</trkpt>
<trkpt lat="36.762794" lon="137.759413">
<ele>2907.065307</ele>
<time>2014-08-18T22:31:32Z</time>
<desc><![CDATA[lat.=36.762794, lon.=137.759413, Alt.=2907.065307m. Speed=0.000000m/h.]]></desc>
</trkpt>
<trkpt lat="36.762798" lon="137.759421">
<ele>2906.526758</ele>
<time>2014-08-18T22:31:37Z</time>
<desc><![CDATA[lat.=36.762798, lon.=137.759421, Alt.=2906.526758m. Speed=0.000000m/h.]]></desc>
</trkpt>
<trkpt lat="36.762794" lon="137.759429">
<ele>2907.119850</ele>
<time>2014-08-18T22:31:42Z</time>
<desc><![CDATA[lat.=36.762794, lon.=137.759429, Alt.=2907.119850m. Speed=0.000000m/h.]]></desc>
</trkpt>
<trkpt lat="36.762798" lon="137.759421">
<ele>2906.526758</ele>
<time>2014-08-18T22:32:10Z</time>
<desc><![CDATA[lat.=36.762798, lon.=137.759421, Alt.=2906.526758m. Speed=0.000000m/h.]]></desc>
</trkpt>
<trkpt lat="36.762805" lon="137.759421">
<ele>2907.125262</ele>
<time>2014-08-18T22:32:15Z</time>
<desc><![CDATA[lat.=36.762805, lon.=137.759421, Alt.=2907.125262m. Speed=0.000000m/h.]]></desc>
</trkpt>
<trkpt lat="36.762801" lon="137.759429">
<ele>2907.718354</ele>
<time>2014-08-18T22:32:20Z</time>
<desc><![CDATA[lat.=36.762801, lon.=137.759429, Alt.=2907.718354m. Speed=0.000000m/h.]]></desc>
</trkpt>
<trkpt lat="36.762805" lon="137.759421">
<ele>2907.125262</ele>
<time>2014-08-18T22:32:31Z</time>
<desc><![CDATA[lat.=36.762805, lon.=137.759421, Alt.=2907.125262m. Speed=0.000000m/h.]]></desc>
</trkpt>
<trkpt lat="36.762808" lon="137.759430">
<ele>2906.586713</ele>
<time>2014-08-18T22:32:39Z</time>
<desc><![CDATA[lat.=36.762808, lon.=137.759430, Alt.=2906.586713m. Speed=0.000000m/h.]]></desc>
</trkpt>
<trkpt lat="36.762812" lon="137.759438">
<ele>2906.048164</ele>
<time>2014-08-18T22:32:55Z</time>
<desc><![CDATA[lat.=36.762812, lon.=137.759438, Alt.=2906.048164m. Speed=0.000000m/h.]]></desc>
</trkpt>
<trkpt lat="36.762816" lon="137.759430">
<ele>2905.455071</ele>
<time>2014-08-18T22:33:02Z</time>
<desc><![CDATA[lat.=36.762816, lon.=137.759430, Alt.=2905.455071m. Speed=0.000000m/h.]]></desc>
</trkpt>
<trkpt lat="36.762820" lon="137.759439">
<ele>2904.916523</ele>
<time>2014-08-18T22:33:07Z</time>
<desc><![CDATA[lat.=36.762820, lon.=137.759439, Alt.=2904.916523m. Speed=0.000000m/h.]]></desc>
</trkpt>
<trkpt lat="36.762823" lon="137.759447">
<ele>2904.377974</ele>
<time>2014-08-18T22:33:12Z</time>
<desc><![CDATA[lat.=36.762823, lon.=137.759447, Alt.=2904.377974m. Speed=0.000000m/h.]]></desc>
</trkpt>
<trkpt lat="36.762827" lon="137.759439">
<ele>2903.784882</ele>
<time>2014-08-18T22:33:17Z</time>
<desc><![CDATA[lat.=36.762827, lon.=137.759439, Alt.=2903.784882m. Speed=0.000000m/h.]]></desc>
</trkpt>
<trkpt lat="36.762820" lon="137.759439">
<ele>2903.186378</ele>
<time>2014-08-18T22:33:22Z</time>
<desc><![CDATA[lat.=36.762820, lon.=137.759439, Alt.=2903.186378m. Speed=0.000000m/h.]]></desc>
</trkpt>
<trkpt lat="36.762824" lon="137.759432">
<ele>2902.593286</ele>
<time>2014-08-18T22:33:27Z</time>
<desc><![CDATA[lat.=36.762824, lon.=137.759432, Alt.=2902.593286m. Speed=0.000000m/h.]]></desc>
</trkpt>
<trkpt lat="36.762828" lon="137.759440">
<ele>2902.054737</ele>
<time>2014-08-18T22:33:46Z</time>
<desc><![CDATA[lat.=36.762828, lon.=137.759440, Alt.=2902.054737m. Speed=0.000000m/h.]]></desc>
</trkpt>
<trkpt lat="36.762824" lon="137.759432">
<ele>2902.593286</ele>
<time>2014-08-18T22:33:51Z</time>
<desc><![CDATA[lat.=36.762824, lon.=137.759432, Alt.=2902.593286m. Speed=0.000000m/h.]]></desc>
</trkpt>
<trkpt lat="36.762835" lon="137.759440">
<ele>2902.653241</ele>
<time>2014-08-18T22:33:59Z</time>
<desc><![CDATA[lat.=36.762835, lon.=137.759440, Alt.=2902.653241m. Speed=1.000000m/h.]]></desc>
</trkpt>
<trkpt lat="36.762850" lon="137.759425">
<ele>2902.065561</ele>
<time>2014-08-18T22:34:04Z</time>
<desc><![CDATA[lat.=36.762850, lon.=137.759425, Alt.=2902.065561m. Speed=0.000000m/h.]]></desc>
</trkpt>
<trkpt lat="36.762861" lon="137.759418">
<ele>2902.070974</ele>
<time>2014-08-18T22:34:09Z</time>
<desc><![CDATA[lat.=36.762861, lon.=137.759418, Alt.=2902.070974m. Speed=0.000000m/h.]]></desc>
</trkpt>
<trkpt lat="36.762876" lon="137.759434">
<ele>2901.592381</ele>
<time>2014-08-18T22:34:14Z</time>
<desc><![CDATA[lat.=36.762876, lon.=137.759434, Alt.=2901.592381m. Speed=1.000000m/h.]]></desc>
</trkpt>
<trkpt lat="36.762901" lon="137.759442">
<ele>2902.849347</ele>
<time>2014-08-18T22:34:19Z</time>
<desc><![CDATA[lat.=36.762901, lon.=137.759442, Alt.=2902.849347m. Speed=0.000000m/h.]]></desc>
</trkpt>
<trkpt lat="36.762893" lon="137.759442">
<ele>2903.980987</ele>
<time>2014-08-18T22:34:24Z</time>
<desc><![CDATA[lat.=36.762893, lon.=137.759442, Alt.=2903.980987m. Speed=0.000000m/h.]]></desc>
</trkpt>
<trkpt lat="36.762897" lon="137.759434">
<ele>2903.387896</ele>
<time>2014-08-18T22:34:29Z</time>
<desc><![CDATA[lat.=36.762897, lon.=137.759434, Alt.=2903.387896m. Speed=0.000000m/h.]]></desc>
</trkpt>
<trkpt lat="36.762890" lon="137.759434">
<ele>2902.789391</ele>
<time>2014-08-18T22:34:46Z</time>
<desc><![CDATA[lat.=36.762890, lon.=137.759434, Alt.=2902.789391m. Speed=0.000000m/h.]]></desc>
</trkpt>
<trkpt lat="36.762897" lon="137.759434">
<ele>2903.387896</ele>
<time>2014-08-18T22:34:52Z</time>
<desc><![CDATA[lat.=36.762897, lon.=137.759434, Alt.=2903.387896m. Speed=0.000000m/h.]]></desc>
</trkpt>
<trkpt lat="36.762901" lon="137.759442">
<ele>2902.849347</ele>
<time>2014-08-18T22:34:59Z</time>
<desc><![CDATA[lat.=36.762901, lon.=137.759442, Alt.=2902.849347m. Speed=0.000000m/h.]]></desc>
</trkpt>
<trkpt lat="36.762897" lon="137.759450">
<ele>2903.442439</ele>
<time>2014-08-18T22:35:04Z</time>
<desc><![CDATA[lat.=36.762897, lon.=137.759450, Alt.=2903.442439m. Speed=0.000000m/h.]]></desc>
</trkpt>
<trkpt lat="36.762901" lon="137.759458">
<ele>2902.903891</ele>
<time>2014-08-18T22:35:09Z</time>
<desc><![CDATA[lat.=36.762901, lon.=137.759458, Alt.=2902.903891m. Speed=0.000000m/h.]]></desc>
</trkpt>
<trkpt lat="36.762930" lon="137.759460">
<ele>2901.837622</ele>
<time>2014-08-18T22:35:14Z</time>
<desc><![CDATA[lat.=36.762930, lon.=137.759460, Alt.=2901.837622m. Speed=2.000000m/h.]]></desc>
</trkpt>
<trkpt lat="36.762949" lon="137.759453">
<ele>2900.711397</ele>
<time>2014-08-18T22:35:19Z</time>
<desc><![CDATA[lat.=36.762949, lon.=137.759453, Alt.=2900.711397m. Speed=0.000000m/h.]]></desc>
</trkpt>
<trkpt lat="36.762953" lon="137.759461">
<ele>2900.172850</ele>
<time>2014-08-18T22:35:26Z</time>
<desc><![CDATA[lat.=36.762953, lon.=137.759461, Alt.=2900.172850m. Speed=0.000000m/h.]]></desc>
</trkpt>
<trkpt lat="36.762949" lon="137.759453">
<ele>2900.711397</ele>
<time>2014-08-18T22:35:34Z</time>
<desc><![CDATA[lat.=36.762949, lon.=137.759453, Alt.=2900.711397m. Speed=0.000000m/h.]]></desc>
</trkpt>
<trkpt lat="36.762952" lon="137.759461">
<ele>2901.902994</ele>
<time>2014-08-18T22:35:39Z</time>
<desc><![CDATA[lat.=36.762952, lon.=137.759461, Alt.=2901.902994m. Speed=0.000000m/h.]]></desc>
</trkpt>
<trkpt lat="36.762949" lon="137.759452">
<ele>2902.441542</ele>
<time>2014-08-18T22:35:46Z</time>
<desc><![CDATA[lat.=36.762949, lon.=137.759452, Alt.=2902.441542m. Speed=0.000000m/h.]]></desc>
</trkpt>
<trkpt lat="36.762949" lon="137.759436">
<ele>2902.386999</ele>
<time>2014-08-18T22:35:51Z</time>
<desc><![CDATA[lat.=36.762949, lon.=137.759436, Alt.=2902.386999m. Speed=1.000000m/h.]]></desc>
</trkpt>
<trkpt lat="36.762934" lon="137.759436">
<ele>2902.920132</ele>
<time>2014-08-18T22:35:56Z</time>
<desc><![CDATA[lat.=36.762934, lon.=137.759436, Alt.=2902.920132m. Speed=0.000000m/h.]]></desc>
</trkpt>
<trkpt lat="36.762942" lon="137.759436">
<ele>2901.788493</ele>
<time>2014-08-18T22:36:01Z</time>
<desc><![CDATA[lat.=36.762942, lon.=137.759436, Alt.=2901.788493m. Speed=0.000000m/h.]]></desc>
</trkpt>
<trkpt lat="36.762949" lon="137.759437">
<ele>2900.656854</ele>
<time>2014-08-18T22:36:06Z</time>
<desc><![CDATA[lat.=36.762949, lon.=137.759437, Alt.=2900.656854m. Speed=0.000000m/h.]]></desc>
</trkpt>
<trkpt lat="36.762972" lon="137.759439">
<ele>2898.992082</ele>
<time>2014-08-18T22:36:11Z</time>
<desc><![CDATA[lat.=36.762972, lon.=137.759439, Alt.=2898.992082m. Speed=1.000000m/h.]]></desc>
</trkpt>
<trkpt lat="36.762976" lon="137.759415">
<ele>2898.344448</ele>
<time>2014-08-18T22:36:16Z</time>
<desc><![CDATA[lat.=36.762976, lon.=137.759415, Alt.=2898.344448m. Speed=1.000000m/h.]]></desc>
</trkpt>
<trkpt lat="36.762977" lon="137.759384">
<ele>2896.505218</ele>
<time>2014-08-18T22:36:21Z</time>
<desc><![CDATA[lat.=36.762977, lon.=137.759384, Alt.=2896.505218m. Speed=2.000000m/h.]]></desc>
</trkpt>
<trkpt lat="36.762974" lon="137.759377">
<ele>2895.313621</ele>
<time>2014-08-18T22:36:26Z</time>
<desc><![CDATA[lat.=36.762974, lon.=137.759377, Alt.=2895.313621m. Speed=0.000000m/h.]]></desc>
</trkpt>
<trkpt lat="36.762967" lon="137.759377">
<ele>2894.715116</ele>
<time>2014-08-18T22:36:31Z</time>
<desc><![CDATA[lat.=36.762967, lon.=137.759377, Alt.=2894.715116m. Speed=0.000000m/h.]]></desc>
</trkpt>
<trkpt lat="36.762978" lon="137.759369">
<ele>2894.720531</ele>
<time>2014-08-18T22:36:36Z</time>
<desc><![CDATA[lat.=36.762978, lon.=137.759369, Alt.=2894.720531m. Speed=1.000000m/h.]]></desc>
</trkpt>
<trkpt lat="36.762992" lon="137.759402">
<ele>2894.296483</ele>
<time>2014-08-18T22:36:41Z</time>
<desc><![CDATA[lat.=36.762992, lon.=137.759402, Alt.=2894.296483m. Speed=1.000000m/h.]]></desc>
</trkpt>
<trkpt lat="36.763022" lon="137.759403">
<ele>2893.230220</ele>
<time>2014-08-18T22:36:46Z</time>
<desc><![CDATA[lat.=36.763022, lon.=137.759403, Alt.=2893.230220m. Speed=1.000000m/h.]]></desc>
</trkpt>
<trkpt lat="36.763015" lon="137.759403">
<ele>2892.631713</ele>
<time>2014-08-18T22:36:52Z</time>
<desc><![CDATA[lat.=36.763015, lon.=137.759403, Alt.=2892.631713m. Speed=1.000000m/h.]]></desc>
</trkpt>
<trkpt lat="36.763036" lon="137.759420">
<ele>2892.751631</ele>
<time>2014-08-18T22:36:57Z</time>
<desc><![CDATA[lat.=36.763036, lon.=137.759420, Alt.=2892.751631m. Speed=1.000000m/h.]]></desc>
</trkpt>
<trkpt lat="36.763066" lon="137.759421">
<ele>2891.685371</ele>
<time>2014-08-18T22:37:02Z</time>
<desc><![CDATA[lat.=36.763066, lon.=137.759421, Alt.=2891.685371m. Speed=2.000000m/h.]]></desc>
</trkpt>
<trkpt lat="36.763077" lon="137.759431">
<ele>2890.015186</ele>
<time>2014-08-18T22:37:07Z</time>
<desc><![CDATA[lat.=36.763077, lon.=137.759431, Alt.=2890.015186m. Speed=1.000000m/h.]]></desc>
</trkpt>
<trkpt lat="36.763099" lon="137.759431">
<ele>2890.080564</ele>
<time>2014-08-18T22:37:12Z</time>
<desc><![CDATA[lat.=36.763099, lon.=137.759431, Alt.=2890.080564m. Speed=2.000000m/h.]]></desc>
</trkpt>
<trkpt lat="36.763117" lon="137.759456">
<ele>2889.063432</ele>
<time>2014-08-18T22:37:17Z</time>
<desc><![CDATA[lat.=36.763117, lon.=137.759456, Alt.=2889.063432m. Speed=2.000000m/h.]]></desc>
</trkpt>
<trkpt lat="36.763140" lon="137.759458">
<ele>2887.398668</ele>
<time>2014-08-18T22:37:22Z</time>
<desc><![CDATA[lat.=36.763140, lon.=137.759458, Alt.=2887.398668m. Speed=0.000000m/h.]]></desc>
</trkpt>
<trkpt lat="36.763158" lon="137.759498">
<ele>2886.436082</ele>
<time>2014-08-18T22:37:27Z</time>
<desc><![CDATA[lat.=36.763158, lon.=137.759498, Alt.=2886.436082m. Speed=2.000000m/h.]]></desc>
</trkpt>
<trkpt lat="36.763176" lon="137.759507">
<ele>2885.364409</ele>
<time>2014-08-18T22:37:32Z</time>
<desc><![CDATA[lat.=36.763176, lon.=137.759507, Alt.=2885.364409m. Speed=2.000000m/h.]]></desc>
</trkpt>
<trkpt lat="36.763154" lon="137.759523">
<ele>2883.623428</ele>
<time>2014-08-18T22:37:37Z</time>
<desc><![CDATA[lat.=36.763154, lon.=137.759523, Alt.=2883.623428m. Speed=1.000000m/h.]]></desc>
</trkpt>
<trkpt lat="36.763161" lon="137.759523">
<ele>2884.221937</ele>
<time>2014-08-18T22:37:42Z</time>
<desc><![CDATA[lat.=36.763161, lon.=137.759523, Alt.=2884.221937m. Speed=1.000000m/h.]]></desc>
</trkpt>
<trkpt lat="36.763187" lon="137.759516">
<ele>2883.694228</ele>
<time>2014-08-18T22:37:47Z</time>
<desc><![CDATA[lat.=36.763187, lon.=137.759516, Alt.=2883.694228m. Speed=1.000000m/h.]]></desc>
</trkpt>
<trkpt lat="36.763198" lon="137.759541">
<ele>2883.808737</ele>
<time>2014-08-18T22:37:52Z</time>
<desc><![CDATA[lat.=36.763198, lon.=137.759541, Alt.=2883.808737m. Speed=2.000000m/h.]]></desc>
</trkpt>
<trkpt lat="36.763209" lon="137.759549">
<ele>2883.868702</ele>
<time>2014-08-18T22:37:57Z</time>
<desc><![CDATA[lat.=36.763209, lon.=137.759549, Alt.=2883.868702m. Speed=1.000000m/h.]]></desc>
</trkpt>
<trkpt lat="36.763227" lon="137.759558">
<ele>2882.797031</ele>
<time>2014-08-18T22:38:02Z</time>
<desc><![CDATA[lat.=36.763227, lon.=137.759558, Alt.=2882.797031m. Speed=1.000000m/h.]]></desc>
</trkpt>
<trkpt lat="36.763234" lon="137.759590">
<ele>2881.774488</ele>
<time>2014-08-18T22:38:07Z</time>
<desc><![CDATA[lat.=36.763234, lon.=137.759590, Alt.=2881.774488m. Speed=2.000000m/h.]]></desc>
</trkpt>
<trkpt lat="36.763238" lon="137.759599">
<ele>2881.235944</ele>
<time>2014-08-18T22:38:12Z</time>
<desc><![CDATA[lat.=36.763238, lon.=137.759599, Alt.=2881.235944m. Speed=1.000000m/h.]]></desc>
</trkpt>
<trkpt lat="36.763260" lon="137.759584">
<ele>2879.516639</ele>
<time>2014-08-18T22:38:17Z</time>
<desc><![CDATA[lat.=36.763260, lon.=137.759584, Alt.=2879.516639m. Speed=2.000000m/h.]]></desc>
</trkpt>
<trkpt lat="36.763293" lon="137.759610">
<ele>2877.966393</ele>
<time>2014-08-18T22:38:22Z</time>
<desc><![CDATA[lat.=36.763293, lon.=137.759610, Alt.=2877.966393m. Speed=2.000000m/h.]]></desc>
</trkpt>
<trkpt lat="36.763293" lon="137.759626">
<ele>2876.290796</ele>
<time>2014-08-18T22:38:27Z</time>
<desc><![CDATA[lat.=36.763293, lon.=137.759626, Alt.=2876.290796m. Speed=2.000000m/h.]]></desc>
</trkpt>
<trkpt lat="36.763275" lon="137.759667">
<ele>2872.335672</ele>
<time>2014-08-18T22:38:32Z</time>
<desc><![CDATA[lat.=36.763275, lon.=137.759667, Alt.=2872.335672m. Speed=2.000000m/h.]]></desc>
</trkpt>
<trkpt lat="36.763282" lon="137.759667">
<ele>2872.934182</ele>
<time>2014-08-18T22:38:37Z</time>
<desc><![CDATA[lat.=36.763282, lon.=137.759667, Alt.=2872.934182m. Speed=1.000000m/h.]]></desc>
</trkpt>
<trkpt lat="36.763297" lon="137.759667">
<ele>2874.131203</ele>
<time>2014-08-18T22:38:42Z</time>
<desc><![CDATA[lat.=36.763297, lon.=137.759667, Alt.=2874.131203m. Speed=1.000000m/h.]]></desc>
</trkpt>
<trkpt lat="36.763322" lon="137.759660">
<ele>2875.333644</ele>
<time>2014-08-18T22:38:47Z</time>
<desc><![CDATA[lat.=36.763322, lon.=137.759660, Alt.=2875.333644m. Speed=1.000000m/h.]]></desc>
</trkpt>
<trkpt lat="36.763340" lon="137.759684">
<ele>2874.316527</ele>
<time>2014-08-18T22:38:52Z</time>
<desc><![CDATA[lat.=36.763340, lon.=137.759684, Alt.=2874.316527m. Speed=2.000000m/h.]]></desc>
</trkpt>
<trkpt lat="36.763366" lon="137.759710">
<ele>2872.167779</ele>
<time>2014-08-18T22:38:57Z</time>
<desc><![CDATA[lat.=36.763366, lon.=137.759710, Alt.=2872.167779m. Speed=2.000000m/h.]]></desc>
</trkpt>
<trkpt lat="36.763396" lon="137.759712">
<ele>2871.101537</ele>
<time>2014-08-18T22:39:02Z</time>
<desc><![CDATA[lat.=36.763396, lon.=137.759712, Alt.=2871.101537m. Speed=2.000000m/h.]]></desc>
</trkpt>
<trkpt lat="36.763407" lon="137.759720">
<ele>2871.161507</ele>
<time>2014-08-18T22:39:07Z</time>
<desc><![CDATA[lat.=36.763407, lon.=137.759720, Alt.=2871.161507m. Speed=2.000000m/h.]]></desc>
</trkpt>
<trkpt lat="36.763432" lon="137.759729">
<ele>2870.688359</ele>
<time>2014-08-18T22:39:12Z</time>
<desc><![CDATA[lat.=36.763432, lon.=137.759729, Alt.=2870.688359m. Speed=2.000000m/h.]]></desc>
</trkpt>
<trkpt lat="36.763473" lon="137.759739">
<ele>2869.682093</ele>
<time>2014-08-18T22:39:17Z</time>
<desc><![CDATA[lat.=36.763473, lon.=137.759739, Alt.=2869.682093m. Speed=2.000000m/h.]]></desc>
</trkpt>
<trkpt lat="36.763498" lon="137.759747">
<ele>2870.939091</ele>
<time>2014-08-18T22:39:22Z</time>
<desc><![CDATA[lat.=36.763498, lon.=137.759747, Alt.=2870.939091m. Speed=3.000000m/h.]]></desc>
</trkpt>
<trkpt lat="36.763535" lon="137.759764">
<ele>2870.525921</ele>
<time>2014-08-18T22:39:27Z</time>
<desc><![CDATA[lat.=36.763535, lon.=137.759764, Alt.=2870.525921m. Speed=3.000000m/h.]]></desc>
</trkpt>
<trkpt lat="36.763560" lon="137.759773">
<ele>2870.052779</ele>
<time>2014-08-18T22:39:32Z</time>
<desc><![CDATA[lat.=36.763560, lon.=137.759773, Alt.=2870.052779m. Speed=3.000000m/h.]]></desc>
</trkpt>
<trkpt lat="36.763604" lon="137.759791">
<ele>2870.238128</ele>
<time>2014-08-18T22:39:37Z</time>
<desc><![CDATA[lat.=36.763604, lon.=137.759791, Alt.=2870.238128m. Speed=3.000000m/h.]]></desc>
</trkpt>
<trkpt lat="36.763636" lon="137.759816">
<ele>2870.418055</ele>
<time>2014-08-18T22:39:42Z</time>
<desc><![CDATA[lat.=36.763636, lon.=137.759816, Alt.=2870.418055m. Speed=3.000000m/h.]]></desc>
</trkpt>
<trkpt lat="36.763669" lon="137.759825">
<ele>2870.543434</ele>
<time>2014-08-18T22:39:47Z</time>
<desc><![CDATA[lat.=36.763669, lon.=137.759825, Alt.=2870.543434m. Speed=3.000000m/h.]]></desc>
</trkpt>
<trkpt lat="36.763713" lon="137.759843">
<ele>2868.998650</ele>
<time>2014-08-18T22:39:52Z</time>
<desc><![CDATA[lat.=36.763713, lon.=137.759843, Alt.=2868.998650m. Speed=3.000000m/h.]]></desc>
</trkpt>
<trkpt lat="36.763746" lon="137.759868">
<ele>2869.178585</ele>
<time>2014-08-18T22:39:57Z</time>
<desc><![CDATA[lat.=36.763746, lon.=137.759868, Alt.=2869.178585m. Speed=3.000000m/h.]]></desc>
</trkpt>
<trkpt lat="36.763778" lon="137.759893">
<ele>2869.358524</ele>
<time>2014-08-18T22:40:02Z</time>
<desc><![CDATA[lat.=36.763778, lon.=137.759893, Alt.=2869.358524m. Speed=4.000000m/h.]]></desc>
</trkpt>
<trkpt lat="36.763826" lon="137.759918">
<ele>2869.005357</ele>
<time>2014-08-18T22:40:07Z</time>
<desc><![CDATA[lat.=36.763826, lon.=137.759918, Alt.=2869.005357m. Speed=4.000000m/h.]]></desc>
</trkpt>
<trkpt lat="36.763870" lon="137.759920">
<ele>2869.136179</ele>
<time>2014-08-18T22:40:12Z</time>
<desc><![CDATA[lat.=36.763870, lon.=137.759920, Alt.=2869.136179m. Speed=4.000000m/h.]]></desc>
</trkpt>
<trkpt lat="36.763930" lon="137.759890">
<ele>2868.624797</ele>
<time>2014-08-18T22:40:17Z</time>
<desc><![CDATA[lat.=36.763930, lon.=137.759890, Alt.=2868.624797m. Speed=5.000000m/h.]]></desc>
</trkpt>
<trkpt lat="36.763993" lon="137.759869">
<ele>2867.574886</ele>
<time>2014-08-18T22:40:22Z</time>
<desc><![CDATA[lat.=36.763993, lon.=137.759869, Alt.=2867.574886m. Speed=5.000000m/h.]]></desc>
</trkpt>
<trkpt lat="36.764040" lon="137.759911">
<ele>2867.276290</ele>
<time>2014-08-18T22:40:27Z</time>
<desc><![CDATA[lat.=36.764040, lon.=137.759911, Alt.=2867.276290m. Speed=5.000000m/h.]]></desc>
</trkpt>
<trkpt lat="36.764085" lon="137.759881">
<ele>2867.298027</ele>
<time>2014-08-18T22:40:32Z</time>
<desc><![CDATA[lat.=36.764085, lon.=137.759881, Alt.=2867.298027m. Speed=4.000000m/h.]]></desc>
</trkpt>
<trkpt lat="36.764132" lon="137.759890">
<ele>2868.620480</ele>
<time>2014-08-18T22:40:37Z</time>
<desc><![CDATA[lat.=36.764132, lon.=137.759890, Alt.=2868.620480m. Speed=4.000000m/h.]]></desc>
</trkpt>
<trkpt lat="36.764190" lon="137.759907">
<ele>2870.002926</ele>
<time>2014-08-18T22:40:42Z</time>
<desc><![CDATA[lat.=36.764190, lon.=137.759907, Alt.=2870.002926m. Speed=4.000000m/h.]]></desc>
</trkpt>
<trkpt lat="36.764231" lon="137.759901">
<ele>2868.942170</ele>
<time>2014-08-18T22:40:47Z</time>
<desc><![CDATA[lat.=36.764231, lon.=137.759901, Alt.=2868.942170m. Speed=4.000000m/h.]]></desc>
</trkpt>
<trkpt lat="36.764280" lon="137.759880">
<ele>2866.695247</ele>
<time>2014-08-18T22:40:52Z</time>
<desc><![CDATA[lat.=36.764280, lon.=137.759880, Alt.=2866.695247m. Speed=4.000000m/h.]]></desc>
</trkpt>
<trkpt lat="36.764339" lon="137.759883">
<ele>2864.562871</ele>
<time>2014-08-18T22:40:57Z</time>
<desc><![CDATA[lat.=36.764339, lon.=137.759883, Alt.=2864.562871m. Speed=4.000000m/h.]]></desc>
</trkpt>
<trkpt lat="36.764387" lon="137.759892">
<ele>2865.885348</ele>
<time>2014-08-18T22:41:02Z</time>
<desc><![CDATA[lat.=36.764387, lon.=137.759892, Alt.=2865.885348m. Speed=4.000000m/h.]]></desc>
</trkpt>
<trkpt lat="36.764438" lon="137.759894">
<ele>2864.884601</ele>
<time>2014-08-18T22:41:07Z</time>
<desc><![CDATA[lat.=36.764438, lon.=137.759894, Alt.=2864.884601m. Speed=4.000000m/h.]]></desc>
</trkpt>
<trkpt lat="36.764445" lon="137.759894">
<ele>2865.483128</ele>
<time>2014-08-18T22:41:12Z</time>
<desc><![CDATA[lat.=36.764445, lon.=137.759894, Alt.=2865.483128m. Speed=3.000000m/h.]]></desc>
</trkpt>
<trkpt lat="36.764467" lon="137.759895">
<ele>2865.548565</ele>
<time>2014-08-18T22:41:17Z</time>
<desc><![CDATA[lat.=36.764467, lon.=137.759895, Alt.=2865.548565m. Speed=2.000000m/h.]]></desc>
</trkpt>
<trkpt lat="36.764480" lon="137.759857">
<ele>2863.714763</ele>
<time>2014-08-18T22:41:22Z</time>
<desc><![CDATA[lat.=36.764480, lon.=137.759857, Alt.=2863.714763m. Speed=2.000000m/h.]]></desc>
</trkpt>
<trkpt lat="36.764516" lon="137.759873">
<ele>2865.031807</ele>
<time>2014-08-18T22:41:27Z</time>
<desc><![CDATA[lat.=36.764516, lon.=137.759873, Alt.=2865.031807m. Speed=3.000000m/h.]]></desc>
</trkpt>
<trkpt lat="36.764523" lon="137.759890">
<ele>2863.954743</ele>
<time>2014-08-18T22:41:32Z</time>
<desc><![CDATA[lat.=36.764523, lon.=137.759890, Alt.=2863.954743m. Speed=3.000000m/h.]]></desc>
</trkpt>
<trkpt lat="36.764548" lon="137.759915">
<ele>2863.536203</ele>
<time>2014-08-18T22:41:37Z</time>
<desc><![CDATA[lat.=36.764548, lon.=137.759915, Alt.=2863.536203m. Speed=2.000000m/h.]]></desc>
</trkpt>
<trkpt lat="36.764574" lon="137.759940">
<ele>2861.387522</ele>
<time>2014-08-18T22:41:42Z</time>
<desc><![CDATA[lat.=36.764574, lon.=137.759940, Alt.=2861.387522m. Speed=3.000000m/h.]]></desc>
</trkpt>
<trkpt lat="36.764596" lon="137.759957">
<ele>2861.507517</ele>
<time>2014-08-18T22:41:47Z</time>
<desc><![CDATA[lat.=36.764596, lon.=137.759957, Alt.=2861.507517m. Speed=2.000000m/h.]]></desc>
</trkpt>
<trkpt lat="36.764626" lon="137.759943">
<ele>2860.386794</ele>
<time>2014-08-18T22:41:52Z</time>
<desc><![CDATA[lat.=36.764626, lon.=137.759943, Alt.=2860.386794m. Speed=2.000000m/h.]]></desc>
</trkpt>
<trkpt lat="36.764666" lon="137.759984">
<ele>2859.489730</ele>
<time>2014-08-18T22:41:57Z</time>
<desc><![CDATA[lat.=36.764666, lon.=137.759984, Alt.=2859.489730m. Speed=3.000000m/h.]]></desc>
</trkpt>
<trkpt lat="36.764677" lon="137.760009">
<ele>2857.874140</ele>
<time>2014-08-18T22:42:02Z</time>
<desc><![CDATA[lat.=36.764677, lon.=137.760009, Alt.=2857.874140m. Speed=2.000000m/h.]]></desc>
</trkpt>
<trkpt lat="36.764687" lon="137.760034">
<ele>2856.258551</ele>
<time>2014-08-18T22:42:07Z</time>
<desc><![CDATA[lat.=36.764687, lon.=137.760034, Alt.=2856.258551m. Speed=2.000000m/h.]]></desc>
</trkpt>
<trkpt lat="36.764694" lon="137.760082">
<ele>2855.290602</ele>
<time>2014-08-18T22:42:12Z</time>
<desc><![CDATA[lat.=36.764694, lon.=137.760082, Alt.=2855.290602m. Speed=3.000000m/h.]]></desc>
</trkpt>
<trkpt lat="36.764671" lon="137.760080">
<ele>2856.955297</ele>
<time>2014-08-18T22:42:17Z</time>
<desc><![CDATA[lat.=36.764671, lon.=137.760080, Alt.=2856.955297m. Speed=2.000000m/h.]]></desc>
</trkpt>
<trkpt lat="36.764686" lon="137.760097">
<ele>2856.476769</ele>
<time>2014-08-18T22:42:22Z</time>
<desc><![CDATA[lat.=36.764686, lon.=137.760097, Alt.=2856.476769m. Speed=2.000000m/h.]]></desc>
</trkpt>
<trkpt lat="36.764731" lon="137.760084">
<ele>2854.822968</ele>
<time>2014-08-18T22:42:27Z</time>
<desc><![CDATA[lat.=36.764731, lon.=137.760084, Alt.=2854.822968m. Speed=2.000000m/h.]]></desc>
</trkpt>
<trkpt lat="36.764760" lon="137.760085">
<ele>2853.756806</ele>
<time>2014-08-18T22:42:32Z</time>
<desc><![CDATA[lat.=36.764760, lon.=137.760085, Alt.=2853.756806m. Speed=2.000000m/h.]]></desc>
</trkpt>
<trkpt lat="36.764778" lon="137.760109">
<ele>2854.469895</ele>
<time>2014-08-18T22:42:37Z</time>
<desc><![CDATA[lat.=36.764778, lon.=137.760109, Alt.=2854.469895m. Speed=2.000000m/h.]]></desc>
</trkpt>
<trkpt lat="36.764785" lon="137.760142">
<ele>2853.447395</ele>
<time>2014-08-18T22:42:42Z</time>
<desc><![CDATA[lat.=36.764785, lon.=137.760142, Alt.=2853.447395m. Speed=2.000000m/h.]]></desc>
</trkpt>
<trkpt lat="36.764799" lon="137.760158">
<ele>2852.968871</ele>
<time>2014-08-18T22:42:47Z</time>
<desc><![CDATA[lat.=36.764799, lon.=137.760158, Alt.=2852.968871m. Speed=2.000000m/h.]]></desc>
</trkpt>
<trkpt lat="36.764826" lon="137.760152">
<ele>2850.711097</ele>
<time>2014-08-18T22:42:52Z</time>
<desc><![CDATA[lat.=36.764826, lon.=137.760152, Alt.=2850.711097m. Speed=3.000000m/h.]]></desc>
</trkpt>
<trkpt lat="36.764852" lon="137.760161">
<ele>2850.238024</ele>
<time>2014-08-18T22:42:57Z</time>
<desc><![CDATA[lat.=36.764852, lon.=137.760161, Alt.=2850.238024m. Speed=3.000000m/h.]]></desc>
</trkpt>
<trkpt lat="36.764907" lon="137.760172">
<ele>2848.698798</ele>
<time>2014-08-18T22:43:02Z</time>
<desc><![CDATA[lat.=36.764907, lon.=137.760172, Alt.=2848.698798m. Speed=3.000000m/h.]]></desc>
</trkpt>
<trkpt lat="36.764932" lon="137.760180">
<ele>2849.955872</ele>
<time>2014-08-18T22:43:07Z</time>
<desc><![CDATA[lat.=36.764932, lon.=137.760180, Alt.=2849.955872m. Speed=3.000000m/h.]]></desc>
</trkpt>
<trkpt lat="36.764951" lon="137.760206">
<ele>2847.208684</ele>
<time>2014-08-18T22:43:12Z</time>
<desc><![CDATA[lat.=36.764951, lon.=137.760206, Alt.=2847.208684m. Speed=3.000000m/h.]]></desc>
</trkpt>
<trkpt lat="36.764988" lon="137.760207">
<ele>2846.741069</ele>
<time>2014-08-18T22:43:17Z</time>
<desc><![CDATA[lat.=36.764988, lon.=137.760207, Alt.=2846.741069m. Speed=3.000000m/h.]]></desc>
</trkpt>
<trkpt lat="36.764990" lon="137.760247">
<ele>2846.311659</ele>
<time>2014-08-18T22:43:22Z</time>
<desc><![CDATA[lat.=36.764990, lon.=137.760247, Alt.=2846.311659m. Speed=2.000000m/h.]]></desc>
</trkpt>
<trkpt lat="36.765005" lon="137.760264">
<ele>2845.833143</ele>
<time>2014-08-18T22:43:27Z</time>
<desc><![CDATA[lat.=36.765005, lon.=137.760264, Alt.=2845.833143m. Speed=2.000000m/h.]]></desc>
</trkpt>
<trkpt lat="36.765046" lon="137.760258">
<ele>2843.042307</ele>
<time>2014-08-18T22:43:32Z</time>
<desc><![CDATA[lat.=36.765046, lon.=137.760258, Alt.=2843.042307m. Speed=2.000000m/h.]]></desc>
</trkpt>
<trkpt lat="36.765064" lon="137.760267">
<ele>2843.700853</ele>
<time>2014-08-18T22:43:37Z</time>
<desc><![CDATA[lat.=36.765064, lon.=137.760267, Alt.=2843.700853m. Speed=2.000000m/h.]]></desc>
</trkpt>
<trkpt lat="36.765075" lon="137.760275">
<ele>2843.760863</ele>
<time>2014-08-18T22:43:42Z</time>
<desc><![CDATA[lat.=36.765075, lon.=137.760275, Alt.=2843.760863m. Speed=2.000000m/h.]]></desc>
</trkpt>
<trkpt lat="36.765083" lon="137.760276">
<ele>2842.629257</ele>
<time>2014-08-18T22:43:47Z</time>
<desc><![CDATA[lat.=36.765083, lon.=137.760276, Alt.=2842.629257m. Speed=0.000000m/h.]]></desc>
</trkpt>
<trkpt lat="36.765094" lon="137.760252">
<ele>2842.580152</ele>
<time>2014-08-18T22:43:52Z</time>
<desc><![CDATA[lat.=36.765094, lon.=137.760252, Alt.=2842.580152m. Speed=2.000000m/h.]]></desc>
</trkpt>
<trkpt lat="36.765105" lon="137.760261">
<ele>2842.640163</ele>
<time>2014-08-18T22:43:57Z</time>
<desc><![CDATA[lat.=36.765105, lon.=137.760261, Alt.=2842.640163m. Speed=2.000000m/h.]]></desc>
</trkpt>
<trkpt lat="36.765101" lon="137.760285">
<ele>2841.557662</ele>
<time>2014-08-18T22:44:02Z</time>
<desc><![CDATA[lat.=36.765101, lon.=137.760285, Alt.=2841.557662m. Speed=1.000000m/h.]]></desc>
</trkpt>
<trkpt lat="36.765090" lon="137.760293">
<ele>2839.822066</ele>
<time>2014-08-18T22:44:07Z</time>
<desc><![CDATA[lat.=36.765090, lon.=137.760293, Alt.=2839.822066m. Speed=1.000000m/h.]]></desc>
</trkpt>
<trkpt lat="36.765090" lon="137.760310">
<ele>2838.146483</ele>
<time>2014-08-18T22:44:12Z</time>
<desc><![CDATA[lat.=36.765090, lon.=137.760310, Alt.=2838.146483m. Speed=1.000000m/h.]]></desc>
</trkpt>
<trkpt lat="36.765097" lon="137.760341">
<ele>2838.854137</ele>
<time>2014-08-18T22:44:17Z</time>
<desc><![CDATA[lat.=36.765097, lon.=137.760341, Alt.=2838.854137m. Speed=1.000000m/h.]]></desc>
</trkpt>
<trkpt lat="36.765071" lon="137.760365">
<ele>2837.706174</ele>
<time>2014-08-18T22:44:22Z</time>
<desc><![CDATA[lat.=36.765071, lon.=137.760365, Alt.=2837.706174m. Speed=2.000000m/h.]]></desc>
</trkpt>
<trkpt lat="36.765071" lon="137.760365">
<ele>2835.976032</ele>
<time>2014-08-18T22:44:27Z</time>
<desc><![CDATA[lat.=36.765071, lon.=137.760365, Alt.=2835.976032m. Speed=0.000000m/h.]]></desc>
</trkpt>
<trkpt lat="36.765078" lon="137.760365">
<ele>2838.304709</ele>
<time>2014-08-18T22:44:32Z</time>
<desc><![CDATA[lat.=36.765078, lon.=137.760365, Alt.=2838.304709m. Speed=0.000000m/h.]]></desc>
</trkpt>
<trkpt lat="36.765082" lon="137.760356">
<ele>2839.441768</ele>
<time>2014-08-18T22:44:37Z</time>
<desc><![CDATA[lat.=36.765082, lon.=137.760356, Alt.=2839.441768m. Speed=0.000000m/h.]]></desc>
</trkpt>
<trkpt lat="36.765074" lon="137.760356">
<ele>2838.843233</ele>
<time>2014-08-18T22:44:42Z</time>
<desc><![CDATA[lat.=36.765074, lon.=137.760356, Alt.=2838.843233m. Speed=0.000000m/h.]]></desc>
</trkpt>
<trkpt lat="36.765078" lon="137.760365">
<ele>2838.304709</ele>
<time>2014-08-18T22:44:47Z</time>
<desc><![CDATA[lat.=36.765078, lon.=137.760365, Alt.=2838.304709m. Speed=0.000000m/h.]]></desc>
</trkpt>
<trkpt lat="36.765074" lon="137.760356">
<ele>2838.843233</ele>
<time>2014-08-18T22:44:57Z</time>
<desc><![CDATA[lat.=36.765074, lon.=137.760356, Alt.=2838.843233m. Speed=0.000000m/h.]]></desc>
</trkpt>
<trkpt lat="36.765078" lon="137.760365">
<ele>2838.304709</ele>
<time>2014-08-18T22:45:04Z</time>
<desc><![CDATA[lat.=36.765078, lon.=137.760365, Alt.=2838.304709m. Speed=0.000000m/h.]]></desc>
</trkpt>
<trkpt lat="36.765075" lon="137.760357">
<ele>2837.113090</ele>
<time>2014-08-18T22:45:09Z</time>
<desc><![CDATA[lat.=36.765075, lon.=137.760357, Alt.=2837.113090m. Speed=0.000000m/h.]]></desc>
</trkpt>
<trkpt lat="36.765082" lon="137.760357">
<ele>2837.711626</ele>
<time>2014-08-18T22:45:14Z</time>
<desc><![CDATA[lat.=36.765082, lon.=137.760357, Alt.=2837.711626m. Speed=0.000000m/h.]]></desc>
</trkpt>
<trkpt lat="36.765078" lon="137.760365">
<ele>2838.304709</ele>
<time>2014-08-18T22:45:19Z</time>
<desc><![CDATA[lat.=36.765078, lon.=137.760365, Alt.=2838.304709m. Speed=0.000000m/h.]]></desc>
</trkpt>
<trkpt lat="36.765082" lon="137.760357">
<ele>2837.711626</ele>
<time>2014-08-18T22:45:33Z</time>
<desc><![CDATA[lat.=36.765082, lon.=137.760357, Alt.=2837.711626m. Speed=0.000000m/h.]]></desc>
</trkpt>
<trkpt lat="36.765093" lon="137.760365">
<ele>2837.771638</ele>
<time>2014-08-18T22:45:38Z</time>
<desc><![CDATA[lat.=36.765093, lon.=137.760365, Alt.=2837.771638m. Speed=0.000000m/h.]]></desc>
</trkpt>
<trkpt lat="36.765100" lon="137.760382">
<ele>2836.694592</ele>
<time>2014-08-18T22:45:43Z</time>
<desc><![CDATA[lat.=36.765100, lon.=137.760382, Alt.=2836.694592m. Speed=1.000000m/h.]]></desc>
</trkpt>
<trkpt lat="36.765119" lon="137.760375">
<ele>2835.568438</ele>
<time>2014-08-18T22:45:48Z</time>
<desc><![CDATA[lat.=36.765119, lon.=137.760375, Alt.=2835.568438m. Speed=2.000000m/h.]]></desc>
</trkpt>
<trkpt lat="36.765145" lon="137.760384">
<ele>2835.095382</ele>
<time>2014-08-18T22:45:53Z</time>
<desc><![CDATA[lat.=36.765145, lon.=137.760384, Alt.=2835.095382m. Speed=2.000000m/h.]]></desc>
</trkpt>
<trkpt lat="36.765159" lon="137.760401">
<ele>2834.616873</ele>
<time>2014-08-18T22:45:58Z</time>
<desc><![CDATA[lat.=36.765159, lon.=137.760401, Alt.=2834.616873m. Speed=2.000000m/h.]]></desc>
</trkpt>
<trkpt lat="36.765148" lon="137.760425">
<ele>2832.935839</ele>
<time>2014-08-18T22:46:03Z</time>
<desc><![CDATA[lat.=36.765148, lon.=137.760425, Alt.=2832.935839m. Speed=2.000000m/h.]]></desc>
</trkpt>
<trkpt lat="36.765148" lon="137.760426">
<ele>2831.205697</ele>
<time>2014-08-18T22:46:08Z</time>
<desc><![CDATA[lat.=36.765148, lon.=137.760426, Alt.=2831.205697m. Speed=0.000000m/h.]]></desc>
</trkpt>
<trkpt lat="36.765152" lon="137.760450">
<ele>2830.721737</ele>
<time>2014-08-18T22:46:13Z</time>
<desc><![CDATA[lat.=36.765152, lon.=137.760450, Alt.=2830.721737m. Speed=1.000000m/h.]]></desc>
</trkpt>
<trkpt lat="36.765162" lon="137.760458">
<ele>2830.781751</ele>
<time>2014-08-18T22:46:18Z</time>
<desc><![CDATA[lat.=36.765162, lon.=137.760458, Alt.=2830.781751m. Speed=0.000000m/h.]]></desc>
</trkpt>
<trkpt lat="36.765166" lon="137.760451">
<ele>2830.188668</ele>
<time>2014-08-18T22:46:23Z</time>
<desc><![CDATA[lat.=36.765166, lon.=137.760451, Alt.=2830.188668m. Speed=0.000000m/h.]]></desc>
</trkpt>
<trkpt lat="36.765170" lon="137.760458">
<ele>2831.380288</ele>
<time>2014-08-18T22:46:28Z</time>
<desc><![CDATA[lat.=36.765170, lon.=137.760458, Alt.=2831.380288m. Speed=0.000000m/h.]]></desc>
</trkpt>
<trkpt lat="36.765173" lon="137.760466">
<ele>2830.841766</ele>
<time>2014-08-18T22:46:33Z</time>
<desc><![CDATA[lat.=36.765173, lon.=137.760466, Alt.=2830.841766m. Speed=0.000000m/h.]]></desc>
</trkpt>
<trkpt lat="36.765173" lon="137.760482">
<ele>2830.896329</ele>
<time>2014-08-18T22:46:38Z</time>
<desc><![CDATA[lat.=36.765173, lon.=137.760482, Alt.=2830.896329m. Speed=0.000000m/h.]]></desc>
</trkpt>
<trkpt lat="36.765173" lon="137.760483">
<ele>2829.166187</ele>
<time>2014-08-18T22:46:43Z</time>
<desc><![CDATA[lat.=36.765173, lon.=137.760483, Alt.=2829.166187m. Speed=1.000000m/h.]]></desc>
</trkpt>
<trkpt lat="36.765155" lon="137.760491">
<ele>2826.832055</ele>
<time>2014-08-18T22:46:48Z</time>
<desc><![CDATA[lat.=36.765155, lon.=137.760491, Alt.=2826.832055m. Speed=1.000000m/h.]]></desc>
</trkpt>
<trkpt lat="36.765137" lon="137.760499">
<ele>2826.228067</ele>
<time>2014-08-18T22:46:53Z</time>
<desc><![CDATA[lat.=36.765137, lon.=137.760499, Alt.=2826.228067m. Speed=1.000000m/h.]]></desc>
</trkpt>
<trkpt lat="36.765140" lon="137.760507">
<ele>2825.689545</ele>
<time>2014-08-18T22:46:58Z</time>
<desc><![CDATA[lat.=36.765140, lon.=137.760507, Alt.=2825.689545m. Speed=0.000000m/h.]]></desc>
</trkpt>
<trkpt lat="36.765144" lon="137.760515">
<ele>2825.151024</ele>
<time>2014-08-18T22:47:03Z</time>
<desc><![CDATA[lat.=36.765144, lon.=137.760515, Alt.=2825.151024m. Speed=0.000000m/h.]]></desc>
</trkpt>
<trkpt lat="36.765155" lon="137.760524">
<ele>2825.211039</ele>
<time>2014-08-18T22:47:08Z</time>
<desc><![CDATA[lat.=36.765155, lon.=137.760524, Alt.=2825.211039m. Speed=1.000000m/h.]]></desc>
</trkpt>
<trkpt lat="36.765144" lon="137.760531">
<ele>2825.205587</ele>
<time>2014-08-18T22:47:18Z</time>
<desc><![CDATA[lat.=36.765144, lon.=137.760531, Alt.=2825.205587m. Speed=0.000000m/h.]]></desc>
</trkpt>
<trkpt lat="36.765133" lon="137.760523">
<ele>2825.145572</ele>
<time>2014-08-18T22:47:23Z</time>
<desc><![CDATA[lat.=36.765133, lon.=137.760523, Alt.=2825.145572m. Speed=0.000000m/h.]]></desc>
</trkpt>
<trkpt lat="36.765140" lon="137.760523">
<ele>2825.744108</ele>
<time>2014-08-18T22:47:28Z</time>
<desc><![CDATA[lat.=36.765140, lon.=137.760523, Alt.=2825.744108m. Speed=0.000000m/h.]]></desc>
</trkpt>
<trkpt lat="36.765158" lon="137.760531">
<ele>2826.402660</ele>
<time>2014-08-18T22:47:33Z</time>
<desc><![CDATA[lat.=36.765158, lon.=137.760531, Alt.=2826.402660m. Speed=0.000000m/h.]]></desc>
</trkpt>
<trkpt lat="36.765161" lon="137.760539">
<ele>2827.594281</ele>
<time>2014-08-18T22:47:38Z</time>
<desc><![CDATA[lat.=36.765161, lon.=137.760539, Alt.=2827.594281m. Speed=0.000000m/h.]]></desc>
</trkpt>
<trkpt lat="36.765165" lon="137.760546">
<ele>2828.785902</ele>
<time>2014-08-18T22:47:43Z</time>
<desc><![CDATA[lat.=36.765165, lon.=137.760546, Alt.=2828.785902m. Speed=0.000000m/h.]]></desc>
</trkpt>
<trkpt lat="36.765164" lon="137.760545">
<ele>2830.516044</ele>
<time>2014-08-18T22:47:48Z</time>
<desc><![CDATA[lat.=36.765164, lon.=137.760545, Alt.=2830.516044m. Speed=0.000000m/h.]]></desc>
</trkpt>
<trkpt lat="36.765168" lon="137.760554">
<ele>2829.977523</ele>
<time>2014-08-18T22:47:57Z</time>
<desc><![CDATA[lat.=36.765168, lon.=137.760554, Alt.=2829.977523m. Speed=0.000000m/h.]]></desc>
</trkpt>
<trkpt lat="36.765172" lon="137.760546">
<ele>2829.384439</ele>
<time>2014-08-18T22:48:07Z</time>
<desc><![CDATA[lat.=36.765172, lon.=137.760546, Alt.=2829.384439m. Speed=0.000000m/h.]]></desc>
</trkpt>
<trkpt lat="36.765165" lon="137.760546">
<ele>2828.785902</ele>
<time>2014-08-18T22:48:13Z</time>
<desc><![CDATA[lat.=36.765165, lon.=137.760546, Alt.=2828.785902m. Speed=0.000000m/h.]]></desc>
</trkpt>
<trkpt lat="36.765169" lon="137.760539">
<ele>2828.192818</ele>
<time>2014-08-18T22:48:18Z</time>
<desc><![CDATA[lat.=36.765169, lon.=137.760539, Alt.=2828.192818m. Speed=0.000000m/h.]]></desc>
</trkpt>
<trkpt lat="36.765176" lon="137.760539">
<ele>2828.791354</ele>
<time>2014-08-18T22:48:24Z</time>
<desc><![CDATA[lat.=36.765176, lon.=137.760539, Alt.=2828.791354m. Speed=0.000000m/h.]]></desc>
</trkpt>
<trkpt lat="36.765176" lon="137.760539">
<ele>2827.061213</ele>
<time>2014-08-18T22:48:29Z</time>
<desc><![CDATA[lat.=36.765176, lon.=137.760539, Alt.=2827.061213m. Speed=0.000000m/h.]]></desc>
</trkpt>
<trkpt lat="36.765180" lon="137.760548">
<ele>2826.522692</ele>
<time>2014-08-18T22:48:34Z</time>
<desc><![CDATA[lat.=36.765180, lon.=137.760548, Alt.=2826.522692m. Speed=0.000000m/h.]]></desc>
</trkpt>
<trkpt lat="36.765172" lon="137.760546">
<ele>2829.384439</ele>
<time>2014-08-18T22:48:39Z</time>
<desc><![CDATA[lat.=36.765172, lon.=137.760546, Alt.=2829.384439m. Speed=0.000000m/h.]]></desc>
</trkpt>
<trkpt lat="36.765179" lon="137.760547">
<ele>2828.252834</ele>
<time>2014-08-18T22:48:48Z</time>
<desc><![CDATA[lat.=36.765179, lon.=137.760547, Alt.=2828.252834m. Speed=1.000000m/h.]]></desc>
</trkpt>
<trkpt lat="36.765198" lon="137.760556">
<ele>2827.181245</ele>
<time>2014-08-18T22:48:53Z</time>
<desc><![CDATA[lat.=36.765198, lon.=137.760556, Alt.=2827.181245m. Speed=2.000000m/h.]]></desc>
</trkpt>
<trkpt lat="36.765205" lon="137.760589">
<ele>2824.428627</ele>
<time>2014-08-18T22:48:58Z</time>
<desc><![CDATA[lat.=36.765205, lon.=137.760589, Alt.=2824.428627m. Speed=2.000000m/h.]]></desc>
</trkpt>
<trkpt lat="36.765184" lon="137.760590">
<ele>2820.902874</ele>
<time>2014-08-18T22:49:03Z</time>
<desc><![CDATA[lat.=36.765184, lon.=137.760590, Alt.=2820.902874m. Speed=1.000000m/h.]]></desc>
</trkpt>
<trkpt lat="36.765180" lon="137.760598">
<ele>2819.765817</ele>
<time>2014-08-18T22:49:08Z</time>
<desc><![CDATA[lat.=36.765180, lon.=137.760598, Alt.=2819.765817m. Speed=0.000000m/h.]]></desc>
</trkpt>
<trkpt lat="36.765184" lon="137.760590">
<ele>2820.902874</ele>
<time>2014-08-18T22:49:14Z</time>
<desc><![CDATA[lat.=36.765184, lon.=137.760590, Alt.=2820.902874m. Speed=0.000000m/h.]]></desc>
</trkpt>
<trkpt lat="36.765187" lon="137.760613">
<ele>2822.149060</ele>
<time>2014-08-18T22:49:19Z</time>
<desc><![CDATA[lat.=36.765187, lon.=137.760613, Alt.=2822.149060m. Speed=0.000000m/h.]]></desc>
</trkpt>
<trkpt lat="36.765183" lon="137.760621">
<ele>2822.742145</ele>
<time>2014-08-18T22:49:24Z</time>
<desc><![CDATA[lat.=36.765183, lon.=137.760621, Alt.=2822.742145m. Speed=0.000000m/h.]]></desc>
</trkpt>
<trkpt lat="36.765179" lon="137.760613">
<ele>2823.280665</ele>
<time>2014-08-18T22:49:33Z</time>
<desc><![CDATA[lat.=36.765179, lon.=137.760613, Alt.=2823.280665m. Speed=0.000000m/h.]]></desc>
</trkpt>
<trkpt lat="36.765172" lon="137.760613">
<ele>2822.682128</ele>
<time>2014-08-18T22:49:38Z</time>
<desc><![CDATA[lat.=36.765172, lon.=137.760613, Alt.=2822.682128m. Speed=0.000000m/h.]]></desc>
</trkpt>
<trkpt lat="36.765175" lon="137.760620">
<ele>2823.873750</ele>
<time>2014-08-18T22:49:43Z</time>
<desc><![CDATA[lat.=36.765175, lon.=137.760620, Alt.=2823.873750m. Speed=0.000000m/h.]]></desc>
</trkpt>
<trkpt lat="36.765171" lon="137.760628">
<ele>2824.466835</ele>
<time>2014-08-18T22:49:49Z</time>
<desc><![CDATA[lat.=36.765171, lon.=137.760628, Alt.=2824.466835m. Speed=0.000000m/h.]]></desc>
</trkpt>
<trkpt lat="36.765167" lon="137.760635">
<ele>2825.059921</ele>
<time>2014-08-18T22:50:04Z</time>
<desc><![CDATA[lat.=36.765167, lon.=137.760635, Alt.=2825.059921m. Speed=0.000000m/h.]]></desc>
</trkpt>
<trkpt lat="36.765182" lon="137.760636">
<ele>2824.526852</ele>
<time>2014-08-18T22:50:09Z</time>
<desc><![CDATA[lat.=36.765182, lon.=137.760636, Alt.=2824.526852m. Speed=1.000000m/h.]]></desc>
</trkpt>
<trkpt lat="36.765201" lon="137.760629">
<ele>2823.400700</ele>
<time>2014-08-18T22:50:14Z</time>
<desc><![CDATA[lat.=36.765201, lon.=137.760629, Alt.=2823.400700m. Speed=2.000000m/h.]]></desc>
</trkpt>
<trkpt lat="36.765223" lon="137.760646">
<ele>2823.520735</ele>
<time>2014-08-18T22:50:19Z</time>
<desc><![CDATA[lat.=36.765223, lon.=137.760646, Alt.=2823.520735m. Speed=2.000000m/h.]]></desc>
</trkpt>
<trkpt lat="36.765263" lon="137.760640">
<ele>2822.460055</ele>
<time>2014-08-18T22:50:24Z</time>
<desc><![CDATA[lat.=36.765263, lon.=137.760640, Alt.=2822.460055m. Speed=2.000000m/h.]]></desc>
</trkpt>
<trkpt lat="36.765275" lon="137.760666">
<ele>2817.384215</ele>
<time>2014-08-18T22:50:29Z</time>
<desc><![CDATA[lat.=36.765275, lon.=137.760666, Alt.=2817.384215m. Speed=2.000000m/h.]]></desc>
</trkpt>
<trkpt lat="36.765302" lon="137.760660">
<ele>2815.126462</ele>
<time>2014-08-18T22:50:34Z</time>
<desc><![CDATA[lat.=36.765302, lon.=137.760660, Alt.=2815.126462m. Speed=2.000000m/h.]]></desc>
</trkpt>
<trkpt lat="36.765309" lon="137.760661">
<ele>2813.994859</ele>
<time>2014-08-18T22:50:39Z</time>
<desc><![CDATA[lat.=36.765309, lon.=137.760661, Alt.=2813.994859m. Speed=0.000000m/h.]]></desc>
</trkpt>
<trkpt lat="36.765316" lon="137.760661">
<ele>2814.593398</ele>
<time>2014-08-18T22:50:44Z</time>
<desc><![CDATA[lat.=36.765316, lon.=137.760661, Alt.=2814.593398m. Speed=1.000000m/h.]]></desc>
</trkpt>
<trkpt lat="36.765346" lon="137.760647">
<ele>2813.472704</ele>
<time>2014-08-18T22:50:49Z</time>
<desc><![CDATA[lat.=36.765346, lon.=137.760647, Alt.=2813.472704m. Speed=2.000000m/h.]]></desc>
</trkpt>
<trkpt lat="36.765338" lon="137.760661">
<ele>2816.389014</ele>
<time>2014-08-18T22:50:54Z</time>
<desc><![CDATA[lat.=36.765338, lon.=137.760661, Alt.=2816.389014m. Speed=2.000000m/h.]]></desc>
</trkpt>
<trkpt lat="36.765346" lon="137.760678">
<ele>2813.581836</ele>
<time>2014-08-18T22:50:59Z</time>
<desc><![CDATA[lat.=36.765346, lon.=137.760678, Alt.=2813.581836m. Speed=2.000000m/h.]]></desc>
</trkpt>
<trkpt lat="36.765371" lon="137.760687">
<ele>2813.108794</ele>
<time>2014-08-18T22:51:04Z</time>
<desc><![CDATA[lat.=36.765371, lon.=137.760687, Alt.=2813.108794m. Speed=2.000000m/h.]]></desc>
</trkpt>
<trkpt lat="36.765411" lon="137.760713">
<ele>2812.157259</ele>
<time>2014-08-18T22:51:09Z</time>
<desc><![CDATA[lat.=36.765411, lon.=137.760713, Alt.=2812.157259m. Speed=3.000000m/h.]]></desc>
</trkpt>
<trkpt lat="36.765414" lon="137.760753">
<ele>2811.727876</ele>
<time>2014-08-18T22:51:14Z</time>
<desc><![CDATA[lat.=36.765414, lon.=137.760753, Alt.=2811.727876m. Speed=2.000000m/h.]]></desc>
</trkpt>
<trkpt lat="36.765440" lon="137.760763">
<ele>2809.524698</ele>
<time>2014-08-18T22:51:19Z</time>
<desc><![CDATA[lat.=36.765440, lon.=137.760763, Alt.=2809.524698m. Speed=3.000000m/h.]]></desc>
</trkpt>
<trkpt lat="36.765477" lon="137.760781">
<ele>2807.381545</ele>
<time>2014-08-18T22:51:24Z</time>
<desc><![CDATA[lat.=36.765477, lon.=137.760781, Alt.=2807.381545m. Speed=3.000000m/h.]]></desc>
</trkpt>
<trkpt lat="36.765507" lon="137.760766">
<ele>2807.991000</ele>
<time>2014-08-18T22:51:29Z</time>
<desc><![CDATA[lat.=36.765507, lon.=137.760766, Alt.=2807.991000m. Speed=3.000000m/h.]]></desc>
</trkpt>
<trkpt lat="36.765518" lon="137.760726">
<ele>2809.617465</ele>
<time>2014-08-18T22:51:34Z</time>
<desc><![CDATA[lat.=36.765518, lon.=137.760726, Alt.=2809.617465m. Speed=3.000000m/h.]]></desc>
</trkpt>
<trkpt lat="36.765538" lon="137.760754">
<ele>2801.679892</ele>
<time>2014-08-18T22:51:39Z</time>
<desc><![CDATA[lat.=36.765538, lon.=137.760754, Alt.=2801.679892m. Speed=2.000000m/h.]]></desc>
</trkpt>
<trkpt lat="36.765552" lon="137.760769">
<ele>2802.931543</ele>
<time>2014-08-18T22:51:44Z</time>
<desc><![CDATA[lat.=36.765552, lon.=137.760769, Alt.=2802.931543m. Speed=2.000000m/h.]]></desc>
</trkpt>
<trkpt lat="36.765545" lon="137.760786">
<ele>2800.657428</ele>
<time>2014-08-18T22:51:49Z</time>
<desc><![CDATA[lat.=36.765545, lon.=137.760786, Alt.=2800.657428m. Speed=2.000000m/h.]]></desc>
</trkpt>
<trkpt lat="36.765548" lon="137.760810">
<ele>2800.173481</ele>
<time>2014-08-18T22:51:54Z</time>
<desc><![CDATA[lat.=36.765548, lon.=137.760810, Alt.=2800.173481m. Speed=2.000000m/h.]]></desc>
</trkpt>
<trkpt lat="36.765566" lon="137.760835">
<ele>2799.156477</ele>
<time>2014-08-18T22:51:59Z</time>
<desc><![CDATA[lat.=36.765566, lon.=137.760835, Alt.=2799.156477m. Speed=2.000000m/h.]]></desc>
</trkpt>
<trkpt lat="36.765581" lon="137.760852">
<ele>2798.677990</ele>
<time>2014-08-18T22:52:04Z</time>
<desc><![CDATA[lat.=36.765581, lon.=137.760852, Alt.=2798.677990m. Speed=2.000000m/h.]]></desc>
</trkpt>
<trkpt lat="36.765600" lon="137.760861">
<ele>2795.876278</ele>
<time>2014-08-18T22:52:09Z</time>
<desc><![CDATA[lat.=36.765600, lon.=137.760861, Alt.=2795.876278m. Speed=3.000000m/h.]]></desc>
</trkpt>
<trkpt lat="36.765613" lon="137.760909">
<ele>2797.237074</ele>
<time>2014-08-18T22:52:14Z</time>
<desc><![CDATA[lat.=36.765613, lon.=137.760909, Alt.=2797.237074m. Speed=3.000000m/h.]]></desc>
</trkpt>
<trkpt lat="36.765597" lon="137.760907">
<ele>2801.230412</ele>
<time>2014-08-18T22:52:19Z</time>
<desc><![CDATA[lat.=36.765597, lon.=137.760907, Alt.=2801.230412m. Speed=2.000000m/h.]]></desc>
</trkpt>
<trkpt lat="36.765624" lon="137.760934">
<ele>2795.621532</ele>
<time>2014-08-18T22:52:24Z</time>
<desc><![CDATA[lat.=36.765624, lon.=137.760934, Alt.=2795.621532m. Speed=3.000000m/h.]]></desc>
</trkpt>
<trkpt lat="36.765664" lon="137.760976">
<ele>2792.994455</ele>
<time>2014-08-18T22:52:29Z</time>
<desc><![CDATA[lat.=36.765664, lon.=137.760976, Alt.=2792.994455m. Speed=3.000000m/h.]]></desc>
</trkpt>
<trkpt lat="36.765685" lon="137.761008">
<ele>2793.169090</ele>
<time>2014-08-18T22:52:34Z</time>
<desc><![CDATA[lat.=36.765685, lon.=137.761008, Alt.=2793.169090m. Speed=3.000000m/h.]]></desc>
</trkpt>
<trkpt lat="36.765725" lon="137.761050">
<ele>2792.272162</ele>
<time>2014-08-18T22:52:39Z</time>
<desc><![CDATA[lat.=36.765725, lon.=137.761050, Alt.=2792.272162m. Speed=3.000000m/h.]]></desc>
</trkpt>
<trkpt lat="36.765773" lon="137.761027">
<ele>2793.485633</ele>
<time>2014-08-18T22:52:44Z</time>
<desc><![CDATA[lat.=36.765773, lon.=137.761027, Alt.=2793.485633m. Speed=3.000000m/h.]]></desc>
</trkpt>
<trkpt lat="36.765814" lon="137.761054">
<ele>2790.803998</ele>
<time>2014-08-18T22:52:49Z</time>
<desc><![CDATA[lat.=36.765814, lon.=137.761054, Alt.=2790.803998m. Speed=4.000000m/h.]]></desc>
</trkpt>
<trkpt lat="36.765828" lon="137.761103">
<ele>2788.704529</ele>
<time>2014-08-18T22:52:54Z</time>
<desc><![CDATA[lat.=36.765828, lon.=137.761103, Alt.=2788.704529m. Speed=4.000000m/h.]]></desc>
</trkpt>
<trkpt lat="36.765856" lon="137.761152">
<ele>2787.802156</ele>
<time>2014-08-18T22:52:59Z</time>
<desc><![CDATA[lat.=36.765856, lon.=137.761152, Alt.=2787.802156m. Speed=4.000000m/h.]]></desc>
</trkpt>
<trkpt lat="36.765901" lon="137.761137">
<ele>2787.878579</ele>
<time>2014-08-18T22:53:04Z</time>
<desc><![CDATA[lat.=36.765901, lon.=137.761137, Alt.=2787.878579m. Speed=4.000000m/h.]]></desc>
</trkpt>
<trkpt lat="36.765964" lon="137.761149">
<ele>2785.207886</ele>
<time>2014-08-18T22:53:09Z</time>
<desc><![CDATA[lat.=36.765964, lon.=137.761149, Alt.=2785.207886m. Speed=4.000000m/h.]]></desc>
</trkpt>
<trkpt lat="36.765985" lon="137.761181">
<ele>2785.382540</ele>
<time>2014-08-18T22:53:14Z</time>
<desc><![CDATA[lat.=36.765985, lon.=137.761181, Alt.=2785.382540m. Speed=4.000000m/h.]]></desc>
</trkpt>
<trkpt lat="36.766017" lon="137.761222">
<ele>2785.617236</ele>
<time>2014-08-18T22:53:19Z</time>
<desc><![CDATA[lat.=36.766017, lon.=137.761222, Alt.=2785.617236m. Speed=4.000000m/h.]]></desc>
</trkpt>
<trkpt lat="36.766027" lon="137.761277">
<ele>2785.841008</ele>
<time>2014-08-18T22:53:24Z</time>
<desc><![CDATA[lat.=36.766027, lon.=137.761277, Alt.=2785.841008m. Speed=4.000000m/h.]]></desc>
</trkpt>
<trkpt lat="36.766041" lon="137.761326">
<ele>2783.741559</ele>
<time>2014-08-18T22:53:29Z</time>
<desc><![CDATA[lat.=36.766041, lon.=137.761326, Alt.=2783.741559m. Speed=4.000000m/h.]]></desc>
</trkpt>
<trkpt lat="36.766066" lon="137.761351">
<ele>2783.323138</ele>
<time>2014-08-18T22:53:34Z</time>
<desc><![CDATA[lat.=36.766066, lon.=137.761351, Alt.=2783.323138m. Speed=3.000000m/h.]]></desc>
</trkpt>
<trkpt lat="36.766114" lon="137.761361">
<ele>2782.915648</ele>
<time>2014-08-18T22:53:39Z</time>
<desc><![CDATA[lat.=36.766114, lon.=137.761361, Alt.=2782.915648m. Speed=3.000000m/h.]]></desc>
</trkpt>
<trkpt lat="36.766136" lon="137.761394">
<ele>2781.360177</ele>
<time>2014-08-18T22:53:44Z</time>
<desc><![CDATA[lat.=36.766136, lon.=137.761394, Alt.=2781.360177m. Speed=3.000000m/h.]]></desc>
</trkpt>
<trkpt lat="36.766158" lon="137.761411">
<ele>2781.480267</ele>
<time>2014-08-18T22:53:49Z</time>
<desc><![CDATA[lat.=36.766158, lon.=137.761411, Alt.=2781.480267m. Speed=3.000000m/h.]]></desc>
</trkpt>
<trkpt lat="36.766205" lon="137.761437">
<ele>2779.397227</ele>
<time>2014-08-18T22:53:54Z</time>
<desc><![CDATA[lat.=36.766205, lon.=137.761437, Alt.=2779.397227m. Speed=3.000000m/h.]]></desc>
</trkpt>
<trkpt lat="36.766223" lon="137.761478">
<ele>2778.434847</ele>
<time>2014-08-18T22:53:59Z</time>
<desc><![CDATA[lat.=36.766223, lon.=137.761478, Alt.=2778.434847m. Speed=4.000000m/h.]]></desc>
</trkpt>
<trkpt lat="36.766281" lon="137.761512">
<ele>2778.142005</ele>
<time>2014-08-18T22:54:04Z</time>
<desc><![CDATA[lat.=36.766281, lon.=137.761512, Alt.=2778.142005m. Speed=4.000000m/h.]]></desc>
</trkpt>
<trkpt lat="36.766314" lon="137.761537">
<ele>2778.322154</ele>
<time>2014-08-18T22:54:09Z</time>
<desc><![CDATA[lat.=36.766314, lon.=137.761537, Alt.=2778.322154m. Speed=4.000000m/h.]]></desc>
</trkpt>
<trkpt lat="36.766354" lon="137.761579">
<ele>2775.695162</ele>
<time>2014-08-18T22:54:14Z</time>
<desc><![CDATA[lat.=36.766354, lon.=137.761579, Alt.=2775.695162m. Speed=4.000000m/h.]]></desc>
</trkpt>
<trkpt lat="36.766383" lon="137.761612">
<ele>2774.738263</ele>
<time>2014-08-18T22:54:19Z</time>
<desc><![CDATA[lat.=36.766383, lon.=137.761612, Alt.=2774.738263m. Speed=4.000000m/h.]]></desc>
</trkpt>
<trkpt lat="36.766427" lon="137.761646">
<ele>2773.248336</ele>
<time>2014-08-18T22:54:24Z</time>
<desc><![CDATA[lat.=36.766427, lon.=137.761646, Alt.=2773.248336m. Speed=4.000000m/h.]]></desc>
</trkpt>
<trkpt lat="36.766470" lon="137.761680">
<ele>2771.758413</ele>
<time>2014-08-18T22:54:29Z</time>
<desc><![CDATA[lat.=36.766470, lon.=137.761680, Alt.=2771.758413m. Speed=4.000000m/h.]]></desc>
</trkpt>
<trkpt lat="36.766503" lon="137.761705">
<ele>2771.938580</ele>
<time>2014-08-18T22:54:34Z</time>
<desc><![CDATA[lat.=36.766503, lon.=137.761705, Alt.=2771.938580m. Speed=4.000000m/h.]]></desc>
</trkpt>
<trkpt lat="36.766558" lon="137.761731">
<ele>2770.454137</ele>
<time>2014-08-18T22:54:39Z</time>
<desc><![CDATA[lat.=36.766558, lon.=137.761731, Alt.=2770.454137m. Speed=4.000000m/h.]]></desc>
</trkpt>
<trkpt lat="36.766606" lon="137.761757">
<ele>2768.371145</ele>
<time>2014-08-18T22:54:44Z</time>
<desc><![CDATA[lat.=36.766606, lon.=137.761757, Alt.=2768.371145m. Speed=4.000000m/h.]]></desc>
</trkpt>
<trkpt lat="36.766631" lon="137.761782">
<ele>2767.952765</ele>
<time>2014-08-18T22:54:49Z</time>
<desc><![CDATA[lat.=36.766631, lon.=137.761782, Alt.=2767.952765m. Speed=3.000000m/h.]]></desc>
</trkpt>
<trkpt lat="36.766641" lon="137.761806">
<ele>2768.067412</ele>
<time>2014-08-18T22:54:54Z</time>
<desc><![CDATA[lat.=36.766641, lon.=137.761806, Alt.=2768.067412m. Speed=3.000000m/h.]]></desc>
</trkpt>
<trkpt lat="36.766701" lon="137.761809">
<ele>2765.935315</ele>
<time>2014-08-18T22:54:59Z</time>
<desc><![CDATA[lat.=36.766701, lon.=137.761809, Alt.=2765.935315m. Speed=3.000000m/h.]]></desc>
</trkpt>
<trkpt lat="36.766702" lon="137.761847">
<ele>2770.696413</ele>
<time>2014-08-18T22:55:04Z</time>
<desc><![CDATA[lat.=36.766702, lon.=137.761847, Alt.=2770.696413m. Speed=3.000000m/h.]]></desc>
</trkpt>
<trkpt lat="36.766755" lon="137.761850">
<ele>2767.965765</ele>
<time>2014-08-18T22:55:09Z</time>
<desc><![CDATA[lat.=36.766755, lon.=137.761850, Alt.=2767.965765m. Speed=4.000000m/h.]]></desc>
</trkpt>
<trkpt lat="36.766795" lon="137.761828">
<ele>2768.580749</ele>
<time>2014-08-18T22:55:14Z</time>
<desc><![CDATA[lat.=36.766795, lon.=137.761828, Alt.=2768.580749m. Speed=3.000000m/h.]]></desc>
</trkpt>
<trkpt lat="36.766820" lon="137.761868">
<ele>2768.216969</ele>
<time>2014-08-18T22:55:19Z</time>
<desc><![CDATA[lat.=36.766820, lon.=137.761868, Alt.=2768.216969m. Speed=3.000000m/h.]]></desc>
</trkpt>
<trkpt lat="36.766805" lon="137.761883">
<ele>2768.804577</ele>
<time>2014-08-18T22:55:24Z</time>
<desc><![CDATA[lat.=36.766805, lon.=137.761883, Alt.=2768.804577m. Speed=2.000000m/h.]]></desc>
</trkpt>
<trkpt lat="36.766805" lon="137.761899">
<ele>2768.859167</ele>
<time>2014-08-18T22:55:29Z</time>
<desc><![CDATA[lat.=36.766805, lon.=137.761899, Alt.=2768.859167m. Speed=0.000000m/h.]]></desc>
</trkpt>
<trkpt lat="36.766794" lon="137.761907">
<ele>2768.853692</ele>
<time>2014-08-18T22:55:34Z</time>
<desc><![CDATA[lat.=36.766794, lon.=137.761907, Alt.=2768.853692m. Speed=0.000000m/h.]]></desc>
</trkpt>
<trkpt lat="36.766798" lon="137.761899">
<ele>2768.260607</ele>
<time>2014-08-18T22:55:46Z</time>
<desc><![CDATA[lat.=36.766798, lon.=137.761899, Alt.=2768.260607m. Speed=0.000000m/h.]]></desc>
</trkpt>
<trkpt lat="36.766794" lon="137.761907">
<ele>2768.853692</ele>
<time>2014-08-18T22:55:51Z</time>
<desc><![CDATA[lat.=36.766794, lon.=137.761907, Alt.=2768.853692m. Speed=0.000000m/h.]]></desc>
</trkpt>
<trkpt lat="36.766798" lon="137.761899">
<ele>2768.260607</ele>
<time>2014-08-18T22:55:56Z</time>
<desc><![CDATA[lat.=36.766798, lon.=137.761899, Alt.=2768.260607m. Speed=0.000000m/h.]]></desc>
</trkpt>
<trkpt lat="36.766794" lon="137.761907">
<ele>2767.123552</ele>
<time>2014-08-18T22:56:01Z</time>
<desc><![CDATA[lat.=36.766794, lon.=137.761907, Alt.=2767.123552m. Speed=0.000000m/h.]]></desc>
</trkpt>
<trkpt lat="36.766798" lon="137.761916">
<ele>2766.585057</ele>
<time>2014-08-18T22:56:26Z</time>
<desc><![CDATA[lat.=36.766798, lon.=137.761916, Alt.=2766.585057m. Speed=0.000000m/h.]]></desc>
</trkpt>
<trkpt lat="36.766790" lon="137.761916">
<ele>2765.986498</ele>
<time>2014-08-18T22:56:31Z</time>
<desc><![CDATA[lat.=36.766790, lon.=137.761916, Alt.=2765.986498m. Speed=0.000000m/h.]]></desc>
</trkpt>
<trkpt lat="36.766801" lon="137.761924">
<ele>2766.046562</ele>
<time>2014-08-18T22:56:52Z</time>
<desc><![CDATA[lat.=36.766801, lon.=137.761924, Alt.=2766.046562m. Speed=2.000000m/h.]]></desc>
</trkpt>
<trkpt lat="36.766826" lon="137.761965">
<ele>2765.682787</ele>
<time>2014-08-18T22:56:57Z</time>
<desc><![CDATA[lat.=36.766826, lon.=137.761965, Alt.=2765.682787m. Speed=3.000000m/h.]]></desc>
</trkpt>
<trkpt lat="36.766877" lon="137.761999">
<ele>2764.791473</ele>
<time>2014-08-18T22:57:02Z</time>
<desc><![CDATA[lat.=36.766877, lon.=137.761999, Alt.=2764.791473m. Speed=4.000000m/h.]]></desc>
</trkpt>
<trkpt lat="36.766894" lon="137.762054">
<ele>2765.613876</ele>
<time>2014-08-18T22:57:07Z</time>
<desc><![CDATA[lat.=36.766894, lon.=137.762054, Alt.=2765.613876m. Speed=4.000000m/h.]]></desc>
</trkpt>
<trkpt lat="36.766927" lon="137.762096">
<ele>2764.118534</ele>
<time>2014-08-18T22:57:12Z</time>
<desc><![CDATA[lat.=36.766927, lon.=137.762096, Alt.=2764.118534m. Speed=4.000000m/h.]]></desc>
</trkpt>
<trkpt lat="36.766955" lon="137.762144">
<ele>2764.946421</ele>
<time>2014-08-18T22:57:17Z</time>
<desc><![CDATA[lat.=36.766955, lon.=137.762144, Alt.=2764.946421m. Speed=4.000000m/h.]]></desc>
</trkpt>
<trkpt lat="36.766984" lon="137.762177">
<ele>2763.989579</ele>
<time>2014-08-18T22:57:22Z</time>
<desc><![CDATA[lat.=36.766984, lon.=137.762177, Alt.=2763.989579m. Speed=4.000000m/h.]]></desc>
</trkpt>
<trkpt lat="36.767013" lon="137.762210">
<ele>2763.032740</ele>
<time>2014-08-18T22:57:27Z</time>
<desc><![CDATA[lat.=36.767013, lon.=137.762210, Alt.=2763.032740m. Speed=3.000000m/h.]]></desc>
</trkpt>
<trkpt lat="36.767038" lon="137.762251">
<ele>2762.668990</ele>
<time>2014-08-18T22:57:32Z</time>
<desc><![CDATA[lat.=36.767038, lon.=137.762251, Alt.=2762.668990m. Speed=3.000000m/h.]]></desc>
</trkpt>
<trkpt lat="36.767055" lon="137.762291">
<ele>2763.436819</ele>
<time>2014-08-18T22:57:37Z</time>
<desc><![CDATA[lat.=36.767055, lon.=137.762291, Alt.=2763.436819m. Speed=3.000000m/h.]]></desc>
</trkpt>
<trkpt lat="36.767083" lon="137.762339">
<ele>2764.264726</ele>
<time>2014-08-18T22:57:42Z</time>
<desc><![CDATA[lat.=36.767083, lon.=137.762339, Alt.=2764.264726m. Speed=3.000000m/h.]]></desc>
</trkpt>
<trkpt lat="36.767107" lon="137.762395">
<ele>2765.685723</ele>
<time>2014-08-18T22:57:47Z</time>
<desc><![CDATA[lat.=36.767107, lon.=137.762395, Alt.=2765.685723m. Speed=4.000000m/h.]]></desc>
</trkpt>
<trkpt lat="36.767128" lon="137.762443">
<ele>2765.915074</ele>
<time>2014-08-18T22:57:52Z</time>
<desc><![CDATA[lat.=36.767128, lon.=137.762443, Alt.=2765.915074m. Speed=4.000000m/h.]]></desc>
</trkpt>
<trkpt lat="36.767168" lon="137.762500">
<ele>2765.072932</ele>
<time>2014-08-18T22:57:57Z</time>
<desc><![CDATA[lat.=36.767168, lon.=137.762500, Alt.=2765.072932m. Speed=4.000000m/h.]]></desc>
</trkpt>
<trkpt lat="36.767188" lon="137.762548">
<ele>2765.302292</ele>
<time>2014-08-18T22:58:02Z</time>
<desc><![CDATA[lat.=36.767188, lon.=137.762548, Alt.=2765.302292m. Speed=4.000000m/h.]]></desc>
</trkpt>
<trkpt lat="36.767228" lon="137.762606">
<ele>2764.460163</ele>
<time>2014-08-18T22:58:07Z</time>
<desc><![CDATA[lat.=36.767228, lon.=137.762606, Alt.=2764.460163m. Speed=4.000000m/h.]]></desc>
</trkpt>
<trkpt lat="36.767253" lon="137.762646">
<ele>2764.096444</ele>
<time>2014-08-18T22:58:12Z</time>
<desc><![CDATA[lat.=36.767253, lon.=137.762646, Alt.=2764.096444m. Speed=4.000000m/h.]]></desc>
</trkpt>
<trkpt lat="36.767274" lon="137.762695">
<ele>2764.325816</ele>
<time>2014-08-18T22:58:17Z</time>
<desc><![CDATA[lat.=36.767274, lon.=137.762695, Alt.=2764.325816m. Speed=4.000000m/h.]]></desc>
</trkpt>
<trkpt lat="36.767291" lon="137.762735">
<ele>2763.363536</ele>
<time>2014-08-18T22:58:22Z</time>
<desc><![CDATA[lat.=36.767291, lon.=137.762735, Alt.=2763.363536m. Speed=4.000000m/h.]]></desc>
</trkpt>
<trkpt lat="36.767280" lon="137.762776">
<ele>2760.006994</ele>
<time>2014-08-18T22:58:27Z</time>
<desc><![CDATA[lat.=36.767280, lon.=137.762776, Alt.=2760.006994m. Speed=3.000000m/h.]]></desc>
</trkpt>
<trkpt lat="36.767265" lon="137.762808">
<ele>2758.919075</ele>
<time>2014-08-18T22:58:32Z</time>
<desc><![CDATA[lat.=36.767265, lon.=137.762808, Alt.=2758.919075m. Speed=3.000000m/h.]]></desc>
</trkpt>
<trkpt lat="36.767287" lon="137.762857">
<ele>2757.418319</ele>
<time>2014-08-18T22:58:37Z</time>
<desc><![CDATA[lat.=36.767287, lon.=137.762857, Alt.=2757.418319m. Speed=3.000000m/h.]]></desc>
</trkpt>
<trkpt lat="36.767278" lon="137.762904">
<ele>2756.983578</ele>
<time>2014-08-18T22:58:42Z</time>
<desc><![CDATA[lat.=36.767278, lon.=137.762904, Alt.=2756.983578m. Speed=3.000000m/h.]]></desc>
</trkpt>
<trkpt lat="36.767288" lon="137.762960">
<ele>2757.207490</ele>
<time>2014-08-18T22:58:47Z</time>
<desc><![CDATA[lat.=36.767288, lon.=137.762960, Alt.=2757.207490m. Speed=4.000000m/h.]]></desc>
</trkpt>
<trkpt lat="36.767294" lon="137.763024">
<ele>2756.294361</ele>
<time>2014-08-18T22:58:52Z</time>
<desc><![CDATA[lat.=36.767294, lon.=137.763024, Alt.=2756.294361m. Speed=4.000000m/h.]]></desc>
</trkpt>
<trkpt lat="36.767300" lon="137.763088">
<ele>2755.381236</ele>
<time>2014-08-18T22:58:57Z</time>
<desc><![CDATA[lat.=36.767300, lon.=137.763088, Alt.=2755.381236m. Speed=4.000000m/h.]]></desc>
</trkpt>
<trkpt lat="36.767310" lon="137.763144">
<ele>2753.875024</ele>
<time>2014-08-18T22:59:02Z</time>
<desc><![CDATA[lat.=36.767310, lon.=137.763144, Alt.=2753.875024m. Speed=4.000000m/h.]]></desc>
</trkpt>
<trkpt lat="36.767339" lon="137.763193">
<ele>2752.972858</ele>
<time>2014-08-18T22:59:07Z</time>
<desc><![CDATA[lat.=36.767339, lon.=137.763193, Alt.=2752.972858m. Speed=4.000000m/h.]]></desc>
</trkpt>
<trkpt lat="36.767349" lon="137.763234">
<ele>2751.412039</ele>
<time>2014-08-18T22:59:12Z</time>
<desc><![CDATA[lat.=36.767349, lon.=137.763234, Alt.=2751.412039m. Speed=3.000000m/h.]]></desc>
</trkpt>
<trkpt lat="36.767338" lon="137.763290">
<ele>2748.110137</ele>
<time>2014-08-18T22:59:17Z</time>
<desc><![CDATA[lat.=36.767338, lon.=137.763290, Alt.=2748.110137m. Speed=3.000000m/h.]]></desc>
</trkpt>
<trkpt lat="36.767348" lon="137.763331">
<ele>2746.549323</ele>
<time>2014-08-18T22:59:22Z</time>
<desc><![CDATA[lat.=36.767348, lon.=137.763331, Alt.=2746.549323m. Speed=3.000000m/h.]]></desc>
</trkpt>
<trkpt lat="36.767358" lon="137.763387">
<ele>2746.773267</ele>
<time>2014-08-18T22:59:27Z</time>
<desc><![CDATA[lat.=36.767358, lon.=137.763387, Alt.=2746.773267m. Speed=3.000000m/h.]]></desc>
</trkpt>
<trkpt lat="36.767376" lon="137.763443">
<ele>2745.865645</ele>
<time>2014-08-18T22:59:32Z</time>
<desc><![CDATA[lat.=36.767376, lon.=137.763443, Alt.=2745.865645m. Speed=4.000000m/h.]]></desc>
</trkpt>
<trkpt lat="36.767353" lon="137.763491">
<ele>2744.233802</ele>
<time>2014-08-18T22:59:37Z</time>
<desc><![CDATA[lat.=36.767353, lon.=137.763491, Alt.=2744.233802m. Speed=4.000000m/h.]]></desc>
</trkpt>
<trkpt lat="36.767356" lon="137.763547">
<ele>2742.129053</ele>
<time>2014-08-18T22:59:42Z</time>
<desc><![CDATA[lat.=36.767356, lon.=137.763547, Alt.=2742.129053m. Speed=4.000000m/h.]]></desc>
</trkpt>
<trkpt lat="36.767373" lon="137.763604">
<ele>2741.221442</ele>
<time>2014-08-18T22:59:47Z</time>
<desc><![CDATA[lat.=36.767373, lon.=137.763604, Alt.=2741.221442m. Speed=4.000000m/h.]]></desc>
</trkpt>
<trkpt lat="36.767350" lon="137.763651">
<ele>2739.589609</ele>
<time>2014-08-18T22:59:52Z</time>
<desc><![CDATA[lat.=36.767350, lon.=137.763651, Alt.=2739.589609m. Speed=4.000000m/h.]]></desc>
</trkpt>
<trkpt lat="36.767368" lon="137.763708">
<ele>2738.682005</ele>
<time>2014-08-18T22:59:57Z</time>
<desc><![CDATA[lat.=36.767368, lon.=137.763708, Alt.=2738.682005m. Speed=4.000000m/h.]]></desc>
</trkpt>
<trkpt lat="36.767374" lon="137.763772">
<ele>2737.768936</ele>
<time>2014-08-18T23:00:02Z</time>
<desc><![CDATA[lat.=36.767374, lon.=137.763772, Alt.=2737.768936m. Speed=4.000000m/h.]]></desc>
</trkpt>
<trkpt lat="36.767402" lon="137.763821">
<ele>2736.866812</ele>
<time>2014-08-18T23:00:07Z</time>
<desc><![CDATA[lat.=36.767402, lon.=137.763821, Alt.=2736.866812m. Speed=4.000000m/h.]]></desc>
</trkpt>
<trkpt lat="36.767423" lon="137.763868">
<ele>2738.826397</ele>
<time>2014-08-18T23:00:12Z</time>
<desc><![CDATA[lat.=36.767423, lon.=137.763868, Alt.=2738.826397m. Speed=4.000000m/h.]]></desc>
</trkpt>
<trkpt lat="36.767451" lon="137.763932">
<ele>2739.709047</ele>
<time>2014-08-18T23:00:17Z</time>
<desc><![CDATA[lat.=36.767451, lon.=137.763932, Alt.=2739.709047m. Speed=4.000000m/h.]]></desc>
</trkpt>
<trkpt lat="36.767461" lon="137.763973">
<ele>2738.148268</ele>
<time>2014-08-18T23:00:22Z</time>
<desc><![CDATA[lat.=36.767461, lon.=137.763973, Alt.=2738.148268m. Speed=4.000000m/h.]]></desc>
</trkpt>
<trkpt lat="36.767479" lon="137.764029">
<ele>2737.240691</ele>
<time>2014-08-18T23:00:27Z</time>
<desc><![CDATA[lat.=36.767479, lon.=137.764029, Alt.=2737.240691m. Speed=3.000000m/h.]]></desc>
</trkpt>
<trkpt lat="36.767474" lon="137.764069">
<ele>2736.212916</ele>
<time>2014-08-18T23:00:32Z</time>
<desc><![CDATA[lat.=36.767474, lon.=137.764069, Alt.=2736.212916m. Speed=3.000000m/h.]]></desc>
</trkpt>
<trkpt lat="36.767488" lon="137.764118">
<ele>2734.113677</ele>
<time>2014-08-18T23:00:37Z</time>
<desc><![CDATA[lat.=36.767488, lon.=137.764118, Alt.=2734.113677m. Speed=3.000000m/h.]]></desc>
</trkpt>
<trkpt lat="36.767477" lon="137.764158">
<ele>2732.487337</ele>
<time>2014-08-18T23:00:42Z</time>
<desc><![CDATA[lat.=36.767477, lon.=137.764158, Alt.=2732.487337m. Speed=3.000000m/h.]]></desc>
</trkpt>
<trkpt lat="36.767493" lon="137.764213">
<ele>2735.040047</ele>
<time>2014-08-18T23:00:47Z</time>
<desc><![CDATA[lat.=36.767493, lon.=137.764213, Alt.=2735.040047m. Speed=3.000000m/h.]]></desc>
</trkpt>
<trkpt lat="36.767507" lon="137.764246">
<ele>2734.616319</ele>
<time>2014-08-18T23:00:52Z</time>
<desc><![CDATA[lat.=36.767507, lon.=137.764246, Alt.=2734.616319m. Speed=3.000000m/h.]]></desc>
</trkpt>
<trkpt lat="36.767515" lon="137.764247">
<ele>2731.754615</ele>
<time>2014-08-18T23:00:57Z</time>
<desc><![CDATA[lat.=36.767515, lon.=137.764247, Alt.=2731.754615m. Speed=0.000000m/h.]]></desc>
</trkpt>
<trkpt lat="36.767519" lon="137.764271">
<ele>2731.270784</ele>
<time>2014-08-18T23:01:02Z</time>
<desc><![CDATA[lat.=36.767519, lon.=137.764271, Alt.=2731.270784m. Speed=2.000000m/h.]]></desc>
</trkpt>
<trkpt lat="36.767536" lon="137.764312">
<ele>2730.308594</ele>
<time>2014-08-18T23:01:07Z</time>
<desc><![CDATA[lat.=36.767536, lon.=137.764312, Alt.=2730.308594m. Speed=3.000000m/h.]]></desc>
</trkpt>
<trkpt lat="36.767532" lon="137.764351">
<ele>2731.010969</ele>
<time>2014-08-18T23:01:12Z</time>
<desc><![CDATA[lat.=36.767532, lon.=137.764351, Alt.=2731.010969m. Speed=3.000000m/h.]]></desc>
</trkpt>
<trkpt lat="36.767549" lon="137.764408">
<ele>2730.103421</ele>
<time>2014-08-18T23:01:17Z</time>
<desc><![CDATA[lat.=36.767549, lon.=137.764408, Alt.=2730.103421m. Speed=3.000000m/h.]]></desc>
</trkpt>
<trkpt lat="36.767556" lon="137.764456">
<ele>2729.135771</ele>
<time>2014-08-18T23:01:22Z</time>
<desc><![CDATA[lat.=36.767556, lon.=137.764456, Alt.=2729.135771m. Speed=3.000000m/h.]]></desc>
</trkpt>
<trkpt lat="36.767551" lon="137.764511">
<ele>2728.162656</ele>
<time>2014-08-18T23:01:27Z</time>
<desc><![CDATA[lat.=36.767551, lon.=137.764511, Alt.=2728.162656m. Speed=3.000000m/h.]]></desc>
</trkpt>
<trkpt lat="36.767536" lon="137.764543">
<ele>2727.074798</ele>
<time>2014-08-18T23:01:32Z</time>
<desc><![CDATA[lat.=36.767536, lon.=137.764543, Alt.=2727.074798m. Speed=3.000000m/h.]]></desc>
</trkpt>
<trkpt lat="36.767576" lon="137.764569">
<ele>2726.123554</ele>
<time>2014-08-18T23:01:37Z</time>
<desc><![CDATA[lat.=36.767576, lon.=137.764569, Alt.=2726.123554m. Speed=3.000000m/h.]]></desc>
</trkpt>
<trkpt lat="36.767582" lon="137.764617">
<ele>2725.155914</ele>
<time>2014-08-18T23:01:42Z</time>
<desc><![CDATA[lat.=36.767582, lon.=137.764617, Alt.=2725.155914m. Speed=3.000000m/h.]]></desc>
</trkpt>
<trkpt lat="36.767604" lon="137.764650">
<ele>2723.600639</ele>
<time>2014-08-18T23:01:47Z</time>
<desc><![CDATA[lat.=36.767604, lon.=137.764650, Alt.=2723.600639m. Speed=3.000000m/h.]]></desc>
</trkpt>
<trkpt lat="36.767629" lon="137.764691">
<ele>2723.237041</ele>
<time>2014-08-18T23:01:52Z</time>
<desc><![CDATA[lat.=36.767629, lon.=137.764691, Alt.=2723.237041m. Speed=3.000000m/h.]]></desc>
</trkpt>
<trkpt lat="36.767662" lon="137.764733">
<ele>2720.011747</ele>
<time>2014-08-18T23:01:57Z</time>
<desc><![CDATA[lat.=36.767662, lon.=137.764733, Alt.=2720.011747m. Speed=4.000000m/h.]]></desc>
</trkpt>
<trkpt lat="36.767698" lon="137.764766">
<ele>2719.653624</ele>
<time>2014-08-18T23:02:02Z</time>
<desc><![CDATA[lat.=36.767698, lon.=137.764766, Alt.=2719.653624m. Speed=4.000000m/h.]]></desc>
</trkpt>
<trkpt lat="36.767727" lon="137.764815">
<ele>2718.751578</ele>
<time>2014-08-18T23:02:07Z</time>
<desc><![CDATA[lat.=36.767727, lon.=137.764815, Alt.=2718.751578m. Speed=4.000000m/h.]]></desc>
</trkpt>
<trkpt lat="36.767766" lon="137.764856">
<ele>2719.585141</ele>
<time>2014-08-18T23:02:12Z</time>
<desc><![CDATA[lat.=36.767766, lon.=137.764856, Alt.=2719.585141m. Speed=4.000000m/h.]]></desc>
</trkpt>
<trkpt lat="36.767810" lon="137.764874">
<ele>2718.040820</ele>
<time>2014-08-18T23:02:17Z</time>
<desc><![CDATA[lat.=36.767810, lon.=137.764874, Alt.=2718.040820m. Speed=4.000000m/h.]]></desc>
</trkpt>
<trkpt lat="36.767839" lon="137.764890">
<ele>2718.759627</ele>
<time>2014-08-18T23:02:22Z</time>
<desc><![CDATA[lat.=36.767839, lon.=137.764890, Alt.=2718.759627m. Speed=4.000000m/h.]]></desc>
</trkpt>
<trkpt lat="36.767874" lon="137.764922">
<ele>2721.861794</ele>
<time>2014-08-18T23:02:27Z</time>
<desc><![CDATA[lat.=36.767874, lon.=137.764922, Alt.=2721.861794m. Speed=3.000000m/h.]]></desc>
</trkpt>
<trkpt lat="36.767908" lon="137.764932">
<ele>2720.257366</ele>
<time>2014-08-18T23:02:32Z</time>
<desc><![CDATA[lat.=36.767908, lon.=137.764932, Alt.=2720.257366m. Speed=3.000000m/h.]]></desc>
</trkpt>
<trkpt lat="36.767933" lon="137.764957">
<ele>2719.839148</ele>
<time>2014-08-18T23:02:37Z</time>
<desc><![CDATA[lat.=36.767933, lon.=137.764957, Alt.=2719.839148m. Speed=3.000000m/h.]]></desc>
</trkpt>
<trkpt lat="36.767955" lon="137.764958">
<ele>2718.174604</ele>
<time>2014-08-18T23:02:42Z</time>
<desc><![CDATA[lat.=36.767955, lon.=137.764958, Alt.=2718.174604m. Speed=2.000000m/h.]]></desc>
</trkpt>
<trkpt lat="36.767993" lon="137.764977">
<ele>2714.301590</ele>
<time>2014-08-18T23:02:47Z</time>
<desc><![CDATA[lat.=36.767993, lon.=137.764977, Alt.=2714.301590m. Speed=2.000000m/h.]]></desc>
</trkpt>
<trkpt lat="36.767999" lon="137.764992">
<ele>2716.684951</ele>
<time>2014-08-18T23:02:52Z</time>
<desc><![CDATA[lat.=36.767999, lon.=137.764992, Alt.=2716.684951m. Speed=2.000000m/h.]]></desc>
</trkpt>
<trkpt lat="36.768007" lon="137.765010">
<ele>2712.147771</ele>
<time>2014-08-18T23:02:57Z</time>
<desc><![CDATA[lat.=36.768007, lon.=137.765010, Alt.=2712.147771m. Speed=2.000000m/h.]]></desc>
</trkpt>
<trkpt lat="36.768032" lon="137.765034">
<ele>2713.459696</ele>
<time>2014-08-18T23:03:02Z</time>
<desc><![CDATA[lat.=36.768032, lon.=137.765034, Alt.=2713.459696m. Speed=2.000000m/h.]]></desc>
</trkpt>
<trkpt lat="36.768032" lon="137.765034">
<ele>2715.189831</ele>
<time>2014-08-18T23:03:07Z</time>
<desc><![CDATA[lat.=36.768032, lon.=137.765034, Alt.=2715.189831m. Speed=0.000000m/h.]]></desc>
</trkpt>
<trkpt lat="36.768038" lon="137.765065">
<ele>2715.897709</ele>
<time>2014-08-18T23:03:12Z</time>
<desc><![CDATA[lat.=36.768038, lon.=137.765065, Alt.=2715.897709m. Speed=1.000000m/h.]]></desc>
</trkpt>
<trkpt lat="36.768045" lon="137.765081">
<ele>2716.550937</ele>
<time>2014-08-18T23:03:17Z</time>
<desc><![CDATA[lat.=36.768045, lon.=137.765081, Alt.=2716.550937m. Speed=1.000000m/h.]]></desc>
</trkpt>
<trkpt lat="36.768056" lon="137.765074">
<ele>2716.556409</ele>
<time>2014-08-18T23:03:22Z</time>
<desc><![CDATA[lat.=36.768056, lon.=137.765074, Alt.=2716.556409m. Speed=2.000000m/h.]]></desc>
</trkpt>
<trkpt lat="36.768078" lon="137.765089">
<ele>2718.406792</ele>
<time>2014-08-18T23:03:27Z</time>
<desc><![CDATA[lat.=36.768078, lon.=137.765089, Alt.=2718.406792m. Speed=1.000000m/h.]]></desc>
</trkpt>
<trkpt lat="36.768096" lon="137.765115">
<ele>2715.659875</ele>
<time>2014-08-18T23:03:32Z</time>
<desc><![CDATA[lat.=36.768096, lon.=137.765115, Alt.=2715.659875m. Speed=1.000000m/h.]]></desc>
</trkpt>
<trkpt lat="36.768096" lon="137.765114">
<ele>2717.390010</ele>
<time>2014-08-18T23:03:37Z</time>
<desc><![CDATA[lat.=36.768096, lon.=137.765114, Alt.=2717.390010m. Speed=1.000000m/h.]]></desc>
</trkpt>
<trkpt lat="36.768117" lon="137.765114">
<ele>2720.915879</ele>
<time>2014-08-18T23:03:42Z</time>
<desc><![CDATA[lat.=36.768117, lon.=137.765114, Alt.=2720.915879m. Speed=2.000000m/h.]]></desc>
</trkpt>
<trkpt lat="36.768147" lon="137.765132">
<ele>2718.174438</ele>
<time>2014-08-18T23:03:47Z</time>
<desc><![CDATA[lat.=36.768147, lon.=137.765132, Alt.=2718.174438m. Speed=2.000000m/h.]]></desc>
</trkpt>
<trkpt lat="36.768168" lon="137.765132">
<ele>2719.970173</ele>
<time>2014-08-18T23:03:52Z</time>
<desc><![CDATA[lat.=36.768168, lon.=137.765132, Alt.=2719.970173m. Speed=2.000000m/h.]]></desc>
</trkpt>
<trkpt lat="36.768189" lon="137.765147">
<ele>2721.820562</ele>
<time>2014-08-18T23:03:57Z</time>
<desc><![CDATA[lat.=36.768189, lon.=137.765147, Alt.=2721.820562m. Speed=2.000000m/h.]]></desc>
</trkpt>
<trkpt lat="36.768204" lon="137.765180">
<ele>2721.396890</ele>
<time>2014-08-18T23:04:02Z</time>
<desc><![CDATA[lat.=36.768204, lon.=137.765180, Alt.=2721.396890m. Speed=2.000000m/h.]]></desc>
</trkpt>
<trkpt lat="36.768226" lon="137.765181">
<ele>2721.462493</ele>
<time>2014-08-18T23:04:07Z</time>
<desc><![CDATA[lat.=36.768226, lon.=137.765181, Alt.=2721.462493m. Speed=2.000000m/h.]]></desc>
</trkpt>
<trkpt lat="36.768237" lon="137.765190">
<ele>2719.792486</ele>
<time>2014-08-18T23:04:12Z</time>
<desc><![CDATA[lat.=36.768237, lon.=137.765190, Alt.=2719.792486m. Speed=2.000000m/h.]]></desc>
</trkpt>
<trkpt lat="36.768251" lon="137.765221">
<ele>2721.098952</ele>
<time>2014-08-18T23:04:17Z</time>
<desc><![CDATA[lat.=36.768251, lon.=137.765221, Alt.=2721.098952m. Speed=2.000000m/h.]]></desc>
</trkpt>
<trkpt lat="36.768261" lon="137.765245">
<ele>2722.943871</ele>
<time>2014-08-18T23:04:22Z</time>
<desc><![CDATA[lat.=36.768261, lon.=137.765245, Alt.=2722.943871m. Speed=2.000000m/h.]]></desc>
</trkpt>
<trkpt lat="36.768275" lon="137.765261">
<ele>2722.465550</ele>
<time>2014-08-18T23:04:27Z</time>
<desc><![CDATA[lat.=36.768275, lon.=137.765261, Alt.=2722.465550m. Speed=0.000000m/h.]]></desc>
</trkpt>
<trkpt lat="36.768279" lon="137.765254">
<ele>2721.872445</ele>
<time>2014-08-18T23:04:32Z</time>
<desc><![CDATA[lat.=36.768279, lon.=137.765254, Alt.=2721.872445m. Speed=0.000000m/h.]]></desc>
</trkpt>
<trkpt lat="36.768286" lon="137.765269">
<ele>2722.525680</ele>
<time>2014-08-18T23:04:37Z</time>
<desc><![CDATA[lat.=36.768286, lon.=137.765269, Alt.=2722.525680m. Speed=1.000000m/h.]]></desc>
</trkpt>
<trkpt lat="36.768303" lon="137.765309">
<ele>2725.023837</ele>
<time>2014-08-18T23:04:42Z</time>
<desc><![CDATA[lat.=36.768303, lon.=137.765309, Alt.=2725.023837m. Speed=3.000000m/h.]]></desc>
</trkpt>
<trkpt lat="36.768327" lon="137.765349">
<ele>2726.390441</ele>
<time>2014-08-18T23:04:47Z</time>
<desc><![CDATA[lat.=36.768327, lon.=137.765349, Alt.=2726.390441m. Speed=3.000000m/h.]]></desc>
</trkpt>
<trkpt lat="36.768371" lon="137.765382">
<ele>2724.900837</ele>
<time>2014-08-18T23:04:52Z</time>
<desc><![CDATA[lat.=36.768371, lon.=137.765382, Alt.=2724.900837m. Speed=3.000000m/h.]]></desc>
</trkpt>
<trkpt lat="36.768392" lon="137.765398">
<ele>2726.751239</ele>
<time>2014-08-18T23:04:57Z</time>
<desc><![CDATA[lat.=36.768392, lon.=137.765398, Alt.=2726.751239m. Speed=3.000000m/h.]]></desc>
</trkpt>
<trkpt lat="36.768413" lon="137.765430">
<ele>2728.656299</ele>
<time>2014-08-18T23:05:02Z</time>
<desc><![CDATA[lat.=36.768413, lon.=137.765430, Alt.=2728.656299m. Speed=3.000000m/h.]]></desc>
</trkpt>
<trkpt lat="36.768438" lon="137.765454">
<ele>2729.968257</ele>
<time>2014-08-18T23:05:07Z</time>
<desc><![CDATA[lat.=36.768438, lon.=137.765454, Alt.=2729.968257m. Speed=3.000000m/h.]]></desc>
</trkpt>
<trkpt lat="36.768462" lon="137.765477">
<ele>2734.740486</ele>
<time>2014-08-18T23:05:12Z</time>
<desc><![CDATA[lat.=36.768462, lon.=137.765477, Alt.=2734.740486m. Speed=3.000000m/h.]]></desc>
</trkpt>
<trkpt lat="36.768491" lon="137.765510">
<ele>2733.783866</ele>
<time>2014-08-18T23:05:17Z</time>
<desc><![CDATA[lat.=36.768491, lon.=137.765510, Alt.=2733.783866m. Speed=3.000000m/h.]]></desc>
</trkpt>
<trkpt lat="36.768543" lon="137.765528">
<ele>2732.838207</ele>
<time>2014-08-18T23:05:22Z</time>
<desc><![CDATA[lat.=36.768543, lon.=137.765528, Alt.=2732.838207m. Speed=3.000000m/h.]]></desc>
</trkpt>
<trkpt lat="36.768568" lon="137.765570">
<ele>2729.014430</ele>
<time>2014-08-18T23:05:27Z</time>
<desc><![CDATA[lat.=36.768568, lon.=137.765570, Alt.=2729.014430m. Speed=3.000000m/h.]]></desc>
</trkpt>
<trkpt lat="36.768597" lon="137.765602">
<ele>2729.787955</ele>
<time>2014-08-18T23:05:32Z</time>
<desc><![CDATA[lat.=36.768597, lon.=137.765602, Alt.=2729.787955m. Speed=3.000000m/h.]]></desc>
</trkpt>
<trkpt lat="36.768622" lon="137.765627">
<ele>2729.369792</ele>
<time>2014-08-18T23:05:37Z</time>
<desc><![CDATA[lat.=36.768622, lon.=137.765627, Alt.=2729.369792m. Speed=3.000000m/h.]]></desc>
</trkpt>
<trkpt lat="36.768636" lon="137.765675">
<ele>2730.730948</ele>
<time>2014-08-18T23:05:42Z</time>
<desc><![CDATA[lat.=36.768636, lon.=137.765675, Alt.=2730.730948m. Speed=3.000000m/h.]]></desc>
</trkpt>
<trkpt lat="36.768661" lon="137.765700">
<ele>2730.312790</ele>
<time>2014-08-18T23:05:47Z</time>
<desc><![CDATA[lat.=36.768661, lon.=137.765700, Alt.=2730.312790m. Speed=3.000000m/h.]]></desc>
</trkpt>
<trkpt lat="36.768693" lon="137.765740">
<ele>2730.547882</ele>
<time>2014-08-18T23:05:52Z</time>
<desc><![CDATA[lat.=36.768693, lon.=137.765740, Alt.=2730.547882m. Speed=3.000000m/h.]]></desc>
</trkpt>
<trkpt lat="36.768718" lon="137.765764">
<ele>2731.859863</ele>
<time>2014-08-18T23:05:57Z</time>
<desc><![CDATA[lat.=36.768718, lon.=137.765764, Alt.=2731.859863m. Speed=3.000000m/h.]]></desc>
</trkpt>
<trkpt lat="36.768743" lon="137.765805">
<ele>2731.496376</ele>
<time>2014-08-18T23:06:02Z</time>
<desc><![CDATA[lat.=36.768743, lon.=137.765805, Alt.=2731.496376m. Speed=3.000000m/h.]]></desc>
</trkpt>
<trkpt lat="36.768764" lon="137.765837">
<ele>2733.401467</ele>
<time>2014-08-18T23:06:07Z</time>
<desc><![CDATA[lat.=36.768764, lon.=137.765837, Alt.=2733.401467m. Speed=3.000000m/h.]]></desc>
</trkpt>
<trkpt lat="36.768789" lon="137.765861">
<ele>2734.713454</ele>
<time>2014-08-18T23:06:12Z</time>
<desc><![CDATA[lat.=36.768789, lon.=137.765861, Alt.=2734.713454m. Speed=3.000000m/h.]]></desc>
</trkpt>
<trkpt lat="36.768814" lon="137.765902">
<ele>2734.349975</ele>
<time>2014-08-18T23:06:17Z</time>
<desc><![CDATA[lat.=36.768814, lon.=137.765902, Alt.=2734.349975m. Speed=3.000000m/h.]]></desc>
</trkpt>
<trkpt lat="36.768853" lon="137.765926">
<ele>2735.129008</ele>
<time>2014-08-18T23:06:22Z</time>
<desc><![CDATA[lat.=36.768853, lon.=137.765926, Alt.=2735.129008m. Speed=3.000000m/h.]]></desc>
</trkpt>
<trkpt lat="36.768874" lon="137.765958">
<ele>2737.034108</ele>
<time>2014-08-18T23:06:27Z</time>
<desc><![CDATA[lat.=36.768874, lon.=137.765958, Alt.=2737.034108m. Speed=3.000000m/h.]]></desc>
</trkpt>
<trkpt lat="36.768907" lon="137.765999">
<ele>2735.539094</ele>
<time>2014-08-18T23:06:32Z</time>
<desc><![CDATA[lat.=36.768907, lon.=137.765999, Alt.=2735.539094m. Speed=3.000000m/h.]]></desc>
</trkpt>
<trkpt lat="36.768932" lon="137.766040">
<ele>2735.175628</ele>
<time>2014-08-18T23:06:37Z</time>
<desc><![CDATA[lat.=36.768932, lon.=137.766040, Alt.=2735.175628m. Speed=3.000000m/h.]]></desc>
</trkpt>
<trkpt lat="36.768964" lon="137.766065">
<ele>2735.356085</ele>
<time>2014-08-18T23:06:42Z</time>
<desc><![CDATA[lat.=36.768964, lon.=137.766065, Alt.=2735.356085m. Speed=4.000000m/h.]]></desc>
</trkpt>
<trkpt lat="36.768993" lon="137.766098">
<ele>2734.399518</ele>
<time>2014-08-18T23:06:47Z</time>
<desc><![CDATA[lat.=36.768993, lon.=137.766098, Alt.=2734.399518m. Speed=4.000000m/h.]]></desc>
</trkpt>
<trkpt lat="36.769029" lon="137.766131">
<ele>2734.041544</ele>
<time>2014-08-18T23:06:52Z</time>
<desc><![CDATA[lat.=36.769029, lon.=137.766131, Alt.=2734.041544m. Speed=3.000000m/h.]]></desc>
</trkpt>
<trkpt lat="36.769069" lon="137.766173">
<ele>2733.145140</ele>
<time>2014-08-18T23:06:57Z</time>
<desc><![CDATA[lat.=36.769069, lon.=137.766173, Alt.=2733.145140m. Speed=4.000000m/h.]]></desc>
</trkpt>
<trkpt lat="36.769098" lon="137.766206">
<ele>2732.188583</ele>
<time>2014-08-18T23:07:02Z</time>
<desc><![CDATA[lat.=36.769098, lon.=137.766206, Alt.=2732.188583m. Speed=3.000000m/h.]]></desc>
</trkpt>
<trkpt lat="36.769157" lon="137.766225">
<ele>2730.111459</ele>
<time>2014-08-18T23:07:07Z</time>
<desc><![CDATA[lat.=36.769157, lon.=137.766225, Alt.=2730.111459m. Speed=4.000000m/h.]]></desc>
</trkpt>
<trkpt lat="36.769197" lon="137.766250">
<ele>2729.160395</ele>
<time>2014-08-18T23:07:12Z</time>
<desc><![CDATA[lat.=36.769197, lon.=137.766250, Alt.=2729.160395m. Speed=4.000000m/h.]]></desc>
</trkpt>
<trkpt lat="36.769244" lon="137.766275">
<ele>2730.538062</ele>
<time>2014-08-18T23:07:17Z</time>
<desc><![CDATA[lat.=36.769244, lon.=137.766275, Alt.=2730.538062m. Speed=4.000000m/h.]]></desc>
</trkpt>
<trkpt lat="36.769291" lon="137.766301">
<ele>2730.185601</ele>
<time>2014-08-18T23:07:22Z</time>
<desc><![CDATA[lat.=36.769291, lon.=137.766301, Alt.=2730.185601m. Speed=4.000000m/h.]]></desc>
</trkpt>
<trkpt lat="36.769339" lon="137.766327">
<ele>2729.833146</ele>
<time>2014-08-18T23:07:27Z</time>
<desc><![CDATA[lat.=36.769339, lon.=137.766327, Alt.=2729.833146m. Speed=4.000000m/h.]]></desc>
</trkpt>
<trkpt lat="36.769374" lon="137.766376">
<ele>2729.529882</ele>
<time>2014-08-18T23:07:32Z</time>
<desc><![CDATA[lat.=36.769374, lon.=137.766376, Alt.=2729.529882m. Speed=4.000000m/h.]]></desc>
</trkpt>
<trkpt lat="36.769410" lon="137.766425">
<ele>2729.226623</ele>
<time>2014-08-18T23:07:37Z</time>
<desc><![CDATA[lat.=36.769410, lon.=137.766425, Alt.=2729.226623m. Speed=4.000000m/h.]]></desc>
</trkpt>
<trkpt lat="36.769438" lon="137.766456">
<ele>2731.730362</ele>
<time>2014-08-18T23:07:42Z</time>
<desc><![CDATA[lat.=36.769438, lon.=137.766456, Alt.=2731.730362m. Speed=4.000000m/h.]]></desc>
</trkpt>
<trkpt lat="36.769446" lon="137.766456">
<ele>2732.328958</ele>
<time>2014-08-18T23:07:47Z</time>
<desc><![CDATA[lat.=36.769446, lon.=137.766456, Alt.=2732.328958m. Speed=2.000000m/h.]]></desc>
</trkpt>
<trkpt lat="36.769457" lon="137.766449">
<ele>2732.334448</ele>
<time>2014-08-18T23:07:54Z</time>
<desc><![CDATA[lat.=36.769457, lon.=137.766449, Alt.=2732.334448m. Speed=1.000000m/h.]]></desc>
</trkpt>
<trkpt lat="36.769501" lon="137.766450">
<ele>2732.465764</ele>
<time>2014-08-18T23:07:59Z</time>
<desc><![CDATA[lat.=36.769501, lon.=137.766450, Alt.=2732.465764m. Speed=3.000000m/h.]]></desc>
</trkpt>
<trkpt lat="36.769512" lon="137.766459">
<ele>2730.795799</ele>
<time>2014-08-18T23:08:04Z</time>
<desc><![CDATA[lat.=36.769512, lon.=137.766459, Alt.=2730.795799m. Speed=2.000000m/h.]]></desc>
</trkpt>
<trkpt lat="36.769541" lon="137.766492">
<ele>2731.569412</ele>
<time>2014-08-18T23:08:09Z</time>
<desc><![CDATA[lat.=36.769541, lon.=137.766492, Alt.=2731.569412m. Speed=3.000000m/h.]]></desc>
</trkpt>
<trkpt lat="36.769573" lon="137.766532">
<ele>2731.804600</ele>
<time>2014-08-18T23:08:14Z</time>
<desc><![CDATA[lat.=36.769573, lon.=137.766532, Alt.=2731.804600m. Speed=3.000000m/h.]]></desc>
</trkpt>
<trkpt lat="36.769609" lon="137.766565">
<ele>2733.176818</ele>
<time>2014-08-18T23:08:19Z</time>
<desc><![CDATA[lat.=36.769609, lon.=137.766565, Alt.=2733.176818m. Speed=4.000000m/h.]]></desc>
</trkpt>
<trkpt lat="36.769637" lon="137.766597">
<ele>2733.950440</ele>
<time>2014-08-18T23:08:24Z</time>
<desc><![CDATA[lat.=36.769637, lon.=137.766597, Alt.=2733.950440m. Speed=4.000000m/h.]]></desc>
</trkpt>
<trkpt lat="36.769669" lon="137.766621">
<ele>2735.861092</ele>
<time>2014-08-18T23:08:29Z</time>
<desc><![CDATA[lat.=36.769669, lon.=137.766621, Alt.=2735.861092m. Speed=3.000000m/h.]]></desc>
</trkpt>
<trkpt lat="36.769691" lon="137.766654">
<ele>2734.305987</ele>
<time>2014-08-18T23:08:34Z</time>
<desc><![CDATA[lat.=36.769691, lon.=137.766654, Alt.=2734.305987m. Speed=3.000000m/h.]]></desc>
</trkpt>
<trkpt lat="36.769701" lon="137.766695">
<ele>2732.745392</ele>
<time>2014-08-18T23:08:39Z</time>
<desc><![CDATA[lat.=36.769701, lon.=137.766695, Alt.=2732.745392m. Speed=3.000000m/h.]]></desc>
</trkpt>
<trkpt lat="36.769704" lon="137.766735">
<ele>2732.316332</ele>
<time>2014-08-18T23:08:44Z</time>
<desc><![CDATA[lat.=36.769704, lon.=137.766735, Alt.=2732.316332m. Speed=3.000000m/h.]]></desc>
</trkpt>
<trkpt lat="36.769722" lon="137.766776">
<ele>2731.354341</ele>
<time>2014-08-18T23:08:49Z</time>
<desc><![CDATA[lat.=36.769722, lon.=137.766776, Alt.=2731.354341m. Speed=3.000000m/h.]]></desc>
</trkpt>
<trkpt lat="36.769748" lon="137.766768">
<ele>2732.557035</ele>
<time>2014-08-18T23:08:54Z</time>
<desc><![CDATA[lat.=36.769748, lon.=137.766768, Alt.=2732.557035m. Speed=3.000000m/h.]]></desc>
</trkpt>
<trkpt lat="36.769777" lon="137.766785">
<ele>2733.275990</ele>
<time>2014-08-18T23:08:59Z</time>
<desc><![CDATA[lat.=36.769777, lon.=137.766785, Alt.=2733.275990m. Speed=3.000000m/h.]]></desc>
</trkpt>
<trkpt lat="36.769786" lon="137.766824">
<ele>2735.175668</ele>
<time>2014-08-18T23:09:04Z</time>
<desc><![CDATA[lat.=36.769786, lon.=137.766824, Alt.=2735.175668m. Speed=3.000000m/h.]]></desc>
</trkpt>
<trkpt lat="36.769789" lon="137.766847">
<ele>2736.422062</ele>
<time>2014-08-18T23:09:09Z</time>
<desc><![CDATA[lat.=36.769789, lon.=137.766847, Alt.=2736.422062m. Speed=3.000000m/h.]]></desc>
</trkpt>
<trkpt lat="36.769814" lon="137.766872">
<ele>2736.003996</ele>
<time>2014-08-18T23:09:14Z</time>
<desc><![CDATA[lat.=36.769814, lon.=137.766872, Alt.=2736.003996m. Speed=3.000000m/h.]]></desc>
</trkpt>
<trkpt lat="36.769863" lon="137.766867">
<ele>2733.812103</ele>
<time>2014-08-18T23:09:19Z</time>
<desc><![CDATA[lat.=36.769863, lon.=137.766867, Alt.=2733.812103m. Speed=3.000000m/h.]]></desc>
</trkpt>
<trkpt lat="36.769900" lon="137.766868">
<ele>2733.344852</ele>
<time>2014-08-18T23:09:24Z</time>
<desc><![CDATA[lat.=36.769900, lon.=137.766868, Alt.=2733.344852m. Speed=3.000000m/h.]]></desc>
</trkpt>
<trkpt lat="36.769932" lon="137.766908">
<ele>2735.310213</ele>
<time>2014-08-18T23:09:29Z</time>
<desc><![CDATA[lat.=36.769932, lon.=137.766908, Alt.=2735.310213m. Speed=3.000000m/h.]]></desc>
</trkpt>
<trkpt lat="36.769961" lon="137.766910">
<ele>2734.244363</ele>
<time>2014-08-18T23:09:34Z</time>
<desc><![CDATA[lat.=36.769961, lon.=137.766910, Alt.=2734.244363m. Speed=3.000000m/h.]]></desc>
</trkpt>
<trkpt lat="36.769982" lon="137.766941">
<ele>2736.149547</ele>
<time>2014-08-18T23:09:39Z</time>
<desc><![CDATA[lat.=36.769982, lon.=137.766941, Alt.=2736.149547m. Speed=3.000000m/h.]]></desc>
</trkpt>
<trkpt lat="36.770008" lon="137.766950">
<ele>2735.676807</ele>
<time>2014-08-18T23:09:44Z</time>
<desc><![CDATA[lat.=36.770008, lon.=137.766950, Alt.=2735.676807m. Speed=3.000000m/h.]]></desc>
</trkpt>
<trkpt lat="36.770036" lon="137.766966">
<ele>2738.125912</ele>
<time>2014-08-18T23:09:49Z</time>
<desc><![CDATA[lat.=36.770036, lon.=137.766966, Alt.=2738.125912m. Speed=3.000000m/h.]]></desc>
</trkpt>
<trkpt lat="36.770062" lon="137.766991">
<ele>2737.707862</ele>
<time>2014-08-18T23:09:54Z</time>
<desc><![CDATA[lat.=36.770062, lon.=137.766991, Alt.=2737.707862m. Speed=3.000000m/h.]]></desc>
</trkpt>
<trkpt lat="36.770094" lon="137.767032">
<ele>2737.943108</ele>
<time>2014-08-18T23:09:59Z</time>
<desc><![CDATA[lat.=36.770094, lon.=137.767032, Alt.=2737.943108m. Speed=3.000000m/h.]]></desc>
</trkpt>
<trkpt lat="36.770107" lon="137.767063">
<ele>2740.979828</ele>
<time>2014-08-18T23:10:04Z</time>
<desc><![CDATA[lat.=36.770107, lon.=137.767063, Alt.=2740.979828m. Speed=3.000000m/h.]]></desc>
</trkpt>
<trkpt lat="36.770146" lon="137.767103">
<ele>2741.813686</ele>
<time>2014-08-18T23:10:09Z</time>
<desc><![CDATA[lat.=36.770146, lon.=137.767103, Alt.=2741.813686m. Speed=3.000000m/h.]]></desc>
</trkpt>
<trkpt lat="36.770195" lon="137.767115">
<ele>2737.946381</ele>
<time>2014-08-18T23:10:14Z</time>
<desc><![CDATA[lat.=36.770195, lon.=137.767115, Alt.=2737.946381m. Speed=4.000000m/h.]]></desc>
</trkpt>
<trkpt lat="36.770238" lon="137.767148">
<ele>2738.187142</ele>
<time>2014-08-18T23:10:19Z</time>
<desc><![CDATA[lat.=36.770238, lon.=137.767148, Alt.=2738.187142m. Speed=4.000000m/h.]]></desc>
</trkpt>
<trkpt lat="36.770279" lon="137.767158">
<ele>2737.181501</ele>
<time>2014-08-18T23:10:24Z</time>
<desc><![CDATA[lat.=36.770279, lon.=137.767158, Alt.=2737.181501m. Speed=4.000000m/h.]]></desc>
</trkpt>
<trkpt lat="36.770315" lon="137.767175">
<ele>2736.768970</ele>
<time>2014-08-18T23:10:29Z</time>
<desc><![CDATA[lat.=36.770315, lon.=137.767175, Alt.=2736.768970m. Speed=4.000000m/h.]]></desc>
</trkpt>
<trkpt lat="36.770363" lon="137.767201">
<ele>2736.416637</ele>
<time>2014-08-18T23:10:34Z</time>
<desc><![CDATA[lat.=36.770363, lon.=137.767201, Alt.=2736.416637m. Speed=4.000000m/h.]]></desc>
</trkpt>
<trkpt lat="36.770403" lon="137.767226">
<ele>2735.465698</ele>
<time>2014-08-18T23:10:39Z</time>
<desc><![CDATA[lat.=36.770403, lon.=137.767226, Alt.=2735.465698m. Speed=4.000000m/h.]]></desc>
</trkpt>
<trkpt lat="36.770442" lon="137.767284">
<ele>2734.624149</ele>
<time>2014-08-18T23:10:44Z</time>
<desc><![CDATA[lat.=36.770442, lon.=137.767284, Alt.=2734.624149m. Speed=4.000000m/h.]]></desc>
</trkpt>
<trkpt lat="36.770474" lon="137.767308">
<ele>2736.534871</ele>
<time>2014-08-18T23:10:49Z</time>
<desc><![CDATA[lat.=36.770474, lon.=137.767308, Alt.=2736.534871m. Speed=4.000000m/h.]]></desc>
</trkpt>
<trkpt lat="36.770488" lon="137.767307">
<ele>2739.462224</ele>
<time>2014-08-18T23:10:54Z</time>
<desc><![CDATA[lat.=36.770488, lon.=137.767307, Alt.=2739.462224m. Speed=3.000000m/h.]]></desc>
</trkpt>
<trkpt lat="36.770477" lon="137.767298">
<ele>2741.132158</ele>
<time>2014-08-18T23:10:59Z</time>
<desc><![CDATA[lat.=36.770477, lon.=137.767298, Alt.=2741.132158m. Speed=0.000000m/h.]]></desc>
</trkpt>
<trkpt lat="36.770471" lon="137.767283">
<ele>2738.748723</ele>
<time>2014-08-18T23:11:04Z</time>
<desc><![CDATA[lat.=36.770471, lon.=137.767283, Alt.=2738.748723m. Speed=0.000000m/h.]]></desc>
</trkpt>
<trkpt lat="36.770467" lon="137.767275">
<ele>2739.287136</ele>
<time>2014-08-18T23:11:09Z</time>
<desc><![CDATA[lat.=36.770467, lon.=137.767275, Alt.=2739.287136m. Speed=0.000000m/h.]]></desc>
</trkpt>
<trkpt lat="36.770492" lon="137.767299">
<ele>2738.869117</ele>
<time>2014-08-18T23:11:14Z</time>
<desc><![CDATA[lat.=36.770492, lon.=137.767299, Alt.=2738.869117m. Speed=3.000000m/h.]]></desc>
</trkpt>
<trkpt lat="36.770539" lon="137.767324">
<ele>2740.246935</ele>
<time>2014-08-18T23:11:19Z</time>
<desc><![CDATA[lat.=36.770539, lon.=137.767324, Alt.=2740.246935m. Speed=3.000000m/h.]]></desc>
</trkpt>
<trkpt lat="36.770579" lon="137.767349">
<ele>2741.026145</ele>
<time>2014-08-18T23:11:24Z</time>
<desc><![CDATA[lat.=36.770579, lon.=137.767349, Alt.=2741.026145m. Speed=3.000000m/h.]]></desc>
</trkpt>
<trkpt lat="36.770623" lon="137.767367">
<ele>2739.482122</ele>
<time>2014-08-18T23:11:29Z</time>
<desc><![CDATA[lat.=36.770623, lon.=137.767367, Alt.=2739.482122m. Speed=3.000000m/h.]]></desc>
</trkpt>
<trkpt lat="36.770655" lon="137.767424">
<ele>2739.772117</ele>
<time>2014-08-18T23:11:34Z</time>
<desc><![CDATA[lat.=36.770655, lon.=137.767424, Alt.=2739.772117m. Speed=3.000000m/h.]]></desc>
</trkpt>
<trkpt lat="36.770683" lon="137.767473">
<ele>2738.870398</ele>
<time>2014-08-18T23:11:39Z</time>
<desc><![CDATA[lat.=36.770683, lon.=137.767473, Alt.=2738.870398m. Speed=3.000000m/h.]]></desc>
</trkpt>
<trkpt lat="36.770705" lon="137.767522">
<ele>2737.370068</ele>
<time>2014-08-18T23:11:44Z</time>
<desc><![CDATA[lat.=36.770705, lon.=137.767522, Alt.=2737.370068m. Speed=4.000000m/h.]]></desc>
</trkpt>
<trkpt lat="36.770733" lon="137.767571">
<ele>2736.468358</ele>
<time>2014-08-18T23:11:49Z</time>
<desc><![CDATA[lat.=36.770733, lon.=137.767571, Alt.=2736.468358m. Speed=4.000000m/h.]]></desc>
</trkpt>
<trkpt lat="36.770747" lon="137.767619">
<ele>2736.099553</ele>
<time>2014-08-18T23:11:54Z</time>
<desc><![CDATA[lat.=36.770747, lon.=137.767619, Alt.=2736.099553m. Speed=3.000000m/h.]]></desc>
</trkpt>
<trkpt lat="36.770772" lon="137.767675">
<ele>2735.790958</ele>
<time>2014-08-18T23:11:59Z</time>
<desc><![CDATA[lat.=36.770772, lon.=137.767675, Alt.=2735.790958m. Speed=4.000000m/h.]]></desc>
</trkpt>
<trkpt lat="36.770797" lon="137.767717">
<ele>2733.697537</ele>
<time>2014-08-18T23:12:04Z</time>
<desc><![CDATA[lat.=36.770797, lon.=137.767717, Alt.=2733.697537m. Speed=4.000000m/h.]]></desc>
</trkpt>
<trkpt lat="36.770804" lon="137.767766">
<ele>2730.999996</ele>
<time>2014-08-18T23:12:09Z</time>
<desc><![CDATA[lat.=36.770804, lon.=137.767766, Alt.=2730.999996m. Speed=4.000000m/h.]]></desc>
</trkpt>
<trkpt lat="36.770821" lon="137.767822">
<ele>2731.822929</ele>
<time>2014-08-18T23:12:14Z</time>
<desc><![CDATA[lat.=36.770821, lon.=137.767822, Alt.=2731.822929m. Speed=4.000000m/h.]]></desc>
</trkpt>
<trkpt lat="36.770834" lon="137.767869">
<ele>2733.184272</ele>
<time>2014-08-18T23:12:19Z</time>
<desc><![CDATA[lat.=36.770834, lon.=137.767869, Alt.=2733.184272m. Speed=3.000000m/h.]]></desc>
</trkpt>
<trkpt lat="36.770844" lon="137.767909">
<ele>2733.353893</ele>
<time>2014-08-18T23:12:24Z</time>
<desc><![CDATA[lat.=36.770844, lon.=137.767909, Alt.=2733.353893m. Speed=3.000000m/h.]]></desc>
</trkpt>
<trkpt lat="36.770869" lon="137.767949">
<ele>2734.720748</ele>
<time>2014-08-18T23:12:29Z</time>
<desc><![CDATA[lat.=36.770869, lon.=137.767949, Alt.=2734.720748m. Speed=3.000000m/h.]]></desc>
</trkpt>
<trkpt lat="36.770872" lon="137.767973">
<ele>2734.237050</ele>
<time>2014-08-18T23:12:34Z</time>
<desc><![CDATA[lat.=36.770872, lon.=137.767973, Alt.=2734.237050m. Speed=3.000000m/h.]]></desc>
</trkpt>
<trkpt lat="36.770874" lon="137.768011">
<ele>2737.268320</ele>
<time>2014-08-18T23:12:39Z</time>
<desc><![CDATA[lat.=36.770874, lon.=137.768011, Alt.=2737.268320m. Speed=3.000000m/h.]]></desc>
</trkpt>
<trkpt lat="36.770877" lon="137.768051">
<ele>2738.569462</ele>
<time>2014-08-18T23:12:44Z</time>
<desc><![CDATA[lat.=36.770877, lon.=137.768051, Alt.=2738.569462m. Speed=2.000000m/h.]]></desc>
</trkpt>
<trkpt lat="36.770894" lon="137.768091">
<ele>2737.607579</ele>
<time>2014-08-18T23:12:49Z</time>
<desc><![CDATA[lat.=36.770894, lon.=137.768091, Alt.=2737.607579m. Speed=2.000000m/h.]]></desc>
</trkpt>
<trkpt lat="36.770901" lon="137.768124">
<ele>2736.585483</ele>
<time>2014-08-18T23:12:54Z</time>
<desc><![CDATA[lat.=36.770901, lon.=137.768124, Alt.=2736.585483m. Speed=2.000000m/h.]]></desc>
</trkpt>
<trkpt lat="36.770916" lon="137.768140">
<ele>2736.107296</ele>
<time>2014-08-18T23:12:59Z</time>
<desc><![CDATA[lat.=36.770916, lon.=137.768140, Alt.=2736.107296m. Speed=2.000000m/h.]]></desc>
</trkpt>
<trkpt lat="36.770937" lon="137.768156">
<ele>2737.957858</ele>
<time>2014-08-18T23:13:04Z</time>
<desc><![CDATA[lat.=36.770937, lon.=137.768156, Alt.=2737.957858m. Speed=2.000000m/h.]]></desc>
</trkpt>
<trkpt lat="36.770950" lon="137.768170">
<ele>2742.670063</ele>
<time>2014-08-18T23:13:09Z</time>
<desc><![CDATA[lat.=36.770950, lon.=137.768170, Alt.=2742.670063m. Speed=2.000000m/h.]]></desc>
</trkpt>
<trkpt lat="36.770947" lon="137.768195">
<ele>2739.857624</ele>
<time>2014-08-18T23:13:14Z</time>
<desc><![CDATA[lat.=36.770947, lon.=137.768195, Alt.=2739.857624m. Speed=2.000000m/h.]]></desc>
</trkpt>
<trkpt lat="36.770987" lon="137.768205">
<ele>2738.852052</ele>
<time>2014-08-18T23:13:19Z</time>
<desc><![CDATA[lat.=36.770987, lon.=137.768205, Alt.=2738.852052m. Speed=2.000000m/h.]]></desc>
</trkpt>
<trkpt lat="36.771001" lon="137.768221">
<ele>2740.103999</ele>
<time>2014-08-18T23:13:24Z</time>
<desc><![CDATA[lat.=36.771001, lon.=137.768221, Alt.=2740.103999m. Speed=2.000000m/h.]]></desc>
</trkpt>
<trkpt lat="36.770996" lon="137.768243">
<ele>2742.481952</ele>
<time>2014-08-18T23:13:29Z</time>
<desc><![CDATA[lat.=36.770996, lon.=137.768243, Alt.=2742.481952m. Speed=2.000000m/h.]]></desc>
</trkpt>
<trkpt lat="36.771034" lon="137.768246">
<ele>2740.284654</ele>
<time>2014-08-18T23:13:34Z</time>
<desc><![CDATA[lat.=36.771034, lon.=137.768246, Alt.=2740.284654m. Speed=2.000000m/h.]]></desc>
</trkpt>
<trkpt lat="36.771048" lon="137.768262">
<ele>2739.806474</ele>
<time>2014-08-18T23:13:39Z</time>
<desc><![CDATA[lat.=36.771048, lon.=137.768262, Alt.=2739.806474m. Speed=2.000000m/h.]]></desc>
</trkpt>
<trkpt lat="36.771051" lon="137.768286">
<ele>2739.322786</ele>
<time>2014-08-18T23:13:44Z</time>
<desc><![CDATA[lat.=36.771051, lon.=137.768286, Alt.=2739.322786m. Speed=2.000000m/h.]]></desc>
</trkpt>
<trkpt lat="36.771055" lon="137.768295">
<ele>2738.784387</ele>
<time>2014-08-18T23:13:49Z</time>
<desc><![CDATA[lat.=36.771055, lon.=137.768295, Alt.=2738.784387m. Speed=2.000000m/h.]]></desc>
</trkpt>
<trkpt lat="36.771040" lon="137.768310">
<ele>2737.641862</ele>
<time>2014-08-18T23:13:54Z</time>
<desc><![CDATA[lat.=36.771040, lon.=137.768310, Alt.=2737.641862m. Speed=2.000000m/h.]]></desc>
</trkpt>
<trkpt lat="36.771039" lon="137.768341">
<ele>2741.211548</ele>
<time>2014-08-18T23:13:59Z</time>
<desc><![CDATA[lat.=36.771039, lon.=137.768341, Alt.=2741.211548m. Speed=1.000000m/h.]]></desc>
</trkpt>
<trkpt lat="36.771045" lon="137.768356">
<ele>2743.595010</ele>
<time>2014-08-18T23:14:04Z</time>
<desc><![CDATA[lat.=36.771045, lon.=137.768356, Alt.=2743.595010m. Speed=1.000000m/h.]]></desc>
</trkpt>
<trkpt lat="36.771054" lon="137.768394">
<ele>2747.224919</ele>
<time>2014-08-18T23:14:09Z</time>
<desc><![CDATA[lat.=36.771054, lon.=137.768394, Alt.=2747.224919m. Speed=2.000000m/h.]]></desc>
</trkpt>
<trkpt lat="36.771053" lon="137.768424">
<ele>2750.794608</ele>
<time>2014-08-18T23:14:14Z</time>
<desc><![CDATA[lat.=36.771053, lon.=137.768424, Alt.=2750.794608m. Speed=1.000000m/h.]]></desc>
</trkpt>
<trkpt lat="36.771057" lon="137.768432">
<ele>2750.256210</ele>
<time>2014-08-18T23:14:19Z</time>
<desc><![CDATA[lat.=36.771057, lon.=137.768432, Alt.=2750.256210m. Speed=1.000000m/h.]]></desc>
</trkpt>
<trkpt lat="36.771072" lon="137.768434">
<ele>2747.993189</ele>
<time>2014-08-18T23:14:24Z</time>
<desc><![CDATA[lat.=36.771072, lon.=137.768434, Alt.=2747.993189m. Speed=1.000000m/h.]]></desc>
</trkpt>
<trkpt lat="36.771075" lon="137.768458">
<ele>2747.509507</ele>
<time>2014-08-18T23:14:29Z</time>
<desc><![CDATA[lat.=36.771075, lon.=137.768458, Alt.=2747.509507m. Speed=1.000000m/h.]]></desc>
</trkpt>
<trkpt lat="36.771085" lon="137.768481">
<ele>2749.354575</ele>
<time>2014-08-18T23:14:34Z</time>
<desc><![CDATA[lat.=36.771085, lon.=137.768481, Alt.=2749.354575m. Speed=1.000000m/h.]]></desc>
</trkpt>
<trkpt lat="36.771096" lon="137.768490">
<ele>2749.414797</ele>
<time>2014-08-18T23:14:39Z</time>
<desc><![CDATA[lat.=36.771096, lon.=137.768490, Alt.=2749.414797m. Speed=1.000000m/h.]]></desc>
</trkpt>
<trkpt lat="36.771106" lon="137.768513">
<ele>2751.259866</ele>
<time>2014-08-18T23:14:44Z</time>
<desc><![CDATA[lat.=36.771106, lon.=137.768513, Alt.=2751.259866m. Speed=1.000000m/h.]]></desc>
</trkpt>
<trkpt lat="36.771092" lon="137.768530">
<ele>2748.387214</ele>
<time>2014-08-18T23:14:49Z</time>
<desc><![CDATA[lat.=36.771092, lon.=137.768530, Alt.=2748.387214m. Speed=1.000000m/h.]]></desc>
</trkpt>
<trkpt lat="36.771099" lon="137.768546">
<ele>2747.310421</ele>
<time>2014-08-18T23:14:54Z</time>
<desc><![CDATA[lat.=36.771099, lon.=137.768546, Alt.=2747.310421m. Speed=2.000000m/h.]]></desc>
</trkpt>
<trkpt lat="36.771123" lon="137.768569">
<ele>2750.352732</ele>
<time>2014-08-18T23:14:59Z</time>
<desc><![CDATA[lat.=36.771123, lon.=137.768569, Alt.=2750.352732m. Speed=2.000000m/h.]]></desc>
</trkpt>
<trkpt lat="36.771134" lon="137.768578">
<ele>2750.412956</ele>
<time>2014-08-18T23:15:04Z</time>
<desc><![CDATA[lat.=36.771134, lon.=137.768578, Alt.=2750.412956m. Speed=2.000000m/h.]]></desc>
</trkpt>
<trkpt lat="36.771141" lon="137.768593">
<ele>2752.796424</ele>
<time>2014-08-18T23:15:09Z</time>
<desc><![CDATA[lat.=36.771141, lon.=137.768593, Alt.=2752.796424m. Speed=1.000000m/h.]]></desc>
</trkpt>
<trkpt lat="36.771162" lon="137.768609">
<ele>2754.647004</ele>
<time>2014-08-18T23:15:14Z</time>
<desc><![CDATA[lat.=36.771162, lon.=137.768609, Alt.=2754.647004m. Speed=2.000000m/h.]]></desc>
</trkpt>
<trkpt lat="36.771165" lon="137.768633">
<ele>2754.163328</ele>
<time>2014-08-18T23:15:19Z</time>
<desc><![CDATA[lat.=36.771165, lon.=137.768633, Alt.=2754.163328m. Speed=2.000000m/h.]]></desc>
</trkpt>
<trkpt lat="36.771168" lon="137.768656">
<ele>2755.409782</ele>
<time>2014-08-18T23:15:24Z</time>
<desc><![CDATA[lat.=36.771168, lon.=137.768656, Alt.=2755.409782m. Speed=2.000000m/h.]]></desc>
</trkpt>
<trkpt lat="36.771201" lon="137.768681">
<ele>2755.590461</ele>
<time>2014-08-18T23:15:29Z</time>
<desc><![CDATA[lat.=36.771201, lon.=137.768681, Alt.=2755.590461m. Speed=2.000000m/h.]]></desc>
</trkpt>
<trkpt lat="36.771237" lon="137.768698">
<ele>2756.908158</ele>
<time>2014-08-18T23:15:34Z</time>
<desc><![CDATA[lat.=36.771237, lon.=137.768698, Alt.=2756.908158m. Speed=2.000000m/h.]]></desc>
</trkpt>
<trkpt lat="36.771225" lon="137.768721">
<ele>2756.957371</ele>
<time>2014-08-18T23:15:39Z</time>
<desc><![CDATA[lat.=36.771225, lon.=137.768721, Alt.=2756.957371m. Speed=2.000000m/h.]]></desc>
</trkpt>
<trkpt lat="36.771239" lon="137.768753">
<ele>2758.264056</ele>
<time>2014-08-18T23:15:44Z</time>
<desc><![CDATA[lat.=36.771239, lon.=137.768753, Alt.=2758.264056m. Speed=2.000000m/h.]]></desc>
</trkpt>
<trkpt lat="36.771271" lon="137.768777">
<ele>2758.444743</ele>
<time>2014-08-18T23:15:49Z</time>
<desc><![CDATA[lat.=36.771271, lon.=137.768777, Alt.=2758.444743m. Speed=3.000000m/h.]]></desc>
</trkpt>
<trkpt lat="36.771285" lon="137.768810">
<ele>2758.021302</ele>
<time>2014-08-18T23:15:54Z</time>
<desc><![CDATA[lat.=36.771285, lon.=137.768810, Alt.=2758.021302m. Speed=3.000000m/h.]]></desc>
</trkpt>
<trkpt lat="36.771318" lon="137.768835">
<ele>2758.201993</ele>
<time>2014-08-18T23:15:59Z</time>
<desc><![CDATA[lat.=36.771318, lon.=137.768835, Alt.=2758.201993m. Speed=3.000000m/h.]]></desc>
</trkpt>
<trkpt lat="36.771346" lon="137.768867">
<ele>2758.975802</ele>
<time>2014-08-18T23:16:04Z</time>
<desc><![CDATA[lat.=36.771346, lon.=137.768867, Alt.=2758.975802m. Speed=3.000000m/h.]]></desc>
</trkpt>
<trkpt lat="36.771367" lon="137.768899">
<ele>2760.881120</ele>
<time>2014-08-18T23:16:09Z</time>
<desc><![CDATA[lat.=36.771367, lon.=137.768899, Alt.=2760.881120m. Speed=3.000000m/h.]]></desc>
</trkpt>
<trkpt lat="36.771396" lon="137.768963">
<ele>2760.034255</ele>
<time>2014-08-18T23:16:14Z</time>
<desc><![CDATA[lat.=36.771396, lon.=137.768963, Alt.=2760.034255m. Speed=3.000000m/h.]]></desc>
</trkpt>
<trkpt lat="36.771410" lon="137.768996">
<ele>2759.610825</ele>
<time>2014-08-18T23:16:19Z</time>
<desc><![CDATA[lat.=36.771410, lon.=137.768996, Alt.=2759.610825m. Speed=3.000000m/h.]]></desc>
</trkpt>
<trkpt lat="36.771435" lon="137.769053">
<ele>2757.572231</ele>
<time>2014-08-18T23:16:24Z</time>
<desc><![CDATA[lat.=36.771435, lon.=137.769053, Alt.=2757.572231m. Speed=4.000000m/h.]]></desc>
</trkpt>
<trkpt lat="36.771470" lon="137.769118">
<ele>2757.324007</ele>
<time>2014-08-18T23:16:29Z</time>
<desc><![CDATA[lat.=36.771470, lon.=137.769118, Alt.=2757.324007m. Speed=4.000000m/h.]]></desc>
</trkpt>
<trkpt lat="36.771494" lon="137.769174">
<ele>2758.745681</ele>
<time>2014-08-18T23:16:34Z</time>
<desc><![CDATA[lat.=36.771494, lon.=137.769174, Alt.=2758.745681m. Speed=4.000000m/h.]]></desc>
</trkpt>
<trkpt lat="36.771512" lon="137.769215">
<ele>2756.053747</ele>
<time>2014-08-18T23:16:39Z</time>
<desc><![CDATA[lat.=36.771512, lon.=137.769215, Alt.=2756.053747m. Speed=4.000000m/h.]]></desc>
</trkpt>
<trkpt lat="36.771529" lon="137.769271">
<ele>2756.876805</ele>
<time>2014-08-18T23:16:44Z</time>
<desc><![CDATA[lat.=36.771529, lon.=137.769271, Alt.=2756.876805m. Speed=4.000000m/h.]]></desc>
</trkpt>
<trkpt lat="36.771510" lon="137.769326">
<ele>2756.436868</ele>
<time>2014-08-18T23:16:49Z</time>
<desc><![CDATA[lat.=36.771510, lon.=137.769326, Alt.=2756.436868m. Speed=4.000000m/h.]]></desc>
</trkpt>
<trkpt lat="36.771483" lon="137.769364">
<ele>2757.073705</ele>
<time>2014-08-18T23:16:54Z</time>
<desc><![CDATA[lat.=36.771483, lon.=137.769364, Alt.=2757.073705m. Speed=4.000000m/h.]]></desc>
</trkpt>
<trkpt lat="36.771478" lon="137.769419">
<ele>2757.831025</ele>
<time>2014-08-18T23:16:59Z</time>
<desc><![CDATA[lat.=36.771478, lon.=137.769419, Alt.=2757.831025m. Speed=4.000000m/h.]]></desc>
</trkpt>
<trkpt lat="36.771459" lon="137.769458">
<ele>2757.336364</ele>
<time>2014-08-18T23:17:04Z</time>
<desc><![CDATA[lat.=36.771459, lon.=137.769458, Alt.=2757.336364m. Speed=3.000000m/h.]]></desc>
</trkpt>
<trkpt lat="36.771461" lon="137.769514">
<ele>2756.962188</ele>
<time>2014-08-18T23:17:09Z</time>
<desc><![CDATA[lat.=36.771461, lon.=137.769514, Alt.=2756.962188m. Speed=3.000000m/h.]]></desc>
</trkpt>
<trkpt lat="36.771445" lon="137.769561">
<ele>2757.659277</ele>
<time>2014-08-18T23:17:14Z</time>
<desc><![CDATA[lat.=36.771445, lon.=137.769561, Alt.=2757.659277m. Speed=3.000000m/h.]]></desc>
</trkpt>
<trkpt lat="36.771444" lon="137.769608">
<ele>2757.823490</ele>
<time>2014-08-18T23:17:19Z</time>
<desc><![CDATA[lat.=36.771444, lon.=137.769608, Alt.=2757.823490m. Speed=3.000000m/h.]]></desc>
</trkpt>
<trkpt lat="36.771403" lon="137.769630">
<ele>2758.938486</ele>
<time>2014-08-18T23:17:24Z</time>
<desc><![CDATA[lat.=36.771403, lon.=137.769630, Alt.=2758.938486m. Speed=3.000000m/h.]]></desc>
</trkpt>
<trkpt lat="36.771376" lon="137.769668">
<ele>2759.575343</ele>
<time>2014-08-18T23:17:29Z</time>
<desc><![CDATA[lat.=36.771376, lon.=137.769668, Alt.=2759.575343m. Speed=3.000000m/h.]]></desc>
</trkpt>
<trkpt lat="36.771393" lon="137.769724">
<ele>2760.398428</ele>
<time>2014-08-18T23:17:34Z</time>
<desc><![CDATA[lat.=36.771393, lon.=137.769724, Alt.=2760.398428m. Speed=3.000000m/h.]]></desc>
</trkpt>
<trkpt lat="36.771407" lon="137.769773">
<ele>2758.299642</ele>
<time>2014-08-18T23:17:39Z</time>
<desc><![CDATA[lat.=36.771407, lon.=137.769773, Alt.=2758.299642m. Speed=3.000000m/h.]]></desc>
</trkpt>
<trkpt lat="36.771402" lon="137.769828">
<ele>2759.056991</ele>
<time>2014-08-18T23:17:44Z</time>
<desc><![CDATA[lat.=36.771402, lon.=137.769828, Alt.=2759.056991m. Speed=3.000000m/h.]]></desc>
</trkpt>
<trkpt lat="36.771415" lon="137.769876">
<ele>2760.418468</ele>
<time>2014-08-18T23:17:49Z</time>
<desc><![CDATA[lat.=36.771415, lon.=137.769876, Alt.=2760.418468m. Speed=3.000000m/h.]]></desc>
</trkpt>
<trkpt lat="36.771410" lon="137.769930">
<ele>2761.175824</ele>
<time>2014-08-18T23:17:54Z</time>
<desc><![CDATA[lat.=36.771410, lon.=137.769930, Alt.=2761.175824m. Speed=4.000000m/h.]]></desc>
</trkpt>
<trkpt lat="36.771435" lon="137.770003">
<ele>2760.922170</ele>
<time>2014-08-18T23:17:59Z</time>
<desc><![CDATA[lat.=36.771435, lon.=137.770003, Alt.=2760.922170m. Speed=4.000000m/h.]]></desc>
</trkpt>
<trkpt lat="36.771444" lon="137.770059">
<ele>2761.146656</ele>
<time>2014-08-18T23:18:04Z</time>
<desc><![CDATA[lat.=36.771444, lon.=137.770059, Alt.=2761.146656m. Speed=4.000000m/h.]]></desc>
</trkpt>
<trkpt lat="36.771439" lon="137.770114">
<ele>2761.904024</ele>
<time>2014-08-18T23:18:09Z</time>
<desc><![CDATA[lat.=36.771439, lon.=137.770114, Alt.=2761.904024m. Speed=4.000000m/h.]]></desc>
</trkpt>
<trkpt lat="36.771456" lon="137.770169">
<ele>2762.727142</ele>
<time>2014-08-18T23:18:14Z</time>
<desc><![CDATA[lat.=36.771456, lon.=137.770169, Alt.=2762.727142m. Speed=3.000000m/h.]]></desc>
</trkpt>
<trkpt lat="36.771466" lon="137.770209">
<ele>2762.896889</ele>
<time>2014-08-18T23:18:19Z</time>
<desc><![CDATA[lat.=36.771466, lon.=137.770209, Alt.=2762.896889m. Speed=3.000000m/h.]]></desc>
</trkpt>
<trkpt lat="36.771469" lon="137.770248">
<ele>2764.198141</ele>
<time>2014-08-18T23:18:24Z</time>
<desc><![CDATA[lat.=36.771469, lon.=137.770248, Alt.=2764.198141m. Speed=3.000000m/h.]]></desc>
</trkpt>
<trkpt lat="36.771494" lon="137.770289">
<ele>2763.835015</ele>
<time>2014-08-18T23:18:29Z</time>
<desc><![CDATA[lat.=36.771494, lon.=137.770289, Alt.=2763.835015m. Speed=3.000000m/h.]]></desc>
</trkpt>
<trkpt lat="36.771518" lon="137.770328">
<ele>2766.932147</ele>
<time>2014-08-18T23:18:34Z</time>
<desc><![CDATA[lat.=36.771518, lon.=137.770328, Alt.=2766.932147m. Speed=3.000000m/h.]]></desc>
</trkpt>
<trkpt lat="36.771517" lon="137.770376">
<ele>2767.096405</ele>
<time>2014-08-18T23:18:39Z</time>
<desc><![CDATA[lat.=36.771517, lon.=137.770376, Alt.=2767.096405m. Speed=3.000000m/h.]]></desc>
</trkpt>
<trkpt lat="36.771516" lon="137.770407">
<ele>2767.205913</ele>
<time>2014-08-18T23:18:44Z</time>
<desc><![CDATA[lat.=36.771516, lon.=137.770407, Alt.=2767.205913m. Speed=3.000000m/h.]]></desc>
</trkpt>
<trkpt lat="36.771504" lon="137.770447">
<ele>2765.579797</ele>
<time>2014-08-18T23:18:49Z</time>
<desc><![CDATA[lat.=36.771504, lon.=137.770447, Alt.=2765.579797m. Speed=3.000000m/h.]]></desc>
</trkpt>
<trkpt lat="36.771518" lon="137.770495">
<ele>2765.211185</ele>
<time>2014-08-18T23:18:54Z</time>
<desc><![CDATA[lat.=36.771518, lon.=137.770495, Alt.=2765.211185m. Speed=3.000000m/h.]]></desc>
</trkpt>
<trkpt lat="36.771510" lon="137.770527">
<ele>2764.722072</ele>
<time>2014-08-18T23:18:59Z</time>
<desc><![CDATA[lat.=36.771510, lon.=137.770527, Alt.=2764.722072m. Speed=3.000000m/h.]]></desc>
</trkpt>
<trkpt lat="36.771502" lon="137.770558">
<ele>2765.963087</ele>
<time>2014-08-18T23:19:04Z</time>
<desc><![CDATA[lat.=36.771502, lon.=137.770558, Alt.=2765.963087m. Speed=3.000000m/h.]]></desc>
</trkpt>
<trkpt lat="36.771486" lon="137.770588">
<ele>2768.335606</ele>
<time>2014-08-18T23:19:09Z</time>
<desc><![CDATA[lat.=36.771486, lon.=137.770588, Alt.=2768.335606m. Speed=2.000000m/h.]]></desc>
</trkpt>
<trkpt lat="36.771500" lon="137.770620">
<ele>2769.642372</ele>
<time>2014-08-18T23:19:14Z</time>
<desc><![CDATA[lat.=36.771500, lon.=137.770620, Alt.=2769.642372m. Speed=2.000000m/h.]]></desc>
</trkpt>
<trkpt lat="36.771536" lon="137.770653">
<ele>2769.284761</ele>
<time>2014-08-18T23:19:19Z</time>
<desc><![CDATA[lat.=36.771536, lon.=137.770653, Alt.=2769.284761m. Speed=3.000000m/h.]]></desc>
</trkpt>
<trkpt lat="36.771576" lon="137.770678">
<ele>2768.334024</ele>
<time>2014-08-18T23:19:24Z</time>
<desc><![CDATA[lat.=36.771576, lon.=137.770678, Alt.=2768.334024m. Speed=3.000000m/h.]]></desc>
</trkpt>
<trkpt lat="36.771604" lon="137.770711">
<ele>2769.107922</ele>
<time>2014-08-18T23:19:29Z</time>
<desc><![CDATA[lat.=36.771604, lon.=137.770711, Alt.=2769.107922m. Speed=3.000000m/h.]]></desc>
</trkpt>
<trkpt lat="36.771632" lon="137.770742">
<ele>2771.611950</ele>
<time>2014-08-18T23:19:34Z</time>
<desc><![CDATA[lat.=36.771632, lon.=137.770742, Alt.=2771.611950m. Speed=3.000000m/h.]]></desc>
</trkpt>
<trkpt lat="36.771660" lon="137.770773">
<ele>2775.846108</ele>
<time>2014-08-18T23:19:39Z</time>
<desc><![CDATA[lat.=36.771660, lon.=137.770773, Alt.=2775.846108m. Speed=3.000000m/h.]]></desc>
</trkpt>
<trkpt lat="36.771645" lon="137.770805">
<ele>2774.758376</ele>
<time>2014-08-18T23:19:44Z</time>
<desc><![CDATA[lat.=36.771645, lon.=137.770805, Alt.=2774.758376m. Speed=3.000000m/h.]]></desc>
</trkpt>
<trkpt lat="36.771641" lon="137.770813">
<ele>2773.621379</ele>
<time>2014-08-18T23:19:49Z</time>
<desc><![CDATA[lat.=36.771641, lon.=137.770813, Alt.=2773.621379m. Speed=2.000000m/h.]]></desc>
</trkpt>
<trkpt lat="36.771644" lon="137.770853">
<ele>2773.192535</ele>
<time>2014-08-18T23:19:54Z</time>
<desc><![CDATA[lat.=36.771644, lon.=137.770853, Alt.=2773.192535m. Speed=2.000000m/h.]]></desc>
</trkpt>
<trkpt lat="36.771651" lon="137.770869">
<ele>2773.845925</ele>
<time>2014-08-18T23:19:59Z</time>
<desc><![CDATA[lat.=36.771651, lon.=137.770869, Alt.=2773.845925m. Speed=2.000000m/h.]]></desc>
</trkpt>
<trkpt lat="36.771644" lon="137.770885">
<ele>2773.302061</ele>
<time>2014-08-18T23:20:04Z</time>
<desc><![CDATA[lat.=36.771644, lon.=137.770885, Alt.=2773.302061m. Speed=2.000000m/h.]]></desc>
</trkpt>
<trkpt lat="36.771643" lon="137.770916">
<ele>2773.411588</ele>
<time>2014-08-18T23:20:09Z</time>
<desc><![CDATA[lat.=36.771643, lon.=137.770916, Alt.=2773.411588m. Speed=2.000000m/h.]]></desc>
</trkpt>
<trkpt lat="36.771657" lon="137.770948">
<ele>2774.718371</ele>
<time>2014-08-18T23:20:14Z</time>
<desc><![CDATA[lat.=36.771657, lon.=137.770948, Alt.=2774.718371m. Speed=2.000000m/h.]]></desc>
</trkpt>
<trkpt lat="36.771655" lon="137.770962">
<ele>2778.233389</ele>
<time>2014-08-18T23:20:19Z</time>
<desc><![CDATA[lat.=36.771655, lon.=137.770962, Alt.=2778.233389m. Speed=2.000000m/h.]]></desc>
</trkpt>
<trkpt lat="36.771684" lon="137.770995">
<ele>2779.007303</ele>
<time>2014-08-18T23:20:24Z</time>
<desc><![CDATA[lat.=36.771684, lon.=137.770995, Alt.=2779.007303m. Speed=2.000000m/h.]]></desc>
</trkpt>
<trkpt lat="36.771712" lon="137.771044">
<ele>2778.105859</ele>
<time>2014-08-18T23:20:29Z</time>
<desc><![CDATA[lat.=36.771712, lon.=137.771044, Alt.=2778.105859m. Speed=3.000000m/h.]]></desc>
</trkpt>
<trkpt lat="36.771736" lon="137.771099">
<ele>2781.257805</ele>
<time>2014-08-18T23:20:34Z</time>
<desc><![CDATA[lat.=36.771736, lon.=137.771099, Alt.=2781.257805m. Speed=3.000000m/h.]]></desc>
</trkpt>
<trkpt lat="36.771761" lon="137.771139">
<ele>2780.894735</ele>
<time>2014-08-18T23:20:39Z</time>
<desc><![CDATA[lat.=36.771761, lon.=137.771139, Alt.=2780.894735m. Speed=3.000000m/h.]]></desc>
</trkpt>
<trkpt lat="36.771775" lon="137.771172">
<ele>2780.471403</ele>
<time>2014-08-18T23:20:44Z</time>
<desc><![CDATA[lat.=36.771775, lon.=137.771172, Alt.=2780.471403m. Speed=3.000000m/h.]]></desc>
</trkpt>
<trkpt lat="36.771800" lon="137.771212">
<ele>2780.108339</ele>
<time>2014-08-18T23:20:49Z</time>
<desc><![CDATA[lat.=36.771800, lon.=137.771212, Alt.=2780.108339m. Speed=3.000000m/h.]]></desc>
</trkpt>
<trkpt lat="36.771821" lon="137.771245">
<ele>2780.283641</ele>
<time>2014-08-18T23:20:54Z</time>
<desc><![CDATA[lat.=36.771821, lon.=137.771245, Alt.=2780.283641m. Speed=3.000000m/h.]]></desc>
</trkpt>
<trkpt lat="36.771846" lon="137.771286">
<ele>2779.920582</ele>
<time>2014-08-18T23:20:59Z</time>
<desc><![CDATA[lat.=36.771846, lon.=137.771286, Alt.=2779.920582m. Speed=3.000000m/h.]]></desc>
</trkpt>
<trkpt lat="36.771875" lon="137.771334">
<ele>2780.749291</ele>
<time>2014-08-18T23:21:04Z</time>
<desc><![CDATA[lat.=36.771875, lon.=137.771334, Alt.=2780.749291m. Speed=4.000000m/h.]]></desc>
</trkpt>
<trkpt lat="36.771899" lon="137.771390">
<ele>2780.441012</ele>
<time>2014-08-18T23:21:09Z</time>
<desc><![CDATA[lat.=36.771899, lon.=137.771390, Alt.=2780.441012m. Speed=4.000000m/h.]]></desc>
</trkpt>
<trkpt lat="36.771913" lon="137.771438">
<ele>2780.072468</ele>
<time>2014-08-18T23:21:14Z</time>
<desc><![CDATA[lat.=36.771913, lon.=137.771438, Alt.=2780.072468m. Speed=3.000000m/h.]]></desc>
</trkpt>
<trkpt lat="36.771945" lon="137.771479">
<ele>2780.308055</ele>
<time>2014-08-18T23:21:19Z</time>
<desc><![CDATA[lat.=36.771945, lon.=137.771479, Alt.=2780.308055m. Speed=4.000000m/h.]]></desc>
</trkpt>
<trkpt lat="36.771962" lon="137.771535">
<ele>2781.131285</ele>
<time>2014-08-18T23:21:24Z</time>
<desc><![CDATA[lat.=36.771962, lon.=137.771535, Alt.=2781.131285m. Speed=4.000000m/h.]]></desc>
</trkpt>
<trkpt lat="36.771975" lon="137.771599">
<ele>2780.817528</ele>
<time>2014-08-18T23:21:29Z</time>
<desc><![CDATA[lat.=36.771975, lon.=137.771599, Alt.=2780.817528m. Speed=5.000000m/h.]]></desc>
</trkpt>
<trkpt lat="36.771985" lon="137.771655">
<ele>2779.312008</ele>
<time>2014-08-18T23:21:34Z</time>
<desc><![CDATA[lat.=36.771985, lon.=137.771655, Alt.=2779.312008m. Speed=4.000000m/h.]]></desc>
</trkpt>
<trkpt lat="36.771984" lon="137.771719">
<ele>2779.531124</ele>
<time>2014-08-18T23:21:39Z</time>
<desc><![CDATA[lat.=36.771984, lon.=137.771719, Alt.=2779.531124m. Speed=4.000000m/h.]]></desc>
</trkpt>
<trkpt lat="36.771964" lon="137.771789">
<ele>2779.146118</ele>
<time>2014-08-18T23:21:44Z</time>
<desc><![CDATA[lat.=36.771964, lon.=137.771789, Alt.=2779.146118m. Speed=4.000000m/h.]]></desc>
</trkpt>
<trkpt lat="36.771955" lon="137.771853">
<ele>2778.766612</ele>
<time>2014-08-18T23:21:49Z</time>
<desc><![CDATA[lat.=36.771955, lon.=137.771853, Alt.=2778.766612m. Speed=4.000000m/h.]]></desc>
</trkpt>
<trkpt lat="36.771951" lon="137.771908">
<ele>2777.793973</ele>
<time>2014-08-18T23:21:54Z</time>
<desc><![CDATA[lat.=36.771951, lon.=137.771908, Alt.=2777.793973m. Speed=4.000000m/h.]]></desc>
</trkpt>
<trkpt lat="36.771946" lon="137.771931">
<ele>2780.172021</ele>
<time>2014-08-18T23:21:59Z</time>
<desc><![CDATA[lat.=36.771946, lon.=137.771931, Alt.=2780.172021m. Speed=0.000000m/h.]]></desc>
</trkpt>
<trkpt lat="36.771942" lon="137.771971">
<ele>2779.144603</ele>
<time>2014-08-18T23:22:04Z</time>
<desc><![CDATA[lat.=36.771942, lon.=137.771971, Alt.=2779.144603m. Speed=3.000000m/h.]]></desc>
</trkpt>
<trkpt lat="36.771948" lon="137.772035">
<ele>2778.232249</ele>
<time>2014-08-18T23:22:09Z</time>
<desc><![CDATA[lat.=36.771948, lon.=137.772035, Alt.=2778.232249m. Speed=4.000000m/h.]]></desc>
</trkpt>
<trkpt lat="36.771939" lon="137.772098">
<ele>2777.852763</ele>
<time>2014-08-18T23:22:14Z</time>
<desc><![CDATA[lat.=36.771939, lon.=137.772098, Alt.=2777.852763m. Speed=4.000000m/h.]]></desc>
</trkpt>
<trkpt lat="36.771934" lon="137.772170">
<ele>2776.934929</ele>
<time>2014-08-18T23:22:19Z</time>
<desc><![CDATA[lat.=36.771934, lon.=137.772170, Alt.=2776.934929m. Speed=4.000000m/h.]]></desc>
</trkpt>
<trkpt lat="36.771940" lon="137.772233">
<ele>2777.752716</ele>
<time>2014-08-18T23:22:24Z</time>
<desc><![CDATA[lat.=36.771940, lon.=137.772233, Alt.=2777.752716m. Speed=4.000000m/h.]]></desc>
</trkpt>
<trkpt lat="36.771935" lon="137.772288">
<ele>2778.510229</ele>
<time>2014-08-18T23:22:29Z</time>
<desc><![CDATA[lat.=36.771935, lon.=137.772288, Alt.=2778.510229m. Speed=4.000000m/h.]]></desc>
</trkpt>
<trkpt lat="36.771963" lon="137.772337">
<ele>2777.608878</ele>
<time>2014-08-18T23:22:34Z</time>
<desc><![CDATA[lat.=36.771963, lon.=137.772337, Alt.=2777.608878m. Speed=4.000000m/h.]]></desc>
</trkpt>
<trkpt lat="36.771977" lon="137.772401">
<ele>2777.295185</ele>
<time>2014-08-18T23:22:39Z</time>
<desc><![CDATA[lat.=36.771977, lon.=137.772401, Alt.=2777.295185m. Speed=4.000000m/h.]]></desc>
</trkpt>
<trkpt lat="36.771975" lon="137.772464">
<ele>2777.514359</ele>
<time>2014-08-18T23:22:44Z</time>
<desc><![CDATA[lat.=36.771975, lon.=137.772464, Alt.=2777.514359m. Speed=4.000000m/h.]]></desc>
</trkpt>
<trkpt lat="36.771974" lon="137.772528">
<ele>2777.733539</ele>
<time>2014-08-18T23:22:49Z</time>
<desc><![CDATA[lat.=36.771974, lon.=137.772528, Alt.=2777.733539m. Speed=4.000000m/h.]]></desc>
</trkpt>
<trkpt lat="36.771998" lon="137.772584">
<ele>2777.425349</ele>
<time>2014-08-18T23:22:54Z</time>
<desc><![CDATA[lat.=36.771998, lon.=137.772584, Alt.=2777.425349m. Speed=4.000000m/h.]]></desc>
</trkpt>
<trkpt lat="36.772026" lon="137.772632">
<ele>2778.254144</ele>
<time>2014-08-18T23:22:59Z</time>
<desc><![CDATA[lat.=36.772026, lon.=137.772632, Alt.=2778.254144m. Speed=4.000000m/h.]]></desc>
</trkpt>
<trkpt lat="36.772044" lon="137.772656">
<ele>2778.967860</ele>
<time>2014-08-18T23:23:04Z</time>
<desc><![CDATA[lat.=36.772044, lon.=137.772656, Alt.=2778.967860m. Speed=3.000000m/h.]]></desc>
</trkpt>
<trkpt lat="36.772054" lon="137.772680">
<ele>2779.082944</ele>
<time>2014-08-18T23:23:09Z</time>
<desc><![CDATA[lat.=36.772054, lon.=137.772680, Alt.=2779.082944m. Speed=3.000000m/h.]]></desc>
</trkpt>
<trkpt lat="36.772057" lon="137.772720">
<ele>2778.654195</ele>
<time>2014-08-18T23:23:14Z</time>
<desc><![CDATA[lat.=36.772057, lon.=137.772720, Alt.=2778.654195m. Speed=3.000000m/h.]]></desc>
</trkpt>
<trkpt lat="36.772082" lon="137.772761">
<ele>2778.291223</ele>
<time>2014-08-18T23:23:19Z</time>
<desc><![CDATA[lat.=36.772082, lon.=137.772761, Alt.=2778.291223m. Speed=3.000000m/h.]]></desc>
</trkpt>
<trkpt lat="36.772085" lon="137.772801">
<ele>2777.862478</ele>
<time>2014-08-18T23:23:24Z</time>
<desc><![CDATA[lat.=36.772085, lon.=137.772801, Alt.=2777.862478m. Speed=3.000000m/h.]]></desc>
</trkpt>
<trkpt lat="36.772084" lon="137.772833">
<ele>2777.972080</ele>
<time>2014-08-18T23:23:29Z</time>
<desc><![CDATA[lat.=36.772084, lon.=137.772833, Alt.=2777.972080m. Speed=2.000000m/h.]]></desc>
</trkpt>
<trkpt lat="36.772087" lon="137.772873">
<ele>2777.543339</ele>
<time>2014-08-18T23:23:34Z</time>
<desc><![CDATA[lat.=36.772087, lon.=137.772873, Alt.=2777.543339m. Speed=2.000000m/h.]]></desc>
</trkpt>
<trkpt lat="36.772101" lon="137.772904">
<ele>2778.850211</ele>
<time>2014-08-18T23:23:39Z</time>
<desc><![CDATA[lat.=36.772101, lon.=137.772904, Alt.=2778.850211m. Speed=2.000000m/h.]]></desc>
</trkpt>
<trkpt lat="36.772104" lon="137.772928">
<ele>2780.096795</ele>
<time>2014-08-18T23:23:44Z</time>
<desc><![CDATA[lat.=36.772104, lon.=137.772928, Alt.=2780.096795m. Speed=2.000000m/h.]]></desc>
</trkpt>
<trkpt lat="36.772122" lon="137.772952">
<ele>2780.810522</ele>
<time>2014-08-18T23:23:49Z</time>
<desc><![CDATA[lat.=36.772122, lon.=137.772952, Alt.=2780.810522m. Speed=2.000000m/h.]]></desc>
</trkpt>
<trkpt lat="36.772151" lon="137.772952">
<ele>2781.474934</ele>
<time>2014-08-18T23:23:54Z</time>
<desc><![CDATA[lat.=36.772151, lon.=137.772952, Alt.=2781.474934m. Speed=2.000000m/h.]]></desc>
</trkpt>
<trkpt lat="36.772172" lon="137.772968">
<ele>2783.325641</ele>
<time>2014-08-18T23:23:59Z</time>
<desc><![CDATA[lat.=36.772172, lon.=137.772968, Alt.=2783.325641m. Speed=2.000000m/h.]]></desc>
</trkpt>
<trkpt lat="36.772193" lon="137.773001">
<ele>2783.501029</ele>
<time>2014-08-18T23:24:04Z</time>
<desc><![CDATA[lat.=36.772193, lon.=137.773001, Alt.=2783.501029m. Speed=2.000000m/h.]]></desc>
</trkpt>
<trkpt lat="36.772189" lon="137.773025">
<ele>2782.418857</ele>
<time>2014-08-18T23:24:09Z</time>
<desc><![CDATA[lat.=36.772189, lon.=137.773025, Alt.=2782.418857m. Speed=2.000000m/h.]]></desc>
</trkpt>
<trkpt lat="36.772210" lon="137.773056">
<ele>2784.324373</ele>
<time>2014-08-18T23:24:14Z</time>
<desc><![CDATA[lat.=36.772210, lon.=137.773056, Alt.=2784.324373m. Speed=2.000000m/h.]]></desc>
</trkpt>
<trkpt lat="36.772199" lon="137.773080">
<ele>2782.643567</ele>
<time>2014-08-18T23:24:19Z</time>
<desc><![CDATA[lat.=36.772199, lon.=137.773080, Alt.=2782.643567m. Speed=3.000000m/h.]]></desc>
</trkpt>
<trkpt lat="36.772195" lon="137.773120">
<ele>2781.616204</ele>
<time>2014-08-18T23:24:24Z</time>
<desc><![CDATA[lat.=36.772195, lon.=137.773120, Alt.=2781.616204m. Speed=3.000000m/h.]]></desc>
</trkpt>
<trkpt lat="36.772227" lon="137.773161">
<ele>2781.851894</ele>
<time>2014-08-18T23:24:29Z</time>
<desc><![CDATA[lat.=36.772227, lon.=137.773161, Alt.=2781.851894m. Speed=3.000000m/h.]]></desc>
</trkpt>
<trkpt lat="36.772259" lon="137.773202">
<ele>2782.087588</ele>
<time>2014-08-18T23:24:34Z</time>
<desc><![CDATA[lat.=36.772259, lon.=137.773202, Alt.=2782.087588m. Speed=4.000000m/h.]]></desc>
</trkpt>
<trkpt lat="36.772287" lon="137.773267">
<ele>2781.241120</ele>
<time>2014-08-18T23:24:39Z</time>
<desc><![CDATA[lat.=36.772287, lon.=137.773267, Alt.=2781.241120m. Speed=4.000000m/h.]]></desc>
</trkpt>
<trkpt lat="36.772315" lon="137.773315">
<ele>2782.069972</ele>
<time>2014-08-18T23:24:44Z</time>
<desc><![CDATA[lat.=36.772315, lon.=137.773315, Alt.=2782.069972m. Speed=4.000000m/h.]]></desc>
</trkpt>
<trkpt lat="36.772356" lon="137.773340">
<ele>2781.119381</ele>
<time>2014-08-18T23:24:49Z</time>
<desc><![CDATA[lat.=36.772356, lon.=137.773340, Alt.=2781.119381m. Speed=4.000000m/h.]]></desc>
</trkpt>
<trkpt lat="36.772387" lon="137.773397">
<ele>2781.409904</ele>
<time>2014-08-18T23:24:54Z</time>
<desc><![CDATA[lat.=36.772387, lon.=137.773397, Alt.=2781.409904m. Speed=4.000000m/h.]]></desc>
</trkpt>
<trkpt lat="36.772405" lon="137.773437">
<ele>2782.178469</ele>
<time>2014-08-18T23:24:59Z</time>
<desc><![CDATA[lat.=36.772405, lon.=137.773437, Alt.=2782.178469m. Speed=4.000000m/h.]]></desc>
</trkpt>
<trkpt lat="36.772426" lon="137.773486">
<ele>2780.678575</ele>
<time>2014-08-18T23:25:04Z</time>
<desc><![CDATA[lat.=36.772426, lon.=137.773486, Alt.=2780.678575m. Speed=4.000000m/h.]]></desc>
</trkpt>
<trkpt lat="36.772454" lon="137.773534">
<ele>2781.507448</ele>
<time>2014-08-18T23:25:09Z</time>
<desc><![CDATA[lat.=36.772454, lon.=137.773534, Alt.=2781.507448m. Speed=4.000000m/h.]]></desc>
</trkpt>
<trkpt lat="36.772464" lon="137.773574">
<ele>2781.677383</ele>
<time>2014-08-18T23:25:14Z</time>
<desc><![CDATA[lat.=36.772464, lon.=137.773574, Alt.=2781.677383m. Speed=4.000000m/h.]]></desc>
</trkpt>
<trkpt lat="36.772478" lon="137.773638">
<ele>2781.363802</ele>
<time>2014-08-18T23:25:19Z</time>
<desc><![CDATA[lat.=36.772478, lon.=137.773638, Alt.=2781.363802m. Speed=4.000000m/h.]]></desc>
</trkpt>
<trkpt lat="36.772495" lon="137.773694">
<ele>2782.187199</ele>
<time>2014-08-18T23:25:24Z</time>
<desc><![CDATA[lat.=36.772495, lon.=137.773694, Alt.=2782.187199m. Speed=4.000000m/h.]]></desc>
</trkpt>
<trkpt lat="36.772504" lon="137.773749">
<ele>2782.411961</ele>
<time>2014-08-18T23:25:29Z</time>
<desc><![CDATA[lat.=36.772504, lon.=137.773749, Alt.=2782.411961m. Speed=4.000000m/h.]]></desc>
</trkpt>
<trkpt lat="36.772514" lon="137.773805">
<ele>2782.636728</ele>
<time>2014-08-18T23:25:34Z</time>
<desc><![CDATA[lat.=36.772514, lon.=137.773805, Alt.=2782.636728m. Speed=4.000000m/h.]]></desc>
</trkpt>
<trkpt lat="36.772517" lon="137.773845">
<ele>2782.208037</ele>
<time>2014-08-18T23:25:39Z</time>
<desc><![CDATA[lat.=36.772517, lon.=137.773845, Alt.=2782.208037m. Speed=3.000000m/h.]]></desc>
</trkpt>
<trkpt lat="36.772527" lon="137.773885">
<ele>2782.377988</ele>
<time>2014-08-18T23:25:44Z</time>
<desc><![CDATA[lat.=36.772527, lon.=137.773885, Alt.=2782.377988m. Speed=3.000000m/h.]]></desc>
</trkpt>
<trkpt lat="36.772548" lon="137.773917">
<ele>2784.283552</ele>
<time>2014-08-18T23:25:49Z</time>
<desc><![CDATA[lat.=36.772548, lon.=137.773917, Alt.=2784.283552m. Speed=3.000000m/h.]]></desc>
</trkpt>
<trkpt lat="36.772572" lon="137.773957">
<ele>2785.650788</ele>
<time>2014-08-18T23:25:54Z</time>
<desc><![CDATA[lat.=36.772572, lon.=137.773957, Alt.=2785.650788m. Speed=3.000000m/h.]]></desc>
</trkpt>
<trkpt lat="36.772586" lon="137.774004">
<ele>2787.012539</ele>
<time>2014-08-18T23:25:59Z</time>
<desc><![CDATA[lat.=36.772586, lon.=137.774004, Alt.=2787.012539m. Speed=3.000000m/h.]]></desc>
</trkpt>
<trkpt lat="36.772589" lon="137.774044">
<ele>2786.583859</ele>
<time>2014-08-18T23:26:04Z</time>
<desc><![CDATA[lat.=36.772589, lon.=137.774044, Alt.=2786.583859m. Speed=3.000000m/h.]]></desc>
</trkpt>
<trkpt lat="36.772606" lon="137.774084">
<ele>2787.352462</ele>
<time>2014-08-18T23:26:09Z</time>
<desc><![CDATA[lat.=36.772606, lon.=137.774084, Alt.=2787.352462m. Speed=3.000000m/h.]]></desc>
</trkpt>
<trkpt lat="36.772623" lon="137.774124">
<ele>2788.121068</ele>
<time>2014-08-18T23:26:14Z</time>
<desc><![CDATA[lat.=36.772623, lon.=137.774124, Alt.=2788.121068m. Speed=3.000000m/h.]]></desc>
</trkpt>
<trkpt lat="36.772633" lon="137.774164">
<ele>2788.291035</ele>
<time>2014-08-18T23:26:19Z</time>
<desc><![CDATA[lat.=36.772633, lon.=137.774164, Alt.=2788.291035m. Speed=2.000000m/h.]]></desc>
</trkpt>
<trkpt lat="36.772663" lon="137.774182">
<ele>2785.550058</ele>
<time>2014-08-18T23:26:24Z</time>
<desc><![CDATA[lat.=36.772663, lon.=137.774182, Alt.=2785.550058m. Speed=3.000000m/h.]]></desc>
</trkpt>
<trkpt lat="36.772684" lon="137.774229">
<ele>2787.510467</ele>
<time>2014-08-18T23:26:29Z</time>
<desc><![CDATA[lat.=36.772684, lon.=137.774229, Alt.=2787.510467m. Speed=3.000000m/h.]]></desc>
</trkpt>
<trkpt lat="36.772694" lon="137.774269">
<ele>2787.680441</ele>
<time>2014-08-18T23:26:34Z</time>
<desc><![CDATA[lat.=36.772694, lon.=137.774269, Alt.=2787.680441m. Speed=3.000000m/h.]]></desc>
</trkpt>
<trkpt lat="36.772714" lon="137.774317">
<ele>2789.640856</ele>
<time>2014-08-18T23:26:39Z</time>
<desc><![CDATA[lat.=36.772714, lon.=137.774317, Alt.=2789.640856m. Speed=3.000000m/h.]]></desc>
</trkpt>
<trkpt lat="36.772732" lon="137.774357">
<ele>2788.679355</ele>
<time>2014-08-18T23:26:44Z</time>
<desc><![CDATA[lat.=36.772732, lon.=137.774357, Alt.=2788.679355m. Speed=3.000000m/h.]]></desc>
</trkpt>
<trkpt lat="36.772779" lon="137.774383">
<ele>2788.327472</ele>
<time>2014-08-18T23:26:49Z</time>
<desc><![CDATA[lat.=36.772779, lon.=137.774383, Alt.=2788.327472m. Speed=4.000000m/h.]]></desc>
</trkpt>
<trkpt lat="36.772815" lon="137.774416">
<ele>2787.970107</ele>
<time>2014-08-18T23:26:54Z</time>
<desc><![CDATA[lat.=36.772815, lon.=137.774416, Alt.=2787.970107m. Speed=4.000000m/h.]]></desc>
</trkpt>
<trkpt lat="36.772823" lon="137.774433">
<ele>2786.893460</ele>
<time>2014-08-18T23:26:59Z</time>
<desc><![CDATA[lat.=36.772823, lon.=137.774433, Alt.=2786.893460m. Speed=3.000000m/h.]]></desc>
</trkpt>
<trkpt lat="36.772830" lon="137.774433">
<ele>2787.492104</ele>
<time>2014-08-18T23:27:04Z</time>
<desc><![CDATA[lat.=36.772830, lon.=137.774433, Alt.=2787.492104m. Speed=0.000000m/h.]]></desc>
</trkpt>
<trkpt lat="36.772830" lon="137.774433">
<ele>2785.761981</ele>
<time>2014-08-18T23:27:09Z</time>
<desc><![CDATA[lat.=36.772830, lon.=137.774433, Alt.=2785.761981m. Speed=0.000000m/h.]]></desc>
</trkpt>
<trkpt lat="36.772864" lon="137.774427">
<ele>2785.833279</ele>
<time>2014-08-18T23:27:14Z</time>
<desc><![CDATA[lat.=36.772864, lon.=137.774427, Alt.=2785.833279m. Speed=2.000000m/h.]]></desc>
</trkpt>
<trkpt lat="36.772915" lon="137.774445">
<ele>2784.888256</ele>
<time>2014-08-18T23:27:19Z</time>
<desc><![CDATA[lat.=36.772915, lon.=137.774445, Alt.=2784.888256m. Speed=3.000000m/h.]]></desc>
</trkpt>
<trkpt lat="36.772948" lon="137.774470">
<ele>2783.339103</ele>
<time>2014-08-18T23:27:24Z</time>
<desc><![CDATA[lat.=36.772948, lon.=137.774470, Alt.=2783.339103m. Speed=3.000000m/h.]]></desc>
</trkpt>
<trkpt lat="36.772984" lon="137.774504">
<ele>2782.981753</ele>
<time>2014-08-18T23:27:29Z</time>
<desc><![CDATA[lat.=36.772984, lon.=137.774504, Alt.=2782.981753m. Speed=4.000000m/h.]]></desc>
</trkpt>
<trkpt lat="36.773012" lon="137.774551">
<ele>2785.540840</ele>
<time>2014-08-18T23:27:34Z</time>
<desc><![CDATA[lat.=36.773012, lon.=137.774551, Alt.=2785.540840m. Speed=4.000000m/h.]]></desc>
</trkpt>
<trkpt lat="36.773048" lon="137.774585">
<ele>2783.453376</ele>
<time>2014-08-18T23:27:39Z</time>
<desc><![CDATA[lat.=36.773048, lon.=137.774585, Alt.=2783.453376m. Speed=4.000000m/h.]]></desc>
</trkpt>
<trkpt lat="36.773080" lon="137.774641">
<ele>2783.744030</ele>
<time>2014-08-18T23:27:44Z</time>
<desc><![CDATA[lat.=36.773080, lon.=137.774641, Alt.=2783.744030m. Speed=4.000000m/h.]]></desc>
</trkpt>
<trkpt lat="36.773102" lon="137.774675">
<ele>2782.189401</ele>
<time>2014-08-18T23:27:49Z</time>
<desc><![CDATA[lat.=36.773102, lon.=137.774675, Alt.=2782.189401m. Speed=4.000000m/h.]]></desc>
</trkpt>
<trkpt lat="36.773123" lon="137.774723">
<ele>2782.419734</ele>
<time>2014-08-18T23:27:54Z</time>
<desc><![CDATA[lat.=36.773123, lon.=137.774723, Alt.=2782.419734m. Speed=4.000000m/h.]]></desc>
</trkpt>
<trkpt lat="36.773151" lon="137.774754">
<ele>2784.924003</ele>
<time>2014-08-18T23:27:59Z</time>
<desc><![CDATA[lat.=36.773151, lon.=137.774754, Alt.=2784.924003m. Speed=3.000000m/h.]]></desc>
</trkpt>
<trkpt lat="36.773175" lon="137.774794">
<ele>2788.021431</ele>
<time>2014-08-18T23:28:04Z</time>
<desc><![CDATA[lat.=36.773175, lon.=137.774794, Alt.=2788.021431m. Speed=3.000000m/h.]]></desc>
</trkpt>
<trkpt lat="36.773200" lon="137.774834">
<ele>2789.388741</ele>
<time>2014-08-18T23:28:09Z</time>
<desc><![CDATA[lat.=36.773200, lon.=137.774834, Alt.=2789.388741m. Speed=3.000000m/h.]]></desc>
</trkpt>
<trkpt lat="36.773214" lon="137.774866">
<ele>2788.965597</ele>
<time>2014-08-18T23:28:14Z</time>
<desc><![CDATA[lat.=36.773214, lon.=137.774866, Alt.=2788.965597m. Speed=3.000000m/h.]]></desc>
</trkpt>
<trkpt lat="36.773235" lon="137.774898">
<ele>2790.871228</ele>
<time>2014-08-18T23:28:19Z</time>
<desc><![CDATA[lat.=36.773235, lon.=137.774898, Alt.=2790.871228m. Speed=3.000000m/h.]]></desc>
</trkpt>
<trkpt lat="36.773249" lon="137.774930">
<ele>2790.448088</ele>
<time>2014-08-18T23:28:24Z</time>
<desc><![CDATA[lat.=36.773249, lon.=137.774930, Alt.=2790.448088m. Speed=3.000000m/h.]]></desc>
</trkpt>
<trkpt lat="36.773255" lon="137.774962">
<ele>2789.426300</ele>
<time>2014-08-18T23:28:29Z</time>
<desc><![CDATA[lat.=36.773255, lon.=137.774962, Alt.=2789.426300m. Speed=2.000000m/h.]]></desc>
</trkpt>
<trkpt lat="36.773266" lon="137.775002">
<ele>2789.596322</ele>
<time>2014-08-18T23:28:34Z</time>
<desc><![CDATA[lat.=36.773266, lon.=137.775002, Alt.=2789.596322m. Speed=2.000000m/h.]]></desc>
</trkpt>
<trkpt lat="36.773276" lon="137.775026">
<ele>2789.711501</ele>
<time>2014-08-18T23:28:39Z</time>
<desc><![CDATA[lat.=36.773276, lon.=137.775026, Alt.=2789.711501m. Speed=2.000000m/h.]]></desc>
</trkpt>
<trkpt lat="36.773294" lon="137.775051">
<ele>2790.425332</ele>
<time>2014-08-18T23:28:44Z</time>
<desc><![CDATA[lat.=36.773294, lon.=137.775051, Alt.=2790.425332m. Speed=2.000000m/h.]]></desc>
</trkpt>
<trkpt lat="36.773268" lon="137.775074">
<ele>2789.277384</ele>
<time>2014-08-18T23:28:49Z</time>
<desc><![CDATA[lat.=36.773268, lon.=137.775074, Alt.=2789.277384m. Speed=2.000000m/h.]]></desc>
</trkpt>
<trkpt lat="36.773277" lon="137.775113">
<ele>2791.177533</ele>
<time>2014-08-18T23:28:54Z</time>
<desc><![CDATA[lat.=36.773277, lon.=137.775113, Alt.=2791.177533m. Speed=2.000000m/h.]]></desc>
</trkpt>
<trkpt lat="36.773298" lon="137.775145">
<ele>2793.083175</ele>
<time>2014-08-18T23:28:59Z</time>
<desc><![CDATA[lat.=36.773298, lon.=137.775145, Alt.=2793.083175m. Speed=3.000000m/h.]]></desc>
</trkpt>
<trkpt lat="36.773324" lon="137.775170">
<ele>2792.665539</ele>
<time>2014-08-18T23:29:04Z</time>
<desc><![CDATA[lat.=36.773324, lon.=137.775170, Alt.=2792.665539m. Speed=3.000000m/h.]]></desc>
</trkpt>
<trkpt lat="36.773353" lon="137.775188">
<ele>2789.924625</ele>
<time>2014-08-18T23:29:09Z</time>
<desc><![CDATA[lat.=36.773353, lon.=137.775188, Alt.=2789.924625m. Speed=3.000000m/h.]]></desc>
</trkpt>
<trkpt lat="36.773367" lon="137.775219">
<ele>2791.231622</ele>
<time>2014-08-18T23:29:14Z</time>
<desc><![CDATA[lat.=36.773367, lon.=137.775219, Alt.=2791.231622m. Speed=3.000000m/h.]]></desc>
</trkpt>
<trkpt lat="36.773395" lon="137.775251">
<ele>2793.735924</ele>
<time>2014-08-18T23:29:19Z</time>
<desc><![CDATA[lat.=36.773395, lon.=137.775251, Alt.=2793.735924m. Speed=3.000000m/h.]]></desc>
</trkpt>
<trkpt lat="36.773416" lon="137.775283">
<ele>2795.641577</ele>
<time>2014-08-18T23:29:24Z</time>
<desc><![CDATA[lat.=36.773416, lon.=137.775283, Alt.=2795.641577m. Speed=3.000000m/h.]]></desc>
</trkpt>
<trkpt lat="36.773437" lon="137.775315">
<ele>2795.817110</ele>
<time>2014-08-18T23:29:29Z</time>
<desc><![CDATA[lat.=36.773437, lon.=137.775315, Alt.=2795.817110m. Speed=3.000000m/h.]]></desc>
</trkpt>
<trkpt lat="36.773462" lon="137.775339">
<ele>2797.129607</ele>
<time>2014-08-18T23:29:34Z</time>
<desc><![CDATA[lat.=36.773462, lon.=137.775339, Alt.=2797.129607m. Speed=3.000000m/h.]]></desc>
</trkpt>
<trkpt lat="36.773490" lon="137.775387">
<ele>2797.958649</ele>
<time>2014-08-18T23:29:39Z</time>
<desc><![CDATA[lat.=36.773490, lon.=137.775387, Alt.=2797.958649m. Speed=3.000000m/h.]]></desc>
</trkpt>
<trkpt lat="36.773519" lon="137.775420">
<ele>2798.732843</ele>
<time>2014-08-18T23:29:44Z</time>
<desc><![CDATA[lat.=36.773519, lon.=137.775420, Alt.=2798.732843m. Speed=3.000000m/h.]]></desc>
</trkpt>
<trkpt lat="36.773543" lon="137.775460">
<ele>2800.100199</ele>
<time>2014-08-18T23:29:49Z</time>
<desc><![CDATA[lat.=36.773543, lon.=137.775460, Alt.=2800.100199m. Speed=3.000000m/h.]]></desc>
</trkpt>
<trkpt lat="36.773572" lon="137.775508">
<ele>2800.929252</ele>
<time>2014-08-18T23:29:54Z</time>
<desc><![CDATA[lat.=36.773572, lon.=137.775508, Alt.=2800.929252m. Speed=3.000000m/h.]]></desc>
</trkpt>
<trkpt lat="36.773607" lon="137.775539">
<ele>2804.032231</ele>
<time>2014-08-18T23:29:59Z</time>
<desc><![CDATA[lat.=36.773607, lon.=137.775539, Alt.=2804.032231m. Speed=3.000000m/h.]]></desc>
</trkpt>
<trkpt lat="36.773637" lon="137.775558">
<ele>2801.291341</ele>
<time>2014-08-18T23:30:04Z</time>
<desc><![CDATA[lat.=36.773637, lon.=137.775558, Alt.=2801.291341m. Speed=3.000000m/h.]]></desc>
</trkpt>
<trkpt lat="36.773662" lon="137.775565">
<ele>2804.279122</ele>
<time>2014-08-18T23:30:09Z</time>
<desc><![CDATA[lat.=36.773662, lon.=137.775565, Alt.=2804.279122m. Speed=3.000000m/h.]]></desc>
</trkpt>
<trkpt lat="36.773654" lon="137.775580">
<ele>2805.465442</ele>
<time>2014-08-18T23:30:14Z</time>
<desc><![CDATA[lat.=36.773654, lon.=137.775580, Alt.=2805.465442m. Speed=2.000000m/h.]]></desc>
</trkpt>
<trkpt lat="36.773657" lon="137.775588">
<ele>2804.927137</ele>
<time>2014-08-18T23:30:20Z</time>
<desc><![CDATA[lat.=36.773657, lon.=137.775588, Alt.=2804.927137m. Speed=1.000000m/h.]]></desc>
</trkpt>
<trkpt lat="36.773663" lon="137.775636">
<ele>2805.690358</ele>
<time>2014-08-18T23:30:25Z</time>
<desc><![CDATA[lat.=36.773663, lon.=137.775636, Alt.=2805.690358m. Speed=2.000000m/h.]]></desc>
</trkpt>
<trkpt lat="36.773677" lon="137.775683">
<ele>2807.052237</ele>
<time>2014-08-18T23:30:30Z</time>
<desc><![CDATA[lat.=36.773677, lon.=137.775683, Alt.=2807.052237m. Speed=3.000000m/h.]]></desc>
</trkpt>
<trkpt lat="36.773702" lon="137.775709">
<ele>2804.904516</ele>
<time>2014-08-18T23:30:35Z</time>
<desc><![CDATA[lat.=36.773702, lon.=137.775709, Alt.=2804.904516m. Speed=3.000000m/h.]]></desc>
</trkpt>
<trkpt lat="36.773731" lon="137.775742">
<ele>2803.948614</ele>
<time>2014-08-18T23:30:40Z</time>
<desc><![CDATA[lat.=36.773731, lon.=137.775742, Alt.=2803.948614m. Speed=3.000000m/h.]]></desc>
</trkpt>
<trkpt lat="36.773767" lon="137.775775">
<ele>2805.321492</ele>
<time>2014-08-18T23:30:45Z</time>
<desc><![CDATA[lat.=36.773767, lon.=137.775775, Alt.=2805.321492m. Speed=3.000000m/h.]]></desc>
</trkpt>
<trkpt lat="36.773784" lon="137.775814">
<ele>2806.090221</ele>
<time>2014-08-18T23:30:50Z</time>
<desc><![CDATA[lat.=36.773784, lon.=137.775814, Alt.=2806.090221m. Speed=3.000000m/h.]]></desc>
</trkpt>
<trkpt lat="36.773784" lon="137.775846">
<ele>2806.199940</ele>
<time>2014-08-18T23:30:55Z</time>
<desc><![CDATA[lat.=36.773784, lon.=137.775846, Alt.=2806.199940m. Speed=2.000000m/h.]]></desc>
</trkpt>
<trkpt lat="36.773769" lon="137.775862">
<ele>2805.057485</ele>
<time>2014-08-18T23:31:00Z</time>
<desc><![CDATA[lat.=36.773769, lon.=137.775862, Alt.=2805.057485m. Speed=2.000000m/h.]]></desc>
</trkpt>
<trkpt lat="36.773794" lon="137.775887">
<ele>2804.639895</ele>
<time>2014-08-18T23:31:05Z</time>
<desc><![CDATA[lat.=36.773794, lon.=137.775887, Alt.=2804.639895m. Speed=2.000000m/h.]]></desc>
</trkpt>
<trkpt lat="36.773786" lon="137.775918">
<ele>2805.881080</ele>
<time>2014-08-18T23:31:10Z</time>
<desc><![CDATA[lat.=36.773786, lon.=137.775918, Alt.=2805.881080m. Speed=2.000000m/h.]]></desc>
</trkpt>
<trkpt lat="36.773760" lon="137.775924">
<ele>2806.408392</ele>
<time>2014-08-18T23:31:15Z</time>
<desc><![CDATA[lat.=36.773760, lon.=137.775924, Alt.=2806.408392m. Speed=2.000000m/h.]]></desc>
</trkpt>
<trkpt lat="36.773763" lon="137.775915">
<ele>2809.275470</ele>
<time>2014-08-18T23:31:20Z</time>
<desc><![CDATA[lat.=36.773763, lon.=137.775915, Alt.=2809.275470m. Speed=0.000000m/h.]]></desc>
</trkpt>
<trkpt lat="36.773756" lon="137.775915">
<ele>2808.676814</ele>
<time>2014-08-18T23:31:25Z</time>
<desc><![CDATA[lat.=36.773756, lon.=137.775915, Alt.=2808.676814m. Speed=0.000000m/h.]]></desc>
</trkpt>
<trkpt lat="36.773752" lon="137.775907">
<ele>2809.215115</ele>
<time>2014-08-18T23:31:30Z</time>
<desc><![CDATA[lat.=36.773752, lon.=137.775907, Alt.=2809.215115m. Speed=0.000000m/h.]]></desc>
</trkpt>
<trkpt lat="36.773759" lon="137.775923">
<ele>2809.868633</ele>
<time>2014-08-18T23:31:35Z</time>
<desc><![CDATA[lat.=36.773759, lon.=137.775923, Alt.=2809.868633m. Speed=1.000000m/h.]]></desc>
</trkpt>
<trkpt lat="36.773770" lon="137.775915">
<ele>2811.604248</ele>
<time>2014-08-18T23:31:40Z</time>
<desc><![CDATA[lat.=36.773770, lon.=137.775915, Alt.=2811.604248m. Speed=0.000000m/h.]]></desc>
</trkpt>
<trkpt lat="36.773769" lon="137.775930">
<ele>2811.659109</ele>
<time>2014-08-18T23:31:45Z</time>
<desc><![CDATA[lat.=36.773769, lon.=137.775930, Alt.=2811.659109m. Speed=1.000000m/h.]]></desc>
</trkpt>
<trkpt lat="36.773772" lon="137.775954">
<ele>2812.905790</ele>
<time>2014-08-18T23:31:50Z</time>
<desc><![CDATA[lat.=36.773772, lon.=137.775954, Alt.=2812.905790m. Speed=0.000000m/h.]]></desc>
</trkpt>
<trkpt lat="36.773764" lon="137.775969">
<ele>2814.092116</ele>
<time>2014-08-18T23:31:55Z</time>
<desc><![CDATA[lat.=36.773764, lon.=137.775969, Alt.=2814.092116m. Speed=1.000000m/h.]]></desc>
</trkpt>
<trkpt lat="36.773723" lon="137.775975">
<ele>2815.152237</ele>
<time>2014-08-18T23:32:00Z</time>
<desc><![CDATA[lat.=36.773723, lon.=137.775975, Alt.=2815.152237m. Speed=2.000000m/h.]]></desc>
</trkpt>
<trkpt lat="36.773696" lon="137.775997">
<ele>2817.464536</ele>
<time>2014-08-18T23:32:05Z</time>
<desc><![CDATA[lat.=36.773696, lon.=137.775997, Alt.=2817.464536m. Speed=3.000000m/h.]]></desc>
</trkpt>
<trkpt lat="36.773696" lon="137.776012">
<ele>2817.519399</ele>
<time>2014-08-18T23:32:10Z</time>
<desc><![CDATA[lat.=36.773696, lon.=137.776012, Alt.=2817.519399m. Speed=2.000000m/h.]]></desc>
</trkpt>
<trkpt lat="36.773689" lon="137.776013">
<ele>2815.190622</ele>
<time>2014-08-18T23:32:15Z</time>
<desc><![CDATA[lat.=36.773689, lon.=137.776013, Alt.=2815.190622m. Speed=0.000000m/h.]]></desc>
</trkpt>
<trkpt lat="36.773679" lon="137.776006">
<ele>2813.400147</ele>
<time>2014-08-18T23:32:20Z</time>
<desc><![CDATA[lat.=36.773679, lon.=137.776006, Alt.=2813.400147m. Speed=0.000000m/h.]]></desc>
</trkpt>
<trkpt lat="36.773683" lon="137.775998">
<ele>2812.806983</ele>
<time>2014-08-18T23:32:25Z</time>
<desc><![CDATA[lat.=36.773683, lon.=137.775998, Alt.=2812.806983m. Speed=0.000000m/h.]]></desc>
</trkpt>
<trkpt lat="36.773694" lon="137.775991">
<ele>2812.812475</ele>
<time>2014-08-18T23:32:30Z</time>
<desc><![CDATA[lat.=36.773694, lon.=137.775991, Alt.=2812.812475m. Speed=1.000000m/h.]]></desc>
</trkpt>
<trkpt lat="36.773683" lon="137.775982">
<ele>2812.752120</ele>
<time>2014-08-18T23:32:35Z</time>
<desc><![CDATA[lat.=36.773683, lon.=137.775982, Alt.=2812.752120m. Speed=0.000000m/h.]]></desc>
</trkpt>
<trkpt lat="36.773706" lon="137.775967">
<ele>2812.763105</ele>
<time>2014-08-18T23:32:40Z</time>
<desc><![CDATA[lat.=36.773706, lon.=137.775967, Alt.=2812.763105m. Speed=2.000000m/h.]]></desc>
</trkpt>
<trkpt lat="36.773728" lon="137.775969">
<ele>2811.098833</ele>
<time>2014-08-18T23:32:45Z</time>
<desc><![CDATA[lat.=36.773728, lon.=137.775969, Alt.=2811.098833m. Speed=2.000000m/h.]]></desc>
</trkpt>
<trkpt lat="36.773758" lon="137.775954">
<ele>2811.708477</ele>
<time>2014-08-18T23:32:50Z</time>
<desc><![CDATA[lat.=36.773758, lon.=137.775954, Alt.=2811.708477m. Speed=2.000000m/h.]]></desc>
</trkpt>
<trkpt lat="36.773761" lon="137.775945">
<ele>2812.845434</ele>
<time>2014-08-18T23:32:55Z</time>
<desc><![CDATA[lat.=36.773761, lon.=137.775945, Alt.=2812.845434m. Speed=0.000000m/h.]]></desc>
</trkpt>
<trkpt lat="36.773791" lon="137.775947">
<ele>2811.779821</ele>
<time>2014-08-18T23:33:00Z</time>
<desc><![CDATA[lat.=36.773791, lon.=137.775947, Alt.=2811.779821m. Speed=2.000000m/h.]]></desc>
</trkpt>
<trkpt lat="36.773795" lon="137.775939">
<ele>2811.186659</ele>
<time>2014-08-18T23:33:05Z</time>
<desc><![CDATA[lat.=36.773795, lon.=137.775939, Alt.=2811.186659m. Speed=1.000000m/h.]]></desc>
</trkpt>
<trkpt lat="36.773799" lon="137.775933">
<ele>2808.863376</ele>
<time>2014-08-18T23:33:10Z</time>
<desc><![CDATA[lat.=36.773799, lon.=137.775933, Alt.=2808.863376m. Speed=0.000000m/h.]]></desc>
</trkpt>
<trkpt lat="36.773803" lon="137.775958">
<ele>2806.649816</ele>
<time>2014-08-18T23:33:15Z</time>
<desc><![CDATA[lat.=36.773803, lon.=137.775958, Alt.=2806.649816m. Speed=1.000000m/h.]]></desc>
</trkpt>
<trkpt lat="36.773806" lon="137.775997">
<ele>2806.221241</ele>
<time>2014-08-18T23:33:20Z</time>
<desc><![CDATA[lat.=36.773806, lon.=137.775997, Alt.=2806.221241m. Speed=2.000000m/h.]]></desc>
</trkpt>
<trkpt lat="36.773783" lon="137.776013">
<ele>2806.210252</ele>
<time>2014-08-18T23:33:25Z</time>
<desc><![CDATA[lat.=36.773783, lon.=137.776013, Alt.=2806.210252m. Speed=2.000000m/h.]]></desc>
</trkpt>
<trkpt lat="36.773784" lon="137.775981">
<ele>2806.100527</ele>
<time>2014-08-18T23:33:30Z</time>
<desc><![CDATA[lat.=36.773784, lon.=137.775981, Alt.=2806.100527m. Speed=2.000000m/h.]]></desc>
</trkpt>
<trkpt lat="36.773788" lon="137.775973">
<ele>2807.237484</ele>
<time>2014-08-18T23:33:35Z</time>
<desc><![CDATA[lat.=36.773788, lon.=137.775973, Alt.=2807.237484m. Speed=0.000000m/h.]]></desc>
</trkpt>
<trkpt lat="36.773784" lon="137.775964">
<ele>2807.775785</ele>
<time>2014-08-18T23:33:40Z</time>
<desc><![CDATA[lat.=36.773784, lon.=137.775964, Alt.=2807.775785m. Speed=0.000000m/h.]]></desc>
</trkpt>
<trkpt lat="36.773781" lon="137.775940">
<ele>2808.259224</ele>
<time>2014-08-18T23:33:45Z</time>
<desc><![CDATA[lat.=36.773781, lon.=137.775940, Alt.=2808.259224m. Speed=1.000000m/h.]]></desc>
</trkpt>
<trkpt lat="36.773788" lon="137.775956">
<ele>2808.912743</ele>
<time>2014-08-18T23:33:50Z</time>
<desc><![CDATA[lat.=36.773788, lon.=137.775956, Alt.=2808.912743m. Speed=2.000000m/h.]]></desc>
</trkpt>
<trkpt lat="36.773797" lon="137.776012">
<ele>2809.137687</ele>
<time>2014-08-18T23:33:55Z</time>
<desc><![CDATA[lat.=36.773797, lon.=137.776012, Alt.=2809.137687m. Speed=2.000000m/h.]]></desc>
</trkpt>
<trkpt lat="36.773808" lon="137.776037">
<ele>2807.522787</ele>
<time>2014-08-18T23:34:00Z</time>
<desc><![CDATA[lat.=36.773808, lon.=137.776037, Alt.=2807.522787m. Speed=2.000000m/h.]]></desc>
</trkpt>
<trkpt lat="36.773797" lon="137.776061">
<ele>2805.842036</ele>
<time>2014-08-18T23:34:05Z</time>
<desc><![CDATA[lat.=36.773797, lon.=137.776061, Alt.=2805.842036m. Speed=2.000000m/h.]]></desc>
</trkpt>
<trkpt lat="36.773789" lon="137.776092">
<ele>2805.353107</ele>
<time>2014-08-18T23:34:10Z</time>
<desc><![CDATA[lat.=36.773789, lon.=137.776092, Alt.=2805.353107m. Speed=2.000000m/h.]]></desc>
</trkpt>
<trkpt lat="36.773774" lon="137.776123">
<ele>2805.995643</ele>
<time>2014-08-18T23:34:15Z</time>
<desc><![CDATA[lat.=36.773774, lon.=137.776123, Alt.=2805.995643m. Speed=2.000000m/h.]]></desc>
</trkpt>
<trkpt lat="36.773766" lon="137.776123">
<ele>2805.396986</ele>
<time>2014-08-18T23:34:20Z</time>
<desc><![CDATA[lat.=36.773766, lon.=137.776123, Alt.=2805.396986m. Speed=0.000000m/h.]]></desc>
</trkpt>
<trkpt lat="36.773766" lon="137.776139">
<ele>2805.451852</ele>
<time>2014-08-18T23:34:25Z</time>
<desc><![CDATA[lat.=36.773766, lon.=137.776139, Alt.=2805.451852m. Speed=0.000000m/h.]]></desc>
</trkpt>
<trkpt lat="36.773736" lon="137.776137">
<ele>2806.517466</ele>
<time>2014-08-18T23:34:30Z</time>
<desc><![CDATA[lat.=36.773736, lon.=137.776137, Alt.=2806.517466m. Speed=2.000000m/h.]]></desc>
</trkpt>
<trkpt lat="36.773733" lon="137.776129">
<ele>2807.055765</ele>
<time>2014-08-18T23:34:35Z</time>
<desc><![CDATA[lat.=36.773733, lon.=137.776129, Alt.=2807.055765m. Speed=1.000000m/h.]]></desc>
</trkpt>
<trkpt lat="36.773710" lon="137.776160">
<ele>2807.099648</ele>
<time>2014-08-18T23:34:40Z</time>
<desc><![CDATA[lat.=36.773710, lon.=137.776160, Alt.=2807.099648m. Speed=2.000000m/h.]]></desc>
</trkpt>
<trkpt lat="36.773681" lon="137.776176">
<ele>2804.759890</ele>
<time>2014-08-18T23:34:45Z</time>
<desc><![CDATA[lat.=36.773681, lon.=137.776176, Alt.=2804.759890m. Speed=2.000000m/h.]]></desc>
</trkpt>
<trkpt lat="36.773666" lon="137.776208">
<ele>2803.672312</ele>
<time>2014-08-18T23:34:50Z</time>
<desc><![CDATA[lat.=36.773666, lon.=137.776208, Alt.=2803.672312m. Speed=3.000000m/h.]]></desc>
</trkpt>
<trkpt lat="36.773636" lon="137.776223">
<ele>2801.332558</ele>
<time>2014-08-18T23:34:55Z</time>
<desc><![CDATA[lat.=36.773636, lon.=137.776223, Alt.=2801.332558m. Speed=2.000000m/h.]]></desc>
</trkpt>
<trkpt lat="36.773614" lon="137.776255">
<ele>2799.646328</ele>
<time>2014-08-18T23:35:00Z</time>
<desc><![CDATA[lat.=36.773614, lon.=137.776255, Alt.=2799.646328m. Speed=3.000000m/h.]]></desc>
</trkpt>
<trkpt lat="36.773588" lon="137.776294">
<ele>2798.553268</ele>
<time>2014-08-18T23:35:05Z</time>
<desc><![CDATA[lat.=36.773588, lon.=137.776294, Alt.=2798.553268m. Speed=3.000000m/h.]]></desc>
</trkpt>
<trkpt lat="36.773551" lon="137.776326">
<ele>2795.669735</ele>
<time>2014-08-18T23:35:10Z</time>
<desc><![CDATA[lat.=36.773551, lon.=137.776326, Alt.=2795.669735m. Speed=3.000000m/h.]]></desc>
</trkpt>
<trkpt lat="36.773538" lon="137.776380">
<ele>2797.558980</ele>
<time>2014-08-18T23:35:15Z</time>
<desc><![CDATA[lat.=36.773538, lon.=137.776380, Alt.=2797.558980m. Speed=3.000000m/h.]]></desc>
</trkpt>
<trkpt lat="36.773535" lon="137.776405">
<ele>2794.746778</ele>
<time>2014-08-18T23:35:20Z</time>
<desc><![CDATA[lat.=36.773535, lon.=137.776405, Alt.=2794.746778m. Speed=2.000000m/h.]]></desc>
</trkpt>
<trkpt lat="36.773534" lon="137.776436">
<ele>2794.856521</ele>
<time>2014-08-18T23:35:25Z</time>
<desc><![CDATA[lat.=36.773534, lon.=137.776436, Alt.=2794.856521m. Speed=2.000000m/h.]]></desc>
</trkpt>
<trkpt lat="36.773522" lon="137.776460">
<ele>2794.905908</ele>
<time>2014-08-18T23:35:30Z</time>
<desc><![CDATA[lat.=36.773522, lon.=137.776460, Alt.=2794.905908m. Speed=2.000000m/h.]]></desc>
</trkpt>
<trkpt lat="36.773540" lon="137.776468">
<ele>2795.564918</ele>
<time>2014-08-18T23:35:35Z</time>
<desc><![CDATA[lat.=36.773540, lon.=137.776468, Alt.=2795.564918m. Speed=1.000000m/h.]]></desc>
</trkpt>
<trkpt lat="36.773560" lon="137.776515">
<ele>2799.255618</ele>
<time>2014-08-18T23:35:40Z</time>
<desc><![CDATA[lat.=36.773560, lon.=137.776515, Alt.=2799.255618m. Speed=2.000000m/h.]]></desc>
</trkpt>
<trkpt lat="36.773548" lon="137.776554">
<ele>2799.359880</ele>
<time>2014-08-18T23:35:45Z</time>
<desc><![CDATA[lat.=36.773548, lon.=137.776554, Alt.=2799.359880m. Speed=2.000000m/h.]]></desc>
</trkpt>
<trkpt lat="36.773548" lon="137.776570">
<ele>2799.414754</ele>
<time>2014-08-18T23:35:52Z</time>
<desc><![CDATA[lat.=36.773548, lon.=137.776570, Alt.=2799.414754m. Speed=0.000000m/h.]]></desc>
</trkpt>
<trkpt lat="36.773537" lon="137.776610">
<ele>2796.058780</ele>
<time>2014-08-18T23:35:57Z</time>
<desc><![CDATA[lat.=36.773537, lon.=137.776610, Alt.=2796.058780m. Speed=2.000000m/h.]]></desc>
</trkpt>
<trkpt lat="36.773514" lon="137.776657">
<ele>2796.157566</ele>
<time>2014-08-18T23:36:02Z</time>
<desc><![CDATA[lat.=36.773514, lon.=137.776657, Alt.=2796.157566m. Speed=3.000000m/h.]]></desc>
</trkpt>
<trkpt lat="36.773513" lon="137.776705">
<ele>2794.592075</ele>
<time>2014-08-18T23:36:07Z</time>
<desc><![CDATA[lat.=36.773513, lon.=137.776705, Alt.=2794.592075m. Speed=3.000000m/h.]]></desc>
</trkpt>
<trkpt lat="36.773509" lon="137.776729">
<ele>2795.240124</ele>
<time>2014-08-18T23:36:12Z</time>
<desc><![CDATA[lat.=36.773509, lon.=137.776729, Alt.=2795.240124m. Speed=3.000000m/h.]]></desc>
</trkpt>
<trkpt lat="36.773494" lon="137.776761">
<ele>2792.422452</ele>
<time>2014-08-18T23:36:17Z</time>
<desc><![CDATA[lat.=36.773494, lon.=137.776761, Alt.=2792.422452m. Speed=2.000000m/h.]]></desc>
</trkpt>
<trkpt lat="36.773478" lon="137.776792">
<ele>2793.065023</ele>
<time>2014-08-18T23:36:22Z</time>
<desc><![CDATA[lat.=36.773478, lon.=137.776792, Alt.=2793.065023m. Speed=2.000000m/h.]]></desc>
</trkpt>
<trkpt lat="36.773485" lon="137.776791">
<ele>2795.393796</ele>
<time>2014-08-18T23:36:27Z</time>
<desc><![CDATA[lat.=36.773485, lon.=137.776791, Alt.=2795.393796m. Speed=0.000000m/h.]]></desc>
</trkpt>
<trkpt lat="36.773481" lon="137.776799">
<ele>2795.986969</ele>
<time>2014-08-18T23:36:38Z</time>
<desc><![CDATA[lat.=36.773481, lon.=137.776799, Alt.=2795.986969m. Speed=0.000000m/h.]]></desc>
</trkpt>
<trkpt lat="36.773478" lon="137.776790">
<ele>2796.525263</ele>
<time>2014-08-18T23:36:43Z</time>
<desc><![CDATA[lat.=36.773478, lon.=137.776790, Alt.=2796.525263m. Speed=0.000000m/h.]]></desc>
</trkpt>
<trkpt lat="36.773470" lon="137.776790">
<ele>2795.926610</ele>
<time>2014-08-18T23:36:48Z</time>
<desc><![CDATA[lat.=36.773470, lon.=137.776790, Alt.=2795.926610m. Speed=0.000000m/h.]]></desc>
</trkpt>
<trkpt lat="36.773478" lon="137.776790">
<ele>2796.525263</ele>
<time>2014-08-18T23:36:59Z</time>
<desc><![CDATA[lat.=36.773478, lon.=137.776790, Alt.=2796.525263m. Speed=0.000000m/h.]]></desc>
</trkpt>
<trkpt lat="36.773474" lon="137.776798">
<ele>2797.118436</ele>
<time>2014-08-18T23:37:04Z</time>
<desc><![CDATA[lat.=36.773474, lon.=137.776798, Alt.=2797.118436m. Speed=0.000000m/h.]]></desc>
</trkpt>
<trkpt lat="36.773485" lon="137.776790">
<ele>2797.123916</ele>
<time>2014-08-18T23:37:09Z</time>
<desc><![CDATA[lat.=36.773485, lon.=137.776790, Alt.=2797.123916m. Speed=1.000000m/h.]]></desc>
</trkpt>
<trkpt lat="36.773495" lon="137.776814">
<ele>2797.239154</ele>
<time>2014-08-18T23:37:14Z</time>
<desc><![CDATA[lat.=36.773495, lon.=137.776814, Alt.=2797.239154m. Speed=1.000000m/h.]]></desc>
</trkpt>
<trkpt lat="36.773510" lon="137.776814">
<ele>2798.436460</ele>
<time>2014-08-18T23:37:19Z</time>
<desc><![CDATA[lat.=36.773510, lon.=137.776814, Alt.=2798.436460m. Speed=0.000000m/h.]]></desc>
</trkpt>
<trkpt lat="36.773517" lon="137.776831">
<ele>2797.359873</ele>
<time>2014-08-18T23:37:24Z</time>
<desc><![CDATA[lat.=36.773517, lon.=137.776831, Alt.=2797.359873m. Speed=1.000000m/h.]]></desc>
</trkpt>
<trkpt lat="36.773538" lon="137.776880">
<ele>2795.860233</ele>
<time>2014-08-18T23:37:29Z</time>
<desc><![CDATA[lat.=36.773538, lon.=137.776880, Alt.=2795.860233m. Speed=2.000000m/h.]]></desc>
</trkpt>
<trkpt lat="36.773523" lon="137.776928">
<ele>2793.097448</ele>
<time>2014-08-18T23:37:34Z</time>
<desc><![CDATA[lat.=36.773523, lon.=137.776928, Alt.=2793.097448m. Speed=3.000000m/h.]]></desc>
</trkpt>
<trkpt lat="36.773475" lon="137.776935">
<ele>2791.828823</ele>
<time>2014-08-18T23:37:39Z</time>
<desc><![CDATA[lat.=36.773475, lon.=137.776935, Alt.=2791.828823m. Speed=3.000000m/h.]]></desc>
</trkpt>
<trkpt lat="36.773442" lon="137.776942">
<ele>2791.757507</ele>
<time>2014-08-18T23:37:44Z</time>
<desc><![CDATA[lat.=36.773442, lon.=137.776942, Alt.=2791.757507m. Speed=3.000000m/h.]]></desc>
</trkpt>
<trkpt lat="36.773427" lon="137.776989">
<ele>2790.724848</ele>
<time>2014-08-18T23:37:49Z</time>
<desc><![CDATA[lat.=36.773427, lon.=137.776989, Alt.=2790.724848m. Speed=3.000000m/h.]]></desc>
</trkpt>
<trkpt lat="36.773430" lon="137.776997">
<ele>2791.916676</ele>
<time>2014-08-18T23:37:54Z</time>
<desc><![CDATA[lat.=36.773430, lon.=137.776997, Alt.=2791.916676m. Speed=0.000000m/h.]]></desc>
</trkpt>
<trkpt lat="36.773429" lon="137.776996">
<ele>2793.646795</ele>
<time>2014-08-18T23:37:59Z</time>
<desc><![CDATA[lat.=36.773429, lon.=137.776996, Alt.=2793.646795m. Speed=0.000000m/h.]]></desc>
</trkpt>
<trkpt lat="36.773436" lon="137.776995">
<ele>2795.975568</ele>
<time>2014-08-18T23:38:04Z</time>
<desc><![CDATA[lat.=36.773436, lon.=137.776995, Alt.=2795.975568m. Speed=0.000000m/h.]]></desc>
</trkpt>
<trkpt lat="36.773436" lon="137.777011">
<ele>2796.030450</ele>
<time>2014-08-18T23:38:14Z</time>
<desc><![CDATA[lat.=36.773436, lon.=137.777011, Alt.=2796.030450m. Speed=0.000000m/h.]]></desc>
</trkpt>
<trkpt lat="36.773435" lon="137.777043">
<ele>2796.140217</ele>
<time>2014-08-18T23:38:19Z</time>
<desc><![CDATA[lat.=36.773435, lon.=137.777043, Alt.=2796.140217m. Speed=2.000000m/h.]]></desc>
</trkpt>
<trkpt lat="36.773442" lon="137.777091">
<ele>2795.173402</ele>
<time>2014-08-18T23:38:24Z</time>
<desc><![CDATA[lat.=36.773442, lon.=137.777091, Alt.=2795.173402m. Speed=2.000000m/h.]]></desc>
</trkpt>
<trkpt lat="36.773423" lon="137.777130">
<ele>2794.679043</ele>
<time>2014-08-18T23:38:29Z</time>
<desc><![CDATA[lat.=36.773423, lon.=137.777130, Alt.=2794.679043m. Speed=3.000000m/h.]]></desc>
</trkpt>
<trkpt lat="36.773451" lon="137.777163">
<ele>2793.723184</ele>
<time>2014-08-18T23:38:34Z</time>
<desc><![CDATA[lat.=36.773451, lon.=137.777163, Alt.=2793.723184m. Speed=3.000000m/h.]]></desc>
</trkpt>
<trkpt lat="36.773443" lon="137.777210">
<ele>2795.019310</ele>
<time>2014-08-18T23:38:39Z</time>
<desc><![CDATA[lat.=36.773443, lon.=137.777210, Alt.=2795.019310m. Speed=3.000000m/h.]]></desc>
</trkpt>
<trkpt lat="36.773419" lon="137.777256">
<ele>2796.848255</ele>
<time>2014-08-18T23:38:44Z</time>
<desc><![CDATA[lat.=36.773419, lon.=137.777256, Alt.=2796.848255m. Speed=3.000000m/h.]]></desc>
</trkpt>
<trkpt lat="36.773404" lon="137.777271">
<ele>2797.435959</ele>
<time>2014-08-18T23:38:49Z</time>
<desc><![CDATA[lat.=36.773404, lon.=137.777271, Alt.=2797.435959m. Speed=3.000000m/h.]]></desc>
</trkpt>
<trkpt lat="36.773396" lon="137.777302">
<ele>2796.947084</ele>
<time>2014-08-18T23:38:54Z</time>
<desc><![CDATA[lat.=36.773396, lon.=137.777302, Alt.=2796.947084m. Speed=2.000000m/h.]]></desc>
</trkpt>
<trkpt lat="36.773381" lon="137.777335">
<ele>2794.129439</ele>
<time>2014-08-18T23:38:59Z</time>
<desc><![CDATA[lat.=36.773381, lon.=137.777335, Alt.=2794.129439m. Speed=2.000000m/h.]]></desc>
</trkpt>
<trkpt lat="36.773344" lon="137.777367">
<ele>2791.245962</ele>
<time>2014-08-18T23:39:04Z</time>
<desc><![CDATA[lat.=36.773344, lon.=137.777367, Alt.=2791.245962m. Speed=2.000000m/h.]]></desc>
</trkpt>
<trkpt lat="36.773345" lon="137.777384">
<ele>2787.840613</ele>
<time>2014-08-18T23:39:09Z</time>
<desc><![CDATA[lat.=36.773345, lon.=137.777384, Alt.=2787.840613m. Speed=2.000000m/h.]]></desc>
</trkpt>
<trkpt lat="36.773322" lon="137.777415">
<ele>2787.884561</ele>
<time>2014-08-18T23:39:14Z</time>
<desc><![CDATA[lat.=36.773322, lon.=137.777415, Alt.=2787.884561m. Speed=2.000000m/h.]]></desc>
</trkpt>
<trkpt lat="36.773315" lon="137.777447">
<ele>2785.665574</ele>
<time>2014-08-18T23:39:19Z</time>
<desc><![CDATA[lat.=36.773315, lon.=137.777447, Alt.=2785.665574m. Speed=3.000000m/h.]]></desc>
</trkpt>
<trkpt lat="36.773292" lon="137.777479">
<ele>2783.979406</ele>
<time>2014-08-18T23:39:24Z</time>
<desc><![CDATA[lat.=36.773292, lon.=137.777479, Alt.=2783.979406m. Speed=3.000000m/h.]]></desc>
</trkpt>
<trkpt lat="36.773309" lon="137.777519">
<ele>2784.748204</ele>
<time>2014-08-18T23:39:29Z</time>
<desc><![CDATA[lat.=36.773309, lon.=137.777519, Alt.=2784.748204m. Speed=3.000000m/h.]]></desc>
</trkpt>
<trkpt lat="36.773316" lon="137.777566">
<ele>2785.511535</ele>
<time>2014-08-18T23:39:34Z</time>
<desc><![CDATA[lat.=36.773316, lon.=137.777566, Alt.=2785.511535m. Speed=3.000000m/h.]]></desc>
</trkpt>
<trkpt lat="36.773311" lon="137.777606">
<ele>2784.484386</ele>
<time>2014-08-18T23:39:39Z</time>
<desc><![CDATA[lat.=36.773311, lon.=137.777606, Alt.=2784.484386m. Speed=3.000000m/h.]]></desc>
</trkpt>
<trkpt lat="36.773281" lon="137.777653">
<ele>2782.254471</ele>
<time>2014-08-18T23:39:44Z</time>
<desc><![CDATA[lat.=36.773281, lon.=137.777653, Alt.=2782.254471m. Speed=3.000000m/h.]]></desc>
</trkpt>
<trkpt lat="36.773258" lon="137.777700">
<ele>2782.353329</ele>
<time>2014-08-18T23:39:49Z</time>
<desc><![CDATA[lat.=36.773258, lon.=137.777700, Alt.=2782.353329m. Speed=4.000000m/h.]]></desc>
</trkpt>
<trkpt lat="36.773258" lon="137.777733">
<ele>2780.733004</ele>
<time>2014-08-18T23:39:54Z</time>
<desc><![CDATA[lat.=36.773258, lon.=137.777733, Alt.=2780.733004m. Speed=3.000000m/h.]]></desc>
</trkpt>
<trkpt lat="36.773279" lon="137.777765">
<ele>2780.908629</ele>
<time>2014-08-18T23:39:59Z</time>
<desc><![CDATA[lat.=36.773279, lon.=137.777765, Alt.=2780.908629m. Speed=3.000000m/h.]]></desc>
</trkpt>
<trkpt lat="36.773271" lon="137.777812">
<ele>2780.474675</ele>
<time>2014-08-18T23:40:04Z</time>
<desc><![CDATA[lat.=36.773271, lon.=137.777812, Alt.=2780.474675m. Speed=3.000000m/h.]]></desc>
</trkpt>
<trkpt lat="36.773292" lon="137.777877">
<ele>2779.029985</ele>
<time>2014-08-18T23:40:09Z</time>
<desc><![CDATA[lat.=36.773292, lon.=137.777877, Alt.=2779.029985m. Speed=4.000000m/h.]]></desc>
</trkpt>
<trkpt lat="36.773294" lon="137.777933">
<ele>2778.656403</ele>
<time>2014-08-18T23:40:14Z</time>
<desc><![CDATA[lat.=36.773294, lon.=137.777933, Alt.=2778.656403m. Speed=4.000000m/h.]]></desc>
</trkpt>
<trkpt lat="36.773319" lon="137.777989">
<ele>2778.348657</ele>
<time>2014-08-18T23:40:19Z</time>
<desc><![CDATA[lat.=36.773319, lon.=137.777989, Alt.=2778.348657m. Speed=4.000000m/h.]]></desc>
</trkpt>
<trkpt lat="36.773318" lon="137.778021">
<ele>2778.458463</ele>
<time>2014-08-18T23:40:24Z</time>
<desc><![CDATA[lat.=36.773318, lon.=137.778021, Alt.=2778.458463m. Speed=3.000000m/h.]]></desc>
</trkpt>
<trkpt lat="36.773343" lon="137.778045">
<ele>2779.771036</ele>
<time>2014-08-18T23:40:29Z</time>
<desc><![CDATA[lat.=36.773343, lon.=137.778045, Alt.=2779.771036m. Speed=3.000000m/h.]]></desc>
</trkpt>
<trkpt lat="36.773320" lon="137.778092">
<ele>2779.869914</ele>
<time>2014-08-18T23:40:34Z</time>
<desc><![CDATA[lat.=36.773320, lon.=137.778092, Alt.=2779.869914m. Speed=3.000000m/h.]]></desc>
</trkpt>
<trkpt lat="36.773315" lon="137.778131">
<ele>2780.572910</ele>
<time>2014-08-18T23:40:39Z</time>
<desc><![CDATA[lat.=36.773315, lon.=137.778131, Alt.=2780.572910m. Speed=3.000000m/h.]]></desc>
</trkpt>
<trkpt lat="36.773285" lon="137.778161">
<ele>2781.748357</ele>
<time>2014-08-18T23:40:44Z</time>
<desc><![CDATA[lat.=36.773285, lon.=137.778161, Alt.=2781.748357m. Speed=3.000000m/h.]]></desc>
</trkpt>
<trkpt lat="36.773269" lon="137.778192">
<ele>2782.390988</ele>
<time>2014-08-18T23:40:49Z</time>
<desc><![CDATA[lat.=36.773269, lon.=137.778192, Alt.=2782.390988m. Speed=3.000000m/h.]]></desc>
</trkpt>
<trkpt lat="36.773268" lon="137.778239">
<ele>2782.555708</ele>
<time>2014-08-18T23:40:54Z</time>
<desc><![CDATA[lat.=36.773268, lon.=137.778239, Alt.=2782.555708m. Speed=3.000000m/h.]]></desc>
</trkpt>
<trkpt lat="36.773252" lon="137.778286">
<ele>2783.253251</ele>
<time>2014-08-18T23:40:59Z</time>
<desc><![CDATA[lat.=36.773252, lon.=137.778286, Alt.=2783.253251m. Speed=3.000000m/h.]]></desc>
</trkpt>
<trkpt lat="36.773237" lon="137.778334">
<ele>2780.490559</ele>
<time>2014-08-18T23:41:04Z</time>
<desc><![CDATA[lat.=36.773237, lon.=137.778334, Alt.=2780.490559m. Speed=3.000000m/h.]]></desc>
</trkpt>
<trkpt lat="36.773221" lon="137.778398">
<ele>2779.512899</ele>
<time>2014-08-18T23:41:09Z</time>
<desc><![CDATA[lat.=36.773221, lon.=137.778398, Alt.=2779.512899m. Speed=4.000000m/h.]]></desc>
</trkpt>
<trkpt lat="36.773216" lon="137.778453">
<ele>2778.540704</ele>
<time>2014-08-18T23:41:14Z</time>
<desc><![CDATA[lat.=36.773216, lon.=137.778453, Alt.=2778.540704m. Speed=4.000000m/h.]]></desc>
</trkpt>
<trkpt lat="36.773215" lon="137.778501">
<ele>2778.705440</ele>
<time>2014-08-18T23:41:19Z</time>
<desc><![CDATA[lat.=36.773215, lon.=137.778501, Alt.=2778.705440m. Speed=4.000000m/h.]]></desc>
</trkpt>
<trkpt lat="36.773192" lon="137.778547">
<ele>2778.804350</ele>
<time>2014-08-18T23:41:24Z</time>
<desc><![CDATA[lat.=36.773192, lon.=137.778547, Alt.=2778.804350m. Speed=4.000000m/h.]]></desc>
</trkpt>
<trkpt lat="36.773191" lon="137.778595">
<ele>2778.969092</ele>
<time>2014-08-18T23:41:29Z</time>
<desc><![CDATA[lat.=36.773191, lon.=137.778595, Alt.=2778.969092m. Speed=3.000000m/h.]]></desc>
</trkpt>
<trkpt lat="36.773183" lon="137.778643">
<ele>2776.805070</ele>
<time>2014-08-18T23:41:34Z</time>
<desc><![CDATA[lat.=36.773183, lon.=137.778643, Alt.=2776.805070m. Speed=3.000000m/h.]]></desc>
</trkpt>
<trkpt lat="36.773197" lon="137.778691">
<ele>2776.436996</ele>
<time>2014-08-18T23:41:39Z</time>
<desc><![CDATA[lat.=36.773197, lon.=137.778691, Alt.=2776.436996m. Speed=3.000000m/h.]]></desc>
</trkpt>
<trkpt lat="36.773174" lon="137.778738">
<ele>2776.535919</ele>
<time>2014-08-18T23:41:44Z</time>
<desc><![CDATA[lat.=36.773174, lon.=137.778738, Alt.=2776.535919m. Speed=3.000000m/h.]]></desc>
</trkpt>
<trkpt lat="36.773169" lon="137.778778">
<ele>2775.508829</ele>
<time>2014-08-18T23:41:49Z</time>
<desc><![CDATA[lat.=36.773169, lon.=137.778778, Alt.=2775.508829m. Speed=3.000000m/h.]]></desc>
</trkpt>
<trkpt lat="36.773187" lon="137.778818">
<ele>2776.277688</ele>
<time>2014-08-18T23:41:54Z</time>
<desc><![CDATA[lat.=36.773187, lon.=137.778818, Alt.=2776.277688m. Speed=3.000000m/h.]]></desc>
</trkpt>
<trkpt lat="36.773205" lon="137.778843">
<ele>2775.261511</ele>
<time>2014-08-18T23:41:59Z</time>
<desc><![CDATA[lat.=36.773205, lon.=137.778843, Alt.=2775.261511m. Speed=3.000000m/h.]]></desc>
</trkpt>
<trkpt lat="36.773211" lon="137.778891">
<ele>2774.294801</ele>
<time>2014-08-18T23:42:04Z</time>
<desc><![CDATA[lat.=36.773211, lon.=137.778891, Alt.=2774.294801m. Speed=3.000000m/h.]]></desc>
</trkpt>
<trkpt lat="36.773199" lon="137.778930">
<ele>2774.399188</ele>
<time>2014-08-18T23:42:09Z</time>
<desc><![CDATA[lat.=36.773199, lon.=137.778930, Alt.=2774.399188m. Speed=3.000000m/h.]]></desc>
</trkpt>
<trkpt lat="36.773180" lon="137.778969">
<ele>2773.904929</ele>
<time>2014-08-18T23:42:14Z</time>
<desc><![CDATA[lat.=36.773180, lon.=137.778969, Alt.=2773.904929m. Speed=3.000000m/h.]]></desc>
</trkpt>
<trkpt lat="36.773179" lon="137.779017">
<ele>2772.339578</ele>
<time>2014-08-18T23:42:19Z</time>
<desc><![CDATA[lat.=36.773179, lon.=137.779017, Alt.=2772.339578m. Speed=3.000000m/h.]]></desc>
</trkpt>
<trkpt lat="36.773193" lon="137.779066">
<ele>2770.241409</ele>
<time>2014-08-18T23:42:24Z</time>
<desc><![CDATA[lat.=36.773193, lon.=137.779066, Alt.=2770.241409m. Speed=4.000000m/h.]]></desc>
</trkpt>
<trkpt lat="36.773214" lon="137.779147">
<ele>2768.851742</ele>
<time>2014-08-18T23:42:29Z</time>
<desc><![CDATA[lat.=36.773214, lon.=137.779147, Alt.=2768.851742m. Speed=5.000000m/h.]]></desc>
</trkpt>
<trkpt lat="36.773223" lon="137.779219">
<ele>2769.131824</ele>
<time>2014-08-18T23:42:34Z</time>
<desc><![CDATA[lat.=36.773223, lon.=137.779219, Alt.=2769.131824m. Speed=5.000000m/h.]]></desc>
</trkpt>
<trkpt lat="36.773230" lon="137.779267">
<ele>2768.165137</ele>
<time>2014-08-18T23:42:39Z</time>
<desc><![CDATA[lat.=36.773230, lon.=137.779267, Alt.=2768.165137m. Speed=4.000000m/h.]]></desc>
</trkpt>
<trkpt lat="36.773218" lon="137.779322">
<ele>2768.324471</ele>
<time>2014-08-18T23:42:44Z</time>
<desc><![CDATA[lat.=36.773218, lon.=137.779322, Alt.=2768.324471m. Speed=4.000000m/h.]]></desc>
</trkpt>
<trkpt lat="36.773210" lon="137.779338">
<ele>2767.780750</ele>
<time>2014-08-18T23:42:49Z</time>
<desc><![CDATA[lat.=36.773210, lon.=137.779338, Alt.=2767.780750m. Speed=1.000000m/h.]]></desc>
</trkpt>
<trkpt lat="36.773198" lon="137.779361">
<ele>2767.830230</ele>
<time>2014-08-18T23:42:54Z</time>
<desc><![CDATA[lat.=36.773198, lon.=137.779361, Alt.=2767.830230m. Speed=2.000000m/h.]]></desc>
</trkpt>
<trkpt lat="36.773194" lon="137.779384">
<ele>2768.478359</ele>
<time>2014-08-18T23:42:59Z</time>
<desc><![CDATA[lat.=36.773194, lon.=137.779384, Alt.=2768.478359m. Speed=2.000000m/h.]]></desc>
</trkpt>
<trkpt lat="36.773175" lon="137.779408">
<ele>2767.929191</ele>
<time>2014-08-18T23:43:04Z</time>
<desc><![CDATA[lat.=36.773175, lon.=137.779408, Alt.=2767.929191m. Speed=2.000000m/h.]]></desc>
</trkpt>
<trkpt lat="36.773160" lon="137.779439">
<ele>2766.841755</ele>
<time>2014-08-18T23:43:09Z</time>
<desc><![CDATA[lat.=36.773160, lon.=137.779439, Alt.=2766.841755m. Speed=2.000000m/h.]]></desc>
</trkpt>
<trkpt lat="36.773145" lon="137.779471">
<ele>2765.754321</ele>
<time>2014-08-18T23:43:14Z</time>
<desc><![CDATA[lat.=36.773145, lon.=137.779471, Alt.=2765.754321m. Speed=2.000000m/h.]]></desc>
</trkpt>
<trkpt lat="36.773144" lon="137.779518">
<ele>2765.919118</ele>
<time>2014-08-18T23:43:19Z</time>
<desc><![CDATA[lat.=36.773144, lon.=137.779518, Alt.=2765.919118m. Speed=3.000000m/h.]]></desc>
</trkpt>
<trkpt lat="36.773143" lon="137.779566">
<ele>2766.083917</ele>
<time>2014-08-18T23:43:24Z</time>
<desc><![CDATA[lat.=36.773143, lon.=137.779566, Alt.=2766.083917m. Speed=3.000000m/h.]]></desc>
</trkpt>
<trkpt lat="36.773146" lon="137.779590">
<ele>2765.600583</ele>
<time>2014-08-18T23:43:29Z</time>
<desc><![CDATA[lat.=36.773146, lon.=137.779590, Alt.=2765.600583m. Speed=3.000000m/h.]]></desc>
</trkpt>
<trkpt lat="36.773153" lon="137.779622">
<ele>2764.578983</ele>
<time>2014-08-18T23:43:34Z</time>
<desc><![CDATA[lat.=36.773153, lon.=137.779622, Alt.=2764.578983m. Speed=2.000000m/h.]]></desc>
</trkpt>
<trkpt lat="36.773171" lon="137.779663">
<ele>2763.617766</ele>
<time>2014-08-18T23:43:39Z</time>
<desc><![CDATA[lat.=36.773171, lon.=137.779663, Alt.=2763.617766m. Speed=2.000000m/h.]]></desc>
</trkpt>
<trkpt lat="36.773163" lon="137.779679">
<ele>2763.074053</ele>
<time>2014-08-18T23:43:44Z</time>
<desc><![CDATA[lat.=36.773163, lon.=137.779679, Alt.=2763.074053m. Speed=2.000000m/h.]]></desc>
</trkpt>
<trkpt lat="36.773163" lon="137.779711">
<ele>2761.453808</ele>
<time>2014-08-18T23:43:49Z</time>
<desc><![CDATA[lat.=36.773163, lon.=137.779711, Alt.=2761.453808m. Speed=2.000000m/h.]]></desc>
</trkpt>
<trkpt lat="36.773151" lon="137.779735">
<ele>2759.773181</ele>
<time>2014-08-18T23:43:54Z</time>
<desc><![CDATA[lat.=36.773151, lon.=137.779735, Alt.=2759.773181m. Speed=2.000000m/h.]]></desc>
</trkpt>
<trkpt lat="36.773137" lon="137.779735">
<ele>2758.575885</ele>
<time>2014-08-18T23:43:59Z</time>
<desc><![CDATA[lat.=36.773137, lon.=137.779735, Alt.=2758.575885m. Speed=1.000000m/h.]]></desc>
</trkpt>
<trkpt lat="36.773140" lon="137.779759">
<ele>2758.092556</ele>
<time>2014-08-18T23:44:04Z</time>
<desc><![CDATA[lat.=36.773140, lon.=137.779759, Alt.=2758.092556m. Speed=2.000000m/h.]]></desc>
</trkpt>
<trkpt lat="36.773147" lon="137.779792">
<ele>2757.070962</ele>
<time>2014-08-18T23:44:09Z</time>
<desc><![CDATA[lat.=36.773147, lon.=137.779792, Alt.=2757.070962m. Speed=2.000000m/h.]]></desc>
</trkpt>
<trkpt lat="36.773158" lon="137.779817">
<ele>2755.456166</ele>
<time>2014-08-18T23:44:14Z</time>
<desc><![CDATA[lat.=36.773158, lon.=137.779817, Alt.=2755.456166m. Speed=2.000000m/h.]]></desc>
</trkpt>
<trkpt lat="36.773165" lon="137.779848">
<ele>2756.164692</ele>
<time>2014-08-18T23:44:19Z</time>
<desc><![CDATA[lat.=36.773165, lon.=137.779848, Alt.=2756.164692m. Speed=2.000000m/h.]]></desc>
</trkpt>
<trkpt lat="36.773186" lon="137.779865">
<ele>2756.285460</ele>
<time>2014-08-18T23:44:24Z</time>
<desc><![CDATA[lat.=36.773186, lon.=137.779865, Alt.=2756.285460m. Speed=2.000000m/h.]]></desc>
</trkpt>
<trkpt lat="36.773190" lon="137.779890">
<ele>2754.072018</ele>
<time>2014-08-18T23:44:29Z</time>
<desc><![CDATA[lat.=36.773190, lon.=137.779890, Alt.=2754.072018m. Speed=2.000000m/h.]]></desc>
</trkpt>
<trkpt lat="36.773164" lon="137.779913">
<ele>2752.924217</ele>
<time>2014-08-18T23:44:34Z</time>
<desc><![CDATA[lat.=36.773164, lon.=137.779913, Alt.=2752.924217m. Speed=2.000000m/h.]]></desc>
</trkpt>
<trkpt lat="36.773131" lon="137.779920">
<ele>2752.852946</ele>
<time>2014-08-18T23:44:39Z</time>
<desc><![CDATA[lat.=36.773131, lon.=137.779920, Alt.=2752.852946m. Speed=2.000000m/h.]]></desc>
</trkpt>
<trkpt lat="36.773137" lon="137.779936">
<ele>2753.506535</ele>
<time>2014-08-18T23:44:44Z</time>
<desc><![CDATA[lat.=36.773137, lon.=137.779936, Alt.=2753.506535m. Speed=2.000000m/h.]]></desc>
</trkpt>
<trkpt lat="36.773148" lon="137.779961">
<ele>2751.891743</ele>
<time>2014-08-18T23:44:49Z</time>
<desc><![CDATA[lat.=36.773148, lon.=137.779961, Alt.=2751.891743m. Speed=2.000000m/h.]]></desc>
</trkpt>
<trkpt lat="36.773119" lon="137.779976">
<ele>2751.282210</ele>
<time>2014-08-18T23:44:54Z</time>
<desc><![CDATA[lat.=36.773119, lon.=137.779976, Alt.=2751.282210m. Speed=2.000000m/h.]]></desc>
</trkpt>
<trkpt lat="36.773126" lon="137.779991">
<ele>2751.935799</ele>
<time>2014-08-18T23:44:59Z</time>
<desc><![CDATA[lat.=36.773126, lon.=137.779991, Alt.=2751.935799m. Speed=1.000000m/h.]]></desc>
</trkpt>
<trkpt lat="36.773132" lon="137.780024">
<ele>2750.914215</ele>
<time>2014-08-18T23:45:04Z</time>
<desc><![CDATA[lat.=36.773132, lon.=137.780024, Alt.=2750.914215m. Speed=2.000000m/h.]]></desc>
</trkpt>
<trkpt lat="36.773117" lon="137.780055">
<ele>2749.826805</ele>
<time>2014-08-18T23:45:09Z</time>
<desc><![CDATA[lat.=36.773117, lon.=137.780055, Alt.=2749.826805m. Speed=2.000000m/h.]]></desc>
</trkpt>
<trkpt lat="36.773124" lon="137.780120">
<ele>2747.184994</ele>
<time>2014-08-18T23:45:14Z</time>
<desc><![CDATA[lat.=36.773124, lon.=137.780120, Alt.=2747.184994m. Speed=3.000000m/h.]]></desc>
</trkpt>
<trkpt lat="36.773098" lon="137.780144">
<ele>2746.037203</ele>
<time>2014-08-18T23:45:19Z</time>
<desc><![CDATA[lat.=36.773098, lon.=137.780144, Alt.=2746.037203m. Speed=3.000000m/h.]]></desc>
</trkpt>
<trkpt lat="36.773076" lon="137.780160">
<ele>2742.566089</ele>
<time>2014-08-18T23:45:24Z</time>
<desc><![CDATA[lat.=36.773076, lon.=137.780160, Alt.=2742.566089m. Speed=3.000000m/h.]]></desc>
</trkpt>
<trkpt lat="36.773098" lon="137.780209">
<ele>2741.066634</ele>
<time>2014-08-18T23:45:29Z</time>
<desc><![CDATA[lat.=36.773098, lon.=137.780209, Alt.=2741.066634m. Speed=3.000000m/h.]]></desc>
</trkpt>
<trkpt lat="36.773112" lon="137.780227">
<ele>2738.858642</ele>
<time>2014-08-18T23:45:34Z</time>
<desc><![CDATA[lat.=36.773112, lon.=137.780227, Alt.=2738.858642m. Speed=3.000000m/h.]]></desc>
</trkpt>
<trkpt lat="36.773130" lon="137.780267">
<ele>2737.897454</ele>
<time>2014-08-18T23:45:39Z</time>
<desc><![CDATA[lat.=36.773130, lon.=137.780267, Alt.=2737.897454m. Speed=2.000000m/h.]]></desc>
</trkpt>
<trkpt lat="36.773151" lon="137.780250">
<ele>2743.098685</ele>
<time>2014-08-18T23:45:44Z</time>
<desc><![CDATA[lat.=36.773151, lon.=137.780250, Alt.=2743.098685m. Speed=0.000000m/h.]]></desc>
</trkpt>
<trkpt lat="36.773140" lon="137.780241">
<ele>2744.768415</ele>
<time>2014-08-18T23:45:49Z</time>
<desc><![CDATA[lat.=36.773140, lon.=137.780241, Alt.=2744.768415m. Speed=0.000000m/h.]]></desc>
</trkpt>
<trkpt lat="36.773151" lon="137.780233">
<ele>2744.773855</ele>
<time>2014-08-18T23:45:54Z</time>
<desc><![CDATA[lat.=36.773151, lon.=137.780233, Alt.=2744.773855m. Speed=0.000000m/h.]]></desc>
</trkpt>
<trkpt lat="36.773148" lon="137.780226">
<ele>2743.581999</ele>
<time>2014-08-18T23:46:13Z</time>
<desc><![CDATA[lat.=36.773148, lon.=137.780226, Alt.=2743.581999m. Speed=0.000000m/h.]]></desc>
</trkpt>
<trkpt lat="36.773136" lon="137.780248">
<ele>2745.361623</ele>
<time>2014-08-18T23:46:18Z</time>
<desc><![CDATA[lat.=36.773136, lon.=137.780248, Alt.=2745.361623m. Speed=1.000000m/h.]]></desc>
</trkpt>
<trkpt lat="36.773143" lon="137.780281">
<ele>2742.609932</ele>
<time>2014-08-18T23:46:23Z</time>
<desc><![CDATA[lat.=36.773143, lon.=137.780281, Alt.=2742.609932m. Speed=2.000000m/h.]]></desc>
</trkpt>
<trkpt lat="36.773154" lon="137.780290">
<ele>2742.670320</ele>
<time>2014-08-18T23:46:28Z</time>
<desc><![CDATA[lat.=36.773154, lon.=137.780290, Alt.=2742.670320m. Speed=0.000000m/h.]]></desc>
</trkpt>
<trkpt lat="36.773151" lon="137.780281">
<ele>2743.208580</ele>
<time>2014-08-18T23:46:38Z</time>
<desc><![CDATA[lat.=36.773151, lon.=137.780281, Alt.=2743.208580m. Speed=0.000000m/h.]]></desc>
</trkpt>
<trkpt lat="36.773158" lon="137.780281">
<ele>2743.807228</ele>
<time>2014-08-18T23:46:43Z</time>
<desc><![CDATA[lat.=36.773158, lon.=137.780281, Alt.=2743.807228m. Speed=0.000000m/h.]]></desc>
</trkpt>
<trkpt lat="36.773154" lon="137.780289">
<ele>2744.400437</ele>
<time>2014-08-18T23:46:49Z</time>
<desc><![CDATA[lat.=36.773154, lon.=137.780289, Alt.=2744.400437m. Speed=1.000000m/h.]]></desc>
</trkpt>
<trkpt lat="36.773149" lon="137.780312">
<ele>2745.048593</ele>
<time>2014-08-18T23:46:54Z</time>
<desc><![CDATA[lat.=36.773149, lon.=137.780312, Alt.=2745.048593m. Speed=2.000000m/h.]]></desc>
</trkpt>
<trkpt lat="36.773133" lon="137.780376">
<ele>2744.071093</ele>
<time>2014-08-18T23:46:59Z</time>
<desc><![CDATA[lat.=36.773133, lon.=137.780376, Alt.=2744.071093m. Speed=3.000000m/h.]]></desc>
</trkpt>
<trkpt lat="36.773144" lon="137.780416">
<ele>2742.511265</ele>
<time>2014-08-18T23:47:04Z</time>
<desc><![CDATA[lat.=36.773144, lon.=137.780416, Alt.=2742.511265m. Speed=3.000000m/h.]]></desc>
</trkpt>
<trkpt lat="36.773128" lon="137.780464">
<ele>2741.478821</ele>
<time>2014-08-18T23:47:09Z</time>
<desc><![CDATA[lat.=36.773128, lon.=137.780464, Alt.=2741.478821m. Speed=3.000000m/h.]]></desc>
</trkpt>
<trkpt lat="36.773135" lon="137.780512">
<ele>2740.512208</ele>
<time>2014-08-18T23:47:14Z</time>
<desc><![CDATA[lat.=36.773135, lon.=137.780512, Alt.=2740.512208m. Speed=3.000000m/h.]]></desc>
</trkpt>
<trkpt lat="36.773116" lon="137.780551">
<ele>2740.018028</ele>
<time>2014-08-18T23:47:19Z</time>
<desc><![CDATA[lat.=36.773116, lon.=137.780551, Alt.=2740.018028m. Speed=3.000000m/h.]]></desc>
</trkpt>
<trkpt lat="36.773114" lon="137.780614">
<ele>2740.237843</ele>
<time>2014-08-18T23:47:24Z</time>
<desc><![CDATA[lat.=36.773114, lon.=137.780614, Alt.=2740.237843m. Speed=4.000000m/h.]]></desc>
</trkpt>
<trkpt lat="36.773118" lon="137.780638">
<ele>2739.754540</ele>
<time>2014-08-18T23:47:29Z</time>
<desc><![CDATA[lat.=36.773118, lon.=137.780638, Alt.=2739.754540m. Speed=3.000000m/h.]]></desc>
</trkpt>
<trkpt lat="36.773114" lon="137.780630">
<ele>2740.292797</ele>
<time>2014-08-18T23:47:35Z</time>
<desc><![CDATA[lat.=36.773114, lon.=137.780630, Alt.=2740.292797m. Speed=0.000000m/h.]]></desc>
</trkpt>
<trkpt lat="36.773125" lon="137.780623">
<ele>2740.298233</ele>
<time>2014-08-18T23:47:40Z</time>
<desc><![CDATA[lat.=36.773125, lon.=137.780623, Alt.=2740.298233m. Speed=0.000000m/h.]]></desc>
</trkpt>
<trkpt lat="36.773129" lon="137.780615">
<ele>2739.705022</ele>
<time>2014-08-18T23:47:46Z</time>
<desc><![CDATA[lat.=36.773129, lon.=137.780615, Alt.=2739.705022m. Speed=0.000000m/h.]]></desc>
</trkpt>
<trkpt lat="36.773133" lon="137.780608">
<ele>2739.111810</ele>
<time>2014-08-18T23:48:05Z</time>
<desc><![CDATA[lat.=36.773133, lon.=137.780608, Alt.=2739.111810m. Speed=0.000000m/h.]]></desc>
</trkpt>
<trkpt lat="36.773129" lon="137.780615">
<ele>2739.705022</ele>
<time>2014-08-18T23:48:10Z</time>
<desc><![CDATA[lat.=36.773129, lon.=137.780615, Alt.=2739.705022m. Speed=0.000000m/h.]]></desc>
</trkpt>
<trkpt lat="36.773133" lon="137.780608">
<ele>2739.111810</ele>
<time>2014-08-18T23:48:28Z</time>
<desc><![CDATA[lat.=36.773133, lon.=137.780608, Alt.=2739.111810m. Speed=0.000000m/h.]]></desc>
</trkpt>
<trkpt lat="36.773130" lon="137.780599">
<ele>2739.650068</ele>
<time>2014-08-18T23:48:33Z</time>
<desc><![CDATA[lat.=36.773130, lon.=137.780599, Alt.=2739.650068m. Speed=0.000000m/h.]]></desc>
</trkpt>
<trkpt lat="36.773126" lon="137.780607">
<ele>2740.243279</ele>
<time>2014-08-18T23:48:38Z</time>
<desc><![CDATA[lat.=36.773126, lon.=137.780607, Alt.=2740.243279m. Speed=1.000000m/h.]]></desc>
</trkpt>
<trkpt lat="36.773121" lon="137.780630">
<ele>2740.891445</ele>
<time>2014-08-18T23:48:43Z</time>
<desc><![CDATA[lat.=36.773121, lon.=137.780630, Alt.=2740.891445m. Speed=0.000000m/h.]]></desc>
</trkpt>
<trkpt lat="36.773113" lon="137.780662">
<ele>2740.402707</ele>
<time>2014-08-18T23:48:48Z</time>
<desc><![CDATA[lat.=36.773113, lon.=137.780662, Alt.=2740.402707m. Speed=2.000000m/h.]]></desc>
</trkpt>
<trkpt lat="36.773097" lon="137.780725">
<ele>2739.425235</ele>
<time>2014-08-18T23:48:53Z</time>
<desc><![CDATA[lat.=36.773097, lon.=137.780725, Alt.=2739.425235m. Speed=3.000000m/h.]]></desc>
</trkpt>
<trkpt lat="36.773093" lon="137.780765">
<ele>2738.398246</ele>
<time>2014-08-18T23:48:58Z</time>
<desc><![CDATA[lat.=36.773093, lon.=137.780765, Alt.=2738.398246m. Speed=3.000000m/h.]]></desc>
</trkpt>
<trkpt lat="36.773103" lon="137.780805">
<ele>2738.568553</ele>
<time>2014-08-18T23:49:03Z</time>
<desc><![CDATA[lat.=36.773103, lon.=137.780805, Alt.=2738.568553m. Speed=3.000000m/h.]]></desc>
</trkpt>
<trkpt lat="36.773121" lon="137.780846">
<ele>2737.607394</ele>
<time>2014-08-18T23:49:08Z</time>
<desc><![CDATA[lat.=36.773121, lon.=137.780846, Alt.=2737.607394m. Speed=3.000000m/h.]]></desc>
</trkpt>
<trkpt lat="36.773098" lon="137.780893">
<ele>2735.976329</ele>
<time>2014-08-18T23:49:13Z</time>
<desc><![CDATA[lat.=36.773098, lon.=137.780893, Alt.=2735.976329m. Speed=3.000000m/h.]]></desc>
</trkpt>
<trkpt lat="36.773086" lon="137.780900">
<ele>2737.701012</ele>
<time>2014-08-18T23:49:18Z</time>
<desc><![CDATA[lat.=36.773086, lon.=137.780900, Alt.=2737.701012m. Speed=2.000000m/h.]]></desc>
</trkpt>
<trkpt lat="36.773076" lon="137.780925">
<ele>2734.290307</ele>
<time>2014-08-18T23:49:23Z</time>
<desc><![CDATA[lat.=36.773076, lon.=137.780925, Alt.=2734.290307m. Speed=2.000000m/h.]]></desc>
</trkpt>
<trkpt lat="36.773084" lon="137.780910">
<ele>2733.103878</ele>
<time>2014-08-18T23:49:28Z</time>
<desc><![CDATA[lat.=36.773084, lon.=137.780910, Alt.=2733.103878m. Speed=0.000000m/h.]]></desc>
</trkpt>
<trkpt lat="36.773080" lon="137.780918">
<ele>2731.966976</ele>
<time>2014-08-18T23:49:33Z</time>
<desc><![CDATA[lat.=36.773080, lon.=137.780918, Alt.=2731.966976m. Speed=0.000000m/h.]]></desc>
</trkpt>
<trkpt lat="36.773076" lon="137.780910">
<ele>2732.505230</ele>
<time>2014-08-18T23:49:38Z</time>
<desc><![CDATA[lat.=36.773076, lon.=137.780910, Alt.=2732.505230m. Speed=0.000000m/h.]]></desc>
</trkpt>
<trkpt lat="36.773073" lon="137.780901">
<ele>2733.043485</ele>
<time>2014-08-18T23:49:55Z</time>
<desc><![CDATA[lat.=36.773073, lon.=137.780901, Alt.=2733.043485m. Speed=0.000000m/h.]]></desc>
</trkpt>
<trkpt lat="36.773076" lon="137.780910">
<ele>2732.505230</ele>
<time>2014-08-18T23:50:00Z</time>
<desc><![CDATA[lat.=36.773076, lon.=137.780910, Alt.=2732.505230m. Speed=0.000000m/h.]]></desc>
</trkpt>
<trkpt lat="36.773072" lon="137.780917">
<ele>2733.098445</ele>
<time>2014-08-18T23:50:05Z</time>
<desc><![CDATA[lat.=36.773072, lon.=137.780917, Alt.=2733.098445m. Speed=1.000000m/h.]]></desc>
</trkpt>
<trkpt lat="36.773072" lon="137.780949">
<ele>2733.208366</ele>
<time>2014-08-18T23:50:10Z</time>
<desc><![CDATA[lat.=36.773072, lon.=137.780949, Alt.=2733.208366m. Speed=1.000000m/h.]]></desc>
</trkpt>
<trkpt lat="36.773060" lon="137.780988">
<ele>2733.312857</ele>
<time>2014-08-18T23:50:15Z</time>
<desc><![CDATA[lat.=36.773060, lon.=137.780988, Alt.=2733.312857m. Speed=2.000000m/h.]]></desc>
</trkpt>
<trkpt lat="36.773048" lon="137.781027">
<ele>2733.417350</ele>
<time>2014-08-18T23:50:20Z</time>
<desc><![CDATA[lat.=36.773048, lon.=137.781027, Alt.=2733.417350m. Speed=2.000000m/h.]]></desc>
</trkpt>
<trkpt lat="36.773062" lon="137.781027">
<ele>2734.614644</ele>
<time>2014-08-18T23:50:25Z</time>
<desc><![CDATA[lat.=36.773062, lon.=137.781027, Alt.=2734.614644m. Speed=0.000000m/h.]]></desc>
</trkpt>
<trkpt lat="36.773066" lon="137.781020">
<ele>2734.021428</ele>
<time>2014-08-18T23:50:31Z</time>
<desc><![CDATA[lat.=36.773066, lon.=137.781020, Alt.=2734.021428m. Speed=0.000000m/h.]]></desc>
</trkpt>
<trkpt lat="36.773080" lon="137.781052">
<ele>2733.598532</ele>
<time>2014-08-18T23:50:36Z</time>
<desc><![CDATA[lat.=36.773080, lon.=137.781052, Alt.=2733.598532m. Speed=2.000000m/h.]]></desc>
</trkpt>
<trkpt lat="36.773091" lon="137.781109">
<ele>2730.363585</ele>
<time>2014-08-18T23:50:41Z</time>
<desc><![CDATA[lat.=36.773091, lon.=137.781109, Alt.=2730.363585m. Speed=3.000000m/h.]]></desc>
</trkpt>
<trkpt lat="36.773105" lon="137.781174">
<ele>2728.320507</ele>
<time>2014-08-18T23:50:46Z</time>
<desc><![CDATA[lat.=36.773105, lon.=137.781174, Alt.=2728.320507m. Speed=4.000000m/h.]]></desc>
</trkpt>
<trkpt lat="36.773111" lon="137.781238">
<ele>2727.408903</ele>
<time>2014-08-18T23:50:51Z</time>
<desc><![CDATA[lat.=36.773111, lon.=137.781238, Alt.=2727.408903m. Speed=4.000000m/h.]]></desc>
</trkpt>
<trkpt lat="36.773150" lon="137.781295">
<ele>2728.298678</ele>
<time>2014-08-18T23:50:56Z</time>
<desc><![CDATA[lat.=36.773150, lon.=137.781295, Alt.=2728.298678m. Speed=5.000000m/h.]]></desc>
</trkpt>
<trkpt lat="36.773178" lon="137.781343">
<ele>2729.128060</ele>
<time>2014-08-18T23:51:01Z</time>
<desc><![CDATA[lat.=36.773178, lon.=137.781343, Alt.=2729.128060m. Speed=4.000000m/h.]]></desc>
</trkpt>
<trkpt lat="36.773206" lon="137.781391">
<ele>2729.957448</ele>
<time>2014-08-18T23:51:06Z</time>
<desc><![CDATA[lat.=36.773206, lon.=137.781391, Alt.=2729.957448m. Speed=4.000000m/h.]]></desc>
</trkpt>
<trkpt lat="36.773203" lon="137.781384">
<ele>2728.765580</ele>
<time>2014-08-18T23:51:11Z</time>
<desc><![CDATA[lat.=36.773203, lon.=137.781384, Alt.=2728.765580m. Speed=0.000000m/h.]]></desc>
</trkpt>
<trkpt lat="36.773210" lon="137.781384">
<ele>2729.364229</ele>
<time>2014-08-18T23:51:16Z</time>
<desc><![CDATA[lat.=36.773210, lon.=137.781384, Alt.=2729.364229m. Speed=0.000000m/h.]]></desc>
</trkpt>
<trkpt lat="36.773206" lon="137.781391">
<ele>2729.957448</ele>
<time>2014-08-18T23:51:21Z</time>
<desc><![CDATA[lat.=36.773206, lon.=137.781391, Alt.=2729.957448m. Speed=0.000000m/h.]]></desc>
</trkpt>
<trkpt lat="36.773202" lon="137.781399">
<ele>2730.550666</ele>
<time>2014-08-18T23:51:26Z</time>
<desc><![CDATA[lat.=36.773202, lon.=137.781399, Alt.=2730.550666m. Speed=1.000000m/h.]]></desc>
</trkpt>
<trkpt lat="36.773224" lon="137.781415">
<ele>2730.671467</ele>
<time>2014-08-18T23:51:31Z</time>
<desc><![CDATA[lat.=36.773224, lon.=137.781415, Alt.=2730.671467m. Speed=2.000000m/h.]]></desc>
</trkpt>
<trkpt lat="36.773231" lon="137.781432">
<ele>2727.864856</ele>
<time>2014-08-18T23:51:36Z</time>
<desc><![CDATA[lat.=36.773231, lon.=137.781432, Alt.=2727.864856m. Speed=1.000000m/h.]]></desc>
</trkpt>
<trkpt lat="36.773212" lon="137.781472">
<ele>2727.370717</ele>
<time>2014-08-18T23:51:41Z</time>
<desc><![CDATA[lat.=36.773212, lon.=137.781472, Alt.=2727.370717m. Speed=2.000000m/h.]]></desc>
</trkpt>
<trkpt lat="36.773201" lon="137.781497">
<ele>2723.960027</ele>
<time>2014-08-18T23:51:46Z</time>
<desc><![CDATA[lat.=36.773201, lon.=137.781497, Alt.=2723.960027m. Speed=2.000000m/h.]]></desc>
</trkpt>
<trkpt lat="36.773179" lon="137.781528">
<ele>2722.274025</ele>
<time>2014-08-18T23:51:51Z</time>
<desc><![CDATA[lat.=36.773179, lon.=137.781528, Alt.=2722.274025m. Speed=2.000000m/h.]]></desc>
</trkpt>
<trkpt lat="36.773201" lon="137.781545">
<ele>2722.394828</ele>
<time>2014-08-18T23:51:56Z</time>
<desc><![CDATA[lat.=36.773201, lon.=137.781545, Alt.=2722.394828m. Speed=1.000000m/h.]]></desc>
</trkpt>
<trkpt lat="36.773197" lon="137.781536">
<ele>2722.933075</ele>
<time>2014-08-18T23:52:01Z</time>
<desc><![CDATA[lat.=36.773197, lon.=137.781536, Alt.=2722.933075m. Speed=0.000000m/h.]]></desc>
</trkpt>
<trkpt lat="36.773194" lon="137.781529">
<ele>2721.741206</ele>
<time>2014-08-18T23:52:06Z</time>
<desc><![CDATA[lat.=36.773194, lon.=137.781529, Alt.=2721.741206m. Speed=0.000000m/h.]]></desc>
</trkpt>
<trkpt lat="36.773187" lon="137.781529">
<ele>2721.142558</ele>
<time>2014-08-18T23:52:11Z</time>
<desc><![CDATA[lat.=36.773187, lon.=137.781529, Alt.=2721.142558m. Speed=0.000000m/h.]]></desc>
</trkpt>
<trkpt lat="36.773183" lon="137.781536">
<ele>2721.735777</ele>
<time>2014-08-18T23:52:16Z</time>
<desc><![CDATA[lat.=36.773183, lon.=137.781536, Alt.=2721.735777m. Speed=2.000000m/h.]]></desc>
</trkpt>
<trkpt lat="36.773175" lon="137.781568">
<ele>2721.247074</ele>
<time>2014-08-18T23:52:21Z</time>
<desc><![CDATA[lat.=36.773175, lon.=137.781568, Alt.=2721.247074m. Speed=2.000000m/h.]]></desc>
</trkpt>
<trkpt lat="36.773149" lon="137.781591">
<ele>2720.099322</ele>
<time>2014-08-18T23:52:26Z</time>
<desc><![CDATA[lat.=36.773149, lon.=137.781591, Alt.=2720.099322m. Speed=2.000000m/h.]]></desc>
</trkpt>
<trkpt lat="36.773140" lon="137.781622">
<ele>2721.340738</ele>
<time>2014-08-18T23:52:31Z</time>
<desc><![CDATA[lat.=36.773140, lon.=137.781622, Alt.=2721.340738m. Speed=2.000000m/h.]]></desc>
</trkpt>
<trkpt lat="36.773133" lon="137.781655">
<ele>2719.121923</ele>
<time>2014-08-18T23:52:36Z</time>
<desc><![CDATA[lat.=36.773133, lon.=137.781655, Alt.=2719.121923m. Speed=2.000000m/h.]]></desc>
</trkpt>
<trkpt lat="36.773118" lon="137.781687">
<ele>2716.304462</ele>
<time>2014-08-18T23:52:41Z</time>
<desc><![CDATA[lat.=36.773118, lon.=137.781687, Alt.=2716.304462m. Speed=2.000000m/h.]]></desc>
</trkpt>
<trkpt lat="36.773125" lon="137.781686">
<ele>2718.633225</ele>
<time>2014-08-18T23:52:46Z</time>
<desc><![CDATA[lat.=36.773125, lon.=137.781686, Alt.=2718.633225m. Speed=0.000000m/h.]]></desc>
</trkpt>
<trkpt lat="36.773122" lon="137.781679">
<ele>2717.441356</ele>
<time>2014-08-18T23:52:51Z</time>
<desc><![CDATA[lat.=36.773122, lon.=137.781679, Alt.=2717.441356m. Speed=0.000000m/h.]]></desc>
</trkpt>
<trkpt lat="36.773129" lon="137.781680">
<ele>2716.309888</ele>
<time>2014-08-18T23:52:56Z</time>
<desc><![CDATA[lat.=36.773129, lon.=137.781680, Alt.=2716.309888m. Speed=0.000000m/h.]]></desc>
</trkpt>
<trkpt lat="36.773133" lon="137.781672">
<ele>2715.716667</ele>
<time>2014-08-18T23:53:01Z</time>
<desc><![CDATA[lat.=36.773133, lon.=137.781672, Alt.=2715.716667m. Speed=0.000000m/h.]]></desc>
</trkpt>
<trkpt lat="36.773140" lon="137.781672">
<ele>2716.315315</ele>
<time>2014-08-18T23:53:06Z</time>
<desc><![CDATA[lat.=36.773140, lon.=137.781672, Alt.=2716.315315m. Speed=0.000000m/h.]]></desc>
</trkpt>
<trkpt lat="36.773136" lon="137.781680">
<ele>2716.908536</ele>
<time>2014-08-18T23:53:19Z</time>
<desc><![CDATA[lat.=36.773136, lon.=137.781680, Alt.=2716.908536m. Speed=0.000000m/h.]]></desc>
</trkpt>
<trkpt lat="36.773132" lon="137.781687">
<ele>2717.501758</ele>
<time>2014-08-18T23:53:28Z</time>
<desc><![CDATA[lat.=36.773132, lon.=137.781687, Alt.=2717.501758m. Speed=1.000000m/h.]]></desc>
</trkpt>
<trkpt lat="36.773113" lon="137.781742">
<ele>2717.062612</ele>
<time>2014-08-18T23:53:33Z</time>
<desc><![CDATA[lat.=36.773113, lon.=137.781742, Alt.=2717.062612m. Speed=2.000000m/h.]]></desc>
</trkpt>
<trkpt lat="36.773094" lon="137.781782">
<ele>2714.838378</ele>
<time>2014-08-18T23:53:38Z</time>
<desc><![CDATA[lat.=36.773094, lon.=137.781782, Alt.=2714.838378m. Speed=3.000000m/h.]]></desc>
</trkpt>
<trkpt lat="36.773119" lon="137.781806">
<ele>2716.151053</ele>
<time>2014-08-18T23:53:43Z</time>
<desc><![CDATA[lat.=36.773119, lon.=137.781806, Alt.=2716.151053m. Speed=0.000000m/h.]]></desc>
</trkpt>
<trkpt lat="36.773115" lon="137.781814">
<ele>2715.014160</ele>
<time>2014-08-18T23:53:48Z</time>
<desc><![CDATA[lat.=36.773115, lon.=137.781814, Alt.=2715.014160m. Speed=0.000000m/h.]]></desc>
</trkpt>
<trkpt lat="36.773127" lon="137.781807">
<ele>2715.019586</ele>
<time>2014-08-18T23:53:53Z</time>
<desc><![CDATA[lat.=36.773127, lon.=137.781807, Alt.=2715.019586m. Speed=1.000000m/h.]]></desc>
</trkpt>
<trkpt lat="36.773159" lon="137.781832">
<ele>2715.200796</ele>
<time>2014-08-18T23:53:58Z</time>
<desc><![CDATA[lat.=36.773159, lon.=137.781832, Alt.=2715.200796m. Speed=3.000000m/h.]]></desc>
</trkpt>
<trkpt lat="36.773158" lon="137.781879">
<ele>2715.365733</ele>
<time>2014-08-18T23:54:03Z</time>
<desc><![CDATA[lat.=36.773158, lon.=137.781879, Alt.=2715.365733m. Speed=3.000000m/h.]]></desc>
</trkpt>
<trkpt lat="36.773142" lon="137.781926">
<ele>2716.063491</ele>
<time>2014-08-18T23:54:08Z</time>
<desc><![CDATA[lat.=36.773142, lon.=137.781926, Alt.=2716.063491m. Speed=2.000000m/h.]]></desc>
</trkpt>
<trkpt lat="36.773141" lon="137.781957">
<ele>2716.173452</ele>
<time>2014-08-18T23:54:13Z</time>
<desc><![CDATA[lat.=36.773141, lon.=137.781957, Alt.=2716.173452m. Speed=2.000000m/h.]]></desc>
</trkpt>
<trkpt lat="36.773174" lon="137.781983">
<ele>2714.624553</ele>
<time>2014-08-18T23:54:18Z</time>
<desc><![CDATA[lat.=36.773174, lon.=137.781983, Alt.=2714.624553m. Speed=3.000000m/h.]]></desc>
</trkpt>
<trkpt lat="36.773215" lon="137.782010">
<ele>2711.944191</ele>
<time>2014-08-18T23:54:23Z</time>
<desc><![CDATA[lat.=36.773215, lon.=137.782010, Alt.=2711.944191m. Speed=3.000000m/h.]]></desc>
</trkpt>
<trkpt lat="36.773215" lon="137.782059">
<ele>2708.648908</ele>
<time>2014-08-18T23:54:28Z</time>
<desc><![CDATA[lat.=36.773215, lon.=137.782059, Alt.=2708.648908m. Speed=3.000000m/h.]]></desc>
</trkpt>
<trkpt lat="36.773199" lon="137.782106">
<ele>2707.616559</ele>
<time>2014-08-18T23:54:33Z</time>
<desc><![CDATA[lat.=36.773199, lon.=137.782106, Alt.=2707.616559m. Speed=3.000000m/h.]]></desc>
</trkpt>
<trkpt lat="36.773209" lon="137.782146">
<ele>2707.786936</ele>
<time>2014-08-18T23:54:38Z</time>
<desc><![CDATA[lat.=36.773209, lon.=137.782146, Alt.=2707.786936m. Speed=3.000000m/h.]]></desc>
</trkpt>
<trkpt lat="36.773217" lon="137.782163">
<ele>2704.980339</ele>
<time>2014-08-18T23:54:43Z</time>
<desc><![CDATA[lat.=36.773217, lon.=137.782163, Alt.=2704.980339m. Speed=3.000000m/h.]]></desc>
</trkpt>
<trkpt lat="36.773231" lon="137.782196">
<ele>2704.557493</ele>
<time>2014-08-18T23:54:48Z</time>
<desc><![CDATA[lat.=36.773231, lon.=137.782196, Alt.=2704.557493m. Speed=3.000000m/h.]]></desc>
</trkpt>
<trkpt lat="36.773216" lon="137.782227">
<ele>2703.470166</ele>
<time>2014-08-18T23:54:53Z</time>
<desc><![CDATA[lat.=36.773216, lon.=137.782227, Alt.=2703.470166m. Speed=2.000000m/h.]]></desc>
</trkpt>
<trkpt lat="36.773197" lon="137.782251">
<ele>2702.921081</ele>
<time>2014-08-18T23:54:58Z</time>
<desc><![CDATA[lat.=36.773197, lon.=137.782251, Alt.=2702.921081m. Speed=2.000000m/h.]]></desc>
</trkpt>
<trkpt lat="36.773219" lon="137.782284">
<ele>2701.366772</ele>
<time>2014-08-18T23:55:03Z</time>
<desc><![CDATA[lat.=36.773219, lon.=137.782284, Alt.=2701.366772m. Speed=2.000000m/h.]]></desc>
</trkpt>
<trkpt lat="36.773251" lon="137.782309">
<ele>2699.817888</ele>
<time>2014-08-18T23:55:08Z</time>
<desc><![CDATA[lat.=36.773251, lon.=137.782309, Alt.=2699.817888m. Speed=3.000000m/h.]]></desc>
</trkpt>
<trkpt lat="36.773266" lon="137.782343">
<ele>2697.664934</ele>
<time>2014-08-18T23:55:13Z</time>
<desc><![CDATA[lat.=36.773266, lon.=137.782343, Alt.=2697.664934m. Speed=3.000000m/h.]]></desc>
</trkpt>
<trkpt lat="36.773295" lon="137.782392">
<ele>2696.764272</ele>
<time>2014-08-18T23:55:18Z</time>
<desc><![CDATA[lat.=36.773295, lon.=137.782392, Alt.=2696.764272m. Speed=3.000000m/h.]]></desc>
</trkpt>
<trkpt lat="36.773313" lon="137.782416">
<ele>2695.748210</ele>
<time>2014-08-18T23:55:23Z</time>
<desc><![CDATA[lat.=36.773313, lon.=137.782416, Alt.=2695.748210m. Speed=3.000000m/h.]]></desc>
</trkpt>
<trkpt lat="36.773353" lon="137.782426">
<ele>2694.742998</ele>
<time>2014-08-18T23:55:28Z</time>
<desc><![CDATA[lat.=36.773353, lon.=137.782426, Alt.=2694.742998m. Speed=3.000000m/h.]]></desc>
</trkpt>
<trkpt lat="36.773368" lon="137.782427">
<ele>2694.210186</ele>
<time>2014-08-18T23:55:33Z</time>
<desc><![CDATA[lat.=36.773368, lon.=137.782427, Alt.=2694.210186m. Speed=2.000000m/h.]]></desc>
</trkpt>
<trkpt lat="36.773379" lon="137.782435">
<ele>2694.270600</ele>
<time>2014-08-18T23:55:38Z</time>
<desc><![CDATA[lat.=36.773379, lon.=137.782435, Alt.=2694.270600m. Speed=1.000000m/h.]]></desc>
</trkpt>
<trkpt lat="36.773386" lon="137.782451">
<ele>2694.924242</ele>
<time>2014-08-18T23:55:43Z</time>
<desc><![CDATA[lat.=36.773386, lon.=137.782451, Alt.=2694.924242m. Speed=0.000000m/h.]]></desc>
</trkpt>
<trkpt lat="36.773393" lon="137.782451">
<ele>2695.522894</ele>
<time>2014-08-18T23:55:50Z</time>
<desc><![CDATA[lat.=36.773393, lon.=137.782451, Alt.=2695.522894m. Speed=0.000000m/h.]]></desc>
</trkpt>
<trkpt lat="36.773392" lon="137.782467">
<ele>2695.577884</ele>
<time>2014-08-18T23:55:56Z</time>
<desc><![CDATA[lat.=36.773392, lon.=137.782467, Alt.=2695.577884m. Speed=2.000000m/h.]]></desc>
</trkpt>
<trkpt lat="36.773407" lon="137.782484">
<ele>2695.100064</ele>
<time>2014-08-18T23:56:01Z</time>
<desc><![CDATA[lat.=36.773407, lon.=137.782484, Alt.=2695.100064m. Speed=2.000000m/h.]]></desc>
</trkpt>
<trkpt lat="36.773429" lon="137.782517">
<ele>2693.545774</ele>
<time>2014-08-18T23:56:06Z</time>
<desc><![CDATA[lat.=36.773429, lon.=137.782517, Alt.=2693.545774m. Speed=2.000000m/h.]]></desc>
</trkpt>
<trkpt lat="36.773432" lon="137.782541">
<ele>2693.062531</ele>
<time>2014-08-18T23:56:11Z</time>
<desc><![CDATA[lat.=36.773432, lon.=137.782541, Alt.=2693.062531m. Speed=2.000000m/h.]]></desc>
</trkpt>
<trkpt lat="36.773431" lon="137.782540">
<ele>2694.792645</ele>
<time>2014-08-18T23:56:16Z</time>
<desc><![CDATA[lat.=36.773431, lon.=137.782540, Alt.=2694.792645m. Speed=0.000000m/h.]]></desc>
</trkpt>
<trkpt lat="36.773424" lon="137.782539">
<ele>2695.924107</ele>
<time>2014-08-18T23:56:21Z</time>
<desc><![CDATA[lat.=36.773424, lon.=137.782539, Alt.=2695.924107m. Speed=0.000000m/h.]]></desc>
</trkpt>
<trkpt lat="36.773428" lon="137.782532">
<ele>2695.330880</ele>
<time>2014-08-18T23:56:27Z</time>
<desc><![CDATA[lat.=36.773428, lon.=137.782532, Alt.=2695.330880m. Speed=0.000000m/h.]]></desc>
</trkpt>
<trkpt lat="36.773424" lon="137.782539">
<ele>2695.924107</ele>
<time>2014-08-18T23:56:32Z</time>
<desc><![CDATA[lat.=36.773424, lon.=137.782539, Alt.=2695.924107m. Speed=0.000000m/h.]]></desc>
</trkpt>
<trkpt lat="36.773420" lon="137.782547">
<ele>2696.517335</ele>
<time>2014-08-18T23:56:37Z</time>
<desc><![CDATA[lat.=36.773420, lon.=137.782547, Alt.=2696.517335m. Speed=0.000000m/h.]]></desc>
</trkpt>
<trkpt lat="36.773427" lon="137.782531">
<ele>2697.060995</ele>
<time>2014-08-18T23:56:42Z</time>
<desc><![CDATA[lat.=36.773427, lon.=137.782531, Alt.=2697.060995m. Speed=1.000000m/h.]]></desc>
</trkpt>
<trkpt lat="36.773439" lon="137.782540">
<ele>2695.391297</ele>
<time>2014-08-18T23:56:47Z</time>
<desc><![CDATA[lat.=36.773439, lon.=137.782540, Alt.=2695.391297m. Speed=2.000000m/h.]]></desc>
</trkpt>
<trkpt lat="36.773446" lon="137.782573">
<ele>2692.639706</ele>
<time>2014-08-18T23:56:52Z</time>
<desc><![CDATA[lat.=36.773446, lon.=137.782573, Alt.=2692.639706m. Speed=2.000000m/h.]]></desc>
</trkpt>
<trkpt lat="36.773468" lon="137.782606">
<ele>2691.085421</ele>
<time>2014-08-18T23:56:57Z</time>
<desc><![CDATA[lat.=36.773468, lon.=137.782606, Alt.=2691.085421m. Speed=2.000000m/h.]]></desc>
</trkpt>
<trkpt lat="36.773482" lon="137.782655">
<ele>2688.987479</ele>
<time>2014-08-18T23:57:02Z</time>
<desc><![CDATA[lat.=36.773482, lon.=137.782655, Alt.=2688.987479m. Speed=3.000000m/h.]]></desc>
</trkpt>
<trkpt lat="36.773489" lon="137.782688">
<ele>2687.966007</ele>
<time>2014-08-18T23:57:07Z</time>
<desc><![CDATA[lat.=36.773489, lon.=137.782688, Alt.=2687.966007m. Speed=2.000000m/h.]]></desc>
</trkpt>
<trkpt lat="36.773507" lon="137.782729">
<ele>2685.274843</ele>
<time>2014-08-18T23:57:12Z</time>
<desc><![CDATA[lat.=36.773507, lon.=137.782729, Alt.=2685.274843m. Speed=3.000000m/h.]]></desc>
</trkpt>
<trkpt lat="36.773529" lon="137.782762">
<ele>2683.720567</ele>
<time>2014-08-18T23:57:17Z</time>
<desc><![CDATA[lat.=36.773529, lon.=137.782762, Alt.=2683.720567m. Speed=3.000000m/h.]]></desc>
</trkpt>
<trkpt lat="36.773558" lon="137.782780">
<ele>2682.709950</ele>
<time>2014-08-18T23:57:22Z</time>
<desc><![CDATA[lat.=36.773558, lon.=137.782780, Alt.=2682.709950m. Speed=3.000000m/h.]]></desc>
</trkpt>
<trkpt lat="36.773595" lon="137.782766">
<ele>2682.187997</ele>
<time>2014-08-18T23:57:27Z</time>
<desc><![CDATA[lat.=36.773595, lon.=137.782766, Alt.=2682.187997m. Speed=3.000000m/h.]]></desc>
</trkpt>
<trkpt lat="36.773628" lon="137.782759">
<ele>2682.259274</ele>
<time>2014-08-18T23:57:32Z</time>
<desc><![CDATA[lat.=36.773628, lon.=137.782759, Alt.=2682.259274m. Speed=3.000000m/h.]]></desc>
</trkpt>
<trkpt lat="36.773659" lon="137.782729">
<ele>2681.083674</ele>
<time>2014-08-18T23:57:37Z</time>
<desc><![CDATA[lat.=36.773659, lon.=137.782729, Alt.=2681.083674m. Speed=3.000000m/h.]]></desc>
</trkpt>
<trkpt lat="36.773696" lon="137.782682">
<ele>2682.181853</ele>
<time>2014-08-18T23:57:42Z</time>
<desc><![CDATA[lat.=36.773696, lon.=137.782682, Alt.=2682.181853m. Speed=3.000000m/h.]]></desc>
</trkpt>
<trkpt lat="36.773719" lon="137.782668">
<ele>2680.462598</ele>
<time>2014-08-18T23:57:47Z</time>
<desc><![CDATA[lat.=36.773719, lon.=137.782668, Alt.=2680.462598m. Speed=3.000000m/h.]]></desc>
</trkpt>
<trkpt lat="36.773724" lon="137.782662">
<ele>2676.409144</ele>
<time>2014-08-18T23:57:52Z</time>
<desc><![CDATA[lat.=36.773724, lon.=137.782662, Alt.=2676.409144m. Speed=2.000000m/h.]]></desc>
</trkpt>
<trkpt lat="36.773724" lon="137.782678">
<ele>2674.734024</ele>
<time>2014-08-18T23:57:57Z</time>
<desc><![CDATA[lat.=36.773724, lon.=137.782678, Alt.=2674.734024m. Speed=1.000000m/h.]]></desc>
</trkpt>
<trkpt lat="36.773720" lon="137.782718">
<ele>2673.707126</ele>
<time>2014-08-18T23:58:02Z</time>
<desc><![CDATA[lat.=36.773720, lon.=137.782718, Alt.=2673.707126m. Speed=3.000000m/h.]]></desc>
</trkpt>
<trkpt lat="36.773715" lon="137.782774">
<ele>2672.735227</ele>
<time>2014-08-18T23:58:07Z</time>
<desc><![CDATA[lat.=36.773715, lon.=137.782774, Alt.=2672.735227m. Speed=3.000000m/h.]]></desc>
</trkpt>
<trkpt lat="36.773747" lon="137.782799">
<ele>2672.916505</ele>
<time>2014-08-18T23:58:12Z</time>
<desc><![CDATA[lat.=36.773747, lon.=137.782799, Alt.=2672.916505m. Speed=3.000000m/h.]]></desc>
</trkpt>
<trkpt lat="36.773728" lon="137.782821">
<ele>2674.097531</ele>
<time>2014-08-18T23:58:17Z</time>
<desc><![CDATA[lat.=36.773728, lon.=137.782821, Alt.=2674.097531m. Speed=3.000000m/h.]]></desc>
</trkpt>
<trkpt lat="36.773743" lon="137.782855">
<ele>2670.214497</ele>
<time>2014-08-18T23:58:22Z</time>
<desc><![CDATA[lat.=36.773743, lon.=137.782855, Alt.=2670.214497m. Speed=3.000000m/h.]]></desc>
</trkpt>
<trkpt lat="36.773750" lon="137.782889">
<ele>2667.462923</ele>
<time>2014-08-18T23:58:27Z</time>
<desc><![CDATA[lat.=36.773750, lon.=137.782889, Alt.=2667.462923m. Speed=3.000000m/h.]]></desc>
</trkpt>
<trkpt lat="36.773761" lon="137.782929">
<ele>2665.903235</ele>
<time>2014-08-18T23:58:32Z</time>
<desc><![CDATA[lat.=36.773761, lon.=137.782929, Alt.=2665.903235m. Speed=3.000000m/h.]]></desc>
</trkpt>
<trkpt lat="36.773771" lon="137.782969">
<ele>2666.073664</ele>
<time>2014-08-18T23:58:37Z</time>
<desc><![CDATA[lat.=36.773771, lon.=137.782969, Alt.=2666.073664m. Speed=3.000000m/h.]]></desc>
</trkpt>
<trkpt lat="36.773807" lon="137.783002">
<ele>2665.716723</ele>
<time>2014-08-18T23:58:42Z</time>
<desc><![CDATA[lat.=36.773807, lon.=137.783002, Alt.=2665.716723m. Speed=3.000000m/h.]]></desc>
</trkpt>
<trkpt lat="36.773802" lon="137.783041">
<ele>2668.150069</ele>
<time>2014-08-18T23:58:47Z</time>
<desc><![CDATA[lat.=36.773802, lon.=137.783041, Alt.=2668.150069m. Speed=3.000000m/h.]]></desc>
</trkpt>
<trkpt lat="36.773798" lon="137.783065">
<ele>2667.068186</ele>
<time>2014-08-18T23:58:52Z</time>
<desc><![CDATA[lat.=36.773798, lon.=137.783065, Alt.=2667.068186m. Speed=2.000000m/h.]]></desc>
</trkpt>
<trkpt lat="36.773831" lon="137.783075">
<ele>2665.464362</ele>
<time>2014-08-18T23:58:57Z</time>
<desc><![CDATA[lat.=36.773831, lon.=137.783075, Alt.=2665.464362m. Speed=2.000000m/h.]]></desc>
</trkpt>
<trkpt lat="36.773841" lon="137.783115">
<ele>2665.634799</ele>
<time>2014-08-18T23:59:02Z</time>
<desc><![CDATA[lat.=36.773841, lon.=137.783115, Alt.=2665.634799m. Speed=3.000000m/h.]]></desc>
</trkpt>
<trkpt lat="36.773856" lon="137.783148">
<ele>2663.481895</ele>
<time>2014-08-18T23:59:07Z</time>
<desc><![CDATA[lat.=36.773856, lon.=137.783148, Alt.=2663.481895m. Speed=3.000000m/h.]]></desc>
</trkpt>
<trkpt lat="36.773892" lon="137.783181">
<ele>2663.124968</ele>
<time>2014-08-18T23:59:12Z</time>
<desc><![CDATA[lat.=36.773892, lon.=137.783181, Alt.=2663.124968m. Speed=3.000000m/h.]]></desc>
</trkpt>
<trkpt lat="36.773900" lon="137.783182">
<ele>2660.263400</ele>
<time>2014-08-18T23:59:17Z</time>
<desc><![CDATA[lat.=36.773900, lon.=137.783182, Alt.=2660.263400m. Speed=2.000000m/h.]]></desc>
</trkpt>
<trkpt lat="36.773903" lon="137.783190">
<ele>2661.455288</ele>
<time>2014-08-18T23:59:22Z</time>
<desc><![CDATA[lat.=36.773903, lon.=137.783190, Alt.=2661.455288m. Speed=0.000000m/h.]]></desc>
</trkpt>
<trkpt lat="36.773892" lon="137.783181">
<ele>2663.124968</ele>
<time>2014-08-18T23:59:27Z</time>
<desc><![CDATA[lat.=36.773892, lon.=137.783181, Alt.=2663.124968m. Speed=0.000000m/h.]]></desc>
</trkpt>
<trkpt lat="36.773877" lon="137.783180">
<ele>2663.657765</ele>
<time>2014-08-18T23:59:32Z</time>
<desc><![CDATA[lat.=36.773877, lon.=137.783180, Alt.=2663.657765m. Speed=0.000000m/h.]]></desc>
</trkpt>
<trkpt lat="36.773874" lon="137.783173">
<ele>2662.465877</ele>
<time>2014-08-18T23:59:37Z</time>
<desc><![CDATA[lat.=36.773874, lon.=137.783173, Alt.=2662.465877m. Speed=0.000000m/h.]]></desc>
</trkpt>
<trkpt lat="36.773884" lon="137.783180">
<ele>2664.256423</ele>
<time>2014-08-18T23:59:42Z</time>
<desc><![CDATA[lat.=36.773884, lon.=137.783180, Alt.=2664.256423m. Speed=0.000000m/h.]]></desc>
</trkpt>
<trkpt lat="36.773888" lon="137.783173">
<ele>2663.663194</ele>
<time>2014-08-18T23:59:47Z</time>
<desc><![CDATA[lat.=36.773888, lon.=137.783173, Alt.=2663.663194m. Speed=0.000000m/h.]]></desc>
</trkpt>
<trkpt lat="36.773892" lon="137.783181">
<ele>2663.124968</ele>
<time>2014-08-18T23:59:53Z</time>
<desc><![CDATA[lat.=36.773892, lon.=137.783181, Alt.=2663.124968m. Speed=1.000000m/h.]]></desc>
</trkpt>
<trkpt lat="36.773917" lon="137.783222">
<ele>2662.762616</ele>
<time>2014-08-18T23:59:58Z</time>
<desc><![CDATA[lat.=36.773917, lon.=137.783222, Alt.=2662.762616m. Speed=3.000000m/h.]]></desc>
</trkpt>
<trkpt lat="36.773953" lon="137.783271">
<ele>2662.460703</ele>
<time>2014-08-19T00:00:03Z</time>
<desc><![CDATA[lat.=36.773953, lon.=137.783271, Alt.=2662.460703m. Speed=3.000000m/h.]]></desc>
</trkpt>
<trkpt lat="36.773981" lon="137.783320">
<ele>2661.560135</ele>
<time>2014-08-19T00:00:08Z</time>
<desc><![CDATA[lat.=36.773981, lon.=137.783320, Alt.=2661.560135m. Speed=3.000000m/h.]]></desc>
</trkpt>
<trkpt lat="36.774006" lon="137.783360">
<ele>2661.197794</ele>
<time>2014-08-19T00:00:13Z</time>
<desc><![CDATA[lat.=36.774006, lon.=137.783360, Alt.=2661.197794m. Speed=3.000000m/h.]]></desc>
</trkpt>
<trkpt lat="36.774016" lon="137.783400">
<ele>2661.368249</ele>
<time>2014-08-19T00:00:18Z</time>
<desc><![CDATA[lat.=36.774016, lon.=137.783400, Alt.=2661.368249m. Speed=3.000000m/h.]]></desc>
</trkpt>
<trkpt lat="36.774005" lon="137.783424">
<ele>2659.687715</ele>
<time>2014-08-19T00:00:23Z</time>
<desc><![CDATA[lat.=36.774005, lon.=137.783424, Alt.=2659.687715m. Speed=2.000000m/h.]]></desc>
</trkpt>
<trkpt lat="36.773997" lon="137.783439">
<ele>2662.604290</ele>
<time>2014-08-19T00:00:28Z</time>
<desc><![CDATA[lat.=36.773997, lon.=137.783439, Alt.=2662.604290m. Speed=2.000000m/h.]]></desc>
</trkpt>
<trkpt lat="36.774033" lon="137.783456">
<ele>2662.192376</ele>
<time>2014-08-19T00:00:33Z</time>
<desc><![CDATA[lat.=36.774033, lon.=137.783456, Alt.=2662.192376m. Speed=2.000000m/h.]]></desc>
</trkpt>
<trkpt lat="36.774059" lon="137.783482">
<ele>2660.044921</ele>
<time>2014-08-19T00:00:38Z</time>
<desc><![CDATA[lat.=36.774059, lon.=137.783482, Alt.=2660.044921m. Speed=3.000000m/h.]]></desc>
</trkpt>
<trkpt lat="36.774055" lon="137.783506">
<ele>2658.963049</ele>
<time>2014-08-19T00:00:43Z</time>
<desc><![CDATA[lat.=36.774055, lon.=137.783506, Alt.=2658.963049m. Speed=2.000000m/h.]]></desc>
</trkpt>
<trkpt lat="36.774088" lon="137.783531">
<ele>2657.414258</ele>
<time>2014-08-19T00:00:48Z</time>
<desc><![CDATA[lat.=36.774088, lon.=137.783531, Alt.=2657.414258m. Speed=3.000000m/h.]]></desc>
</trkpt>
<trkpt lat="36.774080" lon="137.783580">
<ele>2655.250519</ele>
<time>2014-08-19T00:00:53Z</time>
<desc><![CDATA[lat.=36.774080, lon.=137.783580, Alt.=2655.250519m. Speed=3.000000m/h.]]></desc>
</trkpt>
<trkpt lat="36.774102" lon="137.783613">
<ele>2653.696303</ele>
<time>2014-08-19T00:00:58Z</time>
<desc><![CDATA[lat.=36.774102, lon.=137.783613, Alt.=2653.696303m. Speed=3.000000m/h.]]></desc>
</trkpt>
<trkpt lat="36.774097" lon="137.783668">
<ele>2652.724462</ele>
<time>2014-08-19T00:01:03Z</time>
<desc><![CDATA[lat.=36.774097, lon.=137.783668, Alt.=2652.724462m. Speed=3.000000m/h.]]></desc>
</trkpt>
<trkpt lat="36.774111" lon="137.783717">
<ele>2652.356716</ele>
<time>2014-08-19T00:01:08Z</time>
<desc><![CDATA[lat.=36.774111, lon.=137.783717, Alt.=2652.356716m. Speed=3.000000m/h.]]></desc>
</trkpt>
<trkpt lat="36.774147" lon="137.783766">
<ele>2652.054846</ele>
<time>2014-08-19T00:01:13Z</time>
<desc><![CDATA[lat.=36.774147, lon.=137.783766, Alt.=2652.054846m. Speed=4.000000m/h.]]></desc>
</trkpt>
<trkpt lat="36.774175" lon="137.783815">
<ele>2651.154319</ele>
<time>2014-08-19T00:01:18Z</time>
<desc><![CDATA[lat.=36.774175, lon.=137.783815, Alt.=2651.154319m. Speed=4.000000m/h.]]></desc>
</trkpt>
<trkpt lat="36.774174" lon="137.783878">
<ele>2651.374389</ele>
<time>2014-08-19T00:01:23Z</time>
<desc><![CDATA[lat.=36.774174, lon.=137.783878, Alt.=2651.374389m. Speed=4.000000m/h.]]></desc>
</trkpt>
<trkpt lat="36.774158" lon="137.783925">
<ele>2650.342119</ele>
<time>2014-08-19T00:01:28Z</time>
<desc><![CDATA[lat.=36.774158, lon.=137.783925, Alt.=2650.342119m. Speed=4.000000m/h.]]></desc>
</trkpt>
<trkpt lat="36.774154" lon="137.783965">
<ele>2649.315280</ele>
<time>2014-08-19T00:01:33Z</time>
<desc><![CDATA[lat.=36.774154, lon.=137.783965, Alt.=2649.315280m. Speed=3.000000m/h.]]></desc>
</trkpt>
<trkpt lat="36.774164" lon="137.784005">
<ele>2649.485768</ele>
<time>2014-08-19T00:01:38Z</time>
<desc><![CDATA[lat.=36.774164, lon.=137.784005, Alt.=2649.485768m. Speed=3.000000m/h.]]></desc>
</trkpt>
<trkpt lat="36.774178" lon="137.784038">
<ele>2649.063022</ele>
<time>2014-08-19T00:01:43Z</time>
<desc><![CDATA[lat.=36.774178, lon.=137.784038, Alt.=2649.063022m. Speed=2.000000m/h.]]></desc>
</trkpt>
<trkpt lat="36.774196" lon="137.784062">
<ele>2649.777155</ele>
<time>2014-08-19T00:01:48Z</time>
<desc><![CDATA[lat.=36.774196, lon.=137.784062, Alt.=2649.777155m. Speed=2.000000m/h.]]></desc>
</trkpt>
<trkpt lat="36.774210" lon="137.784094">
<ele>2649.354412</ele>
<time>2014-08-19T00:01:53Z</time>
<desc><![CDATA[lat.=36.774210, lon.=137.784094, Alt.=2649.354412m. Speed=2.000000m/h.]]></desc>
</trkpt>
<trkpt lat="36.774224" lon="137.784111">
<ele>2648.876649</ele>
<time>2014-08-19T00:01:58Z</time>
<desc><![CDATA[lat.=36.774224, lon.=137.784111, Alt.=2648.876649m. Speed=2.000000m/h.]]></desc>
</trkpt>
<trkpt lat="36.774249" lon="137.784135">
<ele>2650.189449</ele>
<time>2014-08-19T00:02:03Z</time>
<desc><![CDATA[lat.=36.774249, lon.=137.784135, Alt.=2650.189449m. Speed=2.000000m/h.]]></desc>
</trkpt>
<trkpt lat="36.774282" lon="137.784160">
<ele>2650.370803</ele>
<time>2014-08-19T00:02:08Z</time>
<desc><![CDATA[lat.=36.774282, lon.=137.784160, Alt.=2650.370803m. Speed=3.000000m/h.]]></desc>
</trkpt>
<trkpt lat="36.774287" lon="137.784206">
<ele>2652.864651</ele>
<time>2014-08-19T00:02:13Z</time>
<desc><![CDATA[lat.=36.774287, lon.=137.784206, Alt.=2652.864651m. Speed=3.000000m/h.]]></desc>
</trkpt>
<trkpt lat="36.774264" lon="137.784252">
<ele>2654.693958</ele>
<time>2014-08-19T00:02:18Z</time>
<desc><![CDATA[lat.=36.774264, lon.=137.784252, Alt.=2654.693958m. Speed=3.000000m/h.]]></desc>
</trkpt>
<trkpt lat="36.774244" lon="137.784291">
<ele>2655.930031</ele>
<time>2014-08-19T00:02:23Z</time>
<desc><![CDATA[lat.=36.774244, lon.=137.784291, Alt.=2655.930031m. Speed=3.000000m/h.]]></desc>
</trkpt>
<trkpt lat="36.774280" lon="137.784340">
<ele>2653.898094</ele>
<time>2014-08-19T00:02:28Z</time>
<desc><![CDATA[lat.=36.774280, lon.=137.784340, Alt.=2653.898094m. Speed=3.000000m/h.]]></desc>
</trkpt>
<trkpt lat="36.774290" lon="137.784397">
<ele>2652.393519</ele>
<time>2014-08-19T00:02:33Z</time>
<desc><![CDATA[lat.=36.774290, lon.=137.784397, Alt.=2652.393519m. Speed=3.000000m/h.]]></desc>
</trkpt>
<trkpt lat="36.774305" lon="137.784429">
<ele>2651.970792</ele>
<time>2014-08-19T00:02:38Z</time>
<desc><![CDATA[lat.=36.774305, lon.=137.784429, Alt.=2651.970792m. Speed=3.000000m/h.]]></desc>
</trkpt>
<trkpt lat="36.774315" lon="137.784470">
<ele>2650.411194</ele>
<time>2014-08-19T00:02:43Z</time>
<desc><![CDATA[lat.=36.774315, lon.=137.784470, Alt.=2650.411194m. Speed=3.000000m/h.]]></desc>
</trkpt>
<trkpt lat="36.774325" lon="137.784510">
<ele>2650.581710</ele>
<time>2014-08-19T00:02:48Z</time>
<desc><![CDATA[lat.=36.774325, lon.=137.784510, Alt.=2650.581710m. Speed=3.000000m/h.]]></desc>
</trkpt>
<trkpt lat="36.774365" lon="137.784535">
<ele>2651.361746</ele>
<time>2014-08-19T00:02:53Z</time>
<desc><![CDATA[lat.=36.774365, lon.=137.784535, Alt.=2651.361746m. Speed=3.000000m/h.]]></desc>
</trkpt>
<trkpt lat="36.774375" lon="137.784559">
<ele>2651.477234</ele>
<time>2014-08-19T00:02:58Z</time>
<desc><![CDATA[lat.=36.774375, lon.=137.784559, Alt.=2651.477234m. Speed=2.000000m/h.]]></desc>
</trkpt>
<trkpt lat="36.774379" lon="137.784567">
<ele>2650.939027</ele>
<time>2014-08-19T00:03:03Z</time>
<desc><![CDATA[lat.=36.774379, lon.=137.784567, Alt.=2650.939027m. Speed=0.000000m/h.]]></desc>
</trkpt>
<trkpt lat="36.774393" lon="137.784584">
<ele>2650.461278</ele>
<time>2014-08-19T00:03:08Z</time>
<desc><![CDATA[lat.=36.774393, lon.=137.784584, Alt.=2650.461278m. Speed=2.000000m/h.]]></desc>
</trkpt>
<trkpt lat="36.774422" lon="137.784615">
<ele>2652.966006</ele>
<time>2014-08-19T00:03:13Z</time>
<desc><![CDATA[lat.=36.774422, lon.=137.784615, Alt.=2652.966006m. Speed=3.000000m/h.]]></desc>
</trkpt>
<trkpt lat="36.774442" lon="137.784664">
<ele>2653.196991</ele>
<time>2014-08-19T00:03:18Z</time>
<desc><![CDATA[lat.=36.774442, lon.=137.784664, Alt.=2653.196991m. Speed=3.000000m/h.]]></desc>
</trkpt>
<trkpt lat="36.774460" lon="137.784704">
<ele>2653.966186</ele>
<time>2014-08-19T00:03:23Z</time>
<desc><![CDATA[lat.=36.774460, lon.=137.784704, Alt.=2653.966186m. Speed=3.000000m/h.]]></desc>
</trkpt>
<trkpt lat="36.774488" lon="137.784753">
<ele>2653.065734</ele>
<time>2014-08-19T00:03:28Z</time>
<desc><![CDATA[lat.=36.774488, lon.=137.784753, Alt.=2653.065734m. Speed=3.000000m/h.]]></desc>
</trkpt>
<trkpt lat="36.774520" lon="137.784793">
<ele>2653.302157</ele>
<time>2014-08-19T00:03:33Z</time>
<desc><![CDATA[lat.=36.774520, lon.=137.784793, Alt.=2653.302157m. Speed=3.000000m/h.]]></desc>
</trkpt>
<trkpt lat="36.774557" lon="137.784826">
<ele>2652.945345</ele>
<time>2014-08-19T00:03:38Z</time>
<desc><![CDATA[lat.=36.774557, lon.=137.784826, Alt.=2652.945345m. Speed=3.000000m/h.]]></desc>
</trkpt>
<trkpt lat="36.774596" lon="137.784851">
<ele>2653.725409</ele>
<time>2014-08-19T00:03:43Z</time>
<desc><![CDATA[lat.=36.774596, lon.=137.784851, Alt.=2653.725409m. Speed=4.000000m/h.]]></desc>
</trkpt>
<trkpt lat="36.774640" lon="137.784869">
<ele>2652.182125</ele>
<time>2014-08-19T00:03:48Z</time>
<desc><![CDATA[lat.=36.774640, lon.=137.784869, Alt.=2652.182125m. Speed=4.000000m/h.]]></desc>
</trkpt>
<trkpt lat="36.774681" lon="137.784895">
<ele>2651.232084</ele>
<time>2014-08-19T00:03:53Z</time>
<desc><![CDATA[lat.=36.774681, lon.=137.784895, Alt.=2651.232084m. Speed=4.000000m/h.]]></desc>
</trkpt>
<trkpt lat="36.774714" lon="137.784921">
<ele>2649.683378</ele>
<time>2014-08-19T00:03:58Z</time>
<desc><![CDATA[lat.=36.774714, lon.=137.784921, Alt.=2649.683378m. Speed=3.000000m/h.]]></desc>
</trkpt>
<trkpt lat="36.774742" lon="137.784954">
<ele>2648.727914</ele>
<time>2014-08-19T00:04:03Z</time>
<desc><![CDATA[lat.=36.774742, lon.=137.784954, Alt.=2648.727914m. Speed=3.000000m/h.]]></desc>
</trkpt>
<trkpt lat="36.774776" lon="137.784964">
<ele>2647.124174</ele>
<time>2014-08-19T00:04:08Z</time>
<desc><![CDATA[lat.=36.774776, lon.=137.784964, Alt.=2647.124174m. Speed=3.000000m/h.]]></desc>
</trkpt>
<trkpt lat="36.774808" lon="137.784989">
<ele>2647.305587</ele>
<time>2014-08-19T00:04:13Z</time>
<desc><![CDATA[lat.=36.774808, lon.=137.784989, Alt.=2647.305587m. Speed=3.000000m/h.]]></desc>
</trkpt>
<trkpt lat="36.774826" lon="137.785013">
<ele>2646.289659</ele>
<time>2014-08-19T00:04:18Z</time>
<desc><![CDATA[lat.=36.774826, lon.=137.785013, Alt.=2646.289659m. Speed=3.000000m/h.]]></desc>
</trkpt>
<trkpt lat="36.774862" lon="137.785046">
<ele>2647.662988</ele>
<time>2014-08-19T00:04:23Z</time>
<desc><![CDATA[lat.=36.774862, lon.=137.785046, Alt.=2647.662988m. Speed=3.000000m/h.]]></desc>
</trkpt>
<trkpt lat="36.774899" lon="137.785064">
<ele>2645.521059</ele>
<time>2014-08-19T00:04:28Z</time>
<desc><![CDATA[lat.=36.774899, lon.=137.785064, Alt.=2645.521059m. Speed=3.000000m/h.]]></desc>
</trkpt>
<trkpt lat="36.774913" lon="137.785112">
<ele>2645.153418</ele>
<time>2014-08-19T00:04:33Z</time>
<desc><![CDATA[lat.=36.774913, lon.=137.785112, Alt.=2645.153418m. Speed=3.000000m/h.]]></desc>
</trkpt>
<trkpt lat="36.774926" lon="137.785160">
<ele>2646.515891</ele>
<time>2014-08-19T00:04:38Z</time>
<desc><![CDATA[lat.=36.774926, lon.=137.785160, Alt.=2646.515891m. Speed=3.000000m/h.]]></desc>
</trkpt>
<trkpt lat="36.774944" lon="137.785185">
<ele>2645.499972</ele>
<time>2014-08-19T00:04:43Z</time>
<desc><![CDATA[lat.=36.774944, lon.=137.785185, Alt.=2645.499972m. Speed=3.000000m/h.]]></desc>
</trkpt>
<trkpt lat="36.774965" lon="137.785234">
<ele>2644.000902</ele>
<time>2014-08-19T00:04:48Z</time>
<desc><![CDATA[lat.=36.774965, lon.=137.785234, Alt.=2644.000902m. Speed=3.000000m/h.]]></desc>
</trkpt>
<trkpt lat="36.774972" lon="137.785282">
<ele>2643.034599</ele>
<time>2014-08-19T00:04:53Z</time>
<desc><![CDATA[lat.=36.774972, lon.=137.785282, Alt.=2643.034599m. Speed=3.000000m/h.]]></desc>
</trkpt>
<trkpt lat="36.774968" lon="137.785306">
<ele>2641.952775</ele>
<time>2014-08-19T00:04:58Z</time>
<desc><![CDATA[lat.=36.774968, lon.=137.785306, Alt.=2641.952775m. Speed=2.000000m/h.]]></desc>
</trkpt>
<trkpt lat="36.774982" lon="137.785306">
<ele>2643.150123</ele>
<time>2014-08-19T00:05:03Z</time>
<desc><![CDATA[lat.=36.774982, lon.=137.785306, Alt.=2643.150123m. Speed=0.000000m/h.]]></desc>
</trkpt>
<trkpt lat="36.774990" lon="137.785306">
<ele>2643.748797</ele>
<time>2014-08-19T00:05:08Z</time>
<desc><![CDATA[lat.=36.774990, lon.=137.785306, Alt.=2643.748797m. Speed=0.000000m/h.]]></desc>
</trkpt>
<trkpt lat="36.775011" lon="137.785322">
<ele>2643.869754</ele>
<time>2014-08-19T00:05:13Z</time>
<desc><![CDATA[lat.=36.775011, lon.=137.785322, Alt.=2643.869754m. Speed=2.000000m/h.]]></desc>
</trkpt>
<trkpt lat="36.775041" lon="137.785356">
<ele>2641.184213</ele>
<time>2014-08-19T00:05:18Z</time>
<desc><![CDATA[lat.=36.775041, lon.=137.785356, Alt.=2641.184213m. Speed=2.000000m/h.]]></desc>
</trkpt>
<trkpt lat="36.775070" lon="137.785390">
<ele>2640.228786</ele>
<time>2014-08-19T00:05:23Z</time>
<desc><![CDATA[lat.=36.775070, lon.=137.785390, Alt.=2640.228786m. Speed=3.000000m/h.]]></desc>
</trkpt>
<trkpt lat="36.775091" lon="137.785422">
<ele>2640.404796</ele>
<time>2014-08-19T00:05:28Z</time>
<desc><![CDATA[lat.=36.775091, lon.=137.785422, Alt.=2640.404796m. Speed=3.000000m/h.]]></desc>
</trkpt>
<trkpt lat="36.775105" lon="137.785470">
<ele>2640.037182</ele>
<time>2014-08-19T00:05:33Z</time>
<desc><![CDATA[lat.=36.775105, lon.=137.785470, Alt.=2640.037182m. Speed=3.000000m/h.]]></desc>
</trkpt>
<trkpt lat="36.775107" lon="137.785509">
<ele>2641.339198</ele>
<time>2014-08-19T00:05:38Z</time>
<desc><![CDATA[lat.=36.775107, lon.=137.785509, Alt.=2641.339198m. Speed=3.000000m/h.]]></desc>
</trkpt>
<trkpt lat="36.775125" lon="137.785550">
<ele>2640.378347</ele>
<time>2014-08-19T00:05:43Z</time>
<desc><![CDATA[lat.=36.775125, lon.=137.785550, Alt.=2640.378347m. Speed=3.000000m/h.]]></desc>
</trkpt>
<trkpt lat="36.775168" lon="137.785583">
<ele>2640.620285</ele>
<time>2014-08-19T00:05:48Z</time>
<desc><![CDATA[lat.=36.775168, lon.=137.785583, Alt.=2640.620285m. Speed=3.000000m/h.]]></desc>
</trkpt>
<trkpt lat="36.775212" lon="137.785601">
<ele>2640.807176</ele>
<time>2014-08-19T00:05:53Z</time>
<desc><![CDATA[lat.=36.775212, lon.=137.785601, Alt.=2640.807176m. Speed=3.000000m/h.]]></desc>
</trkpt>
<trkpt lat="36.775248" lon="137.785634">
<ele>2640.450446</ele>
<time>2014-08-19T00:05:58Z</time>
<desc><![CDATA[lat.=36.775248, lon.=137.785634, Alt.=2640.450446m. Speed=4.000000m/h.]]></desc>
</trkpt>
<trkpt lat="36.775281" lon="137.785643">
<ele>2640.576857</ele>
<time>2014-08-19T00:06:03Z</time>
<desc><![CDATA[lat.=36.775281, lon.=137.785643, Alt.=2640.576857m. Speed=3.000000m/h.]]></desc>
</trkpt>
<trkpt lat="36.775310" lon="137.785676">
<ele>2639.621455</ele>
<time>2014-08-19T00:06:08Z</time>
<desc><![CDATA[lat.=36.775310, lon.=137.785676, Alt.=2639.621455m. Speed=3.000000m/h.]]></desc>
</trkpt>
<trkpt lat="36.775349" lon="137.785701">
<ele>2640.401602</ele>
<time>2014-08-19T00:06:13Z</time>
<desc><![CDATA[lat.=36.775349, lon.=137.785701, Alt.=2640.401602m. Speed=3.000000m/h.]]></desc>
</trkpt>
<trkpt lat="36.775374" lon="137.785725">
<ele>2641.714505</ele>
<time>2014-08-19T00:06:18Z</time>
<desc><![CDATA[lat.=36.775374, lon.=137.785725, Alt.=2641.714505m. Speed=3.000000m/h.]]></desc>
</trkpt>
<trkpt lat="36.775396" lon="137.785742">
<ele>2640.105377</ele>
<time>2014-08-19T00:06:23Z</time>
<desc><![CDATA[lat.=36.775396, lon.=137.785742, Alt.=2640.105377m. Speed=3.000000m/h.]]></desc>
</trkpt>
<trkpt lat="36.775423" lon="137.785736">
<ele>2637.847955</ele>
<time>2014-08-19T00:06:28Z</time>
<desc><![CDATA[lat.=36.775423, lon.=137.785736, Alt.=2637.847955m. Speed=2.000000m/h.]]></desc>
</trkpt>
<trkpt lat="36.775441" lon="137.785761">
<ele>2636.832072</ele>
<time>2014-08-19T00:06:33Z</time>
<desc><![CDATA[lat.=36.775441, lon.=137.785761, Alt.=2636.832072m. Speed=2.000000m/h.]]></desc>
</trkpt>
<trkpt lat="36.775466" lon="137.785802">
<ele>2636.469926</ele>
<time>2014-08-19T00:06:38Z</time>
<desc><![CDATA[lat.=36.775466, lon.=137.785802, Alt.=2636.469926m. Speed=3.000000m/h.]]></desc>
</trkpt>
<trkpt lat="36.775480" lon="137.785851">
<ele>2634.372234</ele>
<time>2014-08-19T00:06:43Z</time>
<desc><![CDATA[lat.=36.775480, lon.=137.785851, Alt.=2634.372234m. Speed=3.000000m/h.]]></desc>
</trkpt>
<trkpt lat="36.775479" lon="137.785898">
<ele>2636.267514</ele>
<time>2014-08-19T00:06:48Z</time>
<desc><![CDATA[lat.=36.775479, lon.=137.785898, Alt.=2636.267514m. Speed=3.000000m/h.]]></desc>
</trkpt>
<trkpt lat="36.775455" lon="137.785943">
<ele>2638.096863</ele>
<time>2014-08-19T00:06:53Z</time>
<desc><![CDATA[lat.=36.775455, lon.=137.785943, Alt.=2638.096863m. Speed=3.000000m/h.]]></desc>
</trkpt>
<trkpt lat="36.775442" lon="137.785929">
<ele>2633.384225</ele>
<time>2014-08-19T00:06:58Z</time>
<desc><![CDATA[lat.=36.775442, lon.=137.785929, Alt.=2633.384225m. Speed=0.000000m/h.]]></desc>
</trkpt>
<trkpt lat="36.775463" lon="137.785962">
<ele>2633.560273</ele>
<time>2014-08-19T00:07:03Z</time>
<desc><![CDATA[lat.=36.775463, lon.=137.785962, Alt.=2633.560273m. Speed=2.000000m/h.]]></desc>
</trkpt>
<trkpt lat="36.775477" lon="137.786011">
<ele>2631.462591</ele>
<time>2014-08-19T00:07:08Z</time>
<desc><![CDATA[lat.=36.775477, lon.=137.786011, Alt.=2631.462591m. Speed=3.000000m/h.]]></desc>
</trkpt>
<trkpt lat="36.775491" lon="137.786059">
<ele>2631.095023</ele>
<time>2014-08-19T00:07:13Z</time>
<desc><![CDATA[lat.=36.775491, lon.=137.786059, Alt.=2631.095023m. Speed=3.000000m/h.]]></desc>
</trkpt>
<trkpt lat="36.775512" lon="137.786091">
<ele>2631.271077</ele>
<time>2014-08-19T00:07:18Z</time>
<desc><![CDATA[lat.=36.775512, lon.=137.786091, Alt.=2631.271077m. Speed=2.000000m/h.]]></desc>
</trkpt>
<trkpt lat="36.775553" lon="137.786084">
<ele>2631.941132</ele>
<time>2014-08-19T00:07:23Z</time>
<desc><![CDATA[lat.=36.775553, lon.=137.786084, Alt.=2631.941132m. Speed=3.000000m/h.]]></desc>
</trkpt>
<trkpt lat="36.775563" lon="137.786124">
<ele>2632.111752</ele>
<time>2014-08-19T00:07:28Z</time>
<desc><![CDATA[lat.=36.775563, lon.=137.786124, Alt.=2632.111752m. Speed=3.000000m/h.]]></desc>
</trkpt>
<trkpt lat="36.775584" lon="137.786157">
<ele>2632.287813</ele>
<time>2014-08-19T00:07:33Z</time>
<desc><![CDATA[lat.=36.775584, lon.=137.786157, Alt.=2632.287813m. Speed=3.000000m/h.]]></desc>
</trkpt>
<trkpt lat="36.775594" lon="137.786196">
<ele>2634.188547</ele>
<time>2014-08-19T00:07:38Z</time>
<desc><![CDATA[lat.=36.775594, lon.=137.786196, Alt.=2634.188547m. Speed=3.000000m/h.]]></desc>
</trkpt>
<trkpt lat="36.775605" lon="137.786188">
<ele>2635.924094</ele>
<time>2014-08-19T00:07:43Z</time>
<desc><![CDATA[lat.=36.775605, lon.=137.786188, Alt.=2635.924094m. Speed=0.000000m/h.]]></desc>
</trkpt>
<trkpt lat="36.775597" lon="137.786188">
<ele>2635.325412</ele>
<time>2014-08-19T00:07:48Z</time>
<desc><![CDATA[lat.=36.775597, lon.=137.786188, Alt.=2635.325412m. Speed=0.000000m/h.]]></desc>
</trkpt>
<trkpt lat="36.775601" lon="137.786179">
<ele>2636.462276</ele>
<time>2014-08-19T00:07:53Z</time>
<desc><![CDATA[lat.=36.775601, lon.=137.786179, Alt.=2636.462276m. Speed=0.000000m/h.]]></desc>
</trkpt>
<trkpt lat="36.775597" lon="137.786187">
<ele>2637.055521</ele>
<time>2014-08-19T00:07:58Z</time>
<desc><![CDATA[lat.=36.775597, lon.=137.786187, Alt.=2637.055521m. Speed=0.000000m/h.]]></desc>
</trkpt>
<trkpt lat="36.775604" lon="137.786187">
<ele>2637.654204</ele>
<time>2014-08-19T00:08:04Z</time>
<desc><![CDATA[lat.=36.775604, lon.=137.786187, Alt.=2637.654204m. Speed=0.000000m/h.]]></desc>
</trkpt>
<trkpt lat="36.775601" lon="137.786179">
<ele>2638.192386</ele>
<time>2014-08-19T00:08:11Z</time>
<desc><![CDATA[lat.=36.775601, lon.=137.786179, Alt.=2638.192386m. Speed=0.000000m/h.]]></desc>
</trkpt>
<trkpt lat="36.775604" lon="137.786187">
<ele>2637.654204</ele>
<time>2014-08-19T00:08:16Z</time>
<desc><![CDATA[lat.=36.775604, lon.=137.786187, Alt.=2637.654204m. Speed=0.000000m/h.]]></desc>
</trkpt>
<trkpt lat="36.775619" lon="137.786203">
<ele>2637.176522</ele>
<time>2014-08-19T00:08:21Z</time>
<desc><![CDATA[lat.=36.775619, lon.=137.786203, Alt.=2637.176522m. Speed=2.000000m/h.]]></desc>
</trkpt>
<trkpt lat="36.775654" lon="137.786252">
<ele>2636.874909</ele>
<time>2014-08-19T00:08:26Z</time>
<desc><![CDATA[lat.=36.775654, lon.=137.786252, Alt.=2636.874909m. Speed=3.000000m/h.]]></desc>
</trkpt>
<trkpt lat="36.775687" lon="137.786278">
<ele>2635.326308</ele>
<time>2014-08-19T00:08:31Z</time>
<desc><![CDATA[lat.=36.775687, lon.=137.786278, Alt.=2635.326308m. Speed=3.000000m/h.]]></desc>
</trkpt>
<trkpt lat="36.775720" lon="137.786304">
<ele>2633.777710</ele>
<time>2014-08-19T00:08:36Z</time>
<desc><![CDATA[lat.=36.775720, lon.=137.786304, Alt.=2633.777710m. Speed=3.000000m/h.]]></desc>
</trkpt>
<trkpt lat="36.775735" lon="137.786304">
<ele>2634.975079</ele>
<time>2014-08-19T00:08:41Z</time>
<desc><![CDATA[lat.=36.775735, lon.=137.786304, Alt.=2634.975079m. Speed=0.000000m/h.]]></desc>
</trkpt>
<trkpt lat="36.775735" lon="137.786305">
<ele>2633.244970</ele>
<time>2014-08-19T00:08:46Z</time>
<desc><![CDATA[lat.=36.775735, lon.=137.786305, Alt.=2633.244970m. Speed=0.000000m/h.]]></desc>
</trkpt>
<trkpt lat="36.775712" lon="137.786335">
<ele>2635.019265</ele>
<time>2014-08-19T00:08:51Z</time>
<desc><![CDATA[lat.=36.775712, lon.=137.786335, Alt.=2635.019265m. Speed=0.000000m/h.]]></desc>
</trkpt>
<trkpt lat="36.775715" lon="137.786375">
<ele>2632.861109</ele>
<time>2014-08-19T00:08:56Z</time>
<desc><![CDATA[lat.=36.775715, lon.=137.786375, Alt.=2632.861109m. Speed=2.000000m/h.]]></desc>
</trkpt>
<trkpt lat="36.775715" lon="137.786408">
<ele>2631.241133</ele>
<time>2014-08-19T00:09:01Z</time>
<desc><![CDATA[lat.=36.775715, lon.=137.786408, Alt.=2631.241133m. Speed=2.000000m/h.]]></desc>
</trkpt>
<trkpt lat="36.775722" lon="137.786442">
<ele>2626.759624</ele>
<time>2014-08-19T00:09:06Z</time>
<desc><![CDATA[lat.=36.775722, lon.=137.786442, Alt.=2626.759624m. Speed=2.000000m/h.]]></desc>
</trkpt>
<trkpt lat="36.775745" lon="137.786459">
<ele>2625.150527</ele>
<time>2014-08-19T00:09:11Z</time>
<desc><![CDATA[lat.=36.775745, lon.=137.786459, Alt.=2625.150527m. Speed=2.000000m/h.]]></desc>
</trkpt>
<trkpt lat="36.775755" lon="137.786500">
<ele>2623.591061</ele>
<time>2014-08-19T00:09:16Z</time>
<desc><![CDATA[lat.=36.775755, lon.=137.786500, Alt.=2623.591061m. Speed=2.000000m/h.]]></desc>
</trkpt>
<trkpt lat="36.775763" lon="137.786517">
<ele>2620.784597</ele>
<time>2014-08-19T00:09:21Z</time>
<desc><![CDATA[lat.=36.775763, lon.=137.786517, Alt.=2620.784597m. Speed=2.000000m/h.]]></desc>
</trkpt>
<trkpt lat="36.775773" lon="137.786574">
<ele>2619.280205</ele>
<time>2014-08-19T00:09:26Z</time>
<desc><![CDATA[lat.=36.775773, lon.=137.786574, Alt.=2619.280205m. Speed=3.000000m/h.]]></desc>
</trkpt>
<trkpt lat="36.775779" lon="137.786622">
<ele>2618.313993</ele>
<time>2014-08-19T00:09:31Z</time>
<desc><![CDATA[lat.=36.775779, lon.=137.786622, Alt.=2618.313993m. Speed=3.000000m/h.]]></desc>
</trkpt>
<trkpt lat="36.775797" lon="137.786646">
<ele>2619.028258</ele>
<time>2014-08-19T00:09:36Z</time>
<desc><![CDATA[lat.=36.775797, lon.=137.786646, Alt.=2619.028258m. Speed=2.000000m/h.]]></desc>
</trkpt>
<trkpt lat="36.775826" lon="137.786647">
<ele>2619.692891</ele>
<time>2014-08-19T00:09:41Z</time>
<desc><![CDATA[lat.=36.775826, lon.=137.786647, Alt.=2619.692891m. Speed=2.000000m/h.]]></desc>
</trkpt>
<trkpt lat="36.775841" lon="137.786647">
<ele>2619.160154</ele>
<time>2014-08-19T00:09:46Z</time>
<desc><![CDATA[lat.=36.775841, lon.=137.786647, Alt.=2619.160154m. Speed=2.000000m/h.]]></desc>
</trkpt>
<trkpt lat="36.775866" lon="137.786688">
<ele>2618.798072</ele>
<time>2014-08-19T00:09:51Z</time>
<desc><![CDATA[lat.=36.775866, lon.=137.786688, Alt.=2618.798072m. Speed=3.000000m/h.]]></desc>
</trkpt>
<trkpt lat="36.775899" lon="137.786730">
<ele>2617.304572</ele>
<time>2014-08-19T00:09:56Z</time>
<desc><![CDATA[lat.=36.775899, lon.=137.786730, Alt.=2617.304572m. Speed=3.000000m/h.]]></desc>
</trkpt>
<trkpt lat="36.775923" lon="137.786786">
<ele>2616.997571</ele>
<time>2014-08-19T00:10:01Z</time>
<desc><![CDATA[lat.=36.775923, lon.=137.786786, Alt.=2616.997571m. Speed=3.000000m/h.]]></desc>
</trkpt>
<trkpt lat="36.775925" lon="137.786841">
<ele>2618.354730</ele>
<time>2014-08-19T00:10:06Z</time>
<desc><![CDATA[lat.=36.775925, lon.=137.786841, Alt.=2618.354730m. Speed=3.000000m/h.]]></desc>
</trkpt>
<trkpt lat="36.775939" lon="137.786889">
<ele>2617.987223</ele>
<time>2014-08-19T00:10:11Z</time>
<desc><![CDATA[lat.=36.775939, lon.=137.786889, Alt.=2617.987223m. Speed=4.000000m/h.]]></desc>
</trkpt>
<trkpt lat="36.775945" lon="137.786953">
<ele>2617.076110</ele>
<time>2014-08-19T00:10:16Z</time>
<desc><![CDATA[lat.=36.775945, lon.=137.786953, Alt.=2617.076110m. Speed=4.000000m/h.]]></desc>
</trkpt>
<trkpt lat="36.775959" lon="137.787002">
<ele>2616.708610</ele>
<time>2014-08-19T00:10:21Z</time>
<desc><![CDATA[lat.=36.775959, lon.=137.787002, Alt.=2616.708610m. Speed=4.000000m/h.]]></desc>
</trkpt>
<trkpt lat="36.775995" lon="137.787035">
<ele>2616.351990</ele>
<time>2014-08-19T00:10:26Z</time>
<desc><![CDATA[lat.=36.775995, lon.=137.787035, Alt.=2616.351990m. Speed=3.000000m/h.]]></desc>
</trkpt>
<trkpt lat="36.776027" lon="137.787060">
<ele>2616.533544</ele>
<time>2014-08-19T00:10:31Z</time>
<desc><![CDATA[lat.=36.776027, lon.=137.787060, Alt.=2616.533544m. Speed=3.000000m/h.]]></desc>
</trkpt>
<trkpt lat="36.776068" lon="137.787085">
<ele>2615.583682</ele>
<time>2014-08-19T00:10:36Z</time>
<desc><![CDATA[lat.=36.776068, lon.=137.787085, Alt.=2615.583682m. Speed=4.000000m/h.]]></desc>
</trkpt>
<trkpt lat="36.776107" lon="137.787110">
<ele>2616.363932</ele>
<time>2014-08-19T00:10:41Z</time>
<desc><![CDATA[lat.=36.776107, lon.=137.787110, Alt.=2616.363932m. Speed=4.000000m/h.]]></desc>
</trkpt>
<trkpt lat="36.776140" lon="137.787135">
<ele>2616.545495</ele>
<time>2014-08-19T00:10:46Z</time>
<desc><![CDATA[lat.=36.776140, lon.=137.787135, Alt.=2616.545495m. Speed=4.000000m/h.]]></desc>
</trkpt>
<trkpt lat="36.776165" lon="137.787176">
<ele>2616.183452</ele>
<time>2014-08-19T00:10:51Z</time>
<desc><![CDATA[lat.=36.776165, lon.=137.787176, Alt.=2616.183452m. Speed=3.000000m/h.]]></desc>
</trkpt>
<trkpt lat="36.776183" lon="137.787201">
<ele>2615.167640</ele>
<time>2014-08-19T00:10:56Z</time>
<desc><![CDATA[lat.=36.776183, lon.=137.787201, Alt.=2615.167640m. Speed=3.000000m/h.]]></desc>
</trkpt>
<trkpt lat="36.776197" lon="137.787217">
<ele>2614.689996</ele>
<time>2014-08-19T00:11:01Z</time>
<desc><![CDATA[lat.=36.776197, lon.=137.787217, Alt.=2614.689996m. Speed=2.000000m/h.]]></desc>
</trkpt>
<trkpt lat="36.776219" lon="137.787234">
<ele>2614.811044</ele>
<time>2014-08-19T00:11:06Z</time>
<desc><![CDATA[lat.=36.776219, lon.=137.787234, Alt.=2614.811044m. Speed=2.000000m/h.]]></desc>
</trkpt>
<trkpt lat="36.776248" lon="137.787235">
<ele>2615.475702</ele>
<time>2014-08-19T00:11:11Z</time>
<desc><![CDATA[lat.=36.776248, lon.=137.787235, Alt.=2615.475702m. Speed=2.000000m/h.]]></desc>
</trkpt>
<trkpt lat="36.776262" lon="137.787267">
<ele>2615.053144</ele>
<time>2014-08-19T00:11:16Z</time>
<desc><![CDATA[lat.=36.776262, lon.=137.787267, Alt.=2615.053144m. Speed=2.000000m/h.]]></desc>
</trkpt>
<trkpt lat="36.776277" lon="137.787300">
<ele>2612.900479</ele>
<time>2014-08-19T00:11:21Z</time>
<desc><![CDATA[lat.=36.776277, lon.=137.787300, Alt.=2612.900479m. Speed=2.000000m/h.]]></desc>
</trkpt>
<trkpt lat="36.776313" lon="137.787333">
<ele>2614.274002</ele>
<time>2014-08-19T00:11:26Z</time>
<desc><![CDATA[lat.=36.776313, lon.=137.787333, Alt.=2614.274002m. Speed=3.000000m/h.]]></desc>
</trkpt>
<trkpt lat="36.776327" lon="137.787348">
<ele>2615.526472</ele>
<time>2014-08-19T00:11:31Z</time>
<desc><![CDATA[lat.=36.776327, lon.=137.787348, Alt.=2615.526472m. Speed=2.000000m/h.]]></desc>
</trkpt>
<trkpt lat="36.776341" lon="137.787381">
<ele>2615.103920</ele>
<time>2014-08-19T00:11:36Z</time>
<desc><![CDATA[lat.=36.776341, lon.=137.787381, Alt.=2615.103920m. Speed=2.000000m/h.]]></desc>
</trkpt>
<trkpt lat="36.776354" lon="137.787428">
<ele>2616.466565</ele>
<time>2014-08-19T00:11:41Z</time>
<desc><![CDATA[lat.=36.776354, lon.=137.787428, Alt.=2616.466565m. Speed=2.000000m/h.]]></desc>
</trkpt>
<trkpt lat="36.776379" lon="137.787452">
<ele>2617.779568</ele>
<time>2014-08-19T00:11:46Z</time>
<desc><![CDATA[lat.=36.776379, lon.=137.787452, Alt.=2617.779568m. Speed=2.000000m/h.]]></desc>
</trkpt>
<trkpt lat="36.776408" lon="137.787452">
<ele>2620.174342</ele>
<time>2014-08-19T00:11:51Z</time>
<desc><![CDATA[lat.=36.776408, lon.=137.787452, Alt.=2620.174342m. Speed=2.000000m/h.]]></desc>
</trkpt>
<trkpt lat="36.776440" lon="137.787461">
<ele>2622.030955</ele>
<time>2014-08-19T00:11:56Z</time>
<desc><![CDATA[lat.=36.776440, lon.=137.787461, Alt.=2622.030955m. Speed=2.000000m/h.]]></desc>
</trkpt>
<trkpt lat="36.776469" lon="137.787494">
<ele>2621.075693</ele>
<time>2014-08-19T00:12:01Z</time>
<desc><![CDATA[lat.=36.776469, lon.=137.787494, Alt.=2621.075693m. Speed=3.000000m/h.]]></desc>
</trkpt>
<trkpt lat="36.776468" lon="137.787525">
<ele>2622.915977</ele>
<time>2014-08-19T00:12:06Z</time>
<desc><![CDATA[lat.=36.776468, lon.=137.787525, Alt.=2622.915977m. Speed=2.000000m/h.]]></desc>
</trkpt>
<trkpt lat="36.776494" lon="137.787534">
<ele>2622.443792</ele>
<time>2014-08-19T00:12:11Z</time>
<desc><![CDATA[lat.=36.776494, lon.=137.787534, Alt.=2622.443792m. Speed=2.000000m/h.]]></desc>
</trkpt>
<trkpt lat="36.776490" lon="137.787541">
<ele>2623.037042</ele>
<time>2014-08-19T00:12:16Z</time>
<desc><![CDATA[lat.=36.776490, lon.=137.787541, Alt.=2623.037042m. Speed=0.000000m/h.]]></desc>
</trkpt>
<trkpt lat="36.776497" lon="137.787541">
<ele>2623.635737</ele>
<time>2014-08-19T00:12:21Z</time>
<desc><![CDATA[lat.=36.776497, lon.=137.787541, Alt.=2623.635737m. Speed=0.000000m/h.]]></desc>
</trkpt>
<trkpt lat="36.776500" lon="137.787549">
<ele>2624.827683</ele>
<time>2014-08-19T00:12:26Z</time>
<desc><![CDATA[lat.=36.776500, lon.=137.787549, Alt.=2624.827683m. Speed=0.000000m/h.]]></desc>
</trkpt>
<trkpt lat="36.776508" lon="137.787549">
<ele>2623.696271</ele>
<time>2014-08-19T00:12:31Z</time>
<desc><![CDATA[lat.=36.776508, lon.=137.787549, Alt.=2623.696271m. Speed=0.000000m/h.]]></desc>
</trkpt>
<trkpt lat="36.776496" lon="137.787573">
<ele>2623.745915</ele>
<time>2014-08-19T00:12:36Z</time>
<desc><![CDATA[lat.=36.776496, lon.=137.787573, Alt.=2623.745915m. Speed=2.000000m/h.]]></desc>
</trkpt>
<trkpt lat="36.776525" lon="137.787589">
<ele>2624.465679</ele>
<time>2014-08-19T00:12:41Z</time>
<desc><![CDATA[lat.=36.776525, lon.=137.787589, Alt.=2624.465679m. Speed=2.000000m/h.]]></desc>
</trkpt>
<trkpt lat="36.776543" lon="137.787597">
<ele>2626.855016</ele>
<time>2014-08-19T00:12:46Z</time>
<desc><![CDATA[lat.=36.776543, lon.=137.787597, Alt.=2626.855016m. Speed=2.000000m/h.]]></desc>
</trkpt>
<trkpt lat="36.776550" lon="137.787598">
<ele>2625.723605</ele>
<time>2014-08-19T00:12:51Z</time>
<desc><![CDATA[lat.=36.776550, lon.=137.787598, Alt.=2625.723605m. Speed=1.000000m/h.]]></desc>
</trkpt>
<trkpt lat="36.776557" lon="137.787614">
<ele>2626.377391</ele>
<time>2014-08-19T00:12:56Z</time>
<desc><![CDATA[lat.=36.776557, lon.=137.787614, Alt.=2626.377391m. Speed=1.000000m/h.]]></desc>
</trkpt>
<trkpt lat="36.776553" lon="137.787621">
<ele>2626.970641</ele>
<time>2014-08-19T00:13:02Z</time>
<desc><![CDATA[lat.=36.776553, lon.=137.787621, Alt.=2626.970641m. Speed=0.000000m/h.]]></desc>
</trkpt>
<trkpt lat="36.776557" lon="137.787629">
<ele>2626.432481</ele>
<time>2014-08-19T00:13:13Z</time>
<desc><![CDATA[lat.=36.776557, lon.=137.787629, Alt.=2626.432481m. Speed=0.000000m/h.]]></desc>
</trkpt>
<trkpt lat="36.776568" lon="137.787638">
<ele>2626.493016</ele>
<time>2014-08-19T00:13:18Z</time>
<desc><![CDATA[lat.=36.776568, lon.=137.787638, Alt.=2626.493016m. Speed=1.000000m/h.]]></desc>
</trkpt>
<trkpt lat="36.776593" lon="137.787646">
<ele>2627.750945</ele>
<time>2014-08-19T00:13:23Z</time>
<desc><![CDATA[lat.=36.776593, lon.=137.787646, Alt.=2627.750945m. Speed=2.000000m/h.]]></desc>
</trkpt>
<trkpt lat="36.776618" lon="137.787654">
<ele>2629.008875</ele>
<time>2014-08-19T00:13:28Z</time>
<desc><![CDATA[lat.=36.776618, lon.=137.787654, Alt.=2629.008875m. Speed=1.000000m/h.]]></desc>
</trkpt>
<trkpt lat="36.776647" lon="137.787654">
<ele>2631.403663</ele>
<time>2014-08-19T00:13:33Z</time>
<desc><![CDATA[lat.=36.776647, lon.=137.787654, Alt.=2631.403663m. Speed=2.000000m/h.]]></desc>
</trkpt>
<trkpt lat="36.776658" lon="137.787678">
<ele>2631.519292</ele>
<time>2014-08-19T00:13:38Z</time>
<desc><![CDATA[lat.=36.776658, lon.=137.787678, Alt.=2631.519292m. Speed=1.000000m/h.]]></desc>
</trkpt>
<trkpt lat="36.776672" lon="137.787694">
<ele>2632.771778</ele>
<time>2014-08-19T00:13:43Z</time>
<desc><![CDATA[lat.=36.776672, lon.=137.787694, Alt.=2632.771778m. Speed=2.000000m/h.]]></desc>
</trkpt>
<trkpt lat="36.776686" lon="137.787711">
<ele>2632.294158</ele>
<time>2014-08-19T00:13:48Z</time>
<desc><![CDATA[lat.=36.776686, lon.=137.787711, Alt.=2632.294158m. Speed=2.000000m/h.]]></desc>
</trkpt>
<trkpt lat="36.776704" lon="137.787703">
<ele>2632.898303</ele>
<time>2014-08-19T00:13:53Z</time>
<desc><![CDATA[lat.=36.776704, lon.=137.787703, Alt.=2632.898303m. Speed=2.000000m/h.]]></desc>
</trkpt>
<trkpt lat="36.776730" lon="137.787712">
<ele>2632.426132</ele>
<time>2014-08-19T00:13:58Z</time>
<desc><![CDATA[lat.=36.776730, lon.=137.787712, Alt.=2632.426132m. Speed=1.000000m/h.]]></desc>
</trkpt>
<trkpt lat="36.776730" lon="137.787729">
<ele>2630.751117</ele>
<time>2014-08-19T00:14:03Z</time>
<desc><![CDATA[lat.=36.776730, lon.=137.787729, Alt.=2630.751117m. Speed=2.000000m/h.]]></desc>
</trkpt>
<trkpt lat="36.776729" lon="137.787761">
<ele>2630.861302</ele>
<time>2014-08-19T00:14:08Z</time>
<desc><![CDATA[lat.=36.776729, lon.=137.787761, Alt.=2630.861302m. Speed=1.000000m/h.]]></desc>
</trkpt>
<trkpt lat="36.776729" lon="137.787776">
<ele>2630.916395</ele>
<time>2014-08-19T00:14:13Z</time>
<desc><![CDATA[lat.=36.776729, lon.=137.787776, Alt.=2630.916395m. Speed=1.000000m/h.]]></desc>
</trkpt>
<trkpt lat="36.776758" lon="137.787776">
<ele>2633.311190</ele>
<time>2014-08-19T00:14:18Z</time>
<desc><![CDATA[lat.=36.776758, lon.=137.787776, Alt.=2633.311190m. Speed=1.000000m/h.]]></desc>
</trkpt>
<trkpt lat="36.776780" lon="137.787776">
<ele>2635.107286</ele>
<time>2014-08-19T00:14:23Z</time>
<desc><![CDATA[lat.=36.776780, lon.=137.787776, Alt.=2635.107286m. Speed=1.000000m/h.]]></desc>
</trkpt>
<trkpt lat="36.776790" lon="137.787785">
<ele>2635.167828</ele>
<time>2014-08-19T00:14:28Z</time>
<desc><![CDATA[lat.=36.776790, lon.=137.787785, Alt.=2635.167828m. Speed=2.000000m/h.]]></desc>
</trkpt>
<trkpt lat="36.776805" lon="137.787817">
<ele>2634.745307</ele>
<time>2014-08-19T00:14:33Z</time>
<desc><![CDATA[lat.=36.776805, lon.=137.787817, Alt.=2634.745307m. Speed=2.000000m/h.]]></desc>
</trkpt>
<trkpt lat="36.776826" lon="137.787833">
<ele>2636.596500</ele>
<time>2014-08-19T00:14:38Z</time>
<desc><![CDATA[lat.=36.776826, lon.=137.787833, Alt.=2636.596500m. Speed=2.000000m/h.]]></desc>
</trkpt>
<trkpt lat="36.776836" lon="137.787857">
<ele>2636.712138</ele>
<time>2014-08-19T00:14:43Z</time>
<desc><![CDATA[lat.=36.776836, lon.=137.787857, Alt.=2636.712138m. Speed=2.000000m/h.]]></desc>
</trkpt>
<trkpt lat="36.776839" lon="137.787864">
<ele>2639.634195</ele>
<time>2014-08-19T00:14:48Z</time>
<desc><![CDATA[lat.=36.776839, lon.=137.787864, Alt.=2639.634195m. Speed=1.000000m/h.]]></desc>
</trkpt>
<trkpt lat="36.776865" lon="137.787873">
<ele>2639.162032</ele>
<time>2014-08-19T00:14:53Z</time>
<desc><![CDATA[lat.=36.776865, lon.=137.787873, Alt.=2639.162032m. Speed=2.000000m/h.]]></desc>
</trkpt>
<trkpt lat="36.776868" lon="137.787897">
<ele>2638.678972</ele>
<time>2014-08-19T00:14:58Z</time>
<desc><![CDATA[lat.=36.776868, lon.=137.787897, Alt.=2638.678972m. Speed=2.000000m/h.]]></desc>
</trkpt>
<trkpt lat="36.776879" lon="137.787905">
<ele>2638.739517</ele>
<time>2014-08-19T00:15:03Z</time>
<desc><![CDATA[lat.=36.776879, lon.=137.787905, Alt.=2638.739517m. Speed=2.000000m/h.]]></desc>
</trkpt>
<trkpt lat="36.776908" lon="137.787922">
<ele>2639.459309</ele>
<time>2014-08-19T00:15:08Z</time>
<desc><![CDATA[lat.=36.776908, lon.=137.787922, Alt.=2639.459309m. Speed=2.000000m/h.]]></desc>
</trkpt>
<trkpt lat="36.776929" lon="137.787938">
<ele>2641.310508</ele>
<time>2014-08-19T00:15:13Z</time>
<desc><![CDATA[lat.=36.776929, lon.=137.787938, Alt.=2641.310508m. Speed=2.000000m/h.]]></desc>
</trkpt>
<trkpt lat="36.776939" lon="137.787962">
<ele>2641.426151</ele>
<time>2014-08-19T00:15:18Z</time>
<desc><![CDATA[lat.=36.776939, lon.=137.787962, Alt.=2641.426151m. Speed=2.000000m/h.]]></desc>
</trkpt>
<trkpt lat="36.776965" lon="137.787987">
<ele>2641.009091</ele>
<time>2014-08-19T00:15:23Z</time>
<desc><![CDATA[lat.=36.776965, lon.=137.787987, Alt.=2641.009091m. Speed=2.000000m/h.]]></desc>
</trkpt>
<trkpt lat="36.776956" lon="137.787984">
<ele>2645.600709</ele>
<time>2014-08-19T00:15:28Z</time>
<desc><![CDATA[lat.=36.776956, lon.=137.787984, Alt.=2645.600709m. Speed=0.000000m/h.]]></desc>
</trkpt>
<trkpt lat="36.776941" lon="137.787999">
<ele>2647.918617</ele>
<time>2014-08-19T00:15:33Z</time>
<desc><![CDATA[lat.=36.776941, lon.=137.787999, Alt.=2647.918617m. Speed=1.000000m/h.]]></desc>
</trkpt>
<trkpt lat="36.776944" lon="137.787990">
<ele>2649.055472</ele>
<time>2014-08-19T00:15:39Z</time>
<desc><![CDATA[lat.=36.776944, lon.=137.787990, Alt.=2649.055472m. Speed=0.000000m/h.]]></desc>
</trkpt>
<trkpt lat="36.776952" lon="137.787990">
<ele>2649.654173</ele>
<time>2014-08-19T00:15:44Z</time>
<desc><![CDATA[lat.=36.776952, lon.=137.787990, Alt.=2649.654173m. Speed=0.000000m/h.]]></desc>
</trkpt>
<trkpt lat="36.776984" lon="137.787999">
<ele>2649.780720</ele>
<time>2014-08-19T00:15:49Z</time>
<desc><![CDATA[lat.=36.776984, lon.=137.787999, Alt.=2649.780720m. Speed=3.000000m/h.]]></desc>
</trkpt>
<trkpt lat="36.776998" lon="137.788063">
<ele>2649.468409</ele>
<time>2014-08-19T00:15:54Z</time>
<desc><![CDATA[lat.=36.776998, lon.=137.788063, Alt.=2649.468409m. Speed=3.000000m/h.]]></desc>
</trkpt>
<trkpt lat="36.776993" lon="137.788086">
<ele>2651.846866</ele>
<time>2014-08-19T00:15:59Z</time>
<desc><![CDATA[lat.=36.776993, lon.=137.788086, Alt.=2651.846866m. Speed=2.000000m/h.]]></desc>
</trkpt>
<trkpt lat="36.776990" lon="137.788078">
<ele>2650.654913</ele>
<time>2014-08-19T00:16:04Z</time>
<desc><![CDATA[lat.=36.776990, lon.=137.788078, Alt.=2650.654913m. Speed=0.000000m/h.]]></desc>
</trkpt>
<trkpt lat="36.776993" lon="137.788086">
<ele>2651.846866</ele>
<time>2014-08-19T00:16:09Z</time>
<desc><![CDATA[lat.=36.776993, lon.=137.788086, Alt.=2651.846866m. Speed=0.000000m/h.]]></desc>
</trkpt>
<trkpt lat="36.776989" lon="137.788093">
<ele>2652.440118</ele>
<time>2014-08-19T00:16:15Z</time>
<desc><![CDATA[lat.=36.776989, lon.=137.788093, Alt.=2652.440118m. Speed=0.000000m/h.]]></desc>
</trkpt>
<trkpt lat="36.776993" lon="137.788085">
<ele>2653.576973</ele>
<time>2014-08-19T00:16:20Z</time>
<desc><![CDATA[lat.=36.776993, lon.=137.788085, Alt.=2653.576973m. Speed=0.000000m/h.]]></desc>
</trkpt>
<trkpt lat="36.776996" lon="137.788093">
<ele>2654.768926</ele>
<time>2014-08-19T00:16:38Z</time>
<desc><![CDATA[lat.=36.776996, lon.=137.788093, Alt.=2654.768926m. Speed=0.000000m/h.]]></desc>
</trkpt>
<trkpt lat="36.777003" lon="137.788093">
<ele>2655.367629</ele>
<time>2014-08-19T00:16:43Z</time>
<desc><![CDATA[lat.=36.777003, lon.=137.788093, Alt.=2655.367629m. Speed=0.000000m/h.]]></desc>
</trkpt>
<trkpt lat="36.776999" lon="137.788084">
<ele>2655.905781</ele>
<time>2014-08-19T00:16:48Z</time>
<desc><![CDATA[lat.=36.776999, lon.=137.788084, Alt.=2655.905781m. Speed=0.000000m/h.]]></desc>
</trkpt>
<trkpt lat="36.777003" lon="137.788093">
<ele>2655.367629</ele>
<time>2014-08-19T00:16:53Z</time>
<desc><![CDATA[lat.=36.777003, lon.=137.788093, Alt.=2655.367629m. Speed=0.000000m/h.]]></desc>
</trkpt>
<trkpt lat="36.777000" lon="137.788085">
<ele>2654.175675</ele>
<time>2014-08-19T00:16:58Z</time>
<desc><![CDATA[lat.=36.777000, lon.=137.788085, Alt.=2654.175675m. Speed=0.000000m/h.]]></desc>
</trkpt>
<trkpt lat="36.776993" lon="137.788085">
<ele>2653.576973</ele>
<time>2014-08-19T00:17:03Z</time>
<desc><![CDATA[lat.=36.776993, lon.=137.788085, Alt.=2653.576973m. Speed=0.000000m/h.]]></desc>
</trkpt>
<trkpt lat="36.776997" lon="137.788078">
<ele>2652.983721</ele>
<time>2014-08-19T00:17:27Z</time>
<desc><![CDATA[lat.=36.776997, lon.=137.788078, Alt.=2652.983721m. Speed=1.000000m/h.]]></desc>
</trkpt>
<trkpt lat="36.776987" lon="137.788054">
<ele>2651.137967</ele>
<time>2014-08-19T00:17:32Z</time>
<desc><![CDATA[lat.=36.776987, lon.=137.788054, Alt.=2651.137967m. Speed=1.000000m/h.]]></desc>
</trkpt>
<trkpt lat="36.776991" lon="137.788031">
<ele>2650.489617</ele>
<time>2014-08-19T00:17:37Z</time>
<desc><![CDATA[lat.=36.776991, lon.=137.788031, Alt.=2650.489617m. Speed=1.000000m/h.]]></desc>
</trkpt>
<trkpt lat="36.777002" lon="137.788023">
<ele>2650.495068</ele>
<time>2014-08-19T00:17:42Z</time>
<desc><![CDATA[lat.=36.777002, lon.=137.788023, Alt.=2650.495068m. Speed=0.000000m/h.]]></desc>
</trkpt>
<trkpt lat="36.777014" lon="137.787984">
<ele>2650.390325</ele>
<time>2014-08-19T00:17:47Z</time>
<desc><![CDATA[lat.=36.777014, lon.=137.787984, Alt.=2650.390325m. Speed=2.000000m/h.]]></desc>
</trkpt>
<trkpt lat="36.777044" lon="137.787987">
<ele>2647.594815</ele>
<time>2014-08-19T00:17:52Z</time>
<desc><![CDATA[lat.=36.777044, lon.=137.787987, Alt.=2647.594815m. Speed=2.000000m/h.]]></desc>
</trkpt>
<trkpt lat="36.777064" lon="137.787981">
<ele>2643.008651</ele>
<time>2014-08-19T00:17:57Z</time>
<desc><![CDATA[lat.=36.777064, lon.=137.787981, Alt.=2643.008651m. Speed=2.000000m/h.]]></desc>
</trkpt>
<trkpt lat="36.777075" lon="137.787990">
<ele>2643.069201</ele>
<time>2014-08-19T00:18:02Z</time>
<desc><![CDATA[lat.=36.777075, lon.=137.787990, Alt.=2643.069201m. Speed=1.000000m/h.]]></desc>
</trkpt>
<trkpt lat="36.777082" lon="137.787990">
<ele>2641.937798</ele>
<time>2014-08-19T00:18:07Z</time>
<desc><![CDATA[lat.=36.777082, lon.=137.787990, Alt.=2641.937798m. Speed=0.000000m/h.]]></desc>
</trkpt>
<trkpt lat="36.777086" lon="137.787999">
<ele>2641.399645</ele>
<time>2014-08-19T00:18:12Z</time>
<desc><![CDATA[lat.=36.777086, lon.=137.787999, Alt.=2641.399645m. Speed=0.000000m/h.]]></desc>
</trkpt>
<trkpt lat="36.777093" lon="137.788015">
<ele>2640.323340</ele>
<time>2014-08-19T00:18:17Z</time>
<desc><![CDATA[lat.=36.777093, lon.=137.788015, Alt.=2640.323340m. Speed=1.000000m/h.]]></desc>
</trkpt>
<trkpt lat="36.777100" lon="137.788031">
<ele>2640.977141</ele>
<time>2014-08-19T00:18:22Z</time>
<desc><![CDATA[lat.=36.777100, lon.=137.788031, Alt.=2640.977141m. Speed=0.000000m/h.]]></desc>
</trkpt>
<trkpt lat="36.777093" lon="137.788031">
<ele>2640.378437</ele>
<time>2014-08-19T00:18:27Z</time>
<desc><![CDATA[lat.=36.777093, lon.=137.788031, Alt.=2640.378437m. Speed=0.000000m/h.]]></desc>
</trkpt>
<trkpt lat="36.777096" lon="137.788039">
<ele>2641.570391</ele>
<time>2014-08-19T00:18:32Z</time>
<desc><![CDATA[lat.=36.777096, lon.=137.788039, Alt.=2641.570391m. Speed=0.000000m/h.]]></desc>
</trkpt>
<trkpt lat="36.777100" lon="137.788031">
<ele>2640.977141</ele>
<time>2014-08-19T00:18:37Z</time>
<desc><![CDATA[lat.=36.777100, lon.=137.788031, Alt.=2640.977141m. Speed=0.000000m/h.]]></desc>
</trkpt>
<trkpt lat="36.777096" lon="137.788039">
<ele>2641.570391</ele>
<time>2014-08-19T00:18:42Z</time>
<desc><![CDATA[lat.=36.777096, lon.=137.788039, Alt.=2641.570391m. Speed=0.000000m/h.]]></desc>
</trkpt>
<trkpt lat="36.777081" lon="137.788070">
<ele>2640.483181</ele>
<time>2014-08-19T00:18:47Z</time>
<desc><![CDATA[lat.=36.777081, lon.=137.788070, Alt.=2640.483181m. Speed=2.000000m/h.]]></desc>
</trkpt>
<trkpt lat="36.777087" lon="137.788118">
<ele>2639.517076</ele>
<time>2014-08-19T00:18:52Z</time>
<desc><![CDATA[lat.=36.777087, lon.=137.788118, Alt.=2639.517076m. Speed=3.000000m/h.]]></desc>
</trkpt>
<trkpt lat="36.777068" lon="137.788173">
<ele>2639.078222</ele>
<time>2014-08-19T00:18:57Z</time>
<desc><![CDATA[lat.=36.777068, lon.=137.788173, Alt.=2639.078222m. Speed=3.000000m/h.]]></desc>
</trkpt>
<trkpt lat="36.777089" lon="137.788222">
<ele>2639.309529</ele>
<time>2014-08-19T00:19:02Z</time>
<desc><![CDATA[lat.=36.777089, lon.=137.788222, Alt.=2639.309529m. Speed=3.000000m/h.]]></desc>
</trkpt>
<trkpt lat="36.777096" lon="137.788271">
<ele>2636.613326</ele>
<time>2014-08-19T00:19:07Z</time>
<desc><![CDATA[lat.=36.777096, lon.=137.788271, Alt.=2636.613326m. Speed=3.000000m/h.]]></desc>
</trkpt>
<trkpt lat="36.777117" lon="137.788319">
<ele>2636.844640</ele>
<time>2014-08-19T00:19:12Z</time>
<desc><![CDATA[lat.=36.777117, lon.=137.788319, Alt.=2636.844640m. Speed=3.000000m/h.]]></desc>
</trkpt>
<trkpt lat="36.777130" lon="137.788366">
<ele>2638.207360</ele>
<time>2014-08-19T00:19:17Z</time>
<desc><![CDATA[lat.=36.777130, lon.=137.788366, Alt.=2638.207360m. Speed=3.000000m/h.]]></desc>
</trkpt>
<trkpt lat="36.777157" lon="137.788430">
<ele>2640.822597</ele>
<time>2014-08-19T00:19:22Z</time>
<desc><![CDATA[lat.=36.777157, lon.=137.788430, Alt.=2640.822597m. Speed=4.000000m/h.]]></desc>
</trkpt>
<trkpt lat="36.777168" lon="137.788470">
<ele>2639.263260</ele>
<time>2014-08-19T00:19:27Z</time>
<desc><![CDATA[lat.=36.777168, lon.=137.788470, Alt.=2639.263260m. Speed=3.000000m/h.]]></desc>
</trkpt>
<trkpt lat="36.777174" lon="137.788519">
<ele>2638.297180</ele>
<time>2014-08-19T00:19:32Z</time>
<desc><![CDATA[lat.=36.777174, lon.=137.788519, Alt.=2638.297180m. Speed=3.000000m/h.]]></desc>
</trkpt>
<trkpt lat="36.777159" lon="137.788566">
<ele>2637.265095</ele>
<time>2014-08-19T00:19:37Z</time>
<desc><![CDATA[lat.=36.777159, lon.=137.788566, Alt.=2637.265095m. Speed=3.000000m/h.]]></desc>
</trkpt>
<trkpt lat="36.777172" lon="137.788613">
<ele>2638.627831</ele>
<time>2014-08-19T00:19:42Z</time>
<desc><![CDATA[lat.=36.777172, lon.=137.788613, Alt.=2638.627831m. Speed=3.000000m/h.]]></desc>
</trkpt>
<trkpt lat="36.777186" lon="137.788662">
<ele>2638.260464</ele>
<time>2014-08-19T00:19:47Z</time>
<desc><![CDATA[lat.=36.777186, lon.=137.788662, Alt.=2638.260464m. Speed=3.000000m/h.]]></desc>
</trkpt>
<trkpt lat="36.777192" lon="137.788710">
<ele>2637.294395</ele>
<time>2014-08-19T00:19:52Z</time>
<desc><![CDATA[lat.=36.777192, lon.=137.788710, Alt.=2637.294395m. Speed=3.000000m/h.]]></desc>
</trkpt>
<trkpt lat="36.777213" lon="137.788742">
<ele>2637.470627</ele>
<time>2014-08-19T00:19:57Z</time>
<desc><![CDATA[lat.=36.777213, lon.=137.788742, Alt.=2637.470627m. Speed=3.000000m/h.]]></desc>
</trkpt>
<trkpt lat="36.777210" lon="137.788735">
<ele>2636.278666</ele>
<time>2014-08-19T00:20:02Z</time>
<desc><![CDATA[lat.=36.777210, lon.=137.788735, Alt.=2636.278666m. Speed=0.000000m/h.]]></desc>
</trkpt>
<trkpt lat="36.777207" lon="137.788743">
<ele>2635.141817</ele>
<time>2014-08-19T00:20:07Z</time>
<desc><![CDATA[lat.=36.777207, lon.=137.788743, Alt.=2635.141817m. Speed=0.000000m/h.]]></desc>
</trkpt>
<trkpt lat="36.777210" lon="137.788751">
<ele>2634.603672</ele>
<time>2014-08-19T00:20:12Z</time>
<desc><![CDATA[lat.=36.777210, lon.=137.788751, Alt.=2634.603672m. Speed=0.000000m/h.]]></desc>
</trkpt>
<trkpt lat="36.777218" lon="137.788751">
<ele>2635.202378</ele>
<time>2014-08-19T00:20:17Z</time>
<desc><![CDATA[lat.=36.777218, lon.=137.788751, Alt.=2635.202378m. Speed=1.000000m/h.]]></desc>
</trkpt>
<trkpt lat="36.777222" lon="137.788744">
<ele>2634.609121</ele>
<time>2014-08-19T00:20:34Z</time>
<desc><![CDATA[lat.=36.777222, lon.=137.788744, Alt.=2634.609121m. Speed=0.000000m/h.]]></desc>
</trkpt>
<trkpt lat="36.777225" lon="137.788752">
<ele>2634.070977</ele>
<time>2014-08-19T00:20:39Z</time>
<desc><![CDATA[lat.=36.777225, lon.=137.788752, Alt.=2634.070977m. Speed=0.000000m/h.]]></desc>
</trkpt>
<trkpt lat="36.777231" lon="137.788815">
<ele>2634.890133</ele>
<time>2014-08-19T00:20:44Z</time>
<desc><![CDATA[lat.=36.777231, lon.=137.788815, Alt.=2634.890133m. Speed=3.000000m/h.]]></desc>
</trkpt>
<trkpt lat="36.777255" lon="137.788871">
<ele>2636.313448</ele>
<time>2014-08-19T00:20:49Z</time>
<desc><![CDATA[lat.=36.777255, lon.=137.788871, Alt.=2636.313448m. Speed=3.000000m/h.]]></desc>
</trkpt>
<trkpt lat="36.777266" lon="137.788912">
<ele>2634.754136</ele>
<time>2014-08-19T00:20:54Z</time>
<desc><![CDATA[lat.=36.777266, lon.=137.788912, Alt.=2634.754136m. Speed=3.000000m/h.]]></desc>
</trkpt>
<trkpt lat="36.777291" lon="137.788937">
<ele>2634.337122</ele>
<time>2014-08-19T00:20:59Z</time>
<desc><![CDATA[lat.=36.777291, lon.=137.788937, Alt.=2634.337122m. Speed=3.000000m/h.]]></desc>
</trkpt>
<trkpt lat="36.777320" lon="137.788938">
<ele>2633.271737</ele>
<time>2014-08-19T00:21:04Z</time>
<desc><![CDATA[lat.=36.777320, lon.=137.788938, Alt.=2633.271737m. Speed=2.000000m/h.]]></desc>
</trkpt>
<trkpt lat="36.777341" lon="137.788986">
<ele>2633.503100</ele>
<time>2014-08-19T00:21:09Z</time>
<desc><![CDATA[lat.=36.777341, lon.=137.788986, Alt.=2633.503100m. Speed=3.000000m/h.]]></desc>
</trkpt>
<trkpt lat="36.777362" lon="137.789035">
<ele>2633.734467</ele>
<time>2014-08-19T00:21:14Z</time>
<desc><![CDATA[lat.=36.777362, lon.=137.789035, Alt.=2633.734467m. Speed=3.000000m/h.]]></desc>
</trkpt>
<trkpt lat="36.777387" lon="137.789091">
<ele>2633.427699</ele>
<time>2014-08-19T00:21:19Z</time>
<desc><![CDATA[lat.=36.777387, lon.=137.789091, Alt.=2633.427699m. Speed=3.000000m/h.]]></desc>
</trkpt>
<trkpt lat="36.777409" lon="137.789124">
<ele>2631.873849</ele>
<time>2014-08-19T00:21:24Z</time>
<desc><![CDATA[lat.=36.777409, lon.=137.789124, Alt.=2631.873849m. Speed=3.000000m/h.]]></desc>
</trkpt>
<trkpt lat="36.777445" lon="137.789126">
<ele>2631.407180</ele>
<time>2014-08-19T00:21:29Z</time>
<desc><![CDATA[lat.=36.777445, lon.=137.789126, Alt.=2631.407180m. Speed=3.000000m/h.]]></desc>
</trkpt>
<trkpt lat="36.777464" lon="137.789151">
<ele>2630.391473</ele>
<time>2014-08-19T00:21:34Z</time>
<desc><![CDATA[lat.=36.777464, lon.=137.789151, Alt.=2630.391473m. Speed=3.000000m/h.]]></desc>
</trkpt>
<trkpt lat="36.777489" lon="137.789176">
<ele>2629.974476</ele>
<time>2014-08-19T00:21:39Z</time>
<desc><![CDATA[lat.=36.777489, lon.=137.789176, Alt.=2629.974476m. Speed=3.000000m/h.]]></desc>
</trkpt>
<trkpt lat="36.777507" lon="137.789168">
<ele>2630.578636</ele>
<time>2014-08-19T00:21:44Z</time>
<desc><![CDATA[lat.=36.777507, lon.=137.789168, Alt.=2630.578636m. Speed=2.000000m/h.]]></desc>
</trkpt>
<trkpt lat="36.777497" lon="137.789161">
<ele>2628.787960</ele>
<time>2014-08-19T00:21:49Z</time>
<desc><![CDATA[lat.=36.777497, lon.=137.789161, Alt.=2628.787960m. Speed=0.000000m/h.]]></desc>
</trkpt>
<trkpt lat="36.777493" lon="137.789152">
<ele>2631.056203</ele>
<time>2014-08-19T00:21:54Z</time>
<desc><![CDATA[lat.=36.777493, lon.=137.789152, Alt.=2631.056203m. Speed=0.000000m/h.]]></desc>
</trkpt>
<trkpt lat="36.777500" lon="137.789152">
<ele>2629.924807</ele>
<time>2014-08-19T00:21:59Z</time>
<desc><![CDATA[lat.=36.777500, lon.=137.789152, Alt.=2629.924807m. Speed=0.000000m/h.]]></desc>
</trkpt>
<trkpt lat="36.777493" lon="137.789152">
<ele>2629.326098</ele>
<time>2014-08-19T00:22:28Z</time>
<desc><![CDATA[lat.=36.777493, lon.=137.789152, Alt.=2629.326098m. Speed=0.000000m/h.]]></desc>
</trkpt>
<trkpt lat="36.777504" lon="137.789161">
<ele>2629.386669</ele>
<time>2014-08-19T00:22:35Z</time>
<desc><![CDATA[lat.=36.777504, lon.=137.789161, Alt.=2629.386669m. Speed=1.000000m/h.]]></desc>
</trkpt>
<trkpt lat="36.777507" lon="137.789185">
<ele>2628.903651</ele>
<time>2014-08-19T00:22:40Z</time>
<desc><![CDATA[lat.=36.777507, lon.=137.789185, Alt.=2628.903651m. Speed=2.000000m/h.]]></desc>
</trkpt>
<trkpt lat="36.777537" lon="137.789202">
<ele>2627.893400</ele>
<time>2014-08-19T00:22:45Z</time>
<desc><![CDATA[lat.=36.777537, lon.=137.789202, Alt.=2627.893400m. Speed=2.000000m/h.]]></desc>
</trkpt>
<trkpt lat="36.777562" lon="137.789227">
<ele>2627.476408</ele>
<time>2014-08-19T00:22:50Z</time>
<desc><![CDATA[lat.=36.777562, lon.=137.789227, Alt.=2627.476408m. Speed=2.000000m/h.]]></desc>
</trkpt>
<trkpt lat="36.777595" lon="137.789253">
<ele>2625.928024</ele>
<time>2014-08-19T00:22:55Z</time>
<desc><![CDATA[lat.=36.777595, lon.=137.789253, Alt.=2625.928024m. Speed=3.000000m/h.]]></desc>
</trkpt>
<trkpt lat="36.777613" lon="137.789293">
<ele>2624.967449</ele>
<time>2014-08-19T00:23:00Z</time>
<desc><![CDATA[lat.=36.777613, lon.=137.789293, Alt.=2624.967449m. Speed=3.000000m/h.]]></desc>
</trkpt>
<trkpt lat="36.777645" lon="137.789302">
<ele>2625.094052</ele>
<time>2014-08-19T00:23:05Z</time>
<desc><![CDATA[lat.=36.777645, lon.=137.789302, Alt.=2625.094052m. Speed=3.000000m/h.]]></desc>
</trkpt>
<trkpt lat="36.777678" lon="137.789344">
<ele>2623.600799</ele>
<time>2014-08-19T00:23:10Z</time>
<desc><![CDATA[lat.=36.777678, lon.=137.789344, Alt.=2623.600799m. Speed=3.000000m/h.]]></desc>
</trkpt>
<trkpt lat="36.777707" lon="137.789377">
<ele>2622.645684</ele>
<time>2014-08-19T00:23:15Z</time>
<desc><![CDATA[lat.=36.777707, lon.=137.789377, Alt.=2622.645684m. Speed=3.000000m/h.]]></desc>
</trkpt>
<trkpt lat="36.777750" lon="137.789394">
<ele>2624.562978</ele>
<time>2014-08-19T00:23:20Z</time>
<desc><![CDATA[lat.=36.777750, lon.=137.789394, Alt.=2624.562978m. Speed=3.000000m/h.]]></desc>
</trkpt>
<trkpt lat="36.777783" lon="137.789435">
<ele>2623.069736</ele>
<time>2014-08-19T00:23:25Z</time>
<desc><![CDATA[lat.=36.777783, lon.=137.789435, Alt.=2623.069736m. Speed=3.000000m/h.]]></desc>
</trkpt>
<trkpt lat="36.777812" lon="137.789468">
<ele>2622.114631</ele>
<time>2014-08-19T00:23:30Z</time>
<desc><![CDATA[lat.=36.777812, lon.=137.789468, Alt.=2622.114631m. Speed=3.000000m/h.]]></desc>
</trkpt>
<trkpt lat="36.777852" lon="137.789494">
<ele>2621.164985</ele>
<time>2014-08-19T00:23:35Z</time>
<desc><![CDATA[lat.=36.777852, lon.=137.789494, Alt.=2621.164985m. Speed=4.000000m/h.]]></desc>
</trkpt>
<trkpt lat="36.777881" lon="137.789527">
<ele>2620.209886</ele>
<time>2014-08-19T00:23:40Z</time>
<desc><![CDATA[lat.=36.777881, lon.=137.789527, Alt.=2620.209886m. Speed=4.000000m/h.]]></desc>
</trkpt>
<trkpt lat="36.777898" lon="137.789568">
<ele>2619.249334</ele>
<time>2014-08-19T00:23:45Z</time>
<desc><![CDATA[lat.=36.777898, lon.=137.789568, Alt.=2619.249334m. Speed=3.000000m/h.]]></desc>
</trkpt>
<trkpt lat="36.777916" lon="137.789608">
<ele>2620.018889</ele>
<time>2014-08-19T00:23:50Z</time>
<desc><![CDATA[lat.=36.777916, lon.=137.789608, Alt.=2620.018889m. Speed=3.000000m/h.]]></desc>
</trkpt>
<trkpt lat="36.777974" lon="137.789625">
<ele>2621.403532</ele>
<time>2014-08-19T00:23:55Z</time>
<desc><![CDATA[lat.=36.777974, lon.=137.789625, Alt.=2621.403532m. Speed=3.000000m/h.]]></desc>
</trkpt>
<trkpt lat="36.778018" lon="137.789643">
<ele>2619.860645</ele>
<time>2014-08-19T00:24:00Z</time>
<desc><![CDATA[lat.=36.778018, lon.=137.789643, Alt.=2619.860645m. Speed=4.000000m/h.]]></desc>
</trkpt>
<trkpt lat="36.778051" lon="137.789668">
<ele>2620.042407</ele>
<time>2014-08-19T00:24:05Z</time>
<desc><![CDATA[lat.=36.778051, lon.=137.789668, Alt.=2620.042407m. Speed=3.000000m/h.]]></desc>
</trkpt>
<trkpt lat="36.778083" lon="137.789693">
<ele>2620.224173</ele>
<time>2014-08-19T00:24:10Z</time>
<desc><![CDATA[lat.=36.778083, lon.=137.789693, Alt.=2620.224173m. Speed=3.000000m/h.]]></desc>
</trkpt>
<trkpt lat="36.778100" lon="137.789733">
<ele>2620.993740</ele>
<time>2014-08-19T00:24:15Z</time>
<desc><![CDATA[lat.=36.778100, lon.=137.789733, Alt.=2620.993740m. Speed=3.000000m/h.]]></desc>
</trkpt>
<trkpt lat="36.778088" lon="137.789755">
<ele>2622.773517</ele>
<time>2014-08-19T00:24:20Z</time>
<desc><![CDATA[lat.=36.778088, lon.=137.789755, Alt.=2622.773517m. Speed=2.000000m/h.]]></desc>
</trkpt>
<trkpt lat="36.778049" lon="137.789731">
<ele>2621.993032</ele>
<time>2014-08-19T00:24:25Z</time>
<desc><![CDATA[lat.=36.778049, lon.=137.789731, Alt.=2621.993032m. Speed=3.000000m/h.]]></desc>
</trkpt>
<trkpt lat="36.777998" lon="137.789697">
<ele>2622.882068</ele>
<time>2014-08-19T00:24:30Z</time>
<desc><![CDATA[lat.=36.777998, lon.=137.789697, Alt.=2622.882068m. Speed=4.000000m/h.]]></desc>
</trkpt>
<trkpt lat="36.777954" lon="137.789663">
<ele>2622.639722</ele>
<time>2014-08-19T00:24:35Z</time>
<desc><![CDATA[lat.=36.777954, lon.=137.789663, Alt.=2622.639722m. Speed=4.000000m/h.]]></desc>
</trkpt>
<trkpt lat="36.777911" lon="137.789629">
<ele>2624.127485</ele>
<time>2014-08-19T00:24:40Z</time>
<desc><![CDATA[lat.=36.777911, lon.=137.789629, Alt.=2624.127485m. Speed=4.000000m/h.]]></desc>
</trkpt>
<trkpt lat="36.777856" lon="137.789588">
<ele>2623.824566</ele>
<time>2014-08-19T00:24:45Z</time>
<desc><![CDATA[lat.=36.777856, lon.=137.789588, Alt.=2623.824566m. Speed=5.000000m/h.]]></desc>
</trkpt>
<trkpt lat="36.777795" lon="137.789562">
<ele>2622.978069</ele>
<time>2014-08-19T00:24:50Z</time>
<desc><![CDATA[lat.=36.777795, lon.=137.789562, Alt.=2622.978069m. Speed=5.000000m/h.]]></desc>
</trkpt>
<trkpt lat="36.777764" lon="137.789559">
<ele>2629.233739</ele>
<time>2014-08-19T00:24:55Z</time>
<desc><![CDATA[lat.=36.777764, lon.=137.789559, Alt.=2629.233739m. Speed=4.000000m/h.]]></desc>
</trkpt>
<trkpt lat="36.777763" lon="137.789558">
<ele>2630.963843</ele>
<time>2014-08-19T00:25:00Z</time>
<desc><![CDATA[lat.=36.777763, lon.=137.789558, Alt.=2630.963843m. Speed=0.000000m/h.]]></desc>
</trkpt>
<trkpt lat="36.777775" lon="137.789550">
<ele>2630.969297</ele>
<time>2014-08-19T00:25:05Z</time>
<desc><![CDATA[lat.=36.777775, lon.=137.789550, Alt.=2630.969297m. Speed=0.000000m/h.]]></desc>
</trkpt>
<trkpt lat="36.777771" lon="137.789558">
<ele>2631.562556</ele>
<time>2014-08-19T00:25:10Z</time>
<desc><![CDATA[lat.=36.777771, lon.=137.789558, Alt.=2631.562556m. Speed=0.000000m/h.]]></desc>
</trkpt>
<trkpt lat="36.777775" lon="137.789550">
<ele>2630.969297</ele>
<time>2014-08-19T00:25:15Z</time>
<desc><![CDATA[lat.=36.777775, lon.=137.789550, Alt.=2630.969297m. Speed=0.000000m/h.]]></desc>
</trkpt>
<trkpt lat="36.777771" lon="137.789558">
<ele>2631.562556</ele>
<time>2014-08-19T00:25:21Z</time>
<desc><![CDATA[lat.=36.777771, lon.=137.789558, Alt.=2631.562556m. Speed=0.000000m/h.]]></desc>
</trkpt>
<trkpt lat="36.777785" lon="137.789559">
<ele>2631.029878</ele>
<time>2014-08-19T00:25:26Z</time>
<desc><![CDATA[lat.=36.777785, lon.=137.789559, Alt.=2631.029878m. Speed=1.000000m/h.]]></desc>
</trkpt>
<trkpt lat="36.777807" lon="137.789576">
<ele>2629.420937</ele>
<time>2014-08-19T00:25:31Z</time>
<desc><![CDATA[lat.=36.777807, lon.=137.789576, Alt.=2629.420937m. Speed=2.000000m/h.]]></desc>
</trkpt>
<trkpt lat="36.777841" lon="137.789586">
<ele>2627.817451</ele>
<time>2014-08-19T00:25:36Z</time>
<desc><![CDATA[lat.=36.777841, lon.=137.789586, Alt.=2627.817451m. Speed=3.000000m/h.]]></desc>
</trkpt>
<trkpt lat="36.777848" lon="137.789586">
<ele>2626.686061</ele>
<time>2014-08-19T00:25:41Z</time>
<desc><![CDATA[lat.=36.777848, lon.=137.789586, Alt.=2626.686061m. Speed=1.000000m/h.]]></desc>
</trkpt>
<trkpt lat="36.777867" lon="137.789596">
<ele>2625.615254</ele>
<time>2014-08-19T00:25:46Z</time>
<desc><![CDATA[lat.=36.777867, lon.=137.789596, Alt.=2625.615254m. Speed=0.000000m/h.]]></desc>
</trkpt>
<trkpt lat="36.777863" lon="137.789604">
<ele>2624.478409</ele>
<time>2014-08-19T00:25:51Z</time>
<desc><![CDATA[lat.=36.777863, lon.=137.789604, Alt.=2624.478409m. Speed=0.000000m/h.]]></desc>
</trkpt>
<trkpt lat="36.777863" lon="137.789620">
<ele>2622.803433</ele>
<time>2014-08-19T00:25:56Z</time>
<desc><![CDATA[lat.=36.777863, lon.=137.789620, Alt.=2622.803433m. Speed=0.000000m/h.]]></desc>
</trkpt>
<trkpt lat="36.777867" lon="137.789628">
<ele>2623.995407</ele>
<time>2014-08-19T00:26:01Z</time>
<desc><![CDATA[lat.=36.777867, lon.=137.789628, Alt.=2623.995407m. Speed=0.000000m/h.]]></desc>
</trkpt>
<trkpt lat="36.777870" lon="137.789636">
<ele>2623.457276</ele>
<time>2014-08-19T00:26:09Z</time>
<desc><![CDATA[lat.=36.777870, lon.=137.789636, Alt.=2623.457276m. Speed=1.000000m/h.]]></desc>
</trkpt>
<trkpt lat="36.777870" lon="137.789620">
<ele>2625.132251</ele>
<time>2014-08-19T00:26:14Z</time>
<desc><![CDATA[lat.=36.777870, lon.=137.789620, Alt.=2625.132251m. Speed=0.000000m/h.]]></desc>
</trkpt>
<trkpt lat="36.777866" lon="137.789611">
<ele>2625.670382</ele>
<time>2014-08-19T00:26:19Z</time>
<desc><![CDATA[lat.=36.777866, lon.=137.789611, Alt.=2625.670382m. Speed=0.000000m/h.]]></desc>
</trkpt>
<trkpt lat="36.777877" lon="137.789620">
<ele>2625.730966</ele>
<time>2014-08-19T00:26:26Z</time>
<desc><![CDATA[lat.=36.777877, lon.=137.789620, Alt.=2625.730966m. Speed=1.000000m/h.]]></desc>
</trkpt>
<trkpt lat="36.777917" lon="137.789645">
<ele>2626.511434</ele>
<time>2014-08-19T00:26:31Z</time>
<desc><![CDATA[lat.=36.777917, lon.=137.789645, Alt.=2626.511434m. Speed=3.000000m/h.]]></desc>
</trkpt>
<trkpt lat="36.777994" lon="137.789672">
<ele>2625.095172</ele>
<time>2014-08-19T00:26:36Z</time>
<desc><![CDATA[lat.=36.777994, lon.=137.789672, Alt.=2625.095172m. Speed=4.000000m/h.]]></desc>
</trkpt>
<trkpt lat="36.778045" lon="137.789706">
<ele>2624.206134</ele>
<time>2014-08-19T00:26:41Z</time>
<desc><![CDATA[lat.=36.778045, lon.=137.789706, Alt.=2624.206134m. Speed=4.000000m/h.]]></desc>
</trkpt>
<trkpt lat="36.778096" lon="137.789723">
<ele>2624.992076</ele>
<time>2014-08-19T00:26:46Z</time>
<desc><![CDATA[lat.=36.778096, lon.=137.789723, Alt.=2624.992076m. Speed=4.000000m/h.]]></desc>
</trkpt>
<trkpt lat="36.778151" lon="137.789749">
<ele>2625.239896</ele>
<time>2014-08-19T00:26:51Z</time>
<desc><![CDATA[lat.=36.778151, lon.=137.789749, Alt.=2625.239896m. Speed=5.000000m/h.]]></desc>
</trkpt>
<trkpt lat="36.778190" lon="137.789790">
<ele>2624.345417</ele>
<time>2014-08-19T00:26:56Z</time>
<desc><![CDATA[lat.=36.778190, lon.=137.789790, Alt.=2624.345417m. Speed=4.000000m/h.]]></desc>
</trkpt>
<trkpt lat="36.778220" lon="137.789824">
<ele>2621.660246</ele>
<time>2014-08-19T00:27:01Z</time>
<desc><![CDATA[lat.=36.778220, lon.=137.789824, Alt.=2621.660246m. Speed=4.000000m/h.]]></desc>
</trkpt>
<trkpt lat="36.778241" lon="137.789857">
<ele>2621.836565</ele>
<time>2014-08-19T00:27:06Z</time>
<desc><![CDATA[lat.=36.778241, lon.=137.789857, Alt.=2621.836565m. Speed=3.000000m/h.]]></desc>
</trkpt>
<trkpt lat="36.778267" lon="137.789882">
<ele>2619.689525</ele>
<time>2014-08-19T00:27:11Z</time>
<desc><![CDATA[lat.=36.778267, lon.=137.789882, Alt.=2619.689525m. Speed=3.000000m/h.]]></desc>
</trkpt>
<trkpt lat="36.778310" lon="137.789900">
<ele>2619.876772</ele>
<time>2014-08-19T00:27:16Z</time>
<desc><![CDATA[lat.=36.778310, lon.=137.789900, Alt.=2619.876772m. Speed=3.000000m/h.]]></desc>
</trkpt>
<trkpt lat="36.778340" lon="137.789917">
<ele>2618.866582</ele>
<time>2014-08-19T00:27:21Z</time>
<desc><![CDATA[lat.=36.778340, lon.=137.789917, Alt.=2618.866582m. Speed=3.000000m/h.]]></desc>
</trkpt>
<trkpt lat="36.778361" lon="137.789933">
<ele>2618.987776</ele>
<time>2014-08-19T00:27:26Z</time>
<desc><![CDATA[lat.=36.778361, lon.=137.789933, Alt.=2618.987776m. Speed=3.000000m/h.]]></desc>
</trkpt>
<trkpt lat="36.778398" lon="137.789934">
<ele>2620.251279</ele>
<time>2014-08-19T00:27:31Z</time>
<desc><![CDATA[lat.=36.778398, lon.=137.789934, Alt.=2620.251279m. Speed=3.000000m/h.]]></desc>
</trkpt>
<trkpt lat="36.778419" lon="137.789951">
<ele>2620.372476</ele>
<time>2014-08-19T00:27:36Z</time>
<desc><![CDATA[lat.=36.778419, lon.=137.789951, Alt.=2620.372476m. Speed=3.000000m/h.]]></desc>
</trkpt>
<trkpt lat="36.778416" lon="137.789943">
<ele>2620.910599</ele>
<time>2014-08-19T00:27:41Z</time>
<desc><![CDATA[lat.=36.778416, lon.=137.789943, Alt.=2620.910599m. Speed=0.000000m/h.]]></desc>
</trkpt>
<trkpt lat="36.778409" lon="137.789943">
<ele>2620.311877</ele>
<time>2014-08-19T00:27:46Z</time>
<desc><![CDATA[lat.=36.778409, lon.=137.789943, Alt.=2620.311877m. Speed=0.000000m/h.]]></desc>
</trkpt>
<trkpt lat="36.778416" lon="137.789943">
<ele>2620.910599</ele>
<time>2014-08-19T00:27:51Z</time>
<desc><![CDATA[lat.=36.778416, lon.=137.789943, Alt.=2620.910599m. Speed=0.000000m/h.]]></desc>
</trkpt>
<trkpt lat="36.778409" lon="137.789943">
<ele>2620.311877</ele>
<time>2014-08-19T00:27:56Z</time>
<desc><![CDATA[lat.=36.778409, lon.=137.789943, Alt.=2620.311877m. Speed=0.000000m/h.]]></desc>
</trkpt>
<trkpt lat="36.778416" lon="137.789943">
<ele>2620.910599</ele>
<time>2014-08-19T00:28:03Z</time>
<desc><![CDATA[lat.=36.778416, lon.=137.789943, Alt.=2620.910599m. Speed=0.000000m/h.]]></desc>
</trkpt>
<trkpt lat="36.778409" lon="137.789943">
<ele>2620.311877</ele>
<time>2014-08-19T00:28:16Z</time>
<desc><![CDATA[lat.=36.778409, lon.=137.789943, Alt.=2620.311877m. Speed=0.000000m/h.]]></desc>
</trkpt>
<trkpt lat="36.778413" lon="137.789935">
<ele>2619.718619</ele>
<time>2014-08-19T00:28:21Z</time>
<desc><![CDATA[lat.=36.778413, lon.=137.789935, Alt.=2619.718619m. Speed=0.000000m/h.]]></desc>
</trkpt>
<trkpt lat="36.778416" lon="137.789943">
<ele>2619.180496</ele>
<time>2014-08-19T00:28:26Z</time>
<desc><![CDATA[lat.=36.778416, lon.=137.789943, Alt.=2619.180496m. Speed=0.000000m/h.]]></desc>
</trkpt>
<trkpt lat="36.778420" lon="137.789952">
<ele>2618.642372</ele>
<time>2014-08-19T00:28:38Z</time>
<desc><![CDATA[lat.=36.778420, lon.=137.789952, Alt.=2618.642372m. Speed=0.000000m/h.]]></desc>
</trkpt>
<trkpt lat="36.778416" lon="137.789960">
<ele>2617.505527</ele>
<time>2014-08-19T00:28:43Z</time>
<desc><![CDATA[lat.=36.778416, lon.=137.789960, Alt.=2617.505527m. Speed=0.000000m/h.]]></desc>
</trkpt>
<trkpt lat="36.778409" lon="137.789960">
<ele>2616.906805</ele>
<time>2014-08-19T00:28:50Z</time>
<desc><![CDATA[lat.=36.778409, lon.=137.789960, Alt.=2616.906805m. Speed=0.000000m/h.]]></desc>
</trkpt>
<trkpt lat="36.778405" lon="137.789952">
<ele>2617.444928</ele>
<time>2014-08-19T00:28:55Z</time>
<desc><![CDATA[lat.=36.778405, lon.=137.789952, Alt.=2617.444928m. Speed=0.000000m/h.]]></desc>
</trkpt>
<trkpt lat="36.778401" lon="137.789959">
<ele>2618.038187</ele>
<time>2014-08-19T00:29:47Z</time>
<desc><![CDATA[lat.=36.778401, lon.=137.789959, Alt.=2618.038187m. Speed=1.000000m/h.]]></desc>
</trkpt>
<trkpt lat="36.778405" lon="137.789984">
<ele>2615.825095</ele>
<time>2014-08-19T00:29:52Z</time>
<desc><![CDATA[lat.=36.778405, lon.=137.789984, Alt.=2615.825095m. Speed=1.000000m/h.]]></desc>
</trkpt>
<trkpt lat="36.778430" lon="137.789992">
<ele>2617.083138</ele>
<time>2014-08-19T00:29:57Z</time>
<desc><![CDATA[lat.=36.778430, lon.=137.789992, Alt.=2617.083138m. Speed=1.000000m/h.]]></desc>
</trkpt>
<trkpt lat="36.778456" lon="137.790002">
<ele>2614.880976</ele>
<time>2014-08-19T00:30:02Z</time>
<desc><![CDATA[lat.=36.778456, lon.=137.790002, Alt.=2614.880976m. Speed=2.000000m/h.]]></desc>
</trkpt>
<trkpt lat="36.778494" lon="137.789989">
<ele>2612.629143</ele>
<time>2014-08-19T00:30:07Z</time>
<desc><![CDATA[lat.=36.778494, lon.=137.789989, Alt.=2612.629143m. Speed=3.000000m/h.]]></desc>
</trkpt>
<trkpt lat="36.778519" lon="137.790030">
<ele>2610.537256</ele>
<time>2014-08-19T00:30:12Z</time>
<desc><![CDATA[lat.=36.778519, lon.=137.790030, Alt.=2610.537256m. Speed=3.000000m/h.]]></desc>
</trkpt>
<trkpt lat="36.778533" lon="137.790078">
<ele>2610.170010</ele>
<time>2014-08-19T00:30:17Z</time>
<desc><![CDATA[lat.=36.778533, lon.=137.790078, Alt.=2610.170010m. Speed=3.000000m/h.]]></desc>
</trkpt>
<trkpt lat="36.778539" lon="137.790142">
<ele>2609.259182</ele>
<time>2014-08-19T00:30:22Z</time>
<desc><![CDATA[lat.=36.778539, lon.=137.790142, Alt.=2609.259182m. Speed=4.000000m/h.]]></desc>
</trkpt>
<trkpt lat="36.778542" lon="137.790182">
<ele>2608.831340</ele>
<time>2014-08-19T00:30:27Z</time>
<desc><![CDATA[lat.=36.778542, lon.=137.790182, Alt.=2608.831340m. Speed=3.000000m/h.]]></desc>
</trkpt>
<trkpt lat="36.778556" lon="137.790231">
<ele>2606.734001</ele>
<time>2014-08-19T00:30:32Z</time>
<desc><![CDATA[lat.=36.778556, lon.=137.790231, Alt.=2606.734001m. Speed=3.000000m/h.]]></desc>
</trkpt>
<trkpt lat="36.778582" lon="137.790273">
<ele>2604.642129</ele>
<time>2014-08-19T00:30:37Z</time>
<desc><![CDATA[lat.=36.778582, lon.=137.790273, Alt.=2604.642129m. Speed=3.000000m/h.]]></desc>
</trkpt>
<trkpt lat="36.778621" lon="137.790313">
<ele>2605.477813</ele>
<time>2014-08-19T00:30:42Z</time>
<desc><![CDATA[lat.=36.778621, lon.=137.790313, Alt.=2605.477813m. Speed=4.000000m/h.]]></desc>
</trkpt>
<trkpt lat="36.778635" lon="137.790346">
<ele>2605.055444</ele>
<time>2014-08-19T00:30:47Z</time>
<desc><![CDATA[lat.=36.778635, lon.=137.790346, Alt.=2605.055444m. Speed=3.000000m/h.]]></desc>
</trkpt>
<trkpt lat="36.778638" lon="137.790402">
<ele>2602.952653</ele>
<time>2014-08-19T00:30:52Z</time>
<desc><![CDATA[lat.=36.778638, lon.=137.790402, Alt.=2602.952653m. Speed=4.000000m/h.]]></desc>
</trkpt>
<trkpt lat="36.778622" lon="137.790465">
<ele>2603.705883</ele>
<time>2014-08-19T00:30:57Z</time>
<desc><![CDATA[lat.=36.778622, lon.=137.790465, Alt.=2603.705883m. Speed=4.000000m/h.]]></desc>
</trkpt>
<trkpt lat="36.778624" lon="137.790520">
<ele>2605.063306</ele>
<time>2014-08-19T00:31:02Z</time>
<desc><![CDATA[lat.=36.778624, lon.=137.790520, Alt.=2605.063306m. Speed=4.000000m/h.]]></desc>
</trkpt>
<trkpt lat="36.778660" lon="137.790553">
<ele>2604.707018</ele>
<time>2014-08-19T00:31:07Z</time>
<desc><![CDATA[lat.=36.778660, lon.=137.790553, Alt.=2604.707018m. Speed=3.000000m/h.]]></desc>
</trkpt>
<trkpt lat="36.778664" lon="137.790562">
<ele>2602.438800</ele>
<time>2014-08-19T00:31:12Z</time>
<desc><![CDATA[lat.=36.778664, lon.=137.790562, Alt.=2602.438800m. Speed=0.000000m/h.]]></desc>
</trkpt>
<trkpt lat="36.778664" lon="137.790594">
<ele>2600.818992</ele>
<time>2014-08-19T00:31:17Z</time>
<desc><![CDATA[lat.=36.778664, lon.=137.790594, Alt.=2600.818992m. Speed=2.000000m/h.]]></desc>
</trkpt>
<trkpt lat="36.778692" lon="137.790627">
<ele>2601.594087</ele>
<time>2014-08-19T00:31:22Z</time>
<desc><![CDATA[lat.=36.778692, lon.=137.790627, Alt.=2601.594087m. Speed=2.000000m/h.]]></desc>
</trkpt>
<trkpt lat="36.778729" lon="137.790644">
<ele>2601.182660</ele>
<time>2014-08-19T00:31:27Z</time>
<desc><![CDATA[lat.=36.778729, lon.=137.790644, Alt.=2601.182660m. Speed=3.000000m/h.]]></desc>
</trkpt>
<trkpt lat="36.778762" lon="137.790671">
<ele>2597.904293</ele>
<time>2014-08-19T00:31:32Z</time>
<desc><![CDATA[lat.=36.778762, lon.=137.790671, Alt.=2597.904293m. Speed=3.000000m/h.]]></desc>
</trkpt>
<trkpt lat="36.778776" lon="137.790686">
<ele>2599.156896</ele>
<time>2014-08-19T00:31:37Z</time>
<desc><![CDATA[lat.=36.778776, lon.=137.790686, Alt.=2599.156896m. Speed=3.000000m/h.]]></desc>
</trkpt>
<trkpt lat="36.778794" lon="137.790711">
<ele>2599.871386</ele>
<time>2014-08-19T00:31:42Z</time>
<desc><![CDATA[lat.=36.778794, lon.=137.790711, Alt.=2599.871386m. Speed=2.000000m/h.]]></desc>
</trkpt>
<trkpt lat="36.778823" lon="137.790744">
<ele>2598.916391</ele>
<time>2014-08-19T00:31:47Z</time>
<desc><![CDATA[lat.=36.778823, lon.=137.790744, Alt.=2598.916391m. Speed=3.000000m/h.]]></desc>
</trkpt>
<trkpt lat="36.778848" lon="137.790785">
<ele>2596.824559</ele>
<time>2014-08-19T00:31:52Z</time>
<desc><![CDATA[lat.=36.778848, lon.=137.790785, Alt.=2596.824559m. Speed=3.000000m/h.]]></desc>
</trkpt>
<trkpt lat="36.778866" lon="137.790826">
<ele>2595.864104</ele>
<time>2014-08-19T00:31:57Z</time>
<desc><![CDATA[lat.=36.778866, lon.=137.790826, Alt.=2595.864104m. Speed=3.000000m/h.]]></desc>
</trkpt>
<trkpt lat="36.778888" lon="137.790812">
<ele>2594.144933</ele>
<time>2014-08-19T00:32:02Z</time>
<desc><![CDATA[lat.=36.778888, lon.=137.790812, Alt.=2594.144933m. Speed=3.000000m/h.]]></desc>
</trkpt>
<trkpt lat="36.778890" lon="137.790764">
<ele>2593.979480</ele>
<time>2014-08-19T00:32:07Z</time>
<desc><![CDATA[lat.=36.778890, lon.=137.790764, Alt.=2593.979480m. Speed=3.000000m/h.]]></desc>
</trkpt>
<trkpt lat="36.778913" lon="137.790718">
<ele>2592.150011</ele>
<time>2014-08-19T00:32:12Z</time>
<desc><![CDATA[lat.=36.778913, lon.=137.790718, Alt.=2592.150011m. Speed=3.000000m/h.]]></desc>
</trkpt>
<trkpt lat="36.778917" lon="137.790711">
<ele>2591.556749</ele>
<time>2014-08-19T00:32:17Z</time>
<desc><![CDATA[lat.=36.778917, lon.=137.790711, Alt.=2591.556749m. Speed=0.000000m/h.]]></desc>
</trkpt>
<trkpt lat="36.778916" lon="137.790709">
<ele>2595.016954</ele>
<time>2014-08-19T00:32:22Z</time>
<desc><![CDATA[lat.=36.778916, lon.=137.790709, Alt.=2595.016954m. Speed=0.000000m/h.]]></desc>
</trkpt>
<trkpt lat="36.778924" lon="137.790727">
<ele>2592.210628</ele>
<time>2014-08-19T00:32:27Z</time>
<desc><![CDATA[lat.=36.778924, lon.=137.790727, Alt.=2592.210628m. Speed=0.000000m/h.]]></desc>
</trkpt>
<trkpt lat="36.778920" lon="137.790718">
<ele>2594.478842</ele>
<time>2014-08-19T00:32:32Z</time>
<desc><![CDATA[lat.=36.778920, lon.=137.790718, Alt.=2594.478842m. Speed=0.000000m/h.]]></desc>
</trkpt>
<trkpt lat="36.778927" lon="137.790718">
<ele>2595.077571</ele>
<time>2014-08-19T00:32:37Z</time>
<desc><![CDATA[lat.=36.778927, lon.=137.790718, Alt.=2595.077571m. Speed=0.000000m/h.]]></desc>
</trkpt>
<trkpt lat="36.778928" lon="137.790718">
<ele>2593.347469</ele>
<time>2014-08-19T00:32:42Z</time>
<desc><![CDATA[lat.=36.778928, lon.=137.790718, Alt.=2593.347469m. Speed=0.000000m/h.]]></desc>
</trkpt>
<trkpt lat="36.778931" lon="137.790727">
<ele>2592.809357</ele>
<time>2014-08-19T00:32:47Z</time>
<desc><![CDATA[lat.=36.778931, lon.=137.790727, Alt.=2592.809357m. Speed=0.000000m/h.]]></desc>
</trkpt>
<trkpt lat="36.778934" lon="137.790767">
<ele>2590.651443</ele>
<time>2014-08-19T00:32:52Z</time>
<desc><![CDATA[lat.=36.778934, lon.=137.790767, Alt.=2590.651443m. Speed=2.000000m/h.]]></desc>
</trkpt>
<trkpt lat="36.778945" lon="137.790808">
<ele>2589.092261</ele>
<time>2014-08-19T00:32:57Z</time>
<desc><![CDATA[lat.=36.778945, lon.=137.790808, Alt.=2589.092261m. Speed=2.000000m/h.]]></desc>
</trkpt>
<trkpt lat="36.778964" lon="137.790785">
<ele>2589.641307</ele>
<time>2014-08-19T00:33:02Z</time>
<desc><![CDATA[lat.=36.778964, lon.=137.790785, Alt.=2589.641307m. Speed=2.000000m/h.]]></desc>
</trkpt>
<trkpt lat="36.778989" lon="137.790810">
<ele>2587.494332</ele>
<time>2014-08-19T00:33:07Z</time>
<desc><![CDATA[lat.=36.778989, lon.=137.790810, Alt.=2587.494332m. Speed=3.000000m/h.]]></desc>
</trkpt>
<trkpt lat="36.779008" lon="137.790836">
<ele>2584.748630</ele>
<time>2014-08-19T00:33:12Z</time>
<desc><![CDATA[lat.=36.779008, lon.=137.790836, Alt.=2584.748630m. Speed=3.000000m/h.]]></desc>
</trkpt>
<trkpt lat="36.779014" lon="137.790884">
<ele>2583.782715</ele>
<time>2014-08-19T00:33:17Z</time>
<desc><![CDATA[lat.=36.779014, lon.=137.790884, Alt.=2583.782715m. Speed=3.000000m/h.]]></desc>
</trkpt>
<trkpt lat="36.779040" lon="137.790893">
<ele>2583.310695</ele>
<time>2014-08-19T00:33:22Z</time>
<desc><![CDATA[lat.=36.779040, lon.=137.790893, Alt.=2583.310695m. Speed=3.000000m/h.]]></desc>
</trkpt>
<trkpt lat="36.779085" lon="137.790880">
<ele>2581.657621</ele>
<time>2014-08-19T00:33:27Z</time>
<desc><![CDATA[lat.=36.779085, lon.=137.790880, Alt.=2581.657621m. Speed=3.000000m/h.]]></desc>
</trkpt>
<trkpt lat="36.779103" lon="137.790920">
<ele>2580.697180</ele>
<time>2014-08-19T00:33:32Z</time>
<desc><![CDATA[lat.=36.779103, lon.=137.790920, Alt.=2580.697180m. Speed=3.000000m/h.]]></desc>
</trkpt>
<trkpt lat="36.779120" lon="137.790977">
<ele>2579.791895</ele>
<time>2014-08-19T00:33:37Z</time>
<desc><![CDATA[lat.=36.779120, lon.=137.790977, Alt.=2579.791895m. Speed=3.000000m/h.]]></desc>
</trkpt>
<trkpt lat="36.779123" lon="137.791016">
<ele>2581.094199</ele>
<time>2014-08-19T00:33:42Z</time>
<desc><![CDATA[lat.=36.779123, lon.=137.791016, Alt.=2581.094199m. Speed=3.000000m/h.]]></desc>
</trkpt>
<trkpt lat="36.779166" lon="137.791017">
<ele>2582.956490</ele>
<time>2014-08-19T00:33:47Z</time>
<desc><![CDATA[lat.=36.779166, lon.=137.791017, Alt.=2582.956490m. Speed=3.000000m/h.]]></desc>
</trkpt>
<trkpt lat="36.779195" lon="137.791050">
<ele>2582.001528</ele>
<time>2014-08-19T00:33:52Z</time>
<desc><![CDATA[lat.=36.779195, lon.=137.791050, Alt.=2582.001528m. Speed=3.000000m/h.]]></desc>
</trkpt>
<trkpt lat="36.779217" lon="137.791084">
<ele>2578.717734</ele>
<time>2014-08-19T00:33:57Z</time>
<desc><![CDATA[lat.=36.779217, lon.=137.791084, Alt.=2578.717734m. Speed=3.000000m/h.]]></desc>
</trkpt>
<trkpt lat="36.779224" lon="137.791149">
<ele>2576.076893</ele>
<time>2014-08-19T00:34:02Z</time>
<desc><![CDATA[lat.=36.779224, lon.=137.791149, Alt.=2576.076893m. Speed=4.000000m/h.]]></desc>
</trkpt>
<trkpt lat="36.779252" lon="137.791198">
<ele>2575.177099</ele>
<time>2014-08-19T00:34:07Z</time>
<desc><![CDATA[lat.=36.779252, lon.=137.791198, Alt.=2575.177099m. Speed=4.000000m/h.]]></desc>
</trkpt>
<trkpt lat="36.779284" lon="137.791238">
<ele>2577.144248</ele>
<time>2014-08-19T00:34:12Z</time>
<desc><![CDATA[lat.=36.779284, lon.=137.791238, Alt.=2577.144248m. Speed=4.000000m/h.]]></desc>
</trkpt>
<trkpt lat="36.779305" lon="137.791270">
<ele>2577.320669</ele>
<time>2014-08-19T00:34:17Z</time>
<desc><![CDATA[lat.=36.779305, lon.=137.791270, Alt.=2577.320669m. Speed=3.000000m/h.]]></desc>
</trkpt>
<trkpt lat="36.779339" lon="137.791263">
<ele>2577.392243</ele>
<time>2014-08-19T00:34:22Z</time>
<desc><![CDATA[lat.=36.779339, lon.=137.791263, Alt.=2577.392243m. Speed=3.000000m/h.]]></desc>
</trkpt>
<trkpt lat="36.779387" lon="137.791242">
<ele>2576.876028</ele>
<time>2014-08-19T00:34:27Z</time>
<desc><![CDATA[lat.=36.779387, lon.=137.791242, Alt.=2576.876028m. Speed=4.000000m/h.]]></desc>
</trkpt>
<trkpt lat="36.779426" lon="137.791299">
<ele>2576.036881</ele>
<time>2014-08-19T00:34:32Z</time>
<desc><![CDATA[lat.=36.779426, lon.=137.791299, Alt.=2576.036881m. Speed=4.000000m/h.]]></desc>
</trkpt>
<trkpt lat="36.779452" lon="137.791325">
<ele>2573.889946</ele>
<time>2014-08-19T00:34:37Z</time>
<desc><![CDATA[lat.=36.779452, lon.=137.791325, Alt.=2573.889946m. Speed=4.000000m/h.]]></desc>
</trkpt>
<trkpt lat="36.779504" lon="137.791359">
<ele>2571.271021</ele>
<time>2014-08-19T00:34:42Z</time>
<desc><![CDATA[lat.=36.779504, lon.=137.791359, Alt.=2571.271021m. Speed=4.000000m/h.]]></desc>
</trkpt>
<trkpt lat="36.779525" lon="137.791392">
<ele>2571.447456</ele>
<time>2014-08-19T00:34:47Z</time>
<desc><![CDATA[lat.=36.779525, lon.=137.791392, Alt.=2571.447456m. Speed=4.000000m/h.]]></desc>
</trkpt>
<trkpt lat="36.779557" lon="137.791433">
<ele>2569.954430</ele>
<time>2014-08-19T00:34:52Z</time>
<desc><![CDATA[lat.=36.779557, lon.=137.791433, Alt.=2569.954430m. Speed=4.000000m/h.]]></desc>
</trkpt>
<trkpt lat="36.779574" lon="137.791371">
<ele>2569.201154</ele>
<time>2014-08-19T00:34:57Z</time>
<desc><![CDATA[lat.=36.779574, lon.=137.791371, Alt.=2569.201154m. Speed=4.000000m/h.]]></desc>
</trkpt>
<trkpt lat="36.779607" lon="137.791364">
<ele>2569.272744</ele>
<time>2014-08-19T00:35:02Z</time>
<desc><![CDATA[lat.=36.779607, lon.=137.791364, Alt.=2569.272744m. Speed=4.000000m/h.]]></desc>
</trkpt>
<trkpt lat="36.779639" lon="137.791405">
<ele>2569.509822</ele>
<time>2014-08-19T00:35:07Z</time>
<desc><![CDATA[lat.=36.779639, lon.=137.791405, Alt.=2569.509822m. Speed=3.000000m/h.]]></desc>
</trkpt>
<trkpt lat="36.779674" lon="137.791367">
<ele>2567.740990</ele>
<time>2014-08-19T00:35:12Z</time>
<desc><![CDATA[lat.=36.779674, lon.=137.791367, Alt.=2567.740990m. Speed=4.000000m/h.]]></desc>
</trkpt>
<trkpt lat="36.779699" lon="137.791409">
<ele>2563.919131</ele>
<time>2014-08-19T00:35:17Z</time>
<desc><![CDATA[lat.=36.779699, lon.=137.791409, Alt.=2563.919131m. Speed=3.000000m/h.]]></desc>
</trkpt>
<trkpt lat="36.779729" lon="137.791378">
<ele>2564.473665</ele>
<time>2014-08-19T00:35:22Z</time>
<desc><![CDATA[lat.=36.779729, lon.=137.791378, Alt.=2564.473665m. Speed=3.000000m/h.]]></desc>
</trkpt>
<trkpt lat="36.779756" lon="137.791357">
<ele>2562.161261</ele>
<time>2014-08-19T00:35:27Z</time>
<desc><![CDATA[lat.=36.779756, lon.=137.791357, Alt.=2562.161261m. Speed=3.000000m/h.]]></desc>
</trkpt>
<trkpt lat="36.779794" lon="137.791326">
<ele>2561.584441</ele>
<time>2014-08-19T00:35:32Z</time>
<desc><![CDATA[lat.=36.779794, lon.=137.791326, Alt.=2561.584441m. Speed=4.000000m/h.]]></desc>
</trkpt>
<trkpt lat="36.779834" lon="137.791352">
<ele>2560.635008</ele>
<time>2014-08-19T00:35:37Z</time>
<desc><![CDATA[lat.=36.779834, lon.=137.791352, Alt.=2560.635008m. Speed=4.000000m/h.]]></desc>
</trkpt>
<trkpt lat="36.779844" lon="137.791409">
<ele>2559.131037</ele>
<time>2014-08-19T00:35:42Z</time>
<desc><![CDATA[lat.=36.779844, lon.=137.791409, Alt.=2559.131037m. Speed=4.000000m/h.]]></desc>
</trkpt>
<trkpt lat="36.779854" lon="137.791465">
<ele>2557.627069</ele>
<time>2014-08-19T00:35:47Z</time>
<desc><![CDATA[lat.=36.779854, lon.=137.791465, Alt.=2557.627069m. Speed=3.000000m/h.]]></desc>
</trkpt>
<trkpt lat="36.779883" lon="137.791498">
<ele>2556.672164</ele>
<time>2014-08-19T00:35:52Z</time>
<desc><![CDATA[lat.=36.779883, lon.=137.791498, Alt.=2556.672164m. Speed=3.000000m/h.]]></desc>
</trkpt>
<trkpt lat="36.779932" lon="137.791493">
<ele>2554.481057</ele>
<time>2014-08-19T00:35:57Z</time>
<desc><![CDATA[lat.=36.779932, lon.=137.791493, Alt.=2554.481057m. Speed=4.000000m/h.]]></desc>
</trkpt>
<trkpt lat="36.779973" lon="137.791456">
<ele>2553.310984</ele>
<time>2014-08-19T00:36:02Z</time>
<desc><![CDATA[lat.=36.779973, lon.=137.791456, Alt.=2553.310984m. Speed=4.000000m/h.]]></desc>
</trkpt>
<trkpt lat="36.780015" lon="137.791434">
<ele>2550.465978</ele>
<time>2014-08-19T00:36:07Z</time>
<desc><![CDATA[lat.=36.780015, lon.=137.791434, Alt.=2550.465978m. Speed=4.000000m/h.]]></desc>
</trkpt>
<trkpt lat="36.780056" lon="137.791428">
<ele>2549.406240</ele>
<time>2014-08-19T00:36:12Z</time>
<desc><![CDATA[lat.=36.780056, lon.=137.791428, Alt.=2549.406240m. Speed=4.000000m/h.]]></desc>
</trkpt>
<trkpt lat="36.780092" lon="137.791462">
<ele>2547.319989</ele>
<time>2014-08-19T00:36:17Z</time>
<desc><![CDATA[lat.=36.780092, lon.=137.791462, Alt.=2547.319989m. Speed=4.000000m/h.]]></desc>
</trkpt>
<trkpt lat="36.780125" lon="137.791504">
<ele>2545.827002</ele>
<time>2014-08-19T00:36:22Z</time>
<desc><![CDATA[lat.=36.780125, lon.=137.791504, Alt.=2545.827002m. Speed=4.000000m/h.]]></desc>
</trkpt>
<trkpt lat="36.780150" lon="137.791545">
<ele>2543.735274</ele>
<time>2014-08-19T00:36:27Z</time>
<desc><![CDATA[lat.=36.780150, lon.=137.791545, Alt.=2543.735274m. Speed=3.000000m/h.]]></desc>
</trkpt>
<trkpt lat="36.780198" lon="137.791572">
<ele>2541.654522</ele>
<time>2014-08-19T00:36:32Z</time>
<desc><![CDATA[lat.=36.780198, lon.=137.791572, Alt.=2541.654522m. Speed=4.000000m/h.]]></desc>
</trkpt>
<trkpt lat="36.780250" lon="137.791575">
<ele>2538.925350</ele>
<time>2014-08-19T00:36:37Z</time>
<desc><![CDATA[lat.=36.780250, lon.=137.791575, Alt.=2538.925350m. Speed=4.000000m/h.]]></desc>
</trkpt>
<trkpt lat="36.780302" lon="137.791561">
<ele>2537.871118</ele>
<time>2014-08-19T00:36:42Z</time>
<desc><![CDATA[lat.=36.780302, lon.=137.791561, Alt.=2537.871118m. Speed=4.000000m/h.]]></desc>
</trkpt>
<trkpt lat="36.780322" lon="137.791506">
<ele>2538.309862</ele>
<time>2014-08-19T00:36:47Z</time>
<desc><![CDATA[lat.=36.780322, lon.=137.791506, Alt.=2538.309862m. Speed=4.000000m/h.]]></desc>
</trkpt>
<trkpt lat="36.780358" lon="137.791491">
<ele>2539.518342</ele>
<time>2014-08-19T00:36:52Z</time>
<desc><![CDATA[lat.=36.780358, lon.=137.791491, Alt.=2539.518342m. Speed=3.000000m/h.]]></desc>
</trkpt>
<trkpt lat="36.780406" lon="137.791501">
<ele>2539.112544</ele>
<time>2014-08-19T00:36:57Z</time>
<desc><![CDATA[lat.=36.780406, lon.=137.791501, Alt.=2539.112544m. Speed=4.000000m/h.]]></desc>
</trkpt>
<trkpt lat="36.780450" lon="137.791519">
<ele>2537.569907</ele>
<time>2014-08-19T00:37:02Z</time>
<desc><![CDATA[lat.=36.780450, lon.=137.791519, Alt.=2537.569907m. Speed=4.000000m/h.]]></desc>
</trkpt>
<trkpt lat="36.780475" lon="137.791577">
<ele>2535.533360</ele>
<time>2014-08-19T00:37:07Z</time>
<desc><![CDATA[lat.=36.780475, lon.=137.791577, Alt.=2535.533360m. Speed=4.000000m/h.]]></desc>
</trkpt>
<trkpt lat="36.780508" lon="137.791619">
<ele>2532.310303</ele>
<time>2014-08-19T00:37:12Z</time>
<desc><![CDATA[lat.=36.780508, lon.=137.791619, Alt.=2532.310303m. Speed=4.000000m/h.]]></desc>
</trkpt>
<trkpt lat="36.780537" lon="137.791668">
<ele>2531.410609</ele>
<time>2014-08-19T00:37:17Z</time>
<desc><![CDATA[lat.=36.780537, lon.=137.791668, Alt.=2531.410609m. Speed=4.000000m/h.]]></desc>
</trkpt>
<trkpt lat="36.780582" lon="137.791654">
<ele>2529.757652</ele>
<time>2014-08-19T00:37:22Z</time>
<desc><![CDATA[lat.=36.780582, lon.=137.791654, Alt.=2529.757652m. Speed=4.000000m/h.]]></desc>
</trkpt>
<trkpt lat="36.780623" lon="137.791633">
<ele>2528.642790</ele>
<time>2014-08-19T00:37:27Z</time>
<desc><![CDATA[lat.=36.780623, lon.=137.791633, Alt.=2528.642790m. Speed=4.000000m/h.]]></desc>
</trkpt>
<trkpt lat="36.780664" lon="137.791610">
<ele>2529.258032</ele>
<time>2014-08-19T00:37:32Z</time>
<desc><![CDATA[lat.=36.780664, lon.=137.791610, Alt.=2529.258032m. Speed=4.000000m/h.]]></desc>
</trkpt>
<trkpt lat="36.780701" lon="137.791580">
<ele>2528.681269</ele>
<time>2014-08-19T00:37:37Z</time>
<desc><![CDATA[lat.=36.780701, lon.=137.791580, Alt.=2528.681269m. Speed=4.000000m/h.]]></desc>
</trkpt>
<trkpt lat="36.780739" lon="137.791566">
<ele>2528.159674</ele>
<time>2014-08-19T00:37:42Z</time>
<desc><![CDATA[lat.=36.780739, lon.=137.791566, Alt.=2528.159674m. Speed=4.000000m/h.]]></desc>
</trkpt>
<trkpt lat="36.780769" lon="137.791519">
<ele>2528.659098</ele>
<time>2014-08-19T00:37:47Z</time>
<desc><![CDATA[lat.=36.780769, lon.=137.791519, Alt.=2528.659098m. Speed=3.000000m/h.]]></desc>
</trkpt>
<trkpt lat="36.780788" lon="137.791481">
<ele>2527.422926</ele>
<time>2014-08-19T00:37:52Z</time>
<desc><![CDATA[lat.=36.780788, lon.=137.791481, Alt.=2527.422926m. Speed=3.000000m/h.]]></desc>
</trkpt>
<trkpt lat="36.780833" lon="137.791499">
<ele>2525.880321</ele>
<time>2014-08-19T00:37:57Z</time>
<desc><![CDATA[lat.=36.780833, lon.=137.791499, Alt.=2525.880321m. Speed=3.000000m/h.]]></desc>
</trkpt>
<trkpt lat="36.780866" lon="137.791509">
<ele>2522.546954</ele>
<time>2014-08-19T00:38:02Z</time>
<desc><![CDATA[lat.=36.780866, lon.=137.791509, Alt.=2522.546954m. Speed=3.000000m/h.]]></desc>
</trkpt>
<trkpt lat="36.780903" lon="137.791494">
<ele>2523.755473</ele>
<time>2014-08-19T00:38:07Z</time>
<desc><![CDATA[lat.=36.780903, lon.=137.791494, Alt.=2523.755473m. Speed=3.000000m/h.]]></desc>
</trkpt>
<trkpt lat="36.780936" lon="137.791488">
<ele>2523.827147</ele>
<time>2014-08-19T00:38:12Z</time>
<desc><![CDATA[lat.=36.780936, lon.=137.791488, Alt.=2523.827147m. Speed=3.000000m/h.]]></desc>
</trkpt>
<trkpt lat="36.780958" lon="137.791488">
<ele>2523.893319</ele>
<time>2014-08-19T00:38:17Z</time>
<desc><![CDATA[lat.=36.780958, lon.=137.791488, Alt.=2523.893319m. Speed=3.000000m/h.]]></desc>
</trkpt>
<trkpt lat="36.781007" lon="137.791467">
<ele>2521.647150</ele>
<time>2014-08-19T00:38:22Z</time>
<desc><![CDATA[lat.=36.781007, lon.=137.791467, Alt.=2521.647150m. Speed=3.000000m/h.]]></desc>
</trkpt>
<trkpt lat="36.781052" lon="137.791454">
<ele>2519.994237</ele>
<time>2014-08-19T00:38:27Z</time>
<desc><![CDATA[lat.=36.781052, lon.=137.791454, Alt.=2519.994237m. Speed=3.000000m/h.]]></desc>
</trkpt>
<trkpt lat="36.781104" lon="137.791456">
<ele>2518.995251</ele>
<time>2014-08-19T00:38:32Z</time>
<desc><![CDATA[lat.=36.781104, lon.=137.791456, Alt.=2518.995251m. Speed=4.000000m/h.]]></desc>
</trkpt>
<trkpt lat="36.781129" lon="137.791497">
<ele>2518.633668</ele>
<time>2014-08-19T00:38:37Z</time>
<desc><![CDATA[lat.=36.781129, lon.=137.791497, Alt.=2518.633668m. Speed=4.000000m/h.]]></desc>
</trkpt>
<trkpt lat="36.781150" lon="137.791513">
<ele>2518.755012</ele>
<time>2014-08-19T00:38:42Z</time>
<desc><![CDATA[lat.=36.781150, lon.=137.791513, Alt.=2518.755012m. Speed=3.000000m/h.]]></desc>
</trkpt>
<trkpt lat="36.781147" lon="137.791521">
<ele>2519.348264</ele>
<time>2014-08-19T00:38:47Z</time>
<desc><![CDATA[lat.=36.781147, lon.=137.791521, Alt.=2519.348264m. Speed=0.000000m/h.]]></desc>
</trkpt>
<trkpt lat="36.781147" lon="137.791522">
<ele>2517.618164</ele>
<time>2014-08-19T00:38:52Z</time>
<desc><![CDATA[lat.=36.781147, lon.=137.791522, Alt.=2517.618164m. Speed=0.000000m/h.]]></desc>
</trkpt>
<trkpt lat="36.781144" lon="137.791531">
<ele>2514.751216</ele>
<time>2014-08-19T00:38:57Z</time>
<desc><![CDATA[lat.=36.781144, lon.=137.791531, Alt.=2514.751216m. Speed=0.000000m/h.]]></desc>
</trkpt>
<trkpt lat="36.781140" lon="137.791539">
<ele>2513.614368</ele>
<time>2014-08-19T00:39:02Z</time>
<desc><![CDATA[lat.=36.781140, lon.=137.791539, Alt.=2513.614368m. Speed=0.000000m/h.]]></desc>
</trkpt>
<trkpt lat="36.781137" lon="137.791531">
<ele>2514.152456</ele>
<time>2014-08-19T00:39:13Z</time>
<desc><![CDATA[lat.=36.781137, lon.=137.791531, Alt.=2514.152456m. Speed=1.000000m/h.]]></desc>
</trkpt>
<trkpt lat="36.781158" lon="137.791563">
<ele>2514.328965</ele>
<time>2014-08-19T00:39:18Z</time>
<desc><![CDATA[lat.=36.781158, lon.=137.791563, Alt.=2514.328965m. Speed=2.000000m/h.]]></desc>
</trkpt>
<trkpt lat="36.781150" lon="137.791562">
<ele>2515.460305</ele>
<time>2014-08-19T00:39:23Z</time>
<desc><![CDATA[lat.=36.781150, lon.=137.791562, Alt.=2515.460305m. Speed=2.000000m/h.]]></desc>
</trkpt>
<trkpt lat="36.781150" lon="137.791562">
<ele>2517.190405</ele>
<time>2014-08-19T00:39:28Z</time>
<desc><![CDATA[lat.=36.781150, lon.=137.791562, Alt.=2517.190405m. Speed=0.000000m/h.]]></desc>
</trkpt>
<trkpt lat="36.781157" lon="137.791562">
<ele>2517.789165</ele>
<time>2014-08-19T00:39:33Z</time>
<desc><![CDATA[lat.=36.781157, lon.=137.791562, Alt.=2517.789165m. Speed=0.000000m/h.]]></desc>
</trkpt>
<trkpt lat="36.781182" lon="137.791586">
<ele>2517.372424</ele>
<time>2014-08-19T00:39:38Z</time>
<desc><![CDATA[lat.=36.781182, lon.=137.791586, Alt.=2517.372424m. Speed=2.000000m/h.]]></desc>
</trkpt>
<trkpt lat="36.781222" lon="137.791628">
<ele>2516.478273</ele>
<time>2014-08-19T00:39:43Z</time>
<desc><![CDATA[lat.=36.781222, lon.=137.791628, Alt.=2516.478273m. Speed=3.000000m/h.]]></desc>
</trkpt>
<trkpt lat="36.781270" lon="137.791639">
<ele>2514.342457</ele>
<time>2014-08-19T00:39:48Z</time>
<desc><![CDATA[lat.=36.781270, lon.=137.791639, Alt.=2514.342457m. Speed=3.000000m/h.]]></desc>
</trkpt>
<trkpt lat="36.781299" lon="137.791639">
<ele>2515.007406</ele>
<time>2014-08-19T00:39:53Z</time>
<desc><![CDATA[lat.=36.781299, lon.=137.791639, Alt.=2515.007406m. Speed=3.000000m/h.]]></desc>
</trkpt>
<trkpt lat="36.781336" lon="137.791657">
<ele>2512.866086</ele>
<time>2014-08-19T00:39:58Z</time>
<desc><![CDATA[lat.=36.781336, lon.=137.791657, Alt.=2512.866086m. Speed=3.000000m/h.]]></desc>
</trkpt>
<trkpt lat="36.781388" lon="137.791661">
<ele>2510.137029</ele>
<time>2014-08-19T00:40:03Z</time>
<desc><![CDATA[lat.=36.781388, lon.=137.791661, Alt.=2510.137029m. Speed=4.000000m/h.]]></desc>
</trkpt>
<trkpt lat="36.781414" lon="137.791702">
<ele>2508.045370</ele>
<time>2014-08-19T00:40:08Z</time>
<desc><![CDATA[lat.=36.781414, lon.=137.791702, Alt.=2508.045370m. Speed=4.000000m/h.]]></desc>
</trkpt>
<trkpt lat="36.781450" lon="137.791751">
<ele>2507.744495</ele>
<time>2014-08-19T00:40:13Z</time>
<desc><![CDATA[lat.=36.781450, lon.=137.791751, Alt.=2507.744495m. Speed=4.000000m/h.]]></desc>
</trkpt>
<trkpt lat="36.781498" lon="137.791745">
<ele>2507.283633</ele>
<time>2014-08-19T00:40:18Z</time>
<desc><![CDATA[lat.=36.781498, lon.=137.791745, Alt.=2507.283633m. Speed=4.000000m/h.]]></desc>
</trkpt>
<trkpt lat="36.781550" lon="137.791732">
<ele>2506.229524</ele>
<time>2014-08-19T00:40:23Z</time>
<desc><![CDATA[lat.=36.781550, lon.=137.791732, Alt.=2506.229524m. Speed=4.000000m/h.]]></desc>
</trkpt>
<trkpt lat="36.781597" lon="137.791758">
<ele>2504.148908</ele>
<time>2014-08-19T00:40:28Z</time>
<desc><![CDATA[lat.=36.781597, lon.=137.791758, Alt.=2504.148908m. Speed=4.000000m/h.]]></desc>
</trkpt>
<trkpt lat="36.781615" lon="137.791814">
<ele>2503.243766</ele>
<time>2014-08-19T00:40:33Z</time>
<desc><![CDATA[lat.=36.781615, lon.=137.791814, Alt.=2503.243766m. Speed=4.000000m/h.]]></desc>
</trkpt>
<trkpt lat="36.781655" lon="137.791824">
<ele>2502.239321</ele>
<time>2014-08-19T00:40:38Z</time>
<desc><![CDATA[lat.=36.781655, lon.=137.791824, Alt.=2502.239321m. Speed=4.000000m/h.]]></desc>
</trkpt>
<trkpt lat="36.781644" lon="137.791814">
<ele>2505.638834</ele>
<time>2014-08-19T00:40:43Z</time>
<desc><![CDATA[lat.=36.781644, lon.=137.791814, Alt.=2505.638834m. Speed=0.000000m/h.]]></desc>
</trkpt>
<trkpt lat="36.781640" lon="137.791807">
<ele>2504.446816</ele>
<time>2014-08-19T00:40:48Z</time>
<desc><![CDATA[lat.=36.781640, lon.=137.791807, Alt.=2504.446816m. Speed=0.000000m/h.]]></desc>
</trkpt>
<trkpt lat="36.781647" lon="137.791823">
<ele>2505.100752</ele>
<time>2014-08-19T00:40:53Z</time>
<desc><![CDATA[lat.=36.781647, lon.=137.791823, Alt.=2505.100752m. Speed=0.000000m/h.]]></desc>
</trkpt>
<trkpt lat="36.781669" lon="137.791839">
<ele>2505.222125</ele>
<time>2014-08-19T00:40:58Z</time>
<desc><![CDATA[lat.=36.781669, lon.=137.791839, Alt.=2505.222125m. Speed=1.000000m/h.]]></desc>
</trkpt>
<trkpt lat="36.781670" lon="137.791841">
<ele>2501.761926</ele>
<time>2014-08-19T00:41:03Z</time>
<desc><![CDATA[lat.=36.781670, lon.=137.791841, Alt.=2501.761926m. Speed=0.000000m/h.]]></desc>
</trkpt>
<trkpt lat="36.781670" lon="137.791842">
<ele>2500.031827</ele>
<time>2014-08-19T00:41:08Z</time>
<desc><![CDATA[lat.=36.781670, lon.=137.791842, Alt.=2500.031827m. Speed=0.000000m/h.]]></desc>
</trkpt>
<trkpt lat="36.781673" lon="137.791849">
<ele>2501.223846</ele>
<time>2014-08-19T00:41:13Z</time>
<desc><![CDATA[lat.=36.781673, lon.=137.791849, Alt.=2501.223846m. Speed=0.000000m/h.]]></desc>
</trkpt>
<trkpt lat="36.781684" lon="137.791857">
<ele>2501.284532</ele>
<time>2014-08-19T00:41:21Z</time>
<desc><![CDATA[lat.=36.781684, lon.=137.791857, Alt.=2501.284532m. Speed=2.000000m/h.]]></desc>
</trkpt>
<trkpt lat="36.781732" lon="137.791867">
<ele>2502.608960</ele>
<time>2014-08-19T00:41:26Z</time>
<desc><![CDATA[lat.=36.781732, lon.=137.791867, Alt.=2502.608960m. Speed=3.000000m/h.]]></desc>
</trkpt>
<trkpt lat="36.781775" lon="137.791900">
<ele>2501.121616</ele>
<time>2014-08-19T00:41:31Z</time>
<desc><![CDATA[lat.=36.781775, lon.=137.791900, Alt.=2501.121616m. Speed=4.000000m/h.]]></desc>
</trkpt>
<trkpt lat="36.781834" lon="137.791935">
<ele>2499.101717</ele>
<time>2014-08-19T00:41:36Z</time>
<desc><![CDATA[lat.=36.781834, lon.=137.791935, Alt.=2499.101717m. Speed=4.000000m/h.]]></desc>
</trkpt>
<trkpt lat="36.781900" lon="137.791953">
<ele>2499.355523</ele>
<time>2014-08-19T00:41:41Z</time>
<desc><![CDATA[lat.=36.781900, lon.=137.791953, Alt.=2499.355523m. Speed=5.000000m/h.]]></desc>
</trkpt>
<trkpt lat="36.781943" lon="137.791938">
<ele>2502.892977</ele>
<time>2014-08-19T00:41:46Z</time>
<desc><![CDATA[lat.=36.781943, lon.=137.791938, Alt.=2502.892977m. Speed=4.000000m/h.]]></desc>
</trkpt>
<trkpt lat="36.781977" lon="137.791931">
<ele>2502.964715</ele>
<time>2014-08-19T00:41:51Z</time>
<desc><![CDATA[lat.=36.781977, lon.=137.791931, Alt.=2502.964715m. Speed=4.000000m/h.]]></desc>
</trkpt>
<trkpt lat="36.782031" lon="137.791956">
<ele>2503.213016</ele>
<time>2014-08-19T00:41:56Z</time>
<desc><![CDATA[lat.=36.782031, lon.=137.791956, Alt.=2503.213016m. Speed=4.000000m/h.]]></desc>
</trkpt>
<trkpt lat="36.782083" lon="137.791991">
<ele>2500.594375</ele>
<time>2014-08-19T00:42:01Z</time>
<desc><![CDATA[lat.=36.782083, lon.=137.791991, Alt.=2500.594375m. Speed=4.000000m/h.]]></desc>
</trkpt>
<trkpt lat="36.782137" lon="137.792001">
<ele>2500.787516</ele>
<time>2014-08-19T00:42:06Z</time>
<desc><![CDATA[lat.=36.782137, lon.=137.792001, Alt.=2500.787516m. Speed=4.000000m/h.]]></desc>
</trkpt>
<trkpt lat="36.782188" lon="137.792018">
<ele>2501.573912</ele>
<time>2014-08-19T00:42:11Z</time>
<desc><![CDATA[lat.=36.782188, lon.=137.792018, Alt.=2501.573912m. Speed=4.000000m/h.]]></desc>
</trkpt>
<trkpt lat="36.782248" lon="137.792021">
<ele>2499.443718</ele>
<time>2014-08-19T00:42:16Z</time>
<desc><![CDATA[lat.=36.782248, lon.=137.792021, Alt.=2499.443718m. Speed=4.000000m/h.]]></desc>
</trkpt>
<trkpt lat="36.782303" lon="137.792016">
<ele>2497.851606</ele>
<time>2014-08-19T00:42:21Z</time>
<desc><![CDATA[lat.=36.782303, lon.=137.792016, Alt.=2497.851606m. Speed=5.000000m/h.]]></desc>
</trkpt>
<trkpt lat="36.782355" lon="137.792019">
<ele>2496.852747</ele>
<time>2014-08-19T00:42:26Z</time>
<desc><![CDATA[lat.=36.782355, lon.=137.792019, Alt.=2496.852747m. Speed=4.000000m/h.]]></desc>
</trkpt>
<trkpt lat="36.782421" lon="137.792021">
<ele>2497.051449</ele>
<time>2014-08-19T00:42:31Z</time>
<desc><![CDATA[lat.=36.782421, lon.=137.792021, Alt.=2497.051449m. Speed=5.000000m/h.]]></desc>
</trkpt>
<trkpt lat="36.782473" lon="137.792023">
<ele>2496.052602</ele>
<time>2014-08-19T00:42:36Z</time>
<desc><![CDATA[lat.=36.782473, lon.=137.792023, Alt.=2496.052602m. Speed=5.000000m/h.]]></desc>
</trkpt>
<trkpt lat="36.782516" lon="137.792072">
<ele>2496.350599</ele>
<time>2014-08-19T00:42:41Z</time>
<desc><![CDATA[lat.=36.782516, lon.=137.792072, Alt.=2496.350599m. Speed=4.000000m/h.]]></desc>
</trkpt>
<trkpt lat="36.782541" lon="137.792130">
<ele>2492.584093</ele>
<time>2014-08-19T00:42:46Z</time>
<desc><![CDATA[lat.=36.782541, lon.=137.792130, Alt.=2492.584093m. Speed=4.000000m/h.]]></desc>
</trkpt>
<trkpt lat="36.782585" lon="137.792148">
<ele>2491.041653</ele>
<time>2014-08-19T00:42:51Z</time>
<desc><![CDATA[lat.=36.782585, lon.=137.792148, Alt.=2491.041653m. Speed=4.000000m/h.]]></desc>
</trkpt>
<trkpt lat="36.782607" lon="137.792182">
<ele>2489.488149</ele>
<time>2014-08-19T00:42:56Z</time>
<desc><![CDATA[lat.=36.782607, lon.=137.792182, Alt.=2489.488149m. Speed=4.000000m/h.]]></desc>
</trkpt>
<trkpt lat="36.782647" lon="137.792191">
<ele>2490.213885</ele>
<time>2014-08-19T00:43:01Z</time>
<desc><![CDATA[lat.=36.782647, lon.=137.792191, Alt.=2490.213885m. Speed=4.000000m/h.]]></desc>
</trkpt>
<trkpt lat="36.782699" lon="137.792209">
<ele>2489.270237</ele>
<time>2014-08-19T00:43:06Z</time>
<desc><![CDATA[lat.=36.782699, lon.=137.792209, Alt.=2489.270237m. Speed=4.000000m/h.]]></desc>
</trkpt>
<trkpt lat="36.782739" lon="137.792218">
<ele>2489.995979</ele>
<time>2014-08-19T00:43:11Z</time>
<desc><![CDATA[lat.=36.782739, lon.=137.792218, Alt.=2489.995979m. Speed=3.000000m/h.]]></desc>
</trkpt>
<trkpt lat="36.782776" lon="137.792219">
<ele>2489.529697</ele>
<time>2014-08-19T00:43:16Z</time>
<desc><![CDATA[lat.=36.782776, lon.=137.792219, Alt.=2489.529697m. Speed=3.000000m/h.]]></desc>
</trkpt>
<trkpt lat="36.782809" lon="137.792228">
<ele>2489.656662</ele>
<time>2014-08-19T00:43:21Z</time>
<desc><![CDATA[lat.=36.782809, lon.=137.792228, Alt.=2489.656662m. Speed=3.000000m/h.]]></desc>
</trkpt>
<trkpt lat="36.782838" lon="137.792230">
<ele>2488.591600</ele>
<time>2014-08-19T00:43:26Z</time>
<desc><![CDATA[lat.=36.782838, lon.=137.792230, Alt.=2488.591600m. Speed=3.000000m/h.]]></desc>
</trkpt>
<trkpt lat="36.782864" lon="137.792207">
<ele>2489.739530</ele>
<time>2014-08-19T00:43:31Z</time>
<desc><![CDATA[lat.=36.782864, lon.=137.792207, Alt.=2489.739530m. Speed=2.000000m/h.]]></desc>
</trkpt>
<trkpt lat="36.782887" lon="137.792208">
<ele>2488.075687</ele>
<time>2014-08-19T00:43:36Z</time>
<desc><![CDATA[lat.=36.782887, lon.=137.792208, Alt.=2488.075687m. Speed=2.000000m/h.]]></desc>
</trkpt>
<trkpt lat="36.782909" lon="137.792210">
<ele>2486.411845</ele>
<time>2014-08-19T00:43:41Z</time>
<desc><![CDATA[lat.=36.782909, lon.=137.792210, Alt.=2486.411845m. Speed=2.000000m/h.]]></desc>
</trkpt>
<trkpt lat="36.782964" lon="137.792220">
<ele>2484.874980</ele>
<time>2014-08-19T00:43:46Z</time>
<desc><![CDATA[lat.=36.782964, lon.=137.792220, Alt.=2484.874980m. Speed=4.000000m/h.]]></desc>
</trkpt>
<trkpt lat="36.783002" lon="137.792207">
<ele>2482.623439</ele>
<time>2014-08-19T00:43:51Z</time>
<desc><![CDATA[lat.=36.783002, lon.=137.792207, Alt.=2482.623439m. Speed=4.000000m/h.]]></desc>
</trkpt>
<trkpt lat="36.783036" lon="137.792153">
<ele>2482.529716</ele>
<time>2014-08-19T00:43:56Z</time>
<desc><![CDATA[lat.=36.783036, lon.=137.792153, Alt.=2482.529716m. Speed=4.000000m/h.]]></desc>
</trkpt>
<trkpt lat="36.783070" lon="137.792146">
<ele>2482.601522</ele>
<time>2014-08-19T00:44:01Z</time>
<desc><![CDATA[lat.=36.783070, lon.=137.792146, Alt.=2482.601522m. Speed=3.000000m/h.]]></desc>
</trkpt>
<trkpt lat="36.783084" lon="137.792178">
<ele>2482.179349</ele>
<time>2014-08-19T00:44:06Z</time>
<desc><![CDATA[lat.=36.783084, lon.=137.792178, Alt.=2482.179349m. Speed=3.000000m/h.]]></desc>
</trkpt>
<trkpt lat="36.783129" lon="137.792165">
<ele>2480.526605</ele>
<time>2014-08-19T00:44:11Z</time>
<desc><![CDATA[lat.=36.783129, lon.=137.792165, Alt.=2480.526605m. Speed=3.000000m/h.]]></desc>
</trkpt>
<trkpt lat="36.783158" lon="137.792166">
<ele>2479.461562</ele>
<time>2014-08-19T00:44:16Z</time>
<desc><![CDATA[lat.=36.783158, lon.=137.792166, Alt.=2479.461562m. Speed=3.000000m/h.]]></desc>
</trkpt>
<trkpt lat="36.783199" lon="137.792160">
<ele>2478.402067</ele>
<time>2014-08-19T00:44:21Z</time>
<desc><![CDATA[lat.=36.783199, lon.=137.792160, Alt.=2478.402067m. Speed=3.000000m/h.]]></desc>
</trkpt>
<trkpt lat="36.783235" lon="137.792177">
<ele>2479.721090</ele>
<time>2014-08-19T00:44:26Z</time>
<desc><![CDATA[lat.=36.783235, lon.=137.792177, Alt.=2479.721090m. Speed=3.000000m/h.]]></desc>
</trkpt>
<trkpt lat="36.783272" lon="137.792178">
<ele>2479.254842</ele>
<time>2014-08-19T00:44:31Z</time>
<desc><![CDATA[lat.=36.783272, lon.=137.792178, Alt.=2479.254842m. Speed=3.000000m/h.]]></desc>
</trkpt>
<trkpt lat="36.783317" lon="137.792164">
<ele>2479.332213</ele>
<time>2014-08-19T00:44:36Z</time>
<desc><![CDATA[lat.=36.783317, lon.=137.792164, Alt.=2479.332213m. Speed=3.000000m/h.]]></desc>
</trkpt>
<trkpt lat="36.783362" lon="137.792151">
<ele>2477.679490</ele>
<time>2014-08-19T00:44:41Z</time>
<desc><![CDATA[lat.=36.783362, lon.=137.792151, Alt.=2477.679490m. Speed=4.000000m/h.]]></desc>
</trkpt>
<trkpt lat="36.783398" lon="137.792168">
<ele>2477.268426</ele>
<time>2014-08-19T00:44:46Z</time>
<desc><![CDATA[lat.=36.783398, lon.=137.792168, Alt.=2477.268426m. Speed=3.000000m/h.]]></desc>
</trkpt>
<trkpt lat="36.783435" lon="137.792185">
<ele>2476.857365</ele>
<time>2014-08-19T00:44:51Z</time>
<desc><![CDATA[lat.=36.783435, lon.=137.792185, Alt.=2476.857365m. Speed=4.000000m/h.]]></desc>
</trkpt>
<trkpt lat="36.783470" lon="137.792234">
<ele>2476.556660</ele>
<time>2014-08-19T00:44:56Z</time>
<desc><![CDATA[lat.=36.783470, lon.=137.792234, Alt.=2476.556660m. Speed=4.000000m/h.]]></desc>
</trkpt>
<trkpt lat="36.783514" lon="137.792268">
<ele>2475.069478</ele>
<time>2014-08-19T00:45:01Z</time>
<desc><![CDATA[lat.=36.783514, lon.=137.792268, Alt.=2475.069478m. Speed=4.000000m/h.]]></desc>
</trkpt>
<trkpt lat="36.783565" lon="137.792286">
<ele>2475.856016</ele>
<time>2014-08-19T00:45:06Z</time>
<desc><![CDATA[lat.=36.783565, lon.=137.792286, Alt.=2475.856016m. Speed=4.000000m/h.]]></desc>
</trkpt>
<trkpt lat="36.783594" lon="137.792303">
<ele>2474.846175</ele>
<time>2014-08-19T00:45:11Z</time>
<desc><![CDATA[lat.=36.783594, lon.=137.792303, Alt.=2474.846175m. Speed=4.000000m/h.]]></desc>
</trkpt>
<trkpt lat="36.783660" lon="137.792321">
<ele>2475.100214</ele>
<time>2014-08-19T00:45:16Z</time>
<desc><![CDATA[lat.=36.783660, lon.=137.792321, Alt.=2475.100214m. Speed=5.000000m/h.]]></desc>
</trkpt>
<trkpt lat="36.783711" lon="137.792323">
<ele>2475.831589</ele>
<time>2014-08-19T00:45:21Z</time>
<desc><![CDATA[lat.=36.783711, lon.=137.792323, Alt.=2475.831589m. Speed=5.000000m/h.]]></desc>
</trkpt>
<trkpt lat="36.783759" lon="137.792348">
<ele>2475.481290</ele>
<time>2014-08-19T00:45:26Z</time>
<desc><![CDATA[lat.=36.783759, lon.=137.792348, Alt.=2475.481290m. Speed=4.000000m/h.]]></desc>
</trkpt>
<trkpt lat="36.783817" lon="137.792350">
<ele>2476.811472</ele>
<time>2014-08-19T00:45:31Z</time>
<desc><![CDATA[lat.=36.783817, lon.=137.792350, Alt.=2476.811472m. Speed=4.000000m/h.]]></desc>
</trkpt>
<trkpt lat="36.783864" lon="137.792375">
<ele>2478.191279</ele>
<time>2014-08-19T00:45:36Z</time>
<desc><![CDATA[lat.=36.783864, lon.=137.792375, Alt.=2478.191279m. Speed=4.000000m/h.]]></desc>
</trkpt>
<trkpt lat="36.783893" lon="137.792407">
<ele>2478.966734</ele>
<time>2014-08-19T00:45:41Z</time>
<desc><![CDATA[lat.=36.783893, lon.=137.792407, Alt.=2478.966734m. Speed=4.000000m/h.]]></desc>
</trkpt>
<trkpt lat="36.783937" lon="137.792442">
<ele>2475.749499</ele>
<time>2014-08-19T00:45:46Z</time>
<desc><![CDATA[lat.=36.783937, lon.=137.792442, Alt.=2475.749499m. Speed=4.000000m/h.]]></desc>
</trkpt>
<trkpt lat="36.783973" lon="137.792475">
<ele>2475.393663</ele>
<time>2014-08-19T00:45:51Z</time>
<desc><![CDATA[lat.=36.783973, lon.=137.792475, Alt.=2475.393663m. Speed=4.000000m/h.]]></desc>
</trkpt>
<trkpt lat="36.784024" lon="137.792493">
<ele>2474.450153</ele>
<time>2014-08-19T00:45:56Z</time>
<desc><![CDATA[lat.=36.784024, lon.=137.792493, Alt.=2474.450153m. Speed=4.000000m/h.]]></desc>
</trkpt>
<trkpt lat="36.784068" lon="137.792527">
<ele>2472.963030</ele>
<time>2014-08-19T00:46:01Z</time>
<desc><![CDATA[lat.=36.784068, lon.=137.792527, Alt.=2472.963030m. Speed=4.000000m/h.]]></desc>
</trkpt>
<trkpt lat="36.784123" lon="137.792554">
<ele>2471.481475</ele>
<time>2014-08-19T00:46:06Z</time>
<desc><![CDATA[lat.=36.784123, lon.=137.792554, Alt.=2471.481475m. Speed=5.000000m/h.]]></desc>
</trkpt>
<trkpt lat="36.784174" lon="137.792571">
<ele>2472.268078</ele>
<time>2014-08-19T00:46:11Z</time>
<desc><![CDATA[lat.=36.784174, lon.=137.792571, Alt.=2472.268078m. Speed=4.000000m/h.]]></desc>
</trkpt>
<trkpt lat="36.784225" lon="137.792589">
<ele>2471.324591</ele>
<time>2014-08-19T00:46:16Z</time>
<desc><![CDATA[lat.=36.784225, lon.=137.792589, Alt.=2471.324591m. Speed=4.000000m/h.]]></desc>
</trkpt>
<trkpt lat="36.784269" lon="137.792606">
<ele>2473.242498</ele>
<time>2014-08-19T00:46:21Z</time>
<desc><![CDATA[lat.=36.784269, lon.=137.792606, Alt.=2473.242498m. Speed=4.000000m/h.]]></desc>
</trkpt>
<trkpt lat="36.784308" lon="137.792614">
<ele>2475.698464</ele>
<time>2014-08-19T00:46:26Z</time>
<desc><![CDATA[lat.=36.784308, lon.=137.792614, Alt.=2475.698464m. Speed=4.000000m/h.]]></desc>
</trkpt>
<trkpt lat="36.784334" lon="137.792656">
<ele>2471.876901</ele>
<time>2014-08-19T00:46:31Z</time>
<desc><![CDATA[lat.=36.784334, lon.=137.792656, Alt.=2471.876901m. Speed=3.000000m/h.]]></desc>
</trkpt>
<trkpt lat="36.784363" lon="137.792689">
<ele>2470.922297</ele>
<time>2014-08-19T00:46:36Z</time>
<desc><![CDATA[lat.=36.784363, lon.=137.792689, Alt.=2470.922297m. Speed=3.000000m/h.]]></desc>
</trkpt>
<trkpt lat="36.784388" lon="137.792713">
<ele>2473.965941</ele>
<time>2014-08-19T00:46:41Z</time>
<desc><![CDATA[lat.=36.784388, lon.=137.792713, Alt.=2473.965941m. Speed=3.000000m/h.]]></desc>
</trkpt>
<trkpt lat="36.784424" lon="137.792696">
<ele>2478.634880</ele>
<time>2014-08-19T00:46:46Z</time>
<desc><![CDATA[lat.=36.784424, lon.=137.792696, Alt.=2478.634880m. Speed=3.000000m/h.]]></desc>
</trkpt>
<trkpt lat="36.784435" lon="137.792705">
<ele>2476.965537</ele>
<time>2014-08-19T00:46:51Z</time>
<desc><![CDATA[lat.=36.784435, lon.=137.792705, Alt.=2476.965537m. Speed=1.000000m/h.]]></desc>
</trkpt>
<trkpt lat="36.784431" lon="137.792713">
<ele>2477.558775</ele>
<time>2014-08-19T00:46:56Z</time>
<desc><![CDATA[lat.=36.784431, lon.=137.792713, Alt.=2477.558775m. Speed=0.000000m/h.]]></desc>
</trkpt>
<trkpt lat="36.784423" lon="137.792712">
<ele>2478.690065</ele>
<time>2014-08-19T00:47:01Z</time>
<desc><![CDATA[lat.=36.784423, lon.=137.792712, Alt.=2478.690065m. Speed=0.000000m/h.]]></desc>
</trkpt>
<trkpt lat="36.784420" lon="137.792704">
<ele>2479.228117</ele>
<time>2014-08-19T00:47:06Z</time>
<desc><![CDATA[lat.=36.784420, lon.=137.792704, Alt.=2479.228117m. Speed=0.000000m/h.]]></desc>
</trkpt>
<trkpt lat="36.784412" lon="137.792703">
<ele>2480.359408</ele>
<time>2014-08-19T00:47:11Z</time>
<desc><![CDATA[lat.=36.784412, lon.=137.792703, Alt.=2480.359408m. Speed=0.000000m/h.]]></desc>
</trkpt>
<trkpt lat="36.784420" lon="137.792704">
<ele>2479.228117</ele>
<time>2014-08-19T00:47:16Z</time>
<desc><![CDATA[lat.=36.784420, lon.=137.792704, Alt.=2479.228117m. Speed=0.000000m/h.]]></desc>
</trkpt>
<trkpt lat="36.784427" lon="137.792688">
<ele>2479.771739</ele>
<time>2014-08-19T00:47:21Z</time>
<desc><![CDATA[lat.=36.784427, lon.=137.792688, Alt.=2479.771739m. Speed=1.000000m/h.]]></desc>
</trkpt>
<trkpt lat="36.784457" lon="137.792674">
<ele>2478.651586</ele>
<time>2014-08-19T00:47:26Z</time>
<desc><![CDATA[lat.=36.784457, lon.=137.792674, Alt.=2478.651586m. Speed=3.000000m/h.]]></desc>
</trkpt>
<trkpt lat="36.784512" lon="137.792700">
<ele>2477.170077</ele>
<time>2014-08-19T00:47:31Z</time>
<desc><![CDATA[lat.=36.784512, lon.=137.792700, Alt.=2477.170077m. Speed=4.000000m/h.]]></desc>
</trkpt>
<trkpt lat="36.784570" lon="137.792734">
<ele>2476.880620</ele>
<time>2014-08-19T00:47:36Z</time>
<desc><![CDATA[lat.=36.784570, lon.=137.792734, Alt.=2476.880620m. Speed=4.000000m/h.]]></desc>
</trkpt>
<trkpt lat="36.784621" lon="137.792768">
<ele>2475.992361</ele>
<time>2014-08-19T00:47:41Z</time>
<desc><![CDATA[lat.=36.784621, lon.=137.792768, Alt.=2475.992361m. Speed=5.000000m/h.]]></desc>
</trkpt>
<trkpt lat="36.784672" lon="137.792802">
<ele>2475.104110</ele>
<time>2014-08-19T00:47:46Z</time>
<desc><![CDATA[lat.=36.784672, lon.=137.792802, Alt.=2475.104110m. Speed=4.000000m/h.]]></desc>
</trkpt>
<trkpt lat="36.784730" lon="137.792819">
<ele>2476.489583</ele>
<time>2014-08-19T00:47:51Z</time>
<desc><![CDATA[lat.=36.784730, lon.=137.792819, Alt.=2476.489583m. Speed=4.000000m/h.]]></desc>
</trkpt>
<trkpt lat="36.784755" lon="137.792877">
<ele>2474.453336</ele>
<time>2014-08-19T00:47:56Z</time>
<desc><![CDATA[lat.=36.784755, lon.=137.792877, Alt.=2474.453336m. Speed=4.000000m/h.]]></desc>
</trkpt>
<trkpt lat="36.784758" lon="137.792932">
<ele>2474.080854</ele>
<time>2014-08-19T00:48:01Z</time>
<desc><![CDATA[lat.=36.784758, lon.=137.792932, Alt.=2474.080854m. Speed=4.000000m/h.]]></desc>
</trkpt>
<trkpt lat="36.784750" lon="137.792964">
<ele>2473.592422</ele>
<time>2014-08-19T00:48:06Z</time>
<desc><![CDATA[lat.=36.784750, lon.=137.792964, Alt.=2473.592422m. Speed=3.000000m/h.]]></desc>
</trkpt>
<trkpt lat="36.784746" lon="137.793020">
<ele>2470.891040</ele>
<time>2014-08-19T00:48:11Z</time>
<desc><![CDATA[lat.=36.784746, lon.=137.793020, Alt.=2470.891040m. Speed=3.000000m/h.]]></desc>
</trkpt>
<trkpt lat="36.784755" lon="137.793060">
<ele>2472.792282</ele>
<time>2014-08-19T00:48:16Z</time>
<desc><![CDATA[lat.=36.784755, lon.=137.793060, Alt.=2472.792282m. Speed=3.000000m/h.]]></desc>
</trkpt>
<trkpt lat="36.784736" lon="137.793098">
<ele>2474.028379</ele>
<time>2014-08-19T00:48:21Z</time>
<desc><![CDATA[lat.=36.784736, lon.=137.793098, Alt.=2474.028379m. Speed=3.000000m/h.]]></desc>
</trkpt>
<trkpt lat="36.784735" lon="137.793146">
<ele>2472.463863</ele>
<time>2014-08-19T00:48:26Z</time>
<desc><![CDATA[lat.=36.784735, lon.=137.793146, Alt.=2472.463863m. Speed=3.000000m/h.]]></desc>
</trkpt>
<trkpt lat="36.784727" lon="137.793194">
<ele>2470.300539</ele>
<time>2014-08-19T00:48:31Z</time>
<desc><![CDATA[lat.=36.784727, lon.=137.793194, Alt.=2470.300539m. Speed=3.000000m/h.]]></desc>
</trkpt>
<trkpt lat="36.784771" lon="137.793229">
<ele>2467.083409</ele>
<time>2014-08-19T00:48:36Z</time>
<desc><![CDATA[lat.=36.784771, lon.=137.793229, Alt.=2467.083409m. Speed=3.000000m/h.]]></desc>
</trkpt>
<trkpt lat="36.784808" lon="137.793264">
<ele>2463.267474</ele>
<time>2014-08-19T00:48:41Z</time>
<desc><![CDATA[lat.=36.784808, lon.=137.793264, Alt.=2463.267474m. Speed=3.000000m/h.]]></desc>
</trkpt>
<trkpt lat="36.784805" lon="137.793256">
<ele>2463.805518</ele>
<time>2014-08-19T00:48:47Z</time>
<desc><![CDATA[lat.=36.784805, lon.=137.793256, Alt.=2463.805518m. Speed=2.000000m/h.]]></desc>
</trkpt>
<trkpt lat="36.784794" lon="137.793247">
<ele>2463.744751</ele>
<time>2014-08-19T00:48:52Z</time>
<desc><![CDATA[lat.=36.784794, lon.=137.793247, Alt.=2463.744751m. Speed=0.000000m/h.]]></desc>
</trkpt>
<trkpt lat="36.784797" lon="137.793239">
<ele>2464.881607</ele>
<time>2014-08-19T00:48:57Z</time>
<desc><![CDATA[lat.=36.784797, lon.=137.793239, Alt.=2464.881607m. Speed=0.000000m/h.]]></desc>
</trkpt>
<trkpt lat="36.784801" lon="137.793232">
<ele>2464.288367</ele>
<time>2014-08-19T00:49:02Z</time>
<desc><![CDATA[lat.=36.784801, lon.=137.793232, Alt.=2464.288367m. Speed=0.000000m/h.]]></desc>
</trkpt>
<trkpt lat="36.784798" lon="137.793223">
<ele>2464.826412</ele>
<time>2014-08-19T00:49:07Z</time>
<desc><![CDATA[lat.=36.784798, lon.=137.793223, Alt.=2464.826412m. Speed=0.000000m/h.]]></desc>
</trkpt>
<trkpt lat="36.784801" lon="137.793231">
<ele>2466.018462</ele>
<time>2014-08-19T00:49:12Z</time>
<desc><![CDATA[lat.=36.784801, lon.=137.793231, Alt.=2466.018462m. Speed=0.000000m/h.]]></desc>
</trkpt>
<trkpt lat="36.784842" lon="137.793225">
<ele>2464.959090</ele>
<time>2014-08-19T00:49:17Z</time>
<desc><![CDATA[lat.=36.784842, lon.=137.793225, Alt.=2464.959090m. Speed=2.000000m/h.]]></desc>
</trkpt>
<trkpt lat="36.784857" lon="137.793226">
<ele>2464.426618</ele>
<time>2014-08-19T00:49:22Z</time>
<desc><![CDATA[lat.=36.784857, lon.=137.793226, Alt.=2464.426618m. Speed=2.000000m/h.]]></desc>
</trkpt>
<trkpt lat="36.784889" lon="137.793267">
<ele>2462.934023</ele>
<time>2014-08-19T00:49:27Z</time>
<desc><![CDATA[lat.=36.784889, lon.=137.793267, Alt.=2462.934023m. Speed=2.000000m/h.]]></desc>
</trkpt>
<trkpt lat="36.784930" lon="137.793261">
<ele>2461.874657</ele>
<time>2014-08-19T00:49:32Z</time>
<desc><![CDATA[lat.=36.784930, lon.=137.793261, Alt.=2461.874657m. Speed=3.000000m/h.]]></desc>
</trkpt>
<trkpt lat="36.784966" lon="137.793294">
<ele>2461.518924</ele>
<time>2014-08-19T00:49:37Z</time>
<desc><![CDATA[lat.=36.784966, lon.=137.793294, Alt.=2461.518924m. Speed=3.000000m/h.]]></desc>
</trkpt>
<trkpt lat="36.785000" lon="137.793321">
<ele>2458.241048</ele>
<time>2014-08-19T00:49:42Z</time>
<desc><![CDATA[lat.=36.785000, lon.=137.793321, Alt.=2458.241048m. Speed=3.000000m/h.]]></desc>
</trkpt>
<trkpt lat="36.785032" lon="137.793329">
<ele>2460.098262</ele>
<time>2014-08-19T00:49:47Z</time>
<desc><![CDATA[lat.=36.785032, lon.=137.793329, Alt.=2460.098262m. Speed=3.000000m/h.]]></desc>
</trkpt>
<trkpt lat="36.785058" lon="137.793338">
<ele>2459.626569</ele>
<time>2014-08-19T00:49:52Z</time>
<desc><![CDATA[lat.=36.785058, lon.=137.793338, Alt.=2459.626569m. Speed=3.000000m/h.]]></desc>
</trkpt>
<trkpt lat="36.785091" lon="137.793364">
<ele>2456.348700</ele>
<time>2014-08-19T00:49:57Z</time>
<desc><![CDATA[lat.=36.785091, lon.=137.793364, Alt.=2456.348700m. Speed=3.000000m/h.]]></desc>
</trkpt>
<trkpt lat="36.785117" lon="137.793391">
<ele>2452.472018</ele>
<time>2014-08-19T00:50:02Z</time>
<desc><![CDATA[lat.=36.785117, lon.=137.793391, Alt.=2452.472018m. Speed=3.000000m/h.]]></desc>
</trkpt>
<trkpt lat="36.785154" lon="137.793410">
<ele>2448.600916</ele>
<time>2014-08-19T00:50:07Z</time>
<desc><![CDATA[lat.=36.785154, lon.=137.793410, Alt.=2448.600916m. Speed=3.000000m/h.]]></desc>
</trkpt>
<trkpt lat="36.785195" lon="137.793419">
<ele>2449.326863</ele>
<time>2014-08-19T00:50:12Z</time>
<desc><![CDATA[lat.=36.785195, lon.=137.793419, Alt.=2449.326863m. Speed=3.000000m/h.]]></desc>
</trkpt>
<trkpt lat="36.785219" lon="137.793460">
<ele>2448.965577</ele>
<time>2014-08-19T00:50:17Z</time>
<desc><![CDATA[lat.=36.785219, lon.=137.793460, Alt.=2448.965577m. Speed=3.000000m/h.]]></desc>
</trkpt>
<trkpt lat="36.785219" lon="137.793508">
<ele>2447.401081</ele>
<time>2014-08-19T00:50:22Z</time>
<desc><![CDATA[lat.=36.785219, lon.=137.793508, Alt.=2447.401081m. Speed=3.000000m/h.]]></desc>
</trkpt>
<trkpt lat="36.785248" lon="137.793524">
<ele>2448.121456</ele>
<time>2014-08-19T00:50:27Z</time>
<desc><![CDATA[lat.=36.785248, lon.=137.793524, Alt.=2448.121456m. Speed=3.000000m/h.]]></desc>
</trkpt>
<trkpt lat="36.785266" lon="137.793566">
<ele>2445.431265</ele>
<time>2014-08-19T00:50:32Z</time>
<desc><![CDATA[lat.=36.785266, lon.=137.793566, Alt.=2445.431265m. Speed=3.000000m/h.]]></desc>
</trkpt>
<trkpt lat="36.785310" lon="137.793584">
<ele>2443.889090</ele>
<time>2014-08-19T00:50:37Z</time>
<desc><![CDATA[lat.=36.785310, lon.=137.793584, Alt.=2443.889090m. Speed=3.000000m/h.]]></desc>
</trkpt>
<trkpt lat="36.785347" lon="137.793586">
<ele>2443.422994</ele>
<time>2014-08-19T00:50:42Z</time>
<desc><![CDATA[lat.=36.785347, lon.=137.793586, Alt.=2443.422994m. Speed=3.000000m/h.]]></desc>
</trkpt>
<trkpt lat="36.785384" lon="137.793587">
<ele>2442.956900</ele>
<time>2014-08-19T00:50:47Z</time>
<desc><![CDATA[lat.=36.785384, lon.=137.793587, Alt.=2442.956900m. Speed=3.000000m/h.]]></desc>
</trkpt>
<trkpt lat="36.785421" lon="137.793573">
<ele>2442.435607</ele>
<time>2014-08-19T00:50:52Z</time>
<desc><![CDATA[lat.=36.785421, lon.=137.793573, Alt.=2442.435607m. Speed=4.000000m/h.]]></desc>
</trkpt>
<trkpt lat="36.785472" lon="137.793574">
<ele>2443.167160</ele>
<time>2014-08-19T00:50:57Z</time>
<desc><![CDATA[lat.=36.785472, lon.=137.793574, Alt.=2443.167160m. Speed=4.000000m/h.]]></desc>
</trkpt>
<trkpt lat="36.785524" lon="137.793593">
<ele>2440.493730</ele>
<time>2014-08-19T00:51:02Z</time>
<desc><![CDATA[lat.=36.785524, lon.=137.793593, Alt.=2440.493730m. Speed=4.000000m/h.]]></desc>
</trkpt>
<trkpt lat="36.785564" lon="137.793603">
<ele>2439.489613</ele>
<time>2014-08-19T00:51:07Z</time>
<desc><![CDATA[lat.=36.785564, lon.=137.793603, Alt.=2439.489613m. Speed=4.000000m/h.]]></desc>
</trkpt>
<trkpt lat="36.785609" lon="137.793605">
<ele>2437.892263</ele>
<time>2014-08-19T00:51:12Z</time>
<desc><![CDATA[lat.=36.785609, lon.=137.793605, Alt.=2437.892263m. Speed=4.000000m/h.]]></desc>
</trkpt>
<trkpt lat="36.785668" lon="137.793624">
<ele>2437.547765</ele>
<time>2014-08-19T00:51:17Z</time>
<desc><![CDATA[lat.=36.785668, lon.=137.793624, Alt.=2437.547765m. Speed=4.000000m/h.]]></desc>
</trkpt>
<trkpt lat="36.785711" lon="137.793641">
<ele>2437.735720</ele>
<time>2014-08-19T00:51:22Z</time>
<desc><![CDATA[lat.=36.785711, lon.=137.793641, Alt.=2437.735720m. Speed=4.000000m/h.]]></desc>
</trkpt>
<trkpt lat="36.785763" lon="137.793627">
<ele>2436.682005</ele>
<time>2014-08-19T00:51:27Z</time>
<desc><![CDATA[lat.=36.785763, lon.=137.793627, Alt.=2436.682005m. Speed=4.000000m/h.]]></desc>
</trkpt>
<trkpt lat="36.785823" lon="137.793614">
<ele>2436.227121</ele>
<time>2014-08-19T00:51:32Z</time>
<desc><![CDATA[lat.=36.785823, lon.=137.793614, Alt.=2436.227121m. Speed=4.000000m/h.]]></desc>
</trkpt>
<trkpt lat="36.785867" lon="137.793615">
<ele>2436.359887</ele>
<time>2014-08-19T00:51:37Z</time>
<desc><![CDATA[lat.=36.785867, lon.=137.793615, Alt.=2436.359887m. Speed=4.000000m/h.]]></desc>
</trkpt>
<trkpt lat="36.785918" lon="137.793634">
<ele>2435.416592</ele>
<time>2014-08-19T00:51:42Z</time>
<desc><![CDATA[lat.=36.785918, lon.=137.793634, Alt.=2435.416592m. Speed=4.000000m/h.]]></desc>
</trkpt>
<trkpt lat="36.785947" lon="137.793683">
<ele>2432.787226</ele>
<time>2014-08-19T00:51:47Z</time>
<desc><![CDATA[lat.=36.785947, lon.=137.793683, Alt.=2432.787226m. Speed=4.000000m/h.]]></desc>
</trkpt>
<trkpt lat="36.785973" lon="137.793709">
<ele>2430.640692</ele>
<time>2014-08-19T00:51:52Z</time>
<desc><![CDATA[lat.=36.785973, lon.=137.793709, Alt.=2430.640692m. Speed=3.000000m/h.]]></desc>
</trkpt>
<trkpt lat="36.786012" lon="137.793750">
<ele>2431.477114</ele>
<time>2014-08-19T00:51:57Z</time>
<desc><![CDATA[lat.=36.786012, lon.=137.793750, Alt.=2431.477114m. Speed=4.000000m/h.]]></desc>
</trkpt>
<trkpt lat="36.786056" lon="137.793768">
<ele>2429.935007</ele>
<time>2014-08-19T00:52:02Z</time>
<desc><![CDATA[lat.=36.786056, lon.=137.793768, Alt.=2429.935007m. Speed=4.000000m/h.]]></desc>
</trkpt>
<trkpt lat="36.786093" lon="137.793785">
<ele>2429.524169</ele>
<time>2014-08-19T00:52:07Z</time>
<desc><![CDATA[lat.=36.786093, lon.=137.793785, Alt.=2429.524169m. Speed=4.000000m/h.]]></desc>
</trkpt>
<trkpt lat="36.786136" lon="137.793803">
<ele>2429.712164</ele>
<time>2014-08-19T00:52:12Z</time>
<desc><![CDATA[lat.=36.786136, lon.=137.793803, Alt.=2429.712164m. Speed=4.000000m/h.]]></desc>
</trkpt>
<trkpt lat="36.786144" lon="137.793803">
<ele>2430.310994</ele>
<time>2014-08-19T00:52:17Z</time>
<desc><![CDATA[lat.=36.786144, lon.=137.793803, Alt.=2430.310994m. Speed=0.000000m/h.]]></desc>
</trkpt>
<trkpt lat="36.786136" lon="137.793802">
<ele>2431.442258</ele>
<time>2014-08-19T00:52:22Z</time>
<desc><![CDATA[lat.=36.786136, lon.=137.793802, Alt.=2431.442258m. Speed=0.000000m/h.]]></desc>
</trkpt>
<trkpt lat="36.786143" lon="137.793802">
<ele>2432.041088</ele>
<time>2014-08-19T00:52:29Z</time>
<desc><![CDATA[lat.=36.786143, lon.=137.793802, Alt.=2432.041088m. Speed=0.000000m/h.]]></desc>
</trkpt>
<trkpt lat="36.786139" lon="137.793809">
<ele>2432.634322</ele>
<time>2014-08-19T00:52:34Z</time>
<desc><![CDATA[lat.=36.786139, lon.=137.793809, Alt.=2432.634322m. Speed=0.000000m/h.]]></desc>
</trkpt>
<trkpt lat="36.786135" lon="137.793817">
<ele>2433.227557</ele>
<time>2014-08-19T00:52:39Z</time>
<desc><![CDATA[lat.=36.786135, lon.=137.793817, Alt.=2433.227557m. Speed=0.000000m/h.]]></desc>
</trkpt>
<trkpt lat="36.786135" lon="137.793816">
<ele>2434.957651</ele>
<time>2014-08-19T00:52:44Z</time>
<desc><![CDATA[lat.=36.786135, lon.=137.793816, Alt.=2434.957651m. Speed=0.000000m/h.]]></desc>
</trkpt>
<trkpt lat="36.786138" lon="137.793808">
<ele>2436.094510</ele>
<time>2014-08-19T00:52:49Z</time>
<desc><![CDATA[lat.=36.786138, lon.=137.793808, Alt.=2436.094510m. Speed=0.000000m/h.]]></desc>
</trkpt>
<trkpt lat="36.786127" lon="137.793815">
<ele>2436.088915</ele>
<time>2014-08-19T00:52:54Z</time>
<desc><![CDATA[lat.=36.786127, lon.=137.793815, Alt.=2436.088915m. Speed=0.000000m/h.]]></desc>
</trkpt>
<trkpt lat="36.786131" lon="137.793808">
<ele>2435.495680</ele>
<time>2014-08-19T00:53:01Z</time>
<desc><![CDATA[lat.=36.786131, lon.=137.793808, Alt.=2435.495680m. Speed=0.000000m/h.]]></desc>
</trkpt>
<trkpt lat="36.786128" lon="137.793816">
<ele>2434.358821</ele>
<time>2014-08-19T00:53:06Z</time>
<desc><![CDATA[lat.=36.786128, lon.=137.793816, Alt.=2434.358821m. Speed=0.000000m/h.]]></desc>
</trkpt>
<trkpt lat="36.786132" lon="137.793809">
<ele>2433.765586</ele>
<time>2014-08-19T00:53:11Z</time>
<desc><![CDATA[lat.=36.786132, lon.=137.793809, Alt.=2433.765586m. Speed=0.000000m/h.]]></desc>
</trkpt>
<trkpt lat="36.786154" lon="137.793793">
<ele>2433.776777</ele>
<time>2014-08-19T00:53:16Z</time>
<desc><![CDATA[lat.=36.786154, lon.=137.793793, Alt.=2433.776777m. Speed=0.000000m/h.]]></desc>
</trkpt>
<trkpt lat="36.786158" lon="137.793802">
<ele>2433.238748</ele>
<time>2014-08-19T00:53:21Z</time>
<desc><![CDATA[lat.=36.786158, lon.=137.793802, Alt.=2433.238748m. Speed=0.000000m/h.]]></desc>
</trkpt>
<trkpt lat="36.786158" lon="137.793786">
<ele>2433.183543</ele>
<time>2014-08-19T00:53:26Z</time>
<desc><![CDATA[lat.=36.786158, lon.=137.793786, Alt.=2433.183543m. Speed=0.000000m/h.]]></desc>
</trkpt>
<trkpt lat="36.786165" lon="137.793786">
<ele>2433.782373</ele>
<time>2014-08-19T00:53:31Z</time>
<desc><![CDATA[lat.=36.786165, lon.=137.793786, Alt.=2433.782373m. Speed=0.000000m/h.]]></desc>
</trkpt>
<trkpt lat="36.786169" lon="137.793794">
<ele>2433.244344</ele>
<time>2014-08-19T00:53:37Z</time>
<desc><![CDATA[lat.=36.786169, lon.=137.793794, Alt.=2433.244344m. Speed=0.000000m/h.]]></desc>
</trkpt>
<trkpt lat="36.786187" lon="137.793818">
<ele>2433.959181</ele>
<time>2014-08-19T00:53:42Z</time>
<desc><![CDATA[lat.=36.786187, lon.=137.793818, Alt.=2433.959181m. Speed=2.000000m/h.]]></desc>
</trkpt>
<trkpt lat="36.786223" lon="137.793837">
<ele>2431.818260</ele>
<time>2014-08-19T00:53:47Z</time>
<desc><![CDATA[lat.=36.786223, lon.=137.793837, Alt.=2431.818260m. Speed=3.000000m/h.]]></desc>
</trkpt>
<trkpt lat="36.786253" lon="137.793855">
<ele>2429.078510</ele>
<time>2014-08-19T00:53:52Z</time>
<desc><![CDATA[lat.=36.786253, lon.=137.793855, Alt.=2429.078510m. Speed=3.000000m/h.]]></desc>
</trkpt>
<trkpt lat="36.786271" lon="137.793896">
<ele>2426.388372</ele>
<time>2014-08-19T00:53:57Z</time>
<desc><![CDATA[lat.=36.786271, lon.=137.793896, Alt.=2426.388372m. Speed=3.000000m/h.]]></desc>
</trkpt>
<trkpt lat="36.786260" lon="137.793904">
<ele>2426.382775</ele>
<time>2014-08-19T00:54:02Z</time>
<desc><![CDATA[lat.=36.786260, lon.=137.793904, Alt.=2426.382775m. Speed=2.000000m/h.]]></desc>
</trkpt>
<trkpt lat="36.786267" lon="137.793920">
<ele>2425.306720</ele>
<time>2014-08-19T00:54:07Z</time>
<desc><![CDATA[lat.=36.786267, lon.=137.793920, Alt.=2425.306720m. Speed=0.000000m/h.]]></desc>
</trkpt>
<trkpt lat="36.786260" lon="137.793919">
<ele>2426.437982</ele>
<time>2014-08-19T00:54:12Z</time>
<desc><![CDATA[lat.=36.786260, lon.=137.793919, Alt.=2426.437982m. Speed=0.000000m/h.]]></desc>
</trkpt>
<trkpt lat="36.786263" lon="137.793927">
<ele>2427.630049</ele>
<time>2014-08-19T00:54:17Z</time>
<desc><![CDATA[lat.=36.786263, lon.=137.793927, Alt.=2427.630049m. Speed=0.000000m/h.]]></desc>
</trkpt>
<trkpt lat="36.786263" lon="137.793943">
<ele>2427.685257</ele>
<time>2014-08-19T00:54:22Z</time>
<desc><![CDATA[lat.=36.786263, lon.=137.793943, Alt.=2427.685257m. Speed=0.000000m/h.]]></desc>
</trkpt>
<trkpt lat="36.786255" lon="137.793959">
<ele>2427.141633</ele>
<time>2014-08-19T00:54:27Z</time>
<desc><![CDATA[lat.=36.786255, lon.=137.793959, Alt.=2427.141633m. Speed=0.000000m/h.]]></desc>
</trkpt>
<trkpt lat="36.786254" lon="137.793974">
<ele>2428.926935</ele>
<time>2014-08-19T00:54:32Z</time>
<desc><![CDATA[lat.=36.786254, lon.=137.793974, Alt.=2428.926935m. Speed=0.000000m/h.]]></desc>
</trkpt>
<trkpt lat="36.786255" lon="137.793959">
<ele>2427.141633</ele>
<time>2014-08-19T00:54:37Z</time>
<desc><![CDATA[lat.=36.786255, lon.=137.793959, Alt.=2427.141633m. Speed=0.000000m/h.]]></desc>
</trkpt>
<trkpt lat="36.786262" lon="137.793958">
<ele>2429.470558</ele>
<time>2014-08-19T00:54:42Z</time>
<desc><![CDATA[lat.=36.786262, lon.=137.793958, Alt.=2429.470558m. Speed=1.000000m/h.]]></desc>
</trkpt>
<trkpt lat="36.786261" lon="137.793974">
<ele>2429.525767</ele>
<time>2014-08-19T00:54:47Z</time>
<desc><![CDATA[lat.=36.786261, lon.=137.793974, Alt.=2429.525767m. Speed=0.000000m/h.]]></desc>
</trkpt>
<trkpt lat="36.786239" lon="137.793988">
<ele>2431.244668</ele>
<time>2014-08-19T00:54:52Z</time>
<desc><![CDATA[lat.=36.786239, lon.=137.793988, Alt.=2431.244668m. Speed=0.000000m/h.]]></desc>
</trkpt>
<trkpt lat="36.786238" lon="137.794020">
<ele>2431.355087</ele>
<time>2014-08-19T00:54:57Z</time>
<desc><![CDATA[lat.=36.786238, lon.=137.794020, Alt.=2431.355087m. Speed=0.000000m/h.]]></desc>
</trkpt>
<trkpt lat="36.786241" lon="137.793995">
<ele>2434.166829</ele>
<time>2014-08-19T00:55:02Z</time>
<desc><![CDATA[lat.=36.786241, lon.=137.793995, Alt.=2434.166829m. Speed=0.000000m/h.]]></desc>
</trkpt>
<trkpt lat="36.786238" lon="137.793986">
<ele>2434.704855</ele>
<time>2014-08-19T00:55:07Z</time>
<desc><![CDATA[lat.=36.786238, lon.=137.793986, Alt.=2434.704855m. Speed=0.000000m/h.]]></desc>
</trkpt>
<trkpt lat="36.786264" lon="137.793996">
<ele>2432.503136</ele>
<time>2014-08-19T00:55:12Z</time>
<desc><![CDATA[lat.=36.786264, lon.=137.793996, Alt.=2432.503136m. Speed=2.000000m/h.]]></desc>
</trkpt>
<trkpt lat="36.786290" lon="137.793989">
<ele>2431.976303</ele>
<time>2014-08-19T00:55:17Z</time>
<desc><![CDATA[lat.=36.786290, lon.=137.793989, Alt.=2431.976303m. Speed=2.000000m/h.]]></desc>
</trkpt>
<trkpt lat="36.786320" lon="137.793992">
<ele>2429.181351</ele>
<time>2014-08-19T00:55:22Z</time>
<desc><![CDATA[lat.=36.786320, lon.=137.793992, Alt.=2429.181351m. Speed=0.000000m/h.]]></desc>
</trkpt>
<trkpt lat="36.786328" lon="137.793993">
<ele>2428.050090</ele>
<time>2014-08-19T00:55:27Z</time>
<desc><![CDATA[lat.=36.786328, lon.=137.793993, Alt.=2428.050090m. Speed=0.000000m/h.]]></desc>
</trkpt>
<trkpt lat="36.786327" lon="137.794008">
<ele>2428.105299</ele>
<time>2014-08-19T00:55:32Z</time>
<desc><![CDATA[lat.=36.786327, lon.=137.794008, Alt.=2428.105299m. Speed=2.000000m/h.]]></desc>
</trkpt>
<trkpt lat="36.786363" lon="137.794075">
<ele>2424.399929</ele>
<time>2014-08-19T00:55:37Z</time>
<desc><![CDATA[lat.=36.786363, lon.=137.794075, Alt.=2424.399929m. Speed=3.000000m/h.]]></desc>
</trkpt>
<trkpt lat="36.786381" lon="137.794132">
<ele>2421.765018</ele>
<time>2014-08-19T00:55:42Z</time>
<desc><![CDATA[lat.=36.786381, lon.=137.794132, Alt.=2421.765018m. Speed=4.000000m/h.]]></desc>
</trkpt>
<trkpt lat="36.786413" lon="137.794189">
<ele>2420.327779</ele>
<time>2014-08-19T00:55:47Z</time>
<desc><![CDATA[lat.=36.786413, lon.=137.794189, Alt.=2420.327779m. Speed=4.000000m/h.]]></desc>
</trkpt>
<trkpt lat="36.786434" lon="137.794254">
<ele>2418.884948</ele>
<time>2014-08-19T00:55:52Z</time>
<desc><![CDATA[lat.=36.786434, lon.=137.794254, Alt.=2418.884948m. Speed=4.000000m/h.]]></desc>
</trkpt>
<trkpt lat="36.786454" lon="137.794301">
<ele>2422.577187</ele>
<time>2014-08-19T00:55:57Z</time>
<desc><![CDATA[lat.=36.786454, lon.=137.794301, Alt.=2422.577187m. Speed=4.000000m/h.]]></desc>
</trkpt>
<trkpt lat="36.786472" lon="137.794357">
<ele>2421.672388</ele>
<time>2014-08-19T00:56:02Z</time>
<desc><![CDATA[lat.=36.786472, lon.=137.794357, Alt.=2421.672388m. Speed=4.000000m/h.]]></desc>
</trkpt>
<trkpt lat="36.786504" lon="137.794366">
<ele>2423.529706</ele>
<time>2014-08-19T00:56:07Z</time>
<desc><![CDATA[lat.=36.786504, lon.=137.794366, Alt.=2423.529706m. Speed=4.000000m/h.]]></desc>
</trkpt>
<trkpt lat="36.786512" lon="137.794367">
<ele>2420.668355</ele>
<time>2014-08-19T00:56:12Z</time>
<desc><![CDATA[lat.=36.786512, lon.=137.794367, Alt.=2420.668355m. Speed=0.000000m/h.]]></desc>
</trkpt>
<trkpt lat="36.786508" lon="137.794391">
<ele>2421.316809</ele>
<time>2014-08-19T00:56:17Z</time>
<desc><![CDATA[lat.=36.786508, lon.=137.794391, Alt.=2421.316809m. Speed=2.000000m/h.]]></desc>
</trkpt>
<trkpt lat="36.786507" lon="137.794455">
<ele>2419.807585</ele>
<time>2014-08-19T00:56:22Z</time>
<desc><![CDATA[lat.=36.786507, lon.=137.794455, Alt.=2419.807585m. Speed=3.000000m/h.]]></desc>
</trkpt>
<trkpt lat="36.786527" lon="137.794519">
<ele>2420.094872</ele>
<time>2014-08-19T00:56:27Z</time>
<desc><![CDATA[lat.=36.786527, lon.=137.794519, Alt.=2420.094872m. Speed=4.000000m/h.]]></desc>
</trkpt>
<trkpt lat="36.786548" lon="137.794599">
<ele>2418.707293</ele>
<time>2014-08-19T00:56:32Z</time>
<desc><![CDATA[lat.=36.786548, lon.=137.794599, Alt.=2418.707293m. Speed=4.000000m/h.]]></desc>
</trkpt>
<trkpt lat="36.786558" lon="137.794672">
<ele>2417.258905</ele>
<time>2014-08-19T00:56:37Z</time>
<desc><![CDATA[lat.=36.786558, lon.=137.794672, Alt.=2417.258905m. Speed=4.000000m/h.]]></desc>
</trkpt>
<trkpt lat="36.786549" lon="137.794735">
<ele>2416.880961</ele>
<time>2014-08-19T00:56:42Z</time>
<desc><![CDATA[lat.=36.786549, lon.=137.794735, Alt.=2416.880961m. Speed=4.000000m/h.]]></desc>
</trkpt>
<trkpt lat="36.786573" lon="137.794790">
<ele>2420.035216</ele>
<time>2014-08-19T00:56:47Z</time>
<desc><![CDATA[lat.=36.786573, lon.=137.794790, Alt.=2420.035216m. Speed=4.000000m/h.]]></desc>
</trkpt>
<trkpt lat="36.786583" lon="137.794830">
<ele>2420.206486</ele>
<time>2014-08-19T00:56:52Z</time>
<desc><![CDATA[lat.=36.786583, lon.=137.794830, Alt.=2420.206486m. Speed=4.000000m/h.]]></desc>
</trkpt>
<trkpt lat="36.786605" lon="137.794863">
<ele>2418.653262</ele>
<time>2014-08-19T00:56:57Z</time>
<desc><![CDATA[lat.=36.786605, lon.=137.794863, Alt.=2418.653262m. Speed=3.000000m/h.]]></desc>
</trkpt>
<trkpt lat="36.786612" lon="137.794863">
<ele>2419.252098</ele>
<time>2014-08-19T00:57:02Z</time>
<desc><![CDATA[lat.=36.786612, lon.=137.794863, Alt.=2419.252098m. Speed=0.000000m/h.]]></desc>
</trkpt>
<trkpt lat="36.786601" lon="137.794871">
<ele>2419.246503</ele>
<time>2014-08-19T00:57:07Z</time>
<desc><![CDATA[lat.=36.786601, lon.=137.794871, Alt.=2419.246503m. Speed=0.000000m/h.]]></desc>
</trkpt>
<trkpt lat="36.786594" lon="137.794855">
<ele>2418.592440</ele>
<time>2014-08-19T00:57:12Z</time>
<desc><![CDATA[lat.=36.786594, lon.=137.794855, Alt.=2418.592440m. Speed=0.000000m/h.]]></desc>
</trkpt>
<trkpt lat="36.786587" lon="137.794855">
<ele>2417.993604</ele>
<time>2014-08-19T00:57:17Z</time>
<desc><![CDATA[lat.=36.786587, lon.=137.794855, Alt.=2417.993604m. Speed=0.000000m/h.]]></desc>
</trkpt>
<trkpt lat="36.786590" lon="137.794862">
<ele>2419.185681</ele>
<time>2014-08-19T00:57:32Z</time>
<desc><![CDATA[lat.=36.786590, lon.=137.794862, Alt.=2419.185681m. Speed=0.000000m/h.]]></desc>
</trkpt>
<trkpt lat="36.786583" lon="137.794862">
<ele>2418.586845</ele>
<time>2014-08-19T00:57:37Z</time>
<desc><![CDATA[lat.=36.786583, lon.=137.794862, Alt.=2418.586845m. Speed=0.000000m/h.]]></desc>
</trkpt>
<trkpt lat="36.786590" lon="137.794862">
<ele>2419.185681</ele>
<time>2014-08-19T00:57:42Z</time>
<desc><![CDATA[lat.=36.786590, lon.=137.794862, Alt.=2419.185681m. Speed=0.000000m/h.]]></desc>
</trkpt>
<trkpt lat="36.786579" lon="137.794854">
<ele>2419.124861</ele>
<time>2014-08-19T00:57:47Z</time>
<desc><![CDATA[lat.=36.786579, lon.=137.794854, Alt.=2419.124861m. Speed=0.000000m/h.]]></desc>
</trkpt>
<trkpt lat="36.786575" lon="137.794846">
<ele>2419.662876</ele>
<time>2014-08-19T00:57:52Z</time>
<desc><![CDATA[lat.=36.786575, lon.=137.794846, Alt.=2419.662876m. Speed=0.000000m/h.]]></desc>
</trkpt>
<trkpt lat="36.786579" lon="137.794853">
<ele>2420.854953</ele>
<time>2014-08-19T00:57:57Z</time>
<desc><![CDATA[lat.=36.786579, lon.=137.794853, Alt.=2420.854953m. Speed=0.000000m/h.]]></desc>
</trkpt>
<trkpt lat="36.786583" lon="137.794846">
<ele>2420.261712</ele>
<time>2014-08-19T00:58:15Z</time>
<desc><![CDATA[lat.=36.786583, lon.=137.794846, Alt.=2420.261712m. Speed=0.000000m/h.]]></desc>
</trkpt>
<trkpt lat="36.786579" lon="137.794837">
<ele>2420.799727</ele>
<time>2014-08-19T00:58:21Z</time>
<desc><![CDATA[lat.=36.786579, lon.=137.794837, Alt.=2420.799727m. Speed=0.000000m/h.]]></desc>
</trkpt>
<trkpt lat="36.786575" lon="137.794845">
<ele>2421.392968</ele>
<time>2014-08-19T00:58:26Z</time>
<desc><![CDATA[lat.=36.786575, lon.=137.794845, Alt.=2421.392968m. Speed=0.000000m/h.]]></desc>
</trkpt>
<trkpt lat="36.786579" lon="137.794837">
<ele>2420.799727</ele>
<time>2014-08-19T00:58:41Z</time>
<desc><![CDATA[lat.=36.786579, lon.=137.794837, Alt.=2420.799727m. Speed=0.000000m/h.]]></desc>
</trkpt>
<trkpt lat="36.786575" lon="137.794845">
<ele>2421.392968</ele>
<time>2014-08-19T00:58:46Z</time>
<desc><![CDATA[lat.=36.786575, lon.=137.794845, Alt.=2421.392968m. Speed=0.000000m/h.]]></desc>
</trkpt>
<trkpt lat="36.786579" lon="137.794837">
<ele>2420.799727</ele>
<time>2014-08-19T00:58:51Z</time>
<desc><![CDATA[lat.=36.786579, lon.=137.794837, Alt.=2420.799727m. Speed=0.000000m/h.]]></desc>
</trkpt>
<trkpt lat="36.786583" lon="137.794846">
<ele>2420.261712</ele>
<time>2014-08-19T00:58:57Z</time>
<desc><![CDATA[lat.=36.786583, lon.=137.794846, Alt.=2420.261712m. Speed=0.000000m/h.]]></desc>
</trkpt>
<trkpt lat="36.786590" lon="137.794846">
<ele>2420.860548</ele>
<time>2014-08-19T00:59:04Z</time>
<desc><![CDATA[lat.=36.786590, lon.=137.794846, Alt.=2420.860548m. Speed=0.000000m/h.]]></desc>
</trkpt>
<trkpt lat="36.786586" lon="137.794837">
<ele>2421.398563</ele>
<time>2014-08-19T00:59:10Z</time>
<desc><![CDATA[lat.=36.786586, lon.=137.794837, Alt.=2421.398563m. Speed=0.000000m/h.]]></desc>
</trkpt>
<trkpt lat="36.786593" lon="137.794837">
<ele>2421.997399</ele>
<time>2014-08-19T00:59:27Z</time>
<desc><![CDATA[lat.=36.786593, lon.=137.794837, Alt.=2421.997399m. Speed=0.000000m/h.]]></desc>
</trkpt>
<trkpt lat="36.786601" lon="137.794838">
<ele>2420.866143</ele>
<time>2014-08-19T00:59:34Z</time>
<desc><![CDATA[lat.=36.786601, lon.=137.794838, Alt.=2420.866143m. Speed=0.000000m/h.]]></desc>
</trkpt>
<trkpt lat="36.786597" lon="137.794830">
<ele>2421.404159</ele>
<time>2014-08-19T00:59:39Z</time>
<desc><![CDATA[lat.=36.786597, lon.=137.794830, Alt.=2421.404159m. Speed=0.000000m/h.]]></desc>
</trkpt>
<trkpt lat="36.786593" lon="137.794837">
<ele>2421.997399</ele>
<time>2014-08-19T00:59:44Z</time>
<desc><![CDATA[lat.=36.786593, lon.=137.794837, Alt.=2421.997399m. Speed=0.000000m/h.]]></desc>
</trkpt>
<trkpt lat="36.786590" lon="137.794829">
<ele>2422.535415</ele>
<time>2014-08-19T00:59:49Z</time>
<desc><![CDATA[lat.=36.786590, lon.=137.794829, Alt.=2422.535415m. Speed=0.000000m/h.]]></desc>
</trkpt>
<trkpt lat="36.786597" lon="137.794829">
<ele>2423.134251</ele>
<time>2014-08-19T00:59:59Z</time>
<desc><![CDATA[lat.=36.786597, lon.=137.794829, Alt.=2423.134251m. Speed=0.000000m/h.]]></desc>
</trkpt>
<trkpt lat="36.786593" lon="137.794837">
<ele>2423.727492</ele>
<time>2014-08-19T01:00:04Z</time>
<desc><![CDATA[lat.=36.786593, lon.=137.794837, Alt.=2423.727492m. Speed=0.000000m/h.]]></desc>
</trkpt>
<trkpt lat="36.786589" lon="137.794828">
<ele>2424.265507</ele>
<time>2014-08-19T01:00:09Z</time>
<desc><![CDATA[lat.=36.786589, lon.=137.794828, Alt.=2424.265507m. Speed=0.000000m/h.]]></desc>
</trkpt>
<trkpt lat="36.786593" lon="137.794837">
<ele>2423.727492</ele>
<time>2014-08-19T01:00:15Z</time>
<desc><![CDATA[lat.=36.786593, lon.=137.794837, Alt.=2423.727492m. Speed=0.000000m/h.]]></desc>
</trkpt>
<trkpt lat="36.786589" lon="137.794828">
<ele>2424.265507</ele>
<time>2014-08-19T01:00:35Z</time>
<desc><![CDATA[lat.=36.786589, lon.=137.794828, Alt.=2424.265507m. Speed=0.000000m/h.]]></desc>
</trkpt>
<trkpt lat="36.786593" lon="137.794837">
<ele>2423.727492</ele>
<time>2014-08-19T01:00:48Z</time>
<desc><![CDATA[lat.=36.786593, lon.=137.794837, Alt.=2423.727492m. Speed=0.000000m/h.]]></desc>
</trkpt>
<trkpt lat="36.786589" lon="137.794844">
<ele>2424.320733</ele>
<time>2014-08-19T01:02:34Z</time>
<desc><![CDATA[lat.=36.786589, lon.=137.794844, Alt.=2424.320733m. Speed=0.000000m/h.]]></desc>
</trkpt>
<trkpt lat="36.786593" lon="137.794852">
<ele>2423.782717</ele>
<time>2014-08-19T01:02:49Z</time>
<desc><![CDATA[lat.=36.786593, lon.=137.794852, Alt.=2423.782717m. Speed=0.000000m/h.]]></desc>
</trkpt>
<trkpt lat="36.786597" lon="137.794845">
<ele>2423.189477</ele>
<time>2014-08-19T01:03:10Z</time>
<desc><![CDATA[lat.=36.786597, lon.=137.794845, Alt.=2423.189477m. Speed=0.000000m/h.]]></desc>
</trkpt>
<trkpt lat="36.786593" lon="137.794852">
<ele>2423.782717</ele>
<time>2014-08-19T01:03:15Z</time>
<desc><![CDATA[lat.=36.786593, lon.=137.794852, Alt.=2423.782717m. Speed=0.000000m/h.]]></desc>
</trkpt>
<trkpt lat="36.786589" lon="137.794844">
<ele>2424.320733</ele>
<time>2014-08-19T01:03:22Z</time>
<desc><![CDATA[lat.=36.786589, lon.=137.794844, Alt.=2424.320733m. Speed=0.000000m/h.]]></desc>
</trkpt>
<trkpt lat="36.786593" lon="137.794852">
<ele>2423.782717</ele>
<time>2014-08-19T01:03:40Z</time>
<desc><![CDATA[lat.=36.786593, lon.=137.794852, Alt.=2423.782717m. Speed=0.000000m/h.]]></desc>
</trkpt>
<trkpt lat="36.786585" lon="137.794852">
<ele>2423.183881</ele>
<time>2014-08-19T01:03:45Z</time>
<desc><![CDATA[lat.=36.786585, lon.=137.794852, Alt.=2423.183881m. Speed=0.000000m/h.]]></desc>
</trkpt>
<trkpt lat="36.786589" lon="137.794845">
<ele>2422.590640</ele>
<time>2014-08-19T01:04:03Z</time>
<desc><![CDATA[lat.=36.786589, lon.=137.794845, Alt.=2422.590640m. Speed=0.000000m/h.]]></desc>
</trkpt>
<trkpt lat="36.786585" lon="137.794852">
<ele>2423.183881</ele>
<time>2014-08-19T01:04:21Z</time>
<desc><![CDATA[lat.=36.786585, lon.=137.794852, Alt.=2423.183881m. Speed=0.000000m/h.]]></desc>
</trkpt>
<trkpt lat="36.786559" lon="137.794859">
<ele>2423.710707</ele>
<time>2014-08-19T01:04:26Z</time>
<desc><![CDATA[lat.=36.786559, lon.=137.794859, Alt.=2423.710707m. Speed=2.000000m/h.]]></desc>
</trkpt>
<trkpt lat="36.786500" lon="137.794873">
<ele>2422.435435</ele>
<time>2014-08-19T01:04:31Z</time>
<desc><![CDATA[lat.=36.786500, lon.=137.794873, Alt.=2422.435435m. Speed=3.000000m/h.]]></desc>
</trkpt>
<trkpt lat="36.786475" lon="137.794849">
<ele>2422.851813</ele>
<time>2014-08-19T01:04:36Z</time>
<desc><![CDATA[lat.=36.786475, lon.=137.794849, Alt.=2422.851813m. Speed=4.000000m/h.]]></desc>
</trkpt>
<trkpt lat="36.786487" lon="137.794842">
<ele>2421.127314</ele>
<time>2014-08-19T01:04:41Z</time>
<desc><![CDATA[lat.=36.786487, lon.=137.794842, Alt.=2421.127314m. Speed=0.000000m/h.]]></desc>
</trkpt>
<trkpt lat="36.786494" lon="137.794842">
<ele>2421.726149</ele>
<time>2014-08-19T01:04:46Z</time>
<desc><![CDATA[lat.=36.786494, lon.=137.794842, Alt.=2421.726149m. Speed=0.000000m/h.]]></desc>
</trkpt>
<trkpt lat="36.786502" lon="137.794843">
<ele>2420.594891</ele>
<time>2014-08-19T01:04:53Z</time>
<desc><![CDATA[lat.=36.786502, lon.=137.794843, Alt.=2420.594891m. Speed=0.000000m/h.]]></desc>
</trkpt>
<trkpt lat="36.786506" lon="137.794835">
<ele>2420.001649</ele>
<time>2014-08-19T01:05:03Z</time>
<desc><![CDATA[lat.=36.786506, lon.=137.794835, Alt.=2420.001649m. Speed=0.000000m/h.]]></desc>
</trkpt>
<trkpt lat="36.786498" lon="137.794834">
<ele>2421.132907</ele>
<time>2014-08-19T01:05:08Z</time>
<desc><![CDATA[lat.=36.786498, lon.=137.794834, Alt.=2421.132907m. Speed=0.000000m/h.]]></desc>
</trkpt>
<trkpt lat="36.786498" lon="137.794835">
<ele>2419.402815</ele>
<time>2014-08-19T01:05:13Z</time>
<desc><![CDATA[lat.=36.786498, lon.=137.794835, Alt.=2419.402815m. Speed=0.000000m/h.]]></desc>
</trkpt>
<trkpt lat="36.786495" lon="137.794828">
<ele>2418.210738</ele>
<time>2014-08-19T01:05:18Z</time>
<desc><![CDATA[lat.=36.786495, lon.=137.794828, Alt.=2418.210738m. Speed=0.000000m/h.]]></desc>
</trkpt>
<trkpt lat="36.786495" lon="137.794843">
<ele>2418.265964</ele>
<time>2014-08-19T01:05:26Z</time>
<desc><![CDATA[lat.=36.786495, lon.=137.794843, Alt.=2418.265964m. Speed=0.000000m/h.]]></desc>
</trkpt>
<trkpt lat="36.786484" lon="137.794851">
<ele>2418.260371</ele>
<time>2014-08-19T01:05:40Z</time>
<desc><![CDATA[lat.=36.786484, lon.=137.794851, Alt.=2418.260371m. Speed=1.000000m/h.]]></desc>
</trkpt>
<trkpt lat="36.786431" lon="137.794881">
<ele>2417.639168</ele>
<time>2014-08-19T01:05:45Z</time>
<desc><![CDATA[lat.=36.786431, lon.=137.794881, Alt.=2417.639168m. Speed=3.000000m/h.]]></desc>
</trkpt>
<trkpt lat="36.786461" lon="137.794850">
<ele>2418.193960</ele>
<time>2014-08-19T01:05:50Z</time>
<desc><![CDATA[lat.=36.786461, lon.=137.794850, Alt.=2418.193960m. Speed=3.000000m/h.]]></desc>
</trkpt>
<trkpt lat="36.786491" lon="137.794835">
<ele>2418.803980</ele>
<time>2014-08-19T01:05:55Z</time>
<desc><![CDATA[lat.=36.786491, lon.=137.794835, Alt.=2418.803980m. Speed=3.000000m/h.]]></desc>
</trkpt>
<trkpt lat="36.786488" lon="137.794843">
<ele>2417.667129</ele>
<time>2014-08-19T01:06:00Z</time>
<desc><![CDATA[lat.=36.786488, lon.=137.794843, Alt.=2417.667129m. Speed=0.000000m/h.]]></desc>
</trkpt>
<trkpt lat="36.786473" lon="137.794843">
<ele>2416.469460</ele>
<time>2014-08-19T01:06:05Z</time>
<desc><![CDATA[lat.=36.786473, lon.=137.794843, Alt.=2416.469460m. Speed=1.000000m/h.]]></desc>
</trkpt>
<trkpt lat="36.786409" lon="137.794880">
<ele>2417.572759</ele>
<time>2014-08-19T01:06:10Z</time>
<desc><![CDATA[lat.=36.786409, lon.=137.794880, Alt.=2417.572759m. Speed=4.000000m/h.]]></desc>
</trkpt>
<trkpt lat="36.786365" lon="137.794910">
<ele>2417.550397</ele>
<time>2014-08-19T01:06:15Z</time>
<desc><![CDATA[lat.=36.786365, lon.=137.794910, Alt.=2417.550397m. Speed=4.000000m/h.]]></desc>
</trkpt>
<trkpt lat="36.786309" lon="137.794932">
<ele>2417.467225</ele>
<time>2014-08-19T01:06:20Z</time>
<desc><![CDATA[lat.=36.786309, lon.=137.794932, Alt.=2417.467225m. Speed=4.000000m/h.]]></desc>
</trkpt>
<trkpt lat="36.786256" lon="137.794961">
<ele>2418.576135</ele>
<time>2014-08-19T01:06:25Z</time>
<desc><![CDATA[lat.=36.786256, lon.=137.794961, Alt.=2418.576135m. Speed=4.000000m/h.]]></desc>
</trkpt>
<trkpt lat="36.786207" lon="137.794998">
<ele>2420.877128</ele>
<time>2014-08-19T01:06:30Z</time>
<desc><![CDATA[lat.=36.786207, lon.=137.794998, Alt.=2420.877128m. Speed=5.000000m/h.]]></desc>
</trkpt>
<trkpt lat="36.786148" lon="137.795028">
<ele>2419.657128</ele>
<time>2014-08-19T01:06:35Z</time>
<desc><![CDATA[lat.=36.786148, lon.=137.795028, Alt.=2419.657128m. Speed=5.000000m/h.]]></desc>
</trkpt>
<trkpt lat="36.786078" lon="137.795050">
<ele>2418.376324</ele>
<time>2014-08-19T01:06:40Z</time>
<desc><![CDATA[lat.=36.786078, lon.=137.795050, Alt.=2418.376324m. Speed=5.000000m/h.]]></desc>
</trkpt>
<trkpt lat="36.786036" lon="137.795088">
<ele>2419.546073</ele>
<time>2014-08-19T01:06:45Z</time>
<desc><![CDATA[lat.=36.786036, lon.=137.795088, Alt.=2419.546073m. Speed=5.000000m/h.]]></desc>
</trkpt>
<trkpt lat="36.786002" lon="137.795143">
<ele>2417.909703</ele>
<time>2014-08-19T01:06:50Z</time>
<desc><![CDATA[lat.=36.786002, lon.=137.795143, Alt.=2417.909703m. Speed=4.000000m/h.]]></desc>
</trkpt>
<trkpt lat="36.785961" lon="137.795165">
<ele>2417.294137</ele>
<time>2014-08-19T01:06:55Z</time>
<desc><![CDATA[lat.=36.785961, lon.=137.795165, Alt.=2417.294137m. Speed=4.000000m/h.]]></desc>
</trkpt>
<trkpt lat="36.785938" lon="137.795212">
<ele>2417.393447</ele>
<time>2014-08-19T01:07:00Z</time>
<desc><![CDATA[lat.=36.785938, lon.=137.795212, Alt.=2417.393447m. Speed=4.000000m/h.]]></desc>
</trkpt>
<trkpt lat="36.785929" lon="137.795291">
<ele>2417.070791</ele>
<time>2014-08-19T01:07:05Z</time>
<desc><![CDATA[lat.=36.785929, lon.=137.795291, Alt.=2417.070791m. Speed=4.000000m/h.]]></desc>
</trkpt>
<trkpt lat="36.785917" lon="137.795363">
<ele>2415.556065</ele>
<time>2014-08-19T01:07:10Z</time>
<desc><![CDATA[lat.=36.785917, lon.=137.795363, Alt.=2415.556065m. Speed=4.000000m/h.]]></desc>
</trkpt>
<trkpt lat="36.785894" lon="137.795409">
<ele>2415.655388</ele>
<time>2014-08-19T01:07:15Z</time>
<desc><![CDATA[lat.=36.785894, lon.=137.795409, Alt.=2415.655388m. Speed=4.000000m/h.]]></desc>
</trkpt>
<trkpt lat="36.785871" lon="137.795456">
<ele>2415.754714</ele>
<time>2014-08-19T01:07:20Z</time>
<desc><![CDATA[lat.=36.785871, lon.=137.795456, Alt.=2415.754714m. Speed=4.000000m/h.]]></desc>
</trkpt>
<trkpt lat="36.785859" lon="137.795495">
<ele>2415.859618</ele>
<time>2014-08-19T01:07:25Z</time>
<desc><![CDATA[lat.=36.785859, lon.=137.795495, Alt.=2415.859618m. Speed=4.000000m/h.]]></desc>
</trkpt>
<trkpt lat="36.785847" lon="137.795518">
<ele>2417.639376</ele>
<time>2014-08-19T01:07:30Z</time>
<desc><![CDATA[lat.=36.785847, lon.=137.795518, Alt.=2417.639376m. Speed=3.000000m/h.]]></desc>
</trkpt>
<trkpt lat="36.785856" lon="137.795557">
<ele>2419.540761</ele>
<time>2014-08-19T01:07:35Z</time>
<desc><![CDATA[lat.=36.785856, lon.=137.795557, Alt.=2419.540761m. Speed=0.000000m/h.]]></desc>
</trkpt>
<trkpt lat="36.785853" lon="137.795565">
<ele>2418.403922</ele>
<time>2014-08-19T01:07:41Z</time>
<desc><![CDATA[lat.=36.785853, lon.=137.795565, Alt.=2418.403922m. Speed=2.000000m/h.]]></desc>
</trkpt>
<trkpt lat="36.785842" lon="137.795589">
<ele>2416.723498</ele>
<time>2014-08-19T01:07:46Z</time>
<desc><![CDATA[lat.=36.785842, lon.=137.795589, Alt.=2416.723498m. Speed=0.000000m/h.]]></desc>
</trkpt>
<trkpt lat="36.785838" lon="137.795582">
<ele>2415.531419</ele>
<time>2014-08-19T01:07:51Z</time>
<desc><![CDATA[lat.=36.785838, lon.=137.795582, Alt.=2415.531419m. Speed=0.000000m/h.]]></desc>
</trkpt>
<trkpt lat="36.785835" lon="137.795558">
<ele>2414.284099</ele>
<time>2014-08-19T01:07:56Z</time>
<desc><![CDATA[lat.=36.785835, lon.=137.795558, Alt.=2414.284099m. Speed=0.000000m/h.]]></desc>
</trkpt>
<trkpt lat="36.785847" lon="137.795552">
<ele>2412.559579</ele>
<time>2014-08-19T01:08:01Z</time>
<desc><![CDATA[lat.=36.785847, lon.=137.795552, Alt.=2412.559579m. Speed=0.000000m/h.]]></desc>
</trkpt>
<trkpt lat="36.785854" lon="137.795552">
<ele>2413.158405</ele>
<time>2014-08-19T01:08:06Z</time>
<desc><![CDATA[lat.=36.785854, lon.=137.795552, Alt.=2413.158405m. Speed=0.000000m/h.]]></desc>
</trkpt>
<trkpt lat="36.785855" lon="137.795536">
<ele>2413.103165</ele>
<time>2014-08-19T01:08:11Z</time>
<desc><![CDATA[lat.=36.785855, lon.=137.795536, Alt.=2413.103165m. Speed=0.000000m/h.]]></desc>
</trkpt>
<trkpt lat="36.785862" lon="137.795536">
<ele>2413.701991</ele>
<time>2014-08-19T01:08:21Z</time>
<desc><![CDATA[lat.=36.785862, lon.=137.795536, Alt.=2413.701991m. Speed=0.000000m/h.]]></desc>
</trkpt>
<trkpt lat="36.785854" lon="137.795535">
<ele>2414.833257</ele>
<time>2014-08-19T01:08:26Z</time>
<desc><![CDATA[lat.=36.785854, lon.=137.795535, Alt.=2414.833257m. Speed=0.000000m/h.]]></desc>
</trkpt>
<trkpt lat="36.785858" lon="137.795543">
<ele>2414.295244</ele>
<time>2014-08-19T01:08:31Z</time>
<desc><![CDATA[lat.=36.785858, lon.=137.795543, Alt.=2414.295244m. Speed=0.000000m/h.]]></desc>
</trkpt>
<trkpt lat="36.785854" lon="137.795535">
<ele>2414.833257</ele>
<time>2014-08-19T01:08:36Z</time>
<desc><![CDATA[lat.=36.785854, lon.=137.795535, Alt.=2414.833257m. Speed=0.000000m/h.]]></desc>
</trkpt>
<trkpt lat="36.785861" lon="137.795535">
<ele>2415.432083</ele>
<time>2014-08-19T01:08:43Z</time>
<desc><![CDATA[lat.=36.785861, lon.=137.795535, Alt.=2415.432083m. Speed=0.000000m/h.]]></desc>
</trkpt>
<trkpt lat="36.785869" lon="137.795535">
<ele>2416.030909</ele>
<time>2014-08-19T01:09:11Z</time>
<desc><![CDATA[lat.=36.785869, lon.=137.795535, Alt.=2416.030909m. Speed=0.000000m/h.]]></desc>
</trkpt>
<trkpt lat="36.785872" lon="137.795543">
<ele>2415.492896</ele>
<time>2014-08-19T01:09:16Z</time>
<desc><![CDATA[lat.=36.785872, lon.=137.795543, Alt.=2415.492896m. Speed=0.000000m/h.]]></desc>
</trkpt>
<trkpt lat="36.785865" lon="137.795543">
<ele>2414.894070</ele>
<time>2014-08-19T01:09:21Z</time>
<desc><![CDATA[lat.=36.785865, lon.=137.795543, Alt.=2414.894070m. Speed=0.000000m/h.]]></desc>
</trkpt>
<trkpt lat="36.785873" lon="137.795512">
<ele>2415.382417</ele>
<time>2014-08-19T01:09:26Z</time>
<desc><![CDATA[lat.=36.785873, lon.=137.795512, Alt.=2415.382417m. Speed=2.000000m/h.]]></desc>
</trkpt>
<trkpt lat="36.785880" lon="137.795495">
<ele>2417.656096</ele>
<time>2014-08-19T01:09:31Z</time>
<desc><![CDATA[lat.=36.785880, lon.=137.795495, Alt.=2417.656096m. Speed=0.000000m/h.]]></desc>
</trkpt>
<trkpt lat="36.785881" lon="137.795496">
<ele>2415.926004</ele>
<time>2014-08-19T01:09:36Z</time>
<desc><![CDATA[lat.=36.785881, lon.=137.795496, Alt.=2415.926004m. Speed=0.000000m/h.]]></desc>
</trkpt>
<trkpt lat="36.785889" lon="137.795448">
<ele>2416.359115</ele>
<time>2014-08-19T01:09:41Z</time>
<desc><![CDATA[lat.=36.785889, lon.=137.795448, Alt.=2416.359115m. Speed=2.000000m/h.]]></desc>
</trkpt>
<trkpt lat="36.785916" lon="137.795427">
<ele>2414.046920</ele>
<time>2014-08-19T01:09:46Z</time>
<desc><![CDATA[lat.=36.785916, lon.=137.795427, Alt.=2414.046920m. Speed=3.000000m/h.]]></desc>
</trkpt>
<trkpt lat="36.785935" lon="137.795388">
<ele>2414.540848</ele>
<time>2014-08-19T01:09:51Z</time>
<desc><![CDATA[lat.=36.785935, lon.=137.795388, Alt.=2414.540848m. Speed=3.000000m/h.]]></desc>
</trkpt>
<trkpt lat="36.785947" lon="137.795348">
<ele>2414.435951</ele>
<time>2014-08-19T01:09:56Z</time>
<desc><![CDATA[lat.=36.785947, lon.=137.795348, Alt.=2414.435951m. Speed=3.000000m/h.]]></desc>
</trkpt>
<trkpt lat="36.785926" lon="137.795283">
<ele>2417.608806</ele>
<time>2014-08-19T01:10:01Z</time>
<desc><![CDATA[lat.=36.785926, lon.=137.795283, Alt.=2417.608806m. Speed=4.000000m/h.]]></desc>
</trkpt>
<trkpt lat="36.785916" lon="137.795210">
<ele>2419.057151</ele>
<time>2014-08-19T01:10:06Z</time>
<desc><![CDATA[lat.=36.785916, lon.=137.795210, Alt.=2419.057151m. Speed=4.000000m/h.]]></desc>
</trkpt>
<trkpt lat="36.785913" lon="137.795171">
<ele>2417.754609</ele>
<time>2014-08-19T01:10:11Z</time>
<desc><![CDATA[lat.=36.785913, lon.=137.795171, Alt.=2417.754609m. Speed=4.000000m/h.]]></desc>
</trkpt>
<trkpt lat="36.785913" lon="137.795170">
<ele>2419.484702</ele>
<time>2014-08-19T01:10:16Z</time>
<desc><![CDATA[lat.=36.785913, lon.=137.795170, Alt.=2419.484702m. Speed=0.000000m/h.]]></desc>
</trkpt>
<trkpt lat="36.785910" lon="137.795163">
<ele>2418.292626</ele>
<time>2014-08-19T01:10:21Z</time>
<desc><![CDATA[lat.=36.785910, lon.=137.795163, Alt.=2418.292626m. Speed=0.000000m/h.]]></desc>
</trkpt>
<trkpt lat="36.785965" lon="137.795158">
<ele>2416.700889</ele>
<time>2014-08-19T01:10:26Z</time>
<desc><![CDATA[lat.=36.785965, lon.=137.795158, Alt.=2416.700889m. Speed=2.000000m/h.]]></desc>
</trkpt>
<trkpt lat="36.785991" lon="137.795151">
<ele>2416.174030</ele>
<time>2014-08-19T01:10:31Z</time>
<desc><![CDATA[lat.=36.785991, lon.=137.795151, Alt.=2416.174030m. Speed=3.000000m/h.]]></desc>
</trkpt>
<trkpt lat="36.786021" lon="137.795120">
<ele>2416.728786</ele>
<time>2014-08-19T01:10:36Z</time>
<desc><![CDATA[lat.=36.786021, lon.=137.795120, Alt.=2416.728786m. Speed=3.000000m/h.]]></desc>
</trkpt>
<trkpt lat="36.786032" lon="137.795128">
<ele>2418.519691</ele>
<time>2014-08-19T01:10:41Z</time>
<desc><![CDATA[lat.=36.786032, lon.=137.795128, Alt.=2418.519691m. Speed=0.000000m/h.]]></desc>
</trkpt>
<trkpt lat="36.786005" lon="137.795166">
<ele>2419.157011</ele>
<time>2014-08-19T01:10:46Z</time>
<desc><![CDATA[lat.=36.786005, lon.=137.795166, Alt.=2419.157011m. Speed=2.000000m/h.]]></desc>
</trkpt>
<trkpt lat="36.785967" lon="137.795196">
<ele>2419.733523</ele>
<time>2014-08-19T01:10:51Z</time>
<desc><![CDATA[lat.=36.785967, lon.=137.795196, Alt.=2419.733523m. Speed=3.000000m/h.]]></desc>
</trkpt>
<trkpt lat="36.785920" lon="137.795203">
<ele>2418.463902</ele>
<time>2014-08-19T01:10:56Z</time>
<desc><![CDATA[lat.=36.785920, lon.=137.795203, Alt.=2418.463902m. Speed=2.000000m/h.]]></desc>
</trkpt>
<trkpt lat="36.785916" lon="137.795195">
<ele>2419.001918</ele>
<time>2014-08-19T01:11:01Z</time>
<desc><![CDATA[lat.=36.785916, lon.=137.795195, Alt.=2419.001918m. Speed=0.000000m/h.]]></desc>
</trkpt>
<trkpt lat="36.785923" lon="137.795195">
<ele>2419.600745</ele>
<time>2014-08-19T01:11:08Z</time>
<desc><![CDATA[lat.=36.785923, lon.=137.795195, Alt.=2419.600745m. Speed=0.000000m/h.]]></desc>
</trkpt>
<trkpt lat="36.785919" lon="137.795202">
<ele>2420.193994</ele>
<time>2014-08-19T01:11:19Z</time>
<desc><![CDATA[lat.=36.785919, lon.=137.795202, Alt.=2420.193994m. Speed=0.000000m/h.]]></desc>
</trkpt>
<trkpt lat="36.785912" lon="137.795202">
<ele>2419.595168</ele>
<time>2014-08-19T01:11:24Z</time>
<desc><![CDATA[lat.=36.785912, lon.=137.795202, Alt.=2419.595168m. Speed=0.000000m/h.]]></desc>
</trkpt>
<trkpt lat="36.785913" lon="137.795187">
<ele>2417.809842</ele>
<time>2014-08-19T01:11:29Z</time>
<desc><![CDATA[lat.=36.785913, lon.=137.795187, Alt.=2417.809842m. Speed=1.000000m/h.]]></desc>
</trkpt>
<trkpt lat="36.785969" lon="137.795167">
<ele>2414.432780</ele>
<time>2014-08-19T01:11:34Z</time>
<desc><![CDATA[lat.=36.785969, lon.=137.795167, Alt.=2414.432780m. Speed=3.000000m/h.]]></desc>
</trkpt>
<trkpt lat="36.786018" lon="137.795128">
<ele>2415.591942</ele>
<time>2014-08-19T01:11:39Z</time>
<desc><![CDATA[lat.=36.786018, lon.=137.795128, Alt.=2415.591942m. Speed=4.000000m/h.]]></desc>
</trkpt>
<trkpt lat="36.786066" lon="137.795090">
<ele>2416.751110</ele>
<time>2014-08-19T01:11:44Z</time>
<desc><![CDATA[lat.=36.786066, lon.=137.795090, Alt.=2416.751110m. Speed=4.000000m/h.]]></desc>
</trkpt>
<trkpt lat="36.786119" lon="137.795044">
<ele>2417.317038</ele>
<time>2014-08-19T01:11:49Z</time>
<desc><![CDATA[lat.=36.786119, lon.=137.795044, Alt.=2417.317038m. Speed=4.000000m/h.]]></desc>
</trkpt>
<trkpt lat="36.786164" lon="137.795014">
<ele>2417.339374</ele>
<time>2014-08-19T01:11:54Z</time>
<desc><![CDATA[lat.=36.786164, lon.=137.795014, Alt.=2417.339374m. Speed=4.000000m/h.]]></desc>
</trkpt>
<trkpt lat="36.786219" lon="137.795008">
<ele>2417.477757</ele>
<time>2014-08-19T01:11:59Z</time>
<desc><![CDATA[lat.=36.786219, lon.=137.795008, Alt.=2417.477757m. Speed=4.000000m/h.]]></desc>
</trkpt>
<trkpt lat="36.786271" lon="137.794979">
<ele>2416.368841</ele>
<time>2014-08-19T01:12:04Z</time>
<desc><![CDATA[lat.=36.786271, lon.=137.794979, Alt.=2416.368841m. Speed=5.000000m/h.]]></desc>
</trkpt>
<trkpt lat="36.786338" lon="137.794949">
<ele>2418.187690</ele>
<time>2014-08-19T01:12:09Z</time>
<desc><![CDATA[lat.=36.786338, lon.=137.794949, Alt.=2418.187690m. Speed=5.000000m/h.]]></desc>
</trkpt>
<trkpt lat="36.786390" lon="137.794951">
<ele>2417.189243</ele>
<time>2014-08-19T01:12:14Z</time>
<desc><![CDATA[lat.=36.786390, lon.=137.794951, Alt.=2417.189243m. Speed=5.000000m/h.]]></desc>
</trkpt>
<trkpt lat="36.786442" lon="137.794905">
<ele>2417.755212</ele>
<time>2014-08-19T01:12:19Z</time>
<desc><![CDATA[lat.=36.786442, lon.=137.794905, Alt.=2417.755212m. Speed=5.000000m/h.]]></desc>
</trkpt>
<trkpt lat="36.786480" lon="137.794843">
<ele>2418.798387</ele>
<time>2014-08-19T01:12:24Z</time>
<desc><![CDATA[lat.=36.786480, lon.=137.794843, Alt.=2418.798387m. Speed=5.000000m/h.]]></desc>
</trkpt>
<trkpt lat="36.786510" lon="137.794828">
<ele>2419.408408</ele>
<time>2014-08-19T01:12:29Z</time>
<desc><![CDATA[lat.=36.786510, lon.=137.794828, Alt.=2419.408408m. Speed=4.000000m/h.]]></desc>
</trkpt>
<trkpt lat="36.786514" lon="137.794820">
<ele>2418.815167</ele>
<time>2014-08-19T01:12:34Z</time>
<desc><![CDATA[lat.=36.786514, lon.=137.794820, Alt.=2418.815167m. Speed=0.000000m/h.]]></desc>
</trkpt>
<trkpt lat="36.786507" lon="137.794821">
<ele>2416.486239</ele>
<time>2014-08-19T01:12:39Z</time>
<desc><![CDATA[lat.=36.786507, lon.=137.794821, Alt.=2416.486239m. Speed=0.000000m/h.]]></desc>
</trkpt>
<trkpt lat="36.786510" lon="137.794812">
<ele>2417.623090</ele>
<time>2014-08-19T01:12:44Z</time>
<desc><![CDATA[lat.=36.786510, lon.=137.794812, Alt.=2417.623090m. Speed=0.000000m/h.]]></desc>
</trkpt>
<trkpt lat="36.786513" lon="137.794803">
<ele>2420.490034</ele>
<time>2014-08-19T01:12:49Z</time>
<desc><![CDATA[lat.=36.786513, lon.=137.794803, Alt.=2420.490034m. Speed=0.000000m/h.]]></desc>
</trkpt>
<trkpt lat="36.786506" lon="137.794803">
<ele>2419.891199</ele>
<time>2014-08-19T01:12:54Z</time>
<desc><![CDATA[lat.=36.786506, lon.=137.794803, Alt.=2419.891199m. Speed=0.000000m/h.]]></desc>
</trkpt>
<trkpt lat="36.786510" lon="137.794812">
<ele>2419.353183</ele>
<time>2014-08-19T01:12:59Z</time>
<desc><![CDATA[lat.=36.786510, lon.=137.794812, Alt.=2419.353183m. Speed=0.000000m/h.]]></desc>
</trkpt>
<trkpt lat="36.786514" lon="137.794820">
<ele>2418.815167</ele>
<time>2014-08-19T01:13:07Z</time>
<desc><![CDATA[lat.=36.786514, lon.=137.794820, Alt.=2418.815167m. Speed=0.000000m/h.]]></desc>
</trkpt>
<trkpt lat="36.786510" lon="137.794828">
<ele>2419.408408</ele>
<time>2014-08-19T01:13:12Z</time>
<desc><![CDATA[lat.=36.786510, lon.=137.794828, Alt.=2419.408408m. Speed=0.000000m/h.]]></desc>
</trkpt>
<trkpt lat="36.786502" lon="137.794828">
<ele>2418.809573</ele>
<time>2014-08-19T01:13:23Z</time>
<desc><![CDATA[lat.=36.786502, lon.=137.794828, Alt.=2418.809573m. Speed=0.000000m/h.]]></desc>
</trkpt>
<trkpt lat="36.786506" lon="137.794820">
<ele>2418.216332</ele>
<time>2014-08-19T01:13:28Z</time>
<desc><![CDATA[lat.=36.786506, lon.=137.794820, Alt.=2418.216332m. Speed=0.000000m/h.]]></desc>
</trkpt>
<trkpt lat="36.786510" lon="137.794828">
<ele>2419.408408</ele>
<time>2014-08-19T01:13:33Z</time>
<desc><![CDATA[lat.=36.786510, lon.=137.794828, Alt.=2419.408408m. Speed=0.000000m/h.]]></desc>
</trkpt>
<trkpt lat="36.786506" lon="137.794835">
<ele>2420.001649</ele>
<time>2014-08-19T01:13:48Z</time>
<desc><![CDATA[lat.=36.786506, lon.=137.794835, Alt.=2420.001649m. Speed=0.000000m/h.]]></desc>
</trkpt>
<trkpt lat="36.786502" lon="137.794827">
<ele>2420.539666</ele>
<time>2014-08-19T01:13:53Z</time>
<desc><![CDATA[lat.=36.786502, lon.=137.794827, Alt.=2420.539666m. Speed=0.000000m/h.]]></desc>
</trkpt>
<trkpt lat="36.786498" lon="137.794818">
<ele>2421.077682</ele>
<time>2014-08-19T01:14:16Z</time>
<desc><![CDATA[lat.=36.786498, lon.=137.794818, Alt.=2421.077682m. Speed=0.000000m/h.]]></desc>
</trkpt>
<trkpt lat="36.786502" lon="137.794827">
<ele>2420.539666</ele>
<time>2014-08-19T01:14:21Z</time>
<desc><![CDATA[lat.=36.786502, lon.=137.794827, Alt.=2420.539666m. Speed=0.000000m/h.]]></desc>
</trkpt>
<trkpt lat="36.786506" lon="137.794819">
<ele>2419.946424</ele>
<time>2014-08-19T01:14:37Z</time>
<desc><![CDATA[lat.=36.786506, lon.=137.794819, Alt.=2419.946424m. Speed=0.000000m/h.]]></desc>
</trkpt>
<trkpt lat="36.786502" lon="137.794827">
<ele>2420.539666</ele>
<time>2014-08-19T01:14:47Z</time>
<desc><![CDATA[lat.=36.786502, lon.=137.794827, Alt.=2420.539666m. Speed=0.000000m/h.]]></desc>
</trkpt>
<trkpt lat="36.786495" lon="137.794827">
<ele>2419.940831</ele>
<time>2014-08-19T01:15:24Z</time>
<desc><![CDATA[lat.=36.786495, lon.=137.794827, Alt.=2419.940831m. Speed=0.000000m/h.]]></desc>
</trkpt>
<trkpt lat="36.786498" lon="137.794835">
<ele>2419.402815</ele>
<time>2014-08-19T01:15:44Z</time>
<desc><![CDATA[lat.=36.786498, lon.=137.794835, Alt.=2419.402815m. Speed=0.000000m/h.]]></desc>
</trkpt>
<trkpt lat="36.786491" lon="137.794835">
<ele>2418.803980</ele>
<time>2014-08-19T01:16:48Z</time>
<desc><![CDATA[lat.=36.786491, lon.=137.794835, Alt.=2418.803980m. Speed=0.000000m/h.]]></desc>
</trkpt>
<trkpt lat="36.786498" lon="137.794835">
<ele>2419.402815</ele>
<time>2014-08-19T01:17:02Z</time>
<desc><![CDATA[lat.=36.786498, lon.=137.794835, Alt.=2419.402815m. Speed=0.000000m/h.]]></desc>
</trkpt>
<trkpt lat="36.786491" lon="137.794835">
<ele>2418.803980</ele>
<time>2014-08-19T01:17:07Z</time>
<desc><![CDATA[lat.=36.786491, lon.=137.794835, Alt.=2418.803980m. Speed=0.000000m/h.]]></desc>
</trkpt>
<trkpt lat="36.786487" lon="137.794843">
<ele>2419.397221</ele>
<time>2014-08-19T01:18:16Z</time>
<desc><![CDATA[lat.=36.786487, lon.=137.794843, Alt.=2419.397221m. Speed=0.000000m/h.]]></desc>
</trkpt>
<trkpt lat="36.786491" lon="137.794851">
<ele>2418.859205</ele>
<time>2014-08-19T01:18:21Z</time>
<desc><![CDATA[lat.=36.786491, lon.=137.794851, Alt.=2418.859205m. Speed=0.000000m/h.]]></desc>
</trkpt>
<trkpt lat="36.786487" lon="137.794843">
<ele>2419.397221</ele>
<time>2014-08-19T01:20:28Z</time>
<desc><![CDATA[lat.=36.786487, lon.=137.794843, Alt.=2419.397221m. Speed=0.000000m/h.]]></desc>
</trkpt>
<trkpt lat="36.786483" lon="137.794834">
<ele>2419.935237</ele>
<time>2014-08-19T01:20:40Z</time>
<desc><![CDATA[lat.=36.786483, lon.=137.794834, Alt.=2419.935237m. Speed=0.000000m/h.]]></desc>
</trkpt>
<trkpt lat="36.786479" lon="137.794842">
<ele>2420.528479</ele>
<time>2014-08-19T01:21:04Z</time>
<desc><![CDATA[lat.=36.786479, lon.=137.794842, Alt.=2420.528479m. Speed=0.000000m/h.]]></desc>
</trkpt>
<trkpt lat="36.786483" lon="137.794850">
<ele>2419.990463</ele>
<time>2014-08-19T01:21:09Z</time>
<desc><![CDATA[lat.=36.786483, lon.=137.794850, Alt.=2419.990463m. Speed=0.000000m/h.]]></desc>
</trkpt>
<trkpt lat="36.786476" lon="137.794850">
<ele>2419.391628</ele>
<time>2014-08-19T01:21:27Z</time>
<desc><![CDATA[lat.=36.786476, lon.=137.794850, Alt.=2419.391628m. Speed=0.000000m/h.]]></desc>
</trkpt>
<trkpt lat="36.786469" lon="137.794850">
<ele>2418.792794</ele>
<time>2014-08-19T01:22:34Z</time>
<desc><![CDATA[lat.=36.786469, lon.=137.794850, Alt.=2418.792794m. Speed=0.000000m/h.]]></desc>
</trkpt>
<trkpt lat="36.786476" lon="137.794850">
<ele>2419.391628</ele>
<time>2014-08-19T01:24:11Z</time>
<desc><![CDATA[lat.=36.786476, lon.=137.794850, Alt.=2419.391628m. Speed=0.000000m/h.]]></desc>
</trkpt>
<trkpt lat="36.786472" lon="137.794842">
<ele>2419.929645</ele>
<time>2014-08-19T01:24:28Z</time>
<desc><![CDATA[lat.=36.786472, lon.=137.794842, Alt.=2419.929645m. Speed=0.000000m/h.]]></desc>
</trkpt>
<trkpt lat="36.786465" lon="137.794842">
<ele>2419.330810</ele>
<time>2014-08-19T01:24:33Z</time>
<desc><![CDATA[lat.=36.786465, lon.=137.794842, Alt.=2419.330810m. Speed=0.000000m/h.]]></desc>
</trkpt>
<trkpt lat="36.786472" lon="137.794842">
<ele>2419.929645</ele>
<time>2014-08-19T01:24:38Z</time>
<desc><![CDATA[lat.=36.786472, lon.=137.794842, Alt.=2419.929645m. Speed=0.000000m/h.]]></desc>
</trkpt>
<trkpt lat="36.786479" lon="137.794842">
<ele>2420.528479</ele>
<time>2014-08-19T01:25:33Z</time>
<desc><![CDATA[lat.=36.786479, lon.=137.794842, Alt.=2420.528479m. Speed=0.000000m/h.]]></desc>
</trkpt>
<trkpt lat="36.786475" lon="137.794849">
<ele>2421.121721</ele>
<time>2014-08-19T01:25:52Z</time>
<desc><![CDATA[lat.=36.786475, lon.=137.794849, Alt.=2421.121721m. Speed=0.000000m/h.]]></desc>
</trkpt>
<trkpt lat="36.786483" lon="137.794849">
<ele>2421.720556</ele>
<time>2014-08-19T01:26:09Z</time>
<desc><![CDATA[lat.=36.786483, lon.=137.794849, Alt.=2421.720556m. Speed=0.000000m/h.]]></desc>
</trkpt>
<trkpt lat="36.786486" lon="137.794858">
<ele>2421.182540</ele>
<time>2014-08-19T01:26:14Z</time>
<desc><![CDATA[lat.=36.786486, lon.=137.794858, Alt.=2421.182540m. Speed=0.000000m/h.]]></desc>
</trkpt>
<trkpt lat="36.786494" lon="137.794858">
<ele>2421.781374</ele>
<time>2014-08-19T01:26:27Z</time>
<desc><![CDATA[lat.=36.786494, lon.=137.794858, Alt.=2421.781374m. Speed=0.000000m/h.]]></desc>
</trkpt>
<trkpt lat="36.786505" lon="137.794850">
<ele>2421.786968</ele>
<time>2014-08-19T01:26:32Z</time>
<desc><![CDATA[lat.=36.786505, lon.=137.794850, Alt.=2421.786968m. Speed=2.000000m/h.]]></desc>
</trkpt>
<trkpt lat="36.786528" lon="137.794803">
<ele>2421.687705</ele>
<time>2014-08-19T01:26:37Z</time>
<desc><![CDATA[lat.=36.786528, lon.=137.794803, Alt.=2421.687705m. Speed=3.000000m/h.]]></desc>
</trkpt>
<trkpt lat="36.786535" lon="137.794803">
<ele>2422.286540</ele>
<time>2014-08-19T01:26:50Z</time>
<desc><![CDATA[lat.=36.786535, lon.=137.794803, Alt.=2422.286540m. Speed=0.000000m/h.]]></desc>
</trkpt>
<trkpt lat="36.786539" lon="137.794812">
<ele>2421.748524</ele>
<time>2014-08-19T01:26:55Z</time>
<desc><![CDATA[lat.=36.786539, lon.=137.794812, Alt.=2421.748524m. Speed=1.000000m/h.]]></desc>
</trkpt>
<trkpt lat="36.786546" lon="137.794828">
<ele>2422.402585</ele>
<time>2014-08-19T01:27:00Z</time>
<desc><![CDATA[lat.=36.786546, lon.=137.794828, Alt.=2422.402585m. Speed=0.000000m/h.]]></desc>
</trkpt>
<trkpt lat="36.786551" lon="137.794891">
<ele>2423.222324</ele>
<time>2014-08-19T01:27:05Z</time>
<desc><![CDATA[lat.=36.786551, lon.=137.794891, Alt.=2423.222324m. Speed=3.000000m/h.]]></desc>
</trkpt>
<trkpt lat="36.786554" lon="137.794963">
<ele>2421.175126</ele>
<time>2014-08-19T01:27:10Z</time>
<desc><![CDATA[lat.=36.786554, lon.=137.794963, Alt.=2421.175126m. Speed=4.000000m/h.]]></desc>
</trkpt>
<trkpt lat="36.786575" lon="137.795011">
<ele>2421.407227</ele>
<time>2014-08-19T01:27:15Z</time>
<desc><![CDATA[lat.=36.786575, lon.=137.795011, Alt.=2421.407227m. Speed=4.000000m/h.]]></desc>
</trkpt>
<trkpt lat="36.786600" lon="137.795036">
<ele>2420.990858</ele>
<time>2014-08-19T01:27:20Z</time>
<desc><![CDATA[lat.=36.786600, lon.=137.795036, Alt.=2420.990858m. Speed=3.000000m/h.]]></desc>
</trkpt>
<trkpt lat="36.786607" lon="137.795036">
<ele>2421.589695</ele>
<time>2014-08-19T01:27:25Z</time>
<desc><![CDATA[lat.=36.786607, lon.=137.795036, Alt.=2421.589695m. Speed=0.000000m/h.]]></desc>
</trkpt>
<trkpt lat="36.786615" lon="137.795020">
<ele>2422.133302</ele>
<time>2014-08-19T01:27:30Z</time>
<desc><![CDATA[lat.=36.786615, lon.=137.795020, Alt.=2422.133302m. Speed=0.000000m/h.]]></desc>
</trkpt>
<trkpt lat="36.786622" lon="137.795020">
<ele>2422.732139</ele>
<time>2014-08-19T01:27:36Z</time>
<desc><![CDATA[lat.=36.786622, lon.=137.795020, Alt.=2422.732139m. Speed=0.000000m/h.]]></desc>
</trkpt>
<trkpt lat="36.786647" lon="137.795077">
<ele>2422.426233</ele>
<time>2014-08-19T01:27:41Z</time>
<desc><![CDATA[lat.=36.786647, lon.=137.795077, Alt.=2422.426233m. Speed=3.000000m/h.]]></desc>
</trkpt>
<trkpt lat="36.786675" lon="137.795109">
<ele>2423.201950</ele>
<time>2014-08-19T01:27:46Z</time>
<desc><![CDATA[lat.=36.786675, lon.=137.795109, Alt.=2423.201950m. Speed=3.000000m/h.]]></desc>
</trkpt>
<trkpt lat="36.786682" lon="137.795109">
<ele>2423.800788</ele>
<time>2014-08-19T01:27:51Z</time>
<desc><![CDATA[lat.=36.786682, lon.=137.795109, Alt.=2423.800788m. Speed=0.000000m/h.]]></desc>
</trkpt>
<trkpt lat="36.786683" lon="137.795094">
<ele>2423.745557</ele>
<time>2014-08-19T01:27:56Z</time>
<desc><![CDATA[lat.=36.786683, lon.=137.795094, Alt.=2423.745557m. Speed=0.000000m/h.]]></desc>
</trkpt>
<trkpt lat="36.786676" lon="137.795094">
<ele>2423.146720</ele>
<time>2014-08-19T01:28:01Z</time>
<desc><![CDATA[lat.=36.786676, lon.=137.795094, Alt.=2423.146720m. Speed=0.000000m/h.]]></desc>
</trkpt>
<trkpt lat="36.786680" lon="137.795086">
<ele>2422.553477</ele>
<time>2014-08-19T01:28:08Z</time>
<desc><![CDATA[lat.=36.786680, lon.=137.795086, Alt.=2422.553477m. Speed=0.000000m/h.]]></desc>
</trkpt>
<trkpt lat="36.786672" lon="137.795086">
<ele>2421.954640</ele>
<time>2014-08-19T01:28:13Z</time>
<desc><![CDATA[lat.=36.786672, lon.=137.795086, Alt.=2421.954640m. Speed=0.000000m/h.]]></desc>
</trkpt>
<trkpt lat="36.786687" lon="137.795103">
<ele>2421.477453</ele>
<time>2014-08-19T01:28:18Z</time>
<desc><![CDATA[lat.=36.786687, lon.=137.795103, Alt.=2421.477453m. Speed=2.000000m/h.]]></desc>
</trkpt>
<trkpt lat="36.786723" lon="137.795152">
<ele>2421.177151</ele>
<time>2014-08-19T01:28:23Z</time>
<desc><![CDATA[lat.=36.786723, lon.=137.795152, Alt.=2421.177151m. Speed=3.000000m/h.]]></desc>
</trkpt>
<trkpt lat="36.786755" lon="137.795177">
<ele>2419.629541</ele>
<time>2014-08-19T01:28:28Z</time>
<desc><![CDATA[lat.=36.786755, lon.=137.795177, Alt.=2419.629541m. Speed=3.000000m/h.]]></desc>
</trkpt>
<trkpt lat="36.786751" lon="137.795250">
<ele>2416.983532</ele>
<time>2014-08-19T01:28:33Z</time>
<desc><![CDATA[lat.=36.786751, lon.=137.795250, Alt.=2416.983532m. Speed=3.000000m/h.]]></desc>
</trkpt>
<trkpt lat="36.786794" lon="137.795299">
<ele>2415.551991</ele>
<time>2014-08-19T01:28:38Z</time>
<desc><![CDATA[lat.=36.786794, lon.=137.795299, Alt.=2415.551991m. Speed=4.000000m/h.]]></desc>
</trkpt>
<trkpt lat="36.786719" lon="137.795377">
<ele>2413.299965</ele>
<time>2014-08-19T01:28:43Z</time>
<desc><![CDATA[lat.=36.786719, lon.=137.795377, Alt.=2413.299965m. Speed=3.000000m/h.]]></desc>
</trkpt>
<trkpt lat="36.786715" lon="137.795384">
<ele>2415.623302</ele>
<time>2014-08-19T01:28:48Z</time>
<desc><![CDATA[lat.=36.786715, lon.=137.795384, Alt.=2415.623302m. Speed=0.000000m/h.]]></desc>
</trkpt>
<trkpt lat="36.786707" lon="137.795383">
<ele>2416.754556</ele>
<time>2014-08-19T01:28:53Z</time>
<desc><![CDATA[lat.=36.786707, lon.=137.795383, Alt.=2416.754556m. Speed=0.000000m/h.]]></desc>
</trkpt>
<trkpt lat="36.786696" lon="137.795390">
<ele>2416.748963</ele>
<time>2014-08-19T01:28:58Z</time>
<desc><![CDATA[lat.=36.786696, lon.=137.795390, Alt.=2416.748963m. Speed=0.000000m/h.]]></desc>
</trkpt>
<trkpt lat="36.786696" lon="137.795406">
<ele>2416.804200</ele>
<time>2014-08-19T01:29:03Z</time>
<desc><![CDATA[lat.=36.786696, lon.=137.795406, Alt.=2416.804200m. Speed=2.000000m/h.]]></desc>
</trkpt>
<trkpt lat="36.786702" lon="137.795470">
<ele>2415.893895</ele>
<time>2014-08-19T01:29:08Z</time>
<desc><![CDATA[lat.=36.786702, lon.=137.795470, Alt.=2415.893895m. Speed=4.000000m/h.]]></desc>
</trkpt>
<trkpt lat="36.786701" lon="137.795518">
<ele>2416.059610</ele>
<time>2014-08-19T01:29:13Z</time>
<desc><![CDATA[lat.=36.786701, lon.=137.795518, Alt.=2416.059610m. Speed=3.000000m/h.]]></desc>
</trkpt>
<trkpt lat="36.786736" lon="137.795566">
<ele>2417.489426</ele>
<time>2014-08-19T01:29:18Z</time>
<desc><![CDATA[lat.=36.786736, lon.=137.795566, Alt.=2417.489426m. Speed=4.000000m/h.]]></desc>
</trkpt>
<trkpt lat="36.786733" lon="137.795575">
<ele>2414.622490</ele>
<time>2014-08-19T01:29:23Z</time>
<desc><![CDATA[lat.=36.786733, lon.=137.795575, Alt.=2414.622490m. Speed=0.000000m/h.]]></desc>
</trkpt>
<trkpt lat="36.786740" lon="137.795591">
<ele>2415.276568</ele>
<time>2014-08-19T01:29:28Z</time>
<desc><![CDATA[lat.=36.786740, lon.=137.795591, Alt.=2415.276568m. Speed=2.000000m/h.]]></desc>
</trkpt>
<trkpt lat="36.786750" lon="137.795598">
<ele>2417.067491</ele>
<time>2014-08-19T01:29:33Z</time>
<desc><![CDATA[lat.=36.786750, lon.=137.795598, Alt.=2417.067491m. Speed=0.000000m/h.]]></desc>
</trkpt>
<trkpt lat="36.786757" lon="137.795615">
<ele>2415.991479</ele>
<time>2014-08-19T01:29:38Z</time>
<desc><![CDATA[lat.=36.786757, lon.=137.795615, Alt.=2415.991479m. Speed=1.000000m/h.]]></desc>
</trkpt>
<trkpt lat="36.786763" lon="137.795678">
<ele>2416.811283</ele>
<time>2014-08-19T01:29:43Z</time>
<desc><![CDATA[lat.=36.786763, lon.=137.795678, Alt.=2416.811283m. Speed=3.000000m/h.]]></desc>
</trkpt>
<trkpt lat="36.786791" lon="137.795743">
<ele>2415.967426</ele>
<time>2014-08-19T01:29:48Z</time>
<desc><![CDATA[lat.=36.786791, lon.=137.795743, Alt.=2415.967426m. Speed=4.000000m/h.]]></desc>
</trkpt>
<trkpt lat="36.786772" lon="137.795798">
<ele>2415.528727</ele>
<time>2014-08-19T01:29:53Z</time>
<desc><![CDATA[lat.=36.786772, lon.=137.795798, Alt.=2415.528727m. Speed=4.000000m/h.]]></desc>
</trkpt>
<trkpt lat="36.786786" lon="137.795846">
<ele>2415.162048</ele>
<time>2014-08-19T01:29:58Z</time>
<desc><![CDATA[lat.=36.786786, lon.=137.795846, Alt.=2415.162048m. Speed=4.000000m/h.]]></desc>
</trkpt>
<trkpt lat="36.786825" lon="137.795887">
<ele>2415.998641</ele>
<time>2014-08-19T01:30:03Z</time>
<desc><![CDATA[lat.=36.786825, lon.=137.795887, Alt.=2415.998641m. Speed=4.000000m/h.]]></desc>
</trkpt>
<trkpt lat="36.786831" lon="137.795935">
<ele>2415.033129</ele>
<time>2014-08-19T01:30:08Z</time>
<desc><![CDATA[lat.=36.786831, lon.=137.795935, Alt.=2415.033129m. Speed=3.000000m/h.]]></desc>
</trkpt>
<trkpt lat="36.786816" lon="137.795999">
<ele>2414.056440</ele>
<time>2014-08-19T01:30:13Z</time>
<desc><![CDATA[lat.=36.786816, lon.=137.795999, Alt.=2414.056440m. Speed=3.000000m/h.]]></desc>
</trkpt>
<trkpt lat="36.786800" lon="137.796046">
<ele>2413.024508</ele>
<time>2014-08-19T01:30:18Z</time>
<desc><![CDATA[lat.=36.786800, lon.=137.796046, Alt.=2413.024508m. Speed=4.000000m/h.]]></desc>
</trkpt>
<trkpt lat="36.786770" lon="137.796077">
<ele>2412.469743</ele>
<time>2014-08-19T01:30:23Z</time>
<desc><![CDATA[lat.=36.786770, lon.=137.796077, Alt.=2412.469743m. Speed=3.000000m/h.]]></desc>
</trkpt>
<trkpt lat="36.786743" lon="137.796132">
<ele>2411.432230</ele>
<time>2014-08-19T01:30:28Z</time>
<desc><![CDATA[lat.=36.786743, lon.=137.796132, Alt.=2411.432230m. Speed=4.000000m/h.]]></desc>
</trkpt>
<trkpt lat="36.786706" lon="137.796162">
<ele>2412.008724</ele>
<time>2014-08-19T01:30:33Z</time>
<desc><![CDATA[lat.=36.786706, lon.=137.796162, Alt.=2412.008724m. Speed=3.000000m/h.]]></desc>
</trkpt>
<trkpt lat="36.786686" lon="137.796200">
<ele>2413.244896</ele>
<time>2014-08-19T01:30:38Z</time>
<desc><![CDATA[lat.=36.786686, lon.=137.796200, Alt.=2413.244896m. Speed=3.000000m/h.]]></desc>
</trkpt>
<trkpt lat="36.786686" lon="137.796200">
<ele>2414.974987</ele>
<time>2014-08-19T01:30:43Z</time>
<desc><![CDATA[lat.=36.786686, lon.=137.796200, Alt.=2414.974987m. Speed=0.000000m/h.]]></desc>
</trkpt>
<trkpt lat="36.786674" lon="137.796239">
<ele>2413.349817</ele>
<time>2014-08-19T01:30:48Z</time>
<desc><![CDATA[lat.=36.786674, lon.=137.796239, Alt.=2413.349817m. Speed=2.000000m/h.]]></desc>
</trkpt>
<trkpt lat="36.786680" lon="137.796255">
<ele>2415.733999</ele>
<time>2014-08-19T01:30:53Z</time>
<desc><![CDATA[lat.=36.786680, lon.=137.796255, Alt.=2415.733999m. Speed=2.000000m/h.]]></desc>
</trkpt>
<trkpt lat="36.786680" lon="137.796270">
<ele>2415.789252</ele>
<time>2014-08-19T01:30:58Z</time>
<desc><![CDATA[lat.=36.786680, lon.=137.796270, Alt.=2415.789252m. Speed=0.000000m/h.]]></desc>
</trkpt>
<trkpt lat="36.786687" lon="137.796270">
<ele>2416.388090</ele>
<time>2014-08-19T01:31:07Z</time>
<desc><![CDATA[lat.=36.786687, lon.=137.796270, Alt.=2416.388090m. Speed=0.000000m/h.]]></desc>
</trkpt>
<trkpt lat="36.786691" lon="137.796279">
<ele>2415.850090</ele>
<time>2014-08-19T01:31:19Z</time>
<desc><![CDATA[lat.=36.786691, lon.=137.796279, Alt.=2415.850090m. Speed=0.000000m/h.]]></desc>
</trkpt>
<trkpt lat="36.786695" lon="137.796287">
<ele>2415.312090</ele>
<time>2014-08-19T01:31:25Z</time>
<desc><![CDATA[lat.=36.786695, lon.=137.796287, Alt.=2415.312090m. Speed=0.000000m/h.]]></desc>
</trkpt>
<trkpt lat="36.786683" lon="137.796309">
<ele>2417.091852</ele>
<time>2014-08-19T01:31:30Z</time>
<desc><![CDATA[lat.=36.786683, lon.=137.796309, Alt.=2417.091852m. Speed=2.000000m/h.]]></desc>
</trkpt>
<trkpt lat="36.786675" lon="137.796309">
<ele>2416.493014</ele>
<time>2014-08-19T01:31:36Z</time>
<desc><![CDATA[lat.=36.786675, lon.=137.796309, Alt.=2416.493014m. Speed=0.000000m/h.]]></desc>
</trkpt>
<trkpt lat="36.786671" lon="137.796317">
<ele>2417.086269</ele>
<time>2014-08-19T01:31:45Z</time>
<desc><![CDATA[lat.=36.786671, lon.=137.796317, Alt.=2417.086269m. Speed=2.000000m/h.]]></desc>
</trkpt>
<trkpt lat="36.786631" lon="137.796325">
<ele>2414.685338</ele>
<time>2014-08-19T01:31:50Z</time>
<desc><![CDATA[lat.=36.786631, lon.=137.796325, Alt.=2414.685338m. Speed=3.000000m/h.]]></desc>
</trkpt>
<trkpt lat="36.786587" lon="137.796340">
<ele>2412.877665</ele>
<time>2014-08-19T01:31:55Z</time>
<desc><![CDATA[lat.=36.786587, lon.=137.796340, Alt.=2412.877665m. Speed=3.000000m/h.]]></desc>
</trkpt>
<trkpt lat="36.786552" lon="137.796393">
<ele>2414.701526</ele>
<time>2014-08-19T01:32:00Z</time>
<desc><![CDATA[lat.=36.786552, lon.=137.796393, Alt.=2414.701526m. Speed=3.000000m/h.]]></desc>
</trkpt>
<trkpt lat="36.786545" lon="137.796425">
<ele>2414.213203</ele>
<time>2014-08-19T01:32:05Z</time>
<desc><![CDATA[lat.=36.786545, lon.=137.796425, Alt.=2414.213203m. Speed=3.000000m/h.]]></desc>
</trkpt>
<trkpt lat="36.786521" lon="137.796471">
<ele>2414.312560</ele>
<time>2014-08-19T01:32:10Z</time>
<desc><![CDATA[lat.=36.786521, lon.=137.796471, Alt.=2414.312560m. Speed=3.000000m/h.]]></desc>
</trkpt>
<trkpt lat="36.786491" lon="137.796501">
<ele>2415.487918</ele>
<time>2014-08-19T01:32:15Z</time>
<desc><![CDATA[lat.=36.786491, lon.=137.796501, Alt.=2415.487918m. Speed=3.000000m/h.]]></desc>
</trkpt>
<trkpt lat="36.786475" lon="137.796532">
<ele>2416.130857</ele>
<time>2014-08-19T01:32:20Z</time>
<desc><![CDATA[lat.=36.786475, lon.=137.796532, Alt.=2416.130857m. Speed=3.000000m/h.]]></desc>
</trkpt>
<trkpt lat="36.786434" lon="137.796554">
<ele>2417.245384</ele>
<time>2014-08-19T01:32:25Z</time>
<desc><![CDATA[lat.=36.786434, lon.=137.796554, Alt.=2417.245384m. Speed=3.000000m/h.]]></desc>
</trkpt>
<trkpt lat="36.786400" lon="137.796576">
<ele>2418.958749</ele>
<time>2014-08-19T01:32:30Z</time>
<desc><![CDATA[lat.=36.786400, lon.=137.796576, Alt.=2418.958749m. Speed=3.000000m/h.]]></desc>
</trkpt>
<trkpt lat="36.786392" lon="137.796608">
<ele>2418.470436</ele>
<time>2014-08-19T01:32:35Z</time>
<desc><![CDATA[lat.=36.786392, lon.=137.796608, Alt.=2418.470436m. Speed=3.000000m/h.]]></desc>
</trkpt>
<trkpt lat="36.786388" lon="137.796615">
<ele>2419.063695</ele>
<time>2014-08-19T01:32:40Z</time>
<desc><![CDATA[lat.=36.786388, lon.=137.796615, Alt.=2419.063695m. Speed=0.000000m/h.]]></desc>
</trkpt>
<trkpt lat="36.786392" lon="137.796623">
<ele>2418.525697</ele>
<time>2014-08-19T01:32:45Z</time>
<desc><![CDATA[lat.=36.786392, lon.=137.796623, Alt.=2418.525697m. Speed=0.000000m/h.]]></desc>
</trkpt>
<trkpt lat="36.786395" lon="137.796615">
<ele>2419.662529</ele>
<time>2014-08-19T01:32:50Z</time>
<desc><![CDATA[lat.=36.786395, lon.=137.796615, Alt.=2419.662529m. Speed=0.000000m/h.]]></desc>
</trkpt>
<trkpt lat="36.786403" lon="137.796615">
<ele>2420.261362</ele>
<time>2014-08-19T01:32:55Z</time>
<desc><![CDATA[lat.=36.786403, lon.=137.796615, Alt.=2420.261362m. Speed=0.000000m/h.]]></desc>
</trkpt>
<trkpt lat="36.786380" lon="137.796630">
<ele>2420.250214</ele>
<time>2014-08-19T01:33:00Z</time>
<desc><![CDATA[lat.=36.786380, lon.=137.796630, Alt.=2420.250214m. Speed=2.000000m/h.]]></desc>
</trkpt>
<trkpt lat="36.786350" lon="137.796645">
<ele>2419.640233</ele>
<time>2014-08-19T01:33:05Z</time>
<desc><![CDATA[lat.=36.786350, lon.=137.796645, Alt.=2419.640233m. Speed=2.000000m/h.]]></desc>
</trkpt>
<trkpt lat="36.786358" lon="137.796645">
<ele>2420.239066</ele>
<time>2014-08-19T01:33:19Z</time>
<desc><![CDATA[lat.=36.786358, lon.=137.796645, Alt.=2420.239066m. Speed=0.000000m/h.]]></desc>
</trkpt>
<trkpt lat="36.786361" lon="137.796653">
<ele>2419.701068</ele>
<time>2014-08-19T01:33:24Z</time>
<desc><![CDATA[lat.=36.786361, lon.=137.796653, Alt.=2419.701068m. Speed=0.000000m/h.]]></desc>
</trkpt>
<trkpt lat="36.786357" lon="137.796661">
<ele>2420.294328</ele>
<time>2014-08-19T01:33:29Z</time>
<desc><![CDATA[lat.=36.786357, lon.=137.796661, Alt.=2420.294328m. Speed=2.000000m/h.]]></desc>
</trkpt>
<trkpt lat="36.786338" lon="137.796700">
<ele>2419.800446</ele>
<time>2014-08-19T01:33:34Z</time>
<desc><![CDATA[lat.=36.786338, lon.=137.796700, Alt.=2419.800446m. Speed=2.000000m/h.]]></desc>
</trkpt>
<trkpt lat="36.786338" lon="137.796716">
<ele>2419.855709</ele>
<time>2014-08-19T01:33:39Z</time>
<desc><![CDATA[lat.=36.786338, lon.=137.796716, Alt.=2419.855709m. Speed=1.000000m/h.]]></desc>
</trkpt>
<trkpt lat="36.786329" lon="137.796763">
<ele>2419.422666</ele>
<time>2014-08-19T01:33:44Z</time>
<desc><![CDATA[lat.=36.786329, lon.=137.796763, Alt.=2419.422666m. Speed=3.000000m/h.]]></desc>
</trkpt>
<trkpt lat="36.786324" lon="137.796818">
<ele>2420.181720</ele>
<time>2014-08-19T01:33:49Z</time>
<desc><![CDATA[lat.=36.786324, lon.=137.796818, Alt.=2420.181720m. Speed=3.000000m/h.]]></desc>
</trkpt>
<trkpt lat="36.786309" lon="137.796866">
<ele>2419.149851</ele>
<time>2014-08-19T01:33:54Z</time>
<desc><![CDATA[lat.=36.786309, lon.=137.796866, Alt.=2419.149851m. Speed=3.000000m/h.]]></desc>
</trkpt>
<trkpt lat="36.786293" lon="137.796913">
<ele>2418.117986</ele>
<time>2014-08-19T01:33:59Z</time>
<desc><![CDATA[lat.=36.786293, lon.=137.796913, Alt.=2418.117986m. Speed=3.000000m/h.]]></desc>
</trkpt>
<trkpt lat="36.786270" lon="137.796943">
<ele>2419.892205</ele>
<time>2014-08-19T01:34:04Z</time>
<desc><![CDATA[lat.=36.786270, lon.=137.796943, Alt.=2419.892205m. Speed=3.000000m/h.]]></desc>
</trkpt>
<trkpt lat="36.786251" lon="137.796966">
<ele>2421.073163</ele>
<time>2014-08-19T01:34:09Z</time>
<desc><![CDATA[lat.=36.786251, lon.=137.796966, Alt.=2421.073163m. Speed=3.000000m/h.]]></desc>
</trkpt>
<trkpt lat="36.786250" lon="137.796998">
<ele>2421.183700</ele>
<time>2014-08-19T01:34:14Z</time>
<desc><![CDATA[lat.=36.786250, lon.=137.796998, Alt.=2421.183700m. Speed=2.000000m/h.]]></desc>
</trkpt>
<trkpt lat="36.786235" lon="137.797028">
<ele>2421.826665</ele>
<time>2014-08-19T01:34:19Z</time>
<desc><![CDATA[lat.=36.786235, lon.=137.797028, Alt.=2421.826665m. Speed=2.000000m/h.]]></desc>
</trkpt>
<trkpt lat="36.786215" lon="137.797068">
<ele>2421.332806</ele>
<time>2014-08-19T01:34:24Z</time>
<desc><![CDATA[lat.=36.786215, lon.=137.797068, Alt.=2421.332806m. Speed=2.000000m/h.]]></desc>
</trkpt>
<trkpt lat="36.786200" lon="137.797098">
<ele>2421.975775</ele>
<time>2014-08-19T01:34:29Z</time>
<desc><![CDATA[lat.=36.786200, lon.=137.797098, Alt.=2421.975775m. Speed=3.000000m/h.]]></desc>
</trkpt>
<trkpt lat="36.786203" lon="137.797138">
<ele>2421.548322</ele>
<time>2014-08-19T01:34:34Z</time>
<desc><![CDATA[lat.=36.786203, lon.=137.797138, Alt.=2421.548322m. Speed=3.000000m/h.]]></desc>
</trkpt>
<trkpt lat="36.786206" lon="137.797163">
<ele>2421.065599</ele>
<time>2014-08-19T01:34:39Z</time>
<desc><![CDATA[lat.=36.786206, lon.=137.797163, Alt.=2421.065599m. Speed=2.000000m/h.]]></desc>
</trkpt>
<trkpt lat="36.786216" lon="137.797187">
<ele>2421.181708</ele>
<time>2014-08-19T01:34:44Z</time>
<desc><![CDATA[lat.=36.786216, lon.=137.797187, Alt.=2421.181708m. Speed=2.000000m/h.]]></desc>
</trkpt>
<trkpt lat="36.786216" lon="137.797219">
<ele>2419.562163</ele>
<time>2014-08-19T01:34:49Z</time>
<desc><![CDATA[lat.=36.786216, lon.=137.797219, Alt.=2419.562163m. Speed=2.000000m/h.]]></desc>
</trkpt>
<trkpt lat="36.786212" lon="137.797243">
<ele>2418.480612</ele>
<time>2014-08-19T01:34:54Z</time>
<desc><![CDATA[lat.=36.786212, lon.=137.797243, Alt.=2418.480612m. Speed=1.000000m/h.]]></desc>
</trkpt>
<trkpt lat="36.786212" lon="137.797260">
<ele>2416.805795</ele>
<time>2014-08-19T01:34:59Z</time>
<desc><![CDATA[lat.=36.786212, lon.=137.797260, Alt.=2416.805795m. Speed=2.000000m/h.]]></desc>
</trkpt>
<trkpt lat="36.786215" lon="137.797299">
<ele>2418.108440</ele>
<time>2014-08-19T01:35:04Z</time>
<desc><![CDATA[lat.=36.786215, lon.=137.797299, Alt.=2418.108440m. Speed=2.000000m/h.]]></desc>
</trkpt>
<trkpt lat="36.786218" lon="137.797306">
<ele>2419.300538</ele>
<time>2014-08-19T01:35:09Z</time>
<desc><![CDATA[lat.=36.786218, lon.=137.797306, Alt.=2419.300538m. Speed=0.000000m/h.]]></desc>
</trkpt>
<trkpt lat="36.786225" lon="137.797307">
<ele>2418.169279</ele>
<time>2014-08-19T01:35:14Z</time>
<desc><![CDATA[lat.=36.786225, lon.=137.797307, Alt.=2418.169279m. Speed=0.000000m/h.]]></desc>
</trkpt>
<trkpt lat="36.786207" lon="137.797297">
<ele>2420.969790</ele>
<time>2014-08-19T01:35:19Z</time>
<desc><![CDATA[lat.=36.786207, lon.=137.797297, Alt.=2420.969790m. Speed=0.000000m/h.]]></desc>
</trkpt>
<trkpt lat="36.786210" lon="137.797306">
<ele>2420.431798</ele>
<time>2014-08-19T01:35:25Z</time>
<desc><![CDATA[lat.=36.786210, lon.=137.797306, Alt.=2420.431798m. Speed=0.000000m/h.]]></desc>
</trkpt>
<trkpt lat="36.786221" lon="137.797298">
<ele>2420.437362</ele>
<time>2014-08-19T01:35:30Z</time>
<desc><![CDATA[lat.=36.786221, lon.=137.797298, Alt.=2420.437362m. Speed=0.000000m/h.]]></desc>
</trkpt>
<trkpt lat="36.786221" lon="137.797314">
<ele>2420.492636</ele>
<time>2014-08-19T01:35:35Z</time>
<desc><![CDATA[lat.=36.786221, lon.=137.797314, Alt.=2420.492636m. Speed=0.000000m/h.]]></desc>
</trkpt>
<trkpt lat="36.786214" lon="137.797314">
<ele>2419.893805</ele>
<time>2014-08-19T01:35:40Z</time>
<desc><![CDATA[lat.=36.786214, lon.=137.797314, Alt.=2419.893805m. Speed=0.000000m/h.]]></desc>
</trkpt>
<trkpt lat="36.786221" lon="137.797315">
<ele>2418.762546</ele>
<time>2014-08-19T01:35:45Z</time>
<desc><![CDATA[lat.=36.786221, lon.=137.797315, Alt.=2418.762546m. Speed=0.000000m/h.]]></desc>
</trkpt>
<trkpt lat="36.786217" lon="137.797322">
<ele>2419.355813</ele>
<time>2014-08-19T01:35:50Z</time>
<desc><![CDATA[lat.=36.786217, lon.=137.797322, Alt.=2419.355813m. Speed=0.000000m/h.]]></desc>
</trkpt>
<trkpt lat="36.786228" lon="137.797331">
<ele>2419.416652</ele>
<time>2014-08-19T01:35:57Z</time>
<desc><![CDATA[lat.=36.786228, lon.=137.797331, Alt.=2419.416652m. Speed=2.000000m/h.]]></desc>
</trkpt>
<trkpt lat="36.786257" lon="137.797364">
<ele>2418.462347</ele>
<time>2014-08-19T01:36:02Z</time>
<desc><![CDATA[lat.=36.786257, lon.=137.797364, Alt.=2418.462347m. Speed=3.000000m/h.]]></desc>
</trkpt>
<trkpt lat="36.786271" lon="137.797412">
<ele>2418.095748</ele>
<time>2014-08-19T01:36:07Z</time>
<desc><![CDATA[lat.=36.786271, lon.=137.797412, Alt.=2418.095748m. Speed=2.000000m/h.]]></desc>
</trkpt>
<trkpt lat="36.786262" lon="137.797475">
<ele>2417.718025</ele>
<time>2014-08-19T01:36:12Z</time>
<desc><![CDATA[lat.=36.786262, lon.=137.797475, Alt.=2417.718025m. Speed=3.000000m/h.]]></desc>
</trkpt>
<trkpt lat="36.786265" lon="137.797531">
<ele>2417.345870</ele>
<time>2014-08-19T01:36:17Z</time>
<desc><![CDATA[lat.=36.786265, lon.=137.797531, Alt.=2417.345870m. Speed=3.000000m/h.]]></desc>
</trkpt>
<trkpt lat="36.786285" lon="137.797595">
<ele>2417.633394</ele>
<time>2014-08-19T01:36:22Z</time>
<desc><![CDATA[lat.=36.786285, lon.=137.797595, Alt.=2417.633394m. Speed=3.000000m/h.]]></desc>
</trkpt>
<trkpt lat="36.786285" lon="137.797645">
<ele>2412.608966</ele>
<time>2014-08-19T01:36:27Z</time>
<desc><![CDATA[lat.=36.786285, lon.=137.797645, Alt.=2412.608966m. Speed=3.000000m/h.]]></desc>
</trkpt>
<trkpt lat="36.786257" lon="137.797713">
<ele>2416.817138</ele>
<time>2014-08-19T01:36:32Z</time>
<desc><![CDATA[lat.=36.786257, lon.=137.797713, Alt.=2416.817138m. Speed=3.000000m/h.]]></desc>
</trkpt>
<trkpt lat="36.786253" lon="137.797737">
<ele>2415.735601</ele>
<time>2014-08-19T01:36:37Z</time>
<desc><![CDATA[lat.=36.786253, lon.=137.797737, Alt.=2415.735601m. Speed=3.000000m/h.]]></desc>
</trkpt>
<trkpt lat="36.786278" lon="137.797795">
<ele>2413.699780</ele>
<time>2014-08-19T01:36:42Z</time>
<desc><![CDATA[lat.=36.786278, lon.=137.797795, Alt.=2413.699780m. Speed=3.000000m/h.]]></desc>
</trkpt>
<trkpt lat="36.786307" lon="137.797828">
<ele>2412.745497</ele>
<time>2014-08-19T01:36:47Z</time>
<desc><![CDATA[lat.=36.786307, lon.=137.797828, Alt.=2412.745497m. Speed=3.000000m/h.]]></desc>
</trkpt>
<trkpt lat="36.786310" lon="137.797884">
<ele>2410.643277</ele>
<time>2014-08-19T01:36:52Z</time>
<desc><![CDATA[lat.=36.786310, lon.=137.797884, Alt.=2410.643277m. Speed=3.000000m/h.]]></desc>
</trkpt>
<trkpt lat="36.786308" lon="137.797947">
<ele>2412.594513</ele>
<time>2014-08-19T01:36:57Z</time>
<desc><![CDATA[lat.=36.786308, lon.=137.797947, Alt.=2412.594513m. Speed=3.000000m/h.]]></desc>
</trkpt>
<trkpt lat="36.786292" lon="137.798010">
<ele>2411.617999</ele>
<time>2014-08-19T01:37:02Z</time>
<desc><![CDATA[lat.=36.786292, lon.=137.798010, Alt.=2411.617999m. Speed=4.000000m/h.]]></desc>
</trkpt>
<trkpt lat="36.786272" lon="137.798049">
<ele>2412.854276</ele>
<time>2014-08-19T01:37:07Z</time>
<desc><![CDATA[lat.=36.786272, lon.=137.798049, Alt.=2412.854276m. Speed=3.000000m/h.]]></desc>
</trkpt>
<trkpt lat="36.786249" lon="137.798111">
<ele>2413.009030</ele>
<time>2014-08-19T01:37:12Z</time>
<desc><![CDATA[lat.=36.786249, lon.=137.798111, Alt.=2413.009030m. Speed=3.000000m/h.]]></desc>
</trkpt>
<trkpt lat="36.786241" lon="137.798159">
<ele>2412.576071</ele>
<time>2014-08-19T01:37:17Z</time>
<desc><![CDATA[lat.=36.786241, lon.=137.798159, Alt.=2412.576071m. Speed=3.000000m/h.]]></desc>
</trkpt>
<trkpt lat="36.786232" lon="137.798221">
<ele>2413.928497</ele>
<time>2014-08-19T01:37:22Z</time>
<desc><![CDATA[lat.=36.786232, lon.=137.798221, Alt.=2413.928497m. Speed=3.000000m/h.]]></desc>
</trkpt>
<trkpt lat="36.786231" lon="137.798253">
<ele>2414.039083</ele>
<time>2014-08-19T01:37:27Z</time>
<desc><![CDATA[lat.=36.786231, lon.=137.798253, Alt.=2414.039083m. Speed=3.000000m/h.]]></desc>
</trkpt>
<trkpt lat="36.786230" lon="137.798301">
<ele>2412.474874</ele>
<time>2014-08-19T01:37:32Z</time>
<desc><![CDATA[lat.=36.786230, lon.=137.798301, Alt.=2412.474874m. Speed=3.000000m/h.]]></desc>
</trkpt>
<trkpt lat="36.786232" lon="137.798339">
<ele>2415.507660</ele>
<time>2014-08-19T01:37:37Z</time>
<desc><![CDATA[lat.=36.786232, lon.=137.798339, Alt.=2415.507660m. Speed=3.000000m/h.]]></desc>
</trkpt>
<trkpt lat="36.786231" lon="137.798388">
<ele>2413.943457</ele>
<time>2014-08-19T01:37:42Z</time>
<desc><![CDATA[lat.=36.786231, lon.=137.798388, Alt.=2413.943457m. Speed=3.000000m/h.]]></desc>
</trkpt>
<trkpt lat="36.786212" lon="137.798427">
<ele>2413.449664</ele>
<time>2014-08-19T01:37:47Z</time>
<desc><![CDATA[lat.=36.786212, lon.=137.798427, Alt.=2413.449664m. Speed=3.000000m/h.]]></desc>
</trkpt>
<trkpt lat="36.786192" lon="137.798481">
<ele>2414.741261</ele>
<time>2014-08-19T01:37:52Z</time>
<desc><![CDATA[lat.=36.786192, lon.=137.798481, Alt.=2414.741261m. Speed=3.000000m/h.]]></desc>
</trkpt>
<trkpt lat="36.786173" lon="137.798519">
<ele>2415.977564</ele>
<time>2014-08-19T01:37:57Z</time>
<desc><![CDATA[lat.=36.786173, lon.=137.798519, Alt.=2415.977564m. Speed=3.000000m/h.]]></desc>
</trkpt>
<trkpt lat="36.786153" lon="137.798541">
<ele>2418.888660</ele>
<time>2014-08-19T01:38:02Z</time>
<desc><![CDATA[lat.=36.786153, lon.=137.798541, Alt.=2418.888660m. Speed=2.000000m/h.]]></desc>
</trkpt>
<trkpt lat="36.786156" lon="137.798581">
<ele>2418.461278</ele>
<time>2014-08-19T01:38:07Z</time>
<desc><![CDATA[lat.=36.786156, lon.=137.798581, Alt.=2418.461278m. Speed=3.000000m/h.]]></desc>
</trkpt>
<trkpt lat="36.786148" lon="137.798612">
<ele>2419.703138</ele>
<time>2014-08-19T01:38:12Z</time>
<desc><![CDATA[lat.=36.786148, lon.=137.798612, Alt.=2419.703138m. Speed=2.000000m/h.]]></desc>
</trkpt>
<trkpt lat="36.786144" lon="137.798619">
<ele>2420.296417</ele>
<time>2014-08-19T01:38:17Z</time>
<desc><![CDATA[lat.=36.786144, lon.=137.798619, Alt.=2420.296417m. Speed=0.000000m/h.]]></desc>
</trkpt>
<trkpt lat="36.786151" lon="137.798619">
<ele>2420.895247</ele>
<time>2014-08-19T01:38:22Z</time>
<desc><![CDATA[lat.=36.786151, lon.=137.798619, Alt.=2420.895247m. Speed=0.000000m/h.]]></desc>
</trkpt>
<trkpt lat="36.786147" lon="137.798627">
<ele>2421.488527</ele>
<time>2014-08-19T01:38:29Z</time>
<desc><![CDATA[lat.=36.786147, lon.=137.798627, Alt.=2421.488527m. Speed=0.000000m/h.]]></desc>
</trkpt>
<trkpt lat="36.786143" lon="137.798634">
<ele>2422.081807</ele>
<time>2014-08-19T01:38:35Z</time>
<desc><![CDATA[lat.=36.786143, lon.=137.798634, Alt.=2422.081807m. Speed=1.000000m/h.]]></desc>
</trkpt>
<trkpt lat="36.786124" lon="137.798658">
<ele>2421.532729</ele>
<time>2014-08-19T01:38:40Z</time>
<desc><![CDATA[lat.=36.786124, lon.=137.798658, Alt.=2421.532729m. Speed=2.000000m/h.]]></desc>
</trkpt>
<trkpt lat="36.786105" lon="137.798681">
<ele>2420.983652</ele>
<time>2014-08-19T01:38:45Z</time>
<desc><![CDATA[lat.=36.786105, lon.=137.798681, Alt.=2420.983652m. Speed=2.000000m/h.]]></desc>
</trkpt>
<trkpt lat="36.786090" lon="137.798696">
<ele>2421.571384</ele>
<time>2014-08-19T01:38:50Z</time>
<desc><![CDATA[lat.=36.786090, lon.=137.798696, Alt.=2421.571384m. Speed=2.000000m/h.]]></desc>
</trkpt>
<trkpt lat="36.786082" lon="137.798695">
<ele>2422.702644</ele>
<time>2014-08-19T01:38:55Z</time>
<desc><![CDATA[lat.=36.786082, lon.=137.798695, Alt.=2422.702644m. Speed=0.000000m/h.]]></desc>
</trkpt>
<trkpt lat="36.786056" lon="137.798702">
<ele>2423.229527</ele>
<time>2014-08-19T01:39:00Z</time>
<desc><![CDATA[lat.=36.786056, lon.=137.798702, Alt.=2423.229527m. Speed=2.000000m/h.]]></desc>
</trkpt>
<trkpt lat="36.786045" lon="137.798710">
<ele>2423.223980</ele>
<time>2014-08-19T01:39:05Z</time>
<desc><![CDATA[lat.=36.786045, lon.=137.798710, Alt.=2423.223980m. Speed=2.000000m/h.]]></desc>
</trkpt>
<trkpt lat="36.786026" lon="137.798733">
<ele>2422.674907</ele>
<time>2014-08-19T01:39:10Z</time>
<desc><![CDATA[lat.=36.786026, lon.=137.798733, Alt.=2422.674907m. Speed=2.000000m/h.]]></desc>
</trkpt>
<trkpt lat="36.786004" lon="137.798748">
<ele>2422.663815</ele>
<time>2014-08-19T01:39:15Z</time>
<desc><![CDATA[lat.=36.786004, lon.=137.798748, Alt.=2422.663815m. Speed=2.000000m/h.]]></desc>
</trkpt>
<trkpt lat="36.785988" lon="137.798779">
<ele>2423.306855</ele>
<time>2014-08-19T01:39:20Z</time>
<desc><![CDATA[lat.=36.785988, lon.=137.798779, Alt.=2423.306855m. Speed=2.000000m/h.]]></desc>
</trkpt>
<trkpt lat="36.785966" lon="137.798810">
<ele>2423.351070</ele>
<time>2014-08-19T01:39:25Z</time>
<desc><![CDATA[lat.=36.785966, lon.=137.798810, Alt.=2423.351070m. Speed=2.000000m/h.]]></desc>
</trkpt>
<trkpt lat="36.785928" lon="137.798824">
<ele>2423.872416</ele>
<time>2014-08-19T01:39:30Z</time>
<desc><![CDATA[lat.=36.785928, lon.=137.798824, Alt.=2423.872416m. Speed=3.000000m/h.]]></desc>
</trkpt>
<trkpt lat="36.785913" lon="137.798838">
<ele>2426.190246</ele>
<time>2014-08-19T01:39:35Z</time>
<desc><![CDATA[lat.=36.785913, lon.=137.798838, Alt.=2426.190246m. Speed=2.000000m/h.]]></desc>
</trkpt>
<trkpt lat="36.785890" lon="137.798853">
<ele>2426.179160</ele>
<time>2014-08-19T01:39:40Z</time>
<desc><![CDATA[lat.=36.785890, lon.=137.798853, Alt.=2426.179160m. Speed=2.000000m/h.]]></desc>
</trkpt>
<trkpt lat="36.785861" lon="137.798852">
<ele>2427.244034</ele>
<time>2014-08-19T01:39:45Z</time>
<desc><![CDATA[lat.=36.785861, lon.=137.798852, Alt.=2427.244034m. Speed=2.000000m/h.]]></desc>
</trkpt>
<trkpt lat="36.785849" lon="137.798859">
<ele>2428.968581</ele>
<time>2014-08-19T01:39:50Z</time>
<desc><![CDATA[lat.=36.785849, lon.=137.798859, Alt.=2428.968581m. Speed=1.000000m/h.]]></desc>
</trkpt>
<trkpt lat="36.785827" lon="137.798874">
<ele>2428.957499</ele>
<time>2014-08-19T01:39:55Z</time>
<desc><![CDATA[lat.=36.785827, lon.=137.798874, Alt.=2428.957499m. Speed=1.000000m/h.]]></desc>
</trkpt>
<trkpt lat="36.785815" lon="137.798897">
<ele>2429.007264</ele>
<time>2014-08-19T01:40:00Z</time>
<desc><![CDATA[lat.=36.785815, lon.=137.798897, Alt.=2429.007264m. Speed=2.000000m/h.]]></desc>
</trkpt>
<trkpt lat="36.785793" lon="137.798912">
<ele>2428.996184</ele>
<time>2014-08-19T01:40:05Z</time>
<desc><![CDATA[lat.=36.785793, lon.=137.798912, Alt.=2428.996184m. Speed=2.000000m/h.]]></desc>
</trkpt>
<trkpt lat="36.785767" lon="137.798903">
<ele>2429.467777</ele>
<time>2014-08-19T01:40:10Z</time>
<desc><![CDATA[lat.=36.785767, lon.=137.798903, Alt.=2429.467777m. Speed=2.000000m/h.]]></desc>
</trkpt>
<trkpt lat="36.785748" lon="137.798926">
<ele>2428.918720</ele>
<time>2014-08-19T01:40:15Z</time>
<desc><![CDATA[lat.=36.785748, lon.=137.798926, Alt.=2428.918720m. Speed=2.000000m/h.]]></desc>
</trkpt>
<trkpt lat="36.785719" lon="137.798941">
<ele>2428.308820</ele>
<time>2014-08-19T01:40:20Z</time>
<desc><![CDATA[lat.=36.785719, lon.=137.798941, Alt.=2428.308820m. Speed=2.000000m/h.]]></desc>
</trkpt>
<trkpt lat="36.785703" lon="137.798940">
<ele>2430.571350</ele>
<time>2014-08-19T01:40:25Z</time>
<desc><![CDATA[lat.=36.785703, lon.=137.798940, Alt.=2430.571350m. Speed=2.000000m/h.]]></desc>
</trkpt>
<trkpt lat="36.785698" lon="137.798962">
<ele>2432.950033</ele>
<time>2014-08-19T01:40:30Z</time>
<desc><![CDATA[lat.=36.785698, lon.=137.798962, Alt.=2432.950033m. Speed=0.000000m/h.]]></desc>
</trkpt>
<trkpt lat="36.785706" lon="137.798962">
<ele>2433.548857</ele>
<time>2014-08-19T01:40:35Z</time>
<desc><![CDATA[lat.=36.785706, lon.=137.798962, Alt.=2433.548857m. Speed=0.000000m/h.]]></desc>
</trkpt>
<trkpt lat="36.785680" lon="137.798954">
<ele>2432.290365</ele>
<time>2014-08-19T01:40:40Z</time>
<desc><![CDATA[lat.=36.785680, lon.=137.798954, Alt.=2432.290365m. Speed=1.000000m/h.]]></desc>
</trkpt>
<trkpt lat="36.785648" lon="137.798962">
<ele>2430.488359</ele>
<time>2014-08-19T01:40:45Z</time>
<desc><![CDATA[lat.=36.785648, lon.=137.798962, Alt.=2430.488359m. Speed=2.000000m/h.]]></desc>
</trkpt>
<trkpt lat="36.785603" lon="137.798960">
<ele>2430.355601</ele>
<time>2014-08-19T01:40:50Z</time>
<desc><![CDATA[lat.=36.785603, lon.=137.798960, Alt.=2430.355601m. Speed=3.000000m/h.]]></desc>
</trkpt>
<trkpt lat="36.785585" lon="137.798951">
<ele>2431.426025</ele>
<time>2014-08-19T01:40:55Z</time>
<desc><![CDATA[lat.=36.785585, lon.=137.798951, Alt.=2431.426025m. Speed=2.000000m/h.]]></desc>
</trkpt>
<trkpt lat="36.785569" lon="137.798982">
<ele>2432.069086</ele>
<time>2014-08-19T01:41:00Z</time>
<desc><![CDATA[lat.=36.785569, lon.=137.798982, Alt.=2432.069086m. Speed=2.000000m/h.]]></desc>
</trkpt>
<trkpt lat="36.785539" lon="137.798996">
<ele>2433.189286</ele>
<time>2014-08-19T01:41:05Z</time>
<desc><![CDATA[lat.=36.785539, lon.=137.798996, Alt.=2433.189286m. Speed=2.000000m/h.]]></desc>
</trkpt>
<trkpt lat="36.785506" lon="137.799019">
<ele>2433.172687</ele>
<time>2014-08-19T01:41:10Z</time>
<desc><![CDATA[lat.=36.785506, lon.=137.799019, Alt.=2433.172687m. Speed=2.000000m/h.]]></desc>
</trkpt>
<trkpt lat="36.785498" lon="137.799034">
<ele>2432.629175</ele>
<time>2014-08-19T01:41:15Z</time>
<desc><![CDATA[lat.=36.785498, lon.=137.799034, Alt.=2432.629175m. Speed=2.000000m/h.]]></desc>
</trkpt>
<trkpt lat="36.785487" lon="137.799042">
<ele>2432.623643</ele>
<time>2014-08-19T01:41:20Z</time>
<desc><![CDATA[lat.=36.785487, lon.=137.799042, Alt.=2432.623643m. Speed=2.000000m/h.]]></desc>
</trkpt>
<trkpt lat="36.785483" lon="137.799065">
<ele>2433.272241</ele>
<time>2014-08-19T01:41:25Z</time>
<desc><![CDATA[lat.=36.785483, lon.=137.799065, Alt.=2433.272241m. Speed=1.000000m/h.]]></desc>
</trkpt>
<trkpt lat="36.785460" lon="137.799096">
<ele>2433.316489</ele>
<time>2014-08-19T01:41:30Z</time>
<desc><![CDATA[lat.=36.785460, lon.=137.799096, Alt.=2433.316489m. Speed=2.000000m/h.]]></desc>
</trkpt>
<trkpt lat="36.785441" lon="137.799119">
<ele>2434.497538</ele>
<time>2014-08-19T01:41:35Z</time>
<desc><![CDATA[lat.=36.785441, lon.=137.799119, Alt.=2434.497538m. Speed=2.000000m/h.]]></desc>
</trkpt>
<trkpt lat="36.785440" lon="137.799134">
<ele>2436.282938</ele>
<time>2014-08-19T01:41:40Z</time>
<desc><![CDATA[lat.=36.785440, lon.=137.799134, Alt.=2436.282938m. Speed=1.000000m/h.]]></desc>
</trkpt>
<trkpt lat="36.785425" lon="137.799133">
<ele>2436.815387</ele>
<time>2014-08-19T01:41:45Z</time>
<desc><![CDATA[lat.=36.785425, lon.=137.799133, Alt.=2436.815387m. Speed=1.000000m/h.]]></desc>
</trkpt>
<trkpt lat="36.785410" lon="137.799132">
<ele>2437.347837</ele>
<time>2014-08-19T01:41:50Z</time>
<desc><![CDATA[lat.=36.785410, lon.=137.799132, Alt.=2437.347837m. Speed=2.000000m/h.]]></desc>
</trkpt>
<trkpt lat="36.785402" lon="137.799147">
<ele>2438.534418</ele>
<time>2014-08-19T01:41:55Z</time>
<desc><![CDATA[lat.=36.785402, lon.=137.799147, Alt.=2438.534418m. Speed=2.000000m/h.]]></desc>
</trkpt>
<trkpt lat="36.785391" lon="137.799171">
<ele>2438.584201</ele>
<time>2014-08-19T01:42:00Z</time>
<desc><![CDATA[lat.=36.785391, lon.=137.799171, Alt.=2438.584201m. Speed=2.000000m/h.]]></desc>
</trkpt>
<trkpt lat="36.785361" lon="137.799185">
<ele>2439.704414</ele>
<time>2014-08-19T01:42:05Z</time>
<desc><![CDATA[lat.=36.785361, lon.=137.799185, Alt.=2439.704414m. Speed=3.000000m/h.]]></desc>
</trkpt>
<trkpt lat="36.785346" lon="137.799185">
<ele>2438.506777</ele>
<time>2014-08-19T01:42:10Z</time>
<desc><![CDATA[lat.=36.785346, lon.=137.799185, Alt.=2438.506777m. Speed=2.000000m/h.]]></desc>
</trkpt>
<trkpt lat="36.785313" lon="137.799208">
<ele>2438.490195</ele>
<time>2014-08-19T01:42:15Z</time>
<desc><![CDATA[lat.=36.785313, lon.=137.799208, Alt.=2438.490195m. Speed=2.000000m/h.]]></desc>
</trkpt>
<trkpt lat="36.785287" lon="137.799198">
<ele>2438.961809</ele>
<time>2014-08-19T01:42:20Z</time>
<desc><![CDATA[lat.=36.785287, lon.=137.799198, Alt.=2438.961809m. Speed=2.000000m/h.]]></desc>
</trkpt>
<trkpt lat="36.785256" lon="137.799229">
<ele>2440.137343</ele>
<time>2014-08-19T01:42:25Z</time>
<desc><![CDATA[lat.=36.785256, lon.=137.799229, Alt.=2440.137343m. Speed=2.000000m/h.]]></desc>
</trkpt>
<trkpt lat="36.785238" lon="137.799235">
<ele>2441.263089</ele>
<time>2014-08-19T01:42:30Z</time>
<desc><![CDATA[lat.=36.785238, lon.=137.799235, Alt.=2441.263089m. Speed=2.000000m/h.]]></desc>
</trkpt>
<trkpt lat="36.785219" lon="137.799259">
<ele>2440.714062</ele>
<time>2014-08-19T01:42:35Z</time>
<desc><![CDATA[lat.=36.785219, lon.=137.799259, Alt.=2440.714062m. Speed=2.000000m/h.]]></desc>
</trkpt>
<trkpt lat="36.785197" lon="137.799258">
<ele>2440.647700</ele>
<time>2014-08-19T01:42:40Z</time>
<desc><![CDATA[lat.=36.785197, lon.=137.799258, Alt.=2440.647700m. Speed=2.000000m/h.]]></desc>
</trkpt>
<trkpt lat="36.785174" lon="137.799288">
<ele>2442.422057</ele>
<time>2014-08-19T01:42:45Z</time>
<desc><![CDATA[lat.=36.785174, lon.=137.799288, Alt.=2442.422057m. Speed=2.000000m/h.]]></desc>
</trkpt>
<trkpt lat="36.785148" lon="137.799295">
<ele>2442.948992</ele>
<time>2014-08-19T01:42:50Z</time>
<desc><![CDATA[lat.=36.785148, lon.=137.799295, Alt.=2442.948992m. Speed=2.000000m/h.]]></desc>
</trkpt>
<trkpt lat="36.785118" lon="137.799294">
<ele>2442.283818</ele>
<time>2014-08-19T01:42:55Z</time>
<desc><![CDATA[lat.=36.785118, lon.=137.799294, Alt.=2442.283818m. Speed=2.000000m/h.]]></desc>
</trkpt>
<trkpt lat="36.785092" lon="137.799316">
<ele>2442.866070</ele>
<time>2014-08-19T01:43:00Z</time>
<desc><![CDATA[lat.=36.785092, lon.=137.799316, Alt.=2442.866070m. Speed=2.000000m/h.]]></desc>
</trkpt>
<trkpt lat="36.785066" lon="137.799323">
<ele>2443.393008</ele>
<time>2014-08-19T01:43:05Z</time>
<desc><![CDATA[lat.=36.785066, lon.=137.799323, Alt.=2443.393008m. Speed=2.000000m/h.]]></desc>
</trkpt>
<trkpt lat="36.785061" lon="137.799347">
<ele>2444.041619</ele>
<time>2014-08-19T01:43:10Z</time>
<desc><![CDATA[lat.=36.785061, lon.=137.799347, Alt.=2444.041619m. Speed=2.000000m/h.]]></desc>
</trkpt>
<trkpt lat="36.785043" lon="137.799370">
<ele>2443.492600</ele>
<time>2014-08-19T01:43:15Z</time>
<desc><![CDATA[lat.=36.785043, lon.=137.799370, Alt.=2443.492600m. Speed=2.000000m/h.]]></desc>
</trkpt>
<trkpt lat="36.785028" lon="137.799369">
<ele>2444.025061</ele>
<time>2014-08-19T01:43:20Z</time>
<desc><![CDATA[lat.=36.785028, lon.=137.799369, Alt.=2444.025061m. Speed=2.000000m/h.]]></desc>
</trkpt>
<trkpt lat="36.784995" lon="137.799376">
<ele>2443.953189</ele>
<time>2014-08-19T01:43:25Z</time>
<desc><![CDATA[lat.=36.784995, lon.=137.799376, Alt.=2443.953189m. Speed=2.000000m/h.]]></desc>
</trkpt>
<trkpt lat="36.784975" lon="137.799398">
<ele>2445.134263</ele>
<time>2014-08-19T01:43:30Z</time>
<desc><![CDATA[lat.=36.784975, lon.=137.799398, Alt.=2445.134263m. Speed=2.000000m/h.]]></desc>
</trkpt>
<trkpt lat="36.784942" lon="137.799421">
<ele>2445.117713</ele>
<time>2014-08-19T01:43:35Z</time>
<desc><![CDATA[lat.=36.784942, lon.=137.799421, Alt.=2445.117713m. Speed=3.000000m/h.]]></desc>
</trkpt>
<trkpt lat="36.784912" lon="137.799452">
<ele>2444.563185</ele>
<time>2014-08-19T01:43:40Z</time>
<desc><![CDATA[lat.=36.784912, lon.=137.799452, Alt.=2444.563185m. Speed=3.000000m/h.]]></desc>
</trkpt>
<trkpt lat="36.784893" lon="137.799443">
<ele>2445.633629</ele>
<time>2014-08-19T01:43:45Z</time>
<desc><![CDATA[lat.=36.784893, lon.=137.799443, Alt.=2445.633629m. Speed=2.000000m/h.]]></desc>
</trkpt>
<trkpt lat="36.784867" lon="137.799465">
<ele>2446.215897</ele>
<time>2014-08-19T01:43:50Z</time>
<desc><![CDATA[lat.=36.784867, lon.=137.799465, Alt.=2446.215897m. Speed=2.000000m/h.]]></desc>
</trkpt>
<trkpt lat="36.784844" lon="137.799480">
<ele>2447.934958</ele>
<time>2014-08-19T01:43:55Z</time>
<desc><![CDATA[lat.=36.784844, lon.=137.799480, Alt.=2447.934958m. Speed=2.000000m/h.]]></desc>
</trkpt>
<trkpt lat="36.784837" lon="137.799463">
<ele>2449.010917</ele>
<time>2014-08-19T01:44:00Z</time>
<desc><![CDATA[lat.=36.784837, lon.=137.799463, Alt.=2449.010917m. Speed=2.000000m/h.]]></desc>
</trkpt>
<trkpt lat="36.784814" lon="137.799477">
<ele>2450.729979</ele>
<time>2014-08-19T01:44:05Z</time>
<desc><![CDATA[lat.=36.784814, lon.=137.799477, Alt.=2450.729979m. Speed=2.000000m/h.]]></desc>
</trkpt>
<trkpt lat="36.784788" lon="137.799500">
<ele>2451.312252</ele>
<time>2014-08-19T01:44:10Z</time>
<desc><![CDATA[lat.=36.784788, lon.=137.799500, Alt.=2451.312252m. Speed=2.000000m/h.]]></desc>
</trkpt>
<trkpt lat="36.784772" lon="137.799531">
<ele>2451.955358</ele>
<time>2014-08-19T01:44:15Z</time>
<desc><![CDATA[lat.=36.784772, lon.=137.799531, Alt.=2451.955358m. Speed=2.000000m/h.]]></desc>
</trkpt>
<trkpt lat="36.784750" lon="137.799530">
<ele>2451.889015</ele>
<time>2014-08-19T01:44:20Z</time>
<desc><![CDATA[lat.=36.784750, lon.=137.799530, Alt.=2451.889015m. Speed=2.000000m/h.]]></desc>
</trkpt>
<trkpt lat="36.784720" lon="137.799545">
<ele>2451.279183</ele>
<time>2014-08-19T01:44:25Z</time>
<desc><![CDATA[lat.=36.784720, lon.=137.799545, Alt.=2451.279183m. Speed=3.000000m/h.]]></desc>
</trkpt>
<trkpt lat="36.784683" lon="137.799559">
<ele>2451.800633</ele>
<time>2014-08-19T01:44:30Z</time>
<desc><![CDATA[lat.=36.784683, lon.=137.799559, Alt.=2451.800633m. Speed=3.000000m/h.]]></desc>
</trkpt>
<trkpt lat="36.784654" lon="137.799559">
<ele>2451.135485</ele>
<time>2014-08-19T01:44:35Z</time>
<desc><![CDATA[lat.=36.784654, lon.=137.799559, Alt.=2451.135485m. Speed=3.000000m/h.]]></desc>
</trkpt>
<trkpt lat="36.784625" lon="137.799542">
<ele>2450.415019</ele>
<time>2014-08-19T01:44:40Z</time>
<desc><![CDATA[lat.=36.784625, lon.=137.799542, Alt.=2450.415019m. Speed=3.000000m/h.]]></desc>
</trkpt>
<trkpt lat="36.784589" lon="137.799510">
<ele>2449.040427</ele>
<time>2014-08-19T01:44:45Z</time>
<desc><![CDATA[lat.=36.784589, lon.=137.799510, Alt.=2449.040427m. Speed=3.000000m/h.]]></desc>
</trkpt>
<trkpt lat="36.784552" lon="137.799525">
<ele>2447.831796</ele>
<time>2014-08-19T01:44:50Z</time>
<desc><![CDATA[lat.=36.784552, lon.=137.799525, Alt.=2447.831796m. Speed=3.000000m/h.]]></desc>
</trkpt>
<trkpt lat="36.784512" lon="137.799516">
<ele>2447.105830</ele>
<time>2014-08-19T01:44:55Z</time>
<desc><![CDATA[lat.=36.784512, lon.=137.799516, Alt.=2447.105830m. Speed=3.000000m/h.]]></desc>
</trkpt>
<trkpt lat="36.784487" lon="137.799523">
<ele>2445.902710</ele>
<time>2014-08-19T01:45:00Z</time>
<desc><![CDATA[lat.=36.784487, lon.=137.799523, Alt.=2445.902710m. Speed=3.000000m/h.]]></desc>
</trkpt>
<trkpt lat="36.784457" lon="137.799554">
<ele>2445.348213</ele>
<time>2014-08-19T01:45:05Z</time>
<desc><![CDATA[lat.=36.784457, lon.=137.799554, Alt.=2445.348213m. Speed=3.000000m/h.]]></desc>
</trkpt>
<trkpt lat="36.784423" lon="137.799592">
<ele>2445.387021</ele>
<time>2014-08-19T01:45:10Z</time>
<desc><![CDATA[lat.=36.784423, lon.=137.799592, Alt.=2445.387021m. Speed=3.000000m/h.]]></desc>
</trkpt>
<trkpt lat="36.784375" lon="137.799582">
<ele>2445.792348</ele>
<time>2014-08-19T01:45:15Z</time>
<desc><![CDATA[lat.=36.784375, lon.=137.799582, Alt.=2445.792348m. Speed=3.000000m/h.]]></desc>
</trkpt>
<trkpt lat="36.784345" lon="137.799597">
<ele>2445.182539</ele>
<time>2014-08-19T01:45:20Z</time>
<desc><![CDATA[lat.=36.784345, lon.=137.799597, Alt.=2445.182539m. Speed=3.000000m/h.]]></desc>
</trkpt>
<trkpt lat="36.784315" lon="137.799628">
<ele>2444.628053</ele>
<time>2014-08-19T01:45:25Z</time>
<desc><![CDATA[lat.=36.784315, lon.=137.799628, Alt.=2444.628053m. Speed=3.000000m/h.]]></desc>
</trkpt>
<trkpt lat="36.784282" lon="137.799635">
<ele>2444.556230</ele>
<time>2014-08-19T01:45:30Z</time>
<desc><![CDATA[lat.=36.784282, lon.=137.799635, Alt.=2444.556230m. Speed=3.000000m/h.]]></desc>
</trkpt>
<trkpt lat="36.784259" lon="137.799666">
<ele>2444.600552</ele>
<time>2014-08-19T01:45:35Z</time>
<desc><![CDATA[lat.=36.784259, lon.=137.799666, Alt.=2444.600552m. Speed=3.000000m/h.]]></desc>
</trkpt>
<trkpt lat="36.784244" lon="137.799697">
<ele>2445.243680</ele>
<time>2014-08-19T01:45:40Z</time>
<desc><![CDATA[lat.=36.784244, lon.=137.799697, Alt.=2445.243680m. Speed=2.000000m/h.]]></desc>
</trkpt>
<trkpt lat="36.784243" lon="137.799713">
<ele>2445.299004</ele>
<time>2014-08-19T01:45:45Z</time>
<desc><![CDATA[lat.=36.784243, lon.=137.799713, Alt.=2445.299004m. Speed=2.000000m/h.]]></desc>
</trkpt>
<trkpt lat="36.784232" lon="137.799736">
<ele>2445.348829</ele>
<time>2014-08-19T01:45:50Z</time>
<desc><![CDATA[lat.=36.784232, lon.=137.799736, Alt.=2445.348829m. Speed=2.000000m/h.]]></desc>
</trkpt>
<trkpt lat="36.784224" lon="137.799751">
<ele>2446.535440</ele>
<time>2014-08-19T01:45:55Z</time>
<desc><![CDATA[lat.=36.784224, lon.=137.799751, Alt.=2446.535440m. Speed=2.000000m/h.]]></desc>
</trkpt>
<trkpt lat="36.784201" lon="137.799765">
<ele>2448.254534</ele>
<time>2014-08-19T01:46:00Z</time>
<desc><![CDATA[lat.=36.784201, lon.=137.799765, Alt.=2448.254534m. Speed=2.000000m/h.]]></desc>
</trkpt>
<trkpt lat="36.784178" lon="137.799796">
<ele>2448.298865</ele>
<time>2014-08-19T01:46:05Z</time>
<desc><![CDATA[lat.=36.784178, lon.=137.799796, Alt.=2448.298865m. Speed=2.000000m/h.]]></desc>
</trkpt>
<trkpt lat="36.784170" lon="137.799795">
<ele>2449.430152</ele>
<time>2014-08-19T01:46:10Z</time>
<desc><![CDATA[lat.=36.784170, lon.=137.799795, Alt.=2449.430152m. Speed=2.000000m/h.]]></desc>
</trkpt>
<trkpt lat="36.784155" lon="137.799810">
<ele>2450.017963</ele>
<time>2014-08-19T01:46:15Z</time>
<desc><![CDATA[lat.=36.784155, lon.=137.799810, Alt.=2450.017963m. Speed=2.000000m/h.]]></desc>
</trkpt>
<trkpt lat="36.784111" lon="137.799825">
<ele>2449.940656</ele>
<time>2014-08-19T01:46:20Z</time>
<desc><![CDATA[lat.=36.784111, lon.=137.799825, Alt.=2449.940656m. Speed=2.000000m/h.]]></desc>
</trkpt>
<trkpt lat="36.784088" lon="137.799840">
<ele>2449.929668</ele>
<time>2014-08-19T01:46:25Z</time>
<desc><![CDATA[lat.=36.784088, lon.=137.799840, Alt.=2449.929668m. Speed=2.000000m/h.]]></desc>
</trkpt>
<trkpt lat="36.784062" lon="137.799846">
<ele>2450.456662</ele>
<time>2014-08-19T01:46:30Z</time>
<desc><![CDATA[lat.=36.784062, lon.=137.799846, Alt.=2450.456662m. Speed=2.000000m/h.]]></desc>
</trkpt>
<trkpt lat="36.784051" lon="137.799838">
<ele>2450.395842</ele>
<time>2014-08-19T01:46:35Z</time>
<desc><![CDATA[lat.=36.784051, lon.=137.799838, Alt.=2450.395842m. Speed=2.000000m/h.]]></desc>
</trkpt>
<trkpt lat="36.784025" lon="137.799845">
<ele>2450.922838</ele>
<time>2014-08-19T01:46:40Z</time>
<desc><![CDATA[lat.=36.784025, lon.=137.799845, Alt.=2450.922838m. Speed=2.000000m/h.]]></desc>
</trkpt>
<trkpt lat="36.784014" lon="137.799852">
<ele>2450.917345</ele>
<time>2014-08-19T01:46:45Z</time>
<desc><![CDATA[lat.=36.784014, lon.=137.799852, Alt.=2450.917345m. Speed=2.000000m/h.]]></desc>
</trkpt>
<trkpt lat="36.783988" lon="137.799843">
<ele>2453.119106</ele>
<time>2014-08-19T01:46:50Z</time>
<desc><![CDATA[lat.=36.783988, lon.=137.799843, Alt.=2453.119106m. Speed=2.000000m/h.]]></desc>
</trkpt>
<trkpt lat="36.783966" lon="137.799842">
<ele>2453.052797</ele>
<time>2014-08-19T01:46:55Z</time>
<desc><![CDATA[lat.=36.783966, lon.=137.799842, Alt.=2453.052797m. Speed=2.000000m/h.]]></desc>
</trkpt>
<trkpt lat="36.783940" lon="137.799849">
<ele>2453.579797</ele>
<time>2014-08-19T01:47:00Z</time>
<desc><![CDATA[lat.=36.783940, lon.=137.799849, Alt.=2453.579797m. Speed=2.000000m/h.]]></desc>
</trkpt>
<trkpt lat="36.783921" lon="137.799855">
<ele>2454.705597</ele>
<time>2014-08-19T01:47:05Z</time>
<desc><![CDATA[lat.=36.783921, lon.=137.799855, Alt.=2454.705597m. Speed=2.000000m/h.]]></desc>
</trkpt>
<trkpt lat="36.783910" lon="137.799862">
<ele>2456.430197</ele>
<time>2014-08-19T01:47:10Z</time>
<desc><![CDATA[lat.=36.783910, lon.=137.799862, Alt.=2456.430197m. Speed=2.000000m/h.]]></desc>
</trkpt>
<trkpt lat="36.783887" lon="137.799877">
<ele>2456.419217</ele>
<time>2014-08-19T01:47:15Z</time>
<desc><![CDATA[lat.=36.783887, lon.=137.799877, Alt.=2456.419217m. Speed=2.000000m/h.]]></desc>
</trkpt>
<trkpt lat="36.783894" lon="137.799893">
<ele>2457.073343</ele>
<time>2014-08-19T01:47:20Z</time>
<desc><![CDATA[lat.=36.783894, lon.=137.799893, Alt.=2457.073343m. Speed=1.000000m/h.]]></desc>
</trkpt>
<trkpt lat="36.783890" lon="137.799916">
<ele>2457.721980</ele>
<time>2014-08-19T01:47:25Z</time>
<desc><![CDATA[lat.=36.783890, lon.=137.799916, Alt.=2457.721980m. Speed=1.000000m/h.]]></desc>
</trkpt>
<trkpt lat="36.783864" lon="137.799940">
<ele>2456.574223</ele>
<time>2014-08-19T01:47:30Z</time>
<desc><![CDATA[lat.=36.783864, lon.=137.799940, Alt.=2456.574223m. Speed=2.000000m/h.]]></desc>
</trkpt>
<trkpt lat="36.783845" lon="137.799946">
<ele>2457.700026</ele>
<time>2014-08-19T01:47:35Z</time>
<desc><![CDATA[lat.=36.783845, lon.=137.799946, Alt.=2457.700026m. Speed=2.000000m/h.]]></desc>
</trkpt>
<trkpt lat="36.783823" lon="137.799946">
<ele>2457.633723</ele>
<time>2014-08-19T01:47:40Z</time>
<desc><![CDATA[lat.=36.783823, lon.=137.799946, Alt.=2457.633723m. Speed=2.000000m/h.]]></desc>
</trkpt>
<trkpt lat="36.783797" lon="137.799952">
<ele>2458.160731</ele>
<time>2014-08-19T01:47:45Z</time>
<desc><![CDATA[lat.=36.783797, lon.=137.799952, Alt.=2458.160731m. Speed=2.000000m/h.]]></desc>
</trkpt>
<trkpt lat="36.783785" lon="137.799960">
<ele>2458.155245</ele>
<time>2014-08-19T01:47:50Z</time>
<desc><![CDATA[lat.=36.783785, lon.=137.799960, Alt.=2458.155245m. Speed=2.000000m/h.]]></desc>
</trkpt>
<trkpt lat="36.783771" lon="137.799943">
<ele>2458.632412</ele>
<time>2014-08-19T01:47:55Z</time>
<desc><![CDATA[lat.=36.783771, lon.=137.799943, Alt.=2458.632412m. Speed=1.000000m/h.]]></desc>
</trkpt>
<trkpt lat="36.783756" lon="137.799943">
<ele>2459.164908</ele>
<time>2014-08-19T01:48:00Z</time>
<desc><![CDATA[lat.=36.783756, lon.=137.799943, Alt.=2459.164908m. Speed=2.000000m/h.]]></desc>
</trkpt>
<trkpt lat="36.783734" lon="137.799941">
<ele>2460.828699</ele>
<time>2014-08-19T01:48:05Z</time>
<desc><![CDATA[lat.=36.783734, lon.=137.799941, Alt.=2460.828699m. Speed=1.000000m/h.]]></desc>
</trkpt>
<trkpt lat="36.783715" lon="137.799964">
<ele>2460.279746</ele>
<time>2014-08-19T01:48:10Z</time>
<desc><![CDATA[lat.=36.783715, lon.=137.799964, Alt.=2460.279746m. Speed=2.000000m/h.]]></desc>
</trkpt>
<trkpt lat="36.783707" lon="137.799979">
<ele>2461.466369</ele>
<time>2014-08-19T01:48:15Z</time>
<desc><![CDATA[lat.=36.783707, lon.=137.799979, Alt.=2461.466369m. Speed=2.000000m/h.]]></desc>
</trkpt>
<trkpt lat="36.783691" lon="137.800010">
<ele>2462.109526</ele>
<time>2014-08-19T01:48:20Z</time>
<desc><![CDATA[lat.=36.783691, lon.=137.800010, Alt.=2462.109526m. Speed=1.000000m/h.]]></desc>
</trkpt>
<trkpt lat="36.783676" lon="137.800009">
<ele>2462.642024</ele>
<time>2014-08-19T01:48:25Z</time>
<desc><![CDATA[lat.=36.783676, lon.=137.800009, Alt.=2462.642024m. Speed=1.000000m/h.]]></desc>
</trkpt>
<trkpt lat="36.783651" lon="137.800001">
<ele>2461.383621</ele>
<time>2014-08-19T01:48:30Z</time>
<desc><![CDATA[lat.=36.783651, lon.=137.800001, Alt.=2461.383621m. Speed=2.000000m/h.]]></desc>
</trkpt>
<trkpt lat="36.783636" lon="137.800000">
<ele>2461.916120</ele>
<time>2014-08-19T01:48:35Z</time>
<desc><![CDATA[lat.=36.783636, lon.=137.800000, Alt.=2461.916120m. Speed=2.000000m/h.]]></desc>
</trkpt>
<trkpt lat="36.783614" lon="137.800031">
<ele>2461.960486</ele>
<time>2014-08-19T01:48:40Z</time>
<desc><![CDATA[lat.=36.783614, lon.=137.800031, Alt.=2461.960486m. Speed=2.000000m/h.]]></desc>
</trkpt>
<trkpt lat="36.783602" lon="137.800055">
<ele>2462.010335</ele>
<time>2014-08-19T01:48:45Z</time>
<desc><![CDATA[lat.=36.783602, lon.=137.800055, Alt.=2462.010335m. Speed=2.000000m/h.]]></desc>
</trkpt>
<trkpt lat="36.783576" lon="137.800077">
<ele>2462.592686</ele>
<time>2014-08-19T01:48:50Z</time>
<desc><![CDATA[lat.=36.783576, lon.=137.800077, Alt.=2462.592686m. Speed=2.000000m/h.]]></desc>
</trkpt>
<trkpt lat="36.783560" lon="137.800107">
<ele>2464.965940</ele>
<time>2014-08-19T01:48:55Z</time>
<desc><![CDATA[lat.=36.783560, lon.=137.800107, Alt.=2464.965940m. Speed=2.000000m/h.]]></desc>
</trkpt>
<trkpt lat="36.783533" lon="137.800130">
<ele>2465.548295</ele>
<time>2014-08-19T01:49:00Z</time>
<desc><![CDATA[lat.=36.783533, lon.=137.800130, Alt.=2465.548295m. Speed=2.000000m/h.]]></desc>
</trkpt>
<trkpt lat="36.783518" lon="137.800145">
<ele>2466.136130</ele>
<time>2014-08-19T01:49:05Z</time>
<desc><![CDATA[lat.=36.783518, lon.=137.800145, Alt.=2466.136130m. Speed=2.000000m/h.]]></desc>
</trkpt>
<trkpt lat="36.783503" lon="137.800160">
<ele>2466.723966</ele>
<time>2014-08-19T01:49:10Z</time>
<desc><![CDATA[lat.=36.783503, lon.=137.800160, Alt.=2466.723966m. Speed=2.000000m/h.]]></desc>
</trkpt>
<trkpt lat="36.783491" lon="137.800183">
<ele>2466.773821</ele>
<time>2014-08-19T01:49:15Z</time>
<desc><![CDATA[lat.=36.783491, lon.=137.800183, Alt.=2466.773821m. Speed=2.000000m/h.]]></desc>
</trkpt>
<trkpt lat="36.783462" lon="137.800198">
<ele>2466.164074</ele>
<time>2014-08-19T01:49:20Z</time>
<desc><![CDATA[lat.=36.783462, lon.=137.800198, Alt.=2466.164074m. Speed=2.000000m/h.]]></desc>
</trkpt>
<trkpt lat="36.783435" lon="137.800221">
<ele>2466.746436</ele>
<time>2014-08-19T01:49:25Z</time>
<desc><![CDATA[lat.=36.783435, lon.=137.800221, Alt.=2466.746436m. Speed=2.000000m/h.]]></desc>
</trkpt>
<trkpt lat="36.783416" lon="137.800244">
<ele>2466.197502</ele>
<time>2014-08-19T01:49:30Z</time>
<desc><![CDATA[lat.=36.783416, lon.=137.800244, Alt.=2466.197502m. Speed=3.000000m/h.]]></desc>
</trkpt>
<trkpt lat="36.783397" lon="137.800267">
<ele>2467.378660</ele>
<time>2014-08-19T01:49:35Z</time>
<desc><![CDATA[lat.=36.783397, lon.=137.800267, Alt.=2467.378660m. Speed=2.000000m/h.]]></desc>
</trkpt>
<trkpt lat="36.783364" lon="137.800289">
<ele>2467.362236</ele>
<time>2014-08-19T01:49:40Z</time>
<desc><![CDATA[lat.=36.783364, lon.=137.800289, Alt.=2467.362236m. Speed=2.000000m/h.]]></desc>
</trkpt>
<trkpt lat="36.783337" lon="137.800296">
<ele>2467.889270</ele>
<time>2014-08-19T01:49:45Z</time>
<desc><![CDATA[lat.=36.783337, lon.=137.800296, Alt.=2467.889270m. Speed=2.000000m/h.]]></desc>
</trkpt>
<trkpt lat="36.783326" lon="137.800319">
<ele>2469.669223</ele>
<time>2014-08-19T01:49:50Z</time>
<desc><![CDATA[lat.=36.783326, lon.=137.800319, Alt.=2469.669223m. Speed=2.000000m/h.]]></desc>
</trkpt>
<trkpt lat="36.783310" lon="137.800334">
<ele>2470.257068</ele>
<time>2014-08-19T01:49:55Z</time>
<desc><![CDATA[lat.=36.783310, lon.=137.800334, Alt.=2470.257068m. Speed=2.000000m/h.]]></desc>
</trkpt>
<trkpt lat="36.783298" lon="137.800356">
<ele>2472.037022</ele>
<time>2014-08-19T01:50:00Z</time>
<desc><![CDATA[lat.=36.783298, lon.=137.800356, Alt.=2472.037022m. Speed=2.000000m/h.]]></desc>
</trkpt>
<trkpt lat="36.783275" lon="137.800371">
<ele>2473.756168</ele>
<time>2014-08-19T01:50:05Z</time>
<desc><![CDATA[lat.=36.783275, lon.=137.800371, Alt.=2473.756168m. Speed=2.000000m/h.]]></desc>
</trkpt>
<trkpt lat="36.783257" lon="137.800377">
<ele>2474.881997</ele>
<time>2014-08-19T01:50:10Z</time>
<desc><![CDATA[lat.=36.783257, lon.=137.800377, Alt.=2474.881997m. Speed=2.000000m/h.]]></desc>
</trkpt>
<trkpt lat="36.783235" lon="137.800376">
<ele>2474.815718</ele>
<time>2014-08-19T01:50:15Z</time>
<desc><![CDATA[lat.=36.783235, lon.=137.800376, Alt.=2474.815718m. Speed=2.000000m/h.]]></desc>
</trkpt>
<trkpt lat="36.783223" lon="137.800416">
<ele>2474.920923</ele>
<time>2014-08-19T01:50:20Z</time>
<desc><![CDATA[lat.=36.783223, lon.=137.800416, Alt.=2474.920923m. Speed=3.000000m/h.]]></desc>
</trkpt>
<trkpt lat="36.783211" lon="137.800455">
<ele>2475.026131</ele>
<time>2014-08-19T01:50:25Z</time>
<desc><![CDATA[lat.=36.783211, lon.=137.800455, Alt.=2475.026131m. Speed=3.000000m/h.]]></desc>
</trkpt>
<trkpt lat="36.783199" lon="137.800494">
<ele>2475.131340</ele>
<time>2014-08-19T01:50:30Z</time>
<desc><![CDATA[lat.=36.783199, lon.=137.800494, Alt.=2475.131340m. Speed=2.000000m/h.]]></desc>
</trkpt>
<trkpt lat="36.783184" lon="137.800509">
<ele>2475.719192</ele>
<time>2014-08-19T01:50:35Z</time>
<desc><![CDATA[lat.=36.783184, lon.=137.800509, Alt.=2475.719192m. Speed=2.000000m/h.]]></desc>
</trkpt>
<trkpt lat="36.783158" lon="137.800500">
<ele>2476.190898</ele>
<time>2014-08-19T01:50:40Z</time>
<desc><![CDATA[lat.=36.783158, lon.=137.800500, Alt.=2476.190898m. Speed=2.000000m/h.]]></desc>
</trkpt>
<trkpt lat="36.783151" lon="137.800483">
<ele>2477.266859</ele>
<time>2014-08-19T01:50:45Z</time>
<desc><![CDATA[lat.=36.783151, lon.=137.800483, Alt.=2477.266859m. Speed=2.000000m/h.]]></desc>
</trkpt>
<trkpt lat="36.783131" lon="137.800522">
<ele>2478.503374</ele>
<time>2014-08-19T01:50:50Z</time>
<desc><![CDATA[lat.=36.783131, lon.=137.800522, Alt.=2478.503374m. Speed=2.000000m/h.]]></desc>
</trkpt>
<trkpt lat="36.783111" lon="137.800560">
<ele>2479.739890</ele>
<time>2014-08-19T01:50:55Z</time>
<desc><![CDATA[lat.=36.783111, lon.=137.800560, Alt.=2479.739890m. Speed=2.000000m/h.]]></desc>
</trkpt>
<trkpt lat="36.783107" lon="137.800600">
<ele>2478.713805</ele>
<time>2014-08-19T01:51:00Z</time>
<desc><![CDATA[lat.=36.783107, lon.=137.800600, Alt.=2478.713805m. Speed=2.000000m/h.]]></desc>
</trkpt>
<trkpt lat="36.783081" lon="137.800623">
<ele>2479.296197</ele>
<time>2014-08-19T01:51:05Z</time>
<desc><![CDATA[lat.=36.783081, lon.=137.800623, Alt.=2479.296197m. Speed=2.000000m/h.]]></desc>
</trkpt>
<trkpt lat="36.783062" lon="137.800646">
<ele>2478.747288</ele>
<time>2014-08-19T01:51:10Z</time>
<desc><![CDATA[lat.=36.783062, lon.=137.800646, Alt.=2478.747288m. Speed=2.000000m/h.]]></desc>
</trkpt>
<trkpt lat="36.783039" lon="137.800677">
<ele>2478.791704</ele>
<time>2014-08-19T01:51:15Z</time>
<desc><![CDATA[lat.=36.783039, lon.=137.800677, Alt.=2478.791704m. Speed=3.000000m/h.]]></desc>
</trkpt>
<trkpt lat="36.783024" lon="137.800708">
<ele>2479.434907</ele>
<time>2014-08-19T01:51:20Z</time>
<desc><![CDATA[lat.=36.783024, lon.=137.800708, Alt.=2479.434907m. Speed=2.000000m/h.]]></desc>
</trkpt>
<trkpt lat="36.783001" lon="137.800739">
<ele>2479.479327</ele>
<time>2014-08-19T01:51:25Z</time>
<desc><![CDATA[lat.=36.783001, lon.=137.800739, Alt.=2479.479327m. Speed=2.000000m/h.]]></desc>
</trkpt>
<trkpt lat="36.782982" lon="137.800762">
<ele>2478.930424</ele>
<time>2014-08-19T01:51:30Z</time>
<desc><![CDATA[lat.=36.782982, lon.=137.800762, Alt.=2478.930424m. Speed=2.000000m/h.]]></desc>
</trkpt>
<trkpt lat="36.782960" lon="137.800761">
<ele>2478.864157</ele>
<time>2014-08-19T01:51:35Z</time>
<desc><![CDATA[lat.=36.782960, lon.=137.800761, Alt.=2478.864157m. Speed=2.000000m/h.]]></desc>
</trkpt>
<trkpt lat="36.782934" lon="137.800769">
<ele>2477.661126</ele>
<time>2014-08-19T01:51:40Z</time>
<desc><![CDATA[lat.=36.782934, lon.=137.800769, Alt.=2477.661126m. Speed=2.000000m/h.]]></desc>
</trkpt>
<trkpt lat="36.782912" lon="137.800768">
<ele>2477.594861</ele>
<time>2014-08-19T01:51:45Z</time>
<desc><![CDATA[lat.=36.782912, lon.=137.800768, Alt.=2477.594861m. Speed=2.000000m/h.]]></desc>
</trkpt>
<trkpt lat="36.782883" lon="137.800750">
<ele>2478.604557</ele>
<time>2014-08-19T01:51:50Z</time>
<desc><![CDATA[lat.=36.782883, lon.=137.800750, Alt.=2478.604557m. Speed=2.000000m/h.]]></desc>
</trkpt>
<trkpt lat="36.782854" lon="137.800750">
<ele>2477.939510</ele>
<time>2014-08-19T01:51:55Z</time>
<desc><![CDATA[lat.=36.782854, lon.=137.800750, Alt.=2477.939510m. Speed=2.000000m/h.]]></desc>
</trkpt>
<trkpt lat="36.782828" lon="137.800756">
<ele>2478.466573</ele>
<time>2014-08-19T01:52:00Z</time>
<desc><![CDATA[lat.=36.782828, lon.=137.800756, Alt.=2478.466573m. Speed=2.000000m/h.]]></desc>
</trkpt>
<trkpt lat="36.782789" lon="137.800802">
<ele>2480.828962</ele>
<time>2014-08-19T01:52:05Z</time>
<desc><![CDATA[lat.=36.782789, lon.=137.800802, Alt.=2480.828962m. Speed=2.000000m/h.]]></desc>
</trkpt>
<trkpt lat="36.782767" lon="137.800817">
<ele>2480.818049</ele>
<time>2014-08-19T01:52:10Z</time>
<desc><![CDATA[lat.=36.782767, lon.=137.800817, Alt.=2480.818049m. Speed=2.000000m/h.]]></desc>
</trkpt>
<trkpt lat="36.782747" lon="137.800855">
<ele>2482.054594</ele>
<time>2014-08-19T01:52:15Z</time>
<desc><![CDATA[lat.=36.782747, lon.=137.800855, Alt.=2482.054594m. Speed=2.000000m/h.]]></desc>
</trkpt>
<trkpt lat="36.782738" lon="137.800902">
<ele>2483.351944</ele>
<time>2014-08-19T01:52:20Z</time>
<desc><![CDATA[lat.=36.782738, lon.=137.800902, Alt.=2483.351944m. Speed=3.000000m/h.]]></desc>
</trkpt>
<trkpt lat="36.782719" lon="137.800941">
<ele>2482.858404</ele>
<time>2014-08-19T01:52:25Z</time>
<desc><![CDATA[lat.=36.782719, lon.=137.800941, Alt.=2482.858404m. Speed=3.000000m/h.]]></desc>
</trkpt>
<trkpt lat="36.782700" lon="137.800980">
<ele>2482.364867</ele>
<time>2014-08-19T01:52:30Z</time>
<desc><![CDATA[lat.=36.782700, lon.=137.800980, Alt.=2482.364867m. Speed=3.000000m/h.]]></desc>
</trkpt>
<trkpt lat="36.782685" lon="137.801011">
<ele>2483.008093</ele>
<time>2014-08-19T01:52:35Z</time>
<desc><![CDATA[lat.=36.782685, lon.=137.801011, Alt.=2483.008093m. Speed=3.000000m/h.]]></desc>
</trkpt>
<trkpt lat="36.782673" lon="137.801034">
<ele>2483.057991</ele>
<time>2014-08-19T01:52:40Z</time>
<desc><![CDATA[lat.=36.782673, lon.=137.801034, Alt.=2483.057991m. Speed=2.000000m/h.]]></desc>
</trkpt>
<trkpt lat="36.782668" lon="137.801073">
<ele>2483.762023</ele>
<time>2014-08-19T01:52:45Z</time>
<desc><![CDATA[lat.=36.782668, lon.=137.801073, Alt.=2483.762023m. Speed=2.000000m/h.]]></desc>
</trkpt>
<trkpt lat="36.782652" lon="137.801120">
<ele>2484.460605</ele>
<time>2014-08-19T01:52:50Z</time>
<desc><![CDATA[lat.=36.782652, lon.=137.801120, Alt.=2484.460605m. Speed=3.000000m/h.]]></desc>
</trkpt>
<trkpt lat="36.782640" lon="137.801143">
<ele>2486.240597</ele>
<time>2014-08-19T01:52:55Z</time>
<desc><![CDATA[lat.=36.782640, lon.=137.801143, Alt.=2486.240597m. Speed=3.000000m/h.]]></desc>
</trkpt>
<trkpt lat="36.782632" lon="137.801158">
<ele>2487.427258</ele>
<time>2014-08-19T01:53:00Z</time>
<desc><![CDATA[lat.=36.782632, lon.=137.801158, Alt.=2487.427258m. Speed=2.000000m/h.]]></desc>
</trkpt>
<trkpt lat="36.782629" lon="137.801149">
<ele>2487.965236</ele>
<time>2014-08-19T01:53:05Z</time>
<desc><![CDATA[lat.=36.782629, lon.=137.801149, Alt.=2487.965236m. Speed=0.000000m/h.]]></desc>
</trkpt>
<trkpt lat="36.782628" lon="137.801181">
<ele>2488.075943</ele>
<time>2014-08-19T01:53:10Z</time>
<desc><![CDATA[lat.=36.782628, lon.=137.801181, Alt.=2488.075943m. Speed=2.000000m/h.]]></desc>
</trkpt>
<trkpt lat="36.782624" lon="137.801221">
<ele>2487.049893</ele>
<time>2014-08-19T01:53:15Z</time>
<desc><![CDATA[lat.=36.782624, lon.=137.801221, Alt.=2487.049893m. Speed=3.000000m/h.]]></desc>
</trkpt>
<trkpt lat="36.782612" lon="137.801260">
<ele>2487.155153</ele>
<time>2014-08-19T01:53:20Z</time>
<desc><![CDATA[lat.=36.782612, lon.=137.801260, Alt.=2487.155153m. Speed=3.000000m/h.]]></desc>
</trkpt>
<trkpt lat="36.782585" lon="137.801315">
<ele>2486.118212</ele>
<time>2014-08-19T01:53:25Z</time>
<desc><![CDATA[lat.=36.782585, lon.=137.801315, Alt.=2486.118212m. Speed=3.000000m/h.]]></desc>
</trkpt>
<trkpt lat="36.782551" lon="137.801338">
<ele>2486.101870</ele>
<time>2014-08-19T01:53:30Z</time>
<desc><![CDATA[lat.=36.782551, lon.=137.801338, Alt.=2486.101870m. Speed=3.000000m/h.]]></desc>
</trkpt>
<trkpt lat="36.782522" lon="137.801353">
<ele>2485.492199</ele>
<time>2014-08-19T01:53:35Z</time>
<desc><![CDATA[lat.=36.782522, lon.=137.801353, Alt.=2485.492199m. Speed=3.000000m/h.]]></desc>
</trkpt>
<trkpt lat="36.782510" lon="137.801392">
<ele>2485.597468</ele>
<time>2014-08-19T01:53:40Z</time>
<desc><![CDATA[lat.=36.782510, lon.=137.801392, Alt.=2485.597468m. Speed=3.000000m/h.]]></desc>
</trkpt>
<trkpt lat="36.782512" lon="137.801431">
<ele>2486.900298</ele>
<time>2014-08-19T01:53:45Z</time>
<desc><![CDATA[lat.=36.782512, lon.=137.801431, Alt.=2486.900298m. Speed=3.000000m/h.]]></desc>
</trkpt>
<trkpt lat="36.782486" lon="137.801437">
<ele>2489.157474</ele>
<time>2014-08-19T01:53:50Z</time>
<desc><![CDATA[lat.=36.782486, lon.=137.801437, Alt.=2489.157474m. Speed=3.000000m/h.]]></desc>
</trkpt>
<trkpt lat="36.782452" lon="137.801443">
<ele>2490.815873</ele>
<time>2014-08-19T01:53:55Z</time>
<desc><![CDATA[lat.=36.782452, lon.=137.801443, Alt.=2490.815873m. Speed=3.000000m/h.]]></desc>
</trkpt>
<trkpt lat="36.782445" lon="137.801411">
<ele>2491.836467</ele>
<time>2014-08-19T01:54:00Z</time>
<desc><![CDATA[lat.=36.782445, lon.=137.801411, Alt.=2491.836467m. Speed=2.000000m/h.]]></desc>
</trkpt>
<trkpt lat="36.782449" lon="137.801403">
<ele>2491.243132</ele>
<time>2014-08-19T01:54:05Z</time>
<desc><![CDATA[lat.=36.782449, lon.=137.801403, Alt.=2491.243132m. Speed=0.000000m/h.]]></desc>
</trkpt>
<trkpt lat="36.782460" lon="137.801411">
<ele>2491.303934</ele>
<time>2014-08-19T01:54:10Z</time>
<desc><![CDATA[lat.=36.782460, lon.=137.801411, Alt.=2491.303934m. Speed=0.000000m/h.]]></desc>
</trkpt>
<trkpt lat="36.782467" lon="137.801411">
<ele>2491.902712</ele>
<time>2014-08-19T01:54:15Z</time>
<desc><![CDATA[lat.=36.782467, lon.=137.801411, Alt.=2491.902712m. Speed=2.000000m/h.]]></desc>
</trkpt>
<trkpt lat="36.782500" lon="137.801420">
<ele>2492.029762</ele>
<time>2014-08-19T01:54:20Z</time>
<desc><![CDATA[lat.=36.782500, lon.=137.801420, Alt.=2492.029762m. Speed=3.000000m/h.]]></desc>
</trkpt>
<trkpt lat="36.782506" lon="137.801484">
<ele>2492.849977</ele>
<time>2014-08-19T01:54:25Z</time>
<desc><![CDATA[lat.=36.782506, lon.=137.801484, Alt.=2492.849977m. Speed=3.000000m/h.]]></desc>
</trkpt>
<trkpt lat="36.782509" lon="137.801524">
<ele>2492.422723</ele>
<time>2014-08-19T01:54:30Z</time>
<desc><![CDATA[lat.=36.782509, lon.=137.801524, Alt.=2492.422723m. Speed=3.000000m/h.]]></desc>
</trkpt>
<trkpt lat="36.782508" lon="137.801571">
<ele>2492.588805</ele>
<time>2014-08-19T01:54:35Z</time>
<desc><![CDATA[lat.=36.782508, lon.=137.801571, Alt.=2492.588805m. Speed=2.000000m/h.]]></desc>
</trkpt>
<trkpt lat="36.782522" lon="137.801588">
<ele>2492.111636</ele>
<time>2014-08-19T01:54:40Z</time>
<desc><![CDATA[lat.=36.782522, lon.=137.801588, Alt.=2492.111636m. Speed=2.000000m/h.]]></desc>
</trkpt>
<trkpt lat="36.782518" lon="137.801579">
<ele>2492.649610</ele>
<time>2014-08-19T01:54:48Z</time>
<desc><![CDATA[lat.=36.782518, lon.=137.801579, Alt.=2492.649610m. Speed=0.000000m/h.]]></desc>
</trkpt>
<trkpt lat="36.782522" lon="137.801588">
<ele>2492.111636</ele>
<time>2014-08-19T01:54:53Z</time>
<desc><![CDATA[lat.=36.782522, lon.=137.801588, Alt.=2492.111636m. Speed=1.000000m/h.]]></desc>
</trkpt>
<trkpt lat="36.782529" lon="137.801603">
<ele>2492.765777</ele>
<time>2014-08-19T01:54:58Z</time>
<desc><![CDATA[lat.=36.782529, lon.=137.801603, Alt.=2492.765777m. Speed=0.000000m/h.]]></desc>
</trkpt>
<trkpt lat="36.782525" lon="137.801612">
<ele>2491.629024</ele>
<time>2014-08-19T01:55:03Z</time>
<desc><![CDATA[lat.=36.782525, lon.=137.801612, Alt.=2491.629024m. Speed=1.000000m/h.]]></desc>
</trkpt>
<trkpt lat="36.782558" lon="137.801637">
<ele>2491.811442</ele>
<time>2014-08-19T01:55:08Z</time>
<desc><![CDATA[lat.=36.782558, lon.=137.801637, Alt.=2491.811442m. Speed=2.000000m/h.]]></desc>
</trkpt>
<trkpt lat="36.782565" lon="137.801637">
<ele>2492.410222</ele>
<time>2014-08-19T01:55:13Z</time>
<desc><![CDATA[lat.=36.782565, lon.=137.801637, Alt.=2492.410222m. Speed=0.000000m/h.]]></desc>
</trkpt>
<trkpt lat="36.782558" lon="137.801637">
<ele>2491.811442</ele>
<time>2014-08-19T01:55:18Z</time>
<desc><![CDATA[lat.=36.782558, lon.=137.801637, Alt.=2491.811442m. Speed=0.000000m/h.]]></desc>
</trkpt>
<trkpt lat="36.782547" lon="137.801628">
<ele>2491.750636</ele>
<time>2014-08-19T01:55:23Z</time>
<desc><![CDATA[lat.=36.782547, lon.=137.801628, Alt.=2491.750636m. Speed=0.000000m/h.]]></desc>
</trkpt>
<trkpt lat="36.782551" lon="137.801637">
<ele>2491.212663</ele>
<time>2014-08-19T01:55:30Z</time>
<desc><![CDATA[lat.=36.782551, lon.=137.801637, Alt.=2491.212663m. Speed=0.000000m/h.]]></desc>
</trkpt>
<trkpt lat="36.782536" lon="137.801637">
<ele>2490.015103</ele>
<time>2014-08-19T01:55:35Z</time>
<desc><![CDATA[lat.=36.782536, lon.=137.801637, Alt.=2490.015103m. Speed=0.000000m/h.]]></desc>
</trkpt>
<trkpt lat="36.782537" lon="137.801621">
<ele>2489.959741</ele>
<time>2014-08-19T01:55:53Z</time>
<desc><![CDATA[lat.=36.782537, lon.=137.801621, Alt.=2489.959741m. Speed=1.000000m/h.]]></desc>
</trkpt>
<trkpt lat="36.782547" lon="137.801613">
<ele>2491.695274</ele>
<time>2014-08-19T01:55:58Z</time>
<desc><![CDATA[lat.=36.782547, lon.=137.801613, Alt.=2491.695274m. Speed=0.000000m/h.]]></desc>
</trkpt>
<trkpt lat="36.782551" lon="137.801621">
<ele>2491.157300</ele>
<time>2014-08-19T01:56:03Z</time>
<desc><![CDATA[lat.=36.782551, lon.=137.801621, Alt.=2491.157300m. Speed=0.000000m/h.]]></desc>
</trkpt>
<trkpt lat="36.782558" lon="137.801621">
<ele>2491.756080</ele>
<time>2014-08-19T01:56:09Z</time>
<desc><![CDATA[lat.=36.782558, lon.=137.801621, Alt.=2491.756080m. Speed=0.000000m/h.]]></desc>
</trkpt>
<trkpt lat="36.782554" lon="137.801645">
<ele>2490.674689</ele>
<time>2014-08-19T01:56:14Z</time>
<desc><![CDATA[lat.=36.782554, lon.=137.801645, Alt.=2490.674689m. Speed=1.000000m/h.]]></desc>
</trkpt>
<trkpt lat="36.782568" lon="137.801693">
<ele>2490.308250</ele>
<time>2014-08-19T01:56:19Z</time>
<desc><![CDATA[lat.=36.782568, lon.=137.801693, Alt.=2490.308250m. Speed=2.000000m/h.]]></desc>
</trkpt>
<trkpt lat="36.782582" lon="137.801741">
<ele>2489.941814</ele>
<time>2014-08-19T01:56:24Z</time>
<desc><![CDATA[lat.=36.782582, lon.=137.801741, Alt.=2489.941814m. Speed=3.000000m/h.]]></desc>
</trkpt>
<trkpt lat="36.782585" lon="137.801798">
<ele>2487.839849</ele>
<time>2014-08-19T01:56:29Z</time>
<desc><![CDATA[lat.=36.782585, lon.=137.801798, Alt.=2487.839849m. Speed=3.000000m/h.]]></desc>
</trkpt>
<trkpt lat="36.782599" lon="137.801830">
<ele>2487.418053</ele>
<time>2014-08-19T01:56:34Z</time>
<desc><![CDATA[lat.=36.782599, lon.=137.801830, Alt.=2487.418053m. Speed=3.000000m/h.]]></desc>
</trkpt>
<trkpt lat="36.782602" lon="137.801870">
<ele>2486.990816</ele>
<time>2014-08-19T01:56:39Z</time>
<desc><![CDATA[lat.=36.782602, lon.=137.801870, Alt.=2486.990816m. Speed=3.000000m/h.]]></desc>
</trkpt>
<trkpt lat="36.782608" lon="137.801918">
<ele>2486.025611</ele>
<time>2014-08-19T01:56:44Z</time>
<desc><![CDATA[lat.=36.782608, lon.=137.801918, Alt.=2486.025611m. Speed=3.000000m/h.]]></desc>
</trkpt>
<trkpt lat="36.782608" lon="137.801951">
<ele>2484.406259</ele>
<time>2014-08-19T01:56:49Z</time>
<desc><![CDATA[lat.=36.782608, lon.=137.801951, Alt.=2484.406259m. Speed=3.000000m/h.]]></desc>
</trkpt>
<trkpt lat="36.782603" lon="137.801991">
<ele>2483.380248</ele>
<time>2014-08-19T01:56:54Z</time>
<desc><![CDATA[lat.=36.782603, lon.=137.801991, Alt.=2483.380248m. Speed=2.000000m/h.]]></desc>
</trkpt>
<trkpt lat="36.782614" lon="137.802032">
<ele>2481.821711</ele>
<time>2014-08-19T01:56:59Z</time>
<desc><![CDATA[lat.=36.782614, lon.=137.802032, Alt.=2481.821711m. Speed=2.000000m/h.]]></desc>
</trkpt>
<trkpt lat="36.782602" lon="137.802071">
<ele>2481.927011</ele>
<time>2014-08-19T01:57:04Z</time>
<desc><![CDATA[lat.=36.782602, lon.=137.802071, Alt.=2481.927011m. Speed=3.000000m/h.]]></desc>
</trkpt>
<trkpt lat="36.782605" lon="137.802111">
<ele>2481.499786</ele>
<time>2014-08-19T01:57:09Z</time>
<desc><![CDATA[lat.=36.782605, lon.=137.802111, Alt.=2481.499786m. Speed=3.000000m/h.]]></desc>
</trkpt>
<trkpt lat="36.782618" lon="137.802159">
<ele>2481.133376</ele>
<time>2014-08-19T01:57:14Z</time>
<desc><![CDATA[lat.=36.782618, lon.=137.802159, Alt.=2481.133376m. Speed=3.000000m/h.]]></desc>
</trkpt>
<trkpt lat="36.782629" lon="137.802199">
<ele>2481.304936</ele>
<time>2014-08-19T01:57:19Z</time>
<desc><![CDATA[lat.=36.782629, lon.=137.802199, Alt.=2481.304936m. Speed=3.000000m/h.]]></desc>
</trkpt>
<trkpt lat="36.782652" lon="137.802237">
<ele>2486.134237</ele>
<time>2014-08-19T01:57:24Z</time>
<desc><![CDATA[lat.=36.782652, lon.=137.802237, Alt.=2486.134237m. Speed=3.000000m/h.]]></desc>
</trkpt>
<trkpt lat="36.782649" lon="137.802229">
<ele>2486.672204</ele>
<time>2014-08-19T01:57:29Z</time>
<desc><![CDATA[lat.=36.782649, lon.=137.802229, Alt.=2486.672204m. Speed=0.000000m/h.]]></desc>
</trkpt>
<trkpt lat="36.782641" lon="137.802229">
<ele>2486.073422</ele>
<time>2014-08-19T01:57:35Z</time>
<desc><![CDATA[lat.=36.782641, lon.=137.802229, Alt.=2486.073422m. Speed=0.000000m/h.]]></desc>
</trkpt>
<trkpt lat="36.782649" lon="137.802229">
<ele>2486.672204</ele>
<time>2014-08-19T01:57:40Z</time>
<desc><![CDATA[lat.=36.782649, lon.=137.802229, Alt.=2486.672204m. Speed=1.000000m/h.]]></desc>
</trkpt>
<trkpt lat="36.782651" lon="137.802285">
<ele>2486.300362</ele>
<time>2014-08-19T01:57:45Z</time>
<desc><![CDATA[lat.=36.782651, lon.=137.802285, Alt.=2486.300362m. Speed=2.000000m/h.]]></desc>
</trkpt>
<trkpt lat="36.782650" lon="137.802332">
<ele>2486.466489</ele>
<time>2014-08-19T01:57:50Z</time>
<desc><![CDATA[lat.=36.782650, lon.=137.802332, Alt.=2486.466489m. Speed=3.000000m/h.]]></desc>
</trkpt>
<trkpt lat="36.782661" lon="137.802356">
<ele>2486.582682</ele>
<time>2014-08-19T01:57:55Z</time>
<desc><![CDATA[lat.=36.782661, lon.=137.802356, Alt.=2486.582682m. Speed=0.000000m/h.]]></desc>
</trkpt>
<trkpt lat="36.782657" lon="137.802364">
<ele>2487.176024</ele>
<time>2014-08-19T01:58:00Z</time>
<desc><![CDATA[lat.=36.782657, lon.=137.802364, Alt.=2487.176024m. Speed=1.000000m/h.]]></desc>
</trkpt>
<trkpt lat="36.782663" lon="137.802412">
<ele>2486.210849</ele>
<time>2014-08-19T01:58:05Z</time>
<desc><![CDATA[lat.=36.782663, lon.=137.802412, Alt.=2486.210849m. Speed=3.000000m/h.]]></desc>
</trkpt>
<trkpt lat="36.782643" lon="137.802467">
<ele>2485.772765</ele>
<time>2014-08-19T01:58:10Z</time>
<desc><![CDATA[lat.=36.782643, lon.=137.802467, Alt.=2485.772765m. Speed=3.000000m/h.]]></desc>
</trkpt>
<trkpt lat="36.782650" lon="137.802499">
<ele>2484.752216</ele>
<time>2014-08-19T01:58:15Z</time>
<desc><![CDATA[lat.=36.782650, lon.=137.802499, Alt.=2484.752216m. Speed=3.000000m/h.]]></desc>
</trkpt>
<trkpt lat="36.782664" lon="137.802548">
<ele>2484.385831</ele>
<time>2014-08-19T01:58:20Z</time>
<desc><![CDATA[lat.=36.782664, lon.=137.802548, Alt.=2484.385831m. Speed=3.000000m/h.]]></desc>
</trkpt>
<trkpt lat="36.782685" lon="137.802580">
<ele>2484.562849</ele>
<time>2014-08-19T01:58:25Z</time>
<desc><![CDATA[lat.=36.782685, lon.=137.802580, Alt.=2484.562849m. Speed=3.000000m/h.]]></desc>
</trkpt>
<trkpt lat="36.782707" lon="137.802597">
<ele>2484.684487</ele>
<time>2014-08-19T01:58:30Z</time>
<desc><![CDATA[lat.=36.782707, lon.=137.802597, Alt.=2484.684487m. Speed=3.000000m/h.]]></desc>
</trkpt>
<trkpt lat="36.782717" lon="137.802621">
<ele>2484.800689</ele>
<time>2014-08-19T01:58:35Z</time>
<desc><![CDATA[lat.=36.782717, lon.=137.802621, Alt.=2484.800689m. Speed=2.000000m/h.]]></desc>
</trkpt>
<trkpt lat="36.782728" lon="137.802629">
<ele>2484.861509</ele>
<time>2014-08-19T01:58:40Z</time>
<desc><![CDATA[lat.=36.782728, lon.=137.802629, Alt.=2484.861509m. Speed=1.000000m/h.]]></desc>
</trkpt>
<trkpt lat="36.782721" lon="137.802629">
<ele>2484.262727</ele>
<time>2014-08-19T01:58:46Z</time>
<desc><![CDATA[lat.=36.782721, lon.=137.802629, Alt.=2484.262727m. Speed=0.000000m/h.]]></desc>
</trkpt>
<trkpt lat="36.782724" lon="137.802636">
<ele>2485.454853</ele>
<time>2014-08-19T01:58:51Z</time>
<desc><![CDATA[lat.=36.782724, lon.=137.802636, Alt.=2485.454853m. Speed=1.000000m/h.]]></desc>
</trkpt>
<trkpt lat="36.782723" lon="137.802684">
<ele>2485.621001</ele>
<time>2014-08-19T01:58:56Z</time>
<desc><![CDATA[lat.=36.782723, lon.=137.802684, Alt.=2485.621001m. Speed=2.000000m/h.]]></desc>
</trkpt>
<trkpt lat="36.782734" lon="137.802708">
<ele>2485.737206</ele>
<time>2014-08-19T01:59:01Z</time>
<desc><![CDATA[lat.=36.782734, lon.=137.802708, Alt.=2485.737206m. Speed=2.000000m/h.]]></desc>
</trkpt>
<trkpt lat="36.782729" lon="137.802747">
<ele>2486.441319</ele>
<time>2014-08-19T01:59:06Z</time>
<desc><![CDATA[lat.=36.782729, lon.=137.802747, Alt.=2486.441319m. Speed=3.000000m/h.]]></desc>
</trkpt>
<trkpt lat="36.782735" lon="137.802795">
<ele>2485.476168</ele>
<time>2014-08-19T01:59:11Z</time>
<desc><![CDATA[lat.=36.782735, lon.=137.802795, Alt.=2485.476168m. Speed=3.000000m/h.]]></desc>
</trkpt>
<trkpt lat="36.782749" lon="137.802844">
<ele>2485.109803</ele>
<time>2014-08-19T01:59:16Z</time>
<desc><![CDATA[lat.=36.782749, lon.=137.802844, Alt.=2485.109803m. Speed=3.000000m/h.]]></desc>
</trkpt>
<trkpt lat="36.782756" lon="137.802876">
<ele>2484.089271</ele>
<time>2014-08-19T01:59:21Z</time>
<desc><![CDATA[lat.=36.782756, lon.=137.802876, Alt.=2484.089271m. Speed=3.000000m/h.]]></desc>
</trkpt>
<trkpt lat="36.782773" lon="137.802933">
<ele>2483.184953</ele>
<time>2014-08-19T01:59:26Z</time>
<desc><![CDATA[lat.=36.782773, lon.=137.802933, Alt.=2483.184953m. Speed=3.000000m/h.]]></desc>
</trkpt>
<trkpt lat="36.782772" lon="137.802980">
<ele>2483.351118</ele>
<time>2014-08-19T01:59:31Z</time>
<desc><![CDATA[lat.=36.782772, lon.=137.802980, Alt.=2483.351118m. Speed=3.000000m/h.]]></desc>
</trkpt>
<trkpt lat="36.782756" lon="137.803027">
<ele>2484.049809</ele>
<time>2014-08-19T01:59:36Z</time>
<desc><![CDATA[lat.=36.782756, lon.=137.803027, Alt.=2484.049809m. Speed=3.000000m/h.]]></desc>
</trkpt>
<trkpt lat="36.782766" lon="137.803067">
<ele>2484.221415</ele>
<time>2014-08-19T01:59:41Z</time>
<desc><![CDATA[lat.=36.782766, lon.=137.803067, Alt.=2484.221415m. Speed=3.000000m/h.]]></desc>
</trkpt>
<trkpt lat="36.782776" lon="137.803107">
<ele>2484.393023</ele>
<time>2014-08-19T01:59:46Z</time>
<desc><![CDATA[lat.=36.782776, lon.=137.803107, Alt.=2484.393023m. Speed=3.000000m/h.]]></desc>
</trkpt>
<trkpt lat="36.782780" lon="137.803098">
<ele>2485.529763</ele>
<time>2014-08-19T01:59:51Z</time>
<desc><![CDATA[lat.=36.782780, lon.=137.803098, Alt.=2485.529763m. Speed=0.000000m/h.]]></desc>
</trkpt>
<trkpt lat="36.782772" lon="137.803098">
<ele>2486.661067</ele>
<time>2014-08-19T01:59:56Z</time>
<desc><![CDATA[lat.=36.782772, lon.=137.803098, Alt.=2486.661067m. Speed=0.000000m/h.]]></desc>
</trkpt>
<trkpt lat="36.782780" lon="137.803098">
<ele>2487.259850</ele>
<time>2014-08-19T02:00:01Z</time>
<desc><![CDATA[lat.=36.782780, lon.=137.803098, Alt.=2487.259850m. Speed=0.000000m/h.]]></desc>
</trkpt>
<trkpt lat="36.782772" lon="137.803098">
<ele>2486.661067</ele>
<time>2014-08-19T02:00:09Z</time>
<desc><![CDATA[lat.=36.782772, lon.=137.803098, Alt.=2486.661067m. Speed=0.000000m/h.]]></desc>
</trkpt>
<trkpt lat="36.782776" lon="137.803090">
<ele>2486.067719</ele>
<time>2014-08-19T02:00:15Z</time>
<desc><![CDATA[lat.=36.782776, lon.=137.803090, Alt.=2486.067719m. Speed=0.000000m/h.]]></desc>
</trkpt>
<trkpt lat="36.782780" lon="137.803098">
<ele>2485.529763</ele>
<time>2014-08-19T02:00:20Z</time>
<desc><![CDATA[lat.=36.782780, lon.=137.803098, Alt.=2485.529763m. Speed=0.000000m/h.]]></desc>
</trkpt>
<trkpt lat="36.782784" lon="137.803091">
<ele>2484.936415</ele>
<time>2014-08-19T02:00:40Z</time>
<desc><![CDATA[lat.=36.782784, lon.=137.803091, Alt.=2484.936415m. Speed=0.000000m/h.]]></desc>
</trkpt>
<trkpt lat="36.782784" lon="137.803107">
<ele>2484.991806</ele>
<time>2014-08-19T02:00:46Z</time>
<desc><![CDATA[lat.=36.782784, lon.=137.803107, Alt.=2484.991806m. Speed=2.000000m/h.]]></desc>
</trkpt>
<trkpt lat="36.782801" lon="137.803147">
<ele>2485.762200</ele>
<time>2014-08-19T02:00:51Z</time>
<desc><![CDATA[lat.=36.782801, lon.=137.803147, Alt.=2485.762200m. Speed=3.000000m/h.]]></desc>
</trkpt>
<trkpt lat="36.782815" lon="137.803195">
<ele>2485.395857</ele>
<time>2014-08-19T02:00:56Z</time>
<desc><![CDATA[lat.=36.782815, lon.=137.803195, Alt.=2485.395857m. Speed=3.000000m/h.]]></desc>
</trkpt>
<trkpt lat="36.782844" lon="137.803196">
<ele>2484.330817</ele>
<time>2014-08-19T02:01:01Z</time>
<desc><![CDATA[lat.=36.782844, lon.=137.803196, Alt.=2484.330817m. Speed=3.000000m/h.]]></desc>
</trkpt>
<trkpt lat="36.782854" lon="137.803236">
<ele>2484.502434</ele>
<time>2014-08-19T02:01:06Z</time>
<desc><![CDATA[lat.=36.782854, lon.=137.803236, Alt.=2484.502434m. Speed=3.000000m/h.]]></desc>
</trkpt>
<trkpt lat="36.782861" lon="137.803284">
<ele>2485.267401</ele>
<time>2014-08-19T02:01:11Z</time>
<desc><![CDATA[lat.=36.782861, lon.=137.803284, Alt.=2485.267401m. Speed=3.000000m/h.]]></desc>
</trkpt>
<trkpt lat="36.782867" lon="137.803315">
<ele>2485.976976</ele>
<time>2014-08-19T02:01:16Z</time>
<desc><![CDATA[lat.=36.782867, lon.=137.803315, Alt.=2485.976976m. Speed=3.000000m/h.]]></desc>
</trkpt>
<trkpt lat="36.782885" lon="137.803356">
<ele>2485.017296</ele>
<time>2014-08-19T02:01:21Z</time>
<desc><![CDATA[lat.=36.782885, lon.=137.803356, Alt.=2485.017296m. Speed=3.000000m/h.]]></desc>
</trkpt>
<trkpt lat="36.782895" lon="137.803396">
<ele>2485.188921</ele>
<time>2014-08-19T02:01:26Z</time>
<desc><![CDATA[lat.=36.782895, lon.=137.803396, Alt.=2485.188921m. Speed=3.000000m/h.]]></desc>
</trkpt>
<trkpt lat="36.782909" lon="137.803444">
<ele>2484.822596</ele>
<time>2014-08-19T02:01:31Z</time>
<desc><![CDATA[lat.=36.782909, lon.=137.803444, Alt.=2484.822596m. Speed=3.000000m/h.]]></desc>
</trkpt>
<trkpt lat="36.782905" lon="137.803436">
<ele>2485.360548</ele>
<time>2014-08-19T02:01:38Z</time>
<desc><![CDATA[lat.=36.782905, lon.=137.803436, Alt.=2485.360548m. Speed=0.000000m/h.]]></desc>
</trkpt>
<trkpt lat="36.782913" lon="137.803437">
<ele>2484.229245</ele>
<time>2014-08-19T02:01:43Z</time>
<desc><![CDATA[lat.=36.782913, lon.=137.803437, Alt.=2484.229245m. Speed=0.000000m/h.]]></desc>
</trkpt>
<trkpt lat="36.782909" lon="137.803428">
<ele>2484.767198</ele>
<time>2014-08-19T02:02:11Z</time>
<desc><![CDATA[lat.=36.782909, lon.=137.803428, Alt.=2484.767198m. Speed=0.000000m/h.]]></desc>
</trkpt>
<trkpt lat="36.782905" lon="137.803436">
<ele>2485.360548</ele>
<time>2014-08-19T02:02:24Z</time>
<desc><![CDATA[lat.=36.782905, lon.=137.803436, Alt.=2485.360548m. Speed=0.000000m/h.]]></desc>
</trkpt>
<trkpt lat="36.782909" lon="137.803428">
<ele>2484.767198</ele>
<time>2014-08-19T02:02:29Z</time>
<desc><![CDATA[lat.=36.782909, lon.=137.803428, Alt.=2484.767198m. Speed=0.000000m/h.]]></desc>
</trkpt>
<trkpt lat="36.782905" lon="137.803436">
<ele>2485.360548</ele>
<time>2014-08-19T02:02:35Z</time>
<desc><![CDATA[lat.=36.782905, lon.=137.803436, Alt.=2485.360548m. Speed=0.000000m/h.]]></desc>
</trkpt>
<trkpt lat="36.782909" lon="137.803428">
<ele>2484.767198</ele>
<time>2014-08-19T02:02:40Z</time>
<desc><![CDATA[lat.=36.782909, lon.=137.803428, Alt.=2484.767198m. Speed=0.000000m/h.]]></desc>
</trkpt>
<trkpt lat="36.782912" lon="137.803436">
<ele>2485.959332</ele>
<time>2014-08-19T02:02:45Z</time>
<desc><![CDATA[lat.=36.782912, lon.=137.803436, Alt.=2485.959332m. Speed=0.000000m/h.]]></desc>
</trkpt>
<trkpt lat="36.782916" lon="137.803428">
<ele>2485.365982</ele>
<time>2014-08-19T02:02:50Z</time>
<desc><![CDATA[lat.=36.782916, lon.=137.803428, Alt.=2485.365982m. Speed=0.000000m/h.]]></desc>
</trkpt>
<trkpt lat="36.782916" lon="137.803444">
<ele>2485.421380</ele>
<time>2014-08-19T02:02:55Z</time>
<desc><![CDATA[lat.=36.782916, lon.=137.803444, Alt.=2485.421380m. Speed=0.000000m/h.]]></desc>
</trkpt>
<trkpt lat="36.782909" lon="137.803444">
<ele>2484.822596</ele>
<time>2014-08-19T02:03:02Z</time>
<desc><![CDATA[lat.=36.782909, lon.=137.803444, Alt.=2484.822596m. Speed=0.000000m/h.]]></desc>
</trkpt>
<trkpt lat="36.782913" lon="137.803437">
<ele>2484.229245</ele>
<time>2014-08-19T02:03:07Z</time>
<desc><![CDATA[lat.=36.782913, lon.=137.803437, Alt.=2484.229245m. Speed=0.000000m/h.]]></desc>
</trkpt>
<trkpt lat="36.782909" lon="137.803428">
<ele>2484.767198</ele>
<time>2014-08-19T02:03:12Z</time>
<desc><![CDATA[lat.=36.782909, lon.=137.803428, Alt.=2484.767198m. Speed=0.000000m/h.]]></desc>
</trkpt>
<trkpt lat="36.782909" lon="137.803444">
<ele>2484.822596</ele>
<time>2014-08-19T02:03:38Z</time>
<desc><![CDATA[lat.=36.782909, lon.=137.803444, Alt.=2484.822596m. Speed=1.000000m/h.]]></desc>
</trkpt>
<trkpt lat="36.782907" lon="137.803492">
<ele>2484.988791</ele>
<time>2014-08-19T02:03:43Z</time>
<desc><![CDATA[lat.=36.782907, lon.=137.803492, Alt.=2484.988791m. Speed=2.000000m/h.]]></desc>
</trkpt>
<trkpt lat="36.782910" lon="137.803547">
<ele>2484.617039</ele>
<time>2014-08-19T02:03:48Z</time>
<desc><![CDATA[lat.=36.782910, lon.=137.803547, Alt.=2484.617039m. Speed=3.000000m/h.]]></desc>
</trkpt>
<trkpt lat="36.782927" lon="137.803587">
<ele>2485.387459</ele>
<time>2014-08-19T02:03:53Z</time>
<desc><![CDATA[lat.=36.782927, lon.=137.803587, Alt.=2485.387459m. Speed=3.000000m/h.]]></desc>
</trkpt>
<trkpt lat="36.782933" lon="137.803635">
<ele>2486.152448</ele>
<time>2014-08-19T02:03:58Z</time>
<desc><![CDATA[lat.=36.782933, lon.=137.803635, Alt.=2486.152448m. Speed=3.000000m/h.]]></desc>
</trkpt>
<trkpt lat="36.782951" lon="137.803675">
<ele>2485.192786</ele>
<time>2014-08-19T02:04:03Z</time>
<desc><![CDATA[lat.=36.782951, lon.=137.803675, Alt.=2485.192786m. Speed=3.000000m/h.]]></desc>
</trkpt>
<trkpt lat="36.782984" lon="137.803701">
<ele>2483.645209</ele>
<time>2014-08-19T02:04:08Z</time>
<desc><![CDATA[lat.=36.782984, lon.=137.803701, Alt.=2483.645209m. Speed=4.000000m/h.]]></desc>
</trkpt>
<trkpt lat="36.783001" lon="137.803758">
<ele>2482.740956</ele>
<time>2014-08-19T02:04:13Z</time>
<desc><![CDATA[lat.=36.783001, lon.=137.803758, Alt.=2482.740956m. Speed=4.000000m/h.]]></desc>
</trkpt>
<trkpt lat="36.783041" lon="137.803783">
<ele>2483.522257</ele>
<time>2014-08-19T02:04:18Z</time>
<desc><![CDATA[lat.=36.783041, lon.=137.803783, Alt.=2483.522257m. Speed=4.000000m/h.]]></desc>
</trkpt>
<trkpt lat="36.783078" lon="137.803785">
<ele>2481.325932</ele>
<time>2014-08-19T02:04:23Z</time>
<desc><![CDATA[lat.=36.783078, lon.=137.803785, Alt.=2481.325932m. Speed=3.000000m/h.]]></desc>
</trkpt>
<trkpt lat="36.783110" lon="137.803826">
<ele>2481.563858</ele>
<time>2014-08-19T02:04:28Z</time>
<desc><![CDATA[lat.=36.783110, lon.=137.803826, Alt.=2481.563858m. Speed=4.000000m/h.]]></desc>
</trkpt>
<trkpt lat="36.783132" lon="137.803875">
<ele>2480.066266</ele>
<time>2014-08-19T02:04:33Z</time>
<desc><![CDATA[lat.=36.783132, lon.=137.803875, Alt.=2480.066266m. Speed=4.000000m/h.]]></desc>
</trkpt>
<trkpt lat="36.783146" lon="137.803907">
<ele>2479.644569</ele>
<time>2014-08-19T02:04:38Z</time>
<desc><![CDATA[lat.=36.783146, lon.=137.803907, Alt.=2479.644569m. Speed=3.000000m/h.]]></desc>
</trkpt>
<trkpt lat="36.783171" lon="137.803948">
<ele>2479.283717</ele>
<time>2014-08-19T02:04:43Z</time>
<desc><![CDATA[lat.=36.783171, lon.=137.803948, Alt.=2479.283717m. Speed=3.000000m/h.]]></desc>
</trkpt>
<trkpt lat="36.783196" lon="137.803988">
<ele>2478.922868</ele>
<time>2014-08-19T02:04:48Z</time>
<desc><![CDATA[lat.=36.783196, lon.=137.803988, Alt.=2478.922868m. Speed=3.000000m/h.]]></desc>
</trkpt>
<trkpt lat="36.783206" lon="137.804028">
<ele>2479.094531</ele>
<time>2014-08-19T02:04:53Z</time>
<desc><![CDATA[lat.=36.783206, lon.=137.804028, Alt.=2479.094531m. Speed=3.000000m/h.]]></desc>
</trkpt>
<trkpt lat="36.783231" lon="137.804053">
<ele>2478.678277</ele>
<time>2014-08-19T02:04:58Z</time>
<desc><![CDATA[lat.=36.783231, lon.=137.804053, Alt.=2478.678277m. Speed=3.000000m/h.]]></desc>
</trkpt>
<trkpt lat="36.783245" lon="137.804086">
<ele>2478.256590</ele>
<time>2014-08-19T02:05:03Z</time>
<desc><![CDATA[lat.=36.783245, lon.=137.804086, Alt.=2478.256590m. Speed=3.000000m/h.]]></desc>
</trkpt>
<trkpt lat="36.783241" lon="137.804126">
<ele>2477.230680</ele>
<time>2014-08-19T02:05:08Z</time>
<desc><![CDATA[lat.=36.783241, lon.=137.804126, Alt.=2477.230680m. Speed=3.000000m/h.]]></desc>
</trkpt>
<trkpt lat="36.783237" lon="137.804166">
<ele>2476.204771</ele>
<time>2014-08-19T02:05:13Z</time>
<desc><![CDATA[lat.=36.783237, lon.=137.804166, Alt.=2476.204771m. Speed=3.000000m/h.]]></desc>
</trkpt>
<trkpt lat="36.783221" lon="137.804213">
<ele>2475.173431</ele>
<time>2014-08-19T02:05:18Z</time>
<desc><![CDATA[lat.=36.783221, lon.=137.804213, Alt.=2475.173431m. Speed=3.000000m/h.]]></desc>
</trkpt>
<trkpt lat="36.783209" lon="137.804236">
<ele>2475.223410</ele>
<time>2014-08-19T02:05:23Z</time>
<desc><![CDATA[lat.=36.783209, lon.=137.804236, Alt.=2475.223410m. Speed=3.000000m/h.]]></desc>
</trkpt>
<trkpt lat="36.783180" lon="137.804251">
<ele>2474.613755</ele>
<time>2014-08-19T02:05:28Z</time>
<desc><![CDATA[lat.=36.783180, lon.=137.804251, Alt.=2474.613755m. Speed=3.000000m/h.]]></desc>
</trkpt>
<trkpt lat="36.783186" lon="137.804283">
<ele>2475.323372</ele>
<time>2014-08-19T02:05:33Z</time>
<desc><![CDATA[lat.=36.783186, lon.=137.804283, Alt.=2475.323372m. Speed=2.000000m/h.]]></desc>
</trkpt>
<trkpt lat="36.783182" lon="137.804291">
<ele>2475.916728</ele>
<time>2014-08-19T02:05:38Z</time>
<desc><![CDATA[lat.=36.783182, lon.=137.804291, Alt.=2475.916728m. Speed=1.000000m/h.]]></desc>
</trkpt>
<trkpt lat="36.783171" lon="137.804298">
<ele>2475.911295</ele>
<time>2014-08-19T02:05:44Z</time>
<desc><![CDATA[lat.=36.783171, lon.=137.804298, Alt.=2475.911295m. Speed=1.000000m/h.]]></desc>
</trkpt>
<trkpt lat="36.783145" lon="137.804321">
<ele>2476.493788</ele>
<time>2014-08-19T02:05:49Z</time>
<desc><![CDATA[lat.=36.783145, lon.=137.804321, Alt.=2476.493788m. Speed=2.000000m/h.]]></desc>
</trkpt>
<trkpt lat="36.783148" lon="137.804329">
<ele>2475.955847</ele>
<time>2014-08-19T02:05:55Z</time>
<desc><![CDATA[lat.=36.783148, lon.=137.804329, Alt.=2475.955847m. Speed=0.000000m/h.]]></desc>
</trkpt>
<trkpt lat="36.783119" lon="137.804344">
<ele>2475.346197</ele>
<time>2014-08-19T02:06:00Z</time>
<desc><![CDATA[lat.=36.783119, lon.=137.804344, Alt.=2475.346197m. Speed=2.000000m/h.]]></desc>
</trkpt>
<trkpt lat="36.783089" lon="137.804376">
<ele>2473.061879</ele>
<time>2014-08-19T02:06:05Z</time>
<desc><![CDATA[lat.=36.783089, lon.=137.804376, Alt.=2473.061879m. Speed=3.000000m/h.]]></desc>
</trkpt>
<trkpt lat="36.783074" lon="137.804407">
<ele>2471.975138</ele>
<time>2014-08-19T02:06:10Z</time>
<desc><![CDATA[lat.=36.783074, lon.=137.804407, Alt.=2471.975138m. Speed=3.000000m/h.]]></desc>
</trkpt>
<trkpt lat="36.783063" lon="137.804431">
<ele>2470.295040</ele>
<time>2014-08-19T02:06:15Z</time>
<desc><![CDATA[lat.=36.783063, lon.=137.804431, Alt.=2470.295040m. Speed=2.000000m/h.]]></desc>
</trkpt>
<trkpt lat="36.783047" lon="137.804463">
<ele>2469.208303</ele>
<time>2014-08-19T02:06:20Z</time>
<desc><![CDATA[lat.=36.783047, lon.=137.804463, Alt.=2469.208303m. Speed=2.000000m/h.]]></desc>
</trkpt>
<trkpt lat="36.783047" lon="137.804495">
<ele>2469.319139</ele>
<time>2014-08-19T02:06:25Z</time>
<desc><![CDATA[lat.=36.783047, lon.=137.804495, Alt.=2469.319139m. Speed=3.000000m/h.]]></desc>
</trkpt>
<trkpt lat="36.783020" lon="137.804517">
<ele>2469.901644</ele>
<time>2014-08-19T02:06:30Z</time>
<desc><![CDATA[lat.=36.783020, lon.=137.804517, Alt.=2469.901644m. Speed=3.000000m/h.]]></desc>
</trkpt>
<trkpt lat="36.783001" lon="137.804556">
<ele>2469.408270</ele>
<time>2014-08-19T02:06:35Z</time>
<desc><![CDATA[lat.=36.783001, lon.=137.804556, Alt.=2469.408270m. Speed=3.000000m/h.]]></desc>
</trkpt>
<trkpt lat="36.782964" lon="137.804571">
<ele>2468.199848</ele>
<time>2014-08-19T02:06:40Z</time>
<desc><![CDATA[lat.=36.782964, lon.=137.804571, Alt.=2468.199848m. Speed=3.000000m/h.]]></desc>
</trkpt>
<trkpt lat="36.782947" lon="137.804547">
<ele>2467.484797</ele>
<time>2014-08-19T02:06:45Z</time>
<desc><![CDATA[lat.=36.782947, lon.=137.804547, Alt.=2467.484797m. Speed=2.000000m/h.]]></desc>
</trkpt>
<trkpt lat="36.782939" lon="137.804563">
<ele>2466.941432</ele>
<time>2014-08-19T02:06:50Z</time>
<desc><![CDATA[lat.=36.782939, lon.=137.804563, Alt.=2466.941432m. Speed=1.000000m/h.]]></desc>
</trkpt>
<trkpt lat="36.782939" lon="137.804580">
<ele>2465.266766</ele>
<time>2014-08-19T02:06:55Z</time>
<desc><![CDATA[lat.=36.782939, lon.=137.804580, Alt.=2465.266766m. Speed=1.000000m/h.]]></desc>
</trkpt>
<trkpt lat="36.782935" lon="137.804604">
<ele>2464.185462</ele>
<time>2014-08-19T02:07:00Z</time>
<desc><![CDATA[lat.=36.782935, lon.=137.804604, Alt.=2464.185462m. Speed=1.000000m/h.]]></desc>
</trkpt>
<trkpt lat="36.782939" lon="137.804613">
<ele>2461.917436</ele>
<time>2014-08-19T02:07:05Z</time>
<desc><![CDATA[lat.=36.782939, lon.=137.804613, Alt.=2461.917436m. Speed=1.000000m/h.]]></desc>
</trkpt>
<trkpt lat="36.782921" lon="137.804621">
<ele>2459.583141</ele>
<time>2014-08-19T02:07:10Z</time>
<desc><![CDATA[lat.=36.782921, lon.=137.804621, Alt.=2459.583141m. Speed=1.000000m/h.]]></desc>
</trkpt>
<trkpt lat="36.782885" lon="137.804589">
<ele>2458.208462</ele>
<time>2014-08-19T02:07:15Z</time>
<desc><![CDATA[lat.=36.782885, lon.=137.804589, Alt.=2458.208462m. Speed=2.000000m/h.]]></desc>
</trkpt>
<trkpt lat="36.782874" lon="137.804564">
<ele>2459.822284</ele>
<time>2014-08-19T02:07:20Z</time>
<desc><![CDATA[lat.=36.782874, lon.=137.804564, Alt.=2459.822284m. Speed=2.000000m/h.]]></desc>
</trkpt>
<trkpt lat="36.782835" lon="137.804556">
<ele>2457.366305</ele>
<time>2014-08-19T02:07:25Z</time>
<desc><![CDATA[lat.=36.782835, lon.=137.804556, Alt.=2457.366305m. Speed=3.000000m/h.]]></desc>
</trkpt>
<trkpt lat="36.782806" lon="137.804522">
<ele>2458.320503</ele>
<time>2014-08-19T02:07:30Z</time>
<desc><![CDATA[lat.=36.782806, lon.=137.804522, Alt.=2458.320503m. Speed=3.000000m/h.]]></desc>
</trkpt>
<trkpt lat="36.782768" lon="137.804552">
<ele>2458.897600</ele>
<time>2014-08-19T02:07:35Z</time>
<desc><![CDATA[lat.=36.782768, lon.=137.804552, Alt.=2458.897600m. Speed=3.000000m/h.]]></desc>
</trkpt>
<trkpt lat="36.782769" lon="137.804537">
<ele>2458.842180</ele>
<time>2014-08-19T02:07:40Z</time>
<desc><![CDATA[lat.=36.782769, lon.=137.804537, Alt.=2458.842180m. Speed=2.000000m/h.]]></desc>
</trkpt>
<trkpt lat="36.782779" lon="137.804544">
<ele>2460.633107</ele>
<time>2014-08-19T02:07:45Z</time>
<desc><![CDATA[lat.=36.782779, lon.=137.804544, Alt.=2460.633107m. Speed=0.000000m/h.]]></desc>
</trkpt>
<trkpt lat="36.782779" lon="137.804560">
<ele>2460.688527</ele>
<time>2014-08-19T02:07:50Z</time>
<desc><![CDATA[lat.=36.782779, lon.=137.804560, Alt.=2460.688527m. Speed=1.000000m/h.]]></desc>
</trkpt>
<trkpt lat="36.782778" lon="137.804592">
<ele>2459.069282</ele>
<time>2014-08-19T02:07:55Z</time>
<desc><![CDATA[lat.=36.782778, lon.=137.804592, Alt.=2459.069282m. Speed=2.000000m/h.]]></desc>
</trkpt>
<trkpt lat="36.782770" lon="137.804641">
<ele>2456.906677</ele>
<time>2014-08-19T02:08:00Z</time>
<desc><![CDATA[lat.=36.782770, lon.=137.804641, Alt.=2456.906677m. Speed=2.000000m/h.]]></desc>
</trkpt>
<trkpt lat="36.782763" lon="137.804690">
<ele>2453.013990</ele>
<time>2014-08-19T02:08:05Z</time>
<desc><![CDATA[lat.=36.782763, lon.=137.804690, Alt.=2453.013990m. Speed=2.000000m/h.]]></desc>
</trkpt>
<trkpt lat="36.782752" lon="137.804714">
<ele>2451.333907</ele>
<time>2014-08-19T02:08:10Z</time>
<desc><![CDATA[lat.=36.782752, lon.=137.804714, Alt.=2451.333907m. Speed=2.000000m/h.]]></desc>
</trkpt>
<trkpt lat="36.782763" lon="137.804739">
<ele>2449.720088</ele>
<time>2014-08-19T02:08:15Z</time>
<desc><![CDATA[lat.=36.782763, lon.=137.804739, Alt.=2449.720088m. Speed=2.000000m/h.]]></desc>
</trkpt>
<trkpt lat="36.782759" lon="137.804763">
<ele>2446.908704</ele>
<time>2014-08-19T02:08:20Z</time>
<desc><![CDATA[lat.=36.782759, lon.=137.804763, Alt.=2446.908704m. Speed=2.000000m/h.]]></desc>
</trkpt>
<trkpt lat="36.782748" lon="137.804772">
<ele>2445.173199</ele>
<time>2014-08-19T02:08:25Z</time>
<desc><![CDATA[lat.=36.782748, lon.=137.804772, Alt.=2445.173199m. Speed=1.000000m/h.]]></desc>
</trkpt>
<trkpt lat="36.782759" lon="137.804780">
<ele>2445.234042</ele>
<time>2014-08-19T02:08:30Z</time>
<desc><![CDATA[lat.=36.782759, lon.=137.804780, Alt.=2445.234042m. Speed=1.000000m/h.]]></desc>
</trkpt>
<trkpt lat="36.782748" lon="137.804788">
<ele>2445.228624</ele>
<time>2014-08-19T02:08:35Z</time>
<desc><![CDATA[lat.=36.782748, lon.=137.804788, Alt.=2445.228624m. Speed=0.000000m/h.]]></desc>
</trkpt>
<trkpt lat="36.782755" lon="137.804788">
<ele>2445.827406</ele>
<time>2014-08-19T02:08:40Z</time>
<desc><![CDATA[lat.=36.782755, lon.=137.804788, Alt.=2445.827406m. Speed=0.000000m/h.]]></desc>
</trkpt>
<trkpt lat="36.782751" lon="137.804796">
<ele>2444.690685</ele>
<time>2014-08-19T02:08:45Z</time>
<desc><![CDATA[lat.=36.782751, lon.=137.804796, Alt.=2444.690685m. Speed=0.000000m/h.]]></desc>
</trkpt>
<trkpt lat="36.782755" lon="137.804820">
<ele>2444.208171</ele>
<time>2014-08-19T02:08:50Z</time>
<desc><![CDATA[lat.=36.782755, lon.=137.804820, Alt.=2444.208171m. Speed=0.000000m/h.]]></desc>
</trkpt>
<trkpt lat="36.782765" lon="137.804844">
<ele>2444.324440</ele>
<time>2014-08-19T02:08:55Z</time>
<desc><![CDATA[lat.=36.782765, lon.=137.804844, Alt.=2444.324440m. Speed=0.000000m/h.]]></desc>
</trkpt>
<trkpt lat="36.782758" lon="137.804844">
<ele>2443.725657</ele>
<time>2014-08-19T02:09:00Z</time>
<desc><![CDATA[lat.=36.782758, lon.=137.804844, Alt.=2443.725657m. Speed=0.000000m/h.]]></desc>
</trkpt>
<trkpt lat="36.782751" lon="137.804844">
<ele>2443.126875</ele>
<time>2014-08-19T02:09:05Z</time>
<desc><![CDATA[lat.=36.782751, lon.=137.804844, Alt.=2443.126875m. Speed=0.000000m/h.]]></desc>
</trkpt>
<trkpt lat="36.782747" lon="137.804852">
<ele>2443.720239</ele>
<time>2014-08-19T02:09:10Z</time>
<desc><![CDATA[lat.=36.782747, lon.=137.804852, Alt.=2443.720239m. Speed=0.000000m/h.]]></desc>
</trkpt>
<trkpt lat="36.782739" lon="137.804851">
<ele>2444.851543</ele>
<time>2014-08-19T02:09:15Z</time>
<desc><![CDATA[lat.=36.782739, lon.=137.804851, Alt.=2444.851543m. Speed=0.000000m/h.]]></desc>
</trkpt>
<trkpt lat="36.782746" lon="137.804867">
<ele>2443.775666</ele>
<time>2014-08-19T02:09:20Z</time>
<desc><![CDATA[lat.=36.782746, lon.=137.804867, Alt.=2443.775666m. Speed=1.000000m/h.]]></desc>
</trkpt>
<trkpt lat="36.782750" lon="137.804892">
<ele>2443.293154</ele>
<time>2014-08-19T02:09:25Z</time>
<desc><![CDATA[lat.=36.782750, lon.=137.804892, Alt.=2443.293154m. Speed=0.000000m/h.]]></desc>
</trkpt>
<trkpt lat="36.782764" lon="137.804892">
<ele>2444.490719</ele>
<time>2014-08-19T02:09:30Z</time>
<desc><![CDATA[lat.=36.782764, lon.=137.804892, Alt.=2444.490719m. Speed=0.000000m/h.]]></desc>
</trkpt>
<trkpt lat="36.782757" lon="137.804892">
<ele>2443.891936</ele>
<time>2014-08-19T02:09:40Z</time>
<desc><![CDATA[lat.=36.782757, lon.=137.804892, Alt.=2443.891936m. Speed=0.000000m/h.]]></desc>
</trkpt>
<trkpt lat="36.782750" lon="137.804892">
<ele>2443.293154</ele>
<time>2014-08-19T02:09:46Z</time>
<desc><![CDATA[lat.=36.782750, lon.=137.804892, Alt.=2443.293154m. Speed=0.000000m/h.]]></desc>
</trkpt>
<trkpt lat="36.782753" lon="137.804900">
<ele>2442.755216</ele>
<time>2014-08-19T02:09:51Z</time>
<desc><![CDATA[lat.=36.782753, lon.=137.804900, Alt.=2442.755216m. Speed=1.000000m/h.]]></desc>
</trkpt>
<trkpt lat="36.782749" lon="137.804924">
<ele>2441.673922</ele>
<time>2014-08-19T02:09:56Z</time>
<desc><![CDATA[lat.=36.782749, lon.=137.804924, Alt.=2441.673922m. Speed=1.000000m/h.]]></desc>
</trkpt>
<trkpt lat="36.782742" lon="137.804956">
<ele>2439.455910</ele>
<time>2014-08-19T02:10:01Z</time>
<desc><![CDATA[lat.=36.782742, lon.=137.804956, Alt.=2439.455910m. Speed=2.000000m/h.]]></desc>
</trkpt>
<trkpt lat="36.782727" lon="137.804972">
<ele>2438.313773</ele>
<time>2014-08-19T02:10:06Z</time>
<desc><![CDATA[lat.=36.782727, lon.=137.804972, Alt.=2438.313773m. Speed=1.000000m/h.]]></desc>
</trkpt>
<trkpt lat="36.782734" lon="137.804989">
<ele>2437.237898</ele>
<time>2014-08-19T02:10:11Z</time>
<desc><![CDATA[lat.=36.782734, lon.=137.804989, Alt.=2437.237898m. Speed=1.000000m/h.]]></desc>
</trkpt>
<trkpt lat="36.782727" lon="137.805022">
<ele>2433.289803</ele>
<time>2014-08-19T02:10:16Z</time>
<desc><![CDATA[lat.=36.782727, lon.=137.805022, Alt.=2433.289803m. Speed=1.000000m/h.]]></desc>
</trkpt>
<trkpt lat="36.782715" lon="137.805045">
<ele>2433.339817</ele>
<time>2014-08-19T02:10:21Z</time>
<desc><![CDATA[lat.=36.782715, lon.=137.805045, Alt.=2433.339817m. Speed=2.000000m/h.]]></desc>
</trkpt>
<trkpt lat="36.782736" lon="137.805077">
<ele>2435.247024</ele>
<time>2014-08-19T02:10:26Z</time>
<desc><![CDATA[lat.=36.782736, lon.=137.805077, Alt.=2435.247024m. Speed=2.000000m/h.]]></desc>
</trkpt>
<trkpt lat="36.782743" lon="137.805109">
<ele>2434.226582</ele>
<time>2014-08-19T02:10:31Z</time>
<desc><![CDATA[lat.=36.782743, lon.=137.805109, Alt.=2434.226582m. Speed=2.000000m/h.]]></desc>
</trkpt>
<trkpt lat="36.782736" lon="137.805125">
<ele>2433.683231</ele>
<time>2014-08-19T02:10:36Z</time>
<desc><![CDATA[lat.=36.782736, lon.=137.805125, Alt.=2433.683231m. Speed=2.000000m/h.]]></desc>
</trkpt>
<trkpt lat="36.782731" lon="137.805165">
<ele>2432.657377</ele>
<time>2014-08-19T02:10:41Z</time>
<desc><![CDATA[lat.=36.782731, lon.=137.805165, Alt.=2432.657377m. Speed=2.000000m/h.]]></desc>
</trkpt>
<trkpt lat="36.782727" lon="137.805189">
<ele>2431.576092</ele>
<time>2014-08-19T02:10:46Z</time>
<desc><![CDATA[lat.=36.782727, lon.=137.805189, Alt.=2431.576092m. Speed=2.000000m/h.]]></desc>
</trkpt>
<trkpt lat="36.782735" lon="137.805206">
<ele>2430.500221</ele>
<time>2014-08-19T02:10:51Z</time>
<desc><![CDATA[lat.=36.782735, lon.=137.805206, Alt.=2430.500221m. Speed=2.000000m/h.]]></desc>
</trkpt>
<trkpt lat="36.782727" lon="137.805222">
<ele>2429.956872</ele>
<time>2014-08-19T02:10:56Z</time>
<desc><![CDATA[lat.=36.782727, lon.=137.805222, Alt.=2429.956872m. Speed=2.000000m/h.]]></desc>
</trkpt>
<trkpt lat="36.782719" lon="137.805253">
<ele>2429.468957</ele>
<time>2014-08-19T02:11:01Z</time>
<desc><![CDATA[lat.=36.782719, lon.=137.805253, Alt.=2429.468957m. Speed=2.000000m/h.]]></desc>
</trkpt>
<trkpt lat="36.782718" lon="137.805285">
<ele>2429.579826</ele>
<time>2014-08-19T02:11:06Z</time>
<desc><![CDATA[lat.=36.782718, lon.=137.805285, Alt.=2429.579826m. Speed=2.000000m/h.]]></desc>
</trkpt>
<trkpt lat="36.782711" lon="137.805317">
<ele>2427.361828</ele>
<time>2014-08-19T02:11:11Z</time>
<desc><![CDATA[lat.=36.782711, lon.=137.805317, Alt.=2427.361828m. Speed=2.000000m/h.]]></desc>
</trkpt>
<trkpt lat="36.782700" lon="137.805342">
<ele>2423.951681</ele>
<time>2014-08-19T02:11:16Z</time>
<desc><![CDATA[lat.=36.782700, lon.=137.805342, Alt.=2423.951681m. Speed=2.000000m/h.]]></desc>
</trkpt>
<trkpt lat="36.782688" lon="137.805382">
<ele>2422.327056</ele>
<time>2014-08-19T02:11:21Z</time>
<desc><![CDATA[lat.=36.782688, lon.=137.805382, Alt.=2422.327056m. Speed=2.000000m/h.]]></desc>
</trkpt>
<trkpt lat="36.782691" lon="137.805422">
<ele>2421.899996</ele>
<time>2014-08-19T02:11:26Z</time>
<desc><![CDATA[lat.=36.782691, lon.=137.805422, Alt.=2421.899996m. Speed=2.000000m/h.]]></desc>
</trkpt>
<trkpt lat="36.782691" lon="137.805455">
<ele>2420.280786</ele>
<time>2014-08-19T02:11:31Z</time>
<desc><![CDATA[lat.=36.782691, lon.=137.805455, Alt.=2420.280786m. Speed=2.000000m/h.]]></desc>
</trkpt>
<trkpt lat="36.782691" lon="137.805471">
<ele>2418.606139</ele>
<time>2014-08-19T02:11:36Z</time>
<desc><![CDATA[lat.=36.782691, lon.=137.805471, Alt.=2418.606139m. Speed=2.000000m/h.]]></desc>
</trkpt>
<trkpt lat="36.782691" lon="137.805487">
<ele>2418.661578</ele>
<time>2014-08-19T02:11:47Z</time>
<desc><![CDATA[lat.=36.782691, lon.=137.805487, Alt.=2418.661578m. Speed=2.000000m/h.]]></desc>
</trkpt>
<trkpt lat="36.782679" lon="137.805494">
<ele>2418.656167</ele>
<time>2014-08-19T02:11:52Z</time>
<desc><![CDATA[lat.=36.782679, lon.=137.805494, Alt.=2418.656167m. Speed=0.000000m/h.]]></desc>
</trkpt>
<trkpt lat="36.782675" lon="137.805502">
<ele>2419.249538</ele>
<time>2014-08-19T02:11:57Z</time>
<desc><![CDATA[lat.=36.782675, lon.=137.805502, Alt.=2419.249538m. Speed=0.000000m/h.]]></desc>
</trkpt>
<trkpt lat="36.782668" lon="137.805502">
<ele>2418.650757</ele>
<time>2014-08-19T02:12:12Z</time>
<desc><![CDATA[lat.=36.782668, lon.=137.805502, Alt.=2418.650757m. Speed=0.000000m/h.]]></desc>
</trkpt>
<trkpt lat="36.782675" lon="137.805502">
<ele>2419.249538</ele>
<time>2014-08-19T02:12:17Z</time>
<desc><![CDATA[lat.=36.782675, lon.=137.805502, Alt.=2419.249538m. Speed=0.000000m/h.]]></desc>
</trkpt>
<trkpt lat="36.782671" lon="137.805509">
<ele>2419.842910</ele>
<time>2014-08-19T02:12:28Z</time>
<desc><![CDATA[lat.=36.782671, lon.=137.805509, Alt.=2419.842910m. Speed=0.000000m/h.]]></desc>
</trkpt>
<trkpt lat="36.782682" lon="137.805518">
<ele>2419.903759</ele>
<time>2014-08-19T02:12:33Z</time>
<desc><![CDATA[lat.=36.782682, lon.=137.805518, Alt.=2419.903759m. Speed=0.000000m/h.]]></desc>
</trkpt>
<trkpt lat="36.782696" lon="137.805534">
<ele>2421.156761</ele>
<time>2014-08-19T02:12:38Z</time>
<desc><![CDATA[lat.=36.782696, lon.=137.805534, Alt.=2421.156761m. Speed=2.000000m/h.]]></desc>
</trkpt>
<trkpt lat="36.782699" lon="137.805574">
<ele>2420.729710</ele>
<time>2014-08-19T02:12:43Z</time>
<desc><![CDATA[lat.=36.782699, lon.=137.805574, Alt.=2420.729710m. Speed=2.000000m/h.]]></desc>
</trkpt>
<trkpt lat="36.782710" lon="137.805598">
<ele>2420.846001</ele>
<time>2014-08-19T02:12:48Z</time>
<desc><![CDATA[lat.=36.782710, lon.=137.805598, Alt.=2420.846001m. Speed=2.000000m/h.]]></desc>
</trkpt>
<trkpt lat="36.782735" lon="137.805623">
<ele>2420.429772</ele>
<time>2014-08-19T02:12:53Z</time>
<desc><![CDATA[lat.=36.782735, lon.=137.805623, Alt.=2420.429772m. Speed=2.000000m/h.]]></desc>
</trkpt>
<trkpt lat="36.782757" lon="137.805624">
<ele>2418.765949</ele>
<time>2014-08-19T02:12:58Z</time>
<desc><![CDATA[lat.=36.782757, lon.=137.805624, Alt.=2418.765949m. Speed=1.000000m/h.]]></desc>
</trkpt>
<trkpt lat="36.782772" lon="137.805625">
<ele>2418.233430</ele>
<time>2014-08-19T02:13:03Z</time>
<desc><![CDATA[lat.=36.782772, lon.=137.805625, Alt.=2418.233430m. Speed=2.000000m/h.]]></desc>
</trkpt>
<trkpt lat="36.782802" lon="137.805626">
<ele>2417.168392</ele>
<time>2014-08-19T02:13:08Z</time>
<desc><![CDATA[lat.=36.782802, lon.=137.805626, Alt.=2417.168392m. Speed=2.000000m/h.]]></desc>
</trkpt>
<trkpt lat="36.782827" lon="137.805651">
<ele>2416.752169</ele>
<time>2014-08-19T02:13:13Z</time>
<desc><![CDATA[lat.=36.782827, lon.=137.805651, Alt.=2416.752169m. Speed=2.000000m/h.]]></desc>
</trkpt>
<trkpt lat="36.782845" lon="137.805676">
<ele>2415.737163</ele>
<time>2014-08-19T02:13:18Z</time>
<desc><![CDATA[lat.=36.782845, lon.=137.805676, Alt.=2415.737163m. Speed=2.000000m/h.]]></desc>
</trkpt>
<trkpt lat="36.782863" lon="137.805700">
<ele>2416.452244</ele>
<time>2014-08-19T02:13:23Z</time>
<desc><![CDATA[lat.=36.782863, lon.=137.805700, Alt.=2416.452244m. Speed=2.000000m/h.]]></desc>
</trkpt>
<trkpt lat="36.782866" lon="137.805709">
<ele>2415.914316</ele>
<time>2014-08-19T02:13:28Z</time>
<desc><![CDATA[lat.=36.782866, lon.=137.805709, Alt.=2415.914316m. Speed=0.000000m/h.]]></desc>
</trkpt>
<trkpt lat="36.782866" lon="137.805724">
<ele>2415.969758</ele>
<time>2014-08-19T02:13:33Z</time>
<desc><![CDATA[lat.=36.782866, lon.=137.805724, Alt.=2415.969758m. Speed=1.000000m/h.]]></desc>
</trkpt>
<trkpt lat="36.782873" lon="137.805724">
<ele>2416.568543</ele>
<time>2014-08-19T02:13:38Z</time>
<desc><![CDATA[lat.=36.782873, lon.=137.805724, Alt.=2416.568543m. Speed=0.000000m/h.]]></desc>
</trkpt>
<trkpt lat="36.782869" lon="137.805764">
<ele>2415.542717</ele>
<time>2014-08-19T02:13:43Z</time>
<desc><![CDATA[lat.=36.782869, lon.=137.805764, Alt.=2415.542717m. Speed=2.000000m/h.]]></desc>
</trkpt>
<trkpt lat="36.782853" lon="137.805795">
<ele>2416.186122</ele>
<time>2014-08-19T02:13:48Z</time>
<desc><![CDATA[lat.=36.782853, lon.=137.805795, Alt.=2416.186122m. Speed=2.000000m/h.]]></desc>
</trkpt>
<trkpt lat="36.782871" lon="137.805819">
<ele>2416.901207</ele>
<time>2014-08-19T02:13:53Z</time>
<desc><![CDATA[lat.=36.782871, lon.=137.805819, Alt.=2416.901207m. Speed=2.000000m/h.]]></desc>
</trkpt>
<trkpt lat="36.782864" lon="137.805819">
<ele>2416.302423</ele>
<time>2014-08-19T02:13:59Z</time>
<desc><![CDATA[lat.=36.782864, lon.=137.805819, Alt.=2416.302423m. Speed=0.000000m/h.]]></desc>
</trkpt>
<trkpt lat="36.782875" lon="137.805828">
<ele>2416.363279</ele>
<time>2014-08-19T02:14:04Z</time>
<desc><![CDATA[lat.=36.782875, lon.=137.805828, Alt.=2416.363279m. Speed=0.000000m/h.]]></desc>
</trkpt>
<trkpt lat="36.782878" lon="137.805852">
<ele>2415.880797</ele>
<time>2014-08-19T02:14:09Z</time>
<desc><![CDATA[lat.=36.782878, lon.=137.805852, Alt.=2415.880797m. Speed=0.000000m/h.]]></desc>
</trkpt>
<trkpt lat="36.782882" lon="137.805860">
<ele>2415.342870</ele>
<time>2014-08-19T02:14:14Z</time>
<desc><![CDATA[lat.=36.782882, lon.=137.805860, Alt.=2415.342870m. Speed=1.000000m/h.]]></desc>
</trkpt>
<trkpt lat="36.782885" lon="137.805884">
<ele>2414.860389</ele>
<time>2014-08-19T02:14:19Z</time>
<desc><![CDATA[lat.=36.782885, lon.=137.805884, Alt.=2414.860389m. Speed=1.000000m/h.]]></desc>
</trkpt>
<trkpt lat="36.782908" lon="137.805870">
<ele>2413.141127</ele>
<time>2014-08-19T02:14:24Z</time>
<desc><![CDATA[lat.=36.782908, lon.=137.805870, Alt.=2413.141127m. Speed=2.000000m/h.]]></desc>
</trkpt>
<trkpt lat="36.782925" lon="137.805894">
<ele>2413.856216</ele>
<time>2014-08-19T02:14:29Z</time>
<desc><![CDATA[lat.=36.782925, lon.=137.805894, Alt.=2413.856216m. Speed=0.000000m/h.]]></desc>
</trkpt>
<trkpt lat="36.782933" lon="137.805879">
<ele>2412.669470</ele>
<time>2014-08-19T02:14:34Z</time>
<desc><![CDATA[lat.=36.782933, lon.=137.805879, Alt.=2412.669470m. Speed=1.000000m/h.]]></desc>
</trkpt>
<trkpt lat="36.782956" lon="137.805881">
<ele>2411.005657</ele>
<time>2014-08-19T02:14:39Z</time>
<desc><![CDATA[lat.=36.782956, lon.=137.805881, Alt.=2411.005657m. Speed=2.000000m/h.]]></desc>
</trkpt>
<trkpt lat="36.782975" lon="137.805874">
<ele>2409.879771</ele>
<time>2014-08-19T02:14:44Z</time>
<desc><![CDATA[lat.=36.782975, lon.=137.805874, Alt.=2409.879771m. Speed=2.000000m/h.]]></desc>
</trkpt>
<trkpt lat="36.782985" lon="137.805882">
<ele>2409.940630</ele>
<time>2014-08-19T02:14:49Z</time>
<desc><![CDATA[lat.=36.782985, lon.=137.805882, Alt.=2409.940630m. Speed=2.000000m/h.]]></desc>
</trkpt>
<trkpt lat="36.782986" lon="137.805883">
<ele>2408.210545</ele>
<time>2014-08-19T02:14:54Z</time>
<desc><![CDATA[lat.=36.782986, lon.=137.805883, Alt.=2408.210545m. Speed=1.000000m/h.]]></desc>
</trkpt>
<trkpt lat="36.783001" lon="137.805884">
<ele>2407.678033</ele>
<time>2014-08-19T02:14:59Z</time>
<desc><![CDATA[lat.=36.783001, lon.=137.805884, Alt.=2407.678033m. Speed=1.000000m/h.]]></desc>
</trkpt>
<trkpt lat="36.783016" lon="137.805885">
<ele>2405.415436</ele>
<time>2014-08-19T02:15:04Z</time>
<desc><![CDATA[lat.=36.783016, lon.=137.805885, Alt.=2405.415436m. Speed=0.000000m/h.]]></desc>
</trkpt>
<trkpt lat="36.783027" lon="137.805893">
<ele>2405.476296</ele>
<time>2014-08-19T02:15:09Z</time>
<desc><![CDATA[lat.=36.783027, lon.=137.805893, Alt.=2405.476296m. Speed=0.000000m/h.]]></desc>
</trkpt>
<trkpt lat="36.783038" lon="137.805902">
<ele>2405.537157</ele>
<time>2014-08-19T02:15:14Z</time>
<desc><![CDATA[lat.=36.783038, lon.=137.805902, Alt.=2405.537157m. Speed=0.000000m/h.]]></desc>
</trkpt>
<trkpt lat="36.783034" lon="137.805909">
<ele>2406.130529</ele>
<time>2014-08-19T02:15:19Z</time>
<desc><![CDATA[lat.=36.783034, lon.=137.805909, Alt.=2406.130529m. Speed=0.000000m/h.]]></desc>
</trkpt>
<trkpt lat="36.783033" lon="137.805925">
<ele>2406.185976</ele>
<time>2014-08-19T02:15:24Z</time>
<desc><![CDATA[lat.=36.783033, lon.=137.805925, Alt.=2406.185976m. Speed=0.000000m/h.]]></desc>
</trkpt>
<trkpt lat="36.783029" lon="137.805933">
<ele>2406.779348</ele>
<time>2014-08-19T02:15:29Z</time>
<desc><![CDATA[lat.=36.783029, lon.=137.805933, Alt.=2406.779348m. Speed=0.000000m/h.]]></desc>
</trkpt>
<trkpt lat="36.783033" lon="137.805941">
<ele>2406.241423</ele>
<time>2014-08-19T02:15:34Z</time>
<desc><![CDATA[lat.=36.783033, lon.=137.805941, Alt.=2406.241423m. Speed=0.000000m/h.]]></desc>
</trkpt>
<trkpt lat="36.783026" lon="137.805941">
<ele>2405.642637</ele>
<time>2014-08-19T02:15:40Z</time>
<desc><![CDATA[lat.=36.783026, lon.=137.805941, Alt.=2405.642637m. Speed=0.000000m/h.]]></desc>
</trkpt>
<trkpt lat="36.783033" lon="137.805941">
<ele>2406.241423</ele>
<time>2014-08-19T02:15:45Z</time>
<desc><![CDATA[lat.=36.783033, lon.=137.805941, Alt.=2406.241423m. Speed=1.000000m/h.]]></desc>
</trkpt>
<trkpt lat="36.783051" lon="137.805950">
<ele>2405.170986</ele>
<time>2014-08-19T02:15:50Z</time>
<desc><![CDATA[lat.=36.783051, lon.=137.805950, Alt.=2405.170986m. Speed=2.000000m/h.]]></desc>
</trkpt>
<trkpt lat="36.783092" lon="137.805961">
<ele>2402.436743</ele>
<time>2014-08-19T02:15:55Z</time>
<desc><![CDATA[lat.=36.783092, lon.=137.805961, Alt.=2402.436743m. Speed=2.000000m/h.]]></desc>
</trkpt>
<trkpt lat="36.783126" lon="137.805970">
<ele>2400.833800</ele>
<time>2014-08-19T02:16:00Z</time>
<desc><![CDATA[lat.=36.783126, lon.=137.805970, Alt.=2400.833800m. Speed=3.000000m/h.]]></desc>
</trkpt>
<trkpt lat="36.783156" lon="137.805956">
<ele>2399.713336</ele>
<time>2014-08-19T02:16:05Z</time>
<desc><![CDATA[lat.=36.783156, lon.=137.805956, Alt.=2399.713336m. Speed=2.000000m/h.]]></desc>
</trkpt>
<trkpt lat="36.783204" lon="137.805951">
<ele>2397.522442</ele>
<time>2014-08-19T02:16:10Z</time>
<desc><![CDATA[lat.=36.783204, lon.=137.805951, Alt.=2397.522442m. Speed=3.000000m/h.]]></desc>
</trkpt>
<trkpt lat="36.783236" lon="137.805992">
<ele>2397.760486</ele>
<time>2014-08-19T02:16:15Z</time>
<desc><![CDATA[lat.=36.783236, lon.=137.805992, Alt.=2397.760486m. Speed=3.000000m/h.]]></desc>
</trkpt>
<trkpt lat="36.783240" lon="137.806000">
<ele>2397.222562</ele>
<time>2014-08-19T02:16:20Z</time>
<desc><![CDATA[lat.=36.783240, lon.=137.806000, Alt.=2397.222562m. Speed=2.000000m/h.]]></desc>
</trkpt>
<trkpt lat="36.783262" lon="137.806017">
<ele>2395.614211</ele>
<time>2014-08-19T02:16:25Z</time>
<desc><![CDATA[lat.=36.783262, lon.=137.806017, Alt.=2395.614211m. Speed=2.000000m/h.]]></desc>
</trkpt>
<trkpt lat="36.783265" lon="137.806041">
<ele>2395.131737</ele>
<time>2014-08-19T02:16:30Z</time>
<desc><![CDATA[lat.=36.783265, lon.=137.806041, Alt.=2395.131737m. Speed=2.000000m/h.]]></desc>
</trkpt>
<trkpt lat="36.783269" lon="137.806050">
<ele>2394.593814</ele>
<time>2014-08-19T02:16:35Z</time>
<desc><![CDATA[lat.=36.783269, lon.=137.806050, Alt.=2394.593814m. Speed=2.000000m/h.]]></desc>
</trkpt>
<trkpt lat="36.783302" lon="137.806060">
<ele>2392.990883</ele>
<time>2014-08-19T02:16:40Z</time>
<desc><![CDATA[lat.=36.783302, lon.=137.806060, Alt.=2392.990883m. Speed=3.000000m/h.]]></desc>
</trkpt>
<trkpt lat="36.783317" lon="137.806076">
<ele>2392.513830</ele>
<time>2014-08-19T02:16:45Z</time>
<desc><![CDATA[lat.=36.783317, lon.=137.806076, Alt.=2392.513830m. Speed=2.000000m/h.]]></desc>
</trkpt>
<trkpt lat="36.783309" lon="137.806076">
<ele>2391.915039</ele>
<time>2014-08-19T02:16:50Z</time>
<desc><![CDATA[lat.=36.783309, lon.=137.806076, Alt.=2391.915039m. Speed=0.000000m/h.]]></desc>
</trkpt>
<trkpt lat="36.783320" lon="137.806100">
<ele>2392.031358</ele>
<time>2014-08-19T02:16:55Z</time>
<desc><![CDATA[lat.=36.783320, lon.=137.806100, Alt.=2392.031358m. Speed=2.000000m/h.]]></desc>
</trkpt>
<trkpt lat="36.783345" lon="137.806126">
<ele>2389.885091</ele>
<time>2014-08-19T02:17:00Z</time>
<desc><![CDATA[lat.=36.783345, lon.=137.806126, Alt.=2389.885091m. Speed=2.000000m/h.]]></desc>
</trkpt>
<trkpt lat="36.783360" lon="137.806143">
<ele>2387.677955</ele>
<time>2014-08-19T02:17:05Z</time>
<desc><![CDATA[lat.=36.783360, lon.=137.806143, Alt.=2387.677955m. Speed=2.000000m/h.]]></desc>
</trkpt>
<trkpt lat="36.783368" lon="137.806144">
<ele>2386.546662</ele>
<time>2014-08-19T02:17:10Z</time>
<desc><![CDATA[lat.=36.783368, lon.=137.806144, Alt.=2386.546662m. Speed=1.000000m/h.]]></desc>
</trkpt>
<trkpt lat="36.783360" lon="137.806159">
<ele>2387.733406</ele>
<time>2014-08-19T02:17:15Z</time>
<desc><![CDATA[lat.=36.783360, lon.=137.806159, Alt.=2387.733406m. Speed=1.000000m/h.]]></desc>
</trkpt>
<trkpt lat="36.783363" lon="137.806183">
<ele>2387.250937</ele>
<time>2014-08-19T02:17:20Z</time>
<desc><![CDATA[lat.=36.783363, lon.=137.806183, Alt.=2387.250937m. Speed=1.000000m/h.]]></desc>
</trkpt>
<trkpt lat="36.783371" lon="137.806184">
<ele>2386.119645</ele>
<time>2014-08-19T02:17:25Z</time>
<desc><![CDATA[lat.=36.783371, lon.=137.806184, Alt.=2386.119645m. Speed=1.000000m/h.]]></desc>
</trkpt>
<trkpt lat="36.783374" lon="137.806224">
<ele>2385.692629</ele>
<time>2014-08-19T02:17:30Z</time>
<desc><![CDATA[lat.=36.783374, lon.=137.806224, Alt.=2385.692629m. Speed=3.000000m/h.]]></desc>
</trkpt>
<trkpt lat="36.783362" lon="137.806263">
<ele>2385.798117</ele>
<time>2014-08-19T02:17:35Z</time>
<desc><![CDATA[lat.=36.783362, lon.=137.806263, Alt.=2385.798117m. Speed=2.000000m/h.]]></desc>
</trkpt>
<trkpt lat="36.783353" lon="137.806294">
<ele>2387.040317</ele>
<time>2014-08-19T02:17:40Z</time>
<desc><![CDATA[lat.=36.783353, lon.=137.806294, Alt.=2387.040317m. Speed=2.000000m/h.]]></desc>
</trkpt>
<trkpt lat="36.783349" lon="137.806334">
<ele>2386.014516</ele>
<time>2014-08-19T02:17:45Z</time>
<desc><![CDATA[lat.=36.783349, lon.=137.806334, Alt.=2386.014516m. Speed=2.000000m/h.]]></desc>
</trkpt>
<trkpt lat="36.783338" lon="137.806342">
<ele>2384.279015</ele>
<time>2014-08-19T02:17:50Z</time>
<desc><![CDATA[lat.=36.783338, lon.=137.806342, Alt.=2384.279015m. Speed=2.000000m/h.]]></desc>
</trkpt>
<trkpt lat="36.783342" lon="137.806367">
<ele>2382.066467</ele>
<time>2014-08-19T02:17:55Z</time>
<desc><![CDATA[lat.=36.783342, lon.=137.806367, Alt.=2382.066467m. Speed=2.000000m/h.]]></desc>
</trkpt>
<trkpt lat="36.783346" lon="137.806376">
<ele>2379.798465</ele>
<time>2014-08-19T02:18:00Z</time>
<desc><![CDATA[lat.=36.783346, lon.=137.806376, Alt.=2379.798465m. Speed=1.000000m/h.]]></desc>
</trkpt>
<trkpt lat="36.783350" lon="137.806385">
<ele>2379.260546</ele>
<time>2014-08-19T02:18:05Z</time>
<desc><![CDATA[lat.=36.783350, lon.=137.806385, Alt.=2379.260546m. Speed=0.000000m/h.]]></desc>
</trkpt>
<trkpt lat="36.783335" lon="137.806385">
<ele>2378.062965</ele>
<time>2014-08-19T02:18:10Z</time>
<desc><![CDATA[lat.=36.783335, lon.=137.806385, Alt.=2378.062965m. Speed=0.000000m/h.]]></desc>
</trkpt>
<trkpt lat="36.783338" lon="137.806392">
<ele>2379.255130</ele>
<time>2014-08-19T02:18:15Z</time>
<desc><![CDATA[lat.=36.783338, lon.=137.806392, Alt.=2379.255130m. Speed=0.000000m/h.]]></desc>
</trkpt>
<trkpt lat="36.783324" lon="137.806392">
<ele>2378.057549</ele>
<time>2014-08-19T02:18:20Z</time>
<desc><![CDATA[lat.=36.783324, lon.=137.806392, Alt.=2378.057549m. Speed=0.000000m/h.]]></desc>
</trkpt>
<trkpt lat="36.783342" lon="137.806401">
<ele>2376.987128</ele>
<time>2014-08-19T02:18:25Z</time>
<desc><![CDATA[lat.=36.783342, lon.=137.806401, Alt.=2376.987128m. Speed=1.000000m/h.]]></desc>
</trkpt>
<trkpt lat="36.783349" lon="137.806433">
<ele>2377.696831</ele>
<time>2014-08-19T02:18:30Z</time>
<desc><![CDATA[lat.=36.783349, lon.=137.806433, Alt.=2377.696831m. Speed=1.000000m/h.]]></desc>
</trkpt>
<trkpt lat="36.783360" lon="137.806425">
<ele>2377.702248</ele>
<time>2014-08-19T02:18:37Z</time>
<desc><![CDATA[lat.=36.783360, lon.=137.806425, Alt.=2377.702248m. Speed=0.000000m/h.]]></desc>
</trkpt>
<trkpt lat="36.783367" lon="137.806458">
<ele>2376.681869</ele>
<time>2014-08-19T02:18:42Z</time>
<desc><![CDATA[lat.=36.783367, lon.=137.806458, Alt.=2376.681869m. Speed=1.000000m/h.]]></desc>
</trkpt>
<trkpt lat="36.783390" lon="137.806443">
<ele>2374.962618</ele>
<time>2014-08-19T02:18:47Z</time>
<desc><![CDATA[lat.=36.783390, lon.=137.806443, Alt.=2374.962618m. Speed=1.000000m/h.]]></desc>
</trkpt>
<trkpt lat="36.783430" lon="137.806453">
<ele>2373.958492</ele>
<time>2014-08-19T02:18:52Z</time>
<desc><![CDATA[lat.=36.783430, lon.=137.806453, Alt.=2373.958492m. Speed=2.000000m/h.]]></desc>
</trkpt>
<trkpt lat="36.783437" lon="137.806485">
<ele>2374.668199</ele>
<time>2014-08-19T02:18:57Z</time>
<desc><![CDATA[lat.=36.783437, lon.=137.806485, Alt.=2374.668199m. Speed=2.000000m/h.]]></desc>
</trkpt>
<trkpt lat="36.783433" lon="137.806477">
<ele>2375.206116</ele>
<time>2014-08-19T02:19:02Z</time>
<desc><![CDATA[lat.=36.783433, lon.=137.806477, Alt.=2375.206116m. Speed=0.000000m/h.]]></desc>
</trkpt>
<trkpt lat="36.783443" lon="137.806484">
<ele>2376.997075</ele>
<time>2014-08-19T02:19:07Z</time>
<desc><![CDATA[lat.=36.783443, lon.=137.806484, Alt.=2376.997075m. Speed=0.000000m/h.]]></desc>
</trkpt>
<trkpt lat="36.783473" lon="137.806501">
<ele>2375.987535</ele>
<time>2014-08-19T02:19:12Z</time>
<desc><![CDATA[lat.=36.783473, lon.=137.806501, Alt.=2375.987535m. Speed=1.000000m/h.]]></desc>
</trkpt>
<trkpt lat="36.783437" lon="137.806518">
<ele>2371.318948</ele>
<time>2014-08-19T02:19:17Z</time>
<desc><![CDATA[lat.=36.783437, lon.=137.806518, Alt.=2371.318948m. Speed=2.000000m/h.]]></desc>
</trkpt>
<trkpt lat="36.783429" lon="137.806550">
<ele>2369.100990</ele>
<time>2014-08-19T02:19:22Z</time>
<desc><![CDATA[lat.=36.783429, lon.=137.806550, Alt.=2369.100990m. Speed=2.000000m/h.]]></desc>
</trkpt>
<trkpt lat="36.783462" lon="137.806576">
<ele>2367.553535</ele>
<time>2014-08-19T02:19:27Z</time>
<desc><![CDATA[lat.=36.783462, lon.=137.806576, Alt.=2367.553535m. Speed=2.000000m/h.]]></desc>
</trkpt>
<trkpt lat="36.783465" lon="137.806616">
<ele>2367.126539</ele>
<time>2014-08-19T02:19:32Z</time>
<desc><![CDATA[lat.=36.783465, lon.=137.806616, Alt.=2367.126539m. Speed=3.000000m/h.]]></desc>
</trkpt>
<trkpt lat="36.783431" lon="137.806639">
<ele>2367.110290</ele>
<time>2014-08-19T02:19:37Z</time>
<desc><![CDATA[lat.=36.783431, lon.=137.806639, Alt.=2367.110290m. Speed=2.000000m/h.]]></desc>
</trkpt>
<trkpt lat="36.783420" lon="137.806679">
<ele>2365.485713</ele>
<time>2014-08-19T02:19:42Z</time>
<desc><![CDATA[lat.=36.783420, lon.=137.806679, Alt.=2365.485713m. Speed=3.000000m/h.]]></desc>
</trkpt>
<trkpt lat="36.783401" lon="137.806734">
<ele>2363.317810</ele>
<time>2014-08-19T02:19:47Z</time>
<desc><![CDATA[lat.=36.783401, lon.=137.806734, Alt.=2363.317810m. Speed=3.000000m/h.]]></desc>
</trkpt>
<trkpt lat="36.783404" lon="137.806758">
<ele>2362.835358</ele>
<time>2014-08-19T02:19:52Z</time>
<desc><![CDATA[lat.=36.783404, lon.=137.806758, Alt.=2362.835358m. Speed=2.000000m/h.]]></desc>
</trkpt>
<trkpt lat="36.783367" lon="137.806773">
<ele>2361.626948</ele>
<time>2014-08-19T02:19:57Z</time>
<desc><![CDATA[lat.=36.783367, lon.=137.806773, Alt.=2361.626948m. Speed=2.000000m/h.]]></desc>
</trkpt>
<trkpt lat="36.783359" lon="137.806789">
<ele>2361.083621</ele>
<time>2014-08-19T02:20:02Z</time>
<desc><![CDATA[lat.=36.783359, lon.=137.806789, Alt.=2361.083621m. Speed=2.000000m/h.]]></desc>
</trkpt>
<trkpt lat="36.783330" lon="137.806788">
<ele>2362.148624</ele>
<time>2014-08-19T02:20:07Z</time>
<desc><![CDATA[lat.=36.783330, lon.=137.806788, Alt.=2362.148624m. Speed=2.000000m/h.]]></desc>
</trkpt>
<trkpt lat="36.783319" lon="137.806795">
<ele>2362.143212</ele>
<time>2014-08-19T02:20:12Z</time>
<desc><![CDATA[lat.=36.783319, lon.=137.806795, Alt.=2362.143212m. Speed=2.000000m/h.]]></desc>
</trkpt>
<trkpt lat="36.783315" lon="137.806803">
<ele>2362.736590</ele>
<time>2014-08-19T02:20:17Z</time>
<desc><![CDATA[lat.=36.783315, lon.=137.806803, Alt.=2362.736590m. Speed=1.000000m/h.]]></desc>
</trkpt>
<trkpt lat="36.783318" lon="137.806811">
<ele>2362.198676</ele>
<time>2014-08-19T02:20:22Z</time>
<desc><![CDATA[lat.=36.783318, lon.=137.806811, Alt.=2362.198676m. Speed=1.000000m/h.]]></desc>
</trkpt>
<trkpt lat="36.783347" lon="137.806844">
<ele>2361.244601</ele>
<time>2014-08-19T02:20:27Z</time>
<desc><![CDATA[lat.=36.783347, lon.=137.806844, Alt.=2361.244601m. Speed=1.000000m/h.]]></desc>
</trkpt>
<trkpt lat="36.783354" lon="137.806877">
<ele>2360.224239</ele>
<time>2014-08-19T02:20:32Z</time>
<desc><![CDATA[lat.=36.783354, lon.=137.806877, Alt.=2360.224239m. Speed=2.000000m/h.]]></desc>
</trkpt>
<trkpt lat="36.783335" lon="137.806900">
<ele>2359.675502</ele>
<time>2014-08-19T02:20:37Z</time>
<desc><![CDATA[lat.=36.783335, lon.=137.806900, Alt.=2359.675502m. Speed=2.000000m/h.]]></desc>
</trkpt>
<trkpt lat="36.783324" lon="137.806924">
<ele>2357.995474</ele>
<time>2014-08-19T02:20:42Z</time>
<desc><![CDATA[lat.=36.783324, lon.=137.806924, Alt.=2357.995474m. Speed=2.000000m/h.]]></desc>
</trkpt>
<trkpt lat="36.783328" lon="137.806932">
<ele>2357.457561</ele>
<time>2014-08-19T02:20:51Z</time>
<desc><![CDATA[lat.=36.783328, lon.=137.806932, Alt.=2357.457561m. Speed=0.000000m/h.]]></desc>
</trkpt>
<trkpt lat="36.783324" lon="137.806957">
<ele>2354.646241</ele>
<time>2014-08-19T02:20:56Z</time>
<desc><![CDATA[lat.=36.783324, lon.=137.806957, Alt.=2354.646241m. Speed=1.000000m/h.]]></desc>
</trkpt>
<trkpt lat="36.783324" lon="137.806990">
<ele>2353.027093</ele>
<time>2014-08-19T02:21:01Z</time>
<desc><![CDATA[lat.=36.783324, lon.=137.806990, Alt.=2353.027093m. Speed=1.000000m/h.]]></desc>
</trkpt>
<trkpt lat="36.783299" lon="137.806982">
<ele>2350.038551</ele>
<time>2014-08-19T02:21:06Z</time>
<desc><![CDATA[lat.=36.783299, lon.=137.806982, Alt.=2350.038551m. Speed=1.000000m/h.]]></desc>
</trkpt>
<trkpt lat="36.783306" lon="137.806982">
<ele>2350.637342</ele>
<time>2014-08-19T02:21:11Z</time>
<desc><![CDATA[lat.=36.783306, lon.=137.806982, Alt.=2350.637342m. Speed=0.000000m/h.]]></desc>
</trkpt>
<trkpt lat="36.783313" lon="137.806999">
<ele>2349.561516</ele>
<time>2014-08-19T02:21:16Z</time>
<desc><![CDATA[lat.=36.783313, lon.=137.806999, Alt.=2349.561516m. Speed=1.000000m/h.]]></desc>
</trkpt>
<trkpt lat="36.783324" lon="137.807023">
<ele>2349.677863</ele>
<time>2014-08-19T02:21:21Z</time>
<desc><![CDATA[lat.=36.783324, lon.=137.807023, Alt.=2349.677863m. Speed=0.000000m/h.]]></desc>
</trkpt>
<trkpt lat="36.783338" lon="137.807055">
<ele>2349.256298</ele>
<time>2014-08-19T02:21:26Z</time>
<desc><![CDATA[lat.=36.783338, lon.=137.807055, Alt.=2349.256298m. Speed=1.000000m/h.]]></desc>
</trkpt>
<trkpt lat="36.783349" lon="137.807064">
<ele>2349.317178</ele>
<time>2014-08-19T02:21:31Z</time>
<desc><![CDATA[lat.=36.783349, lon.=137.807064, Alt.=2349.317178m. Speed=0.000000m/h.]]></desc>
</trkpt>
<trkpt lat="36.783349" lon="137.807080">
<ele>2347.642564</ele>
<time>2014-08-19T02:21:36Z</time>
<desc><![CDATA[lat.=36.783349, lon.=137.807080, Alt.=2347.642564m. Speed=1.000000m/h.]]></desc>
</trkpt>
<trkpt lat="36.783338" lon="137.807104">
<ele>2345.962541</ele>
<time>2014-08-19T02:21:41Z</time>
<desc><![CDATA[lat.=36.783338, lon.=137.807104, Alt.=2345.962541m. Speed=2.000000m/h.]]></desc>
</trkpt>
<trkpt lat="36.783345" lon="137.807121">
<ele>2344.886719</ele>
<time>2014-08-19T02:21:46Z</time>
<desc><![CDATA[lat.=36.783345, lon.=137.807121, Alt.=2344.886719m. Speed=1.000000m/h.]]></desc>
</trkpt>
<trkpt lat="36.783363" lon="137.807145">
<ele>2345.601860</ele>
<time>2014-08-19T02:21:51Z</time>
<desc><![CDATA[lat.=36.783363, lon.=137.807145, Alt.=2345.601860m. Speed=2.000000m/h.]]></desc>
</trkpt>
<trkpt lat="36.783363" lon="137.807162">
<ele>2343.927248</ele>
<time>2014-08-19T02:21:56Z</time>
<desc><![CDATA[lat.=36.783363, lon.=137.807162, Alt.=2343.927248m. Speed=1.000000m/h.]]></desc>
</trkpt>
<trkpt lat="36.783370" lon="137.807162">
<ele>2342.795957</ele>
<time>2014-08-19T02:22:01Z</time>
<desc><![CDATA[lat.=36.783370, lon.=137.807162, Alt.=2342.795957m. Speed=1.000000m/h.]]></desc>
</trkpt>
<trkpt lat="36.783388" lon="137.807187">
<ele>2341.781017</ele>
<time>2014-08-19T02:22:06Z</time>
<desc><![CDATA[lat.=36.783388, lon.=137.807187, Alt.=2341.781017m. Speed=1.000000m/h.]]></desc>
</trkpt>
<trkpt lat="36.783377" lon="137.807196">
<ele>2340.045525</ele>
<time>2014-08-19T02:22:11Z</time>
<desc><![CDATA[lat.=36.783377, lon.=137.807196, Alt.=2340.045525m. Speed=1.000000m/h.]]></desc>
</trkpt>
<trkpt lat="36.783369" lon="137.807227">
<ele>2339.557678</ele>
<time>2014-08-19T02:22:16Z</time>
<desc><![CDATA[lat.=36.783369, lon.=137.807227, Alt.=2339.557678m. Speed=2.000000m/h.]]></desc>
</trkpt>
<trkpt lat="36.783351" lon="137.807268">
<ele>2335.604258</ele>
<time>2014-08-19T02:22:21Z</time>
<desc><![CDATA[lat.=36.783351, lon.=137.807268, Alt.=2335.604258m. Speed=2.000000m/h.]]></desc>
</trkpt>
<trkpt lat="36.783354" lon="137.807292">
<ele>2335.121822</ele>
<time>2014-08-19T02:22:26Z</time>
<desc><![CDATA[lat.=36.783354, lon.=137.807292, Alt.=2335.121822m. Speed=2.000000m/h.]]></desc>
</trkpt>
<trkpt lat="36.783354" lon="137.807309">
<ele>2333.447213</ele>
<time>2014-08-19T02:22:31Z</time>
<desc><![CDATA[lat.=36.783354, lon.=137.807309, Alt.=2333.447213m. Speed=2.000000m/h.]]></desc>
</trkpt>
<trkpt lat="36.783339" lon="137.807340">
<ele>2332.360580</ele>
<time>2014-08-19T02:22:36Z</time>
<desc><![CDATA[lat.=36.783339, lon.=137.807340, Alt.=2332.360580m. Speed=2.000000m/h.]]></desc>
</trkpt>
<trkpt lat="36.783353" lon="137.807373">
<ele>2331.939029</ele>
<time>2014-08-19T02:22:41Z</time>
<desc><![CDATA[lat.=36.783353, lon.=137.807373, Alt.=2331.939029m. Speed=2.000000m/h.]]></desc>
</trkpt>
<trkpt lat="36.783335" lon="137.807396">
<ele>2331.390307</ele>
<time>2014-08-19T02:22:46Z</time>
<desc><![CDATA[lat.=36.783335, lon.=137.807396, Alt.=2331.390307m. Speed=2.000000m/h.]]></desc>
</trkpt>
<trkpt lat="36.783349" lon="137.807428">
<ele>2330.968758</ele>
<time>2014-08-19T02:22:51Z</time>
<desc><![CDATA[lat.=36.783349, lon.=137.807428, Alt.=2330.968758m. Speed=2.000000m/h.]]></desc>
</trkpt>
<trkpt lat="36.783377" lon="137.807443">
<ele>2335.149481</ele>
<time>2014-08-19T02:22:56Z</time>
<desc><![CDATA[lat.=36.783377, lon.=137.807443, Alt.=2335.149481m. Speed=0.000000m/h.]]></desc>
</trkpt>
<trkpt lat="36.783369" lon="137.807459">
<ele>2334.606167</ele>
<time>2014-08-19T02:23:01Z</time>
<desc><![CDATA[lat.=36.783369, lon.=137.807459, Alt.=2334.606167m. Speed=0.000000m/h.]]></desc>
</trkpt>
<trkpt lat="36.783372" lon="137.807467">
<ele>2335.798343</ele>
<time>2014-08-19T02:23:06Z</time>
<desc><![CDATA[lat.=36.783372, lon.=137.807467, Alt.=2335.798343m. Speed=0.000000m/h.]]></desc>
</trkpt>
<trkpt lat="36.783380" lon="137.807467">
<ele>2336.397134</ele>
<time>2014-08-19T02:23:11Z</time>
<desc><![CDATA[lat.=36.783380, lon.=137.807467, Alt.=2336.397134m. Speed=0.000000m/h.]]></desc>
</trkpt>
<trkpt lat="36.783376" lon="137.807475">
<ele>2335.260435</ele>
<time>2014-08-19T02:23:18Z</time>
<desc><![CDATA[lat.=36.783376, lon.=137.807475, Alt.=2335.260435m. Speed=0.000000m/h.]]></desc>
</trkpt>
<trkpt lat="36.783362" lon="137.807476">
<ele>2332.332770</ele>
<time>2014-08-19T02:23:23Z</time>
<desc><![CDATA[lat.=36.783362, lon.=137.807476, Alt.=2332.332770m. Speed=1.000000m/h.]]></desc>
</trkpt>
<trkpt lat="36.783336" lon="137.807517">
<ele>2327.780573</ele>
<time>2014-08-19T02:23:28Z</time>
<desc><![CDATA[lat.=36.783336, lon.=137.807517, Alt.=2327.780573m. Speed=2.000000m/h.]]></desc>
</trkpt>
<trkpt lat="36.783314" lon="137.807532">
<ele>2326.039679</ele>
<time>2014-08-19T02:23:33Z</time>
<desc><![CDATA[lat.=36.783314, lon.=137.807532, Alt.=2326.039679m. Speed=2.000000m/h.]]></desc>
</trkpt>
<trkpt lat="36.783317" lon="137.807572">
<ele>2325.612731</ele>
<time>2014-08-19T02:23:38Z</time>
<desc><![CDATA[lat.=36.783317, lon.=137.807572, Alt.=2325.612731m. Speed=2.000000m/h.]]></desc>
</trkpt>
<trkpt lat="36.783321" lon="137.807581">
<ele>2325.074824</ele>
<time>2014-08-19T02:23:43Z</time>
<desc><![CDATA[lat.=36.783321, lon.=137.807581, Alt.=2325.074824m. Speed=2.000000m/h.]]></desc>
</trkpt>
<trkpt lat="36.783328" lon="137.807597">
<ele>2323.999012</ele>
<time>2014-08-19T02:23:48Z</time>
<desc><![CDATA[lat.=36.783328, lon.=137.807597, Alt.=2323.999012m. Speed=0.000000m/h.]]></desc>
</trkpt>
<trkpt lat="36.783331" lon="137.807621">
<ele>2323.516586</ele>
<time>2014-08-19T02:23:53Z</time>
<desc><![CDATA[lat.=36.783331, lon.=137.807621, Alt.=2323.516586m. Speed=1.000000m/h.]]></desc>
</trkpt>
<trkpt lat="36.783335" lon="137.807630">
<ele>2322.978680</ele>
<time>2014-08-19T02:23:58Z</time>
<desc><![CDATA[lat.=36.783335, lon.=137.807630, Alt.=2322.978680m. Speed=0.000000m/h.]]></desc>
</trkpt>
<trkpt lat="36.783327" lon="137.807645">
<ele>2322.435370</ele>
<time>2014-08-19T02:24:03Z</time>
<desc><![CDATA[lat.=36.783327, lon.=137.807645, Alt.=2322.435370m. Speed=0.000000m/h.]]></desc>
</trkpt>
<trkpt lat="36.783320" lon="137.807645">
<ele>2321.836579</ele>
<time>2014-08-19T02:24:08Z</time>
<desc><![CDATA[lat.=36.783320, lon.=137.807645, Alt.=2321.836579m. Speed=0.000000m/h.]]></desc>
</trkpt>
<trkpt lat="36.783320" lon="137.807661">
<ele>2321.892060</ele>
<time>2014-08-19T02:24:13Z</time>
<desc><![CDATA[lat.=36.783320, lon.=137.807661, Alt.=2321.892060m. Speed=0.000000m/h.]]></desc>
</trkpt>
<trkpt lat="36.783327" lon="137.807678">
<ele>2320.816249</ele>
<time>2014-08-19T02:24:18Z</time>
<desc><![CDATA[lat.=36.783327, lon.=137.807678, Alt.=2320.816249m. Speed=1.000000m/h.]]></desc>
</trkpt>
<trkpt lat="36.783327" lon="137.807694">
<ele>2319.141648</ele>
<time>2014-08-19T02:24:23Z</time>
<desc><![CDATA[lat.=36.783327, lon.=137.807694, Alt.=2319.141648m. Speed=1.000000m/h.]]></desc>
</trkpt>
<trkpt lat="36.783323" lon="137.807718">
<ele>2319.790517</ele>
<time>2014-08-19T02:24:28Z</time>
<desc><![CDATA[lat.=36.783323, lon.=137.807718, Alt.=2319.790517m. Speed=0.000000m/h.]]></desc>
</trkpt>
<trkpt lat="36.783319" lon="137.807727">
<ele>2316.923739</ele>
<time>2014-08-19T02:24:33Z</time>
<desc><![CDATA[lat.=36.783319, lon.=137.807727, Alt.=2316.923739m. Speed=0.000000m/h.]]></desc>
</trkpt>
<trkpt lat="36.783308" lon="137.807767">
<ele>2315.299219</ele>
<time>2014-08-19T02:24:38Z</time>
<desc><![CDATA[lat.=36.783308, lon.=137.807767, Alt.=2315.299219m. Speed=2.000000m/h.]]></desc>
</trkpt>
<trkpt lat="36.783304" lon="137.807775">
<ele>2314.162525</ele>
<time>2014-08-19T02:24:43Z</time>
<desc><![CDATA[lat.=36.783304, lon.=137.807775, Alt.=2314.162525m. Speed=1.000000m/h.]]></desc>
</trkpt>
<trkpt lat="36.783301" lon="137.807783">
<ele>2313.025830</ele>
<time>2014-08-19T02:24:48Z</time>
<desc><![CDATA[lat.=36.783301, lon.=137.807783, Alt.=2313.025830m. Speed=0.000000m/h.]]></desc>
</trkpt>
<trkpt lat="36.783301" lon="137.807800">
<ele>2311.351231</ele>
<time>2014-08-19T02:24:53Z</time>
<desc><![CDATA[lat.=36.783301, lon.=137.807800, Alt.=2311.351231m. Speed=1.000000m/h.]]></desc>
</trkpt>
<trkpt lat="36.783286" lon="137.807815">
<ele>2311.939217</ele>
<time>2014-08-19T02:24:58Z</time>
<desc><![CDATA[lat.=36.783286, lon.=137.807815, Alt.=2311.939217m. Speed=1.000000m/h.]]></desc>
</trkpt>
<trkpt lat="36.783274" lon="137.807823">
<ele>2311.933816</ele>
<time>2014-08-19T02:25:03Z</time>
<desc><![CDATA[lat.=36.783274, lon.=137.807823, Alt.=2311.933816m. Speed=0.000000m/h.]]></desc>
</trkpt>
<trkpt lat="36.783281" lon="137.807838">
<ele>2312.588090</ele>
<time>2014-08-19T02:25:08Z</time>
<desc><![CDATA[lat.=36.783281, lon.=137.807838, Alt.=2312.588090m. Speed=0.000000m/h.]]></desc>
</trkpt>
<trkpt lat="36.783274" lon="137.807854">
<ele>2312.044785</ele>
<time>2014-08-19T02:25:13Z</time>
<desc><![CDATA[lat.=36.783274, lon.=137.807854, Alt.=2312.044785m. Speed=1.000000m/h.]]></desc>
</trkpt>
<trkpt lat="36.783276" lon="137.807878">
<ele>2313.292449</ele>
<time>2014-08-19T02:25:18Z</time>
<desc><![CDATA[lat.=36.783276, lon.=137.807878, Alt.=2313.292449m. Speed=0.000000m/h.]]></desc>
</trkpt>
<trkpt lat="36.783280" lon="137.807886">
<ele>2312.754545</ele>
<time>2014-08-19T02:25:23Z</time>
<desc><![CDATA[lat.=36.783280, lon.=137.807886, Alt.=2312.754545m. Speed=0.000000m/h.]]></desc>
</trkpt>
<trkpt lat="36.783280" lon="137.807902">
<ele>2312.810031</ele>
<time>2014-08-19T02:25:28Z</time>
<desc><![CDATA[lat.=36.783280, lon.=137.807902, Alt.=2312.810031m. Speed=0.000000m/h.]]></desc>
</trkpt>
<trkpt lat="36.783269" lon="137.807910">
<ele>2311.074548</ele>
<time>2014-08-19T02:25:33Z</time>
<desc><![CDATA[lat.=36.783269, lon.=137.807910, Alt.=2311.074548m. Speed=0.000000m/h.]]></desc>
</trkpt>
<trkpt lat="36.783272" lon="137.807918">
<ele>2310.536645</ele>
<time>2014-08-19T02:25:38Z</time>
<desc><![CDATA[lat.=36.783272, lon.=137.807918, Alt.=2310.536645m. Speed=0.000000m/h.]]></desc>
</trkpt>
<trkpt lat="36.783258" lon="137.807934">
<ele>2309.394552</ele>
<time>2014-08-19T02:25:43Z</time>
<desc><![CDATA[lat.=36.783258, lon.=137.807934, Alt.=2309.394552m. Speed=2.000000m/h.]]></desc>
</trkpt>
<trkpt lat="36.783250" lon="137.807967">
<ele>2307.176653</ele>
<time>2014-08-19T02:25:48Z</time>
<desc><![CDATA[lat.=36.783250, lon.=137.807967, Alt.=2307.176653m. Speed=2.000000m/h.]]></desc>
</trkpt>
<trkpt lat="36.783246" lon="137.808006">
<ele>2306.150936</ele>
<time>2014-08-19T02:25:53Z</time>
<desc><![CDATA[lat.=36.783246, lon.=137.808006, Alt.=2306.150936m. Speed=2.000000m/h.]]></desc>
</trkpt>
<trkpt lat="36.783245" lon="137.808039">
<ele>2304.531831</ele>
<time>2014-08-19T02:25:58Z</time>
<desc><![CDATA[lat.=36.783245, lon.=137.808039, Alt.=2304.531831m. Speed=0.000000m/h.]]></desc>
</trkpt>
<trkpt lat="36.783260" lon="137.808055">
<ele>2304.054816</ele>
<time>2014-08-19T02:26:03Z</time>
<desc><![CDATA[lat.=36.783260, lon.=137.808055, Alt.=2304.054816m. Speed=1.000000m/h.]]></desc>
</trkpt>
<trkpt lat="36.783249" lon="137.808064">
<ele>2302.319335</ele>
<time>2014-08-19T02:26:08Z</time>
<desc><![CDATA[lat.=36.783249, lon.=137.808064, Alt.=2302.319335m. Speed=0.000000m/h.]]></desc>
</trkpt>
<trkpt lat="36.783249" lon="137.808080">
<ele>2302.374824</ele>
<time>2014-08-19T02:26:13Z</time>
<desc><![CDATA[lat.=36.783249, lon.=137.808080, Alt.=2302.374824m. Speed=0.000000m/h.]]></desc>
</trkpt>
<trkpt lat="36.783242" lon="137.808080">
<ele>2301.776035</ele>
<time>2014-08-19T02:26:18Z</time>
<desc><![CDATA[lat.=36.783242, lon.=137.808080, Alt.=2301.776035m. Speed=0.000000m/h.]]></desc>
</trkpt>
<trkpt lat="36.783234" lon="137.808080">
<ele>2301.177246</ele>
<time>2014-08-19T02:26:23Z</time>
<desc><![CDATA[lat.=36.783234, lon.=137.808080, Alt.=2301.177246m. Speed=0.000000m/h.]]></desc>
</trkpt>
<trkpt lat="36.783230" lon="137.808104">
<ele>2300.096044</ele>
<time>2014-08-19T02:26:28Z</time>
<desc><![CDATA[lat.=36.783230, lon.=137.808104, Alt.=2300.096044m. Speed=1.000000m/h.]]></desc>
</trkpt>
<trkpt lat="36.783237" lon="137.808120">
<ele>2300.750324</ele>
<time>2014-08-19T02:26:33Z</time>
<desc><![CDATA[lat.=36.783237, lon.=137.808120, Alt.=2300.750324m. Speed=0.000000m/h.]]></desc>
</trkpt>
<trkpt lat="36.783233" lon="137.808159">
<ele>2299.724614</ele>
<time>2014-08-19T02:26:38Z</time>
<desc><![CDATA[lat.=36.783233, lon.=137.808159, Alt.=2299.724614m. Speed=2.000000m/h.]]></desc>
</trkpt>
<trkpt lat="36.783225" lon="137.808175">
<ele>2299.181316</ele>
<time>2014-08-19T02:26:43Z</time>
<desc><![CDATA[lat.=36.783225, lon.=137.808175, Alt.=2299.181316m. Speed=2.000000m/h.]]></desc>
</trkpt>
<trkpt lat="36.783232" lon="137.808208">
<ele>2298.161006</ele>
<time>2014-08-19T02:26:48Z</time>
<desc><![CDATA[lat.=36.783232, lon.=137.808208, Alt.=2298.161006m. Speed=2.000000m/h.]]></desc>
</trkpt>
<trkpt lat="36.783231" lon="137.808223">
<ele>2299.946580</ele>
<time>2014-08-19T02:26:53Z</time>
<desc><![CDATA[lat.=36.783231, lon.=137.808223, Alt.=2299.946580m. Speed=1.000000m/h.]]></desc>
</trkpt>
<trkpt lat="36.783217" lon="137.808255">
<ele>2297.129905</ele>
<time>2014-08-19T02:26:58Z</time>
<desc><![CDATA[lat.=36.783217, lon.=137.808255, Alt.=2297.129905m. Speed=2.000000m/h.]]></desc>
</trkpt>
<trkpt lat="36.783191" lon="137.808295">
<ele>2294.307836</ele>
<time>2014-08-19T02:27:03Z</time>
<desc><![CDATA[lat.=36.783191, lon.=137.808295, Alt.=2294.307836m. Speed=3.000000m/h.]]></desc>
</trkpt>
<trkpt lat="36.783165" lon="137.808318">
<ele>2293.160359</ele>
<time>2014-08-19T02:27:08Z</time>
<desc><![CDATA[lat.=36.783165, lon.=137.808318, Alt.=2293.160359m. Speed=3.000000m/h.]]></desc>
</trkpt>
<trkpt lat="36.783157" lon="137.808350">
<ele>2292.672559</ele>
<time>2014-08-19T02:27:13Z</time>
<desc><![CDATA[lat.=36.783157, lon.=137.808350, Alt.=2292.672559m. Speed=3.000000m/h.]]></desc>
</trkpt>
<trkpt lat="36.783153" lon="137.808358">
<ele>2291.535872</ele>
<time>2014-08-19T02:27:18Z</time>
<desc><![CDATA[lat.=36.783153, lon.=137.808358, Alt.=2291.535872m. Speed=2.000000m/h.]]></desc>
</trkpt>
<trkpt lat="36.783168" lon="137.808392">
<ele>2289.384275</ele>
<time>2014-08-19T02:27:23Z</time>
<desc><![CDATA[lat.=36.783168, lon.=137.808392, Alt.=2289.384275m. Speed=2.000000m/h.]]></desc>
</trkpt>
<trkpt lat="36.783167" lon="137.808424">
<ele>2287.765184</ele>
<time>2014-08-19T02:27:28Z</time>
<desc><![CDATA[lat.=36.783167, lon.=137.808424, Alt.=2287.765184m. Speed=2.000000m/h.]]></desc>
</trkpt>
<trkpt lat="36.783170" lon="137.808480">
<ele>2287.393776</ele>
<time>2014-08-19T02:27:33Z</time>
<desc><![CDATA[lat.=36.783170, lon.=137.808480, Alt.=2287.393776m. Speed=2.000000m/h.]]></desc>
</trkpt>
<trkpt lat="36.783165" lon="137.808520">
<ele>2286.368085</ele>
<time>2014-08-19T02:27:38Z</time>
<desc><![CDATA[lat.=36.783165, lon.=137.808520, Alt.=2286.368085m. Speed=2.000000m/h.]]></desc>
</trkpt>
<trkpt lat="36.783161" lon="137.808544">
<ele>2285.286898</ele>
<time>2014-08-19T02:27:43Z</time>
<desc><![CDATA[lat.=36.783161, lon.=137.808544, Alt.=2285.286898m. Speed=2.000000m/h.]]></desc>
</trkpt>
<trkpt lat="36.783176" lon="137.808561">
<ele>2283.079810</ele>
<time>2014-08-19T02:27:48Z</time>
<desc><![CDATA[lat.=36.783176, lon.=137.808561, Alt.=2283.079810m. Speed=2.000000m/h.]]></desc>
</trkpt>
<trkpt lat="36.783187" lon="137.808585">
<ele>2283.196200</ele>
<time>2014-08-19T02:27:53Z</time>
<desc><![CDATA[lat.=36.783187, lon.=137.808585, Alt.=2283.196200m. Speed=2.000000m/h.]]></desc>
</trkpt>
<trkpt lat="36.783190" lon="137.808626">
<ele>2281.039222</ele>
<time>2014-08-19T02:27:58Z</time>
<desc><![CDATA[lat.=36.783190, lon.=137.808626, Alt.=2281.039222m. Speed=2.000000m/h.]]></desc>
</trkpt>
<trkpt lat="36.783200" lon="137.808666">
<ele>2281.211115</ele>
<time>2014-08-19T02:28:03Z</time>
<desc><![CDATA[lat.=36.783200, lon.=137.808666, Alt.=2281.211115m. Speed=2.000000m/h.]]></desc>
</trkpt>
<trkpt lat="36.783210" lon="137.808689">
<ele>2283.057591</ele>
<time>2014-08-19T02:28:08Z</time>
<desc><![CDATA[lat.=36.783210, lon.=137.808689, Alt.=2283.057591m. Speed=2.000000m/h.]]></desc>
</trkpt>
<trkpt lat="36.783191" lon="137.808729">
<ele>2280.834333</ele>
<time>2014-08-19T02:28:13Z</time>
<desc><![CDATA[lat.=36.783191, lon.=137.808729, Alt.=2280.834333m. Speed=2.000000m/h.]]></desc>
</trkpt>
<trkpt lat="36.783184" lon="137.808745">
<ele>2280.291047</ele>
<time>2014-08-19T02:28:18Z</time>
<desc><![CDATA[lat.=36.783184, lon.=137.808745, Alt.=2280.291047m. Speed=2.000000m/h.]]></desc>
</trkpt>
<trkpt lat="36.783169" lon="137.808793">
<ele>2277.529897</ele>
<time>2014-08-19T02:28:23Z</time>
<desc><![CDATA[lat.=36.783169, lon.=137.808793, Alt.=2277.529897m. Speed=2.000000m/h.]]></desc>
</trkpt>
<trkpt lat="36.783168" lon="137.808825">
<ele>2277.640905</ele>
<time>2014-08-19T02:28:28Z</time>
<desc><![CDATA[lat.=36.783168, lon.=137.808825, Alt.=2277.640905m. Speed=2.000000m/h.]]></desc>
</trkpt>
<trkpt lat="36.783164" lon="137.808865">
<ele>2276.615231</ele>
<time>2014-08-19T02:28:33Z</time>
<desc><![CDATA[lat.=36.783164, lon.=137.808865, Alt.=2276.615231m. Speed=2.000000m/h.]]></desc>
</trkpt>
<trkpt lat="36.783164" lon="137.808881">
<ele>2274.940655</ele>
<time>2014-08-19T02:28:38Z</time>
<desc><![CDATA[lat.=36.783164, lon.=137.808881, Alt.=2274.940655m. Speed=1.000000m/h.]]></desc>
</trkpt>
<trkpt lat="36.783177" lon="137.808930">
<ele>2274.574667</ele>
<time>2014-08-19T02:28:43Z</time>
<desc><![CDATA[lat.=36.783177, lon.=137.808930, Alt.=2274.574667m. Speed=2.000000m/h.]]></desc>
</trkpt>
<trkpt lat="36.783169" lon="137.808961">
<ele>2274.086892</ele>
<time>2014-08-19T02:28:48Z</time>
<desc><![CDATA[lat.=36.783169, lon.=137.808961, Alt.=2274.086892m. Speed=2.000000m/h.]]></desc>
</trkpt>
<trkpt lat="36.783146" lon="137.809008">
<ele>2274.187131</ele>
<time>2014-08-19T02:28:53Z</time>
<desc><![CDATA[lat.=36.783146, lon.=137.809008, Alt.=2274.187131m. Speed=3.000000m/h.]]></desc>
</trkpt>
<trkpt lat="36.783157" lon="137.809033">
<ele>2272.573453</ele>
<time>2014-08-19T02:28:58Z</time>
<desc><![CDATA[lat.=36.783157, lon.=137.809033, Alt.=2272.573453m. Speed=2.000000m/h.]]></desc>
</trkpt>
<trkpt lat="36.783164" lon="137.809049">
<ele>2271.497668</ele>
<time>2014-08-19T02:29:03Z</time>
<desc><![CDATA[lat.=36.783164, lon.=137.809049, Alt.=2271.497668m. Speed=2.000000m/h.]]></desc>
</trkpt>
<trkpt lat="36.783168" lon="137.809090">
<ele>2269.340713</ele>
<time>2014-08-19T02:29:08Z</time>
<desc><![CDATA[lat.=36.783168, lon.=137.809090, Alt.=2269.340713m. Speed=2.000000m/h.]]></desc>
</trkpt>
<trkpt lat="36.783164" lon="137.809131">
<ele>2266.584971</ele>
<time>2014-08-19T02:29:13Z</time>
<desc><![CDATA[lat.=36.783164, lon.=137.809131, Alt.=2266.584971m. Speed=2.000000m/h.]]></desc>
</trkpt>
<trkpt lat="36.783152" lon="137.809154">
<ele>2266.635095</ele>
<time>2014-08-19T02:29:18Z</time>
<desc><![CDATA[lat.=36.783152, lon.=137.809154, Alt.=2266.635095m. Speed=2.000000m/h.]]></desc>
</trkpt>
<trkpt lat="36.783130" lon="137.809169">
<ele>2266.624323</ele>
<time>2014-08-19T02:29:23Z</time>
<desc><![CDATA[lat.=36.783130, lon.=137.809169, Alt.=2266.624323m. Speed=2.000000m/h.]]></desc>
</trkpt>
<trkpt lat="36.783082" lon="137.809176">
<ele>2265.355082</ele>
<time>2014-08-19T02:29:28Z</time>
<desc><![CDATA[lat.=36.783082, lon.=137.809176, Alt.=2265.355082m. Speed=3.000000m/h.]]></desc>
</trkpt>
<trkpt lat="36.783070" lon="137.809199">
<ele>2265.405209</ele>
<time>2014-08-19T02:29:33Z</time>
<desc><![CDATA[lat.=36.783070, lon.=137.809199, Alt.=2265.405209m. Speed=3.000000m/h.]]></desc>
</trkpt>
<trkpt lat="36.783044" lon="137.809238">
<ele>2264.313276</ele>
<time>2014-08-19T02:29:38Z</time>
<desc><![CDATA[lat.=36.783044, lon.=137.809238, Alt.=2264.313276m. Speed=3.000000m/h.]]></desc>
</trkpt>
<trkpt lat="36.783029" lon="137.809270">
<ele>2263.226728</ele>
<time>2014-08-19T02:29:43Z</time>
<desc><![CDATA[lat.=36.783029, lon.=137.809270, Alt.=2263.226728m. Speed=3.000000m/h.]]></desc>
</trkpt>
<trkpt lat="36.783003" lon="137.809293">
<ele>2262.079287</ele>
<time>2014-08-19T02:29:48Z</time>
<desc><![CDATA[lat.=36.783003, lon.=137.809293, Alt.=2262.079287m. Speed=3.000000m/h.]]></desc>
</trkpt>
<trkpt lat="36.782994" lon="137.809341">
<ele>2261.647043</ele>
<time>2014-08-19T02:29:53Z</time>
<desc><![CDATA[lat.=36.782994, lon.=137.809341, Alt.=2261.647043m. Speed=3.000000m/h.]]></desc>
</trkpt>
<trkpt lat="36.783005" lon="137.809366">
<ele>2260.033372</ele>
<time>2014-08-19T02:29:58Z</time>
<desc><![CDATA[lat.=36.783005, lon.=137.809366, Alt.=2260.033372m. Speed=2.000000m/h.]]></desc>
</trkpt>
<trkpt lat="36.783013" lon="137.809382">
<ele>2258.957592</ele>
<time>2014-08-19T02:30:03Z</time>
<desc><![CDATA[lat.=36.783013, lon.=137.809382, Alt.=2258.957592m. Speed=2.000000m/h.]]></desc>
</trkpt>
<trkpt lat="36.783053" lon="137.809376">
<ele>2259.628038</ele>
<time>2014-08-19T02:30:08Z</time>
<desc><![CDATA[lat.=36.783053, lon.=137.809376, Alt.=2259.628038m. Speed=3.000000m/h.]]></desc>
</trkpt>
<trkpt lat="36.783063" lon="137.809400">
<ele>2259.744451</ele>
<time>2014-08-19T02:30:13Z</time>
<desc><![CDATA[lat.=36.783063, lon.=137.809400, Alt.=2259.744451m. Speed=2.000000m/h.]]></desc>
</trkpt>
<trkpt lat="36.783070" lon="137.809432">
<ele>2258.724189</ele>
<time>2014-08-19T02:30:18Z</time>
<desc><![CDATA[lat.=36.783070, lon.=137.809432, Alt.=2258.724189m. Speed=2.000000m/h.]]></desc>
</trkpt>
<trkpt lat="36.783074" lon="137.809457">
<ele>2256.511735</ele>
<time>2014-08-19T02:30:23Z</time>
<desc><![CDATA[lat.=36.783074, lon.=137.809457, Alt.=2256.511735m. Speed=2.000000m/h.]]></desc>
</trkpt>
<trkpt lat="36.783080" lon="137.809489">
<ele>2257.221556</ele>
<time>2014-08-19T02:30:28Z</time>
<desc><![CDATA[lat.=36.783080, lon.=137.809489, Alt.=2257.221556m. Speed=2.000000m/h.]]></desc>
</trkpt>
<trkpt lat="36.783095" lon="137.809521">
<ele>2256.800085</ele>
<time>2014-08-19T02:30:33Z</time>
<desc><![CDATA[lat.=36.783095, lon.=137.809521, Alt.=2256.800085m. Speed=2.000000m/h.]]></desc>
</trkpt>
<trkpt lat="36.783104" lon="137.809577">
<ele>2257.027540</ele>
<time>2014-08-19T02:30:38Z</time>
<desc><![CDATA[lat.=36.783104, lon.=137.809577, Alt.=2257.027540m. Speed=2.000000m/h.]]></desc>
</trkpt>
<trkpt lat="36.783122" lon="137.809617">
<ele>2257.798267</ele>
<time>2014-08-19T02:30:43Z</time>
<desc><![CDATA[lat.=36.783122, lon.=137.809617, Alt.=2257.798267m. Speed=2.000000m/h.]]></desc>
</trkpt>
<trkpt lat="36.783129" lon="137.809633">
<ele>2256.722494</ele>
<time>2014-08-19T02:30:48Z</time>
<desc><![CDATA[lat.=36.783129, lon.=137.809633, Alt.=2256.722494m. Speed=1.000000m/h.]]></desc>
</trkpt>
<trkpt lat="36.783147" lon="137.809658">
<ele>2255.707623</ele>
<time>2014-08-19T02:30:53Z</time>
<desc><![CDATA[lat.=36.783147, lon.=137.809658, Alt.=2255.707623m. Speed=2.000000m/h.]]></desc>
</trkpt>
<trkpt lat="36.783150" lon="137.809699">
<ele>2253.550699</ele>
<time>2014-08-19T02:30:58Z</time>
<desc><![CDATA[lat.=36.783150, lon.=137.809699, Alt.=2253.550699m. Speed=2.000000m/h.]]></desc>
</trkpt>
<trkpt lat="36.783175" lon="137.809740">
<ele>2253.190141</ele>
<time>2014-08-19T02:31:03Z</time>
<desc><![CDATA[lat.=36.783175, lon.=137.809740, Alt.=2253.190141m. Speed=2.000000m/h.]]></desc>
</trkpt>
<trkpt lat="36.783193" lon="137.809765">
<ele>2252.175275</ele>
<time>2014-08-19T02:31:08Z</time>
<desc><![CDATA[lat.=36.783193, lon.=137.809765, Alt.=2252.175275m. Speed=2.000000m/h.]]></desc>
</trkpt>
<trkpt lat="36.783200" lon="137.809797">
<ele>2251.155029</ele>
<time>2014-08-19T02:31:13Z</time>
<desc><![CDATA[lat.=36.783200, lon.=137.809797, Alt.=2251.155029m. Speed=2.000000m/h.]]></desc>
</trkpt>
<trkpt lat="36.783189" lon="137.809821">
<ele>2249.475091</ele>
<time>2014-08-19T02:31:18Z</time>
<desc><![CDATA[lat.=36.783189, lon.=137.809821, Alt.=2249.475091m. Speed=2.000000m/h.]]></desc>
</trkpt>
<trkpt lat="36.783188" lon="137.809837">
<ele>2249.530615</ele>
<time>2014-08-19T02:31:23Z</time>
<desc><![CDATA[lat.=36.783188, lon.=137.809837, Alt.=2249.530615m. Speed=0.000000m/h.]]></desc>
</trkpt>
<trkpt lat="36.783181" lon="137.809837">
<ele>2248.931827</ele>
<time>2014-08-19T02:31:28Z</time>
<desc><![CDATA[lat.=36.783181, lon.=137.809837, Alt.=2248.931827m. Speed=0.000000m/h.]]></desc>
</trkpt>
<trkpt lat="36.783170" lon="137.809844">
<ele>2248.926447</ele>
<time>2014-08-19T02:31:33Z</time>
<desc><![CDATA[lat.=36.783170, lon.=137.809844, Alt.=2248.926447m. Speed=1.000000m/h.]]></desc>
</trkpt>
<trkpt lat="36.783159" lon="137.809852">
<ele>2248.921067</ele>
<time>2014-08-19T02:31:38Z</time>
<desc><![CDATA[lat.=36.783159, lon.=137.809852, Alt.=2248.921067m. Speed=1.000000m/h.]]></desc>
</trkpt>
<trkpt lat="36.783129" lon="137.809867">
<ele>2248.311520</ele>
<time>2014-08-19T02:31:43Z</time>
<desc><![CDATA[lat.=36.783129, lon.=137.809867, Alt.=2248.311520m. Speed=1.000000m/h.]]></desc>
</trkpt>
<trkpt lat="36.783106" lon="137.809898">
<ele>2248.356287</ele>
<time>2014-08-19T02:31:48Z</time>
<desc><![CDATA[lat.=36.783106, lon.=137.809898, Alt.=2248.356287m. Speed=2.000000m/h.]]></desc>
</trkpt>
<trkpt lat="36.783094" lon="137.809954">
<ele>2246.787407</ele>
<time>2014-08-19T02:31:53Z</time>
<desc><![CDATA[lat.=36.783094, lon.=137.809954, Alt.=2246.787407m. Speed=3.000000m/h.]]></desc>
</trkpt>
<trkpt lat="36.783123" lon="137.810003">
<ele>2245.888977</ele>
<time>2014-08-19T02:31:58Z</time>
<desc><![CDATA[lat.=36.783123, lon.=137.810003, Alt.=2245.888977m. Speed=3.000000m/h.]]></desc>
</trkpt>
<trkpt lat="36.783138" lon="137.810036">
<ele>2243.737447</ele>
<time>2014-08-19T02:32:03Z</time>
<desc><![CDATA[lat.=36.783138, lon.=137.810036, Alt.=2243.737447m. Speed=3.000000m/h.]]></desc>
</trkpt>
<trkpt lat="36.783140" lon="137.810075">
<ele>2245.040702</ele>
<time>2014-08-19T02:32:08Z</time>
<desc><![CDATA[lat.=36.783140, lon.=137.810075, Alt.=2245.040702m. Speed=2.000000m/h.]]></desc>
</trkpt>
<trkpt lat="36.783114" lon="137.810098">
<ele>2245.623359</ele>
<time>2014-08-19T02:32:13Z</time>
<desc><![CDATA[lat.=36.783114, lon.=137.810098, Alt.=2245.623359m. Speed=3.000000m/h.]]></desc>
</trkpt>
<trkpt lat="36.783102" lon="137.810137">
<ele>2243.998962</ele>
<time>2014-08-19T02:32:18Z</time>
<desc><![CDATA[lat.=36.783102, lon.=137.810137, Alt.=2243.998962m. Speed=3.000000m/h.]]></desc>
</trkpt>
<trkpt lat="36.783098" lon="137.810177">
<ele>2242.973354</ele>
<time>2014-08-19T02:32:23Z</time>
<desc><![CDATA[lat.=36.783098, lon.=137.810177, Alt.=2242.973354m. Speed=3.000000m/h.]]></desc>
</trkpt>
<trkpt lat="36.783089" lon="137.810241">
<ele>2242.596693</ele>
<time>2014-08-19T02:32:28Z</time>
<desc><![CDATA[lat.=36.783089, lon.=137.810241, Alt.=2242.596693m. Speed=4.000000m/h.]]></desc>
</trkpt>
<trkpt lat="36.783077" lon="137.810296">
<ele>2242.757917</ele>
<time>2014-08-19T02:32:33Z</time>
<desc><![CDATA[lat.=36.783077, lon.=137.810296, Alt.=2242.757917m. Speed=4.000000m/h.]]></desc>
</trkpt>
<trkpt lat="36.783083" lon="137.810343">
<ele>2243.523305</ele>
<time>2014-08-19T02:32:38Z</time>
<desc><![CDATA[lat.=36.783083, lon.=137.810343, Alt.=2243.523305m. Speed=3.000000m/h.]]></desc>
</trkpt>
<trkpt lat="36.783070" lon="137.810398">
<ele>2243.684536</ele>
<time>2014-08-19T02:32:43Z</time>
<desc><![CDATA[lat.=36.783070, lon.=137.810398, Alt.=2243.684536m. Speed=3.000000m/h.]]></desc>
</trkpt>
<trkpt lat="36.783076" lon="137.810446">
<ele>2244.449930</ele>
<time>2014-08-19T02:32:48Z</time>
<desc><![CDATA[lat.=36.783076, lon.=137.810446, Alt.=2244.449930m. Speed=3.000000m/h.]]></desc>
</trkpt>
<trkpt lat="36.783068" lon="137.810493">
<ele>2244.017753</ele>
<time>2014-08-19T02:32:53Z</time>
<desc><![CDATA[lat.=36.783068, lon.=137.810493, Alt.=2244.017753m. Speed=3.000000m/h.]]></desc>
</trkpt>
<trkpt lat="36.783069" lon="137.810494">
<ele>2242.287673</ele>
<time>2014-08-19T02:32:58Z</time>
<desc><![CDATA[lat.=36.783069, lon.=137.810494, Alt.=2242.287673m. Speed=2.000000m/h.]]></desc>
</trkpt>
<trkpt lat="36.783073" lon="137.810486">
<ele>2241.694258</ele>
<time>2014-08-19T02:33:03Z</time>
<desc><![CDATA[lat.=36.783073, lon.=137.810486, Alt.=2241.694258m. Speed=0.000000m/h.]]></desc>
</trkpt>
<trkpt lat="36.783069" lon="137.810479">
<ele>2240.502056</ele>
<time>2014-08-19T02:33:08Z</time>
<desc><![CDATA[lat.=36.783069, lon.=137.810479, Alt.=2240.502056m. Speed=0.000000m/h.]]></desc>
</trkpt>
<trkpt lat="36.783050" lon="137.810534">
<ele>2240.064510</ele>
<time>2014-08-19T02:33:13Z</time>
<desc><![CDATA[lat.=36.783050, lon.=137.810534, Alt.=2240.064510m. Speed=3.000000m/h.]]></desc>
</trkpt>
<trkpt lat="36.783011" lon="137.810612">
<ele>2239.078352</ele>
<time>2014-08-19T02:33:18Z</time>
<desc><![CDATA[lat.=36.783011, lon.=137.810612, Alt.=2239.078352m. Speed=5.000000m/h.]]></desc>
</trkpt>
<trkpt lat="36.782962" lon="137.810665">
<ele>2239.705834</ele>
<time>2014-08-19T02:33:23Z</time>
<desc><![CDATA[lat.=36.782962, lon.=137.810665, Alt.=2239.705834m. Speed=5.000000m/h.]]></desc>
</trkpt>
<trkpt lat="36.782957" lon="137.810704">
<ele>2242.140414</ele>
<time>2014-08-19T02:33:28Z</time>
<desc><![CDATA[lat.=36.782957, lon.=137.810704, Alt.=2242.140414m. Speed=3.000000m/h.]]></desc>
</trkpt>
<trkpt lat="36.782964" lon="137.810720">
<ele>2242.794741</ele>
<time>2014-08-19T02:33:33Z</time>
<desc><![CDATA[lat.=36.782964, lon.=137.810720, Alt.=2242.794741m. Speed=0.000000m/h.]]></desc>
</trkpt>
<trkpt lat="36.782972" lon="137.810705">
<ele>2241.607905</ele>
<time>2014-08-19T02:33:38Z</time>
<desc><![CDATA[lat.=36.782972, lon.=137.810705, Alt.=2241.607905m. Speed=0.000000m/h.]]></desc>
</trkpt>
<trkpt lat="36.782976" lon="137.810697">
<ele>2241.014487</ele>
<time>2014-08-19T02:33:43Z</time>
<desc><![CDATA[lat.=36.782976, lon.=137.810697, Alt.=2241.014487m. Speed=0.000000m/h.]]></desc>
</trkpt>
<trkpt lat="36.782979" lon="137.810705">
<ele>2242.206691</ele>
<time>2014-08-19T02:33:48Z</time>
<desc><![CDATA[lat.=36.782979, lon.=137.810705, Alt.=2242.206691m. Speed=0.000000m/h.]]></desc>
</trkpt>
<trkpt lat="36.782957" lon="137.810704">
<ele>2242.140414</ele>
<time>2014-08-19T02:33:53Z</time>
<desc><![CDATA[lat.=36.782957, lon.=137.810704, Alt.=2242.140414m. Speed=2.000000m/h.]]></desc>
</trkpt>
<trkpt lat="36.782903" lon="137.810695">
<ele>2240.216876</ele>
<time>2014-08-19T02:33:58Z</time>
<desc><![CDATA[lat.=36.782903, lon.=137.810695, Alt.=2240.216876m. Speed=3.000000m/h.]]></desc>
</trkpt>
<trkpt lat="36.782847" lon="137.810701">
<ele>2240.078964</ele>
<time>2014-08-19T02:34:03Z</time>
<desc><![CDATA[lat.=36.782847, lon.=137.810701, Alt.=2240.078964m. Speed=4.000000m/h.]]></desc>
</trkpt>
<trkpt lat="36.782816" lon="137.810778">
<ele>2241.421701</ele>
<time>2014-08-19T02:34:08Z</time>
<desc><![CDATA[lat.=36.782816, lon.=137.810778, Alt.=2241.421701m. Speed=4.000000m/h.]]></desc>
</trkpt>
<trkpt lat="36.782819" lon="137.810802">
<ele>2240.939367</ele>
<time>2014-08-19T02:34:13Z</time>
<desc><![CDATA[lat.=36.782819, lon.=137.810802, Alt.=2240.939367m. Speed=3.000000m/h.]]></desc>
</trkpt>
<trkpt lat="36.782823" lon="137.810794">
<ele>2242.076027</ele>
<time>2014-08-19T02:34:18Z</time>
<desc><![CDATA[lat.=36.782823, lon.=137.810794, Alt.=2242.076027m. Speed=0.000000m/h.]]></desc>
</trkpt>
<trkpt lat="36.782796" lon="137.810817">
<ele>2242.658721</ele>
<time>2014-08-19T02:34:23Z</time>
<desc><![CDATA[lat.=36.782796, lon.=137.810817, Alt.=2242.658721m. Speed=0.000000m/h.]]></desc>
</trkpt>
<trkpt lat="36.782789" lon="137.810832">
<ele>2242.115482</ele>
<time>2014-08-19T02:34:28Z</time>
<desc><![CDATA[lat.=36.782789, lon.=137.810832, Alt.=2242.115482m. Speed=0.000000m/h.]]></desc>
</trkpt>
<trkpt lat="36.782781" lon="137.810832">
<ele>2241.516699</ele>
<time>2014-08-19T02:34:33Z</time>
<desc><![CDATA[lat.=36.782781, lon.=137.810832, Alt.=2241.516699m. Speed=0.000000m/h.]]></desc>
</trkpt>
<trkpt lat="36.782781" lon="137.810848">
<ele>2241.572243</ele>
<time>2014-08-19T02:34:40Z</time>
<desc><![CDATA[lat.=36.782781, lon.=137.810848, Alt.=2241.572243m. Speed=2.000000m/h.]]></desc>
</trkpt>
<trkpt lat="36.782765" lon="137.810927">
<ele>2240.652403</ele>
<time>2014-08-19T02:34:45Z</time>
<desc><![CDATA[lat.=36.782765, lon.=137.810927, Alt.=2240.652403m. Speed=4.000000m/h.]]></desc>
</trkpt>
<trkpt lat="36.782752" lon="137.810998">
<ele>2240.869229</ele>
<time>2014-08-19T02:34:50Z</time>
<desc><![CDATA[lat.=36.782752, lon.=137.810998, Alt.=2240.869229m. Speed=4.000000m/h.]]></desc>
</trkpt>
<trkpt lat="36.782754" lon="137.811069">
<ele>2242.283626</ele>
<time>2014-08-19T02:34:55Z</time>
<desc><![CDATA[lat.=36.782754, lon.=137.811069, Alt.=2242.283626m. Speed=4.000000m/h.]]></desc>
</trkpt>
<trkpt lat="36.782727" lon="137.811124">
<ele>2241.247350</ele>
<time>2014-08-19T02:35:00Z</time>
<desc><![CDATA[lat.=36.782727, lon.=137.811124, Alt.=2241.247350m. Speed=4.000000m/h.]]></desc>
</trkpt>
<trkpt lat="36.782715" lon="137.811147">
<ele>2241.297542</ele>
<time>2014-08-19T02:35:05Z</time>
<desc><![CDATA[lat.=36.782715, lon.=137.811147, Alt.=2241.297542m. Speed=3.000000m/h.]]></desc>
</trkpt>
<trkpt lat="36.782712" lon="137.811140">
<ele>2240.105336</ele>
<time>2014-08-19T02:35:10Z</time>
<desc><![CDATA[lat.=36.782712, lon.=137.811140, Alt.=2240.105336m. Speed=0.000000m/h.]]></desc>
</trkpt>
<trkpt lat="36.782697" lon="137.811171">
<ele>2240.748953</ele>
<time>2014-08-19T02:35:15Z</time>
<desc><![CDATA[lat.=36.782697, lon.=137.811171, Alt.=2240.748953m. Speed=3.000000m/h.]]></desc>
</trkpt>
<trkpt lat="36.782637" lon="137.811200">
<ele>2241.260043</ele>
<time>2014-08-19T02:35:20Z</time>
<desc><![CDATA[lat.=36.782637, lon.=137.811200, Alt.=2241.260043m. Speed=4.000000m/h.]]></desc>
</trkpt>
<trkpt lat="36.782585" lon="137.811214">
<ele>2240.584291</ele>
<time>2014-08-19T02:35:25Z</time>
<desc><![CDATA[lat.=36.782585, lon.=137.811214, Alt.=2240.584291m. Speed=5.000000m/h.]]></desc>
</trkpt>
<trkpt lat="36.782529" lon="137.811268">
<ele>2240.613074</ele>
<time>2014-08-19T02:35:30Z</time>
<desc><![CDATA[lat.=36.782529, lon.=137.811268, Alt.=2240.613074m. Speed=5.000000m/h.]]></desc>
</trkpt>
<trkpt lat="36.782480" lon="137.811322">
<ele>2239.510567</ele>
<time>2014-08-19T02:35:35Z</time>
<desc><![CDATA[lat.=36.782480, lon.=137.811322, Alt.=2239.510567m. Speed=5.000000m/h.]]></desc>
</trkpt>
<trkpt lat="36.782413" lon="137.811367">
<ele>2239.478465</ele>
<time>2014-08-19T02:35:40Z</time>
<desc><![CDATA[lat.=36.782413, lon.=137.811367, Alt.=2239.478465m. Speed=5.000000m/h.]]></desc>
</trkpt>
<trkpt lat="36.782339" lon="137.811396">
<ele>2238.792042</ele>
<time>2014-08-19T02:35:45Z</time>
<desc><![CDATA[lat.=36.782339, lon.=137.811396, Alt.=2238.792042m. Speed=5.000000m/h.]]></desc>
</trkpt>
<trkpt lat="36.782272" lon="137.811426">
<ele>2236.974326</ele>
<time>2014-08-19T02:35:50Z</time>
<desc><![CDATA[lat.=36.782272, lon.=137.811426, Alt.=2236.974326m. Speed=5.000000m/h.]]></desc>
</trkpt>
<trkpt lat="36.782216" lon="137.811464">
<ele>2236.947601</ele>
<time>2014-08-19T02:35:55Z</time>
<desc><![CDATA[lat.=36.782216, lon.=137.811464, Alt.=2236.947601m. Speed=5.000000m/h.]]></desc>
</trkpt>
<trkpt lat="36.782174" lon="137.811518">
<ele>2236.443911</ele>
<time>2014-08-19T02:36:00Z</time>
<desc><![CDATA[lat.=36.782174, lon.=137.811518, Alt.=2236.443911m. Speed=5.000000m/h.]]></desc>
</trkpt>
<trkpt lat="36.782158" lon="137.811597">
<ele>2235.524156</ele>
<time>2014-08-19T02:36:05Z</time>
<desc><![CDATA[lat.=36.782158, lon.=137.811597, Alt.=2235.524156m. Speed=5.000000m/h.]]></desc>
</trkpt>
<trkpt lat="36.782161" lon="137.811605">
<ele>2236.716363</ele>
<time>2014-08-19T02:36:10Z</time>
<desc><![CDATA[lat.=36.782161, lon.=137.811605, Alt.=2236.716363m. Speed=3.000000m/h.]]></desc>
</trkpt>
<trkpt lat="36.782169" lon="137.811605">
<ele>2237.315137</ele>
<time>2014-08-19T02:36:15Z</time>
<desc><![CDATA[lat.=36.782169, lon.=137.811605, Alt.=2237.315137m. Speed=0.000000m/h.]]></desc>
</trkpt>
<trkpt lat="36.782172" lon="137.811612">
<ele>2238.507344</ele>
<time>2014-08-19T02:36:20Z</time>
<desc><![CDATA[lat.=36.782172, lon.=137.811612, Alt.=2238.507344m. Speed=0.000000m/h.]]></desc>
</trkpt>
<trkpt lat="36.782176" lon="137.811605">
<ele>2237.913912</ele>
<time>2014-08-19T02:36:25Z</time>
<desc><![CDATA[lat.=36.782176, lon.=137.811605, Alt.=2237.913912m. Speed=0.000000m/h.]]></desc>
</trkpt>
<trkpt lat="36.782179" lon="137.811612">
<ele>2239.106119</ele>
<time>2014-08-19T02:36:30Z</time>
<desc><![CDATA[lat.=36.782179, lon.=137.811612, Alt.=2239.106119m. Speed=0.000000m/h.]]></desc>
</trkpt>
<trkpt lat="36.782183" lon="137.811605">
<ele>2238.512686</ele>
<time>2014-08-19T02:36:38Z</time>
<desc><![CDATA[lat.=36.782183, lon.=137.811605, Alt.=2238.512686m. Speed=0.000000m/h.]]></desc>
</trkpt>
<trkpt lat="36.782190" lon="137.811621">
<ele>2239.167021</ele>
<time>2014-08-19T02:36:43Z</time>
<desc><![CDATA[lat.=36.782190, lon.=137.811621, Alt.=2239.167021m. Speed=0.000000m/h.]]></desc>
</trkpt>
<trkpt lat="36.782177" lon="137.811676">
<ele>2239.328361</ele>
<time>2014-08-19T02:36:48Z</time>
<desc><![CDATA[lat.=36.782177, lon.=137.811676, Alt.=2239.328361m. Speed=3.000000m/h.]]></desc>
</trkpt>
<trkpt lat="36.782166" lon="137.811699">
<ele>2239.378581</ele>
<time>2014-08-19T02:36:53Z</time>
<desc><![CDATA[lat.=36.782166, lon.=137.811699, Alt.=2239.378581m. Speed=2.000000m/h.]]></desc>
</trkpt>
<trkpt lat="36.782151" lon="137.811699">
<ele>2238.181033</ele>
<time>2014-08-19T02:36:58Z</time>
<desc><![CDATA[lat.=36.782151, lon.=137.811699, Alt.=2238.181033m. Speed=0.000000m/h.]]></desc>
</trkpt>
<trkpt lat="36.782141" lon="137.811691">
<ele>2238.120131</ele>
<time>2014-08-19T02:37:03Z</time>
<desc><![CDATA[lat.=36.782141, lon.=137.811691, Alt.=2238.120131m. Speed=0.000000m/h.]]></desc>
</trkpt>
<trkpt lat="36.782130" lon="137.811682">
<ele>2238.059229</ele>
<time>2014-08-19T02:37:08Z</time>
<desc><![CDATA[lat.=36.782130, lon.=137.811682, Alt.=2238.059229m. Speed=0.000000m/h.]]></desc>
</trkpt>
<trkpt lat="36.782125" lon="137.811737">
<ele>2238.819348</ele>
<time>2014-08-19T02:37:13Z</time>
<desc><![CDATA[lat.=36.782125, lon.=137.811737, Alt.=2238.819348m. Speed=3.000000m/h.]]></desc>
</trkpt>
<trkpt lat="36.782108" lon="137.811800">
<ele>2239.574132</ele>
<time>2014-08-19T02:37:18Z</time>
<desc><![CDATA[lat.=36.782108, lon.=137.811800, Alt.=2239.574132m. Speed=4.000000m/h.]]></desc>
</trkpt>
<trkpt lat="36.782103" lon="137.811871">
<ele>2240.389825</ele>
<time>2014-08-19T02:37:23Z</time>
<desc><![CDATA[lat.=36.782103, lon.=137.811871, Alt.=2240.389825m. Speed=4.000000m/h.]]></desc>
</trkpt>
<trkpt lat="36.782098" lon="137.811942">
<ele>2239.475444</ele>
<time>2014-08-19T02:37:28Z</time>
<desc><![CDATA[lat.=36.782098, lon.=137.811942, Alt.=2239.475444m. Speed=4.000000m/h.]]></desc>
</trkpt>
<trkpt lat="36.782098" lon="137.811943">
<ele>2237.745365</ele>
<time>2014-08-19T02:37:33Z</time>
<desc><![CDATA[lat.=36.782098, lon.=137.811943, Alt.=2237.745365m. Speed=0.000000m/h.]]></desc>
</trkpt>
<trkpt lat="36.782095" lon="137.811951">
<ele>2236.608722</ele>
<time>2014-08-19T02:37:39Z</time>
<desc><![CDATA[lat.=36.782095, lon.=137.811951, Alt.=2236.608722m. Speed=2.000000m/h.]]></desc>
</trkpt>
<trkpt lat="36.782085" lon="137.812029">
<ele>2238.017865</ele>
<time>2014-08-19T02:37:44Z</time>
<desc><![CDATA[lat.=36.782085, lon.=137.812029, Alt.=2238.017865m. Speed=4.000000m/h.]]></desc>
</trkpt>
<trkpt lat="36.782087" lon="137.812101">
<ele>2237.702272</ele>
<time>2014-08-19T02:37:49Z</time>
<desc><![CDATA[lat.=36.782087, lon.=137.812101, Alt.=2237.702272m. Speed=4.000000m/h.]]></desc>
</trkpt>
<trkpt lat="36.782070" lon="137.812179">
<ele>2238.512657</ele>
<time>2014-08-19T02:37:54Z</time>
<desc><![CDATA[lat.=36.782070, lon.=137.812179, Alt.=2238.512657m. Speed=4.000000m/h.]]></desc>
</trkpt>
<trkpt lat="36.782058" lon="137.812250">
<ele>2238.729611</ele>
<time>2014-08-19T02:37:59Z</time>
<desc><![CDATA[lat.=36.782058, lon.=137.812250, Alt.=2238.729611m. Speed=5.000000m/h.]]></desc>
</trkpt>
<trkpt lat="36.782052" lon="137.812337">
<ele>2239.600918</ele>
<time>2014-08-19T02:38:04Z</time>
<desc><![CDATA[lat.=36.782052, lon.=137.812337, Alt.=2239.600918m. Speed=5.000000m/h.]]></desc>
</trkpt>
<trkpt lat="36.782050" lon="137.812417">
<ele>2238.148714</ele>
<time>2014-08-19T02:38:09Z</time>
<desc><![CDATA[lat.=36.782050, lon.=137.812417, Alt.=2238.148714m. Speed=5.000000m/h.]]></desc>
</trkpt>
<trkpt lat="36.782060" lon="137.812489">
<ele>2236.701849</ele>
<time>2014-08-19T02:38:14Z</time>
<desc><![CDATA[lat.=36.782060, lon.=137.812489, Alt.=2236.701849m. Speed=5.000000m/h.]]></desc>
</trkpt>
<trkpt lat="36.782070" lon="137.812561">
<ele>2236.985070</ele>
<time>2014-08-19T02:38:19Z</time>
<desc><![CDATA[lat.=36.782070, lon.=137.812561, Alt.=2236.985070m. Speed=5.000000m/h.]]></desc>
</trkpt>
<trkpt lat="36.782068" lon="137.812640">
<ele>2237.262968</ele>
<time>2014-08-19T02:38:24Z</time>
<desc><![CDATA[lat.=36.782068, lon.=137.812640, Alt.=2237.262968m. Speed=5.000000m/h.]]></desc>
</trkpt>
<trkpt lat="36.782081" lon="137.812704">
<ele>2236.952759</ele>
<time>2014-08-19T02:38:29Z</time>
<desc><![CDATA[lat.=36.782081, lon.=137.812704, Alt.=2236.952759m. Speed=5.000000m/h.]]></desc>
</trkpt>
<trkpt lat="36.782079" lon="137.812750">
<ele>2238.849583</ele>
<time>2014-08-19T02:38:34Z</time>
<desc><![CDATA[lat.=36.782079, lon.=137.812750, Alt.=2238.849583m. Speed=4.000000m/h.]]></desc>
</trkpt>
<trkpt lat="36.782087" lon="137.812735">
<ele>2237.662695</ele>
<time>2014-08-19T02:38:39Z</time>
<desc><![CDATA[lat.=36.782087, lon.=137.812735, Alt.=2237.662695m. Speed=0.000000m/h.]]></desc>
</trkpt>
<trkpt lat="36.782076" lon="137.812743">
<ele>2237.657366</ele>
<time>2014-08-19T02:38:44Z</time>
<desc><![CDATA[lat.=36.782076, lon.=137.812743, Alt.=2237.657366m. Speed=0.000000m/h.]]></desc>
</trkpt>
<trkpt lat="36.782083" lon="137.812759">
<ele>2238.311722</ele>
<time>2014-08-19T02:38:53Z</time>
<desc><![CDATA[lat.=36.782083, lon.=137.812759, Alt.=2238.311722m. Speed=2.000000m/h.]]></desc>
</trkpt>
<trkpt lat="36.782089" lon="137.812823">
<ele>2237.402749</ele>
<time>2014-08-19T02:38:58Z</time>
<desc><![CDATA[lat.=36.782089, lon.=137.812823, Alt.=2237.402749m. Speed=3.000000m/h.]]></desc>
</trkpt>
<trkpt lat="36.782121" lon="137.812879">
<ele>2237.696658</ele>
<time>2014-08-19T02:39:03Z</time>
<desc><![CDATA[lat.=36.782121, lon.=137.812879, Alt.=2237.696658m. Speed=4.000000m/h.]]></desc>
</trkpt>
<trkpt lat="36.782180" lon="137.812882">
<ele>2237.296615</ele>
<time>2014-08-19T02:39:08Z</time>
<desc><![CDATA[lat.=36.782180, lon.=137.812882, Alt.=2237.296615m. Speed=4.000000m/h.]]></desc>
</trkpt>
<trkpt lat="36.782210" lon="137.812867">
<ele>2237.906051</ele>
<time>2014-08-19T02:39:13Z</time>
<desc><![CDATA[lat.=36.782210, lon.=137.812867, Alt.=2237.906051m. Speed=3.000000m/h.]]></desc>
</trkpt>
<trkpt lat="36.782199" lon="137.812858">
<ele>2237.845136</ele>
<time>2014-08-19T02:39:18Z</time>
<desc><![CDATA[lat.=36.782199, lon.=137.812858, Alt.=2237.845136m. Speed=0.000000m/h.]]></desc>
</trkpt>
<trkpt lat="36.782203" lon="137.812851">
<ele>2237.251692</ele>
<time>2014-08-19T02:39:23Z</time>
<desc><![CDATA[lat.=36.782203, lon.=137.812851, Alt.=2237.251692m. Speed=0.000000m/h.]]></desc>
</trkpt>
<trkpt lat="36.782210" lon="137.812851">
<ele>2237.850466</ele>
<time>2014-08-19T02:39:28Z</time>
<desc><![CDATA[lat.=36.782210, lon.=137.812851, Alt.=2237.850466m. Speed=0.000000m/h.]]></desc>
</trkpt>
<trkpt lat="36.782206" lon="137.812858">
<ele>2238.443910</ele>
<time>2014-08-19T02:39:33Z</time>
<desc><![CDATA[lat.=36.782206, lon.=137.812858, Alt.=2238.443910m. Speed=0.000000m/h.]]></desc>
</trkpt>
<trkpt lat="36.782213" lon="137.812858">
<ele>2239.042685</ele>
<time>2014-08-19T02:39:42Z</time>
<desc><![CDATA[lat.=36.782213, lon.=137.812858, Alt.=2239.042685m. Speed=0.000000m/h.]]></desc>
</trkpt>
<trkpt lat="36.782206" lon="137.812858">
<ele>2238.443910</ele>
<time>2014-08-19T02:39:47Z</time>
<desc><![CDATA[lat.=36.782206, lon.=137.812858, Alt.=2238.443910m. Speed=0.000000m/h.]]></desc>
</trkpt>
<trkpt lat="36.782210" lon="137.812851">
<ele>2237.850466</ele>
<time>2014-08-19T02:39:53Z</time>
<desc><![CDATA[lat.=36.782210, lon.=137.812851, Alt.=2237.850466m. Speed=0.000000m/h.]]></desc>
</trkpt>
<trkpt lat="36.782206" lon="137.812842">
<ele>2238.388326</ele>
<time>2014-08-19T02:39:58Z</time>
<desc><![CDATA[lat.=36.782206, lon.=137.812842, Alt.=2238.388326m. Speed=0.000000m/h.]]></desc>
</trkpt>
<trkpt lat="36.782210" lon="137.812851">
<ele>2237.850466</ele>
<time>2014-08-19T02:40:09Z</time>
<desc><![CDATA[lat.=36.782210, lon.=137.812851, Alt.=2237.850466m. Speed=0.000000m/h.]]></desc>
</trkpt>
<trkpt lat="36.782214" lon="137.812843">
<ele>2237.257023</ele>
<time>2014-08-19T02:40:14Z</time>
<desc><![CDATA[lat.=36.782214, lon.=137.812843, Alt.=2237.257023m. Speed=0.000000m/h.]]></desc>
</trkpt>
<trkpt lat="36.782203" lon="137.812835">
<ele>2237.196107</ele>
<time>2014-08-19T02:40:29Z</time>
<desc><![CDATA[lat.=36.782203, lon.=137.812835, Alt.=2237.196107m. Speed=0.000000m/h.]]></desc>
</trkpt>
<trkpt lat="36.782210" lon="137.812835">
<ele>2237.794882</ele>
<time>2014-08-19T02:40:34Z</time>
<desc><![CDATA[lat.=36.782210, lon.=137.812835, Alt.=2237.794882m. Speed=0.000000m/h.]]></desc>
</trkpt>
<trkpt lat="36.782214" lon="137.812827">
<ele>2237.201439</ele>
<time>2014-08-19T02:40:54Z</time>
<desc><![CDATA[lat.=36.782214, lon.=137.812827, Alt.=2237.201439m. Speed=0.000000m/h.]]></desc>
</trkpt>
<trkpt lat="36.782218" lon="137.812836">
<ele>2236.663579</ele>
<time>2014-08-19T02:41:01Z</time>
<desc><![CDATA[lat.=36.782218, lon.=137.812836, Alt.=2236.663579m. Speed=0.000000m/h.]]></desc>
</trkpt>
<trkpt lat="36.782222" lon="137.812828">
<ele>2236.070135</ele>
<time>2014-08-19T02:41:11Z</time>
<desc><![CDATA[lat.=36.782222, lon.=137.812828, Alt.=2236.070135m. Speed=0.000000m/h.]]></desc>
</trkpt>
<trkpt lat="36.782218" lon="137.812820">
<ele>2236.607995</ele>
<time>2014-08-19T02:41:16Z</time>
<desc><![CDATA[lat.=36.782218, lon.=137.812820, Alt.=2236.607995m. Speed=1.000000m/h.]]></desc>
</trkpt>
<trkpt lat="36.782214" lon="137.812827">
<ele>2237.201439</ele>
<time>2014-08-19T02:41:34Z</time>
<desc><![CDATA[lat.=36.782214, lon.=137.812827, Alt.=2237.201439m. Speed=0.000000m/h.]]></desc>
</trkpt>
<trkpt lat="36.782218" lon="137.812820">
<ele>2236.607995</ele>
<time>2014-08-19T02:41:39Z</time>
<desc><![CDATA[lat.=36.782218, lon.=137.812820, Alt.=2236.607995m. Speed=0.000000m/h.]]></desc>
</trkpt>
<trkpt lat="36.782218" lon="137.812852">
<ele>2236.719163</ele>
<time>2014-08-19T02:41:44Z</time>
<desc><![CDATA[lat.=36.782218, lon.=137.812852, Alt.=2236.719163m. Speed=2.000000m/h.]]></desc>
</trkpt>
<trkpt lat="36.782232" lon="137.812852">
<ele>2236.186635</ele>
<time>2014-08-19T02:41:49Z</time>
<desc><![CDATA[lat.=36.782232, lon.=137.812852, Alt.=2236.186635m. Speed=0.000000m/h.]]></desc>
</trkpt>
<trkpt lat="36.782218" lon="137.812852">
<ele>2234.989085</ele>
<time>2014-08-19T02:41:54Z</time>
<desc><![CDATA[lat.=36.782218, lon.=137.812852, Alt.=2234.989085m. Speed=0.000000m/h.]]></desc>
</trkpt>
<trkpt lat="36.782221" lon="137.812860">
<ele>2236.181304</ele>
<time>2014-08-19T02:41:59Z</time>
<desc><![CDATA[lat.=36.782221, lon.=137.812860, Alt.=2236.181304m. Speed=0.000000m/h.]]></desc>
</trkpt>
<trkpt lat="36.782217" lon="137.812867">
<ele>2236.774748</ele>
<time>2014-08-19T02:42:04Z</time>
<desc><![CDATA[lat.=36.782217, lon.=137.812867, Alt.=2236.774748m. Speed=0.000000m/h.]]></desc>
</trkpt>
<trkpt lat="36.782221" lon="137.812876">
<ele>2236.236888</ele>
<time>2014-08-19T02:42:09Z</time>
<desc><![CDATA[lat.=36.782221, lon.=137.812876, Alt.=2236.236888m. Speed=0.000000m/h.]]></desc>
</trkpt>
<trkpt lat="36.782217" lon="137.812867">
<ele>2236.774748</ele>
<time>2014-08-19T02:42:14Z</time>
<desc><![CDATA[lat.=36.782217, lon.=137.812867, Alt.=2236.774748m. Speed=0.000000m/h.]]></desc>
</trkpt>
<trkpt lat="36.782221" lon="137.812876">
<ele>2236.236888</ele>
<time>2014-08-19T02:42:19Z</time>
<desc><![CDATA[lat.=36.782221, lon.=137.812876, Alt.=2236.236888m. Speed=0.000000m/h.]]></desc>
</trkpt>
<trkpt lat="36.782210" lon="137.812867">
<ele>2236.175973</ele>
<time>2014-08-19T02:42:29Z</time>
<desc><![CDATA[lat.=36.782210, lon.=137.812867, Alt.=2236.175973m. Speed=1.000000m/h.]]></desc>
</trkpt>
<trkpt lat="36.782203" lon="137.812835">
<ele>2237.196107</ele>
<time>2014-08-19T02:42:34Z</time>
<desc><![CDATA[lat.=36.782203, lon.=137.812835, Alt.=2237.196107m. Speed=2.000000m/h.]]></desc>
</trkpt>
<trkpt lat="36.782214" lon="137.812827">
<ele>2237.201439</ele>
<time>2014-08-19T02:42:39Z</time>
<desc><![CDATA[lat.=36.782214, lon.=137.812827, Alt.=2237.201439m. Speed=0.000000m/h.]]></desc>
</trkpt>
<trkpt lat="36.782207" lon="137.812828">
<ele>2234.872585</ele>
<time>2014-08-19T02:42:44Z</time>
<desc><![CDATA[lat.=36.782207, lon.=137.812828, Alt.=2234.872585m. Speed=0.000000m/h.]]></desc>
</trkpt>
<trkpt lat="36.782211" lon="137.812821">
<ele>2234.279142</ele>
<time>2014-08-19T02:42:49Z</time>
<desc><![CDATA[lat.=36.782211, lon.=137.812821, Alt.=2234.279142m. Speed=0.000000m/h.]]></desc>
</trkpt>
<trkpt lat="36.782208" lon="137.812812">
<ele>2234.817001</ele>
<time>2014-08-19T02:42:56Z</time>
<desc><![CDATA[lat.=36.782208, lon.=137.812812, Alt.=2234.817001m. Speed=0.000000m/h.]]></desc>
</trkpt>
<trkpt lat="36.782212" lon="137.812805">
<ele>2234.223558</ele>
<time>2014-08-19T02:43:01Z</time>
<desc><![CDATA[lat.=36.782212, lon.=137.812805, Alt.=2234.223558m. Speed=0.000000m/h.]]></desc>
</trkpt>
<trkpt lat="36.782219" lon="137.812821">
<ele>2234.877917</ele>
<time>2014-08-19T02:43:06Z</time>
<desc><![CDATA[lat.=36.782219, lon.=137.812821, Alt.=2234.877917m. Speed=0.000000m/h.]]></desc>
</trkpt>
<trkpt lat="36.782215" lon="137.812828">
<ele>2235.471360</ele>
<time>2014-08-19T02:43:11Z</time>
<desc><![CDATA[lat.=36.782215, lon.=137.812828, Alt.=2235.471360m. Speed=0.000000m/h.]]></desc>
</trkpt>
<trkpt lat="36.782185" lon="137.812843">
<ele>2234.861923</ele>
<time>2014-08-19T02:43:16Z</time>
<desc><![CDATA[lat.=36.782185, lon.=137.812843, Alt.=2234.861923m. Speed=3.000000m/h.]]></desc>
</trkpt>
<trkpt lat="36.782141" lon="137.812857">
<ele>2234.785019</ele>
<time>2014-08-19T02:43:21Z</time>
<desc><![CDATA[lat.=36.782141, lon.=137.812857, Alt.=2234.785019m. Speed=3.000000m/h.]]></desc>
</trkpt>
<trkpt lat="36.782124" lon="137.812903">
<ele>2237.214383</ele>
<time>2014-08-19T02:43:26Z</time>
<desc><![CDATA[lat.=36.782124, lon.=137.812903, Alt.=2237.214383m. Speed=3.000000m/h.]]></desc>
</trkpt>
<trkpt lat="36.782123" lon="137.812951">
<ele>2237.381141</ele>
<time>2014-08-19T02:43:31Z</time>
<desc><![CDATA[lat.=36.782123, lon.=137.812951, Alt.=2237.381141m. Speed=4.000000m/h.]]></desc>
</trkpt>
<trkpt lat="36.782092" lon="137.813029">
<ele>2236.994061</ele>
<time>2014-08-19T02:43:36Z</time>
<desc><![CDATA[lat.=36.782092, lon.=137.813029, Alt.=2236.994061m. Speed=4.000000m/h.]]></desc>
</trkpt>
<trkpt lat="36.782065" lon="137.813051">
<ele>2239.306933</ele>
<time>2014-08-19T02:43:41Z</time>
<desc><![CDATA[lat.=36.782065, lon.=137.813051, Alt.=2239.306933m. Speed=4.000000m/h.]]></desc>
</trkpt>
<trkpt lat="36.782017" lon="137.813073">
<ele>2239.823490</ele>
<time>2014-08-19T02:43:46Z</time>
<desc><![CDATA[lat.=36.782017, lon.=137.813073, Alt.=2239.823490m. Speed=4.000000m/h.]]></desc>
</trkpt>
<trkpt lat="36.781975" lon="137.813111">
<ele>2239.264334</ele>
<time>2014-08-19T02:43:51Z</time>
<desc><![CDATA[lat.=36.781975, lon.=137.813111, Alt.=2239.264334m. Speed=4.000000m/h.]]></desc>
</trkpt>
<trkpt lat="36.781912" lon="137.813149">
<ele>2238.638950</ele>
<time>2014-08-19T02:43:56Z</time>
<desc><![CDATA[lat.=36.781912, lon.=137.813149, Alt.=2238.638950m. Speed=5.000000m/h.]]></desc>
</trkpt>
<trkpt lat="36.781849" lon="137.813202">
<ele>2238.069166</ele>
<time>2014-08-19T02:44:01Z</time>
<desc><![CDATA[lat.=36.781849, lon.=137.813202, Alt.=2238.069166m. Speed=6.000000m/h.]]></desc>
</trkpt>
<trkpt lat="36.781796" lon="137.813265">
<ele>2235.830227</ele>
<time>2014-08-19T02:44:06Z</time>
<desc><![CDATA[lat.=36.781796, lon.=137.813265, Alt.=2235.830227m. Speed=6.000000m/h.]]></desc>
</trkpt>
<trkpt lat="36.781743" lon="137.813310">
<ele>2236.995860</ele>
<time>2014-08-19T02:44:11Z</time>
<desc><![CDATA[lat.=36.781743, lon.=137.813310, Alt.=2236.995860m. Speed=5.000000m/h.]]></desc>
</trkpt>
<trkpt lat="36.781742" lon="137.813373">
<ele>2237.218237</ele>
<time>2014-08-19T02:44:16Z</time>
<desc><![CDATA[lat.=36.781742, lon.=137.813373, Alt.=2237.218237m. Speed=5.000000m/h.]]></desc>
</trkpt>
<trkpt lat="36.781767" lon="137.813414">
<ele>2236.857798</ele>
<time>2014-08-19T02:44:21Z</time>
<desc><![CDATA[lat.=36.781767, lon.=137.813414, Alt.=2236.857798m. Speed=4.000000m/h.]]></desc>
</trkpt>
<trkpt lat="36.781754" lon="137.813469">
<ele>2237.019271</ele>
<time>2014-08-19T02:44:26Z</time>
<desc><![CDATA[lat.=36.781754, lon.=137.813469, Alt.=2237.019271m. Speed=3.000000m/h.]]></desc>
</trkpt>
<trkpt lat="36.781739" lon="137.813516">
<ele>2235.988526</ele>
<time>2014-08-19T02:44:31Z</time>
<desc><![CDATA[lat.=36.781739, lon.=137.813516, Alt.=2235.988526m. Speed=3.000000m/h.]]></desc>
</trkpt>
<trkpt lat="36.781720" lon="137.813556">
<ele>2233.765562</ele>
<time>2014-08-19T02:44:36Z</time>
<desc><![CDATA[lat.=36.781720, lon.=137.813556, Alt.=2233.765562m. Speed=3.000000m/h.]]></desc>
</trkpt>
<trkpt lat="36.781698" lon="137.813588">
<ele>2232.080456</ele>
<time>2014-08-19T02:44:41Z</time>
<desc><![CDATA[lat.=36.781698, lon.=137.813588, Alt.=2232.080456m. Speed=3.000000m/h.]]></desc>
</trkpt>
<trkpt lat="36.781675" lon="137.813635">
<ele>2230.450953</ele>
<time>2014-08-19T02:44:46Z</time>
<desc><![CDATA[lat.=36.781675, lon.=137.813635, Alt.=2230.450953m. Speed=3.000000m/h.]]></desc>
</trkpt>
<trkpt lat="36.781649" lon="137.813674">
<ele>2229.359308</ele>
<time>2014-08-19T02:44:51Z</time>
<desc><![CDATA[lat.=36.781649, lon.=137.813674, Alt.=2229.359308m. Speed=3.000000m/h.]]></desc>
</trkpt>
<trkpt lat="36.781634" lon="137.813707">
<ele>2226.542898</ele>
<time>2014-08-19T02:44:56Z</time>
<desc><![CDATA[lat.=36.781634, lon.=137.813707, Alt.=2226.542898m. Speed=2.000000m/h.]]></desc>
</trkpt>
<trkpt lat="36.781615" lon="137.813746">
<ele>2226.050025</ele>
<time>2014-08-19T02:45:01Z</time>
<desc><![CDATA[lat.=36.781615, lon.=137.813746, Alt.=2226.050025m. Speed=3.000000m/h.]]></desc>
</trkpt>
<trkpt lat="36.781621" lon="137.813794">
<ele>2225.085523</ele>
<time>2014-08-19T02:45:06Z</time>
<desc><![CDATA[lat.=36.781621, lon.=137.813794, Alt.=2225.085523m. Speed=3.000000m/h.]]></desc>
</trkpt>
<trkpt lat="36.781617" lon="137.813818">
<ele>2224.004506</ele>
<time>2014-08-19T02:45:11Z</time>
<desc><![CDATA[lat.=36.781617, lon.=137.813818, Alt.=2224.004506m. Speed=2.000000m/h.]]></desc>
</trkpt>
<trkpt lat="36.781605" lon="137.813857">
<ele>2224.110406</ele>
<time>2014-08-19T02:45:16Z</time>
<desc><![CDATA[lat.=36.781605, lon.=137.813857, Alt.=2224.110406m. Speed=2.000000m/h.]]></desc>
</trkpt>
<trkpt lat="36.781597" lon="137.813889">
<ele>2223.622849</ele>
<time>2014-08-19T02:45:21Z</time>
<desc><![CDATA[lat.=36.781597, lon.=137.813889, Alt.=2223.622849m. Speed=2.000000m/h.]]></desc>
</trkpt>
<trkpt lat="36.781593" lon="137.813913">
<ele>2222.541835</ele>
<time>2014-08-19T02:45:26Z</time>
<desc><![CDATA[lat.=36.781593, lon.=137.813913, Alt.=2222.541835m. Speed=2.000000m/h.]]></desc>
</trkpt>
<trkpt lat="36.781607" lon="137.813946">
<ele>2222.120502</ele>
<time>2014-08-19T02:45:31Z</time>
<desc><![CDATA[lat.=36.781607, lon.=137.813946, Alt.=2222.120502m. Speed=1.000000m/h.]]></desc>
</trkpt>
<trkpt lat="36.781619" lon="137.813955">
<ele>2220.451339</ele>
<time>2014-08-19T02:45:36Z</time>
<desc><![CDATA[lat.=36.781619, lon.=137.813955, Alt.=2220.451339m. Speed=0.000000m/h.]]></desc>
</trkpt>
<trkpt lat="36.781611" lon="137.813986">
<ele>2219.963786</ele>
<time>2014-08-19T02:45:41Z</time>
<desc><![CDATA[lat.=36.781611, lon.=137.813986, Alt.=2219.963786m. Speed=1.000000m/h.]]></desc>
</trkpt>
<trkpt lat="36.781615" lon="137.813979">
<ele>2219.370327</ele>
<time>2014-08-19T02:45:46Z</time>
<desc><![CDATA[lat.=36.781615, lon.=137.813979, Alt.=2219.370327m. Speed=0.000000m/h.]]></desc>
</trkpt>
<trkpt lat="36.781618" lon="137.813987">
<ele>2218.832475</ele>
<time>2014-08-19T02:45:51Z</time>
<desc><![CDATA[lat.=36.781618, lon.=137.813987, Alt.=2218.832475m. Speed=0.000000m/h.]]></desc>
</trkpt>
<trkpt lat="36.781633" lon="137.814004">
<ele>2218.355538</ele>
<time>2014-08-19T02:45:56Z</time>
<desc><![CDATA[lat.=36.781633, lon.=137.814004, Alt.=2218.355538m. Speed=1.000000m/h.]]></desc>
</trkpt>
<trkpt lat="36.781651" lon="137.814029">
<ele>2217.340750</ele>
<time>2014-08-19T02:46:01Z</time>
<desc><![CDATA[lat.=36.781651, lon.=137.814029, Alt.=2217.340750m. Speed=2.000000m/h.]]></desc>
</trkpt>
<trkpt lat="36.781646" lon="137.814068">
<ele>2218.045427</ele>
<time>2014-08-19T02:46:06Z</time>
<desc><![CDATA[lat.=36.781646, lon.=137.814068, Alt.=2218.045427m. Speed=2.000000m/h.]]></desc>
</trkpt>
<trkpt lat="36.781653" lon="137.814084">
<ele>2218.699803</ele>
<time>2014-08-19T02:46:11Z</time>
<desc><![CDATA[lat.=36.781653, lon.=137.814084, Alt.=2218.699803m. Speed=1.000000m/h.]]></desc>
</trkpt>
<trkpt lat="36.781645" lon="137.814099">
<ele>2218.156645</ele>
<time>2014-08-19T02:46:16Z</time>
<desc><![CDATA[lat.=36.781645, lon.=137.814099, Alt.=2218.156645m. Speed=1.000000m/h.]]></desc>
</trkpt>
<trkpt lat="36.781649" lon="137.814108">
<ele>2217.618794</ele>
<time>2014-08-19T02:46:21Z</time>
<desc><![CDATA[lat.=36.781649, lon.=137.814108, Alt.=2217.618794m. Speed=0.000000m/h.]]></desc>
</trkpt>
<trkpt lat="36.781649" lon="137.814108">
<ele>2215.888717</ele>
<time>2014-08-19T02:46:26Z</time>
<desc><![CDATA[lat.=36.781649, lon.=137.814108, Alt.=2215.888717m. Speed=0.000000m/h.]]></desc>
</trkpt>
<trkpt lat="36.781645" lon="137.814132">
<ele>2216.537786</ele>
<time>2014-08-19T02:46:31Z</time>
<desc><![CDATA[lat.=36.781645, lon.=137.814132, Alt.=2216.537786m. Speed=1.000000m/h.]]></desc>
</trkpt>
<trkpt lat="36.781637" lon="137.814164">
<ele>2214.320163</ele>
<time>2014-08-19T02:46:36Z</time>
<desc><![CDATA[lat.=36.781637, lon.=137.814164, Alt.=2214.320163m. Speed=2.000000m/h.]]></desc>
</trkpt>
<trkpt lat="36.781604" lon="137.814204">
<ele>2210.899701</ele>
<time>2014-08-19T02:46:41Z</time>
<desc><![CDATA[lat.=36.781604, lon.=137.814204, Alt.=2210.899701m. Speed=3.000000m/h.]]></desc>
</trkpt>
<trkpt lat="36.781570" lon="137.814258">
<ele>2210.995012</ele>
<time>2014-08-19T02:46:46Z</time>
<desc><![CDATA[lat.=36.781570, lon.=137.814258, Alt.=2210.995012m. Speed=4.000000m/h.]]></desc>
</trkpt>
<trkpt lat="36.781550" lon="137.814313">
<ele>2210.557782</ele>
<time>2014-08-19T02:46:51Z</time>
<desc><![CDATA[lat.=36.781550, lon.=137.814313, Alt.=2210.557782m. Speed=4.000000m/h.]]></desc>
</trkpt>
<trkpt lat="36.781512" lon="137.814359">
<ele>2211.190952</ele>
<time>2014-08-19T02:46:56Z</time>
<desc><![CDATA[lat.=36.781512, lon.=137.814359, Alt.=2211.190952m. Speed=4.000000m/h.]]></desc>
</trkpt>
<trkpt lat="36.781482" lon="137.814406">
<ele>2210.692815</ele>
<time>2014-08-19T02:47:01Z</time>
<desc><![CDATA[lat.=36.781482, lon.=137.814406, Alt.=2210.692815m. Speed=4.000000m/h.]]></desc>
</trkpt>
<trkpt lat="36.781458" lon="137.814468">
<ele>2210.849063</ele>
<time>2014-08-19T02:47:06Z</time>
<desc><![CDATA[lat.=36.781458, lon.=137.814468, Alt.=2210.849063m. Speed=4.000000m/h.]]></desc>
</trkpt>
<trkpt lat="36.781428" lon="137.814515">
<ele>2210.350935</ele>
<time>2014-08-19T02:47:11Z</time>
<desc><![CDATA[lat.=36.781428, lon.=137.814515, Alt.=2210.350935m. Speed=4.000000m/h.]]></desc>
</trkpt>
<trkpt lat="36.781401" lon="137.814554">
<ele>2209.259346</ele>
<time>2014-08-19T02:47:16Z</time>
<desc><![CDATA[lat.=36.781401, lon.=137.814554, Alt.=2209.259346m. Speed=4.000000m/h.]]></desc>
</trkpt>
<trkpt lat="36.781379" lon="137.814586">
<ele>2207.574293</ele>
<time>2014-08-19T02:47:21Z</time>
<desc><![CDATA[lat.=36.781379, lon.=137.814586, Alt.=2207.574293m. Speed=3.000000m/h.]]></desc>
</trkpt>
<trkpt lat="36.781357" lon="137.814617">
<ele>2205.889243</ele>
<time>2014-08-19T02:47:26Z</time>
<desc><![CDATA[lat.=36.781357, lon.=137.814617, Alt.=2205.889243m. Speed=3.000000m/h.]]></desc>
</trkpt>
<trkpt lat="36.781327" lon="137.814632">
<ele>2205.279889</ele>
<time>2014-08-19T02:47:31Z</time>
<desc><![CDATA[lat.=36.781327, lon.=137.814632, Alt.=2205.279889m. Speed=3.000000m/h.]]></desc>
</trkpt>
<trkpt lat="36.781275" lon="137.814647">
<ele>2204.604328</ele>
<time>2014-08-19T02:47:36Z</time>
<desc><![CDATA[lat.=36.781275, lon.=137.814647, Alt.=2204.604328m. Speed=3.000000m/h.]]></desc>
</trkpt>
<trkpt lat="36.781243" lon="137.814638">
<ele>2202.747129</ele>
<time>2014-08-19T02:47:41Z</time>
<desc><![CDATA[lat.=36.781243, lon.=137.814638, Alt.=2202.747129m. Speed=3.000000m/h.]]></desc>
</trkpt>
<trkpt lat="36.781202" lon="137.814645">
<ele>2202.076869</ele>
<time>2014-08-19T02:47:46Z</time>
<desc><![CDATA[lat.=36.781202, lon.=137.814645, Alt.=2202.076869m. Speed=3.000000m/h.]]></desc>
</trkpt>
<trkpt lat="36.781158" lon="137.814644">
<ele>2201.944461</ele>
<time>2014-08-19T02:47:51Z</time>
<desc><![CDATA[lat.=36.781158, lon.=137.814644, Alt.=2201.944461m. Speed=3.000000m/h.]]></desc>
</trkpt>
<trkpt lat="36.781133" lon="137.814635">
<ele>2200.686029</ele>
<time>2014-08-19T02:47:56Z</time>
<desc><![CDATA[lat.=36.781133, lon.=137.814635, Alt.=2200.686029m. Speed=3.000000m/h.]]></desc>
</trkpt>
<trkpt lat="36.781085" lon="137.814642">
<ele>2199.417018</ele>
<time>2014-08-19T02:48:01Z</time>
<desc><![CDATA[lat.=36.781085, lon.=137.814642, Alt.=2199.417018m. Speed=3.000000m/h.]]></desc>
</trkpt>
<trkpt lat="36.781045" lon="137.814649">
<ele>2198.746771</ele>
<time>2014-08-19T02:48:06Z</time>
<desc><![CDATA[lat.=36.781045, lon.=137.814649, Alt.=2198.746771m. Speed=3.000000m/h.]]></desc>
</trkpt>
<trkpt lat="36.780998" lon="137.814640">
<ele>2197.422148</ele>
<time>2014-08-19T02:48:11Z</time>
<desc><![CDATA[lat.=36.780998, lon.=137.814640, Alt.=2197.422148m. Speed=4.000000m/h.]]></desc>
</trkpt>
<trkpt lat="36.780968" lon="137.814639">
<ele>2196.757194</ele>
<time>2014-08-19T02:48:16Z</time>
<desc><![CDATA[lat.=36.780968, lon.=137.814639, Alt.=2196.757194m. Speed=3.000000m/h.]]></desc>
</trkpt>
<trkpt lat="36.780921" lon="137.814630">
<ele>2195.432578</ele>
<time>2014-08-19T02:48:21Z</time>
<desc><![CDATA[lat.=36.780921, lon.=137.814630, Alt.=2195.432578m. Speed=3.000000m/h.]]></desc>
</trkpt>
<trkpt lat="36.780881" lon="137.814621">
<ele>2194.706723</ele>
<time>2014-08-19T02:48:26Z</time>
<desc><![CDATA[lat.=36.780881, lon.=137.814621, Alt.=2194.706723m. Speed=3.000000m/h.]]></desc>
</trkpt>
<trkpt lat="36.780830" lon="137.814619">
<ele>2193.975587</ele>
<time>2014-08-19T02:48:31Z</time>
<desc><![CDATA[lat.=36.780830, lon.=137.814619, Alt.=2193.975587m. Speed=4.000000m/h.]]></desc>
</trkpt>
<trkpt lat="36.780796" lon="137.814626">
<ele>2193.904114</ele>
<time>2014-08-19T02:48:36Z</time>
<desc><![CDATA[lat.=36.780796, lon.=137.814626, Alt.=2193.904114m. Speed=3.000000m/h.]]></desc>
</trkpt>
<trkpt lat="36.780766" lon="137.814673">
<ele>2193.406035</ele>
<time>2014-08-19T02:48:41Z</time>
<desc><![CDATA[lat.=36.780766, lon.=137.814673, Alt.=2193.406035m. Speed=3.000000m/h.]]></desc>
</trkpt>
<trkpt lat="36.780743" lon="137.814719">
<ele>2193.506714</ele>
<time>2014-08-19T02:48:46Z</time>
<desc><![CDATA[lat.=36.780743, lon.=137.814719, Alt.=2193.506714m. Speed=4.000000m/h.]]></desc>
</trkpt>
<trkpt lat="36.780712" lon="137.814766">
<ele>2193.008643</ele>
<time>2014-08-19T02:48:51Z</time>
<desc><![CDATA[lat.=36.780712, lon.=137.814766, Alt.=2193.008643m. Speed=4.000000m/h.]]></desc>
</trkpt>
<trkpt lat="36.780690" lon="137.814813">
<ele>2191.379253</ele>
<time>2014-08-19T02:48:56Z</time>
<desc><![CDATA[lat.=36.780690, lon.=137.814813, Alt.=2191.379253m. Speed=3.000000m/h.]]></desc>
</trkpt>
<trkpt lat="36.780667" lon="137.814861">
<ele>2189.749866</ele>
<time>2014-08-19T02:49:01Z</time>
<desc><![CDATA[lat.=36.780667, lon.=137.814861, Alt.=2189.749866m. Speed=4.000000m/h.]]></desc>
</trkpt>
<trkpt lat="36.780651" lon="137.814924">
<ele>2188.774862</ele>
<time>2014-08-19T02:49:06Z</time>
<desc><![CDATA[lat.=36.780651, lon.=137.814924, Alt.=2188.774862m. Speed=4.000000m/h.]]></desc>
</trkpt>
<trkpt lat="36.780624" lon="137.814979">
<ele>2187.738960</ele>
<time>2014-08-19T02:49:11Z</time>
<desc><![CDATA[lat.=36.780624, lon.=137.814979, Alt.=2187.738960m. Speed=4.000000m/h.]]></desc>
</trkpt>
<trkpt lat="36.780612" lon="137.815035">
<ele>2186.170490</ele>
<time>2014-08-19T02:49:16Z</time>
<desc><![CDATA[lat.=36.780612, lon.=137.815035, Alt.=2186.170490m. Speed=4.000000m/h.]]></desc>
</trkpt>
<trkpt lat="36.780593" lon="137.815090">
<ele>2185.733350</ele>
<time>2014-08-19T02:49:21Z</time>
<desc><![CDATA[lat.=36.780593, lon.=137.815090, Alt.=2185.733350m. Speed=4.000000m/h.]]></desc>
</trkpt>
<trkpt lat="36.780570" lon="137.815121">
<ele>2185.778431</ele>
<time>2014-08-19T02:49:26Z</time>
<desc><![CDATA[lat.=36.780570, lon.=137.815121, Alt.=2185.778431m. Speed=3.000000m/h.]]></desc>
</trkpt>
<trkpt lat="36.780551" lon="137.815144">
<ele>2185.230036</ele>
<time>2014-08-19T02:49:31Z</time>
<desc><![CDATA[lat.=36.780551, lon.=137.815144, Alt.=2185.230036m. Speed=3.000000m/h.]]></desc>
</trkpt>
<trkpt lat="36.780547" lon="137.815152">
<ele>2184.093437</ele>
<time>2014-08-19T02:49:36Z</time>
<desc><![CDATA[lat.=36.780547, lon.=137.815152, Alt.=2184.093437m. Speed=0.000000m/h.]]></desc>
</trkpt>
<trkpt lat="36.780540" lon="137.815152">
<ele>2183.494685</ele>
<time>2014-08-19T02:49:42Z</time>
<desc><![CDATA[lat.=36.780540, lon.=137.815152, Alt.=2183.494685m. Speed=0.000000m/h.]]></desc>
</trkpt>
<trkpt lat="36.780548" lon="137.815153">
<ele>2182.363359</ele>
<time>2014-08-19T02:49:47Z</time>
<desc><![CDATA[lat.=36.780548, lon.=137.815153, Alt.=2182.363359m. Speed=0.000000m/h.]]></desc>
</trkpt>
<trkpt lat="36.780536" lon="137.815192">
<ele>2182.469349</ele>
<time>2014-08-19T02:49:52Z</time>
<desc><![CDATA[lat.=36.780536, lon.=137.815192, Alt.=2182.469349m. Speed=3.000000m/h.]]></desc>
</trkpt>
<trkpt lat="36.780520" lon="137.815239">
<ele>2183.168820</ele>
<time>2014-08-19T02:49:57Z</time>
<desc><![CDATA[lat.=36.780520, lon.=137.815239, Alt.=2183.168820m. Speed=3.000000m/h.]]></desc>
</trkpt>
<trkpt lat="36.780508" lon="137.815295">
<ele>2181.600371</ele>
<time>2014-08-19T02:50:02Z</time>
<desc><![CDATA[lat.=36.780508, lon.=137.815295, Alt.=2181.600371m. Speed=3.000000m/h.]]></desc>
</trkpt>
<trkpt lat="36.780488" lon="137.815349">
<ele>2182.893330</ele>
<time>2014-08-19T02:50:07Z</time>
<desc><![CDATA[lat.=36.780488, lon.=137.815349, Alt.=2182.893330m. Speed=4.000000m/h.]]></desc>
</trkpt>
<trkpt lat="36.780461" lon="137.815404">
<ele>2181.857465</ele>
<time>2014-08-19T02:50:12Z</time>
<desc><![CDATA[lat.=36.780461, lon.=137.815404, Alt.=2181.857465m. Speed=4.000000m/h.]]></desc>
</trkpt>
<trkpt lat="36.780407" lon="137.815378">
<ele>2181.608579</ele>
<time>2014-08-19T02:50:17Z</time>
<desc><![CDATA[lat.=36.780407, lon.=137.815378, Alt.=2181.608579m. Speed=4.000000m/h.]]></desc>
</trkpt>
<trkpt lat="36.780359" lon="137.815385">
<ele>2180.339642</ele>
<time>2014-08-19T02:50:22Z</time>
<desc><![CDATA[lat.=36.780359, lon.=137.815385, Alt.=2180.339642m. Speed=3.000000m/h.]]></desc>
</trkpt>
<trkpt lat="36.780321" lon="137.815415">
<ele>2180.917324</ele>
<time>2014-08-19T02:50:27Z</time>
<desc><![CDATA[lat.=36.780321, lon.=137.815415, Alt.=2180.917324m. Speed=4.000000m/h.]]></desc>
</trkpt>
<trkpt lat="36.780289" lon="137.815423">
<ele>2179.115814</ele>
<time>2014-08-19T02:50:32Z</time>
<desc><![CDATA[lat.=36.780289, lon.=137.815423, Alt.=2179.115814m. Speed=3.000000m/h.]]></desc>
</trkpt>
<trkpt lat="36.780237" lon="137.815421">
<ele>2178.384735</ele>
<time>2014-08-19T02:50:37Z</time>
<desc><![CDATA[lat.=36.780237, lon.=137.815421, Alt.=2178.384735m. Speed=3.000000m/h.]]></desc>
</trkpt>
<trkpt lat="36.780198" lon="137.815396">
<ele>2177.603287</ele>
<time>2014-08-19T02:50:42Z</time>
<desc><![CDATA[lat.=36.780198, lon.=137.815396, Alt.=2177.603287m. Speed=3.000000m/h.]]></desc>
</trkpt>
<trkpt lat="36.780164" lon="137.815403">
<ele>2177.531862</ele>
<time>2014-08-19T02:50:47Z</time>
<desc><![CDATA[lat.=36.780164, lon.=137.815403, Alt.=2177.531862m. Speed=3.000000m/h.]]></desc>
</trkpt>
<trkpt lat="36.780139" lon="137.815410">
<ele>2176.329107</ele>
<time>2014-08-19T02:50:52Z</time>
<desc><![CDATA[lat.=36.780139, lon.=137.815410, Alt.=2176.329107m. Speed=2.000000m/h.]]></desc>
</trkpt>
<trkpt lat="36.780098" lon="137.815433">
<ele>2175.714577</ele>
<time>2014-08-19T02:50:57Z</time>
<desc><![CDATA[lat.=36.780098, lon.=137.815433, Alt.=2175.714577m. Speed=3.000000m/h.]]></desc>
</trkpt>
<trkpt lat="36.780054" lon="137.815431">
<ele>2175.582262</ele>
<time>2014-08-19T02:51:02Z</time>
<desc><![CDATA[lat.=36.780054, lon.=137.815431, Alt.=2175.582262m. Speed=3.000000m/h.]]></desc>
</trkpt>
<trkpt lat="36.780003" lon="137.815414">
<ele>2174.795569</ele>
<time>2014-08-19T02:51:07Z</time>
<desc><![CDATA[lat.=36.780003, lon.=137.815414, Alt.=2174.795569m. Speed=3.000000m/h.]]></desc>
</trkpt>
<trkpt lat="36.779971" lon="137.815407">
<ele>2171.208365</ele>
<time>2014-08-19T02:51:12Z</time>
<desc><![CDATA[lat.=36.779971, lon.=137.815407, Alt.=2171.208365m. Speed=3.000000m/h.]]></desc>
</trkpt>
<trkpt lat="36.779926" lon="137.815421">
<ele>2171.131697</ele>
<time>2014-08-19T02:51:17Z</time>
<desc><![CDATA[lat.=36.779926, lon.=137.815421, Alt.=2171.131697m. Speed=3.000000m/h.]]></desc>
</trkpt>
<trkpt lat="36.779878" lon="137.815411">
<ele>2171.537245</ele>
<time>2014-08-19T02:51:22Z</time>
<desc><![CDATA[lat.=36.779878, lon.=137.815411, Alt.=2171.537245m. Speed=3.000000m/h.]]></desc>
</trkpt>
<trkpt lat="36.779835" lon="137.815378">
<ele>2171.293676</ele>
<time>2014-08-19T02:51:27Z</time>
<desc><![CDATA[lat.=36.779835, lon.=137.815378, Alt.=2171.293676m. Speed=3.000000m/h.]]></desc>
</trkpt>
<trkpt lat="36.779817" lon="137.815369">
<ele>2170.634043</ele>
<time>2014-08-19T02:51:32Z</time>
<desc><![CDATA[lat.=36.779817, lon.=137.815369, Alt.=2170.634043m. Speed=3.000000m/h.]]></desc>
</trkpt>
<trkpt lat="36.779799" lon="137.815377">
<ele>2170.030046</ele>
<time>2014-08-19T02:51:37Z</time>
<desc><![CDATA[lat.=36.779799, lon.=137.815377, Alt.=2170.030046m. Speed=0.000000m/h.]]></desc>
</trkpt>
<trkpt lat="36.779781" lon="137.815369">
<ele>2169.370414</ele>
<time>2014-08-19T02:51:42Z</time>
<desc><![CDATA[lat.=36.779781, lon.=137.815369, Alt.=2169.370414m. Speed=2.000000m/h.]]></desc>
</trkpt>
<trkpt lat="36.779748" lon="137.815345">
<ele>2167.457667</ele>
<time>2014-08-19T02:51:47Z</time>
<desc><![CDATA[lat.=36.779748, lon.=137.815345, Alt.=2167.457667m. Speed=3.000000m/h.]]></desc>
</trkpt>
<trkpt lat="36.779720" lon="137.815345">
<ele>2165.062705</ele>
<time>2014-08-19T02:51:52Z</time>
<desc><![CDATA[lat.=36.779720, lon.=137.815345, Alt.=2165.062705m. Speed=3.000000m/h.]]></desc>
</trkpt>
<trkpt lat="36.779679" lon="137.815335">
<ele>2166.067013</ele>
<time>2014-08-19T02:51:57Z</time>
<desc><![CDATA[lat.=36.779679, lon.=137.815335, Alt.=2166.067013m. Speed=3.000000m/h.]]></desc>
</trkpt>
<trkpt lat="36.779629" lon="137.815302">
<ele>2163.494647</ele>
<time>2014-08-19T02:52:02Z</time>
<desc><![CDATA[lat.=36.779629, lon.=137.815302, Alt.=2163.494647m. Speed=4.000000m/h.]]></desc>
</trkpt>
<trkpt lat="36.779597" lon="137.815262">
<ele>2161.526277</ele>
<time>2014-08-19T02:52:07Z</time>
<desc><![CDATA[lat.=36.779597, lon.=137.815262, Alt.=2161.526277m. Speed=4.000000m/h.]]></desc>
</trkpt>
<trkpt lat="36.779565" lon="137.815237">
<ele>2161.343621</ele>
<time>2014-08-19T02:52:12Z</time>
<desc><![CDATA[lat.=36.779565, lon.=137.815237, Alt.=2161.343621m. Speed=3.000000m/h.]]></desc>
</trkpt>
<trkpt lat="36.779517" lon="137.815195">
<ele>2163.368018</ele>
<time>2014-08-19T02:52:17Z</time>
<desc><![CDATA[lat.=36.779517, lon.=137.815195, Alt.=2163.368018m. Speed=4.000000m/h.]]></desc>
</trkpt>
<trkpt lat="36.779482" lon="137.815163">
<ele>2161.993147</ele>
<time>2014-08-19T02:52:22Z</time>
<desc><![CDATA[lat.=36.779482, lon.=137.815163, Alt.=2161.993147m. Speed=3.000000m/h.]]></desc>
</trkpt>
<trkpt lat="36.779453" lon="137.815130">
<ele>2161.217015</ele>
<time>2014-08-19T02:52:27Z</time>
<desc><![CDATA[lat.=36.779453, lon.=137.815130, Alt.=2161.217015m. Speed=4.000000m/h.]]></desc>
</trkpt>
<trkpt lat="36.779417" lon="137.815114">
<ele>2159.897782</ele>
<time>2014-08-19T02:52:32Z</time>
<desc><![CDATA[lat.=36.779417, lon.=137.815114, Alt.=2159.897782m. Speed=3.000000m/h.]]></desc>
</trkpt>
<trkpt lat="36.779377" lon="137.815105">
<ele>2159.172038</ele>
<time>2014-08-19T02:52:37Z</time>
<desc><![CDATA[lat.=36.779377, lon.=137.815105, Alt.=2159.172038m. Speed=3.000000m/h.]]></desc>
</trkpt>
<trkpt lat="36.779355" lon="137.815088">
<ele>2159.050280</ele>
<time>2014-08-19T02:52:42Z</time>
<desc><![CDATA[lat.=36.779355, lon.=137.815088, Alt.=2159.050280m. Speed=2.000000m/h.]]></desc>
</trkpt>
<trkpt lat="36.779334" lon="137.815072">
<ele>2158.928523</ele>
<time>2014-08-19T02:52:47Z</time>
<desc><![CDATA[lat.=36.779334, lon.=137.815072, Alt.=2158.928523m. Speed=2.000000m/h.]]></desc>
</trkpt>
<trkpt lat="36.779330" lon="137.815064">
<ele>2157.736302</ele>
<time>2014-08-19T02:52:52Z</time>
<desc><![CDATA[lat.=36.779330, lon.=137.815064, Alt.=2157.736302m. Speed=2.000000m/h.]]></desc>
</trkpt>
<trkpt lat="36.779305" lon="137.815056">
<ele>2156.477955</ele>
<time>2014-08-19T02:52:57Z</time>
<desc><![CDATA[lat.=36.779305, lon.=137.815056, Alt.=2156.477955m. Speed=1.000000m/h.]]></desc>
</trkpt>
<trkpt lat="36.779305" lon="137.815056">
<ele>2154.747877</ele>
<time>2014-08-19T02:53:02Z</time>
<desc><![CDATA[lat.=36.779305, lon.=137.815056, Alt.=2154.747877m. Speed=0.000000m/h.]]></desc>
</trkpt>
<trkpt lat="36.779298" lon="137.815056">
<ele>2154.149142</ele>
<time>2014-08-19T02:53:07Z</time>
<desc><![CDATA[lat.=36.779298, lon.=137.815056, Alt.=2154.149142m. Speed=0.000000m/h.]]></desc>
</trkpt>
<trkpt lat="36.779284" lon="137.815041">
<ele>2152.896044</ele>
<time>2014-08-19T02:53:12Z</time>
<desc><![CDATA[lat.=36.779284, lon.=137.815041, Alt.=2152.896044m. Speed=2.000000m/h.]]></desc>
</trkpt>
<trkpt lat="36.779269" lon="137.815040">
<ele>2153.428655</ele>
<time>2014-08-19T02:53:17Z</time>
<desc><![CDATA[lat.=36.779269, lon.=137.815040, Alt.=2153.428655m. Speed=0.000000m/h.]]></desc>
</trkpt>
<trkpt lat="36.779273" lon="137.815032">
<ele>2152.835168</ele>
<time>2014-08-19T02:53:22Z</time>
<desc><![CDATA[lat.=36.779273, lon.=137.815032, Alt.=2152.835168m. Speed=0.000000m/h.]]></desc>
</trkpt>
<trkpt lat="36.779266" lon="137.815032">
<ele>2152.236434</ele>
<time>2014-08-19T02:53:27Z</time>
<desc><![CDATA[lat.=36.779266, lon.=137.815032, Alt.=2152.236434m. Speed=0.000000m/h.]]></desc>
</trkpt>
<trkpt lat="36.779255" lon="137.815024">
<ele>2152.175558</ele>
<time>2014-08-19T02:53:32Z</time>
<desc><![CDATA[lat.=36.779255, lon.=137.815024, Alt.=2152.175558m. Speed=0.000000m/h.]]></desc>
</trkpt>
<trkpt lat="36.779244" lon="137.815016">
<ele>2152.114682</ele>
<time>2014-08-19T02:53:37Z</time>
<desc><![CDATA[lat.=36.779244, lon.=137.815016, Alt.=2152.114682m. Speed=1.000000m/h.]]></desc>
</trkpt>
<trkpt lat="36.779218" lon="137.815023">
<ele>2152.642048</ele>
<time>2014-08-19T02:53:42Z</time>
<desc><![CDATA[lat.=36.779218, lon.=137.815023, Alt.=2152.642048m. Speed=2.000000m/h.]]></desc>
</trkpt>
<trkpt lat="36.779196" lon="137.815038">
<ele>2152.631557</ele>
<time>2014-08-19T02:53:47Z</time>
<desc><![CDATA[lat.=36.779196, lon.=137.815038, Alt.=2152.631557m. Speed=1.000000m/h.]]></desc>
</trkpt>
<trkpt lat="36.779181" lon="137.815037">
<ele>2153.164171</ele>
<time>2014-08-19T02:53:52Z</time>
<desc><![CDATA[lat.=36.779181, lon.=137.815037, Alt.=2153.164171m. Speed=0.000000m/h.]]></desc>
</trkpt>
<trkpt lat="36.779177" lon="137.815044">
<ele>2153.757658</ele>
<time>2014-08-19T02:53:57Z</time>
<desc><![CDATA[lat.=36.779177, lon.=137.815044, Alt.=2153.757658m. Speed=0.000000m/h.]]></desc>
</trkpt>
<trkpt lat="36.779170" lon="137.815061">
<ele>2151.484477</ele>
<time>2014-08-19T02:54:02Z</time>
<desc><![CDATA[lat.=36.779170, lon.=137.815061, Alt.=2151.484477m. Speed=2.000000m/h.]]></desc>
</trkpt>
<trkpt lat="36.779151" lon="137.815084">
<ele>2150.936131</ele>
<time>2014-08-19T02:54:07Z</time>
<desc><![CDATA[lat.=36.779151, lon.=137.815084, Alt.=2150.936131m. Speed=2.000000m/h.]]></desc>
</trkpt>
<trkpt lat="36.779122" lon="137.815100">
<ele>2148.596834</ele>
<time>2014-08-19T02:54:12Z</time>
<desc><![CDATA[lat.=36.779122, lon.=137.815100, Alt.=2148.596834m. Speed=2.000000m/h.]]></desc>
</trkpt>
<trkpt lat="36.779093" lon="137.815116">
<ele>2146.257539</ele>
<time>2014-08-19T02:54:17Z</time>
<desc><![CDATA[lat.=36.779093, lon.=137.815116, Alt.=2146.257539m. Speed=2.000000m/h.]]></desc>
</trkpt>
<trkpt lat="36.779070" lon="137.815163">
<ele>2144.628241</ele>
<time>2014-08-19T02:54:22Z</time>
<desc><![CDATA[lat.=36.779070, lon.=137.815163, Alt.=2144.628241m. Speed=3.000000m/h.]]></desc>
</trkpt>
<trkpt lat="36.779069" lon="137.815212">
<ele>2143.065060</ele>
<time>2014-08-19T02:54:27Z</time>
<desc><![CDATA[lat.=36.779069, lon.=137.815212, Alt.=2143.065060m. Speed=3.000000m/h.]]></desc>
</trkpt>
<trkpt lat="36.779091" lon="137.815245">
<ele>2141.512364</ele>
<time>2014-08-19T02:54:32Z</time>
<desc><![CDATA[lat.=36.779091, lon.=137.815245, Alt.=2141.512364m. Speed=2.000000m/h.]]></desc>
</trkpt>
<trkpt lat="36.779083" lon="137.815276">
<ele>2141.024901</ele>
<time>2014-08-19T02:54:37Z</time>
<desc><![CDATA[lat.=36.779083, lon.=137.815276, Alt.=2141.024901m. Speed=2.000000m/h.]]></desc>
</trkpt>
<trkpt lat="36.779064" lon="137.815300">
<ele>2140.476565</ele>
<time>2014-08-19T02:54:42Z</time>
<desc><![CDATA[lat.=36.779064, lon.=137.815300, Alt.=2140.476565m. Speed=2.000000m/h.]]></desc>
</trkpt>
<trkpt lat="36.779049" lon="137.815316">
<ele>2139.334738</ele>
<time>2014-08-19T02:54:47Z</time>
<desc><![CDATA[lat.=36.779049, lon.=137.815316, Alt.=2139.334738m. Speed=2.000000m/h.]]></desc>
</trkpt>
<trkpt lat="36.779039" lon="137.815324">
<ele>2137.599420</ele>
<time>2014-08-19T02:54:52Z</time>
<desc><![CDATA[lat.=36.779039, lon.=137.815324, Alt.=2137.599420m. Speed=2.000000m/h.]]></desc>
</trkpt>
<trkpt lat="36.779027" lon="137.815348">
<ele>2135.919739</ele>
<time>2014-08-19T02:54:57Z</time>
<desc><![CDATA[lat.=36.779027, lon.=137.815348, Alt.=2135.919739m. Speed=2.000000m/h.]]></desc>
</trkpt>
<trkpt lat="36.779016" lon="137.815371">
<ele>2135.970137</ele>
<time>2014-08-19T02:55:02Z</time>
<desc><![CDATA[lat.=36.779016, lon.=137.815371, Alt.=2135.970137m. Speed=2.000000m/h.]]></desc>
</trkpt>
<trkpt lat="36.779011" lon="137.815395">
<ele>2136.619266</ele>
<time>2014-08-19T02:55:07Z</time>
<desc><![CDATA[lat.=36.779011, lon.=137.815395, Alt.=2136.619266m. Speed=0.000000m/h.]]></desc>
</trkpt>
<trkpt lat="36.779007" lon="137.815402">
<ele>2137.212758</ele>
<time>2014-08-19T02:55:12Z</time>
<desc><![CDATA[lat.=36.779007, lon.=137.815402, Alt.=2137.212758m. Speed=0.000000m/h.]]></desc>
</trkpt>
<trkpt lat="36.779018" lon="137.815410">
<ele>2137.273633</ele>
<time>2014-08-19T02:55:17Z</time>
<desc><![CDATA[lat.=36.779018, lon.=137.815410, Alt.=2137.273633m. Speed=0.000000m/h.]]></desc>
</trkpt>
<trkpt lat="36.779018" lon="137.815427">
<ele>2135.599192</ele>
<time>2014-08-19T02:55:22Z</time>
<desc><![CDATA[lat.=36.779018, lon.=137.815427, Alt.=2135.599192m. Speed=1.000000m/h.]]></desc>
</trkpt>
<trkpt lat="36.778996" lon="137.815442">
<ele>2135.588718</ele>
<time>2014-08-19T02:55:27Z</time>
<desc><![CDATA[lat.=36.778996, lon.=137.815442, Alt.=2135.588718m. Speed=2.000000m/h.]]></desc>
</trkpt>
<trkpt lat="36.778970" lon="137.815465">
<ele>2134.441660</ele>
<time>2014-08-19T02:55:32Z</time>
<desc><![CDATA[lat.=36.778970, lon.=137.815465, Alt.=2134.441660m. Speed=2.000000m/h.]]></desc>
</trkpt>
<trkpt lat="36.778947" lon="137.815480">
<ele>2134.431188</ele>
<time>2014-08-19T02:55:37Z</time>
<desc><![CDATA[lat.=36.778947, lon.=137.815480, Alt.=2134.431188m. Speed=2.000000m/h.]]></desc>
</trkpt>
<trkpt lat="36.778933" lon="137.815513">
<ele>2131.614929</ele>
<time>2014-08-19T02:55:42Z</time>
<desc><![CDATA[lat.=36.778933, lon.=137.815513, Alt.=2131.614929m. Speed=2.000000m/h.]]></desc>
</trkpt>
<trkpt lat="36.778944" lon="137.815554">
<ele>2128.326926</ele>
<time>2014-08-19T02:55:47Z</time>
<desc><![CDATA[lat.=36.778944, lon.=137.815554, Alt.=2128.326926m. Speed=3.000000m/h.]]></desc>
</trkpt>
<trkpt lat="36.778961" lon="137.815595">
<ele>2127.367733</ele>
<time>2014-08-19T02:55:52Z</time>
<desc><![CDATA[lat.=36.778961, lon.=137.815595, Alt.=2127.367733m. Speed=3.000000m/h.]]></desc>
</trkpt>
<trkpt lat="36.778968" lon="137.815643">
<ele>2126.403309</ele>
<time>2014-08-19T02:55:57Z</time>
<desc><![CDATA[lat.=36.778968, lon.=137.815643, Alt.=2126.403309m. Speed=3.000000m/h.]]></desc>
</trkpt>
<trkpt lat="36.778996" lon="137.815676">
<ele>2127.179434</ele>
<time>2014-08-19T02:56:02Z</time>
<desc><![CDATA[lat.=36.778996, lon.=137.815676, Alt.=2127.179434m. Speed=3.000000m/h.]]></desc>
</trkpt>
<trkpt lat="36.779006" lon="137.815716">
<ele>2127.351597</ele>
<time>2014-08-19T02:56:07Z</time>
<desc><![CDATA[lat.=36.779006, lon.=137.815716, Alt.=2127.351597m. Speed=3.000000m/h.]]></desc>
</trkpt>
<trkpt lat="36.779002" lon="137.815771">
<ele>2126.381946</ele>
<time>2014-08-19T02:56:12Z</time>
<desc><![CDATA[lat.=36.779002, lon.=137.815771, Alt.=2126.381946m. Speed=3.000000m/h.]]></desc>
</trkpt>
<trkpt lat="36.778994" lon="137.815804">
<ele>2124.164427</ele>
<time>2014-08-19T02:56:17Z</time>
<desc><![CDATA[lat.=36.778994, lon.=137.815804, Alt.=2124.164427m. Speed=3.000000m/h.]]></desc>
</trkpt>
<trkpt lat="36.778972" lon="137.815835">
<ele>2122.479528</ele>
<time>2014-08-19T02:56:22Z</time>
<desc><![CDATA[lat.=36.778972, lon.=137.815835, Alt.=2122.479528m. Speed=3.000000m/h.]]></desc>
</trkpt>
<trkpt lat="36.778949" lon="137.815883">
<ele>2120.850278</ele>
<time>2014-08-19T02:56:27Z</time>
<desc><![CDATA[lat.=36.778949, lon.=137.815883, Alt.=2120.850278m. Speed=3.000000m/h.]]></desc>
</trkpt>
<trkpt lat="36.778974" lon="137.815924">
<ele>2118.759754</ele>
<time>2014-08-19T02:56:32Z</time>
<desc><![CDATA[lat.=36.778974, lon.=137.815924, Alt.=2118.759754m. Speed=3.000000m/h.]]></desc>
</trkpt>
<trkpt lat="36.778959" lon="137.815972">
<ele>2117.729238</ele>
<time>2014-08-19T02:56:37Z</time>
<desc><![CDATA[lat.=36.778959, lon.=137.815972, Alt.=2117.729238m. Speed=3.000000m/h.]]></desc>
</trkpt>
<trkpt lat="36.778940" lon="137.815995">
<ele>2117.180926</ele>
<time>2014-08-19T02:56:42Z</time>
<desc><![CDATA[lat.=36.778940, lon.=137.815995, Alt.=2117.180926m. Speed=3.000000m/h.]]></desc>
</trkpt>
<trkpt lat="36.778921" lon="137.816019">
<ele>2116.632616</ele>
<time>2014-08-19T02:56:47Z</time>
<desc><![CDATA[lat.=36.778921, lon.=137.816019, Alt.=2116.632616m. Speed=2.000000m/h.]]></desc>
</trkpt>
<trkpt lat="36.778902" lon="137.816042">
<ele>2116.084307</ele>
<time>2014-08-19T02:56:52Z</time>
<desc><![CDATA[lat.=36.778902, lon.=137.816042, Alt.=2116.084307m. Speed=2.000000m/h.]]></desc>
</trkpt>
<trkpt lat="36.778887" lon="137.816073">
<ele>2114.998150</ele>
<time>2014-08-19T02:56:57Z</time>
<desc><![CDATA[lat.=36.778887, lon.=137.816073, Alt.=2114.998150m. Speed=2.000000m/h.]]></desc>
</trkpt>
<trkpt lat="36.778893" lon="137.816121">
<ele>2115.763831</ele>
<time>2014-08-19T02:57:02Z</time>
<desc><![CDATA[lat.=36.778893, lon.=137.816121, Alt.=2115.763831m. Speed=3.000000m/h.]]></desc>
</trkpt>
<trkpt lat="36.778903" lon="137.816177">
<ele>2114.261589</ele>
<time>2014-08-19T02:57:07Z</time>
<desc><![CDATA[lat.=36.778903, lon.=137.816177, Alt.=2114.261589m. Speed=3.000000m/h.]]></desc>
</trkpt>
<trkpt lat="36.778874" lon="137.816193">
<ele>2113.652405</ele>
<time>2014-08-19T02:57:12Z</time>
<desc><![CDATA[lat.=36.778874, lon.=137.816193, Alt.=2113.652405m. Speed=2.000000m/h.]]></desc>
</trkpt>
<trkpt lat="36.778855" lon="137.816216">
<ele>2113.104103</ele>
<time>2014-08-19T02:57:17Z</time>
<desc><![CDATA[lat.=36.778855, lon.=137.816216, Alt.=2113.104103m. Speed=2.000000m/h.]]></desc>
</trkpt>
<trkpt lat="36.778811" lon="137.816215">
<ele>2111.241814</ele>
<time>2014-08-19T02:57:22Z</time>
<desc><![CDATA[lat.=36.778811, lon.=137.816215, Alt.=2111.241814m. Speed=3.000000m/h.]]></desc>
</trkpt>
<trkpt lat="36.778790" lon="137.816199">
<ele>2109.389979</ele>
<time>2014-08-19T02:57:27Z</time>
<desc><![CDATA[lat.=36.778790, lon.=137.816199, Alt.=2109.389979m. Speed=2.000000m/h.]]></desc>
</trkpt>
<trkpt lat="36.778775" lon="137.816214">
<ele>2109.978256</ele>
<time>2014-08-19T02:57:32Z</time>
<desc><![CDATA[lat.=36.778775, lon.=137.816214, Alt.=2109.978256m. Speed=2.000000m/h.]]></desc>
</trkpt>
<trkpt lat="36.778775" lon="137.816231">
<ele>2108.303832</ele>
<time>2014-08-19T02:57:37Z</time>
<desc><![CDATA[lat.=36.778775, lon.=137.816231, Alt.=2108.303832m. Speed=1.000000m/h.]]></desc>
</trkpt>
<trkpt lat="36.778774" lon="137.816263">
<ele>2106.685062</ele>
<time>2014-08-19T02:57:42Z</time>
<desc><![CDATA[lat.=36.778774, lon.=137.816263, Alt.=2106.685062m. Speed=2.000000m/h.]]></desc>
</trkpt>
<trkpt lat="36.778769" lon="137.816302">
<ele>2109.119951</ele>
<time>2014-08-19T02:57:47Z</time>
<desc><![CDATA[lat.=36.778769, lon.=137.816302, Alt.=2109.119951m. Speed=2.000000m/h.]]></desc>
</trkpt>
<trkpt lat="36.778802" lon="137.816344">
<ele>2105.898090</ele>
<time>2014-08-19T02:57:52Z</time>
<desc><![CDATA[lat.=36.778802, lon.=137.816344, Alt.=2105.898090m. Speed=3.000000m/h.]]></desc>
</trkpt>
<trkpt lat="36.778843" lon="137.816354">
<ele>2104.893725</ele>
<time>2014-08-19T02:57:57Z</time>
<desc><![CDATA[lat.=36.778843, lon.=137.816354, Alt.=2104.893725m. Speed=3.000000m/h.]]></desc>
</trkpt>
<trkpt lat="36.778868" lon="137.816362">
<ele>2106.152063</ele>
<time>2014-08-19T02:58:02Z</time>
<desc><![CDATA[lat.=36.778868, lon.=137.816362, Alt.=2106.152063m. Speed=3.000000m/h.]]></desc>
</trkpt>
<trkpt lat="36.778856" lon="137.816419">
<ele>2102.853652</ele>
<time>2014-08-19T02:58:07Z</time>
<desc><![CDATA[lat.=36.778856, lon.=137.816419, Alt.=2102.853652m. Speed=2.000000m/h.]]></desc>
</trkpt>
<trkpt lat="36.778871" lon="137.816468">
<ele>2100.757926</ele>
<time>2014-08-19T02:58:12Z</time>
<desc><![CDATA[lat.=36.778871, lon.=137.816468, Alt.=2100.757926m. Speed=3.000000m/h.]]></desc>
</trkpt>
<trkpt lat="36.778876" lon="137.816481">
<ele>2106.602546</ele>
<time>2014-08-19T02:58:17Z</time>
<desc><![CDATA[lat.=36.778876, lon.=137.816481, Alt.=2106.602546m. Speed=2.000000m/h.]]></desc>
</trkpt>
<trkpt lat="36.778872" lon="137.816489">
<ele>2107.196049</ele>
<time>2014-08-19T02:58:22Z</time>
<desc><![CDATA[lat.=36.778872, lon.=137.816489, Alt.=2107.196049m. Speed=0.000000m/h.]]></desc>
</trkpt>
<trkpt lat="36.778875" lon="137.816496">
<ele>2108.388282</ele>
<time>2014-08-19T02:58:27Z</time>
<desc><![CDATA[lat.=36.778875, lon.=137.816496, Alt.=2108.388282m. Speed=0.000000m/h.]]></desc>
</trkpt>
<trkpt lat="36.778883" lon="137.816496">
<ele>2108.987010</ele>
<time>2014-08-19T02:58:32Z</time>
<desc><![CDATA[lat.=36.778883, lon.=137.816496, Alt.=2108.987010m. Speed=0.000000m/h.]]></desc>
</trkpt>
<trkpt lat="36.778908" lon="137.816505">
<ele>2108.515273</ele>
<time>2014-08-19T02:58:37Z</time>
<desc><![CDATA[lat.=36.778908, lon.=137.816505, Alt.=2108.515273m. Speed=2.000000m/h.]]></desc>
</trkpt>
<trkpt lat="36.778927" lon="137.816498">
<ele>2107.389150</ele>
<time>2014-08-19T02:58:42Z</time>
<desc><![CDATA[lat.=36.778927, lon.=137.816498, Alt.=2107.389150m. Speed=0.000000m/h.]]></desc>
</trkpt>
<trkpt lat="36.778927" lon="137.816514">
<ele>2107.444809</ele>
<time>2014-08-19T02:58:47Z</time>
<desc><![CDATA[lat.=36.778927, lon.=137.816514, Alt.=2107.444809m. Speed=0.000000m/h.]]></desc>
</trkpt>
<trkpt lat="36.778938" lon="137.816523">
<ele>2105.775616</ele>
<time>2014-08-19T02:58:52Z</time>
<desc><![CDATA[lat.=36.778938, lon.=137.816523, Alt.=2105.775616m. Speed=1.000000m/h.]]></desc>
</trkpt>
<trkpt lat="36.778949" lon="137.816548">
<ele>2104.162083</ele>
<time>2014-08-19T02:58:57Z</time>
<desc><![CDATA[lat.=36.778949, lon.=137.816548, Alt.=2104.162083m. Speed=2.000000m/h.]]></desc>
</trkpt>
<trkpt lat="36.778945" lon="137.816557">
<ele>2103.025510</ele>
<time>2014-08-19T02:59:02Z</time>
<desc><![CDATA[lat.=36.778945, lon.=137.816557, Alt.=2103.025510m. Speed=0.000000m/h.]]></desc>
</trkpt>
<trkpt lat="36.778938" lon="137.816557">
<ele>2102.426780</ele>
<time>2014-08-19T02:59:07Z</time>
<desc><![CDATA[lat.=36.778938, lon.=137.816557, Alt.=2102.426780m. Speed=0.000000m/h.]]></desc>
</trkpt>
<trkpt lat="36.778967" lon="137.816573">
<ele>2103.147281</ele>
<time>2014-08-19T02:59:12Z</time>
<desc><![CDATA[lat.=36.778967, lon.=137.816573, Alt.=2103.147281m. Speed=2.000000m/h.]]></desc>
</trkpt>
<trkpt lat="36.778996" lon="137.816591">
<ele>2102.137706</ele>
<time>2014-08-19T02:59:17Z</time>
<desc><![CDATA[lat.=36.778996, lon.=137.816591, Alt.=2102.137706m. Speed=2.000000m/h.]]></desc>
</trkpt>
<trkpt lat="36.778989" lon="137.816606">
<ele>2101.594636</ele>
<time>2014-08-19T02:59:22Z</time>
<desc><![CDATA[lat.=36.778989, lon.=137.816606, Alt.=2101.594636m. Speed=0.000000m/h.]]></desc>
</trkpt>
<trkpt lat="36.778988" lon="137.816639">
<ele>2099.975881</ele>
<time>2014-08-19T02:59:27Z</time>
<desc><![CDATA[lat.=36.778988, lon.=137.816639, Alt.=2099.975881m. Speed=2.000000m/h.]]></desc>
</trkpt>
<trkpt lat="36.778991" lon="137.816679">
<ele>2099.549362</ele>
<time>2014-08-19T02:59:32Z</time>
<desc><![CDATA[lat.=36.778991, lon.=137.816679, Alt.=2099.549362m. Speed=2.000000m/h.]]></desc>
</trkpt>
<trkpt lat="36.778990" lon="137.816726">
<ele>2099.716351</ele>
<time>2014-08-19T02:59:37Z</time>
<desc><![CDATA[lat.=36.778990, lon.=137.816726, Alt.=2099.716351m. Speed=3.000000m/h.]]></desc>
</trkpt>
<trkpt lat="36.778974" lon="137.816774">
<ele>2098.685882</ele>
<time>2014-08-19T02:59:42Z</time>
<desc><![CDATA[lat.=36.778974, lon.=137.816774, Alt.=2098.685882m. Speed=3.000000m/h.]]></desc>
</trkpt>
<trkpt lat="36.778985" lon="137.816831">
<ele>2095.453610</ele>
<time>2014-08-19T02:59:47Z</time>
<desc><![CDATA[lat.=36.778985, lon.=137.816831, Alt.=2095.453610m. Speed=3.000000m/h.]]></desc>
</trkpt>
<trkpt lat="36.779002" lon="137.816887">
<ele>2094.550150</ele>
<time>2014-08-19T02:59:52Z</time>
<desc><![CDATA[lat.=36.779002, lon.=137.816887, Alt.=2094.550150m. Speed=4.000000m/h.]]></desc>
</trkpt>
<trkpt lat="36.779046" lon="137.816905">
<ele>2094.738045</ele>
<time>2014-08-19T02:59:57Z</time>
<desc><![CDATA[lat.=36.779046, lon.=137.816905, Alt.=2094.738045m. Speed=3.000000m/h.]]></desc>
</trkpt>
<trkpt lat="36.779053" lon="137.816954">
<ele>2092.043623</ele>
<time>2014-08-19T03:00:02Z</time>
<desc><![CDATA[lat.=36.779053, lon.=137.816954, Alt.=2092.043623m. Speed=3.000000m/h.]]></desc>
</trkpt>
<trkpt lat="36.779063" lon="137.817010">
<ele>2092.271520</ele>
<time>2014-08-19T03:00:07Z</time>
<desc><![CDATA[lat.=36.779063, lon.=137.817010, Alt.=2092.271520m. Speed=3.000000m/h.]]></desc>
</trkpt>
<trkpt lat="36.779043" lon="137.817049">
<ele>2091.778904</ele>
<time>2014-08-19T03:00:12Z</time>
<desc><![CDATA[lat.=36.779043, lon.=137.817049, Alt.=2091.778904m. Speed=3.000000m/h.]]></desc>
</trkpt>
<trkpt lat="36.779083" lon="137.817107">
<ele>2089.211501</ele>
<time>2014-08-19T03:00:17Z</time>
<desc><![CDATA[lat.=36.779083, lon.=137.817107, Alt.=2089.211501m. Speed=4.000000m/h.]]></desc>
</trkpt>
<trkpt lat="36.779105" lon="137.817140">
<ele>2087.658883</ele>
<time>2014-08-19T03:00:22Z</time>
<desc><![CDATA[lat.=36.779105, lon.=137.817140, Alt.=2087.658883m. Speed=3.000000m/h.]]></desc>
</trkpt>
<trkpt lat="36.779068" lon="137.817139">
<ele>2086.395304</ele>
<time>2014-08-19T03:00:27Z</time>
<desc><![CDATA[lat.=36.779068, lon.=137.817139, Alt.=2086.395304m. Speed=2.000000m/h.]]></desc>
</trkpt>
<trkpt lat="36.779028" lon="137.817145">
<ele>2087.455312</ele>
<time>2014-08-19T03:00:32Z</time>
<desc><![CDATA[lat.=36.779028, lon.=137.817145, Alt.=2087.455312m. Speed=2.000000m/h.]]></desc>
</trkpt>
<trkpt lat="36.778973" lon="137.817120">
<ele>2085.476445</ele>
<time>2014-08-19T03:00:37Z</time>
<desc><![CDATA[lat.=36.778973, lon.=137.817120, Alt.=2085.476445m. Speed=4.000000m/h.]]></desc>
</trkpt>
<trkpt lat="36.778938" lon="137.817073">
<ele>2082.315786</ele>
<time>2014-08-19T03:00:42Z</time>
<desc><![CDATA[lat.=36.778938, lon.=137.817073, Alt.=2082.315786m. Speed=4.000000m/h.]]></desc>
</trkpt>
<trkpt lat="36.778917" lon="137.817057">
<ele>2080.463929</ele>
<time>2014-08-19T03:00:47Z</time>
<desc><![CDATA[lat.=36.778917, lon.=137.817057, Alt.=2080.463929m. Speed=3.000000m/h.]]></desc>
</trkpt>
<trkpt lat="36.778896" lon="137.817025">
<ele>2080.286481</ele>
<time>2014-08-19T03:00:52Z</time>
<desc><![CDATA[lat.=36.778896, lon.=137.817025, Alt.=2080.286481m. Speed=3.000000m/h.]]></desc>
</trkpt>
<trkpt lat="36.778867" lon="137.817007">
<ele>2081.296052</ele>
<time>2014-08-19T03:00:57Z</time>
<desc><![CDATA[lat.=36.778867, lon.=137.817007, Alt.=2081.296052m. Speed=3.000000m/h.]]></desc>
</trkpt>
<trkpt lat="36.778822" lon="137.816989">
<ele>2082.838247</ele>
<time>2014-08-19T03:01:02Z</time>
<desc><![CDATA[lat.=36.778822, lon.=137.816989, Alt.=2082.838247m. Speed=3.000000m/h.]]></desc>
</trkpt>
<trkpt lat="36.778838" lon="137.816974">
<ele>2082.249957</ele>
<time>2014-08-19T03:01:07Z</time>
<desc><![CDATA[lat.=36.778838, lon.=137.816974, Alt.=2082.249957m. Speed=0.000000m/h.]]></desc>
</trkpt>
<trkpt lat="36.778838" lon="137.816975">
<ele>2080.519880</ele>
<time>2014-08-19T03:01:12Z</time>
<desc><![CDATA[lat.=36.778838, lon.=137.816975, Alt.=2080.519880m. Speed=0.000000m/h.]]></desc>
</trkpt>
<trkpt lat="36.778830" lon="137.816974">
<ele>2081.651229</ele>
<time>2014-08-19T03:01:17Z</time>
<desc><![CDATA[lat.=36.778830, lon.=137.816974, Alt.=2081.651229m. Speed=0.000000m/h.]]></desc>
</trkpt>
<trkpt lat="36.778823" lon="137.816973">
<ele>2082.782578</ele>
<time>2014-08-19T03:01:22Z</time>
<desc><![CDATA[lat.=36.778823, lon.=137.816973, Alt.=2082.782578m. Speed=0.000000m/h.]]></desc>
</trkpt>
<trkpt lat="36.778819" lon="137.816981">
<ele>2083.376087</ele>
<time>2014-08-19T03:01:27Z</time>
<desc><![CDATA[lat.=36.778819, lon.=137.816981, Alt.=2083.376087m. Speed=0.000000m/h.]]></desc>
</trkpt>
<trkpt lat="36.778823" lon="137.816973">
<ele>2082.782578</ele>
<time>2014-08-19T03:01:34Z</time>
<desc><![CDATA[lat.=36.778823, lon.=137.816973, Alt.=2082.782578m. Speed=0.000000m/h.]]></desc>
</trkpt>
<trkpt lat="36.778826" lon="137.816982">
<ele>2082.244738</ele>
<time>2014-08-19T03:01:51Z</time>
<desc><![CDATA[lat.=36.778826, lon.=137.816982, Alt.=2082.244738m. Speed=0.000000m/h.]]></desc>
</trkpt>
<trkpt lat="36.778822" lon="137.816989">
<ele>2082.838247</ele>
<time>2014-08-19T03:01:56Z</time>
<desc><![CDATA[lat.=36.778822, lon.=137.816989, Alt.=2082.838247m. Speed=0.000000m/h.]]></desc>
</trkpt>
<trkpt lat="36.778826" lon="137.816982">
<ele>2082.244738</ele>
<time>2014-08-19T03:02:21Z</time>
<desc><![CDATA[lat.=36.778826, lon.=137.816982, Alt.=2082.244738m. Speed=0.000000m/h.]]></desc>
</trkpt>
<trkpt lat="36.778823" lon="137.816973">
<ele>2082.782578</ele>
<time>2014-08-19T03:03:19Z</time>
<desc><![CDATA[lat.=36.778823, lon.=137.816973, Alt.=2082.782578m. Speed=0.000000m/h.]]></desc>
</trkpt>
<trkpt lat="36.778830" lon="137.816973">
<ele>2083.381306</ele>
<time>2014-08-19T03:03:27Z</time>
<desc><![CDATA[lat.=36.778830, lon.=137.816973, Alt.=2083.381306m. Speed=0.000000m/h.]]></desc>
</trkpt>
<trkpt lat="36.778823" lon="137.816973">
<ele>2082.782578</ele>
<time>2014-08-19T03:03:32Z</time>
<desc><![CDATA[lat.=36.778823, lon.=137.816973, Alt.=2082.782578m. Speed=0.000000m/h.]]></desc>
</trkpt>
<trkpt lat="36.778826" lon="137.816982">
<ele>2082.244738</ele>
<time>2014-08-19T03:03:38Z</time>
<desc><![CDATA[lat.=36.778826, lon.=137.816982, Alt.=2082.244738m. Speed=0.000000m/h.]]></desc>
</trkpt>
<trkpt lat="36.778819" lon="137.816982">
<ele>2081.646010</ele>
<time>2014-08-19T03:03:56Z</time>
<desc><![CDATA[lat.=36.778819, lon.=137.816982, Alt.=2081.646010m. Speed=1.000000m/h.]]></desc>
</trkpt>
<trkpt lat="36.778815" lon="137.816989">
<ele>2082.239519</ele>
<time>2014-08-19T03:04:03Z</time>
<desc><![CDATA[lat.=36.778815, lon.=137.816989, Alt.=2082.239519m. Speed=0.000000m/h.]]></desc>
</trkpt>
<trkpt lat="36.778793" lon="137.816988">
<ele>2082.173414</ele>
<time>2014-08-19T03:04:08Z</time>
<desc><![CDATA[lat.=36.778793, lon.=137.816988, Alt.=2082.173414m. Speed=1.000000m/h.]]></desc>
</trkpt>
<trkpt lat="36.778771" lon="137.817003">
<ele>2082.162979</ele>
<time>2014-08-19T03:04:13Z</time>
<desc><![CDATA[lat.=36.778771, lon.=137.817003, Alt.=2082.162979m. Speed=2.000000m/h.]]></desc>
</trkpt>
<trkpt lat="36.778739" lon="137.816979">
<ele>2080.250245</ele>
<time>2014-08-19T03:04:18Z</time>
<desc><![CDATA[lat.=36.778739, lon.=137.816979, Alt.=2080.250245m. Speed=3.000000m/h.]]></desc>
</trkpt>
<trkpt lat="36.778722" lon="137.816924">
<ele>2077.693553</ele>
<time>2014-08-19T03:04:23Z</time>
<desc><![CDATA[lat.=36.778722, lon.=137.816924, Alt.=2077.693553m. Speed=3.000000m/h.]]></desc>
</trkpt>
<trkpt lat="36.778693" lon="137.816924">
<ele>2075.298649</ele>
<time>2014-08-19T03:04:28Z</time>
<desc><![CDATA[lat.=36.778693, lon.=137.816924, Alt.=2075.298649m. Speed=2.000000m/h.]]></desc>
</trkpt>
<trkpt lat="36.778639" lon="137.816899">
<ele>2073.319824</ele>
<time>2014-08-19T03:04:33Z</time>
<desc><![CDATA[lat.=36.778639, lon.=137.816899, Alt.=2073.319824m. Speed=4.000000m/h.]]></desc>
</trkpt>
<trkpt lat="36.778600" lon="137.816859">
<ele>2072.482787</ele>
<time>2014-08-19T03:04:38Z</time>
<desc><![CDATA[lat.=36.778600, lon.=137.816859, Alt.=2072.482787m. Speed=4.000000m/h.]]></desc>
</trkpt>
<trkpt lat="36.778571" lon="137.816842">
<ele>2071.762302</ele>
<time>2014-08-19T03:04:43Z</time>
<desc><![CDATA[lat.=36.778571, lon.=137.816842, Alt.=2071.762302m. Speed=3.000000m/h.]]></desc>
</trkpt>
<trkpt lat="36.778527" lon="137.816841">
<ele>2071.630114</ele>
<time>2014-08-19T03:04:48Z</time>
<desc><![CDATA[lat.=36.778527, lon.=137.816841, Alt.=2071.630114m. Speed=3.000000m/h.]]></desc>
</trkpt>
<trkpt lat="36.778483" lon="137.816823">
<ele>2071.442264</ele>
<time>2014-08-19T03:04:53Z</time>
<desc><![CDATA[lat.=36.778483, lon.=137.816823, Alt.=2071.442264m. Speed=4.000000m/h.]]></desc>
</trkpt>
<trkpt lat="36.778431" lon="137.816837">
<ele>2070.767027</ele>
<time>2014-08-19T03:04:58Z</time>
<desc><![CDATA[lat.=36.778431, lon.=137.816837, Alt.=2070.767027m. Speed=3.000000m/h.]]></desc>
</trkpt>
<trkpt lat="36.778385" lon="137.816813">
<ele>2067.656876</ele>
<time>2014-08-19T03:05:03Z</time>
<desc><![CDATA[lat.=36.778385, lon.=137.816813, Alt.=2067.656876m. Speed=4.000000m/h.]]></desc>
</trkpt>
<trkpt lat="36.778336" lon="137.816835">
<ele>2068.173881</ele>
<time>2014-08-19T03:05:08Z</time>
<desc><![CDATA[lat.=36.778336, lon.=137.816835, Alt.=2068.173881m. Speed=3.000000m/h.]]></desc>
</trkpt>
<trkpt lat="36.778303" lon="137.816826">
<ele>2068.046922</ele>
<time>2014-08-19T03:05:13Z</time>
<desc><![CDATA[lat.=36.778303, lon.=137.816826, Alt.=2068.046922m. Speed=3.000000m/h.]]></desc>
</trkpt>
<trkpt lat="36.778275" lon="137.816793">
<ele>2069.000866</ele>
<time>2014-08-19T03:05:18Z</time>
<desc><![CDATA[lat.=36.778275, lon.=137.816793, Alt.=2069.000866m. Speed=3.000000m/h.]]></desc>
</trkpt>
<trkpt lat="36.778257" lon="137.816785">
<ele>2068.341273</ele>
<time>2014-08-19T03:05:23Z</time>
<desc><![CDATA[lat.=36.778257, lon.=137.816785, Alt.=2068.341273m. Speed=2.000000m/h.]]></desc>
</trkpt>
<trkpt lat="36.778223" lon="137.816807">
<ele>2068.325649</ele>
<time>2014-08-19T03:05:28Z</time>
<desc><![CDATA[lat.=36.778223, lon.=137.816807, Alt.=2068.325649m. Speed=2.000000m/h.]]></desc>
</trkpt>
<trkpt lat="36.778197" lon="137.816831">
<ele>2065.448592</ele>
<time>2014-08-19T03:05:33Z</time>
<desc><![CDATA[lat.=36.778197, lon.=137.816831, Alt.=2065.448592m. Speed=2.000000m/h.]]></desc>
</trkpt>
<trkpt lat="36.778139" lon="137.816798">
<ele>2064.007669</ele>
<time>2014-08-19T03:05:38Z</time>
<desc><![CDATA[lat.=36.778139, lon.=137.816798, Alt.=2064.007669m. Speed=3.000000m/h.]]></desc>
</trkpt>
<trkpt lat="36.778099" lon="137.816788">
<ele>2065.012083</ele>
<time>2014-08-19T03:05:43Z</time>
<desc><![CDATA[lat.=36.778099, lon.=137.816788, Alt.=2065.012083m. Speed=3.000000m/h.]]></desc>
</trkpt>
<trkpt lat="36.778089" lon="137.816781">
<ele>2063.221136</ele>
<time>2014-08-19T03:05:48Z</time>
<desc><![CDATA[lat.=36.778089, lon.=137.816781, Alt.=2063.221136m. Speed=2.000000m/h.]]></desc>
</trkpt>
<trkpt lat="36.778074" lon="137.816796">
<ele>2062.079366</ele>
<time>2014-08-19T03:05:53Z</time>
<desc><![CDATA[lat.=36.778074, lon.=137.816796, Alt.=2062.079366m. Speed=2.000000m/h.]]></desc>
</trkpt>
<trkpt lat="36.778077" lon="137.816805">
<ele>2061.541519</ele>
<time>2014-08-19T03:05:59Z</time>
<desc><![CDATA[lat.=36.778077, lon.=137.816805, Alt.=2061.541519m. Speed=0.000000m/h.]]></desc>
</trkpt>
<trkpt lat="36.778074" lon="137.816797">
<ele>2060.349289</ele>
<time>2014-08-19T03:06:04Z</time>
<desc><![CDATA[lat.=36.778074, lon.=137.816797, Alt.=2060.349289m. Speed=1.000000m/h.]]></desc>
</trkpt>
<trkpt lat="36.778045" lon="137.816781">
<ele>2059.628834</ele>
<time>2014-08-19T03:06:09Z</time>
<desc><![CDATA[lat.=36.778045, lon.=137.816781, Alt.=2059.628834m. Speed=2.000000m/h.]]></desc>
</trkpt>
<trkpt lat="36.778009" lon="137.816764">
<ele>2058.309664</ele>
<time>2014-08-19T03:06:14Z</time>
<desc><![CDATA[lat.=36.778009, lon.=137.816764, Alt.=2058.309664m. Speed=3.000000m/h.]]></desc>
</trkpt>
<trkpt lat="36.777973" lon="137.816747">
<ele>2058.720576</ele>
<time>2014-08-19T03:06:19Z</time>
<desc><![CDATA[lat.=36.777973, lon.=137.816747, Alt.=2058.720576m. Speed=3.000000m/h.]]></desc>
</trkpt>
<trkpt lat="36.777933" lon="137.816754">
<ele>2056.320512</ele>
<time>2014-08-19T03:06:24Z</time>
<desc><![CDATA[lat.=36.777933, lon.=137.816754, Alt.=2056.320512m. Speed=3.000000m/h.]]></desc>
</trkpt>
<trkpt lat="36.777908" lon="137.816763">
<ele>2051.657725</ele>
<time>2014-08-19T03:06:29Z</time>
<desc><![CDATA[lat.=36.777908, lon.=137.816763, Alt.=2051.657725m. Speed=3.000000m/h.]]></desc>
</trkpt>
<trkpt lat="36.777859" lon="137.816785">
<ele>2052.174773</ele>
<time>2014-08-19T03:06:34Z</time>
<desc><![CDATA[lat.=36.777859, lon.=137.816785, Alt.=2052.174773m. Speed=2.000000m/h.]]></desc>
</trkpt>
<trkpt lat="36.777834" lon="137.816776">
<ele>2052.646559</ele>
<time>2014-08-19T03:06:39Z</time>
<desc><![CDATA[lat.=36.777834, lon.=137.816776, Alt.=2052.646559m. Speed=2.000000m/h.]]></desc>
</trkpt>
<trkpt lat="36.777804" lon="137.816775">
<ele>2051.981783</ele>
<time>2014-08-19T03:06:44Z</time>
<desc><![CDATA[lat.=36.777804, lon.=137.816775, Alt.=2051.981783m. Speed=2.000000m/h.]]></desc>
</trkpt>
<trkpt lat="36.777789" lon="137.816807">
<ele>2050.895687</ele>
<time>2014-08-19T03:06:49Z</time>
<desc><![CDATA[lat.=36.777789, lon.=137.816807, Alt.=2050.895687m. Speed=2.000000m/h.]]></desc>
</trkpt>
<trkpt lat="36.777781" lon="137.816855">
<ele>2048.733894</ele>
<time>2014-08-19T03:06:54Z</time>
<desc><![CDATA[lat.=36.777781, lon.=137.816855, Alt.=2048.733894m. Speed=3.000000m/h.]]></desc>
</trkpt>
<trkpt lat="36.777791" lon="137.816911">
<ele>2048.961760</ele>
<time>2014-08-19T03:06:59Z</time>
<desc><![CDATA[lat.=36.777791, lon.=137.816911, Alt.=2048.961760m. Speed=3.000000m/h.]]></desc>
</trkpt>
<trkpt lat="36.777806" lon="137.816945">
<ele>2045.080289</ele>
<time>2014-08-19T03:07:04Z</time>
<desc><![CDATA[lat.=36.777806, lon.=137.816945, Alt.=2045.080289m. Speed=3.000000m/h.]]></desc>
</trkpt>
<trkpt lat="36.777793" lon="137.816983">
<ele>2046.916507</ele>
<time>2014-08-19T03:07:09Z</time>
<desc><![CDATA[lat.=36.777793, lon.=137.816983, Alt.=2046.916507m. Speed=2.000000m/h.]]></desc>
</trkpt>
<trkpt lat="36.777789" lon="137.817022">
<ele>2047.621364</ele>
<time>2014-08-19T03:07:14Z</time>
<desc><![CDATA[lat.=36.777789, lon.=137.817022, Alt.=2047.621364m. Speed=2.000000m/h.]]></desc>
</trkpt>
<trkpt lat="36.777799" lon="137.817079">
<ele>2046.119163</ele>
<time>2014-08-19T03:07:19Z</time>
<desc><![CDATA[lat.=36.777799, lon.=137.817079, Alt.=2046.119163m. Speed=4.000000m/h.]]></desc>
</trkpt>
<trkpt lat="36.777806" lon="137.817128">
<ele>2043.424736</ele>
<time>2014-08-19T03:07:24Z</time>
<desc><![CDATA[lat.=36.777806, lon.=137.817128, Alt.=2043.424736m. Speed=3.000000m/h.]]></desc>
</trkpt>
<trkpt lat="36.777816" lon="137.817168">
<ele>2043.596948</ele>
<time>2014-08-19T03:07:29Z</time>
<desc><![CDATA[lat.=36.777816, lon.=137.817168, Alt.=2043.596948m. Speed=3.000000m/h.]]></desc>
</trkpt>
<trkpt lat="36.777820" lon="137.817193">
<ele>2039.654620</ele>
<time>2014-08-19T03:07:34Z</time>
<desc><![CDATA[lat.=36.777820, lon.=137.817193, Alt.=2039.654620m. Speed=2.000000m/h.]]></desc>
</trkpt>
<trkpt lat="36.777793" lon="137.817216">
<ele>2040.237750</ele>
<time>2014-08-19T03:07:39Z</time>
<desc><![CDATA[lat.=36.777793, lon.=137.817216, Alt.=2040.237750m. Speed=2.000000m/h.]]></desc>
</trkpt>
<trkpt lat="36.777793" lon="137.817248">
<ele>2038.619020</ele>
<time>2014-08-19T03:07:44Z</time>
<desc><![CDATA[lat.=36.777793, lon.=137.817248, Alt.=2038.619020m. Speed=2.000000m/h.]]></desc>
</trkpt>
<trkpt lat="36.777782" lon="137.817289">
<ele>2035.265021</ele>
<time>2014-08-19T03:07:49Z</time>
<desc><![CDATA[lat.=36.777782, lon.=137.817289, Alt.=2035.265021m. Speed=3.000000m/h.]]></desc>
</trkpt>
<trkpt lat="36.777782" lon="137.817306">
<ele>2033.590619</ele>
<time>2014-08-19T03:07:54Z</time>
<desc><![CDATA[lat.=36.777782, lon.=137.817306, Alt.=2033.590619m. Speed=2.000000m/h.]]></desc>
</trkpt>
<trkpt lat="36.777786" lon="137.817331">
<ele>2031.378373</ele>
<time>2014-08-19T03:07:59Z</time>
<desc><![CDATA[lat.=36.777786, lon.=137.817331, Alt.=2031.378373m. Speed=2.000000m/h.]]></desc>
</trkpt>
<trkpt lat="36.777788" lon="137.817386">
<ele>2032.737636</ele>
<time>2014-08-19T03:08:04Z</time>
<desc><![CDATA[lat.=36.777788, lon.=137.817386, Alt.=2032.737636m. Speed=3.000000m/h.]]></desc>
</trkpt>
<trkpt lat="36.777824" lon="137.817435">
<ele>2030.708003</ele>
<time>2014-08-19T03:08:09Z</time>
<desc><![CDATA[lat.=36.777824, lon.=137.817435, Alt.=2030.708003m. Speed=4.000000m/h.]]></desc>
</trkpt>
<trkpt lat="36.777860" lon="137.817453">
<ele>2030.297096</ele>
<time>2014-08-19T03:08:14Z</time>
<desc><![CDATA[lat.=36.777860, lon.=137.817453, Alt.=2030.297096m. Speed=3.000000m/h.]]></desc>
</trkpt>
<trkpt lat="36.777875" lon="137.817469">
<ele>2029.820126</ele>
<time>2014-08-19T03:08:19Z</time>
<desc><![CDATA[lat.=36.777875, lon.=137.817469, Alt.=2029.820126m. Speed=3.000000m/h.]]></desc>
</trkpt>
<trkpt lat="36.777870" lon="137.817493">
<ele>2030.469326</ele>
<time>2014-08-19T03:08:24Z</time>
<desc><![CDATA[lat.=36.777870, lon.=137.817493, Alt.=2030.469326m. Speed=2.000000m/h.]]></desc>
</trkpt>
<trkpt lat="36.777858" lon="137.817548">
<ele>2030.631172</ele>
<time>2014-08-19T03:08:29Z</time>
<desc><![CDATA[lat.=36.777858, lon.=137.817548, Alt.=2030.631172m. Speed=2.000000m/h.]]></desc>
</trkpt>
<trkpt lat="36.777888" lon="137.817566">
<ele>2027.891478</ele>
<time>2014-08-19T03:08:34Z</time>
<desc><![CDATA[lat.=36.777888, lon.=137.817566, Alt.=2027.891478m. Speed=2.000000m/h.]]></desc>
</trkpt>
<trkpt lat="36.777902" lon="137.817582">
<ele>2027.414511</ele>
<time>2014-08-19T03:08:39Z</time>
<desc><![CDATA[lat.=36.777902, lon.=137.817582, Alt.=2027.414511m. Speed=2.000000m/h.]]></desc>
</trkpt>
<trkpt lat="36.777932" lon="137.817601">
<ele>2024.674820</ele>
<time>2014-08-19T03:08:44Z</time>
<desc><![CDATA[lat.=36.777932, lon.=137.817601, Alt.=2024.674820m. Speed=2.000000m/h.]]></desc>
</trkpt>
<trkpt lat="36.777957" lon="137.817625">
<ele>2025.988807</ele>
<time>2014-08-19T03:08:49Z</time>
<desc><![CDATA[lat.=36.777957, lon.=137.817625, Alt.=2025.988807m. Speed=3.000000m/h.]]></desc>
</trkpt>
<trkpt lat="36.777960" lon="137.817665">
<ele>2025.562331</ele>
<time>2014-08-19T03:08:54Z</time>
<desc><![CDATA[lat.=36.777960, lon.=137.817665, Alt.=2025.562331m. Speed=2.000000m/h.]]></desc>
</trkpt>
<trkpt lat="36.777937" lon="137.817695">
<ele>2025.607628</ele>
<time>2014-08-19T03:08:59Z</time>
<desc><![CDATA[lat.=36.777937, lon.=137.817695, Alt.=2025.607628m. Speed=2.000000m/h.]]></desc>
</trkpt>
<trkpt lat="36.777940" lon="137.817720">
<ele>2025.125472</ele>
<time>2014-08-19T03:09:04Z</time>
<desc><![CDATA[lat.=36.777940, lon.=137.817720, Alt.=2025.125472m. Speed=2.000000m/h.]]></desc>
</trkpt>
<trkpt lat="36.777947" lon="137.817736">
<ele>2024.049794</ele>
<time>2014-08-19T03:09:09Z</time>
<desc><![CDATA[lat.=36.777947, lon.=137.817736, Alt.=2024.049794m. Speed=1.000000m/h.]]></desc>
</trkpt>
<trkpt lat="36.777939" lon="137.817783">
<ele>2025.348209</ele>
<time>2014-08-19T03:09:14Z</time>
<desc><![CDATA[lat.=36.777939, lon.=137.817783, Alt.=2025.348209m. Speed=2.000000m/h.]]></desc>
</trkpt>
<trkpt lat="36.777920" lon="137.817806">
<ele>2024.799987</ele>
<time>2014-08-19T03:09:19Z</time>
<desc><![CDATA[lat.=36.777920, lon.=137.817806, Alt.=2024.799987m. Speed=2.000000m/h.]]></desc>
</trkpt>
<trkpt lat="36.777916" lon="137.817831">
<ele>2021.989042</ele>
<time>2014-08-19T03:09:24Z</time>
<desc><![CDATA[lat.=36.777916, lon.=137.817831, Alt.=2021.989042m. Speed=2.000000m/h.]]></desc>
</trkpt>
<trkpt lat="36.777926" lon="137.817871">
<ele>2022.161292</ele>
<time>2014-08-19T03:09:29Z</time>
<desc><![CDATA[lat.=36.777926, lon.=137.817871, Alt.=2022.161292m. Speed=2.000000m/h.]]></desc>
</trkpt>
<trkpt lat="36.777948" lon="137.817920">
<ele>2020.664345</ele>
<time>2014-08-19T03:09:34Z</time>
<desc><![CDATA[lat.=36.777948, lon.=137.817920, Alt.=2020.664345m. Speed=3.000000m/h.]]></desc>
</trkpt>
<trkpt lat="36.777959" lon="137.817929">
<ele>2018.995147</ele>
<time>2014-08-19T03:09:39Z</time>
<desc><![CDATA[lat.=36.777959, lon.=137.817929, Alt.=2018.995147m. Speed=2.000000m/h.]]></desc>
</trkpt>
<trkpt lat="36.777988" lon="137.817946">
<ele>2019.715621</ele>
<time>2014-08-19T03:09:44Z</time>
<desc><![CDATA[lat.=36.777988, lon.=137.817946, Alt.=2019.715621m. Speed=2.000000m/h.]]></desc>
</trkpt>
<trkpt lat="36.777961" lon="137.817968">
<ele>2020.298763</ele>
<time>2014-08-19T03:09:49Z</time>
<desc><![CDATA[lat.=36.777961, lon.=137.817968, Alt.=2020.298763m. Speed=1.000000m/h.]]></desc>
</trkpt>
<trkpt lat="36.777962" lon="137.818001">
<ele>2016.949987</ele>
<time>2014-08-19T03:09:54Z</time>
<desc><![CDATA[lat.=36.777962, lon.=137.818001, Alt.=2016.949987m. Speed=2.000000m/h.]]></desc>
</trkpt>
<trkpt lat="36.777950" lon="137.818041">
<ele>2015.326099</ele>
<time>2014-08-19T03:09:59Z</time>
<desc><![CDATA[lat.=36.777950, lon.=137.818041, Alt.=2015.326099m. Speed=2.000000m/h.]]></desc>
</trkpt>
<trkpt lat="36.777936" lon="137.818041">
<ele>2014.128669</ele>
<time>2014-08-19T03:10:04Z</time>
<desc><![CDATA[lat.=36.777936, lon.=137.818041, Alt.=2014.128669m. Speed=2.000000m/h.]]></desc>
</trkpt>
<trkpt lat="36.777910" lon="137.818033">
<ele>2012.870360</ele>
<time>2014-08-19T03:10:09Z</time>
<desc><![CDATA[lat.=36.777910, lon.=137.818033, Alt.=2012.870360m. Speed=1.000000m/h.]]></desc>
</trkpt>
<trkpt lat="36.777888" lon="137.818048">
<ele>2012.859982</ele>
<time>2014-08-19T03:10:14Z</time>
<desc><![CDATA[lat.=36.777888, lon.=137.818048, Alt.=2012.859982m. Speed=2.000000m/h.]]></desc>
</trkpt>
<trkpt lat="36.777863" lon="137.818057">
<ele>2008.197212</ele>
<time>2014-08-19T03:10:19Z</time>
<desc><![CDATA[lat.=36.777863, lon.=137.818057, Alt.=2008.197212m. Speed=2.000000m/h.]]></desc>
</trkpt>
<trkpt lat="36.777838" lon="137.818050">
<ele>2005.208829</ele>
<time>2014-08-19T03:10:24Z</time>
<desc><![CDATA[lat.=36.777838, lon.=137.818050, Alt.=2005.208829m. Speed=2.000000m/h.]]></desc>
</trkpt>
<trkpt lat="36.777809" lon="137.818049">
<ele>2004.544052</ele>
<time>2014-08-19T03:10:29Z</time>
<desc><![CDATA[lat.=36.777809, lon.=137.818049, Alt.=2004.544052m. Speed=2.000000m/h.]]></desc>
</trkpt>
<trkpt lat="36.777783" lon="137.818023">
<ele>2006.690212</ele>
<time>2014-08-19T03:10:34Z</time>
<desc><![CDATA[lat.=36.777783, lon.=137.818023, Alt.=2006.690212m. Speed=3.000000m/h.]]></desc>
</trkpt>
<trkpt lat="36.777743" lon="137.818030">
<ele>2006.020252</ele>
<time>2014-08-19T03:10:39Z</time>
<desc><![CDATA[lat.=36.777743, lon.=137.818030, Alt.=2006.020252m. Speed=2.000000m/h.]]></desc>
</trkpt>
<trkpt lat="36.777715" lon="137.817999">
<ele>2001.783947</ele>
<time>2014-08-19T03:10:44Z</time>
<desc><![CDATA[lat.=36.777715, lon.=137.817999, Alt.=2001.783947m. Speed=2.000000m/h.]]></desc>
</trkpt>
<trkpt lat="36.777711" lon="137.818006">
<ele>2004.107551</ele>
<time>2014-08-19T03:10:49Z</time>
<desc><![CDATA[lat.=36.777711, lon.=137.818006, Alt.=2004.107551m. Speed=2.000000m/h.]]></desc>
</trkpt>
<trkpt lat="36.777678" lon="137.817981">
<ele>2003.924930</ele>
<time>2014-08-19T03:10:54Z</time>
<desc><![CDATA[lat.=36.777678, lon.=137.817981, Alt.=2003.924930m. Speed=2.000000m/h.]]></desc>
</trkpt>
<trkpt lat="36.777656" lon="137.817964">
<ele>2003.803184</ele>
<time>2014-08-19T03:10:59Z</time>
<desc><![CDATA[lat.=36.777656, lon.=137.817964, Alt.=2003.803184m. Speed=2.000000m/h.]]></desc>
</trkpt>
<trkpt lat="36.777646" lon="137.817956">
<ele>2003.742311</ele>
<time>2014-08-19T03:11:04Z</time>
<desc><![CDATA[lat.=36.777646, lon.=137.817956, Alt.=2003.742311m. Speed=2.000000m/h.]]></desc>
</trkpt>
<trkpt lat="36.777609" lon="137.817939">
<ele>2002.423145</ele>
<time>2014-08-19T03:11:09Z</time>
<desc><![CDATA[lat.=36.777609, lon.=137.817939, Alt.=2002.423145m. Speed=2.000000m/h.]]></desc>
</trkpt>
<trkpt lat="36.777588" lon="137.817924">
<ele>2000.571326</ele>
<time>2014-08-19T03:11:14Z</time>
<desc><![CDATA[lat.=36.777588, lon.=137.817924, Alt.=2000.571326m. Speed=2.000000m/h.]]></desc>
</trkpt>
<trkpt lat="36.777559" lon="137.817923">
<ele>1999.906562</ele>
<time>2014-08-19T03:11:19Z</time>
<desc><![CDATA[lat.=36.777559, lon.=137.817923, Alt.=1999.906562m. Speed=2.000000m/h.]]></desc>
</trkpt>
<trkpt lat="36.777534" lon="137.817900">
<ele>1996.862508</ele>
<time>2014-08-19T03:11:24Z</time>
<desc><![CDATA[lat.=36.777534, lon.=137.817900, Alt.=1996.862508m. Speed=3.000000m/h.]]></desc>
</trkpt>
<trkpt lat="36.777502" lon="137.817890">
<ele>1996.735588</ele>
<time>2014-08-19T03:11:29Z</time>
<desc><![CDATA[lat.=36.777502, lon.=137.817890, Alt.=1996.735588m. Speed=2.000000m/h.]]></desc>
</trkpt>
<trkpt lat="36.777477" lon="137.817883">
<ele>1993.747225</ele>
<time>2014-08-19T03:11:34Z</time>
<desc><![CDATA[lat.=36.777477, lon.=137.817883, Alt.=1993.747225m. Speed=2.000000m/h.]]></desc>
</trkpt>
<trkpt lat="36.777431" lon="137.817896">
<ele>1997.130970</ele>
<time>2014-08-19T03:11:39Z</time>
<desc><![CDATA[lat.=36.777431, lon.=137.817896, Alt.=1997.130970m. Speed=2.000000m/h.]]></desc>
</trkpt>
<trkpt lat="36.777395" lon="137.817895">
<ele>1995.867508</ele>
<time>2014-08-19T03:11:44Z</time>
<desc><![CDATA[lat.=36.777395, lon.=137.817895, Alt.=1995.867508m. Speed=2.000000m/h.]]></desc>
</trkpt>
<trkpt lat="36.777359" lon="137.817878">
<ele>1994.548361</ele>
<time>2014-08-19T03:11:49Z</time>
<desc><![CDATA[lat.=36.777359, lon.=137.817878, Alt.=1994.548361m. Speed=3.000000m/h.]]></desc>
</trkpt>
<trkpt lat="36.777326" lon="137.817853">
<ele>1996.095843</ele>
<time>2014-08-19T03:11:54Z</time>
<desc><![CDATA[lat.=36.777326, lon.=137.817853, Alt.=1996.095843m. Speed=3.000000m/h.]]></desc>
</trkpt>
<trkpt lat="36.777299" lon="137.817859">
<ele>1998.353407</ele>
<time>2014-08-19T03:11:59Z</time>
<desc><![CDATA[lat.=36.777299, lon.=137.817859, Alt.=1998.353407m. Speed=2.000000m/h.]]></desc>
</trkpt>
<trkpt lat="36.777277" lon="137.817873">
<ele>2000.073130</ele>
<time>2014-08-19T03:12:04Z</time>
<desc><![CDATA[lat.=36.777277, lon.=137.817873, Alt.=2000.073130m. Speed=2.000000m/h.]]></desc>
</trkpt>
<trkpt lat="36.777239" lon="137.817887">
<ele>2000.595444</ele>
<time>2014-08-19T03:12:09Z</time>
<desc><![CDATA[lat.=36.777239, lon.=137.817887, Alt.=2000.595444m. Speed=2.000000m/h.]]></desc>
</trkpt>
<trkpt lat="36.777195" lon="137.817901">
<ele>2000.519055</ele>
<time>2014-08-19T03:12:14Z</time>
<desc><![CDATA[lat.=36.777195, lon.=137.817901, Alt.=2000.519055m. Speed=3.000000m/h.]]></desc>
</trkpt>
<trkpt lat="36.777165" lon="137.817916">
<ele>1999.910002</ele>
<time>2014-08-19T03:12:19Z</time>
<desc><![CDATA[lat.=36.777165, lon.=137.817916, Alt.=1999.910002m. Speed=3.000000m/h.]]></desc>
</trkpt>
<trkpt lat="36.777146" lon="137.817956">
<ele>1999.417501</ele>
<time>2014-08-19T03:12:24Z</time>
<desc><![CDATA[lat.=36.777146, lon.=137.817956, Alt.=1999.417501m. Speed=2.000000m/h.]]></desc>
</trkpt>
<trkpt lat="36.777124" lon="137.817987">
<ele>1997.732767</ele>
<time>2014-08-19T03:12:29Z</time>
<desc><![CDATA[lat.=36.777124, lon.=137.817987, Alt.=1997.732767m. Speed=2.000000m/h.]]></desc>
</trkpt>
<trkpt lat="36.777083" lon="137.817994">
<ele>1997.062858</ele>
<time>2014-08-19T03:12:34Z</time>
<desc><![CDATA[lat.=36.777083, lon.=137.817994, Alt.=1997.062858m. Speed=3.000000m/h.]]></desc>
</trkpt>
<trkpt lat="36.777044" lon="137.817986">
<ele>1992.877108</ele>
<time>2014-08-19T03:12:39Z</time>
<desc><![CDATA[lat.=36.777044, lon.=137.817986, Alt.=1992.877108m. Speed=3.000000m/h.]]></desc>
</trkpt>
<trkpt lat="36.777014" lon="137.817985">
<ele>1993.942453</ele>
<time>2014-08-19T03:12:44Z</time>
<desc><![CDATA[lat.=36.777014, lon.=137.817985, Alt.=1993.942453m. Speed=3.000000m/h.]]></desc>
</trkpt>
<trkpt lat="36.776992" lon="137.818000">
<ele>1993.932114</ele>
<time>2014-08-19T03:12:49Z</time>
<desc><![CDATA[lat.=36.776992, lon.=137.818000, Alt.=1993.932114m. Speed=2.000000m/h.]]></desc>
</trkpt>
<trkpt lat="36.776965" lon="137.818039">
<ele>1992.840922</ele>
<time>2014-08-19T03:12:54Z</time>
<desc><![CDATA[lat.=36.776965, lon.=137.818039, Alt.=1992.840922m. Speed=3.000000m/h.]]></desc>
</trkpt>
<trkpt lat="36.776939" lon="137.818078">
<ele>1991.749733</ele>
<time>2014-08-19T03:12:59Z</time>
<desc><![CDATA[lat.=36.776939, lon.=137.818078, Alt.=1991.749733m. Speed=3.000000m/h.]]></desc>
</trkpt>
<trkpt lat="36.776916" lon="137.818108">
<ele>1993.525168</ele>
<time>2014-08-19T03:13:04Z</time>
<desc><![CDATA[lat.=36.776916, lon.=137.818108, Alt.=1993.525168m. Speed=2.000000m/h.]]></desc>
</trkpt>
<trkpt lat="36.776897" lon="137.818132">
<ele>1991.246915</ele>
<time>2014-08-19T03:13:09Z</time>
<desc><![CDATA[lat.=36.776897, lon.=137.818132, Alt.=1991.246915m. Speed=2.000000m/h.]]></desc>
</trkpt>
<trkpt lat="36.776872" lon="137.818141">
<ele>1988.314271</ele>
<time>2014-08-19T03:13:14Z</time>
<desc><![CDATA[lat.=36.776872, lon.=137.818141, Alt.=1988.314271m. Speed=2.000000m/h.]]></desc>
</trkpt>
<trkpt lat="36.776831" lon="137.818180">
<ele>1986.025692</ele>
<time>2014-08-19T03:13:19Z</time>
<desc><![CDATA[lat.=36.776831, lon.=137.818180, Alt.=1986.025692m. Speed=3.000000m/h.]]></desc>
</trkpt>
<trkpt lat="36.776790" lon="137.818218">
<ele>1985.467196</ele>
<time>2014-08-19T03:13:24Z</time>
<desc><![CDATA[lat.=36.776790, lon.=137.818218, Alt.=1985.467196m. Speed=3.000000m/h.]]></desc>
</trkpt>
<trkpt lat="36.776738" lon="137.818249">
<ele>1983.117770</ele>
<time>2014-08-19T03:13:29Z</time>
<desc><![CDATA[lat.=36.776738, lon.=137.818249, Alt.=1983.117770m. Speed=4.000000m/h.]]></desc>
</trkpt>
<trkpt lat="36.776694" lon="137.818280">
<ele>1981.367049</ele>
<time>2014-08-19T03:13:34Z</time>
<desc><![CDATA[lat.=36.776694, lon.=137.818280, Alt.=1981.367049m. Speed=3.000000m/h.]]></desc>
</trkpt>
<trkpt lat="36.776664" lon="137.818295">
<ele>1980.758032</ele>
<time>2014-08-19T03:13:39Z</time>
<desc><![CDATA[lat.=36.776664, lon.=137.818295, Alt.=1980.758032m. Speed=3.000000m/h.]]></desc>
</trkpt>
<trkpt lat="36.776642" lon="137.818342">
<ele>1979.129029</ele>
<time>2014-08-19T03:13:44Z</time>
<desc><![CDATA[lat.=36.776642, lon.=137.818342, Alt.=1979.129029m. Speed=3.000000m/h.]]></desc>
</trkpt>
<trkpt lat="36.776601" lon="137.818365">
<ele>1978.514858</ele>
<time>2014-08-19T03:13:49Z</time>
<desc><![CDATA[lat.=36.776601, lon.=137.818365, Alt.=1978.514858m. Speed=3.000000m/h.]]></desc>
</trkpt>
<trkpt lat="36.776549" lon="137.818379">
<ele>1977.839837</ele>
<time>2014-08-19T03:13:54Z</time>
<desc><![CDATA[lat.=36.776549, lon.=137.818379, Alt.=1977.839837m. Speed=4.000000m/h.]]></desc>
</trkpt>
<trkpt lat="36.776523" lon="137.818418">
<ele>1976.748686</ele>
<time>2014-08-19T03:13:59Z</time>
<desc><![CDATA[lat.=36.776523, lon.=137.818418, Alt.=1976.748686m. Speed=3.000000m/h.]]></desc>
</trkpt>
<trkpt lat="36.776504" lon="137.818458">
<ele>1976.256234</ele>
<time>2014-08-19T03:14:04Z</time>
<desc><![CDATA[lat.=36.776504, lon.=137.818458, Alt.=1976.256234m. Speed=3.000000m/h.]]></desc>
</trkpt>
<trkpt lat="36.776466" lon="137.818488">
<ele>1976.834313</ele>
<time>2014-08-19T03:14:09Z</time>
<desc><![CDATA[lat.=36.776466, lon.=137.818488, Alt.=1976.834313m. Speed=3.000000m/h.]]></desc>
</trkpt>
<trkpt lat="36.776421" lon="137.818502">
<ele>1976.758002</ele>
<time>2014-08-19T03:14:14Z</time>
<desc><![CDATA[lat.=36.776421, lon.=137.818502, Alt.=1976.758002m. Speed=3.000000m/h.]]></desc>
</trkpt>
<trkpt lat="36.776391" lon="137.818533">
<ele>1976.204705</ele>
<time>2014-08-19T03:14:19Z</time>
<desc><![CDATA[lat.=36.776391, lon.=137.818533, Alt.=1976.204705m. Speed=3.000000m/h.]]></desc>
</trkpt>
<trkpt lat="36.776372" lon="137.818572">
<ele>1975.712263</ele>
<time>2014-08-19T03:14:24Z</time>
<desc><![CDATA[lat.=36.776372, lon.=137.818572, Alt.=1975.712263m. Speed=3.000000m/h.]]></desc>
</trkpt>
<trkpt lat="36.776376" lon="137.818580">
<ele>1975.174421</ele>
<time>2014-08-19T03:14:29Z</time>
<desc><![CDATA[lat.=36.776376, lon.=137.818580, Alt.=1975.174421m. Speed=0.000000m/h.]]></desc>
</trkpt>
<trkpt lat="36.776372" lon="137.818588">
<ele>1975.767964</ele>
<time>2014-08-19T03:14:34Z</time>
<desc><![CDATA[lat.=36.776372, lon.=137.818588, Alt.=1975.767964m. Speed=0.000000m/h.]]></desc>
</trkpt>
<trkpt lat="36.776379" lon="137.818588">
<ele>1976.366658</ele>
<time>2014-08-19T03:14:41Z</time>
<desc><![CDATA[lat.=36.776379, lon.=137.818588, Alt.=1976.366658m. Speed=0.000000m/h.]]></desc>
</trkpt>
<trkpt lat="36.776372" lon="137.818588">
<ele>1975.767964</ele>
<time>2014-08-19T03:14:46Z</time>
<desc><![CDATA[lat.=36.776372, lon.=137.818588, Alt.=1975.767964m. Speed=1.000000m/h.]]></desc>
</trkpt>
<trkpt lat="36.776338" lon="137.818643">
<ele>1974.133842</ele>
<time>2014-08-19T03:14:51Z</time>
<desc><![CDATA[lat.=36.776338, lon.=137.818643, Alt.=1974.133842m. Speed=3.000000m/h.]]></desc>
</trkpt>
<trkpt lat="36.776311" lon="137.818682">
<ele>1973.042715</ele>
<time>2014-08-19T03:14:56Z</time>
<desc><![CDATA[lat.=36.776311, lon.=137.818682, Alt.=1973.042715m. Speed=3.000000m/h.]]></desc>
</trkpt>
<trkpt lat="36.776278" lon="137.818705">
<ele>1971.297195</ele>
<time>2014-08-19T03:15:01Z</time>
<desc><![CDATA[lat.=36.776278, lon.=137.818705, Alt.=1971.297195m. Speed=3.000000m/h.]]></desc>
</trkpt>
<trkpt lat="36.776248" lon="137.818752">
<ele>1970.799619</ele>
<time>2014-08-19T03:15:06Z</time>
<desc><![CDATA[lat.=36.776248, lon.=137.818752, Alt.=1970.799619m. Speed=4.000000m/h.]]></desc>
</trkpt>
<trkpt lat="36.776236" lon="137.818807">
<ele>1970.961590</ele>
<time>2014-08-19T03:15:11Z</time>
<desc><![CDATA[lat.=36.776236, lon.=137.818807, Alt.=1970.961590m. Speed=3.000000m/h.]]></desc>
</trkpt>
<trkpt lat="36.776198" lon="137.818837">
<ele>1971.539702</ele>
<time>2014-08-19T03:15:16Z</time>
<desc><![CDATA[lat.=36.776198, lon.=137.818837, Alt.=1971.539702m. Speed=3.000000m/h.]]></desc>
</trkpt>
<trkpt lat="36.776157" lon="137.818859">
<ele>1970.925580</ele>
<time>2014-08-19T03:15:21Z</time>
<desc><![CDATA[lat.=36.776157, lon.=137.818859, Alt.=1970.925580m. Speed=3.000000m/h.]]></desc>
</trkpt>
<trkpt lat="36.776110" lon="137.818867">
<ele>1967.926988</ele>
<time>2014-08-19T03:15:26Z</time>
<desc><![CDATA[lat.=36.776110, lon.=137.818867, Alt.=1967.926988m. Speed=3.000000m/h.]]></desc>
</trkpt>
<trkpt lat="36.776066" lon="137.818883">
<ele>1964.390559</ele>
<time>2014-08-19T03:15:31Z</time>
<desc><![CDATA[lat.=36.776066, lon.=137.818883, Alt.=1964.390559m. Speed=3.000000m/h.]]></desc>
</trkpt>
<trkpt lat="36.776048" lon="137.818924">
<ele>1960.437992</ele>
<time>2014-08-19T03:15:36Z</time>
<desc><![CDATA[lat.=36.776048, lon.=137.818924, Alt.=1960.437992m. Speed=3.000000m/h.]]></desc>
</trkpt>
<trkpt lat="36.776007" lon="137.818963">
<ele>1958.149516</ele>
<time>2014-08-19T03:15:41Z</time>
<desc><![CDATA[lat.=36.776007, lon.=137.818963, Alt.=1958.149516m. Speed=3.000000m/h.]]></desc>
</trkpt>
<trkpt lat="36.775958" lon="137.819000">
<ele>1958.722513</ele>
<time>2014-08-19T03:15:46Z</time>
<desc><![CDATA[lat.=36.775958, lon.=137.819000, Alt.=1958.722513m. Speed=3.000000m/h.]]></desc>
</trkpt>
<trkpt lat="36.775935" lon="137.819030">
<ele>1960.498027</ele>
<time>2014-08-19T03:15:51Z</time>
<desc><![CDATA[lat.=36.775935, lon.=137.819030, Alt.=1960.498027m. Speed=3.000000m/h.]]></desc>
</trkpt>
<trkpt lat="36.775905" lon="137.819062">
<ele>1958.214701</ele>
<time>2014-08-19T03:15:56Z</time>
<desc><![CDATA[lat.=36.775905, lon.=137.819062, Alt.=1958.214701m. Speed=2.000000m/h.]]></desc>
</trkpt>
<trkpt lat="36.775868" lon="137.819077">
<ele>1957.007057</ele>
<time>2014-08-19T03:16:01Z</time>
<desc><![CDATA[lat.=36.775868, lon.=137.819077, Alt.=1957.007057m. Speed=2.000000m/h.]]></desc>
</trkpt>
<trkpt lat="36.775863" lon="137.819132">
<ele>1957.767746</ele>
<time>2014-08-19T03:16:06Z</time>
<desc><![CDATA[lat.=36.775863, lon.=137.819132, Alt.=1957.767746m. Speed=2.000000m/h.]]></desc>
</trkpt>
<trkpt lat="36.775869" lon="137.819195">
<ele>1958.589287</ele>
<time>2014-08-19T03:16:11Z</time>
<desc><![CDATA[lat.=36.775869, lon.=137.819195, Alt.=1958.589287m. Speed=2.000000m/h.]]></desc>
</trkpt>
<trkpt lat="36.775876" lon="137.819228">
<ele>1957.569325</ele>
<time>2014-08-19T03:16:16Z</time>
<desc><![CDATA[lat.=36.775876, lon.=137.819228, Alt.=1957.569325m. Speed=2.000000m/h.]]></desc>
</trkpt>
<trkpt lat="36.775849" lon="137.819250">
<ele>1958.152611</ele>
<time>2014-08-19T03:16:21Z</time>
<desc><![CDATA[lat.=36.775849, lon.=137.819250, Alt.=1958.152611m. Speed=1.000000m/h.]]></desc>
</trkpt>
<trkpt lat="36.775838" lon="137.819291">
<ele>1954.798756</ele>
<time>2014-08-19T03:16:26Z</time>
<desc><![CDATA[lat.=36.775838, lon.=137.819291, Alt.=1954.798756m. Speed=2.000000m/h.]]></desc>
</trkpt>
<trkpt lat="36.775801" lon="137.819306">
<ele>1953.591121</ele>
<time>2014-08-19T03:16:31Z</time>
<desc><![CDATA[lat.=36.775801, lon.=137.819306, Alt.=1953.591121m. Speed=2.000000m/h.]]></desc>
</trkpt>
<trkpt lat="36.775779" lon="137.819338">
<ele>1951.906499</ele>
<time>2014-08-19T03:16:36Z</time>
<desc><![CDATA[lat.=36.775779, lon.=137.819338, Alt.=1951.906499m. Speed=2.000000m/h.]]></desc>
</trkpt>
<trkpt lat="36.775756" lon="137.819385">
<ele>1950.277597</ele>
<time>2014-08-19T03:16:41Z</time>
<desc><![CDATA[lat.=36.775756, lon.=137.819385, Alt.=1950.277597m. Speed=2.000000m/h.]]></desc>
</trkpt>
<trkpt lat="36.775726" lon="137.819432">
<ele>1949.780092</ele>
<time>2014-08-19T03:16:46Z</time>
<desc><![CDATA[lat.=36.775726, lon.=137.819432, Alt.=1949.780092m. Speed=3.000000m/h.]]></desc>
</trkpt>
<trkpt lat="36.775715" lon="137.819472">
<ele>1946.426248</ele>
<time>2014-08-19T03:16:51Z</time>
<desc><![CDATA[lat.=36.775715, lon.=137.819472, Alt.=1946.426248m. Speed=3.000000m/h.]]></desc>
</trkpt>
<trkpt lat="36.775688" lon="137.819512">
<ele>1945.335193</ele>
<time>2014-08-19T03:16:56Z</time>
<desc><![CDATA[lat.=36.775688, lon.=137.819512, Alt.=1945.335193m. Speed=3.000000m/h.]]></desc>
</trkpt>
<trkpt lat="36.775662" lon="137.819551">
<ele>1944.244142</ele>
<time>2014-08-19T03:17:01Z</time>
<desc><![CDATA[lat.=36.775662, lon.=137.819551, Alt.=1944.244142m. Speed=3.000000m/h.]]></desc>
</trkpt>
<trkpt lat="36.775643" lon="137.819590">
<ele>1943.751776</ele>
<time>2014-08-19T03:17:06Z</time>
<desc><![CDATA[lat.=36.775643, lon.=137.819590, Alt.=1943.751776m. Speed=3.000000m/h.]]></desc>
</trkpt>
<trkpt lat="36.775627" lon="137.819637">
<ele>1944.451655</ele>
<time>2014-08-19T03:17:11Z</time>
<desc><![CDATA[lat.=36.775627, lon.=137.819637, Alt.=1944.451655m. Speed=3.000000m/h.]]></desc>
</trkpt>
<trkpt lat="36.775600" lon="137.819676">
<ele>1943.360613</ele>
<time>2014-08-19T03:17:16Z</time>
<desc><![CDATA[lat.=36.775600, lon.=137.819676, Alt.=1943.360613m. Speed=3.000000m/h.]]></desc>
</trkpt>
<trkpt lat="36.775571" lon="137.819691">
<ele>1942.751684</ele>
<time>2014-08-19T03:17:21Z</time>
<desc><![CDATA[lat.=36.775571, lon.=137.819691, Alt.=1942.751684m. Speed=3.000000m/h.]]></desc>
</trkpt>
<trkpt lat="36.775534" lon="137.819723">
<ele>1938.139647</ele>
<time>2014-08-19T03:17:26Z</time>
<desc><![CDATA[lat.=36.775534, lon.=137.819723, Alt.=1938.139647m. Speed=3.000000m/h.]]></desc>
</trkpt>
<trkpt lat="36.775519" lon="137.819739">
<ele>1936.998009</ele>
<time>2014-08-19T03:17:31Z</time>
<desc><![CDATA[lat.=36.775519, lon.=137.819739, Alt.=1936.998009m. Speed=3.000000m/h.]]></desc>
</trkpt>
<trkpt lat="36.775485" lon="137.819777">
<ele>1937.038373</ele>
<time>2014-08-19T03:17:36Z</time>
<desc><![CDATA[lat.=36.775485, lon.=137.819777, Alt.=1937.038373m. Speed=2.000000m/h.]]></desc>
</trkpt>
<trkpt lat="36.775467" lon="137.819802">
<ele>1934.760222</ele>
<time>2014-08-19T03:17:41Z</time>
<desc><![CDATA[lat.=36.775467, lon.=137.819802, Alt.=1934.760222m. Speed=2.000000m/h.]]></desc>
</trkpt>
<trkpt lat="36.775447" lon="137.819823">
<ele>1937.672303</ele>
<time>2014-08-19T03:17:46Z</time>
<desc><![CDATA[lat.=36.775447, lon.=137.819823, Alt.=1937.672303m. Speed=2.000000m/h.]]></desc>
</trkpt>
<trkpt lat="36.775439" lon="137.819838">
<ele>1940.589503</ele>
<time>2014-08-19T03:17:51Z</time>
<desc><![CDATA[lat.=36.775439, lon.=137.819838, Alt.=1940.589503m. Speed=0.000000m/h.]]></desc>
</trkpt>
<trkpt lat="36.775417" lon="137.819821">
<ele>1940.467813</ele>
<time>2014-08-19T03:17:56Z</time>
<desc><![CDATA[lat.=36.775417, lon.=137.819821, Alt.=1940.467813m. Speed=1.000000m/h.]]></desc>
</trkpt>
<trkpt lat="36.775418" lon="137.819789">
<ele>1940.356360</ele>
<time>2014-08-19T03:18:01Z</time>
<desc><![CDATA[lat.=36.775418, lon.=137.819789, Alt.=1940.356360m. Speed=1.000000m/h.]]></desc>
</trkpt>
<trkpt lat="36.775442" lon="137.819743">
<ele>1938.525069</ele>
<time>2014-08-19T03:18:06Z</time>
<desc><![CDATA[lat.=36.775442, lon.=137.819743, Alt.=1938.525069m. Speed=2.000000m/h.]]></desc>
</trkpt>
<trkpt lat="36.775442" lon="137.819711">
<ele>1940.143696</ele>
<time>2014-08-19T03:18:11Z</time>
<desc><![CDATA[lat.=36.775442, lon.=137.819711, Alt.=1940.143696m. Speed=2.000000m/h.]]></desc>
</trkpt>
<trkpt lat="36.775462" lon="137.819673">
<ele>1938.905971</ele>
<time>2014-08-19T03:18:16Z</time>
<desc><![CDATA[lat.=36.775462, lon.=137.819673, Alt.=1938.905971m. Speed=2.000000m/h.]]></desc>
</trkpt>
<trkpt lat="36.775447" lon="137.819673">
<ele>1937.708610</ele>
<time>2014-08-19T03:18:21Z</time>
<desc><![CDATA[lat.=36.775447, lon.=137.819673, Alt.=1937.708610m. Speed=2.000000m/h.]]></desc>
</trkpt>
<trkpt lat="36.775418" lon="137.819688">
<ele>1935.369613</ele>
<time>2014-08-19T03:18:26Z</time>
<desc><![CDATA[lat.=36.775418, lon.=137.819688, Alt.=1935.369613m. Speed=1.000000m/h.]]></desc>
</trkpt>
<trkpt lat="36.775388" lon="137.819702">
<ele>1938.220850</ele>
<time>2014-08-19T03:18:31Z</time>
<desc><![CDATA[lat.=36.775388, lon.=137.819702, Alt.=1938.220850m. Speed=0.000000m/h.]]></desc>
</trkpt>
<trkpt lat="36.775361" lon="137.819707">
<ele>1942.208604</ele>
<time>2014-08-19T03:18:36Z</time>
<desc><![CDATA[lat.=36.775361, lon.=137.819707, Alt.=1942.208604m. Speed=1.000000m/h.]]></desc>
</trkpt>
<trkpt lat="36.775363" lon="137.819661">
<ele>1938.581277</ele>
<time>2014-08-19T03:18:41Z</time>
<desc><![CDATA[lat.=36.775363, lon.=137.819661, Alt.=1938.581277m. Speed=1.000000m/h.]]></desc>
</trkpt>
<trkpt lat="36.775337" lon="137.819636">
<ele>1940.727508</ele>
<time>2014-08-19T03:18:46Z</time>
<desc><![CDATA[lat.=36.775337, lon.=137.819636, Alt.=1940.727508m. Speed=0.000000m/h.]]></desc>
</trkpt>
<trkpt lat="36.775332" lon="137.819657">
<ele>1944.836947</ele>
<time>2014-08-19T03:18:51Z</time>
<desc><![CDATA[lat.=36.775332, lon.=137.819657, Alt.=1944.836947m. Speed=0.000000m/h.]]></desc>
</trkpt>
<trkpt lat="36.775332" lon="137.819658">
<ele>1943.106869</ele>
<time>2014-08-19T03:18:56Z</time>
<desc><![CDATA[lat.=36.775332, lon.=137.819658, Alt.=1943.106869m. Speed=0.000000m/h.]]></desc>
</trkpt>
<trkpt lat="36.775325" lon="137.819658">
<ele>1942.508191</ele>
<time>2014-08-19T03:19:01Z</time>
<desc><![CDATA[lat.=36.775325, lon.=137.819658, Alt.=1942.508191m. Speed=0.000000m/h.]]></desc>
</trkpt>
<trkpt lat="36.775337" lon="137.819651">
<ele>1940.783231</ele>
<time>2014-08-19T03:19:06Z</time>
<desc><![CDATA[lat.=36.775337, lon.=137.819651, Alt.=1940.783231m. Speed=1.000000m/h.]]></desc>
</trkpt>
<trkpt lat="36.775333" lon="137.819643">
<ele>1941.321069</ele>
<time>2014-08-19T03:19:11Z</time>
<desc><![CDATA[lat.=36.775333, lon.=137.819643, Alt.=1941.321069m. Speed=0.000000m/h.]]></desc>
</trkpt>
<trkpt lat="36.775337" lon="137.819651">
<ele>1940.783231</ele>
<time>2014-08-19T03:19:16Z</time>
<desc><![CDATA[lat.=36.775337, lon.=137.819651, Alt.=1940.783231m. Speed=0.000000m/h.]]></desc>
</trkpt>
<trkpt lat="36.775336" lon="137.819667">
<ele>1940.838955</ele>
<time>2014-08-19T03:19:21Z</time>
<desc><![CDATA[lat.=36.775336, lon.=137.819667, Alt.=1940.838955m. Speed=0.000000m/h.]]></desc>
</trkpt>
<trkpt lat="36.775326" lon="137.819677">
<ele>1935.643606</ele>
<time>2014-08-19T03:19:26Z</time>
<desc><![CDATA[lat.=36.775326, lon.=137.819677, Alt.=1935.643606m. Speed=2.000000m/h.]]></desc>
</trkpt>
<trkpt lat="36.775307" lon="137.819700">
<ele>1935.095535</ele>
<time>2014-08-19T03:19:31Z</time>
<desc><![CDATA[lat.=36.775307, lon.=137.819700, Alt.=1935.095535m. Speed=1.000000m/h.]]></desc>
</trkpt>
<trkpt lat="36.775293" lon="137.819734">
<ele>1930.549473</ele>
<time>2014-08-19T03:19:36Z</time>
<desc><![CDATA[lat.=36.775293, lon.=137.819734, Alt.=1930.549473m. Speed=1.000000m/h.]]></desc>
</trkpt>
<trkpt lat="36.775271" lon="137.819733">
<ele>1930.483516</ele>
<time>2014-08-19T03:19:41Z</time>
<desc><![CDATA[lat.=36.775271, lon.=137.819733, Alt.=1930.483516m. Speed=0.000000m/h.]]></desc>
</trkpt>
<trkpt lat="36.775267" lon="137.819724">
<ele>1932.751430</ele>
<time>2014-08-19T03:19:46Z</time>
<desc><![CDATA[lat.=36.775267, lon.=137.819724, Alt.=1932.751430m. Speed=0.000000m/h.]]></desc>
</trkpt>
<trkpt lat="36.775256" lon="137.819715">
<ele>1932.690590</ele>
<time>2014-08-19T03:19:51Z</time>
<desc><![CDATA[lat.=36.775256, lon.=137.819715, Alt.=1932.690590m. Speed=0.000000m/h.]]></desc>
</trkpt>
<trkpt lat="36.775253" lon="137.819709">
<ele>1929.768273</ele>
<time>2014-08-19T03:19:56Z</time>
<desc><![CDATA[lat.=36.775253, lon.=137.819709, Alt.=1929.768273m. Speed=1.000000m/h.]]></desc>
</trkpt>
<trkpt lat="36.775232" lon="137.819709">
<ele>1927.972240</ele>
<time>2014-08-19T03:20:01Z</time>
<desc><![CDATA[lat.=36.775232, lon.=137.819709, Alt.=1927.972240m. Speed=1.000000m/h.]]></desc>
</trkpt>
<trkpt lat="36.775218" lon="137.819694">
<ele>1924.989084</ele>
<time>2014-08-19T03:20:06Z</time>
<desc><![CDATA[lat.=36.775218, lon.=137.819694, Alt.=1924.989084m. Speed=1.000000m/h.]]></desc>
</trkpt>
<trkpt lat="36.775201" lon="137.819671">
<ele>1920.813689</ele>
<time>2014-08-19T03:20:11Z</time>
<desc><![CDATA[lat.=36.775201, lon.=137.819671, Alt.=1920.813689m. Speed=1.000000m/h.]]></desc>
</trkpt>
<trkpt lat="36.775197" lon="137.819678">
<ele>1923.137328</ele>
<time>2014-08-19T03:20:16Z</time>
<desc><![CDATA[lat.=36.775197, lon.=137.819678, Alt.=1923.137328m. Speed=0.000000m/h.]]></desc>
</trkpt>
<trkpt lat="36.775193" lon="137.819702">
<ele>1922.056538</ele>
<time>2014-08-19T03:20:21Z</time>
<desc><![CDATA[lat.=36.775193, lon.=137.819702, Alt.=1922.056538m. Speed=1.000000m/h.]]></desc>
</trkpt>
<trkpt lat="36.775182" lon="137.819710">
<ele>1920.321346</ele>
<time>2014-08-19T03:20:26Z</time>
<desc><![CDATA[lat.=36.775182, lon.=137.819710, Alt.=1920.321346m. Speed=0.000000m/h.]]></desc>
</trkpt>
<trkpt lat="36.775171" lon="137.819719">
<ele>1918.586155</ele>
<time>2014-08-19T03:20:31Z</time>
<desc><![CDATA[lat.=36.775171, lon.=137.819719, Alt.=1918.586155m. Speed=0.000000m/h.]]></desc>
</trkpt>
<trkpt lat="36.775145" lon="137.819709">
<ele>1920.788119</ele>
<time>2014-08-19T03:20:36Z</time>
<desc><![CDATA[lat.=36.775145, lon.=137.819709, Alt.=1920.788119m. Speed=1.000000m/h.]]></desc>
</trkpt>
<trkpt lat="36.775109" lon="137.819691">
<ele>1921.199169</ele>
<time>2014-08-19T03:20:41Z</time>
<desc><![CDATA[lat.=36.775109, lon.=137.819691, Alt.=1921.199169m. Speed=2.000000m/h.]]></desc>
</trkpt>
<trkpt lat="36.775061" lon="137.819682">
<ele>1919.875033</ele>
<time>2014-08-19T03:20:46Z</time>
<desc><![CDATA[lat.=36.775061, lon.=137.819682, Alt.=1919.875033m. Speed=2.000000m/h.]]></desc>
</trkpt>
<trkpt lat="36.775044" lon="137.819660">
<ele>1915.699643</ele>
<time>2014-08-19T03:20:51Z</time>
<desc><![CDATA[lat.=36.775044, lon.=137.819660, Alt.=1915.699643m. Speed=2.000000m/h.]]></desc>
</trkpt>
<trkpt lat="36.775027" lon="137.819652">
<ele>1913.310056</ele>
<time>2014-08-19T03:20:56Z</time>
<desc><![CDATA[lat.=36.775027, lon.=137.819652, Alt.=1913.310056m. Speed=1.000000m/h.]]></desc>
</trkpt>
<trkpt lat="36.775017" lon="137.819629">
<ele>1911.463420</ele>
<time>2014-08-19T03:21:01Z</time>
<desc><![CDATA[lat.=36.775017, lon.=137.819629, Alt.=1911.463420m. Speed=1.000000m/h.]]></desc>
</trkpt>
<trkpt lat="36.775029" lon="137.819606">
<ele>1909.682731</ele>
<time>2014-08-19T03:21:06Z</time>
<desc><![CDATA[lat.=36.775029, lon.=137.819606, Alt.=1909.682731m. Speed=2.000000m/h.]]></desc>
</trkpt>
<trkpt lat="36.775018" lon="137.819581">
<ele>1911.296252</ele>
<time>2014-08-19T03:21:11Z</time>
<desc><![CDATA[lat.=36.775018, lon.=137.819581, Alt.=1911.296252m. Speed=0.000000m/h.]]></desc>
</trkpt>
<trkpt lat="36.775010" lon="137.819581">
<ele>1912.427655</ele>
<time>2014-08-19T03:21:16Z</time>
<desc><![CDATA[lat.=36.775010, lon.=137.819581, Alt.=1912.427655m. Speed=0.000000m/h.]]></desc>
</trkpt>
<trkpt lat="36.775013" lon="137.819587">
<ele>1915.349969</ele>
<time>2014-08-19T03:21:21Z</time>
<desc><![CDATA[lat.=36.775013, lon.=137.819587, Alt.=1915.349969m. Speed=0.000000m/h.]]></desc>
</trkpt>
<trkpt lat="36.774995" lon="137.819579">
<ele>1914.690461</ele>
<time>2014-08-19T03:21:26Z</time>
<desc><![CDATA[lat.=36.774995, lon.=137.819579, Alt.=1914.690461m. Speed=2.000000m/h.]]></desc>
</trkpt>
<trkpt lat="36.774966" lon="137.819547">
<ele>1913.914399</ele>
<time>2014-08-19T03:21:31Z</time>
<desc><![CDATA[lat.=36.774966, lon.=137.819547, Alt.=1913.914399m. Speed=3.000000m/h.]]></desc>
</trkpt>
<trkpt lat="36.774935" lon="137.819474">
<ele>1913.564740</ele>
<time>2014-08-19T03:21:36Z</time>
<desc><![CDATA[lat.=36.774935, lon.=137.819474, Alt.=1913.564740m. Speed=3.000000m/h.]]></desc>
</trkpt>
<trkpt lat="36.774940" lon="137.819420">
<ele>1911.073941</ele>
<time>2014-08-19T03:21:41Z</time>
<desc><![CDATA[lat.=36.774940, lon.=137.819420, Alt.=1911.073941m. Speed=3.000000m/h.]]></desc>
</trkpt>
<trkpt lat="36.774965" lon="137.819360">
<ele>1905.726775</ele>
<time>2014-08-19T03:21:46Z</time>
<desc><![CDATA[lat.=36.774965, lon.=137.819360, Alt.=1905.726775m. Speed=3.000000m/h.]]></desc>
</trkpt>
<trkpt lat="36.774993" lon="137.819306">
<ele>1903.301928</ele>
<time>2014-08-19T03:21:51Z</time>
<desc><![CDATA[lat.=36.774993, lon.=137.819306, Alt.=1903.301928m. Speed=3.000000m/h.]]></desc>
</trkpt>
<trkpt lat="36.775031" lon="137.819244">
<ele>1904.342356</ele>
<time>2014-08-19T03:21:56Z</time>
<desc><![CDATA[lat.=36.775031, lon.=137.819244, Alt.=1904.342356m. Speed=4.000000m/h.]]></desc>
</trkpt>
<trkpt lat="36.775076" lon="137.819197">
<ele>1906.037182</ele>
<time>2014-08-19T03:22:01Z</time>
<desc><![CDATA[lat.=36.775076, lon.=137.819197, Alt.=1906.037182m. Speed=4.000000m/h.]]></desc>
</trkpt>
<trkpt lat="36.775087" lon="137.819157">
<ele>1907.660948</ele>
<time>2014-08-19T03:22:06Z</time>
<desc><![CDATA[lat.=36.775087, lon.=137.819157, Alt.=1907.660948m. Speed=3.000000m/h.]]></desc>
</trkpt>
<trkpt lat="36.775088" lon="137.819109">
<ele>1909.223885</ele>
<time>2014-08-19T03:22:11Z</time>
<desc><![CDATA[lat.=36.775088, lon.=137.819109, Alt.=1909.223885m. Speed=3.000000m/h.]]></desc>
</trkpt>
<trkpt lat="36.775113" lon="137.819083">
<ele>1915.560875</ele>
<time>2014-08-19T03:22:16Z</time>
<desc><![CDATA[lat.=36.775113, lon.=137.819083, Alt.=1915.560875m. Speed=3.000000m/h.]]></desc>
</trkpt>
<trkpt lat="36.775122" lon="137.819038">
<ele>1912.532259</ele>
<time>2014-08-19T03:22:21Z</time>
<desc><![CDATA[lat.=36.775122, lon.=137.819038, Alt.=1912.532259m. Speed=2.000000m/h.]]></desc>
</trkpt>
<trkpt lat="36.775109" lon="137.819008">
<ele>1907.763329</ele>
<time>2014-08-19T03:22:26Z</time>
<desc><![CDATA[lat.=36.775109, lon.=137.819008, Alt.=1907.763329m. Speed=2.000000m/h.]]></desc>
</trkpt>
<trkpt lat="36.775125" lon="137.818962">
<ele>1905.333393</ele>
<time>2014-08-19T03:22:31Z</time>
<desc><![CDATA[lat.=36.775125, lon.=137.818962, Alt.=1905.333393m. Speed=3.000000m/h.]]></desc>
</trkpt>
<trkpt lat="36.775123" lon="137.818939">
<ele>1902.355373</ele>
<time>2014-08-19T03:22:36Z</time>
<desc><![CDATA[lat.=36.775123, lon.=137.818939, Alt.=1902.355373m. Speed=0.000000m/h.]]></desc>
</trkpt>
<trkpt lat="36.775115" lon="137.818937">
<ele>1905.216853</ele>
<time>2014-08-19T03:22:41Z</time>
<desc><![CDATA[lat.=36.775115, lon.=137.818937, Alt.=1905.216853m. Speed=0.000000m/h.]]></desc>
</trkpt>
<trkpt lat="36.775118" lon="137.818944">
<ele>1908.139163</ele>
<time>2014-08-19T03:22:46Z</time>
<desc><![CDATA[lat.=36.775118, lon.=137.818944, Alt.=1908.139163m. Speed=0.000000m/h.]]></desc>
</trkpt>
<trkpt lat="36.775086" lon="137.818904">
<ele>1906.170888</ele>
<time>2014-08-19T03:22:51Z</time>
<desc><![CDATA[lat.=36.775086, lon.=137.818904, Alt.=1906.170888m. Speed=2.000000m/h.]]></desc>
</trkpt>
<trkpt lat="36.775049" lon="137.818919">
<ele>1904.963300</ele>
<time>2014-08-19T03:22:56Z</time>
<desc><![CDATA[lat.=36.775049, lon.=137.818919, Alt.=1904.963300m. Speed=3.000000m/h.]]></desc>
</trkpt>
<trkpt lat="36.775019" lon="137.818918">
<ele>1906.028758</ele>
<time>2014-08-19T03:23:01Z</time>
<desc><![CDATA[lat.=36.775019, lon.=137.818918, Alt.=1906.028758m. Speed=3.000000m/h.]]></desc>
</trkpt>
<trkpt lat="36.774987" lon="137.818909">
<ele>1905.901986</ele>
<time>2014-08-19T03:23:06Z</time>
<desc><![CDATA[lat.=36.774987, lon.=137.818909, Alt.=1905.901986m. Speed=2.000000m/h.]]></desc>
</trkpt>
<trkpt lat="36.774962" lon="137.818901">
<ele>1902.913734</ele>
<time>2014-08-19T03:23:11Z</time>
<desc><![CDATA[lat.=36.774962, lon.=137.818901, Alt.=1902.913734m. Speed=2.000000m/h.]]></desc>
</trkpt>
<trkpt lat="36.774951" lon="137.818877">
<ele>1902.797200</ele>
<time>2014-08-19T03:23:16Z</time>
<desc><![CDATA[lat.=36.774951, lon.=137.818877, Alt.=1902.797200m. Speed=0.000000m/h.]]></desc>
</trkpt>
<trkpt lat="36.774964" lon="137.818872">
<ele>1897.612082</ele>
<time>2014-08-19T03:23:21Z</time>
<desc><![CDATA[lat.=36.774964, lon.=137.818872, Alt.=1897.612082m. Speed=0.000000m/h.]]></desc>
</trkpt>
<trkpt lat="36.774960" lon="137.818864">
<ele>1898.149930</ele>
<time>2014-08-19T03:23:26Z</time>
<desc><![CDATA[lat.=36.774960, lon.=137.818864, Alt.=1898.149930m. Speed=0.000000m/h.]]></desc>
</trkpt>
<trkpt lat="36.774942" lon="137.818856">
<ele>1895.760353</ele>
<time>2014-08-19T03:23:31Z</time>
<desc><![CDATA[lat.=36.774942, lon.=137.818856, Alt.=1895.760353m. Speed=2.000000m/h.]]></desc>
</trkpt>
<trkpt lat="36.774906" lon="137.818822">
<ele>1897.845807</ele>
<time>2014-08-19T03:23:36Z</time>
<desc><![CDATA[lat.=36.774906, lon.=137.818822, Alt.=1897.845807m. Speed=3.000000m/h.]]></desc>
</trkpt>
<trkpt lat="36.774871" lon="137.818790">
<ele>1894.741030</ele>
<time>2014-08-19T03:23:41Z</time>
<desc><![CDATA[lat.=36.774871, lon.=137.818790, Alt.=1894.741030m. Speed=3.000000m/h.]]></desc>
</trkpt>
<trkpt lat="36.774819" lon="137.818805">
<ele>1894.066190</ele>
<time>2014-08-19T03:23:46Z</time>
<desc><![CDATA[lat.=36.774819, lon.=137.818805, Alt.=1894.066190m. Speed=4.000000m/h.]]></desc>
</trkpt>
<trkpt lat="36.774771" lon="137.818811">
<ele>1892.797798</ele>
<time>2014-08-19T03:23:51Z</time>
<desc><![CDATA[lat.=36.774771, lon.=137.818811, Alt.=1892.797798m. Speed=4.000000m/h.]]></desc>
</trkpt>
<trkpt lat="36.774705" lon="137.818825">
<ele>1892.655706</ele>
<time>2014-08-19T03:23:56Z</time>
<desc><![CDATA[lat.=36.774705, lon.=137.818825, Alt.=1892.655706m. Speed=4.000000m/h.]]></desc>
</trkpt>
<trkpt lat="36.774638" lon="137.818838">
<ele>1892.513623</ele>
<time>2014-08-19T03:24:01Z</time>
<desc><![CDATA[lat.=36.774638, lon.=137.818838, Alt.=1892.513623m. Speed=4.000000m/h.]]></desc>
</trkpt>
<trkpt lat="36.774604" lon="137.818876">
<ele>1894.284081</ele>
<time>2014-08-19T03:24:06Z</time>
<desc><![CDATA[lat.=36.774604, lon.=137.818876, Alt.=1894.284081m. Speed=4.000000m/h.]]></desc>
</trkpt>
<trkpt lat="36.774608" lon="137.818869">
<ele>1893.690521</ele>
<time>2014-08-19T03:24:11Z</time>
<desc><![CDATA[lat.=36.774608, lon.=137.818869, Alt.=1893.690521m. Speed=0.000000m/h.]]></desc>
</trkpt>
<trkpt lat="36.774616" lon="137.818870">
<ele>1890.829033</ele>
<time>2014-08-19T03:24:16Z</time>
<desc><![CDATA[lat.=36.774616, lon.=137.818870, Alt.=1890.829033m. Speed=0.000000m/h.]]></desc>
</trkpt>
<trkpt lat="36.774612" lon="137.818878">
<ele>1891.422592</ele>
<time>2014-08-19T03:24:21Z</time>
<desc><![CDATA[lat.=36.774612, lon.=137.818878, Alt.=1891.422592m. Speed=1.000000m/h.]]></desc>
</trkpt>
<trkpt lat="36.774560" lon="137.818908">
<ele>1890.803489</ele>
<time>2014-08-19T03:24:26Z</time>
<desc><![CDATA[lat.=36.774560, lon.=137.818908, Alt.=1890.803489m. Speed=3.000000m/h.]]></desc>
</trkpt>
<trkpt lat="36.774505" lon="137.818914">
<ele>1888.936455</ele>
<time>2014-08-19T03:24:31Z</time>
<desc><![CDATA[lat.=36.774505, lon.=137.818914, Alt.=1888.936455m. Speed=4.000000m/h.]]></desc>
</trkpt>
<trkpt lat="36.774453" lon="137.818913">
<ele>1888.205944</ele>
<time>2014-08-19T03:24:36Z</time>
<desc><![CDATA[lat.=36.774453, lon.=137.818913, Alt.=1888.205944m. Speed=4.000000m/h.]]></desc>
</trkpt>
<trkpt lat="36.774405" lon="137.818935">
<ele>1886.993296</ele>
<time>2014-08-19T03:24:41Z</time>
<desc><![CDATA[lat.=36.774405, lon.=137.818935, Alt.=1886.993296m. Speed=4.000000m/h.]]></desc>
</trkpt>
<trkpt lat="36.774328" lon="137.818940">
<ele>1888.520519</ele>
<time>2014-08-19T03:24:46Z</time>
<desc><![CDATA[lat.=36.774328, lon.=137.818940, Alt.=1888.520519m. Speed=4.000000m/h.]]></desc>
</trkpt>
<trkpt lat="36.774277" lon="137.818889">
<ele>1891.083054</ele>
<time>2014-08-19T03:24:51Z</time>
<desc><![CDATA[lat.=36.774277, lon.=137.818889, Alt.=1891.083054m. Speed=4.000000m/h.]]></desc>
</trkpt>
<trkpt lat="36.774256" lon="137.818842">
<ele>1889.119936</ele>
<time>2014-08-19T03:24:56Z</time>
<desc><![CDATA[lat.=36.774256, lon.=137.818842, Alt.=1889.119936m. Speed=4.000000m/h.]]></desc>
</trkpt>
<trkpt lat="36.774268" lon="137.818836">
<ele>1885.664880</ele>
<time>2014-08-19T03:25:01Z</time>
<desc><![CDATA[lat.=36.774268, lon.=137.818836, Alt.=1885.664880m. Speed=0.000000m/h.]]></desc>
</trkpt>
<trkpt lat="36.774276" lon="137.818837">
<ele>1884.533465</ele>
<time>2014-08-19T03:25:06Z</time>
<desc><![CDATA[lat.=36.774276, lon.=137.818837, Alt.=1884.533465m. Speed=0.000000m/h.]]></desc>
</trkpt>
<trkpt lat="36.774276" lon="137.818821">
<ele>1884.477757</ele>
<time>2014-08-19T03:25:11Z</time>
<desc><![CDATA[lat.=36.774276, lon.=137.818821, Alt.=1884.477757m. Speed=0.000000m/h.]]></desc>
</trkpt>
<trkpt lat="36.774272" lon="137.818829">
<ele>1883.341240</ele>
<time>2014-08-19T03:25:16Z</time>
<desc><![CDATA[lat.=36.774272, lon.=137.818829, Alt.=1883.341240m. Speed=0.000000m/h.]]></desc>
</trkpt>
<trkpt lat="36.774276" lon="137.818821">
<ele>1884.477757</ele>
<time>2014-08-19T03:25:21Z</time>
<desc><![CDATA[lat.=36.774276, lon.=137.818821, Alt.=1884.477757m. Speed=0.000000m/h.]]></desc>
</trkpt>
<trkpt lat="36.774279" lon="137.818828">
<ele>1885.669983</ele>
<time>2014-08-19T03:25:26Z</time>
<desc><![CDATA[lat.=36.774279, lon.=137.818828, Alt.=1885.669983m. Speed=0.000000m/h.]]></desc>
</trkpt>
<trkpt lat="36.774290" lon="137.818836">
<ele>1887.460872</ele>
<time>2014-08-19T03:25:31Z</time>
<desc><![CDATA[lat.=36.774290, lon.=137.818836, Alt.=1887.460872m. Speed=0.000000m/h.]]></desc>
</trkpt>
<trkpt lat="36.774282" lon="137.818835">
<ele>1888.592287</ele>
<time>2014-08-19T03:25:36Z</time>
<desc><![CDATA[lat.=36.774282, lon.=137.818835, Alt.=1888.592287m. Speed=0.000000m/h.]]></desc>
</trkpt>
<trkpt lat="36.774285" lon="137.818843">
<ele>1889.784513</ele>
<time>2014-08-19T03:25:41Z</time>
<desc><![CDATA[lat.=36.774285, lon.=137.818843, Alt.=1889.784513m. Speed=0.000000m/h.]]></desc>
</trkpt>
<trkpt lat="36.774271" lon="137.818826">
<ele>1890.261555</ele>
<time>2014-08-19T03:25:46Z</time>
<desc><![CDATA[lat.=36.774271, lon.=137.818826, Alt.=1890.261555m. Speed=2.000000m/h.]]></desc>
</trkpt>
<trkpt lat="36.774228" lon="137.818777">
<ele>1889.962608</ele>
<time>2014-08-19T03:25:51Z</time>
<desc><![CDATA[lat.=36.774228, lon.=137.818777, Alt.=1889.962608m. Speed=4.000000m/h.]]></desc>
</trkpt>
<trkpt lat="36.774237" lon="137.818698">
<ele>1890.282740</ele>
<time>2014-08-19T03:25:56Z</time>
<desc><![CDATA[lat.=36.774237, lon.=137.818698, Alt.=1890.282740m. Speed=4.000000m/h.]]></desc>
</trkpt>
<trkpt lat="36.774228" lon="137.818627">
<ele>1888.269033</ele>
<time>2014-08-19T03:26:01Z</time>
<desc><![CDATA[lat.=36.774228, lon.=137.818627, Alt.=1888.269033m. Speed=4.000000m/h.]]></desc>
</trkpt>
<trkpt lat="36.774215" lon="137.818563">
<ele>1888.578972</ele>
<time>2014-08-19T03:26:06Z</time>
<desc><![CDATA[lat.=36.774215, lon.=137.818563, Alt.=1888.578972m. Speed=4.000000m/h.]]></desc>
</trkpt>
<trkpt lat="36.774189" lon="137.818553">
<ele>1890.780997</ele>
<time>2014-08-19T03:26:11Z</time>
<desc><![CDATA[lat.=36.774189, lon.=137.818553, Alt.=1890.780997m. Speed=3.000000m/h.]]></desc>
</trkpt>
<trkpt lat="36.774153" lon="137.818537">
<ele>1889.462061</ele>
<time>2014-08-19T03:26:16Z</time>
<desc><![CDATA[lat.=36.774153, lon.=137.818537, Alt.=1889.462061m. Speed=3.000000m/h.]]></desc>
</trkpt>
<trkpt lat="36.774120" lon="137.818511">
<ele>1891.009727</ele>
<time>2014-08-19T03:26:21Z</time>
<desc><![CDATA[lat.=36.774120, lon.=137.818511, Alt.=1891.009727m. Speed=3.000000m/h.]]></desc>
</trkpt>
<trkpt lat="36.774098" lon="137.818494">
<ele>1892.618198</ele>
<time>2014-08-19T03:26:26Z</time>
<desc><![CDATA[lat.=36.774098, lon.=137.818494, Alt.=1892.618198m. Speed=2.000000m/h.]]></desc>
</trkpt>
<trkpt lat="36.774060" lon="137.818491">
<ele>1894.815130</ele>
<time>2014-08-19T03:26:31Z</time>
<desc><![CDATA[lat.=36.774060, lon.=137.818491, Alt.=1894.815130m. Speed=3.000000m/h.]]></desc>
</trkpt>
<trkpt lat="36.774035" lon="137.818450">
<ele>1895.175683</ele>
<time>2014-08-19T03:26:36Z</time>
<desc><![CDATA[lat.=36.774035, lon.=137.818450, Alt.=1895.175683m. Speed=3.000000m/h.]]></desc>
</trkpt>
<trkpt lat="36.774007" lon="137.818419">
<ele>1892.669640</ele>
<time>2014-08-19T03:26:41Z</time>
<desc><![CDATA[lat.=36.774007, lon.=137.818419, Alt.=1892.669640m. Speed=3.000000m/h.]]></desc>
</trkpt>
<trkpt lat="36.773982" lon="137.818378">
<ele>1893.030199</ele>
<time>2014-08-19T03:26:46Z</time>
<desc><![CDATA[lat.=36.773982, lon.=137.818378, Alt.=1893.030199m. Speed=3.000000m/h.]]></desc>
</trkpt>
<trkpt lat="36.773938" lon="137.818360">
<ele>1894.572780</ele>
<time>2014-08-19T03:26:51Z</time>
<desc><![CDATA[lat.=36.773938, lon.=137.818360, Alt.=1894.572780m. Speed=3.000000m/h.]]></desc>
</trkpt>
<trkpt lat="36.773912" lon="137.818349">
<ele>1898.504902</ele>
<time>2014-08-19T03:26:56Z</time>
<desc><![CDATA[lat.=36.773912, lon.=137.818349, Alt.=1898.504902m. Speed=3.000000m/h.]]></desc>
</trkpt>
<trkpt lat="36.773891" lon="137.818370">
<ele>1904.877162</ele>
<time>2014-08-19T03:27:01Z</time>
<desc><![CDATA[lat.=36.773891, lon.=137.818370, Alt.=1904.877162m. Speed=2.000000m/h.]]></desc>
</trkpt>
<trkpt lat="36.773876" lon="137.818385">
<ele>1905.465624</ele>
<time>2014-08-19T03:27:06Z</time>
<desc><![CDATA[lat.=36.773876, lon.=137.818385, Alt.=1905.465624m. Speed=0.000000m/h.]]></desc>
</trkpt>
<trkpt lat="36.773880" lon="137.818377">
<ele>1904.872063</ele>
<time>2014-08-19T03:27:11Z</time>
<desc><![CDATA[lat.=36.773880, lon.=137.818377, Alt.=1904.872063m. Speed=0.000000m/h.]]></desc>
</trkpt>
<trkpt lat="36.773880" lon="137.818360">
<ele>1906.546444</ele>
<time>2014-08-19T03:27:16Z</time>
<desc><![CDATA[lat.=36.773880, lon.=137.818360, Alt.=1906.546444m. Speed=0.000000m/h.]]></desc>
</trkpt>
<trkpt lat="36.773873" lon="137.818345">
<ele>1905.892086</ele>
<time>2014-08-19T03:27:21Z</time>
<desc><![CDATA[lat.=36.773873, lon.=137.818345, Alt.=1905.892086m. Speed=0.000000m/h.]]></desc>
</trkpt>
<trkpt lat="36.773896" lon="137.818347">
<ele>1902.497823</ele>
<time>2014-08-19T03:27:26Z</time>
<desc><![CDATA[lat.=36.773896, lon.=137.818347, Alt.=1902.497823m. Speed=0.000000m/h.]]></desc>
</trkpt>
<trkpt lat="36.773918" lon="137.818364">
<ele>1900.889340</ele>
<time>2014-08-19T03:27:31Z</time>
<desc><![CDATA[lat.=36.773918, lon.=137.818364, Alt.=1900.889340m. Speed=0.000000m/h.]]></desc>
</trkpt>
<trkpt lat="36.773911" lon="137.818364">
<ele>1902.020760</ele>
<time>2014-08-19T03:27:36Z</time>
<desc><![CDATA[lat.=36.773911, lon.=137.818364, Alt.=1902.020760m. Speed=0.000000m/h.]]></desc>
</trkpt>
<trkpt lat="36.773918" lon="137.818364">
<ele>1900.889340</ele>
<time>2014-08-19T03:27:45Z</time>
<desc><![CDATA[lat.=36.773918, lon.=137.818364, Alt.=1900.889340m. Speed=0.000000m/h.]]></desc>
</trkpt>
<trkpt lat="36.773926" lon="137.818349">
<ele>1899.702220</ele>
<time>2014-08-19T03:27:50Z</time>
<desc><![CDATA[lat.=36.773926, lon.=137.818349, Alt.=1899.702220m. Speed=0.000000m/h.]]></desc>
</trkpt>
<trkpt lat="36.773922" lon="137.818357">
<ele>1900.295780</ele>
<time>2014-08-19T03:27:55Z</time>
<desc><![CDATA[lat.=36.773922, lon.=137.818357, Alt.=1900.295780m. Speed=0.000000m/h.]]></desc>
</trkpt>
<trkpt lat="36.773918" lon="137.818364">
<ele>1900.889340</ele>
<time>2014-08-19T03:28:00Z</time>
<desc><![CDATA[lat.=36.773918, lon.=137.818364, Alt.=1900.889340m. Speed=0.000000m/h.]]></desc>
</trkpt>
<trkpt lat="36.773911" lon="137.818364">
<ele>1902.020760</ele>
<time>2014-08-19T03:28:05Z</time>
<desc><![CDATA[lat.=36.773911, lon.=137.818364, Alt.=1902.020760m. Speed=0.000000m/h.]]></desc>
</trkpt>
<trkpt lat="36.773918" lon="137.818364">
<ele>1902.619419</ele>
<time>2014-08-19T03:28:10Z</time>
<desc><![CDATA[lat.=36.773918, lon.=137.818364, Alt.=1902.619419m. Speed=0.000000m/h.]]></desc>
</trkpt>
<trkpt lat="36.773914" lon="137.818371">
<ele>1903.212979</ele>
<time>2014-08-19T03:28:17Z</time>
<desc><![CDATA[lat.=36.773914, lon.=137.818371, Alt.=1903.212979m. Speed=0.000000m/h.]]></desc>
</trkpt>
<trkpt lat="36.773918" lon="137.818364">
<ele>1902.619419</ele>
<time>2014-08-19T03:28:22Z</time>
<desc><![CDATA[lat.=36.773918, lon.=137.818364, Alt.=1902.619419m. Speed=0.000000m/h.]]></desc>
</trkpt>
<trkpt lat="36.773922" lon="137.818356">
<ele>1902.025859</ele>
<time>2014-08-19T03:28:31Z</time>
<desc><![CDATA[lat.=36.773922, lon.=137.818356, Alt.=1902.025859m. Speed=0.000000m/h.]]></desc>
</trkpt>
<trkpt lat="36.773925" lon="137.818364">
<ele>1901.487999</ele>
<time>2014-08-19T03:28:36Z</time>
<desc><![CDATA[lat.=36.773925, lon.=137.818364, Alt.=1901.487999m. Speed=0.000000m/h.]]></desc>
</trkpt>
<trkpt lat="36.773929" lon="137.818357">
<ele>1900.894439</ele>
<time>2014-08-19T03:28:41Z</time>
<desc><![CDATA[lat.=36.773929, lon.=137.818357, Alt.=1900.894439m. Speed=0.000000m/h.]]></desc>
</trkpt>
<trkpt lat="36.773925" lon="137.818364">
<ele>1901.487999</ele>
<time>2014-08-19T03:28:46Z</time>
<desc><![CDATA[lat.=36.773925, lon.=137.818364, Alt.=1901.487999m. Speed=0.000000m/h.]]></desc>
</trkpt>
<trkpt lat="36.773917" lon="137.818379">
<ele>1902.675119</ele>
<time>2014-08-19T03:28:51Z</time>
<desc><![CDATA[lat.=36.773917, lon.=137.818379, Alt.=1902.675119m. Speed=0.000000m/h.]]></desc>
</trkpt>
<trkpt lat="36.773921" lon="137.818371">
<ele>1903.811638</ele>
<time>2014-08-19T03:28:56Z</time>
<desc><![CDATA[lat.=36.773921, lon.=137.818371, Alt.=1903.811638m. Speed=0.000000m/h.]]></desc>
</trkpt>
<trkpt lat="36.773917" lon="137.818379">
<ele>1904.405198</ele>
<time>2014-08-19T03:29:04Z</time>
<desc><![CDATA[lat.=36.773917, lon.=137.818379, Alt.=1904.405198m. Speed=0.000000m/h.]]></desc>
</trkpt>
<trkpt lat="36.773909" lon="137.818378">
<ele>1905.536619</ele>
<time>2014-08-19T03:29:09Z</time>
<desc><![CDATA[lat.=36.773909, lon.=137.818378, Alt.=1905.536619m. Speed=0.000000m/h.]]></desc>
</trkpt>
<trkpt lat="36.773913" lon="137.818385">
<ele>1906.728838</ele>
<time>2014-08-19T03:29:14Z</time>
<desc><![CDATA[lat.=36.773913, lon.=137.818385, Alt.=1906.728838m. Speed=0.000000m/h.]]></desc>
</trkpt>
<trkpt lat="36.773909" lon="137.818393">
<ele>1907.322398</ele>
<time>2014-08-19T03:29:22Z</time>
<desc><![CDATA[lat.=36.773909, lon.=137.818393, Alt.=1907.322398m. Speed=0.000000m/h.]]></desc>
</trkpt>
<trkpt lat="36.773912" lon="137.818385">
<ele>1908.458917</ele>
<time>2014-08-19T03:29:27Z</time>
<desc><![CDATA[lat.=36.773912, lon.=137.818385, Alt.=1908.458917m. Speed=0.000000m/h.]]></desc>
</trkpt>
<trkpt lat="36.773908" lon="137.818392">
<ele>1909.052477</ele>
<time>2014-08-19T03:29:32Z</time>
<desc><![CDATA[lat.=36.773908, lon.=137.818392, Alt.=1909.052477m. Speed=0.000000m/h.]]></desc>
</trkpt>
<trkpt lat="36.773905" lon="137.818385">
<ele>1907.860258</ele>
<time>2014-08-19T03:29:37Z</time>
<desc><![CDATA[lat.=36.773905, lon.=137.818385, Alt.=1907.860258m. Speed=0.000000m/h.]]></desc>
</trkpt>
<trkpt lat="36.773909" lon="137.818377">
<ele>1907.266698</ele>
<time>2014-08-19T03:29:51Z</time>
<desc><![CDATA[lat.=36.773909, lon.=137.818377, Alt.=1907.266698m. Speed=0.000000m/h.]]></desc>
</trkpt>
<trkpt lat="36.773909" lon="137.818378">
<ele>1905.536619</ele>
<time>2014-08-19T03:29:56Z</time>
<desc><![CDATA[lat.=36.773909, lon.=137.818378, Alt.=1905.536619m. Speed=0.000000m/h.]]></desc>
</trkpt>
<trkpt lat="36.773903" lon="137.818379">
<ele>1903.207880</ele>
<time>2014-08-19T03:30:01Z</time>
<desc><![CDATA[lat.=36.773903, lon.=137.818379, Alt.=1903.207880m. Speed=1.000000m/h.]]></desc>
</trkpt>
<trkpt lat="36.773858" lon="137.818394">
<ele>1901.401708</ele>
<time>2014-08-19T03:30:06Z</time>
<desc><![CDATA[lat.=36.773858, lon.=137.818394, Alt.=1901.401708m. Speed=2.000000m/h.]]></desc>
</trkpt>
<trkpt lat="36.773830" lon="137.818377">
<ele>1900.681456</ele>
<time>2014-08-19T03:30:11Z</time>
<desc><![CDATA[lat.=36.773830, lon.=137.818377, Alt.=1900.681456m. Speed=2.000000m/h.]]></desc>
</trkpt>
<trkpt lat="36.773800" lon="137.818425">
<ele>1898.453926</ele>
<time>2014-08-19T03:30:16Z</time>
<desc><![CDATA[lat.=36.773800, lon.=137.818425, Alt.=1898.453926m. Speed=4.000000m/h.]]></desc>
</trkpt>
<trkpt lat="36.773770" lon="137.818472">
<ele>1896.226400</ele>
<time>2014-08-19T03:30:21Z</time>
<desc><![CDATA[lat.=36.773770, lon.=137.818472, Alt.=1896.226400m. Speed=4.000000m/h.]]></desc>
</trkpt>
<trkpt lat="36.773713" lon="137.818525">
<ele>1896.256632</ele>
<time>2014-08-19T03:30:26Z</time>
<desc><![CDATA[lat.=36.773713, lon.=137.818525, Alt.=1896.256632m. Speed=5.000000m/h.]]></desc>
</trkpt>
<trkpt lat="36.773668" lon="137.818572">
<ele>1894.561885</ele>
<time>2014-08-19T03:30:31Z</time>
<desc><![CDATA[lat.=36.773668, lon.=137.818572, Alt.=1894.561885m. Speed=5.000000m/h.]]></desc>
</trkpt>
<trkpt lat="36.773634" lon="137.818610">
<ele>1896.332395</ele>
<time>2014-08-19T03:30:36Z</time>
<desc><![CDATA[lat.=36.773634, lon.=137.818610, Alt.=1896.332395m. Speed=4.000000m/h.]]></desc>
</trkpt>
<trkpt lat="36.773585" lon="137.818647">
<ele>1896.905600</ele>
<time>2014-08-19T03:30:41Z</time>
<desc><![CDATA[lat.=36.773585, lon.=137.818647, Alt.=1896.905600m. Speed=4.000000m/h.]]></desc>
</trkpt>
<trkpt lat="36.773543" lon="137.818701">
<ele>1898.133170</ele>
<time>2014-08-19T03:30:46Z</time>
<desc><![CDATA[lat.=36.773543, lon.=137.818701, Alt.=1898.133170m. Speed=4.000000m/h.]]></desc>
</trkpt>
<trkpt lat="36.773512" lon="137.818763">
<ele>1897.691463</ele>
<time>2014-08-19T03:30:51Z</time>
<desc><![CDATA[lat.=36.773512, lon.=137.818763, Alt.=1897.691463m. Speed=5.000000m/h.]]></desc>
</trkpt>
<trkpt lat="36.773486" lon="137.818802">
<ele>1896.600486</ele>
<time>2014-08-19T03:30:56Z</time>
<desc><![CDATA[lat.=36.773486, lon.=137.818802, Alt.=1896.600486m. Speed=5.000000m/h.]]></desc>
</trkpt>
<trkpt lat="36.773448" lon="137.818865">
<ele>1895.560137</ele>
<time>2014-08-19T03:31:01Z</time>
<desc><![CDATA[lat.=36.773448, lon.=137.818865, Alt.=1895.560137m. Speed=5.000000m/h.]]></desc>
</trkpt>
<trkpt lat="36.773396" lon="137.818911">
<ele>1894.996861</ele>
<time>2014-08-19T03:31:06Z</time>
<desc><![CDATA[lat.=36.773396, lon.=137.818911, Alt.=1894.996861m. Speed=5.000000m/h.]]></desc>
</trkpt>
<trkpt lat="36.773373" lon="137.818942">
<ele>1893.312327</ele>
<time>2014-08-19T03:31:11Z</time>
<desc><![CDATA[lat.=36.773373, lon.=137.818942, Alt.=1893.312327m. Speed=4.000000m/h.]]></desc>
</trkpt>
<trkpt lat="36.773336" lon="137.819006">
<ele>1890.541918</ele>
<time>2014-08-19T03:31:16Z</time>
<desc><![CDATA[lat.=36.773336, lon.=137.819006, Alt.=1890.541918m. Speed=4.000000m/h.]]></desc>
</trkpt>
<trkpt lat="36.773330" lon="137.819077">
<ele>1889.628262</ele>
<time>2014-08-19T03:31:21Z</time>
<desc><![CDATA[lat.=36.773330, lon.=137.819077, Alt.=1889.628262m. Speed=4.000000m/h.]]></desc>
</trkpt>
<trkpt lat="36.773373" lon="137.819143">
<ele>1888.252788</ele>
<time>2014-08-19T03:31:26Z</time>
<desc><![CDATA[lat.=36.773373, lon.=137.819143, Alt.=1888.252788m. Speed=5.000000m/h.]]></desc>
</trkpt>
<trkpt lat="36.773438" lon="137.819192">
<ele>1890.347643</ele>
<time>2014-08-19T03:31:31Z</time>
<desc><![CDATA[lat.=36.773438, lon.=137.819192, Alt.=1890.347643m. Speed=5.000000m/h.]]></desc>
</trkpt>
<trkpt lat="36.773479" lon="137.819218">
<ele>1887.668530</ele>
<time>2014-08-19T03:31:36Z</time>
<desc><![CDATA[lat.=36.773479, lon.=137.819218, Alt.=1887.668530m. Speed=5.000000m/h.]]></desc>
</trkpt>
<trkpt lat="36.773526" lon="137.819228">
<ele>1887.262436</ele>
<time>2014-08-19T03:31:41Z</time>
<desc><![CDATA[lat.=36.773526, lon.=137.819228, Alt.=1887.262436m. Speed=5.000000m/h.]]></desc>
</trkpt>
<trkpt lat="36.773597" lon="137.819208">
<ele>1885.080720</ele>
<time>2014-08-19T03:31:46Z</time>
<desc><![CDATA[lat.=36.773597, lon.=137.819208, Alt.=1885.080720m. Speed=5.000000m/h.]]></desc>
</trkpt>
<trkpt lat="36.773664" lon="137.819194">
<ele>1885.222662</ele>
<time>2014-08-19T03:31:51Z</time>
<desc><![CDATA[lat.=36.773664, lon.=137.819194, Alt.=1885.222662m. Speed=5.000000m/h.]]></desc>
</trkpt>
<trkpt lat="36.773723" lon="137.819180">
<ele>1886.496036</ele>
<time>2014-08-19T03:31:56Z</time>
<desc><![CDATA[lat.=36.773723, lon.=137.819180, Alt.=1886.496036m. Speed=5.000000m/h.]]></desc>
</trkpt>
<trkpt lat="36.773786" lon="137.819158">
<ele>1887.175848</ele>
<time>2014-08-19T03:32:01Z</time>
<desc><![CDATA[lat.=36.773786, lon.=137.819158, Alt.=1887.175848m. Speed=5.000000m/h.]]></desc>
</trkpt>
<trkpt lat="36.773851" lon="137.819160">
<ele>1889.103609</ele>
<time>2014-08-19T03:32:06Z</time>
<desc><![CDATA[lat.=36.773851, lon.=137.819160, Alt.=1889.103609m. Speed=5.000000m/h.]]></desc>
</trkpt>
<trkpt lat="36.773916" lon="137.819193">
<ele>1891.142809</ele>
<time>2014-08-19T03:32:11Z</time>
<desc><![CDATA[lat.=36.773916, lon.=137.819193, Alt.=1891.142809m. Speed=5.000000m/h.]]></desc>
</trkpt>
<trkpt lat="36.773942" lon="137.819236">
<ele>1885.592052</ele>
<time>2014-08-19T03:32:16Z</time>
<desc><![CDATA[lat.=36.773942, lon.=137.819236, Alt.=1885.592052m. Speed=4.000000m/h.]]></desc>
</trkpt>
<trkpt lat="36.773957" lon="137.819253">
<ele>1885.115009</ele>
<time>2014-08-19T03:32:21Z</time>
<desc><![CDATA[lat.=36.773957, lon.=137.819253, Alt.=1885.115009m. Speed=2.000000m/h.]]></desc>
</trkpt>
<trkpt lat="36.773952" lon="137.819324">
<ele>1884.201368</ele>
<time>2014-08-19T03:32:26Z</time>
<desc><![CDATA[lat.=36.773952, lon.=137.819324, Alt.=1884.201368m. Speed=4.000000m/h.]]></desc>
</trkpt>
<trkpt lat="36.773950" lon="137.819420">
<ele>1882.805604</ele>
<time>2014-08-19T03:32:31Z</time>
<desc><![CDATA[lat.=36.773950, lon.=137.819420, Alt.=1882.805604m. Speed=5.000000m/h.]]></desc>
</trkpt>
<trkpt lat="36.773955" lon="137.819515">
<ele>1883.738590</ele>
<time>2014-08-19T03:32:36Z</time>
<desc><![CDATA[lat.=36.773955, lon.=137.819515, Alt.=1883.738590m. Speed=5.000000m/h.]]></desc>
</trkpt>
<trkpt lat="36.773946" lon="137.819595">
<ele>1881.688465</ele>
<time>2014-08-19T03:32:41Z</time>
<desc><![CDATA[lat.=36.773946, lon.=137.819595, Alt.=1881.688465m. Speed=5.000000m/h.]]></desc>
</trkpt>
<trkpt lat="36.773945" lon="137.819675">
<ele>1880.237009</ele>
<time>2014-08-19T03:32:46Z</time>
<desc><![CDATA[lat.=36.773945, lon.=137.819675, Alt.=1880.237009m. Speed=5.000000m/h.]]></desc>
</trkpt>
<trkpt lat="36.773920" lon="137.819769">
<ele>1880.505465</ele>
<time>2014-08-19T03:32:51Z</time>
<desc><![CDATA[lat.=36.773920, lon.=137.819769, Alt.=1880.505465m. Speed=5.000000m/h.]]></desc>
</trkpt>
<trkpt lat="36.773904" lon="137.819848">
<ele>1879.586786</ele>
<time>2014-08-19T03:32:56Z</time>
<desc><![CDATA[lat.=36.773904, lon.=137.819848, Alt.=1879.586786m. Speed=5.000000m/h.]]></desc>
</trkpt>
<trkpt lat="36.773880" lon="137.819926">
<ele>1879.799534</ele>
<time>2014-08-19T03:33:01Z</time>
<desc><![CDATA[lat.=36.773880, lon.=137.819926, Alt.=1879.799534m. Speed=5.000000m/h.]]></desc>
</trkpt>
<trkpt lat="36.773871" lon="137.820005">
<ele>1879.479530</ele>
<time>2014-08-19T03:33:06Z</time>
<desc><![CDATA[lat.=36.773871, lon.=137.820005, Alt.=1879.479530m. Speed=5.000000m/h.]]></desc>
</trkpt>
<trkpt lat="36.773858" lon="137.820093">
<ele>1878.023033</ele>
<time>2014-08-19T03:33:11Z</time>
<desc><![CDATA[lat.=36.773858, lon.=137.820093, Alt.=1878.023033m. Speed=5.000000m/h.]]></desc>
</trkpt>
<trkpt lat="36.773849" lon="137.820172">
<ele>1877.703045</ele>
<time>2014-08-19T03:33:16Z</time>
<desc><![CDATA[lat.=36.773849, lon.=137.820172, Alt.=1877.703045m. Speed=5.000000m/h.]]></desc>
</trkpt>
<trkpt lat="36.773844" lon="137.820227">
<ele>1878.463829</ele>
<time>2014-08-19T03:33:21Z</time>
<desc><![CDATA[lat.=36.773844, lon.=137.820227, Alt.=1878.463829m. Speed=5.000000m/h.]]></desc>
</trkpt>
<trkpt lat="36.773842" lon="137.820322">
<ele>1878.798251</ele>
<time>2014-08-19T03:33:26Z</time>
<desc><![CDATA[lat.=36.773842, lon.=137.820322, Alt.=1878.798251m. Speed=5.000000m/h.]]></desc>
</trkpt>
<trkpt lat="36.773829" lon="137.820409">
<ele>1877.341789</ele>
<time>2014-08-19T03:33:31Z</time>
<desc><![CDATA[lat.=36.773829, lon.=137.820409, Alt.=1877.341789m. Speed=5.000000m/h.]]></desc>
</trkpt>
<trkpt lat="36.773817" lon="137.820480">
<ele>1877.559673</ele>
<time>2014-08-19T03:33:36Z</time>
<desc><![CDATA[lat.=36.773817, lon.=137.820480, Alt.=1877.559673m. Speed=5.000000m/h.]]></desc>
</trkpt>
<trkpt lat="36.773818" lon="137.820566">
<ele>1879.030621</ele>
<time>2014-08-19T03:33:41Z</time>
<desc><![CDATA[lat.=36.773818, lon.=137.820566, Alt.=1879.030621m. Speed=5.000000m/h.]]></desc>
</trkpt>
<trkpt lat="36.773842" lon="137.820623">
<ele>1878.725909</ele>
<time>2014-08-19T03:33:46Z</time>
<desc><![CDATA[lat.=36.773842, lon.=137.820623, Alt.=1878.725909m. Speed=5.000000m/h.]]></desc>
</trkpt>
<trkpt lat="36.773850" lon="137.820641">
<ele>1874.190078</ele>
<time>2014-08-19T03:33:51Z</time>
<desc><![CDATA[lat.=36.773850, lon.=137.820641, Alt.=1874.190078m. Speed=3.000000m/h.]]></desc>
</trkpt>
<trkpt lat="36.773851" lon="137.820658">
<ele>1872.515746</ele>
<time>2014-08-19T03:33:56Z</time>
<desc><![CDATA[lat.=36.773851, lon.=137.820658, Alt.=1872.515746m. Speed=2.000000m/h.]]></desc>
</trkpt>
<trkpt lat="36.773853" lon="137.820713">
<ele>1872.145144</ele>
<time>2014-08-19T03:34:01Z</time>
<desc><![CDATA[lat.=36.773853, lon.=137.820713, Alt.=1872.145144m. Speed=3.000000m/h.]]></desc>
</trkpt>
<trkpt lat="36.773845" lon="137.820745">
<ele>1871.657978</ele>
<time>2014-08-19T03:34:06Z</time>
<desc><![CDATA[lat.=36.773845, lon.=137.820745, Alt.=1871.657978m. Speed=3.000000m/h.]]></desc>
</trkpt>
<trkpt lat="36.773828" lon="137.820823">
<ele>1872.469474</ele>
<time>2014-08-19T03:34:11Z</time>
<desc><![CDATA[lat.=36.773828, lon.=137.820823, Alt.=1872.469474m. Speed=4.000000m/h.]]></desc>
</trkpt>
<trkpt lat="36.773815" lon="137.820910">
<ele>1872.743144</ele>
<time>2014-08-19T03:34:16Z</time>
<desc><![CDATA[lat.=36.773815, lon.=137.820910, Alt.=1872.743144m. Speed=5.000000m/h.]]></desc>
</trkpt>
<trkpt lat="36.773795" lon="137.821012">
<ele>1872.473918</ele>
<time>2014-08-19T03:34:21Z</time>
<desc><![CDATA[lat.=36.773795, lon.=137.821012, Alt.=1872.473918m. Speed=5.000000m/h.]]></desc>
</trkpt>
<trkpt lat="36.773781" lon="137.821099">
<ele>1872.747609</ele>
<time>2014-08-19T03:34:26Z</time>
<desc><![CDATA[lat.=36.773781, lon.=137.821099, Alt.=1872.747609m. Speed=5.000000m/h.]]></desc>
</trkpt>
<trkpt lat="36.773780" lon="137.821179">
<ele>1871.296302</ele>
<time>2014-08-19T03:34:31Z</time>
<desc><![CDATA[lat.=36.773780, lon.=137.821179, Alt.=1871.296302m. Speed=5.000000m/h.]]></desc>
</trkpt>
<trkpt lat="36.773808" lon="137.821244">
<ele>1870.453800</ele>
<time>2014-08-19T03:34:36Z</time>
<desc><![CDATA[lat.=36.773808, lon.=137.821244, Alt.=1870.453800m. Speed=5.000000m/h.]]></desc>
</trkpt>
<trkpt lat="36.773833" lon="137.821301">
<ele>1868.419058</ele>
<time>2014-08-19T03:34:41Z</time>
<desc><![CDATA[lat.=36.773833, lon.=137.821301, Alt.=1868.419058m. Speed=5.000000m/h.]]></desc>
</trkpt>
<trkpt lat="36.773895" lon="137.821344">
<ele>1865.861703</ele>
<time>2014-08-19T03:34:46Z</time>
<desc><![CDATA[lat.=36.773895, lon.=137.821344, Alt.=1865.861703m. Speed=5.000000m/h.]]></desc>
</trkpt>
<trkpt lat="36.773950" lon="137.821386">
<ele>1866.165851</ele>
<time>2014-08-19T03:34:51Z</time>
<desc><![CDATA[lat.=36.773950, lon.=137.821386, Alt.=1866.165851m. Speed=5.000000m/h.]]></desc>
</trkpt>
<trkpt lat="36.774019" lon="137.821396">
<ele>1865.825732</ele>
<time>2014-08-19T03:34:56Z</time>
<desc><![CDATA[lat.=36.774019, lon.=137.821396, Alt.=1865.825732m. Speed=5.000000m/h.]]></desc>
</trkpt>
<trkpt lat="36.774069" lon="137.821444">
<ele>1870.183636</ele>
<time>2014-08-19T03:35:01Z</time>
<desc><![CDATA[lat.=36.774069, lon.=137.821444, Alt.=1870.183636m. Speed=5.000000m/h.]]></desc>
</trkpt>
<trkpt lat="36.774108" lon="137.821517">
<ele>1869.402005</ele>
<time>2014-08-19T03:35:06Z</time>
<desc><![CDATA[lat.=36.774108, lon.=137.821517, Alt.=1869.402005m. Speed=5.000000m/h.]]></desc>
</trkpt>
<trkpt lat="36.774109" lon="137.821603">
<ele>1870.873066</ele>
<time>2014-08-19T03:35:11Z</time>
<desc><![CDATA[lat.=36.774109, lon.=137.821603, Alt.=1870.873066m. Speed=5.000000m/h.]]></desc>
</trkpt>
<trkpt lat="36.774063" lon="137.821680">
<ele>1872.750146</ele>
<time>2014-08-19T03:35:16Z</time>
<desc><![CDATA[lat.=36.774063, lon.=137.821680, Alt.=1872.750146m. Speed=5.000000m/h.]]></desc>
</trkpt>
<trkpt lat="36.774011" lon="137.821711">
<ele>1870.401127</ele>
<time>2014-08-19T03:35:21Z</time>
<desc><![CDATA[lat.=36.774011, lon.=137.821711, Alt.=1870.401127m. Speed=5.000000m/h.]]></desc>
</trkpt>
<trkpt lat="36.773945" lon="137.821709">
<ele>1870.203417</ele>
<time>2014-08-19T03:35:26Z</time>
<desc><![CDATA[lat.=36.773945, lon.=137.821709, Alt.=1870.203417m. Speed=5.000000m/h.]]></desc>
</trkpt>
<trkpt lat="36.773875" lon="137.821698">
<ele>1870.543541</ele>
<time>2014-08-19T03:35:31Z</time>
<desc><![CDATA[lat.=36.773875, lon.=137.821698, Alt.=1870.543541m. Speed=5.000000m/h.]]></desc>
</trkpt>
<trkpt lat="36.773810" lon="137.821697">
<ele>1866.885696</ele>
<time>2014-08-19T03:35:36Z</time>
<desc><![CDATA[lat.=36.773810, lon.=137.821697, Alt.=1866.885696m. Speed=5.000000m/h.]]></desc>
</trkpt>
<trkpt lat="36.773741" lon="137.821655">
<ele>1867.114310</ele>
<time>2014-08-19T03:35:41Z</time>
<desc><![CDATA[lat.=36.773741, lon.=137.821655, Alt.=1867.114310m. Speed=5.000000m/h.]]></desc>
</trkpt>
<trkpt lat="36.773709" lon="137.821582">
<ele>1868.494611</ele>
<time>2014-08-19T03:35:46Z</time>
<desc><![CDATA[lat.=36.773709, lon.=137.821582, Alt.=1868.494611m. Speed=5.000000m/h.]]></desc>
</trkpt>
<trkpt lat="36.773666" lon="137.821516">
<ele>1869.869857</ele>
<time>2014-08-19T03:35:51Z</time>
<desc><![CDATA[lat.=36.773666, lon.=137.821516, Alt.=1869.869857m. Speed=5.000000m/h.]]></desc>
</trkpt>
<trkpt lat="36.773648" lon="137.821475">
<ele>1870.828931</ele>
<time>2014-08-19T03:35:56Z</time>
<desc><![CDATA[lat.=36.773648, lon.=137.821475, Alt.=1870.828931m. Speed=5.000000m/h.]]></desc>
</trkpt>
<trkpt lat="36.773609" lon="137.821418">
<ele>1871.666359</ele>
<time>2014-08-19T03:36:01Z</time>
<desc><![CDATA[lat.=36.773609, lon.=137.821418, Alt.=1871.666359m. Speed=5.000000m/h.]]></desc>
</trkpt>
<trkpt lat="36.773576" lon="137.821393">
<ele>1873.213967</ele>
<time>2014-08-19T03:36:06Z</time>
<desc><![CDATA[lat.=36.773576, lon.=137.821393, Alt.=1873.213967m. Speed=3.000000m/h.]]></desc>
</trkpt>
<trkpt lat="36.773584" lon="137.821393">
<ele>1872.082544</ele>
<time>2014-08-19T03:36:11Z</time>
<desc><![CDATA[lat.=36.773584, lon.=137.821393, Alt.=1872.082544m. Speed=0.000000m/h.]]></desc>
</trkpt>
</trkseg>
</trk>
<trk>
<name><![CDATA[Track2014/08/17_06:55-2-2-2]]></name>
<trkseg>
<trkpt lat="36.696914" lon="137.798792">
<ele>1878.021381</ele>
<time>2014-08-16T22:52:58Z</time>
<desc><![CDATA[lat.=36.696914, lon.=137.798792, Alt.=1878.021381m. Speed=2.000000m/h.]]></desc>
</trkpt>
<trkpt lat="36.696948" lon="137.798753">
<ele>1879.707003</ele>
<time>2014-08-16T22:53:03Z</time>
<desc><![CDATA[lat.=36.696948, lon.=137.798753, Alt.=1879.707003m. Speed=3.000000m/h.]]></desc>
</trkpt>
<trkpt lat="36.696985" lon="137.798723">
<ele>1879.123868</ele>
<time>2014-08-16T22:53:08Z</time>
<desc><![CDATA[lat.=36.696985, lon.=137.798723, Alt.=1879.123868m. Speed=3.000000m/h.]]></desc>
</trkpt>
<trkpt lat="36.697019" lon="137.798701">
<ele>1879.134707</ele>
<time>2014-08-16T22:53:13Z</time>
<desc><![CDATA[lat.=36.697019, lon.=137.798701, Alt.=1879.134707m. Speed=3.000000m/h.]]></desc>
</trkpt>
<trkpt lat="36.697041" lon="137.798685">
<ele>1880.872092</ele>
<time>2014-08-16T22:53:18Z</time>
<desc><![CDATA[lat.=36.697041, lon.=137.798685, Alt.=1880.872092m. Speed=2.000000m/h.]]></desc>
</trkpt>
<trkpt lat="36.697037" lon="137.798676">
<ele>1883.140853</ele>
<time>2014-08-16T22:53:23Z</time>
<desc><![CDATA[lat.=36.697037, lon.=137.798676, Alt.=1883.140853m. Speed=0.000000m/h.]]></desc>
</trkpt>
<trkpt lat="36.697045" lon="137.798677">
<ele>1880.278123</ele>
<time>2014-08-16T22:53:28Z</time>
<desc><![CDATA[lat.=36.697045, lon.=137.798677, Alt.=1880.278123m. Speed=0.000000m/h.]]></desc>
</trkpt>
<trkpt lat="36.697057" lon="137.798654">
<ele>1880.226371</ele>
<time>2014-08-16T22:53:33Z</time>
<desc><![CDATA[lat.=36.697057, lon.=137.798654, Alt.=1880.226371m. Speed=2.000000m/h.]]></desc>
</trkpt>
<trkpt lat="36.697082" lon="137.798662">
<ele>1883.210677</ele>
<time>2014-08-16T22:53:38Z</time>
<desc><![CDATA[lat.=36.697082, lon.=137.798662, Alt.=1883.210677m. Speed=2.000000m/h.]]></desc>
</trkpt>
<trkpt lat="36.697089" lon="137.798645">
<ele>1885.483053</ele>
<time>2014-08-16T22:53:43Z</time>
<desc><![CDATA[lat.=36.697089, lon.=137.798645, Alt.=1885.483053m. Speed=0.000000m/h.]]></desc>
</trkpt>
<trkpt lat="36.697085" lon="137.798653">
<ele>1886.077022</ele>
<time>2014-08-16T22:53:48Z</time>
<desc><![CDATA[lat.=36.697085, lon.=137.798653, Alt.=1886.077022m. Speed=1.000000m/h.]]></desc>
</trkpt>
<trkpt lat="36.697052" lon="137.798660">
<ele>1884.280655</ele>
<time>2014-08-16T22:53:53Z</time>
<desc><![CDATA[lat.=36.697052, lon.=137.798660, Alt.=1884.280655m. Speed=2.000000m/h.]]></desc>
</trkpt>
<trkpt lat="36.697063" lon="137.798653">
<ele>1884.284269</ele>
<time>2014-08-16T22:53:58Z</time>
<desc><![CDATA[lat.=36.697063, lon.=137.798653, Alt.=1884.284269m. Speed=2.000000m/h.]]></desc>
</trkpt>
<trkpt lat="36.697078" lon="137.798620">
<ele>1887.098864</ele>
<time>2014-08-16T22:54:03Z</time>
<desc><![CDATA[lat.=36.697078, lon.=137.798620, Alt.=1887.098864m. Speed=2.000000m/h.]]></desc>
</trkpt>
<trkpt lat="36.697096" lon="137.798628">
<ele>1887.755429</ele>
<time>2014-08-16T22:54:08Z</time>
<desc><![CDATA[lat.=36.697096, lon.=137.798628, Alt.=1887.755429m. Speed=2.000000m/h.]]></desc>
</trkpt>
<trkpt lat="36.697083" lon="137.798598">
<ele>1884.719374</ele>
<time>2014-08-16T22:54:13Z</time>
<desc><![CDATA[lat.=36.697083, lon.=137.798598, Alt.=1884.719374m. Speed=3.000000m/h.]]></desc>
</trkpt>
<trkpt lat="36.697062" lon="137.798550">
<ele>1882.760531</ele>
<time>2014-08-16T22:54:18Z</time>
<desc><![CDATA[lat.=36.697062, lon.=137.798550, Alt.=1882.760531m. Speed=3.000000m/h.]]></desc>
</trkpt>
<trkpt lat="36.697033" lon="137.798516">
<ele>1885.449940</ele>
<time>2014-08-16T22:54:23Z</time>
<desc><![CDATA[lat.=36.697033, lon.=137.798516, Alt.=1885.449940m. Speed=3.000000m/h.]]></desc>
</trkpt>
<trkpt lat="36.697019" lon="137.798469">
<ele>1884.088687</ele>
<time>2014-08-16T22:54:28Z</time>
<desc><![CDATA[lat.=36.697019, lon.=137.798469, Alt.=1884.088687m. Speed=3.000000m/h.]]></desc>
</trkpt>
<trkpt lat="36.696991" lon="137.798437">
<ele>1883.317788</ele>
<time>2014-08-16T22:54:33Z</time>
<desc><![CDATA[lat.=36.696991, lon.=137.798437, Alt.=1883.317788m. Speed=3.000000m/h.]]></desc>
</trkpt>
<trkpt lat="36.696988" lon="137.798413">
<ele>1882.070876</ele>
<time>2014-08-16T22:54:38Z</time>
<desc><![CDATA[lat.=36.696988, lon.=137.798413, Alt.=1882.070876m. Speed=0.000000m/h.]]></desc>
</trkpt>
<trkpt lat="36.696984" lon="137.798405">
<ele>1882.609483</ele>
<time>2014-08-16T22:54:43Z</time>
<desc><![CDATA[lat.=36.696984, lon.=137.798405, Alt.=1882.609483m. Speed=0.000000m/h.]]></desc>
</trkpt>
<trkpt lat="36.696985" lon="137.798406">
<ele>1880.879326</ele>
<time>2014-08-16T22:54:48Z</time>
<desc><![CDATA[lat.=36.696985, lon.=137.798406, Alt.=1880.879326m. Speed=0.000000m/h.]]></desc>
</trkpt>
<trkpt lat="36.696992" lon="137.798406">
<ele>1881.476909</ele>
<time>2014-08-16T22:54:53Z</time>
<desc><![CDATA[lat.=36.696992, lon.=137.798406, Alt.=1881.476909m. Speed=0.000000m/h.]]></desc>
</trkpt>
<trkpt lat="36.696985" lon="137.798390">
<ele>1880.823966</ele>
<time>2014-08-16T22:54:58Z</time>
<desc><![CDATA[lat.=36.696985, lon.=137.798390, Alt.=1880.823966m. Speed=1.000000m/h.]]></desc>
</trkpt>
<trkpt lat="36.696964" lon="137.798357">
<ele>1882.380812</ele>
<time>2014-08-16T22:55:03Z</time>
<desc><![CDATA[lat.=36.696964, lon.=137.798357, Alt.=1882.380812m. Speed=2.000000m/h.]]></desc>
</trkpt>
<trkpt lat="36.696960" lon="137.798349">
<ele>1881.189262</ele>
<time>2014-08-16T22:55:08Z</time>
<desc><![CDATA[lat.=36.696960, lon.=137.798349, Alt.=1881.189262m. Speed=0.000000m/h.]]></desc>
</trkpt>
<trkpt lat="36.696964" lon="137.798342">
<ele>1880.595295</ele>
<time>2014-08-16T22:55:13Z</time>
<desc><![CDATA[lat.=36.696964, lon.=137.798342, Alt.=1880.595295m. Speed=0.000000m/h.]]></desc>
</trkpt>
<trkpt lat="36.696968" lon="137.798349">
<ele>1881.786845</ele>
<time>2014-08-16T22:55:18Z</time>
<desc><![CDATA[lat.=36.696968, lon.=137.798349, Alt.=1881.786845m. Speed=0.000000m/h.]]></desc>
</trkpt>
<trkpt lat="36.696964" lon="137.798357">
<ele>1882.380812</ele>
<time>2014-08-16T22:55:23Z</time>
<desc><![CDATA[lat.=36.696964, lon.=137.798357, Alt.=1882.380812m. Speed=0.000000m/h.]]></desc>
</trkpt>
<trkpt lat="36.696960" lon="137.798364">
<ele>1882.974779</ele>
<time>2014-08-16T22:55:28Z</time>
<desc><![CDATA[lat.=36.696960, lon.=137.798364, Alt.=1882.974779m. Speed=0.000000m/h.]]></desc>
</trkpt>
<trkpt lat="36.696963" lon="137.798372">
<ele>1884.166329</ele>
<time>2014-08-16T22:55:33Z</time>
<desc><![CDATA[lat.=36.696963, lon.=137.798372, Alt.=1884.166329m. Speed=0.000000m/h.]]></desc>
</trkpt>
<trkpt lat="36.696952" lon="137.798363">
<ele>1884.107354</ele>
<time>2014-08-16T22:55:41Z</time>
<desc><![CDATA[lat.=36.696952, lon.=137.798363, Alt.=1884.107354m. Speed=1.000000m/h.]]></desc>
</trkpt>
<trkpt lat="36.696935" lon="137.798324">
<ele>1883.340078</ele>
<time>2014-08-16T22:55:46Z</time>
<desc><![CDATA[lat.=36.696935, lon.=137.798324, Alt.=1883.340078m. Speed=2.000000m/h.]]></desc>
</trkpt>
<trkpt lat="36.696906" lon="137.798275">
<ele>1882.513832</ele>
<time>2014-08-16T22:55:51Z</time>
<desc><![CDATA[lat.=36.696906, lon.=137.798275, Alt.=1882.513832m. Speed=3.000000m/h.]]></desc>
</trkpt>
<trkpt lat="36.696900" lon="137.798244">
<ele>1881.805535</ele>
<time>2014-08-16T22:55:56Z</time>
<desc><![CDATA[lat.=36.696900, lon.=137.798244, Alt.=1881.805535m. Speed=2.000000m/h.]]></desc>
</trkpt>
<trkpt lat="36.696900" lon="137.798245">
<ele>1880.075377</ele>
<time>2014-08-16T22:56:01Z</time>
<desc><![CDATA[lat.=36.696900, lon.=137.798245, Alt.=1880.075377m. Speed=0.000000m/h.]]></desc>
</trkpt>
<trkpt lat="36.696903" lon="137.798251">
<ele>1882.997083</ele>
<time>2014-08-16T22:56:06Z</time>
<desc><![CDATA[lat.=36.696903, lon.=137.798251, Alt.=1882.997083m. Speed=0.000000m/h.]]></desc>
</trkpt>
<trkpt lat="36.696885" lon="137.798242">
<ele>1884.070686</ele>
<time>2014-08-16T22:56:11Z</time>
<desc><![CDATA[lat.=36.696885, lon.=137.798242, Alt.=1884.070686m. Speed=1.000000m/h.]]></desc>
</trkpt>
<trkpt lat="36.696863" lon="137.798226">
<ele>1883.952742</ele>
<time>2014-08-16T22:56:16Z</time>
<desc><![CDATA[lat.=36.696863, lon.=137.798226, Alt.=1883.952742m. Speed=2.000000m/h.]]></desc>
</trkpt>
<trkpt lat="36.696856" lon="137.798226">
<ele>1883.355161</ele>
<time>2014-08-16T22:56:35Z</time>
<desc><![CDATA[lat.=36.696856, lon.=137.798226, Alt.=1883.355161m. Speed=0.000000m/h.]]></desc>
</trkpt>
<trkpt lat="36.696863" lon="137.798226">
<ele>1882.222585</ele>
<time>2014-08-16T22:56:40Z</time>
<desc><![CDATA[lat.=36.696863, lon.=137.798226, Alt.=1882.222585m. Speed=0.000000m/h.]]></desc>
</trkpt>
<trkpt lat="36.696853" lon="137.798202">
<ele>1882.108257</ele>
<time>2014-08-16T22:56:45Z</time>
<desc><![CDATA[lat.=36.696853, lon.=137.798202, Alt.=1882.108257m. Speed=2.000000m/h.]]></desc>
</trkpt>
<trkpt lat="36.696846" lon="137.798186">
<ele>1883.185477</ele>
<time>2014-08-16T22:56:50Z</time>
<desc><![CDATA[lat.=36.696846, lon.=137.798186, Alt.=1883.185477m. Speed=0.000000m/h.]]></desc>
</trkpt>
<trkpt lat="36.696849" lon="137.798194">
<ele>1882.646866</ele>
<time>2014-08-16T22:56:55Z</time>
<desc><![CDATA[lat.=36.696849, lon.=137.798194, Alt.=1882.646866m. Speed=0.000000m/h.]]></desc>
</trkpt>
<trkpt lat="36.696835" lon="137.798193">
<ele>1883.181862</ele>
<time>2014-08-16T22:57:00Z</time>
<desc><![CDATA[lat.=36.696835, lon.=137.798193, Alt.=1883.181862m. Speed=0.000000m/h.]]></desc>
</trkpt>
<trkpt lat="36.696820" lon="137.798161">
<ele>1883.606146</ele>
<time>2014-08-16T22:57:05Z</time>
<desc><![CDATA[lat.=36.696820, lon.=137.798161, Alt.=1883.606146m. Speed=2.000000m/h.]]></desc>
</trkpt>
<trkpt lat="36.696780" lon="137.798135">
<ele>1884.561814</ele>
<time>2014-08-16T22:57:10Z</time>
<desc><![CDATA[lat.=36.696780, lon.=137.798135, Alt.=1884.561814m. Speed=3.000000m/h.]]></desc>
</trkpt>
<trkpt lat="36.696751" lon="137.798102">
<ele>1885.521100</ele>
<time>2014-08-16T22:57:15Z</time>
<desc><![CDATA[lat.=36.696751, lon.=137.798102, Alt.=1885.521100m. Speed=3.000000m/h.]]></desc>
</trkpt>
<trkpt lat="36.696720" lon="137.798062">
<ele>1883.558686</ele>
<time>2014-08-16T22:57:20Z</time>
<desc><![CDATA[lat.=36.696720, lon.=137.798062, Alt.=1883.558686m. Speed=3.000000m/h.]]></desc>
</trkpt>
<trkpt lat="36.696684" lon="137.798029">
<ele>1883.920399</ele>
<time>2014-08-16T22:57:25Z</time>
<desc><![CDATA[lat.=36.696684, lon.=137.798029, Alt.=1883.920399m. Speed=3.000000m/h.]]></desc>
</trkpt>
<trkpt lat="36.696659" lon="137.797988">
<ele>1884.285728</ele>
<time>2014-08-16T22:57:30Z</time>
<desc><![CDATA[lat.=36.696659, lon.=137.797988, Alt.=1884.285728m. Speed=3.000000m/h.]]></desc>
</trkpt>
<trkpt lat="36.696626" lon="137.797964">
<ele>1882.378677</ele>
<time>2014-08-16T22:57:35Z</time>
<desc><![CDATA[lat.=36.696626, lon.=137.797964, Alt.=1882.378677m. Speed=3.000000m/h.]]></desc>
</trkpt>
<trkpt lat="36.696593" lon="137.797954">
<ele>1885.717454</ele>
<time>2014-08-16T22:57:40Z</time>
<desc><![CDATA[lat.=36.696593, lon.=137.797954, Alt.=1885.717454m. Speed=3.000000m/h.]]></desc>
</trkpt>
<trkpt lat="36.696560" lon="137.797929">
<ele>1885.540566</ele>
<time>2014-08-16T22:57:45Z</time>
<desc><![CDATA[lat.=36.696560, lon.=137.797929, Alt.=1885.540566m. Speed=3.000000m/h.]]></desc>
</trkpt>
<trkpt lat="36.696542" lon="137.797920">
<ele>1886.614185</ele>
<time>2014-08-16T22:57:50Z</time>
<desc><![CDATA[lat.=36.696542, lon.=137.797920, Alt.=1886.614185m. Speed=2.000000m/h.]]></desc>
</trkpt>
<trkpt lat="36.696549" lon="137.797936">
<ele>1887.267113</ele>
<time>2014-08-16T22:57:55Z</time>
<desc><![CDATA[lat.=36.696549, lon.=137.797936, Alt.=1887.267113m. Speed=0.000000m/h.]]></desc>
</trkpt>
<trkpt lat="36.696538" lon="137.797927">
<ele>1887.208152</ele>
<time>2014-08-16T22:58:00Z</time>
<desc><![CDATA[lat.=36.696538, lon.=137.797927, Alt.=1887.208152m. Speed=1.000000m/h.]]></desc>
</trkpt>
<trkpt lat="36.696506" lon="137.797887">
<ele>1886.975917</ele>
<time>2014-08-16T22:58:05Z</time>
<desc><![CDATA[lat.=36.696506, lon.=137.797887, Alt.=1886.975917m. Speed=2.000000m/h.]]></desc>
</trkpt>
<trkpt lat="36.696476" lon="137.797869">
<ele>1887.990578</ele>
<time>2014-08-16T22:58:10Z</time>
<desc><![CDATA[lat.=36.696476, lon.=137.797869, Alt.=1887.990578m. Speed=3.000000m/h.]]></desc>
</trkpt>
<trkpt lat="36.696476" lon="137.797869">
<ele>1889.720737</ele>
<time>2014-08-16T22:58:15Z</time>
<desc><![CDATA[lat.=36.696476, lon.=137.797869, Alt.=1889.720737m. Speed=0.000000m/h.]]></desc>
</trkpt>
<trkpt lat="36.696472" lon="137.797860">
<ele>1890.259353</ele>
<time>2014-08-16T22:58:22Z</time>
<desc><![CDATA[lat.=36.696472, lon.=137.797860, Alt.=1890.259353m. Speed=1.000000m/h.]]></desc>
</trkpt>
<trkpt lat="36.696429" lon="137.797827">
<ele>1890.023516</ele>
<time>2014-08-16T22:58:27Z</time>
<desc><![CDATA[lat.=36.696429, lon.=137.797827, Alt.=1890.023516m. Speed=3.000000m/h.]]></desc>
</trkpt>
<trkpt lat="36.696397" lon="137.797802">
<ele>1889.846643</ele>
<time>2014-08-16T22:58:32Z</time>
<desc><![CDATA[lat.=36.696397, lon.=137.797802, Alt.=1889.846643m. Speed=3.000000m/h.]]></desc>
</trkpt>
<trkpt lat="36.696356" lon="137.797792">
<ele>1890.857704</ele>
<time>2014-08-16T22:58:37Z</time>
<desc><![CDATA[lat.=36.696356, lon.=137.797792, Alt.=1890.857704m. Speed=3.000000m/h.]]></desc>
</trkpt>
<trkpt lat="36.696332" lon="137.797769">
<ele>1887.818093</ele>
<time>2014-08-16T22:58:42Z</time>
<desc><![CDATA[lat.=36.696332, lon.=137.797769, Alt.=1887.818093m. Speed=3.000000m/h.]]></desc>
</trkpt>
<trkpt lat="36.696324" lon="137.797753">
<ele>1888.895330</ele>
<time>2014-08-16T22:58:47Z</time>
<desc><![CDATA[lat.=36.696324, lon.=137.797753, Alt.=1888.895330m. Speed=2.000000m/h.]]></desc>
</trkpt>
<trkpt lat="36.696329" lon="137.797746">
<ele>1886.571205</ele>
<time>2014-08-16T22:58:52Z</time>
<desc><![CDATA[lat.=36.696329, lon.=137.797746, Alt.=1886.571205m. Speed=0.000000m/h.]]></desc>
</trkpt>
<trkpt lat="36.696328" lon="137.797744">
<ele>1890.031522</ele>
<time>2014-08-16T22:58:57Z</time>
<desc><![CDATA[lat.=36.696328, lon.=137.797744, Alt.=1890.031522m. Speed=0.000000m/h.]]></desc>
</trkpt>
<trkpt lat="36.696324" lon="137.797736">
<ele>1890.570140</ele>
<time>2014-08-16T22:59:04Z</time>
<desc><![CDATA[lat.=36.696324, lon.=137.797736, Alt.=1890.570140m. Speed=1.000000m/h.]]></desc>
</trkpt>
<trkpt lat="36.696299" lon="137.797727">
<ele>1891.046196</ele>
<time>2014-08-16T22:59:09Z</time>
<desc><![CDATA[lat.=36.696299, lon.=137.797727, Alt.=1891.046196m. Speed=2.000000m/h.]]></desc>
</trkpt>
<trkpt lat="36.696274" lon="137.797703">
<ele>1889.736748</ele>
<time>2014-08-16T22:59:14Z</time>
<desc><![CDATA[lat.=36.696274, lon.=137.797703, Alt.=1889.736748m. Speed=2.000000m/h.]]></desc>
</trkpt>
<trkpt lat="36.696255" lon="137.797694">
<ele>1890.810380</ele>
<time>2014-08-16T22:59:19Z</time>
<desc><![CDATA[lat.=36.696255, lon.=137.797694, Alt.=1890.810380m. Speed=2.000000m/h.]]></desc>
</trkpt>
<trkpt lat="36.696240" lon="137.797709">
<ele>1891.400740</ele>
<time>2014-08-16T22:59:24Z</time>
<desc><![CDATA[lat.=36.696240, lon.=137.797709, Alt.=1891.400740m. Speed=0.000000m/h.]]></desc>
</trkpt>
<trkpt lat="36.696208" lon="137.797684">
<ele>1891.223882</ele>
<time>2014-08-16T22:59:29Z</time>
<desc><![CDATA[lat.=36.696208, lon.=137.797684, Alt.=1891.223882m. Speed=2.000000m/h.]]></desc>
</trkpt>
<trkpt lat="36.696175" lon="137.797659">
<ele>1891.047027</ele>
<time>2014-08-16T22:59:34Z</time>
<desc><![CDATA[lat.=36.696175, lon.=137.797659, Alt.=1891.047027m. Speed=3.000000m/h.]]></desc>
</trkpt>
<trkpt lat="36.696146" lon="137.797642">
<ele>1892.061712</ele>
<time>2014-08-16T22:59:39Z</time>
<desc><![CDATA[lat.=36.696146, lon.=137.797642, Alt.=1892.061712m. Speed=3.000000m/h.]]></desc>
</trkpt>
<trkpt lat="36.696106" lon="137.797617">
<ele>1891.287291</ele>
<time>2014-08-16T22:59:44Z</time>
<desc><![CDATA[lat.=36.696106, lon.=137.797617, Alt.=1891.287291m. Speed=3.000000m/h.]]></desc>
</trkpt>
<trkpt lat="36.696070" lon="137.797600">
<ele>1891.704411</ele>
<time>2014-08-16T22:59:49Z</time>
<desc><![CDATA[lat.=36.696070, lon.=137.797600, Alt.=1891.704411m. Speed=3.000000m/h.]]></desc>
</trkpt>
<trkpt lat="36.696052" lon="137.797575">
<ele>1890.992548</ele>
<time>2014-08-16T22:59:54Z</time>
<desc><![CDATA[lat.=36.696052, lon.=137.797575, Alt.=1890.992548m. Speed=3.000000m/h.]]></desc>
</trkpt>
<trkpt lat="36.696047" lon="137.797614">
<ele>1893.427364</ele>
<time>2014-08-16T22:59:59Z</time>
<desc><![CDATA[lat.=36.696047, lon.=137.797614, Alt.=1893.427364m. Speed=0.000000m/h.]]></desc>
</trkpt>
<trkpt lat="36.696021" lon="137.797605">
<ele>1893.903435</ele>
<time>2014-08-16T23:00:04Z</time>
<desc><![CDATA[lat.=36.696021, lon.=137.797605, Alt.=1893.903435m. Speed=2.000000m/h.]]></desc>
</trkpt>
<trkpt lat="36.695981" lon="137.797580">
<ele>1893.129025</ele>
<time>2014-08-16T23:00:09Z</time>
<desc><![CDATA[lat.=36.695981, lon.=137.797580, Alt.=1893.129025m. Speed=3.000000m/h.]]></desc>
</trkpt>
<trkpt lat="36.695952" lon="137.797547">
<ele>1894.088378</ele>
<time>2014-08-16T23:00:14Z</time>
<desc><![CDATA[lat.=36.695952, lon.=137.797547, Alt.=1894.088378m. Speed=3.000000m/h.]]></desc>
</trkpt>
<trkpt lat="36.695920" lon="137.797538">
<ele>1893.966887</ele>
<time>2014-08-16T23:00:19Z</time>
<desc><![CDATA[lat.=36.695920, lon.=137.797538, Alt.=1893.966887m. Speed=3.000000m/h.]]></desc>
</trkpt>
<trkpt lat="36.695887" lon="137.797513">
<ele>1893.790055</ele>
<time>2014-08-16T23:00:24Z</time>
<desc><![CDATA[lat.=36.695887, lon.=137.797513, Alt.=1893.790055m. Speed=3.000000m/h.]]></desc>
</trkpt>
<trkpt lat="36.695865" lon="137.797496">
<ele>1893.672168</ele>
<time>2014-08-16T23:00:29Z</time>
<desc><![CDATA[lat.=36.695865, lon.=137.797496, Alt.=1893.672168m. Speed=3.000000m/h.]]></desc>
</trkpt>
<trkpt lat="36.695848" lon="137.797472">
<ele>1892.960315</ele>
<time>2014-08-16T23:00:34Z</time>
<desc><![CDATA[lat.=36.695848, lon.=137.797472, Alt.=1892.960315m. Speed=2.000000m/h.]]></desc>
</trkpt>
<trkpt lat="36.695834" lon="137.797456">
<ele>1891.709838</ele>
<time>2014-08-16T23:00:39Z</time>
<desc><![CDATA[lat.=36.695834, lon.=137.797456, Alt.=1891.709838m. Speed=2.000000m/h.]]></desc>
</trkpt>
<trkpt lat="36.695804" lon="137.797439">
<ele>1892.724547</ele>
<time>2014-08-16T23:00:44Z</time>
<desc><![CDATA[lat.=36.695804, lon.=137.797439, Alt.=1892.724547m. Speed=2.000000m/h.]]></desc>
</trkpt>
<trkpt lat="36.695808" lon="137.797431">
<ele>1892.130580</ele>
<time>2014-08-16T23:00:49Z</time>
<desc><![CDATA[lat.=36.695808, lon.=137.797431, Alt.=1892.130580m. Speed=0.000000m/h.]]></desc>
</trkpt>
<trkpt lat="36.695809" lon="137.797432">
<ele>1890.400421</ele>
<time>2014-08-16T23:00:54Z</time>
<desc><![CDATA[lat.=36.695809, lon.=137.797432, Alt.=1890.400421m. Speed=0.000000m/h.]]></desc>
</trkpt>
<trkpt lat="36.695791" lon="137.797424">
<ele>1889.743913</ele>
<time>2014-08-16T23:00:59Z</time>
<desc><![CDATA[lat.=36.695791, lon.=137.797424, Alt.=1889.743913m. Speed=2.000000m/h.]]></desc>
</trkpt>
<trkpt lat="36.695772" lon="137.797414">
<ele>1892.547724</ele>
<time>2014-08-16T23:01:04Z</time>
<desc><![CDATA[lat.=36.695772, lon.=137.797414, Alt.=1892.547724m. Speed=1.000000m/h.]]></desc>
</trkpt>
<trkpt lat="36.695754" lon="137.797389">
<ele>1893.566036</ele>
<time>2014-08-16T23:01:09Z</time>
<desc><![CDATA[lat.=36.695754, lon.=137.797389, Alt.=1893.566036m. Speed=2.000000m/h.]]></desc>
</trkpt>
<trkpt lat="36.695706" lon="137.797364">
<ele>1893.924247</ele>
<time>2014-08-16T23:01:14Z</time>
<desc><![CDATA[lat.=36.695706, lon.=137.797364, Alt.=1893.924247m. Speed=3.000000m/h.]]></desc>
</trkpt>
<trkpt lat="36.695666" lon="137.797354">
<ele>1894.935369</ele>
<time>2014-08-16T23:01:19Z</time>
<desc><![CDATA[lat.=36.695666, lon.=137.797354, Alt.=1894.935369m. Speed=3.000000m/h.]]></desc>
</trkpt>
<trkpt lat="36.695629" lon="137.797336">
<ele>1895.352525</ele>
<time>2014-08-16T23:01:24Z</time>
<desc><![CDATA[lat.=36.695629, lon.=137.797336, Alt.=1895.352525m. Speed=3.000000m/h.]]></desc>
</trkpt>
<trkpt lat="36.695600" lon="137.797320">
<ele>1894.637089</ele>
<time>2014-08-16T23:01:29Z</time>
<desc><![CDATA[lat.=36.695600, lon.=137.797320, Alt.=1894.637089m. Speed=3.000000m/h.]]></desc>
</trkpt>
<trkpt lat="36.695594" lon="137.797288">
<ele>1895.659005</ele>
<time>2014-08-16T23:01:34Z</time>
<desc><![CDATA[lat.=36.695594, lon.=137.797288, Alt.=1895.659005m. Speed=2.000000m/h.]]></desc>
</trkpt>
<trkpt lat="36.695604" lon="137.797311">
<ele>1897.503440</ele>
<time>2014-08-16T23:01:39Z</time>
<desc><![CDATA[lat.=36.695604, lon.=137.797311, Alt.=1897.503440m. Speed=2.000000m/h.]]></desc>
</trkpt>
<trkpt lat="36.695633" lon="137.797311">
<ele>1899.893695</ele>
<time>2014-08-16T23:01:44Z</time>
<desc><![CDATA[lat.=36.695633, lon.=137.797311, Alt.=1899.893695m. Speed=2.000000m/h.]]></desc>
</trkpt>
<trkpt lat="36.695669" lon="137.797311">
<ele>1902.881517</ele>
<time>2014-08-16T23:01:49Z</time>
<desc><![CDATA[lat.=36.695669, lon.=137.797311, Alt.=1902.881517m. Speed=3.000000m/h.]]></desc>
</trkpt>
<trkpt lat="36.695697" lon="137.797326">
<ele>1907.057275</ele>
<time>2014-08-16T23:01:54Z</time>
<desc><![CDATA[lat.=36.695697, lon.=137.797326, Alt.=1907.057275m. Speed=3.000000m/h.]]></desc>
</trkpt>
<trkpt lat="36.695744" lon="137.797352">
<ele>1906.699061</ele>
<time>2014-08-16T23:01:59Z</time>
<desc><![CDATA[lat.=36.695744, lon.=137.797352, Alt.=1906.699061m. Speed=3.000000m/h.]]></desc>
</trkpt>
<trkpt lat="36.695769" lon="137.797376">
<ele>1906.278314</ele>
<time>2014-08-16T23:02:04Z</time>
<desc><![CDATA[lat.=36.695769, lon.=137.797376, Alt.=1906.278314m. Speed=3.000000m/h.]]></desc>
</trkpt>
<trkpt lat="36.695795" lon="137.797385">
<ele>1907.532387</ele>
<time>2014-08-16T23:02:09Z</time>
<desc><![CDATA[lat.=36.695795, lon.=137.797385, Alt.=1907.532387m. Speed=2.000000m/h.]]></desc>
</trkpt>
<trkpt lat="36.695824" lon="137.797385">
<ele>1908.192494</ele>
<time>2014-08-16T23:02:14Z</time>
<desc><![CDATA[lat.=36.695824, lon.=137.797385, Alt.=1908.192494m. Speed=2.000000m/h.]]></desc>
</trkpt>
<trkpt lat="36.695853" lon="137.797386">
<ele>1908.852602</ele>
<time>2014-08-16T23:02:19Z</time>
<desc><![CDATA[lat.=36.695853, lon.=137.797386, Alt.=1908.852602m. Speed=2.000000m/h.]]></desc>
</trkpt>
<trkpt lat="36.695887" lon="137.797379">
<ele>1908.918746</ele>
<time>2014-08-16T23:02:24Z</time>
<desc><![CDATA[lat.=36.695887, lon.=137.797379, Alt.=1908.918746m. Speed=2.000000m/h.]]></desc>
</trkpt>
<trkpt lat="36.695927" lon="137.797373">
<ele>1907.852302</ele>
<time>2014-08-16T23:02:29Z</time>
<desc><![CDATA[lat.=36.695927, lon.=137.797373, Alt.=1907.852302m. Speed=3.000000m/h.]]></desc>
</trkpt>
<trkpt lat="36.695965" lon="137.797360">
<ele>1905.594326</ele>
<time>2014-08-16T23:02:34Z</time>
<desc><![CDATA[lat.=36.695965, lon.=137.797360, Alt.=1905.594326m. Speed=3.000000m/h.]]></desc>
</trkpt>
<trkpt lat="36.696002" lon="137.797362">
<ele>1903.391694</ele>
<time>2014-08-16T23:02:39Z</time>
<desc><![CDATA[lat.=36.696002, lon.=137.797362, Alt.=1903.391694m. Speed=3.000000m/h.]]></desc>
</trkpt>
<trkpt lat="36.696040" lon="137.797348">
<ele>1902.863883</ele>
<time>2014-08-16T23:02:44Z</time>
<desc><![CDATA[lat.=36.696040, lon.=137.797348, Alt.=1902.863883m. Speed=3.000000m/h.]]></desc>
</trkpt>
<trkpt lat="36.696076" lon="137.797332">
<ele>1905.796393</ele>
<time>2014-08-16T23:02:49Z</time>
<desc><![CDATA[lat.=36.696076, lon.=137.797332, Alt.=1905.796393m. Speed=3.000000m/h.]]></desc>
</trkpt>
<trkpt lat="36.696105" lon="137.797333">
<ele>1906.456515</ele>
<time>2014-08-16T23:02:54Z</time>
<desc><![CDATA[lat.=36.696105, lon.=137.797333, Alt.=1906.456515m. Speed=2.000000m/h.]]></desc>
</trkpt>
<trkpt lat="36.696135" lon="137.797335">
<ele>1905.386481</ele>
<time>2014-08-16T23:02:59Z</time>
<desc><![CDATA[lat.=36.696135, lon.=137.797335, Alt.=1905.386481m. Speed=2.000000m/h.]]></desc>
</trkpt>
<trkpt lat="36.696165" lon="137.797320">
<ele>1905.991267</ele>
<time>2014-08-16T23:03:04Z</time>
<desc><![CDATA[lat.=36.696165, lon.=137.797320, Alt.=1905.991267m. Speed=2.000000m/h.]]></desc>
</trkpt>
<trkpt lat="36.696205" lon="137.797313">
<ele>1906.655004</ele>
<time>2014-08-16T23:03:09Z</time>
<desc><![CDATA[lat.=36.696205, lon.=137.797313, Alt.=1906.655004m. Speed=3.000000m/h.]]></desc>
</trkpt>
<trkpt lat="36.696239" lon="137.797308">
<ele>1903.260854</ele>
<time>2014-08-16T23:03:14Z</time>
<desc><![CDATA[lat.=36.696239, lon.=137.797308, Alt.=1903.260854m. Speed=3.000000m/h.]]></desc>
</trkpt>
<trkpt lat="36.696272" lon="137.797301">
<ele>1903.327023</ele>
<time>2014-08-16T23:03:19Z</time>
<desc><![CDATA[lat.=36.696272, lon.=137.797301, Alt.=1903.327023m. Speed=2.000000m/h.]]></desc>
</trkpt>
<trkpt lat="36.696243" lon="137.797251">
<ele>1905.961192</ele>
<time>2014-08-16T23:03:24Z</time>
<desc><![CDATA[lat.=36.696243, lon.=137.797251, Alt.=1905.961192m. Speed=2.000000m/h.]]></desc>
</trkpt>
<trkpt lat="36.696222" lon="137.797218">
<ele>1907.518117</ele>
<time>2014-08-16T23:03:29Z</time>
<desc><![CDATA[lat.=36.696222, lon.=137.797218, Alt.=1907.518117m. Speed=3.000000m/h.]]></desc>
</trkpt>
<trkpt lat="36.696193" lon="137.797185">
<ele>1908.477472</ele>
<time>2014-08-16T23:03:34Z</time>
<desc><![CDATA[lat.=36.696193, lon.=137.797185, Alt.=1908.477472m. Speed=3.000000m/h.]]></desc>
</trkpt>
<trkpt lat="36.696171" lon="137.797152">
<ele>1910.034402</ele>
<time>2014-08-16T23:03:39Z</time>
<desc><![CDATA[lat.=36.696171, lon.=137.797152, Alt.=1910.034402m. Speed=3.000000m/h.]]></desc>
</trkpt>
<trkpt lat="36.696142" lon="137.797119">
<ele>1910.993762</ele>
<time>2014-08-16T23:03:44Z</time>
<desc><![CDATA[lat.=36.696142, lon.=137.797119, Alt.=1910.993762m. Speed=3.000000m/h.]]></desc>
</trkpt>
<trkpt lat="36.696125" lon="137.797094">
<ele>1910.281911</ele>
<time>2014-08-16T23:03:49Z</time>
<desc><![CDATA[lat.=36.696125, lon.=137.797094, Alt.=1910.281911m. Speed=3.000000m/h.]]></desc>
</trkpt>
<trkpt lat="36.696084" lon="137.797069">
<ele>1911.237668</ele>
<time>2014-08-16T23:03:54Z</time>
<desc><![CDATA[lat.=36.696084, lon.=137.797069, Alt.=1911.237668m. Speed=3.000000m/h.]]></desc>
</trkpt>
<trkpt lat="36.696055" lon="137.797051">
<ele>1912.252371</ele>
<time>2014-08-16T23:03:59Z</time>
<desc><![CDATA[lat.=36.696055, lon.=137.797051, Alt.=1912.252371m. Speed=3.000000m/h.]]></desc>
</trkpt>
<trkpt lat="36.696037" lon="137.797027">
<ele>1913.270684</ele>
<time>2014-08-16T23:04:04Z</time>
<desc><![CDATA[lat.=36.696037, lon.=137.797027, Alt.=1913.270684m. Speed=2.000000m/h.]]></desc>
</trkpt>
<trkpt lat="36.696015" lon="137.797009">
<ele>1914.882960</ele>
<time>2014-08-16T23:04:09Z</time>
<desc><![CDATA[lat.=36.696015, lon.=137.797009, Alt.=1914.882960m. Speed=2.000000m/h.]]></desc>
</trkpt>
<trkpt lat="36.695986" lon="137.797009">
<ele>1914.222843</ele>
<time>2014-08-16T23:04:14Z</time>
<desc><![CDATA[lat.=36.695986, lon.=137.797009, Alt.=1914.222843m. Speed=2.000000m/h.]]></desc>
</trkpt>
<trkpt lat="36.695956" lon="137.796990">
<ele>1916.967712</ele>
<time>2014-08-16T23:04:19Z</time>
<desc><![CDATA[lat.=36.695956, lon.=137.796990, Alt.=1916.967712m. Speed=2.000000m/h.]]></desc>
</trkpt>
<trkpt lat="36.695942" lon="137.796991">
<ele>1914.042416</ele>
<time>2014-08-16T23:04:24Z</time>
<desc><![CDATA[lat.=36.695942, lon.=137.796991, Alt.=1914.042416m. Speed=2.000000m/h.]]></desc>
</trkpt>
<trkpt lat="36.695932" lon="137.796984">
<ele>1912.253317</ele>
<time>2014-08-16T23:04:29Z</time>
<desc><![CDATA[lat.=36.695932, lon.=137.796984, Alt.=1912.253317m. Speed=2.000000m/h.]]></desc>
</trkpt>
<trkpt lat="36.695891" lon="137.796975">
<ele>1911.534266</ele>
<time>2014-08-16T23:04:34Z</time>
<desc><![CDATA[lat.=36.695891, lon.=137.796975, Alt.=1911.534266m. Speed=2.000000m/h.]]></desc>
</trkpt>
<trkpt lat="36.695862" lon="137.796956">
<ele>1914.279142</ele>
<time>2014-08-16T23:04:39Z</time>
<desc><![CDATA[lat.=36.695862, lon.=137.796956, Alt.=1914.279142m. Speed=3.000000m/h.]]></desc>
</trkpt>
<trkpt lat="36.695836" lon="137.796931">
<ele>1916.430057</ele>
<time>2014-08-16T23:04:44Z</time>
<desc><![CDATA[lat.=36.695836, lon.=137.796931, Alt.=1916.430057m. Speed=3.000000m/h.]]></desc>
</trkpt>
<trkpt lat="36.695803" lon="137.796921">
<ele>1918.038740</ele>
<time>2014-08-16T23:04:49Z</time>
<desc><![CDATA[lat.=36.695803, lon.=137.796921, Alt.=1918.038740m. Speed=3.000000m/h.]]></desc>
</trkpt>
<trkpt lat="36.695770" lon="137.796896">
<ele>1917.861934</ele>
<time>2014-08-16T23:04:54Z</time>
<desc><![CDATA[lat.=36.695770, lon.=137.796896, Alt.=1917.861934m. Speed=3.000000m/h.]]></desc>
</trkpt>
<trkpt lat="36.695737" lon="137.796871">
<ele>1919.415290</ele>
<time>2014-08-16T23:04:59Z</time>
<desc><![CDATA[lat.=36.695737, lon.=137.796871, Alt.=1919.415290m. Speed=3.000000m/h.]]></desc>
</trkpt>
<trkpt lat="36.695712" lon="137.796861">
<ele>1919.891385</ele>
<time>2014-08-16T23:05:04Z</time>
<desc><![CDATA[lat.=36.695712, lon.=137.796861, Alt.=1919.891385m. Speed=3.000000m/h.]]></desc>
</trkpt>
<trkpt lat="36.695690" lon="137.796844">
<ele>1921.503679</ele>
<time>2014-08-16T23:05:09Z</time>
<desc><![CDATA[lat.=36.695690, lon.=137.796844, Alt.=1921.503679m. Speed=3.000000m/h.]]></desc>
</trkpt>
<trkpt lat="36.695682" lon="137.796828">
<ele>1922.580943</ele>
<time>2014-08-16T23:05:14Z</time>
<desc><![CDATA[lat.=36.695682, lon.=137.796828, Alt.=1922.580943m. Speed=2.000000m/h.]]></desc>
</trkpt>
<trkpt lat="36.695661" lon="137.796811">
<ele>1922.463079</ele>
<time>2014-08-16T23:05:19Z</time>
<desc><![CDATA[lat.=36.695661, lon.=137.796811, Alt.=1922.463079m. Speed=2.000000m/h.]]></desc>
</trkpt>
<trkpt lat="36.695621" lon="137.796785">
<ele>1923.418881</ele>
<time>2014-08-16T23:05:24Z</time>
<desc><![CDATA[lat.=36.695621, lon.=137.796785, Alt.=1923.418881m. Speed=3.000000m/h.]]></desc>
</trkpt>
<trkpt lat="36.695603" lon="137.796761">
<ele>1922.707058</ele>
<time>2014-08-16T23:05:29Z</time>
<desc><![CDATA[lat.=36.695603, lon.=137.796761, Alt.=1922.707058m. Speed=3.000000m/h.]]></desc>
</trkpt>
<trkpt lat="36.695589" lon="137.796729">
<ele>1923.131433</ele>
<time>2014-08-16T23:05:34Z</time>
<desc><![CDATA[lat.=36.695589, lon.=137.796729, Alt.=1923.131433m. Speed=3.000000m/h.]]></desc>
</trkpt>
<trkpt lat="36.695556" lon="137.796704">
<ele>1922.954646</ele>
<time>2014-08-16T23:05:39Z</time>
<desc><![CDATA[lat.=36.695556, lon.=137.796704, Alt.=1922.954646m. Speed=3.000000m/h.]]></desc>
</trkpt>
<trkpt lat="36.695543" lon="137.796656">
<ele>1923.323698</ele>
<time>2014-08-16T23:05:44Z</time>
<desc><![CDATA[lat.=36.695543, lon.=137.796656, Alt.=1923.323698m. Speed=3.000000m/h.]]></desc>
</trkpt>
<trkpt lat="36.695540" lon="137.796616">
<ele>1923.751680</ele>
<time>2014-08-16T23:05:49Z</time>
<desc><![CDATA[lat.=36.695540, lon.=137.796616, Alt.=1923.751680m. Speed=3.000000m/h.]]></desc>
</trkpt>
<trkpt lat="36.695522" lon="137.796591">
<ele>1924.770025</ele>
<time>2014-08-16T23:05:54Z</time>
<desc><![CDATA[lat.=36.695522, lon.=137.796591, Alt.=1924.770025m. Speed=3.000000m/h.]]></desc>
</trkpt>
<trkpt lat="36.695530" lon="137.796559">
<ele>1925.256937</ele>
<time>2014-08-16T23:05:59Z</time>
<desc><![CDATA[lat.=36.695530, lon.=137.796559, Alt.=1925.256937m. Speed=2.000000m/h.]]></desc>
</trkpt>
<trkpt lat="36.695529" lon="137.796542">
<ele>1928.661932</ele>
<time>2014-08-16T23:06:04Z</time>
<desc><![CDATA[lat.=36.695529, lon.=137.796542, Alt.=1928.661932m. Speed=2.000000m/h.]]></desc>
</trkpt>
<trkpt lat="36.695514" lon="137.796508">
<ele>1932.546638</ele>
<time>2014-08-16T23:06:09Z</time>
<desc><![CDATA[lat.=36.695514, lon.=137.796508, Alt.=1932.546638m. Speed=2.000000m/h.]]></desc>
</trkpt>
<trkpt lat="36.695526" lon="137.796469">
<ele>1932.439593</ele>
<time>2014-08-16T23:06:14Z</time>
<desc><![CDATA[lat.=36.695526, lon.=137.796469, Alt.=1932.439593m. Speed=2.000000m/h.]]></desc>
</trkpt>
<trkpt lat="36.695528" lon="137.796438">
<ele>1930.598787</ele>
<time>2014-08-16T23:06:19Z</time>
<desc><![CDATA[lat.=36.695528, lon.=137.796438, Alt.=1930.598787m. Speed=2.000000m/h.]]></desc>
</trkpt>
<trkpt lat="36.695535" lon="137.796422">
<ele>1931.141027</ele>
<time>2014-08-16T23:06:24Z</time>
<desc><![CDATA[lat.=36.695535, lon.=137.796422, Alt.=1931.141027m. Speed=2.000000m/h.]]></desc>
</trkpt>
<trkpt lat="36.695531" lon="137.796398">
<ele>1933.354502</ele>
<time>2014-08-16T23:06:29Z</time>
<desc><![CDATA[lat.=36.695531, lon.=137.796398, Alt.=1933.354502m. Speed=2.000000m/h.]]></desc>
</trkpt>
<trkpt lat="36.695529" lon="137.796358">
<ele>1933.782498</ele>
<time>2014-08-16T23:06:34Z</time>
<desc><![CDATA[lat.=36.695529, lon.=137.796358, Alt.=1933.782498m. Speed=2.000000m/h.]]></desc>
</trkpt>
<trkpt lat="36.695529" lon="137.796326">
<ele>1933.671856</ele>
<time>2014-08-16T23:06:39Z</time>
<desc><![CDATA[lat.=36.695529, lon.=137.796326, Alt.=1933.671856m. Speed=2.000000m/h.]]></desc>
</trkpt>
<trkpt lat="36.695530" lon="137.796294">
<ele>1935.291376</ele>
<time>2014-08-16T23:06:44Z</time>
<desc><![CDATA[lat.=36.695530, lon.=137.796294, Alt.=1935.291376m. Speed=2.000000m/h.]]></desc>
</trkpt>
<trkpt lat="36.695516" lon="137.796261">
<ele>1935.715772</ele>
<time>2014-08-16T23:06:49Z</time>
<desc><![CDATA[lat.=36.695516, lon.=137.796261, Alt.=1935.715772m. Speed=2.000000m/h.]]></desc>
</trkpt>
<trkpt lat="36.695512" lon="137.796221">
<ele>1937.873935</ele>
<time>2014-08-16T23:06:54Z</time>
<desc><![CDATA[lat.=36.695512, lon.=137.796221, Alt.=1937.873935m. Speed=2.000000m/h.]]></desc>
</trkpt>
<trkpt lat="36.695498" lon="137.796188">
<ele>1940.028495</ele>
<time>2014-08-16T23:06:59Z</time>
<desc><![CDATA[lat.=36.695498, lon.=137.796188, Alt.=1940.028495m. Speed=2.000000m/h.]]></desc>
</trkpt>
<trkpt lat="36.695510" lon="137.796149">
<ele>1938.191304</ele>
<time>2014-08-16T23:07:04Z</time>
<desc><![CDATA[lat.=36.695510, lon.=137.796149, Alt.=1938.191304m. Speed=2.000000m/h.]]></desc>
</trkpt>
<trkpt lat="36.695536" lon="137.796142">
<ele>1937.659874</ele>
<time>2014-08-16T23:07:09Z</time>
<desc><![CDATA[lat.=36.695536, lon.=137.796142, Alt.=1937.659874m. Speed=2.000000m/h.]]></desc>
</trkpt>
<trkpt lat="36.695551" lon="137.796159">
<ele>1937.180156</ele>
<time>2014-08-16T23:07:14Z</time>
<desc><![CDATA[lat.=36.695551, lon.=137.796159, Alt.=1937.180156m. Speed=2.000000m/h.]]></desc>
</trkpt>
<trkpt lat="36.695554" lon="137.796183">
<ele>1936.696833</ele>
<time>2014-08-16T23:07:19Z</time>
<desc><![CDATA[lat.=36.695554, lon.=137.796183, Alt.=1936.696833m. Speed=1.000000m/h.]]></desc>
</trkpt>
<trkpt lat="36.695564" lon="137.796206">
<ele>1940.271395</ele>
<time>2014-08-16T23:07:24Z</time>
<desc><![CDATA[lat.=36.695564, lon.=137.796206, Alt.=1940.271395m. Speed=1.000000m/h.]]></desc>
</trkpt>
<trkpt lat="36.695578" lon="137.796221">
<ele>1941.521840</ele>
<time>2014-08-16T23:07:29Z</time>
<desc><![CDATA[lat.=36.695578, lon.=137.796221, Alt.=1941.521840m. Speed=2.000000m/h.]]></desc>
</trkpt>
<trkpt lat="36.695602" lon="137.796261">
<ele>1942.886528</ele>
<time>2014-08-16T23:07:34Z</time>
<desc><![CDATA[lat.=36.695602, lon.=137.796261, Alt.=1942.886528m. Speed=2.000000m/h.]]></desc>
</trkpt>
<trkpt lat="36.695628" lon="137.796270">
<ele>1942.410421</ele>
<time>2014-08-16T23:07:39Z</time>
<desc><![CDATA[lat.=36.695628, lon.=137.796270, Alt.=1942.410421m. Speed=2.000000m/h.]]></desc>
</trkpt>
<trkpt lat="36.695653" lon="137.796295">
<ele>1943.719794</ele>
<time>2014-08-16T23:07:44Z</time>
<desc><![CDATA[lat.=36.695653, lon.=137.796295, Alt.=1943.719794m. Speed=2.000000m/h.]]></desc>
</trkpt>
<trkpt lat="36.695690" lon="137.796296">
<ele>1943.247297</ele>
<time>2014-08-16T23:07:49Z</time>
<desc><![CDATA[lat.=36.695690, lon.=137.796296, Alt.=1943.247297m. Speed=2.000000m/h.]]></desc>
</trkpt>
<trkpt lat="36.695719" lon="137.796298">
<ele>1942.177237</ele>
<time>2014-08-16T23:07:54Z</time>
<desc><![CDATA[lat.=36.695719, lon.=137.796298, Alt.=1942.177237m. Speed=2.000000m/h.]]></desc>
</trkpt>
<trkpt lat="36.695753" lon="137.796292">
<ele>1940.513221</ele>
<time>2014-08-16T23:07:59Z</time>
<desc><![CDATA[lat.=36.695753, lon.=137.796292, Alt.=1940.513221m. Speed=2.000000m/h.]]></desc>
</trkpt>
<trkpt lat="36.695776" lon="137.796245">
<ele>1940.409801</ele>
<time>2014-08-16T23:08:04Z</time>
<desc><![CDATA[lat.=36.695776, lon.=137.796245, Alt.=1940.409801m. Speed=2.000000m/h.]]></desc>
</trkpt>
<trkpt lat="36.695762" lon="137.796213">
<ele>1940.834193</ele>
<time>2014-08-16T23:08:09Z</time>
<desc><![CDATA[lat.=36.695762, lon.=137.796213, Alt.=1940.834193m. Speed=2.000000m/h.]]></desc>
</trkpt>
<trkpt lat="36.695748" lon="137.796180">
<ele>1941.258586</ele>
<time>2014-08-16T23:08:14Z</time>
<desc><![CDATA[lat.=36.695748, lon.=137.796180, Alt.=1941.258586m. Speed=2.000000m/h.]]></desc>
</trkpt>
<trkpt lat="36.695738" lon="137.796140">
<ele>1941.089025</ele>
<time>2014-08-16T23:08:19Z</time>
<desc><![CDATA[lat.=36.695738, lon.=137.796140, Alt.=1941.089025m. Speed=2.000000m/h.]]></desc>
</trkpt>
<trkpt lat="36.695720" lon="137.796115">
<ele>1942.107377</ele>
<time>2014-08-16T23:08:24Z</time>
<desc><![CDATA[lat.=36.695720, lon.=137.796115, Alt.=1942.107377m. Speed=2.000000m/h.]]></desc>
</trkpt>
<trkpt lat="36.695698" lon="137.796082">
<ele>1943.664371</ele>
<time>2014-08-16T23:08:29Z</time>
<desc><![CDATA[lat.=36.695698, lon.=137.796082, Alt.=1943.664371m. Speed=3.000000m/h.]]></desc>
</trkpt>
<trkpt lat="36.695662" lon="137.796049">
<ele>1944.026238</ele>
<time>2014-08-16T23:08:34Z</time>
<desc><![CDATA[lat.=36.695662, lon.=137.796049, Alt.=1944.026238m. Speed=2.000000m/h.]]></desc>
</trkpt>
<trkpt lat="36.695648" lon="137.796033">
<ele>1944.505955</ele>
<time>2014-08-16T23:08:39Z</time>
<desc><![CDATA[lat.=36.695648, lon.=137.796033, Alt.=1944.505955m. Speed=2.000000m/h.]]></desc>
</trkpt>
<trkpt lat="36.695630" lon="137.795992">
<ele>1945.469000</ele>
<time>2014-08-16T23:08:44Z</time>
<desc><![CDATA[lat.=36.695630, lon.=137.795992, Alt.=1945.469000m. Speed=2.000000m/h.]]></desc>
</trkpt>
<trkpt lat="36.695615" lon="137.795975">
<ele>1947.678880</ele>
<time>2014-08-16T23:08:49Z</time>
<desc><![CDATA[lat.=36.695615, lon.=137.795975, Alt.=1947.678880m. Speed=2.000000m/h.]]></desc>
</trkpt>
<trkpt lat="36.695619" lon="137.795966">
<ele>1948.815085</ele>
<time>2014-08-16T23:08:54Z</time>
<desc><![CDATA[lat.=36.695619, lon.=137.795966, Alt.=1948.815085m. Speed=0.000000m/h.]]></desc>
</trkpt>
<trkpt lat="36.695615" lon="137.795958">
<ele>1949.353727</ele>
<time>2014-08-16T23:09:03Z</time>
<desc><![CDATA[lat.=36.695615, lon.=137.795958, Alt.=1949.353727m. Speed=1.000000m/h.]]></desc>
</trkpt>
<trkpt lat="36.695615" lon="137.795957">
<ele>1951.083888</ele>
<time>2014-08-16T23:09:08Z</time>
<desc><![CDATA[lat.=36.695615, lon.=137.795957, Alt.=1951.083888m. Speed=0.000000m/h.]]></desc>
</trkpt>
<trkpt lat="36.695619" lon="137.795950">
<ele>1950.489933</ele>
<time>2014-08-16T23:09:14Z</time>
<desc><![CDATA[lat.=36.695619, lon.=137.795950, Alt.=1950.489933m. Speed=0.000000m/h.]]></desc>
</trkpt>
<trkpt lat="36.695609" lon="137.795926">
<ele>1948.645538</ele>
<time>2014-08-16T23:09:19Z</time>
<desc><![CDATA[lat.=36.695609, lon.=137.795926, Alt.=1948.645538m. Speed=1.000000m/h.]]></desc>
</trkpt>
<trkpt lat="36.695594" lon="137.795893">
<ele>1950.800107</ele>
<time>2014-08-16T23:09:24Z</time>
<desc><![CDATA[lat.=36.695594, lon.=137.795893, Alt.=1950.800107m. Speed=2.000000m/h.]]></desc>
</trkpt>
<trkpt lat="36.695581" lon="137.795847">
<ele>1947.708886</ele>
<time>2014-08-16T23:09:29Z</time>
<desc><![CDATA[lat.=36.695581, lon.=137.795847, Alt.=1947.708886m. Speed=2.000000m/h.]]></desc>
</trkpt>
<trkpt lat="36.695578" lon="137.795822">
<ele>1949.922379</ele>
<time>2014-08-16T23:09:34Z</time>
<desc><![CDATA[lat.=36.695578, lon.=137.795822, Alt.=1949.922379m. Speed=2.000000m/h.]]></desc>
</trkpt>
<trkpt lat="36.695599" lon="137.795821">
<ele>1953.445230</ele>
<time>2014-08-16T23:09:39Z</time>
<desc><![CDATA[lat.=36.695599, lon.=137.795821, Alt.=1953.445230m. Speed=2.000000m/h.]]></desc>
</trkpt>
<trkpt lat="36.695609" lon="137.795860">
<ele>1955.344933</ele>
<time>2014-08-16T23:09:44Z</time>
<desc><![CDATA[lat.=36.695609, lon.=137.795860, Alt.=1955.344933m. Speed=2.000000m/h.]]></desc>
</trkpt>
<trkpt lat="36.695633" lon="137.795883">
<ele>1958.384454</ele>
<time>2014-08-16T23:09:49Z</time>
<desc><![CDATA[lat.=36.695633, lon.=137.795883, Alt.=1958.384454m. Speed=2.000000m/h.]]></desc>
</trkpt>
<trkpt lat="36.695682" lon="137.795879">
<ele>1954.455244</ele>
<time>2014-08-16T23:09:54Z</time>
<desc><![CDATA[lat.=36.695682, lon.=137.795879, Alt.=1954.455244m. Speed=3.000000m/h.]]></desc>
</trkpt>
<trkpt lat="36.695693" lon="137.795872">
<ele>1954.458855</ele>
<time>2014-08-16T23:09:59Z</time>
<desc><![CDATA[lat.=36.695693, lon.=137.795872, Alt.=1954.458855m. Speed=2.000000m/h.]]></desc>
</trkpt>
<trkpt lat="36.695679" lon="137.795838">
<ele>1956.613425</ele>
<time>2014-08-16T23:10:04Z</time>
<desc><![CDATA[lat.=36.695679, lon.=137.795838, Alt.=1956.613425m. Speed=2.000000m/h.]]></desc>
</trkpt>
<trkpt lat="36.695657" lon="137.795821">
<ele>1958.225742</ele>
<time>2014-08-16T23:10:09Z</time>
<desc><![CDATA[lat.=36.695657, lon.=137.795821, Alt.=1958.225742m. Speed=2.000000m/h.]]></desc>
</trkpt>
<trkpt lat="36.695635" lon="137.795789">
<ele>1958.052590</ele>
<time>2014-08-16T23:10:14Z</time>
<desc><![CDATA[lat.=36.695635, lon.=137.795789, Alt.=1958.052590m. Speed=2.000000m/h.]]></desc>
</trkpt>
<trkpt lat="36.695633" lon="137.795734">
<ele>1956.695145</ele>
<time>2014-08-16T23:10:19Z</time>
<desc><![CDATA[lat.=36.695633, lon.=137.795734, Alt.=1956.695145m. Speed=2.000000m/h.]]></desc>
</trkpt>
<trkpt lat="36.695622" lon="137.795725">
<ele>1956.636225</ele>
<time>2014-08-16T23:10:24Z</time>
<desc><![CDATA[lat.=36.695622, lon.=137.795725, Alt.=1956.636225m. Speed=2.000000m/h.]]></desc>
</trkpt>
<trkpt lat="36.695626" lon="137.795718">
<ele>1956.042272</ele>
<time>2014-08-16T23:10:29Z</time>
<desc><![CDATA[lat.=36.695626, lon.=137.795718, Alt.=1956.042272m. Speed=0.000000m/h.]]></desc>
</trkpt>
<trkpt lat="36.695619" lon="137.795686">
<ele>1957.064253</ele>
<time>2014-08-16T23:10:34Z</time>
<desc><![CDATA[lat.=36.695619, lon.=137.795686, Alt.=1957.064253m. Speed=1.000000m/h.]]></desc>
</trkpt>
<trkpt lat="36.695616" lon="137.795677">
<ele>1957.602898</ele>
<time>2014-08-16T23:10:39Z</time>
<desc><![CDATA[lat.=36.695616, lon.=137.795677, Alt.=1957.602898m. Speed=1.000000m/h.]]></desc>
</trkpt>
<trkpt lat="36.695576" lon="137.795636">
<ele>1958.503433</ele>
<time>2014-08-16T23:10:44Z</time>
<desc><![CDATA[lat.=36.695576, lon.=137.795636, Alt.=1958.503433m. Speed=3.000000m/h.]]></desc>
</trkpt>
<trkpt lat="36.695569" lon="137.795603">
<ele>1959.525418</ele>
<time>2014-08-16T23:10:49Z</time>
<desc><![CDATA[lat.=36.695569, lon.=137.795603, Alt.=1959.525418m. Speed=3.000000m/h.]]></desc>
</trkpt>
<trkpt lat="36.695558" lon="137.795610">
<ele>1961.251968</ele>
<time>2014-08-16T23:10:54Z</time>
<desc><![CDATA[lat.=36.695558, lon.=137.795610, Alt.=1961.251968m. Speed=0.000000m/h.]]></desc>
</trkpt>
<trkpt lat="36.695558" lon="137.795579">
<ele>1961.141356</ele>
<time>2014-08-16T23:10:59Z</time>
<desc><![CDATA[lat.=36.695558, lon.=137.795579, Alt.=1961.141356m. Speed=2.000000m/h.]]></desc>
</trkpt>
<trkpt lat="36.695545" lon="137.795531">
<ele>1959.780314</ele>
<time>2014-08-16T23:11:04Z</time>
<desc><![CDATA[lat.=36.695545, lon.=137.795531, Alt.=1959.780314m. Speed=2.000000m/h.]]></desc>
</trkpt>
<trkpt lat="36.695534" lon="137.795506">
<ele>1961.396255</ele>
<time>2014-08-16T23:11:09Z</time>
<desc><![CDATA[lat.=36.695534, lon.=137.795506, Alt.=1961.396255m. Speed=2.000000m/h.]]></desc>
</trkpt>
<trkpt lat="36.695513" lon="137.795473">
<ele>1962.953282</ele>
<time>2014-08-16T23:11:14Z</time>
<desc><![CDATA[lat.=36.695513, lon.=137.795473, Alt.=1962.953282m. Speed=3.000000m/h.]]></desc>
</trkpt>
<trkpt lat="36.695486" lon="137.795446">
<ele>1968.564584</ele>
<time>2014-08-16T23:11:19Z</time>
<desc><![CDATA[lat.=36.695486, lon.=137.795446, Alt.=1968.564584m. Speed=3.000000m/h.]]></desc>
</trkpt>
<trkpt lat="36.695480" lon="137.795415">
<ele>1966.126256</ele>
<time>2014-08-16T23:11:24Z</time>
<desc><![CDATA[lat.=36.695480, lon.=137.795415, Alt.=1966.126256m. Speed=2.000000m/h.]]></desc>
</trkpt>
<trkpt lat="36.695451" lon="137.795383">
<ele>1965.355566</ele>
<time>2014-08-16T23:11:29Z</time>
<desc><![CDATA[lat.=36.695451, lon.=137.795383, Alt.=1965.355566m. Speed=3.000000m/h.]]></desc>
</trkpt>
<trkpt lat="36.695449" lon="137.795343">
<ele>1965.783612</ele>
<time>2014-08-16T23:11:34Z</time>
<desc><![CDATA[lat.=36.695449, lon.=137.795343, Alt.=1965.783612m. Speed=2.000000m/h.]]></desc>
</trkpt>
<trkpt lat="36.695419" lon="137.795341">
<ele>1966.853689</ele>
<time>2014-08-16T23:11:39Z</time>
<desc><![CDATA[lat.=36.695419, lon.=137.795341, Alt.=1966.853689m. Speed=0.000000m/h.]]></desc>
</trkpt>
<trkpt lat="36.695423" lon="137.795334">
<ele>1966.259739</ele>
<time>2014-08-16T23:11:44Z</time>
<desc><![CDATA[lat.=36.695423, lon.=137.795334, Alt.=1966.259739m. Speed=1.000000m/h.]]></desc>
</trkpt>
<trkpt lat="36.695412" lon="137.795310">
<ele>1966.145527</ele>
<time>2014-08-16T23:11:49Z</time>
<desc><![CDATA[lat.=36.695412, lon.=137.795310, Alt.=1966.145527m. Speed=1.000000m/h.]]></desc>
</trkpt>
<trkpt lat="36.695413" lon="137.795311">
<ele>1964.415366</ele>
<time>2014-08-16T23:11:54Z</time>
<desc><![CDATA[lat.=36.695413, lon.=137.795311, Alt.=1964.415366m. Speed=0.000000m/h.]]></desc>
</trkpt>
<trkpt lat="36.695410" lon="137.795287">
<ele>1963.168554</ele>
<time>2014-08-16T23:11:59Z</time>
<desc><![CDATA[lat.=36.695410, lon.=137.795287, Alt.=1963.168554m. Speed=2.000000m/h.]]></desc>
</trkpt>
<trkpt lat="36.695377" lon="137.795261">
<ele>1966.452146</ele>
<time>2014-08-16T23:12:04Z</time>
<desc><![CDATA[lat.=36.695377, lon.=137.795261, Alt.=1966.452146m. Speed=2.000000m/h.]]></desc>
</trkpt>
<trkpt lat="36.695351" lon="137.795235">
<ele>1968.603140</ele>
<time>2014-08-16T23:12:09Z</time>
<desc><![CDATA[lat.=36.695351, lon.=137.795235, Alt.=1968.603140m. Speed=2.000000m/h.]]></desc>
</trkpt>
<trkpt lat="36.695341" lon="137.795195">
<ele>1970.163796</ele>
<time>2014-08-16T23:12:14Z</time>
<desc><![CDATA[lat.=36.695341, lon.=137.795195, Alt.=1970.163796m. Speed=2.000000m/h.]]></desc>
</trkpt>
<trkpt lat="36.695318" lon="137.795177">
<ele>1971.776141</ele>
<time>2014-08-16T23:12:19Z</time>
<desc><![CDATA[lat.=36.695318, lon.=137.795177, Alt.=1971.776141m. Speed=2.000000m/h.]]></desc>
</trkpt>
<trkpt lat="36.695305" lon="137.795130">
<ele>1970.415130</ele>
<time>2014-08-16T23:12:24Z</time>
<desc><![CDATA[lat.=36.695305, lon.=137.795130, Alt.=1970.415130m. Speed=2.000000m/h.]]></desc>
</trkpt>
<trkpt lat="36.695303" lon="137.795091">
<ele>1969.113028</ele>
<time>2014-08-16T23:12:29Z</time>
<desc><![CDATA[lat.=36.695303, lon.=137.795091, Alt.=1969.113028m. Speed=3.000000m/h.]]></desc>
</trkpt>
<trkpt lat="36.695289" lon="137.795058">
<ele>1969.537479</ele>
<time>2014-08-16T23:12:34Z</time>
<desc><![CDATA[lat.=36.695289, lon.=137.795058, Alt.=1969.537479m. Speed=3.000000m/h.]]></desc>
</trkpt>
<trkpt lat="36.695264" lon="137.795018">
<ele>1969.903027</ele>
<time>2014-08-16T23:12:39Z</time>
<desc><![CDATA[lat.=36.695264, lon.=137.795018, Alt.=1969.903027m. Speed=3.000000m/h.]]></desc>
</trkpt>
<trkpt lat="36.695235" lon="137.794985">
<ele>1970.862527</ele>
<time>2014-08-16T23:12:44Z</time>
<desc><![CDATA[lat.=36.695235, lon.=137.794985, Alt.=1970.862527m. Speed=3.000000m/h.]]></desc>
</trkpt>
<trkpt lat="36.695221" lon="137.794936">
<ele>1971.231691</ele>
<time>2014-08-16T23:12:49Z</time>
<desc><![CDATA[lat.=36.695221, lon.=137.794936, Alt.=1971.231691m. Speed=3.000000m/h.]]></desc>
</trkpt>
<trkpt lat="36.695221" lon="137.794921">
<ele>1971.176398</ele>
<time>2014-08-16T23:12:54Z</time>
<desc><![CDATA[lat.=36.695221, lon.=137.794921, Alt.=1971.176398m. Speed=2.000000m/h.]]></desc>
</trkpt>
<trkpt lat="36.695215" lon="137.794888">
<ele>1972.198416</ele>
<time>2014-08-16T23:12:59Z</time>
<desc><![CDATA[lat.=36.695215, lon.=137.794888, Alt.=1972.198416m. Speed=3.000000m/h.]]></desc>
</trkpt>
<trkpt lat="36.695190" lon="137.794832">
<ele>1972.508685</ele>
<time>2014-08-16T23:13:04Z</time>
<desc><![CDATA[lat.=36.695190, lon.=137.794832, Alt.=1972.508685m. Speed=3.000000m/h.]]></desc>
</trkpt>
<trkpt lat="36.695176" lon="137.794799">
<ele>1974.663312</ele>
<time>2014-08-16T23:13:09Z</time>
<desc><![CDATA[lat.=36.695176, lon.=137.794799, Alt.=1974.663312m. Speed=3.000000m/h.]]></desc>
</trkpt>
<trkpt lat="36.695165" lon="137.794774">
<ele>1976.279283</ele>
<time>2014-08-16T23:13:14Z</time>
<desc><![CDATA[lat.=36.695165, lon.=137.794774, Alt.=1976.279283m. Speed=2.000000m/h.]]></desc>
</trkpt>
<trkpt lat="36.695176" lon="137.794767">
<ele>1974.552732</ele>
<time>2014-08-16T23:13:19Z</time>
<desc><![CDATA[lat.=36.695176, lon.=137.794767, Alt.=1974.552732m. Speed=0.000000m/h.]]></desc>
</trkpt>
<trkpt lat="36.695169" lon="137.794751">
<ele>1973.899884</ele>
<time>2014-08-16T23:13:24Z</time>
<desc><![CDATA[lat.=36.695169, lon.=137.794751, Alt.=1973.899884m. Speed=2.000000m/h.]]></desc>
</trkpt>
<trkpt lat="36.695137" lon="137.794710">
<ele>1973.667896</ele>
<time>2014-08-16T23:13:29Z</time>
<desc><![CDATA[lat.=36.695137, lon.=137.794710, Alt.=1973.667896m. Speed=3.000000m/h.]]></desc>
</trkpt>
<trkpt lat="36.695097" lon="137.794685">
<ele>1974.623807</ele>
<time>2014-08-16T23:13:34Z</time>
<desc><![CDATA[lat.=36.695097, lon.=137.794685, Alt.=1974.623807m. Speed=3.000000m/h.]]></desc>
</trkpt>
<trkpt lat="36.695054" lon="137.794652">
<ele>1974.388218</ele>
<time>2014-08-16T23:13:39Z</time>
<desc><![CDATA[lat.=36.695054, lon.=137.794652, Alt.=1974.388218m. Speed=4.000000m/h.]]></desc>
</trkpt>
<trkpt lat="36.695024" lon="137.794634">
<ele>1977.133194</ele>
<time>2014-08-16T23:13:44Z</time>
<desc><![CDATA[lat.=36.695024, lon.=137.794634, Alt.=1977.133194m. Speed=3.000000m/h.]]></desc>
</trkpt>
<trkpt lat="36.694984" lon="137.794609">
<ele>1976.358953</ele>
<time>2014-08-16T23:13:49Z</time>
<desc><![CDATA[lat.=36.694984, lon.=137.794609, Alt.=1976.358953m. Speed=3.000000m/h.]]></desc>
</trkpt>
<trkpt lat="36.694948" lon="137.794592">
<ele>1975.046055</ele>
<time>2014-08-16T23:13:54Z</time>
<desc><![CDATA[lat.=36.694948, lon.=137.794592, Alt.=1975.046055m. Speed=4.000000m/h.]]></desc>
</trkpt>
<trkpt lat="36.694894" lon="137.794567">
<ele>1974.806876</ele>
<time>2014-08-16T23:13:59Z</time>
<desc><![CDATA[lat.=36.694894, lon.=137.794567, Alt.=1974.806876m. Speed=4.000000m/h.]]></desc>
</trkpt>
<trkpt lat="36.694853" lon="137.794540">
<ele>1977.492972</ele>
<time>2014-08-16T23:14:04Z</time>
<desc><![CDATA[lat.=36.694853, lon.=137.794540, Alt.=1977.492972m. Speed=3.000000m/h.]]></desc>
</trkpt>
<trkpt lat="36.694828" lon="137.794515">
<ele>1977.913852</ele>
<time>2014-08-16T23:14:09Z</time>
<desc><![CDATA[lat.=36.694828, lon.=137.794515, Alt.=1977.913852m. Speed=3.000000m/h.]]></desc>
</trkpt>
<trkpt lat="36.694803" lon="137.794475">
<ele>1976.549288</ele>
<time>2014-08-16T23:14:14Z</time>
<desc><![CDATA[lat.=36.694803, lon.=137.794475, Alt.=1976.549288m. Speed=3.000000m/h.]]></desc>
</trkpt>
<trkpt lat="36.694785" lon="137.794451">
<ele>1977.567725</ele>
<time>2014-08-16T23:14:19Z</time>
<desc><![CDATA[lat.=36.694785, lon.=137.794451, Alt.=1977.567725m. Speed=3.000000m/h.]]></desc>
</trkpt>
<trkpt lat="36.694779" lon="137.794420">
<ele>1975.129443</ele>
<time>2014-08-16T23:14:24Z</time>
<desc><![CDATA[lat.=36.694779, lon.=137.794420, Alt.=1975.129443m. Speed=2.000000m/h.]]></desc>
</trkpt>
<trkpt lat="36.694779" lon="137.794403">
<ele>1976.804322</ele>
<time>2014-08-16T23:14:29Z</time>
<desc><![CDATA[lat.=36.694779, lon.=137.794403, Alt.=1976.804322m. Speed=2.000000m/h.]]></desc>
</trkpt>
<trkpt lat="36.694754" lon="137.794362">
<ele>1977.169928</ele>
<time>2014-08-16T23:14:34Z</time>
<desc><![CDATA[lat.=36.694754, lon.=137.794362, Alt.=1977.169928m. Speed=3.000000m/h.]]></desc>
</trkpt>
<trkpt lat="36.694740" lon="137.794329">
<ele>1979.324586</ele>
<time>2014-08-16T23:14:39Z</time>
<desc><![CDATA[lat.=36.694740, lon.=137.794329, Alt.=1979.324586m. Speed=3.000000m/h.]]></desc>
</trkpt>
<trkpt lat="36.694726" lon="137.794280">
<ele>1981.423966</ele>
<time>2014-08-16T23:14:44Z</time>
<desc><![CDATA[lat.=36.694726, lon.=137.794280, Alt.=1981.423966m. Speed=3.000000m/h.]]></desc>
</trkpt>
<trkpt lat="36.694704" lon="137.794247">
<ele>1982.981078</ele>
<time>2014-08-16T23:14:49Z</time>
<desc><![CDATA[lat.=36.694704, lon.=137.794247, Alt.=1982.981078m. Speed=3.000000m/h.]]></desc>
</trkpt>
<trkpt lat="36.694686" lon="137.794207">
<ele>1983.944246</ele>
<time>2014-08-16T23:14:54Z</time>
<desc><![CDATA[lat.=36.694686, lon.=137.794207, Alt.=1983.944246m. Speed=3.000000m/h.]]></desc>
</trkpt>
<trkpt lat="36.694676" lon="137.794166">
<ele>1985.504967</ele>
<time>2014-08-16T23:14:59Z</time>
<desc><![CDATA[lat.=36.694676, lon.=137.794166, Alt.=1985.504967m. Speed=3.000000m/h.]]></desc>
</trkpt>
<trkpt lat="36.694669" lon="137.794118">
<ele>1986.471746</ele>
<time>2014-08-16T23:15:04Z</time>
<desc><![CDATA[lat.=36.694669, lon.=137.794118, Alt.=1986.471746m. Speed=3.000000m/h.]]></desc>
</trkpt>
<trkpt lat="36.694655" lon="137.794069">
<ele>1988.571140</ele>
<time>2014-08-16T23:15:09Z</time>
<desc><![CDATA[lat.=36.694655, lon.=137.794069, Alt.=1988.571140m. Speed=3.000000m/h.]]></desc>
</trkpt>
<trkpt lat="36.694656" lon="137.794021">
<ele>1988.405312</ele>
<time>2014-08-16T23:15:14Z</time>
<desc><![CDATA[lat.=36.694656, lon.=137.794021, Alt.=1988.405312m. Speed=3.000000m/h.]]></desc>
</trkpt>
<trkpt lat="36.694657" lon="137.793974">
<ele>1988.239487</ele>
<time>2014-08-16T23:15:19Z</time>
<desc><![CDATA[lat.=36.694657, lon.=137.793974, Alt.=1988.239487m. Speed=3.000000m/h.]]></desc>
</trkpt>
<trkpt lat="36.694663" lon="137.793919">
<ele>1987.479721</ele>
<time>2014-08-16T23:15:24Z</time>
<desc><![CDATA[lat.=36.694663, lon.=137.793919, Alt.=1987.479721m. Speed=3.000000m/h.]]></desc>
</trkpt>
<trkpt lat="36.694667" lon="137.793878">
<ele>1990.235559</ele>
<time>2014-08-16T23:15:29Z</time>
<desc><![CDATA[lat.=36.694667, lon.=137.793878, Alt.=1990.235559m. Speed=3.000000m/h.]]></desc>
</trkpt>
<trkpt lat="36.694675" lon="137.793831">
<ele>1990.667293</ele>
<time>2014-08-16T23:15:34Z</time>
<desc><![CDATA[lat.=36.694675, lon.=137.793831, Alt.=1990.667293m. Speed=3.000000m/h.]]></desc>
</trkpt>
<trkpt lat="36.694680" lon="137.793775">
<ele>1991.637700</ele>
<time>2014-08-16T23:15:39Z</time>
<desc><![CDATA[lat.=36.694680, lon.=137.793775, Alt.=1991.637700m. Speed=3.000000m/h.]]></desc>
</trkpt>
<trkpt lat="36.694681" lon="137.793728">
<ele>1991.471890</ele>
<time>2014-08-16T23:15:44Z</time>
<desc><![CDATA[lat.=36.694681, lon.=137.793728, Alt.=1991.471890m. Speed=3.000000m/h.]]></desc>
</trkpt>
<trkpt lat="36.694671" lon="137.793673">
<ele>1989.517040</ele>
<time>2014-08-16T23:15:49Z</time>
<desc><![CDATA[lat.=36.694671, lon.=137.793673, Alt.=1989.517040m. Speed=3.000000m/h.]]></desc>
</trkpt>
<trkpt lat="36.694654" lon="137.793617">
<ele>1988.694807</ele>
<time>2014-08-16T23:15:54Z</time>
<desc><![CDATA[lat.=36.694654, lon.=137.793617, Alt.=1988.694807m. Speed=4.000000m/h.]]></desc>
</trkpt>
<trkpt lat="36.694630" lon="137.793545">
<ele>1988.949926</ele>
<time>2014-08-16T23:15:59Z</time>
<desc><![CDATA[lat.=36.694630, lon.=137.793545, Alt.=1988.949926m. Speed=4.000000m/h.]]></desc>
</trkpt>
<trkpt lat="36.694635" lon="137.793505">
<ele>1989.975619</ele>
<time>2014-08-16T23:16:04Z</time>
<desc><![CDATA[lat.=36.694635, lon.=137.793505, Alt.=1989.975619m. Speed=4.000000m/h.]]></desc>
</trkpt>
<trkpt lat="36.694643" lon="137.793458">
<ele>1990.407374</ele>
<time>2014-08-16T23:16:09Z</time>
<desc><![CDATA[lat.=36.694643, lon.=137.793458, Alt.=1990.407374m. Speed=3.000000m/h.]]></desc>
</trkpt>
<trkpt lat="36.694640" lon="137.793417">
<ele>1992.565685</ele>
<time>2014-08-16T23:16:14Z</time>
<desc><![CDATA[lat.=36.694640, lon.=137.793417, Alt.=1992.565685m. Speed=3.000000m/h.]]></desc>
</trkpt>
<trkpt lat="36.694641" lon="137.793370">
<ele>1992.399895</ele>
<time>2014-08-16T23:16:19Z</time>
<desc><![CDATA[lat.=36.694641, lon.=137.793370, Alt.=1992.399895m. Speed=3.000000m/h.]]></desc>
</trkpt>
<trkpt lat="36.694638" lon="137.793330">
<ele>1992.828046</ele>
<time>2014-08-16T23:16:24Z</time>
<desc><![CDATA[lat.=36.694638, lon.=137.793330, Alt.=1992.828046m. Speed=3.000000m/h.]]></desc>
</trkpt>
<trkpt lat="36.694639" lon="137.793282">
<ele>1994.392426</ele>
<time>2014-08-16T23:16:29Z</time>
<desc><![CDATA[lat.=36.694639, lon.=137.793282, Alt.=1994.392426m. Speed=3.000000m/h.]]></desc>
</trkpt>
<trkpt lat="36.694632" lon="137.793234">
<ele>1993.629095</ele>
<time>2014-08-16T23:16:34Z</time>
<desc><![CDATA[lat.=36.694632, lon.=137.793234, Alt.=1993.629095m. Speed=3.000000m/h.]]></desc>
</trkpt>
<trkpt lat="36.694630" lon="137.793179">
<ele>1994.001994</ele>
<time>2014-08-16T23:16:39Z</time>
<desc><![CDATA[lat.=36.694630, lon.=137.793179, Alt.=1994.001994m. Speed=3.000000m/h.]]></desc>
</trkpt>
<trkpt lat="36.694642" lon="137.793139">
<ele>1993.895090</ele>
<time>2014-08-16T23:16:44Z</time>
<desc><![CDATA[lat.=36.694642, lon.=137.793139, Alt.=1993.895090m. Speed=3.000000m/h.]]></desc>
</trkpt>
<trkpt lat="36.694643" lon="137.793091">
<ele>1995.459482</ele>
<time>2014-08-16T23:16:49Z</time>
<desc><![CDATA[lat.=36.694643, lon.=137.793091, Alt.=1995.459482m. Speed=3.000000m/h.]]></desc>
</trkpt>
<trkpt lat="36.694651" lon="137.793043">
<ele>1997.621426</ele>
<time>2014-08-16T23:16:54Z</time>
<desc><![CDATA[lat.=36.694651, lon.=137.793043, Alt.=1997.621426m. Speed=3.000000m/h.]]></desc>
</trkpt>
<trkpt lat="36.694648" lon="137.793003">
<ele>1998.049593</ele>
<time>2014-08-16T23:16:59Z</time>
<desc><![CDATA[lat.=36.694648, lon.=137.793003, Alt.=1998.049593m. Speed=3.000000m/h.]]></desc>
</trkpt>
<trkpt lat="36.694649" lon="137.792956">
<ele>1997.883828</ele>
<time>2014-08-16T23:17:04Z</time>
<desc><![CDATA[lat.=36.694649, lon.=137.792956, Alt.=1997.883828m. Speed=3.000000m/h.]]></desc>
</trkpt>
<trkpt lat="36.694650" lon="137.792908">
<ele>1997.718066</ele>
<time>2014-08-16T23:17:09Z</time>
<desc><![CDATA[lat.=36.694650, lon.=137.792908, Alt.=1997.718066m. Speed=3.000000m/h.]]></desc>
</trkpt>
<trkpt lat="36.694647" lon="137.792853">
<ele>1998.090988</ele>
<time>2014-08-16T23:17:14Z</time>
<desc><![CDATA[lat.=36.694647, lon.=137.792853, Alt.=1998.090988m. Speed=3.000000m/h.]]></desc>
</trkpt>
<trkpt lat="36.694634" lon="137.792804">
<ele>1998.460296</ele>
<time>2014-08-16T23:17:19Z</time>
<desc><![CDATA[lat.=36.694634, lon.=137.792804, Alt.=1998.460296m. Speed=3.000000m/h.]]></desc>
</trkpt>
<trkpt lat="36.694631" lon="137.792748">
<ele>2000.563389</ele>
<time>2014-08-16T23:17:24Z</time>
<desc><![CDATA[lat.=36.694631, lon.=137.792748, Alt.=2000.563389m. Speed=3.000000m/h.]]></desc>
</trkpt>
<trkpt lat="36.694635" lon="137.792692">
<ele>2003.264036</ele>
<time>2014-08-16T23:17:29Z</time>
<desc><![CDATA[lat.=36.694635, lon.=137.792692, Alt.=2003.264036m. Speed=4.000000m/h.]]></desc>
</trkpt>
<trkpt lat="36.694651" lon="137.792645">
<ele>2002.563226</ele>
<time>2014-08-16T23:17:34Z</time>
<desc><![CDATA[lat.=36.694651, lon.=137.792645, Alt.=2002.563226m. Speed=4.000000m/h.]]></desc>
</trkpt>
<trkpt lat="36.694663" lon="137.792590">
<ele>2002.401102</ele>
<time>2014-08-16T23:17:39Z</time>
<desc><![CDATA[lat.=36.694663, lon.=137.792590, Alt.=2002.401102m. Speed=3.000000m/h.]]></desc>
</trkpt>
<trkpt lat="36.694675" lon="137.792534">
<ele>2003.969147</ele>
<time>2014-08-16T23:17:44Z</time>
<desc><![CDATA[lat.=36.694675, lon.=137.792534, Alt.=2003.969147m. Speed=3.000000m/h.]]></desc>
</trkpt>
<trkpt lat="36.694688" lon="137.792480">
<ele>2002.076866</ele>
<time>2014-08-16T23:17:49Z</time>
<desc><![CDATA[lat.=36.694688, lon.=137.792480, Alt.=2002.076866m. Speed=3.000000m/h.]]></desc>
</trkpt>
<trkpt lat="36.694685" lon="137.792424">
<ele>2004.179982</ele>
<time>2014-08-16T23:17:54Z</time>
<desc><![CDATA[lat.=36.694685, lon.=137.792424, Alt.=2004.179982m. Speed=3.000000m/h.]]></desc>
</trkpt>
<trkpt lat="36.694697" lon="137.792368">
<ele>2005.748039</ele>
<time>2014-08-16T23:17:59Z</time>
<desc><![CDATA[lat.=36.694697, lon.=137.792368, Alt.=2005.748039m. Speed=3.000000m/h.]]></desc>
</trkpt>
<trkpt lat="36.694698" lon="137.792304">
<ele>2007.257235</ele>
<time>2014-08-16T23:18:04Z</time>
<desc><![CDATA[lat.=36.694698, lon.=137.792304, Alt.=2007.257235m. Speed=4.000000m/h.]]></desc>
</trkpt>
<trkpt lat="36.694703" lon="137.792248">
<ele>2008.227749</ele>
<time>2014-08-16T23:18:09Z</time>
<desc><![CDATA[lat.=36.694703, lon.=137.792248, Alt.=2008.227749m. Speed=4.000000m/h.]]></desc>
</trkpt>
<trkpt lat="36.694703" lon="137.792199">
<ele>2011.522359</ele>
<time>2014-08-16T23:18:14Z</time>
<desc><![CDATA[lat.=36.694703, lon.=137.792199, Alt.=2011.522359m. Speed=4.000000m/h.]]></desc>
</trkpt>
<trkpt lat="36.694701" lon="137.792144">
<ele>2011.895330</ele>
<time>2014-08-16T23:18:19Z</time>
<desc><![CDATA[lat.=36.694701, lon.=137.792144, Alt.=2011.895330m. Speed=4.000000m/h.]]></desc>
</trkpt>
<trkpt lat="36.694698" lon="137.792088">
<ele>2012.268304</ele>
<time>2014-08-16T23:18:24Z</time>
<desc><![CDATA[lat.=36.694698, lon.=137.792088, Alt.=2012.268304m. Speed=4.000000m/h.]]></desc>
</trkpt>
<trkpt lat="36.694707" lon="137.792026">
<ele>2010.914744</ele>
<time>2014-08-16T23:18:29Z</time>
<desc><![CDATA[lat.=36.694707, lon.=137.792026, Alt.=2010.914744m. Speed=4.000000m/h.]]></desc>
</trkpt>
<trkpt lat="36.694709" lon="137.791963">
<ele>2008.963637</ele>
<time>2014-08-16T23:18:34Z</time>
<desc><![CDATA[lat.=36.694709, lon.=137.791963, Alt.=2008.963637m. Speed=4.000000m/h.]]></desc>
</trkpt>
<trkpt lat="36.694722" lon="137.791909">
<ele>2007.071396</ele>
<time>2014-08-16T23:18:39Z</time>
<desc><![CDATA[lat.=36.694722, lon.=137.791909, Alt.=2007.071396m. Speed=4.000000m/h.]]></desc>
</trkpt>
<trkpt lat="36.694738" lon="137.791879">
<ele>2004.695702</ele>
<time>2014-08-16T23:18:44Z</time>
<desc><![CDATA[lat.=36.694738, lon.=137.791879, Alt.=2004.695702m. Speed=3.000000m/h.]]></desc>
</trkpt>
<trkpt lat="36.694776" lon="137.791850">
<ele>2002.382499</ele>
<time>2014-08-16T23:18:49Z</time>
<desc><![CDATA[lat.=36.694776, lon.=137.791850, Alt.=2002.382499m. Speed=3.000000m/h.]]></desc>
</trkpt>
<trkpt lat="36.694825" lon="137.791829">
<ele>1998.397998</ele>
<time>2014-08-16T23:18:54Z</time>
<desc><![CDATA[lat.=36.694825, lon.=137.791829, Alt.=1998.397998m. Speed=4.000000m/h.]]></desc>
</trkpt>
<trkpt lat="36.694863" lon="137.791799">
<ele>1997.814969</ele>
<time>2014-08-16T23:18:59Z</time>
<desc><![CDATA[lat.=36.694863, lon.=137.791799, Alt.=1997.814969m. Speed=4.000000m/h.]]></desc>
</trkpt>
<trkpt lat="36.694855" lon="137.791782">
<ele>2000.622515</ele>
<time>2014-08-16T23:19:04Z</time>
<desc><![CDATA[lat.=36.694855, lon.=137.791782, Alt.=2000.622515m. Speed=0.000000m/h.]]></desc>
</trkpt>
<trkpt lat="36.694874" lon="137.791758">
<ele>2002.898635</ele>
<time>2014-08-16T23:19:09Z</time>
<desc><![CDATA[lat.=36.694874, lon.=137.791758, Alt.=2002.898635m. Speed=2.000000m/h.]]></desc>
</trkpt>
<trkpt lat="36.694910" lon="137.791726">
<ele>2005.775942</ele>
<time>2014-08-16T23:19:14Z</time>
<desc><![CDATA[lat.=36.694910, lon.=137.791726, Alt.=2005.775942m. Speed=3.000000m/h.]]></desc>
</trkpt>
<trkpt lat="36.694941" lon="137.791680">
<ele>2006.270305</ele>
<time>2014-08-16T23:19:19Z</time>
<desc><![CDATA[lat.=36.694941, lon.=137.791680, Alt.=2006.270305m. Speed=3.000000m/h.]]></desc>
</trkpt>
<trkpt lat="36.694975" lon="137.791658">
<ele>2004.551044</ele>
<time>2014-08-16T23:19:24Z</time>
<desc><![CDATA[lat.=36.694975, lon.=137.791658, Alt.=2004.551044m. Speed=3.000000m/h.]]></desc>
</trkpt>
<trkpt lat="36.694993" lon="137.791650">
<ele>2005.152235</ele>
<time>2014-08-16T23:19:29Z</time>
<desc><![CDATA[lat.=36.694993, lon.=137.791650, Alt.=2005.152235m. Speed=3.000000m/h.]]></desc>
</trkpt>
<trkpt lat="36.694992" lon="137.791664">
<ele>2010.397959</ele>
<time>2014-08-16T23:19:34Z</time>
<desc><![CDATA[lat.=36.694992, lon.=137.791664, Alt.=2010.397959m. Speed=0.000000m/h.]]></desc>
</trkpt>
<trkpt lat="36.694980" lon="137.791671">
<ele>2012.124489</ele>
<time>2014-08-16T23:19:39Z</time>
<desc><![CDATA[lat.=36.694980, lon.=137.791671, Alt.=2012.124489m. Speed=0.000000m/h.]]></desc>
</trkpt>
<trkpt lat="36.694984" lon="137.791663">
<ele>2011.530569</ele>
<time>2014-08-16T23:19:45Z</time>
<desc><![CDATA[lat.=36.694984, lon.=137.791663, Alt.=2011.530569m. Speed=0.000000m/h.]]></desc>
</trkpt>
<trkpt lat="36.694977" lon="137.791662">
<ele>2012.663180</ele>
<time>2014-08-16T23:19:50Z</time>
<desc><![CDATA[lat.=36.694977, lon.=137.791662, Alt.=2012.663180m. Speed=0.000000m/h.]]></desc>
</trkpt>
<trkpt lat="36.694984" lon="137.791662">
<ele>2013.260734</ele>
<time>2014-08-16T23:19:56Z</time>
<desc><![CDATA[lat.=36.694984, lon.=137.791662, Alt.=2013.260734m. Speed=0.000000m/h.]]></desc>
</trkpt>
<trkpt lat="36.694980" lon="137.791670">
<ele>2013.854654</ele>
<time>2014-08-16T23:20:01Z</time>
<desc><![CDATA[lat.=36.694980, lon.=137.791670, Alt.=2013.854654m. Speed=0.000000m/h.]]></desc>
</trkpt>
<trkpt lat="36.694987" lon="137.791670">
<ele>2014.452209</ele>
<time>2014-08-16T23:20:09Z</time>
<desc><![CDATA[lat.=36.694987, lon.=137.791670, Alt.=2014.452209m. Speed=0.000000m/h.]]></desc>
</trkpt>
<trkpt lat="36.694983" lon="137.791662">
<ele>2014.990900</ele>
<time>2014-08-16T23:20:14Z</time>
<desc><![CDATA[lat.=36.694983, lon.=137.791662, Alt.=2014.990900m. Speed=0.000000m/h.]]></desc>
</trkpt>
<trkpt lat="36.694995" lon="137.791654">
<ele>2014.994535</ele>
<time>2014-08-16T23:20:19Z</time>
<desc><![CDATA[lat.=36.694995, lon.=137.791654, Alt.=2014.994535m. Speed=2.000000m/h.]]></desc>
</trkpt>
<trkpt lat="36.695043" lon="137.791617">
<ele>2014.415162</ele>
<time>2014-08-16T23:20:24Z</time>
<desc><![CDATA[lat.=36.695043, lon.=137.791617, Alt.=2014.415162m. Speed=3.000000m/h.]]></desc>
</trkpt>
<trkpt lat="36.695085" lon="137.791579">
<ele>2013.238239</ele>
<time>2014-08-16T23:20:29Z</time>
<desc><![CDATA[lat.=36.695085, lon.=137.791579, Alt.=2013.238239m. Speed=4.000000m/h.]]></desc>
</trkpt>
<trkpt lat="36.695119" lon="137.791541">
<ele>2011.463765</ele>
<time>2014-08-16T23:20:34Z</time>
<desc><![CDATA[lat.=36.695119, lon.=137.791541, Alt.=2011.463765m. Speed=3.000000m/h.]]></desc>
</trkpt>
<trkpt lat="36.695135" lon="137.791510">
<ele>2012.548427</ele>
<time>2014-08-16T23:20:39Z</time>
<desc><![CDATA[lat.=36.695135, lon.=137.791510, Alt.=2012.548427m. Speed=3.000000m/h.]]></desc>
</trkpt>
<trkpt lat="36.695143" lon="137.791479">
<ele>2011.305368</ele>
<time>2014-08-16T23:20:44Z</time>
<desc><![CDATA[lat.=36.695143, lon.=137.791479, Alt.=2011.305368m. Speed=2.000000m/h.]]></desc>
</trkpt>
<trkpt lat="36.695154" lon="137.791454">
<ele>2014.714115</ele>
<time>2014-08-16T23:20:49Z</time>
<desc><![CDATA[lat.=36.695154, lon.=137.791454, Alt.=2014.714115m. Speed=2.000000m/h.]]></desc>
</trkpt>
<trkpt lat="36.695169" lon="137.791422">
<ele>2015.798782</ele>
<time>2014-08-16T23:20:54Z</time>
<desc><![CDATA[lat.=36.695169, lon.=137.791422, Alt.=2015.798782m. Speed=2.000000m/h.]]></desc>
</trkpt>
<trkpt lat="36.695195" lon="137.791416">
<ele>2013.537209</ele>
<time>2014-08-16T23:20:59Z</time>
<desc><![CDATA[lat.=36.695195, lon.=137.791416, Alt.=2013.537209m. Speed=2.000000m/h.]]></desc>
</trkpt>
<trkpt lat="36.695225" lon="137.791386">
<ele>2014.086829</ele>
<time>2014-08-16T23:21:04Z</time>
<desc><![CDATA[lat.=36.695225, lon.=137.791386, Alt.=2014.086829m. Speed=3.000000m/h.]]></desc>
</trkpt>
<trkpt lat="36.695241" lon="137.791338">
<ele>2015.116278</ele>
<time>2014-08-16T23:21:09Z</time>
<desc><![CDATA[lat.=36.695241, lon.=137.791338, Alt.=2015.116278m. Speed=3.000000m/h.]]></desc>
</trkpt>
<trkpt lat="36.695275" lon="137.791316">
<ele>2015.127212</ele>
<time>2014-08-16T23:21:14Z</time>
<desc><![CDATA[lat.=36.695275, lon.=137.791316, Alt.=2015.127212m. Speed=3.000000m/h.]]></desc>
</trkpt>
<trkpt lat="36.695301" lon="137.791277">
<ele>2016.215534</ele>
<time>2014-08-16T23:21:19Z</time>
<desc><![CDATA[lat.=36.695301, lon.=137.791277, Alt.=2016.215534m. Speed=3.000000m/h.]]></desc>
</trkpt>
<trkpt lat="36.695313" lon="137.791253">
<ele>2016.163959</ele>
<time>2014-08-16T23:21:24Z</time>
<desc><![CDATA[lat.=36.695313, lon.=137.791253, Alt.=2016.163959m. Speed=3.000000m/h.]]></desc>
</trkpt>
<trkpt lat="36.695335" lon="137.791237">
<ele>2017.901418</ele>
<time>2014-08-16T23:21:29Z</time>
<desc><![CDATA[lat.=36.695335, lon.=137.791237, Alt.=2017.901418m. Speed=2.000000m/h.]]></desc>
</trkpt>
<trkpt lat="36.695364" lon="137.791222">
<ele>2018.506273</ele>
<time>2014-08-16T23:21:34Z</time>
<desc><![CDATA[lat.=36.695364, lon.=137.791222, Alt.=2018.506273m. Speed=3.000000m/h.]]></desc>
</trkpt>
<trkpt lat="36.695394" lon="137.791207">
<ele>2020.841296</ele>
<time>2014-08-16T23:21:39Z</time>
<desc><![CDATA[lat.=36.695394, lon.=137.791207, Alt.=2020.841296m. Speed=3.000000m/h.]]></desc>
</trkpt>
<trkpt lat="36.695423" lon="137.791191">
<ele>2023.176320</ele>
<time>2014-08-16T23:21:44Z</time>
<desc><![CDATA[lat.=36.695423, lon.=137.791191, Alt.=2023.176320m. Speed=3.000000m/h.]]></desc>
</trkpt>
<trkpt lat="36.695460" lon="137.791177">
<ele>2022.648577</ele>
<time>2014-08-16T23:21:49Z</time>
<desc><![CDATA[lat.=36.695460, lon.=137.791177, Alt.=2022.648577m. Speed=3.000000m/h.]]></desc>
</trkpt>
<trkpt lat="36.695482" lon="137.791145">
<ele>2024.330826</ele>
<time>2014-08-16T23:21:54Z</time>
<desc><![CDATA[lat.=36.695482, lon.=137.791145, Alt.=2024.330826m. Speed=3.000000m/h.]]></desc>
</trkpt>
<trkpt lat="36.695512" lon="137.791114">
<ele>2024.880474</ele>
<time>2014-08-16T23:21:59Z</time>
<desc><![CDATA[lat.=36.695512, lon.=137.791114, Alt.=2024.880474m. Speed=3.000000m/h.]]></desc>
</trkpt>
<trkpt lat="36.695531" lon="137.791074">
<ele>2027.101420</ele>
<time>2014-08-16T23:22:04Z</time>
<desc><![CDATA[lat.=36.695531, lon.=137.791074, Alt.=2027.101420m. Speed=3.000000m/h.]]></desc>
</trkpt>
<trkpt lat="36.695550" lon="137.791051">
<ele>2027.647419</ele>
<time>2014-08-16T23:22:09Z</time>
<desc><![CDATA[lat.=36.695550, lon.=137.791051, Alt.=2027.647419m. Speed=3.000000m/h.]]></desc>
</trkpt>
<trkpt lat="36.695577" lon="137.790997">
<ele>2026.950387</ele>
<time>2014-08-16T23:22:14Z</time>
<desc><![CDATA[lat.=36.695577, lon.=137.790997, Alt.=2026.950387m. Speed=4.000000m/h.]]></desc>
</trkpt>
<trkpt lat="36.695600" lon="137.790949">
<ele>2028.577434</ele>
<time>2014-08-16T23:22:19Z</time>
<desc><![CDATA[lat.=36.695600, lon.=137.790949, Alt.=2028.577434m. Speed=4.000000m/h.]]></desc>
</trkpt>
<trkpt lat="36.695615" lon="137.790918">
<ele>2029.662133</ele>
<time>2014-08-16T23:22:24Z</time>
<desc><![CDATA[lat.=36.695615, lon.=137.790918, Alt.=2029.662133m. Speed=3.000000m/h.]]></desc>
</trkpt>
<trkpt lat="36.695631" lon="137.790887">
<ele>2029.016669</ele>
<time>2014-08-16T23:22:29Z</time>
<desc><![CDATA[lat.=36.695631, lon.=137.790887, Alt.=2029.016669m. Speed=3.000000m/h.]]></desc>
</trkpt>
<trkpt lat="36.695646" lon="137.790855">
<ele>2031.831538</ele>
<time>2014-08-16T23:22:34Z</time>
<desc><![CDATA[lat.=36.695646, lon.=137.790855, Alt.=2031.831538m. Speed=3.000000m/h.]]></desc>
</trkpt>
<trkpt lat="36.695680" lon="137.790833">
<ele>2030.112346</ele>
<time>2014-08-16T23:22:39Z</time>
<desc><![CDATA[lat.=36.695680, lon.=137.790833, Alt.=2030.112346m. Speed=3.000000m/h.]]></desc>
</trkpt>
<trkpt lat="36.695702" lon="137.790802">
<ele>2030.064452</ele>
<time>2014-08-16T23:22:44Z</time>
<desc><![CDATA[lat.=36.695702, lon.=137.790802, Alt.=2030.064452m. Speed=3.000000m/h.]]></desc>
</trkpt>
<trkpt lat="36.695736" lon="137.790779">
<ele>2030.075431</ele>
<time>2014-08-16T23:22:49Z</time>
<desc><![CDATA[lat.=36.695736, lon.=137.790779, Alt.=2030.075431m. Speed=3.000000m/h.]]></desc>
</trkpt>
<trkpt lat="36.695762" lon="137.790756">
<ele>2031.219013</ele>
<time>2014-08-16T23:22:54Z</time>
<desc><![CDATA[lat.=36.695762, lon.=137.790756, Alt.=2031.219013m. Speed=3.000000m/h.]]></desc>
</trkpt>
<trkpt lat="36.695788" lon="137.790734">
<ele>2030.632431</ele>
<time>2014-08-16T23:22:59Z</time>
<desc><![CDATA[lat.=36.695788, lon.=137.790734, Alt.=2030.632431m. Speed=3.000000m/h.]]></desc>
</trkpt>
<trkpt lat="36.695814" lon="137.790710">
<ele>2031.776016</ele>
<time>2014-08-16T23:23:04Z</time>
<desc><![CDATA[lat.=36.695814, lon.=137.790710, Alt.=2031.776016m. Speed=3.000000m/h.]]></desc>
</trkpt>
<trkpt lat="36.695822" lon="137.790694">
<ele>2032.318374</ele>
<time>2014-08-16T23:23:09Z</time>
<desc><![CDATA[lat.=36.695822, lon.=137.790694, Alt.=2032.318374m. Speed=2.000000m/h.]]></desc>
</trkpt>
<trkpt lat="36.695844" lon="137.790679">
<ele>2032.325700</ele>
<time>2014-08-16T23:23:14Z</time>
<desc><![CDATA[lat.=36.695844, lon.=137.790679, Alt.=2032.325700m. Speed=2.000000m/h.]]></desc>
</trkpt>
<trkpt lat="36.695867" lon="137.790649">
<ele>2032.277819</ele>
<time>2014-08-16T23:23:19Z</time>
<desc><![CDATA[lat.=36.695867, lon.=137.790649, Alt.=2032.277819m. Speed=2.000000m/h.]]></desc>
</trkpt>
<trkpt lat="36.695889" lon="137.790632">
<ele>2035.745479</ele>
<time>2014-08-16T23:23:24Z</time>
<desc><![CDATA[lat.=36.695889, lon.=137.790632, Alt.=2035.745479m. Speed=3.000000m/h.]]></desc>
</trkpt>
<trkpt lat="36.695915" lon="137.790609">
<ele>2036.889073</ele>
<time>2014-08-16T23:23:29Z</time>
<desc><![CDATA[lat.=36.695915, lon.=137.790609, Alt.=2036.889073m. Speed=2.000000m/h.]]></desc>
</trkpt>
<trkpt lat="36.695934" lon="137.790586">
<ele>2035.704934</ele>
<time>2014-08-16T23:23:34Z</time>
<desc><![CDATA[lat.=36.695934, lon.=137.790586, Alt.=2035.704934m. Speed=3.000000m/h.]]></desc>
</trkpt>
<trkpt lat="36.695953" lon="137.790563">
<ele>2036.250963</ele>
<time>2014-08-16T23:23:39Z</time>
<desc><![CDATA[lat.=36.695953, lon.=137.790563, Alt.=2036.250963m. Speed=2.000000m/h.]]></desc>
</trkpt>
<trkpt lat="36.695976" lon="137.790532">
<ele>2036.203091</ele>
<time>2014-08-16T23:23:44Z</time>
<desc><![CDATA[lat.=36.695976, lon.=137.790532, Alt.=2036.203091m. Speed=2.000000m/h.]]></desc>
</trkpt>
<trkpt lat="36.695995" lon="137.790509">
<ele>2035.018957</ele>
<time>2014-08-16T23:23:49Z</time>
<desc><![CDATA[lat.=36.695995, lon.=137.790509, Alt.=2035.018957m. Speed=3.000000m/h.]]></desc>
</trkpt>
<trkpt lat="36.696027" lon="137.790518">
<ele>2036.870539</ele>
<time>2014-08-16T23:23:54Z</time>
<desc><![CDATA[lat.=36.696027, lon.=137.790518, Alt.=2036.870539m. Speed=3.000000m/h.]]></desc>
</trkpt>
<trkpt lat="36.696045" lon="137.790541">
<ele>2039.312354</ele>
<time>2014-08-16T23:23:59Z</time>
<desc><![CDATA[lat.=36.696045, lon.=137.790541, Alt.=2039.312354m. Speed=2.000000m/h.]]></desc>
</trkpt>
<trkpt lat="36.696078" lon="137.790534">
<ele>2041.108734</ele>
<time>2014-08-16T23:24:04Z</time>
<desc><![CDATA[lat.=36.696078, lon.=137.790534, Alt.=2041.108734m. Speed=3.000000m/h.]]></desc>
</trkpt>
<trkpt lat="36.696099" lon="137.790565">
<ele>2043.011857</ele>
<time>2014-08-16T23:24:09Z</time>
<desc><![CDATA[lat.=36.696099, lon.=137.790565, Alt.=2043.011857m. Speed=2.000000m/h.]]></desc>
</trkpt>
<trkpt lat="36.696121" lon="137.790549">
<ele>2044.749363</ele>
<time>2014-08-16T23:24:14Z</time>
<desc><![CDATA[lat.=36.696121, lon.=137.790549, Alt.=2044.749363m. Speed=2.000000m/h.]]></desc>
</trkpt>
<trkpt lat="36.696164" lon="137.790550">
<ele>2046.604625</ele>
<time>2014-08-16T23:24:19Z</time>
<desc><![CDATA[lat.=36.696164, lon.=137.790550, Alt.=2046.604625m. Speed=3.000000m/h.]]></desc>
</trkpt>
<trkpt lat="36.696138" lon="137.790605">
<ele>2045.571430</ele>
<time>2014-08-16T23:24:24Z</time>
<desc><![CDATA[lat.=36.696138, lon.=137.790605, Alt.=2045.571430m. Speed=4.000000m/h.]]></desc>
</trkpt>
<trkpt lat="36.696085" lon="137.790651">
<ele>2045.014388</ele>
<time>2014-08-16T23:24:29Z</time>
<desc><![CDATA[lat.=36.696085, lon.=137.790651, Alt.=2045.014388m. Speed=4.000000m/h.]]></desc>
</trkpt>
<trkpt lat="36.696051" lon="137.790673">
<ele>2045.003383</ele>
<time>2014-08-16T23:24:34Z</time>
<desc><![CDATA[lat.=36.696051, lon.=137.790673, Alt.=2045.003383m. Speed=4.000000m/h.]]></desc>
</trkpt>
<trkpt lat="36.696032" lon="137.790696">
<ele>2046.187519</ele>
<time>2014-08-16T23:24:39Z</time>
<desc><![CDATA[lat.=36.696032, lon.=137.790696, Alt.=2046.187519m. Speed=3.000000m/h.]]></desc>
</trkpt>
<trkpt lat="36.696081" lon="137.790659">
<ele>2043.878124</ele>
<time>2014-08-16T23:24:44Z</time>
<desc><![CDATA[lat.=36.696081, lon.=137.790659, Alt.=2043.878124m. Speed=4.000000m/h.]]></desc>
</trkpt>
<trkpt lat="36.696094" lon="137.790621">
<ele>2042.041213</ele>
<time>2014-08-16T23:24:49Z</time>
<desc><![CDATA[lat.=36.696094, lon.=137.790621, Alt.=2042.041213m. Speed=3.000000m/h.]]></desc>
</trkpt>
<trkpt lat="36.696135" lon="137.790567">
<ele>2042.539380</ele>
<time>2014-08-16T23:24:54Z</time>
<desc><![CDATA[lat.=36.696135, lon.=137.790567, Alt.=2042.539380m. Speed=4.000000m/h.]]></desc>
</trkpt>
<trkpt lat="36.696166" lon="137.790520">
<ele>2043.033883</ele>
<time>2014-08-16T23:24:59Z</time>
<desc><![CDATA[lat.=36.696166, lon.=137.790520, Alt.=2043.033883m. Speed=4.000000m/h.]]></desc>
</trkpt>
<trkpt lat="36.696171" lon="137.790449">
<ele>2043.949331</ele>
<time>2014-08-16T23:25:04Z</time>
<desc><![CDATA[lat.=36.696171, lon.=137.790449, Alt.=2043.949331m. Speed=4.000000m/h.]]></desc>
</trkpt>
<trkpt lat="36.696190" lon="137.790393">
<ele>2046.115131</ele>
<time>2014-08-16T23:25:09Z</time>
<desc><![CDATA[lat.=36.696190, lon.=137.790393, Alt.=2046.115131m. Speed=4.000000m/h.]]></desc>
</trkpt>
<trkpt lat="36.696220" lon="137.790379">
<ele>2043.259720</ele>
<time>2014-08-16T23:25:14Z</time>
<desc><![CDATA[lat.=36.696220, lon.=137.790379, Alt.=2043.259720m. Speed=3.000000m/h.]]></desc>
</trkpt>
<trkpt lat="36.696243" lon="137.790364">
<ele>2043.267070</ele>
<time>2014-08-16T23:25:19Z</time>
<desc><![CDATA[lat.=36.696243, lon.=137.790364, Alt.=2043.267070m. Speed=3.000000m/h.]]></desc>
</trkpt>
<trkpt lat="36.696235" lon="137.790363">
<ele>2046.129828</ele>
<time>2014-08-16T23:25:24Z</time>
<desc><![CDATA[lat.=36.696235, lon.=137.790363, Alt.=2046.129828m. Speed=0.000000m/h.]]></desc>
</trkpt>
<trkpt lat="36.696251" lon="137.790316">
<ele>2045.429203</ele>
<time>2014-08-16T23:25:29Z</time>
<desc><![CDATA[lat.=36.696251, lon.=137.790316, Alt.=2045.429203m. Speed=3.000000m/h.]]></desc>
</trkpt>
<trkpt lat="36.696267" lon="137.790253">
<ele>2046.403547</ele>
<time>2014-08-16T23:25:34Z</time>
<desc><![CDATA[lat.=36.696267, lon.=137.790253, Alt.=2046.403547m. Speed=4.000000m/h.]]></desc>
</trkpt>
<trkpt lat="36.696268" lon="137.790190">
<ele>2046.182750</ele>
<time>2014-08-16T23:25:39Z</time>
<desc><![CDATA[lat.=36.696268, lon.=137.790190, Alt.=2046.182750m. Speed=4.000000m/h.]]></desc>
</trkpt>
<trkpt lat="36.696262" lon="137.790126">
<ele>2047.094550</ele>
<time>2014-08-16T23:25:44Z</time>
<desc><![CDATA[lat.=36.696262, lon.=137.790126, Alt.=2047.094550m. Speed=4.000000m/h.]]></desc>
</trkpt>
<trkpt lat="36.696260" lon="137.790070">
<ele>2047.467658</ele>
<time>2014-08-16T23:25:49Z</time>
<desc><![CDATA[lat.=36.696260, lon.=137.790070, Alt.=2047.467658m. Speed=4.000000m/h.]]></desc>
</trkpt>
<trkpt lat="36.696239" lon="137.790022">
<ele>2047.239518</ele>
<time>2014-08-16T23:25:54Z</time>
<desc><![CDATA[lat.=36.696239, lon.=137.790022, Alt.=2047.239518m. Speed=4.000000m/h.]]></desc>
</trkpt>
<trkpt lat="36.696237" lon="137.789967">
<ele>2045.882467</ele>
<time>2014-08-16T23:25:59Z</time>
<desc><![CDATA[lat.=36.696237, lon.=137.789967, Alt.=2045.882467m. Speed=3.000000m/h.]]></desc>
</trkpt>
<trkpt lat="36.696229" lon="137.789965">
<ele>2048.745227</ele>
<time>2014-08-16T23:26:04Z</time>
<desc><![CDATA[lat.=36.696229, lon.=137.789965, Alt.=2048.745227m. Speed=0.000000m/h.]]></desc>
</trkpt>
<trkpt lat="36.696224" lon="137.789988">
<ele>2051.124481</ele>
<time>2014-08-16T23:26:09Z</time>
<desc><![CDATA[lat.=36.696224, lon.=137.789988, Alt.=2051.124481m. Speed=0.000000m/h.]]></desc>
</trkpt>
<trkpt lat="36.696231" lon="137.789988">
<ele>2051.722053</ele>
<time>2014-08-16T23:26:15Z</time>
<desc><![CDATA[lat.=36.696231, lon.=137.789988, Alt.=2051.722053m. Speed=0.000000m/h.]]></desc>
</trkpt>
<trkpt lat="36.696223" lon="137.789987">
<ele>2052.854647</ele>
<time>2014-08-16T23:26:20Z</time>
<desc><![CDATA[lat.=36.696223, lon.=137.789987, Alt.=2052.854647m. Speed=0.000000m/h.]]></desc>
</trkpt>
<trkpt lat="36.696220" lon="137.789947">
<ele>2055.013124</ele>
<time>2014-08-16T23:26:25Z</time>
<desc><![CDATA[lat.=36.696220, lon.=137.789947, Alt.=2055.013124m. Speed=2.000000m/h.]]></desc>
</trkpt>
<trkpt lat="36.696213" lon="137.789913">
<ele>2057.765497</ele>
<time>2014-08-16T23:26:30Z</time>
<desc><![CDATA[lat.=36.696213, lon.=137.789913, Alt.=2057.765497m. Speed=2.000000m/h.]]></desc>
</trkpt>
<trkpt lat="36.696213" lon="137.789913">
<ele>2059.495663</ele>
<time>2014-08-16T23:26:35Z</time>
<desc><![CDATA[lat.=36.696213, lon.=137.789913, Alt.=2059.495663m. Speed=0.000000m/h.]]></desc>
</trkpt>
<trkpt lat="36.696200" lon="137.789866">
<ele>2056.404774</ele>
<time>2014-08-16T23:26:40Z</time>
<desc><![CDATA[lat.=36.696200, lon.=137.789866, Alt.=2056.404774m. Speed=2.000000m/h.]]></desc>
</trkpt>
<trkpt lat="36.696164" lon="137.789849">
<ele>2055.091890</ele>
<time>2014-08-16T23:26:45Z</time>
<desc><![CDATA[lat.=36.696164, lon.=137.789849, Alt.=2055.091890m. Speed=3.000000m/h.]]></desc>
</trkpt>
<trkpt lat="36.696116" lon="137.789824">
<ele>2055.450305</ele>
<time>2014-08-16T23:26:50Z</time>
<desc><![CDATA[lat.=36.696116, lon.=137.789824, Alt.=2055.450305m. Speed=3.000000m/h.]]></desc>
</trkpt>
<trkpt lat="36.696092" lon="137.789768">
<ele>2054.030722</ele>
<time>2014-08-16T23:26:55Z</time>
<desc><![CDATA[lat.=36.696092, lon.=137.789768, Alt.=2054.030722m. Speed=3.000000m/h.]]></desc>
</trkpt>
<trkpt lat="36.696064" lon="137.789704">
<ele>2053.149848</ele>
<time>2014-08-16T23:27:00Z</time>
<desc><![CDATA[lat.=36.696064, lon.=137.789704, Alt.=2053.149848m. Speed=4.000000m/h.]]></desc>
</trkpt>
<trkpt lat="36.696047" lon="137.789648">
<ele>2054.058013</ele>
<time>2014-08-16T23:27:05Z</time>
<desc><![CDATA[lat.=36.696047, lon.=137.789648, Alt.=2054.058013m. Speed=4.000000m/h.]]></desc>
</trkpt>
<trkpt lat="36.696026" lon="137.789600">
<ele>2053.829907</ele>
<time>2014-08-16T23:27:10Z</time>
<desc><![CDATA[lat.=36.696026, lon.=137.789600, Alt.=2053.829907m. Speed=4.000000m/h.]]></desc>
</trkpt>
<trkpt lat="36.696027" lon="137.789551">
<ele>2055.394514</ele>
<time>2014-08-16T23:27:15Z</time>
<desc><![CDATA[lat.=36.696027, lon.=137.789551, Alt.=2055.394514m. Speed=3.000000m/h.]]></desc>
</trkpt>
<trkpt lat="36.696005" lon="137.789502">
<ele>2056.896581</ele>
<time>2014-08-16T23:27:20Z</time>
<desc><![CDATA[lat.=36.696005, lon.=137.789502, Alt.=2056.896581m. Speed=4.000000m/h.]]></desc>
</trkpt>
<trkpt lat="36.696004" lon="137.789432">
<ele>2055.484383</ele>
<time>2014-08-16T23:27:25Z</time>
<desc><![CDATA[lat.=36.696004, lon.=137.789432, Alt.=2055.484383m. Speed=4.000000m/h.]]></desc>
</trkpt>
<trkpt lat="36.696020" lon="137.789368">
<ele>2056.458789</ele>
<time>2014-08-16T23:27:30Z</time>
<desc><![CDATA[lat.=36.696020, lon.=137.789368, Alt.=2056.458789m. Speed=4.000000m/h.]]></desc>
</trkpt>
<trkpt lat="36.696035" lon="137.789322">
<ele>2055.758215</ele>
<time>2014-08-16T23:27:35Z</time>
<desc><![CDATA[lat.=36.696035, lon.=137.789322, Alt.=2055.758215m. Speed=4.000000m/h.]]></desc>
</trkpt>
<trkpt lat="36.696037" lon="137.789291">
<ele>2053.917685</ele>
<time>2014-08-16T23:27:40Z</time>
<desc><![CDATA[lat.=36.696037, lon.=137.789291, Alt.=2053.917685m. Speed=3.000000m/h.]]></desc>
</trkpt>
<trkpt lat="36.696033" lon="137.789284">
<ele>2052.726227</ele>
<time>2014-08-16T23:27:45Z</time>
<desc><![CDATA[lat.=36.696033, lon.=137.789284, Alt.=2052.726227m. Speed=0.000000m/h.]]></desc>
</trkpt>
<trkpt lat="36.696042" lon="137.789253">
<ele>2051.483269</ele>
<time>2014-08-16T23:27:50Z</time>
<desc><![CDATA[lat.=36.696042, lon.=137.789253, Alt.=2051.483269m. Speed=2.000000m/h.]]></desc>
</trkpt>
<trkpt lat="36.696024" lon="137.789196">
<ele>2052.391466</ele>
<time>2014-08-16T23:27:55Z</time>
<desc><![CDATA[lat.=36.696024, lon.=137.789196, Alt.=2052.391466m. Speed=3.000000m/h.]]></desc>
</trkpt>
<trkpt lat="36.696003" lon="137.789148">
<ele>2052.163388</ele>
<time>2014-08-16T23:28:00Z</time>
<desc><![CDATA[lat.=36.696003, lon.=137.789148, Alt.=2052.163388m. Speed=4.000000m/h.]]></desc>
</trkpt>
<trkpt lat="36.695994" lon="137.789077">
<ele>2051.883819</ele>
<time>2014-08-16T23:28:05Z</time>
<desc><![CDATA[lat.=36.695994, lon.=137.789077, Alt.=2051.883819m. Speed=4.000000m/h.]]></desc>
</trkpt>
<trkpt lat="36.695988" lon="137.789029">
<ele>2051.120721</ele>
<time>2014-08-16T23:28:10Z</time>
<desc><![CDATA[lat.=36.695988, lon.=137.789029, Alt.=2051.120721m. Speed=4.000000m/h.]]></desc>
</trkpt>
<trkpt lat="36.695978" lon="137.788973">
<ele>2050.896337</ele>
<time>2014-08-16T23:28:15Z</time>
<desc><![CDATA[lat.=36.695978, lon.=137.788973, Alt.=2050.896337m. Speed=4.000000m/h.]]></desc>
</trkpt>
<trkpt lat="36.695946" lon="137.788933">
<ele>2050.664593</ele>
<time>2014-08-16T23:28:20Z</time>
<desc><![CDATA[lat.=36.695946, lon.=137.788933, Alt.=2050.664593m. Speed=3.000000m/h.]]></desc>
</trkpt>
<trkpt lat="36.695932" lon="137.788900">
<ele>2051.089276</ele>
<time>2014-08-16T23:28:25Z</time>
<desc><![CDATA[lat.=36.695932, lon.=137.788900, Alt.=2051.089276m. Speed=3.000000m/h.]]></desc>
</trkpt>
<trkpt lat="36.695918" lon="137.788869">
<ele>2049.783794</ele>
<time>2014-08-16T23:28:30Z</time>
<desc><![CDATA[lat.=36.695918, lon.=137.788869, Alt.=2049.783794m. Speed=3.000000m/h.]]></desc>
</trkpt>
<trkpt lat="36.695904" lon="137.788836">
<ele>2050.208480</ele>
<time>2014-08-16T23:28:35Z</time>
<desc><![CDATA[lat.=36.695904, lon.=137.788836, Alt.=2050.208480m. Speed=2.000000m/h.]]></desc>
</trkpt>
<trkpt lat="36.695879" lon="137.788812">
<ele>2050.629486</ele>
<time>2014-08-16T23:28:40Z</time>
<desc><![CDATA[lat.=36.695879, lon.=137.788812, Alt.=2050.629486m. Speed=2.000000m/h.]]></desc>
</trkpt>
<trkpt lat="36.695860" lon="137.788802">
<ele>2053.433400</ele>
<time>2014-08-16T23:28:45Z</time>
<desc><![CDATA[lat.=36.695860, lon.=137.788802, Alt.=2053.433400m. Speed=2.000000m/h.]]></desc>
</trkpt>
<trkpt lat="36.695850" lon="137.788778">
<ele>2051.589209</ele>
<time>2014-08-16T23:28:50Z</time>
<desc><![CDATA[lat.=36.695850, lon.=137.788778, Alt.=2051.589209m. Speed=2.000000m/h.]]></desc>
</trkpt>
<trkpt lat="36.695824" lon="137.788753">
<ele>2053.740387</ele>
<time>2014-08-16T23:28:55Z</time>
<desc><![CDATA[lat.=36.695824, lon.=137.788753, Alt.=2053.740387m. Speed=3.000000m/h.]]></desc>
</trkpt>
<trkpt lat="36.695803" lon="137.788720">
<ele>2055.297682</ele>
<time>2014-08-16T23:29:00Z</time>
<desc><![CDATA[lat.=36.695803, lon.=137.788720, Alt.=2055.297682m. Speed=3.000000m/h.]]></desc>
</trkpt>
<trkpt lat="36.695778" lon="137.788679">
<ele>2055.663527</ele>
<time>2014-08-16T23:29:05Z</time>
<desc><![CDATA[lat.=36.695778, lon.=137.788679, Alt.=2055.663527m. Speed=3.000000m/h.]]></desc>
</trkpt>
<trkpt lat="36.695756" lon="137.788645">
<ele>2058.950995</ele>
<time>2014-08-16T23:29:10Z</time>
<desc><![CDATA[lat.=36.695756, lon.=137.788645, Alt.=2058.950995m. Speed=3.000000m/h.]]></desc>
</trkpt>
<trkpt lat="36.695745" lon="137.788621">
<ele>2058.836977</ele>
<time>2014-08-16T23:29:15Z</time>
<desc><![CDATA[lat.=36.695745, lon.=137.788621, Alt.=2058.836977m. Speed=3.000000m/h.]]></desc>
</trkpt>
<trkpt lat="36.695739" lon="137.788589">
<ele>2058.129076</ele>
<time>2014-08-16T23:29:20Z</time>
<desc><![CDATA[lat.=36.695739, lon.=137.788589, Alt.=2058.129076m. Speed=3.000000m/h.]]></desc>
</trkpt>
<trkpt lat="36.695721" lon="137.788549">
<ele>2059.092497</ele>
<time>2014-08-16T23:29:25Z</time>
<desc><![CDATA[lat.=36.695721, lon.=137.788549, Alt.=2059.092497m. Speed=3.000000m/h.]]></desc>
</trkpt>
<trkpt lat="36.695715" lon="137.788501">
<ele>2058.329433</ele>
<time>2014-08-16T23:29:30Z</time>
<desc><![CDATA[lat.=36.695715, lon.=137.788501, Alt.=2058.329433m. Speed=3.000000m/h.]]></desc>
</trkpt>
<trkpt lat="36.695704" lon="137.788477">
<ele>2058.215421</ele>
<time>2014-08-16T23:29:35Z</time>
<desc><![CDATA[lat.=36.695704, lon.=137.788477, Alt.=2058.215421m. Speed=2.000000m/h.]]></desc>
</trkpt>
<trkpt lat="36.695683" lon="137.788461">
<ele>2058.097729</ele>
<time>2014-08-16T23:29:40Z</time>
<desc><![CDATA[lat.=36.695683, lon.=137.788461, Alt.=2058.097729m. Speed=2.000000m/h.]]></desc>
</trkpt>
<trkpt lat="36.695672" lon="137.788437">
<ele>2057.983719</ele>
<time>2014-08-16T23:29:45Z</time>
<desc><![CDATA[lat.=36.695672, lon.=137.788437, Alt.=2057.983719m. Speed=2.000000m/h.]]></desc>
</trkpt>
<trkpt lat="36.695650" lon="137.788419">
<ele>2059.596197</ele>
<time>2014-08-16T23:29:50Z</time>
<desc><![CDATA[lat.=36.695650, lon.=137.788419, Alt.=2059.596197m. Speed=2.000000m/h.]]></desc>
</trkpt>
<trkpt lat="36.695632" lon="137.788395">
<ele>2058.884625</ele>
<time>2014-08-16T23:29:55Z</time>
<desc><![CDATA[lat.=36.695632, lon.=137.788395, Alt.=2058.884625m. Speed=2.000000m/h.]]></desc>
</trkpt>
<trkpt lat="36.695622" lon="137.788355">
<ele>2058.715455</ele>
<time>2014-08-16T23:30:00Z</time>
<desc><![CDATA[lat.=36.695622, lon.=137.788355, Alt.=2058.715455m. Speed=2.000000m/h.]]></desc>
</trkpt>
<trkpt lat="36.695612" lon="137.788348">
<ele>2056.926444</ele>
<time>2014-08-16T23:30:05Z</time>
<desc><![CDATA[lat.=36.695612, lon.=137.788348, Alt.=2056.926444m. Speed=1.000000m/h.]]></desc>
</trkpt>
<trkpt lat="36.695608" lon="137.788356">
<ele>2055.790160</ele>
<time>2014-08-16T23:30:10Z</time>
<desc><![CDATA[lat.=36.695608, lon.=137.788356, Alt.=2055.790160m. Speed=0.000000m/h.]]></desc>
</trkpt>
<trkpt lat="36.695601" lon="137.788339">
<ele>2056.867601</ele>
<time>2014-08-16T23:30:15Z</time>
<desc><![CDATA[lat.=36.695601, lon.=137.788339, Alt.=2056.867601m. Speed=1.000000m/h.]]></desc>
</trkpt>
<trkpt lat="36.695572" lon="137.788306">
<ele>2059.557527</ele>
<time>2014-08-16T23:30:20Z</time>
<desc><![CDATA[lat.=36.695572, lon.=137.788306, Alt.=2059.557527m. Speed=2.000000m/h.]]></desc>
</trkpt>
<trkpt lat="36.695546" lon="137.788280">
<ele>2061.708734</ele>
<time>2014-08-16T23:30:25Z</time>
<desc><![CDATA[lat.=36.695546, lon.=137.788280, Alt.=2061.708734m. Speed=2.000000m/h.]]></desc>
</trkpt>
<trkpt lat="36.695539" lon="137.788263">
<ele>2062.786178</ele>
<time>2014-08-16T23:30:30Z</time>
<desc><![CDATA[lat.=36.695539, lon.=137.788263, Alt.=2062.786178m. Speed=2.000000m/h.]]></desc>
</trkpt>
<trkpt lat="36.695517" lon="137.788247">
<ele>2062.668498</ele>
<time>2014-08-16T23:30:35Z</time>
<desc><![CDATA[lat.=36.695517, lon.=137.788247, Alt.=2062.668498m. Speed=2.000000m/h.]]></desc>
</trkpt>
<trkpt lat="36.695495" lon="137.788229">
<ele>2066.011155</ele>
<time>2014-08-16T23:30:40Z</time>
<desc><![CDATA[lat.=36.695495, lon.=137.788229, Alt.=2066.011155m. Speed=2.000000m/h.]]></desc>
</trkpt>
<trkpt lat="36.695491" lon="137.788236">
<ele>2066.605038</ele>
<time>2014-08-16T23:30:45Z</time>
<desc><![CDATA[lat.=36.695491, lon.=137.788236, Alt.=2066.605038m. Speed=1.000000m/h.]]></desc>
</trkpt>
<trkpt lat="36.695484" lon="137.788220">
<ele>2065.952316</ele>
<time>2014-08-16T23:30:50Z</time>
<desc><![CDATA[lat.=36.695484, lon.=137.788220, Alt.=2065.952316m. Speed=1.000000m/h.]]></desc>
</trkpt>
<trkpt lat="36.695477" lon="137.788204">
<ele>2067.029762</ele>
<time>2014-08-16T23:30:55Z</time>
<desc><![CDATA[lat.=36.695477, lon.=137.788204, Alt.=2067.029762m. Speed=1.000000m/h.]]></desc>
</trkpt>
<trkpt lat="36.695458" lon="137.788195">
<ele>2068.103530</ele>
<time>2014-08-16T23:31:00Z</time>
<desc><![CDATA[lat.=36.695458, lon.=137.788195, Alt.=2068.103530m. Speed=2.000000m/h.]]></desc>
</trkpt>
<trkpt lat="36.695433" lon="137.788170">
<ele>2068.524578</ele>
<time>2014-08-16T23:31:05Z</time>
<desc><![CDATA[lat.=36.695433, lon.=137.788170, Alt.=2068.524578m. Speed=2.000000m/h.]]></desc>
</trkpt>
<trkpt lat="36.695418" lon="137.788168">
<ele>2070.789792</ele>
<time>2014-08-16T23:31:10Z</time>
<desc><![CDATA[lat.=36.695418, lon.=137.788168, Alt.=2070.789792m. Speed=2.000000m/h.]]></desc>
</trkpt>
<trkpt lat="36.695399" lon="137.788191">
<ele>2071.973881</ele>
<time>2014-08-16T23:31:15Z</time>
<desc><![CDATA[lat.=36.695399, lon.=137.788191, Alt.=2071.973881m. Speed=2.000000m/h.]]></desc>
</trkpt>
<trkpt lat="36.695379" lon="137.788212">
<ele>2076.618309</ele>
<time>2014-08-16T23:31:20Z</time>
<desc><![CDATA[lat.=36.695379, lon.=137.788212, Alt.=2076.618309m. Speed=2.000000m/h.]]></desc>
</trkpt>
<trkpt lat="36.695363" lon="137.788210">
<ele>2078.883524</ele>
<time>2014-08-16T23:31:25Z</time>
<desc><![CDATA[lat.=36.695363, lon.=137.788210, Alt.=2078.883524m. Speed=1.000000m/h.]]></desc>
</trkpt>
<trkpt lat="36.695346" lon="137.788203">
<ele>2076.496960</ele>
<time>2014-08-16T23:31:30Z</time>
<desc><![CDATA[lat.=36.695346, lon.=137.788203, Alt.=2076.496960m. Speed=2.000000m/h.]]></desc>
</trkpt>
<trkpt lat="36.695324" lon="137.788187">
<ele>2074.649120</ele>
<time>2014-08-16T23:31:35Z</time>
<desc><![CDATA[lat.=36.695324, lon.=137.788187, Alt.=2074.649120m. Speed=1.000000m/h.]]></desc>
</trkpt>
<trkpt lat="36.695302" lon="137.788186">
<ele>2074.586610</ele>
<time>2014-08-16T23:31:40Z</time>
<desc><![CDATA[lat.=36.695302, lon.=137.788186, Alt.=2074.586610m. Speed=2.000000m/h.]]></desc>
</trkpt>
<trkpt lat="36.695285" lon="137.788162">
<ele>2073.875057</ele>
<time>2014-08-16T23:31:45Z</time>
<desc><![CDATA[lat.=36.695285, lon.=137.788162, Alt.=2073.875057m. Speed=1.000000m/h.]]></desc>
</trkpt>
<trkpt lat="36.695265" lon="137.788168">
<ele>2076.734160</ele>
<time>2014-08-16T23:31:50Z</time>
<desc><![CDATA[lat.=36.695265, lon.=137.788168, Alt.=2076.734160m. Speed=2.000000m/h.]]></desc>
</trkpt>
<trkpt lat="36.695250" lon="137.788167">
<ele>2078.999379</ele>
<time>2014-08-16T23:31:55Z</time>
<desc><![CDATA[lat.=36.695250, lon.=137.788167, Alt.=2078.999379m. Speed=2.000000m/h.]]></desc>
</trkpt>
<trkpt lat="36.695239" lon="137.788158">
<ele>2080.670714</ele>
<time>2014-08-16T23:32:00Z</time>
<desc><![CDATA[lat.=36.695239, lon.=137.788158, Alt.=2080.670714m. Speed=1.000000m/h.]]></desc>
</trkpt>
<trkpt lat="36.695233" lon="137.788143">
<ele>2078.287828</ele>
<time>2014-08-16T23:32:05Z</time>
<desc><![CDATA[lat.=36.695233, lon.=137.788143, Alt.=2078.287828m. Speed=1.000000m/h.]]></desc>
</trkpt>
<trkpt lat="36.695225" lon="137.788142">
<ele>2079.420438</ele>
<time>2014-08-16T23:32:10Z</time>
<desc><![CDATA[lat.=36.695225, lon.=137.788142, Alt.=2079.420438m. Speed=1.000000m/h.]]></desc>
</trkpt>
<trkpt lat="36.695207" lon="137.788133">
<ele>2080.494216</ele>
<time>2014-08-16T23:32:15Z</time>
<desc><![CDATA[lat.=36.695207, lon.=137.788133, Alt.=2080.494216m. Speed=1.000000m/h.]]></desc>
</trkpt>
<trkpt lat="36.695187" lon="137.788139">
<ele>2083.353321</ele>
<time>2014-08-16T23:32:20Z</time>
<desc><![CDATA[lat.=36.695187, lon.=137.788139, Alt.=2083.353321m. Speed=2.000000m/h.]]></desc>
</trkpt>
<trkpt lat="36.695154" lon="137.788130">
<ele>2083.231985</ele>
<time>2014-08-16T23:32:25Z</time>
<desc><![CDATA[lat.=36.695154, lon.=137.788130, Alt.=2083.231985m. Speed=2.000000m/h.]]></desc>
</trkpt>
<trkpt lat="36.695139" lon="137.788145">
<ele>2083.822198</ele>
<time>2014-08-16T23:32:30Z</time>
<desc><![CDATA[lat.=36.695139, lon.=137.788145, Alt.=2083.822198m. Speed=2.000000m/h.]]></desc>
</trkpt>
<trkpt lat="36.695116" lon="137.788159">
<ele>2085.545023</ele>
<time>2014-08-16T23:32:35Z</time>
<desc><![CDATA[lat.=36.695116, lon.=137.788159, Alt.=2085.545023m. Speed=2.000000m/h.]]></desc>
</trkpt>
<trkpt lat="36.695101" lon="137.788173">
<ele>2087.865406</ele>
<time>2014-08-16T23:32:40Z</time>
<desc><![CDATA[lat.=36.695101, lon.=137.788173, Alt.=2087.865406m. Speed=1.000000m/h.]]></desc>
</trkpt>
<trkpt lat="36.695078" lon="137.788188">
<ele>2087.858065</ele>
<time>2014-08-16T23:32:45Z</time>
<desc><![CDATA[lat.=36.695078, lon.=137.788188, Alt.=2087.858065m. Speed=1.000000m/h.]]></desc>
</trkpt>
<trkpt lat="36.695055" lon="137.788218">
<ele>2089.636054</ele>
<time>2014-08-16T23:32:50Z</time>
<desc><![CDATA[lat.=36.695055, lon.=137.788218, Alt.=2089.636054m. Speed=2.000000m/h.]]></desc>
</trkpt>
<trkpt lat="36.695044" lon="137.788210">
<ele>2089.577225</ele>
<time>2014-08-16T23:32:55Z</time>
<desc><![CDATA[lat.=36.695044, lon.=137.788210, Alt.=2089.577225m. Speed=0.000000m/h.]]></desc>
</trkpt>
<trkpt lat="36.695041" lon="137.788202">
<ele>2090.115951</ele>
<time>2014-08-16T23:33:00Z</time>
<desc><![CDATA[lat.=36.695041, lon.=137.788202, Alt.=2090.115951m. Speed=1.000000m/h.]]></desc>
</trkpt>
<trkpt lat="36.695005" lon="137.788169">
<ele>2088.748022</ele>
<time>2014-08-16T23:33:05Z</time>
<desc><![CDATA[lat.=36.695005, lon.=137.788169, Alt.=2088.748022m. Speed=2.000000m/h.]]></desc>
</trkpt>
<trkpt lat="36.695017" lon="137.788131">
<ele>2086.911204</ele>
<time>2014-08-16T23:33:10Z</time>
<desc><![CDATA[lat.=36.695017, lon.=137.788131, Alt.=2086.911204m. Speed=2.000000m/h.]]></desc>
</trkpt>
<trkpt lat="36.695025" lon="137.788099">
<ele>2087.398443</ele>
<time>2014-08-16T23:33:15Z</time>
<desc><![CDATA[lat.=36.695025, lon.=137.788099, Alt.=2087.398443m. Speed=2.000000m/h.]]></desc>
</trkpt>
<trkpt lat="36.695037" lon="137.788077">
<ele>2085.616786</ele>
<time>2014-08-16T23:33:20Z</time>
<desc><![CDATA[lat.=36.695037, lon.=137.788077, Alt.=2085.616786m. Speed=2.000000m/h.]]></desc>
</trkpt>
<trkpt lat="36.695046" lon="137.788046">
<ele>2084.373858</ele>
<time>2014-08-16T23:33:25Z</time>
<desc><![CDATA[lat.=36.695046, lon.=137.788046, Alt.=2084.373858m. Speed=2.000000m/h.]]></desc>
</trkpt>
<trkpt lat="36.695046" lon="137.788014">
<ele>2084.263545</ele>
<time>2014-08-16T23:33:30Z</time>
<desc><![CDATA[lat.=36.695046, lon.=137.788014, Alt.=2084.263545m. Speed=2.000000m/h.]]></desc>
</trkpt>
<trkpt lat="36.695051" lon="137.787991">
<ele>2083.614504</ele>
<time>2014-08-16T23:33:35Z</time>
<desc><![CDATA[lat.=36.695051, lon.=137.787991, Alt.=2083.614504m. Speed=2.000000m/h.]]></desc>
</trkpt>
<trkpt lat="36.695018" lon="137.787966">
<ele>2085.168191</ele>
<time>2014-08-16T23:33:40Z</time>
<desc><![CDATA[lat.=36.695018, lon.=137.787966, Alt.=2085.168191m. Speed=2.000000m/h.]]></desc>
</trkpt>
<trkpt lat="36.695015" lon="137.787941">
<ele>2085.651765</ele>
<time>2014-08-16T23:33:45Z</time>
<desc><![CDATA[lat.=36.695015, lon.=137.787941, Alt.=2085.651765m. Speed=2.000000m/h.]]></desc>
</trkpt>
<trkpt lat="36.695008" lon="137.787909">
<ele>2086.674069</ele>
<time>2014-08-16T23:33:50Z</time>
<desc><![CDATA[lat.=36.695008, lon.=137.787909, Alt.=2086.674069m. Speed=2.000000m/h.]]></desc>
</trkpt>
<trkpt lat="36.694997" lon="137.787900">
<ele>2088.345412</ele>
<time>2014-08-16T23:33:55Z</time>
<desc><![CDATA[lat.=36.694997, lon.=137.787900, Alt.=2088.345412m. Speed=2.000000m/h.]]></desc>
</trkpt>
<trkpt lat="36.694979" lon="137.787876">
<ele>2087.633878</ele>
<time>2014-08-16T23:34:00Z</time>
<desc><![CDATA[lat.=36.694979, lon.=137.787876, Alt.=2087.633878m. Speed=2.000000m/h.]]></desc>
</trkpt>
<trkpt lat="36.694939" lon="137.787867">
<ele>2086.915004</ele>
<time>2014-08-16T23:34:05Z</time>
<desc><![CDATA[lat.=36.694939, lon.=137.787867, Alt.=2086.915004m. Speed=2.000000m/h.]]></desc>
</trkpt>
<trkpt lat="36.694932" lon="137.787835">
<ele>2087.937312</ele>
<time>2014-08-16T23:34:10Z</time>
<desc><![CDATA[lat.=36.694932, lon.=137.787835, Alt.=2087.937312m. Speed=2.000000m/h.]]></desc>
</trkpt>
<trkpt lat="36.694935" lon="137.787810">
<ele>2090.748613</ele>
<time>2014-08-16T23:34:15Z</time>
<desc><![CDATA[lat.=36.694935, lon.=137.787810, Alt.=2090.748613m. Speed=2.000000m/h.]]></desc>
</trkpt>
<trkpt lat="36.694921" lon="137.787792">
<ele>2092.958691</ele>
<time>2014-08-16T23:34:20Z</time>
<desc><![CDATA[lat.=36.694921, lon.=137.787792, Alt.=2092.958691m. Speed=2.000000m/h.]]></desc>
</trkpt>
<trkpt lat="36.694894" lon="137.787782">
<ele>2096.895267</ele>
<time>2014-08-16T23:34:25Z</time>
<desc><![CDATA[lat.=36.694894, lon.=137.787782, Alt.=2096.895267m. Speed=2.000000m/h.]]></desc>
</trkpt>
<trkpt lat="36.694879" lon="137.787780">
<ele>2099.160498</ele>
<time>2014-08-16T23:34:30Z</time>
<desc><![CDATA[lat.=36.694879, lon.=137.787780, Alt.=2099.160498m. Speed=2.000000m/h.]]></desc>
</trkpt>
<trkpt lat="36.694879" lon="137.787764">
<ele>2100.835515</ele>
<time>2014-08-16T23:34:35Z</time>
<desc><![CDATA[lat.=36.694879, lon.=137.787764, Alt.=2100.835515m. Speed=1.000000m/h.]]></desc>
</trkpt>
<trkpt lat="36.694872" lon="137.787732">
<ele>2100.127659</ele>
<time>2014-08-16T23:34:40Z</time>
<desc><![CDATA[lat.=36.694872, lon.=137.787732, Alt.=2100.127659m. Speed=2.000000m/h.]]></desc>
</trkpt>
<trkpt lat="36.694878" lon="137.787694">
<ele>2097.693306</ele>
<time>2014-08-16T23:34:45Z</time>
<desc><![CDATA[lat.=36.694878, lon.=137.787694, Alt.=2097.693306m. Speed=2.000000m/h.]]></desc>
</trkpt>
<trkpt lat="36.694863" lon="137.787661">
<ele>2099.848237</ele>
<time>2014-08-16T23:34:50Z</time>
<desc><![CDATA[lat.=36.694863, lon.=137.787661, Alt.=2099.848237m. Speed=2.000000m/h.]]></desc>
</trkpt>
<trkpt lat="36.694845" lon="137.787652">
<ele>2099.191864</ele>
<time>2014-08-16T23:34:55Z</time>
<desc><![CDATA[lat.=36.694845, lon.=137.787652, Alt.=2099.191864m. Speed=2.000000m/h.]]></desc>
</trkpt>
<trkpt lat="36.694853" lon="137.787636">
<ele>2099.734268</ele>
<time>2014-08-16T23:35:00Z</time>
<desc><![CDATA[lat.=36.694853, lon.=137.787636, Alt.=2099.734268m. Speed=1.000000m/h.]]></desc>
</trkpt>
<trkpt lat="36.694854" lon="137.787606">
<ele>2097.893801</ele>
<time>2014-08-16T23:35:05Z</time>
<desc><![CDATA[lat.=36.694854, lon.=137.787606, Alt.=2097.893801m. Speed=1.000000m/h.]]></desc>
</trkpt>
<trkpt lat="36.694858" lon="137.787582">
<ele>2098.974940</ele>
<time>2014-08-16T23:35:10Z</time>
<desc><![CDATA[lat.=36.694858, lon.=137.787582, Alt.=2098.974940m. Speed=2.000000m/h.]]></desc>
</trkpt>
<trkpt lat="36.694869" lon="137.787557">
<ele>2100.653632</ele>
<time>2014-08-16T23:35:15Z</time>
<desc><![CDATA[lat.=36.694869, lon.=137.787557, Alt.=2100.653632m. Speed=2.000000m/h.]]></desc>
</trkpt>
<trkpt lat="36.694873" lon="137.787550">
<ele>2100.059751</ele>
<time>2014-08-16T23:35:20Z</time>
<desc><![CDATA[lat.=36.694873, lon.=137.787550, Alt.=2100.059751m. Speed=1.000000m/h.]]></desc>
</trkpt>
<trkpt lat="36.694855" lon="137.787509">
<ele>2101.023254</ele>
<time>2014-08-16T23:35:25Z</time>
<desc><![CDATA[lat.=36.694855, lon.=137.787509, Alt.=2101.023254m. Speed=2.000000m/h.]]></desc>
</trkpt>
<trkpt lat="36.694841" lon="137.787493">
<ele>2099.773001</ele>
<time>2014-08-16T23:35:30Z</time>
<desc><![CDATA[lat.=36.694841, lon.=137.787493, Alt.=2099.773001m. Speed=1.000000m/h.]]></desc>
</trkpt>
<trkpt lat="36.694823" lon="137.787484">
<ele>2100.846800</ele>
<time>2014-08-16T23:35:35Z</time>
<desc><![CDATA[lat.=36.694823, lon.=137.787484, Alt.=2100.846800m. Speed=1.000000m/h.]]></desc>
</trkpt>
<trkpt lat="36.694808" lon="137.787484">
<ele>2101.381864</ele>
<time>2014-08-16T23:35:40Z</time>
<desc><![CDATA[lat.=36.694808, lon.=137.787484, Alt.=2101.381864m. Speed=1.000000m/h.]]></desc>
</trkpt>
<trkpt lat="36.694789" lon="137.787474">
<ele>2104.185833</ele>
<time>2014-08-16T23:35:45Z</time>
<desc><![CDATA[lat.=36.694789, lon.=137.787474, Alt.=2104.185833m. Speed=1.000000m/h.]]></desc>
</trkpt>
<trkpt lat="36.694782" lon="137.787457">
<ele>2105.263305</ele>
<time>2014-08-16T23:35:50Z</time>
<desc><![CDATA[lat.=36.694782, lon.=137.787457, Alt.=2105.263305m. Speed=2.000000m/h.]]></desc>
</trkpt>
<trkpt lat="36.694791" lon="137.787411">
<ele>2103.965252</ele>
<time>2014-08-16T23:35:55Z</time>
<desc><![CDATA[lat.=36.694791, lon.=137.787411, Alt.=2103.965252m. Speed=2.000000m/h.]]></desc>
</trkpt>
<trkpt lat="36.694805" lon="137.787395">
<ele>2105.105212</ele>
<time>2014-08-16T23:36:00Z</time>
<desc><![CDATA[lat.=36.694805, lon.=137.787395, Alt.=2105.105212m. Speed=1.000000m/h.]]></desc>
</trkpt>
<trkpt lat="36.694806" lon="137.787379">
<ele>2105.050068</ele>
<time>2014-08-16T23:36:05Z</time>
<desc><![CDATA[lat.=36.694806, lon.=137.787379, Alt.=2105.050068m. Speed=1.000000m/h.]]></desc>
</trkpt>
<trkpt lat="36.694802" lon="137.787355">
<ele>2105.533660</ele>
<time>2014-08-16T23:36:10Z</time>
<desc><![CDATA[lat.=36.694802, lon.=137.787355, Alt.=2105.533660m. Speed=1.000000m/h.]]></desc>
</trkpt>
<trkpt lat="36.694777" lon="137.787329">
<ele>2107.684936</ele>
<time>2014-08-16T23:36:15Z</time>
<desc><![CDATA[lat.=36.694777, lon.=137.787329, Alt.=2107.684936m. Speed=2.000000m/h.]]></desc>
</trkpt>
<trkpt lat="36.694754" lon="137.787310">
<ele>2114.487985</ele>
<time>2014-08-16T23:36:20Z</time>
<desc><![CDATA[lat.=36.694754, lon.=137.787310, Alt.=2114.487985m. Speed=2.000000m/h.]]></desc>
</trkpt>
<trkpt lat="36.694728" lon="137.787285">
<ele>2114.909095</ele>
<time>2014-08-16T23:36:25Z</time>
<desc><![CDATA[lat.=36.694728, lon.=137.787285, Alt.=2114.909095m. Speed=2.000000m/h.]]></desc>
</trkpt>
<trkpt lat="36.694711" lon="137.787261">
<ele>2112.467419</ele>
<time>2014-08-16T23:36:30Z</time>
<desc><![CDATA[lat.=36.694711, lon.=137.787261, Alt.=2112.467419m. Speed=2.000000m/h.]]></desc>
</trkpt>
<trkpt lat="36.694707" lon="137.787252">
<ele>2114.736327</ele>
<time>2014-08-16T23:36:35Z</time>
<desc><![CDATA[lat.=36.694707, lon.=137.787252, Alt.=2114.736327m. Speed=2.000000m/h.]]></desc>
</trkpt>
<trkpt lat="36.694720" lon="137.787215">
<ele>2111.169376</ele>
<time>2014-08-16T23:36:40Z</time>
<desc><![CDATA[lat.=36.694720, lon.=137.787215, Alt.=2111.169376m. Speed=2.000000m/h.]]></desc>
</trkpt>
<trkpt lat="36.694716" lon="137.787174">
<ele>2113.328004</ele>
<time>2014-08-16T23:36:45Z</time>
<desc><![CDATA[lat.=36.694716, lon.=137.787174, Alt.=2113.328004m. Speed=2.000000m/h.]]></desc>
</trkpt>
<trkpt lat="36.694724" lon="137.787174">
<ele>2113.925555</ele>
<time>2014-08-16T23:36:50Z</time>
<desc><![CDATA[lat.=36.694724, lon.=137.787174, Alt.=2113.925555m. Speed=1.000000m/h.]]></desc>
</trkpt>
<trkpt lat="36.694739" lon="137.787158">
<ele>2115.065518</ele>
<time>2014-08-16T23:36:55Z</time>
<desc><![CDATA[lat.=36.694739, lon.=137.787158, Alt.=2115.065518m. Speed=2.000000m/h.]]></desc>
</trkpt>
<trkpt lat="36.694757" lon="137.787135">
<ele>2115.611603</ele>
<time>2014-08-16T23:37:00Z</time>
<desc><![CDATA[lat.=36.694757, lon.=137.787135, Alt.=2115.611603m. Speed=2.000000m/h.]]></desc>
</trkpt>
<trkpt lat="36.694758" lon="137.787104">
<ele>2113.771155</ele>
<time>2014-08-16T23:37:05Z</time>
<desc><![CDATA[lat.=36.694758, lon.=137.787104, Alt.=2113.771155m. Speed=2.000000m/h.]]></desc>
</trkpt>
<trkpt lat="36.694754" lon="137.787112">
<ele>2114.365034</ele>
<time>2014-08-16T23:37:10Z</time>
<desc><![CDATA[lat.=36.694754, lon.=137.787112, Alt.=2114.365034m. Speed=0.000000m/h.]]></desc>
</trkpt>
<trkpt lat="36.694747" lon="137.787095">
<ele>2115.442513</ele>
<time>2014-08-16T23:37:15Z</time>
<desc><![CDATA[lat.=36.694747, lon.=137.787095, Alt.=2115.442513m. Speed=1.000000m/h.]]></desc>
</trkpt>
<trkpt lat="36.694741" lon="137.787048">
<ele>2114.679547</ele>
<time>2014-08-16T23:37:20Z</time>
<desc><![CDATA[lat.=36.694741, lon.=137.787048, Alt.=2114.679547m. Speed=2.000000m/h.]]></desc>
</trkpt>
<trkpt lat="36.694715" lon="137.787021">
<ele>2118.561006</ele>
<time>2014-08-16T23:37:25Z</time>
<desc><![CDATA[lat.=36.694715, lon.=137.787021, Alt.=2118.561006m. Speed=2.000000m/h.]]></desc>
</trkpt>
<trkpt lat="36.694717" lon="137.786976">
<ele>2114.935256</ele>
<time>2014-08-16T23:37:30Z</time>
<desc><![CDATA[lat.=36.694717, lon.=137.786976, Alt.=2114.935256m. Speed=2.000000m/h.]]></desc>
</trkpt>
<trkpt lat="36.694729" lon="137.786936">
<ele>2114.828658</ele>
<time>2014-08-16T23:37:35Z</time>
<desc><![CDATA[lat.=36.694729, lon.=137.786936, Alt.=2114.828658m. Speed=2.000000m/h.]]></desc>
</trkpt>
<trkpt lat="36.694718" lon="137.786895">
<ele>2118.119919</ele>
<time>2014-08-16T23:37:40Z</time>
<desc><![CDATA[lat.=36.694718, lon.=137.786895, Alt.=2118.119919m. Speed=2.000000m/h.]]></desc>
</trkpt>
<trkpt lat="36.694706" lon="137.786885">
<ele>2121.521450</ele>
<time>2014-08-16T23:37:45Z</time>
<desc><![CDATA[lat.=36.694706, lon.=137.786885, Alt.=2121.521450m. Speed=2.000000m/h.]]></desc>
</trkpt>
<trkpt lat="36.694688" lon="137.786860">
<ele>2124.270296</ele>
<time>2014-08-16T23:37:50Z</time>
<desc><![CDATA[lat.=36.694688, lon.=137.786860, Alt.=2124.270296m. Speed=2.000000m/h.]]></desc>
</trkpt>
<trkpt lat="36.694681" lon="137.786828">
<ele>2123.562478</ele>
<time>2014-08-16T23:37:55Z</time>
<desc><![CDATA[lat.=36.694681, lon.=137.786828, Alt.=2123.562478m. Speed=2.000000m/h.]]></desc>
</trkpt>
<trkpt lat="36.694678" lon="137.786820">
<ele>2124.101221</ele>
<time>2014-08-16T23:38:00Z</time>
<desc><![CDATA[lat.=36.694678, lon.=137.786820, Alt.=2124.101221m. Speed=0.000000m/h.]]></desc>
</trkpt>
<trkpt lat="36.694689" lon="137.786812">
<ele>2124.104896</ele>
<time>2014-08-16T23:38:05Z</time>
<desc><![CDATA[lat.=36.694689, lon.=137.786812, Alt.=2124.104896m. Speed=0.000000m/h.]]></desc>
</trkpt>
<trkpt lat="36.694682" lon="137.786812">
<ele>2123.507345</ele>
<time>2014-08-16T23:38:11Z</time>
<desc><![CDATA[lat.=36.694682, lon.=137.786812, Alt.=2123.507345m. Speed=0.000000m/h.]]></desc>
</trkpt>
<trkpt lat="36.694697" lon="137.786796">
<ele>2124.647314</ele>
<time>2014-08-16T23:38:16Z</time>
<desc><![CDATA[lat.=36.694697, lon.=137.786796, Alt.=2124.647314m. Speed=2.000000m/h.]]></desc>
</trkpt>
<trkpt lat="36.694703" lon="137.786812">
<ele>2125.299998</ele>
<time>2014-08-16T23:38:21Z</time>
<desc><![CDATA[lat.=36.694703, lon.=137.786812, Alt.=2125.299998m. Speed=0.000000m/h.]]></desc>
</trkpt>
<trkpt lat="36.694711" lon="137.786812">
<ele>2125.897549</ele>
<time>2014-08-16T23:38:27Z</time>
<desc><![CDATA[lat.=36.694711, lon.=137.786812, Alt.=2125.897549m. Speed=0.000000m/h.]]></desc>
</trkpt>
<trkpt lat="36.694710" lon="137.786828">
<ele>2125.952682</ele>
<time>2014-08-16T23:38:32Z</time>
<desc><![CDATA[lat.=36.694710, lon.=137.786828, Alt.=2125.952682m. Speed=0.000000m/h.]]></desc>
</trkpt>
<trkpt lat="36.694696" lon="137.786828">
<ele>2124.757580</ele>
<time>2014-08-16T23:38:37Z</time>
<desc><![CDATA[lat.=36.694696, lon.=137.786828, Alt.=2124.757580m. Speed=0.000000m/h.]]></desc>
</trkpt>
<trkpt lat="36.694703" lon="137.786828">
<ele>2125.355131</ele>
<time>2014-08-16T23:38:42Z</time>
<desc><![CDATA[lat.=36.694703, lon.=137.786828, Alt.=2125.355131m. Speed=0.000000m/h.]]></desc>
</trkpt>
<trkpt lat="36.694700" lon="137.786836">
<ele>2124.218837</ele>
<time>2014-08-16T23:38:52Z</time>
<desc><![CDATA[lat.=36.694700, lon.=137.786836, Alt.=2124.218837m. Speed=0.000000m/h.]]></desc>
</trkpt>
<trkpt lat="36.694704" lon="137.786829">
<ele>2123.624961</ele>
<time>2014-08-16T23:38:57Z</time>
<desc><![CDATA[lat.=36.694704, lon.=137.786829, Alt.=2123.624961m. Speed=0.000000m/h.]]></desc>
</trkpt>
<trkpt lat="36.694696" lon="137.786829">
<ele>2123.027410</ele>
<time>2014-08-16T23:39:07Z</time>
<desc><![CDATA[lat.=36.694696, lon.=137.786829, Alt.=2123.027410m. Speed=0.000000m/h.]]></desc>
</trkpt>
<trkpt lat="36.694689" lon="137.786829">
<ele>2122.429859</ele>
<time>2014-08-16T23:39:13Z</time>
<desc><![CDATA[lat.=36.694689, lon.=137.786829, Alt.=2122.429859m. Speed=1.000000m/h.]]></desc>
</trkpt>
<trkpt lat="36.694667" lon="137.786844">
<ele>2122.422510</ele>
<time>2014-08-16T23:39:18Z</time>
<desc><![CDATA[lat.=36.694667, lon.=137.786844, Alt.=2122.422510m. Speed=2.000000m/h.]]></desc>
</trkpt>
<trkpt lat="36.694670" lon="137.786835">
<ele>2123.558804</ele>
<time>2014-08-16T23:39:23Z</time>
<desc><![CDATA[lat.=36.694670, lon.=137.786835, Alt.=2123.558804m. Speed=0.000000m/h.]]></desc>
</trkpt>
<trkpt lat="36.694678" lon="137.786836">
<ele>2122.426184</ele>
<time>2014-08-16T23:39:28Z</time>
<desc><![CDATA[lat.=36.694678, lon.=137.786836, Alt.=2122.426184m. Speed=0.000000m/h.]]></desc>
</trkpt>
<trkpt lat="36.694653" lon="137.786796">
<ele>2122.792180</ele>
<time>2014-08-16T23:39:33Z</time>
<desc><![CDATA[lat.=36.694653, lon.=137.786796, Alt.=2122.792180m. Speed=2.000000m/h.]]></desc>
</trkpt>
<trkpt lat="36.694632" lon="137.786747">
<ele>2124.294473</ele>
<time>2014-08-16T23:39:38Z</time>
<desc><![CDATA[lat.=36.694632, lon.=137.786747, Alt.=2124.294473m. Speed=3.000000m/h.]]></desc>
</trkpt>
<trkpt lat="36.694618" lon="137.786714">
<ele>2124.719281</ele>
<time>2014-08-16T23:39:43Z</time>
<desc><![CDATA[lat.=36.694618, lon.=137.786714, Alt.=2124.719281m. Speed=3.000000m/h.]]></desc>
</trkpt>
<trkpt lat="36.694581" lon="137.786665">
<ele>2126.756652</ele>
<time>2014-08-16T23:39:48Z</time>
<desc><![CDATA[lat.=36.694581, lon.=137.786665, Alt.=2126.756652m. Speed=3.000000m/h.]]></desc>
</trkpt>
<trkpt lat="36.694556" lon="137.786640">
<ele>2125.447620</ele>
<time>2014-08-16T23:39:53Z</time>
<desc><![CDATA[lat.=36.694556, lon.=137.786640, Alt.=2125.447620m. Speed=3.000000m/h.]]></desc>
</trkpt>
<trkpt lat="36.694531" lon="137.786616">
<ele>2125.868760</ele>
<time>2014-08-16T23:39:58Z</time>
<desc><![CDATA[lat.=36.694531, lon.=137.786616, Alt.=2125.868760m. Speed=2.000000m/h.]]></desc>
</trkpt>
<trkpt lat="36.694499" lon="137.786591">
<ele>2125.692355</ele>
<time>2014-08-16T23:40:03Z</time>
<desc><![CDATA[lat.=36.694499, lon.=137.786591, Alt.=2125.692355m. Speed=3.000000m/h.]]></desc>
</trkpt>
<trkpt lat="36.694481" lon="137.786567">
<ele>2124.980877</ele>
<time>2014-08-16T23:40:08Z</time>
<desc><![CDATA[lat.=36.694481, lon.=137.786567, Alt.=2124.980877m. Speed=3.000000m/h.]]></desc>
</trkpt>
<trkpt lat="36.694440" lon="137.786557">
<ele>2125.992227</ele>
<time>2014-08-16T23:40:13Z</time>
<desc><![CDATA[lat.=36.694440, lon.=137.786557, Alt.=2125.992227m. Speed=3.000000m/h.]]></desc>
</trkpt>
<trkpt lat="36.694434" lon="137.786525">
<ele>2125.284424</ele>
<time>2014-08-16T23:40:18Z</time>
<desc><![CDATA[lat.=36.694434, lon.=137.786525, Alt.=2125.284424m. Speed=2.000000m/h.]]></desc>
</trkpt>
<trkpt lat="36.694434" lon="137.786541">
<ele>2125.339552</ele>
<time>2014-08-16T23:40:23Z</time>
<desc><![CDATA[lat.=36.694434, lon.=137.786541, Alt.=2125.339552m. Speed=0.000000m/h.]]></desc>
</trkpt>
<trkpt lat="36.694415" lon="137.786531">
<ele>2128.143547</ele>
<time>2014-08-16T23:40:28Z</time>
<desc><![CDATA[lat.=36.694415, lon.=137.786531, Alt.=2128.143547m. Speed=1.000000m/h.]]></desc>
</trkpt>
<trkpt lat="36.694400" lon="137.786530">
<ele>2128.678624</ele>
<time>2014-08-16T23:40:33Z</time>
<desc><![CDATA[lat.=36.694400, lon.=137.786530, Alt.=2128.678624m. Speed=2.000000m/h.]]></desc>
</trkpt>
<trkpt lat="36.694400" lon="137.786546">
<ele>2128.733751</ele>
<time>2014-08-16T23:40:38Z</time>
<desc><![CDATA[lat.=36.694400, lon.=137.786546, Alt.=2128.733751m. Speed=0.000000m/h.]]></desc>
</trkpt>
<trkpt lat="36.694396" lon="137.786538">
<ele>2129.272499</ele>
<time>2014-08-16T23:40:43Z</time>
<desc><![CDATA[lat.=36.694396, lon.=137.786538, Alt.=2129.272499m. Speed=0.000000m/h.]]></desc>
</trkpt>
<trkpt lat="36.694392" lon="137.786530">
<ele>2129.811247</ele>
<time>2014-08-16T23:40:48Z</time>
<desc><![CDATA[lat.=36.694392, lon.=137.786530, Alt.=2129.811247m. Speed=0.000000m/h.]]></desc>
</trkpt>
<trkpt lat="36.694375" lon="137.786490">
<ele>2129.044648</ele>
<time>2014-08-16T23:40:53Z</time>
<desc><![CDATA[lat.=36.694375, lon.=137.786490, Alt.=2129.044648m. Speed=2.000000m/h.]]></desc>
</trkpt>
<trkpt lat="36.694328" lon="137.786449">
<ele>2127.618038</ele>
<time>2014-08-16T23:40:58Z</time>
<desc><![CDATA[lat.=36.694328, lon.=137.786449, Alt.=2127.618038m. Speed=3.000000m/h.]]></desc>
</trkpt>
<trkpt lat="36.694289" lon="137.786409">
<ele>2125.058809</ele>
<time>2014-08-16T23:41:03Z</time>
<desc><![CDATA[lat.=36.694289, lon.=137.786409, Alt.=2125.058809m. Speed=3.000000m/h.]]></desc>
</trkpt>
<trkpt lat="36.694261" lon="137.786393">
<ele>2124.343675</ele>
<time>2014-08-16T23:41:08Z</time>
<desc><![CDATA[lat.=36.694261, lon.=137.786393, Alt.=2124.343675m. Speed=4.000000m/h.]]></desc>
</trkpt>
<trkpt lat="36.694256" lon="137.786399">
<ele>2126.667721</ele>
<time>2014-08-16T23:41:13Z</time>
<desc><![CDATA[lat.=36.694256, lon.=137.786399, Alt.=2126.667721m. Speed=0.000000m/h.]]></desc>
</trkpt>
<trkpt lat="36.694271" lon="137.786384">
<ele>2127.807686</ele>
<time>2014-08-16T23:41:18Z</time>
<desc><![CDATA[lat.=36.694271, lon.=137.786384, Alt.=2127.807686m. Speed=2.000000m/h.]]></desc>
</trkpt>
<trkpt lat="36.694279" lon="137.786384">
<ele>2126.675060</ele>
<time>2014-08-16T23:41:24Z</time>
<desc><![CDATA[lat.=36.694279, lon.=137.786384, Alt.=2126.675060m. Speed=0.000000m/h.]]></desc>
</trkpt>
<trkpt lat="36.694289" lon="137.786376">
<ele>2128.408901</ele>
<time>2014-08-16T23:41:29Z</time>
<desc><![CDATA[lat.=36.694289, lon.=137.786376, Alt.=2128.408901m. Speed=0.000000m/h.]]></desc>
</trkpt>
<trkpt lat="36.694286" lon="137.786384">
<ele>2127.272605</ele>
<time>2014-08-16T23:41:34Z</time>
<desc><![CDATA[lat.=36.694286, lon.=137.786384, Alt.=2127.272605m. Speed=0.000000m/h.]]></desc>
</trkpt>
<trkpt lat="36.694283" lon="137.786377">
<ele>2126.081185</ele>
<time>2014-08-16T23:41:39Z</time>
<desc><![CDATA[lat.=36.694283, lon.=137.786377, Alt.=2126.081185m. Speed=0.000000m/h.]]></desc>
</trkpt>
<trkpt lat="36.694290" lon="137.786377">
<ele>2126.678730</ele>
<time>2014-08-16T23:41:44Z</time>
<desc><![CDATA[lat.=36.694290, lon.=137.786377, Alt.=2126.678730m. Speed=0.000000m/h.]]></desc>
</trkpt>
<trkpt lat="36.694297" lon="137.786377">
<ele>2127.276275</ele>
<time>2014-08-16T23:41:49Z</time>
<desc><![CDATA[lat.=36.694297, lon.=137.786377, Alt.=2127.276275m. Speed=0.000000m/h.]]></desc>
</trkpt>
<trkpt lat="36.694272" lon="137.786336">
<ele>2127.642313</ele>
<time>2014-08-16T23:41:54Z</time>
<desc><![CDATA[lat.=36.694272, lon.=137.786336, Alt.=2127.642313m. Speed=3.000000m/h.]]></desc>
</trkpt>
<trkpt lat="36.694241" lon="137.786264">
<ele>2127.300563</ele>
<time>2014-08-16T23:41:59Z</time>
<desc><![CDATA[lat.=36.694241, lon.=137.786264, Alt.=2127.300563m. Speed=4.000000m/h.]]></desc>
</trkpt>
<trkpt lat="36.694217" lon="137.786208">
<ele>2125.881316</ele>
<time>2014-08-16T23:42:04Z</time>
<desc><![CDATA[lat.=36.694217, lon.=137.786208, Alt.=2125.881316m. Speed=4.000000m/h.]]></desc>
</trkpt>
<trkpt lat="36.694199" lon="137.786168">
<ele>2126.844910</ele>
<time>2014-08-16T23:42:09Z</time>
<desc><![CDATA[lat.=36.694199, lon.=137.786168, Alt.=2126.844910m. Speed=4.000000m/h.]]></desc>
</trkpt>
<trkpt lat="36.694163" lon="137.786119">
<ele>2127.152173</ele>
<time>2014-08-16T23:42:14Z</time>
<desc><![CDATA[lat.=36.694163, lon.=137.786119, Alt.=2127.152173m. Speed=4.000000m/h.]]></desc>
</trkpt>
<trkpt lat="36.694143" lon="137.786055">
<ele>2125.139067</ele>
<time>2014-08-16T23:42:19Z</time>
<desc><![CDATA[lat.=36.694143, lon.=137.786055, Alt.=2125.139067m. Speed=4.000000m/h.]]></desc>
</trkpt>
<trkpt lat="36.694147" lon="137.786016">
<ele>2126.165129</ele>
<time>2014-08-16T23:42:24Z</time>
<desc><![CDATA[lat.=36.694147, lon.=137.786016, Alt.=2126.165129m. Speed=3.000000m/h.]]></desc>
</trkpt>
<trkpt lat="36.694148" lon="137.786016">
<ele>2124.434958</ele>
<time>2014-08-16T23:42:29Z</time>
<desc><![CDATA[lat.=36.694148, lon.=137.786016, Alt.=2124.434958m. Speed=0.000000m/h.]]></desc>
</trkpt>
<trkpt lat="36.694119" lon="137.785967">
<ele>2125.339777</ele>
<time>2014-08-16T23:42:34Z</time>
<desc><![CDATA[lat.=36.694119, lon.=137.785967, Alt.=2125.339777m. Speed=3.000000m/h.]]></desc>
</trkpt>
<trkpt lat="36.694088" lon="137.785912">
<ele>2123.323014</ele>
<time>2014-08-16T23:42:39Z</time>
<desc><![CDATA[lat.=36.694088, lon.=137.785912, Alt.=2123.323014m. Speed=4.000000m/h.]]></desc>
</trkpt>
<trkpt lat="36.694063" lon="137.785855">
<ele>2123.633971</ele>
<time>2014-08-16T23:42:44Z</time>
<desc><![CDATA[lat.=36.694063, lon.=137.785855, Alt.=2123.633971m. Speed=3.000000m/h.]]></desc>
</trkpt>
<trkpt lat="36.694066" lon="137.785829">
<ele>2129.905670</ele>
<time>2014-08-16T23:42:49Z</time>
<desc><![CDATA[lat.=36.694066, lon.=137.785829, Alt.=2129.905670m. Speed=3.000000m/h.]]></desc>
</trkpt>
<trkpt lat="36.694055" lon="137.785787">
<ele>2133.197002</ele>
<time>2014-08-16T23:42:54Z</time>
<desc><![CDATA[lat.=36.694055, lon.=137.785787, Alt.=2133.197002m. Speed=3.000000m/h.]]></desc>
</trkpt>
<trkpt lat="36.694056" lon="137.785757">
<ele>2131.356605</ele>
<time>2014-08-16T23:42:59Z</time>
<desc><![CDATA[lat.=36.694056, lon.=137.785757, Alt.=2131.356605m. Speed=3.000000m/h.]]></desc>
</trkpt>
<trkpt lat="36.694039" lon="137.785733">
<ele>2128.914996</ele>
<time>2014-08-16T23:43:04Z</time>
<desc><![CDATA[lat.=36.694039, lon.=137.785733, Alt.=2128.914996m. Speed=3.000000m/h.]]></desc>
</trkpt>
<trkpt lat="36.694018" lon="137.785685">
<ele>2128.687208</ele>
<time>2014-08-16T23:43:09Z</time>
<desc><![CDATA[lat.=36.694018, lon.=137.785685, Alt.=2128.687208m. Speed=3.000000m/h.]]></desc>
</trkpt>
<trkpt lat="36.694019" lon="137.785637">
<ele>2130.252047</ele>
<time>2014-08-16T23:43:14Z</time>
<desc><![CDATA[lat.=36.694019, lon.=137.785637, Alt.=2130.252047m. Speed=3.000000m/h.]]></desc>
</trkpt>
<trkpt lat="36.694013" lon="137.785590">
<ele>2129.489176</ele>
<time>2014-08-16T23:43:19Z</time>
<desc><![CDATA[lat.=36.694013, lon.=137.785590, Alt.=2129.489176m. Speed=3.000000m/h.]]></desc>
</trkpt>
<trkpt lat="36.693992" lon="137.785541">
<ele>2129.261398</ele>
<time>2014-08-16T23:43:24Z</time>
<desc><![CDATA[lat.=36.693992, lon.=137.785541, Alt.=2129.261398m. Speed=3.000000m/h.]]></desc>
</trkpt>
<trkpt lat="36.693981" lon="137.785517">
<ele>2129.147510</ele>
<time>2014-08-16T23:43:29Z</time>
<desc><![CDATA[lat.=36.693981, lon.=137.785517, Alt.=2129.147510m. Speed=3.000000m/h.]]></desc>
</trkpt>
<trkpt lat="36.693971" lon="137.785510">
<ele>2127.358559</ele>
<time>2014-08-16T23:43:34Z</time>
<desc><![CDATA[lat.=36.693971, lon.=137.785510, Alt.=2127.358559m. Speed=0.000000m/h.]]></desc>
</trkpt>
<trkpt lat="36.693964" lon="137.785477">
<ele>2128.380975</ele>
<time>2014-08-16T23:43:39Z</time>
<desc><![CDATA[lat.=36.693964, lon.=137.785477, Alt.=2128.380975m. Speed=2.000000m/h.]]></desc>
</trkpt>
<trkpt lat="36.693928" lon="137.785428">
<ele>2128.688297</ele>
<time>2014-08-16T23:43:44Z</time>
<desc><![CDATA[lat.=36.693928, lon.=137.785428, Alt.=2128.688297m. Speed=3.000000m/h.]]></desc>
</trkpt>
<trkpt lat="36.693903" lon="137.785372">
<ele>2128.999295</ele>
<time>2014-08-16T23:43:49Z</time>
<desc><![CDATA[lat.=36.693903, lon.=137.785372, Alt.=2128.999295m. Speed=3.000000m/h.]]></desc>
</trkpt>
<trkpt lat="36.693893" lon="137.785331">
<ele>2130.560482</ele>
<time>2014-08-16T23:43:54Z</time>
<desc><![CDATA[lat.=36.693893, lon.=137.785331, Alt.=2130.560482m. Speed=3.000000m/h.]]></desc>
</trkpt>
<trkpt lat="36.693890" lon="137.785276">
<ele>2130.933935</ele>
<time>2014-08-16T23:43:59Z</time>
<desc><![CDATA[lat.=36.693890, lon.=137.785276, Alt.=2130.933935m. Speed=3.000000m/h.]]></desc>
</trkpt>
<trkpt lat="36.693888" lon="137.785221">
<ele>2129.577220</ele>
<time>2014-08-16T23:44:04Z</time>
<desc><![CDATA[lat.=36.693888, lon.=137.785221, Alt.=2129.577220m. Speed=3.000000m/h.]]></desc>
</trkpt>
<trkpt lat="36.693860" lon="137.785173">
<ele>2128.751929</ele>
<time>2014-08-16T23:44:09Z</time>
<desc><![CDATA[lat.=36.693860, lon.=137.785173, Alt.=2128.751929m. Speed=3.000000m/h.]]></desc>
</trkpt>
<trkpt lat="36.693814" lon="137.785132">
<ele>2127.325433</ele>
<time>2014-08-16T23:44:14Z</time>
<desc><![CDATA[lat.=36.693814, lon.=137.785132, Alt.=2127.325433m. Speed=4.000000m/h.]]></desc>
</trkpt>
<trkpt lat="36.693782" lon="137.785092">
<ele>2125.363847</ele>
<time>2014-08-16T23:44:19Z</time>
<desc><![CDATA[lat.=36.693782, lon.=137.785092, Alt.=2125.363847m. Speed=4.000000m/h.]]></desc>
</trkpt>
<trkpt lat="36.693769" lon="137.785097">
<ele>2130.550693</ele>
<time>2014-08-16T23:44:24Z</time>
<desc><![CDATA[lat.=36.693769, lon.=137.785097, Alt.=2130.550693m. Speed=3.000000m/h.]]></desc>
</trkpt>
<trkpt lat="36.693780" lon="137.785121">
<ele>2132.394736</ele>
<time>2014-08-16T23:44:29Z</time>
<desc><![CDATA[lat.=36.693780, lon.=137.785121, Alt.=2132.394736m. Speed=0.000000m/h.]]></desc>
</trkpt>
<trkpt lat="36.693765" lon="137.785120">
<ele>2132.929832</ele>
<time>2014-08-16T23:44:34Z</time>
<desc><![CDATA[lat.=36.693765, lon.=137.785120, Alt.=2132.929832m. Speed=0.000000m/h.]]></desc>
</trkpt>
<trkpt lat="36.693768" lon="137.785112">
<ele>2134.066137</ele>
<time>2014-08-16T23:44:39Z</time>
<desc><![CDATA[lat.=36.693768, lon.=137.785112, Alt.=2134.066137m. Speed=0.000000m/h.]]></desc>
</trkpt>
<trkpt lat="36.693779" lon="137.785119">
<ele>2135.855081</ele>
<time>2014-08-16T23:44:44Z</time>
<desc><![CDATA[lat.=36.693779, lon.=137.785119, Alt.=2135.855081m. Speed=0.000000m/h.]]></desc>
</trkpt>
<trkpt lat="36.693783" lon="137.785112">
<ele>2135.261214</ele>
<time>2014-08-16T23:44:50Z</time>
<desc><![CDATA[lat.=36.693783, lon.=137.785112, Alt.=2135.261214m. Speed=1.000000m/h.]]></desc>
</trkpt>
<trkpt lat="36.693802" lon="137.785057">
<ele>2135.697125</ele>
<time>2014-08-16T23:44:55Z</time>
<desc><![CDATA[lat.=36.693802, lon.=137.785057, Alt.=2135.697125m. Speed=3.000000m/h.]]></desc>
</trkpt>
<trkpt lat="36.693826" lon="137.785027">
<ele>2133.919198</ele>
<time>2014-08-16T23:45:00Z</time>
<desc><![CDATA[lat.=36.693826, lon.=137.785027, Alt.=2133.919198m. Speed=3.000000m/h.]]></desc>
</trkpt>
<trkpt lat="36.693826" lon="137.785010">
<ele>2135.594273</ele>
<time>2014-08-16T23:45:05Z</time>
<desc><![CDATA[lat.=36.693826, lon.=137.785010, Alt.=2135.594273m. Speed=2.000000m/h.]]></desc>
</trkpt>
<trkpt lat="36.693797" lon="137.784977">
<ele>2136.554268</ele>
<time>2014-08-16T23:45:10Z</time>
<desc><![CDATA[lat.=36.693797, lon.=137.784977, Alt.=2136.554268m. Speed=3.000000m/h.]]></desc>
</trkpt>
<trkpt lat="36.693758" lon="137.784920">
<ele>2135.670229</ele>
<time>2014-08-16T23:45:15Z</time>
<desc><![CDATA[lat.=36.693758, lon.=137.784920, Alt.=2135.670229m. Speed=4.000000m/h.]]></desc>
</trkpt>
<trkpt lat="36.693726" lon="137.784865">
<ele>2133.653561</ele>
<time>2014-08-16T23:45:20Z</time>
<desc><![CDATA[lat.=36.693726, lon.=137.784865, Alt.=2133.653561m. Speed=4.000000m/h.]]></desc>
</trkpt>
<trkpt lat="36.693710" lon="137.784793">
<ele>2132.776879</ele>
<time>2014-08-16T23:45:25Z</time>
<desc><![CDATA[lat.=36.693710, lon.=137.784793, Alt.=2132.776879m. Speed=4.000000m/h.]]></desc>
</trkpt>
<trkpt lat="36.693700" lon="137.784738">
<ele>2130.822661</ele>
<time>2014-08-16T23:45:30Z</time>
<desc><![CDATA[lat.=36.693700, lon.=137.784738, Alt.=2130.822661m. Speed=4.000000m/h.]]></desc>
</trkpt>
<trkpt lat="36.693715" lon="137.784722">
<ele>2133.692815</ele>
<time>2014-08-16T23:45:35Z</time>
<desc><![CDATA[lat.=36.693715, lon.=137.784722, Alt.=2133.692815m. Speed=3.000000m/h.]]></desc>
</trkpt>
<trkpt lat="36.693719" lon="137.784714">
<ele>2133.098951</ele>
<time>2014-08-16T23:45:40Z</time>
<desc><![CDATA[lat.=36.693719, lon.=137.784714, Alt.=2133.098951m. Speed=0.000000m/h.]]></desc>
</trkpt>
<trkpt lat="36.693726" lon="137.784715">
<ele>2131.966316</ele>
<time>2014-08-16T23:45:45Z</time>
<desc><![CDATA[lat.=36.693726, lon.=137.784715, Alt.=2131.966316m. Speed=0.000000m/h.]]></desc>
</trkpt>
<trkpt lat="36.693730" lon="137.784723">
<ele>2131.427544</ele>
<time>2014-08-16T23:45:50Z</time>
<desc><![CDATA[lat.=36.693730, lon.=137.784723, Alt.=2131.427544m. Speed=0.000000m/h.]]></desc>
</trkpt>
<trkpt lat="36.693733" lon="137.784747">
<ele>2130.943865</ele>
<time>2014-08-16T23:45:55Z</time>
<desc><![CDATA[lat.=36.693733, lon.=137.784747, Alt.=2130.943865m. Speed=0.000000m/h.]]></desc>
</trkpt>
<trkpt lat="36.693722" lon="137.784739">
<ele>2130.885099</ele>
<time>2014-08-16T23:46:02Z</time>
<desc><![CDATA[lat.=36.693722, lon.=137.784739, Alt.=2130.885099m. Speed=1.000000m/h.]]></desc>
</trkpt>
<trkpt lat="36.693690" lon="137.784682">
<ele>2132.328792</ele>
<time>2014-08-16T23:46:07Z</time>
<desc><![CDATA[lat.=36.693690, lon.=137.784682, Alt.=2132.328792m. Speed=3.000000m/h.]]></desc>
</trkpt>
<trkpt lat="36.693665" lon="137.784641">
<ele>2132.694945</ele>
<time>2014-08-16T23:46:12Z</time>
<desc><![CDATA[lat.=36.693665, lon.=137.784641, Alt.=2132.694945m. Speed=3.000000m/h.]]></desc>
</trkpt>
<trkpt lat="36.693629" lon="137.784576">
<ele>2134.677422</ele>
<time>2014-08-16T23:46:17Z</time>
<desc><![CDATA[lat.=36.693629, lon.=137.784576, Alt.=2134.677422m. Speed=4.000000m/h.]]></desc>
</trkpt>
<trkpt lat="36.693612" lon="137.784519">
<ele>2135.586030</ele>
<time>2014-08-16T23:46:22Z</time>
<desc><![CDATA[lat.=36.693612, lon.=137.784519, Alt.=2135.586030m. Speed=4.000000m/h.]]></desc>
</trkpt>
<trkpt lat="36.693584" lon="137.784470">
<ele>2136.490970</ele>
<time>2014-08-16T23:46:27Z</time>
<desc><![CDATA[lat.=36.693584, lon.=137.784470, Alt.=2136.490970m. Speed=4.000000m/h.]]></desc>
</trkpt>
<trkpt lat="36.693565" lon="137.784445">
<ele>2137.509761</ele>
<time>2014-08-16T23:46:32Z</time>
<desc><![CDATA[lat.=36.693565, lon.=137.784445, Alt.=2137.509761m. Speed=4.000000m/h.]]></desc>
</trkpt>
<trkpt lat="36.693530" lon="137.784396">
<ele>2137.817174</ele>
<time>2014-08-16T23:46:37Z</time>
<desc><![CDATA[lat.=36.693530, lon.=137.784396, Alt.=2137.817174m. Speed=4.000000m/h.]]></desc>
</trkpt>
<trkpt lat="36.693502" lon="137.784381">
<ele>2133.641777</ele>
<time>2014-08-16T23:46:42Z</time>
<desc><![CDATA[lat.=36.693502, lon.=137.784381, Alt.=2133.641777m. Speed=3.000000m/h.]]></desc>
</trkpt>
<trkpt lat="36.693477" lon="137.784357">
<ele>2132.332866</ele>
<time>2014-08-16T23:46:47Z</time>
<desc><![CDATA[lat.=36.693477, lon.=137.784357, Alt.=2132.332866m. Speed=3.000000m/h.]]></desc>
</trkpt>
<trkpt lat="36.693433" lon="137.784324">
<ele>2132.097841</ele>
<time>2014-08-16T23:46:52Z</time>
<desc><![CDATA[lat.=36.693433, lon.=137.784324, Alt.=2132.097841m. Speed=4.000000m/h.]]></desc>
</trkpt>
<trkpt lat="36.693405" lon="137.784293">
<ele>2129.597540</ele>
<time>2014-08-16T23:46:57Z</time>
<desc><![CDATA[lat.=36.693405, lon.=137.784293, Alt.=2129.597540m. Speed=4.000000m/h.]]></desc>
</trkpt>
<trkpt lat="36.693381" lon="137.784236">
<ele>2129.908643</ele>
<time>2014-08-16T23:47:02Z</time>
<desc><![CDATA[lat.=36.693381, lon.=137.784236, Alt.=2129.908643m. Speed=4.000000m/h.]]></desc>
</trkpt>
<trkpt lat="36.693396" lon="137.784189">
<ele>2130.938461</ele>
<time>2014-08-16T23:47:07Z</time>
<desc><![CDATA[lat.=36.693396, lon.=137.784189, Alt.=2130.938461m. Speed=3.000000m/h.]]></desc>
</trkpt>
<trkpt lat="36.693416" lon="137.784135">
<ele>2129.644248</ele>
<time>2014-08-16T23:47:12Z</time>
<desc><![CDATA[lat.=36.693416, lon.=137.784135, Alt.=2129.644248m. Speed=4.000000m/h.]]></desc>
</trkpt>
<trkpt lat="36.693440" lon="137.784089">
<ele>2127.811258</ele>
<time>2014-08-16T23:47:17Z</time>
<desc><![CDATA[lat.=36.693440, lon.=137.784089, Alt.=2127.811258m. Speed=3.000000m/h.]]></desc>
</trkpt>
<trkpt lat="36.693434" lon="137.784058">
<ele>2125.373392</ele>
<time>2014-08-16T23:47:22Z</time>
<desc><![CDATA[lat.=36.693434, lon.=137.784058, Alt.=2125.373392m. Speed=3.000000m/h.]]></desc>
</trkpt>
<trkpt lat="36.693427" lon="137.784042">
<ele>2124.720779</ele>
<time>2014-08-16T23:47:27Z</time>
<desc><![CDATA[lat.=36.693427, lon.=137.784042, Alt.=2124.720779m. Speed=2.000000m/h.]]></desc>
</trkpt>
<trkpt lat="36.693413" lon="137.784026">
<ele>2123.470634</ele>
<time>2014-08-16T23:47:32Z</time>
<desc><![CDATA[lat.=36.693413, lon.=137.784026, Alt.=2123.470634m. Speed=2.000000m/h.]]></desc>
</trkpt>
<trkpt lat="36.693402" lon="137.784003">
<ele>2121.626630</ele>
<time>2014-08-16T23:47:37Z</time>
<desc><![CDATA[lat.=36.693402, lon.=137.784003, Alt.=2121.626630m. Speed=2.000000m/h.]]></desc>
</trkpt>
<trkpt lat="36.693388" lon="137.784003">
<ele>2120.431565</ele>
<time>2014-08-16T23:47:42Z</time>
<desc><![CDATA[lat.=36.693388, lon.=137.784003, Alt.=2120.431565m. Speed=2.000000m/h.]]></desc>
</trkpt>
<trkpt lat="36.693370" lon="137.783978">
<ele>2121.450377</ele>
<time>2014-08-16T23:47:47Z</time>
<desc><![CDATA[lat.=36.693370, lon.=137.783978, Alt.=2121.450377m. Speed=2.000000m/h.]]></desc>
</trkpt>
<trkpt lat="36.693348" lon="137.783945">
<ele>2123.007973</ele>
<time>2014-08-16T23:47:52Z</time>
<desc><![CDATA[lat.=36.693348, lon.=137.783945, Alt.=2123.007973m. Speed=2.000000m/h.]]></desc>
</trkpt>
<trkpt lat="36.693335" lon="137.783898">
<ele>2119.917504</ele>
<time>2014-08-16T23:47:57Z</time>
<desc><![CDATA[lat.=36.693335, lon.=137.783898, Alt.=2119.917504m. Speed=3.000000m/h.]]></desc>
</trkpt>
<trkpt lat="36.693306" lon="137.783865">
<ele>2120.877573</ele>
<time>2014-08-16T23:48:02Z</time>
<desc><![CDATA[lat.=36.693306, lon.=137.783865, Alt.=2120.877573m. Speed=3.000000m/h.]]></desc>
</trkpt>
<trkpt lat="36.693303" lon="137.783857">
<ele>2121.416357</ele>
<time>2014-08-16T23:48:07Z</time>
<desc><![CDATA[lat.=36.693303, lon.=137.783857, Alt.=2121.416357m. Speed=2.000000m/h.]]></desc>
</trkpt>
<trkpt lat="36.693292" lon="137.783849">
<ele>2121.357609</ele>
<time>2014-08-16T23:48:12Z</time>
<desc><![CDATA[lat.=36.693292, lon.=137.783849, Alt.=2121.357609m. Speed=1.000000m/h.]]></desc>
</trkpt>
<trkpt lat="36.693288" lon="137.783840">
<ele>2121.896393</ele>
<time>2014-08-16T23:48:17Z</time>
<desc><![CDATA[lat.=36.693288, lon.=137.783840, Alt.=2121.896393m. Speed=0.000000m/h.]]></desc>
</trkpt>
<trkpt lat="36.693277" lon="137.783832">
<ele>2121.837645</ele>
<time>2014-08-16T23:48:22Z</time>
<desc><![CDATA[lat.=36.693277, lon.=137.783832, Alt.=2121.837645m. Speed=1.000000m/h.]]></desc>
</trkpt>
<trkpt lat="36.693263" lon="137.783816">
<ele>2122.317682</ele>
<time>2014-08-16T23:48:27Z</time>
<desc><![CDATA[lat.=36.693263, lon.=137.783816, Alt.=2122.317682m. Speed=2.000000m/h.]]></desc>
</trkpt>
<trkpt lat="36.693271" lon="137.783784">
<ele>2122.805064</ele>
<time>2014-08-16T23:48:32Z</time>
<desc><![CDATA[lat.=36.693271, lon.=137.783784, Alt.=2122.805064m. Speed=0.000000m/h.]]></desc>
</trkpt>
<trkpt lat="36.693270" lon="137.783782">
<ele>2126.265412</ele>
<time>2014-08-16T23:48:37Z</time>
<desc><![CDATA[lat.=36.693270, lon.=137.783782, Alt.=2126.265412m. Speed=0.000000m/h.]]></desc>
</trkpt>
<trkpt lat="36.693277" lon="137.783782">
<ele>2126.862943</ele>
<time>2014-08-16T23:48:42Z</time>
<desc><![CDATA[lat.=36.693277, lon.=137.783782, Alt.=2126.862943m. Speed=1.000000m/h.]]></desc>
</trkpt>
<trkpt lat="36.693264" lon="137.783751">
<ele>2125.557734</ele>
<time>2014-08-16T23:48:47Z</time>
<desc><![CDATA[lat.=36.693264, lon.=137.783751, Alt.=2125.557734m. Speed=2.000000m/h.]]></desc>
</trkpt>
<trkpt lat="36.693249" lon="137.783733">
<ele>2127.767947</ele>
<time>2014-08-16T23:48:52Z</time>
<desc><![CDATA[lat.=36.693249, lon.=137.783733, Alt.=2127.767947m. Speed=1.000000m/h.]]></desc>
</trkpt>
<trkpt lat="36.693232" lon="137.783710">
<ele>2125.326424</ele>
<time>2014-08-16T23:48:57Z</time>
<desc><![CDATA[lat.=36.693232, lon.=137.783710, Alt.=2125.326424m. Speed=2.000000m/h.]]></desc>
</trkpt>
<trkpt lat="36.693207" lon="137.783686">
<ele>2124.017547</ele>
<time>2014-08-16T23:49:02Z</time>
<desc><![CDATA[lat.=36.693207, lon.=137.783686, Alt.=2124.017547m. Speed=2.000000m/h.]]></desc>
</trkpt>
<trkpt lat="36.693232" lon="137.783662">
<ele>2126.891382</ele>
<time>2014-08-16T23:49:07Z</time>
<desc><![CDATA[lat.=36.693232, lon.=137.783662, Alt.=2126.891382m. Speed=2.000000m/h.]]></desc>
</trkpt>
<trkpt lat="36.693244" lon="137.783638">
<ele>2128.570157</ele>
<time>2014-08-16T23:49:12Z</time>
<desc><![CDATA[lat.=36.693244, lon.=137.783638, Alt.=2128.570157m. Speed=2.000000m/h.]]></desc>
</trkpt>
<trkpt lat="36.693204" lon="137.783613">
<ele>2127.796395</ele>
<time>2014-08-16T23:49:17Z</time>
<desc><![CDATA[lat.=36.693204, lon.=137.783613, Alt.=2127.796395m. Speed=2.000000m/h.]]></desc>
</trkpt>
<trkpt lat="36.693190" lon="137.783581">
<ele>2128.221369</ele>
<time>2014-08-16T23:49:22Z</time>
<desc><![CDATA[lat.=36.693190, lon.=137.783581, Alt.=2128.221369m. Speed=2.000000m/h.]]></desc>
</trkpt>
<trkpt lat="36.693208" lon="137.783541">
<ele>2130.442606</ele>
<time>2014-08-16T23:49:27Z</time>
<desc><![CDATA[lat.=36.693208, lon.=137.783541, Alt.=2130.442606m. Speed=2.000000m/h.]]></desc>
</trkpt>
<trkpt lat="36.693183" lon="137.783499">
<ele>2132.539015</ele>
<time>2014-08-16T23:49:32Z</time>
<desc><![CDATA[lat.=36.693183, lon.=137.783499, Alt.=2132.539015m. Speed=3.000000m/h.]]></desc>
</trkpt>
<trkpt lat="36.693173" lon="137.783459">
<ele>2132.370137</ele>
<time>2014-08-16T23:49:37Z</time>
<desc><![CDATA[lat.=36.693173, lon.=137.783459, Alt.=2132.370137m. Speed=3.000000m/h.]]></desc>
</trkpt>
<trkpt lat="36.693147" lon="137.783450">
<ele>2132.846512</ele>
<time>2014-08-16T23:49:42Z</time>
<desc><![CDATA[lat.=36.693147, lon.=137.783450, Alt.=2132.846512m. Speed=2.000000m/h.]]></desc>
</trkpt>
<trkpt lat="36.693133" lon="137.783434">
<ele>2133.326560</ele>
<time>2014-08-16T23:49:47Z</time>
<desc><![CDATA[lat.=36.693133, lon.=137.783434, Alt.=2133.326560m. Speed=2.000000m/h.]]></desc>
</trkpt>
<trkpt lat="36.693112" lon="137.783401">
<ele>2133.154014</ele>
<time>2014-08-16T23:49:52Z</time>
<desc><![CDATA[lat.=36.693112, lon.=137.783401, Alt.=2133.154014m. Speed=3.000000m/h.]]></desc>
</trkpt>
<trkpt lat="36.693094" lon="137.783361">
<ele>2134.117789</ele>
<time>2014-08-16T23:49:57Z</time>
<desc><![CDATA[lat.=36.693094, lon.=137.783361, Alt.=2134.117789m. Speed=3.000000m/h.]]></desc>
</trkpt>
<trkpt lat="36.693072" lon="137.783343">
<ele>2135.730487</ele>
<time>2014-08-16T23:50:02Z</time>
<desc><![CDATA[lat.=36.693072, lon.=137.783343, Alt.=2135.730487m. Speed=3.000000m/h.]]></desc>
</trkpt>
<trkpt lat="36.693051" lon="137.783312">
<ele>2133.827772</ele>
<time>2014-08-16T23:50:07Z</time>
<desc><![CDATA[lat.=36.693051, lon.=137.783312, Alt.=2133.827772m. Speed=2.000000m/h.]]></desc>
</trkpt>
<trkpt lat="36.693041" lon="137.783289">
<ele>2131.983796</ele>
<time>2014-08-16T23:50:12Z</time>
<desc><![CDATA[lat.=36.693041, lon.=137.783289, Alt.=2131.983796m. Speed=2.000000m/h.]]></desc>
</trkpt>
<trkpt lat="36.693063" lon="137.783272">
<ele>2135.451490</ele>
<time>2014-08-16T23:50:17Z</time>
<desc><![CDATA[lat.=36.693063, lon.=137.783272, Alt.=2135.451490m. Speed=2.000000m/h.]]></desc>
</trkpt>
<trkpt lat="36.693038" lon="137.783232">
<ele>2134.087570</ele>
<time>2014-08-16T23:50:22Z</time>
<desc><![CDATA[lat.=36.693038, lon.=137.783232, Alt.=2134.087570m. Speed=3.000000m/h.]]></desc>
</trkpt>
<trkpt lat="36.693009" lon="137.783199">
<ele>2135.047684</ele>
<time>2014-08-16T23:50:27Z</time>
<desc><![CDATA[lat.=36.693009, lon.=137.783199, Alt.=2135.047684m. Speed=3.000000m/h.]]></desc>
</trkpt>
<trkpt lat="36.692983" lon="137.783206">
<ele>2135.579132</ele>
<time>2014-08-16T23:50:32Z</time>
<desc><![CDATA[lat.=36.692983, lon.=137.783206, Alt.=2135.579132m. Speed=3.000000m/h.]]></desc>
</trkpt>
<trkpt lat="36.692953" lon="137.783204">
<ele>2136.649375</ele>
<time>2014-08-16T23:50:37Z</time>
<desc><![CDATA[lat.=36.692953, lon.=137.783204, Alt.=2136.649375m. Speed=3.000000m/h.]]></desc>
</trkpt>
<trkpt lat="36.692928" lon="137.783179">
<ele>2138.800876</ele>
<time>2014-08-16T23:50:42Z</time>
<desc><![CDATA[lat.=36.692928, lon.=137.783179, Alt.=2138.800876m. Speed=3.000000m/h.]]></desc>
</trkpt>
<trkpt lat="36.692900" lon="137.783147">
<ele>2136.300648</ele>
<time>2014-08-16T23:50:47Z</time>
<desc><![CDATA[lat.=36.692900, lon.=137.783147, Alt.=2136.300648m. Speed=3.000000m/h.]]></desc>
</trkpt>
<trkpt lat="36.692868" lon="137.783107">
<ele>2134.339216</ele>
<time>2014-08-16T23:50:52Z</time>
<desc><![CDATA[lat.=36.692868, lon.=137.783107, Alt.=2134.339216m. Speed=3.000000m/h.]]></desc>
</trkpt>
<trkpt lat="36.692864" lon="137.783082">
<ele>2136.553125</ele>
<time>2014-08-16T23:50:57Z</time>
<desc><![CDATA[lat.=36.692864, lon.=137.783082, Alt.=2136.553125m. Speed=3.000000m/h.]]></desc>
</trkpt>
<trkpt lat="36.692868" lon="137.783042">
<ele>2139.309500</ele>
<time>2014-08-16T23:51:02Z</time>
<desc><![CDATA[lat.=36.692868, lon.=137.783042, Alt.=2139.309500m. Speed=2.000000m/h.]]></desc>
</trkpt>
<trkpt lat="36.692884" lon="137.783011">
<ele>2138.664257</ele>
<time>2014-08-16T23:51:07Z</time>
<desc><![CDATA[lat.=36.692884, lon.=137.783011, Alt.=2138.664257m. Speed=2.000000m/h.]]></desc>
</trkpt>
<trkpt lat="36.692884" lon="137.782979">
<ele>2138.554139</ele>
<time>2014-08-16T23:51:12Z</time>
<desc><![CDATA[lat.=36.692884, lon.=137.782979, Alt.=2138.554139m. Speed=2.000000m/h.]]></desc>
</trkpt>
<trkpt lat="36.692877" lon="137.782979">
<ele>2137.956613</ele>
<time>2014-08-16T23:51:17Z</time>
<desc><![CDATA[lat.=36.692877, lon.=137.782979, Alt.=2137.956613m. Speed=1.000000m/h.]]></desc>
</trkpt>
<trkpt lat="36.692873" lon="137.782969">
<ele>2141.955759</ele>
<time>2014-08-16T23:51:22Z</time>
<desc><![CDATA[lat.=36.692873, lon.=137.782969, Alt.=2141.955759m. Speed=1.000000m/h.]]></desc>
</trkpt>
<trkpt lat="36.692873" lon="137.782970">
<ele>2140.225584</ele>
<time>2014-08-16T23:51:27Z</time>
<desc><![CDATA[lat.=36.692873, lon.=137.782970, Alt.=2140.225584m. Speed=0.000000m/h.]]></desc>
</trkpt>
<trkpt lat="36.692854" lon="137.782993">
<ele>2141.409622</ele>
<time>2014-08-16T23:51:32Z</time>
<desc><![CDATA[lat.=36.692854, lon.=137.782993, Alt.=2141.409622m. Speed=1.000000m/h.]]></desc>
</trkpt>
<trkpt lat="36.692836" lon="137.782984">
<ele>2142.483542</ele>
<time>2014-08-16T23:51:37Z</time>
<desc><![CDATA[lat.=36.692836, lon.=137.782984, Alt.=2142.483542m. Speed=2.000000m/h.]]></desc>
</trkpt>
<trkpt lat="36.692851" lon="137.782952">
<ele>2143.568476</ele>
<time>2014-08-16T23:51:42Z</time>
<desc><![CDATA[lat.=36.692851, lon.=137.782952, Alt.=2143.568476m. Speed=2.000000m/h.]]></desc>
</trkpt>
<trkpt lat="36.692866" lon="137.782920">
<ele>2144.653411</ele>
<time>2014-08-16T23:51:47Z</time>
<desc><![CDATA[lat.=36.692866, lon.=137.782920, Alt.=2144.653411m. Speed=2.000000m/h.]]></desc>
</trkpt>
<trkpt lat="36.692852" lon="137.782889">
<ele>2143.348246</ele>
<time>2014-08-16T23:51:52Z</time>
<desc><![CDATA[lat.=36.692852, lon.=137.782889, Alt.=2143.348246m. Speed=2.000000m/h.]]></desc>
</trkpt>
<trkpt lat="36.692838" lon="137.782872">
<ele>2143.828315</ele>
<time>2014-08-16T23:51:57Z</time>
<desc><![CDATA[lat.=36.692838, lon.=137.782872, Alt.=2143.828315m. Speed=2.000000m/h.]]></desc>
</trkpt>
<trkpt lat="36.692846" lon="137.782841">
<ele>2144.315727</ele>
<time>2014-08-16T23:52:02Z</time>
<desc><![CDATA[lat.=36.692846, lon.=137.782841, Alt.=2144.315727m. Speed=2.000000m/h.]]></desc>
</trkpt>
<trkpt lat="36.692846" lon="137.782808">
<ele>2145.935792</ele>
<time>2014-08-16T23:52:07Z</time>
<desc><![CDATA[lat.=36.692846, lon.=137.782808, Alt.=2145.935792m. Speed=3.000000m/h.]]></desc>
</trkpt>
<trkpt lat="36.692839" lon="137.782775">
<ele>2148.688508</ele>
<time>2014-08-16T23:52:12Z</time>
<desc><![CDATA[lat.=36.692839, lon.=137.782775, Alt.=2148.688508m. Speed=2.000000m/h.]]></desc>
</trkpt>
<trkpt lat="36.692817" lon="137.782759">
<ele>2148.571054</ele>
<time>2014-08-16T23:52:17Z</time>
<desc><![CDATA[lat.=36.692817, lon.=137.782759, Alt.=2148.571054m. Speed=2.000000m/h.]]></desc>
</trkpt>
<trkpt lat="36.692806" lon="137.782750">
<ele>2148.512328</ele>
<time>2014-08-16T23:52:22Z</time>
<desc><![CDATA[lat.=36.692806, lon.=137.782750, Alt.=2148.512328m. Speed=2.000000m/h.]]></desc>
</trkpt>
<trkpt lat="36.692781" lon="137.782725">
<ele>2148.933675</ele>
<time>2014-08-16T23:52:27Z</time>
<desc><![CDATA[lat.=36.692781, lon.=137.782725, Alt.=2148.933675m. Speed=2.000000m/h.]]></desc>
</trkpt>
<trkpt lat="36.692763" lon="137.782716">
<ele>2150.007602</ele>
<time>2014-08-16T23:52:32Z</time>
<desc><![CDATA[lat.=36.692763, lon.=137.782716, Alt.=2150.007602m. Speed=1.000000m/h.]]></desc>
</trkpt>
<trkpt lat="36.692741" lon="137.782700">
<ele>2149.890153</ele>
<time>2014-08-16T23:52:37Z</time>
<desc><![CDATA[lat.=36.692741, lon.=137.782700, Alt.=2149.890153m. Speed=2.000000m/h.]]></desc>
</trkpt>
<trkpt lat="36.692734" lon="137.782667">
<ele>2150.912699</ele>
<time>2014-08-16T23:52:42Z</time>
<desc><![CDATA[lat.=36.692734, lon.=137.782667, Alt.=2150.912699m. Speed=2.000000m/h.]]></desc>
</trkpt>
<trkpt lat="36.692748" lon="137.782634">
<ele>2155.457993</ele>
<time>2014-08-16T23:52:47Z</time>
<desc><![CDATA[lat.=36.692748, lon.=137.782634, Alt.=2155.457993m. Speed=2.000000m/h.]]></desc>
</trkpt>
<trkpt lat="36.692731" lon="137.782594">
<ele>2154.691643</ele>
<time>2014-08-16T23:52:52Z</time>
<desc><![CDATA[lat.=36.692731, lon.=137.782594, Alt.=2154.691643m. Speed=2.000000m/h.]]></desc>
</trkpt>
<trkpt lat="36.692710" lon="137.782563">
<ele>2152.788972</ele>
<time>2014-08-16T23:52:57Z</time>
<desc><![CDATA[lat.=36.692710, lon.=137.782563, Alt.=2152.788972m. Speed=2.000000m/h.]]></desc>
</trkpt>
<trkpt lat="36.692674" lon="137.782562">
<ele>2151.531533</ele>
<time>2014-08-16T23:53:02Z</time>
<desc><![CDATA[lat.=36.692674, lon.=137.782562, Alt.=2151.531533m. Speed=2.000000m/h.]]></desc>
</trkpt>
<trkpt lat="36.692645" lon="137.782545">
<ele>2150.816569</ele>
<time>2014-08-16T23:53:07Z</time>
<desc><![CDATA[lat.=36.692645, lon.=137.782545, Alt.=2150.816569m. Speed=2.000000m/h.]]></desc>
</trkpt>
<trkpt lat="36.692620" lon="137.782521">
<ele>2151.237931</ele>
<time>2014-08-16T23:53:12Z</time>
<desc><![CDATA[lat.=36.692620, lon.=137.782521, Alt.=2151.237931m. Speed=3.000000m/h.]]></desc>
</trkpt>
<trkpt lat="36.692639" lon="137.782498">
<ele>2150.053898</ele>
<time>2014-08-16T23:53:17Z</time>
<desc><![CDATA[lat.=36.692639, lon.=137.782498, Alt.=2150.053898m. Speed=2.000000m/h.]]></desc>
</trkpt>
<trkpt lat="36.692664" lon="137.782490">
<ele>2152.982789</ele>
<time>2014-08-16T23:53:22Z</time>
<desc><![CDATA[lat.=36.692664, lon.=137.782490, Alt.=2152.982789m. Speed=1.000000m/h.]]></desc>
</trkpt>
<trkpt lat="36.692668" lon="137.782466">
<ele>2152.333890</ele>
<time>2014-08-16T23:53:27Z</time>
<desc><![CDATA[lat.=36.692668, lon.=137.782466, Alt.=2152.333890m. Speed=2.000000m/h.]]></desc>
</trkpt>
<trkpt lat="36.692639" lon="137.782433">
<ele>2153.294055</ele>
<time>2014-08-16T23:53:32Z</time>
<desc><![CDATA[lat.=36.692639, lon.=137.782433, Alt.=2153.294055m. Speed=2.000000m/h.]]></desc>
</trkpt>
<trkpt lat="36.692623" lon="137.782395">
<ele>2149.067368</ele>
<time>2014-08-16T23:53:37Z</time>
<desc><![CDATA[lat.=36.692623, lon.=137.782395, Alt.=2149.067368m. Speed=3.000000m/h.]]></desc>
</trkpt>
<trkpt lat="36.692610" lon="137.782331">
<ele>2149.382314</ele>
<time>2014-08-16T23:53:42Z</time>
<desc><![CDATA[lat.=36.692610, lon.=137.782331, Alt.=2149.382314m. Speed=3.000000m/h.]]></desc>
</trkpt>
<trkpt lat="36.692595" lon="137.782297">
<ele>2153.267707</ele>
<time>2014-08-16T23:53:47Z</time>
<desc><![CDATA[lat.=36.692595, lon.=137.782297, Alt.=2153.267707m. Speed=3.000000m/h.]]></desc>
</trkpt>
<trkpt lat="36.692562" lon="137.782272">
<ele>2153.091558</ele>
<time>2014-08-16T23:53:52Z</time>
<desc><![CDATA[lat.=36.692562, lon.=137.782272, Alt.=2153.091558m. Speed=3.000000m/h.]]></desc>
</trkpt>
<trkpt lat="36.692533" lon="137.782239">
<ele>2154.051738</ele>
<time>2014-08-16T23:53:57Z</time>
<desc><![CDATA[lat.=36.692533, lon.=137.782239, Alt.=2154.051738m. Speed=3.000000m/h.]]></desc>
</trkpt>
<trkpt lat="36.692516" lon="137.782215">
<ele>2153.340458</ele>
<time>2014-08-16T23:54:02Z</time>
<desc><![CDATA[lat.=36.692516, lon.=137.782215, Alt.=2153.340458m. Speed=3.000000m/h.]]></desc>
</trkpt>
<trkpt lat="36.692490" lon="137.782206">
<ele>2153.816880</ele>
<time>2014-08-16T23:54:07Z</time>
<desc><![CDATA[lat.=36.692490, lon.=137.782206, Alt.=2153.816880m. Speed=2.000000m/h.]]></desc>
</trkpt>
<trkpt lat="36.692471" lon="137.782212">
<ele>2156.676042</ele>
<time>2014-08-16T23:54:12Z</time>
<desc><![CDATA[lat.=36.692471, lon.=137.782212, Alt.=2156.676042m. Speed=2.000000m/h.]]></desc>
</trkpt>
<trkpt lat="36.692437" lon="137.782186">
<ele>2159.960256</ele>
<time>2014-08-16T23:54:17Z</time>
<desc><![CDATA[lat.=36.692437, lon.=137.782186, Alt.=2159.960256m. Speed=3.000000m/h.]]></desc>
</trkpt>
<trkpt lat="36.692408" lon="137.782169">
<ele>2159.245313</ele>
<time>2014-08-16T23:54:22Z</time>
<desc><![CDATA[lat.=36.692408, lon.=137.782169, Alt.=2159.245313m. Speed=3.000000m/h.]]></desc>
</trkpt>
<trkpt lat="36.692373" lon="137.782137">
<ele>2157.877810</ele>
<time>2014-08-16T23:54:27Z</time>
<desc><![CDATA[lat.=36.692373, lon.=137.782137, Alt.=2157.877810m. Speed=3.000000m/h.]]></desc>
</trkpt>
<trkpt lat="36.692341" lon="137.782113">
<ele>2155.971504</ele>
<time>2014-08-16T23:54:32Z</time>
<desc><![CDATA[lat.=36.692341, lon.=137.782113, Alt.=2155.971504m. Speed=3.000000m/h.]]></desc>
</trkpt>
<trkpt lat="36.692308" lon="137.782088">
<ele>2155.795376</ele>
<time>2014-08-16T23:54:37Z</time>
<desc><![CDATA[lat.=36.692308, lon.=137.782088, Alt.=2155.795376m. Speed=3.000000m/h.]]></desc>
</trkpt>
<trkpt lat="36.692272" lon="137.782070">
<ele>2156.213101</ele>
<time>2014-08-16T23:54:42Z</time>
<desc><![CDATA[lat.=36.692272, lon.=137.782070, Alt.=2156.213101m. Speed=3.000000m/h.]]></desc>
</trkpt>
<trkpt lat="36.692230" lon="137.782092">
<ele>2157.334763</ele>
<time>2014-08-16T23:54:47Z</time>
<desc><![CDATA[lat.=36.692230, lon.=137.782092, Alt.=2157.334763m. Speed=3.000000m/h.]]></desc>
</trkpt>
<trkpt lat="36.692201" lon="137.782075">
<ele>2158.350009</ele>
<time>2014-08-16T23:54:52Z</time>
<desc><![CDATA[lat.=36.692201, lon.=137.782075, Alt.=2158.350009m. Speed=3.000000m/h.]]></desc>
</trkpt>
<trkpt lat="36.692175" lon="137.782048">
<ele>2162.231760</ele>
<time>2014-08-16T23:54:57Z</time>
<desc><![CDATA[lat.=36.692175, lon.=137.782048, Alt.=2162.231760m. Speed=3.000000m/h.]]></desc>
</trkpt>
<trkpt lat="36.692146" lon="137.782032">
<ele>2161.516835</ele>
<time>2014-08-16T23:55:02Z</time>
<desc><![CDATA[lat.=36.692146, lon.=137.782032, Alt.=2161.516835m. Speed=3.000000m/h.]]></desc>
</trkpt>
<trkpt lat="36.692114" lon="137.782007">
<ele>2161.340722</ele>
<time>2014-08-16T23:55:07Z</time>
<desc><![CDATA[lat.=36.692114, lon.=137.782007, Alt.=2161.340722m. Speed=3.000000m/h.]]></desc>
</trkpt>
<trkpt lat="36.692072" lon="137.782012">
<ele>2164.137530</ele>
<time>2014-08-16T23:55:12Z</time>
<desc><![CDATA[lat.=36.692072, lon.=137.782012, Alt.=2164.137530m. Speed=3.000000m/h.]]></desc>
</trkpt>
<trkpt lat="36.692040" lon="137.781987">
<ele>2163.961423</ele>
<time>2014-08-16T23:55:17Z</time>
<desc><![CDATA[lat.=36.692040, lon.=137.781987, Alt.=2163.961423m. Speed=3.000000m/h.]]></desc>
</trkpt>
<trkpt lat="36.692021" lon="137.781962">
<ele>2166.710521</ele>
<time>2014-08-16T23:55:22Z</time>
<desc><![CDATA[lat.=36.692021, lon.=137.781962, Alt.=2166.710521m. Speed=3.000000m/h.]]></desc>
</trkpt>
<trkpt lat="36.691978" lon="137.781945">
<ele>2164.800580</ele>
<time>2014-08-16T23:55:27Z</time>
<desc><![CDATA[lat.=36.691978, lon.=137.781945, Alt.=2164.800580m. Speed=3.000000m/h.]]></desc>
</trkpt>
<trkpt lat="36.691942" lon="137.781913">
<ele>2163.433117</ele>
<time>2014-08-16T23:55:32Z</time>
<desc><![CDATA[lat.=36.691942, lon.=137.781913, Alt.=2163.433117m. Speed=3.000000m/h.]]></desc>
</trkpt>
<trkpt lat="36.691910" lon="137.781888">
<ele>2163.257021</ele>
<time>2014-08-16T23:55:37Z</time>
<desc><![CDATA[lat.=36.691910, lon.=137.781888, Alt.=2163.257021m. Speed=3.000000m/h.]]></desc>
</trkpt>
<trkpt lat="36.691881" lon="137.781839">
<ele>2164.162216</ele>
<time>2014-08-16T23:55:42Z</time>
<desc><![CDATA[lat.=36.691881, lon.=137.781839, Alt.=2164.162216m. Speed=3.000000m/h.]]></desc>
</trkpt>
<trkpt lat="36.691856" lon="137.781815">
<ele>2162.853460</ele>
<time>2014-08-16T23:55:47Z</time>
<desc><![CDATA[lat.=36.691856, lon.=137.781815, Alt.=2162.853460m. Speed=3.000000m/h.]]></desc>
</trkpt>
<trkpt lat="36.691828" lon="137.781783">
<ele>2162.083521</ele>
<time>2014-08-16T23:55:52Z</time>
<desc><![CDATA[lat.=36.691828, lon.=137.781783, Alt.=2162.083521m. Speed=3.000000m/h.]]></desc>
</trkpt>
<trkpt lat="36.691806" lon="137.781749">
<ele>2163.641273</ele>
<time>2014-08-16T23:55:57Z</time>
<desc><![CDATA[lat.=36.691806, lon.=137.781749, Alt.=2163.641273m. Speed=3.000000m/h.]]></desc>
</trkpt>
<trkpt lat="36.691781" lon="137.781726">
<ele>2160.602346</ele>
<time>2014-08-16T23:56:02Z</time>
<desc><![CDATA[lat.=36.691781, lon.=137.781726, Alt.=2160.602346m. Speed=2.000000m/h.]]></desc>
</trkpt>
<trkpt lat="36.691761" lon="137.781694">
<ele>2158.699747</ele>
<time>2014-08-16T23:56:07Z</time>
<desc><![CDATA[lat.=36.691761, lon.=137.781694, Alt.=2158.699747m. Speed=3.000000m/h.]]></desc>
</trkpt>
<trkpt lat="36.691732" lon="137.781678">
<ele>2157.984852</ele>
<time>2014-08-16T23:56:12Z</time>
<desc><![CDATA[lat.=36.691732, lon.=137.781678, Alt.=2157.984852m. Speed=3.000000m/h.]]></desc>
</trkpt>
<trkpt lat="36.691706" lon="137.781652">
<ele>2160.136463</ele>
<time>2014-08-16T23:56:17Z</time>
<desc><![CDATA[lat.=36.691706, lon.=137.781652, Alt.=2160.136463m. Speed=3.000000m/h.]]></desc>
</trkpt>
<trkpt lat="36.691677" lon="137.781635">
<ele>2161.151749</ele>
<time>2014-08-16T23:56:22Z</time>
<desc><![CDATA[lat.=36.691677, lon.=137.781635, Alt.=2161.151749m. Speed=3.000000m/h.]]></desc>
</trkpt>
<trkpt lat="36.691652" lon="137.781627">
<ele>2158.167864</ele>
<time>2014-08-16T23:56:27Z</time>
<desc><![CDATA[lat.=36.691652, lon.=137.781627, Alt.=2158.167864m. Speed=2.000000m/h.]]></desc>
</trkpt>
<trkpt lat="36.691656" lon="137.781587">
<ele>2160.924304</ele>
<time>2014-08-16T23:56:32Z</time>
<desc><![CDATA[lat.=36.691656, lon.=137.781587, Alt.=2160.924304m. Speed=2.000000m/h.]]></desc>
</trkpt>
<trkpt lat="36.691651" lon="137.781560">
<ele>2166.598623</ele>
<time>2014-08-16T23:56:37Z</time>
<desc><![CDATA[lat.=36.691651, lon.=137.781560, Alt.=2166.598623m. Speed=3.000000m/h.]]></desc>
</trkpt>
<trkpt lat="36.691659" lon="137.781544">
<ele>2168.871277</ele>
<time>2014-08-16T23:56:42Z</time>
<desc><![CDATA[lat.=36.691659, lon.=137.781544, Alt.=2168.871277m. Speed=3.000000m/h.]]></desc>
</trkpt>
<trkpt lat="36.691654" lon="137.781551">
<ele>2171.195305</ele>
<time>2014-08-16T23:56:47Z</time>
<desc><![CDATA[lat.=36.691654, lon.=137.781551, Alt.=2171.195305m. Speed=0.000000m/h.]]></desc>
</trkpt>
<trkpt lat="36.691679" lon="137.781558">
<ele>2174.179189</ele>
<time>2014-08-16T23:56:52Z</time>
<desc><![CDATA[lat.=36.691679, lon.=137.781558, Alt.=2174.179189m. Speed=0.000000m/h.]]></desc>
</trkpt>
<trkpt lat="36.691669" lon="137.781551">
<ele>2172.390322</ele>
<time>2014-08-16T23:56:57Z</time>
<desc><![CDATA[lat.=36.691669, lon.=137.781551, Alt.=2172.390322m. Speed=0.000000m/h.]]></desc>
</trkpt>
<trkpt lat="36.691680" lon="137.781559">
<ele>2172.449011</ele>
<time>2014-08-16T23:57:03Z</time>
<desc><![CDATA[lat.=36.691680, lon.=137.781559, Alt.=2172.449011m. Speed=0.000000m/h.]]></desc>
</trkpt>
<trkpt lat="36.691672" lon="137.781559">
<ele>2171.851503</ele>
<time>2014-08-16T23:57:08Z</time>
<desc><![CDATA[lat.=36.691672, lon.=137.781559, Alt.=2171.851503m. Speed=0.000000m/h.]]></desc>
</trkpt>
<trkpt lat="36.691676" lon="137.781551">
<ele>2171.257653</ele>
<time>2014-08-16T23:57:13Z</time>
<desc><![CDATA[lat.=36.691676, lon.=137.781551, Alt.=2171.257653m. Speed=0.000000m/h.]]></desc>
</trkpt>
<trkpt lat="36.691673" lon="137.781543">
<ele>2171.796472</ele>
<time>2014-08-16T23:57:18Z</time>
<desc><![CDATA[lat.=36.691673, lon.=137.781543, Alt.=2171.796472m. Speed=0.000000m/h.]]></desc>
</trkpt>
<trkpt lat="36.691676" lon="137.781551">
<ele>2171.257653</ele>
<time>2014-08-16T23:57:26Z</time>
<desc><![CDATA[lat.=36.691676, lon.=137.781551, Alt.=2171.257653m. Speed=0.000000m/h.]]></desc>
</trkpt>
<trkpt lat="36.691676" lon="137.781551">
<ele>2172.987830</ele>
<time>2014-08-16T23:57:31Z</time>
<desc><![CDATA[lat.=36.691676, lon.=137.781551, Alt.=2172.987830m. Speed=0.000000m/h.]]></desc>
</trkpt>
<trkpt lat="36.691669" lon="137.781551">
<ele>2172.390322</ele>
<time>2014-08-16T23:57:38Z</time>
<desc><![CDATA[lat.=36.691669, lon.=137.781551, Alt.=2172.390322m. Speed=0.000000m/h.]]></desc>
</trkpt>
<trkpt lat="36.691672" lon="137.781558">
<ele>2173.581680</ele>
<time>2014-08-16T23:57:46Z</time>
<desc><![CDATA[lat.=36.691672, lon.=137.781558, Alt.=2173.581680m. Speed=0.000000m/h.]]></desc>
</trkpt>
<trkpt lat="36.691665" lon="137.781558">
<ele>2172.984172</ele>
<time>2014-08-16T23:57:53Z</time>
<desc><![CDATA[lat.=36.691665, lon.=137.781558, Alt.=2172.984172m. Speed=0.000000m/h.]]></desc>
</trkpt>
<trkpt lat="36.691668" lon="137.781550">
<ele>2174.120499</ele>
<time>2014-08-16T23:58:00Z</time>
<desc><![CDATA[lat.=36.691668, lon.=137.781550, Alt.=2174.120499m. Speed=0.000000m/h.]]></desc>
</trkpt>
<trkpt lat="36.691664" lon="137.781557">
<ele>2174.714349</ele>
<time>2014-08-16T23:58:05Z</time>
<desc><![CDATA[lat.=36.691664, lon.=137.781557, Alt.=2174.714349m. Speed=0.000000m/h.]]></desc>
</trkpt>
<trkpt lat="36.691668" lon="137.781550">
<ele>2174.120499</ele>
<time>2014-08-16T23:58:13Z</time>
<desc><![CDATA[lat.=36.691668, lon.=137.781550, Alt.=2174.120499m. Speed=0.000000m/h.]]></desc>
</trkpt>
<trkpt lat="36.691672" lon="137.781558">
<ele>2173.581680</ele>
<time>2014-08-16T23:58:25Z</time>
<desc><![CDATA[lat.=36.691672, lon.=137.781558, Alt.=2173.581680m. Speed=0.000000m/h.]]></desc>
</trkpt>
<trkpt lat="36.691668" lon="137.781566">
<ele>2174.175530</ele>
<time>2014-08-16T23:58:58Z</time>
<desc><![CDATA[lat.=36.691668, lon.=137.781566, Alt.=2174.175530m. Speed=0.000000m/h.]]></desc>
</trkpt>
<trkpt lat="36.691683" lon="137.781566">
<ele>2173.640370</ele>
<time>2014-08-16T23:59:03Z</time>
<desc><![CDATA[lat.=36.691683, lon.=137.781566, Alt.=2173.640370m. Speed=0.000000m/h.]]></desc>
</trkpt>
<trkpt lat="36.691680" lon="137.781559">
<ele>2172.449011</ele>
<time>2014-08-16T23:59:08Z</time>
<desc><![CDATA[lat.=36.691680, lon.=137.781559, Alt.=2172.449011m. Speed=0.000000m/h.]]></desc>
</trkpt>
<trkpt lat="36.691687" lon="137.781559">
<ele>2173.046520</ele>
<time>2014-08-16T23:59:16Z</time>
<desc><![CDATA[lat.=36.691687, lon.=137.781559, Alt.=2173.046520m. Speed=0.000000m/h.]]></desc>
</trkpt>
<trkpt lat="36.691680" lon="137.781559">
<ele>2172.449011</ele>
<time>2014-08-16T23:59:21Z</time>
<desc><![CDATA[lat.=36.691680, lon.=137.781559, Alt.=2172.449011m. Speed=0.000000m/h.]]></desc>
</trkpt>
<trkpt lat="36.691683" lon="137.781551">
<ele>2171.855162</ele>
<time>2014-08-16T23:59:28Z</time>
<desc><![CDATA[lat.=36.691683, lon.=137.781551, Alt.=2171.855162m. Speed=0.000000m/h.]]></desc>
</trkpt>
<trkpt lat="36.691687" lon="137.781560">
<ele>2171.316343</ele>
<time>2014-08-16T23:59:33Z</time>
<desc><![CDATA[lat.=36.691687, lon.=137.781560, Alt.=2171.316343m. Speed=0.000000m/h.]]></desc>
</trkpt>
<trkpt lat="36.691683" lon="137.781567">
<ele>2171.910193</ele>
<time>2014-08-16T23:59:43Z</time>
<desc><![CDATA[lat.=36.691683, lon.=137.781567, Alt.=2171.910193m. Speed=0.000000m/h.]]></desc>
</trkpt>
<trkpt lat="36.691683" lon="137.781567">
<ele>2171.910193</ele>
<time>2014-08-16T23:59:48Z</time>
<desc><![CDATA[lat.=36.691683, lon.=137.781567, Alt.=2171.910193m. Speed=0.000000m/h.]]></desc>
</trkpt>
<trkpt lat="36.691687" lon="137.781560">
<ele>2171.316343</ele>
<time>2014-08-16T23:59:53Z</time>
<desc><![CDATA[lat.=36.691687, lon.=137.781560, Alt.=2171.316343m. Speed=0.000000m/h.]]></desc>
</trkpt>
<trkpt lat="36.691691" lon="137.781552">
<ele>2170.722493</ele>
<time>2014-08-17T00:00:06Z</time>
<desc><![CDATA[lat.=36.691691, lon.=137.781552, Alt.=2170.722493m. Speed=0.000000m/h.]]></desc>
</trkpt>
<trkpt lat="36.691695" lon="137.781560">
<ele>2170.183674</ele>
<time>2014-08-17T00:00:11Z</time>
<desc><![CDATA[lat.=36.691695, lon.=137.781560, Alt.=2170.183674m. Speed=0.000000m/h.]]></desc>
</trkpt>
<trkpt lat="36.691687" lon="137.781560">
<ele>2169.586166</ele>
<time>2014-08-17T00:00:16Z</time>
<desc><![CDATA[lat.=36.691687, lon.=137.781560, Alt.=2169.586166m. Speed=0.000000m/h.]]></desc>
</trkpt>
<trkpt lat="36.691691" lon="137.781553">
<ele>2168.992316</ele>
<time>2014-08-17T00:00:21Z</time>
<desc><![CDATA[lat.=36.691691, lon.=137.781553, Alt.=2168.992316m. Speed=0.000000m/h.]]></desc>
</trkpt>
<trkpt lat="36.691699" lon="137.781553">
<ele>2169.589825</ele>
<time>2014-08-17T00:00:37Z</time>
<desc><![CDATA[lat.=36.691699, lon.=137.781553, Alt.=2169.589825m. Speed=0.000000m/h.]]></desc>
</trkpt>
<trkpt lat="36.691695" lon="137.781545">
<ele>2170.128643</ele>
<time>2014-08-17T00:00:56Z</time>
<desc><![CDATA[lat.=36.691695, lon.=137.781545, Alt.=2170.128643m. Speed=0.000000m/h.]]></desc>
</trkpt>
<trkpt lat="36.691688" lon="137.781545">
<ele>2169.531134</ele>
<time>2014-08-17T00:01:06Z</time>
<desc><![CDATA[lat.=36.691688, lon.=137.781545, Alt.=2169.531134m. Speed=0.000000m/h.]]></desc>
</trkpt>
<trkpt lat="36.691681" lon="137.781513">
<ele>2168.823564</ele>
<time>2014-08-17T00:01:11Z</time>
<desc><![CDATA[lat.=36.691681, lon.=137.781513, Alt.=2168.823564m. Speed=1.000000m/h.]]></desc>
</trkpt>
<trkpt lat="36.691682" lon="137.781481">
<ele>2170.443681</ele>
<time>2014-08-17T00:01:16Z</time>
<desc><![CDATA[lat.=36.691682, lon.=137.781481, Alt.=2170.443681m. Speed=2.000000m/h.]]></desc>
</trkpt>
<trkpt lat="36.691670" lon="137.781471">
<ele>2173.845347</ele>
<time>2014-08-17T00:01:21Z</time>
<desc><![CDATA[lat.=36.691670, lon.=137.781471, Alt.=2173.845347m. Speed=2.000000m/h.]]></desc>
</trkpt>
<trkpt lat="36.691649" lon="137.781455">
<ele>2171.997792</ele>
<time>2014-08-17T00:01:26Z</time>
<desc><![CDATA[lat.=36.691649, lon.=137.781455, Alt.=2171.997792m. Speed=1.000000m/h.]]></desc>
</trkpt>
<trkpt lat="36.691656" lon="137.781456">
<ele>2170.865123</ele>
<time>2014-08-17T00:01:31Z</time>
<desc><![CDATA[lat.=36.691656, lon.=137.781456, Alt.=2170.865123m. Speed=0.000000m/h.]]></desc>
</trkpt>
<trkpt lat="36.691657" lon="137.781457">
<ele>2169.134946</ele>
<time>2014-08-17T00:01:36Z</time>
<desc><![CDATA[lat.=36.691657, lon.=137.781457, Alt.=2169.134946m. Speed=0.000000m/h.]]></desc>
</trkpt>
<trkpt lat="36.691616" lon="137.781447">
<ele>2170.146580</ele>
<time>2014-08-17T00:01:41Z</time>
<desc><![CDATA[lat.=36.691616, lon.=137.781447, Alt.=2170.146580m. Speed=2.000000m/h.]]></desc>
</trkpt>
<trkpt lat="36.691594" lon="137.781444">
<ele>2173.544590</ele>
<time>2014-08-17T00:01:46Z</time>
<desc><![CDATA[lat.=36.691594, lon.=137.781444, Alt.=2173.544590m. Speed=2.000000m/h.]]></desc>
</trkpt>
<trkpt lat="36.691529" lon="137.781429">
<ele>2166.381820</ele>
<time>2014-08-17T00:01:51Z</time>
<desc><![CDATA[lat.=36.691529, lon.=137.781429, Alt.=2166.381820m. Speed=2.000000m/h.]]></desc>
</trkpt>
<trkpt lat="36.691496" lon="137.781420">
<ele>2166.260793</ele>
<time>2014-08-17T00:01:56Z</time>
<desc><![CDATA[lat.=36.691496, lon.=137.781420, Alt.=2166.260793m. Speed=2.000000m/h.]]></desc>
</trkpt>
<trkpt lat="36.691487" lon="137.781416">
<ele>2174.314175</ele>
<time>2014-08-17T00:02:01Z</time>
<desc><![CDATA[lat.=36.691487, lon.=137.781416, Alt.=2174.314175m. Speed=2.000000m/h.]]></desc>
</trkpt>
<trkpt lat="36.691443" lon="137.781398">
<ele>2175.864645</ele>
<time>2014-08-17T00:02:06Z</time>
<desc><![CDATA[lat.=36.691443, lon.=137.781398, Alt.=2175.864645m. Speed=2.000000m/h.]]></desc>
</trkpt>
<trkpt lat="36.691424" lon="137.781389">
<ele>2178.668812</ele>
<time>2014-08-17T00:02:11Z</time>
<desc><![CDATA[lat.=36.691424, lon.=137.781389, Alt.=2178.668812m. Speed=2.000000m/h.]]></desc>
</trkpt>
<trkpt lat="36.691387" lon="137.781386">
<ele>2180.871821</ele>
<time>2014-08-17T00:02:16Z</time>
<desc><![CDATA[lat.=36.691387, lon.=137.781386, Alt.=2180.871821m. Speed=2.000000m/h.]]></desc>
</trkpt>
<trkpt lat="36.691358" lon="137.781403">
<ele>2176.806654</ele>
<time>2014-08-17T00:02:21Z</time>
<desc><![CDATA[lat.=36.691358, lon.=137.781403, Alt.=2176.806654m. Speed=2.000000m/h.]]></desc>
</trkpt>
<trkpt lat="36.691345" lon="137.781407">
<ele>2185.453890</ele>
<time>2014-08-17T00:02:26Z</time>
<desc><![CDATA[lat.=36.691345, lon.=137.781407, Alt.=2185.453890m. Speed=2.000000m/h.]]></desc>
</trkpt>
<trkpt lat="36.691288" lon="137.781407">
<ele>2178.943683</ele>
<time>2014-08-17T00:02:31Z</time>
<desc><![CDATA[lat.=36.691288, lon.=137.781407, Alt.=2178.943683m. Speed=2.000000m/h.]]></desc>
</trkpt>
<trkpt lat="36.691242" lon="137.781403">
<ele>2184.009554</ele>
<time>2014-08-17T00:02:36Z</time>
<desc><![CDATA[lat.=36.691242, lon.=137.781403, Alt.=2184.009554m. Speed=2.000000m/h.]]></desc>
</trkpt>
<trkpt lat="36.691209" lon="137.781409">
<ele>2185.673753</ele>
<time>2014-08-17T00:02:41Z</time>
<desc><![CDATA[lat.=36.691209, lon.=137.781409, Alt.=2185.673753m. Speed=2.000000m/h.]]></desc>
</trkpt>
<trkpt lat="36.691189" lon="137.781431">
<ele>2188.587986</ele>
<time>2014-08-17T00:02:46Z</time>
<desc><![CDATA[lat.=36.691189, lon.=137.781431, Alt.=2188.587986m. Speed=2.000000m/h.]]></desc>
</trkpt>
<trkpt lat="36.691114" lon="137.781424">
<ele>2179.691440</ele>
<time>2014-08-17T00:02:51Z</time>
<desc><![CDATA[lat.=36.691114, lon.=137.781424, Alt.=2179.691440m. Speed=3.000000m/h.]]></desc>
</trkpt>
<trkpt lat="36.691074" lon="137.781415">
<ele>2178.972940</ele>
<time>2014-08-17T00:02:56Z</time>
<desc><![CDATA[lat.=36.691074, lon.=137.781415, Alt.=2178.972940m. Speed=3.000000m/h.]]></desc>
</trkpt>
<trkpt lat="36.691040" lon="137.781405">
<ele>2182.312298</ele>
<time>2014-08-17T00:03:01Z</time>
<desc><![CDATA[lat.=36.691040, lon.=137.781405, Alt.=2182.312298m. Speed=2.000000m/h.]]></desc>
</trkpt>
<trkpt lat="36.691028" lon="137.781411">
<ele>2185.769008</ele>
<time>2014-08-17T00:03:06Z</time>
<desc><![CDATA[lat.=36.691028, lon.=137.781411, Alt.=2185.769008m. Speed=2.000000m/h.]]></desc>
</trkpt>
<trkpt lat="36.691031" lon="137.781417">
<ele>2190.420717</ele>
<time>2014-08-17T00:03:11Z</time>
<desc><![CDATA[lat.=36.691031, lon.=137.781417, Alt.=2190.420717m. Speed=2.000000m/h.]]></desc>
</trkpt>
<trkpt lat="36.690990" lon="137.781405">
<ele>2194.892758</ele>
<time>2014-08-17T00:03:16Z</time>
<desc><![CDATA[lat.=36.690990, lon.=137.781405, Alt.=2194.892758m. Speed=1.000000m/h.]]></desc>
</trkpt>
<trkpt lat="36.690946" lon="137.781388">
<ele>2194.713092</ele>
<time>2014-08-17T00:03:21Z</time>
<desc><![CDATA[lat.=36.690946, lon.=137.781388, Alt.=2194.713092m. Speed=2.000000m/h.]]></desc>
</trkpt>
<trkpt lat="36.690877" lon="137.781363">
<ele>2191.549587</ele>
<time>2014-08-17T00:03:26Z</time>
<desc><![CDATA[lat.=36.690877, lon.=137.781363, Alt.=2191.549587m. Speed=3.000000m/h.]]></desc>
</trkpt>
<trkpt lat="36.690817" lon="137.781325">
<ele>2183.738025</ele>
<time>2014-08-17T00:03:31Z</time>
<desc><![CDATA[lat.=36.690817, lon.=137.781325, Alt.=2183.738025m. Speed=3.000000m/h.]]></desc>
</trkpt>
<trkpt lat="36.690778" lon="137.781284">
<ele>2182.909495</ele>
<time>2014-08-17T00:03:36Z</time>
<desc><![CDATA[lat.=36.690778, lon.=137.781284, Alt.=2182.909495m. Speed=4.000000m/h.]]></desc>
</trkpt>
<trkpt lat="36.690753" lon="137.781259">
<ele>2183.330988</ele>
<time>2014-08-17T00:03:41Z</time>
<desc><![CDATA[lat.=36.690753, lon.=137.781259, Alt.=2183.330988m. Speed=3.000000m/h.]]></desc>
</trkpt>
<trkpt lat="36.690709" lon="137.781225">
<ele>2184.826499</ele>
<time>2014-08-17T00:03:46Z</time>
<desc><![CDATA[lat.=36.690709, lon.=137.781225, Alt.=2184.826499m. Speed=3.000000m/h.]]></desc>
</trkpt>
<trkpt lat="36.690666" lon="137.781210">
<ele>2181.186504</ele>
<time>2014-08-17T00:03:51Z</time>
<desc><![CDATA[lat.=36.690666, lon.=137.781210, Alt.=2181.186504m. Speed=3.000000m/h.]]></desc>
</trkpt>
<trkpt lat="36.690637" lon="137.781193">
<ele>2180.471681</ele>
<time>2014-08-17T00:03:56Z</time>
<desc><![CDATA[lat.=36.690637, lon.=137.781193, Alt.=2180.471681m. Speed=3.000000m/h.]]></desc>
</trkpt>
<trkpt lat="36.690594" lon="137.781160">
<ele>2180.237026</ele>
<time>2014-08-17T00:04:01Z</time>
<desc><![CDATA[lat.=36.690594, lon.=137.781160, Alt.=2180.237026m. Speed=3.000000m/h.]]></desc>
</trkpt>
<trkpt lat="36.690568" lon="137.781118">
<ele>2184.063864</ele>
<time>2014-08-17T00:04:06Z</time>
<desc><![CDATA[lat.=36.690568, lon.=137.781118, Alt.=2184.063864m. Speed=3.000000m/h.]]></desc>
</trkpt>
<trkpt lat="36.690550" lon="137.781076">
<ele>2188.488200</ele>
<time>2014-08-17T00:04:11Z</time>
<desc><![CDATA[lat.=36.690550, lon.=137.781076, Alt.=2188.488200m. Speed=3.000000m/h.]]></desc>
</trkpt>
<trkpt lat="36.690536" lon="137.781027">
<ele>2188.858326</ele>
<time>2014-08-17T00:04:16Z</time>
<desc><![CDATA[lat.=36.690536, lon.=137.781027, Alt.=2188.858326m. Speed=3.000000m/h.]]></desc>
</trkpt>
<trkpt lat="36.690518" lon="137.780987">
<ele>2189.822310</ele>
<time>2014-08-17T00:04:21Z</time>
<desc><![CDATA[lat.=36.690518, lon.=137.780987, Alt.=2189.822310m. Speed=3.000000m/h.]]></desc>
</trkpt>
<trkpt lat="36.690529" lon="137.780962">
<ele>2193.231286</ele>
<time>2014-08-17T00:04:26Z</time>
<desc><![CDATA[lat.=36.690529, lon.=137.780962, Alt.=2193.231286m. Speed=3.000000m/h.]]></desc>
</trkpt>
<trkpt lat="36.690516" lon="137.780915">
<ele>2190.141063</ele>
<time>2014-08-17T00:04:31Z</time>
<desc><![CDATA[lat.=36.690516, lon.=137.780915, Alt.=2190.141063m. Speed=2.000000m/h.]]></desc>
</trkpt>
<trkpt lat="36.690484" lon="137.780891">
<ele>2188.234908</ele>
<time>2014-08-17T00:04:36Z</time>
<desc><![CDATA[lat.=36.690484, lon.=137.780891, Alt.=2188.234908m. Speed=2.000000m/h.]]></desc>
</trkpt>
<trkpt lat="36.690462" lon="137.780875">
<ele>2188.117593</ele>
<time>2014-08-17T00:04:41Z</time>
<desc><![CDATA[lat.=36.690462, lon.=137.780875, Alt.=2188.117593m. Speed=2.000000m/h.]]></desc>
</trkpt>
<trkpt lat="36.690441" lon="137.780842">
<ele>2187.945261</ele>
<time>2014-08-17T00:04:46Z</time>
<desc><![CDATA[lat.=36.690441, lon.=137.780842, Alt.=2187.945261m. Speed=2.000000m/h.]]></desc>
</trkpt>
<trkpt lat="36.690441" lon="137.780793">
<ele>2192.970745</ele>
<time>2014-08-17T00:04:51Z</time>
<desc><![CDATA[lat.=36.690441, lon.=137.780793, Alt.=2192.970745m. Speed=2.000000m/h.]]></desc>
</trkpt>
<trkpt lat="36.690424" lon="137.780769">
<ele>2190.529402</ele>
<time>2014-08-17T00:04:56Z</time>
<desc><![CDATA[lat.=36.690424, lon.=137.780769, Alt.=2190.529402m. Speed=2.000000m/h.]]></desc>
</trkpt>
<trkpt lat="36.690424" lon="137.780737">
<ele>2192.149548</ele>
<time>2014-08-17T00:05:01Z</time>
<desc><![CDATA[lat.=36.690424, lon.=137.780737, Alt.=2192.149548m. Speed=2.000000m/h.]]></desc>
</trkpt>
<trkpt lat="36.690402" lon="137.780720">
<ele>2192.032239</ele>
<time>2014-08-17T00:05:06Z</time>
<desc><![CDATA[lat.=36.690402, lon.=137.780720, Alt.=2192.032239m. Speed=2.000000m/h.]]></desc>
</trkpt>
<trkpt lat="36.690405" lon="137.780727">
<ele>2194.953761</ele>
<time>2014-08-17T00:05:11Z</time>
<desc><![CDATA[lat.=36.690405, lon.=137.780727, Alt.=2194.953761m. Speed=1.000000m/h.]]></desc>
</trkpt>
<trkpt lat="36.690389" lon="137.780725">
<ele>2198.949316</ele>
<time>2014-08-17T00:05:16Z</time>
<desc><![CDATA[lat.=36.690389, lon.=137.780725, Alt.=2198.949316m. Speed=2.000000m/h.]]></desc>
</trkpt>
<trkpt lat="36.690390" lon="137.780709">
<ele>2198.894301</ele>
<time>2014-08-17T00:05:21Z</time>
<desc><![CDATA[lat.=36.690390, lon.=137.780709, Alt.=2198.894301m. Speed=1.000000m/h.]]></desc>
</trkpt>
<trkpt lat="36.690368" lon="137.780692">
<ele>2198.776993</ele>
<time>2014-08-17T00:05:26Z</time>
<desc><![CDATA[lat.=36.690368, lon.=137.780692, Alt.=2198.776993m. Speed=2.000000m/h.]]></desc>
</trkpt>
<trkpt lat="36.690357" lon="137.780668">
<ele>2200.393504</ele>
<time>2014-08-17T00:05:31Z</time>
<desc><![CDATA[lat.=36.690357, lon.=137.780668, Alt.=2200.393504m. Speed=2.000000m/h.]]></desc>
</trkpt>
<trkpt lat="36.690339" lon="137.780692">
<ele>2198.117212</ele>
<time>2014-08-17T00:05:36Z</time>
<desc><![CDATA[lat.=36.690339, lon.=137.780692, Alt.=2198.117212m. Speed=2.000000m/h.]]></desc>
</trkpt>
<trkpt lat="36.690320" lon="137.780714">
<ele>2199.301279</ele>
<time>2014-08-17T00:05:41Z</time>
<desc><![CDATA[lat.=36.690320, lon.=137.780714, Alt.=2199.301279m. Speed=2.000000m/h.]]></desc>
</trkpt>
<trkpt lat="36.690311" lon="137.780745">
<ele>2200.544000</ele>
<time>2014-08-17T00:05:46Z</time>
<desc><![CDATA[lat.=36.690311, lon.=137.780745, Alt.=2200.544000m. Speed=2.000000m/h.]]></desc>
</trkpt>
<trkpt lat="36.690307" lon="137.780784">
<ele>2201.247887</ele>
<time>2014-08-17T00:05:51Z</time>
<desc><![CDATA[lat.=36.690307, lon.=137.780784, Alt.=2201.247887m. Speed=3.000000m/h.]]></desc>
</trkpt>
<trkpt lat="36.690287" lon="137.780807">
<ele>2202.431958</ele>
<time>2014-08-17T00:05:56Z</time>
<desc><![CDATA[lat.=36.690287, lon.=137.780807, Alt.=2202.431958m. Speed=2.000000m/h.]]></desc>
</trkpt>
<trkpt lat="36.690265" lon="137.780838">
<ele>2200.749526</ele>
<time>2014-08-17T00:06:01Z</time>
<desc><![CDATA[lat.=36.690265, lon.=137.780838, Alt.=2200.749526m. Speed=2.000000m/h.]]></desc>
</trkpt>
<trkpt lat="36.690243" lon="137.780853">
<ele>2200.742257</ele>
<time>2014-08-17T00:06:06Z</time>
<desc><![CDATA[lat.=36.690243, lon.=137.780853, Alt.=2200.742257m. Speed=2.000000m/h.]]></desc>
</trkpt>
<trkpt lat="36.690223" lon="137.780875">
<ele>2203.656511</ele>
<time>2014-08-17T00:06:11Z</time>
<desc><![CDATA[lat.=36.690223, lon.=137.780875, Alt.=2203.656511m. Speed=2.000000m/h.]]></desc>
</trkpt>
<trkpt lat="36.690193" lon="137.780890">
<ele>2203.051757</ele>
<time>2014-08-17T00:06:16Z</time>
<desc><![CDATA[lat.=36.690193, lon.=137.780890, Alt.=2203.051757m. Speed=2.000000m/h.]]></desc>
</trkpt>
<trkpt lat="36.690175" lon="137.780914">
<ele>2200.775477</ele>
<time>2014-08-17T00:06:21Z</time>
<desc><![CDATA[lat.=36.690175, lon.=137.780914, Alt.=2200.775477m. Speed=2.000000m/h.]]></desc>
</trkpt>
<trkpt lat="36.690152" lon="137.780945">
<ele>2200.823234</ele>
<time>2014-08-17T00:06:26Z</time>
<desc><![CDATA[lat.=36.690152, lon.=137.780945, Alt.=2200.823234m. Speed=2.000000m/h.]]></desc>
</trkpt>
<trkpt lat="36.690147" lon="137.780967">
<ele>2204.932468</ele>
<time>2014-08-17T00:06:31Z</time>
<desc><![CDATA[lat.=36.690147, lon.=137.780967, Alt.=2204.932468m. Speed=2.000000m/h.]]></desc>
</trkpt>
<trkpt lat="36.690133" lon="137.780968">
<ele>2202.007315</ele>
<time>2014-08-17T00:06:36Z</time>
<desc><![CDATA[lat.=36.690133, lon.=137.780968, Alt.=2202.007315m. Speed=1.000000m/h.]]></desc>
</trkpt>
<trkpt lat="36.690085" lon="137.780990">
<ele>2200.801451</ele>
<time>2014-08-17T00:06:41Z</time>
<desc><![CDATA[lat.=36.690085, lon.=137.780990, Alt.=2200.801451m. Speed=2.000000m/h.]]></desc>
</trkpt>
<trkpt lat="36.690051" lon="137.780995">
<ele>2204.195901</ele>
<time>2014-08-17T00:06:46Z</time>
<desc><![CDATA[lat.=36.690051, lon.=137.780995, Alt.=2204.195901m. Speed=2.000000m/h.]]></desc>
</trkpt>
<trkpt lat="36.690024" lon="137.781017">
<ele>2206.512681</ele>
<time>2014-08-17T00:06:51Z</time>
<desc><![CDATA[lat.=36.690024, lon.=137.781017, Alt.=2206.512681m. Speed=2.000000m/h.]]></desc>
</trkpt>
<trkpt lat="36.689990" lon="137.781022">
<ele>2209.907135</ele>
<time>2014-08-17T00:06:56Z</time>
<desc><![CDATA[lat.=36.689990, lon.=137.781022, Alt.=2209.907135m. Speed=2.000000m/h.]]></desc>
</trkpt>
<trkpt lat="36.689954" lon="137.780990">
<ele>2208.539847</ele>
<time>2014-08-17T00:07:01Z</time>
<desc><![CDATA[lat.=36.689954, lon.=137.780990, Alt.=2208.539847m. Speed=2.000000m/h.]]></desc>
</trkpt>
<trkpt lat="36.689924" lon="137.780937">
<ele>2201.333146</ele>
<time>2014-08-17T00:07:06Z</time>
<desc><![CDATA[lat.=36.689924, lon.=137.780937, Alt.=2201.333146m. Speed=2.000000m/h.]]></desc>
</trkpt>
<trkpt lat="36.689903" lon="137.780905">
<ele>2199.430655</ele>
<time>2014-08-17T00:07:11Z</time>
<desc><![CDATA[lat.=36.689903, lon.=137.780905, Alt.=2199.430655m. Speed=2.000000m/h.]]></desc>
</trkpt>
<trkpt lat="36.689907" lon="137.780880">
<ele>2202.242136</ele>
<time>2014-08-17T00:07:16Z</time>
<desc><![CDATA[lat.=36.689907, lon.=137.780880, Alt.=2202.242136m. Speed=2.000000m/h.]]></desc>
</trkpt>
<trkpt lat="36.689900" lon="137.780849">
<ele>2201.534615</ele>
<time>2014-08-17T00:07:21Z</time>
<desc><![CDATA[lat.=36.689900, lon.=137.780849, Alt.=2201.534615m. Speed=2.000000m/h.]]></desc>
</trkpt>
<trkpt lat="36.689922" lon="137.780800">
<ele>2206.622371</ele>
<time>2014-08-17T00:07:26Z</time>
<desc><![CDATA[lat.=36.689922, lon.=137.780800, Alt.=2206.622371m. Speed=2.000000m/h.]]></desc>
</trkpt>
<trkpt lat="36.689973" lon="137.780783">
<ele>2212.479924</ele>
<time>2014-08-17T00:07:31Z</time>
<desc><![CDATA[lat.=36.689973, lon.=137.780783, Alt.=2212.479924m. Speed=1.000000m/h.]]></desc>
</trkpt>
<trkpt lat="36.689958" lon="137.780782">
<ele>2214.745314</ele>
<time>2014-08-17T00:07:36Z</time>
<desc><![CDATA[lat.=36.689958, lon.=137.780782, Alt.=2214.745314m. Speed=1.000000m/h.]]></desc>
</trkpt>
<trkpt lat="36.689939" lon="137.780772">
<ele>2215.819363</ele>
<time>2014-08-17T00:07:41Z</time>
<desc><![CDATA[lat.=36.689939, lon.=137.780772, Alt.=2215.819363m. Speed=2.000000m/h.]]></desc>
</trkpt>
<trkpt lat="36.689914" lon="137.780763">
<ele>2216.295929</ele>
<time>2014-08-17T00:07:46Z</time>
<desc><![CDATA[lat.=36.689914, lon.=137.780763, Alt.=2216.295929m. Speed=2.000000m/h.]]></desc>
</trkpt>
<trkpt lat="36.689899" lon="137.780747">
<ele>2216.776124</ele>
<time>2014-08-17T00:07:51Z</time>
<desc><![CDATA[lat.=36.689899, lon.=137.780747, Alt.=2216.776124m. Speed=2.000000m/h.]]></desc>
</trkpt>
<trkpt lat="36.689879" lon="137.780716">
<ele>2213.143461</ele>
<time>2014-08-17T00:07:56Z</time>
<desc><![CDATA[lat.=36.689879, lon.=137.780716, Alt.=2213.143461m. Speed=2.000000m/h.]]></desc>
</trkpt>
<trkpt lat="36.689868" lon="137.780691">
<ele>2214.759982</ele>
<time>2014-08-17T00:08:01Z</time>
<desc><![CDATA[lat.=36.689868, lon.=137.780691, Alt.=2214.759982m. Speed=2.000000m/h.]]></desc>
</trkpt>
<trkpt lat="36.689883" lon="137.780675">
<ele>2215.899933</ele>
<time>2014-08-17T00:08:06Z</time>
<desc><![CDATA[lat.=36.689883, lon.=137.780675, Alt.=2215.899933m. Speed=0.000000m/h.]]></desc>
</trkpt>
<trkpt lat="36.689879" lon="137.780684">
<ele>2214.763609</ele>
<time>2014-08-17T00:08:11Z</time>
<desc><![CDATA[lat.=36.689879, lon.=137.780684, Alt.=2214.763609m. Speed=0.000000m/h.]]></desc>
</trkpt>
<trkpt lat="36.689875" lon="137.780692">
<ele>2213.627286</ele>
<time>2014-08-17T00:08:16Z</time>
<desc><![CDATA[lat.=36.689875, lon.=137.780692, Alt.=2213.627286m. Speed=0.000000m/h.]]></desc>
</trkpt>
<trkpt lat="36.689887" lon="137.780684">
<ele>2213.630913</ele>
<time>2014-08-17T00:08:21Z</time>
<desc><![CDATA[lat.=36.689887, lon.=137.780684, Alt.=2213.630913m. Speed=0.000000m/h.]]></desc>
</trkpt>
<trkpt lat="36.689901" lon="137.780684">
<ele>2214.825881</ele>
<time>2014-08-17T00:08:26Z</time>
<desc><![CDATA[lat.=36.689901, lon.=137.780684, Alt.=2214.825881m. Speed=1.000000m/h.]]></desc>
</trkpt>
<trkpt lat="36.689923" lon="137.780669">
<ele>2216.563318</ele>
<time>2014-08-17T00:08:31Z</time>
<desc><![CDATA[lat.=36.689923, lon.=137.780669, Alt.=2216.563318m. Speed=2.000000m/h.]]></desc>
</trkpt>
<trkpt lat="36.689934" lon="137.780661">
<ele>2216.566947</ele>
<time>2014-08-17T00:08:36Z</time>
<desc><![CDATA[lat.=36.689934, lon.=137.780661, Alt.=2216.566947m. Speed=1.000000m/h.]]></desc>
</trkpt>
<trkpt lat="36.689915" lon="137.780667">
<ele>2219.426193</ele>
<time>2014-08-17T00:08:41Z</time>
<desc><![CDATA[lat.=36.689915, lon.=137.780667, Alt.=2219.426193m. Speed=2.000000m/h.]]></desc>
</trkpt>
<trkpt lat="36.689901" lon="137.780667">
<ele>2218.231225</ele>
<time>2014-08-17T00:08:46Z</time>
<desc><![CDATA[lat.=36.689901, lon.=137.780667, Alt.=2218.231225m. Speed=1.000000m/h.]]></desc>
</trkpt>
<trkpt lat="36.689890" lon="137.780659">
<ele>2218.172581</ele>
<time>2014-08-17T00:08:51Z</time>
<desc><![CDATA[lat.=36.689890, lon.=137.780659, Alt.=2218.172581m. Speed=1.000000m/h.]]></desc>
</trkpt>
<trkpt lat="36.689876" lon="137.780643">
<ele>2216.922600</ele>
<time>2014-08-17T00:08:56Z</time>
<desc><![CDATA[lat.=36.689876, lon.=137.780643, Alt.=2216.922600m. Speed=1.000000m/h.]]></desc>
</trkpt>
<trkpt lat="36.689858" lon="137.780620">
<ele>2214.481280</ele>
<time>2014-08-17T00:09:01Z</time>
<desc><![CDATA[lat.=36.689858, lon.=137.780620, Alt.=2214.481280m. Speed=1.000000m/h.]]></desc>
</trkpt>
<trkpt lat="36.689851" lon="137.780587">
<ele>2217.234129</ele>
<time>2014-08-17T00:09:06Z</time>
<desc><![CDATA[lat.=36.689851, lon.=137.780587, Alt.=2217.234129m. Speed=2.000000m/h.]]></desc>
</trkpt>
<trkpt lat="36.689884" lon="137.780546">
<ele>2222.380541</ele>
<time>2014-08-17T00:09:11Z</time>
<desc><![CDATA[lat.=36.689884, lon.=137.780546, Alt.=2222.380541m. Speed=2.000000m/h.]]></desc>
</trkpt>
<trkpt lat="36.689913" lon="137.780530">
<ele>2224.715463</ele>
<time>2014-08-17T00:09:16Z</time>
<desc><![CDATA[lat.=36.689913, lon.=137.780530, Alt.=2224.715463m. Speed=2.000000m/h.]]></desc>
</trkpt>
<trkpt lat="36.689903" lon="137.780523">
<ele>2222.926642</ele>
<time>2014-08-17T00:09:21Z</time>
<desc><![CDATA[lat.=36.689903, lon.=137.780523, Alt.=2222.926642m. Speed=1.000000m/h.]]></desc>
</trkpt>
<trkpt lat="36.689878" lon="137.780499">
<ele>2219.887841</ele>
<time>2014-08-17T00:09:26Z</time>
<desc><![CDATA[lat.=36.689878, lon.=137.780499, Alt.=2219.887841m. Speed=1.000000m/h.]]></desc>
</trkpt>
<trkpt lat="36.689903" lon="137.780507">
<ele>2222.871630</ele>
<time>2014-08-17T00:09:31Z</time>
<desc><![CDATA[lat.=36.689903, lon.=137.780507, Alt.=2222.871630m. Speed=1.000000m/h.]]></desc>
</trkpt>
<trkpt lat="36.689914" lon="137.780499">
<ele>2222.875260</ele>
<time>2014-08-17T00:09:36Z</time>
<desc><![CDATA[lat.=36.689914, lon.=137.780499, Alt.=2222.875260m. Speed=1.000000m/h.]]></desc>
</trkpt>
<trkpt lat="36.689914" lon="137.780483">
<ele>2224.550428</ele>
<time>2014-08-17T00:09:41Z</time>
<desc><![CDATA[lat.=36.689914, lon.=137.780483, Alt.=2224.550428m. Speed=0.000000m/h.]]></desc>
</trkpt>
<trkpt lat="36.689929" lon="137.780483">
<ele>2225.745396</ele>
<time>2014-08-17T00:09:46Z</time>
<desc><![CDATA[lat.=36.689929, lon.=137.780483, Alt.=2225.745396m. Speed=0.000000m/h.]]></desc>
</trkpt>
<trkpt lat="36.689932" lon="137.780474">
<ele>2226.881723</ele>
<time>2014-08-17T00:09:51Z</time>
<desc><![CDATA[lat.=36.689932, lon.=137.780474, Alt.=2226.881723m. Speed=0.000000m/h.]]></desc>
</trkpt>
<trkpt lat="36.689936" lon="137.780467">
<ele>2226.287869</ele>
<time>2014-08-17T00:09:56Z</time>
<desc><![CDATA[lat.=36.689936, lon.=137.780467, Alt.=2226.287869m. Speed=1.000000m/h.]]></desc>
</trkpt>
<trkpt lat="36.689930" lon="137.780435">
<ele>2225.580364</ele>
<time>2014-08-17T00:10:01Z</time>
<desc><![CDATA[lat.=36.689930, lon.=137.780435, Alt.=2225.580364m. Speed=1.000000m/h.]]></desc>
</trkpt>
<trkpt lat="36.689894" lon="137.780419">
<ele>2224.268114</ele>
<time>2014-08-17T00:10:06Z</time>
<desc><![CDATA[lat.=36.689894, lon.=137.780419, Alt.=2224.268114m. Speed=2.000000m/h.]]></desc>
</trkpt>
<trkpt lat="36.689894" lon="137.780403">
<ele>2224.213104</ele>
<time>2014-08-17T00:10:11Z</time>
<desc><![CDATA[lat.=36.689894, lon.=137.780403, Alt.=2224.213104m. Speed=1.000000m/h.]]></desc>
</trkpt>
<trkpt lat="36.689865" lon="137.780386">
<ele>2225.228520</ele>
<time>2014-08-17T00:10:16Z</time>
<desc><![CDATA[lat.=36.689865, lon.=137.780386, Alt.=2225.228520m. Speed=2.000000m/h.]]></desc>
</trkpt>
<trkpt lat="36.689847" lon="137.780410">
<ele>2221.222056</ele>
<time>2014-08-17T00:10:21Z</time>
<desc><![CDATA[lat.=36.689847, lon.=137.780410, Alt.=2221.222056m. Speed=0.000000m/h.]]></desc>
</trkpt>
<trkpt lat="36.689875" lon="137.780425">
<ele>2225.397179</ele>
<time>2014-08-17T00:10:26Z</time>
<desc><![CDATA[lat.=36.689875, lon.=137.780425, Alt.=2225.397179m. Speed=0.000000m/h.]]></desc>
</trkpt>
<trkpt lat="36.689875" lon="137.780425">
<ele>2227.127359</ele>
<time>2014-08-17T00:10:31Z</time>
<desc><![CDATA[lat.=36.689875, lon.=137.780425, Alt.=2227.127359m. Speed=1.000000m/h.]]></desc>
</trkpt>
<trkpt lat="36.689846" lon="137.780393">
<ele>2224.627406</ele>
<time>2014-08-17T00:10:36Z</time>
<desc><![CDATA[lat.=36.689846, lon.=137.780393, Alt.=2224.627406m. Speed=2.000000m/h.]]></desc>
</trkpt>
<trkpt lat="36.689836" lon="137.780352">
<ele>2226.188929</ele>
<time>2014-08-17T00:10:41Z</time>
<desc><![CDATA[lat.=36.689836, lon.=137.780352, Alt.=2226.188929m. Speed=3.000000m/h.]]></desc>
</trkpt>
<trkpt lat="36.689833" lon="137.780312">
<ele>2228.347936</ele>
<time>2014-08-17T00:10:46Z</time>
<desc><![CDATA[lat.=36.689833, lon.=137.780312, Alt.=2228.347936m. Speed=3.000000m/h.]]></desc>
</trkpt>
<trkpt lat="36.689840" lon="137.780263">
<ele>2232.240756</ele>
<time>2014-08-17T00:10:51Z</time>
<desc><![CDATA[lat.=36.689840, lon.=137.780263, Alt.=2232.240756m. Speed=3.000000m/h.]]></desc>
</trkpt>
<trkpt lat="36.689808" lon="137.780238">
<ele>2232.064844</ele>
<time>2014-08-17T00:10:56Z</time>
<desc><![CDATA[lat.=36.689808, lon.=137.780238, Alt.=2232.064844m. Speed=3.000000m/h.]]></desc>
</trkpt>
<trkpt lat="36.689787" lon="137.780190">
<ele>2231.837559</ele>
<time>2014-08-17T00:11:01Z</time>
<desc><![CDATA[lat.=36.689787, lon.=137.780190, Alt.=2231.837559m. Speed=3.000000m/h.]]></desc>
</trkpt>
<trkpt lat="36.689787" lon="137.780142">
<ele>2233.402723</ele>
<time>2014-08-17T00:11:06Z</time>
<desc><![CDATA[lat.=36.689787, lon.=137.780142, Alt.=2233.402723m. Speed=3.000000m/h.]]></desc>
</trkpt>
<trkpt lat="36.689778" lon="137.780103">
<ele>2231.503899</ele>
<time>2014-08-17T00:11:11Z</time>
<desc><![CDATA[lat.=36.689778, lon.=137.780103, Alt.=2231.503899m. Speed=3.000000m/h.]]></desc>
</trkpt>
<trkpt lat="36.689767" lon="137.780062">
<ele>2233.065438</ele>
<time>2014-08-17T00:11:16Z</time>
<desc><![CDATA[lat.=36.689767, lon.=137.780062, Alt.=2233.065438m. Speed=3.000000m/h.]]></desc>
</trkpt>
<trkpt lat="36.689779" lon="137.780039">
<ele>2233.014066</ele>
<time>2014-08-17T00:11:21Z</time>
<desc><![CDATA[lat.=36.689779, lon.=137.780039, Alt.=2233.014066m. Speed=2.000000m/h.]]></desc>
</trkpt>
<trkpt lat="36.689775" lon="137.780030">
<ele>2233.552914</ele>
<time>2014-08-17T00:11:26Z</time>
<desc><![CDATA[lat.=36.689775, lon.=137.780030, Alt.=2233.552914m. Speed=2.000000m/h.]]></desc>
</trkpt>
<trkpt lat="36.689790" lon="137.780015">
<ele>2234.692876</ele>
<time>2014-08-17T00:11:31Z</time>
<desc><![CDATA[lat.=36.689790, lon.=137.780015, Alt.=2234.692876m. Speed=0.000000m/h.]]></desc>
</trkpt>
<trkpt lat="36.689794" lon="137.780007">
<ele>2234.099026</ele>
<time>2014-08-17T00:11:36Z</time>
<desc><![CDATA[lat.=36.689794, lon.=137.780007, Alt.=2234.099026m. Speed=0.000000m/h.]]></desc>
</trkpt>
<trkpt lat="36.689780" lon="137.779991">
<ele>2232.849060</ele>
<time>2014-08-17T00:11:41Z</time>
<desc><![CDATA[lat.=36.689780, lon.=137.779991, Alt.=2232.849060m. Speed=2.000000m/h.]]></desc>
</trkpt>
<trkpt lat="36.689789" lon="137.779945">
<ele>2231.551358</ele>
<time>2014-08-17T00:11:46Z</time>
<desc><![CDATA[lat.=36.689789, lon.=137.779945, Alt.=2231.551358m. Speed=3.000000m/h.]]></desc>
</trkpt>
<trkpt lat="36.689789" lon="137.779913">
<ele>2231.441357</ele>
<time>2014-08-17T00:11:51Z</time>
<desc><![CDATA[lat.=36.689789, lon.=137.779913, Alt.=2231.441357m. Speed=2.000000m/h.]]></desc>
</trkpt>
<trkpt lat="36.689809" lon="137.779875">
<ele>2230.202294</ele>
<time>2014-08-17T00:11:56Z</time>
<desc><![CDATA[lat.=36.689809, lon.=137.779875, Alt.=2230.202294m. Speed=3.000000m/h.]]></desc>
</trkpt>
<trkpt lat="36.689813" lon="137.779835">
<ele>2231.228628</ele>
<time>2014-08-17T00:12:01Z</time>
<desc><![CDATA[lat.=36.689813, lon.=137.779835, Alt.=2231.228628m. Speed=2.000000m/h.]]></desc>
</trkpt>
<trkpt lat="36.689795" lon="137.779809">
<ele>2233.977875</ele>
<time>2014-08-17T00:12:06Z</time>
<desc><![CDATA[lat.=36.689795, lon.=137.779809, Alt.=2233.977875m. Speed=2.000000m/h.]]></desc>
</trkpt>
<trkpt lat="36.689766" lon="137.779759">
<ele>2236.613495</ele>
<time>2014-08-17T00:12:11Z</time>
<desc><![CDATA[lat.=36.689766, lon.=137.779759, Alt.=2236.613495m. Speed=3.000000m/h.]]></desc>
</trkpt>
<trkpt lat="36.689778" lon="137.779720">
<ele>2236.507136</ele>
<time>2014-08-17T00:12:16Z</time>
<desc><![CDATA[lat.=36.689778, lon.=137.779720, Alt.=2236.507136m. Speed=3.000000m/h.]]></desc>
</trkpt>
<trkpt lat="36.689790" lon="137.779681">
<ele>2236.400779</ele>
<time>2014-08-17T00:12:21Z</time>
<desc><![CDATA[lat.=36.689790, lon.=137.779681, Alt.=2236.400779m. Speed=3.000000m/h.]]></desc>
</trkpt>
<trkpt lat="36.689828" lon="137.779685">
<ele>2230.737289</ele>
<time>2014-08-17T00:12:26Z</time>
<desc><![CDATA[lat.=36.689828, lon.=137.779685, Alt.=2230.737289m. Speed=2.000000m/h.]]></desc>
</trkpt>
<trkpt lat="36.689836" lon="137.779653">
<ele>2231.224781</ele>
<time>2014-08-17T00:12:31Z</time>
<desc><![CDATA[lat.=36.689836, lon.=137.779653, Alt.=2231.224781m. Speed=3.000000m/h.]]></desc>
</trkpt>
<trkpt lat="36.689855" lon="137.779599">
<ele>2231.660918</ele>
<time>2014-08-17T00:12:36Z</time>
<desc><![CDATA[lat.=36.689855, lon.=137.779599, Alt.=2231.660918m. Speed=3.000000m/h.]]></desc>
</trkpt>
<trkpt lat="36.689886" lon="137.779568">
<ele>2230.480504</ele>
<time>2014-08-17T00:12:41Z</time>
<desc><![CDATA[lat.=36.689886, lon.=137.779568, Alt.=2230.480504m. Speed=3.000000m/h.]]></desc>
</trkpt>
<trkpt lat="36.689905" lon="137.779545">
<ele>2231.026633</ele>
<time>2014-08-17T00:12:46Z</time>
<desc><![CDATA[lat.=36.689905, lon.=137.779545, Alt.=2231.026633m. Speed=3.000000m/h.]]></desc>
</trkpt>
<trkpt lat="36.689923" lon="137.779537">
<ele>2233.357937</ele>
<time>2014-08-17T00:12:51Z</time>
<desc><![CDATA[lat.=36.689923, lon.=137.779537, Alt.=2233.357937m. Speed=2.000000m/h.]]></desc>
</trkpt>
<trkpt lat="36.689934" lon="137.779497">
<ele>2234.981773</ele>
<time>2014-08-17T00:12:56Z</time>
<desc><![CDATA[lat.=36.689934, lon.=137.779497, Alt.=2234.981773m. Speed=2.000000m/h.]]></desc>
</trkpt>
<trkpt lat="36.689950" lon="137.779467">
<ele>2232.606398</ele>
<time>2014-08-17T00:13:01Z</time>
<desc><![CDATA[lat.=36.689950, lon.=137.779467, Alt.=2232.606398m. Speed=2.000000m/h.]]></desc>
</trkpt>
<trkpt lat="36.689932" lon="137.779393">
<ele>2236.920862</ele>
<time>2014-08-17T00:13:06Z</time>
<desc><![CDATA[lat.=36.689932, lon.=137.779393, Alt.=2236.920862m. Speed=3.000000m/h.]]></desc>
</trkpt>
<trkpt lat="36.689945" lon="137.779339">
<ele>2235.029355</ele>
<time>2014-08-17T00:13:11Z</time>
<desc><![CDATA[lat.=36.689945, lon.=137.779339, Alt.=2235.029355m. Speed=3.000000m/h.]]></desc>
</trkpt>
<trkpt lat="36.689939" lon="137.779291">
<ele>2235.997087</ele>
<time>2014-08-17T00:13:16Z</time>
<desc><![CDATA[lat.=36.689939, lon.=137.779291, Alt.=2235.997087m. Speed=3.000000m/h.]]></desc>
</trkpt>
<trkpt lat="36.689936" lon="137.779234">
<ele>2238.101161</ele>
<time>2014-08-17T00:13:21Z</time>
<desc><![CDATA[lat.=36.689936, lon.=137.779234, Alt.=2238.101161m. Speed=3.000000m/h.]]></desc>
</trkpt>
<trkpt lat="36.689937" lon="137.779187">
<ele>2237.936203</ele>
<time>2014-08-17T00:13:26Z</time>
<desc><![CDATA[lat.=36.689937, lon.=137.779187, Alt.=2237.936203m. Speed=3.000000m/h.]]></desc>
</trkpt>
<trkpt lat="36.689938" lon="137.779140">
<ele>2237.771247</ele>
<time>2014-08-17T00:13:31Z</time>
<desc><![CDATA[lat.=36.689938, lon.=137.779140, Alt.=2237.771247m. Speed=3.000000m/h.]]></desc>
</trkpt>
<trkpt lat="36.689942" lon="137.779100">
<ele>2238.797619</ele>
<time>2014-08-17T00:13:36Z</time>
<desc><![CDATA[lat.=36.689942, lon.=137.779100, Alt.=2238.797619m. Speed=3.000000m/h.]]></desc>
</trkpt>
<trkpt lat="36.689946" lon="137.779042">
<ele>2243.229372</ele>
<time>2014-08-17T00:13:41Z</time>
<desc><![CDATA[lat.=36.689946, lon.=137.779042, Alt.=2243.229372m. Speed=3.000000m/h.]]></desc>
</trkpt>
<trkpt lat="36.689947" lon="137.778995">
<ele>2243.064425</ele>
<time>2014-08-17T00:13:46Z</time>
<desc><![CDATA[lat.=36.689947, lon.=137.778995, Alt.=2243.064425m. Speed=3.000000m/h.]]></desc>
</trkpt>
<trkpt lat="36.689941" lon="137.778948">
<ele>2242.301996</ele>
<time>2014-08-17T00:13:51Z</time>
<desc><![CDATA[lat.=36.689941, lon.=137.778948, Alt.=2242.301996m. Speed=3.000000m/h.]]></desc>
</trkpt>
<trkpt lat="36.689950" lon="137.778917">
<ele>2241.059338</ele>
<time>2014-08-17T00:13:56Z</time>
<desc><![CDATA[lat.=36.689950, lon.=137.778917, Alt.=2241.059338m. Speed=3.000000m/h.]]></desc>
</trkpt>
<trkpt lat="36.689947" lon="137.778878">
<ele>2239.758055</ele>
<time>2014-08-17T00:14:01Z</time>
<desc><![CDATA[lat.=36.689947, lon.=137.778878, Alt.=2239.758055m. Speed=3.000000m/h.]]></desc>
</trkpt>
<trkpt lat="36.689936" lon="137.778836">
<ele>2243.049834</ele>
<time>2014-08-17T00:14:06Z</time>
<desc><![CDATA[lat.=36.689936, lon.=137.778836, Alt.=2243.049834m. Speed=3.000000m/h.]]></desc>
</trkpt>
<trkpt lat="36.689930" lon="137.778805">
<ele>2242.342393</ele>
<time>2014-08-17T00:14:11Z</time>
<desc><![CDATA[lat.=36.689930, lon.=137.778805, Alt.=2242.342393m. Speed=3.000000m/h.]]></desc>
</trkpt>
<trkpt lat="36.689930" lon="137.778773">
<ele>2242.232437</ele>
<time>2014-08-17T00:14:16Z</time>
<desc><![CDATA[lat.=36.689930, lon.=137.778773, Alt.=2242.232437m. Speed=3.000000m/h.]]></desc>
</trkpt>
<trkpt lat="36.689906" lon="137.778732">
<ele>2242.599072</ele>
<time>2014-08-17T00:14:21Z</time>
<desc><![CDATA[lat.=36.689906, lon.=137.778732, Alt.=2242.599072m. Speed=3.000000m/h.]]></desc>
</trkpt>
<trkpt lat="36.689896" lon="137.778710">
<ele>2239.025110</ele>
<time>2014-08-17T00:14:26Z</time>
<desc><![CDATA[lat.=36.689896, lon.=137.778710, Alt.=2239.025110m. Speed=2.000000m/h.]]></desc>
</trkpt>
<trkpt lat="36.689885" lon="137.778669">
<ele>2240.586717</ele>
<time>2014-08-17T00:14:31Z</time>
<desc><![CDATA[lat.=36.689885, lon.=137.778669, Alt.=2240.586717m. Speed=3.000000m/h.]]></desc>
</trkpt>
<trkpt lat="36.689905" lon="137.778631">
<ele>2239.347716</ele>
<time>2014-08-17T00:14:36Z</time>
<desc><![CDATA[lat.=36.689905, lon.=137.778631, Alt.=2239.347716m. Speed=2.000000m/h.]]></desc>
</trkpt>
<trkpt lat="36.689886" lon="137.778605">
<ele>2242.096999</ele>
<time>2014-08-17T00:14:41Z</time>
<desc><![CDATA[lat.=36.689886, lon.=137.778605, Alt.=2242.096999m. Speed=2.000000m/h.]]></desc>
</trkpt>
<trkpt lat="36.689886" lon="137.778572">
<ele>2245.447414</ele>
<time>2014-08-17T00:14:46Z</time>
<desc><![CDATA[lat.=36.689886, lon.=137.778572, Alt.=2245.447414m. Speed=2.000000m/h.]]></desc>
</trkpt>
<trkpt lat="36.689917" lon="137.778575">
<ele>2240.916623</ele>
<time>2014-08-17T00:14:51Z</time>
<desc><![CDATA[lat.=36.689917, lon.=137.778575, Alt.=2240.916623m. Speed=1.000000m/h.]]></desc>
</trkpt>
<trkpt lat="36.689898" lon="137.778550">
<ele>2243.665907</ele>
<time>2014-08-17T00:14:56Z</time>
<desc><![CDATA[lat.=36.689898, lon.=137.778550, Alt.=2243.665907m. Speed=1.000000m/h.]]></desc>
</trkpt>
<trkpt lat="36.689894" lon="137.778556">
<ele>2245.989925</ele>
<time>2014-08-17T00:15:01Z</time>
<desc><![CDATA[lat.=36.689894, lon.=137.778556, Alt.=2245.989925m. Speed=0.000000m/h.]]></desc>
</trkpt>
<trkpt lat="36.689884" lon="137.778532">
<ele>2245.876330</ele>
<time>2014-08-17T00:15:06Z</time>
<desc><![CDATA[lat.=36.689884, lon.=137.778532, Alt.=2245.876330m. Speed=1.000000m/h.]]></desc>
</trkpt>
<trkpt lat="36.689887" lon="137.778523">
<ele>2248.742858</ele>
<time>2014-08-17T00:15:11Z</time>
<desc><![CDATA[lat.=36.689887, lon.=137.778523, Alt.=2248.742858m. Speed=1.000000m/h.]]></desc>
</trkpt>
<trkpt lat="36.689906" lon="137.778500">
<ele>2249.289018</ele>
<time>2014-08-17T00:15:16Z</time>
<desc><![CDATA[lat.=36.689906, lon.=137.778500, Alt.=2249.289018m. Speed=1.000000m/h.]]></desc>
</trkpt>
<trkpt lat="36.689924" lon="137.778477">
<ele>2249.835180</ele>
<time>2014-08-17T00:15:21Z</time>
<desc><![CDATA[lat.=36.689924, lon.=137.778477, Alt.=2249.835180m. Speed=1.000000m/h.]]></desc>
</trkpt>
<trkpt lat="36.689940" lon="137.778462">
<ele>2249.244995</ele>
<time>2014-08-17T00:15:26Z</time>
<desc><![CDATA[lat.=36.689940, lon.=137.778462, Alt.=2249.244995m. Speed=1.000000m/h.]]></desc>
</trkpt>
<trkpt lat="36.689947" lon="137.778446">
<ele>2249.787508</ele>
<time>2014-08-17T00:15:31Z</time>
<desc><![CDATA[lat.=36.689947, lon.=137.778446, Alt.=2249.787508m. Speed=1.000000m/h.]]></desc>
</trkpt>
<trkpt lat="36.689944" lon="137.778421">
<ele>2252.001582</ele>
<time>2014-08-17T00:15:36Z</time>
<desc><![CDATA[lat.=36.689944, lon.=137.778421, Alt.=2252.001582m. Speed=2.000000m/h.]]></desc>
</trkpt>
<trkpt lat="36.689926" lon="137.778380">
<ele>2252.965719</ele>
<time>2014-08-17T00:15:41Z</time>
<desc><![CDATA[lat.=36.689926, lon.=137.778380, Alt.=2252.965719m. Speed=2.000000m/h.]]></desc>
</trkpt>
<trkpt lat="36.689919" lon="137.778349">
<ele>2252.258296</ele>
<time>2014-08-17T00:15:46Z</time>
<desc><![CDATA[lat.=36.689919, lon.=137.778349, Alt.=2252.258296m. Speed=2.000000m/h.]]></desc>
</trkpt>
<trkpt lat="36.689924" lon="137.778309">
<ele>2253.284707</ele>
<time>2014-08-17T00:15:51Z</time>
<desc><![CDATA[lat.=36.689924, lon.=137.778309, Alt.=2253.284707m. Speed=2.000000m/h.]]></desc>
</trkpt>
<trkpt lat="36.689918" lon="137.778278">
<ele>2250.847105</ele>
<time>2014-08-17T00:15:56Z</time>
<desc><![CDATA[lat.=36.689918, lon.=137.778278, Alt.=2250.847105m. Speed=2.000000m/h.]]></desc>
</trkpt>
<trkpt lat="36.689922" lon="137.778239">
<ele>2250.143338</ele>
<time>2014-08-17T00:16:01Z</time>
<desc><![CDATA[lat.=36.689922, lon.=137.778239, Alt.=2250.143338m. Speed=2.000000m/h.]]></desc>
</trkpt>
<trkpt lat="36.689891" lon="137.778216">
<ele>2246.507119</ele>
<time>2014-08-17T00:16:06Z</time>
<desc><![CDATA[lat.=36.689891, lon.=137.778216, Alt.=2246.507119m. Speed=2.000000m/h.]]></desc>
</trkpt>
<trkpt lat="36.689844" lon="137.778174">
<ele>2246.811517</ele>
<time>2014-08-17T00:16:11Z</time>
<desc><![CDATA[lat.=36.689844, lon.=137.778174, Alt.=2246.811517m. Speed=3.000000m/h.]]></desc>
</trkpt>
<trkpt lat="36.689855" lon="137.778118">
<ele>2248.380455</ele>
<time>2014-08-17T00:16:16Z</time>
<desc><![CDATA[lat.=36.689855, lon.=137.778118, Alt.=2248.380455m. Speed=3.000000m/h.]]></desc>
</trkpt>
<trkpt lat="36.689860" lon="137.778063">
<ele>2249.351913</ele>
<time>2014-08-17T00:16:21Z</time>
<desc><![CDATA[lat.=36.689860, lon.=137.778063, Alt.=2249.351913m. Speed=3.000000m/h.]]></desc>
</trkpt>
<trkpt lat="36.689880" lon="137.778024">
<ele>2248.112941</ele>
<time>2014-08-17T00:16:26Z</time>
<desc><![CDATA[lat.=36.689880, lon.=137.778024, Alt.=2248.112941m. Speed=3.000000m/h.]]></desc>
</trkpt>
<trkpt lat="36.689901" lon="137.778007">
<ele>2253.310793</ele>
<time>2014-08-17T00:16:31Z</time>
<desc><![CDATA[lat.=36.689901, lon.=137.778007, Alt.=2253.310793m. Speed=2.000000m/h.]]></desc>
</trkpt>
<trkpt lat="36.689920" lon="137.778000">
<ele>2252.181749</ele>
<time>2014-08-17T00:16:36Z</time>
<desc><![CDATA[lat.=36.689920, lon.=137.778000, Alt.=2252.181749m. Speed=2.000000m/h.]]></desc>
</trkpt>
<trkpt lat="36.689917" lon="137.777960">
<ele>2252.610693</ele>
<time>2014-08-17T00:16:41Z</time>
<desc><![CDATA[lat.=36.689917, lon.=137.777960, Alt.=2252.610693m. Speed=2.000000m/h.]]></desc>
</trkpt>
<trkpt lat="36.689909" lon="137.777943">
<ele>2255.418612</ele>
<time>2014-08-17T00:16:46Z</time>
<desc><![CDATA[lat.=36.689909, lon.=137.777943, Alt.=2255.418612m. Speed=0.000000m/h.]]></desc>
</trkpt>
<trkpt lat="36.689906" lon="137.777935">
<ele>2255.957481</ele>
<time>2014-08-17T00:16:51Z</time>
<desc><![CDATA[lat.=36.689906, lon.=137.777935, Alt.=2255.957481m. Speed=0.000000m/h.]]></desc>
</trkpt>
<trkpt lat="36.689898" lon="137.777951">
<ele>2255.414958</ele>
<time>2014-08-17T00:16:56Z</time>
<desc><![CDATA[lat.=36.689898, lon.=137.777951, Alt.=2255.414958m. Speed=0.000000m/h.]]></desc>
</trkpt>
<trkpt lat="36.689906" lon="137.777920">
<ele>2254.172338</ele>
<time>2014-08-17T00:17:01Z</time>
<desc><![CDATA[lat.=36.689906, lon.=137.777920, Alt.=2254.172338m. Speed=2.000000m/h.]]></desc>
</trkpt>
<trkpt lat="36.689906" lon="137.777887">
<ele>2257.522782</ele>
<time>2014-08-17T00:17:06Z</time>
<desc><![CDATA[lat.=36.689906, lon.=137.777887, Alt.=2257.522782m. Speed=2.000000m/h.]]></desc>
</trkpt>
<trkpt lat="36.689926" lon="137.777865">
<ele>2254.608597</ele>
<time>2014-08-17T00:17:11Z</time>
<desc><![CDATA[lat.=36.689926, lon.=137.777865, Alt.=2254.608597m. Speed=2.000000m/h.]]></desc>
</trkpt>
<trkpt lat="36.689908" lon="137.777824">
<ele>2255.572762</ele>
<time>2014-08-17T00:17:16Z</time>
<desc><![CDATA[lat.=36.689908, lon.=137.777824, Alt.=2255.572762m. Speed=2.000000m/h.]]></desc>
</trkpt>
<trkpt lat="36.689905" lon="137.777784">
<ele>2257.731898</ele>
<time>2014-08-17T00:17:21Z</time>
<desc><![CDATA[lat.=36.689905, lon.=137.777784, Alt.=2257.731898m. Speed=2.000000m/h.]]></desc>
</trkpt>
<trkpt lat="36.689902" lon="137.777744">
<ele>2258.160853</ele>
<time>2014-08-17T00:17:26Z</time>
<desc><![CDATA[lat.=36.689902, lon.=137.777744, Alt.=2258.160853m. Speed=2.000000m/h.]]></desc>
</trkpt>
<trkpt lat="36.689889" lon="137.777713">
<ele>2255.125789</ele>
<time>2014-08-17T00:17:31Z</time>
<desc><![CDATA[lat.=36.689889, lon.=137.777713, Alt.=2255.125789m. Speed=2.000000m/h.]]></desc>
</trkpt>
<trkpt lat="36.689871" lon="137.777688">
<ele>2256.144920</ele>
<time>2014-08-17T00:17:36Z</time>
<desc><![CDATA[lat.=36.689871, lon.=137.777688, Alt.=2256.144920m. Speed=2.000000m/h.]]></desc>
</trkpt>
<trkpt lat="36.689857" lon="137.777641">
<ele>2254.785086</ele>
<time>2014-08-17T00:17:41Z</time>
<desc><![CDATA[lat.=36.689857, lon.=137.777641, Alt.=2254.785086m. Speed=3.000000m/h.]]></desc>
</trkpt>
<trkpt lat="36.689829" lon="137.777608">
<ele>2254.015427</ele>
<time>2014-08-17T00:17:46Z</time>
<desc><![CDATA[lat.=36.689829, lon.=137.777608, Alt.=2254.015427m. Speed=3.000000m/h.]]></desc>
</trkpt>
<trkpt lat="36.689826" lon="137.777553">
<ele>2254.389438</ele>
<time>2014-08-17T00:17:51Z</time>
<desc><![CDATA[lat.=36.689826, lon.=137.777553, Alt.=2254.389438m. Speed=3.000000m/h.]]></desc>
</trkpt>
<trkpt lat="36.689797" lon="137.777519">
<ele>2255.349967</ele>
<time>2014-08-17T00:17:56Z</time>
<desc><![CDATA[lat.=36.689797, lon.=137.777519, Alt.=2255.349967m. Speed=3.000000m/h.]]></desc>
</trkpt>
<trkpt lat="36.689795" lon="137.777463">
<ele>2257.454167</ele>
<time>2014-08-17T00:18:01Z</time>
<desc><![CDATA[lat.=36.689795, lon.=137.777463, Alt.=2257.454167m. Speed=3.000000m/h.]]></desc>
</trkpt>
<trkpt lat="36.689780" lon="137.777431">
<ele>2257.879482</ele>
<time>2014-08-17T00:18:06Z</time>
<desc><![CDATA[lat.=36.689780, lon.=137.777431, Alt.=2257.879482m. Speed=3.000000m/h.]]></desc>
</trkpt>
<trkpt lat="36.689789" lon="137.777400">
<ele>2256.636880</ele>
<time>2014-08-17T00:18:11Z</time>
<desc><![CDATA[lat.=36.689789, lon.=137.777400, Alt.=2256.636880m. Speed=2.000000m/h.]]></desc>
</trkpt>
<trkpt lat="36.689793" lon="137.777376">
<ele>2257.718287</ele>
<time>2014-08-17T00:18:16Z</time>
<desc><![CDATA[lat.=36.689793, lon.=137.777376, Alt.=2257.718287m. Speed=2.000000m/h.]]></desc>
</trkpt>
<trkpt lat="36.689807" lon="137.777359">
<ele>2260.588485</ele>
<time>2014-08-17T00:18:21Z</time>
<desc><![CDATA[lat.=36.689807, lon.=137.777359, Alt.=2260.588485m. Speed=2.000000m/h.]]></desc>
</trkpt>
<trkpt lat="36.689812" lon="137.777336">
<ele>2259.939711</ele>
<time>2014-08-17T00:18:26Z</time>
<desc><![CDATA[lat.=36.689812, lon.=137.777336, Alt.=2259.939711m. Speed=1.000000m/h.]]></desc>
</trkpt>
<trkpt lat="36.689805" lon="137.777320">
<ele>2259.287279</ele>
<time>2014-08-17T00:18:31Z</time>
<desc><![CDATA[lat.=36.689805, lon.=137.777320, Alt.=2259.287279m. Speed=1.000000m/h.]]></desc>
</trkpt>
<trkpt lat="36.689782" lon="137.777302">
<ele>2262.630432</ele>
<time>2014-08-17T00:18:36Z</time>
<desc><![CDATA[lat.=36.689782, lon.=137.777302, Alt.=2262.630432m. Speed=1.000000m/h.]]></desc>
</trkpt>
<trkpt lat="36.689787" lon="137.777279">
<ele>2261.981659</ele>
<time>2014-08-17T00:18:41Z</time>
<desc><![CDATA[lat.=36.689787, lon.=137.777279, Alt.=2261.981659m. Speed=1.000000m/h.]]></desc>
</trkpt>
<trkpt lat="36.689813" lon="137.777255">
<ele>2263.125335</ele>
<time>2014-08-17T00:18:46Z</time>
<desc><![CDATA[lat.=36.689813, lon.=137.777255, Alt.=2263.125335m. Speed=1.000000m/h.]]></desc>
</trkpt>
<trkpt lat="36.689817" lon="137.777231">
<ele>2264.206746</ele>
<time>2014-08-17T00:18:51Z</time>
<desc><![CDATA[lat.=36.689817, lon.=137.777231, Alt.=2264.206746m. Speed=1.000000m/h.]]></desc>
</trkpt>
<trkpt lat="36.689799" lon="137.777206">
<ele>2265.225894</ele>
<time>2014-08-17T00:18:56Z</time>
<desc><![CDATA[lat.=36.689799, lon.=137.777206, Alt.=2265.225894m. Speed=1.000000m/h.]]></desc>
</trkpt>
<trkpt lat="36.689818" lon="137.777185">
<ele>2262.311723</ele>
<time>2014-08-17T00:19:01Z</time>
<desc><![CDATA[lat.=36.689818, lon.=137.777185, Alt.=2262.311723m. Speed=2.000000m/h.]]></desc>
</trkpt>
<trkpt lat="36.689840" lon="137.777169">
<ele>2264.049226</ele>
<time>2014-08-17T00:19:06Z</time>
<desc><![CDATA[lat.=36.689840, lon.=137.777169, Alt.=2264.049226m. Speed=0.000000m/h.]]></desc>
</trkpt>
<trkpt lat="36.689847" lon="137.777152">
<ele>2266.321946</ele>
<time>2014-08-17T00:19:11Z</time>
<desc><![CDATA[lat.=36.689847, lon.=137.777152, Alt.=2266.321946m. Speed=1.000000m/h.]]></desc>
</trkpt>
<trkpt lat="36.689848" lon="137.777120">
<ele>2267.942239</ele>
<time>2014-08-17T00:19:16Z</time>
<desc><![CDATA[lat.=36.689848, lon.=137.777120, Alt.=2267.942239m. Speed=1.000000m/h.]]></desc>
</trkpt>
<trkpt lat="36.689840" lon="137.777102">
<ele>2270.750177</ele>
<time>2014-08-17T00:19:21Z</time>
<desc><![CDATA[lat.=36.689840, lon.=137.777102, Alt.=2270.750177m. Speed=1.000000m/h.]]></desc>
</trkpt>
<trkpt lat="36.689837" lon="137.777078">
<ele>2272.964294</ele>
<time>2014-08-17T00:19:26Z</time>
<desc><![CDATA[lat.=36.689837, lon.=137.777078, Alt.=2272.964294m. Speed=1.000000m/h.]]></desc>
</trkpt>
<trkpt lat="36.689848" lon="137.777070">
<ele>2272.967955</ele>
<time>2014-08-17T00:19:31Z</time>
<desc><![CDATA[lat.=36.689848, lon.=137.777070, Alt.=2272.967955m. Speed=0.000000m/h.]]></desc>
</trkpt>
<trkpt lat="36.689856" lon="137.777072">
<ele>2270.105072</ele>
<time>2014-08-17T00:19:36Z</time>
<desc><![CDATA[lat.=36.689856, lon.=137.777072, Alt.=2270.105072m. Speed=0.000000m/h.]]></desc>
</trkpt>
<trkpt lat="36.689861" lon="137.777033">
<ele>2267.671180</ele>
<time>2014-08-17T00:19:41Z</time>
<desc><![CDATA[lat.=36.689861, lon.=137.777033, Alt.=2267.671180m. Speed=2.000000m/h.]]></desc>
</trkpt>
<trkpt lat="36.689825" lon="137.776984">
<ele>2269.709486</ele>
<time>2014-08-17T00:19:46Z</time>
<desc><![CDATA[lat.=36.689825, lon.=137.776984, Alt.=2269.709486m. Speed=2.000000m/h.]]></desc>
</trkpt>
<trkpt lat="36.689799" lon="137.776942">
<ele>2271.806400</ele>
<time>2014-08-17T00:19:51Z</time>
<desc><![CDATA[lat.=36.689799, lon.=137.776942, Alt.=2271.806400m. Speed=2.000000m/h.]]></desc>
</trkpt>
<trkpt lat="36.689786" lon="137.776895">
<ele>2270.446613</ele>
<time>2014-08-17T00:19:56Z</time>
<desc><![CDATA[lat.=36.689786, lon.=137.776895, Alt.=2270.446613m. Speed=3.000000m/h.]]></desc>
</trkpt>
<trkpt lat="36.689784" lon="137.776856">
<ele>2269.145430</ele>
<time>2014-08-17T00:20:01Z</time>
<desc><![CDATA[lat.=36.689784, lon.=137.776856, Alt.=2269.145430m. Speed=2.000000m/h.]]></desc>
</trkpt>
<trkpt lat="36.689769" lon="137.776838">
<ele>2271.355893</ele>
<time>2014-08-17T00:20:06Z</time>
<desc><![CDATA[lat.=36.689769, lon.=137.776838, Alt.=2271.355893m. Speed=2.000000m/h.]]></desc>
</trkpt>
<trkpt lat="36.689765" lon="137.776813">
<ele>2273.570018</ele>
<time>2014-08-17T00:20:11Z</time>
<desc><![CDATA[lat.=36.689765, lon.=137.776813, Alt.=2273.570018m. Speed=1.000000m/h.]]></desc>
</trkpt>
<trkpt lat="36.689768" lon="137.776821">
<ele>2274.761320</ele>
<time>2014-08-17T00:20:16Z</time>
<desc><![CDATA[lat.=36.689768, lon.=137.776821, Alt.=2274.761320m. Speed=0.000000m/h.]]></desc>
</trkpt>
<trkpt lat="36.689757" lon="137.776812">
<ele>2276.432903</ele>
<time>2014-08-17T00:20:21Z</time>
<desc><![CDATA[lat.=36.689757, lon.=137.776812, Alt.=2276.432903m. Speed=1.000000m/h.]]></desc>
</trkpt>
<trkpt lat="36.689736" lon="137.776780">
<ele>2276.260764</ele>
<time>2014-08-17T00:20:26Z</time>
<desc><![CDATA[lat.=36.689736, lon.=137.776780, Alt.=2276.260764m. Speed=2.000000m/h.]]></desc>
</trkpt>
<trkpt lat="36.689735" lon="137.776761">
<ele>2281.396377</ele>
<time>2014-08-17T00:20:31Z</time>
<desc><![CDATA[lat.=36.689735, lon.=137.776761, Alt.=2281.396377m. Speed=1.000000m/h.]]></desc>
</trkpt>
<trkpt lat="36.689731" lon="137.776753">
<ele>2281.935259</ele>
<time>2014-08-17T00:20:40Z</time>
<desc><![CDATA[lat.=36.689731, lon.=137.776753, Alt.=2281.935259m. Speed=1.000000m/h.]]></desc>
</trkpt>
<trkpt lat="36.689728" lon="137.776729">
<ele>2282.419203</ele>
<time>2014-08-17T00:20:45Z</time>
<desc><![CDATA[lat.=36.689728, lon.=137.776729, Alt.=2282.419203m. Speed=1.000000m/h.]]></desc>
</trkpt>
<trkpt lat="36.689718" lon="137.776722">
<ele>2280.630421</ele>
<time>2014-08-17T00:20:50Z</time>
<desc><![CDATA[lat.=36.689718, lon.=137.776722, Alt.=2280.630421m. Speed=1.000000m/h.]]></desc>
</trkpt>
<trkpt lat="36.689708" lon="137.776699">
<ele>2277.056519</ele>
<time>2014-08-17T00:20:55Z</time>
<desc><![CDATA[lat.=36.689708, lon.=137.776699, Alt.=2277.056519m. Speed=1.000000m/h.]]></desc>
</trkpt>
<trkpt lat="36.689708" lon="137.776667">
<ele>2278.676830</ele>
<time>2014-08-17T00:21:00Z</time>
<desc><![CDATA[lat.=36.689708, lon.=137.776667, Alt.=2278.676830m. Speed=1.000000m/h.]]></desc>
</trkpt>
<trkpt lat="36.689709" lon="137.776619">
<ele>2280.242207</ele>
<time>2014-08-17T00:21:05Z</time>
<desc><![CDATA[lat.=36.689709, lon.=137.776619, Alt.=2280.242207m. Speed=2.000000m/h.]]></desc>
</trkpt>
<trkpt lat="36.689717" lon="137.776586">
<ele>2282.460002</ele>
<time>2014-08-17T00:21:10Z</time>
<desc><![CDATA[lat.=36.689717, lon.=137.776586, Alt.=2282.460002m. Speed=1.000000m/h.]]></desc>
</trkpt>
<trkpt lat="36.689710" lon="137.776570">
<ele>2281.807586</ele>
<time>2014-08-17T00:21:15Z</time>
<desc><![CDATA[lat.=36.689710, lon.=137.776570, Alt.=2281.807586m. Speed=2.000000m/h.]]></desc>
</trkpt>
<trkpt lat="36.689688" lon="137.776537">
<ele>2283.365643</ele>
<time>2014-08-17T00:21:20Z</time>
<desc><![CDATA[lat.=36.689688, lon.=137.776537, Alt.=2283.365643m. Speed=2.000000m/h.]]></desc>
</trkpt>
<trkpt lat="36.689666" lon="137.776503">
<ele>2286.653886</ele>
<time>2014-08-17T00:21:25Z</time>
<desc><![CDATA[lat.=36.689666, lon.=137.776503, Alt.=2286.653886m. Speed=2.000000m/h.]]></desc>
</trkpt>
<trkpt lat="36.689663" lon="137.776481">
<ele>2283.677471</ele>
<time>2014-08-17T00:21:30Z</time>
<desc><![CDATA[lat.=36.689663, lon.=137.776481, Alt.=2283.677471m. Speed=2.000000m/h.]]></desc>
</trkpt>
<trkpt lat="36.689687" lon="137.776435">
<ele>2281.844750</ele>
<time>2014-08-17T00:21:35Z</time>
<desc><![CDATA[lat.=36.689687, lon.=137.776435, Alt.=2281.844750m. Speed=2.000000m/h.]]></desc>
</trkpt>
<trkpt lat="36.689688" lon="137.776403">
<ele>2281.734888</ele>
<time>2014-08-17T00:21:40Z</time>
<desc><![CDATA[lat.=36.689688, lon.=137.776403, Alt.=2281.734888m. Speed=2.000000m/h.]]></desc>
</trkpt>
<trkpt lat="36.689689" lon="137.776372">
<ele>2281.625027</ele>
<time>2014-08-17T00:21:45Z</time>
<desc><![CDATA[lat.=36.689689, lon.=137.776372, Alt.=2281.625027m. Speed=2.000000m/h.]]></desc>
</trkpt>
<trkpt lat="36.689671" lon="137.776348">
<ele>2280.914022</ele>
<time>2014-08-17T00:21:50Z</time>
<desc><![CDATA[lat.=36.689671, lon.=137.776348, Alt.=2280.914022m. Speed=2.000000m/h.]]></desc>
</trkpt>
<trkpt lat="36.689701" lon="137.776318">
<ele>2279.733719</ele>
<time>2014-08-17T00:21:55Z</time>
<desc><![CDATA[lat.=36.689701, lon.=137.776318, Alt.=2279.733719m. Speed=1.000000m/h.]]></desc>
</trkpt>
<trkpt lat="36.689702" lon="137.776285">
<ele>2281.354045</ele>
<time>2014-08-17T00:22:00Z</time>
<desc><![CDATA[lat.=36.689702, lon.=137.776285, Alt.=2281.354045m. Speed=1.000000m/h.]]></desc>
</trkpt>
<trkpt lat="36.689672" lon="137.776266">
<ele>2285.829929</ele>
<time>2014-08-17T00:22:05Z</time>
<desc><![CDATA[lat.=36.689672, lon.=137.776266, Alt.=2285.829929m. Speed=2.000000m/h.]]></desc>
</trkpt>
<trkpt lat="36.689689" lon="137.776241">
<ele>2291.566699</ele>
<time>2014-08-17T00:22:10Z</time>
<desc><![CDATA[lat.=36.689689, lon.=137.776241, Alt.=2291.566699m. Speed=1.000000m/h.]]></desc>
</trkpt>
<trkpt lat="36.689682" lon="137.776240">
<ele>2292.699402</ele>
<time>2014-08-17T00:22:15Z</time>
<desc><![CDATA[lat.=36.689682, lon.=137.776240, Alt.=2292.699402m. Speed=0.000000m/h.]]></desc>
</trkpt>
<trkpt lat="36.689674" lon="137.776223">
<ele>2293.777177</ele>
<time>2014-08-17T00:22:20Z</time>
<desc><![CDATA[lat.=36.689674, lon.=137.776223, Alt.=2293.777177m. Speed=1.000000m/h.]]></desc>
</trkpt>
<trkpt lat="36.689690" lon="137.776208">
<ele>2293.187028</ele>
<time>2014-08-17T00:22:25Z</time>
<desc><![CDATA[lat.=36.689690, lon.=137.776208, Alt.=2293.187028m. Speed=1.000000m/h.]]></desc>
</trkpt>
<trkpt lat="36.689738" lon="137.776186">
<ele>2294.392990</ele>
<time>2014-08-17T00:22:30Z</time>
<desc><![CDATA[lat.=36.689738, lon.=137.776186, Alt.=2294.392990m. Speed=0.000000m/h.]]></desc>
</trkpt>
<trkpt lat="36.689749" lon="137.776178">
<ele>2294.396657</ele>
<time>2014-08-17T00:22:35Z</time>
<desc><![CDATA[lat.=36.689749, lon.=137.776178, Alt.=2294.396657m. Speed=0.000000m/h.]]></desc>
</trkpt>
<trkpt lat="36.689768" lon="137.776172">
<ele>2293.267622</ele>
<time>2014-08-17T00:22:41Z</time>
<desc><![CDATA[lat.=36.689768, lon.=137.776172, Alt.=2293.267622m. Speed=1.000000m/h.]]></desc>
</trkpt>
<trkpt lat="36.689794" lon="137.776165">
<ele>2292.736071</ele>
<time>2014-08-17T00:22:46Z</time>
<desc><![CDATA[lat.=36.689794, lon.=137.776165, Alt.=2292.736071m. Speed=1.000000m/h.]]></desc>
</trkpt>
<trkpt lat="36.689822" lon="137.776181">
<ele>2295.180927</ele>
<time>2014-08-17T00:22:51Z</time>
<desc><![CDATA[lat.=36.689822, lon.=137.776181, Alt.=2295.180927m. Speed=2.000000m/h.]]></desc>
</trkpt>
<trkpt lat="36.689840" lon="137.776172">
<ele>2299.242447</ele>
<time>2014-08-17T00:22:56Z</time>
<desc><![CDATA[lat.=36.689840, lon.=137.776172, Alt.=2299.242447m. Speed=1.000000m/h.]]></desc>
</trkpt>
<trkpt lat="36.689839" lon="137.776171">
<ele>2300.972631</ele>
<time>2014-08-17T00:23:01Z</time>
<desc><![CDATA[lat.=36.689839, lon.=137.776171, Alt.=2300.972631m. Speed=1.000000m/h.]]></desc>
</trkpt>
<trkpt lat="36.689843" lon="137.776178">
<ele>2302.163927</ele>
<time>2014-08-17T00:23:06Z</time>
<desc><![CDATA[lat.=36.689843, lon.=137.776178, Alt.=2302.163927m. Speed=0.000000m/h.]]></desc>
</trkpt>
<trkpt lat="36.689850" lon="137.776178">
<ele>2302.761410</ele>
<time>2014-08-17T00:23:14Z</time>
<desc><![CDATA[lat.=36.689850, lon.=137.776178, Alt.=2302.761410m. Speed=0.000000m/h.]]></desc>
</trkpt>
<trkpt lat="36.689868" lon="137.776171">
<ele>2303.362564</ele>
<time>2014-08-17T00:23:19Z</time>
<desc><![CDATA[lat.=36.689868, lon.=137.776171, Alt.=2303.362564m. Speed=0.000000m/h.]]></desc>
</trkpt>
<trkpt lat="36.689871" lon="137.776178">
<ele>2306.284044</ele>
<time>2014-08-17T00:23:24Z</time>
<desc><![CDATA[lat.=36.689871, lon.=137.776178, Alt.=2306.284044m. Speed=0.000000m/h.]]></desc>
</trkpt>
<trkpt lat="36.689886" lon="137.776178">
<ele>2305.748827</ele>
<time>2014-08-17T00:23:30Z</time>
<desc><![CDATA[lat.=36.689886, lon.=137.776178, Alt.=2305.748827m. Speed=1.000000m/h.]]></desc>
</trkpt>
<trkpt lat="36.689920" lon="137.776172">
<ele>2304.084582</ele>
<time>2014-08-17T00:23:35Z</time>
<desc><![CDATA[lat.=36.689920, lon.=137.776172, Alt.=2304.084582m. Speed=2.000000m/h.]]></desc>
</trkpt>
<trkpt lat="36.689945" lon="137.776164">
<ele>2307.013406</ele>
<time>2014-08-17T00:23:40Z</time>
<desc><![CDATA[lat.=36.689945, lon.=137.776164, Alt.=2307.013406m. Speed=1.000000m/h.]]></desc>
</trkpt>
<trkpt lat="36.689953" lon="137.776165">
<ele>2305.880706</ele>
<time>2014-08-17T00:23:45Z</time>
<desc><![CDATA[lat.=36.689953, lon.=137.776165, Alt.=2305.880706m. Speed=0.000000m/h.]]></desc>
</trkpt>
<trkpt lat="36.689945" lon="137.776165">
<ele>2305.283222</ele>
<time>2014-08-17T00:23:51Z</time>
<desc><![CDATA[lat.=36.689945, lon.=137.776165, Alt.=2305.283222m. Speed=0.000000m/h.]]></desc>
</trkpt>
<trkpt lat="36.689906" lon="137.776140">
<ele>2304.509946</ele>
<time>2014-08-17T00:23:56Z</time>
<desc><![CDATA[lat.=36.689906, lon.=137.776140, Alt.=2304.509946m. Speed=2.000000m/h.]]></desc>
</trkpt>
<trkpt lat="36.689888" lon="137.776100">
<ele>2303.744016</ele>
<time>2014-08-17T00:24:01Z</time>
<desc><![CDATA[lat.=36.689888, lon.=137.776100, Alt.=2303.744016m. Speed=3.000000m/h.]]></desc>
</trkpt>
<trkpt lat="36.689871" lon="137.776076">
<ele>2303.033013</ele>
<time>2014-08-17T00:24:06Z</time>
<desc><![CDATA[lat.=36.689871, lon.=137.776076, Alt.=2303.033013m. Speed=2.000000m/h.]]></desc>
</trkpt>
<trkpt lat="36.689857" lon="137.776044">
<ele>2303.458382</ele>
<time>2014-08-17T00:24:11Z</time>
<desc><![CDATA[lat.=36.689857, lon.=137.776044, Alt.=2303.458382m. Speed=2.000000m/h.]]></desc>
</trkpt>
<trkpt lat="36.689850" lon="137.776011">
<ele>2304.481236</ele>
<time>2014-08-17T00:24:16Z</time>
<desc><![CDATA[lat.=36.689850, lon.=137.776011, Alt.=2304.481236m. Speed=2.000000m/h.]]></desc>
</trkpt>
<trkpt lat="36.689842" lon="137.775978">
<ele>2307.234276</ele>
<time>2014-08-17T00:24:21Z</time>
<desc><![CDATA[lat.=36.689842, lon.=137.775978, Alt.=2307.234276m. Speed=2.000000m/h.]]></desc>
</trkpt>
<trkpt lat="36.689844" lon="137.775931">
<ele>2305.339327</ele>
<time>2014-08-17T00:24:26Z</time>
<desc><![CDATA[lat.=36.689844, lon.=137.775931, Alt.=2305.339327m. Speed=2.000000m/h.]]></desc>
</trkpt>
<trkpt lat="36.689841" lon="137.775892">
<ele>2305.768375</ele>
<time>2014-08-17T00:24:31Z</time>
<desc><![CDATA[lat.=36.689841, lon.=137.775892, Alt.=2305.768375m. Speed=1.000000m/h.]]></desc>
</trkpt>
<trkpt lat="36.689842" lon="137.775860">
<ele>2305.658534</ele>
<time>2014-08-17T00:24:36Z</time>
<desc><![CDATA[lat.=36.689842, lon.=137.775860, Alt.=2305.658534m. Speed=2.000000m/h.]]></desc>
</trkpt>
<trkpt lat="36.689857" lon="137.775828">
<ele>2306.743661</ele>
<time>2014-08-17T00:24:41Z</time>
<desc><![CDATA[lat.=36.689857, lon.=137.775828, Alt.=2306.743661m. Speed=1.000000m/h.]]></desc>
</trkpt>
<trkpt lat="36.689869" lon="137.775806">
<ele>2304.962231</ele>
<time>2014-08-17T00:24:46Z</time>
<desc><![CDATA[lat.=36.689869, lon.=137.775806, Alt.=2304.962231m. Speed=1.000000m/h.]]></desc>
</trkpt>
<trkpt lat="36.689855" lon="137.775774">
<ele>2303.657427</ele>
<time>2014-08-17T00:24:51Z</time>
<desc><![CDATA[lat.=36.689855, lon.=137.775774, Alt.=2303.657427m. Speed=2.000000m/h.]]></desc>
</trkpt>
<trkpt lat="36.689870" lon="137.775743">
<ele>2304.742558</ele>
<time>2014-08-17T00:24:56Z</time>
<desc><![CDATA[lat.=36.689870, lon.=137.775743, Alt.=2304.742558m. Speed=1.000000m/h.]]></desc>
</trkpt>
<trkpt lat="36.689856" lon="137.775726">
<ele>2305.222858</ele>
<time>2014-08-17T00:25:01Z</time>
<desc><![CDATA[lat.=36.689856, lon.=137.775726, Alt.=2305.222858m. Speed=1.000000m/h.]]></desc>
</trkpt>
<trkpt lat="36.689852" lon="137.775701">
<ele>2307.437018</ele>
<time>2014-08-17T00:25:06Z</time>
<desc><![CDATA[lat.=36.689852, lon.=137.775701, Alt.=2307.437018m. Speed=1.000000m/h.]]></desc>
</trkpt>
<trkpt lat="36.689830" lon="137.775684">
<ele>2309.050021</ele>
<time>2014-08-17T00:25:11Z</time>
<desc><![CDATA[lat.=36.689830, lon.=137.775684, Alt.=2309.050021m. Speed=1.000000m/h.]]></desc>
</trkpt>
<trkpt lat="36.689831" lon="137.775652">
<ele>2310.670373</ele>
<time>2014-08-17T00:25:16Z</time>
<desc><![CDATA[lat.=36.689831, lon.=137.775652, Alt.=2310.670373m. Speed=1.000000m/h.]]></desc>
</trkpt>
<trkpt lat="36.689846" lon="137.775620">
<ele>2311.755507</ele>
<time>2014-08-17T00:25:21Z</time>
<desc><![CDATA[lat.=36.689846, lon.=137.775620, Alt.=2311.755507m. Speed=1.000000m/h.]]></desc>
</trkpt>
<trkpt lat="36.689819" lon="137.775593">
<ele>2317.367775</ele>
<time>2014-08-17T00:25:26Z</time>
<desc><![CDATA[lat.=36.689819, lon.=137.775593, Alt.=2317.367775m. Speed=1.000000m/h.]]></desc>
</trkpt>
<trkpt lat="36.689816" lon="137.775553">
<ele>2317.796840</ele>
<time>2014-08-17T00:25:31Z</time>
<desc><![CDATA[lat.=36.689816, lon.=137.775553, Alt.=2317.796840m. Speed=1.000000m/h.]]></desc>
</trkpt>
<trkpt lat="36.689851" lon="137.775515">
<ele>2316.022768</ele>
<time>2014-08-17T00:25:36Z</time>
<desc><![CDATA[lat.=36.689851, lon.=137.775515, Alt.=2316.022768m. Speed=2.000000m/h.]]></desc>
</trkpt>
<trkpt lat="36.689859" lon="137.775484">
<ele>2316.510425</ele>
<time>2014-08-17T00:25:41Z</time>
<desc><![CDATA[lat.=36.689859, lon.=137.775484, Alt.=2316.510425m. Speed=2.000000m/h.]]></desc>
</trkpt>
<trkpt lat="36.689863" lon="137.775460">
<ele>2315.861706</ele>
<time>2014-08-17T00:25:46Z</time>
<desc><![CDATA[lat.=36.689863, lon.=137.775460, Alt.=2315.861706m. Speed=1.000000m/h.]]></desc>
</trkpt>
<trkpt lat="36.689849" lon="137.775445">
<ele>2312.881644</ele>
<time>2014-08-17T00:25:51Z</time>
<desc><![CDATA[lat.=36.689849, lon.=137.775445, Alt.=2312.881644m. Speed=1.000000m/h.]]></desc>
</trkpt>
<trkpt lat="36.689879" lon="137.775430">
<ele>2315.216665</ele>
<time>2014-08-17T00:25:56Z</time>
<desc><![CDATA[lat.=36.689879, lon.=137.775430, Alt.=2315.216665m. Speed=2.000000m/h.]]></desc>
</trkpt>
<trkpt lat="36.689896" lon="137.775421">
<ele>2319.278195</ele>
<time>2014-08-17T00:26:01Z</time>
<desc><![CDATA[lat.=36.689896, lon.=137.775421, Alt.=2319.278195m. Speed=1.000000m/h.]]></desc>
</trkpt>
<trkpt lat="36.689900" lon="137.775396">
<ele>2322.089848</ele>
<time>2014-08-17T00:26:06Z</time>
<desc><![CDATA[lat.=36.689900, lon.=137.775396, Alt.=2322.089848m. Speed=1.000000m/h.]]></desc>
</trkpt>
<trkpt lat="36.689911" lon="137.775405">
<ele>2320.418252</ele>
<time>2014-08-17T00:26:11Z</time>
<desc><![CDATA[lat.=36.689911, lon.=137.775405, Alt.=2320.418252m. Speed=0.000000m/h.]]></desc>
</trkpt>
<trkpt lat="36.689925" lon="137.775437">
<ele>2319.992858</ele>
<time>2014-08-17T00:26:16Z</time>
<desc><![CDATA[lat.=36.689925, lon.=137.775437, Alt.=2319.992858m. Speed=1.000000m/h.]]></desc>
</trkpt>
<trkpt lat="36.689943" lon="137.775461">
<ele>2320.703844</ele>
<time>2014-08-17T00:26:21Z</time>
<desc><![CDATA[lat.=36.689943, lon.=137.775461, Alt.=2320.703844m. Speed=1.000000m/h.]]></desc>
</trkpt>
<trkpt lat="36.689939" lon="137.775451">
<ele>2324.703107</ele>
<time>2014-08-17T00:26:26Z</time>
<desc><![CDATA[lat.=36.689939, lon.=137.775451, Alt.=2324.703107m. Speed=0.000000m/h.]]></desc>
</trkpt>
<trkpt lat="36.689972" lon="137.775445">
<ele>2323.038871</ele>
<time>2014-08-17T00:26:31Z</time>
<desc><![CDATA[lat.=36.689972, lon.=137.775445, Alt.=2323.038871m. Speed=0.000000m/h.]]></desc>
</trkpt>
<trkpt lat="36.689968" lon="137.775469">
<ele>2321.957404</ele>
<time>2014-08-17T00:26:36Z</time>
<desc><![CDATA[lat.=36.689968, lon.=137.775469, Alt.=2321.957404m. Speed=1.000000m/h.]]></desc>
</trkpt>
<trkpt lat="36.689978" lon="137.775509">
<ele>2322.125820</ele>
<time>2014-08-17T00:26:41Z</time>
<desc><![CDATA[lat.=36.689978, lon.=137.775509, Alt.=2322.125820m. Speed=2.000000m/h.]]></desc>
</trkpt>
<trkpt lat="36.690003" lon="137.775550">
<ele>2321.759025</ele>
<time>2014-08-17T00:26:46Z</time>
<desc><![CDATA[lat.=36.690003, lon.=137.775550, Alt.=2321.759025m. Speed=2.000000m/h.]]></desc>
</trkpt>
<trkpt lat="36.690024" lon="137.775582">
<ele>2323.661309</ele>
<time>2014-08-17T00:26:51Z</time>
<desc><![CDATA[lat.=36.690024, lon.=137.775582, Alt.=2323.661309m. Speed=2.000000m/h.]]></desc>
</trkpt>
<trkpt lat="36.690043" lon="137.775574">
<ele>2324.262474</ele>
<time>2014-08-17T00:26:56Z</time>
<desc><![CDATA[lat.=36.690043, lon.=137.775574, Alt.=2324.262474m. Speed=2.000000m/h.]]></desc>
</trkpt>
<trkpt lat="36.690024" lon="137.775581">
<ele>2325.391493</ele>
<time>2014-08-17T00:27:01Z</time>
<desc><![CDATA[lat.=36.690024, lon.=137.775581, Alt.=2325.391493m. Speed=0.000000m/h.]]></desc>
</trkpt>
<trkpt lat="36.690020" lon="137.775588">
<ele>2325.985300</ele>
<time>2014-08-17T00:27:07Z</time>
<desc><![CDATA[lat.=36.690020, lon.=137.775588, Alt.=2325.985300m. Speed=0.000000m/h.]]></desc>
</trkpt>
<trkpt lat="36.690006" lon="137.775573">
<ele>2324.735415</ele>
<time>2014-08-17T00:27:12Z</time>
<desc><![CDATA[lat.=36.690006, lon.=137.775573, Alt.=2324.735415m. Speed=1.000000m/h.]]></desc>
</trkpt>
<trkpt lat="36.690006" lon="137.775539">
<ele>2328.085956</ele>
<time>2014-08-17T00:27:17Z</time>
<desc><![CDATA[lat.=36.690006, lon.=137.775539, Alt.=2328.085956m. Speed=1.000000m/h.]]></desc>
</trkpt>
<trkpt lat="36.690002" lon="137.775548">
<ele>2326.949578</ele>
<time>2014-08-17T00:27:22Z</time>
<desc><![CDATA[lat.=36.690002, lon.=137.775548, Alt.=2326.949578m. Speed=1.000000m/h.]]></desc>
</trkpt>
<trkpt lat="36.690003" lon="137.775516">
<ele>2326.839751</ele>
<time>2014-08-17T00:27:27Z</time>
<desc><![CDATA[lat.=36.690003, lon.=137.775516, Alt.=2326.839751m. Speed=0.000000m/h.]]></desc>
</trkpt>
<trkpt lat="36.690007" lon="137.775509">
<ele>2326.245945</ele>
<time>2014-08-17T00:27:32Z</time>
<desc><![CDATA[lat.=36.690007, lon.=137.775509, Alt.=2326.245945m. Speed=0.000000m/h.]]></desc>
</trkpt>
<trkpt lat="36.690007" lon="137.775493">
<ele>2326.191032</ele>
<time>2014-08-17T00:27:37Z</time>
<desc><![CDATA[lat.=36.690007, lon.=137.775493, Alt.=2326.191032m. Speed=1.000000m/h.]]></desc>
</trkpt>
<trkpt lat="36.689990" lon="137.775437">
<ele>2325.370220</ele>
<time>2014-08-17T00:27:42Z</time>
<desc><![CDATA[lat.=36.689990, lon.=137.775437, Alt.=2325.370220m. Speed=2.000000m/h.]]></desc>
</trkpt>
<trkpt lat="36.689981" lon="137.775381">
<ele>2325.146896</ele>
<time>2014-08-17T00:27:47Z</time>
<desc><![CDATA[lat.=36.689981, lon.=137.775381, Alt.=2325.146896m. Speed=3.000000m/h.]]></desc>
</trkpt>
<trkpt lat="36.689977" lon="137.775341">
<ele>2327.306155</ele>
<time>2014-08-17T00:27:52Z</time>
<desc><![CDATA[lat.=36.689977, lon.=137.775341, Alt.=2327.306155m. Speed=2.000000m/h.]]></desc>
</trkpt>
<trkpt lat="36.689974" lon="137.775333">
<ele>2326.114866</ele>
<time>2014-08-17T00:27:57Z</time>
<desc><![CDATA[lat.=36.689974, lon.=137.775333, Alt.=2326.114866m. Speed=1.000000m/h.]]></desc>
</trkpt>
<trkpt lat="36.689963" lon="137.775308">
<ele>2327.731552</ele>
<time>2014-08-17T00:28:02Z</time>
<desc><![CDATA[lat.=36.689963, lon.=137.775308, Alt.=2327.731552m. Speed=1.000000m/h.]]></desc>
</trkpt>
<trkpt lat="36.689964" lon="137.775260">
<ele>2329.297011</ele>
<time>2014-08-17T00:28:07Z</time>
<desc><![CDATA[lat.=36.689964, lon.=137.775260, Alt.=2329.297011m. Speed=2.000000m/h.]]></desc>
</trkpt>
<trkpt lat="36.689931" lon="137.775235">
<ele>2329.121246</ele>
<time>2014-08-17T00:28:12Z</time>
<desc><![CDATA[lat.=36.689931, lon.=137.775235, Alt.=2329.121246m. Speed=2.000000m/h.]]></desc>
</trkpt>
<trkpt lat="36.689907" lon="137.775196">
<ele>2326.027692</ele>
<time>2014-08-17T00:28:17Z</time>
<desc><![CDATA[lat.=36.689907, lon.=137.775196, Alt.=2326.027692m. Speed=2.000000m/h.]]></desc>
</trkpt>
<trkpt lat="36.689904" lon="137.775156">
<ele>2326.456776</ele>
<time>2014-08-17T00:28:22Z</time>
<desc><![CDATA[lat.=36.689904, lon.=137.775156, Alt.=2326.456776m. Speed=2.000000m/h.]]></desc>
</trkpt>
<trkpt lat="36.689901" lon="137.775165">
<ele>2323.590210</ele>
<time>2014-08-17T00:28:27Z</time>
<desc><![CDATA[lat.=36.689901, lon.=137.775165, Alt.=2323.590210m. Speed=0.000000m/h.]]></desc>
</trkpt>
<trkpt lat="36.689894" lon="137.775149">
<ele>2324.668005</ele>
<time>2014-08-17T00:28:32Z</time>
<desc><![CDATA[lat.=36.689894, lon.=137.775149, Alt.=2324.668005m. Speed=0.000000m/h.]]></desc>
</trkpt>
<trkpt lat="36.689904" lon="137.775122">
<ele>2331.537519</ele>
<time>2014-08-17T00:28:37Z</time>
<desc><![CDATA[lat.=36.689904, lon.=137.775122, Alt.=2331.537519m. Speed=0.000000m/h.]]></desc>
</trkpt>
<trkpt lat="36.689904" lon="137.775106">
<ele>2333.212799</ele>
<time>2014-08-17T00:28:42Z</time>
<desc><![CDATA[lat.=36.689904, lon.=137.775106, Alt.=2333.212799m. Speed=0.000000m/h.]]></desc>
</trkpt>
<trkpt lat="36.689901" lon="137.775115">
<ele>2330.346232</ele>
<time>2014-08-17T00:28:47Z</time>
<desc><![CDATA[lat.=36.689901, lon.=137.775115, Alt.=2330.346232m. Speed=1.000000m/h.]]></desc>
</trkpt>
<trkpt lat="36.689893" lon="137.775114">
<ele>2331.478933</ele>
<time>2014-08-17T00:28:52Z</time>
<desc><![CDATA[lat.=36.689893, lon.=137.775114, Alt.=2331.478933m. Speed=1.000000m/h.]]></desc>
</trkpt>
<trkpt lat="36.689867" lon="137.775104">
<ele>2333.685750</ele>
<time>2014-08-17T00:28:57Z</time>
<desc><![CDATA[lat.=36.689867, lon.=137.775104, Alt.=2333.685750m. Speed=1.000000m/h.]]></desc>
</trkpt>
<trkpt lat="36.689867" lon="137.775088">
<ele>2335.361030</ele>
<time>2014-08-17T00:29:02Z</time>
<desc><![CDATA[lat.=36.689867, lon.=137.775088, Alt.=2335.361030m. Speed=1.000000m/h.]]></desc>
</trkpt>
<trkpt lat="36.689846" lon="137.775055">
<ele>2335.188957</ele>
<time>2014-08-17T00:29:07Z</time>
<desc><![CDATA[lat.=36.689846, lon.=137.775055, Alt.=2335.188957m. Speed=2.000000m/h.]]></desc>
</trkpt>
<trkpt lat="36.689846" lon="137.775040">
<ele>2335.134053</ele>
<time>2014-08-17T00:29:12Z</time>
<desc><![CDATA[lat.=36.689846, lon.=137.775040, Alt.=2335.134053m. Speed=1.000000m/h.]]></desc>
</trkpt>
<trkpt lat="36.689817" lon="137.775022">
<ele>2336.149588</ele>
<time>2014-08-17T00:29:17Z</time>
<desc><![CDATA[lat.=36.689817, lon.=137.775022, Alt.=2336.149588m. Speed=2.000000m/h.]]></desc>
</trkpt>
<trkpt lat="36.689803" lon="137.774973">
<ele>2338.250284</ele>
<time>2014-08-17T00:29:22Z</time>
<desc><![CDATA[lat.=36.689803, lon.=137.774973, Alt.=2338.250284m. Speed=2.000000m/h.]]></desc>
</trkpt>
<trkpt lat="36.689807" lon="137.774933">
<ele>2341.007048</ele>
<time>2014-08-17T00:29:27Z</time>
<desc><![CDATA[lat.=36.689807, lon.=137.774933, Alt.=2341.007048m. Speed=1.000000m/h.]]></desc>
</trkpt>
<trkpt lat="36.689825" lon="137.774909">
<ele>2341.553310</ele>
<time>2014-08-17T00:29:32Z</time>
<desc><![CDATA[lat.=36.689825, lon.=137.774909, Alt.=2341.553310m. Speed=0.000000m/h.]]></desc>
</trkpt>
<trkpt lat="36.689826" lon="137.774910">
<ele>2339.823125</ele>
<time>2014-08-17T00:29:37Z</time>
<desc><![CDATA[lat.=36.689826, lon.=137.774910, Alt.=2339.823125m. Speed=0.000000m/h.]]></desc>
</trkpt>
<trkpt lat="36.689823" lon="137.774871">
<ele>2338.522039</ele>
<time>2014-08-17T00:29:42Z</time>
<desc><![CDATA[lat.=36.689823, lon.=137.774871, Alt.=2338.522039m. Speed=1.000000m/h.]]></desc>
</trkpt>
<trkpt lat="36.689819" lon="137.774845">
<ele>2342.466410</ele>
<time>2014-08-17T00:29:47Z</time>
<desc><![CDATA[lat.=36.689819, lon.=137.774845, Alt.=2342.466410m. Speed=2.000000m/h.]]></desc>
</trkpt>
<trkpt lat="36.689805" lon="137.774812">
<ele>2344.622016</ele>
<time>2014-08-17T00:29:52Z</time>
<desc><![CDATA[lat.=36.689805, lon.=137.774812, Alt.=2344.622016m. Speed=2.000000m/h.]]></desc>
</trkpt>
<trkpt lat="36.689795" lon="137.774789">
<ele>2342.778351</ele>
<time>2014-08-17T00:29:57Z</time>
<desc><![CDATA[lat.=36.689795, lon.=137.774789, Alt.=2342.778351m. Speed=2.000000m/h.]]></desc>
</trkpt>
<trkpt lat="36.689795" lon="137.774772">
<ele>2344.453638</ele>
<time>2014-08-17T00:30:02Z</time>
<desc><![CDATA[lat.=36.689795, lon.=137.774772, Alt.=2344.453638m. Speed=1.000000m/h.]]></desc>
</trkpt>
<trkpt lat="36.689795" lon="137.774756">
<ele>2346.128925</ele>
<time>2014-08-17T00:30:07Z</time>
<desc><![CDATA[lat.=36.689795, lon.=137.774756, Alt.=2346.128925m. Speed=0.000000m/h.]]></desc>
</trkpt>
<trkpt lat="36.689802" lon="137.774756">
<ele>2346.726407</ele>
<time>2014-08-17T00:30:12Z</time>
<desc><![CDATA[lat.=36.689802, lon.=137.774756, Alt.=2346.726407m. Speed=0.000000m/h.]]></desc>
</trkpt>
<trkpt lat="36.689799" lon="137.774748">
<ele>2345.535124</ele>
<time>2014-08-17T00:30:17Z</time>
<desc><![CDATA[lat.=36.689799, lon.=137.774748, Alt.=2345.535124m. Speed=1.000000m/h.]]></desc>
</trkpt>
<trkpt lat="36.689788" lon="137.774741">
<ele>2343.746359</ele>
<time>2014-08-17T00:30:22Z</time>
<desc><![CDATA[lat.=36.689788, lon.=137.774741, Alt.=2343.746359m. Speed=1.000000m/h.]]></desc>
</trkpt>
<trkpt lat="36.689792" lon="137.774733">
<ele>2344.882744</ele>
<time>2014-08-17T00:30:27Z</time>
<desc><![CDATA[lat.=36.689792, lon.=137.774733, Alt.=2344.882744m. Speed=0.000000m/h.]]></desc>
</trkpt>
<trkpt lat="36.689796" lon="137.774724">
<ele>2346.019129</ele>
<time>2014-08-17T00:30:32Z</time>
<desc><![CDATA[lat.=36.689796, lon.=137.774724, Alt.=2346.019129m. Speed=0.000000m/h.]]></desc>
</trkpt>
<trkpt lat="36.689785" lon="137.774701">
<ele>2344.175467</ele>
<time>2014-08-17T00:30:37Z</time>
<desc><![CDATA[lat.=36.689785, lon.=137.774701, Alt.=2344.175467m. Speed=1.000000m/h.]]></desc>
</trkpt>
<trkpt lat="36.689794" lon="137.774670">
<ele>2342.932970</ele>
<time>2014-08-17T00:30:42Z</time>
<desc><![CDATA[lat.=36.689794, lon.=137.774670, Alt.=2342.932970m. Speed=2.000000m/h.]]></desc>
</trkpt>
<trkpt lat="36.689784" lon="137.774630">
<ele>2342.764599</ele>
<time>2014-08-17T00:30:47Z</time>
<desc><![CDATA[lat.=36.689784, lon.=137.774630, Alt.=2342.764599m. Speed=2.000000m/h.]]></desc>
</trkpt>
<trkpt lat="36.689793" lon="137.774584">
<ele>2339.737025</ele>
<time>2014-08-17T00:30:52Z</time>
<desc><![CDATA[lat.=36.689793, lon.=137.774584, Alt.=2339.737025m. Speed=2.000000m/h.]]></desc>
</trkpt>
<trkpt lat="36.689800" lon="137.774535">
<ele>2343.630195</ele>
<time>2014-08-17T00:30:57Z</time>
<desc><![CDATA[lat.=36.689800, lon.=137.774535, Alt.=2343.630195m. Speed=2.000000m/h.]]></desc>
</trkpt>
<trkpt lat="36.689782" lon="137.774494">
<ele>2346.324720</ele>
<time>2014-08-17T00:31:02Z</time>
<desc><![CDATA[lat.=36.689782, lon.=137.774494, Alt.=2346.324720m. Speed=2.000000m/h.]]></desc>
</trkpt>
<trkpt lat="36.689787" lon="137.774455">
<ele>2345.621137</ele>
<time>2014-08-17T00:31:07Z</time>
<desc><![CDATA[lat.=36.689787, lon.=137.774455, Alt.=2345.621137m. Speed=2.000000m/h.]]></desc>
</trkpt>
<trkpt lat="36.689799" lon="137.774417">
<ele>2343.784852</ele>
<time>2014-08-17T00:31:12Z</time>
<desc><![CDATA[lat.=36.689799, lon.=137.774417, Alt.=2343.784852m. Speed=1.000000m/h.]]></desc>
</trkpt>
<trkpt lat="36.689815" lon="137.774386">
<ele>2343.139849</ele>
<time>2014-08-17T00:31:17Z</time>
<desc><![CDATA[lat.=36.689815, lon.=137.774386, Alt.=2343.139849m. Speed=1.000000m/h.]]></desc>
</trkpt>
<trkpt lat="36.689811" lon="137.774361">
<ele>2345.354051</ele>
<time>2014-08-17T00:31:22Z</time>
<desc><![CDATA[lat.=36.689811, lon.=137.774361, Alt.=2345.354051m. Speed=1.000000m/h.]]></desc>
</trkpt>
<trkpt lat="36.689812" lon="137.774329">
<ele>2346.974456</ele>
<time>2014-08-17T00:31:27Z</time>
<desc><![CDATA[lat.=36.689812, lon.=137.774329, Alt.=2346.974456m. Speed=1.000000m/h.]]></desc>
</trkpt>
<trkpt lat="36.689809" lon="137.774305">
<ele>2345.728288</ele>
<time>2014-08-17T00:31:32Z</time>
<desc><![CDATA[lat.=36.689809, lon.=137.774305, Alt.=2345.728288m. Speed=2.000000m/h.]]></desc>
</trkpt>
<trkpt lat="36.689793" lon="137.774271">
<ele>2351.344288</ele>
<time>2014-08-17T00:31:37Z</time>
<desc><![CDATA[lat.=36.689793, lon.=137.774271, Alt.=2351.344288m. Speed=2.000000m/h.]]></desc>
</trkpt>
<trkpt lat="36.689795" lon="137.774240">
<ele>2349.504326</ele>
<time>2014-08-17T00:31:42Z</time>
<desc><![CDATA[lat.=36.689795, lon.=137.774240, Alt.=2349.504326m. Speed=2.000000m/h.]]></desc>
</trkpt>
<trkpt lat="36.689800" lon="137.774202">
<ele>2345.340383</ele>
<time>2014-08-17T00:31:47Z</time>
<desc><![CDATA[lat.=36.689800, lon.=137.774202, Alt.=2345.340383m. Speed=2.000000m/h.]]></desc>
</trkpt>
<trkpt lat="36.689795" lon="137.774156">
<ele>2341.117869</ele>
<time>2014-08-17T00:31:52Z</time>
<desc><![CDATA[lat.=36.689795, lon.=137.774156, Alt.=2341.117869m. Speed=2.000000m/h.]]></desc>
</trkpt>
<trkpt lat="36.689777" lon="137.774131">
<ele>2342.137113</ele>
<time>2014-08-17T00:31:57Z</time>
<desc><![CDATA[lat.=36.689777, lon.=137.774131, Alt.=2342.137113m. Speed=2.000000m/h.]]></desc>
</trkpt>
<trkpt lat="36.689774" lon="137.774076">
<ele>2342.511367</ele>
<time>2014-08-17T00:32:02Z</time>
<desc><![CDATA[lat.=36.689774, lon.=137.774076, Alt.=2342.511367m. Speed=2.000000m/h.]]></desc>
</trkpt>
<trkpt lat="36.689770" lon="137.774051">
<ele>2344.725578</ele>
<time>2014-08-17T00:32:07Z</time>
<desc><![CDATA[lat.=36.689770, lon.=137.774051, Alt.=2344.725578m. Speed=2.000000m/h.]]></desc>
</trkpt>
<trkpt lat="36.689782" lon="137.774012">
<ele>2344.619498</ele>
<time>2014-08-17T00:32:12Z</time>
<desc><![CDATA[lat.=36.689782, lon.=137.774012, Alt.=2344.619498m. Speed=2.000000m/h.]]></desc>
</trkpt>
<trkpt lat="36.689780" lon="137.773956">
<ele>2344.993760</ele>
<time>2014-08-17T00:32:17Z</time>
<desc><![CDATA[lat.=36.689780, lon.=137.773956, Alt.=2344.993760m. Speed=2.000000m/h.]]></desc>
</trkpt>
<trkpt lat="36.689792" lon="137.773934">
<ele>2343.212381</ele>
<time>2014-08-17T00:32:22Z</time>
<desc><![CDATA[lat.=36.689792, lon.=137.773934, Alt.=2343.212381m. Speed=2.000000m/h.]]></desc>
</trkpt>
<trkpt lat="36.689818" lon="137.773894">
<ele>2344.301273</ele>
<time>2014-08-17T00:32:27Z</time>
<desc><![CDATA[lat.=36.689818, lon.=137.773894, Alt.=2344.301273m. Speed=2.000000m/h.]]></desc>
</trkpt>
<trkpt lat="36.689831" lon="137.773858">
<ele>2339.004644</ele>
<time>2014-08-17T00:32:32Z</time>
<desc><![CDATA[lat.=36.689831, lon.=137.773858, Alt.=2339.004644m. Speed=2.000000m/h.]]></desc>
</trkpt>
<trkpt lat="36.689828" lon="137.773816">
<ele>2342.894168</ele>
<time>2014-08-17T00:32:37Z</time>
<desc><![CDATA[lat.=36.689828, lon.=137.773816, Alt.=2342.894168m. Speed=2.000000m/h.]]></desc>
</trkpt>
<trkpt lat="36.689805" lon="137.773781">
<ele>2349.642892</ele>
<time>2014-08-17T00:32:42Z</time>
<desc><![CDATA[lat.=36.689805, lon.=137.773781, Alt.=2349.642892m. Speed=2.000000m/h.]]></desc>
</trkpt>
<trkpt lat="36.689798" lon="137.773733">
<ele>2350.610961</ele>
<time>2014-08-17T00:32:47Z</time>
<desc><![CDATA[lat.=36.689798, lon.=137.773733, Alt.=2350.610961m. Speed=2.000000m/h.]]></desc>
</trkpt>
<trkpt lat="36.689788" lon="137.773692">
<ele>2352.172823</ele>
<time>2014-08-17T00:32:52Z</time>
<desc><![CDATA[lat.=36.689788, lon.=137.773692, Alt.=2352.172823m. Speed=2.000000m/h.]]></desc>
</trkpt>
<trkpt lat="36.689793" lon="137.773654">
<ele>2348.008906</ele>
<time>2014-08-17T00:32:57Z</time>
<desc><![CDATA[lat.=36.689793, lon.=137.773654, Alt.=2348.008906m. Speed=2.000000m/h.]]></desc>
</trkpt>
<trkpt lat="36.689783" lon="137.773630">
<ele>2349.625648</ele>
<time>2014-08-17T00:33:02Z</time>
<desc><![CDATA[lat.=36.689783, lon.=137.773630, Alt.=2349.625648m. Speed=2.000000m/h.]]></desc>
</trkpt>
<trkpt lat="36.689791" lon="137.773614">
<ele>2348.438068</ele>
<time>2014-08-17T00:33:07Z</time>
<desc><![CDATA[lat.=36.689791, lon.=137.773614, Alt.=2348.438068m. Speed=0.000000m/h.]]></desc>
</trkpt>
<trkpt lat="36.689776" lon="137.773598">
<ele>2348.918415</ele>
<time>2014-08-17T00:33:12Z</time>
<desc><![CDATA[lat.=36.689776, lon.=137.773598, Alt.=2348.918415m. Speed=2.000000m/h.]]></desc>
</trkpt>
<trkpt lat="36.689789" lon="137.773561">
<ele>2343.621799</ele>
<time>2014-08-17T00:33:17Z</time>
<desc><![CDATA[lat.=36.689789, lon.=137.773561, Alt.=2343.621799m. Speed=2.000000m/h.]]></desc>
</trkpt>
<trkpt lat="36.689793" lon="137.773569">
<ele>2343.082884</ele>
<time>2014-08-17T00:33:22Z</time>
<desc><![CDATA[lat.=36.689793, lon.=137.773569, Alt.=2343.082884m. Speed=1.000000m/h.]]></desc>
</trkpt>
<trkpt lat="36.689812" lon="137.773563">
<ele>2341.953873</ele>
<time>2014-08-17T00:33:27Z</time>
<desc><![CDATA[lat.=36.689812, lon.=137.773563, Alt.=2341.953873m. Speed=2.000000m/h.]]></desc>
</trkpt>
<trkpt lat="36.689823" lon="137.773539">
<ele>2343.632879</ele>
<time>2014-08-17T00:33:32Z</time>
<desc><![CDATA[lat.=36.689823, lon.=137.773539, Alt.=2343.632879m. Speed=2.000000m/h.]]></desc>
</trkpt>
<trkpt lat="36.689834" lon="137.773515">
<ele>2343.581699</ele>
<time>2014-08-17T00:33:37Z</time>
<desc><![CDATA[lat.=36.689834, lon.=137.773515, Alt.=2343.581699m. Speed=1.000000m/h.]]></desc>
</trkpt>
<trkpt lat="36.689853" lon="137.773491">
<ele>2345.858190</ele>
<time>2014-08-17T00:33:42Z</time>
<desc><![CDATA[lat.=36.689853, lon.=137.773491, Alt.=2345.858190m. Speed=1.000000m/h.]]></desc>
</trkpt>
<trkpt lat="36.689849" lon="137.773466">
<ele>2348.072418</ele>
<time>2014-08-17T00:33:47Z</time>
<desc><![CDATA[lat.=36.689849, lon.=137.773466, Alt.=2348.072418m. Speed=1.000000m/h.]]></desc>
</trkpt>
<trkpt lat="36.689850" lon="137.773451">
<ele>2348.017546</ele>
<time>2014-08-17T00:33:52Z</time>
<desc><![CDATA[lat.=36.689850, lon.=137.773451, Alt.=2348.017546m. Speed=1.000000m/h.]]></desc>
</trkpt>
<trkpt lat="36.689864" lon="137.773434">
<ele>2350.887827</ele>
<time>2014-08-17T00:33:57Z</time>
<desc><![CDATA[lat.=36.689864, lon.=137.773434, Alt.=2350.887827m. Speed=1.000000m/h.]]></desc>
</trkpt>
<trkpt lat="36.689874" lon="137.773425">
<ele>2354.351895</ele>
<time>2014-08-17T00:34:02Z</time>
<desc><![CDATA[lat.=36.689874, lon.=137.773425, Alt.=2354.351895m. Speed=1.000000m/h.]]></desc>
</trkpt>
<trkpt lat="36.689870" lon="137.773432">
<ele>2354.945683</ele>
<time>2014-08-17T00:34:07Z</time>
<desc><![CDATA[lat.=36.689870, lon.=137.773432, Alt.=2354.945683m. Speed=0.000000m/h.]]></desc>
</trkpt>
<trkpt lat="36.689877" lon="137.773447">
<ele>2357.328225</ele>
<time>2014-08-17T00:34:12Z</time>
<desc><![CDATA[lat.=36.689877, lon.=137.773447, Alt.=2357.328225m. Speed=1.000000m/h.]]></desc>
</trkpt>
<trkpt lat="36.689887" lon="137.773454">
<ele>2360.847166</ele>
<time>2014-08-17T00:34:17Z</time>
<desc><![CDATA[lat.=36.689887, lon.=137.773454, Alt.=2360.847166m. Speed=1.000000m/h.]]></desc>
</trkpt>
<trkpt lat="36.689884" lon="137.773447">
<ele>2359.655895</ele>
<time>2014-08-17T00:34:22Z</time>
<desc><![CDATA[lat.=36.689884, lon.=137.773447, Alt.=2359.655895m. Speed=0.000000m/h.]]></desc>
</trkpt>
<trkpt lat="36.689898" lon="137.773447">
<ele>2360.850862</ele>
<time>2014-08-17T00:34:27Z</time>
<desc><![CDATA[lat.=36.689898, lon.=137.773447, Alt.=2360.850862m. Speed=1.000000m/h.]]></desc>
</trkpt>
<trkpt lat="36.689901" lon="137.773454">
<ele>2362.042133</ele>
<time>2014-08-17T00:34:32Z</time>
<desc><![CDATA[lat.=36.689901, lon.=137.773454, Alt.=2362.042133m. Speed=0.000000m/h.]]></desc>
</trkpt>
<trkpt lat="36.689901" lon="137.773470">
<ele>2362.097006</ele>
<time>2014-08-17T00:34:37Z</time>
<desc><![CDATA[lat.=36.689901, lon.=137.773470, Alt.=2362.097006m. Speed=1.000000m/h.]]></desc>
</trkpt>
<trkpt lat="36.689908" lon="137.773487">
<ele>2361.019176</ele>
<time>2014-08-17T00:34:42Z</time>
<desc><![CDATA[lat.=36.689908, lon.=137.773487, Alt.=2361.019176m. Speed=0.000000m/h.]]></desc>
</trkpt>
<trkpt lat="36.689919" lon="137.773496">
<ele>2359.347559</ele>
<time>2014-08-17T00:34:47Z</time>
<desc><![CDATA[lat.=36.689919, lon.=137.773496, Alt.=2359.347559m. Speed=0.000000m/h.]]></desc>
</trkpt>
<trkpt lat="36.689923" lon="137.773520">
<ele>2358.863518</ele>
<time>2014-08-17T00:34:52Z</time>
<desc><![CDATA[lat.=36.689923, lon.=137.773520, Alt.=2358.863518m. Speed=1.000000m/h.]]></desc>
</trkpt>
<trkpt lat="36.689921" lon="137.773582">
<ele>2360.813202</ele>
<time>2014-08-17T00:34:57Z</time>
<desc><![CDATA[lat.=36.689921, lon.=137.773582, Alt.=2360.813202m. Speed=1.000000m/h.]]></desc>
</trkpt>
<trkpt lat="36.689938" lon="137.773622">
<ele>2361.579007</ele>
<time>2014-08-17T00:35:02Z</time>
<desc><![CDATA[lat.=36.689938, lon.=137.773622, Alt.=2361.579007m. Speed=1.000000m/h.]]></desc>
</trkpt>
<trkpt lat="36.689970" lon="137.773645">
<ele>2365.215095</ele>
<time>2014-08-17T00:35:07Z</time>
<desc><![CDATA[lat.=36.689970, lon.=137.773645, Alt.=2365.215095m. Speed=2.000000m/h.]]></desc>
</trkpt>
<trkpt lat="36.689992" lon="137.773678">
<ele>2363.656930</ele>
<time>2014-08-17T00:35:12Z</time>
<desc><![CDATA[lat.=36.689992, lon.=137.773678, Alt.=2363.656930m. Speed=1.000000m/h.]]></desc>
</trkpt>
<trkpt lat="36.690010" lon="137.773704">
<ele>2360.907493</ele>
<time>2014-08-17T00:35:17Z</time>
<desc><![CDATA[lat.=36.690010, lon.=137.773704, Alt.=2360.907493m. Speed=1.000000m/h.]]></desc>
</trkpt>
<trkpt lat="36.690009" lon="137.773734">
<ele>2364.477620</ele>
<time>2014-08-17T00:35:22Z</time>
<desc><![CDATA[lat.=36.690009, lon.=137.773734, Alt.=2364.477620m. Speed=1.000000m/h.]]></desc>
</trkpt>
<trkpt lat="36.690009" lon="137.773751">
<ele>2362.802312</ele>
<time>2014-08-17T00:35:27Z</time>
<desc><![CDATA[lat.=36.690009, lon.=137.773751, Alt.=2362.802312m. Speed=0.000000m/h.]]></desc>
</trkpt>
<trkpt lat="36.690005" lon="137.773758">
<ele>2363.396102</ele>
<time>2014-08-17T00:35:32Z</time>
<desc><![CDATA[lat.=36.690005, lon.=137.773758, Alt.=2363.396102m. Speed=0.000000m/h.]]></desc>
</trkpt>
<trkpt lat="36.690012" lon="137.773758">
<ele>2363.993587</ele>
<time>2014-08-17T00:35:37Z</time>
<desc><![CDATA[lat.=36.690012, lon.=137.773758, Alt.=2363.993587m. Speed=0.000000m/h.]]></desc>
</trkpt>
<trkpt lat="36.690027" lon="137.773759">
<ele>2363.458372</ele>
<time>2014-08-17T00:35:42Z</time>
<desc><![CDATA[lat.=36.690027, lon.=137.773759, Alt.=2363.458372m. Speed=0.000000m/h.]]></desc>
</trkpt>
<trkpt lat="36.690019" lon="137.773758">
<ele>2364.591072</ele>
<time>2014-08-17T00:35:47Z</time>
<desc><![CDATA[lat.=36.690019, lon.=137.773758, Alt.=2364.591072m. Speed=0.000000m/h.]]></desc>
</trkpt>
<trkpt lat="36.690018" lon="137.773790">
<ele>2364.700830</ele>
<time>2014-08-17T00:35:52Z</time>
<desc><![CDATA[lat.=36.690018, lon.=137.773790, Alt.=2364.700830m. Speed=0.000000m/h.]]></desc>
</trkpt>
<trkpt lat="36.690030" lon="137.773784">
<ele>2361.244153</ele>
<time>2014-08-17T00:35:57Z</time>
<desc><![CDATA[lat.=36.690030, lon.=137.773784, Alt.=2361.244153m. Speed=0.000000m/h.]]></desc>
</trkpt>
<trkpt lat="36.690034" lon="137.773792">
<ele>2360.705243</ele>
<time>2014-08-17T00:36:02Z</time>
<desc><![CDATA[lat.=36.690034, lon.=137.773792, Alt.=2360.705243m. Speed=0.000000m/h.]]></desc>
</trkpt>
<trkpt lat="36.690031" lon="137.773785">
<ele>2359.513967</ele>
<time>2014-08-17T00:36:07Z</time>
<desc><![CDATA[lat.=36.690031, lon.=137.773785, Alt.=2359.513967m. Speed=1.000000m/h.]]></desc>
</trkpt>
<trkpt lat="36.690011" lon="137.773771">
<ele>2352.476074</ele>
<time>2014-08-17T00:36:12Z</time>
<desc><![CDATA[lat.=36.690011, lon.=137.773771, Alt.=2352.476074m. Speed=1.000000m/h.]]></desc>
</trkpt>
<trkpt lat="36.690018" lon="137.773755">
<ele>2354.748867</ele>
<time>2014-08-17T00:36:17Z</time>
<desc><![CDATA[lat.=36.690018, lon.=137.773755, Alt.=2354.748867m. Speed=0.000000m/h.]]></desc>
</trkpt>
<trkpt lat="36.690029" lon="137.773747">
<ele>2354.752563</ele>
<time>2014-08-17T00:36:22Z</time>
<desc><![CDATA[lat.=36.690029, lon.=137.773747, Alt.=2354.752563m. Speed=1.000000m/h.]]></desc>
</trkpt>
<trkpt lat="36.690022" lon="137.773715">
<ele>2354.045322</ele>
<time>2014-08-17T00:36:27Z</time>
<desc><![CDATA[lat.=36.690022, lon.=137.773715, Alt.=2354.045322m. Speed=1.000000m/h.]]></desc>
</trkpt>
<trkpt lat="36.690038" lon="137.773700">
<ele>2353.455230</ele>
<time>2014-08-17T00:36:32Z</time>
<desc><![CDATA[lat.=36.690038, lon.=137.773700, Alt.=2353.455230m. Speed=0.000000m/h.]]></desc>
</trkpt>
<trkpt lat="36.690027" lon="137.773676">
<ele>2355.071966</ele>
<time>2014-08-17T00:36:37Z</time>
<desc><![CDATA[lat.=36.690027, lon.=137.773676, Alt.=2355.071966m. Speed=0.000000m/h.]]></desc>
</trkpt>
<trkpt lat="36.690042" lon="137.773645">
<ele>2354.426998</ele>
<time>2014-08-17T00:36:42Z</time>
<desc><![CDATA[lat.=36.690042, lon.=137.773645, Alt.=2354.426998m. Speed=1.000000m/h.]]></desc>
</trkpt>
<trkpt lat="36.690057" lon="137.773629">
<ele>2355.567094</ele>
<time>2014-08-17T00:36:47Z</time>
<desc><![CDATA[lat.=36.690057, lon.=137.773629, Alt.=2355.567094m. Speed=1.000000m/h.]]></desc>
</trkpt>
<trkpt lat="36.690050" lon="137.773597">
<ele>2356.590043</ele>
<time>2014-08-17T00:36:52Z</time>
<desc><![CDATA[lat.=36.690050, lon.=137.773597, Alt.=2356.590043m. Speed=1.000000m/h.]]></desc>
</trkpt>
<trkpt lat="36.690070" lon="137.773575">
<ele>2353.675981</ele>
<time>2014-08-17T00:36:57Z</time>
<desc><![CDATA[lat.=36.690070, lon.=137.773575, Alt.=2353.675981m. Speed=1.000000m/h.]]></desc>
</trkpt>
<trkpt lat="36.690099" lon="137.773559">
<ele>2356.011052</ele>
<time>2014-08-17T00:37:02Z</time>
<desc><![CDATA[lat.=36.690099, lon.=137.773559, Alt.=2356.011052m. Speed=2.000000m/h.]]></desc>
</trkpt>
<trkpt lat="36.690105" lon="137.773540">
<ele>2363.474409</ele>
<time>2014-08-17T00:37:07Z</time>
<desc><![CDATA[lat.=36.690105, lon.=137.773540, Alt.=2363.474409m. Speed=1.000000m/h.]]></desc>
</trkpt>
<trkpt lat="36.690101" lon="137.773531">
<ele>2365.743508</ele>
<time>2014-08-17T00:37:12Z</time>
<desc><![CDATA[lat.=36.690101, lon.=137.773531, Alt.=2365.743508m. Speed=1.000000m/h.]]></desc>
</trkpt>
<trkpt lat="36.690114" lon="137.773509">
<ele>2362.231963</ele>
<time>2014-08-17T00:37:17Z</time>
<desc><![CDATA[lat.=36.690114, lon.=137.773509, Alt.=2362.231963m. Speed=1.000000m/h.]]></desc>
</trkpt>
<trkpt lat="36.690114" lon="137.773477">
<ele>2363.852403</ele>
<time>2014-08-17T00:37:22Z</time>
<desc><![CDATA[lat.=36.690114, lon.=137.773477, Alt.=2363.852403m. Speed=2.000000m/h.]]></desc>
</trkpt>
<trkpt lat="36.690125" lon="137.773436">
<ele>2367.206732</ele>
<time>2014-08-17T00:37:27Z</time>
<desc><![CDATA[lat.=36.690125, lon.=137.773436, Alt.=2367.206732m. Speed=2.000000m/h.]]></desc>
</trkpt>
<trkpt lat="36.690107" lon="137.773411">
<ele>2368.225987</ele>
<time>2014-08-17T00:37:32Z</time>
<desc><![CDATA[lat.=36.690107, lon.=137.773411, Alt.=2368.225987m. Speed=1.000000m/h.]]></desc>
</trkpt>
<trkpt lat="36.690082" lon="137.773370">
<ele>2370.323072</ele>
<time>2014-08-17T00:37:37Z</time>
<desc><![CDATA[lat.=36.690082, lon.=137.773370, Alt.=2370.323072m. Speed=2.000000m/h.]]></desc>
</trkpt>
<trkpt lat="36.690060" lon="137.773320">
<ele>2373.556563</ele>
<time>2014-08-17T00:37:42Z</time>
<desc><![CDATA[lat.=36.690060, lon.=137.773320, Alt.=2373.556563m. Speed=2.000000m/h.]]></desc>
</trkpt>
<trkpt lat="36.690042" lon="137.773295">
<ele>2374.575824</ele>
<time>2014-08-17T00:37:47Z</time>
<desc><![CDATA[lat.=36.690042, lon.=137.773295, Alt.=2374.575824m. Speed=2.000000m/h.]]></desc>
</trkpt>
<trkpt lat="36.690032" lon="137.773273">
<ele>2371.002012</ele>
<time>2014-08-17T00:37:52Z</time>
<desc><![CDATA[lat.=36.690032, lon.=137.773273, Alt.=2371.002012m. Speed=2.000000m/h.]]></desc>
</trkpt>
<trkpt lat="36.690029" lon="137.773249">
<ele>2371.486060</ele>
<time>2014-08-17T00:37:57Z</time>
<desc><![CDATA[lat.=36.690029, lon.=137.773249, Alt.=2371.486060m. Speed=1.000000m/h.]]></desc>
</trkpt>
<trkpt lat="36.690036" lon="137.773231">
<ele>2375.489051</ele>
<time>2014-08-17T00:38:02Z</time>
<desc><![CDATA[lat.=36.690036, lon.=137.773231, Alt.=2375.489051m. Speed=0.000000m/h.]]></desc>
</trkpt>
<trkpt lat="36.690051" lon="137.773216">
<ele>2374.898968</ele>
<time>2014-08-17T00:38:07Z</time>
<desc><![CDATA[lat.=36.690051, lon.=137.773216, Alt.=2374.898968m. Speed=1.000000m/h.]]></desc>
</trkpt>
<trkpt lat="36.690066" lon="137.773201">
<ele>2374.308886</ele>
<time>2014-08-17T00:38:12Z</time>
<desc><![CDATA[lat.=36.690066, lon.=137.773201, Alt.=2374.308886m. Speed=0.000000m/h.]]></desc>
</trkpt>
<trkpt lat="36.690066" lon="137.773185">
<ele>2375.984205</ele>
<time>2014-08-17T00:38:17Z</time>
<desc><![CDATA[lat.=36.690066, lon.=137.773185, Alt.=2375.984205m. Speed=0.000000m/h.]]></desc>
</trkpt>
<trkpt lat="36.690077" lon="137.773177">
<ele>2375.987908</ele>
<time>2014-08-17T00:38:22Z</time>
<desc><![CDATA[lat.=36.690077, lon.=137.773177, Alt.=2375.987908m. Speed=0.000000m/h.]]></desc>
</trkpt>
<trkpt lat="36.690074" lon="137.773169">
<ele>2376.526825</ele>
<time>2014-08-17T00:38:27Z</time>
<desc><![CDATA[lat.=36.690074, lon.=137.773169, Alt.=2376.526825m. Speed=0.000000m/h.]]></desc>
</trkpt>
<trkpt lat="36.690067" lon="137.773153">
<ele>2375.874472</ele>
<time>2014-08-17T00:38:32Z</time>
<desc><![CDATA[lat.=36.690067, lon.=137.773153, Alt.=2375.874472m. Speed=1.000000m/h.]]></desc>
</trkpt>
<trkpt lat="36.690080" lon="137.773101">
<ele>2370.523018</ele>
<time>2014-08-17T00:38:37Z</time>
<desc><![CDATA[lat.=36.690080, lon.=137.773101, Alt.=2370.523018m. Speed=1.000000m/h.]]></desc>
</trkpt>
<trkpt lat="36.690058" lon="137.773067">
<ele>2373.811390</ele>
<time>2014-08-17T00:38:42Z</time>
<desc><![CDATA[lat.=36.690058, lon.=137.773067, Alt.=2373.811390m. Speed=2.000000m/h.]]></desc>
</trkpt>
<trkpt lat="36.690025" lon="137.773024">
<ele>2378.771384</ele>
<time>2014-08-17T00:38:47Z</time>
<desc><![CDATA[lat.=36.690025, lon.=137.773024, Alt.=2378.771384m. Speed=2.000000m/h.]]></desc>
</trkpt>
<trkpt lat="36.690018" lon="137.772991">
<ele>2381.524545</ele>
<time>2014-08-17T00:38:52Z</time>
<desc><![CDATA[lat.=36.690018, lon.=137.772991, Alt.=2381.524545m. Speed=2.000000m/h.]]></desc>
</trkpt>
<trkpt lat="36.690000" lon="137.772951">
<ele>2380.758768</ele>
<time>2014-08-17T00:38:57Z</time>
<desc><![CDATA[lat.=36.690000, lon.=137.772951, Alt.=2380.758768m. Speed=2.000000m/h.]]></desc>
</trkpt>
<trkpt lat="36.689993" lon="137.772951">
<ele>2380.161283</ele>
<time>2014-08-17T00:39:02Z</time>
<desc><![CDATA[lat.=36.689993, lon.=137.772951, Alt.=2380.161283m. Speed=0.000000m/h.]]></desc>
</trkpt>
<trkpt lat="36.689990" lon="137.772944">
<ele>2377.239829</ele>
<time>2014-08-17T00:39:07Z</time>
<desc><![CDATA[lat.=36.689990, lon.=137.772944, Alt.=2377.239829m. Speed=0.000000m/h.]]></desc>
</trkpt>
<trkpt lat="36.689981" lon="137.772921">
<ele>2373.666028</ele>
<time>2014-08-17T00:39:12Z</time>
<desc><![CDATA[lat.=36.689981, lon.=137.772921, Alt.=2373.666028m. Speed=1.000000m/h.]]></desc>
</trkpt>
<trkpt lat="36.689982" lon="137.772874">
<ele>2373.501444</ele>
<time>2014-08-17T00:39:17Z</time>
<desc><![CDATA[lat.=36.689982, lon.=137.772874, Alt.=2373.501444m. Speed=2.000000m/h.]]></desc>
</trkpt>
<trkpt lat="36.689982" lon="137.772842">
<ele>2373.391723</ele>
<time>2014-08-17T00:39:22Z</time>
<desc><![CDATA[lat.=36.689982, lon.=137.772842, Alt.=2373.391723m. Speed=2.000000m/h.]]></desc>
</trkpt>
<trkpt lat="36.689938" lon="137.772823">
<ele>2378.402890</ele>
<time>2014-08-17T00:39:27Z</time>
<desc><![CDATA[lat.=36.689938, lon.=137.772823, Alt.=2378.402890m. Speed=2.000000m/h.]]></desc>
</trkpt>
<trkpt lat="36.689935" lon="137.772800">
<ele>2377.156765</ele>
<time>2014-08-17T00:39:32Z</time>
<desc><![CDATA[lat.=36.689935, lon.=137.772800, Alt.=2377.156765m. Speed=2.000000m/h.]]></desc>
</trkpt>
<trkpt lat="36.689903" lon="137.772792">
<ele>2373.575564</ele>
<time>2014-08-17T00:39:37Z</time>
<desc><![CDATA[lat.=36.689903, lon.=137.772792, Alt.=2373.575564m. Speed=2.000000m/h.]]></desc>
</trkpt>
<trkpt lat="36.689865" lon="137.772773">
<ele>2377.454035</ele>
<time>2014-08-17T00:39:42Z</time>
<desc><![CDATA[lat.=36.689865, lon.=137.772773, Alt.=2377.454035m. Speed=2.000000m/h.]]></desc>
</trkpt>
<trkpt lat="36.689857" lon="137.772755">
<ele>2381.992254</ele>
<time>2014-08-17T00:39:47Z</time>
<desc><![CDATA[lat.=36.689857, lon.=137.772755, Alt.=2381.992254m. Speed=1.000000m/h.]]></desc>
</trkpt>
<trkpt lat="36.689867" lon="137.772711">
<ele>2375.504415</ele>
<time>2014-08-17T00:39:52Z</time>
<desc><![CDATA[lat.=36.689867, lon.=137.772711, Alt.=2375.504415m. Speed=1.000000m/h.]]></desc>
</trkpt>
<trkpt lat="36.689878" lon="137.772702">
<ele>2378.968492</ele>
<time>2014-08-17T00:39:57Z</time>
<desc><![CDATA[lat.=36.689878, lon.=137.772702, Alt.=2378.968492m. Speed=0.000000m/h.]]></desc>
</trkpt>
<trkpt lat="36.689873" lon="137.772708">
<ele>2381.292459</ele>
<time>2014-08-17T00:40:02Z</time>
<desc><![CDATA[lat.=36.689873, lon.=137.772708, Alt.=2381.292459m. Speed=0.000000m/h.]]></desc>
</trkpt>
<trkpt lat="36.689886" lon="137.772687">
<ele>2377.780931</ele>
<time>2014-08-17T00:40:07Z</time>
<desc><![CDATA[lat.=36.689886, lon.=137.772687, Alt.=2377.780931m. Speed=0.000000m/h.]]></desc>
</trkpt>
<trkpt lat="36.689886" lon="137.772670">
<ele>2379.456261</ele>
<time>2014-08-17T00:40:12Z</time>
<desc><![CDATA[lat.=36.689886, lon.=137.772670, Alt.=2379.456261m. Speed=0.000000m/h.]]></desc>
</trkpt>
<trkpt lat="36.689879" lon="137.772671">
<ele>2377.128590</ele>
<time>2014-08-17T00:40:17Z</time>
<desc><![CDATA[lat.=36.689879, lon.=137.772671, Alt.=2377.128590m. Speed=1.000000m/h.]]></desc>
</trkpt>
<trkpt lat="36.689884" lon="137.772648">
<ele>2374.749766</ele>
<time>2014-08-17T00:40:22Z</time>
<desc><![CDATA[lat.=36.689884, lon.=137.772648, Alt.=2374.749766m. Speed=1.000000m/h.]]></desc>
</trkpt>
<trkpt lat="36.689866" lon="137.772624">
<ele>2374.038867</ele>
<time>2014-08-17T00:40:27Z</time>
<desc><![CDATA[lat.=36.689866, lon.=137.772624, Alt.=2374.038867m. Speed=1.000000m/h.]]></desc>
</trkpt>
<trkpt lat="36.689847" lon="137.772599">
<ele>2376.788343</ele>
<time>2014-08-17T00:40:32Z</time>
<desc><![CDATA[lat.=36.689847, lon.=137.772599, Alt.=2376.788343m. Speed=1.000000m/h.]]></desc>
</trkpt>
<trkpt lat="36.689867" lon="137.772577">
<ele>2373.874300</ele>
<time>2014-08-17T00:40:37Z</time>
<desc><![CDATA[lat.=36.689867, lon.=137.772577, Alt.=2373.874300m. Speed=0.000000m/h.]]></desc>
</trkpt>
<trkpt lat="36.689847" lon="137.772581">
<ele>2381.924050</ele>
<time>2014-08-17T00:40:42Z</time>
<desc><![CDATA[lat.=36.689847, lon.=137.772581, Alt.=2381.924050m. Speed=1.000000m/h.]]></desc>
</trkpt>
<trkpt lat="36.689843" lon="137.772555">
<ele>2385.868494</ele>
<time>2014-08-17T00:40:47Z</time>
<desc><![CDATA[lat.=36.689843, lon.=137.772555, Alt.=2385.868494m. Speed=0.000000m/h.]]></desc>
</trkpt>
<trkpt lat="36.689831" lon="137.772545">
<ele>2389.270311</ele>
<time>2014-08-17T00:40:52Z</time>
<desc><![CDATA[lat.=36.689831, lon.=137.772545, Alt.=2389.270311m. Speed=0.000000m/h.]]></desc>
</trkpt>
<trkpt lat="36.689839" lon="137.772546">
<ele>2388.137607</ele>
<time>2014-08-17T00:40:57Z</time>
<desc><![CDATA[lat.=36.689839, lon.=137.772546, Alt.=2388.137607m. Speed=0.000000m/h.]]></desc>
</trkpt>
<trkpt lat="36.689835" lon="137.772538">
<ele>2386.946344</ele>
<time>2014-08-17T00:41:02Z</time>
<desc><![CDATA[lat.=36.689835, lon.=137.772538, Alt.=2386.946344m. Speed=1.000000m/h.]]></desc>
</trkpt>
<trkpt lat="36.689822" lon="137.772507">
<ele>2385.641671</ele>
<time>2014-08-17T00:41:07Z</time>
<desc><![CDATA[lat.=36.689822, lon.=137.772507, Alt.=2385.641671m. Speed=1.000000m/h.]]></desc>
</trkpt>
<trkpt lat="36.689796" lon="137.772497">
<ele>2387.848524</ele>
<time>2014-08-17T00:41:12Z</time>
<desc><![CDATA[lat.=36.689796, lon.=137.772497, Alt.=2387.848524m. Speed=1.000000m/h.]]></desc>
</trkpt>
<trkpt lat="36.689796" lon="137.772480">
<ele>2389.523858</ele>
<time>2014-08-17T00:41:17Z</time>
<desc><![CDATA[lat.=36.689796, lon.=137.772480, Alt.=2389.523858m. Speed=1.000000m/h.]]></desc>
</trkpt>
<trkpt lat="36.689788" lon="137.772480">
<ele>2390.656563</ele>
<time>2014-08-17T00:41:22Z</time>
<desc><![CDATA[lat.=36.689788, lon.=137.772480, Alt.=2390.656563m. Speed=0.000000m/h.]]></desc>
</trkpt>
<trkpt lat="36.689787" lon="137.772494">
<ele>2394.171791</ele>
<time>2014-08-17T00:41:27Z</time>
<desc><![CDATA[lat.=36.689787, lon.=137.772494, Alt.=2394.171791m. Speed=0.000000m/h.]]></desc>
</trkpt>
<trkpt lat="36.689790" lon="137.772486">
<ele>2395.308199</ele>
<time>2014-08-17T00:41:32Z</time>
<desc><![CDATA[lat.=36.689790, lon.=137.772486, Alt.=2395.308199m. Speed=0.000000m/h.]]></desc>
</trkpt>
<trkpt lat="36.689790" lon="137.772469">
<ele>2396.983533</ele>
<time>2014-08-17T00:41:37Z</time>
<desc><![CDATA[lat.=36.689790, lon.=137.772469, Alt.=2396.983533m. Speed=0.000000m/h.]]></desc>
</trkpt>
<trkpt lat="36.689775" lon="137.772484">
<ele>2397.573610</ele>
<time>2014-08-17T00:41:42Z</time>
<desc><![CDATA[lat.=36.689775, lon.=137.772484, Alt.=2397.573610m. Speed=0.000000m/h.]]></desc>
</trkpt>
<trkpt lat="36.689767" lon="137.772483">
<ele>2400.436503</ele>
<time>2014-08-17T00:41:47Z</time>
<desc><![CDATA[lat.=36.689767, lon.=137.772483, Alt.=2400.436503m. Speed=0.000000m/h.]]></desc>
</trkpt>
<trkpt lat="36.689775" lon="137.772467">
<ele>2400.979131</ele>
<time>2014-08-17T00:41:52Z</time>
<desc><![CDATA[lat.=36.689775, lon.=137.772467, Alt.=2400.979131m. Speed=0.000000m/h.]]></desc>
</trkpt>
<trkpt lat="36.689771" lon="137.772474">
<ele>2401.572911</ele>
<time>2014-08-17T00:41:57Z</time>
<desc><![CDATA[lat.=36.689771, lon.=137.772474, Alt.=2401.572911m. Speed=0.000000m/h.]]></desc>
</trkpt>
<trkpt lat="36.689786" lon="137.772459">
<ele>2400.982835</ele>
<time>2014-08-17T00:42:02Z</time>
<desc><![CDATA[lat.=36.689786, lon.=137.772459, Alt.=2400.982835m. Speed=0.000000m/h.]]></desc>
</trkpt>
<trkpt lat="36.689789" lon="137.772450">
<ele>2403.849431</ele>
<time>2014-08-17T00:42:07Z</time>
<desc><![CDATA[lat.=36.689789, lon.=137.772450, Alt.=2403.849431m. Speed=0.000000m/h.]]></desc>
</trkpt>
<trkpt lat="36.689790" lon="137.772451">
<ele>2402.119243</ele>
<time>2014-08-17T00:42:12Z</time>
<desc><![CDATA[lat.=36.689790, lon.=137.772451, Alt.=2402.119243m. Speed=0.000000m/h.]]></desc>
</trkpt>
<trkpt lat="36.689790" lon="137.772434">
<ele>2403.794578</ele>
<time>2014-08-17T00:42:17Z</time>
<desc><![CDATA[lat.=36.689790, lon.=137.772434, Alt.=2403.794578m. Speed=0.000000m/h.]]></desc>
</trkpt>
<trkpt lat="36.689790" lon="137.772419">
<ele>2402.009538</ele>
<time>2014-08-17T00:42:22Z</time>
<desc><![CDATA[lat.=36.689790, lon.=137.772419, Alt.=2402.009538m. Speed=0.000000m/h.]]></desc>
</trkpt>
<trkpt lat="36.689783" lon="137.772419">
<ele>2401.412056</ele>
<time>2014-08-17T00:42:27Z</time>
<desc><![CDATA[lat.=36.689783, lon.=137.772419, Alt.=2401.412056m. Speed=1.000000m/h.]]></desc>
</trkpt>
<trkpt lat="36.689761" lon="137.772419">
<ele>2401.349798</ele>
<time>2014-08-17T00:42:32Z</time>
<desc><![CDATA[lat.=36.689761, lon.=137.772419, Alt.=2401.349798m. Speed=1.000000m/h.]]></desc>
</trkpt>
<trkpt lat="36.689745" lon="137.772397">
<ele>2395.448347</ele>
<time>2014-08-17T00:42:37Z</time>
<desc><![CDATA[lat.=36.689745, lon.=137.772397, Alt.=2395.448347m. Speed=2.000000m/h.]]></desc>
</trkpt>
<trkpt lat="36.689741" lon="137.772389">
<ele>2394.257087</ele>
<time>2014-08-17T00:42:42Z</time>
<desc><![CDATA[lat.=36.689741, lon.=137.772389, Alt.=2394.257087m. Speed=1.000000m/h.]]></desc>
</trkpt>
<trkpt lat="36.689728" lon="137.772374">
<ele>2391.277085</ele>
<time>2014-08-17T00:42:47Z</time>
<desc><![CDATA[lat.=36.689728, lon.=137.772374, Alt.=2391.277085m. Speed=1.000000m/h.]]></desc>
</trkpt>
<trkpt lat="36.689687" lon="137.772380">
<ele>2392.343833</ele>
<time>2014-08-17T00:42:52Z</time>
<desc><![CDATA[lat.=36.689687, lon.=137.772380, Alt.=2392.343833m. Speed=1.000000m/h.]]></desc>
</trkpt>
<trkpt lat="36.689685" lon="137.772359">
<ele>2385.907160</ele>
<time>2014-08-17T00:42:57Z</time>
<desc><![CDATA[lat.=36.689685, lon.=137.772359, Alt.=2385.907160m. Speed=1.000000m/h.]]></desc>
</trkpt>
<trkpt lat="36.689671" lon="137.772327">
<ele>2386.332685</ele>
<time>2014-08-17T00:43:02Z</time>
<desc><![CDATA[lat.=36.689671, lon.=137.772327, Alt.=2386.332685m. Speed=1.000000m/h.]]></desc>
</trkpt>
<trkpt lat="36.689659" lon="137.772316">
<ele>2391.464696</ele>
<time>2014-08-17T00:43:07Z</time>
<desc><![CDATA[lat.=36.689659, lon.=137.772316, Alt.=2391.464696m. Speed=1.000000m/h.]]></desc>
</trkpt>
<trkpt lat="36.689646" lon="137.772302">
<ele>2386.754510</ele>
<time>2014-08-17T00:43:12Z</time>
<desc><![CDATA[lat.=36.689646, lon.=137.772302, Alt.=2386.754510m. Speed=2.000000m/h.]]></desc>
</trkpt>
<trkpt lat="36.689643" lon="137.772246">
<ele>2388.859079</ele>
<time>2014-08-17T00:43:17Z</time>
<desc><![CDATA[lat.=36.689643, lon.=137.772246, Alt.=2388.859079m. Speed=2.000000m/h.]]></desc>
</trkpt>
<trkpt lat="36.689644" lon="137.772197">
<ele>2390.424722</ele>
<time>2014-08-17T00:43:22Z</time>
<desc><![CDATA[lat.=36.689644, lon.=137.772197, Alt.=2390.424722m. Speed=2.000000m/h.]]></desc>
</trkpt>
<trkpt lat="36.689651" lon="137.772166">
<ele>2390.912508</ele>
<time>2014-08-17T00:43:27Z</time>
<desc><![CDATA[lat.=36.689651, lon.=137.772166, Alt.=2390.912508m. Speed=2.000000m/h.]]></desc>
</trkpt>
<trkpt lat="36.689666" lon="137.772133">
<ele>2395.458151</ele>
<time>2014-08-17T00:43:32Z</time>
<desc><![CDATA[lat.=36.689666, lon.=137.772133, Alt.=2395.458151m. Speed=2.000000m/h.]]></desc>
</trkpt>
<trkpt lat="36.689654" lon="137.772105">
<ele>2402.265506</ele>
<time>2014-08-17T00:43:37Z</time>
<desc><![CDATA[lat.=36.689654, lon.=137.772105, Alt.=2402.265506m. Speed=2.000000m/h.]]></desc>
</trkpt>
<trkpt lat="36.689629" lon="137.772097">
<ele>2401.011997</ele>
<time>2014-08-17T00:43:42Z</time>
<desc><![CDATA[lat.=36.689629, lon.=137.772097, Alt.=2401.011997m. Speed=2.000000m/h.]]></desc>
</trkpt>
<trkpt lat="36.689604" lon="137.772057">
<ele>2401.378986</ele>
<time>2014-08-17T00:43:47Z</time>
<desc><![CDATA[lat.=36.689604, lon.=137.772057, Alt.=2401.378986m. Speed=2.000000m/h.]]></desc>
</trkpt>
<trkpt lat="36.689585" lon="137.772048">
<ele>2402.453147</ele>
<time>2014-08-17T00:43:52Z</time>
<desc><![CDATA[lat.=36.689585, lon.=137.772048, Alt.=2402.453147m. Speed=2.000000m/h.]]></desc>
</trkpt>
<trkpt lat="36.689575" lon="137.772024">
<ele>2400.609567</ele>
<time>2014-08-17T00:43:57Z</time>
<desc><![CDATA[lat.=36.689575, lon.=137.772024, Alt.=2400.609567m. Speed=2.000000m/h.]]></desc>
</trkpt>
<trkpt lat="36.689561" lon="137.771992">
<ele>2401.035109</ele>
<time>2014-08-17T00:44:02Z</time>
<desc><![CDATA[lat.=36.689561, lon.=137.771992, Alt.=2401.035109m. Speed=2.000000m/h.]]></desc>
</trkpt>
<trkpt lat="36.689551" lon="137.771951">
<ele>2402.597064</ele>
<time>2014-08-17T00:44:07Z</time>
<desc><![CDATA[lat.=36.689551, lon.=137.771951, Alt.=2402.597064m. Speed=2.000000m/h.]]></desc>
</trkpt>
<trkpt lat="36.689559" lon="137.771905">
<ele>2401.299828</ele>
<time>2014-08-17T00:44:12Z</time>
<desc><![CDATA[lat.=36.689559, lon.=137.771905, Alt.=2401.299828m. Speed=2.000000m/h.]]></desc>
</trkpt>
<trkpt lat="36.689571" lon="137.771865">
<ele>2402.924037</ele>
<time>2014-08-17T00:44:17Z</time>
<desc><![CDATA[lat.=36.689571, lon.=137.771865, Alt.=2402.924037m. Speed=2.000000m/h.]]></desc>
</trkpt>
<trkpt lat="36.689582" lon="137.771841">
<ele>2404.603088</ele>
<time>2014-08-17T00:44:22Z</time>
<desc><![CDATA[lat.=36.689582, lon.=137.771841, Alt.=2404.603088m. Speed=2.000000m/h.]]></desc>
</trkpt>
<trkpt lat="36.689575" lon="137.771825">
<ele>2403.950768</ele>
<time>2014-08-17T00:44:27Z</time>
<desc><![CDATA[lat.=36.689575, lon.=137.771825, Alt.=2403.950768m. Speed=2.000000m/h.]]></desc>
</trkpt>
<trkpt lat="36.689594" lon="137.771801">
<ele>2404.497112</ele>
<time>2014-08-17T00:44:32Z</time>
<desc><![CDATA[lat.=36.689594, lon.=137.771801, Alt.=2404.497112m. Speed=2.000000m/h.]]></desc>
</trkpt>
<trkpt lat="36.689602" lon="137.771769">
<ele>2406.715101</ele>
<time>2014-08-17T00:44:37Z</time>
<desc><![CDATA[lat.=36.689602, lon.=137.771769, Alt.=2406.715101m. Speed=2.000000m/h.]]></desc>
</trkpt>
<trkpt lat="36.689598" lon="137.771760">
<ele>2408.984224</ele>
<time>2014-08-17T00:44:42Z</time>
<desc><![CDATA[lat.=36.689598, lon.=137.771760, Alt.=2408.984224m. Speed=0.000000m/h.]]></desc>
</trkpt>
<trkpt lat="36.689598" lon="137.771744">
<ele>2408.929385</ele>
<time>2014-08-17T00:44:47Z</time>
<desc><![CDATA[lat.=36.689598, lon.=137.771744, Alt.=2408.929385m. Speed=0.000000m/h.]]></desc>
</trkpt>
<trkpt lat="36.689603" lon="137.771722">
<ele>2406.550585</ele>
<time>2014-08-17T00:44:52Z</time>
<desc><![CDATA[lat.=36.689603, lon.=137.771722, Alt.=2406.550585m. Speed=1.000000m/h.]]></desc>
</trkpt>
<trkpt lat="36.689599" lon="137.771698">
<ele>2407.034682</ele>
<time>2014-08-17T00:44:57Z</time>
<desc><![CDATA[lat.=36.689599, lon.=137.771698, Alt.=2407.034682m. Speed=1.000000m/h.]]></desc>
</trkpt>
<trkpt lat="36.689607" lon="137.771682">
<ele>2407.577324</ele>
<time>2014-08-17T00:45:02Z</time>
<desc><![CDATA[lat.=36.689607, lon.=137.771682, Alt.=2407.577324m. Speed=1.000000m/h.]]></desc>
</trkpt>
<trkpt lat="36.689597" lon="137.771642">
<ele>2407.409106</ele>
<time>2014-08-17T00:45:07Z</time>
<desc><![CDATA[lat.=36.689597, lon.=137.771642, Alt.=2407.409106m. Speed=2.000000m/h.]]></desc>
</trkpt>
<trkpt lat="36.689607" lon="137.771633">
<ele>2410.873189</ele>
<time>2014-08-17T00:45:12Z</time>
<desc><![CDATA[lat.=36.689607, lon.=137.771633, Alt.=2410.873189m. Speed=2.000000m/h.]]></desc>
</trkpt>
<trkpt lat="36.689608" lon="137.771601">
<ele>2412.493705</ele>
<time>2014-08-17T00:45:17Z</time>
<desc><![CDATA[lat.=36.689608, lon.=137.771601, Alt.=2412.493705m. Speed=2.000000m/h.]]></desc>
</trkpt>
<trkpt lat="36.689594" lon="137.771568">
<ele>2412.919263</ele>
<time>2014-08-17T00:45:22Z</time>
<desc><![CDATA[lat.=36.689594, lon.=137.771568, Alt.=2412.919263m. Speed=2.000000m/h.]]></desc>
</trkpt>
<trkpt lat="36.689606" lon="137.771546">
<ele>2411.137947</ele>
<time>2014-08-17T00:45:27Z</time>
<desc><![CDATA[lat.=36.689606, lon.=137.771546, Alt.=2411.137947m. Speed=2.000000m/h.]]></desc>
</trkpt>
<trkpt lat="36.689614" lon="137.771514">
<ele>2411.625758</ele>
<time>2014-08-17T00:45:32Z</time>
<desc><![CDATA[lat.=36.689614, lon.=137.771514, Alt.=2411.625758m. Speed=2.000000m/h.]]></desc>
</trkpt>
<trkpt lat="36.689603" lon="137.771489">
<ele>2413.242570</ele>
<time>2014-08-17T00:45:37Z</time>
<desc><![CDATA[lat.=36.689603, lon.=137.771489, Alt.=2413.242570m. Speed=2.000000m/h.]]></desc>
</trkpt>
<trkpt lat="36.689606" lon="137.771464">
<ele>2416.054343</ele>
<time>2014-08-17T00:45:42Z</time>
<desc><![CDATA[lat.=36.689606, lon.=137.771464, Alt.=2416.054343m. Speed=2.000000m/h.]]></desc>
</trkpt>
<trkpt lat="36.689599" lon="137.771432">
<ele>2417.077386</ele>
<time>2014-08-17T00:45:47Z</time>
<desc><![CDATA[lat.=36.689599, lon.=137.771432, Alt.=2417.077386m. Speed=2.000000m/h.]]></desc>
</trkpt>
<trkpt lat="36.689593" lon="137.771400">
<ele>2416.370242</ele>
<time>2014-08-17T00:45:52Z</time>
<desc><![CDATA[lat.=36.689593, lon.=137.771400, Alt.=2416.370242m. Speed=2.000000m/h.]]></desc>
</trkpt>
<trkpt lat="36.689597" lon="137.771393">
<ele>2415.776471</ele>
<time>2014-08-17T00:45:57Z</time>
<desc><![CDATA[lat.=36.689597, lon.=137.771393, Alt.=2415.776471m. Speed=1.000000m/h.]]></desc>
</trkpt>
<trkpt lat="36.689579" lon="137.771368">
<ele>2416.795808</ele>
<time>2014-08-17T00:46:02Z</time>
<desc><![CDATA[lat.=36.689579, lon.=137.771368, Alt.=2416.795808m. Speed=2.000000m/h.]]></desc>
</trkpt>
<trkpt lat="36.689549" lon="137.771350">
<ele>2419.541627</ele>
<time>2014-08-17T00:46:07Z</time>
<desc><![CDATA[lat.=36.689549, lon.=137.771350, Alt.=2419.541627m. Speed=2.000000m/h.]]></desc>
</trkpt>
<trkpt lat="36.689535" lon="137.771333">
<ele>2420.022027</ele>
<time>2014-08-17T00:46:12Z</time>
<desc><![CDATA[lat.=36.689535, lon.=137.771333, Alt.=2420.022027m. Speed=2.000000m/h.]]></desc>
</trkpt>
<trkpt lat="36.689509" lon="137.771309">
<ele>2420.443890</ele>
<time>2014-08-17T00:46:17Z</time>
<desc><![CDATA[lat.=36.689509, lon.=137.771309, Alt.=2420.443890m. Speed=2.000000m/h.]]></desc>
</trkpt>
<trkpt lat="36.689506" lon="137.771301">
<ele>2419.252641</ele>
<time>2014-08-17T00:46:22Z</time>
<desc><![CDATA[lat.=36.689506, lon.=137.771301, Alt.=2419.252641m. Speed=1.000000m/h.]]></desc>
</trkpt>
<trkpt lat="36.689503" lon="137.771293">
<ele>2419.791581</ele>
<time>2014-08-17T00:46:27Z</time>
<desc><![CDATA[lat.=36.689503, lon.=137.771293, Alt.=2419.791581m. Speed=0.000000m/h.]]></desc>
</trkpt>
<trkpt lat="36.689518" lon="137.771262">
<ele>2419.146690</ele>
<time>2014-08-17T00:46:32Z</time>
<desc><![CDATA[lat.=36.689518, lon.=137.771262, Alt.=2419.146690m. Speed=1.000000m/h.]]></desc>
</trkpt>
<trkpt lat="36.689522" lon="137.771239">
<ele>2418.498091</ele>
<time>2014-08-17T00:46:37Z</time>
<desc><![CDATA[lat.=36.689522, lon.=137.771239, Alt.=2418.498091m. Speed=1.000000m/h.]]></desc>
</trkpt>
<trkpt lat="36.689512" lon="137.771231">
<ele>2416.709365</ele>
<time>2014-08-17T00:46:42Z</time>
<desc><![CDATA[lat.=36.689512, lon.=137.771231, Alt.=2416.709365m. Speed=1.000000m/h.]]></desc>
</trkpt>
<trkpt lat="36.689490" lon="137.771230">
<ele>2418.377308</ele>
<time>2014-08-17T00:46:47Z</time>
<desc><![CDATA[lat.=36.689490, lon.=137.771230, Alt.=2418.377308m. Speed=1.000000m/h.]]></desc>
</trkpt>
<trkpt lat="36.689474" lon="137.771211">
<ele>2424.048279</ele>
<time>2014-08-17T00:46:52Z</time>
<desc><![CDATA[lat.=36.689474, lon.=137.771211, Alt.=2424.048279m. Speed=2.000000m/h.]]></desc>
</trkpt>
<trkpt lat="36.689477" lon="137.771201">
<ele>2428.645076</ele>
<time>2014-08-17T00:46:57Z</time>
<desc><![CDATA[lat.=36.689477, lon.=137.771201, Alt.=2428.645076m. Speed=0.000000m/h.]]></desc>
</trkpt>
<trkpt lat="36.689466" lon="137.771192">
<ele>2430.316729</ele>
<time>2014-08-17T00:47:02Z</time>
<desc><![CDATA[lat.=36.689466, lon.=137.771192, Alt.=2430.316729m. Speed=0.000000m/h.]]></desc>
</trkpt>
<trkpt lat="36.689437" lon="137.771175">
<ele>2429.602180</ele>
<time>2014-08-17T00:47:07Z</time>
<desc><![CDATA[lat.=36.689437, lon.=137.771175, Alt.=2429.602180m. Speed=1.000000m/h.]]></desc>
</trkpt>
<trkpt lat="36.689436" lon="137.771157">
<ele>2434.737919</ele>
<time>2014-08-17T00:47:12Z</time>
<desc><![CDATA[lat.=36.689436, lon.=137.771157, Alt.=2434.737919m. Speed=1.000000m/h.]]></desc>
</trkpt>
<trkpt lat="36.689433" lon="137.771117">
<ele>2435.167208</ele>
<time>2014-08-17T00:47:17Z</time>
<desc><![CDATA[lat.=36.689433, lon.=137.771117, Alt.=2435.167208m. Speed=1.000000m/h.]]></desc>
</trkpt>
<trkpt lat="36.689438" lon="137.771095">
<ele>2432.788423</ele>
<time>2014-08-17T00:47:22Z</time>
<desc><![CDATA[lat.=36.689438, lon.=137.771095, Alt.=2432.788423m. Speed=0.000000m/h.]]></desc>
</trkpt>
<trkpt lat="36.689430" lon="137.771094">
<ele>2433.921135</ele>
<time>2014-08-17T00:47:27Z</time>
<desc><![CDATA[lat.=36.689430, lon.=137.771094, Alt.=2433.921135m. Speed=1.000000m/h.]]></desc>
</trkpt>
<trkpt lat="36.689434" lon="137.771086">
<ele>2435.057555</ele>
<time>2014-08-17T00:47:32Z</time>
<desc><![CDATA[lat.=36.689434, lon.=137.771086, Alt.=2435.057555m. Speed=0.000000m/h.]]></desc>
</trkpt>
<trkpt lat="36.689434" lon="137.771086">
<ele>2433.327366</ele>
<time>2014-08-17T00:47:37Z</time>
<desc><![CDATA[lat.=36.689434, lon.=137.771086, Alt.=2433.327366m. Speed=0.000000m/h.]]></desc>
</trkpt>
<trkpt lat="36.689430" lon="137.771093">
<ele>2435.651324</ele>
<time>2014-08-17T00:47:42Z</time>
<desc><![CDATA[lat.=36.689430, lon.=137.771093, Alt.=2435.651324m. Speed=0.000000m/h.]]></desc>
</trkpt>
<trkpt lat="36.689430" lon="137.771077">
<ele>2435.596498</ele>
<time>2014-08-17T00:47:48Z</time>
<desc><![CDATA[lat.=36.689430, lon.=137.771077, Alt.=2435.596498m. Speed=0.000000m/h.]]></desc>
</trkpt>
<trkpt lat="36.689427" lon="137.771069">
<ele>2436.135441</ele>
<time>2014-08-17T00:47:54Z</time>
<desc><![CDATA[lat.=36.689427, lon.=137.771069, Alt.=2436.135441m. Speed=1.000000m/h.]]></desc>
</trkpt>
<trkpt lat="36.689457" lon="137.771039">
<ele>2434.955322</ele>
<time>2014-08-17T00:47:59Z</time>
<desc><![CDATA[lat.=36.689457, lon.=137.771039, Alt.=2434.955322m. Speed=2.000000m/h.]]></desc>
</trkpt>
<trkpt lat="36.689453" lon="137.771031">
<ele>2435.494266</ele>
<time>2014-08-17T00:48:04Z</time>
<desc><![CDATA[lat.=36.689453, lon.=137.771031, Alt.=2435.494266m. Speed=0.000000m/h.]]></desc>
</trkpt>
<trkpt lat="36.689450" lon="137.771039">
<ele>2434.357845</ele>
<time>2014-08-17T00:48:09Z</time>
<desc><![CDATA[lat.=36.689450, lon.=137.771039, Alt.=2434.357845m. Speed=0.000000m/h.]]></desc>
</trkpt>
<trkpt lat="36.689424" lon="137.771046">
<ele>2434.889370</ele>
<time>2014-08-17T00:48:14Z</time>
<desc><![CDATA[lat.=36.689424, lon.=137.771046, Alt.=2434.889370m. Speed=2.000000m/h.]]></desc>
</trkpt>
<trkpt lat="36.689402" lon="137.771030">
<ele>2433.042114</ele>
<time>2014-08-17T00:48:19Z</time>
<desc><![CDATA[lat.=36.689402, lon.=137.771030, Alt.=2433.042114m. Speed=2.000000m/h.]]></desc>
</trkpt>
<trkpt lat="36.689388" lon="137.770997">
<ele>2435.197890</ele>
<time>2014-08-17T00:48:24Z</time>
<desc><![CDATA[lat.=36.689388, lon.=137.770997, Alt.=2435.197890m. Speed=1.000000m/h.]]></desc>
</trkpt>
<trkpt lat="36.689377" lon="137.770973">
<ele>2435.084534</ele>
<time>2014-08-17T00:48:29Z</time>
<desc><![CDATA[lat.=36.689377, lon.=137.770973, Alt.=2435.084534m. Speed=1.000000m/h.]]></desc>
</trkpt>
<trkpt lat="36.689359" lon="137.770964">
<ele>2436.158715</ele>
<time>2014-08-17T00:48:34Z</time>
<desc><![CDATA[lat.=36.689359, lon.=137.770964, Alt.=2436.158715m. Speed=2.000000m/h.]]></desc>
</trkpt>
<trkpt lat="36.689337" lon="137.770946">
<ele>2437.771842</ele>
<time>2014-08-17T00:48:39Z</time>
<desc><![CDATA[lat.=36.689337, lon.=137.770946, Alt.=2437.771842m. Speed=2.000000m/h.]]></desc>
</trkpt>
<trkpt lat="36.689318" lon="137.770937">
<ele>2440.576214</ele>
<time>2014-08-17T00:48:44Z</time>
<desc><![CDATA[lat.=36.689318, lon.=137.770937, Alt.=2440.576214m. Speed=2.000000m/h.]]></desc>
</trkpt>
<trkpt lat="36.689306" lon="137.770943">
<ele>2444.032886</ele>
<time>2014-08-17T00:48:49Z</time>
<desc><![CDATA[lat.=36.689306, lon.=137.770943, Alt.=2444.032886m. Speed=2.000000m/h.]]></desc>
</trkpt>
<trkpt lat="36.689287" lon="137.770916">
<ele>2448.512625</ele>
<time>2014-08-17T00:48:54Z</time>
<desc><![CDATA[lat.=36.689287, lon.=137.770916, Alt.=2448.512625m. Speed=2.000000m/h.]]></desc>
</trkpt>
<trkpt lat="36.689277" lon="137.770893">
<ele>2446.669084</ele>
<time>2014-08-17T00:48:59Z</time>
<desc><![CDATA[lat.=36.689277, lon.=137.770893, Alt.=2446.669084m. Speed=2.000000m/h.]]></desc>
</trkpt>
<trkpt lat="36.689260" lon="137.770870">
<ele>2444.228069</ele>
<time>2014-08-17T00:49:04Z</time>
<desc><![CDATA[lat.=36.689260, lon.=137.770870, Alt.=2444.228069m. Speed=2.000000m/h.]]></desc>
</trkpt>
<trkpt lat="36.689250" lon="137.770847">
<ele>2440.654341</ele>
<time>2014-08-17T00:49:09Z</time>
<desc><![CDATA[lat.=36.689250, lon.=137.770847, Alt.=2440.654341m. Speed=2.000000m/h.]]></desc>
</trkpt>
<trkpt lat="36.689229" lon="137.770830">
<ele>2440.537285</ele>
<time>2014-08-17T00:49:14Z</time>
<desc><![CDATA[lat.=36.689229, lon.=137.770830, Alt.=2440.537285m. Speed=2.000000m/h.]]></desc>
</trkpt>
<trkpt lat="36.689244" lon="137.770783">
<ele>2441.567773</ele>
<time>2014-08-17T00:49:19Z</time>
<desc><![CDATA[lat.=36.689244, lon.=137.770783, Alt.=2441.567773m. Speed=2.000000m/h.]]></desc>
</trkpt>
<trkpt lat="36.689226" lon="137.770757">
<ele>2444.317331</ele>
<time>2014-08-17T00:49:24Z</time>
<desc><![CDATA[lat.=36.689226, lon.=137.770757, Alt.=2444.317331m. Speed=2.000000m/h.]]></desc>
</trkpt>
<trkpt lat="36.689230" lon="137.770734">
<ele>2443.668744</ele>
<time>2014-08-17T00:49:29Z</time>
<desc><![CDATA[lat.=36.689230, lon.=137.770734, Alt.=2443.668744m. Speed=2.000000m/h.]]></desc>
</trkpt>
<trkpt lat="36.689242" lon="137.770695">
<ele>2443.562815</ele>
<time>2014-08-17T00:49:34Z</time>
<desc><![CDATA[lat.=36.689242, lon.=137.770695, Alt.=2443.562815m. Speed=2.000000m/h.]]></desc>
</trkpt>
<trkpt lat="36.689246" lon="137.770654">
<ele>2448.049981</ele>
<time>2014-08-17T00:49:39Z</time>
<desc><![CDATA[lat.=36.689246, lon.=137.770654, Alt.=2448.049981m. Speed=2.000000m/h.]]></desc>
</trkpt>
<trkpt lat="36.689249" lon="137.770630">
<ele>2449.131587</ele>
<time>2014-08-17T00:49:44Z</time>
<desc><![CDATA[lat.=36.689249, lon.=137.770630, Alt.=2449.131587m. Speed=2.000000m/h.]]></desc>
</trkpt>
<trkpt lat="36.689265" lon="137.770599">
<ele>2448.486714</ele>
<time>2014-08-17T00:49:49Z</time>
<desc><![CDATA[lat.=36.689265, lon.=137.770599, Alt.=2448.486714m. Speed=2.000000m/h.]]></desc>
</trkpt>
<trkpt lat="36.689277" lon="137.770575">
<ele>2448.435608</ele>
<time>2014-08-17T00:49:54Z</time>
<desc><![CDATA[lat.=36.689277, lon.=137.770575, Alt.=2448.435608m. Speed=2.000000m/h.]]></desc>
</trkpt>
<trkpt lat="36.689287" lon="137.770567">
<ele>2450.169507</ele>
<time>2014-08-17T00:49:59Z</time>
<desc><![CDATA[lat.=36.689287, lon.=137.770567, Alt.=2450.169507m. Speed=1.000000m/h.]]></desc>
</trkpt>
<trkpt lat="36.689287" lon="137.770551">
<ele>2451.844881</ele>
<time>2014-08-17T00:50:04Z</time>
<desc><![CDATA[lat.=36.689287, lon.=137.770551, Alt.=2451.844881m. Speed=2.000000m/h.]]></desc>
</trkpt>
<trkpt lat="36.689292" lon="137.770527">
<ele>2451.196301</ele>
<time>2014-08-17T00:50:09Z</time>
<desc><![CDATA[lat.=36.689292, lon.=137.770527, Alt.=2451.196301m. Speed=1.000000m/h.]]></desc>
</trkpt>
<trkpt lat="36.689285" lon="137.770511">
<ele>2452.274201</ele>
<time>2014-08-17T00:50:14Z</time>
<desc><![CDATA[lat.=36.689285, lon.=137.770511, Alt.=2452.274201m. Speed=2.000000m/h.]]></desc>
</trkpt>
<trkpt lat="36.689289" lon="137.770487">
<ele>2451.625622</ele>
<time>2014-08-17T00:50:19Z</time>
<desc><![CDATA[lat.=36.689289, lon.=137.770487, Alt.=2451.625622m. Speed=2.000000m/h.]]></desc>
</trkpt>
<trkpt lat="36.689282" lon="137.770487">
<ele>2451.028147</ele>
<time>2014-08-17T00:50:24Z</time>
<desc><![CDATA[lat.=36.689282, lon.=137.770487, Alt.=2451.028147m. Speed=1.000000m/h.]]></desc>
</trkpt>
<trkpt lat="36.689268" lon="137.770488">
<ele>2448.103007</ele>
<time>2014-08-17T00:50:29Z</time>
<desc><![CDATA[lat.=36.689268, lon.=137.770488, Alt.=2448.103007m. Speed=1.000000m/h.]]></desc>
</trkpt>
<trkpt lat="36.689260" lon="137.770487">
<ele>2450.965912</ele>
<time>2014-08-17T00:50:34Z</time>
<desc><![CDATA[lat.=36.689260, lon.=137.770487, Alt.=2450.965912m. Speed=1.000000m/h.]]></desc>
</trkpt>
<trkpt lat="36.689244" lon="137.770485">
<ele>2453.231342</ele>
<time>2014-08-17T00:50:39Z</time>
<desc><![CDATA[lat.=36.689244, lon.=137.770485, Alt.=2453.231342m. Speed=0.000000m/h.]]></desc>
</trkpt>
<trkpt lat="36.689248" lon="137.770477">
<ele>2454.367767</ele>
<time>2014-08-17T00:50:44Z</time>
<desc><![CDATA[lat.=36.689248, lon.=137.770477, Alt.=2454.367767m. Speed=0.000000m/h.]]></desc>
</trkpt>
<trkpt lat="36.689245" lon="137.770469">
<ele>2453.176528</ele>
<time>2014-08-17T00:50:49Z</time>
<desc><![CDATA[lat.=36.689245, lon.=137.770469, Alt.=2453.176528m. Speed=0.000000m/h.]]></desc>
</trkpt>
<trkpt lat="36.689234" lon="137.770462">
<ele>2451.387814</ele>
<time>2014-08-17T00:50:54Z</time>
<desc><![CDATA[lat.=36.689234, lon.=137.770462, Alt.=2451.387814m. Speed=1.000000m/h.]]></desc>
</trkpt>
<trkpt lat="36.689223" lon="137.770453">
<ele>2453.059481</ele>
<time>2014-08-17T00:50:59Z</time>
<desc><![CDATA[lat.=36.689223, lon.=137.770453, Alt.=2453.059481m. Speed=1.000000m/h.]]></desc>
</trkpt>
<trkpt lat="36.689204" lon="137.770443">
<ele>2455.863863</ele>
<time>2014-08-17T00:51:04Z</time>
<desc><![CDATA[lat.=36.689204, lon.=137.770443, Alt.=2455.863863m. Speed=2.000000m/h.]]></desc>
</trkpt>
<trkpt lat="36.689212" lon="137.770428">
<ele>2454.676334</ele>
<time>2014-08-17T00:51:09Z</time>
<desc><![CDATA[lat.=36.689212, lon.=137.770428, Alt.=2454.676334m. Speed=0.000000m/h.]]></desc>
</trkpt>
<trkpt lat="36.689213" lon="137.770429">
<ele>2452.946144</ele>
<time>2014-08-17T00:51:14Z</time>
<desc><![CDATA[lat.=36.689213, lon.=137.770429, Alt.=2452.946144m. Speed=0.000000m/h.]]></desc>
</trkpt>
<trkpt lat="36.689216" lon="137.770436">
<ele>2454.137383</ele>
<time>2014-08-17T00:51:19Z</time>
<desc><![CDATA[lat.=36.689216, lon.=137.770436, Alt.=2454.137383m. Speed=0.000000m/h.]]></desc>
</trkpt>
<trkpt lat="36.689224" lon="137.770421">
<ele>2452.949854</ele>
<time>2014-08-17T00:51:24Z</time>
<desc><![CDATA[lat.=36.689224, lon.=137.770421, Alt.=2452.949854m. Speed=0.000000m/h.]]></desc>
</trkpt>
<trkpt lat="36.689224" lon="137.770405">
<ele>2452.895041</ele>
<time>2014-08-17T00:51:29Z</time>
<desc><![CDATA[lat.=36.689224, lon.=137.770405, Alt.=2452.895041m. Speed=1.000000m/h.]]></desc>
</trkpt>
<trkpt lat="36.689232" lon="137.770389">
<ele>2453.437703</ele>
<time>2014-08-17T00:51:34Z</time>
<desc><![CDATA[lat.=36.689232, lon.=137.770389, Alt.=2453.437703m. Speed=1.000000m/h.]]></desc>
</trkpt>
<trkpt lat="36.689240" lon="137.770358">
<ele>2453.925554</ele>
<time>2014-08-17T00:51:39Z</time>
<desc><![CDATA[lat.=36.689240, lon.=137.770358, Alt.=2453.925554m. Speed=1.000000m/h.]]></desc>
</trkpt>
<trkpt lat="36.689237" lon="137.770334">
<ele>2454.409695</ele>
<time>2014-08-17T00:51:44Z</time>
<desc><![CDATA[lat.=36.689237, lon.=137.770334, Alt.=2454.409695m. Speed=2.000000m/h.]]></desc>
</trkpt>
<trkpt lat="36.689241" lon="137.770310">
<ele>2455.491310</ele>
<time>2014-08-17T00:51:49Z</time>
<desc><![CDATA[lat.=36.689241, lon.=137.770310, Alt.=2455.491310m. Speed=2.000000m/h.]]></desc>
</trkpt>
<trkpt lat="36.689241" lon="137.770278">
<ele>2455.381690</ele>
<time>2014-08-17T00:51:54Z</time>
<desc><![CDATA[lat.=36.689241, lon.=137.770278, Alt.=2455.381690m. Speed=1.000000m/h.]]></desc>
</trkpt>
<trkpt lat="36.689234" lon="137.770279">
<ele>2453.054025</ele>
<time>2014-08-17T00:51:59Z</time>
<desc><![CDATA[lat.=36.689234, lon.=137.770279, Alt.=2453.054025m. Speed=1.000000m/h.]]></desc>
</trkpt>
<trkpt lat="36.689224" lon="137.770254">
<ele>2454.670884</ele>
<time>2014-08-17T00:52:04Z</time>
<desc><![CDATA[lat.=36.689224, lon.=137.770254, Alt.=2454.670884m. Speed=2.000000m/h.]]></desc>
</trkpt>
<trkpt lat="36.689217" lon="137.770205">
<ele>2457.369362</ele>
<time>2014-08-17T00:52:09Z</time>
<desc><![CDATA[lat.=36.689217, lon.=137.770205, Alt.=2457.369362m. Speed=2.000000m/h.]]></desc>
</trkpt>
<trkpt lat="36.689225" lon="137.770158">
<ele>2457.802412</ele>
<time>2014-08-17T00:52:14Z</time>
<desc><![CDATA[lat.=36.689225, lon.=137.770158, Alt.=2457.802412m. Speed=3.000000m/h.]]></desc>
</trkpt>
<trkpt lat="36.689225" lon="137.770125">
<ele>2459.422988</ele>
<time>2014-08-17T00:52:19Z</time>
<desc><![CDATA[lat.=36.689225, lon.=137.770125, Alt.=2459.422988m. Speed=2.000000m/h.]]></desc>
</trkpt>
<trkpt lat="36.689229" lon="137.770085">
<ele>2462.179993</ele>
<time>2014-08-17T00:52:24Z</time>
<desc><![CDATA[lat.=36.689229, lon.=137.770085, Alt.=2462.179993m. Speed=2.000000m/h.]]></desc>
</trkpt>
<trkpt lat="36.689241" lon="137.770046">
<ele>2462.074095</ele>
<time>2014-08-17T00:52:29Z</time>
<desc><![CDATA[lat.=36.689241, lon.=137.770046, Alt.=2462.074095m. Speed=2.000000m/h.]]></desc>
</trkpt>
<trkpt lat="36.689228" lon="137.769997">
<ele>2462.444922</ele>
<time>2014-08-17T00:52:34Z</time>
<desc><![CDATA[lat.=36.689228, lon.=137.769997, Alt.=2462.444922m. Speed=3.000000m/h.]]></desc>
</trkpt>
<trkpt lat="36.689213" lon="137.769982">
<ele>2461.195169</ele>
<time>2014-08-17T00:52:39Z</time>
<desc><![CDATA[lat.=36.689213, lon.=137.769982, Alt.=2461.195169m. Speed=0.000000m/h.]]></desc>
</trkpt>
<trkpt lat="36.689213" lon="137.769981">
<ele>2462.925359</ele>
<time>2014-08-17T00:52:44Z</time>
<desc><![CDATA[lat.=36.689213, lon.=137.769981, Alt.=2462.925359m. Speed=0.000000m/h.]]></desc>
</trkpt>
<trkpt lat="36.689209" lon="137.769973">
<ele>2463.464315</ele>
<time>2014-08-17T00:52:49Z</time>
<desc><![CDATA[lat.=36.689209, lon.=137.769973, Alt.=2463.464315m. Speed=0.000000m/h.]]></desc>
</trkpt>
<trkpt lat="36.689205" lon="137.769980">
<ele>2464.058075</ele>
<time>2014-08-17T00:52:54Z</time>
<desc><![CDATA[lat.=36.689205, lon.=137.769980, Alt.=2464.058075m. Speed=0.000000m/h.]]></desc>
</trkpt>
<trkpt lat="36.689191" lon="137.769964">
<ele>2462.808323</ele>
<time>2014-08-17T00:52:59Z</time>
<desc><![CDATA[lat.=36.689191, lon.=137.769964, Alt.=2462.808323m. Speed=2.000000m/h.]]></desc>
</trkpt>
<trkpt lat="36.689185" lon="137.769933">
<ele>2462.101242</ele>
<time>2014-08-17T00:53:04Z</time>
<desc><![CDATA[lat.=36.689185, lon.=137.769933, Alt.=2462.101242m. Speed=2.000000m/h.]]></desc>
</trkpt>
<trkpt lat="36.689171" lon="137.769900">
<ele>2462.526879</ele>
<time>2014-08-17T00:53:09Z</time>
<desc><![CDATA[lat.=36.689171, lon.=137.769900, Alt.=2462.526879m. Speed=2.000000m/h.]]></desc>
</trkpt>
<trkpt lat="36.689146" lon="137.769860">
<ele>2462.894002</ele>
<time>2014-08-17T00:53:14Z</time>
<desc><![CDATA[lat.=36.689146, lon.=137.769860, Alt.=2462.894002m. Speed=3.000000m/h.]]></desc>
</trkpt>
<trkpt lat="36.689140" lon="137.769812">
<ele>2462.132125</ele>
<time>2014-08-17T00:53:19Z</time>
<desc><![CDATA[lat.=36.689140, lon.=137.769812, Alt.=2462.132125m. Speed=3.000000m/h.]]></desc>
</trkpt>
<trkpt lat="36.689125" lon="137.769779">
<ele>2464.287959</ele>
<time>2014-08-17T00:53:24Z</time>
<desc><![CDATA[lat.=36.689125, lon.=137.769779, Alt.=2464.287959m. Speed=3.000000m/h.]]></desc>
</trkpt>
<trkpt lat="36.689126" lon="137.769747">
<ele>2465.908549</ele>
<time>2014-08-17T00:53:29Z</time>
<desc><![CDATA[lat.=36.689126, lon.=137.769747, Alt.=2465.908549m. Speed=2.000000m/h.]]></desc>
</trkpt>
<trkpt lat="36.689145" lon="137.769708">
<ele>2466.400139</ele>
<time>2014-08-17T00:53:34Z</time>
<desc><![CDATA[lat.=36.689145, lon.=137.769708, Alt.=2466.400139m. Speed=2.000000m/h.]]></desc>
</trkpt>
<trkpt lat="36.689170" lon="137.769717">
<ele>2465.923409</ele>
<time>2014-08-17T00:53:39Z</time>
<desc><![CDATA[lat.=36.689170, lon.=137.769717, Alt.=2465.923409m. Speed=2.000000m/h.]]></desc>
</trkpt>
<trkpt lat="36.689189" lon="137.769742">
<ele>2464.904007</ele>
<time>2014-08-17T00:53:44Z</time>
<desc><![CDATA[lat.=36.689189, lon.=137.769742, Alt.=2464.904007m. Speed=3.000000m/h.]]></desc>
</trkpt>
<trkpt lat="36.689215" lon="137.769735">
<ele>2464.372480</ele>
<time>2014-08-17T00:53:49Z</time>
<desc><![CDATA[lat.=36.689215, lon.=137.769735, Alt.=2464.372480m. Speed=2.000000m/h.]]></desc>
</trkpt>
<trkpt lat="36.689247" lon="137.769760">
<ele>2464.548029</ele>
<time>2014-08-17T00:53:54Z</time>
<desc><![CDATA[lat.=36.689247, lon.=137.769760, Alt.=2464.548029m. Speed=2.000000m/h.]]></desc>
</trkpt>
<trkpt lat="36.689250" lon="137.769767">
<ele>2465.739261</ele>
<time>2014-08-17T00:53:59Z</time>
<desc><![CDATA[lat.=36.689250, lon.=137.769767, Alt.=2465.739261m. Speed=2.000000m/h.]]></desc>
</trkpt>
<trkpt lat="36.689257" lon="137.769766">
<ele>2468.066927</ele>
<time>2014-08-17T00:54:04Z</time>
<desc><![CDATA[lat.=36.689257, lon.=137.769766, Alt.=2468.066927m. Speed=0.000000m/h.]]></desc>
</trkpt>
<trkpt lat="36.689279" lon="137.769784">
<ele>2466.453771</ele>
<time>2014-08-17T00:54:09Z</time>
<desc><![CDATA[lat.=36.689279, lon.=137.769784, Alt.=2466.453771m. Speed=1.000000m/h.]]></desc>
</trkpt>
<trkpt lat="36.689290" lon="137.769792">
<ele>2466.512289</ele>
<time>2014-08-17T00:54:14Z</time>
<desc><![CDATA[lat.=36.689290, lon.=137.769792, Alt.=2466.512289m. Speed=1.000000m/h.]]></desc>
</trkpt>
<trkpt lat="36.689282" lon="137.769806">
<ele>2469.429995</ele>
<time>2014-08-17T00:54:19Z</time>
<desc><![CDATA[lat.=36.689282, lon.=137.769806, Alt.=2469.429995m. Speed=0.000000m/h.]]></desc>
</trkpt>
<trkpt lat="36.689278" lon="137.769814">
<ele>2470.023753</ele>
<time>2014-08-17T00:54:24Z</time>
<desc><![CDATA[lat.=36.689278, lon.=137.769814, Alt.=2470.023753m. Speed=0.000000m/h.]]></desc>
</trkpt>
<trkpt lat="36.689296" lon="137.769822">
<ele>2470.679746</ele>
<time>2014-08-17T00:54:29Z</time>
<desc><![CDATA[lat.=36.689296, lon.=137.769822, Alt.=2470.679746m. Speed=0.000000m/h.]]></desc>
</trkpt>
<trkpt lat="36.689303" lon="137.769822">
<ele>2471.277221</ele>
<time>2014-08-17T00:54:34Z</time>
<desc><![CDATA[lat.=36.689303, lon.=137.769822, Alt.=2471.277221m. Speed=0.000000m/h.]]></desc>
</trkpt>
<trkpt lat="36.689318" lon="137.769839">
<ele>2470.796783</ele>
<time>2014-08-17T00:54:39Z</time>
<desc><![CDATA[lat.=36.689318, lon.=137.769839, Alt.=2470.796783m. Speed=1.000000m/h.]]></desc>
</trkpt>
<trkpt lat="36.689347" lon="137.769839">
<ele>2471.456496</ele>
<time>2014-08-17T00:54:44Z</time>
<desc><![CDATA[lat.=36.689347, lon.=137.769839, Alt.=2471.456496m. Speed=1.000000m/h.]]></desc>
</trkpt>
<trkpt lat="36.689354" lon="137.769824">
<ele>2471.999171</ele>
<time>2014-08-17T00:54:49Z</time>
<desc><![CDATA[lat.=36.689354, lon.=137.769824, Alt.=2471.999171m. Speed=1.000000m/h.]]></desc>
</trkpt>
<trkpt lat="36.689376" lon="137.769841">
<ele>2470.386021</ele>
<time>2014-08-17T00:54:54Z</time>
<desc><![CDATA[lat.=36.689376, lon.=137.769841, Alt.=2470.386021m. Speed=1.000000m/h.]]></desc>
</trkpt>
<trkpt lat="36.689376" lon="137.769839">
<ele>2473.846401</ele>
<time>2014-08-17T00:54:59Z</time>
<desc><![CDATA[lat.=36.689376, lon.=137.769839, Alt.=2473.846401m. Speed=0.000000m/h.]]></desc>
</trkpt>
<trkpt lat="36.689390" lon="137.769839">
<ele>2475.041355</ele>
<time>2014-08-17T00:55:04Z</time>
<desc><![CDATA[lat.=36.689390, lon.=137.769839, Alt.=2475.041355m. Speed=1.000000m/h.]]></desc>
</trkpt>
<trkpt lat="36.689408" lon="137.769831">
<ele>2477.372741</ele>
<time>2014-08-17T00:55:09Z</time>
<desc><![CDATA[lat.=36.689408, lon.=137.769831, Alt.=2477.372741m. Speed=1.000000m/h.]]></desc>
</trkpt>
<trkpt lat="36.689430" lon="137.769815">
<ele>2479.110371</ele>
<time>2014-08-17T00:55:14Z</time>
<desc><![CDATA[lat.=36.689430, lon.=137.769815, Alt.=2479.110371m. Speed=2.000000m/h.]]></desc>
</trkpt>
<trkpt lat="36.689438" lon="137.769784">
<ele>2479.598248</ele>
<time>2014-08-17T00:55:19Z</time>
<desc><![CDATA[lat.=36.689438, lon.=137.769784, Alt.=2479.598248m. Speed=2.000000m/h.]]></desc>
</trkpt>
<trkpt lat="36.689446" lon="137.769736">
<ele>2480.031326</ele>
<time>2014-08-17T00:55:24Z</time>
<desc><![CDATA[lat.=36.689446, lon.=137.769736, Alt.=2480.031326m. Speed=2.000000m/h.]]></desc>
</trkpt>
<trkpt lat="36.689440" lon="137.769687">
<ele>2482.729833</ele>
<time>2014-08-17T00:55:29Z</time>
<desc><![CDATA[lat.=36.689440, lon.=137.769687, Alt.=2482.729833m. Speed=3.000000m/h.]]></desc>
</trkpt>
<trkpt lat="36.689419" lon="137.769639">
<ele>2482.503199</ele>
<time>2014-08-17T00:55:34Z</time>
<desc><![CDATA[lat.=36.689419, lon.=137.769639, Alt.=2482.503199m. Speed=3.000000m/h.]]></desc>
</trkpt>
<trkpt lat="36.689438" lon="137.769601">
<ele>2481.264614</ele>
<time>2014-08-17T00:55:39Z</time>
<desc><![CDATA[lat.=36.689438, lon.=137.769601, Alt.=2481.264614m. Speed=3.000000m/h.]]></desc>
</trkpt>
<trkpt lat="36.689399" lon="137.769560">
<ele>2480.436786</ele>
<time>2014-08-17T00:55:44Z</time>
<desc><![CDATA[lat.=36.689399, lon.=137.769560, Alt.=2480.436786m. Speed=3.000000m/h.]]></desc>
</trkpt>
<trkpt lat="36.689378" lon="137.769528">
<ele>2480.264955</ele>
<time>2014-08-17T00:55:49Z</time>
<desc><![CDATA[lat.=36.689378, lon.=137.769528, Alt.=2480.264955m. Speed=3.000000m/h.]]></desc>
</trkpt>
<trkpt lat="36.689385" lon="137.769496">
<ele>2480.752842</ele>
<time>2014-08-17T00:55:54Z</time>
<desc><![CDATA[lat.=36.689385, lon.=137.769496, Alt.=2480.752842m. Speed=2.000000m/h.]]></desc>
</trkpt>
<trkpt lat="36.689371" lon="137.769463">
<ele>2482.908682</ele>
<time>2014-08-17T00:55:59Z</time>
<desc><![CDATA[lat.=36.689371, lon.=137.769463, Alt.=2482.908682m. Speed=2.000000m/h.]]></desc>
</trkpt>
<trkpt lat="36.689365" lon="137.769416">
<ele>2482.146826</ele>
<time>2014-08-17T00:56:04Z</time>
<desc><![CDATA[lat.=36.689365, lon.=137.769416, Alt.=2482.146826m. Speed=3.000000m/h.]]></desc>
</trkpt>
<trkpt lat="36.689370" lon="137.769377">
<ele>2481.443487</ele>
<time>2014-08-17T00:56:09Z</time>
<desc><![CDATA[lat.=36.689370, lon.=137.769377, Alt.=2481.443487m. Speed=3.000000m/h.]]></desc>
</trkpt>
<trkpt lat="36.689359" lon="137.769336">
<ele>2483.005580</ele>
<time>2014-08-17T00:56:14Z</time>
<desc><![CDATA[lat.=36.689359, lon.=137.769336, Alt.=2483.005580m. Speed=3.000000m/h.]]></desc>
</trkpt>
<trkpt lat="36.689367" lon="137.769289">
<ele>2483.438683</ele>
<time>2014-08-17T00:56:19Z</time>
<desc><![CDATA[lat.=36.689367, lon.=137.769289, Alt.=2483.438683m. Speed=3.000000m/h.]]></desc>
</trkpt>
<trkpt lat="36.689369" lon="137.769225">
<ele>2483.219524</ele>
<time>2014-08-17T00:56:24Z</time>
<desc><![CDATA[lat.=36.689369, lon.=137.769225, Alt.=2483.219524m. Speed=3.000000m/h.]]></desc>
</trkpt>
<trkpt lat="36.689355" lon="137.769177">
<ele>2483.590397</ele>
<time>2014-08-17T00:56:29Z</time>
<desc><![CDATA[lat.=36.689355, lon.=137.769177, Alt.=2483.590397m. Speed=3.000000m/h.]]></desc>
</trkpt>
<trkpt lat="36.689353" lon="137.769122">
<ele>2482.234806</ele>
<time>2014-08-17T00:56:34Z</time>
<desc><![CDATA[lat.=36.689353, lon.=137.769122, Alt.=2482.234806m. Speed=3.000000m/h.]]></desc>
</trkpt>
<trkpt lat="36.689357" lon="137.769082">
<ele>2483.261673</ele>
<time>2014-08-17T00:56:39Z</time>
<desc><![CDATA[lat.=36.689357, lon.=137.769082, Alt.=2483.261673m. Speed=3.000000m/h.]]></desc>
</trkpt>
<trkpt lat="36.689355" lon="137.769027">
<ele>2483.636280</ele>
<time>2014-08-17T00:56:44Z</time>
<desc><![CDATA[lat.=36.689355, lon.=137.769027, Alt.=2483.636280m. Speed=3.000000m/h.]]></desc>
</trkpt>
<trkpt lat="36.689348" lon="137.768994">
<ele>2484.659425</ele>
<time>2014-08-17T00:56:49Z</time>
<desc><![CDATA[lat.=36.689348, lon.=137.768994, Alt.=2484.659425m. Speed=3.000000m/h.]]></desc>
</trkpt>
<trkpt lat="36.689338" lon="137.768955">
<ele>2484.491346</ele>
<time>2014-08-17T00:56:54Z</time>
<desc><![CDATA[lat.=36.689338, lon.=137.768955, Alt.=2484.491346m. Speed=2.000000m/h.]]></desc>
</trkpt>
<trkpt lat="36.689327" lon="137.768930">
<ele>2484.378053</ele>
<time>2014-08-17T00:56:59Z</time>
<desc><![CDATA[lat.=36.689327, lon.=137.768930, Alt.=2484.378053m. Speed=2.000000m/h.]]></desc>
</trkpt>
<trkpt lat="36.689324" lon="137.768890">
<ele>2486.537644</ele>
<time>2014-08-17T00:57:04Z</time>
<desc><![CDATA[lat.=36.689324, lon.=137.768890, Alt.=2486.537644m. Speed=2.000000m/h.]]></desc>
</trkpt>
<trkpt lat="36.689328" lon="137.768866">
<ele>2487.619304</ele>
<time>2014-08-17T00:57:09Z</time>
<desc><![CDATA[lat.=36.689328, lon.=137.768866, Alt.=2487.619304m. Speed=2.000000m/h.]]></desc>
</trkpt>
<trkpt lat="36.689318" lon="137.768826">
<ele>2487.451232</ele>
<time>2014-08-17T00:57:14Z</time>
<desc><![CDATA[lat.=36.689318, lon.=137.768826, Alt.=2487.451232m. Speed=2.000000m/h.]]></desc>
</trkpt>
<trkpt lat="36.689300" lon="137.768818">
<ele>2486.795248</ele>
<time>2014-08-17T00:57:19Z</time>
<desc><![CDATA[lat.=36.689300, lon.=137.768818, Alt.=2486.795248m. Speed=1.000000m/h.]]></desc>
</trkpt>
<trkpt lat="36.689304" lon="137.768810">
<ele>2486.201500</ele>
<time>2014-08-17T00:57:27Z</time>
<desc><![CDATA[lat.=36.689304, lon.=137.768810, Alt.=2486.201500m. Speed=0.000000m/h.]]></desc>
</trkpt>
<trkpt lat="36.689308" lon="137.768786">
<ele>2487.283162</ele>
<time>2014-08-17T00:57:32Z</time>
<desc><![CDATA[lat.=36.689308, lon.=137.768786, Alt.=2487.283162m. Speed=2.000000m/h.]]></desc>
</trkpt>
<trkpt lat="36.689308" lon="137.768754">
<ele>2488.903793</ele>
<time>2014-08-17T00:57:37Z</time>
<desc><![CDATA[lat.=36.689308, lon.=137.768754, Alt.=2488.903793m. Speed=2.000000m/h.]]></desc>
</trkpt>
<trkpt lat="36.689298" lon="137.768730">
<ele>2488.790506</ele>
<time>2014-08-17T00:57:42Z</time>
<desc><![CDATA[lat.=36.689298, lon.=137.768730, Alt.=2488.790506m. Speed=2.000000m/h.]]></desc>
</trkpt>
<trkpt lat="36.689265" lon="137.768703">
<ele>2492.075370</ele>
<time>2014-08-17T00:57:47Z</time>
<desc><![CDATA[lat.=36.689265, lon.=137.768703, Alt.=2492.075370m. Speed=2.000000m/h.]]></desc>
</trkpt>
<trkpt lat="36.689261" lon="137.768678">
<ele>2494.289751</ele>
<time>2014-08-17T00:57:52Z</time>
<desc><![CDATA[lat.=36.689261, lon.=137.768678, Alt.=2494.289751m. Speed=2.000000m/h.]]></desc>
</trkpt>
<trkpt lat="36.689265" lon="137.768655">
<ele>2493.641226</ele>
<time>2014-08-17T00:57:57Z</time>
<desc><![CDATA[lat.=36.689265, lon.=137.768655, Alt.=2493.641226m. Speed=1.000000m/h.]]></desc>
</trkpt>
<trkpt lat="36.689262" lon="137.768647">
<ele>2492.450004</ele>
<time>2014-08-17T00:58:02Z</time>
<desc><![CDATA[lat.=36.689262, lon.=137.768647, Alt.=2492.450004m. Speed=1.000000m/h.]]></desc>
</trkpt>
<trkpt lat="36.689244" lon="137.768638">
<ele>2493.524215</ele>
<time>2014-08-17T00:58:07Z</time>
<desc><![CDATA[lat.=36.689244, lon.=137.768638, Alt.=2493.524215m. Speed=1.000000m/h.]]></desc>
</trkpt>
<trkpt lat="36.689219" lon="137.768631">
<ele>2490.540570</ele>
<time>2014-08-17T00:58:12Z</time>
<desc><![CDATA[lat.=36.689219, lon.=137.768631, Alt.=2490.540570m. Speed=2.000000m/h.]]></desc>
</trkpt>
<trkpt lat="36.689168" lon="137.768614">
<ele>2489.763858</ele>
<time>2014-08-17T00:58:17Z</time>
<desc><![CDATA[lat.=36.689168, lon.=137.768614, Alt.=2489.763858m. Speed=3.000000m/h.]]></desc>
</trkpt>
<trkpt lat="36.689132" lon="137.768581">
<ele>2488.397130</ele>
<time>2014-08-17T00:58:22Z</time>
<desc><![CDATA[lat.=36.689132, lon.=137.768581, Alt.=2488.397130m. Speed=3.000000m/h.]]></desc>
</trkpt>
<trkpt lat="36.689092" lon="137.768556">
<ele>2489.354344</ele>
<time>2014-08-17T00:58:27Z</time>
<desc><![CDATA[lat.=36.689092, lon.=137.768556, Alt.=2489.354344m. Speed=3.000000m/h.]]></desc>
</trkpt>
<trkpt lat="36.689048" lon="137.768538">
<ele>2489.175119</ele>
<time>2014-08-17T00:58:32Z</time>
<desc><![CDATA[lat.=36.689048, lon.=137.768538, Alt.=2489.175119m. Speed=3.000000m/h.]]></desc>
</trkpt>
<trkpt lat="36.689008" lon="137.768513">
<ele>2490.132341</ele>
<time>2014-08-17T00:58:37Z</time>
<desc><![CDATA[lat.=36.689008, lon.=137.768513, Alt.=2490.132341m. Speed=3.000000m/h.]]></desc>
</trkpt>
<trkpt lat="36.688952" lon="137.768501">
<ele>2493.409785</ele>
<time>2014-08-17T00:58:42Z</time>
<desc><![CDATA[lat.=36.688952, lon.=137.768501, Alt.=2493.409785m. Speed=3.000000m/h.]]></desc>
</trkpt>
<trkpt lat="36.688926" lon="137.768492">
<ele>2495.616731</ele>
<time>2014-08-17T00:58:47Z</time>
<desc><![CDATA[lat.=36.688926, lon.=137.768492, Alt.=2495.616731m. Speed=3.000000m/h.]]></desc>
</trkpt>
<trkpt lat="36.688891" lon="137.768459">
<ele>2494.250024</ele>
<time>2014-08-17T00:58:52Z</time>
<desc><![CDATA[lat.=36.688891, lon.=137.768459, Alt.=2494.250024m. Speed=3.000000m/h.]]></desc>
</trkpt>
<trkpt lat="36.688865" lon="137.768434">
<ele>2494.672007</ele>
<time>2014-08-17T00:58:57Z</time>
<desc><![CDATA[lat.=36.688865, lon.=137.768434, Alt.=2494.672007m. Speed=3.000000m/h.]]></desc>
</trkpt>
<trkpt lat="36.688844" lon="137.768402">
<ele>2494.500245</ele>
<time>2014-08-17T00:59:02Z</time>
<desc><![CDATA[lat.=36.688844, lon.=137.768402, Alt.=2494.500245m. Speed=3.000000m/h.]]></desc>
</trkpt>
<trkpt lat="36.688833" lon="137.768378">
<ele>2494.386978</ele>
<time>2014-08-17T00:59:07Z</time>
<desc><![CDATA[lat.=36.688833, lon.=137.768378, Alt.=2494.386978m. Speed=2.000000m/h.]]></desc>
</trkpt>
<trkpt lat="36.688827" lon="137.768346">
<ele>2495.410156</ele>
<time>2014-08-17T00:59:12Z</time>
<desc><![CDATA[lat.=36.688827, lon.=137.768346, Alt.=2495.410156m. Speed=2.000000m/h.]]></desc>
</trkpt>
<trkpt lat="36.688823" lon="137.768336">
<ele>2497.679324</ele>
<time>2014-08-17T00:59:17Z</time>
<desc><![CDATA[lat.=36.688823, lon.=137.768336, Alt.=2497.679324m. Speed=2.000000m/h.]]></desc>
</trkpt>
<trkpt lat="36.688827" lon="137.768329">
<ele>2497.085576</ele>
<time>2014-08-17T00:59:22Z</time>
<desc><![CDATA[lat.=36.688827, lon.=137.768329, Alt.=2497.085576m. Speed=1.000000m/h.]]></desc>
</trkpt>
<trkpt lat="36.688808" lon="137.768288">
<ele>2499.780456</ele>
<time>2014-08-17T00:59:27Z</time>
<desc><![CDATA[lat.=36.688808, lon.=137.768288, Alt.=2499.780456m. Speed=2.000000m/h.]]></desc>
</trkpt>
<trkpt lat="36.688806" lon="137.768248">
<ele>2498.479700</ele>
<time>2014-08-17T00:59:32Z</time>
<desc><![CDATA[lat.=36.688806, lon.=137.768248, Alt.=2498.479700m. Speed=2.000000m/h.]]></desc>
</trkpt>
<trkpt lat="36.688803" lon="137.768209">
<ele>2497.178945</ele>
<time>2014-08-17T00:59:37Z</time>
<desc><![CDATA[lat.=36.688803, lon.=137.768209, Alt.=2497.178945m. Speed=2.000000m/h.]]></desc>
</trkpt>
<trkpt lat="36.688805" lon="137.768163">
<ele>2495.284445</ele>
<time>2014-08-17T00:59:42Z</time>
<desc><![CDATA[lat.=36.688805, lon.=137.768163, Alt.=2495.284445m. Speed=2.000000m/h.]]></desc>
</trkpt>
<trkpt lat="36.688820" lon="137.768131">
<ele>2496.369846</ele>
<time>2014-08-17T00:59:47Z</time>
<desc><![CDATA[lat.=36.688820, lon.=137.768131, Alt.=2496.369846m. Speed=2.000000m/h.]]></desc>
</trkpt>
<trkpt lat="36.688828" lon="137.768099">
<ele>2498.587972</ele>
<time>2014-08-17T00:59:52Z</time>
<desc><![CDATA[lat.=36.688828, lon.=137.768099, Alt.=2498.587972m. Speed=2.000000m/h.]]></desc>
</trkpt>
<trkpt lat="36.688839" lon="137.768075">
<ele>2498.536929</ele>
<time>2014-08-17T00:59:57Z</time>
<desc><![CDATA[lat.=36.688839, lon.=137.768075, Alt.=2498.536929m. Speed=2.000000m/h.]]></desc>
</trkpt>
<trkpt lat="36.688844" lon="137.768053">
<ele>2496.158225</ele>
<time>2014-08-17T01:00:02Z</time>
<desc><![CDATA[lat.=36.688844, lon.=137.768053, Alt.=2496.158225m. Speed=0.000000m/h.]]></desc>
</trkpt>
<trkpt lat="36.688848" lon="137.768029">
<ele>2497.239906</ele>
<time>2014-08-17T01:00:07Z</time>
<desc><![CDATA[lat.=36.688848, lon.=137.768029, Alt.=2497.239906m. Speed=2.000000m/h.]]></desc>
</trkpt>
<trkpt lat="36.688856" lon="137.767981">
<ele>2497.673079</ele>
<time>2014-08-17T01:00:12Z</time>
<desc><![CDATA[lat.=36.688856, lon.=137.767981, Alt.=2497.673079m. Speed=3.000000m/h.]]></desc>
</trkpt>
<trkpt lat="36.688872" lon="137.767951">
<ele>2497.028296</ele>
<time>2014-08-17T01:00:17Z</time>
<desc><![CDATA[lat.=36.688872, lon.=137.767951, Alt.=2497.028296m. Speed=3.000000m/h.]]></desc>
</trkpt>
<trkpt lat="36.688876" lon="137.767927">
<ele>2496.379789</ele>
<time>2014-08-17T01:00:22Z</time>
<desc><![CDATA[lat.=36.688876, lon.=137.767927, Alt.=2496.379789m. Speed=2.000000m/h.]]></desc>
</trkpt>
<trkpt lat="36.688877" lon="137.767895">
<ele>2498.000454</ele>
<time>2014-08-17T01:00:27Z</time>
<desc><![CDATA[lat.=36.688877, lon.=137.767895, Alt.=2498.000454m. Speed=2.000000m/h.]]></desc>
</trkpt>
<trkpt lat="36.688869" lon="137.767878">
<ele>2499.078414</ele>
<time>2014-08-17T01:00:32Z</time>
<desc><![CDATA[lat.=36.688869, lon.=137.767878, Alt.=2499.078414m. Speed=0.000000m/h.]]></desc>
</trkpt>
<trkpt lat="36.688870" lon="137.767863">
<ele>2499.023652</ele>
<time>2014-08-17T01:00:37Z</time>
<desc><![CDATA[lat.=36.688870, lon.=137.767863, Alt.=2499.023652m. Speed=1.000000m/h.]]></desc>
</trkpt>
<trkpt lat="36.688874" lon="137.767807">
<ele>2499.995816</ele>
<time>2014-08-17T01:00:42Z</time>
<desc><![CDATA[lat.=36.688874, lon.=137.767807, Alt.=2499.995816m. Speed=3.000000m/h.]]></desc>
</trkpt>
<trkpt lat="36.688886" lon="137.767768">
<ele>2499.890021</ele>
<time>2014-08-17T01:00:47Z</time>
<desc><![CDATA[lat.=36.688886, lon.=137.767768, Alt.=2499.890021m. Speed=3.000000m/h.]]></desc>
</trkpt>
<trkpt lat="36.688872" lon="137.767751">
<ele>2500.370514</ele>
<time>2014-08-17T01:00:52Z</time>
<desc><![CDATA[lat.=36.688872, lon.=137.767751, Alt.=2500.370514m. Speed=2.000000m/h.]]></desc>
</trkpt>
<trkpt lat="36.688876" lon="137.767728">
<ele>2499.722012</ele>
<time>2014-08-17T01:00:57Z</time>
<desc><![CDATA[lat.=36.688876, lon.=137.767728, Alt.=2499.722012m. Speed=2.000000m/h.]]></desc>
</trkpt>
<trkpt lat="36.688873" lon="137.767686">
<ele>2503.611860</ele>
<time>2014-08-17T01:01:02Z</time>
<desc><![CDATA[lat.=36.688873, lon.=137.767686, Alt.=2503.611860m. Speed=2.000000m/h.]]></desc>
</trkpt>
<trkpt lat="36.688873" lon="137.767655">
<ele>2503.502343</ele>
<time>2014-08-17T01:01:07Z</time>
<desc><![CDATA[lat.=36.688873, lon.=137.767655, Alt.=2503.502343m. Speed=2.000000m/h.]]></desc>
</trkpt>
<trkpt lat="36.688855" lon="137.767613">
<ele>2506.197256</ele>
<time>2014-08-17T01:01:12Z</time>
<desc><![CDATA[lat.=36.688855, lon.=137.767613, Alt.=2506.197256m. Speed=2.000000m/h.]]></desc>
</trkpt>
<trkpt lat="36.688837" lon="137.767572">
<ele>2508.892173</ele>
<time>2014-08-17T01:01:17Z</time>
<desc><![CDATA[lat.=36.688837, lon.=137.767572, Alt.=2508.892173m. Speed=3.000000m/h.]]></desc>
</trkpt>
<trkpt lat="36.688846" lon="137.767526">
<ele>2505.864987</ele>
<time>2014-08-17T01:01:22Z</time>
<desc><![CDATA[lat.=36.688846, lon.=137.767526, Alt.=2505.864987m. Speed=3.000000m/h.]]></desc>
</trkpt>
<trkpt lat="36.688847" lon="137.767462">
<ele>2507.376159</ele>
<time>2014-08-17T01:01:27Z</time>
<desc><![CDATA[lat.=36.688847, lon.=137.767462, Alt.=2507.376159m. Speed=3.000000m/h.]]></desc>
</trkpt>
<trkpt lat="36.688844" lon="137.767422">
<ele>2507.805635</ele>
<time>2014-08-17T01:01:32Z</time>
<desc><![CDATA[lat.=36.688844, lon.=137.767422, Alt.=2507.805635m. Speed=3.000000m/h.]]></desc>
</trkpt>
<trkpt lat="36.688842" lon="137.767382">
<ele>2508.235113</ele>
<time>2014-08-17T01:01:37Z</time>
<desc><![CDATA[lat.=36.688842, lon.=137.767382, Alt.=2508.235113m. Speed=3.000000m/h.]]></desc>
</trkpt>
<trkpt lat="36.688828" lon="137.767335">
<ele>2506.875918</ele>
<time>2014-08-17T01:01:42Z</time>
<desc><![CDATA[lat.=36.688828, lon.=137.767335, Alt.=2506.875918m. Speed=3.000000m/h.]]></desc>
</trkpt>
<trkpt lat="36.688819" lon="137.767296">
<ele>2504.977739</ele>
<time>2014-08-17T01:01:47Z</time>
<desc><![CDATA[lat.=36.688819, lon.=137.767296, Alt.=2504.977739m. Speed=3.000000m/h.]]></desc>
</trkpt>
<trkpt lat="36.688808" lon="137.767256">
<ele>2504.809755</ele>
<time>2014-08-17T01:01:52Z</time>
<desc><![CDATA[lat.=36.688808, lon.=137.767256, Alt.=2504.809755m. Speed=3.000000m/h.]]></desc>
</trkpt>
<trkpt lat="36.688790" lon="137.767215">
<ele>2507.504691</ele>
<time>2014-08-17T01:01:57Z</time>
<desc><![CDATA[lat.=36.688790, lon.=137.767215, Alt.=2507.504691m. Speed=3.000000m/h.]]></desc>
</trkpt>
<trkpt lat="36.688776" lon="137.767149">
<ele>2511.281338</ele>
<time>2014-08-17T01:02:02Z</time>
<desc><![CDATA[lat.=36.688776, lon.=137.767149, Alt.=2511.281338m. Speed=3.000000m/h.]]></desc>
</trkpt>
<trkpt lat="36.688766" lon="137.767093">
<ele>2511.058615</ele>
<time>2014-08-17T01:02:07Z</time>
<desc><![CDATA[lat.=36.688766, lon.=137.767093, Alt.=2511.058615m. Speed=3.000000m/h.]]></desc>
</trkpt>
<trkpt lat="36.688768" lon="137.767046">
<ele>2510.894374</ele>
<time>2014-08-17T01:02:12Z</time>
<desc><![CDATA[lat.=36.688768, lon.=137.767046, Alt.=2510.894374m. Speed=3.000000m/h.]]></desc>
</trkpt>
<trkpt lat="36.688765" lon="137.767007">
<ele>2509.593678</ele>
<time>2014-08-17T01:02:17Z</time>
<desc><![CDATA[lat.=36.688765, lon.=137.767007, Alt.=2509.593678m. Speed=3.000000m/h.]]></desc>
</trkpt>
<trkpt lat="36.688747" lon="137.766966">
<ele>2510.558435</ele>
<time>2014-08-17T01:02:22Z</time>
<desc><![CDATA[lat.=36.688747, lon.=137.766966, Alt.=2510.558435m. Speed=3.000000m/h.]]></desc>
</trkpt>
<trkpt lat="36.688737" lon="137.766926">
<ele>2512.120663</ele>
<time>2014-08-17T01:02:27Z</time>
<desc><![CDATA[lat.=36.688737, lon.=137.766926, Alt.=2512.120663m. Speed=3.000000m/h.]]></desc>
</trkpt>
<trkpt lat="36.688734" lon="137.766886">
<ele>2512.550167</ele>
<time>2014-08-17T01:02:32Z</time>
<desc><![CDATA[lat.=36.688734, lon.=137.766886, Alt.=2512.550167m. Speed=3.000000m/h.]]></desc>
</trkpt>
<trkpt lat="36.688738" lon="137.766846">
<ele>2513.577140</ele>
<time>2014-08-17T01:02:37Z</time>
<desc><![CDATA[lat.=36.688738, lon.=137.766846, Alt.=2513.577140m. Speed=3.000000m/h.]]></desc>
</trkpt>
<trkpt lat="36.688739" lon="137.766799">
<ele>2513.412914</ele>
<time>2014-08-17T01:02:42Z</time>
<desc><![CDATA[lat.=36.688739, lon.=137.766799, Alt.=2513.412914m. Speed=3.000000m/h.]]></desc>
</trkpt>
<trkpt lat="36.688744" lon="137.766759">
<ele>2514.439891</ele>
<time>2014-08-17T01:02:47Z</time>
<desc><![CDATA[lat.=36.688744, lon.=137.766759, Alt.=2514.439891m. Speed=3.000000m/h.]]></desc>
</trkpt>
<trkpt lat="36.688752" lon="137.766727">
<ele>2514.927878</ele>
<time>2014-08-17T01:02:52Z</time>
<desc><![CDATA[lat.=36.688752, lon.=137.766727, Alt.=2514.927878m. Speed=3.000000m/h.]]></desc>
</trkpt>
<trkpt lat="36.688760" lon="137.766695">
<ele>2515.415866</ele>
<time>2014-08-17T01:02:57Z</time>
<desc><![CDATA[lat.=36.688760, lon.=137.766695, Alt.=2515.415866m. Speed=2.000000m/h.]]></desc>
</trkpt>
<trkpt lat="36.688757" lon="137.766656">
<ele>2515.845381</ele>
<time>2014-08-17T01:03:02Z</time>
<desc><![CDATA[lat.=36.688757, lon.=137.766656, Alt.=2515.845381m. Speed=2.000000m/h.]]></desc>
</trkpt>
<trkpt lat="36.688761" lon="137.766632">
<ele>2515.196910</ele>
<time>2014-08-17T01:03:07Z</time>
<desc><![CDATA[lat.=36.688761, lon.=137.766632, Alt.=2515.196910m. Speed=2.000000m/h.]]></desc>
</trkpt>
<trkpt lat="36.688747" lon="137.766600">
<ele>2515.622692</ele>
<time>2014-08-17T01:03:12Z</time>
<desc><![CDATA[lat.=36.688747, lon.=137.766600, Alt.=2515.622692m. Speed=2.000000m/h.]]></desc>
</trkpt>
<trkpt lat="36.688722" lon="137.766559">
<ele>2515.990004</ele>
<time>2014-08-17T01:03:17Z</time>
<desc><![CDATA[lat.=36.688722, lon.=137.766559, Alt.=2515.990004m. Speed=2.000000m/h.]]></desc>
</trkpt>
<trkpt lat="36.688727" lon="137.766520">
<ele>2515.286799</ele>
<time>2014-08-17T01:03:22Z</time>
<desc><![CDATA[lat.=36.688727, lon.=137.766520, Alt.=2515.286799m. Speed=2.000000m/h.]]></desc>
</trkpt>
<trkpt lat="36.688709" lon="137.766479">
<ele>2517.981777</ele>
<time>2014-08-17T01:03:27Z</time>
<desc><![CDATA[lat.=36.688709, lon.=137.766479, Alt.=2517.981777m. Speed=2.000000m/h.]]></desc>
</trkpt>
<trkpt lat="36.688694" lon="137.766462">
<ele>2518.462302</ele>
<time>2014-08-17T01:03:32Z</time>
<desc><![CDATA[lat.=36.688694, lon.=137.766462, Alt.=2518.462302m. Speed=2.000000m/h.]]></desc>
</trkpt>
<trkpt lat="36.688677" lon="137.766422">
<ele>2519.427089</ele>
<time>2014-08-17T01:03:37Z</time>
<desc><![CDATA[lat.=36.688677, lon.=137.766422, Alt.=2519.427089m. Speed=3.000000m/h.]]></desc>
</trkpt>
<trkpt lat="36.688655" lon="137.766373">
<ele>2520.930876</ele>
<time>2014-08-17T01:03:42Z</time>
<desc><![CDATA[lat.=36.688655, lon.=137.766373, Alt.=2520.930876m. Speed=3.000000m/h.]]></desc>
</trkpt>
<trkpt lat="36.688638" lon="137.766348">
<ele>2520.220208</ele>
<time>2014-08-17T01:03:47Z</time>
<desc><![CDATA[lat.=36.688638, lon.=137.766348, Alt.=2520.220208m. Speed=3.000000m/h.]]></desc>
</trkpt>
<trkpt lat="36.688627" lon="137.766292">
<ele>2521.727738</ele>
<time>2014-08-17T01:03:52Z</time>
<desc><![CDATA[lat.=36.688627, lon.=137.766292, Alt.=2521.727738m. Speed=3.000000m/h.]]></desc>
</trkpt>
<trkpt lat="36.688606" lon="137.766260">
<ele>2521.556072</ele>
<time>2014-08-17T01:03:57Z</time>
<desc><![CDATA[lat.=36.688606, lon.=137.766260, Alt.=2521.556072m. Speed=3.000000m/h.]]></desc>
</trkpt>
<trkpt lat="36.688599" lon="137.766227">
<ele>2524.309533</ele>
<time>2014-08-17T01:04:02Z</time>
<desc><![CDATA[lat.=36.688599, lon.=137.766227, Alt.=2524.309533m. Speed=3.000000m/h.]]></desc>
</trkpt>
<trkpt lat="36.688589" lon="137.766187">
<ele>2524.141607</ele>
<time>2014-08-17T01:04:07Z</time>
<desc><![CDATA[lat.=36.688589, lon.=137.766187, Alt.=2524.141607m. Speed=2.000000m/h.]]></desc>
</trkpt>
<trkpt lat="36.688563" lon="137.766162">
<ele>2524.563676</ele>
<time>2014-08-17T01:04:12Z</time>
<desc><![CDATA[lat.=36.688563, lon.=137.766162, Alt.=2524.563676m. Speed=2.000000m/h.]]></desc>
</trkpt>
<trkpt lat="36.688550" lon="137.766130">
<ele>2523.259288</ele>
<time>2014-08-17T01:04:17Z</time>
<desc><![CDATA[lat.=36.688550, lon.=137.766130, Alt.=2523.259288m. Speed=2.000000m/h.]]></desc>
</trkpt>
<trkpt lat="36.688535" lon="137.766097">
<ele>2525.415291</ele>
<time>2014-08-17T01:04:22Z</time>
<desc><![CDATA[lat.=36.688535, lon.=137.766097, Alt.=2525.415291m. Speed=2.000000m/h.]]></desc>
</trkpt>
<trkpt lat="36.688532" lon="137.766074">
<ele>2524.169370</ele>
<time>2014-08-17T01:04:27Z</time>
<desc><![CDATA[lat.=36.688532, lon.=137.766074, Alt.=2524.169370m. Speed=2.000000m/h.]]></desc>
</trkpt>
<trkpt lat="36.688533" lon="137.766042">
<ele>2524.059916</ele>
<time>2014-08-17T01:04:32Z</time>
<desc><![CDATA[lat.=36.688533, lon.=137.766042, Alt.=2524.059916m. Speed=2.000000m/h.]]></desc>
</trkpt>
<trkpt lat="36.688526" lon="137.766010">
<ele>2525.083193</ele>
<time>2014-08-17T01:04:37Z</time>
<desc><![CDATA[lat.=36.688526, lon.=137.766010, Alt.=2525.083193m. Speed=2.000000m/h.]]></desc>
</trkpt>
<trkpt lat="36.688523" lon="137.765970">
<ele>2525.512743</ele>
<time>2014-08-17T01:04:42Z</time>
<desc><![CDATA[lat.=36.688523, lon.=137.765970, Alt.=2525.512743m. Speed=2.000000m/h.]]></desc>
</trkpt>
<trkpt lat="36.688502" lon="137.765938">
<ele>2525.341095</ele>
<time>2014-08-17T01:04:47Z</time>
<desc><![CDATA[lat.=36.688502, lon.=137.765938, Alt.=2525.341095m. Speed=2.000000m/h.]]></desc>
</trkpt>
<trkpt lat="36.688491" lon="137.765913">
<ele>2526.958104</ele>
<time>2014-08-17T01:04:52Z</time>
<desc><![CDATA[lat.=36.688491, lon.=137.765913, Alt.=2526.958104m. Speed=2.000000m/h.]]></desc>
</trkpt>
<trkpt lat="36.688484" lon="137.765880">
<ele>2527.981386</ele>
<time>2014-08-17T01:04:57Z</time>
<desc><![CDATA[lat.=36.688484, lon.=137.765880, Alt.=2527.981386m. Speed=2.000000m/h.]]></desc>
</trkpt>
<trkpt lat="36.688451" lon="137.765838">
<ele>2531.211673</ele>
<time>2014-08-17T01:05:02Z</time>
<desc><![CDATA[lat.=36.688451, lon.=137.765838, Alt.=2531.211673m. Speed=2.000000m/h.]]></desc>
</trkpt>
<trkpt lat="36.688449" lon="137.765766">
<ele>2533.261984</ele>
<time>2014-08-17T01:05:07Z</time>
<desc><![CDATA[lat.=36.688449, lon.=137.765766, Alt.=2533.261984m. Speed=3.000000m/h.]]></desc>
</trkpt>
<trkpt lat="36.688465" lon="137.765719">
<ele>2532.562553</ele>
<time>2014-08-17T01:05:12Z</time>
<desc><![CDATA[lat.=36.688465, lon.=137.765719, Alt.=2532.562553m. Speed=3.000000m/h.]]></desc>
</trkpt>
<trkpt lat="36.688437" lon="137.765671">
<ele>2531.738734</ele>
<time>2014-08-17T01:05:17Z</time>
<desc><![CDATA[lat.=36.688437, lon.=137.765671, Alt.=2531.738734m. Speed=3.000000m/h.]]></desc>
</trkpt>
<trkpt lat="36.688418" lon="137.765678">
<ele>2532.867729</ele>
<time>2014-08-17T01:05:22Z</time>
<desc><![CDATA[lat.=36.688418, lon.=137.765678, Alt.=2532.867729m. Speed=0.000000m/h.]]></desc>
</trkpt>
<trkpt lat="36.688407" lon="137.765637">
<ele>2534.430028</ele>
<time>2014-08-17T01:05:27Z</time>
<desc><![CDATA[lat.=36.688407, lon.=137.765637, Alt.=2534.430028m. Speed=2.000000m/h.]]></desc>
</trkpt>
<trkpt lat="36.688382" lon="137.765597">
<ele>2534.797405</ele>
<time>2014-08-17T01:05:32Z</time>
<desc><![CDATA[lat.=36.688382, lon.=137.765597, Alt.=2534.797405m. Speed=3.000000m/h.]]></desc>
</trkpt>
<trkpt lat="36.688361" lon="137.765564">
<ele>2536.355972</ele>
<time>2014-08-17T01:05:37Z</time>
<desc><![CDATA[lat.=36.688361, lon.=137.765564, Alt.=2536.355972m. Speed=3.000000m/h.]]></desc>
</trkpt>
<trkpt lat="36.688321" lon="137.765539">
<ele>2535.583148</ele>
<time>2014-08-17T01:05:42Z</time>
<desc><![CDATA[lat.=36.688321, lon.=137.765539, Alt.=2535.583148m. Speed=3.000000m/h.]]></desc>
</trkpt>
<trkpt lat="36.688285" lon="137.765506">
<ele>2535.946798</ele>
<time>2014-08-17T01:05:47Z</time>
<desc><![CDATA[lat.=36.688285, lon.=137.765506, Alt.=2535.946798m. Speed=3.000000m/h.]]></desc>
</trkpt>
<trkpt lat="36.688253" lon="137.765465">
<ele>2535.716727</ele>
<time>2014-08-17T01:05:52Z</time>
<desc><![CDATA[lat.=36.688253, lon.=137.765465, Alt.=2535.716727m. Speed=3.000000m/h.]]></desc>
</trkpt>
<trkpt lat="36.688228" lon="137.765441">
<ele>2534.408639</ele>
<time>2014-08-17T01:05:57Z</time>
<desc><![CDATA[lat.=36.688228, lon.=137.765441, Alt.=2534.408639m. Speed=3.000000m/h.]]></desc>
</trkpt>
<trkpt lat="36.688210" lon="137.765417">
<ele>2533.698014</ele>
<time>2014-08-17T01:06:02Z</time>
<desc><![CDATA[lat.=36.688210, lon.=137.765417, Alt.=2533.698014m. Speed=3.000000m/h.]]></desc>
</trkpt>
<trkpt lat="36.688185" lon="137.765408">
<ele>2532.444644</ele>
<time>2014-08-17T01:06:07Z</time>
<desc><![CDATA[lat.=36.688185, lon.=137.765408, Alt.=2532.444644m. Speed=3.000000m/h.]]></desc>
</trkpt>
<trkpt lat="36.688166" lon="137.765383">
<ele>2535.194412</ele>
<time>2014-08-17T01:06:12Z</time>
<desc><![CDATA[lat.=36.688166, lon.=137.765383, Alt.=2535.194412m. Speed=3.000000m/h.]]></desc>
</trkpt>
<trkpt lat="36.688135" lon="137.765343">
<ele>2533.234159</ele>
<time>2014-08-17T01:06:17Z</time>
<desc><![CDATA[lat.=36.688135, lon.=137.765343, Alt.=2533.234159m. Speed=3.000000m/h.]]></desc>
</trkpt>
<trkpt lat="36.688135" lon="137.765311">
<ele>2533.124733</ele>
<time>2014-08-17T01:06:22Z</time>
<desc><![CDATA[lat.=36.688135, lon.=137.765311, Alt.=2533.124733m. Speed=2.000000m/h.]]></desc>
</trkpt>
<trkpt lat="36.688131" lon="137.765302">
<ele>2535.393940</ele>
<time>2014-08-17T01:06:27Z</time>
<desc><![CDATA[lat.=36.688131, lon.=137.765302, Alt.=2535.393940m. Speed=2.000000m/h.]]></desc>
</trkpt>
<trkpt lat="36.688135" lon="137.765294">
<ele>2536.530412</ele>
<time>2014-08-17T01:06:32Z</time>
<desc><![CDATA[lat.=36.688135, lon.=137.765294, Alt.=2536.530412m. Speed=1.000000m/h.]]></desc>
</trkpt>
<trkpt lat="36.688139" lon="137.765270">
<ele>2537.612171</ele>
<time>2014-08-17T01:06:37Z</time>
<desc><![CDATA[lat.=36.688139, lon.=137.765270, Alt.=2537.612171m. Speed=1.000000m/h.]]></desc>
</trkpt>
<trkpt lat="36.688139" lon="137.765254">
<ele>2537.557459</ele>
<time>2014-08-17T01:06:42Z</time>
<desc><![CDATA[lat.=36.688139, lon.=137.765254, Alt.=2537.557459m. Speed=0.000000m/h.]]></desc>
</trkpt>
<trkpt lat="36.688128" lon="137.765246">
<ele>2537.499013</ele>
<time>2014-08-17T01:06:47Z</time>
<desc><![CDATA[lat.=36.688128, lon.=137.765246, Alt.=2537.499013m. Speed=1.000000m/h.]]></desc>
</trkpt>
<trkpt lat="36.688114" lon="137.765229">
<ele>2539.709775</ele>
<time>2014-08-17T01:06:52Z</time>
<desc><![CDATA[lat.=36.688114, lon.=137.765229, Alt.=2539.709775m. Speed=1.000000m/h.]]></desc>
</trkpt>
<trkpt lat="36.688107" lon="137.765197">
<ele>2539.002895</ele>
<time>2014-08-17T01:06:57Z</time>
<desc><![CDATA[lat.=36.688107, lon.=137.765197, Alt.=2539.002895m. Speed=2.000000m/h.]]></desc>
</trkpt>
<trkpt lat="36.688089" lon="137.765188">
<ele>2540.077186</ele>
<time>2014-08-17T01:07:02Z</time>
<desc><![CDATA[lat.=36.688089, lon.=137.765188, Alt.=2540.077186m. Speed=2.000000m/h.]]></desc>
</trkpt>
<trkpt lat="36.688063" lon="137.765180">
<ele>2538.823825</ele>
<time>2014-08-17T01:07:07Z</time>
<desc><![CDATA[lat.=36.688063, lon.=137.765180, Alt.=2538.823825m. Speed=2.000000m/h.]]></desc>
</trkpt>
<trkpt lat="36.688012" lon="137.765162">
<ele>2538.047303</ele>
<time>2014-08-17T01:07:12Z</time>
<desc><![CDATA[lat.=36.688012, lon.=137.765162, Alt.=2538.047303m. Speed=3.000000m/h.]]></desc>
</trkpt>
<trkpt lat="36.688007" lon="137.765151">
<ele>2545.507100</ele>
<time>2014-08-17T01:07:17Z</time>
<desc><![CDATA[lat.=36.688007, lon.=137.765151, Alt.=2545.507100m. Speed=3.000000m/h.]]></desc>
</trkpt>
<trkpt lat="36.687989" lon="137.765142">
<ele>2546.581396</ele>
<time>2014-08-17T01:07:22Z</time>
<desc><![CDATA[lat.=36.687989, lon.=137.765142, Alt.=2546.581396m. Speed=3.000000m/h.]]></desc>
</trkpt>
<trkpt lat="36.687956" lon="137.765117">
<ele>2546.406070</ele>
<time>2014-08-17T01:07:27Z</time>
<desc><![CDATA[lat.=36.687956, lon.=137.765117, Alt.=2546.406070m. Speed=3.000000m/h.]]></desc>
</trkpt>
<trkpt lat="36.687935" lon="137.765101">
<ele>2546.289188</ele>
<time>2014-08-17T01:07:32Z</time>
<desc><![CDATA[lat.=36.687935, lon.=137.765101, Alt.=2546.289188m. Speed=2.000000m/h.]]></desc>
</trkpt>
<trkpt lat="36.687913" lon="137.765084">
<ele>2546.172307</ele>
<time>2014-08-17T01:07:37Z</time>
<desc><![CDATA[lat.=36.687913, lon.=137.765084, Alt.=2546.172307m. Speed=2.000000m/h.]]></desc>
</trkpt>
<trkpt lat="36.687906" lon="137.765068">
<ele>2545.520143</ele>
<time>2014-08-17T01:07:42Z</time>
<desc><![CDATA[lat.=36.687906, lon.=137.765068, Alt.=2545.520143m. Speed=2.000000m/h.]]></desc>
</trkpt>
<trkpt lat="36.687891" lon="137.765067">
<ele>2546.055427</ele>
<time>2014-08-17T01:07:47Z</time>
<desc><![CDATA[lat.=36.687891, lon.=137.765067, Alt.=2546.055427m. Speed=2.000000m/h.]]></desc>
</trkpt>
<trkpt lat="36.687874" lon="137.765043">
<ele>2545.344825</ele>
<time>2014-08-17T01:07:52Z</time>
<desc><![CDATA[lat.=36.687874, lon.=137.765043, Alt.=2545.344825m. Speed=2.000000m/h.]]></desc>
</trkpt>
<trkpt lat="36.687837" lon="137.765043">
<ele>2544.087745</ele>
<time>2014-08-17T01:07:57Z</time>
<desc><![CDATA[lat.=36.687837, lon.=137.765043, Alt.=2544.087745m. Speed=2.000000m/h.]]></desc>
</trkpt>
<trkpt lat="36.687818" lon="137.765065">
<ele>2545.271463</ele>
<time>2014-08-17T01:08:02Z</time>
<desc><![CDATA[lat.=36.687818, lon.=137.765065, Alt.=2545.271463m. Speed=2.000000m/h.]]></desc>
</trkpt>
<trkpt lat="36.687800" lon="137.765073">
<ele>2544.670279</ele>
<time>2014-08-17T01:08:07Z</time>
<desc><![CDATA[lat.=36.687800, lon.=137.765073, Alt.=2544.670279m. Speed=1.000000m/h.]]></desc>
</trkpt>
<trkpt lat="36.687782" lon="137.765049">
<ele>2542.229483</ele>
<time>2014-08-17T01:08:12Z</time>
<desc><![CDATA[lat.=36.687782, lon.=137.765049, Alt.=2542.229483m. Speed=2.000000m/h.]]></desc>
</trkpt>
<trkpt lat="36.687746" lon="137.765032">
<ele>2542.647898</ele>
<time>2014-08-17T01:08:17Z</time>
<desc><![CDATA[lat.=36.687746, lon.=137.765032, Alt.=2542.647898m. Speed=2.000000m/h.]]></desc>
</trkpt>
<trkpt lat="36.687724" lon="137.764999">
<ele>2544.206516</ele>
<time>2014-08-17T01:08:22Z</time>
<desc><![CDATA[lat.=36.687724, lon.=137.764999, Alt.=2544.206516m. Speed=3.000000m/h.]]></desc>
</trkpt>
<trkpt lat="36.687709" lon="137.764965">
<ele>2548.092785</ele>
<time>2014-08-17T01:08:27Z</time>
<desc><![CDATA[lat.=36.687709, lon.=137.764965, Alt.=2548.092785m. Speed=3.000000m/h.]]></desc>
</trkpt>
<trkpt lat="36.687695" lon="137.764933">
<ele>2548.518663</ele>
<time>2014-08-17T01:08:32Z</time>
<desc><![CDATA[lat.=36.687695, lon.=137.764933, Alt.=2548.518663m. Speed=3.000000m/h.]]></desc>
</trkpt>
<trkpt lat="36.687680" lon="137.764899">
<ele>2552.404936</ele>
<time>2014-08-17T01:08:37Z</time>
<desc><![CDATA[lat.=36.687680, lon.=137.764899, Alt.=2552.404936m. Speed=2.000000m/h.]]></desc>
</trkpt>
<trkpt lat="36.687667" lon="137.764868">
<ele>2549.370426</ele>
<time>2014-08-17T01:08:42Z</time>
<desc><![CDATA[lat.=36.687667, lon.=137.764868, Alt.=2549.370426m. Speed=3.000000m/h.]]></desc>
</trkpt>
<trkpt lat="36.687653" lon="137.764836">
<ele>2548.066113</ele>
<time>2014-08-17T01:08:47Z</time>
<desc><![CDATA[lat.=36.687653, lon.=137.764836, Alt.=2548.066113m. Speed=2.000000m/h.]]></desc>
</trkpt>
<trkpt lat="36.687643" lon="137.764796">
<ele>2549.628471</ele>
<time>2014-08-17T01:08:52Z</time>
<desc><![CDATA[lat.=36.687643, lon.=137.764796, Alt.=2549.628471m. Speed=2.000000m/h.]]></desc>
</trkpt>
<trkpt lat="36.687617" lon="137.764771">
<ele>2550.050630</ele>
<time>2014-08-17T01:08:57Z</time>
<desc><![CDATA[lat.=36.687617, lon.=137.764771, Alt.=2550.050630m. Speed=2.000000m/h.]]></desc>
</trkpt>
<trkpt lat="36.687599" lon="137.764746">
<ele>2551.070242</ele>
<time>2014-08-17T01:09:02Z</time>
<desc><![CDATA[lat.=36.687599, lon.=137.764746, Alt.=2551.070242m. Speed=2.000000m/h.]]></desc>
</trkpt>
<trkpt lat="36.687585" lon="137.764713">
<ele>2553.226329</ele>
<time>2014-08-17T01:09:07Z</time>
<desc><![CDATA[lat.=36.687585, lon.=137.764713, Alt.=2553.226329m. Speed=2.000000m/h.]]></desc>
</trkpt>
<trkpt lat="36.687567" lon="137.764688">
<ele>2554.245944</ele>
<time>2014-08-17T01:09:12Z</time>
<desc><![CDATA[lat.=36.687567, lon.=137.764688, Alt.=2554.245944m. Speed=2.000000m/h.]]></desc>
</trkpt>
<trkpt lat="36.687538" lon="137.764656">
<ele>2553.476936</ele>
<time>2014-08-17T01:09:17Z</time>
<desc><![CDATA[lat.=36.687538, lon.=137.764656, Alt.=2553.476936m. Speed=2.000000m/h.]]></desc>
</trkpt>
<trkpt lat="36.687527" lon="137.764631">
<ele>2555.094005</ele>
<time>2014-08-17T01:09:22Z</time>
<desc><![CDATA[lat.=36.687527, lon.=137.764631, Alt.=2555.094005m. Speed=2.000000m/h.]]></desc>
</trkpt>
<trkpt lat="36.687506" lon="137.764614">
<ele>2554.977151</ele>
<time>2014-08-17T01:09:27Z</time>
<desc><![CDATA[lat.=36.687506, lon.=137.764614, Alt.=2554.977151m. Speed=2.000000m/h.]]></desc>
</trkpt>
<trkpt lat="36.687494" lon="137.764605">
<ele>2556.648921</ele>
<time>2014-08-17T01:09:32Z</time>
<desc><![CDATA[lat.=36.687494, lon.=137.764605, Alt.=2556.648921m. Speed=2.000000m/h.]]></desc>
</trkpt>
<trkpt lat="36.687502" lon="137.764589">
<ele>2558.921869</ele>
<time>2014-08-17T01:09:37Z</time>
<desc><![CDATA[lat.=36.687502, lon.=137.764589, Alt.=2558.921869m. Speed=2.000000m/h.]]></desc>
</trkpt>
<trkpt lat="36.687491" lon="137.764564">
<ele>2560.538940</ele>
<time>2014-08-17T01:09:42Z</time>
<desc><![CDATA[lat.=36.687491, lon.=137.764564, Alt.=2560.538940m. Speed=1.000000m/h.]]></desc>
</trkpt>
<trkpt lat="36.687477" lon="137.764548">
<ele>2559.289342</ele>
<time>2014-08-17T01:09:47Z</time>
<desc><![CDATA[lat.=36.687477, lon.=137.764548, Alt.=2559.289342m. Speed=2.000000m/h.]]></desc>
</trkpt>
<trkpt lat="36.687448" lon="137.764531">
<ele>2558.575042</ele>
<time>2014-08-17T01:09:52Z</time>
<desc><![CDATA[lat.=36.687448, lon.=137.764531, Alt.=2558.575042m. Speed=2.000000m/h.]]></desc>
</trkpt>
<trkpt lat="36.687415" lon="137.764523">
<ele>2556.724270</ele>
<time>2014-08-17T01:09:57Z</time>
<desc><![CDATA[lat.=36.687415, lon.=137.764523, Alt.=2556.724270m. Speed=3.000000m/h.]]></desc>
</trkpt>
<trkpt lat="36.687368" lon="137.764514">
<ele>2555.408800</ele>
<time>2014-08-17T01:10:02Z</time>
<desc><![CDATA[lat.=36.687368, lon.=137.764514, Alt.=2555.408800m. Speed=3.000000m/h.]]></desc>
</trkpt>
<trkpt lat="36.687331" lon="137.764528">
<ele>2555.936651</ele>
<time>2014-08-17T01:10:07Z</time>
<desc><![CDATA[lat.=36.687331, lon.=137.764528, Alt.=2555.936651m. Speed=3.000000m/h.]]></desc>
</trkpt>
<trkpt lat="36.687300" lon="137.764540">
<ele>2562.252543</ele>
<time>2014-08-17T01:10:12Z</time>
<desc><![CDATA[lat.=36.687300, lon.=137.764540, Alt.=2562.252543m. Speed=3.000000m/h.]]></desc>
</trkpt>
<trkpt lat="36.687262" lon="137.764555">
<ele>2562.780399</ele>
<time>2014-08-17T01:10:17Z</time>
<desc><![CDATA[lat.=36.687262, lon.=137.764555, Alt.=2562.780399m. Speed=3.000000m/h.]]></desc>
</trkpt>
<trkpt lat="36.687224" lon="137.764584">
<ele>2565.093154</ele>
<time>2014-08-17T01:10:22Z</time>
<desc><![CDATA[lat.=36.687224, lon.=137.764584, Alt.=2565.093154m. Speed=3.000000m/h.]]></desc>
</trkpt>
<trkpt lat="36.687184" lon="137.764592">
<ele>2562.699648</ele>
<time>2014-08-17T01:10:27Z</time>
<desc><![CDATA[lat.=36.687184, lon.=137.764592, Alt.=2562.699648m. Speed=3.000000m/h.]]></desc>
</trkpt>
<trkpt lat="36.687149" lon="137.764559">
<ele>2561.333220</ele>
<time>2014-08-17T01:10:32Z</time>
<desc><![CDATA[lat.=36.687149, lon.=137.764559, Alt.=2561.333220m. Speed=3.000000m/h.]]></desc>
</trkpt>
<trkpt lat="36.687106" lon="137.764528">
<ele>2557.639153</ele>
<time>2014-08-17T01:10:37Z</time>
<desc><![CDATA[lat.=36.687106, lon.=137.764528, Alt.=2557.639153m. Speed=3.000000m/h.]]></desc>
</trkpt>
<trkpt lat="36.687080" lon="137.764502">
<ele>2559.791544</ele>
<time>2014-08-17T01:10:42Z</time>
<desc><![CDATA[lat.=36.687080, lon.=137.764502, Alt.=2559.791544m. Speed=3.000000m/h.]]></desc>
</trkpt>
<trkpt lat="36.687051" lon="137.764485">
<ele>2560.807464</ele>
<time>2014-08-17T01:10:47Z</time>
<desc><![CDATA[lat.=36.687051, lon.=137.764485, Alt.=2560.807464m. Speed=3.000000m/h.]]></desc>
</trkpt>
<trkpt lat="36.687014" lon="137.764467">
<ele>2561.225943</ele>
<time>2014-08-17T01:10:52Z</time>
<desc><![CDATA[lat.=36.687014, lon.=137.764467, Alt.=2561.225943m. Speed=3.000000m/h.]]></desc>
</trkpt>
<trkpt lat="36.687001" lon="137.764436">
<ele>2559.921664</ele>
<time>2014-08-17T01:10:57Z</time>
<desc><![CDATA[lat.=36.687001, lon.=137.764436, Alt.=2559.921664m. Speed=3.000000m/h.]]></desc>
</trkpt>
<trkpt lat="36.686971" lon="137.764418">
<ele>2562.667787</ele>
<time>2014-08-17T01:11:02Z</time>
<desc><![CDATA[lat.=36.686971, lon.=137.764418, Alt.=2562.667787m. Speed=2.000000m/h.]]></desc>
</trkpt>
<trkpt lat="36.686952" lon="137.764408">
<ele>2565.472326</ele>
<time>2014-08-17T01:11:07Z</time>
<desc><![CDATA[lat.=36.686952, lon.=137.764408, Alt.=2565.472326m. Speed=2.000000m/h.]]></desc>
</trkpt>
<trkpt lat="36.686942" lon="137.764384">
<ele>2565.359218</ele>
<time>2014-08-17T01:11:12Z</time>
<desc><![CDATA[lat.=36.686942, lon.=137.764384, Alt.=2565.359218m. Speed=2.000000m/h.]]></desc>
</trkpt>
<trkpt lat="36.686927" lon="137.764383">
<ele>2565.894530</ele>
<time>2014-08-17T01:11:17Z</time>
<desc><![CDATA[lat.=36.686927, lon.=137.764383, Alt.=2565.894530m. Speed=2.000000m/h.]]></desc>
</trkpt>
<trkpt lat="36.686908" lon="137.764389">
<ele>2568.753766</ele>
<time>2014-08-17T01:11:22Z</time>
<desc><![CDATA[lat.=36.686908, lon.=137.764389, Alt.=2568.753766m. Speed=1.000000m/h.]]></desc>
</trkpt>
<trkpt lat="36.686901" lon="137.764373">
<ele>2568.101629</ele>
<time>2014-08-17T01:11:27Z</time>
<desc><![CDATA[lat.=36.686901, lon.=137.764373, Alt.=2568.101629m. Speed=1.000000m/h.]]></desc>
</trkpt>
<trkpt lat="36.686887" lon="137.764358">
<ele>2565.121853</ele>
<time>2014-08-17T01:11:32Z</time>
<desc><![CDATA[lat.=36.686887, lon.=137.764358, Alt.=2565.121853m. Speed=2.000000m/h.]]></desc>
</trkpt>
<trkpt lat="36.686870" lon="137.764351">
<ele>2562.735804</ele>
<time>2014-08-17T01:11:37Z</time>
<desc><![CDATA[lat.=36.686870, lon.=137.764351, Alt.=2562.735804m. Speed=2.000000m/h.]]></desc>
</trkpt>
<trkpt lat="36.686854" lon="137.764348">
<ele>2566.731513</ele>
<time>2014-08-17T01:11:42Z</time>
<desc><![CDATA[lat.=36.686854, lon.=137.764348, Alt.=2566.731513m. Speed=1.000000m/h.]]></desc>
</trkpt>
<trkpt lat="36.686850" lon="137.764355">
<ele>2569.055436</ele>
<time>2014-08-17T01:11:47Z</time>
<desc><![CDATA[lat.=36.686850, lon.=137.764355, Alt.=2569.055436m. Speed=0.000000m/h.]]></desc>
</trkpt>
<trkpt lat="36.686820" lon="137.764354">
<ele>2568.395870</ele>
<time>2014-08-17T01:11:52Z</time>
<desc><![CDATA[lat.=36.686820, lon.=137.764354, Alt.=2568.395870m. Speed=2.000000m/h.]]></desc>
</trkpt>
<trkpt lat="36.686799" lon="137.764339">
<ele>2566.548853</ele>
<time>2014-08-17T01:11:57Z</time>
<desc><![CDATA[lat.=36.686799, lon.=137.764339, Alt.=2566.548853m. Speed=2.000000m/h.]]></desc>
</trkpt>
<trkpt lat="36.686770" lon="137.764321">
<ele>2567.564793</ele>
<time>2014-08-17T01:12:02Z</time>
<desc><![CDATA[lat.=36.686770, lon.=137.764321, Alt.=2567.564793m. Speed=1.000000m/h.]]></desc>
</trkpt>
<trkpt lat="36.686777" lon="137.764321">
<ele>2568.162233</ele>
<time>2014-08-17T01:12:07Z</time>
<desc><![CDATA[lat.=36.686777, lon.=137.764321, Alt.=2568.162233m. Speed=0.000000m/h.]]></desc>
</trkpt>
<trkpt lat="36.686762" lon="137.764321">
<ele>2566.967353</ele>
<time>2014-08-17T01:12:12Z</time>
<desc><![CDATA[lat.=36.686762, lon.=137.764321, Alt.=2566.967353m. Speed=0.000000m/h.]]></desc>
</trkpt>
<trkpt lat="36.686762" lon="137.764336">
<ele>2568.752245</ele>
<time>2014-08-17T01:12:17Z</time>
<desc><![CDATA[lat.=36.686762, lon.=137.764336, Alt.=2568.752245m. Speed=0.000000m/h.]]></desc>
</trkpt>
<trkpt lat="36.686759" lon="137.764297">
<ele>2567.451692</ele>
<time>2014-08-17T01:12:22Z</time>
<desc><![CDATA[lat.=36.686759, lon.=137.764297, Alt.=2567.451692m. Speed=2.000000m/h.]]></desc>
</trkpt>
<trkpt lat="36.686748" lon="137.764272">
<ele>2569.068788</ele>
<time>2014-08-17T01:12:27Z</time>
<desc><![CDATA[lat.=36.686748, lon.=137.764272, Alt.=2569.068788m. Speed=2.000000m/h.]]></desc>
</trkpt>
<trkpt lat="36.686753" lon="137.764233">
<ele>2568.365677</ele>
<time>2014-08-17T01:12:32Z</time>
<desc><![CDATA[lat.=36.686753, lon.=137.764233, Alt.=2568.365677m. Speed=2.000000m/h.]]></desc>
</trkpt>
<trkpt lat="36.686761" lon="137.764186">
<ele>2568.799042</ele>
<time>2014-08-17T01:12:37Z</time>
<desc><![CDATA[lat.=36.686761, lon.=137.764186, Alt.=2568.799042m. Speed=2.000000m/h.]]></desc>
</trkpt>
<trkpt lat="36.686770" lon="137.764155">
<ele>2567.556902</ele>
<time>2014-08-17T01:12:42Z</time>
<desc><![CDATA[lat.=36.686770, lon.=137.764155, Alt.=2567.556902m. Speed=2.000000m/h.]]></desc>
</trkpt>
<trkpt lat="36.686755" lon="137.764121">
<ele>2571.443234</ele>
<time>2014-08-17T01:12:47Z</time>
<desc><![CDATA[lat.=36.686755, lon.=137.764121, Alt.=2571.443234m. Speed=3.000000m/h.]]></desc>
</trkpt>
<trkpt lat="36.686740" lon="137.764103">
<ele>2575.384258</ele>
<time>2014-08-17T01:12:52Z</time>
<desc><![CDATA[lat.=36.686740, lon.=137.764103, Alt.=2575.384258m. Speed=2.000000m/h.]]></desc>
</trkpt>
<trkpt lat="36.686744" lon="137.764063">
<ele>2576.411353</ele>
<time>2014-08-17T01:12:57Z</time>
<desc><![CDATA[lat.=36.686744, lon.=137.764063, Alt.=2576.411353m. Speed=2.000000m/h.]]></desc>
</trkpt>
<trkpt lat="36.686760" lon="137.764017">
<ele>2573.981772</ele>
<time>2014-08-17T01:13:02Z</time>
<desc><![CDATA[lat.=36.686760, lon.=137.764017, Alt.=2573.981772m. Speed=3.000000m/h.]]></desc>
</trkpt>
<trkpt lat="36.686761" lon="137.763970">
<ele>2573.817709</ele>
<time>2014-08-17T01:13:07Z</time>
<desc><![CDATA[lat.=36.686761, lon.=137.763970, Alt.=2573.817709m. Speed=3.000000m/h.]]></desc>
</trkpt>
<trkpt lat="36.686759" lon="137.763930">
<ele>2574.247371</ele>
<time>2014-08-17T01:13:12Z</time>
<desc><![CDATA[lat.=36.686759, lon.=137.763930, Alt.=2574.247371m. Speed=3.000000m/h.]]></desc>
</trkpt>
<trkpt lat="36.686759" lon="137.763882">
<ele>2575.813512</ele>
<time>2014-08-17T01:13:17Z</time>
<desc><![CDATA[lat.=36.686759, lon.=137.763882, Alt.=2575.813512m. Speed=3.000000m/h.]]></desc>
</trkpt>
<trkpt lat="36.686768" lon="137.763834">
<ele>2576.246897</ele>
<time>2014-08-17T01:13:22Z</time>
<desc><![CDATA[lat.=36.686768, lon.=137.763834, Alt.=2576.246897m. Speed=3.000000m/h.]]></desc>
</trkpt>
<trkpt lat="36.686765" lon="137.763795">
<ele>2576.676566</ele>
<time>2014-08-17T01:13:27Z</time>
<desc><![CDATA[lat.=36.686765, lon.=137.763795, Alt.=2576.676566m. Speed=3.000000m/h.]]></desc>
</trkpt>
<trkpt lat="36.686747" lon="137.763770">
<ele>2577.696238</ele>
<time>2014-08-17T01:13:32Z</time>
<desc><![CDATA[lat.=36.686747, lon.=137.763770, Alt.=2577.696238m. Speed=1.000000m/h.]]></desc>
</trkpt>
<trkpt lat="36.686748" lon="137.763722">
<ele>2577.532190</ele>
<time>2014-08-17T01:13:37Z</time>
<desc><![CDATA[lat.=36.686748, lon.=137.763722, Alt.=2577.532190m. Speed=3.000000m/h.]]></desc>
</trkpt>
<trkpt lat="36.686753" lon="137.763651">
<ele>2578.449943</ele>
<time>2014-08-17T01:13:42Z</time>
<desc><![CDATA[lat.=36.686753, lon.=137.763651, Alt.=2578.449943m. Speed=3.000000m/h.]]></desc>
</trkpt>
<trkpt lat="36.686761" lon="137.763603">
<ele>2578.883341</ele>
<time>2014-08-17T01:13:47Z</time>
<desc><![CDATA[lat.=36.686761, lon.=137.763603, Alt.=2578.883341m. Speed=3.000000m/h.]]></desc>
</trkpt>
<trkpt lat="36.686773" lon="137.763565">
<ele>2577.047505</ele>
<time>2014-08-17T01:13:52Z</time>
<desc><![CDATA[lat.=36.686773, lon.=137.763565, Alt.=2577.047505m. Speed=3.000000m/h.]]></desc>
</trkpt>
<trkpt lat="36.686781" lon="137.763549">
<ele>2577.590267</ele>
<time>2014-08-17T01:13:57Z</time>
<desc><![CDATA[lat.=36.686781, lon.=137.763549, Alt.=2577.590267m. Speed=3.000000m/h.]]></desc>
</trkpt>
<trkpt lat="36.686789" lon="137.763518">
<ele>2576.348152</ele>
<time>2014-08-17T01:14:02Z</time>
<desc><![CDATA[lat.=36.686789, lon.=137.763518, Alt.=2576.348152m. Speed=2.000000m/h.]]></desc>
</trkpt>
<trkpt lat="36.686771" lon="137.763525">
<ele>2577.477188</ele>
<time>2014-08-17T01:14:07Z</time>
<desc><![CDATA[lat.=36.686771, lon.=137.763525, Alt.=2577.477188m. Speed=0.000000m/h.]]></desc>
</trkpt>
<trkpt lat="36.686786" lon="137.763510">
<ele>2576.887192</ele>
<time>2014-08-17T01:14:12Z</time>
<desc><![CDATA[lat.=36.686786, lon.=137.763510, Alt.=2576.887192m. Speed=0.000000m/h.]]></desc>
</trkpt>
<trkpt lat="36.686797" lon="137.763485">
<ele>2580.296633</ele>
<time>2014-08-17T01:14:17Z</time>
<desc><![CDATA[lat.=36.686797, lon.=137.763485, Alt.=2580.296633m. Speed=2.000000m/h.]]></desc>
</trkpt>
<trkpt lat="36.686789" lon="137.763485">
<ele>2581.429391</ele>
<time>2014-08-17T01:14:22Z</time>
<desc><![CDATA[lat.=36.686789, lon.=137.763485, Alt.=2581.429391m. Speed=1.000000m/h.]]></desc>
</trkpt>
<trkpt lat="36.686792" lon="137.763492">
<ele>2582.620549</ele>
<time>2014-08-17T01:14:27Z</time>
<desc><![CDATA[lat.=36.686792, lon.=137.763492, Alt.=2582.620549m. Speed=0.000000m/h.]]></desc>
</trkpt>
<trkpt lat="36.686789" lon="137.763484">
<ele>2583.159589</ele>
<time>2014-08-17T01:14:32Z</time>
<desc><![CDATA[lat.=36.686789, lon.=137.763484, Alt.=2583.159589m. Speed=0.000000m/h.]]></desc>
</trkpt>
<trkpt lat="36.686781" lon="137.763484">
<ele>2582.562149</ele>
<time>2014-08-17T01:14:37Z</time>
<desc><![CDATA[lat.=36.686781, lon.=137.763484, Alt.=2582.562149m. Speed=0.000000m/h.]]></desc>
</trkpt>
<trkpt lat="36.686778" lon="137.763475">
<ele>2583.101189</ele>
<time>2014-08-17T01:14:42Z</time>
<desc><![CDATA[lat.=36.686778, lon.=137.763475, Alt.=2583.101189m. Speed=0.000000m/h.]]></desc>
</trkpt>
<trkpt lat="36.686785" lon="137.763476">
<ele>2581.968431</ele>
<time>2014-08-17T01:14:47Z</time>
<desc><![CDATA[lat.=36.686785, lon.=137.763476, Alt.=2581.968431m. Speed=1.000000m/h.]]></desc>
</trkpt>
<trkpt lat="36.686790" lon="137.763437">
<ele>2581.265360</ele>
<time>2014-08-17T01:14:52Z</time>
<desc><![CDATA[lat.=36.686790, lon.=137.763437, Alt.=2581.265360m. Speed=2.000000m/h.]]></desc>
</trkpt>
<trkpt lat="36.686809" lon="137.763398">
<ele>2581.757171</ele>
<time>2014-08-17T01:14:57Z</time>
<desc><![CDATA[lat.=36.686809, lon.=137.763398, Alt.=2581.757171m. Speed=2.000000m/h.]]></desc>
</trkpt>
<trkpt lat="36.686820" lon="137.763374">
<ele>2583.436418</ele>
<time>2014-08-17T01:15:02Z</time>
<desc><![CDATA[lat.=36.686820, lon.=137.763374, Alt.=2583.436418m. Speed=2.000000m/h.]]></desc>
</trkpt>
<trkpt lat="36.686817" lon="137.763350">
<ele>2583.920784</ele>
<time>2014-08-17T01:15:07Z</time>
<desc><![CDATA[lat.=36.686817, lon.=137.763350, Alt.=2583.920784m. Speed=1.000000m/h.]]></desc>
</trkpt>
<trkpt lat="36.686822" lon="137.763327">
<ele>2583.272394</ele>
<time>2014-08-17T01:15:12Z</time>
<desc><![CDATA[lat.=36.686822, lon.=137.763327, Alt.=2583.272394m. Speed=2.000000m/h.]]></desc>
</trkpt>
<trkpt lat="36.686822" lon="137.763295">
<ele>2583.163046</ele>
<time>2014-08-17T01:15:17Z</time>
<desc><![CDATA[lat.=36.686822, lon.=137.763295, Alt.=2583.163046m. Speed=2.000000m/h.]]></desc>
</trkpt>
<trkpt lat="36.686848" lon="137.763287">
<ele>2584.361653</ele>
<time>2014-08-17T01:15:22Z</time>
<desc><![CDATA[lat.=36.686848, lon.=137.763287, Alt.=2584.361653m. Speed=2.000000m/h.]]></desc>
</trkpt>
<trkpt lat="36.686847" lon="137.763318">
<ele>2586.201199</ele>
<time>2014-08-17T01:15:27Z</time>
<desc><![CDATA[lat.=36.686847, lon.=137.763318, Alt.=2586.201199m. Speed=2.000000m/h.]]></desc>
</trkpt>
<trkpt lat="36.686850" lon="137.763358">
<ele>2585.771507</ele>
<time>2014-08-17T01:15:32Z</time>
<desc><![CDATA[lat.=36.686850, lon.=137.763358, Alt.=2585.771507m. Speed=2.000000m/h.]]></desc>
</trkpt>
<trkpt lat="36.686875" lon="137.763383">
<ele>2585.349266</ele>
<time>2014-08-17T01:15:37Z</time>
<desc><![CDATA[lat.=36.686875, lon.=137.763383, Alt.=2585.349266m. Speed=2.000000m/h.]]></desc>
</trkpt>
<trkpt lat="36.686904" lon="137.763400">
<ele>2586.063510</ele>
<time>2014-08-17T01:15:42Z</time>
<desc><![CDATA[lat.=36.686904, lon.=137.763400, Alt.=2586.063510m. Speed=2.000000m/h.]]></desc>
</trkpt>
<trkpt lat="36.686925" lon="137.763415">
<ele>2587.910512</ele>
<time>2014-08-17T01:15:47Z</time>
<desc><![CDATA[lat.=36.686925, lon.=137.763415, Alt.=2587.910512m. Speed=2.000000m/h.]]></desc>
</trkpt>
<trkpt lat="36.686944" lon="137.763424">
<ele>2586.836159</ele>
<time>2014-08-17T01:15:52Z</time>
<desc><![CDATA[lat.=36.686944, lon.=137.763424, Alt.=2586.836159m. Speed=2.000000m/h.]]></desc>
</trkpt>
<trkpt lat="36.686973" lon="137.763441">
<ele>2587.550407</ele>
<time>2014-08-17T01:15:57Z</time>
<desc><![CDATA[lat.=36.686973, lon.=137.763441, Alt.=2587.550407m. Speed=2.000000m/h.]]></desc>
</trkpt>
<trkpt lat="36.687002" lon="137.763442">
<ele>2588.209981</ele>
<time>2014-08-17T01:16:02Z</time>
<desc><![CDATA[lat.=36.687002, lon.=137.763442, Alt.=2588.209981m. Speed=2.000000m/h.]]></desc>
</trkpt>
<trkpt lat="36.686998" lon="137.763450">
<ele>2587.073499</ele>
<time>2014-08-17T01:16:07Z</time>
<desc><![CDATA[lat.=36.686998, lon.=137.763450, Alt.=2587.073499m. Speed=1.000000m/h.]]></desc>
</trkpt>
<trkpt lat="36.687016" lon="137.763458">
<ele>2587.729347</ele>
<time>2014-08-17T01:16:12Z</time>
<desc><![CDATA[lat.=36.687016, lon.=137.763458, Alt.=2587.729347m. Speed=1.000000m/h.]]></desc>
</trkpt>
<trkpt lat="36.687026" lon="137.763465">
<ele>2591.248148</ele>
<time>2014-08-17T01:16:17Z</time>
<desc><![CDATA[lat.=36.687026, lon.=137.763465, Alt.=2591.248148m. Speed=2.000000m/h.]]></desc>
</trkpt>
<trkpt lat="36.687034" lon="137.763465">
<ele>2591.845591</ele>
<time>2014-08-17T01:16:23Z</time>
<desc><![CDATA[lat.=36.687034, lon.=137.763465, Alt.=2591.845591m. Speed=0.000000m/h.]]></desc>
</trkpt>
<trkpt lat="36.687044" lon="137.763473">
<ele>2591.903996</ele>
<time>2014-08-17T01:16:28Z</time>
<desc><![CDATA[lat.=36.687044, lon.=137.763473, Alt.=2591.903996m. Speed=1.000000m/h.]]></desc>
</trkpt>
<trkpt lat="36.687054" lon="137.763496">
<ele>2595.477475</ele>
<time>2014-08-17T01:16:33Z</time>
<desc><![CDATA[lat.=36.687054, lon.=137.763496, Alt.=2595.477475m. Speed=2.000000m/h.]]></desc>
</trkpt>
<trkpt lat="36.687065" lon="137.763521">
<ele>2593.860361</ele>
<time>2014-08-17T01:16:38Z</time>
<desc><![CDATA[lat.=36.687065, lon.=137.763521, Alt.=2593.860361m. Speed=1.000000m/h.]]></desc>
</trkpt>
<trkpt lat="36.687077" lon="137.763514">
<ele>2592.133891</ele>
<time>2014-08-17T01:16:43Z</time>
<desc><![CDATA[lat.=36.687077, lon.=137.763514, Alt.=2592.133891m. Speed=1.000000m/h.]]></desc>
</trkpt>
<trkpt lat="36.687076" lon="137.763513">
<ele>2593.864089</ele>
<time>2014-08-17T01:16:48Z</time>
<desc><![CDATA[lat.=36.687076, lon.=137.763513, Alt.=2593.864089m. Speed=0.000000m/h.]]></desc>
</trkpt>
<trkpt lat="36.687098" lon="137.763514">
<ele>2593.926224</ele>
<time>2014-08-17T01:16:53Z</time>
<desc><![CDATA[lat.=36.687098, lon.=137.763514, Alt.=2593.926224m. Speed=1.000000m/h.]]></desc>
</trkpt>
<trkpt lat="36.687095" lon="137.763506">
<ele>2594.465262</ele>
<time>2014-08-17T01:16:58Z</time>
<desc><![CDATA[lat.=36.687095, lon.=137.763506, Alt.=2594.465262m. Speed=0.000000m/h.]]></desc>
</trkpt>
<trkpt lat="36.687109" lon="137.763490">
<ele>2595.605474</ele>
<time>2014-08-17T01:17:03Z</time>
<desc><![CDATA[lat.=36.687109, lon.=137.763490, Alt.=2595.605474m. Speed=1.000000m/h.]]></desc>
</trkpt>
<trkpt lat="36.687117" lon="137.763458">
<ele>2596.093565</ele>
<time>2014-08-17T01:17:08Z</time>
<desc><![CDATA[lat.=36.687117, lon.=137.763458, Alt.=2596.093565m. Speed=2.000000m/h.]]></desc>
</trkpt>
<trkpt lat="36.687114" lon="137.763434">
<ele>2596.577927</ele>
<time>2014-08-17T01:17:13Z</time>
<desc><![CDATA[lat.=36.687114, lon.=137.763434, Alt.=2596.577927m. Speed=2.000000m/h.]]></desc>
</trkpt>
<trkpt lat="36.687108" lon="137.763403">
<ele>2595.871130</ele>
<time>2014-08-17T01:17:18Z</time>
<desc><![CDATA[lat.=36.687108, lon.=137.763403, Alt.=2595.871130m. Speed=2.000000m/h.]]></desc>
</trkpt>
<trkpt lat="36.687101" lon="137.763370">
<ele>2596.894533</ele>
<time>2014-08-17T01:17:23Z</time>
<desc><![CDATA[lat.=36.687101, lon.=137.763370, Alt.=2596.894533m. Speed=2.000000m/h.]]></desc>
</trkpt>
<trkpt lat="36.687090" lon="137.763346">
<ele>2596.781453</ele>
<time>2014-08-17T01:17:28Z</time>
<desc><![CDATA[lat.=36.687090, lon.=137.763346, Alt.=2596.781453m. Speed=1.000000m/h.]]></desc>
</trkpt>
<trkpt lat="36.687079" lon="137.763337">
<ele>2598.453246</ele>
<time>2014-08-17T01:17:33Z</time>
<desc><![CDATA[lat.=36.687079, lon.=137.763337, Alt.=2598.453246m. Speed=1.000000m/h.]]></desc>
</trkpt>
<trkpt lat="36.687080" lon="137.763290">
<ele>2598.289225</ele>
<time>2014-08-17T01:17:38Z</time>
<desc><![CDATA[lat.=36.687080, lon.=137.763290, Alt.=2598.289225m. Speed=2.000000m/h.]]></desc>
</trkpt>
<trkpt lat="36.687088" lon="137.763257">
<ele>2600.507521</ele>
<time>2014-08-17T01:17:43Z</time>
<desc><![CDATA[lat.=36.687088, lon.=137.763257, Alt.=2600.507521m. Speed=2.000000m/h.]]></desc>
</trkpt>
<trkpt lat="36.687085" lon="137.763217">
<ele>2600.937217</ele>
<time>2014-08-17T01:17:48Z</time>
<desc><![CDATA[lat.=36.687085, lon.=137.763217, Alt.=2600.937217m. Speed=2.000000m/h.]]></desc>
</trkpt>
<trkpt lat="36.687089" lon="137.763193">
<ele>2602.019031</ele>
<time>2014-08-17T01:17:53Z</time>
<desc><![CDATA[lat.=36.687089, lon.=137.763193, Alt.=2602.019031m. Speed=2.000000m/h.]]></desc>
</trkpt>
<trkpt lat="36.687068" lon="137.763145">
<ele>2601.792883</ele>
<time>2014-08-17T01:17:58Z</time>
<desc><![CDATA[lat.=36.687068, lon.=137.763145, Alt.=2601.792883m. Speed=2.000000m/h.]]></desc>
</trkpt>
<trkpt lat="36.687058" lon="137.763105">
<ele>2601.625141</ele>
<time>2014-08-17T01:18:03Z</time>
<desc><![CDATA[lat.=36.687058, lon.=137.763105, Alt.=2601.625141m. Speed=2.000000m/h.]]></desc>
</trkpt>
<trkpt lat="36.687037" lon="137.763073">
<ele>2601.453668</ele>
<time>2014-08-17T01:18:08Z</time>
<desc><![CDATA[lat.=36.687037, lon.=137.763073, Alt.=2601.453668m. Speed=2.000000m/h.]]></desc>
</trkpt>
<trkpt lat="36.687029" lon="137.763056">
<ele>2604.261953</ele>
<time>2014-08-17T01:18:13Z</time>
<desc><![CDATA[lat.=36.687029, lon.=137.763056, Alt.=2604.261953m. Speed=2.000000m/h.]]></desc>
</trkpt>
<trkpt lat="36.687037" lon="137.763024">
<ele>2604.750059</ele>
<time>2014-08-17T01:18:18Z</time>
<desc><![CDATA[lat.=36.687037, lon.=137.763024, Alt.=2604.750059m. Speed=2.000000m/h.]]></desc>
</trkpt>
<trkpt lat="36.687034" lon="137.763001">
<ele>2603.504236</ele>
<time>2014-08-17T01:18:23Z</time>
<desc><![CDATA[lat.=36.687034, lon.=137.763001, Alt.=2603.504236m. Speed=2.000000m/h.]]></desc>
</trkpt>
<trkpt lat="36.687049" lon="137.762986">
<ele>2602.914258</ele>
<time>2014-08-17T01:18:28Z</time>
<desc><![CDATA[lat.=36.687049, lon.=137.762986, Alt.=2602.914258m. Speed=1.000000m/h.]]></desc>
</trkpt>
<trkpt lat="36.687020" lon="137.762936">
<ele>2605.551078</ele>
<time>2014-08-17T01:18:33Z</time>
<desc><![CDATA[lat.=36.687020, lon.=137.762936, Alt.=2605.551078m. Speed=2.000000m/h.]]></desc>
</trkpt>
<trkpt lat="36.687010" lon="137.762895">
<ele>2607.113545</ele>
<time>2014-08-17T01:18:38Z</time>
<desc><![CDATA[lat.=36.687010, lon.=137.762895, Alt.=2607.113545m. Speed=2.000000m/h.]]></desc>
</trkpt>
<trkpt lat="36.686992" lon="137.762871">
<ele>2606.403038</ele>
<time>2014-08-17T01:18:43Z</time>
<desc><![CDATA[lat.=36.686992, lon.=137.762871, Alt.=2606.403038m. Speed=2.000000m/h.]]></desc>
</trkpt>
<trkpt lat="36.686974" lon="137.762831">
<ele>2607.368067</ele>
<time>2014-08-17T01:18:48Z</time>
<desc><![CDATA[lat.=36.686974, lon.=137.762831, Alt.=2607.368067m. Speed=2.000000m/h.]]></desc>
</trkpt>
<trkpt lat="36.686963" lon="137.762789">
<ele>2610.660740</ele>
<time>2014-08-17T01:18:53Z</time>
<desc><![CDATA[lat.=36.686963, lon.=137.762789, Alt.=2610.660740m. Speed=2.000000m/h.]]></desc>
</trkpt>
<trkpt lat="36.686946" lon="137.762765">
<ele>2609.950238</ele>
<time>2014-08-17T01:18:58Z</time>
<desc><![CDATA[lat.=36.686946, lon.=137.762765, Alt.=2609.950238m. Speed=2.000000m/h.]]></desc>
</trkpt>
<trkpt lat="36.686951" lon="137.762726">
<ele>2609.247203</ele>
<time>2014-08-17T01:19:03Z</time>
<desc><![CDATA[lat.=36.686951, lon.=137.762726, Alt.=2609.247203m. Speed=2.000000m/h.]]></desc>
</trkpt>
<trkpt lat="36.686951" lon="137.762710">
<ele>2609.192540</ele>
<time>2014-08-17T01:19:08Z</time>
<desc><![CDATA[lat.=36.686951, lon.=137.762710, Alt.=2609.192540m. Speed=2.000000m/h.]]></desc>
</trkpt>
<trkpt lat="36.686948" lon="137.762686">
<ele>2609.676926</ele>
<time>2014-08-17T01:19:13Z</time>
<desc><![CDATA[lat.=36.686948, lon.=137.762686, Alt.=2609.676926m. Speed=2.000000m/h.]]></desc>
</trkpt>
<trkpt lat="36.686959" lon="137.762679">
<ele>2609.680659</ele>
<time>2014-08-17T01:19:18Z</time>
<desc><![CDATA[lat.=36.686959, lon.=137.762679, Alt.=2609.680659m. Speed=1.000000m/h.]]></desc>
</trkpt>
<trkpt lat="36.686966" lon="137.762663">
<ele>2610.223441</ele>
<time>2014-08-17T01:19:23Z</time>
<desc><![CDATA[lat.=36.686966, lon.=137.762663, Alt.=2610.223441m. Speed=1.000000m/h.]]></desc>
</trkpt>
<trkpt lat="36.686978" lon="137.762655">
<ele>2610.227175</ele>
<time>2014-08-17T01:19:28Z</time>
<desc><![CDATA[lat.=36.686978, lon.=137.762655, Alt.=2610.227175m. Speed=1.000000m/h.]]></desc>
</trkpt>
<trkpt lat="36.686978" lon="137.762639">
<ele>2611.902713</ele>
<time>2014-08-17T01:19:33Z</time>
<desc><![CDATA[lat.=36.686978, lon.=137.762639, Alt.=2611.902713m. Speed=1.000000m/h.]]></desc>
</trkpt>
<trkpt lat="36.686982" lon="137.762615">
<ele>2612.984544</ele>
<time>2014-08-17T01:19:38Z</time>
<desc><![CDATA[lat.=36.686982, lon.=137.762615, Alt.=2612.984544m. Speed=2.000000m/h.]]></desc>
</trkpt>
<trkpt lat="36.686982" lon="137.762583">
<ele>2612.875224</ele>
<time>2014-08-17T01:19:43Z</time>
<desc><![CDATA[lat.=36.686982, lon.=137.762583, Alt.=2612.875224m. Speed=2.000000m/h.]]></desc>
</trkpt>
<trkpt lat="36.686976" lon="137.762535">
<ele>2613.844003</ele>
<time>2014-08-17T01:19:48Z</time>
<desc><![CDATA[lat.=36.686976, lon.=137.762535, Alt.=2613.844003m. Speed=2.000000m/h.]]></desc>
</trkpt>
<trkpt lat="36.686984" lon="137.762503">
<ele>2614.332129</ele>
<time>2014-08-17T01:19:53Z</time>
<desc><![CDATA[lat.=36.686984, lon.=137.762503, Alt.=2614.332129m. Speed=2.000000m/h.]]></desc>
</trkpt>
<trkpt lat="36.686985" lon="137.762472">
<ele>2614.222814</ele>
<time>2014-08-17T01:19:58Z</time>
<desc><![CDATA[lat.=36.686985, lon.=137.762472, Alt.=2614.222814m. Speed=2.000000m/h.]]></desc>
</trkpt>
<trkpt lat="36.686992" lon="137.762456">
<ele>2614.765600</ele>
<time>2014-08-17T01:20:03Z</time>
<desc><![CDATA[lat.=36.686992, lon.=137.762456, Alt.=2614.765600m. Speed=1.000000m/h.]]></desc>
</trkpt>
<trkpt lat="36.686982" lon="137.762415">
<ele>2616.328092</ele>
<time>2014-08-17T01:20:08Z</time>
<desc><![CDATA[lat.=36.686982, lon.=137.762415, Alt.=2616.328092m. Speed=2.000000m/h.]]></desc>
</trkpt>
<trkpt lat="36.686990" lon="137.762385">
<ele>2615.086025</ele>
<time>2014-08-17T01:20:13Z</time>
<desc><![CDATA[lat.=36.686990, lon.=137.762385, Alt.=2615.086025m. Speed=2.000000m/h.]]></desc>
</trkpt>
<trkpt lat="36.686965" lon="137.762344">
<ele>2615.453635</ele>
<time>2014-08-17T01:20:18Z</time>
<desc><![CDATA[lat.=36.686965, lon.=137.762344, Alt.=2615.453635m. Speed=3.000000m/h.]]></desc>
</trkpt>
<trkpt lat="36.686950" lon="137.762310">
<ele>2619.340039</ele>
<time>2014-08-17T01:20:23Z</time>
<desc><![CDATA[lat.=36.686950, lon.=137.762310, Alt.=2619.340039m. Speed=2.000000m/h.]]></desc>
</trkpt>
<trkpt lat="36.686947" lon="137.762302">
<ele>2619.879090</ele>
<time>2014-08-17T01:20:29Z</time>
<desc><![CDATA[lat.=36.686947, lon.=137.762302, Alt.=2619.879090m. Speed=1.000000m/h.]]></desc>
</trkpt>
<trkpt lat="36.686929" lon="137.762261">
<ele>2620.844149</ele>
<time>2014-08-17T01:20:34Z</time>
<desc><![CDATA[lat.=36.686929, lon.=137.762261, Alt.=2620.844149m. Speed=1.000000m/h.]]></desc>
</trkpt>
<trkpt lat="36.686911" lon="137.762253">
<ele>2620.188317</ele>
<time>2014-08-17T01:20:39Z</time>
<desc><![CDATA[lat.=36.686911, lon.=137.762253, Alt.=2620.188317m. Speed=0.000000m/h.]]></desc>
</trkpt>
<trkpt lat="36.686914" lon="137.762261">
<ele>2619.649265</ele>
<time>2014-08-17T01:20:44Z</time>
<desc><![CDATA[lat.=36.686914, lon.=137.762261, Alt.=2619.649265m. Speed=0.000000m/h.]]></desc>
</trkpt>
<trkpt lat="36.686922" lon="137.762261">
<ele>2620.246707</ele>
<time>2014-08-17T01:20:49Z</time>
<desc><![CDATA[lat.=36.686922, lon.=137.762261, Alt.=2620.246707m. Speed=0.000000m/h.]]></desc>
</trkpt>
<trkpt lat="36.686918" lon="137.762253">
<ele>2620.785759</ele>
<time>2014-08-17T01:20:57Z</time>
<desc><![CDATA[lat.=36.686918, lon.=137.762253, Alt.=2620.785759m. Speed=0.000000m/h.]]></desc>
</trkpt>
<trkpt lat="36.686922" lon="137.762261">
<ele>2620.246707</ele>
<time>2014-08-17T01:21:02Z</time>
<desc><![CDATA[lat.=36.686922, lon.=137.762261, Alt.=2620.246707m. Speed=0.000000m/h.]]></desc>
</trkpt>
<trkpt lat="36.686918" lon="137.762269">
<ele>2620.840412</ele>
<time>2014-08-17T01:21:14Z</time>
<desc><![CDATA[lat.=36.686918, lon.=137.762269, Alt.=2620.840412m. Speed=1.000000m/h.]]></desc>
</trkpt>
<trkpt lat="36.686907" lon="137.762260">
<ele>2620.782022</ele>
<time>2014-08-17T01:21:19Z</time>
<desc><![CDATA[lat.=36.686907, lon.=137.762260, Alt.=2620.782022m. Speed=2.000000m/h.]]></desc>
</trkpt>
<trkpt lat="36.686871" lon="137.762211">
<ele>2621.091254</ele>
<time>2014-08-17T01:21:24Z</time>
<desc><![CDATA[lat.=36.686871, lon.=137.762211, Alt.=2621.091254m. Speed=3.000000m/h.]]></desc>
</trkpt>
<trkpt lat="36.686850" lon="137.762179">
<ele>2620.919826</ele>
<time>2014-08-17T01:21:29Z</time>
<desc><![CDATA[lat.=36.686850, lon.=137.762179, Alt.=2620.919826m. Speed=3.000000m/h.]]></desc>
</trkpt>
<trkpt lat="36.686839" lon="137.762155">
<ele>2620.806787</ele>
<time>2014-08-17T01:21:34Z</time>
<desc><![CDATA[lat.=36.686839, lon.=137.762155, Alt.=2620.806787m. Speed=2.000000m/h.]]></desc>
</trkpt>
<trkpt lat="36.686822" lon="137.762131">
<ele>2620.096309</ele>
<time>2014-08-17T01:21:39Z</time>
<desc><![CDATA[lat.=36.686822, lon.=137.762131, Alt.=2620.096309m. Speed=2.000000m/h.]]></desc>
</trkpt>
<trkpt lat="36.686804" lon="137.762090">
<ele>2621.061381</ele>
<time>2014-08-17T01:21:44Z</time>
<desc><![CDATA[lat.=36.686804, lon.=137.762090, Alt.=2621.061381m. Speed=2.000000m/h.]]></desc>
</trkpt>
<trkpt lat="36.686747" lon="137.762109">
<ele>2627.908853</ele>
<time>2014-08-17T01:21:49Z</time>
<desc><![CDATA[lat.=36.686747, lon.=137.762109, Alt.=2627.908853m. Speed=3.000000m/h.]]></desc>
</trkpt>
<trkpt lat="36.686714" lon="137.762068">
<ele>2627.679050</ele>
<time>2014-08-17T01:21:54Z</time>
<desc><![CDATA[lat.=36.686714, lon.=137.762068, Alt.=2627.679050m. Speed=3.000000m/h.]]></desc>
</trkpt>
<trkpt lat="36.686690" lon="137.762046">
<ele>2622.910739</ele>
<time>2014-08-17T01:21:59Z</time>
<desc><![CDATA[lat.=36.686690, lon.=137.762046, Alt.=2622.910739m. Speed=2.000000m/h.]]></desc>
</trkpt>
<trkpt lat="36.686683" lon="137.762030">
<ele>2622.258652</ele>
<time>2014-08-17T01:22:04Z</time>
<desc><![CDATA[lat.=36.686683, lon.=137.762030, Alt.=2622.258652m. Speed=1.000000m/h.]]></desc>
</trkpt>
<trkpt lat="36.686673" lon="137.762005">
<ele>2623.875820</ele>
<time>2014-08-17T01:22:09Z</time>
<desc><![CDATA[lat.=36.686673, lon.=137.762005, Alt.=2623.875820m. Speed=2.000000m/h.]]></desc>
</trkpt>
<trkpt lat="36.686659" lon="137.761973">
<ele>2624.301847</ele>
<time>2014-08-17T01:22:14Z</time>
<desc><![CDATA[lat.=36.686659, lon.=137.761973, Alt.=2624.301847m. Speed=2.000000m/h.]]></desc>
</trkpt>
<trkpt lat="36.686656" lon="137.761934">
<ele>2623.001410</ele>
<time>2014-08-17T01:22:19Z</time>
<desc><![CDATA[lat.=36.686656, lon.=137.761934, Alt.=2623.001410m. Speed=2.000000m/h.]]></desc>
</trkpt>
<trkpt lat="36.686642" lon="137.761901">
<ele>2623.427440</ele>
<time>2014-08-17T01:22:24Z</time>
<desc><![CDATA[lat.=36.686642, lon.=137.761901, Alt.=2623.427440m. Speed=2.000000m/h.]]></desc>
</trkpt>
<trkpt lat="36.686621" lon="137.761886">
<ele>2619.850280</ele>
<time>2014-08-17T01:22:29Z</time>
<desc><![CDATA[lat.=36.686621, lon.=137.761886, Alt.=2619.850280m. Speed=2.000000m/h.]]></desc>
</trkpt>
<trkpt lat="36.686591" lon="137.761901">
<ele>2620.975575</ele>
<time>2014-08-17T01:22:34Z</time>
<desc><![CDATA[lat.=36.686591, lon.=137.761901, Alt.=2620.975575m. Speed=2.000000m/h.]]></desc>
</trkpt>
<trkpt lat="36.686552" lon="137.761994">
<ele>2638.539613</ele>
<time>2014-08-17T01:22:39Z</time>
<desc><![CDATA[lat.=36.686552, lon.=137.761994, Alt.=2638.539613m. Speed=2.000000m/h.]]></desc>
</trkpt>
<trkpt lat="36.686558" lon="137.762010">
<ele>2640.921898</ele>
<time>2014-08-17T01:22:44Z</time>
<desc><![CDATA[lat.=36.686558, lon.=137.762010, Alt.=2640.921898m. Speed=2.000000m/h.]]></desc>
</trkpt>
<trkpt lat="36.686565" lon="137.762025">
<ele>2643.304183</ele>
<time>2014-08-17T01:22:49Z</time>
<desc><![CDATA[lat.=36.686565, lon.=137.762025, Alt.=2643.304183m. Speed=0.000000m/h.]]></desc>
</trkpt>
<trkpt lat="36.686570" lon="137.761986">
<ele>2640.870981</ele>
<time>2014-08-17T01:22:54Z</time>
<desc><![CDATA[lat.=36.686570, lon.=137.761986, Alt.=2640.870981m. Speed=0.000000m/h.]]></desc>
</trkpt>
<trkpt lat="36.686551" lon="137.761993">
<ele>2642.000013</ele>
<time>2014-08-17T01:22:59Z</time>
<desc><![CDATA[lat.=36.686551, lon.=137.761993, Alt.=2642.000013m. Speed=0.000000m/h.]]></desc>
</trkpt>
<trkpt lat="36.686548" lon="137.761985">
<ele>2640.808870</ele>
<time>2014-08-17T01:23:07Z</time>
<desc><![CDATA[lat.=36.686548, lon.=137.761985, Alt.=2640.808870m. Speed=0.000000m/h.]]></desc>
</trkpt>
<trkpt lat="36.686537" lon="137.761993">
<ele>2640.805139</ele>
<time>2014-08-17T01:23:12Z</time>
<desc><![CDATA[lat.=36.686537, lon.=137.761993, Alt.=2640.805139m. Speed=0.000000m/h.]]></desc>
</trkpt>
<trkpt lat="36.686531" lon="137.762031">
<ele>2643.238342</ele>
<time>2014-08-17T01:23:17Z</time>
<desc><![CDATA[lat.=36.686531, lon.=137.762031, Alt.=2643.238342m. Speed=0.000000m/h.]]></desc>
</trkpt>
<trkpt lat="36.686516" lon="137.762061">
<ele>2645.613167</ele>
<time>2014-08-17T01:23:22Z</time>
<desc><![CDATA[lat.=36.686516, lon.=137.762061, Alt.=2645.613167m. Speed=2.000000m/h.]]></desc>
</trkpt>
<trkpt lat="36.686488" lon="137.762115">
<ele>2648.038914</ele>
<time>2014-08-17T01:23:27Z</time>
<desc><![CDATA[lat.=36.686488, lon.=137.762115, Alt.=2648.038914m. Speed=2.000000m/h.]]></desc>
</trkpt>
<trkpt lat="36.686474" lon="137.762099">
<ele>2646.789392</ele>
<time>2014-08-17T01:23:32Z</time>
<desc><![CDATA[lat.=36.686474, lon.=137.762099, Alt.=2646.789392m. Speed=2.000000m/h.]]></desc>
</trkpt>
<trkpt lat="36.686471" lon="137.762075">
<ele>2647.273799</ele>
<time>2014-08-17T01:23:37Z</time>
<desc><![CDATA[lat.=36.686471, lon.=137.762075, Alt.=2647.273799m. Speed=2.000000m/h.]]></desc>
</trkpt>
<trkpt lat="36.686452" lon="137.762015">
<ele>2638.342096</ele>
<time>2014-08-17T01:23:42Z</time>
<desc><![CDATA[lat.=36.686452, lon.=137.762015, Alt.=2638.342096m. Speed=2.000000m/h.]]></desc>
</trkpt>
<trkpt lat="36.686432" lon="137.761968">
<ele>2634.655645</ele>
<time>2014-08-17T01:23:47Z</time>
<desc><![CDATA[lat.=36.686432, lon.=137.761968, Alt.=2634.655645m. Speed=2.000000m/h.]]></desc>
</trkpt>
<trkpt lat="36.686427" lon="137.761906">
<ele>2630.379221</ele>
<time>2014-08-17T01:23:52Z</time>
<desc><![CDATA[lat.=36.686427, lon.=137.761906, Alt.=2630.379221m. Speed=2.000000m/h.]]></desc>
</trkpt>
<trkpt lat="36.686421" lon="137.761859">
<ele>2629.617848</ele>
<time>2014-08-17T01:23:57Z</time>
<desc><![CDATA[lat.=36.686421, lon.=137.761859, Alt.=2629.617848m. Speed=3.000000m/h.]]></desc>
</trkpt>
<trkpt lat="36.686429" lon="137.761844">
<ele>2628.430437</ele>
<time>2014-08-17T01:24:02Z</time>
<desc><![CDATA[lat.=36.686429, lon.=137.761844, Alt.=2628.430437m. Speed=0.000000m/h.]]></desc>
</trkpt>
<trkpt lat="36.686429" lon="137.761827">
<ele>2630.105992</ele>
<time>2014-08-17T01:24:07Z</time>
<desc><![CDATA[lat.=36.686429, lon.=137.761827, Alt.=2630.105992m. Speed=1.000000m/h.]]></desc>
</trkpt>
<trkpt lat="36.686443" lon="137.761812">
<ele>2631.246218</ele>
<time>2014-08-17T01:24:12Z</time>
<desc><![CDATA[lat.=36.686443, lon.=137.761812, Alt.=2631.246218m. Speed=2.000000m/h.]]></desc>
</trkpt>
<trkpt lat="36.686447" lon="137.761803">
<ele>2634.112914</ele>
<time>2014-08-17T01:24:17Z</time>
<desc><![CDATA[lat.=36.686447, lon.=137.761803, Alt.=2634.112914m. Speed=1.000000m/h.]]></desc>
</trkpt>
<trkpt lat="36.686444" lon="137.761763">
<ele>2634.542686</ele>
<time>2014-08-17T01:24:22Z</time>
<desc><![CDATA[lat.=36.686444, lon.=137.761763, Alt.=2634.542686m. Speed=2.000000m/h.]]></desc>
</trkpt>
<trkpt lat="36.686459" lon="137.761732">
<ele>2633.898070</ele>
<time>2014-08-17T01:24:27Z</time>
<desc><![CDATA[lat.=36.686459, lon.=137.761732, Alt.=2633.898070m. Speed=2.000000m/h.]]></desc>
</trkpt>
<trkpt lat="36.686459" lon="137.761699">
<ele>2637.249185</ele>
<time>2014-08-17T01:24:32Z</time>
<desc><![CDATA[lat.=36.686459, lon.=137.761699, Alt.=2637.249185m. Speed=2.000000m/h.]]></desc>
</trkpt>
<trkpt lat="36.686448" lon="137.761674">
<ele>2638.866369</ele>
<time>2014-08-17T01:24:37Z</time>
<desc><![CDATA[lat.=36.686448, lon.=137.761674, Alt.=2638.866369m. Speed=2.000000m/h.]]></desc>
</trkpt>
<trkpt lat="36.686460" lon="137.761635">
<ele>2638.760818</ele>
<time>2014-08-17T01:24:42Z</time>
<desc><![CDATA[lat.=36.686460, lon.=137.761635, Alt.=2638.760818m. Speed=2.000000m/h.]]></desc>
</trkpt>
<trkpt lat="36.686457" lon="137.761594">
<ele>2640.920799</ele>
<time>2014-08-17T01:24:47Z</time>
<desc><![CDATA[lat.=36.686457, lon.=137.761594, Alt.=2640.920799m. Speed=3.000000m/h.]]></desc>
</trkpt>
<trkpt lat="36.686465" lon="137.761563">
<ele>2641.408954</ele>
<time>2014-08-17T01:24:52Z</time>
<desc><![CDATA[lat.=36.686465, lon.=137.761563, Alt.=2641.408954m. Speed=3.000000m/h.]]></desc>
</trkpt>
<trkpt lat="36.686469" lon="137.761523">
<ele>2642.436174</ele>
<time>2014-08-17T01:24:57Z</time>
<desc><![CDATA[lat.=36.686469, lon.=137.761523, Alt.=2642.436174m. Speed=3.000000m/h.]]></desc>
</trkpt>
<trkpt lat="36.686496" lon="137.761484">
<ele>2643.525503</ele>
<time>2014-08-17T01:25:02Z</time>
<desc><![CDATA[lat.=36.686496, lon.=137.761484, Alt.=2643.525503m. Speed=3.000000m/h.]]></desc>
</trkpt>
<trkpt lat="36.686500" lon="137.761460">
<ele>2642.877165</ele>
<time>2014-08-17T01:25:07Z</time>
<desc><![CDATA[lat.=36.686500, lon.=137.761460, Alt.=2642.877165m. Speed=3.000000m/h.]]></desc>
</trkpt>
<trkpt lat="36.686497" lon="137.761420">
<ele>2643.306953</ele>
<time>2014-08-17T01:25:12Z</time>
<desc><![CDATA[lat.=36.686497, lon.=137.761420, Alt.=2643.306953m. Speed=3.000000m/h.]]></desc>
</trkpt>
<trkpt lat="36.686490" lon="137.761388">
<ele>2644.330445</ele>
<time>2014-08-17T01:25:17Z</time>
<desc><![CDATA[lat.=36.686490, lon.=137.761388, Alt.=2644.330445m. Speed=2.000000m/h.]]></desc>
</trkpt>
<trkpt lat="36.686473" lon="137.761347">
<ele>2645.295566</ele>
<time>2014-08-17T01:25:22Z</time>
<desc><![CDATA[lat.=36.686473, lon.=137.761347, Alt.=2645.295566m. Speed=3.000000m/h.]]></desc>
</trkpt>
<trkpt lat="36.686456" lon="137.761309">
<ele>2641.070088</ele>
<time>2014-08-17T01:25:27Z</time>
<desc><![CDATA[lat.=36.686456, lon.=137.761309, Alt.=2641.070088m. Speed=3.000000m/h.]]></desc>
</trkpt>
<trkpt lat="36.686446" lon="137.761268">
<ele>2642.632650</ele>
<time>2014-08-17T01:25:32Z</time>
<desc><![CDATA[lat.=36.686446, lon.=137.761268, Alt.=2642.632650m. Speed=2.000000m/h.]]></desc>
</trkpt>
<trkpt lat="36.686409" lon="137.761250">
<ele>2644.781442</ele>
<time>2014-08-17T01:25:37Z</time>
<desc><![CDATA[lat.=36.686409, lon.=137.761250, Alt.=2644.781442m. Speed=3.000000m/h.]]></desc>
</trkpt>
<trkpt lat="36.686395" lon="137.761219">
<ele>2643.477306</ele>
<time>2014-08-17T01:25:42Z</time>
<desc><![CDATA[lat.=36.686395, lon.=137.761219, Alt.=2643.477306m. Speed=3.000000m/h.]]></desc>
</trkpt>
<trkpt lat="36.686377" lon="137.761193">
<ele>2646.227272</ele>
<time>2014-08-17T01:25:47Z</time>
<desc><![CDATA[lat.=36.686377, lon.=137.761193, Alt.=2646.227272m. Speed=2.000000m/h.]]></desc>
</trkpt>
<trkpt lat="36.686376" lon="137.761176">
<ele>2649.633041</ele>
<time>2014-08-17T01:25:52Z</time>
<desc><![CDATA[lat.=36.686376, lon.=137.761176, Alt.=2649.633041m. Speed=2.000000m/h.]]></desc>
</trkpt>
<trkpt lat="36.686384" lon="137.761177">
<ele>2648.500275</ele>
<time>2014-08-17T01:25:57Z</time>
<desc><![CDATA[lat.=36.686384, lon.=137.761177, Alt.=2648.500275m. Speed=0.000000m/h.]]></desc>
</trkpt>
<trkpt lat="36.686339" lon="137.761158">
<ele>2651.781840</ele>
<time>2014-08-17T01:26:02Z</time>
<desc><![CDATA[lat.=36.686339, lon.=137.761158, Alt.=2651.781840m. Speed=2.000000m/h.]]></desc>
</trkpt>
<trkpt lat="36.686310" lon="137.761124">
<ele>2654.473445</ele>
<time>2014-08-17T01:26:07Z</time>
<desc><![CDATA[lat.=36.686310, lon.=137.761124, Alt.=2654.473445m. Speed=3.000000m/h.]]></desc>
</trkpt>
<trkpt lat="36.686284" lon="137.761098">
<ele>2656.625984</ele>
<time>2014-08-17T01:26:12Z</time>
<desc><![CDATA[lat.=36.686284, lon.=137.761098, Alt.=2656.625984m. Speed=3.000000m/h.]]></desc>
</trkpt>
<trkpt lat="36.686251" lon="137.761073">
<ele>2658.181092</ele>
<time>2014-08-17T01:26:17Z</time>
<desc><![CDATA[lat.=36.686251, lon.=137.761073, Alt.=2658.181092m. Speed=3.000000m/h.]]></desc>
</trkpt>
<trkpt lat="36.686217" lon="137.761094">
<ele>2661.630295</ele>
<time>2014-08-17T01:26:22Z</time>
<desc><![CDATA[lat.=36.686217, lon.=137.761094, Alt.=2661.630295m. Speed=3.000000m/h.]]></desc>
</trkpt>
<trkpt lat="36.686211" lon="137.761079">
<ele>2659.248031</ele>
<time>2014-08-17T01:26:27Z</time>
<desc><![CDATA[lat.=36.686211, lon.=137.761079, Alt.=2659.248031m. Speed=2.000000m/h.]]></desc>
</trkpt>
<trkpt lat="36.686207" lon="137.761086">
<ele>2659.841731</ele>
<time>2014-08-17T01:26:32Z</time>
<desc><![CDATA[lat.=36.686207, lon.=137.761086, Alt.=2659.841731m. Speed=0.000000m/h.]]></desc>
</trkpt>
<trkpt lat="36.686193" lon="137.761055">
<ele>2656.807405</ele>
<time>2014-08-17T01:26:37Z</time>
<desc><![CDATA[lat.=36.686193, lon.=137.761055, Alt.=2656.807405m. Speed=1.000000m/h.]]></desc>
</trkpt>
<trkpt lat="36.686181" lon="137.760993">
<ele>2653.663824</ele>
<time>2014-08-17T01:26:42Z</time>
<desc><![CDATA[lat.=36.686181, lon.=137.760993, Alt.=2653.663824m. Speed=3.000000m/h.]]></desc>
</trkpt>
<trkpt lat="36.686170" lon="137.760952">
<ele>2655.226407</ele>
<time>2014-08-17T01:26:47Z</time>
<desc><![CDATA[lat.=36.686170, lon.=137.760952, Alt.=2655.226407m. Speed=3.000000m/h.]]></desc>
</trkpt>
<trkpt lat="36.686152" lon="137.760911">
<ele>2657.921763</ele>
<time>2014-08-17T01:26:52Z</time>
<desc><![CDATA[lat.=36.686152, lon.=137.760911, Alt.=2657.921763m. Speed=3.000000m/h.]]></desc>
</trkpt>
<trkpt lat="36.686146" lon="137.760863">
<ele>2657.160452</ele>
<time>2014-08-17T01:26:57Z</time>
<desc><![CDATA[lat.=36.686146, lon.=137.760863, Alt.=2657.160452m. Speed=3.000000m/h.]]></desc>
</trkpt>
<trkpt lat="36.686147" lon="137.760816">
<ele>2656.996575</ele>
<time>2014-08-17T01:27:02Z</time>
<desc><![CDATA[lat.=36.686147, lon.=137.760816, Alt.=2656.996575m. Speed=3.000000m/h.]]></desc>
</trkpt>
<trkpt lat="36.686148" lon="137.760784">
<ele>2656.887325</ele>
<time>2014-08-17T01:27:07Z</time>
<desc><![CDATA[lat.=36.686148, lon.=137.760784, Alt.=2656.887325m. Speed=3.000000m/h.]]></desc>
</trkpt>
<trkpt lat="36.686123" lon="137.760745">
<ele>2655.524856</ele>
<time>2014-08-17T01:27:12Z</time>
<desc><![CDATA[lat.=36.686123, lon.=137.760745, Alt.=2655.524856m. Speed=3.000000m/h.]]></desc>
</trkpt>
<trkpt lat="36.686113" lon="137.760688">
<ele>2657.032831</ele>
<time>2014-08-17T01:27:17Z</time>
<desc><![CDATA[lat.=36.686113, lon.=137.760688, Alt.=2657.032831m. Speed=4.000000m/h.]]></desc>
</trkpt>
<trkpt lat="36.686103" lon="137.760632">
<ele>2656.810608</ele>
<time>2014-08-17T01:27:22Z</time>
<desc><![CDATA[lat.=36.686103, lon.=137.760632, Alt.=2656.810608m. Speed=4.000000m/h.]]></desc>
</trkpt>
<trkpt lat="36.686101" lon="137.760577">
<ele>2657.185820</ele>
<time>2014-08-17T01:27:27Z</time>
<desc><![CDATA[lat.=36.686101, lon.=137.760577, Alt.=2657.185820m. Speed=4.000000m/h.]]></desc>
</trkpt>
<trkpt lat="36.686095" lon="137.760530">
<ele>2654.694327</ele>
<time>2014-08-17T01:27:32Z</time>
<desc><![CDATA[lat.=36.686095, lon.=137.760530, Alt.=2654.694327m. Speed=3.000000m/h.]]></desc>
</trkpt>
<trkpt lat="36.686085" lon="137.760474">
<ele>2656.202318</ele>
<time>2014-08-17T01:27:37Z</time>
<desc><![CDATA[lat.=36.686085, lon.=137.760474, Alt.=2656.202318m. Speed=3.000000m/h.]]></desc>
</trkpt>
<trkpt lat="36.686082" lon="137.760434">
<ele>2656.632158</ele>
<time>2014-08-17T01:27:42Z</time>
<desc><![CDATA[lat.=36.686082, lon.=137.760434, Alt.=2656.632158m. Speed=3.000000m/h.]]></desc>
</trkpt>
<trkpt lat="36.686068" lon="137.760386">
<ele>2657.003648</ele>
<time>2014-08-17T01:27:47Z</time>
<desc><![CDATA[lat.=36.686068, lon.=137.760386, Alt.=2657.003648m. Speed=3.000000m/h.]]></desc>
</trkpt>
<trkpt lat="36.686066" lon="137.760346">
<ele>2657.433493</ele>
<time>2014-08-17T01:27:52Z</time>
<desc><![CDATA[lat.=36.686066, lon.=137.760346, Alt.=2657.433493m. Speed=3.000000m/h.]]></desc>
</trkpt>
<trkpt lat="36.686065" lon="137.760293">
<ele>2650.887917</ele>
<time>2014-08-17T01:27:57Z</time>
<desc><![CDATA[lat.=36.686065, lon.=137.760293, Alt.=2650.887917m. Speed=3.000000m/h.]]></desc>
</trkpt>
<trkpt lat="36.686034" lon="137.760290">
<ele>2655.419005</ele>
<time>2014-08-17T01:28:02Z</time>
<desc><![CDATA[lat.=36.686034, lon.=137.760290, Alt.=2655.419005m. Speed=3.000000m/h.]]></desc>
</trkpt>
<trkpt lat="36.686005" lon="137.760273">
<ele>2656.435076</ele>
<time>2014-08-17T01:28:07Z</time>
<desc><![CDATA[lat.=36.686005, lon.=137.760273, Alt.=2656.435076m. Speed=3.000000m/h.]]></desc>
</trkpt>
<trkpt lat="36.685987" lon="137.760232">
<ele>2657.400271</ele>
<time>2014-08-17T01:28:12Z</time>
<desc><![CDATA[lat.=36.685987, lon.=137.760232, Alt.=2657.400271m. Speed=3.000000m/h.]]></desc>
</trkpt>
<trkpt lat="36.685971" lon="137.760246">
<ele>2661.450632</ele>
<time>2014-08-17T01:28:17Z</time>
<desc><![CDATA[lat.=36.685971, lon.=137.760246, Alt.=2661.450632m. Speed=0.000000m/h.]]></desc>
</trkpt>
<trkpt lat="36.685953" lon="137.760237">
<ele>2662.525057</ele>
<time>2014-08-17T01:28:22Z</time>
<desc><![CDATA[lat.=36.685953, lon.=137.760237, Alt.=2662.525057m. Speed=1.000000m/h.]]></desc>
</trkpt>
<trkpt lat="36.685926" lon="137.760226">
<ele>2666.462457</ele>
<time>2014-08-17T01:28:27Z</time>
<desc><![CDATA[lat.=36.685926, lon.=137.760226, Alt.=2666.462457m. Speed=2.000000m/h.]]></desc>
</trkpt>
<trkpt lat="36.685926" lon="137.760225">
<ele>2668.192659</ele>
<time>2014-08-17T01:28:32Z</time>
<desc><![CDATA[lat.=36.685926, lon.=137.760225, Alt.=2668.192659m. Speed=2.000000m/h.]]></desc>
</trkpt>
<trkpt lat="36.685891" lon="137.760262">
<ele>2671.696476</ele>
<time>2014-08-17T01:28:37Z</time>
<desc><![CDATA[lat.=36.685891, lon.=137.760262, Alt.=2671.696476m. Speed=3.000000m/h.]]></desc>
</trkpt>
<trkpt lat="36.685879" lon="137.760317">
<ele>2671.856588</ele>
<time>2014-08-17T01:28:42Z</time>
<desc><![CDATA[lat.=36.685879, lon.=137.760317, Alt.=2671.856588m. Speed=3.000000m/h.]]></desc>
</trkpt>
<trkpt lat="36.685846" lon="137.760408">
<ele>2678.445586</ele>
<time>2014-08-17T01:28:47Z</time>
<desc><![CDATA[lat.=36.685846, lon.=137.760408, Alt.=2678.445586m. Speed=3.000000m/h.]]></desc>
</trkpt>
<trkpt lat="36.685780" lon="137.760507">
<ele>2683.238590</ele>
<time>2014-08-17T01:28:52Z</time>
<desc><![CDATA[lat.=36.685780, lon.=137.760507, Alt.=2683.238590m. Speed=4.000000m/h.]]></desc>
</trkpt>
<trkpt lat="36.685719" lon="137.760617">
<ele>2697.334669</ele>
<time>2014-08-17T01:28:57Z</time>
<desc><![CDATA[lat.=36.685719, lon.=137.760617, Alt.=2697.334669m. Speed=4.000000m/h.]]></desc>
</trkpt>
<trkpt lat="36.685644" lon="137.760728">
<ele>2710.235922</ele>
<time>2014-08-17T01:29:02Z</time>
<desc><![CDATA[lat.=36.685644, lon.=137.760728, Alt.=2710.235922m. Speed=5.000000m/h.]]></desc>
</trkpt>
<trkpt lat="36.685616" lon="137.760680">
<ele>2707.682356</ele>
<time>2014-08-17T01:29:07Z</time>
<desc><![CDATA[lat.=36.685616, lon.=137.760680, Alt.=2707.682356m. Speed=4.000000m/h.]]></desc>
</trkpt>
<trkpt lat="36.685652" lon="137.760446">
<ele>2683.838794</ele>
<time>2014-08-17T01:29:12Z</time>
<desc><![CDATA[lat.=36.685652, lon.=137.760446, Alt.=2683.838794m. Speed=3.000000m/h.]]></desc>
</trkpt>
<trkpt lat="36.685652" lon="137.760394">
<ele>2675.563011</ele>
<time>2014-08-17T01:29:17Z</time>
<desc><![CDATA[lat.=36.685652, lon.=137.760394, Alt.=2675.563011m. Speed=2.000000m/h.]]></desc>
</trkpt>
<trkpt lat="36.685660" lon="137.760295">
<ele>2667.720809</ele>
<time>2014-08-17T01:29:22Z</time>
<desc><![CDATA[lat.=36.685660, lon.=137.760295, Alt.=2667.720809m. Speed=2.000000m/h.]]></desc>
</trkpt>
<trkpt lat="36.685653" lon="137.760247">
<ele>2668.689742</ele>
<time>2014-08-17T01:29:27Z</time>
<desc><![CDATA[lat.=36.685653, lon.=137.760247, Alt.=2668.689742m. Speed=2.000000m/h.]]></desc>
</trkpt>
<trkpt lat="36.685642" lon="137.760222">
<ele>2670.306988</ele>
<time>2014-08-17T01:29:32Z</time>
<desc><![CDATA[lat.=36.685642, lon.=137.760222, Alt.=2670.306988m. Speed=2.000000m/h.]]></desc>
</trkpt>
<trkpt lat="36.685640" lon="137.760200">
<ele>2665.600850</ele>
<time>2014-08-17T01:29:37Z</time>
<desc><![CDATA[lat.=36.685640, lon.=137.760200, Alt.=2665.600850m. Speed=2.000000m/h.]]></desc>
</trkpt>
<trkpt lat="36.685604" lon="137.760184">
<ele>2664.289319</ele>
<time>2014-08-17T01:29:42Z</time>
<desc><![CDATA[lat.=36.685604, lon.=137.760184, Alt.=2664.289319m. Speed=3.000000m/h.]]></desc>
</trkpt>
<trkpt lat="36.685582" lon="137.760151">
<ele>2665.848228</ele>
<time>2014-08-17T01:29:47Z</time>
<desc><![CDATA[lat.=36.685582, lon.=137.760151, Alt.=2665.848228m. Speed=3.000000m/h.]]></desc>
</trkpt>
<trkpt lat="36.685552" lon="137.760132">
<ele>2670.324732</ele>
<time>2014-08-17T01:29:52Z</time>
<desc><![CDATA[lat.=36.685552, lon.=137.760132, Alt.=2670.324732m. Speed=3.000000m/h.]]></desc>
</trkpt>
<trkpt lat="36.685526" lon="137.760121">
<ele>2674.262155</ele>
<time>2014-08-17T01:29:57Z</time>
<desc><![CDATA[lat.=36.685526, lon.=137.760121, Alt.=2674.262155m. Speed=3.000000m/h.]]></desc>
</trkpt>
<trkpt lat="36.685504" lon="137.760089">
<ele>2674.090867</ele>
<time>2014-08-17T01:30:02Z</time>
<desc><![CDATA[lat.=36.685504, lon.=137.760089, Alt.=2674.090867m. Speed=3.000000m/h.]]></desc>
</trkpt>
<trkpt lat="36.685486" lon="137.760080">
<ele>2675.165310</ele>
<time>2014-08-17T01:30:07Z</time>
<desc><![CDATA[lat.=36.685486, lon.=137.760080, Alt.=2675.165310m. Speed=2.000000m/h.]]></desc>
</trkpt>
<trkpt lat="36.685471" lon="137.760095">
<ele>2675.755279</ele>
<time>2014-08-17T01:30:12Z</time>
<desc><![CDATA[lat.=36.685471, lon.=137.760095, Alt.=2675.755279m. Speed=2.000000m/h.]]></desc>
</trkpt>
<trkpt lat="36.685445" lon="137.760085">
<ele>2677.962504</ele>
<time>2014-08-17T01:30:17Z</time>
<desc><![CDATA[lat.=36.685445, lon.=137.760085, Alt.=2677.962504m. Speed=2.000000m/h.]]></desc>
</trkpt>
<trkpt lat="36.685426" lon="137.760091">
<ele>2680.821763</ele>
<time>2014-08-17T01:30:22Z</time>
<desc><![CDATA[lat.=36.685426, lon.=137.760091, Alt.=2680.821763m. Speed=1.000000m/h.]]></desc>
</trkpt>
<trkpt lat="36.685419" lon="137.760059">
<ele>2681.845322</ele>
<time>2014-08-17T01:30:27Z</time>
<desc><![CDATA[lat.=36.685419, lon.=137.760059, Alt.=2681.845322m. Speed=1.000000m/h.]]></desc>
</trkpt>
<trkpt lat="36.685424" lon="137.760037">
<ele>2677.736610</ele>
<time>2014-08-17T01:30:32Z</time>
<desc><![CDATA[lat.=36.685424, lon.=137.760037, Alt.=2677.736610m. Speed=0.000000m/h.]]></desc>
</trkpt>
<trkpt lat="36.685413" lon="137.760045">
<ele>2677.732885</ele>
<time>2014-08-17T01:30:37Z</time>
<desc><![CDATA[lat.=36.685413, lon.=137.760045, Alt.=2677.732885m. Speed=1.000000m/h.]]></desc>
</trkpt>
<trkpt lat="36.685391" lon="137.760044">
<ele>2677.670825</ele>
<time>2014-08-17T01:30:42Z</time>
<desc><![CDATA[lat.=36.685391, lon.=137.760044, Alt.=2677.670825m. Speed=2.000000m/h.]]></desc>
</trkpt>
<trkpt lat="36.685372" lon="137.760019">
<ele>2678.690662</ele>
<time>2014-08-17T01:30:47Z</time>
<desc><![CDATA[lat.=36.685372, lon.=137.760019, Alt.=2678.690662m. Speed=1.000000m/h.]]></desc>
</trkpt>
<trkpt lat="36.685380" lon="137.760020">
<ele>2677.557880</ele>
<time>2014-08-17T01:30:52Z</time>
<desc><![CDATA[lat.=36.685380, lon.=137.760020, Alt.=2677.557880m. Speed=0.000000m/h.]]></desc>
</trkpt>
<trkpt lat="36.685392" lon="137.760013">
<ele>2675.831402</ele>
<time>2014-08-17T01:30:57Z</time>
<desc><![CDATA[lat.=36.685392, lon.=137.760013, Alt.=2675.831402m. Speed=0.000000m/h.]]></desc>
</trkpt>
<trkpt lat="36.685390" lon="137.759959">
<ele>2672.746256</ele>
<time>2014-08-17T01:31:02Z</time>
<desc><![CDATA[lat.=36.685390, lon.=137.759959, Alt.=2672.746256m. Speed=2.000000m/h.]]></desc>
</trkpt>
<trkpt lat="36.685394" lon="137.759919">
<ele>2673.773546</ele>
<time>2014-08-17T01:31:07Z</time>
<desc><![CDATA[lat.=36.685394, lon.=137.759919, Alt.=2673.773546m. Speed=2.000000m/h.]]></desc>
</trkpt>
<trkpt lat="36.685396" lon="137.759856">
<ele>2673.555117</ele>
<time>2014-08-17T01:31:12Z</time>
<desc><![CDATA[lat.=36.685396, lon.=137.759856, Alt.=2673.555117m. Speed=3.000000m/h.]]></desc>
</trkpt>
<trkpt lat="36.685370" lon="137.759814">
<ele>2675.653136</ele>
<time>2014-08-17T01:31:17Z</time>
<desc><![CDATA[lat.=36.685370, lon.=137.759814, Alt.=2675.653136m. Speed=3.000000m/h.]]></desc>
</trkpt>
<trkpt lat="36.685338" lon="137.759773">
<ele>2677.153738</ele>
<time>2014-08-17T01:31:22Z</time>
<desc><![CDATA[lat.=36.685338, lon.=137.759773, Alt.=2677.153738m. Speed=3.000000m/h.]]></desc>
</trkpt>
<trkpt lat="36.685327" lon="137.759747">
<ele>2680.501208</ele>
<time>2014-08-17T01:31:27Z</time>
<desc><![CDATA[lat.=36.685327, lon.=137.759747, Alt.=2680.501208m. Speed=3.000000m/h.]]></desc>
</trkpt>
<trkpt lat="36.685313" lon="137.759716">
<ele>2679.197160</ele>
<time>2014-08-17T01:31:32Z</time>
<desc><![CDATA[lat.=36.685313, lon.=137.759716, Alt.=2679.197160m. Speed=2.000000m/h.]]></desc>
</trkpt>
<trkpt lat="36.685268" lon="137.759696">
<ele>2684.209056</ele>
<time>2014-08-17T01:31:37Z</time>
<desc><![CDATA[lat.=36.685268, lon.=137.759696, Alt.=2684.209056m. Speed=3.000000m/h.]]></desc>
</trkpt>
<trkpt lat="36.685218" lon="137.759747">
<ele>2690.033065</ele>
<time>2014-08-17T01:31:42Z</time>
<desc><![CDATA[lat.=36.685218, lon.=137.759747, Alt.=2690.033065m. Speed=4.000000m/h.]]></desc>
</trkpt>
<trkpt lat="36.685184" lon="137.759754">
<ele>2689.967291</ele>
<time>2014-08-17T01:31:47Z</time>
<desc><![CDATA[lat.=36.685184, lon.=137.759754, Alt.=2689.967291m. Speed=4.000000m/h.]]></desc>
</trkpt>
<trkpt lat="36.685180" lon="137.759725">
<ele>2682.339852</ele>
<time>2014-08-17T01:31:52Z</time>
<desc><![CDATA[lat.=36.685180, lon.=137.759725, Alt.=2682.339852m. Speed=3.000000m/h.]]></desc>
</trkpt>
<trkpt lat="36.685219" lon="137.759582">
<ele>2669.802780</ele>
<time>2014-08-17T01:31:57Z</time>
<desc><![CDATA[lat.=36.685219, lon.=137.759582, Alt.=2669.802780m. Speed=3.000000m/h.]]></desc>
</trkpt>
<trkpt lat="36.685214" lon="137.759504">
<ele>2667.202155</ele>
<time>2014-08-17T01:32:02Z</time>
<desc><![CDATA[lat.=36.685214, lon.=137.759504, Alt.=2667.202155m. Speed=3.000000m/h.]]></desc>
</trkpt>
<trkpt lat="36.685189" lon="137.759447">
<ele>2667.515399</ele>
<time>2014-08-17T01:32:07Z</time>
<desc><![CDATA[lat.=36.685189, lon.=137.759447, Alt.=2667.515399m. Speed=3.000000m/h.]]></desc>
</trkpt>
<trkpt lat="36.685147" lon="137.759399">
<ele>2665.497302</ele>
<time>2014-08-17T01:32:12Z</time>
<desc><![CDATA[lat.=36.685147, lon.=137.759399, Alt.=2665.497302m. Speed=3.000000m/h.]]></desc>
</trkpt>
<trkpt lat="36.685121" lon="137.759374">
<ele>2665.919751</ele>
<time>2014-08-17T01:32:17Z</time>
<desc><![CDATA[lat.=36.685121, lon.=137.759374, Alt.=2665.919751m. Speed=4.000000m/h.]]></desc>
</trkpt>
<trkpt lat="36.685069" lon="137.759388">
<ele>2666.983043</ele>
<time>2014-08-17T01:32:22Z</time>
<desc><![CDATA[lat.=36.685069, lon.=137.759388, Alt.=2666.983043m. Speed=4.000000m/h.]]></desc>
</trkpt>
<trkpt lat="36.685020" lon="137.759425">
<ele>2667.561844</ele>
<time>2014-08-17T01:32:27Z</time>
<desc><![CDATA[lat.=36.685020, lon.=137.759425, Alt.=2667.561844m. Speed=4.000000m/h.]]></desc>
</trkpt>
<trkpt lat="36.684991" lon="137.759407">
<ele>2670.308194</ele>
<time>2014-08-17T01:32:32Z</time>
<desc><![CDATA[lat.=36.684991, lon.=137.759407, Alt.=2670.308194m. Speed=4.000000m/h.]]></desc>
</trkpt>
<trkpt lat="36.684998" lon="137.759407">
<ele>2670.905609</ele>
<time>2014-08-17T01:32:40Z</time>
<desc><![CDATA[lat.=36.684998, lon.=137.759407, Alt.=2670.905609m. Speed=0.000000m/h.]]></desc>
</trkpt>
<trkpt lat="36.685002" lon="137.759415">
<ele>2670.366514</ele>
<time>2014-08-17T01:32:46Z</time>
<desc><![CDATA[lat.=36.685002, lon.=137.759415, Alt.=2670.366514m. Speed=0.000000m/h.]]></desc>
</trkpt>
<trkpt lat="36.684991" lon="137.759407">
<ele>2670.308194</ele>
<time>2014-08-17T01:32:51Z</time>
<desc><![CDATA[lat.=36.684991, lon.=137.759407, Alt.=2670.308194m. Speed=2.000000m/h.]]></desc>
</trkpt>
<trkpt lat="36.684977" lon="137.759360">
<ele>2668.949571</ele>
<time>2014-08-17T01:32:56Z</time>
<desc><![CDATA[lat.=36.684977, lon.=137.759360, Alt.=2668.949571m. Speed=3.000000m/h.]]></desc>
</trkpt>
<trkpt lat="36.684964" lon="137.759312">
<ele>2669.321155</ele>
<time>2014-08-17T01:33:01Z</time>
<desc><![CDATA[lat.=36.684964, lon.=137.759312, Alt.=2669.321155m. Speed=2.000000m/h.]]></desc>
</trkpt>
<trkpt lat="36.684983" lon="137.759272">
<ele>2669.813101</ele>
<time>2014-08-17T01:33:06Z</time>
<desc><![CDATA[lat.=36.684983, lon.=137.759272, Alt.=2669.813101m. Speed=4.000000m/h.]]></desc>
</trkpt>
<trkpt lat="36.685017" lon="137.759218">
<ele>2671.445285</ele>
<time>2014-08-17T01:33:11Z</time>
<desc><![CDATA[lat.=36.685017, lon.=137.759218, Alt.=2671.445285m. Speed=4.000000m/h.]]></desc>
</trkpt>
<trkpt lat="36.685080" lon="137.759181">
<ele>2670.331123</ele>
<time>2014-08-17T01:33:16Z</time>
<desc><![CDATA[lat.=36.685080, lon.=137.759181, Alt.=2670.331123m. Speed=4.000000m/h.]]></desc>
</trkpt>
<trkpt lat="36.685129" lon="137.759160">
<ele>2668.076728</ele>
<time>2014-08-17T01:33:21Z</time>
<desc><![CDATA[lat.=36.685129, lon.=137.759160, Alt.=2668.076728m. Speed=4.000000m/h.]]></desc>
</trkpt>
<trkpt lat="36.685178" lon="137.759121">
<ele>2669.228154</ele>
<time>2014-08-17T01:33:26Z</time>
<desc><![CDATA[lat.=36.685178, lon.=137.759121, Alt.=2669.228154m. Speed=4.000000m/h.]]></desc>
</trkpt>
<trkpt lat="36.685207" lon="137.759106">
<ele>2669.833030</ele>
<time>2014-08-17T01:33:31Z</time>
<desc><![CDATA[lat.=36.685207, lon.=137.759106, Alt.=2669.833030m. Speed=4.000000m/h.]]></desc>
</trkpt>
<trkpt lat="36.685155" lon="137.759119">
<ele>2672.626512</ele>
<time>2014-08-17T02:21:02Z</time>
<desc><![CDATA[lat.=36.685155, lon.=137.759119, Alt.=2672.626512m. Speed=0.000000m/h.]]></desc>
</trkpt>
<trkpt lat="36.685154" lon="137.759151">
<ele>2671.005494</ele>
<time>2014-08-17T02:21:07Z</time>
<desc><![CDATA[lat.=36.685154, lon.=137.759151, Alt.=2671.005494m. Speed=1.000000m/h.]]></desc>
</trkpt>
<trkpt lat="36.685128" lon="137.759175">
<ele>2669.861525</ele>
<time>2014-08-17T02:21:12Z</time>
<desc><![CDATA[lat.=36.685128, lon.=137.759175, Alt.=2669.861525m. Speed=1.000000m/h.]]></desc>
</trkpt>
<trkpt lat="36.685121" lon="137.759175">
<ele>2669.264108</ele>
<time>2014-08-17T02:21:17Z</time>
<desc><![CDATA[lat.=36.685121, lon.=137.759175, Alt.=2669.264108m. Speed=0.000000m/h.]]></desc>
</trkpt>
<trkpt lat="36.685122" lon="137.759176">
<ele>2667.533905</ele>
<time>2014-08-17T02:21:22Z</time>
<desc><![CDATA[lat.=36.685122, lon.=137.759176, Alt.=2667.533905m. Speed=0.000000m/h.]]></desc>
</trkpt>
<trkpt lat="36.685118" lon="137.759184">
<ele>2666.397391</ele>
<time>2014-08-17T02:21:27Z</time>
<desc><![CDATA[lat.=36.685118, lon.=137.759184, Alt.=2666.397391m. Speed=0.000000m/h.]]></desc>
</trkpt>
<trkpt lat="36.685118" lon="137.759200">
<ele>2666.451985</ele>
<time>2014-08-17T02:21:32Z</time>
<desc><![CDATA[lat.=36.685118, lon.=137.759200, Alt.=2666.451985m. Speed=0.000000m/h.]]></desc>
</trkpt>
<trkpt lat="36.685121" lon="137.759208">
<ele>2665.912889</ele>
<time>2014-08-17T02:21:37Z</time>
<desc><![CDATA[lat.=36.685121, lon.=137.759208, Alt.=2665.912889m. Speed=0.000000m/h.]]></desc>
</trkpt>
<trkpt lat="36.685128" lon="137.759208">
<ele>2666.510306</ele>
<time>2014-08-17T02:21:42Z</time>
<desc><![CDATA[lat.=36.685128, lon.=137.759208, Alt.=2666.510306m. Speed=0.000000m/h.]]></desc>
</trkpt>
<trkpt lat="36.685125" lon="137.759200">
<ele>2667.049402</ele>
<time>2014-08-17T02:21:47Z</time>
<desc><![CDATA[lat.=36.685125, lon.=137.759200, Alt.=2667.049402m. Speed=0.000000m/h.]]></desc>
</trkpt>
<trkpt lat="36.685117" lon="137.759199">
<ele>2668.182189</ele>
<time>2014-08-17T02:21:52Z</time>
<desc><![CDATA[lat.=36.685117, lon.=137.759199, Alt.=2668.182189m. Speed=0.000000m/h.]]></desc>
</trkpt>
<trkpt lat="36.685117" lon="137.759215">
<ele>2668.236783</ele>
<time>2014-08-17T02:21:57Z</time>
<desc><![CDATA[lat.=36.685117, lon.=137.759215, Alt.=2668.236783m. Speed=0.000000m/h.]]></desc>
</trkpt>
<trkpt lat="36.685113" lon="137.759222">
<ele>2668.830473</ele>
<time>2014-08-17T02:22:04Z</time>
<desc><![CDATA[lat.=36.685113, lon.=137.759222, Alt.=2668.830473m. Speed=1.000000m/h.]]></desc>
</trkpt>
<trkpt lat="36.685064" lon="137.759244">
<ele>2669.354667</ele>
<time>2014-08-17T02:22:09Z</time>
<desc><![CDATA[lat.=36.685064, lon.=137.759244, Alt.=2669.354667m. Speed=3.000000m/h.]]></desc>
</trkpt>
<trkpt lat="36.685005" lon="137.759274">
<ele>2668.144939</ele>
<time>2014-08-17T02:22:14Z</time>
<desc><![CDATA[lat.=36.685005, lon.=137.759274, Alt.=2668.144939m. Speed=4.000000m/h.]]></desc>
</trkpt>
<trkpt lat="36.684987" lon="137.759282">
<ele>2667.543800</ele>
<time>2014-08-17T02:22:19Z</time>
<desc><![CDATA[lat.=36.684987, lon.=137.759282, Alt.=2667.543800m. Speed=0.000000m/h.]]></desc>
</trkpt>
<trkpt lat="36.684983" lon="137.759290">
<ele>2666.407289</ele>
<time>2014-08-17T02:22:24Z</time>
<desc><![CDATA[lat.=36.684983, lon.=137.759290, Alt.=2666.407289m. Speed=0.000000m/h.]]></desc>
</trkpt>
<trkpt lat="36.684987" lon="137.759298">
<ele>2665.868193</ele>
<time>2014-08-17T02:22:33Z</time>
<desc><![CDATA[lat.=36.684987, lon.=137.759298, Alt.=2665.868193m. Speed=0.000000m/h.]]></desc>
</trkpt>
<trkpt lat="36.684990" lon="137.759306">
<ele>2665.329097</ele>
<time>2014-08-17T02:22:38Z</time>
<desc><![CDATA[lat.=36.684990, lon.=137.759306, Alt.=2665.329097m. Speed=0.000000m/h.]]></desc>
</trkpt>
<trkpt lat="36.684994" lon="137.759298">
<ele>2666.465608</ele>
<time>2014-08-17T02:22:43Z</time>
<desc><![CDATA[lat.=36.684994, lon.=137.759298, Alt.=2666.465608m. Speed=0.000000m/h.]]></desc>
</trkpt>
<trkpt lat="36.684990" lon="137.759306">
<ele>2665.329097</ele>
<time>2014-08-17T02:22:48Z</time>
<desc><![CDATA[lat.=36.684990, lon.=137.759306, Alt.=2665.329097m. Speed=0.000000m/h.]]></desc>
</trkpt>
<trkpt lat="36.684982" lon="137.759321">
<ele>2666.516481</ele>
<time>2014-08-17T02:22:53Z</time>
<desc><![CDATA[lat.=36.684982, lon.=137.759321, Alt.=2666.516481m. Speed=2.000000m/h.]]></desc>
</trkpt>
<trkpt lat="36.684975" lon="137.759321">
<ele>2667.649270</ele>
<time>2014-08-17T02:22:58Z</time>
<desc><![CDATA[lat.=36.684975, lon.=137.759321, Alt.=2667.649270m. Speed=0.000000m/h.]]></desc>
</trkpt>
<trkpt lat="36.684974" lon="137.759320">
<ele>2669.379474</ele>
<time>2014-08-17T02:23:03Z</time>
<desc><![CDATA[lat.=36.684974, lon.=137.759320, Alt.=2669.379474m. Speed=2.000000m/h.]]></desc>
</trkpt>
<trkpt lat="36.684986" lon="137.759312">
<ele>2669.383196</ele>
<time>2014-08-17T02:23:08Z</time>
<desc><![CDATA[lat.=36.684986, lon.=137.759312, Alt.=2669.383196m. Speed=1.000000m/h.]]></desc>
</trkpt>
<trkpt lat="36.684982" lon="137.759320">
<ele>2669.976888</ele>
<time>2014-08-17T02:23:13Z</time>
<desc><![CDATA[lat.=36.684982, lon.=137.759320, Alt.=2669.976888m. Speed=2.000000m/h.]]></desc>
</trkpt>
<trkpt lat="36.684934" lon="137.759311">
<ele>2668.661700</ele>
<time>2014-08-17T02:23:18Z</time>
<desc><![CDATA[lat.=36.684934, lon.=137.759311, Alt.=2668.661700m. Speed=2.000000m/h.]]></desc>
</trkpt>
<trkpt lat="36.684891" lon="137.759294">
<ele>2666.752824</ele>
<time>2014-08-17T02:23:23Z</time>
<desc><![CDATA[lat.=36.684891, lon.=137.759294, Alt.=2666.752824m. Speed=3.000000m/h.]]></desc>
</trkpt>
<trkpt lat="36.684840" lon="137.759277">
<ele>2665.976742</ele>
<time>2014-08-17T02:23:28Z</time>
<desc><![CDATA[lat.=36.684840, lon.=137.759277, Alt.=2665.976742m. Speed=4.000000m/h.]]></desc>
</trkpt>
<trkpt lat="36.684778" lon="137.759267">
<ele>2665.196947</ele>
<time>2014-08-17T02:23:33Z</time>
<desc><![CDATA[lat.=36.684778, lon.=137.759267, Alt.=2665.196947m. Speed=4.000000m/h.]]></desc>
</trkpt>
<trkpt lat="36.684734" lon="137.759250">
<ele>2665.018288</ele>
<time>2014-08-17T02:23:38Z</time>
<desc><![CDATA[lat.=36.684734, lon.=137.759250, Alt.=2665.018288m. Speed=4.000000m/h.]]></desc>
</trkpt>
<trkpt lat="36.684704" lon="137.759264">
<ele>2666.143646</ele>
<time>2014-08-17T02:23:43Z</time>
<desc><![CDATA[lat.=36.684704, lon.=137.759264, Alt.=2666.143646m. Speed=3.000000m/h.]]></desc>
</trkpt>
<trkpt lat="36.684701" lon="137.759224">
<ele>2666.573554</ele>
<time>2014-08-17T02:23:48Z</time>
<desc><![CDATA[lat.=36.684701, lon.=137.759224, Alt.=2666.573554m. Speed=3.000000m/h.]]></desc>
</trkpt>
<trkpt lat="36.684698" lon="137.759184">
<ele>2668.733669</ele>
<time>2014-08-17T02:23:53Z</time>
<desc><![CDATA[lat.=36.684698, lon.=137.759184, Alt.=2668.733669m. Speed=2.000000m/h.]]></desc>
</trkpt>
<trkpt lat="36.684683" lon="137.759183">
<ele>2669.269051</ele>
<time>2014-08-17T02:23:58Z</time>
<desc><![CDATA[lat.=36.684683, lon.=137.759183, Alt.=2669.269051m. Speed=2.000000m/h.]]></desc>
</trkpt>
<trkpt lat="36.684672" lon="137.759174">
<ele>2670.940944</ele>
<time>2014-08-17T02:24:03Z</time>
<desc><![CDATA[lat.=36.684672, lon.=137.759174, Alt.=2670.940944m. Speed=2.000000m/h.]]></desc>
</trkpt>
<trkpt lat="36.684624" lon="137.759180">
<ele>2671.410584</ele>
<time>2014-08-17T02:24:08Z</time>
<desc><![CDATA[lat.=36.684624, lon.=137.759180, Alt.=2671.410584m. Speed=3.000000m/h.]]></desc>
</trkpt>
<trkpt lat="36.684573" lon="137.759147">
<ele>2670.579937</ele>
<time>2014-08-17T02:24:13Z</time>
<desc><![CDATA[lat.=36.684573, lon.=137.759147, Alt.=2670.579937m. Speed=4.000000m/h.]]></desc>
</trkpt>
<trkpt lat="36.684507" lon="137.759160">
<ele>2670.448464</ele>
<time>2014-08-17T02:24:18Z</time>
<desc><![CDATA[lat.=36.684507, lon.=137.759160, Alt.=2670.448464m. Speed=4.000000m/h.]]></desc>
</trkpt>
<trkpt lat="36.684448" lon="137.759141">
<ele>2672.535423</ele>
<time>2014-08-17T02:24:23Z</time>
<desc><![CDATA[lat.=36.684448, lon.=137.759141, Alt.=2672.535423m. Speed=4.000000m/h.]]></desc>
</trkpt>
<trkpt lat="36.684415" lon="137.759132">
<ele>2672.415100</ele>
<time>2014-08-17T02:24:28Z</time>
<desc><![CDATA[lat.=36.684415, lon.=137.759132, Alt.=2672.415100m. Speed=3.000000m/h.]]></desc>
</trkpt>
<trkpt lat="36.684385" lon="137.759162">
<ele>2673.595068</ele>
<time>2014-08-17T02:24:33Z</time>
<desc><![CDATA[lat.=36.684385, lon.=137.759162, Alt.=2673.595068m. Speed=3.000000m/h.]]></desc>
</trkpt>
<trkpt lat="36.684373" lon="137.759186">
<ele>2673.645951</ele>
<time>2014-08-17T02:24:38Z</time>
<desc><![CDATA[lat.=36.684373, lon.=137.759186, Alt.=2673.645951m. Speed=2.000000m/h.]]></desc>
</trkpt>
<trkpt lat="36.684362" lon="137.759193">
<ele>2673.642241</ele>
<time>2014-08-17T02:24:43Z</time>
<desc><![CDATA[lat.=36.684362, lon.=137.759193, Alt.=2673.642241m. Speed=2.000000m/h.]]></desc>
</trkpt>
<trkpt lat="36.684358" lon="137.759201">
<ele>2674.235937</ele>
<time>2014-08-17T02:24:48Z</time>
<desc><![CDATA[lat.=36.684358, lon.=137.759201, Alt.=2674.235937m. Speed=1.000000m/h.]]></desc>
</trkpt>
<trkpt lat="36.684327" lon="137.759231">
<ele>2675.415911</ele>
<time>2014-08-17T02:24:53Z</time>
<desc><![CDATA[lat.=36.684327, lon.=137.759231, Alt.=2675.415911m. Speed=2.000000m/h.]]></desc>
</trkpt>
<trkpt lat="36.684294" lon="137.759253">
<ele>2675.404785</ele>
<time>2014-08-17T02:24:58Z</time>
<desc><![CDATA[lat.=36.684294, lon.=137.759253, Alt.=2675.404785m. Speed=2.000000m/h.]]></desc>
</trkpt>
<trkpt lat="36.684286" lon="137.759268">
<ele>2676.592179</ele>
<time>2014-08-17T02:25:03Z</time>
<desc><![CDATA[lat.=36.684286, lon.=137.759268, Alt.=2676.592179m. Speed=2.000000m/h.]]></desc>
</trkpt>
<trkpt lat="36.684267" lon="137.759291">
<ele>2677.775867</ele>
<time>2014-08-17T02:25:08Z</time>
<desc><![CDATA[lat.=36.684267, lon.=137.759291, Alt.=2677.775867m. Speed=2.000000m/h.]]></desc>
</trkpt>
<trkpt lat="36.684255" lon="137.759298">
<ele>2679.502364</ele>
<time>2014-08-17T02:25:13Z</time>
<desc><![CDATA[lat.=36.684255, lon.=137.759298, Alt.=2679.502364m. Speed=1.000000m/h.]]></desc>
</trkpt>
<trkpt lat="36.684233" lon="137.759313">
<ele>2679.494951</ele>
<time>2014-08-17T02:25:18Z</time>
<desc><![CDATA[lat.=36.684233, lon.=137.759313, Alt.=2679.494951m. Speed=2.000000m/h.]]></desc>
</trkpt>
<trkpt lat="36.684193" lon="137.759304">
<ele>2678.777236</ele>
<time>2014-08-17T02:25:23Z</time>
<desc><![CDATA[lat.=36.684193, lon.=137.759304, Alt.=2678.777236m. Speed=3.000000m/h.]]></desc>
</trkpt>
<trkpt lat="36.684141" lon="137.759301">
<ele>2679.786023</ele>
<time>2014-08-17T02:25:28Z</time>
<desc><![CDATA[lat.=36.684141, lon.=137.759301, Alt.=2679.786023m. Speed=4.000000m/h.]]></desc>
</trkpt>
<trkpt lat="36.684096" lon="137.759316">
<ele>2679.716611</ele>
<time>2014-08-17T02:25:33Z</time>
<desc><![CDATA[lat.=36.684096, lon.=137.759316, Alt.=2679.716611m. Speed=4.000000m/h.]]></desc>
</trkpt>
<trkpt lat="36.684045" lon="137.759313">
<ele>2680.725408</ele>
<time>2014-08-17T02:25:38Z</time>
<desc><![CDATA[lat.=36.684045, lon.=137.759313, Alt.=2680.725408m. Speed=4.000000m/h.]]></desc>
</trkpt>
<trkpt lat="36.684000" lon="137.759328">
<ele>2680.656004</ele>
<time>2014-08-17T02:25:43Z</time>
<desc><![CDATA[lat.=36.684000, lon.=137.759328, Alt.=2680.656004m. Speed=3.000000m/h.]]></desc>
</trkpt>
<trkpt lat="36.683956" lon="137.759310">
<ele>2680.477410</ele>
<time>2014-08-17T02:25:48Z</time>
<desc><![CDATA[lat.=36.683956, lon.=137.759310, Alt.=2680.477410m. Speed=3.000000m/h.]]></desc>
</trkpt>
<trkpt lat="36.683927" lon="137.759309">
<ele>2681.548217</ele>
<time>2014-08-17T02:25:53Z</time>
<desc><![CDATA[lat.=36.683927, lon.=137.759309, Alt.=2681.548217m. Speed=3.000000m/h.]]></desc>
</trkpt>
<trkpt lat="36.683890" lon="137.759308">
<ele>2680.291422</ele>
<time>2014-08-17T02:25:58Z</time>
<desc><![CDATA[lat.=36.683890, lon.=137.759308, Alt.=2680.291422m. Speed=2.000000m/h.]]></desc>
</trkpt>
<trkpt lat="36.683879" lon="137.759300">
<ele>2680.233126</ele>
<time>2014-08-17T02:26:03Z</time>
<desc><![CDATA[lat.=36.683879, lon.=137.759300, Alt.=2680.233126m. Speed=2.000000m/h.]]></desc>
</trkpt>
<trkpt lat="36.683846" lon="137.759290">
<ele>2681.843042</ele>
<time>2014-08-17T02:26:08Z</time>
<desc><![CDATA[lat.=36.683846, lon.=137.759290, Alt.=2681.843042m. Speed=3.000000m/h.]]></desc>
</trkpt>
<trkpt lat="36.683810" lon="137.759273">
<ele>2682.261860</ele>
<time>2014-08-17T02:26:13Z</time>
<desc><![CDATA[lat.=36.683810, lon.=137.759273, Alt.=2682.261860m. Speed=3.000000m/h.]]></desc>
</trkpt>
<trkpt lat="36.683784" lon="137.759279">
<ele>2682.793571</ele>
<time>2014-08-17T02:26:18Z</time>
<desc><![CDATA[lat.=36.683784, lon.=137.759279, Alt.=2682.793571m. Speed=3.000000m/h.]]></desc>
</trkpt>
<trkpt lat="36.683758" lon="137.759270">
<ele>2683.270686</ele>
<time>2014-08-17T02:26:23Z</time>
<desc><![CDATA[lat.=36.683758, lon.=137.759270, Alt.=2683.270686m. Speed=2.000000m/h.]]></desc>
</trkpt>
<trkpt lat="36.683747" lon="137.759261">
<ele>2684.942598</ele>
<time>2014-08-17T02:26:28Z</time>
<desc><![CDATA[lat.=36.683747, lon.=137.759261, Alt.=2684.942598m. Speed=1.000000m/h.]]></desc>
</trkpt>
<trkpt lat="36.683729" lon="137.759237">
<ele>2684.232313</ele>
<time>2014-08-17T02:26:33Z</time>
<desc><![CDATA[lat.=36.683729, lon.=137.759237, Alt.=2684.232313m. Speed=1.000000m/h.]]></desc>
</trkpt>
<trkpt lat="36.683703" lon="137.759243">
<ele>2686.494232</ele>
<time>2014-08-17T02:26:38Z</time>
<desc><![CDATA[lat.=36.683703, lon.=137.759243, Alt.=2686.494232m. Speed=2.000000m/h.]]></desc>
</trkpt>
<trkpt lat="36.683688" lon="137.759243">
<ele>2685.299438</ele>
<time>2014-08-17T02:26:43Z</time>
<desc><![CDATA[lat.=36.683688, lon.=137.759243, Alt.=2685.299438m. Speed=1.000000m/h.]]></desc>
</trkpt>
<trkpt lat="36.683656" lon="137.759219">
<ele>2683.394362</ele>
<time>2014-08-17T02:26:48Z</time>
<desc><![CDATA[lat.=36.683656, lon.=137.759219, Alt.=2683.394362m. Speed=2.000000m/h.]]></desc>
</trkpt>
<trkpt lat="36.683657" lon="137.759188">
<ele>2683.285172</ele>
<time>2014-08-17T02:26:53Z</time>
<desc><![CDATA[lat.=36.683657, lon.=137.759188, Alt.=2683.285172m. Speed=2.000000m/h.]]></desc>
</trkpt>
<trkpt lat="36.683675" lon="137.759180">
<ele>2683.886263</ele>
<time>2014-08-17T02:26:58Z</time>
<desc><![CDATA[lat.=36.683675, lon.=137.759180, Alt.=2683.886263m. Speed=0.000000m/h.]]></desc>
</trkpt>
<trkpt lat="36.683672" lon="137.759172">
<ele>2684.425370</ele>
<time>2014-08-17T02:27:03Z</time>
<desc><![CDATA[lat.=36.683672, lon.=137.759172, Alt.=2684.425370m. Speed=0.000000m/h.]]></desc>
</trkpt>
<trkpt lat="36.683661" lon="137.759164">
<ele>2682.636876</ele>
<time>2014-08-17T02:27:08Z</time>
<desc><![CDATA[lat.=36.683661, lon.=137.759164, Alt.=2682.636876m. Speed=1.000000m/h.]]></desc>
</trkpt>
<trkpt lat="36.683654" lon="137.759164">
<ele>2682.039479</ele>
<time>2014-08-17T02:27:13Z</time>
<desc><![CDATA[lat.=36.683654, lon.=137.759164, Alt.=2682.039479m. Speed=0.000000m/h.]]></desc>
</trkpt>
<trkpt lat="36.683650" lon="137.759173">
<ele>2680.902976</ele>
<time>2014-08-17T02:27:21Z</time>
<desc><![CDATA[lat.=36.683650, lon.=137.759173, Alt.=2680.902976m. Speed=0.000000m/h.]]></desc>
</trkpt>
<trkpt lat="36.683643" lon="137.759173">
<ele>2680.305580</ele>
<time>2014-08-17T02:27:28Z</time>
<desc><![CDATA[lat.=36.683643, lon.=137.759173, Alt.=2680.305580m. Speed=0.000000m/h.]]></desc>
</trkpt>
<trkpt lat="36.683636" lon="137.759173">
<ele>2679.708183</ele>
<time>2014-08-17T02:27:34Z</time>
<desc><![CDATA[lat.=36.683636, lon.=137.759173, Alt.=2679.708183m. Speed=0.000000m/h.]]></desc>
</trkpt>
<trkpt lat="36.683640" lon="137.759181">
<ele>2679.169076</ele>
<time>2014-08-17T02:27:39Z</time>
<desc><![CDATA[lat.=36.683640, lon.=137.759181, Alt.=2679.169076m. Speed=0.000000m/h.]]></desc>
</trkpt>
<trkpt lat="36.683632" lon="137.759181">
<ele>2678.571680</ele>
<time>2014-08-17T02:27:44Z</time>
<desc><![CDATA[lat.=36.683632, lon.=137.759181, Alt.=2678.571680m. Speed=0.000000m/h.]]></desc>
</trkpt>
<trkpt lat="36.683614" lon="137.759173">
<ele>2677.915995</ele>
<time>2014-08-17T02:27:49Z</time>
<desc><![CDATA[lat.=36.683614, lon.=137.759173, Alt.=2677.915995m. Speed=0.000000m/h.]]></desc>
</trkpt>
<trkpt lat="36.683622" lon="137.759173">
<ele>2676.783187</ele>
<time>2014-08-17T02:27:54Z</time>
<desc><![CDATA[lat.=36.683622, lon.=137.759173, Alt.=2676.783187m. Speed=0.000000m/h.]]></desc>
</trkpt>
<trkpt lat="36.683611" lon="137.759181">
<ele>2676.779493</ele>
<time>2014-08-17T02:27:59Z</time>
<desc><![CDATA[lat.=36.683611, lon.=137.759181, Alt.=2676.779493m. Speed=0.000000m/h.]]></desc>
</trkpt>
<trkpt lat="36.683604" lon="137.759165">
<ele>2676.127502</ele>
<time>2014-08-17T02:28:04Z</time>
<desc><![CDATA[lat.=36.683604, lon.=137.759165, Alt.=2676.127502m. Speed=1.000000m/h.]]></desc>
</trkpt>
<trkpt lat="36.683571" lon="137.759156">
<ele>2676.007233</ele>
<time>2014-08-17T02:28:09Z</time>
<desc><![CDATA[lat.=36.683571, lon.=137.759156, Alt.=2676.007233m. Speed=2.000000m/h.]]></desc>
</trkpt>
<trkpt lat="36.683556" lon="137.759155">
<ele>2676.542647</ele>
<time>2014-08-17T02:28:14Z</time>
<desc><![CDATA[lat.=36.683556, lon.=137.759155, Alt.=2676.542647m. Speed=1.000000m/h.]]></desc>
</trkpt>
<trkpt lat="36.683560" lon="137.759148">
<ele>2675.948945</ele>
<time>2014-08-17T02:28:19Z</time>
<desc><![CDATA[lat.=36.683560, lon.=137.759148, Alt.=2675.948945m. Speed=0.000000m/h.]]></desc>
</trkpt>
<trkpt lat="36.683549" lon="137.759156">
<ele>2674.215048</ele>
<time>2014-08-17T02:28:24Z</time>
<desc><![CDATA[lat.=36.683549, lon.=137.759156, Alt.=2674.215048m. Speed=0.000000m/h.]]></desc>
</trkpt>
<trkpt lat="36.683545" lon="137.759164">
<ele>2674.808750</ele>
<time>2014-08-17T02:28:34Z</time>
<desc><![CDATA[lat.=36.683545, lon.=137.759164, Alt.=2674.808750m. Speed=1.000000m/h.]]></desc>
</trkpt>
<trkpt lat="36.683534" lon="137.759155">
<ele>2674.750463</ele>
<time>2014-08-17T02:28:39Z</time>
<desc><![CDATA[lat.=36.683534, lon.=137.759155, Alt.=2674.750463m. Speed=0.000000m/h.]]></desc>
</trkpt>
<trkpt lat="36.683527" lon="137.759155">
<ele>2674.153068</ele>
<time>2014-08-17T02:28:44Z</time>
<desc><![CDATA[lat.=36.683527, lon.=137.759155, Alt.=2674.153068m. Speed=1.000000m/h.]]></desc>
</trkpt>
<trkpt lat="36.683516" lon="137.759164">
<ele>2672.419171</ele>
<time>2014-08-17T02:28:49Z</time>
<desc><![CDATA[lat.=36.683516, lon.=137.759164, Alt.=2672.419171m. Speed=0.000000m/h.]]></desc>
</trkpt>
<trkpt lat="36.683513" lon="137.759155">
<ele>2672.958279</ele>
<time>2014-08-17T02:28:54Z</time>
<desc><![CDATA[lat.=36.683513, lon.=137.759155, Alt.=2672.958279m. Speed=1.000000m/h.]]></desc>
</trkpt>
<trkpt lat="36.683509" lon="137.759147">
<ele>2673.497387</ele>
<time>2014-08-17T02:28:59Z</time>
<desc><![CDATA[lat.=36.683509, lon.=137.759147, Alt.=2673.497387m. Speed=0.000000m/h.]]></desc>
</trkpt>
<trkpt lat="36.683495" lon="137.759147">
<ele>2672.302599</ele>
<time>2014-08-17T02:29:04Z</time>
<desc><![CDATA[lat.=36.683495, lon.=137.759147, Alt.=2672.302599m. Speed=1.000000m/h.]]></desc>
</trkpt>
<trkpt lat="36.683491" lon="137.759139">
<ele>2672.841707</ele>
<time>2014-08-17T02:29:09Z</time>
<desc><![CDATA[lat.=36.683491, lon.=137.759139, Alt.=2672.841707m. Speed=1.000000m/h.]]></desc>
</trkpt>
<trkpt lat="36.683480" lon="137.759130">
<ele>2672.783421</ele>
<time>2014-08-17T02:29:14Z</time>
<desc><![CDATA[lat.=36.683480, lon.=137.759130, Alt.=2672.783421m. Speed=1.000000m/h.]]></desc>
</trkpt>
<trkpt lat="36.683477" lon="137.759123">
<ele>2671.592325</ele>
<time>2014-08-17T02:29:19Z</time>
<desc><![CDATA[lat.=36.683477, lon.=137.759123, Alt.=2671.592325m. Speed=1.000000m/h.]]></desc>
</trkpt>
<trkpt lat="36.683466" lon="137.759115">
<ele>2671.534040</ele>
<time>2014-08-17T02:29:24Z</time>
<desc><![CDATA[lat.=36.683466, lon.=137.759115, Alt.=2671.534040m. Speed=0.000000m/h.]]></desc>
</trkpt>
<trkpt lat="36.683455" lon="137.759106">
<ele>2671.475755</ele>
<time>2014-08-17T02:29:29Z</time>
<desc><![CDATA[lat.=36.683455, lon.=137.759106, Alt.=2671.475755m. Speed=0.000000m/h.]]></desc>
</trkpt>
<trkpt lat="36.683444" lon="137.759098">
<ele>2671.417471</ele>
<time>2014-08-17T02:29:34Z</time>
<desc><![CDATA[lat.=36.683444, lon.=137.759098, Alt.=2671.417471m. Speed=0.000000m/h.]]></desc>
</trkpt>
<trkpt lat="36.683437" lon="137.759098">
<ele>2670.820077</ele>
<time>2014-08-17T02:29:40Z</time>
<desc><![CDATA[lat.=36.683437, lon.=137.759098, Alt.=2670.820077m. Speed=0.000000m/h.]]></desc>
</trkpt>
<trkpt lat="36.683434" lon="137.759090">
<ele>2671.359187</ele>
<time>2014-08-17T02:29:45Z</time>
<desc><![CDATA[lat.=36.683434, lon.=137.759090, Alt.=2671.359187m. Speed=0.000000m/h.]]></desc>
</trkpt>
<trkpt lat="36.683426" lon="137.759090">
<ele>2670.761793</ele>
<time>2014-08-17T02:29:55Z</time>
<desc><![CDATA[lat.=36.683426, lon.=137.759090, Alt.=2670.761793m. Speed=0.000000m/h.]]></desc>
</trkpt>
<trkpt lat="36.683419" lon="137.759090">
<ele>2670.164400</ele>
<time>2014-08-17T02:30:00Z</time>
<desc><![CDATA[lat.=36.683419, lon.=137.759090, Alt.=2670.164400m. Speed=0.000000m/h.]]></desc>
</trkpt>
<trkpt lat="36.683416" lon="137.759081">
<ele>2670.703510</ele>
<time>2014-08-17T02:30:08Z</time>
<desc><![CDATA[lat.=36.683416, lon.=137.759081, Alt.=2670.703510m. Speed=0.000000m/h.]]></desc>
</trkpt>
<trkpt lat="36.683420" lon="137.759074">
<ele>2670.109807</ele>
<time>2014-08-17T02:30:14Z</time>
<desc><![CDATA[lat.=36.683420, lon.=137.759074, Alt.=2670.109807m. Speed=0.000000m/h.]]></desc>
</trkpt>
<trkpt lat="36.683397" lon="137.759073">
<ele>2670.047834</ele>
<time>2014-08-17T02:30:19Z</time>
<desc><![CDATA[lat.=36.683397, lon.=137.759073, Alt.=2670.047834m. Speed=1.000000m/h.]]></desc>
</trkpt>
<trkpt lat="36.683395" lon="137.759050">
<ele>2668.802146</ele>
<time>2014-08-17T02:30:24Z</time>
<desc><![CDATA[lat.=36.683395, lon.=137.759050, Alt.=2668.802146m. Speed=1.000000m/h.]]></desc>
</trkpt>
<trkpt lat="36.683373" lon="137.759049">
<ele>2668.740173</ele>
<time>2014-08-17T02:30:29Z</time>
<desc><![CDATA[lat.=36.683373, lon.=137.759049, Alt.=2668.740173m. Speed=0.000000m/h.]]></desc>
</trkpt>
<trkpt lat="36.683362" lon="137.759042">
<ele>2666.951686</ele>
<time>2014-08-17T02:30:34Z</time>
<desc><![CDATA[lat.=36.683362, lon.=137.759042, Alt.=2666.951686m. Speed=0.000000m/h.]]></desc>
</trkpt>
<trkpt lat="36.683358" lon="137.759033">
<ele>2667.490796</ele>
<time>2014-08-17T02:30:39Z</time>
<desc><![CDATA[lat.=36.683358, lon.=137.759033, Alt.=2667.490796m. Speed=0.000000m/h.]]></desc>
</trkpt>
<trkpt lat="36.683351" lon="137.759033">
<ele>2666.893404</ele>
<time>2014-08-17T02:30:44Z</time>
<desc><![CDATA[lat.=36.683351, lon.=137.759033, Alt.=2666.893404m. Speed=0.000000m/h.]]></desc>
</trkpt>
<trkpt lat="36.683344" lon="137.759033">
<ele>2666.296012</ele>
<time>2014-08-17T02:30:52Z</time>
<desc><![CDATA[lat.=36.683344, lon.=137.759033, Alt.=2666.296012m. Speed=0.000000m/h.]]></desc>
</trkpt>
<trkpt lat="36.683348" lon="137.759042">
<ele>2665.756902</ele>
<time>2014-08-17T02:30:57Z</time>
<desc><![CDATA[lat.=36.683348, lon.=137.759042, Alt.=2665.756902m. Speed=0.000000m/h.]]></desc>
</trkpt>
<trkpt lat="36.683351" lon="137.759050">
<ele>2665.217791</ele>
<time>2014-08-17T02:31:03Z</time>
<desc><![CDATA[lat.=36.683351, lon.=137.759050, Alt.=2665.217791m. Speed=0.000000m/h.]]></desc>
</trkpt>
<trkpt lat="36.683344" lon="137.759033">
<ele>2666.296012</ele>
<time>2014-08-17T02:31:08Z</time>
<desc><![CDATA[lat.=36.683344, lon.=137.759033, Alt.=2666.296012m. Speed=0.000000m/h.]]></desc>
</trkpt>
<trkpt lat="36.683337" lon="137.759033">
<ele>2665.698620</ele>
<time>2014-08-17T02:31:14Z</time>
<desc><![CDATA[lat.=36.683337, lon.=137.759033, Alt.=2665.698620m. Speed=1.000000m/h.]]></desc>
</trkpt>
<trkpt lat="36.683326" lon="137.759025">
<ele>2665.640339</ele>
<time>2014-08-17T02:31:19Z</time>
<desc><![CDATA[lat.=36.683326, lon.=137.759025, Alt.=2665.640339m. Speed=1.000000m/h.]]></desc>
</trkpt>
<trkpt lat="36.683322" lon="137.759033">
<ele>2666.234042</ele>
<time>2014-08-17T02:31:24Z</time>
<desc><![CDATA[lat.=36.683322, lon.=137.759033, Alt.=2666.234042m. Speed=1.000000m/h.]]></desc>
</trkpt>
<trkpt lat="36.683322" lon="137.759017">
<ele>2666.179450</ele>
<time>2014-08-17T02:31:29Z</time>
<desc><![CDATA[lat.=36.683322, lon.=137.759017, Alt.=2666.179450m. Speed=0.000000m/h.]]></desc>
</trkpt>
<trkpt lat="36.683326" lon="137.759025">
<ele>2665.640339</ele>
<time>2014-08-17T02:31:34Z</time>
<desc><![CDATA[lat.=36.683326, lon.=137.759025, Alt.=2665.640339m. Speed=0.000000m/h.]]></desc>
</trkpt>
<trkpt lat="36.683308" lon="137.759016">
<ele>2666.714872</ele>
<time>2014-08-17T02:31:39Z</time>
<desc><![CDATA[lat.=36.683308, lon.=137.759016, Alt.=2666.714872m. Speed=1.000000m/h.]]></desc>
</trkpt>
<trkpt lat="36.683301" lon="137.759000">
<ele>2666.062889</ele>
<time>2014-08-17T02:31:44Z</time>
<desc><![CDATA[lat.=36.683301, lon.=137.759000, Alt.=2666.062889m. Speed=0.000000m/h.]]></desc>
</trkpt>
<trkpt lat="36.683293" lon="137.759000">
<ele>2665.465497</ele>
<time>2014-08-17T02:31:49Z</time>
<desc><![CDATA[lat.=36.683293, lon.=137.759000, Alt.=2665.465497m. Speed=0.000000m/h.]]></desc>
</trkpt>
<trkpt lat="36.683286" lon="137.759000">
<ele>2664.868106</ele>
<time>2014-08-17T02:31:57Z</time>
<desc><![CDATA[lat.=36.683286, lon.=137.759000, Alt.=2664.868106m. Speed=0.000000m/h.]]></desc>
</trkpt>
<trkpt lat="36.683271" lon="137.758999">
<ele>2665.403529</ele>
<time>2014-08-17T02:32:02Z</time>
<desc><![CDATA[lat.=36.683271, lon.=137.758999, Alt.=2665.403529m. Speed=1.000000m/h.]]></desc>
</trkpt>
<trkpt lat="36.683261" lon="137.758991">
<ele>2665.345249</ele>
<time>2014-08-17T02:32:07Z</time>
<desc><![CDATA[lat.=36.683261, lon.=137.758991, Alt.=2665.345249m. Speed=1.000000m/h.]]></desc>
</trkpt>
<trkpt lat="36.683257" lon="137.758999">
<ele>2664.208747</ele>
<time>2014-08-17T02:32:12Z</time>
<desc><![CDATA[lat.=36.683257, lon.=137.758999, Alt.=2664.208747m. Speed=0.000000m/h.]]></desc>
</trkpt>
<trkpt lat="36.683250" lon="137.758999">
<ele>2663.611356</ele>
<time>2014-08-17T02:32:19Z</time>
<desc><![CDATA[lat.=36.683250, lon.=137.758999, Alt.=2663.611356m. Speed=0.000000m/h.]]></desc>
</trkpt>
<trkpt lat="36.683243" lon="137.759000">
<ele>2661.283760</ele>
<time>2014-08-17T02:32:24Z</time>
<desc><![CDATA[lat.=36.683243, lon.=137.759000, Alt.=2661.283760m. Speed=0.000000m/h.]]></desc>
</trkpt>
<trkpt lat="36.683240" lon="137.758993">
<ele>2660.092667</ele>
<time>2014-08-17T02:32:29Z</time>
<desc><![CDATA[lat.=36.683240, lon.=137.758993, Alt.=2660.092667m. Speed=0.000000m/h.]]></desc>
</trkpt>
<trkpt lat="36.683233" lon="137.758977">
<ele>2659.440685</ele>
<time>2014-08-17T02:32:34Z</time>
<desc><![CDATA[lat.=36.683233, lon.=137.758977, Alt.=2659.440685m. Speed=0.000000m/h.]]></desc>
</trkpt>
<trkpt lat="36.683229" lon="137.758969">
<ele>2659.979797</ele>
<time>2014-08-17T02:32:42Z</time>
<desc><![CDATA[lat.=36.683229, lon.=137.758969, Alt.=2659.979797m. Speed=0.000000m/h.]]></desc>
</trkpt>
<trkpt lat="36.683222" lon="137.758969">
<ele>2659.382407</ele>
<time>2014-08-17T02:32:47Z</time>
<desc><![CDATA[lat.=36.683222, lon.=137.758969, Alt.=2659.382407m. Speed=0.000000m/h.]]></desc>
</trkpt>
<trkpt lat="36.683211" lon="137.758976">
<ele>2659.378719</ele>
<time>2014-08-17T02:32:55Z</time>
<desc><![CDATA[lat.=36.683211, lon.=137.758976, Alt.=2659.378719m. Speed=1.000000m/h.]]></desc>
</trkpt>
<trkpt lat="36.683192" lon="137.758967">
<ele>2660.453257</ele>
<time>2014-08-17T02:33:00Z</time>
<desc><![CDATA[lat.=36.683192, lon.=137.758967, Alt.=2660.453257m. Speed=2.000000m/h.]]></desc>
</trkpt>
<trkpt lat="36.683177" lon="137.758983">
<ele>2659.313068</ele>
<time>2014-08-17T02:33:05Z</time>
<desc><![CDATA[lat.=36.683177, lon.=137.758983, Alt.=2659.313068m. Speed=1.000000m/h.]]></desc>
</trkpt>
<trkpt lat="36.683152" lon="137.758974">
<ele>2659.790217</ele>
<time>2014-08-17T02:33:10Z</time>
<desc><![CDATA[lat.=36.683152, lon.=137.758974, Alt.=2659.790217m. Speed=1.000000m/h.]]></desc>
</trkpt>
<trkpt lat="36.683145" lon="137.758974">
<ele>2659.192828</ele>
<time>2014-08-17T02:33:15Z</time>
<desc><![CDATA[lat.=36.683145, lon.=137.758974, Alt.=2659.192828m. Speed=0.000000m/h.]]></desc>
</trkpt>
<trkpt lat="36.683138" lon="137.758975">
<ele>2656.865233</ele>
<time>2014-08-17T02:33:20Z</time>
<desc><![CDATA[lat.=36.683138, lon.=137.758975, Alt.=2656.865233m. Speed=1.000000m/h.]]></desc>
</trkpt>
<trkpt lat="36.683130" lon="137.758958">
<ele>2657.943458</ele>
<time>2014-08-17T02:33:25Z</time>
<desc><![CDATA[lat.=36.683130, lon.=137.758958, Alt.=2657.943458m. Speed=1.000000m/h.]]></desc>
</trkpt>
<trkpt lat="36.683120" lon="137.758950">
<ele>2657.885182</ele>
<time>2014-08-17T02:33:30Z</time>
<desc><![CDATA[lat.=36.683120, lon.=137.758950, Alt.=2657.885182m. Speed=0.000000m/h.]]></desc>
</trkpt>
<trkpt lat="36.683106" lon="137.758934">
<ele>2656.635814</ele>
<time>2014-08-17T02:33:35Z</time>
<desc><![CDATA[lat.=36.683106, lon.=137.758934, Alt.=2656.635814m. Speed=2.000000m/h.]]></desc>
</trkpt>
<trkpt lat="36.683109" lon="137.758942">
<ele>2656.096701</ele>
<time>2014-08-17T02:33:42Z</time>
<desc><![CDATA[lat.=36.683109, lon.=137.758942, Alt.=2656.096701m. Speed=0.000000m/h.]]></desc>
</trkpt>
<trkpt lat="36.683102" lon="137.758926">
<ele>2655.444722</ele>
<time>2014-08-17T02:33:47Z</time>
<desc><![CDATA[lat.=36.683102, lon.=137.758926, Alt.=2655.444722m. Speed=0.000000m/h.]]></desc>
</trkpt>
<trkpt lat="36.683102" lon="137.758943">
<ele>2653.769107</ele>
<time>2014-08-17T02:33:52Z</time>
<desc><![CDATA[lat.=36.683102, lon.=137.758943, Alt.=2653.769107m. Speed=1.000000m/h.]]></desc>
</trkpt>
<trkpt lat="36.683091" lon="137.758966">
<ele>2653.820013</ele>
<time>2014-08-17T02:33:57Z</time>
<desc><![CDATA[lat.=36.683091, lon.=137.758966, Alt.=2653.820013m. Speed=2.000000m/h.]]></desc>
</trkpt>
<trkpt lat="36.683076" lon="137.758966">
<ele>2652.625236</ele>
<time>2014-08-17T02:34:02Z</time>
<desc><![CDATA[lat.=36.683076, lon.=137.758966, Alt.=2652.625236m. Speed=2.000000m/h.]]></desc>
</trkpt>
<trkpt lat="36.683055" lon="137.758951">
<ele>2649.048276</ele>
<time>2014-08-17T02:34:07Z</time>
<desc><![CDATA[lat.=36.683055, lon.=137.758951, Alt.=2649.048276m. Speed=1.000000m/h.]]></desc>
</trkpt>
<trkpt lat="36.683056" lon="137.758920">
<ele>2648.939095</ele>
<time>2014-08-17T02:34:12Z</time>
<desc><![CDATA[lat.=36.683056, lon.=137.758920, Alt.=2648.939095m. Speed=2.000000m/h.]]></desc>
</trkpt>
<trkpt lat="36.683056" lon="137.758904">
<ele>2648.884506</ele>
<time>2014-08-17T02:34:17Z</time>
<desc><![CDATA[lat.=36.683056, lon.=137.758904, Alt.=2648.884506m. Speed=2.000000m/h.]]></desc>
</trkpt>
<trkpt lat="36.683031" lon="137.758896">
<ele>2647.631456</ele>
<time>2014-08-17T02:34:22Z</time>
<desc><![CDATA[lat.=36.683031, lon.=137.758896, Alt.=2647.631456m. Speed=2.000000m/h.]]></desc>
</trkpt>
<trkpt lat="36.683009" lon="137.758911">
<ele>2647.624089</ele>
<time>2014-08-17T02:34:27Z</time>
<desc><![CDATA[lat.=36.683009, lon.=137.758911, Alt.=2647.624089m. Speed=2.000000m/h.]]></desc>
</trkpt>
<trkpt lat="36.682987" lon="137.758895">
<ele>2645.777337</ele>
<time>2014-08-17T02:34:32Z</time>
<desc><![CDATA[lat.=36.682987, lon.=137.758895, Alt.=2645.777337m. Speed=3.000000m/h.]]></desc>
</trkpt>
<trkpt lat="36.682973" lon="137.758911">
<ele>2642.906948</ele>
<time>2014-08-17T02:34:37Z</time>
<desc><![CDATA[lat.=36.682973, lon.=137.758911, Alt.=2642.906948m. Speed=2.000000m/h.]]></desc>
</trkpt>
<trkpt lat="36.682955" lon="137.758952">
<ele>2638.954648</ele>
<time>2014-08-17T02:34:42Z</time>
<desc><![CDATA[lat.=36.682955, lon.=137.758952, Alt.=2638.954648m. Speed=2.000000m/h.]]></desc>
</trkpt>
<trkpt lat="36.682940" lon="137.758969">
<ele>2636.084261</ele>
<time>2014-08-17T02:34:47Z</time>
<desc><![CDATA[lat.=36.682940, lon.=137.758969, Alt.=2636.084261m. Speed=2.000000m/h.]]></desc>
</trkpt>
<trkpt lat="36.682915" lon="137.758960">
<ele>2636.561422</ele>
<time>2014-08-17T02:34:52Z</time>
<desc><![CDATA[lat.=36.682915, lon.=137.758960, Alt.=2636.561422m. Speed=2.000000m/h.]]></desc>
</trkpt>
<trkpt lat="36.682892" lon="137.758990">
<ele>2636.608651</ele>
<time>2014-08-17T02:34:57Z</time>
<desc><![CDATA[lat.=36.682892, lon.=137.758990, Alt.=2636.608651m. Speed=2.000000m/h.]]></desc>
</trkpt>
<trkpt lat="36.682862" lon="137.759021">
<ele>2636.058498</ele>
<time>2014-08-17T02:35:02Z</time>
<desc><![CDATA[lat.=36.682862, lon.=137.759021, Alt.=2636.058498m. Speed=3.000000m/h.]]></desc>
</trkpt>
<trkpt lat="36.682856" lon="137.758990">
<ele>2633.621724</ele>
<time>2014-08-17T02:35:07Z</time>
<desc><![CDATA[lat.=36.682856, lon.=137.758990, Alt.=2633.621724m. Speed=3.000000m/h.]]></desc>
</trkpt>
<trkpt lat="36.682845" lon="137.758966">
<ele>2633.508862</ele>
<time>2014-08-17T02:35:12Z</time>
<desc><![CDATA[lat.=36.682845, lon.=137.758966, Alt.=2633.508862m. Speed=2.000000m/h.]]></desc>
</trkpt>
<trkpt lat="36.682839" lon="137.758951">
<ele>2631.126681</ele>
<time>2014-08-17T02:35:17Z</time>
<desc><![CDATA[lat.=36.682839, lon.=137.758951, Alt.=2631.126681m. Speed=2.000000m/h.]]></desc>
</trkpt>
<trkpt lat="36.682821" lon="137.758960">
<ele>2628.795412</ele>
<time>2014-08-17T02:35:22Z</time>
<desc><![CDATA[lat.=36.682821, lon.=137.758960, Alt.=2628.795412m. Speed=2.000000m/h.]]></desc>
</trkpt>
<trkpt lat="36.682813" lon="137.758976">
<ele>2626.522413</ele>
<time>2014-08-17T02:35:27Z</time>
<desc><![CDATA[lat.=36.682813, lon.=137.758976, Alt.=2626.522413m. Speed=2.000000m/h.]]></desc>
</trkpt>
<trkpt lat="36.682791" lon="137.758959">
<ele>2628.136079</ele>
<time>2014-08-17T02:35:32Z</time>
<desc><![CDATA[lat.=36.682791, lon.=137.758959, Alt.=2628.136079m. Speed=3.000000m/h.]]></desc>
</trkpt>
<trkpt lat="36.682766" lon="137.758966">
<ele>2626.937633</ele>
<time>2014-08-17T02:35:37Z</time>
<desc><![CDATA[lat.=36.682766, lon.=137.758966, Alt.=2626.937633m. Speed=2.000000m/h.]]></desc>
</trkpt>
<trkpt lat="36.682743" lon="137.758997">
<ele>2626.984870</ele>
<time>2014-08-17T02:35:42Z</time>
<desc><![CDATA[lat.=36.682743, lon.=137.758997, Alt.=2626.984870m. Speed=2.000000m/h.]]></desc>
</trkpt>
<trkpt lat="36.682729" lon="137.758966">
<ele>2625.680920</ele>
<time>2014-08-17T02:35:47Z</time>
<desc><![CDATA[lat.=36.682729, lon.=137.758966, Alt.=2625.680920m. Speed=2.000000m/h.]]></desc>
</trkpt>
<trkpt lat="36.682710" lon="137.758988">
<ele>2626.864657</ele>
<time>2014-08-17T02:35:52Z</time>
<desc><![CDATA[lat.=36.682710, lon.=137.758988, Alt.=2626.864657m. Speed=2.000000m/h.]]></desc>
</trkpt>
<trkpt lat="36.682696" lon="137.758988">
<ele>2625.669891</ele>
<time>2014-08-17T02:35:57Z</time>
<desc><![CDATA[lat.=36.682696, lon.=137.758988, Alt.=2625.669891m. Speed=2.000000m/h.]]></desc>
</trkpt>
<trkpt lat="36.682659" lon="137.759003">
<ele>2624.467774</ele>
<time>2014-08-17T02:36:02Z</time>
<desc><![CDATA[lat.=36.682659, lon.=137.759003, Alt.=2624.467774m. Speed=2.000000m/h.]]></desc>
</trkpt>
<trkpt lat="36.682640" lon="137.759027">
<ele>2622.191104</ele>
<time>2014-08-17T02:36:07Z</time>
<desc><![CDATA[lat.=36.682640, lon.=137.759027, Alt.=2622.191104m. Speed=3.000000m/h.]]></desc>
</trkpt>
<trkpt lat="36.682618" lon="137.759010">
<ele>2623.804777</ele>
<time>2014-08-17T02:36:12Z</time>
<desc><![CDATA[lat.=36.682618, lon.=137.759010, Alt.=2623.804777m. Speed=3.000000m/h.]]></desc>
</trkpt>
<trkpt lat="36.682604" lon="137.759010">
<ele>2622.610013</ele>
<time>2014-08-17T02:36:17Z</time>
<desc><![CDATA[lat.=36.682604, lon.=137.759010, Alt.=2622.610013m. Speed=2.000000m/h.]]></desc>
</trkpt>
<trkpt lat="36.682582" lon="137.759010">
<ele>2620.817868</ele>
<time>2014-08-17T02:36:22Z</time>
<desc><![CDATA[lat.=36.682582, lon.=137.759010, Alt.=2620.817868m. Speed=2.000000m/h.]]></desc>
</trkpt>
<trkpt lat="36.682571" lon="137.759051">
<ele>2617.462969</ele>
<time>2014-08-17T02:36:27Z</time>
<desc><![CDATA[lat.=36.682571, lon.=137.759051, Alt.=2617.462969m. Speed=2.000000m/h.]]></desc>
</trkpt>
<trkpt lat="36.682534" lon="137.759048">
<ele>2619.666681</ele>
<time>2014-08-17T02:36:32Z</time>
<desc><![CDATA[lat.=36.682534, lon.=137.759048, Alt.=2619.666681m. Speed=2.000000m/h.]]></desc>
</trkpt>
<trkpt lat="36.682530" lon="137.759073">
<ele>2616.854572</ele>
<time>2014-08-17T02:36:37Z</time>
<desc><![CDATA[lat.=36.682530, lon.=137.759073, Alt.=2616.854572m. Speed=1.000000m/h.]]></desc>
</trkpt>
<trkpt lat="36.682523" lon="137.759074">
<ele>2614.526986</ele>
<time>2014-08-17T02:36:42Z</time>
<desc><![CDATA[lat.=36.682523, lon.=137.759074, Alt.=2614.526986m. Speed=1.000000m/h.]]></desc>
</trkpt>
<trkpt lat="36.682512" lon="137.759066">
<ele>2614.468721</ele>
<time>2014-08-17T02:36:47Z</time>
<desc><![CDATA[lat.=36.682512, lon.=137.759066, Alt.=2614.468721m. Speed=1.000000m/h.]]></desc>
</trkpt>
<trkpt lat="36.682524" lon="137.759058">
<ele>2614.472393</ele>
<time>2014-08-17T02:36:52Z</time>
<desc><![CDATA[lat.=36.682524, lon.=137.759058, Alt.=2614.472393m. Speed=1.000000m/h.]]></desc>
</trkpt>
<trkpt lat="36.682516" lon="137.759042">
<ele>2615.550625</ele>
<time>2014-08-17T02:36:57Z</time>
<desc><![CDATA[lat.=36.682516, lon.=137.759042, Alt.=2615.550625m. Speed=0.000000m/h.]]></desc>
</trkpt>
<trkpt lat="36.682498" lon="137.759033">
<ele>2614.894980</ele>
<time>2014-08-17T02:37:02Z</time>
<desc><![CDATA[lat.=36.682498, lon.=137.759033, Alt.=2614.894980m. Speed=1.000000m/h.]]></desc>
</trkpt>
<trkpt lat="36.682480" lon="137.759024">
<ele>2615.969543</ele>
<time>2014-08-17T02:37:07Z</time>
<desc><![CDATA[lat.=36.682480, lon.=137.759024, Alt.=2615.969543m. Speed=1.000000m/h.]]></desc>
</trkpt>
<trkpt lat="36.682473" lon="137.759024">
<ele>2615.372163</ele>
<time>2014-08-17T02:37:12Z</time>
<desc><![CDATA[lat.=36.682473, lon.=137.759024, Alt.=2615.372163m. Speed=0.000000m/h.]]></desc>
</trkpt>
<trkpt lat="36.682462" lon="137.759017">
<ele>2613.583694</ele>
<time>2014-08-17T02:37:17Z</time>
<desc><![CDATA[lat.=36.682462, lon.=137.759017, Alt.=2613.583694m. Speed=1.000000m/h.]]></desc>
</trkpt>
<trkpt lat="36.682456" lon="137.758970">
<ele>2611.092333</ele>
<time>2014-08-17T02:37:22Z</time>
<desc><![CDATA[lat.=36.682456, lon.=137.758970, Alt.=2611.092333m. Speed=3.000000m/h.]]></desc>
</trkpt>
<trkpt lat="36.682438" lon="137.758994">
<ele>2608.815669</ele>
<time>2014-08-17T02:37:27Z</time>
<desc><![CDATA[lat.=36.682438, lon.=137.758994, Alt.=2608.815669m. Speed=2.000000m/h.]]></desc>
</trkpt>
<trkpt lat="36.682412" lon="137.759018">
<ele>2605.941627</ele>
<time>2014-08-17T02:37:32Z</time>
<desc><![CDATA[lat.=36.682412, lon.=137.759018, Alt.=2605.941627m. Speed=2.000000m/h.]]></desc>
</trkpt>
<trkpt lat="36.682394" lon="137.759042">
<ele>2605.395172</ele>
<time>2014-08-17T02:37:37Z</time>
<desc><![CDATA[lat.=36.682394, lon.=137.759042, Alt.=2605.395172m. Speed=2.000000m/h.]]></desc>
</trkpt>
<trkpt lat="36.682371" lon="137.759057">
<ele>2605.387834</ele>
<time>2014-08-17T02:37:42Z</time>
<desc><![CDATA[lat.=36.682371, lon.=137.759057, Alt.=2605.387834m. Speed=2.000000m/h.]]></desc>
</trkpt>
<trkpt lat="36.682353" lon="137.759081">
<ele>2601.380970</ele>
<time>2014-08-17T02:37:47Z</time>
<desc><![CDATA[lat.=36.682353, lon.=137.759081, Alt.=2601.380970m. Speed=2.000000m/h.]]></desc>
</trkpt>
<trkpt lat="36.682343" lon="137.759074">
<ele>2599.592503</ele>
<time>2014-08-17T02:37:52Z</time>
<desc><![CDATA[lat.=36.682343, lon.=137.759074, Alt.=2599.592503m. Speed=1.000000m/h.]]></desc>
</trkpt>
<trkpt lat="36.682335" lon="137.759073">
<ele>2600.725331</ele>
<time>2014-08-17T02:37:57Z</time>
<desc><![CDATA[lat.=36.682335, lon.=137.759073, Alt.=2600.725331m. Speed=1.000000m/h.]]></desc>
</trkpt>
<trkpt lat="36.682335" lon="137.759074">
<ele>2598.995125</ele>
<time>2014-08-17T02:38:02Z</time>
<desc><![CDATA[lat.=36.682335, lon.=137.759074, Alt.=2598.995125m. Speed=0.000000m/h.]]></desc>
</trkpt>
<trkpt lat="36.682332" lon="137.759066">
<ele>2599.534243</ele>
<time>2014-08-17T02:38:08Z</time>
<desc><![CDATA[lat.=36.682332, lon.=137.759066, Alt.=2599.534243m. Speed=0.000000m/h.]]></desc>
</trkpt>
<trkpt lat="36.682306" lon="137.759057">
<ele>2600.011433</ele>
<time>2014-08-17T02:38:13Z</time>
<desc><![CDATA[lat.=36.682306, lon.=137.759057, Alt.=2600.011433m. Speed=2.000000m/h.]]></desc>
</trkpt>
<trkpt lat="36.682277" lon="137.759072">
<ele>2599.406722</ele>
<time>2014-08-17T02:38:18Z</time>
<desc><![CDATA[lat.=36.682277, lon.=137.759072, Alt.=2599.406722m. Speed=2.000000m/h.]]></desc>
</trkpt>
<trkpt lat="36.682254" lon="137.759071">
<ele>2599.344797</ele>
<time>2014-08-17T02:38:23Z</time>
<desc><![CDATA[lat.=36.682254, lon.=137.759071, Alt.=2599.344797m. Speed=2.000000m/h.]]></desc>
</trkpt>
<trkpt lat="36.682225" lon="137.759087">
<ele>2597.009885</ele>
<time>2014-08-17T02:38:28Z</time>
<desc><![CDATA[lat.=36.682225, lon.=137.759087, Alt.=2597.009885m. Speed=2.000000m/h.]]></desc>
</trkpt>
<trkpt lat="36.682211" lon="137.759071">
<ele>2595.760538</ele>
<time>2014-08-17T02:38:33Z</time>
<desc><![CDATA[lat.=36.682211, lon.=137.759071, Alt.=2595.760538m. Speed=1.000000m/h.]]></desc>
</trkpt>
<trkpt lat="36.682192" lon="137.759078">
<ele>2596.889704</ele>
<time>2014-08-17T02:38:38Z</time>
<desc><![CDATA[lat.=36.682192, lon.=137.759078, Alt.=2596.889704m. Speed=1.000000m/h.]]></desc>
</trkpt>
<trkpt lat="36.682171" lon="137.759078">
<ele>2595.097576</ele>
<time>2014-08-17T02:38:43Z</time>
<desc><![CDATA[lat.=36.682171, lon.=137.759078, Alt.=2595.097576m. Speed=1.000000m/h.]]></desc>
</trkpt>
<trkpt lat="36.682141" lon="137.759093">
<ele>2594.492874</ele>
<time>2014-08-17T02:38:48Z</time>
<desc><![CDATA[lat.=36.682141, lon.=137.759093, Alt.=2594.492874m. Speed=1.000000m/h.]]></desc>
</trkpt>
<trkpt lat="36.682127" lon="137.759076">
<ele>2594.973736</ele>
<time>2014-08-17T02:38:53Z</time>
<desc><![CDATA[lat.=36.682127, lon.=137.759076, Alt.=2594.973736m. Speed=1.000000m/h.]]></desc>
</trkpt>
<trkpt lat="36.682119" lon="137.759076">
<ele>2594.376361</ele>
<time>2014-08-17T02:38:58Z</time>
<desc><![CDATA[lat.=36.682119, lon.=137.759076, Alt.=2594.376361m. Speed=0.000000m/h.]]></desc>
</trkpt>
<trkpt lat="36.682105" lon="137.759060">
<ele>2594.857224</ele>
<time>2014-08-17T02:39:03Z</time>
<desc><![CDATA[lat.=36.682105, lon.=137.759060, Alt.=2594.857224m. Speed=1.000000m/h.]]></desc>
</trkpt>
<trkpt lat="36.682090" lon="137.759043">
<ele>2595.338088</ele>
<time>2014-08-17T02:39:08Z</time>
<desc><![CDATA[lat.=36.682090, lon.=137.759043, Alt.=2595.338088m. Speed=1.000000m/h.]]></desc>
</trkpt>
<trkpt lat="36.682091" lon="137.759027">
<ele>2595.283495</ele>
<time>2014-08-17T02:39:13Z</time>
<desc><![CDATA[lat.=36.682091, lon.=137.759027, Alt.=2595.283495m. Speed=0.000000m/h.]]></desc>
</trkpt>
<trkpt lat="36.682088" lon="137.759036">
<ele>2592.416795</ele>
<time>2014-08-17T02:39:18Z</time>
<desc><![CDATA[lat.=36.682088, lon.=137.759036, Alt.=2592.416795m. Speed=0.000000m/h.]]></desc>
</trkpt>
<trkpt lat="36.682084" lon="137.759028">
<ele>2592.955914</ele>
<time>2014-08-17T02:39:24Z</time>
<desc><![CDATA[lat.=36.682084, lon.=137.759028, Alt.=2592.955914m. Speed=0.000000m/h.]]></desc>
</trkpt>
<trkpt lat="36.682065" lon="137.759019">
<ele>2594.030491</ele>
<time>2014-08-17T02:39:29Z</time>
<desc><![CDATA[lat.=36.682065, lon.=137.759019, Alt.=2594.030491m. Speed=1.000000m/h.]]></desc>
</trkpt>
<trkpt lat="36.682047" lon="137.759011">
<ele>2593.374863</ele>
<time>2014-08-17T02:39:34Z</time>
<desc><![CDATA[lat.=36.682047, lon.=137.759011, Alt.=2593.374863m. Speed=1.000000m/h.]]></desc>
</trkpt>
<trkpt lat="36.682051" lon="137.759020">
<ele>2591.105537</ele>
<time>2014-08-17T02:39:39Z</time>
<desc><![CDATA[lat.=36.682051, lon.=137.759020, Alt.=2591.105537m. Speed=0.000000m/h.]]></desc>
</trkpt>
<trkpt lat="36.682037" lon="137.759019">
<ele>2591.640996</ele>
<time>2014-08-17T02:39:44Z</time>
<desc><![CDATA[lat.=36.682037, lon.=137.759019, Alt.=2591.640996m. Speed=1.000000m/h.]]></desc>
</trkpt>
<trkpt lat="36.682022" lon="137.759019">
<ele>2590.446248</ele>
<time>2014-08-17T02:39:49Z</time>
<desc><![CDATA[lat.=36.682022, lon.=137.759019, Alt.=2590.446248m. Speed=0.000000m/h.]]></desc>
</trkpt>
<trkpt lat="36.682019" lon="137.759027">
<ele>2589.309755</ele>
<time>2014-08-17T02:39:54Z</time>
<desc><![CDATA[lat.=36.682019, lon.=137.759027, Alt.=2589.309755m. Speed=0.000000m/h.]]></desc>
</trkpt>
<trkpt lat="36.682015" lon="137.759019">
<ele>2589.848875</ele>
<time>2014-08-17T02:40:06Z</time>
<desc><![CDATA[lat.=36.682015, lon.=137.759019, Alt.=2589.848875m. Speed=0.000000m/h.]]></desc>
</trkpt>
<trkpt lat="36.682008" lon="137.759019">
<ele>2589.251501</ele>
<time>2014-08-17T02:40:12Z</time>
<desc><![CDATA[lat.=36.682008, lon.=137.759019, Alt.=2589.251501m. Speed=0.000000m/h.]]></desc>
</trkpt>
<trkpt lat="36.682000" lon="137.759019">
<ele>2588.654128</ele>
<time>2014-08-17T02:40:22Z</time>
<desc><![CDATA[lat.=36.682000, lon.=137.759019, Alt.=2588.654128m. Speed=0.000000m/h.]]></desc>
</trkpt>
<trkpt lat="36.682004" lon="137.759027">
<ele>2588.115008</ele>
<time>2014-08-17T02:40:27Z</time>
<desc><![CDATA[lat.=36.682004, lon.=137.759027, Alt.=2588.115008m. Speed=0.000000m/h.]]></desc>
</trkpt>
<trkpt lat="36.681997" lon="137.759027">
<ele>2587.517635</ele>
<time>2014-08-17T02:40:33Z</time>
<desc><![CDATA[lat.=36.681997, lon.=137.759027, Alt.=2587.517635m. Speed=0.000000m/h.]]></desc>
</trkpt>
<trkpt lat="36.681993" lon="137.759019">
<ele>2588.056755</ele>
<time>2014-08-17T02:40:38Z</time>
<desc><![CDATA[lat.=36.681993, lon.=137.759019, Alt.=2588.056755m. Speed=0.000000m/h.]]></desc>
</trkpt>
<trkpt lat="36.681986" lon="137.759019">
<ele>2587.459382</ele>
<time>2014-08-17T02:40:51Z</time>
<desc><![CDATA[lat.=36.681986, lon.=137.759019, Alt.=2587.459382m. Speed=0.000000m/h.]]></desc>
</trkpt>
<trkpt lat="36.681982" lon="137.759026">
<ele>2588.053095</ele>
<time>2014-08-17T02:41:10Z</time>
<desc><![CDATA[lat.=36.681982, lon.=137.759026, Alt.=2588.053095m. Speed=0.000000m/h.]]></desc>
</trkpt>
<trkpt lat="36.681986" lon="137.759035">
<ele>2587.513975</ele>
<time>2014-08-17T02:41:21Z</time>
<desc><![CDATA[lat.=36.681986, lon.=137.759035, Alt.=2587.513975m. Speed=0.000000m/h.]]></desc>
</trkpt>
<trkpt lat="36.681982" lon="137.759026">
<ele>2588.053095</ele>
<time>2014-08-17T02:41:27Z</time>
<desc><![CDATA[lat.=36.681982, lon.=137.759026, Alt.=2588.053095m. Speed=1.000000m/h.]]></desc>
</trkpt>
<trkpt lat="36.681986" lon="137.759035">
<ele>2587.513975</ele>
<time>2014-08-17T02:41:32Z</time>
<desc><![CDATA[lat.=36.681986, lon.=137.759035, Alt.=2587.513975m. Speed=0.000000m/h.]]></desc>
</trkpt>
<trkpt lat="36.681978" lon="137.759035">
<ele>2586.916602</ele>
<time>2014-08-17T02:41:37Z</time>
<desc><![CDATA[lat.=36.681978, lon.=137.759035, Alt.=2586.916602m. Speed=0.000000m/h.]]></desc>
</trkpt>
<trkpt lat="36.681982" lon="137.759027">
<ele>2586.322889</ele>
<time>2014-08-17T02:41:57Z</time>
<desc><![CDATA[lat.=36.681982, lon.=137.759027, Alt.=2586.322889m. Speed=0.000000m/h.]]></desc>
</trkpt>
<trkpt lat="36.681978" lon="137.759035">
<ele>2586.916602</ele>
<time>2014-08-17T02:42:03Z</time>
<desc><![CDATA[lat.=36.681978, lon.=137.759035, Alt.=2586.916602m. Speed=0.000000m/h.]]></desc>
</trkpt>
<trkpt lat="36.681971" lon="137.759035">
<ele>2586.319229</ele>
<time>2014-08-17T02:42:09Z</time>
<desc><![CDATA[lat.=36.681971, lon.=137.759035, Alt.=2586.319229m. Speed=0.000000m/h.]]></desc>
</trkpt>
<trkpt lat="36.681968" lon="137.759043">
<ele>2585.182736</ele>
<time>2014-08-17T02:42:14Z</time>
<desc><![CDATA[lat.=36.681968, lon.=137.759043, Alt.=2585.182736m. Speed=0.000000m/h.]]></desc>
</trkpt>
<trkpt lat="36.681953" lon="137.759042">
<ele>2585.718197</ele>
<time>2014-08-17T02:42:19Z</time>
<desc><![CDATA[lat.=36.681953, lon.=137.759042, Alt.=2585.718197m. Speed=0.000000m/h.]]></desc>
</trkpt>
<trkpt lat="36.681957" lon="137.759035">
<ele>2585.124483</ele>
<time>2014-08-17T02:42:24Z</time>
<desc><![CDATA[lat.=36.681957, lon.=137.759035, Alt.=2585.124483m. Speed=0.000000m/h.]]></desc>
</trkpt>
<trkpt lat="36.681942" lon="137.759034">
<ele>2585.659944</ele>
<time>2014-08-17T02:42:29Z</time>
<desc><![CDATA[lat.=36.681942, lon.=137.759034, Alt.=2585.659944m. Speed=0.000000m/h.]]></desc>
</trkpt>
<trkpt lat="36.681949" lon="137.759034">
<ele>2586.257317</ele>
<time>2014-08-17T02:42:34Z</time>
<desc><![CDATA[lat.=36.681949, lon.=137.759034, Alt.=2586.257317m. Speed=0.000000m/h.]]></desc>
</trkpt>
<trkpt lat="36.681942" lon="137.759034">
<ele>2585.659944</ele>
<time>2014-08-17T02:42:39Z</time>
<desc><![CDATA[lat.=36.681942, lon.=137.759034, Alt.=2585.659944m. Speed=0.000000m/h.]]></desc>
</trkpt>
<trkpt lat="36.681938" lon="137.759026">
<ele>2586.199065</ele>
<time>2014-08-17T02:42:44Z</time>
<desc><![CDATA[lat.=36.681938, lon.=137.759026, Alt.=2586.199065m. Speed=0.000000m/h.]]></desc>
</trkpt>
<trkpt lat="36.681934" lon="137.759033">
<ele>2586.792778</ele>
<time>2014-08-17T02:42:49Z</time>
<desc><![CDATA[lat.=36.681934, lon.=137.759033, Alt.=2586.792778m. Speed=0.000000m/h.]]></desc>
</trkpt>
<trkpt lat="36.681938" lon="137.759041">
<ele>2586.253658</ele>
<time>2014-08-17T02:42:54Z</time>
<desc><![CDATA[lat.=36.681938, lon.=137.759041, Alt.=2586.253658m. Speed=0.000000m/h.]]></desc>
</trkpt>
<trkpt lat="36.681942" lon="137.759050">
<ele>2585.714537</ele>
<time>2014-08-17T02:43:11Z</time>
<desc><![CDATA[lat.=36.681942, lon.=137.759050, Alt.=2585.714537m. Speed=0.000000m/h.]]></desc>
</trkpt>
<trkpt lat="36.681938" lon="137.759041">
<ele>2586.253658</ele>
<time>2014-08-17T02:43:16Z</time>
<desc><![CDATA[lat.=36.681938, lon.=137.759041, Alt.=2586.253658m. Speed=0.000000m/h.]]></desc>
</trkpt>
<trkpt lat="36.681942" lon="137.759050">
<ele>2585.714537</ele>
<time>2014-08-17T02:43:21Z</time>
<desc><![CDATA[lat.=36.681942, lon.=137.759050, Alt.=2585.714537m. Speed=0.000000m/h.]]></desc>
</trkpt>
<trkpt lat="36.681945" lon="137.759058">
<ele>2585.175417</ele>
<time>2014-08-17T02:43:30Z</time>
<desc><![CDATA[lat.=36.681945, lon.=137.759058, Alt.=2585.175417m. Speed=0.000000m/h.]]></desc>
</trkpt>
<trkpt lat="36.681938" lon="137.759042">
<ele>2584.523452</ele>
<time>2014-08-17T02:43:38Z</time>
<desc><![CDATA[lat.=36.681938, lon.=137.759042, Alt.=2584.523452m. Speed=0.000000m/h.]]></desc>
</trkpt>
<trkpt lat="36.681946" lon="137.759042">
<ele>2585.120824</ele>
<time>2014-08-17T02:43:43Z</time>
<desc><![CDATA[lat.=36.681946, lon.=137.759042, Alt.=2585.120824m. Speed=0.000000m/h.]]></desc>
</trkpt>
<trkpt lat="36.681949" lon="137.759050">
<ele>2584.581704</ele>
<time>2014-08-17T02:43:48Z</time>
<desc><![CDATA[lat.=36.681949, lon.=137.759050, Alt.=2584.581704m. Speed=0.000000m/h.]]></desc>
</trkpt>
<trkpt lat="36.681953" lon="137.759059">
<ele>2584.042584</ele>
<time>2014-08-17T02:43:53Z</time>
<desc><![CDATA[lat.=36.681953, lon.=137.759059, Alt.=2584.042584m. Speed=0.000000m/h.]]></desc>
</trkpt>
<trkpt lat="36.681946" lon="137.759059">
<ele>2583.445211</ele>
<time>2014-08-17T02:43:58Z</time>
<desc><![CDATA[lat.=36.681946, lon.=137.759059, Alt.=2583.445211m. Speed=1.000000m/h.]]></desc>
</trkpt>
<trkpt lat="36.681927" lon="137.759034">
<ele>2584.465200</ele>
<time>2014-08-17T02:44:03Z</time>
<desc><![CDATA[lat.=36.681927, lon.=137.759034, Alt.=2584.465200m. Speed=2.000000m/h.]]></desc>
</trkpt>
<trkpt lat="36.681895" lon="137.759026">
<ele>2582.614832</ele>
<time>2014-08-17T02:44:08Z</time>
<desc><![CDATA[lat.=36.681895, lon.=137.759026, Alt.=2582.614832m. Speed=2.000000m/h.]]></desc>
</trkpt>
<trkpt lat="36.681884" lon="137.759017">
<ele>2582.556581</ele>
<time>2014-08-17T02:44:13Z</time>
<desc><![CDATA[lat.=36.681884, lon.=137.759017, Alt.=2582.556581m. Speed=2.000000m/h.]]></desc>
</trkpt>
<trkpt lat="36.681859" lon="137.759009">
<ele>2581.303588</ele>
<time>2014-08-17T02:44:18Z</time>
<desc><![CDATA[lat.=36.681859, lon.=137.759009, Alt.=2581.303588m. Speed=2.000000m/h.]]></desc>
</trkpt>
<trkpt lat="36.681848" lon="137.758985">
<ele>2581.190746</ele>
<time>2014-08-17T02:44:23Z</time>
<desc><![CDATA[lat.=36.681848, lon.=137.758985, Alt.=2581.190746m. Speed=2.000000m/h.]]></desc>
</trkpt>
<trkpt lat="36.681849" lon="137.758969">
<ele>2581.136154</ele>
<time>2014-08-17T02:44:28Z</time>
<desc><![CDATA[lat.=36.681849, lon.=137.758969, Alt.=2581.136154m. Speed=0.000000m/h.]]></desc>
</trkpt>
<trkpt lat="36.681838" lon="137.758961">
<ele>2581.077905</ele>
<time>2014-08-17T02:44:33Z</time>
<desc><![CDATA[lat.=36.681838, lon.=137.758961, Alt.=2581.077905m. Speed=1.000000m/h.]]></desc>
</trkpt>
<trkpt lat="36.681838" lon="137.758977">
<ele>2581.132497</ele>
<time>2014-08-17T02:44:38Z</time>
<desc><![CDATA[lat.=36.681838, lon.=137.758977, Alt.=2581.132497m. Speed=1.000000m/h.]]></desc>
</trkpt>
<trkpt lat="36.681808" lon="137.758959">
<ele>2582.148834</ele>
<time>2014-08-17T02:44:43Z</time>
<desc><![CDATA[lat.=36.681808, lon.=137.758959, Alt.=2582.148834m. Speed=2.000000m/h.]]></desc>
</trkpt>
<trkpt lat="36.681779" lon="137.758974">
<ele>2581.544151</ele>
<time>2014-08-17T02:44:48Z</time>
<desc><![CDATA[lat.=36.681779, lon.=137.758974, Alt.=2581.544151m. Speed=2.000000m/h.]]></desc>
</trkpt>
<trkpt lat="36.681749" lon="137.758989">
<ele>2580.939469</ele>
<time>2014-08-17T02:44:53Z</time>
<desc><![CDATA[lat.=36.681749, lon.=137.758989, Alt.=2580.939469m. Speed=2.000000m/h.]]></desc>
</trkpt>
<trkpt lat="36.681724" lon="137.758998">
<ele>2578.010869</ele>
<time>2014-08-17T02:44:58Z</time>
<desc><![CDATA[lat.=36.681724, lon.=137.758998, Alt.=2578.010869m. Speed=2.000000m/h.]]></desc>
</trkpt>
<trkpt lat="36.681712" lon="137.759004">
<ele>2579.737421</ele>
<time>2014-08-17T02:45:03Z</time>
<desc><![CDATA[lat.=36.681712, lon.=137.759004, Alt.=2579.737421m. Speed=1.000000m/h.]]></desc>
</trkpt>
<trkpt lat="36.681693" lon="137.759026">
<ele>2582.651403</ele>
<time>2014-08-17T02:45:08Z</time>
<desc><![CDATA[lat.=36.681693, lon.=137.759026, Alt.=2582.651403m. Speed=1.000000m/h.]]></desc>
</trkpt>
<trkpt lat="36.681732" lon="137.759017">
<ele>2588.504946</ele>
<time>2014-08-17T02:45:13Z</time>
<desc><![CDATA[lat.=36.681732, lon.=137.759017, Alt.=2588.504946m. Speed=2.000000m/h.]]></desc>
</trkpt>
<trkpt lat="36.681746" lon="137.759016">
<ele>2593.160098</ele>
<time>2014-08-17T02:45:18Z</time>
<desc><![CDATA[lat.=36.681746, lon.=137.759016, Alt.=2593.160098m. Speed=1.000000m/h.]]></desc>
</trkpt>
<trkpt lat="36.681763" lon="137.759023">
<ele>2595.545922</ele>
<time>2014-08-17T02:45:23Z</time>
<desc><![CDATA[lat.=36.681763, lon.=137.759023, Alt.=2595.545922m. Speed=2.000000m/h.]]></desc>
</trkpt>
<trkpt lat="36.681766" lon="137.759080">
<ele>2593.440374</ele>
<time>2014-08-17T02:45:28Z</time>
<desc><![CDATA[lat.=36.681766, lon.=137.759080, Alt.=2593.440374m. Speed=2.000000m/h.]]></desc>
</trkpt>
<trkpt lat="36.681740" lon="137.759103">
<ele>2592.296574</ele>
<time>2014-08-17T02:45:33Z</time>
<desc><![CDATA[lat.=36.681740, lon.=137.759103, Alt.=2592.296574m. Speed=2.000000m/h.]]></desc>
</trkpt>
<trkpt lat="36.681707" lon="137.759094">
<ele>2592.176424</ele>
<time>2014-08-17T02:45:38Z</time>
<desc><![CDATA[lat.=36.681707, lon.=137.759094, Alt.=2592.176424m. Speed=2.000000m/h.]]></desc>
</trkpt>
<trkpt lat="36.681707" lon="137.759126">
<ele>2590.555407</ele>
<time>2014-08-17T02:45:43Z</time>
<desc><![CDATA[lat.=36.681707, lon.=137.759126, Alt.=2590.555407m. Speed=2.000000m/h.]]></desc>
</trkpt>
<trkpt lat="36.681721" lon="137.759126">
<ele>2591.750146</ele>
<time>2014-08-17T02:45:48Z</time>
<desc><![CDATA[lat.=36.681721, lon.=137.759126, Alt.=2591.750146m. Speed=1.000000m/h.]]></desc>
</trkpt>
<trkpt lat="36.681710" lon="137.759150">
<ele>2591.801088</ele>
<time>2014-08-17T02:45:53Z</time>
<desc><![CDATA[lat.=36.681710, lon.=137.759150, Alt.=2591.801088m. Speed=1.000000m/h.]]></desc>
</trkpt>
<trkpt lat="36.681691" lon="137.759157">
<ele>2591.200066</ele>
<time>2014-08-17T02:45:58Z</time>
<desc><![CDATA[lat.=36.681691, lon.=137.759157, Alt.=2591.200066m. Speed=2.000000m/h.]]></desc>
</trkpt>
<trkpt lat="36.681679" lon="137.759163">
<ele>2594.656826</ele>
<time>2014-08-17T02:46:03Z</time>
<desc><![CDATA[lat.=36.681679, lon.=137.759163, Alt.=2594.656826m. Speed=1.000000m/h.]]></desc>
</trkpt>
<trkpt lat="36.681689" lon="137.759186">
<ele>2596.499876</ele>
<time>2014-08-17T02:46:08Z</time>
<desc><![CDATA[lat.=36.681689, lon.=137.759186, Alt.=2596.499876m. Speed=2.000000m/h.]]></desc>
</trkpt>
<trkpt lat="36.681670" lon="137.759209">
<ele>2597.683658</ele>
<time>2014-08-17T02:46:13Z</time>
<desc><![CDATA[lat.=36.681670, lon.=137.759209, Alt.=2597.683658m. Speed=2.000000m/h.]]></desc>
</trkpt>
<trkpt lat="36.681655" lon="137.759223">
<ele>2600.003929</ele>
<time>2014-08-17T02:46:18Z</time>
<desc><![CDATA[lat.=36.681655, lon.=137.759223, Alt.=2600.003929m. Speed=1.000000m/h.]]></desc>
</trkpt>
<trkpt lat="36.681643" lon="137.759247">
<ele>2600.054876</ele>
<time>2014-08-17T02:46:23Z</time>
<desc><![CDATA[lat.=36.681643, lon.=137.759247, Alt.=2600.054876m. Speed=2.000000m/h.]]></desc>
</trkpt>
<trkpt lat="36.681638" lon="137.759286">
<ele>2600.757789</ele>
<time>2014-08-17T02:46:28Z</time>
<desc><![CDATA[lat.=36.681638, lon.=137.759286, Alt.=2600.757789m. Speed=2.000000m/h.]]></desc>
</trkpt>
<trkpt lat="36.681634" lon="137.759325">
<ele>2601.460704</ele>
<time>2014-08-17T02:46:33Z</time>
<desc><![CDATA[lat.=36.681634, lon.=137.759325, Alt.=2601.460704m. Speed=2.000000m/h.]]></desc>
</trkpt>
<trkpt lat="36.681621" lon="137.759380">
<ele>2601.620853</ele>
<time>2014-08-17T02:46:38Z</time>
<desc><![CDATA[lat.=36.681621, lon.=137.759380, Alt.=2601.620853m. Speed=3.000000m/h.]]></desc>
</trkpt>
<trkpt lat="36.681618" lon="137.759371">
<ele>2602.159972</ele>
<time>2014-08-17T02:46:43Z</time>
<desc><![CDATA[lat.=36.681618, lon.=137.759371, Alt.=2602.159972m. Speed=0.000000m/h.]]></desc>
</trkpt>
<trkpt lat="36.681618" lon="137.759355">
<ele>2603.835579</ele>
<time>2014-08-17T02:46:48Z</time>
<desc><![CDATA[lat.=36.681618, lon.=137.759355, Alt.=2603.835579m. Speed=0.000000m/h.]]></desc>
</trkpt>
<trkpt lat="36.681611" lon="137.759355">
<ele>2603.238211</ele>
<time>2014-08-17T02:46:56Z</time>
<desc><![CDATA[lat.=36.681611, lon.=137.759355, Alt.=2603.238211m. Speed=0.000000m/h.]]></desc>
</trkpt>
<trkpt lat="36.681604" lon="137.759356">
<ele>2600.910637</ele>
<time>2014-08-17T02:47:01Z</time>
<desc><![CDATA[lat.=36.681604, lon.=137.759356, Alt.=2600.910637m. Speed=0.000000m/h.]]></desc>
</trkpt>
<trkpt lat="36.681596" lon="137.759355">
<ele>2602.043475</ele>
<time>2014-08-17T02:47:08Z</time>
<desc><![CDATA[lat.=36.681596, lon.=137.759355, Alt.=2602.043475m. Speed=1.000000m/h.]]></desc>
</trkpt>
<trkpt lat="36.681558" lon="137.759401">
<ele>2602.680851</ele>
<time>2014-08-17T02:47:13Z</time>
<desc><![CDATA[lat.=36.681558, lon.=137.759401, Alt.=2602.680851m. Speed=3.000000m/h.]]></desc>
</trkpt>
<trkpt lat="36.681531" lon="137.759423">
<ele>2604.997483</ele>
<time>2014-08-17T02:47:18Z</time>
<desc><![CDATA[lat.=36.681531, lon.=137.759423, Alt.=2604.997483m. Speed=3.000000m/h.]]></desc>
</trkpt>
<trkpt lat="36.681497" lon="137.759493">
<ele>2605.150350</ele>
<time>2014-08-17T02:47:23Z</time>
<desc><![CDATA[lat.=36.681497, lon.=137.759493, Alt.=2605.150350m. Speed=4.000000m/h.]]></desc>
</trkpt>
<trkpt lat="36.681459" lon="137.759540">
<ele>2602.327329</ele>
<time>2014-08-17T02:47:28Z</time>
<desc><![CDATA[lat.=36.681459, lon.=137.759540, Alt.=2602.327329m. Speed=3.000000m/h.]]></desc>
</trkpt>
<trkpt lat="36.681433" lon="137.759580">
<ele>2599.507956</ele>
<time>2014-08-17T02:47:33Z</time>
<desc><![CDATA[lat.=36.681433, lon.=137.759580, Alt.=2599.507956m. Speed=3.000000m/h.]]></desc>
</trkpt>
<trkpt lat="36.681419" lon="137.759596">
<ele>2598.367829</ele>
<time>2014-08-17T02:47:38Z</time>
<desc><![CDATA[lat.=36.681419, lon.=137.759596, Alt.=2598.367829m. Speed=3.000000m/h.]]></desc>
</trkpt>
<trkpt lat="36.681407" lon="137.759587">
<ele>2600.039789</ele>
<time>2014-08-17T02:47:43Z</time>
<desc><![CDATA[lat.=36.681407, lon.=137.759587, Alt.=2600.039789m. Speed=1.000000m/h.]]></desc>
</trkpt>
<trkpt lat="36.681396" lon="137.759577">
<ele>2601.711748</ele>
<time>2014-08-17T02:47:48Z</time>
<desc><![CDATA[lat.=36.681396, lon.=137.759577, Alt.=2601.711748m. Speed=1.000000m/h.]]></desc>
</trkpt>
<trkpt lat="36.681382" lon="137.759594">
<ele>2598.841417</ele>
<time>2014-08-17T02:47:53Z</time>
<desc><![CDATA[lat.=36.681382, lon.=137.759594, Alt.=2598.841417m. Speed=1.000000m/h.]]></desc>
</trkpt>
<trkpt lat="36.681385" lon="137.759586">
<ele>2599.977900</ele>
<time>2014-08-17T02:47:58Z</time>
<desc><![CDATA[lat.=36.681385, lon.=137.759586, Alt.=2599.977900m. Speed=0.000000m/h.]]></desc>
</trkpt>
<trkpt lat="36.681389" lon="137.759578">
<ele>2599.384177</ele>
<time>2014-08-17T02:48:03Z</time>
<desc><![CDATA[lat.=36.681389, lon.=137.759578, Alt.=2599.384177m. Speed=0.000000m/h.]]></desc>
</trkpt>
<trkpt lat="36.681382" lon="137.759578">
<ele>2598.786813</ele>
<time>2014-08-17T02:48:08Z</time>
<desc><![CDATA[lat.=36.681382, lon.=137.759578, Alt.=2598.786813m. Speed=0.000000m/h.]]></desc>
</trkpt>
<trkpt lat="36.681381" lon="137.759626">
<ele>2597.220421</ele>
<time>2014-08-17T02:48:13Z</time>
<desc><![CDATA[lat.=36.681381, lon.=137.759626, Alt.=2597.220421m. Speed=2.000000m/h.]]></desc>
</trkpt>
<trkpt lat="36.681392" lon="137.759651">
<ele>2595.603067</ele>
<time>2014-08-17T02:48:18Z</time>
<desc><![CDATA[lat.=36.681392, lon.=137.759651, Alt.=2595.603067m. Speed=2.000000m/h.]]></desc>
</trkpt>
<trkpt lat="36.681399" lon="137.759667">
<ele>2596.255037</ele>
<time>2014-08-17T02:48:23Z</time>
<desc><![CDATA[lat.=36.681399, lon.=137.759667, Alt.=2596.255037m. Speed=2.000000m/h.]]></desc>
</trkpt>
<trkpt lat="36.681402" lon="137.759675">
<ele>2597.446125</ele>
<time>2014-08-17T02:48:28Z</time>
<desc><![CDATA[lat.=36.681402, lon.=137.759675, Alt.=2597.446125m. Speed=0.000000m/h.]]></desc>
</trkpt>
<trkpt lat="36.681379" lon="137.759688">
<ele>2600.899255</ele>
<time>2014-08-17T02:48:33Z</time>
<desc><![CDATA[lat.=36.681379, lon.=137.759688, Alt.=2600.899255m. Speed=1.000000m/h.]]></desc>
</trkpt>
<trkpt lat="36.681372" lon="137.759704">
<ele>2600.356497</ele>
<time>2014-08-17T02:48:38Z</time>
<desc><![CDATA[lat.=36.681372, lon.=137.759704, Alt.=2600.356497m. Speed=0.000000m/h.]]></desc>
</trkpt>
<trkpt lat="36.681379" lon="137.759705">
<ele>2599.223656</ele>
<time>2014-08-17T02:48:43Z</time>
<desc><![CDATA[lat.=36.681379, lon.=137.759705, Alt.=2599.223656m. Speed=0.000000m/h.]]></desc>
</trkpt>
<trkpt lat="36.681375" lon="137.759712">
<ele>2599.817380</ele>
<time>2014-08-17T02:48:48Z</time>
<desc><![CDATA[lat.=36.681375, lon.=137.759712, Alt.=2599.817380m. Speed=1.000000m/h.]]></desc>
</trkpt>
<trkpt lat="36.681372" lon="137.759721">
<ele>2596.950692</ele>
<time>2014-08-17T02:48:53Z</time>
<desc><![CDATA[lat.=36.681372, lon.=137.759721, Alt.=2596.950692m. Speed=1.000000m/h.]]></desc>
</trkpt>
<trkpt lat="36.681371" lon="137.759684">
<ele>2590.459773</ele>
<time>2014-08-17T02:48:58Z</time>
<desc><![CDATA[lat.=36.681371, lon.=137.759684, Alt.=2590.459773m. Speed=2.000000m/h.]]></desc>
</trkpt>
<trkpt lat="36.681349" lon="137.759652">
<ele>2590.288674</ele>
<time>2014-08-17T02:49:03Z</time>
<desc><![CDATA[lat.=36.681349, lon.=137.759652, Alt.=2590.288674m. Speed=2.000000m/h.]]></desc>
</trkpt>
<trkpt lat="36.681335" lon="137.759635">
<ele>2590.769547</ele>
<time>2014-08-17T02:49:08Z</time>
<desc><![CDATA[lat.=36.681335, lon.=137.759635, Alt.=2590.769547m. Speed=2.000000m/h.]]></desc>
</trkpt>
<trkpt lat="36.681328" lon="137.759620">
<ele>2590.117578</ele>
<time>2014-08-17T02:49:13Z</time>
<desc><![CDATA[lat.=36.681328, lon.=137.759620, Alt.=2590.117578m. Speed=2.000000m/h.]]></desc>
</trkpt>
<trkpt lat="36.681321" lon="137.759620">
<ele>2589.520214</ele>
<time>2014-08-17T02:49:18Z</time>
<desc><![CDATA[lat.=36.681321, lon.=137.759620, Alt.=2589.520214m. Speed=0.000000m/h.]]></desc>
</trkpt>
<trkpt lat="36.681314" lon="137.759620">
<ele>2588.922850</ele>
<time>2014-08-17T02:49:23Z</time>
<desc><![CDATA[lat.=36.681314, lon.=137.759620, Alt.=2588.922850m. Speed=0.000000m/h.]]></desc>
</trkpt>
<trkpt lat="36.681291" lon="137.759618">
<ele>2590.591172</ele>
<time>2014-08-17T02:49:28Z</time>
<desc><![CDATA[lat.=36.681291, lon.=137.759618, Alt.=2590.591172m. Speed=1.000000m/h.]]></desc>
</trkpt>
<trkpt lat="36.681258" lon="137.759608">
<ele>2592.201250</ele>
<time>2014-08-17T02:49:33Z</time>
<desc><![CDATA[lat.=36.681258, lon.=137.759608, Alt.=2592.201250m. Speed=2.000000m/h.]]></desc>
</trkpt>
<trkpt lat="36.681229" lon="137.759608">
<ele>2591.542006</ele>
<time>2014-08-17T02:49:38Z</time>
<desc><![CDATA[lat.=36.681229, lon.=137.759608, Alt.=2591.542006m. Speed=2.000000m/h.]]></desc>
</trkpt>
<trkpt lat="36.681214" lon="137.759608">
<ele>2590.347281</ele>
<time>2014-08-17T02:49:43Z</time>
<desc><![CDATA[lat.=36.681214, lon.=137.759608, Alt.=2590.347281m. Speed=2.000000m/h.]]></desc>
</trkpt>
<trkpt lat="36.681189" lon="137.759583">
<ele>2589.039710</ele>
<time>2014-08-17T02:49:48Z</time>
<desc><![CDATA[lat.=36.681189, lon.=137.759583, Alt.=2589.039710m. Speed=2.000000m/h.]]></desc>
</trkpt>
<trkpt lat="36.681178" lon="137.759592">
<ele>2587.305867</ele>
<time>2014-08-17T02:49:53Z</time>
<desc><![CDATA[lat.=36.681178, lon.=137.759592, Alt.=2587.305867m. Speed=1.000000m/h.]]></desc>
</trkpt>
<trkpt lat="36.681168" lon="137.759583">
<ele>2587.247625</ele>
<time>2014-08-17T02:50:00Z</time>
<desc><![CDATA[lat.=36.681168, lon.=137.759583, Alt.=2587.247625m. Speed=1.000000m/h.]]></desc>
</trkpt>
<trkpt lat="36.681175" lon="137.759585">
<ele>2584.384575</ele>
<time>2014-08-17T02:50:05Z</time>
<desc><![CDATA[lat.=36.681175, lon.=137.759585, Alt.=2584.384575m. Speed=0.000000m/h.]]></desc>
</trkpt>
<trkpt lat="36.681169" lon="137.759569">
<ele>2583.732609</ele>
<time>2014-08-17T02:50:10Z</time>
<desc><![CDATA[lat.=36.681169, lon.=137.759569, Alt.=2583.732609m. Speed=0.000000m/h.]]></desc>
</trkpt>
<trkpt lat="36.681154" lon="137.759569">
<ele>2582.537886</ele>
<time>2014-08-17T02:50:15Z</time>
<desc><![CDATA[lat.=36.681154, lon.=137.759569, Alt.=2582.537886m. Speed=1.000000m/h.]]></desc>
</trkpt>
<trkpt lat="36.681118" lon="137.759553">
<ele>2579.496476</ele>
<time>2014-08-17T02:50:20Z</time>
<desc><![CDATA[lat.=36.681118, lon.=137.759553, Alt.=2579.496476m. Speed=2.000000m/h.]]></desc>
</trkpt>
<trkpt lat="36.681094" lon="137.759546">
<ele>2576.513309</ele>
<time>2014-08-17T02:50:25Z</time>
<desc><![CDATA[lat.=36.681094, lon.=137.759546, Alt.=2576.513309m. Speed=2.000000m/h.]]></desc>
</trkpt>
<trkpt lat="36.681083" lon="137.759538">
<ele>2576.455069</ele>
<time>2014-08-17T02:50:30Z</time>
<desc><![CDATA[lat.=36.681083, lon.=137.759538, Alt.=2576.455069m. Speed=0.000000m/h.]]></desc>
</trkpt>
<trkpt lat="36.681060" lon="137.759553">
<ele>2576.447798</ele>
<time>2014-08-17T02:50:35Z</time>
<desc><![CDATA[lat.=36.681060, lon.=137.759553, Alt.=2576.447798m. Speed=2.000000m/h.]]></desc>
</trkpt>
<trkpt lat="36.681041" lon="137.759593">
<ele>2574.225806</ele>
<time>2014-08-17T02:50:40Z</time>
<desc><![CDATA[lat.=36.681041, lon.=137.759593, Alt.=2574.225806m. Speed=2.000000m/h.]]></desc>
</trkpt>
<trkpt lat="36.681027" lon="137.759592">
<ele>2574.761293</ele>
<time>2014-08-17T02:50:45Z</time>
<desc><![CDATA[lat.=36.681027, lon.=137.759592, Alt.=2574.761293m. Speed=0.000000m/h.]]></desc>
</trkpt>
<trkpt lat="36.681019" lon="137.759592">
<ele>2574.163933</ele>
<time>2014-08-17T02:50:50Z</time>
<desc><![CDATA[lat.=36.681019, lon.=137.759592, Alt.=2574.163933m. Speed=0.000000m/h.]]></desc>
</trkpt>
<trkpt lat="36.681012" lon="137.759592">
<ele>2573.566574</ele>
<time>2014-08-17T02:50:55Z</time>
<desc><![CDATA[lat.=36.681012, lon.=137.759592, Alt.=2573.566574m. Speed=1.000000m/h.]]></desc>
</trkpt>
<trkpt lat="36.681001" lon="137.759600">
<ele>2571.832734</ele>
<time>2014-08-17T02:51:00Z</time>
<desc><![CDATA[lat.=36.681001, lon.=137.759600, Alt.=2571.832734m. Speed=0.000000m/h.]]></desc>
</trkpt>
<trkpt lat="36.680987" lon="137.759599">
<ele>2572.368222</ele>
<time>2014-08-17T02:51:05Z</time>
<desc><![CDATA[lat.=36.680987, lon.=137.759599, Alt.=2572.368222m. Speed=0.000000m/h.]]></desc>
</trkpt>
<trkpt lat="36.680979" lon="137.759599">
<ele>2573.501069</ele>
<time>2014-08-17T02:51:10Z</time>
<desc><![CDATA[lat.=36.680979, lon.=137.759599, Alt.=2573.501069m. Speed=0.000000m/h.]]></desc>
</trkpt>
<trkpt lat="36.680968" lon="137.759590">
<ele>2573.442831</ele>
<time>2014-08-17T02:51:15Z</time>
<desc><![CDATA[lat.=36.680968, lon.=137.759590, Alt.=2573.442831m. Speed=1.000000m/h.]]></desc>
</trkpt>
<trkpt lat="36.680968" lon="137.759591">
<ele>2571.712625</ele>
<time>2014-08-17T02:51:20Z</time>
<desc><![CDATA[lat.=36.680968, lon.=137.759591, Alt.=2571.712625m. Speed=0.000000m/h.]]></desc>
</trkpt>
<trkpt lat="36.680961" lon="137.759591">
<ele>2571.115266</ele>
<time>2014-08-17T02:51:27Z</time>
<desc><![CDATA[lat.=36.680961, lon.=137.759591, Alt.=2571.115266m. Speed=0.000000m/h.]]></desc>
</trkpt>
<trkpt lat="36.680966" lon="137.759568">
<ele>2570.466936</ele>
<time>2014-08-17T02:51:32Z</time>
<desc><![CDATA[lat.=36.680966, lon.=137.759568, Alt.=2570.466936m. Speed=1.000000m/h.]]></desc>
</trkpt>
<trkpt lat="36.680966" lon="137.759568">
<ele>2568.736730</ele>
<time>2014-08-17T02:51:37Z</time>
<desc><![CDATA[lat.=36.680966, lon.=137.759568, Alt.=2568.736730m. Speed=0.000000m/h.]]></desc>
</trkpt>
<trkpt lat="36.680952" lon="137.759552">
<ele>2569.217615</ele>
<time>2014-08-17T02:51:42Z</time>
<desc><![CDATA[lat.=36.680952, lon.=137.759552, Alt.=2569.217615m. Speed=1.000000m/h.]]></desc>
</trkpt>
<trkpt lat="36.680948" lon="137.759559">
<ele>2569.811341</ele>
<time>2014-08-17T02:51:47Z</time>
<desc><![CDATA[lat.=36.680948, lon.=137.759559, Alt.=2569.811341m. Speed=0.000000m/h.]]></desc>
</trkpt>
<trkpt lat="36.680952" lon="137.759552">
<ele>2569.217615</ele>
<time>2014-08-17T02:51:53Z</time>
<desc><![CDATA[lat.=36.680952, lon.=137.759552, Alt.=2569.217615m. Speed=0.000000m/h.]]></desc>
</trkpt>
<trkpt lat="36.680948" lon="137.759560">
<ele>2568.081134</ele>
<time>2014-08-17T02:51:58Z</time>
<desc><![CDATA[lat.=36.680948, lon.=137.759560, Alt.=2568.081134m. Speed=0.000000m/h.]]></desc>
</trkpt>
<trkpt lat="36.680956" lon="137.759561">
<ele>2566.948287</ele>
<time>2014-08-17T02:52:03Z</time>
<desc><![CDATA[lat.=36.680956, lon.=137.759561, Alt.=2566.948287m. Speed=0.000000m/h.]]></desc>
</trkpt>
<trkpt lat="36.680948" lon="137.759561">
<ele>2566.350928</ele>
<time>2014-08-17T02:52:08Z</time>
<desc><![CDATA[lat.=36.680948, lon.=137.759561, Alt.=2566.350928m. Speed=0.000000m/h.]]></desc>
</trkpt>
<trkpt lat="36.680952" lon="137.759569">
<ele>2565.811806</ele>
<time>2014-08-17T02:52:13Z</time>
<desc><![CDATA[lat.=36.680952, lon.=137.759569, Alt.=2565.811806m. Speed=0.000000m/h.]]></desc>
</trkpt>
<trkpt lat="36.680959" lon="137.759569">
<ele>2566.409165</ele>
<time>2014-08-17T02:52:18Z</time>
<desc><![CDATA[lat.=36.680959, lon.=137.759569, Alt.=2566.409165m. Speed=0.000000m/h.]]></desc>
</trkpt>
<trkpt lat="36.680952" lon="137.759569">
<ele>2565.811806</ele>
<time>2014-08-17T02:52:23Z</time>
<desc><![CDATA[lat.=36.680952, lon.=137.759569, Alt.=2565.811806m. Speed=0.000000m/h.]]></desc>
</trkpt>
<trkpt lat="36.680945" lon="137.759569">
<ele>2565.214448</ele>
<time>2014-08-17T02:52:37Z</time>
<desc><![CDATA[lat.=36.680945, lon.=137.759569, Alt.=2565.214448m. Speed=1.000000m/h.]]></desc>
</trkpt>
<trkpt lat="36.680915" lon="137.759584">
<ele>2564.609825</ele>
<time>2014-08-17T02:52:42Z</time>
<desc><![CDATA[lat.=36.680915, lon.=137.759584, Alt.=2564.609825m. Speed=2.000000m/h.]]></desc>
</trkpt>
<trkpt lat="36.680919" lon="137.759593">
<ele>2564.070704</ele>
<time>2014-08-17T02:52:47Z</time>
<desc><![CDATA[lat.=36.680919, lon.=137.759593, Alt.=2564.070704m. Speed=1.000000m/h.]]></desc>
</trkpt>
<trkpt lat="36.680911" lon="137.759608">
<ele>2563.527950</ele>
<time>2014-08-17T02:52:52Z</time>
<desc><![CDATA[lat.=36.680911, lon.=137.759608, Alt.=2563.527950m. Speed=0.000000m/h.]]></desc>
</trkpt>
<trkpt lat="36.680900" lon="137.759617">
<ele>2561.794113</ele>
<time>2014-08-17T02:52:57Z</time>
<desc><![CDATA[lat.=36.680900, lon.=137.759617, Alt.=2561.794113m. Speed=1.000000m/h.]]></desc>
</trkpt>
<trkpt lat="36.680893" lon="137.759632">
<ele>2561.251361</ele>
<time>2014-08-17T02:53:02Z</time>
<desc><![CDATA[lat.=36.680893, lon.=137.759632, Alt.=2561.251361m. Speed=0.000000m/h.]]></desc>
</trkpt>
<trkpt lat="36.680885" lon="137.759632">
<ele>2560.654003</ele>
<time>2014-08-17T02:53:07Z</time>
<desc><![CDATA[lat.=36.680885, lon.=137.759632, Alt.=2560.654003m. Speed=0.000000m/h.]]></desc>
</trkpt>
<trkpt lat="36.680882" lon="137.759641">
<ele>2559.517524</ele>
<time>2014-08-17T02:53:12Z</time>
<desc><![CDATA[lat.=36.680882, lon.=137.759641, Alt.=2559.517524m. Speed=0.000000m/h.]]></desc>
</trkpt>
<trkpt lat="36.680874" lon="137.759640">
<ele>2560.650372</ele>
<time>2014-08-17T02:53:17Z</time>
<desc><![CDATA[lat.=36.680874, lon.=137.759640, Alt.=2560.650372m. Speed=0.000000m/h.]]></desc>
</trkpt>
<trkpt lat="36.680871" lon="137.759648">
<ele>2559.513893</ele>
<time>2014-08-17T02:53:24Z</time>
<desc><![CDATA[lat.=36.680871, lon.=137.759648, Alt.=2559.513893m. Speed=0.000000m/h.]]></desc>
</trkpt>
<trkpt lat="36.680863" lon="137.759648">
<ele>2558.916536</ele>
<time>2014-08-17T02:53:32Z</time>
<desc><![CDATA[lat.=36.680863, lon.=137.759648, Alt.=2558.916536m. Speed=0.000000m/h.]]></desc>
</trkpt>
<trkpt lat="36.680856" lon="137.759648">
<ele>2558.319179</ele>
<time>2014-08-17T02:53:37Z</time>
<desc><![CDATA[lat.=36.680856, lon.=137.759648, Alt.=2558.319179m. Speed=1.000000m/h.]]></desc>
</trkpt>
<trkpt lat="36.680842" lon="137.759648">
<ele>2557.124465</ele>
<time>2014-08-17T02:53:42Z</time>
<desc><![CDATA[lat.=36.680842, lon.=137.759648, Alt.=2557.124465m. Speed=1.000000m/h.]]></desc>
</trkpt>
<trkpt lat="36.680831" lon="137.759640">
<ele>2557.066229</ele>
<time>2014-08-17T02:53:47Z</time>
<desc><![CDATA[lat.=36.680831, lon.=137.759640, Alt.=2557.066229m. Speed=1.000000m/h.]]></desc>
</trkpt>
<trkpt lat="36.680816" lon="137.759640">
<ele>2555.871516</ele>
<time>2014-08-17T02:53:52Z</time>
<desc><![CDATA[lat.=36.680816, lon.=137.759640, Alt.=2555.871516m. Speed=1.000000m/h.]]></desc>
</trkpt>
<trkpt lat="36.680802" lon="137.759656">
<ele>2554.731409</ele>
<time>2014-08-17T02:53:57Z</time>
<desc><![CDATA[lat.=36.680802, lon.=137.759656, Alt.=2554.731409m. Speed=0.000000m/h.]]></desc>
</trkpt>
<trkpt lat="36.680794" lon="137.759656">
<ele>2554.134052</ele>
<time>2014-08-17T02:54:02Z</time>
<desc><![CDATA[lat.=36.680794, lon.=137.759656, Alt.=2554.134052m. Speed=0.000000m/h.]]></desc>
</trkpt>
<trkpt lat="36.680787" lon="137.759655">
<ele>2555.266902</ele>
<time>2014-08-17T02:54:07Z</time>
<desc><![CDATA[lat.=36.680787, lon.=137.759655, Alt.=2555.266902m. Speed=0.000000m/h.]]></desc>
</trkpt>
<trkpt lat="36.680780" lon="137.759655">
<ele>2554.669546</ele>
<time>2014-08-17T02:54:12Z</time>
<desc><![CDATA[lat.=36.680780, lon.=137.759655, Alt.=2554.669546m. Speed=0.000000m/h.]]></desc>
</trkpt>
<trkpt lat="36.680776" lon="137.759663">
<ele>2553.533068</ele>
<time>2014-08-17T02:54:17Z</time>
<desc><![CDATA[lat.=36.680776, lon.=137.759663, Alt.=2553.533068m. Speed=0.000000m/h.]]></desc>
</trkpt>
<trkpt lat="36.680761" lon="137.759679">
<ele>2552.392962</ele>
<time>2014-08-17T02:54:22Z</time>
<desc><![CDATA[lat.=36.680761, lon.=137.759679, Alt.=2552.392962m. Speed=0.000000m/h.]]></desc>
</trkpt>
<trkpt lat="36.680746" lon="137.759678">
<ele>2552.928457</ele>
<time>2014-08-17T02:54:27Z</time>
<desc><![CDATA[lat.=36.680746, lon.=137.759678, Alt.=2552.928457m. Speed=0.000000m/h.]]></desc>
</trkpt>
<trkpt lat="36.680747" lon="137.759679">
<ele>2551.198251</ele>
<time>2014-08-17T02:54:32Z</time>
<desc><![CDATA[lat.=36.680747, lon.=137.759679, Alt.=2551.198251m. Speed=0.000000m/h.]]></desc>
</trkpt>
<trkpt lat="36.680743" lon="137.759687">
<ele>2550.061773</ele>
<time>2014-08-17T02:54:38Z</time>
<desc><![CDATA[lat.=36.680743, lon.=137.759687, Alt.=2550.061773m. Speed=0.000000m/h.]]></desc>
</trkpt>
<trkpt lat="36.680732" lon="137.759711">
<ele>2550.112753</ele>
<time>2014-08-17T02:54:43Z</time>
<desc><![CDATA[lat.=36.680732, lon.=137.759711, Alt.=2550.112753m. Speed=2.000000m/h.]]></desc>
</trkpt>
<trkpt lat="36.680706" lon="137.759750">
<ele>2547.293425</ele>
<time>2014-08-17T02:54:48Z</time>
<desc><![CDATA[lat.=36.680706, lon.=137.759750, Alt.=2547.293425m. Speed=2.000000m/h.]]></desc>
</trkpt>
<trkpt lat="36.680654" lon="137.759749">
<ele>2546.572355</ele>
<time>2014-08-17T02:54:53Z</time>
<desc><![CDATA[lat.=36.680654, lon.=137.759749, Alt.=2546.572355m. Speed=3.000000m/h.]]></desc>
</trkpt>
<trkpt lat="36.680613" lon="137.759755">
<ele>2547.639727</ele>
<time>2014-08-17T02:54:58Z</time>
<desc><![CDATA[lat.=36.680613, lon.=137.759755, Alt.=2547.639727m. Speed=2.000000m/h.]]></desc>
</trkpt>
<trkpt lat="36.680598" lon="137.759769">
<ele>2549.960040</ele>
<time>2014-08-17T02:55:03Z</time>
<desc><![CDATA[lat.=36.680598, lon.=137.759769, Alt.=2549.960040m. Speed=2.000000m/h.]]></desc>
</trkpt>
<trkpt lat="36.680597" lon="137.759817">
<ele>2550.123867</ele>
<time>2014-08-17T02:55:08Z</time>
<desc><![CDATA[lat.=36.680597, lon.=137.759817, Alt.=2550.123867m. Speed=2.000000m/h.]]></desc>
</trkpt>
<trkpt lat="36.680600" lon="137.759808">
<ele>2551.260342</ele>
<time>2014-08-17T02:55:13Z</time>
<desc><![CDATA[lat.=36.680600, lon.=137.759808, Alt.=2551.260342m. Speed=0.000000m/h.]]></desc>
</trkpt>
<trkpt lat="36.680611" lon="137.759817">
<ele>2551.318574</ele>
<time>2014-08-17T02:55:18Z</time>
<desc><![CDATA[lat.=36.680611, lon.=137.759817, Alt.=2551.318574m. Speed=0.000000m/h.]]></desc>
</trkpt>
<trkpt lat="36.680607" lon="137.759808">
<ele>2551.857696</ele>
<time>2014-08-17T02:55:23Z</time>
<desc><![CDATA[lat.=36.680607, lon.=137.759808, Alt.=2551.857696m. Speed=0.000000m/h.]]></desc>
</trkpt>
<trkpt lat="36.680622" lon="137.759808">
<ele>2554.782610</ele>
<time>2014-08-17T02:55:28Z</time>
<desc><![CDATA[lat.=36.680622, lon.=137.759808, Alt.=2554.782610m. Speed=1.000000m/h.]]></desc>
</trkpt>
<trkpt lat="36.680625" lon="137.759816">
<ele>2554.243488</ele>
<time>2014-08-17T02:55:33Z</time>
<desc><![CDATA[lat.=36.680625, lon.=137.759816, Alt.=2554.243488m. Speed=0.000000m/h.]]></desc>
</trkpt>
<trkpt lat="36.680640" lon="137.759816">
<ele>2555.438197</ele>
<time>2014-08-17T02:55:38Z</time>
<desc><![CDATA[lat.=36.680640, lon.=137.759816, Alt.=2555.438197m. Speed=0.000000m/h.]]></desc>
</trkpt>
<trkpt lat="36.680629" lon="137.759808">
<ele>2555.379964</ele>
<time>2014-08-17T02:55:43Z</time>
<desc><![CDATA[lat.=36.680629, lon.=137.759808, Alt.=2555.379964m. Speed=0.000000m/h.]]></desc>
</trkpt>
<trkpt lat="36.680600" lon="137.759791">
<ele>2554.666146</ele>
<time>2014-08-17T02:55:48Z</time>
<desc><![CDATA[lat.=36.680600, lon.=137.759791, Alt.=2554.666146m. Speed=0.000000m/h.]]></desc>
</trkpt>
<trkpt lat="36.680575" lon="137.759783">
<ele>2553.413208</ele>
<time>2014-08-17T02:55:53Z</time>
<desc><![CDATA[lat.=36.680575, lon.=137.759783, Alt.=2553.413208m. Speed=0.000000m/h.]]></desc>
</trkpt>
<trkpt lat="36.680563" lon="137.759790">
<ele>2553.409585</ele>
<time>2014-08-17T02:55:58Z</time>
<desc><![CDATA[lat.=36.680563, lon.=137.759790, Alt.=2553.409585m. Speed=0.000000m/h.]]></desc>
</trkpt>
<trkpt lat="36.680545" lon="137.759781">
<ele>2554.484208</ele>
<time>2014-08-17T02:56:03Z</time>
<desc><![CDATA[lat.=36.680545, lon.=137.759781, Alt.=2554.484208m. Speed=0.000000m/h.]]></desc>
</trkpt>
<trkpt lat="36.680542" lon="137.759774">
<ele>2553.293124</ele>
<time>2014-08-17T02:56:08Z</time>
<desc><![CDATA[lat.=36.680542, lon.=137.759774, Alt.=2553.293124m. Speed=0.000000m/h.]]></desc>
</trkpt>
<trkpt lat="36.680534" lon="137.759774">
<ele>2552.695771</ele>
<time>2014-08-17T02:56:13Z</time>
<desc><![CDATA[lat.=36.680534, lon.=137.759774, Alt.=2552.695771m. Speed=0.000000m/h.]]></desc>
</trkpt>
<trkpt lat="36.680516" lon="137.759765">
<ele>2552.040189</ele>
<time>2014-08-17T02:56:18Z</time>
<desc><![CDATA[lat.=36.680516, lon.=137.759765, Alt.=2552.040189m. Speed=1.000000m/h.]]></desc>
</trkpt>
<trkpt lat="36.680498" lon="137.759756">
<ele>2553.114813</ele>
<time>2014-08-17T02:56:23Z</time>
<desc><![CDATA[lat.=36.680498, lon.=137.759756, Alt.=2553.114813m. Speed=2.000000m/h.]]></desc>
</trkpt>
<trkpt lat="36.680484" lon="137.759741">
<ele>2550.135295</ele>
<time>2014-08-17T02:56:28Z</time>
<desc><![CDATA[lat.=36.680484, lon.=137.759741, Alt.=2550.135295m. Speed=2.000000m/h.]]></desc>
</trkpt>
<trkpt lat="36.680448" lon="137.759724">
<ele>2550.554341</ele>
<time>2014-08-17T02:56:33Z</time>
<desc><![CDATA[lat.=36.680448, lon.=137.759724, Alt.=2550.554341m. Speed=2.000000m/h.]]></desc>
</trkpt>
<trkpt lat="36.680441" lon="137.759725">
<ele>2548.226783</ele>
<time>2014-08-17T02:56:38Z</time>
<desc><![CDATA[lat.=36.680441, lon.=137.759725, Alt.=2548.226783m. Speed=0.000000m/h.]]></desc>
</trkpt>
<trkpt lat="36.680438" lon="137.759717">
<ele>2547.035700</ele>
<time>2014-08-17T02:56:43Z</time>
<desc><![CDATA[lat.=36.680438, lon.=137.759717, Alt.=2547.035700m. Speed=1.000000m/h.]]></desc>
</trkpt>
<trkpt lat="36.680453" lon="137.759719">
<ele>2544.769990</ele>
<time>2014-08-17T02:56:48Z</time>
<desc><![CDATA[lat.=36.680453, lon.=137.759719, Alt.=2544.769990m. Speed=1.000000m/h.]]></desc>
</trkpt>
<trkpt lat="36.680450" lon="137.759695">
<ele>2543.524300</ele>
<time>2014-08-17T02:56:53Z</time>
<desc><![CDATA[lat.=36.680450, lon.=137.759695, Alt.=2543.524300m. Speed=1.000000m/h.]]></desc>
</trkpt>
<trkpt lat="36.680444" lon="137.759680">
<ele>2541.142135</ele>
<time>2014-08-17T02:56:58Z</time>
<desc><![CDATA[lat.=36.680444, lon.=137.759680, Alt.=2541.142135m. Speed=2.000000m/h.]]></desc>
</trkpt>
<trkpt lat="36.680437" lon="137.759649">
<ele>2540.435571</ele>
<time>2014-08-17T02:57:03Z</time>
<desc><![CDATA[lat.=36.680437, lon.=137.759649, Alt.=2540.435571m. Speed=2.000000m/h.]]></desc>
</trkpt>
<trkpt lat="36.680427" lon="137.759609">
<ele>2540.268133</ele>
<time>2014-08-17T02:57:08Z</time>
<desc><![CDATA[lat.=36.680427, lon.=137.759609, Alt.=2540.268133m. Speed=1.000000m/h.]]></desc>
</trkpt>
<trkpt lat="36.680419" lon="137.759625">
<ele>2539.725387</ele>
<time>2014-08-17T02:57:14Z</time>
<desc><![CDATA[lat.=36.680419, lon.=137.759625, Alt.=2539.725387m. Speed=1.000000m/h.]]></desc>
</trkpt>
<trkpt lat="36.680427" lon="137.759642">
<ele>2536.916931</ele>
<time>2014-08-17T02:57:19Z</time>
<desc><![CDATA[lat.=36.680427, lon.=137.759642, Alt.=2536.916931m. Speed=0.000000m/h.]]></desc>
</trkpt>
<trkpt lat="36.680401" lon="137.759633">
<ele>2537.394209</ele>
<time>2014-08-17T02:57:24Z</time>
<desc><![CDATA[lat.=36.680401, lon.=137.759633, Alt.=2537.394209m. Speed=2.000000m/h.]]></desc>
</trkpt>
<trkpt lat="36.680367" lon="137.759655">
<ele>2539.113557</ele>
<time>2014-08-17T02:57:29Z</time>
<desc><![CDATA[lat.=36.680367, lon.=137.759655, Alt.=2539.113557m. Speed=2.000000m/h.]]></desc>
</trkpt>
<trkpt lat="36.680345" lon="137.759670">
<ele>2539.106320</ele>
<time>2014-08-17T02:57:34Z</time>
<desc><![CDATA[lat.=36.680345, lon.=137.759670, Alt.=2539.106320m. Speed=2.000000m/h.]]></desc>
</trkpt>
<trkpt lat="36.680338" lon="137.759670">
<ele>2538.508970</ele>
<time>2014-08-17T02:57:39Z</time>
<desc><![CDATA[lat.=36.680338, lon.=137.759670, Alt.=2538.508970m. Speed=0.000000m/h.]]></desc>
</trkpt>
<trkpt lat="36.680334" lon="137.759662">
<ele>2539.048095</ele>
<time>2014-08-17T02:57:44Z</time>
<desc><![CDATA[lat.=36.680334, lon.=137.759662, Alt.=2539.048095m. Speed=0.000000m/h.]]></desc>
</trkpt>
<trkpt lat="36.680316" lon="137.759653">
<ele>2538.392520</ele>
<time>2014-08-17T02:57:49Z</time>
<desc><![CDATA[lat.=36.680316, lon.=137.759653, Alt.=2538.392520m. Speed=2.000000m/h.]]></desc>
</trkpt>
<trkpt lat="36.680328" lon="137.759630">
<ele>2538.341533</ele>
<time>2014-08-17T02:57:54Z</time>
<desc><![CDATA[lat.=36.680328, lon.=137.759630, Alt.=2538.341533m. Speed=2.000000m/h.]]></desc>
</trkpt>
<trkpt lat="36.680324" lon="137.759638">
<ele>2537.205057</ele>
<time>2014-08-17T02:57:59Z</time>
<desc><![CDATA[lat.=36.680324, lon.=137.759638, Alt.=2537.205057m. Speed=0.000000m/h.]]></desc>
</trkpt>
<trkpt lat="36.680331" lon="137.759655">
<ele>2536.126807</ele>
<time>2014-08-17T02:58:04Z</time>
<desc><![CDATA[lat.=36.680331, lon.=137.759655, Alt.=2536.126807m. Speed=0.000000m/h.]]></desc>
</trkpt>
<trkpt lat="36.680317" lon="137.759639">
<ele>2534.877501</ele>
<time>2014-08-17T02:58:09Z</time>
<desc><![CDATA[lat.=36.680317, lon.=137.759639, Alt.=2534.877501m. Speed=1.000000m/h.]]></desc>
</trkpt>
<trkpt lat="36.680329" lon="137.759617">
<ele>2533.096307</ele>
<time>2014-08-17T02:58:14Z</time>
<desc><![CDATA[lat.=36.680329, lon.=137.759617, Alt.=2533.096307m. Speed=1.000000m/h.]]></desc>
</trkpt>
<trkpt lat="36.680329" lon="137.759617">
<ele>2531.366100</ele>
<time>2014-08-17T02:58:19Z</time>
<desc><![CDATA[lat.=36.680329, lon.=137.759617, Alt.=2531.366100m. Speed=0.000000m/h.]]></desc>
</trkpt>
<trkpt lat="36.680326" lon="137.759609">
<ele>2531.905226</ele>
<time>2014-08-17T02:58:24Z</time>
<desc><![CDATA[lat.=36.680326, lon.=137.759609, Alt.=2531.905226m. Speed=0.000000m/h.]]></desc>
</trkpt>
<trkpt lat="36.680326" lon="137.759610">
<ele>2530.175019</ele>
<time>2014-08-17T02:58:29Z</time>
<desc><![CDATA[lat.=36.680326, lon.=137.759610, Alt.=2530.175019m. Speed=0.000000m/h.]]></desc>
</trkpt>
<trkpt lat="36.680330" lon="137.759602">
<ele>2529.581288</ele>
<time>2014-08-17T02:58:37Z</time>
<desc><![CDATA[lat.=36.680330, lon.=137.759602, Alt.=2529.581288m. Speed=0.000000m/h.]]></desc>
</trkpt>
<trkpt lat="36.680319" lon="137.759594">
<ele>2529.523064</ele>
<time>2014-08-17T02:58:42Z</time>
<desc><![CDATA[lat.=36.680319, lon.=137.759594, Alt.=2529.523064m. Speed=0.000000m/h.]]></desc>
</trkpt>
<trkpt lat="36.680312" lon="137.759594">
<ele>2528.925714</ele>
<time>2014-08-17T02:58:47Z</time>
<desc><![CDATA[lat.=36.680312, lon.=137.759594, Alt.=2528.925714m. Speed=0.000000m/h.]]></desc>
</trkpt>
<trkpt lat="36.680306" lon="137.759562">
<ele>2528.219155</ele>
<time>2014-08-17T02:58:52Z</time>
<desc><![CDATA[lat.=36.680306, lon.=137.759562, Alt.=2528.219155m. Speed=1.000000m/h.]]></desc>
</trkpt>
<trkpt lat="36.680269" lon="137.759561">
<ele>2528.692822</ele>
<time>2014-08-17T02:58:57Z</time>
<desc><![CDATA[lat.=36.680269, lon.=137.759561, Alt.=2528.692822m. Speed=2.000000m/h.]]></desc>
</trkpt>
<trkpt lat="36.680225" lon="137.759560">
<ele>2526.838937</ele>
<time>2014-08-17T02:59:02Z</time>
<desc><![CDATA[lat.=36.680225, lon.=137.759560, Alt.=2526.838937m. Speed=3.000000m/h.]]></desc>
</trkpt>
<trkpt lat="36.680184" lon="137.759598">
<ele>2526.285345</ele>
<time>2014-08-17T02:59:07Z</time>
<desc><![CDATA[lat.=36.680184, lon.=137.759598, Alt.=2526.285345m. Speed=3.000000m/h.]]></desc>
</trkpt>
<trkpt lat="36.680159" lon="137.759574">
<ele>2524.977824</ele>
<time>2014-08-17T02:59:12Z</time>
<desc><![CDATA[lat.=36.680159, lon.=137.759574, Alt.=2524.977824m. Speed=3.000000m/h.]]></desc>
</trkpt>
<trkpt lat="36.680172" lon="137.759520">
<ele>2523.087420</ele>
<time>2014-08-17T02:59:17Z</time>
<desc><![CDATA[lat.=36.680172, lon.=137.759520, Alt.=2523.087420m. Speed=4.000000m/h.]]></desc>
</trkpt>
<trkpt lat="36.680136" lon="137.759504">
<ele>2520.046079</ele>
<time>2014-08-17T02:59:22Z</time>
<desc><![CDATA[lat.=36.680136, lon.=137.759504, Alt.=2520.046079m. Speed=3.000000m/h.]]></desc>
</trkpt>
<trkpt lat="36.680080" lon="137.759510">
<ele>2521.649005</ele>
<time>2014-08-17T02:59:27Z</time>
<desc><![CDATA[lat.=36.680080, lon.=137.759510, Alt.=2521.649005m. Speed=4.000000m/h.]]></desc>
</trkpt>
<trkpt lat="36.680074" lon="137.759463">
<ele>2519.157642</ele>
<time>2014-08-17T02:59:32Z</time>
<desc><![CDATA[lat.=36.680074, lon.=137.759463, Alt.=2519.157642m. Speed=3.000000m/h.]]></desc>
</trkpt>
<trkpt lat="36.680019" lon="137.759453">
<ele>2518.975764</ele>
<time>2014-08-17T02:59:37Z</time>
<desc><![CDATA[lat.=36.680019, lon.=137.759453, Alt.=2518.975764m. Speed=4.000000m/h.]]></desc>
</trkpt>
<trkpt lat="36.679987" lon="137.759412">
<ele>2520.476722</ele>
<time>2014-08-17T02:59:42Z</time>
<desc><![CDATA[lat.=36.679987, lon.=137.759412, Alt.=2520.476722m. Speed=4.000000m/h.]]></desc>
</trkpt>
<trkpt lat="36.679958" lon="137.759395">
<ele>2519.762948</ele>
<time>2014-08-17T02:59:47Z</time>
<desc><![CDATA[lat.=36.679958, lon.=137.759395, Alt.=2519.762948m. Speed=3.000000m/h.]]></desc>
</trkpt>
<trkpt lat="36.679940" lon="137.759403">
<ele>2519.161991</ele>
<time>2014-08-17T02:59:52Z</time>
<desc><![CDATA[lat.=36.679940, lon.=137.759403, Alt.=2519.161991m. Speed=2.000000m/h.]]></desc>
</trkpt>
<trkpt lat="36.679911" lon="137.759386">
<ele>2518.448220</ele>
<time>2014-08-17T02:59:57Z</time>
<desc><![CDATA[lat.=36.679911, lon.=137.759386, Alt.=2518.448220m. Speed=2.000000m/h.]]></desc>
</trkpt>
<trkpt lat="36.679878" lon="137.759394">
<ele>2516.652578</ele>
<time>2014-08-17T03:00:02Z</time>
<desc><![CDATA[lat.=36.679878, lon.=137.759394, Alt.=2516.652578m. Speed=2.000000m/h.]]></desc>
</trkpt>
<trkpt lat="36.679845" lon="137.759401">
<ele>2514.856937</ele>
<time>2014-08-17T03:00:07Z</time>
<desc><![CDATA[lat.=36.679845, lon.=137.759401, Alt.=2514.856937m. Speed=2.000000m/h.]]></desc>
</trkpt>
<trkpt lat="36.679841" lon="137.759410">
<ele>2513.720463</ele>
<time>2014-08-17T03:00:12Z</time>
<desc><![CDATA[lat.=36.679841, lon.=137.759410, Alt.=2513.720463m. Speed=2.000000m/h.]]></desc>
</trkpt>
<trkpt lat="36.679816" lon="137.759385">
<ele>2514.143171</ele>
<time>2014-08-17T03:00:17Z</time>
<desc><![CDATA[lat.=36.679816, lon.=137.759385, Alt.=2514.143171m. Speed=2.000000m/h.]]></desc>
</trkpt>
<trkpt lat="36.679790" lon="137.759392">
<ele>2512.944877</ele>
<time>2014-08-17T03:00:22Z</time>
<desc><![CDATA[lat.=36.679790, lon.=137.759392, Alt.=2512.944877m. Speed=2.000000m/h.]]></desc>
</trkpt>
<trkpt lat="36.679751" lon="137.759351">
<ele>2513.848511</ele>
<time>2014-08-17T03:00:27Z</time>
<desc><![CDATA[lat.=36.679751, lon.=137.759351, Alt.=2513.848511m. Speed=3.000000m/h.]]></desc>
</trkpt>
<trkpt lat="36.679704" lon="137.759309">
<ele>2514.154810</ele>
<time>2014-08-17T03:00:32Z</time>
<desc><![CDATA[lat.=36.679704, lon.=137.759309, Alt.=2514.154810m. Speed=4.000000m/h.]]></desc>
</trkpt>
<trkpt lat="36.679667" lon="137.759276">
<ele>2514.519321</ele>
<time>2014-08-17T03:00:37Z</time>
<desc><![CDATA[lat.=36.679667, lon.=137.759276, Alt.=2514.519321m. Speed=3.000000m/h.]]></desc>
</trkpt>
<trkpt lat="36.679675" lon="137.759261">
<ele>2513.331855</ele>
<time>2014-08-17T03:00:42Z</time>
<desc><![CDATA[lat.=36.679675, lon.=137.759261, Alt.=2513.331855m. Speed=2.000000m/h.]]></desc>
</trkpt>
<trkpt lat="36.679668" lon="137.759261">
<ele>2512.734514</ele>
<time>2014-08-17T03:00:47Z</time>
<desc><![CDATA[lat.=36.679668, lon.=137.759261, Alt.=2512.734514m. Speed=0.000000m/h.]]></desc>
</trkpt>
<trkpt lat="36.679657" lon="137.759269">
<ele>2512.730907</ele>
<time>2014-08-17T03:00:52Z</time>
<desc><![CDATA[lat.=36.679657, lon.=137.759269, Alt.=2512.730907m. Speed=0.000000m/h.]]></desc>
</trkpt>
<trkpt lat="36.679649" lon="137.759301">
<ele>2510.512558</ele>
<time>2014-08-17T03:00:57Z</time>
<desc><![CDATA[lat.=36.679649, lon.=137.759301, Alt.=2510.512558m. Speed=2.000000m/h.]]></desc>
</trkpt>
<trkpt lat="36.679620" lon="137.759300">
<ele>2509.853405</ele>
<time>2014-08-17T03:01:02Z</time>
<desc><![CDATA[lat.=36.679620, lon.=137.759300, Alt.=2509.853405m. Speed=3.000000m/h.]]></desc>
</trkpt>
<trkpt lat="36.679607" lon="137.759253">
<ele>2508.494927</ele>
<time>2014-08-17T03:01:07Z</time>
<desc><![CDATA[lat.=36.679607, lon.=137.759253, Alt.=2508.494927m. Speed=3.000000m/h.]]></desc>
</trkpt>
<trkpt lat="36.679581" lon="137.759245">
<ele>2507.242043</ele>
<time>2014-08-17T03:01:12Z</time>
<desc><![CDATA[lat.=36.679581, lon.=137.759245, Alt.=2507.242043m. Speed=2.000000m/h.]]></desc>
</trkpt>
<trkpt lat="36.679553" lon="137.759228">
<ele>2506.528295</ele>
<time>2014-08-17T03:01:17Z</time>
<desc><![CDATA[lat.=36.679553, lon.=137.759228, Alt.=2506.528295m. Speed=2.000000m/h.]]></desc>
</trkpt>
<trkpt lat="36.679523" lon="137.759244">
<ele>2504.193539</ele>
<time>2014-08-17T03:01:22Z</time>
<desc><![CDATA[lat.=36.679523, lon.=137.759244, Alt.=2504.193539m. Speed=2.000000m/h.]]></desc>
</trkpt>
<trkpt lat="36.679502" lon="137.759227">
<ele>2504.077133</ele>
<time>2014-08-17T03:01:27Z</time>
<desc><![CDATA[lat.=36.679502, lon.=137.759227, Alt.=2504.077133m. Speed=2.000000m/h.]]></desc>
</trkpt>
<trkpt lat="36.679483" lon="137.759251">
<ele>2501.800582</ele>
<time>2014-08-17T03:01:32Z</time>
<desc><![CDATA[lat.=36.679483, lon.=137.759251, Alt.=2501.800582m. Speed=2.000000m/h.]]></desc>
</trkpt>
<trkpt lat="36.679473" lon="137.759212">
<ele>2501.633182</ele>
<time>2014-08-17T03:01:37Z</time>
<desc><![CDATA[lat.=36.679473, lon.=137.759212, Alt.=2501.633182m. Speed=3.000000m/h.]]></desc>
</trkpt>
<trkpt lat="36.679440" lon="137.759203">
<ele>2501.513175</ele>
<time>2014-08-17T03:01:42Z</time>
<desc><![CDATA[lat.=36.679440, lon.=137.759203, Alt.=2501.513175m. Speed=3.000000m/h.]]></desc>
</trkpt>
<trkpt lat="36.679393" lon="137.759193">
<ele>2500.198497</ele>
<time>2014-08-17T03:01:47Z</time>
<desc><![CDATA[lat.=36.679393, lon.=137.759193, Alt.=2500.198497m. Speed=3.000000m/h.]]></desc>
</trkpt>
<trkpt lat="36.679338" lon="137.759184">
<ele>2500.016695</ele>
<time>2014-08-17T03:01:52Z</time>
<desc><![CDATA[lat.=36.679338, lon.=137.759184, Alt.=2500.016695m. Speed=3.000000m/h.]]></desc>
</trkpt>
<trkpt lat="36.679313" lon="137.759160">
<ele>2498.709227</ele>
<time>2014-08-17T03:01:57Z</time>
<desc><![CDATA[lat.=36.679313, lon.=137.759160, Alt.=2498.709227m. Speed=3.000000m/h.]]></desc>
</trkpt>
<trkpt lat="36.679304" lon="137.759121">
<ele>2495.081420</ele>
<time>2014-08-17T03:02:02Z</time>
<desc><![CDATA[lat.=36.679304, lon.=137.759121, Alt.=2495.081420m. Speed=3.000000m/h.]]></desc>
</trkpt>
<trkpt lat="36.679253" lon="137.759071">
<ele>2497.657117</ele>
<time>2014-08-17T03:02:07Z</time>
<desc><![CDATA[lat.=36.679253, lon.=137.759071, Alt.=2497.657117m. Speed=4.000000m/h.]]></desc>
</trkpt>
<trkpt lat="36.679205" lon="137.759045">
<ele>2498.018070</ele>
<time>2014-08-17T03:02:12Z</time>
<desc><![CDATA[lat.=36.679205, lon.=137.759045, Alt.=2498.018070m. Speed=4.000000m/h.]]></desc>
</trkpt>
<trkpt lat="36.679166" lon="137.759005">
<ele>2497.191560</ele>
<time>2014-08-17T03:02:17Z</time>
<desc><![CDATA[lat.=36.679166, lon.=137.759005, Alt.=2497.191560m. Speed=4.000000m/h.]]></desc>
</trkpt>
<trkpt lat="36.679138" lon="137.758956">
<ele>2496.368653</ele>
<time>2014-08-17T03:02:22Z</time>
<desc><![CDATA[lat.=36.679138, lon.=137.758956, Alt.=2496.368653m. Speed=4.000000m/h.]]></desc>
</trkpt>
<trkpt lat="36.679125" lon="137.758893">
<ele>2494.955615</ele>
<time>2014-08-17T03:02:27Z</time>
<desc><![CDATA[lat.=36.679125, lon.=137.758893, Alt.=2494.955615m. Speed=4.000000m/h.]]></desc>
</trkpt>
<trkpt lat="36.679136" lon="137.758853">
<ele>2496.580240</ele>
<time>2014-08-17T03:02:32Z</time>
<desc><![CDATA[lat.=36.679136, lon.=137.758853, Alt.=2496.580240m. Speed=3.000000m/h.]]></desc>
</trkpt>
<trkpt lat="36.679129" lon="137.758837">
<ele>2497.658524</ele>
<time>2014-08-17T03:02:37Z</time>
<desc><![CDATA[lat.=36.679129, lon.=137.758837, Alt.=2497.658524m. Speed=2.000000m/h.]]></desc>
</trkpt>
<trkpt lat="36.679137" lon="137.758838">
<ele>2496.525649</ele>
<time>2014-08-17T03:02:42Z</time>
<desc><![CDATA[lat.=36.679137, lon.=137.758838, Alt.=2496.525649m. Speed=0.000000m/h.]]></desc>
</trkpt>
<trkpt lat="36.679129" lon="137.758838">
<ele>2495.928316</ele>
<time>2014-08-17T03:02:47Z</time>
<desc><![CDATA[lat.=36.679129, lon.=137.758838, Alt.=2495.928316m. Speed=0.000000m/h.]]></desc>
</trkpt>
<trkpt lat="36.679122" lon="137.758838">
<ele>2495.330982</ele>
<time>2014-08-17T03:02:52Z</time>
<desc><![CDATA[lat.=36.679122, lon.=137.758838, Alt.=2495.330982m. Speed=1.000000m/h.]]></desc>
</trkpt>
<trkpt lat="36.679123" lon="137.758823">
<ele>2493.546183</ele>
<time>2014-08-17T03:02:57Z</time>
<desc><![CDATA[lat.=36.679123, lon.=137.758823, Alt.=2493.546183m. Speed=1.000000m/h.]]></desc>
</trkpt>
<trkpt lat="36.679098" lon="137.758831">
<ele>2490.617710</ele>
<time>2014-08-17T03:03:02Z</time>
<desc><![CDATA[lat.=36.679098, lon.=137.758831, Alt.=2490.617710m. Speed=2.000000m/h.]]></desc>
</trkpt>
<trkpt lat="36.679068" lon="137.758846">
<ele>2490.013180</ele>
<time>2014-08-17T03:03:07Z</time>
<desc><![CDATA[lat.=36.679068, lon.=137.758846, Alt.=2490.013180m. Speed=2.000000m/h.]]></desc>
</trkpt>
<trkpt lat="36.679064" lon="137.758853">
<ele>2492.337122</ele>
<time>2014-08-17T03:03:12Z</time>
<desc><![CDATA[lat.=36.679064, lon.=137.758853, Alt.=2492.337122m. Speed=0.000000m/h.]]></desc>
</trkpt>
<trkpt lat="36.679071" lon="137.758853">
<ele>2492.934454</ele>
<time>2014-08-17T03:03:17Z</time>
<desc><![CDATA[lat.=36.679071, lon.=137.758853, Alt.=2492.934454m. Speed=0.000000m/h.]]></desc>
</trkpt>
<trkpt lat="36.679053" lon="137.758860">
<ele>2492.333523</ele>
<time>2014-08-17T03:03:22Z</time>
<desc><![CDATA[lat.=36.679053, lon.=137.758860, Alt.=2492.333523m. Speed=0.000000m/h.]]></desc>
</trkpt>
<trkpt lat="36.679026" lon="137.758898">
<ele>2492.974654</ele>
<time>2014-08-17T03:03:27Z</time>
<desc><![CDATA[lat.=36.679026, lon.=137.758898, Alt.=2492.974654m. Speed=3.000000m/h.]]></desc>
</trkpt>
<trkpt lat="36.679007" lon="137.758938">
<ele>2492.482912</ele>
<time>2014-08-17T03:03:32Z</time>
<desc><![CDATA[lat.=36.679007, lon.=137.758938, Alt.=2492.482912m. Speed=3.000000m/h.]]></desc>
</trkpt>
<trkpt lat="36.678979" lon="137.759008">
<ele>2491.503029</ele>
<time>2014-08-17T03:03:37Z</time>
<desc><![CDATA[lat.=36.678979, lon.=137.759008, Alt.=2491.503029m. Speed=4.000000m/h.]]></desc>
</trkpt>
<trkpt lat="36.678986" lon="137.759024">
<ele>2492.154955</ele>
<time>2014-08-17T03:03:42Z</time>
<desc><![CDATA[lat.=36.678986, lon.=137.759024, Alt.=2492.154955m. Speed=0.000000m/h.]]></desc>
</trkpt>
<trkpt lat="36.678990" lon="137.759017">
<ele>2491.561219</ele>
<time>2014-08-17T03:03:47Z</time>
<desc><![CDATA[lat.=36.678990, lon.=137.759017, Alt.=2491.561219m. Speed=0.000000m/h.]]></desc>
</trkpt>
<trkpt lat="36.678961" lon="137.759032">
<ele>2490.956698</ele>
<time>2014-08-17T03:03:52Z</time>
<desc><![CDATA[lat.=36.678961, lon.=137.759032, Alt.=2490.956698m. Speed=2.000000m/h.]]></desc>
</trkpt>
<trkpt lat="36.678917" lon="137.759015">
<ele>2489.048329</ele>
<time>2014-08-17T03:03:57Z</time>
<desc><![CDATA[lat.=36.678917, lon.=137.759015, Alt.=2489.048329m. Speed=3.000000m/h.]]></desc>
</trkpt>
<trkpt lat="36.678896" lon="137.759015">
<ele>2487.256340</ele>
<time>2014-08-17T03:04:02Z</time>
<desc><![CDATA[lat.=36.678896, lon.=137.759015, Alt.=2487.256340m. Speed=2.000000m/h.]]></desc>
</trkpt>
<trkpt lat="36.678874" lon="137.759015">
<ele>2485.464351</ele>
<time>2014-08-17T03:04:07Z</time>
<desc><![CDATA[lat.=36.678874, lon.=137.759015, Alt.=2485.464351m. Speed=2.000000m/h.]]></desc>
</trkpt>
<trkpt lat="36.678818" lon="137.759020">
<ele>2487.067409</ele>
<time>2014-08-17T03:04:12Z</time>
<desc><![CDATA[lat.=36.678818, lon.=137.759020, Alt.=2487.067409m. Speed=3.000000m/h.]]></desc>
</trkpt>
<trkpt lat="36.678774" lon="137.759019">
<ele>2486.943855</ele>
<time>2014-08-17T03:04:17Z</time>
<desc><![CDATA[lat.=36.678774, lon.=137.759019, Alt.=2486.943855m. Speed=3.000000m/h.]]></desc>
</trkpt>
<trkpt lat="36.678742" lon="137.759010">
<ele>2485.093687</ele>
<time>2014-08-17T03:04:22Z</time>
<desc><![CDATA[lat.=36.678742, lon.=137.759010, Alt.=2485.093687m. Speed=3.000000m/h.]]></desc>
</trkpt>
<trkpt lat="36.678712" lon="137.759010">
<ele>2484.434585</ele>
<time>2014-08-17T03:04:27Z</time>
<desc><![CDATA[lat.=36.678712, lon.=137.759010, Alt.=2484.434585m. Speed=3.000000m/h.]]></desc>
</trkpt>
<trkpt lat="36.678673" lon="137.759001">
<ele>2481.987094</ele>
<time>2014-08-17T03:04:32Z</time>
<desc><![CDATA[lat.=36.678673, lon.=137.759001, Alt.=2481.987094m. Speed=3.000000m/h.]]></desc>
</trkpt>
<trkpt lat="36.678678" lon="137.758963">
<ele>2479.553959</ele>
<time>2014-08-17T03:04:37Z</time>
<desc><![CDATA[lat.=36.678678, lon.=137.758963, Alt.=2479.553959m. Speed=2.000000m/h.]]></desc>
</trkpt>
<trkpt lat="36.678659" lon="137.758986">
<ele>2480.737847</ele>
<time>2014-08-17T03:04:42Z</time>
<desc><![CDATA[lat.=36.678659, lon.=137.758986, Alt.=2480.737847m. Speed=2.000000m/h.]]></desc>
</trkpt>
<trkpt lat="36.678618" lon="137.759008">
<ele>2480.129757</ele>
<time>2014-08-17T03:04:47Z</time>
<desc><![CDATA[lat.=36.678618, lon.=137.759008, Alt.=2480.129757m. Speed=3.000000m/h.]]></desc>
</trkpt>
<trkpt lat="36.678601" lon="137.758970">
<ele>2475.904644</ele>
<time>2014-08-17T03:04:52Z</time>
<desc><![CDATA[lat.=36.678601, lon.=137.758970, Alt.=2475.904644m. Speed=3.000000m/h.]]></desc>
</trkpt>
<trkpt lat="36.678617" lon="137.758940">
<ele>2473.529691</ele>
<time>2014-08-17T03:04:57Z</time>
<desc><![CDATA[lat.=36.678617, lon.=137.758940, Alt.=2473.529691m. Speed=2.000000m/h.]]></desc>
</trkpt>
<trkpt lat="36.678595" lon="137.758955">
<ele>2473.522516</ele>
<time>2014-08-17T03:05:02Z</time>
<desc><![CDATA[lat.=36.678595, lon.=137.758955, Alt.=2473.522516m. Speed=2.000000m/h.]]></desc>
</trkpt>
<trkpt lat="36.678565" lon="137.758970">
<ele>2472.918017</ele>
<time>2014-08-17T03:05:07Z</time>
<desc><![CDATA[lat.=36.678565, lon.=137.758970, Alt.=2472.918017m. Speed=2.000000m/h.]]></desc>
</trkpt>
<trkpt lat="36.678559" lon="137.758922">
<ele>2472.156911</ele>
<time>2014-08-17T03:05:12Z</time>
<desc><![CDATA[lat.=36.678559, lon.=137.758922, Alt.=2472.156911m. Speed=3.000000m/h.]]></desc>
</trkpt>
<trkpt lat="36.678533" lon="137.758913">
<ele>2472.634290</ele>
<time>2014-08-17T03:05:17Z</time>
<desc><![CDATA[lat.=36.678533, lon.=137.758913, Alt.=2472.634290m. Speed=2.000000m/h.]]></desc>
</trkpt>
<trkpt lat="36.678496" lon="137.758928">
<ele>2471.432470</ele>
<time>2014-08-17T03:05:22Z</time>
<desc><![CDATA[lat.=36.678496, lon.=137.758928, Alt.=2471.432470m. Speed=2.000000m/h.]]></desc>
</trkpt>
<trkpt lat="36.678480" lon="137.758874">
<ele>2468.882981</ele>
<time>2014-08-17T03:05:27Z</time>
<desc><![CDATA[lat.=36.678480, lon.=137.758874, Alt.=2468.882981m. Speed=3.000000m/h.]]></desc>
</trkpt>
<trkpt lat="36.678492" lon="137.758851">
<ele>2467.101766</ele>
<time>2014-08-17T03:05:32Z</time>
<desc><![CDATA[lat.=36.678492, lon.=137.758851, Alt.=2467.101766m. Speed=2.000000m/h.]]></desc>
</trkpt>
<trkpt lat="36.678492" lon="137.758852">
<ele>2465.371557</ele>
<time>2014-08-17T03:05:37Z</time>
<desc><![CDATA[lat.=36.678492, lon.=137.758852, Alt.=2465.371557m. Speed=0.000000m/h.]]></desc>
</trkpt>
<trkpt lat="36.678478" lon="137.758852">
<ele>2464.176909</ele>
<time>2014-08-17T03:05:42Z</time>
<desc><![CDATA[lat.=36.678478, lon.=137.758852, Alt.=2464.176909m. Speed=2.000000m/h.]]></desc>
</trkpt>
<trkpt lat="36.678449" lon="137.758835">
<ele>2463.463231</ele>
<time>2014-08-17T03:05:47Z</time>
<desc><![CDATA[lat.=36.678449, lon.=137.758835, Alt.=2463.463231m. Speed=2.000000m/h.]]></desc>
</trkpt>
<trkpt lat="36.678412" lon="137.758818">
<ele>2463.882441</ele>
<time>2014-08-17T03:05:52Z</time>
<desc><![CDATA[lat.=36.678412, lon.=137.758818, Alt.=2463.882441m. Speed=2.000000m/h.]]></desc>
</trkpt>
<trkpt lat="36.678409" lon="137.758843">
<ele>2461.070354</ele>
<time>2014-08-17T03:05:57Z</time>
<desc><![CDATA[lat.=36.678409, lon.=137.758843, Alt.=2461.070354m. Speed=2.000000m/h.]]></desc>
</trkpt>
<trkpt lat="36.678383" lon="137.758834">
<ele>2459.817532</ele>
<time>2014-08-17T03:06:02Z</time>
<desc><![CDATA[lat.=36.678383, lon.=137.758834, Alt.=2459.817532m. Speed=2.000000m/h.]]></desc>
</trkpt>
<trkpt lat="36.678359" lon="137.758795">
<ele>2458.455530</ele>
<time>2014-08-17T03:06:07Z</time>
<desc><![CDATA[lat.=36.678359, lon.=137.758795, Alt.=2458.455530m. Speed=2.000000m/h.]]></desc>
</trkpt>
<trkpt lat="36.678352" lon="137.758780">
<ele>2456.073409</ele>
<time>2014-08-17T03:06:12Z</time>
<desc><![CDATA[lat.=36.678352, lon.=137.758780, Alt.=2456.073409m. Speed=2.000000m/h.]]></desc>
</trkpt>
<trkpt lat="36.678364" lon="137.758756">
<ele>2456.022402</ele>
<time>2014-08-17T03:06:17Z</time>
<desc><![CDATA[lat.=36.678364, lon.=137.758756, Alt.=2456.022402m. Speed=2.000000m/h.]]></desc>
</trkpt>
<trkpt lat="36.678353" lon="137.758764">
<ele>2454.288610</ele>
<time>2014-08-17T03:06:22Z</time>
<desc><![CDATA[lat.=36.678353, lon.=137.758764, Alt.=2454.288610m. Speed=1.000000m/h.]]></desc>
</trkpt>
<trkpt lat="36.678331" lon="137.758780">
<ele>2452.551234</ele>
<time>2014-08-17T03:06:27Z</time>
<desc><![CDATA[lat.=36.678331, lon.=137.758780, Alt.=2452.551234m. Speed=2.000000m/h.]]></desc>
</trkpt>
<trkpt lat="36.678317" lon="137.758781">
<ele>2449.626381</ele>
<time>2014-08-17T03:06:32Z</time>
<desc><![CDATA[lat.=36.678317, lon.=137.758781, Alt.=2449.626381m. Speed=1.000000m/h.]]></desc>
</trkpt>
<trkpt lat="36.678299" lon="137.758774">
<ele>2447.240678</ele>
<time>2014-08-17T03:06:37Z</time>
<desc><![CDATA[lat.=36.678299, lon.=137.758774, Alt.=2447.240678m. Speed=1.000000m/h.]]></desc>
</trkpt>
<trkpt lat="36.678270" lon="137.758789">
<ele>2444.905983</ele>
<time>2014-08-17T03:06:42Z</time>
<desc><![CDATA[lat.=36.678270, lon.=137.758789, Alt.=2444.905983m. Speed=1.000000m/h.]]></desc>
</trkpt>
<trkpt lat="36.678248" lon="137.758805">
<ele>2443.168612</ele>
<time>2014-08-17T03:06:47Z</time>
<desc><![CDATA[lat.=36.678248, lon.=137.758805, Alt.=2443.168612m. Speed=2.000000m/h.]]></desc>
</trkpt>
<trkpt lat="36.678218" lon="137.758836">
<ele>2442.618721</ele>
<time>2014-08-17T03:06:52Z</time>
<desc><![CDATA[lat.=36.678218, lon.=137.758836, Alt.=2442.618721m. Speed=2.000000m/h.]]></desc>
</trkpt>
<trkpt lat="36.678204" lon="137.758804">
<ele>2443.045107</ele>
<time>2014-08-17T03:06:57Z</time>
<desc><![CDATA[lat.=36.678204, lon.=137.758804, Alt.=2443.045107m. Speed=2.000000m/h.]]></desc>
</trkpt>
<trkpt lat="36.678197" lon="137.758788">
<ele>2442.393196</ele>
<time>2014-08-17T03:07:02Z</time>
<desc><![CDATA[lat.=36.678197, lon.=137.758788, Alt.=2442.393196m. Speed=1.000000m/h.]]></desc>
</trkpt>
<trkpt lat="36.678201" lon="137.758796">
<ele>2441.854047</ele>
<time>2014-08-17T03:07:07Z</time>
<desc><![CDATA[lat.=36.678201, lon.=137.758796, Alt.=2441.854047m. Speed=0.000000m/h.]]></desc>
</trkpt>
<trkpt lat="36.678175" lon="137.758804">
<ele>2440.655828</ele>
<time>2014-08-17T03:07:12Z</time>
<desc><![CDATA[lat.=36.678175, lon.=137.758804, Alt.=2440.655828m. Speed=3.000000m/h.]]></desc>
</trkpt>
<trkpt lat="36.678187" lon="137.758765">
<ele>2438.820017</ele>
<time>2014-08-17T03:07:17Z</time>
<desc><![CDATA[lat.=36.678187, lon.=137.758765, Alt.=2438.820017m. Speed=3.000000m/h.]]></desc>
</trkpt>
<trkpt lat="36.678166" lon="137.758733">
<ele>2438.649087</ele>
<time>2014-08-17T03:07:22Z</time>
<desc><![CDATA[lat.=36.678166, lon.=137.758733, Alt.=2438.649087m. Speed=2.000000m/h.]]></desc>
</trkpt>
<trkpt lat="36.678132" lon="137.758755">
<ele>2438.638348</ele>
<time>2014-08-17T03:07:27Z</time>
<desc><![CDATA[lat.=36.678132, lon.=137.758755, Alt.=2438.638348m. Speed=3.000000m/h.]]></desc>
</trkpt>
<trkpt lat="36.678091" lon="137.758778">
<ele>2438.030294</ele>
<time>2014-08-17T03:07:32Z</time>
<desc><![CDATA[lat.=36.678091, lon.=137.758778, Alt.=2438.030294m. Speed=3.000000m/h.]]></desc>
</trkpt>
<trkpt lat="36.678068" lon="137.758825">
<ele>2438.132321</ele>
<time>2014-08-17T03:07:37Z</time>
<desc><![CDATA[lat.=36.678068, lon.=137.758825, Alt.=2438.132321m. Speed=3.000000m/h.]]></desc>
</trkpt>
<trkpt lat="36.678040" lon="137.758793">
<ele>2435.633867</ele>
<time>2014-08-17T03:07:42Z</time>
<desc><![CDATA[lat.=36.678040, lon.=137.758793, Alt.=2435.633867m. Speed=4.000000m/h.]]></desc>
</trkpt>
<trkpt lat="36.678016" lon="137.758737">
<ele>2434.217293</ele>
<time>2014-08-17T03:07:47Z</time>
<desc><![CDATA[lat.=36.678016, lon.=137.758737, Alt.=2434.217293m. Speed=4.000000m/h.]]></desc>
</trkpt>
<trkpt lat="36.678002" lon="137.758722">
<ele>2431.237860</ele>
<time>2014-08-17T03:07:52Z</time>
<desc><![CDATA[lat.=36.678002, lon.=137.758722, Alt.=2431.237860m. Speed=3.000000m/h.]]></desc>
</trkpt>
<trkpt lat="36.677980" lon="137.758770">
<ele>2429.609678</ele>
<time>2014-08-17T03:07:57Z</time>
<desc><![CDATA[lat.=36.677980, lon.=137.758770, Alt.=2429.609678m. Speed=3.000000m/h.]]></desc>
</trkpt>
<trkpt lat="36.677951" lon="137.758738">
<ele>2427.111231</ele>
<time>2014-08-17T03:08:02Z</time>
<desc><![CDATA[lat.=36.677951, lon.=137.758738, Alt.=2427.111231m. Speed=3.000000m/h.]]></desc>
</trkpt>
<trkpt lat="36.677940" lon="137.758761">
<ele>2427.162246</ele>
<time>2014-08-17T03:08:07Z</time>
<desc><![CDATA[lat.=36.677940, lon.=137.758761, Alt.=2427.162246m. Speed=3.000000m/h.]]></desc>
</trkpt>
<trkpt lat="36.677922" lon="137.758754">
<ele>2424.776556</ele>
<time>2014-08-17T03:08:12Z</time>
<desc><![CDATA[lat.=36.677922, lon.=137.758754, Alt.=2424.776556m. Speed=4.000000m/h.]]></desc>
</trkpt>
<trkpt lat="36.677904" lon="137.758746">
<ele>2424.121075</ele>
<time>2014-08-17T03:08:17Z</time>
<desc><![CDATA[lat.=36.677904, lon.=137.758746, Alt.=2424.121075m. Speed=3.000000m/h.]]></desc>
</trkpt>
<trkpt lat="36.677866" lon="137.758792">
<ele>2424.758687</ele>
<time>2014-08-17T03:08:22Z</time>
<desc><![CDATA[lat.=36.677866, lon.=137.758792, Alt.=2424.758687m. Speed=4.000000m/h.]]></desc>
</trkpt>
<trkpt lat="36.677837" lon="137.758775">
<ele>2424.045045</ele>
<time>2014-08-17T03:08:27Z</time>
<desc><![CDATA[lat.=36.677837, lon.=137.758775, Alt.=2424.045045m. Speed=3.000000m/h.]]></desc>
</trkpt>
<trkpt lat="36.677826" lon="137.758815">
<ele>2422.420446</ele>
<time>2014-08-17T03:08:32Z</time>
<desc><![CDATA[lat.=36.677826, lon.=137.758815, Alt.=2422.420446m. Speed=3.000000m/h.]]></desc>
</trkpt>
<trkpt lat="36.677808" lon="137.758823">
<ele>2420.089350</ele>
<time>2014-08-17T03:08:37Z</time>
<desc><![CDATA[lat.=36.677808, lon.=137.758823, Alt.=2420.089350m. Speed=3.000000m/h.]]></desc>
</trkpt>
<trkpt lat="36.677778" lon="137.758854">
<ele>2419.539486</ele>
<time>2014-08-17T03:08:42Z</time>
<desc><![CDATA[lat.=36.677778, lon.=137.758854, Alt.=2419.539486m. Speed=3.000000m/h.]]></desc>
</trkpt>
<trkpt lat="36.677723" lon="137.758861">
<ele>2417.682243</ele>
<time>2014-08-17T03:08:47Z</time>
<desc><![CDATA[lat.=36.677723, lon.=137.758861, Alt.=2417.682243m. Speed=4.000000m/h.]]></desc>
</trkpt>
<trkpt lat="36.677696" lon="137.758900">
<ele>2416.593234</ele>
<time>2014-08-17T03:08:52Z</time>
<desc><![CDATA[lat.=36.677696, lon.=137.758900, Alt.=2416.593234m. Speed=4.000000m/h.]]></desc>
</trkpt>
<trkpt lat="36.677666" lon="137.758946">
<ele>2416.097973</ele>
<time>2014-08-17T03:08:57Z</time>
<desc><![CDATA[lat.=36.677666, lon.=137.758946, Alt.=2416.097973m. Speed=4.000000m/h.]]></desc>
</trkpt>
<trkpt lat="36.677620" lon="137.759008">
<ele>2416.192898</ele>
<time>2014-08-17T03:09:02Z</time>
<desc><![CDATA[lat.=36.677620, lon.=137.759008, Alt.=2416.192898m. Speed=4.000000m/h.]]></desc>
</trkpt>
<trkpt lat="36.677566" lon="137.758983">
<ele>2414.226482</ele>
<time>2014-08-17T03:09:07Z</time>
<desc><![CDATA[lat.=36.677566, lon.=137.758983, Alt.=2414.226482m. Speed=5.000000m/h.]]></desc>
</trkpt>
<trkpt lat="36.677515" lon="137.758982">
<ele>2413.505725</ele>
<time>2014-08-17T03:09:12Z</time>
<desc><![CDATA[lat.=36.677515, lon.=137.758982, Alt.=2413.505725m. Speed=4.000000m/h.]]></desc>
</trkpt>
<trkpt lat="36.677453" lon="137.758989">
<ele>2411.051201</ele>
<time>2014-08-17T03:09:17Z</time>
<desc><![CDATA[lat.=36.677453, lon.=137.758989, Alt.=2411.051201m. Speed=5.000000m/h.]]></desc>
</trkpt>
<trkpt lat="36.677390" lon="137.758994">
<ele>2412.057104</ele>
<time>2014-08-17T03:09:22Z</time>
<desc><![CDATA[lat.=36.677390, lon.=137.758994, Alt.=2412.057104m. Speed=5.000000m/h.]]></desc>
</trkpt>
<trkpt lat="36.677334" lon="137.759031">
<ele>2412.039305</ele>
<time>2014-08-17T03:09:27Z</time>
<desc><![CDATA[lat.=36.677334, lon.=137.759031, Alt.=2412.039305m. Speed=5.000000m/h.]]></desc>
</trkpt>
<trkpt lat="36.677267" lon="137.759044">
<ele>2413.638972</ele>
<time>2014-08-17T03:09:32Z</time>
<desc><![CDATA[lat.=36.677267, lon.=137.759044, Alt.=2413.638972m. Speed=5.000000m/h.]]></desc>
</trkpt>
<trkpt lat="36.677193" lon="137.759041">
<ele>2414.586745</ele>
<time>2014-08-17T03:09:37Z</time>
<desc><![CDATA[lat.=36.677193, lon.=137.759041, Alt.=2414.586745m. Speed=5.000000m/h.]]></desc>
</trkpt>
<trkpt lat="36.677142" lon="137.759040">
<ele>2413.866025</ele>
<time>2014-08-17T03:09:42Z</time>
<desc><![CDATA[lat.=36.677142, lon.=137.759040, Alt.=2413.866025m. Speed=5.000000m/h.]]></desc>
</trkpt>
<trkpt lat="36.677106" lon="137.759023">
<ele>2412.555113</ele>
<time>2014-08-17T03:09:47Z</time>
<desc><![CDATA[lat.=36.677106, lon.=137.759023, Alt.=2412.555113m. Speed=4.000000m/h.]]></desc>
</trkpt>
<trkpt lat="36.677103" lon="137.758968">
<ele>2411.200271</ele>
<time>2014-08-17T03:09:52Z</time>
<desc><![CDATA[lat.=36.677103, lon.=137.758968, Alt.=2411.200271m. Speed=4.000000m/h.]]></desc>
</trkpt>
<trkpt lat="36.677078" lon="137.758960">
<ele>2409.947513</ele>
<time>2014-08-17T03:09:57Z</time>
<desc><![CDATA[lat.=36.677078, lon.=137.758960, Alt.=2409.947513m. Speed=3.000000m/h.]]></desc>
</trkpt>
<trkpt lat="36.677037" lon="137.758999">
<ele>2407.663934</ele>
<time>2014-08-17T03:10:02Z</time>
<desc><![CDATA[lat.=36.677037, lon.=137.758999, Alt.=2407.663934m. Speed=3.000000m/h.]]></desc>
</trkpt>
<trkpt lat="36.677013" lon="137.758976">
<ele>2404.626373</ele>
<time>2014-08-17T03:10:07Z</time>
<desc><![CDATA[lat.=36.677013, lon.=137.758976, Alt.=2404.626373m. Speed=3.000000m/h.]]></desc>
</trkpt>
<trkpt lat="36.677025" lon="137.758921">
<ele>2404.466142</ele>
<time>2014-08-17T03:10:12Z</time>
<desc><![CDATA[lat.=36.677025, lon.=137.758921, Alt.=2404.466142m. Speed=3.000000m/h.]]></desc>
</trkpt>
<trkpt lat="36.677011" lon="137.758904">
<ele>2404.947151</ele>
<time>2014-08-17T03:10:17Z</time>
<desc><![CDATA[lat.=36.677011, lon.=137.758904, Alt.=2404.947151m. Speed=2.000000m/h.]]></desc>
</trkpt>
<trkpt lat="36.676978" lon="137.758879">
<ele>2404.772711</ele>
<time>2014-08-17T03:10:22Z</time>
<desc><![CDATA[lat.=36.676978, lon.=137.758879, Alt.=2404.772711m. Speed=2.000000m/h.]]></desc>
</trkpt>
<trkpt lat="36.676960" lon="137.758855">
<ele>2404.062669</ele>
<time>2014-08-17T03:10:27Z</time>
<desc><![CDATA[lat.=36.676960, lon.=137.758855, Alt.=2404.062669m. Speed=2.000000m/h.]]></desc>
</trkpt>
<trkpt lat="36.676931" lon="137.758839">
<ele>2403.349076</ele>
<time>2014-08-17T03:10:32Z</time>
<desc><![CDATA[lat.=36.676931, lon.=137.758839, Alt.=2403.349076m. Speed=3.000000m/h.]]></desc>
</trkpt>
<trkpt lat="36.676884" lon="137.758813">
<ele>2403.710249</ele>
<time>2014-08-17T03:10:37Z</time>
<desc><![CDATA[lat.=36.676884, lon.=137.758813, Alt.=2403.710249m. Speed=4.000000m/h.]]></desc>
</trkpt>
<trkpt lat="36.676863" lon="137.758797">
<ele>2401.863753</ele>
<time>2014-08-17T03:10:42Z</time>
<desc><![CDATA[lat.=36.676863, lon.=137.758797, Alt.=2401.863753m. Speed=3.000000m/h.]]></desc>
</trkpt>
<trkpt lat="36.676830" lon="137.758789">
<ele>2400.013707</ele>
<time>2014-08-17T03:10:47Z</time>
<desc><![CDATA[lat.=36.676830, lon.=137.758789, Alt.=2400.013707m. Speed=3.000000m/h.]]></desc>
</trkpt>
<trkpt lat="36.676801" lon="137.758772">
<ele>2399.300123</ele>
<time>2014-08-17T03:10:52Z</time>
<desc><![CDATA[lat.=36.676801, lon.=137.758772, Alt.=2399.300123m. Speed=3.000000m/h.]]></desc>
</trkpt>
<trkpt lat="36.676795" lon="137.758757">
<ele>2396.918021</ele>
<time>2014-08-17T03:10:57Z</time>
<desc><![CDATA[lat.=36.676795, lon.=137.758757, Alt.=2396.918021m. Speed=2.000000m/h.]]></desc>
</trkpt>
<trkpt lat="36.676774" lon="137.758725">
<ele>2396.747149</ele>
<time>2014-08-17T03:11:02Z</time>
<desc><![CDATA[lat.=36.676774, lon.=137.758725, Alt.=2396.747149m. Speed=2.000000m/h.]]></desc>
</trkpt>
<trkpt lat="36.676737" lon="137.758692">
<ele>2397.111890</ele>
<time>2014-08-17T03:11:07Z</time>
<desc><![CDATA[lat.=36.676737, lon.=137.758692, Alt.=2397.111890m. Speed=3.000000m/h.]]></desc>
</trkpt>
<trkpt lat="36.676709" lon="137.758644">
<ele>2396.289134</ele>
<time>2014-08-17T03:11:12Z</time>
<desc><![CDATA[lat.=36.676709, lon.=137.758644, Alt.=2396.289134m. Speed=3.000000m/h.]]></desc>
</trkpt>
<trkpt lat="36.676669" lon="137.758618">
<ele>2397.247633</ele>
<time>2014-08-17T03:11:17Z</time>
<desc><![CDATA[lat.=36.676669, lon.=137.758618, Alt.=2397.247633m. Speed=4.000000m/h.]]></desc>
</trkpt>
<trkpt lat="36.676630" lon="137.758561">
<ele>2398.096960</ele>
<time>2014-08-17T03:11:22Z</time>
<desc><![CDATA[lat.=36.676630, lon.=137.758561, Alt.=2398.096960m. Speed=5.000000m/h.]]></desc>
</trkpt>
<trkpt lat="36.676582" lon="137.758552">
<ele>2396.782547</ele>
<time>2014-08-17T03:11:27Z</time>
<desc><![CDATA[lat.=36.676582, lon.=137.758552, Alt.=2396.782547m. Speed=5.000000m/h.]]></desc>
</trkpt>
<trkpt lat="36.676531" lon="137.758518">
<ele>2397.682925</ele>
<time>2014-08-17T03:11:32Z</time>
<desc><![CDATA[lat.=36.676531, lon.=137.758518, Alt.=2397.682925m. Speed=5.000000m/h.]]></desc>
</trkpt>
<trkpt lat="36.676458" lon="137.758483">
<ele>2398.521633</ele>
<time>2014-08-17T03:11:37Z</time>
<desc><![CDATA[lat.=36.676458, lon.=137.758483, Alt.=2398.521633m. Speed=5.000000m/h.]]></desc>
</trkpt>
<trkpt lat="36.676415" lon="137.758450">
<ele>2398.289111</ele>
<time>2014-08-17T03:11:42Z</time>
<desc><![CDATA[lat.=36.676415, lon.=137.758450, Alt.=2398.289111m. Speed=4.000000m/h.]]></desc>
</trkpt>
<trkpt lat="36.676390" lon="137.758426">
<ele>2396.981806</ele>
<time>2014-08-17T03:11:47Z</time>
<desc><![CDATA[lat.=36.676390, lon.=137.758426, Alt.=2396.981806m. Speed=4.000000m/h.]]></desc>
</trkpt>
<trkpt lat="36.676357" lon="137.758417">
<ele>2396.862005</ele>
<time>2014-08-17T03:11:52Z</time>
<desc><![CDATA[lat.=36.676357, lon.=137.758417, Alt.=2396.862005m. Speed=4.000000m/h.]]></desc>
</trkpt>
<trkpt lat="36.676317" lon="137.758392">
<ele>2396.090327</ele>
<time>2014-08-17T03:11:57Z</time>
<desc><![CDATA[lat.=36.676317, lon.=137.758392, Alt.=2396.090327m. Speed=3.000000m/h.]]></desc>
</trkpt>
<trkpt lat="36.676292" lon="137.758367">
<ele>2396.513240</ele>
<time>2014-08-17T03:12:02Z</time>
<desc><![CDATA[lat.=36.676292, lon.=137.758367, Alt.=2396.513240m. Speed=3.000000m/h.]]></desc>
</trkpt>
<trkpt lat="36.676282" lon="137.758360">
<ele>2394.724903</ele>
<time>2014-08-17T03:12:07Z</time>
<desc><![CDATA[lat.=36.676282, lon.=137.758360, Alt.=2394.724903m. Speed=2.000000m/h.]]></desc>
</trkpt>
<trkpt lat="36.676274" lon="137.758360">
<ele>2394.127610</ele>
<time>2014-08-17T03:12:12Z</time>
<desc><![CDATA[lat.=36.676274, lon.=137.758360, Alt.=2394.127610m. Speed=2.000000m/h.]]></desc>
</trkpt>
<trkpt lat="36.676245" lon="137.758358">
<ele>2395.198860</ele>
<time>2014-08-17T03:12:17Z</time>
<desc><![CDATA[lat.=36.676245, lon.=137.758358, Alt.=2395.198860m. Speed=2.000000m/h.]]></desc>
</trkpt>
<trkpt lat="36.676234" lon="137.758349">
<ele>2396.870946</ele>
<time>2014-08-17T03:12:22Z</time>
<desc><![CDATA[lat.=36.676234, lon.=137.758349, Alt.=2396.870946m. Speed=1.000000m/h.]]></desc>
</trkpt>
<trkpt lat="36.676236" lon="137.758356">
<ele>2399.792200</ele>
<time>2014-08-17T03:12:27Z</time>
<desc><![CDATA[lat.=36.676236, lon.=137.758356, Alt.=2399.792200m. Speed=1.000000m/h.]]></desc>
</trkpt>
<trkpt lat="36.676226" lon="137.758349">
<ele>2398.003864</ele>
<time>2014-08-17T03:12:32Z</time>
<desc><![CDATA[lat.=36.676226, lon.=137.758349, Alt.=2398.003864m. Speed=1.000000m/h.]]></desc>
</trkpt>
<trkpt lat="36.676208" lon="137.758325">
<ele>2397.293864</ele>
<time>2014-08-17T03:12:37Z</time>
<desc><![CDATA[lat.=36.676208, lon.=137.758325, Alt.=2397.293864m. Speed=1.000000m/h.]]></desc>
</trkpt>
<trkpt lat="36.676201" lon="137.758325">
<ele>2396.696572</ele>
<time>2014-08-17T03:12:42Z</time>
<desc><![CDATA[lat.=36.676201, lon.=137.758325, Alt.=2396.696572m. Speed=1.000000m/h.]]></desc>
</trkpt>
<trkpt lat="36.676194" lon="137.758325">
<ele>2396.099280</ele>
<time>2014-08-17T03:12:47Z</time>
<desc><![CDATA[lat.=36.676194, lon.=137.758325, Alt.=2396.099280m. Speed=1.000000m/h.]]></desc>
</trkpt>
<trkpt lat="36.676187" lon="137.758325">
<ele>2395.501988</ele>
<time>2014-08-17T03:12:52Z</time>
<desc><![CDATA[lat.=36.676187, lon.=137.758325, Alt.=2395.501988m. Speed=0.000000m/h.]]></desc>
</trkpt>
<trkpt lat="36.676172" lon="137.758308">
<ele>2395.983032</ele>
<time>2014-08-17T03:12:57Z</time>
<desc><![CDATA[lat.=36.676172, lon.=137.758308, Alt.=2395.983032m. Speed=0.000000m/h.]]></desc>
</trkpt>
<trkpt lat="36.676154" lon="137.758316">
<ele>2395.382201</ele>
<time>2014-08-17T03:13:02Z</time>
<desc><![CDATA[lat.=36.676154, lon.=137.758316, Alt.=2395.382201m. Speed=0.000000m/h.]]></desc>
</trkpt>
<trkpt lat="36.676146" lon="137.758315">
<ele>2396.515120</ele>
<time>2014-08-17T03:13:07Z</time>
<desc><![CDATA[lat.=36.676146, lon.=137.758315, Alt.=2396.515120m. Speed=1.000000m/h.]]></desc>
</trkpt>
<trkpt lat="36.676117" lon="137.758297">
<ele>2397.531795</ele>
<time>2014-08-17T03:13:12Z</time>
<desc><![CDATA[lat.=36.676117, lon.=137.758297, Alt.=2397.531795m. Speed=1.000000m/h.]]></desc>
</trkpt>
<trkpt lat="36.676098" lon="137.758288">
<ele>2398.606593</ele>
<time>2014-08-17T03:13:17Z</time>
<desc><![CDATA[lat.=36.676098, lon.=137.758288, Alt.=2398.606593m. Speed=1.000000m/h.]]></desc>
</trkpt>
<trkpt lat="36.676072" lon="137.758279">
<ele>2400.814313</ele>
<time>2014-08-17T03:13:22Z</time>
<desc><![CDATA[lat.=36.676072, lon.=137.758279, Alt.=2400.814313m. Speed=1.000000m/h.]]></desc>
</trkpt>
<trkpt lat="36.676051" lon="137.758262">
<ele>2400.698072</ele>
<time>2014-08-17T03:13:27Z</time>
<desc><![CDATA[lat.=36.676051, lon.=137.758262, Alt.=2400.698072m. Speed=1.000000m/h.]]></desc>
</trkpt>
<trkpt lat="36.676047" lon="137.758254">
<ele>2401.237242</ele>
<time>2014-08-17T03:13:32Z</time>
<desc><![CDATA[lat.=36.676047, lon.=137.758254, Alt.=2401.237242m. Speed=1.000000m/h.]]></desc>
</trkpt>
<trkpt lat="36.676043" lon="137.758261">
<ele>2401.830993</ele>
<time>2014-08-17T03:13:37Z</time>
<desc><![CDATA[lat.=36.676043, lon.=137.758261, Alt.=2401.830993m. Speed=0.000000m/h.]]></desc>
</trkpt>
<trkpt lat="36.676042" lon="137.758276">
<ele>2403.615786</ele>
<time>2014-08-17T03:13:42Z</time>
<desc><![CDATA[lat.=36.676042, lon.=137.758276, Alt.=2403.615786m. Speed=0.000000m/h.]]></desc>
</trkpt>
<trkpt lat="36.676049" lon="137.758309">
<ele>2402.592030</ele>
<time>2014-08-17T03:13:47Z</time>
<desc><![CDATA[lat.=36.676049, lon.=137.758309, Alt.=2402.592030m. Speed=1.000000m/h.]]></desc>
</trkpt>
<trkpt lat="36.676035" lon="137.758309">
<ele>2401.397450</ele>
<time>2014-08-17T03:13:52Z</time>
<desc><![CDATA[lat.=36.676035, lon.=137.758309, Alt.=2401.397450m. Speed=2.000000m/h.]]></desc>
</trkpt>
<trkpt lat="36.676002" lon="137.758299">
<ele>2403.007884</ele>
<time>2014-08-17T03:13:57Z</time>
<desc><![CDATA[lat.=36.676002, lon.=137.758299, Alt.=2403.007884m. Speed=2.000000m/h.]]></desc>
</trkpt>
<trkpt lat="36.675991" lon="137.758291">
<ele>2402.949764</ele>
<time>2014-08-17T03:14:02Z</time>
<desc><![CDATA[lat.=36.675991, lon.=137.758291, Alt.=2402.949764m. Speed=1.000000m/h.]]></desc>
</trkpt>
<trkpt lat="36.675987" lon="137.758299">
<ele>2401.813305</ele>
<time>2014-08-17T03:14:07Z</time>
<desc><![CDATA[lat.=36.675987, lon.=137.758299, Alt.=2401.813305m. Speed=1.000000m/h.]]></desc>
</trkpt>
<trkpt lat="36.675954" lon="137.758289">
<ele>2403.423742</ele>
<time>2014-08-17T03:14:12Z</time>
<desc><![CDATA[lat.=36.675954, lon.=137.758289, Alt.=2403.423742m. Speed=2.000000m/h.]]></desc>
</trkpt>
<trkpt lat="36.675939" lon="137.758288">
<ele>2403.959376</ele>
<time>2014-08-17T03:14:17Z</time>
<desc><![CDATA[lat.=36.675939, lon.=137.758288, Alt.=2403.959376m. Speed=1.000000m/h.]]></desc>
</trkpt>
<trkpt lat="36.675924" lon="137.758304">
<ele>2402.819382</ele>
<time>2014-08-17T03:14:22Z</time>
<desc><![CDATA[lat.=36.675924, lon.=137.758304, Alt.=2402.819382m. Speed=1.000000m/h.]]></desc>
</trkpt>
<trkpt lat="36.675906" lon="137.758296">
<ele>2402.163976</ele>
<time>2014-08-17T03:14:27Z</time>
<desc><![CDATA[lat.=36.675906, lon.=137.758296, Alt.=2402.163976m. Speed=1.000000m/h.]]></desc>
</trkpt>
<trkpt lat="36.675887" lon="137.758285">
<ele>2406.699205</ele>
<time>2014-08-17T03:14:32Z</time>
<desc><![CDATA[lat.=36.675887, lon.=137.758285, Alt.=2406.699205m. Speed=0.000000m/h.]]></desc>
</trkpt>
<trkpt lat="36.675887" lon="137.758285">
<ele>2408.429416</ele>
<time>2014-08-17T03:14:37Z</time>
<desc><![CDATA[lat.=36.675887, lon.=137.758285, Alt.=2408.429416m. Speed=0.000000m/h.]]></desc>
</trkpt>
<trkpt lat="36.675879" lon="137.758284">
<ele>2409.562339</ele>
<time>2014-08-17T03:14:42Z</time>
<desc><![CDATA[lat.=36.675879, lon.=137.758284, Alt.=2409.562339m. Speed=0.000000m/h.]]></desc>
</trkpt>
<trkpt lat="36.675872" lon="137.758300">
<ele>2407.289423</ele>
<time>2014-08-17T03:14:47Z</time>
<desc><![CDATA[lat.=36.675872, lon.=137.758300, Alt.=2407.289423m. Speed=1.000000m/h.]]></desc>
</trkpt>
<trkpt lat="36.675857" lon="137.758315">
<ele>2407.879643</ele>
<time>2014-08-17T03:14:52Z</time>
<desc><![CDATA[lat.=36.675857, lon.=137.758315, Alt.=2407.879643m. Speed=1.000000m/h.]]></desc>
</trkpt>
<trkpt lat="36.675823" lon="137.758305">
<ele>2411.220299</ele>
<time>2014-08-17T03:14:57Z</time>
<desc><![CDATA[lat.=36.675823, lon.=137.758305, Alt.=2411.220299m. Speed=2.000000m/h.]]></desc>
</trkpt>
<trkpt lat="36.675808" lon="137.758321">
<ele>2410.080308</ele>
<time>2014-08-17T03:15:02Z</time>
<desc><![CDATA[lat.=36.675808, lon.=137.758321, Alt.=2410.080308m. Speed=2.000000m/h.]]></desc>
</trkpt>
<trkpt lat="36.675829" lon="137.758320">
<ele>2413.602380</ele>
<time>2014-08-17T03:15:07Z</time>
<desc><![CDATA[lat.=36.675829, lon.=137.758320, Alt.=2413.602380m. Speed=2.000000m/h.]]></desc>
</trkpt>
<trkpt lat="36.675836" lon="137.758352">
<ele>2412.578622</ele>
<time>2014-08-17T03:15:12Z</time>
<desc><![CDATA[lat.=36.675836, lon.=137.758352, Alt.=2412.578622m. Speed=2.000000m/h.]]></desc>
</trkpt>
<trkpt lat="36.675821" lon="137.758384">
<ele>2411.493217</ele>
<time>2014-08-17T03:15:17Z</time>
<desc><![CDATA[lat.=36.675821, lon.=137.758384, Alt.=2411.493217m. Speed=2.000000m/h.]]></desc>
</trkpt>
<trkpt lat="36.675799" lon="137.758416">
<ele>2408.080316</ele>
<time>2014-08-17T03:15:22Z</time>
<desc><![CDATA[lat.=36.675799, lon.=137.758416, Alt.=2408.080316m. Speed=2.000000m/h.]]></desc>
</trkpt>
<trkpt lat="36.675776" lon="137.758446">
<ele>2409.858050</ele>
<time>2014-08-17T03:15:27Z</time>
<desc><![CDATA[lat.=36.675776, lon.=137.758446, Alt.=2409.858050m. Speed=2.000000m/h.]]></desc>
</trkpt>
<trkpt lat="36.675745" lon="137.758476">
<ele>2412.768711</ele>
<time>2014-08-17T03:15:32Z</time>
<desc><![CDATA[lat.=36.675745, lon.=137.758476, Alt.=2412.768711m. Speed=3.000000m/h.]]></desc>
</trkpt>
<trkpt lat="36.675711" lon="137.758514">
<ele>2412.812710</ele>
<time>2014-08-17T03:15:37Z</time>
<desc><![CDATA[lat.=36.675711, lon.=137.758514, Alt.=2412.812710m. Speed=3.000000m/h.]]></desc>
</trkpt>
<trkpt lat="36.675674" lon="137.758545">
<ele>2409.935460</ele>
<time>2014-08-17T03:15:42Z</time>
<desc><![CDATA[lat.=36.675674, lon.=137.758545, Alt.=2409.935460m. Speed=3.000000m/h.]]></desc>
</trkpt>
<trkpt lat="36.675633" lon="137.758567">
<ele>2411.057806</ele>
<time>2014-08-17T03:15:47Z</time>
<desc><![CDATA[lat.=36.675633, lon.=137.758567, Alt.=2411.057806m. Speed=3.000000m/h.]]></desc>
</trkpt>
<trkpt lat="36.675613" lon="137.758606">
<ele>2412.296384</ele>
<time>2014-08-17T03:15:52Z</time>
<desc><![CDATA[lat.=36.675613, lon.=137.758606, Alt.=2412.296384m. Speed=3.000000m/h.]]></desc>
</trkpt>
<trkpt lat="36.675579" lon="137.758627">
<ele>2415.746230</ele>
<time>2014-08-17T03:15:57Z</time>
<desc><![CDATA[lat.=36.675579, lon.=137.758627, Alt.=2415.746230m. Speed=3.000000m/h.]]></desc>
</trkpt>
<trkpt lat="36.675557" lon="137.758658">
<ele>2414.063560</ele>
<time>2014-08-17T03:16:02Z</time>
<desc><![CDATA[lat.=36.675557, lon.=137.758658, Alt.=2414.063560m. Speed=3.000000m/h.]]></desc>
</trkpt>
<trkpt lat="36.675519" lon="137.758688">
<ele>2414.646749</ele>
<time>2014-08-17T03:16:07Z</time>
<desc><![CDATA[lat.=36.675519, lon.=137.758688, Alt.=2414.646749m. Speed=3.000000m/h.]]></desc>
</trkpt>
<trkpt lat="36.675496" lon="137.758718">
<ele>2416.424506</ele>
<time>2014-08-17T03:16:12Z</time>
<desc><![CDATA[lat.=36.675496, lon.=137.758718, Alt.=2416.424506m. Speed=3.000000m/h.]]></desc>
</trkpt>
<trkpt lat="36.675470" lon="137.758742">
<ele>2415.281011</ele>
<time>2014-08-17T03:16:17Z</time>
<desc><![CDATA[lat.=36.675470, lon.=137.758742, Alt.=2415.281011m. Speed=3.000000m/h.]]></desc>
</trkpt>
<trkpt lat="36.675454" lon="137.758788">
<ele>2415.980436</ele>
<time>2014-08-17T03:16:22Z</time>
<desc><![CDATA[lat.=36.675454, lon.=137.758788, Alt.=2415.980436m. Speed=3.000000m/h.]]></desc>
</trkpt>
<trkpt lat="36.675453" lon="137.758802">
<ele>2421.225661</ele>
<time>2014-08-17T03:16:27Z</time>
<desc><![CDATA[lat.=36.675453, lon.=137.758802, Alt.=2421.225661m. Speed=2.000000m/h.]]></desc>
</trkpt>
<trkpt lat="36.675436" lon="137.758831">
<ele>2425.330918</ele>
<time>2014-08-17T03:16:32Z</time>
<desc><![CDATA[lat.=36.675436, lon.=137.758831, Alt.=2425.330918m. Speed=2.000000m/h.]]></desc>
</trkpt>
<trkpt lat="36.675406" lon="137.758845">
<ele>2426.456809</ele>
<time>2014-08-17T03:16:37Z</time>
<desc><![CDATA[lat.=36.675406, lon.=137.758845, Alt.=2426.456809m. Speed=2.000000m/h.]]></desc>
</trkpt>
<trkpt lat="36.675391" lon="137.758861">
<ele>2425.316841</ele>
<time>2014-08-17T03:16:42Z</time>
<desc><![CDATA[lat.=36.675391, lon.=137.758861, Alt.=2425.316841m. Speed=2.000000m/h.]]></desc>
</trkpt>
<trkpt lat="36.675357" lon="137.758883">
<ele>2427.036498</ele>
<time>2014-08-17T03:16:47Z</time>
<desc><![CDATA[lat.=36.675357, lon.=137.758883, Alt.=2427.036498m. Speed=2.000000m/h.]]></desc>
</trkpt>
<trkpt lat="36.675343" lon="137.758882">
<ele>2427.572149</ele>
<time>2014-08-17T03:16:52Z</time>
<desc><![CDATA[lat.=36.675343, lon.=137.758882, Alt.=2427.572149m. Speed=2.000000m/h.]]></desc>
</trkpt>
<trkpt lat="36.675307" lon="137.758867">
<ele>2422.800944</ele>
<time>2014-08-17T03:16:57Z</time>
<desc><![CDATA[lat.=36.675307, lon.=137.758867, Alt.=2422.800944m. Speed=2.000000m/h.]]></desc>
</trkpt>
<trkpt lat="36.675308" lon="137.758819">
<ele>2424.367374</ele>
<time>2014-08-17T03:17:02Z</time>
<desc><![CDATA[lat.=36.675308, lon.=137.758819, Alt.=2424.367374m. Speed=2.000000m/h.]]></desc>
</trkpt>
<trkpt lat="36.675323" lon="137.758804">
<ele>2423.777129</ele>
<time>2014-08-17T03:17:07Z</time>
<desc><![CDATA[lat.=36.675323, lon.=137.758804, Alt.=2423.777129m. Speed=2.000000m/h.]]></desc>
</trkpt>
<trkpt lat="36.675335" lon="137.758765">
<ele>2423.671461</ele>
<time>2014-08-17T03:17:12Z</time>
<desc><![CDATA[lat.=36.675335, lon.=137.758765, Alt.=2423.671461m. Speed=2.000000m/h.]]></desc>
</trkpt>
<trkpt lat="36.675336" lon="137.758750">
<ele>2421.886658</ele>
<time>2014-08-17T03:17:17Z</time>
<desc><![CDATA[lat.=36.675336, lon.=137.758750, Alt.=2421.886658m. Speed=0.000000m/h.]]></desc>
</trkpt>
<trkpt lat="36.675322" lon="137.758751">
<ele>2418.961887</ele>
<time>2014-08-17T03:17:22Z</time>
<desc><![CDATA[lat.=36.675322, lon.=137.758751, Alt.=2418.961887m. Speed=1.000000m/h.]]></desc>
</trkpt>
<trkpt lat="36.675300" lon="137.758735">
<ele>2417.115456</ele>
<time>2014-08-17T03:17:27Z</time>
<desc><![CDATA[lat.=36.675300, lon.=137.758735, Alt.=2417.115456m. Speed=2.000000m/h.]]></desc>
</trkpt>
<trkpt lat="36.675268" lon="137.758742">
<ele>2415.320101</ele>
<time>2014-08-17T03:17:32Z</time>
<desc><![CDATA[lat.=36.675268, lon.=137.758742, Alt.=2415.320101m. Speed=1.000000m/h.]]></desc>
</trkpt>
<trkpt lat="36.675246" lon="137.758742">
<ele>2413.528265</ele>
<time>2014-08-17T03:17:37Z</time>
<desc><![CDATA[lat.=36.675246, lon.=137.758742, Alt.=2413.528265m. Speed=2.000000m/h.]]></desc>
</trkpt>
<trkpt lat="36.675216" lon="137.758773">
<ele>2412.978547</ele>
<time>2014-08-17T03:17:42Z</time>
<desc><![CDATA[lat.=36.675216, lon.=137.758773, Alt.=2412.978547m. Speed=2.000000m/h.]]></desc>
</trkpt>
<trkpt lat="36.675182" lon="137.758779">
<ele>2414.643620</ele>
<time>2014-08-17T03:17:47Z</time>
<desc><![CDATA[lat.=36.675182, lon.=137.758779, Alt.=2414.643620m. Speed=2.000000m/h.]]></desc>
</trkpt>
<trkpt lat="36.675183" lon="137.758747">
<ele>2416.264646</ele>
<time>2014-08-17T03:17:52Z</time>
<desc><![CDATA[lat.=36.675183, lon.=137.758747, Alt.=2416.264646m. Speed=2.000000m/h.]]></desc>
</trkpt>
<trkpt lat="36.675175" lon="137.758746">
<ele>2417.397580</ele>
<time>2014-08-17T03:17:57Z</time>
<desc><![CDATA[lat.=36.675175, lon.=137.758746, Alt.=2417.397580m. Speed=1.000000m/h.]]></desc>
</trkpt>
<trkpt lat="36.675182" lon="137.758746">
<ele>2417.994858</ele>
<time>2014-08-17T03:18:03Z</time>
<desc><![CDATA[lat.=36.675182, lon.=137.758746, Alt.=2417.994858m. Speed=0.000000m/h.]]></desc>
</trkpt>
<trkpt lat="36.675175" lon="137.758746">
<ele>2417.397580</ele>
<time>2014-08-17T03:18:08Z</time>
<desc><![CDATA[lat.=36.675175, lon.=137.758746, Alt.=2417.397580m. Speed=0.000000m/h.]]></desc>
</trkpt>
<trkpt lat="36.675182" lon="137.758746">
<ele>2417.994858</ele>
<time>2014-08-17T03:18:13Z</time>
<desc><![CDATA[lat.=36.675182, lon.=137.758746, Alt.=2417.994858m. Speed=0.000000m/h.]]></desc>
</trkpt>
<trkpt lat="36.675157" lon="137.758722">
<ele>2416.687604</ele>
<time>2014-08-17T03:18:18Z</time>
<desc><![CDATA[lat.=36.675157, lon.=137.758722, Alt.=2416.687604m. Speed=2.000000m/h.]]></desc>
</trkpt>
<trkpt lat="36.675154" lon="137.758714">
<ele>2417.226775</ele>
<time>2014-08-17T03:18:27Z</time>
<desc><![CDATA[lat.=36.675154, lon.=137.758714, Alt.=2417.226775m. Speed=1.000000m/h.]]></desc>
</trkpt>
<trkpt lat="36.675132" lon="137.758698">
<ele>2415.380352</ele>
<time>2014-08-17T03:18:32Z</time>
<desc><![CDATA[lat.=36.675132, lon.=137.758698, Alt.=2415.380352m. Speed=1.000000m/h.]]></desc>
</trkpt>
<trkpt lat="36.675132" lon="137.758697">
<ele>2417.110563</ele>
<time>2014-08-17T03:18:37Z</time>
<desc><![CDATA[lat.=36.675132, lon.=137.758697, Alt.=2417.110563m. Speed=0.000000m/h.]]></desc>
</trkpt>
<trkpt lat="36.675125" lon="137.758697">
<ele>2416.513286</ele>
<time>2014-08-17T03:18:42Z</time>
<desc><![CDATA[lat.=36.675125, lon.=137.758697, Alt.=2416.513286m. Speed=0.000000m/h.]]></desc>
</trkpt>
<trkpt lat="36.675121" lon="137.758689">
<ele>2417.052458</ele>
<time>2014-08-17T03:18:58Z</time>
<desc><![CDATA[lat.=36.675121, lon.=137.758689, Alt.=2417.052458m. Speed=0.000000m/h.]]></desc>
</trkpt>
<trkpt lat="36.675129" lon="137.758690">
<ele>2415.919524</ele>
<time>2014-08-17T03:19:27Z</time>
<desc><![CDATA[lat.=36.675129, lon.=137.758690, Alt.=2415.919524m. Speed=0.000000m/h.]]></desc>
</trkpt>
<trkpt lat="36.675121" lon="137.758689">
<ele>2417.052458</ele>
<time>2014-08-17T03:19:32Z</time>
<desc><![CDATA[lat.=36.675121, lon.=137.758689, Alt.=2417.052458m. Speed=0.000000m/h.]]></desc>
</trkpt>
<trkpt lat="36.675128" lon="137.758689">
<ele>2417.649735</ele>
<time>2014-08-17T03:19:40Z</time>
<desc><![CDATA[lat.=36.675128, lon.=137.758689, Alt.=2417.649735m. Speed=0.000000m/h.]]></desc>
</trkpt>
<trkpt lat="36.675125" lon="137.758697">
<ele>2416.513286</ele>
<time>2014-08-17T03:19:45Z</time>
<desc><![CDATA[lat.=36.675125, lon.=137.758697, Alt.=2416.513286m. Speed=0.000000m/h.]]></desc>
</trkpt>
<trkpt lat="36.675129" lon="137.758690">
<ele>2415.919524</ele>
<time>2014-08-17T03:19:50Z</time>
<desc><![CDATA[lat.=36.675129, lon.=137.758690, Alt.=2415.919524m. Speed=0.000000m/h.]]></desc>
</trkpt>
<trkpt lat="36.675136" lon="137.758690">
<ele>2416.516801</ele>
<time>2014-08-17T03:19:55Z</time>
<desc><![CDATA[lat.=36.675136, lon.=137.758690, Alt.=2416.516801m. Speed=0.000000m/h.]]></desc>
</trkpt>
<trkpt lat="36.675140" lon="137.758682">
<ele>2415.923038</ele>
<time>2014-08-17T03:20:03Z</time>
<desc><![CDATA[lat.=36.675140, lon.=137.758682, Alt.=2415.923038m. Speed=0.000000m/h.]]></desc>
</trkpt>
<trkpt lat="36.675144" lon="137.758675">
<ele>2415.329276</ele>
<time>2014-08-17T03:20:08Z</time>
<desc><![CDATA[lat.=36.675144, lon.=137.758675, Alt.=2415.329276m. Speed=0.000000m/h.]]></desc>
</trkpt>
<trkpt lat="36.675148" lon="137.758683">
<ele>2414.790104</ele>
<time>2014-08-17T03:20:13Z</time>
<desc><![CDATA[lat.=36.675148, lon.=137.758683, Alt.=2414.790104m. Speed=0.000000m/h.]]></desc>
</trkpt>
<trkpt lat="36.675151" lon="137.758675">
<ele>2415.926553</ele>
<time>2014-08-17T03:20:18Z</time>
<desc><![CDATA[lat.=36.675151, lon.=137.758675, Alt.=2415.926553m. Speed=0.000000m/h.]]></desc>
</trkpt>
<trkpt lat="36.675147" lon="137.758682">
<ele>2416.520315</ele>
<time>2014-08-17T03:20:27Z</time>
<desc><![CDATA[lat.=36.675147, lon.=137.758682, Alt.=2416.520315m. Speed=0.000000m/h.]]></desc>
</trkpt>
<trkpt lat="36.675140" lon="137.758682">
<ele>2415.923038</ele>
<time>2014-08-17T03:20:54Z</time>
<desc><![CDATA[lat.=36.675140, lon.=137.758682, Alt.=2415.923038m. Speed=1.000000m/h.]]></desc>
</trkpt>
<trkpt lat="36.675114" lon="137.758690">
<ele>2414.724970</ele>
<time>2014-08-17T03:20:59Z</time>
<desc><![CDATA[lat.=36.675114, lon.=137.758690, Alt.=2414.724970m. Speed=2.000000m/h.]]></desc>
</trkpt>
<trkpt lat="36.675078" lon="137.758672">
<ele>2415.144419</ele>
<time>2014-08-17T03:21:04Z</time>
<desc><![CDATA[lat.=36.675078, lon.=137.758672, Alt.=2415.144419m. Speed=2.000000m/h.]]></desc>
</trkpt>
<trkpt lat="36.675074" lon="137.758680">
<ele>2415.738181</ele>
<time>2014-08-17T03:21:09Z</time>
<desc><![CDATA[lat.=36.675074, lon.=137.758680, Alt.=2415.738181m. Speed=0.000000m/h.]]></desc>
</trkpt>
<trkpt lat="36.675071" lon="137.758672">
<ele>2414.547142</ele>
<time>2014-08-17T03:21:14Z</time>
<desc><![CDATA[lat.=36.675071, lon.=137.758672, Alt.=2414.547142m. Speed=1.000000m/h.]]></desc>
</trkpt>
<trkpt lat="36.675067" lon="137.758681">
<ele>2413.410694</ele>
<time>2014-08-17T03:21:19Z</time>
<desc><![CDATA[lat.=36.675067, lon.=137.758681, Alt.=2413.410694m. Speed=0.000000m/h.]]></desc>
</trkpt>
<trkpt lat="36.675056" lon="137.758673">
<ele>2411.622379</ele>
<time>2014-08-17T03:21:24Z</time>
<desc><![CDATA[lat.=36.675056, lon.=137.758673, Alt.=2411.622379m. Speed=1.000000m/h.]]></desc>
</trkpt>
<trkpt lat="36.675026" lon="137.758704">
<ele>2411.072669</ele>
<time>2014-08-17T03:21:29Z</time>
<desc><![CDATA[lat.=36.675026, lon.=137.758704, Alt.=2411.072669m. Speed=2.000000m/h.]]></desc>
</trkpt>
<trkpt lat="36.675012" lon="137.758720">
<ele>2408.202498</ele>
<time>2014-08-17T03:21:34Z</time>
<desc><![CDATA[lat.=36.675012, lon.=137.758720, Alt.=2408.202498m. Speed=1.000000m/h.]]></desc>
</trkpt>
<trkpt lat="36.675000" lon="137.758743">
<ele>2409.983790</ele>
<time>2014-08-17T03:21:39Z</time>
<desc><![CDATA[lat.=36.675000, lon.=137.758743, Alt.=2409.983790m. Speed=1.000000m/h.]]></desc>
</trkpt>
<trkpt lat="36.674978" lon="137.758758">
<ele>2409.976768</ele>
<time>2014-08-17T03:21:44Z</time>
<desc><![CDATA[lat.=36.674978, lon.=137.758758, Alt.=2409.976768m. Speed=1.000000m/h.]]></desc>
</trkpt>
<trkpt lat="36.674962" lon="137.758772">
<ele>2412.297234</ele>
<time>2014-08-17T03:21:49Z</time>
<desc><![CDATA[lat.=36.674962, lon.=137.758772, Alt.=2412.297234m. Speed=2.000000m/h.]]></desc>
</trkpt>
<trkpt lat="36.674935" lon="137.758794">
<ele>2414.614191</ele>
<time>2014-08-17T03:21:54Z</time>
<desc><![CDATA[lat.=36.674935, lon.=137.758794, Alt.=2414.614191m. Speed=2.000000m/h.]]></desc>
</trkpt>
<trkpt lat="36.674903" lon="137.758803">
<ele>2409.358437</ele>
<time>2014-08-17T03:21:59Z</time>
<desc><![CDATA[lat.=36.674903, lon.=137.758803, Alt.=2409.358437m. Speed=1.000000m/h.]]></desc>
</trkpt>
<trkpt lat="36.674871" lon="137.758778">
<ele>2409.184133</ele>
<time>2014-08-17T03:22:04Z</time>
<desc><![CDATA[lat.=36.674871, lon.=137.758778, Alt.=2409.184133m. Speed=1.000000m/h.]]></desc>
</trkpt>
<trkpt lat="36.674871" lon="137.758746">
<ele>2410.805159</ele>
<time>2014-08-17T03:22:09Z</time>
<desc><![CDATA[lat.=36.674871, lon.=137.758746, Alt.=2410.805159m. Speed=1.000000m/h.]]></desc>
</trkpt>
<trkpt lat="36.674861" lon="137.758723">
<ele>2408.962255</ele>
<time>2014-08-17T03:22:14Z</time>
<desc><![CDATA[lat.=36.674861, lon.=137.758723, Alt.=2408.962255m. Speed=1.000000m/h.]]></desc>
</trkpt>
<trkpt lat="36.674856" lon="137.758710">
<ele>2401.389544</ele>
<time>2014-08-17T03:22:19Z</time>
<desc><![CDATA[lat.=36.674856, lon.=137.758710, Alt.=2401.389544m. Speed=0.000000m/h.]]></desc>
</trkpt>
<trkpt lat="36.674855" lon="137.758709">
<ele>2403.119756</ele>
<time>2014-08-17T03:22:24Z</time>
<desc><![CDATA[lat.=36.674855, lon.=137.758709, Alt.=2403.119756m. Speed=0.000000m/h.]]></desc>
</trkpt>
<trkpt lat="36.674859" lon="137.758702">
<ele>2402.525991</ele>
<time>2014-08-17T03:22:29Z</time>
<desc><![CDATA[lat.=36.674859, lon.=137.758702, Alt.=2402.525991m. Speed=0.000000m/h.]]></desc>
</trkpt>
<trkpt lat="36.674859" lon="137.758701">
<ele>2404.256202</ele>
<time>2014-08-17T03:22:34Z</time>
<desc><![CDATA[lat.=36.674859, lon.=137.758701, Alt.=2404.256202m. Speed=0.000000m/h.]]></desc>
</trkpt>
<trkpt lat="36.674856" lon="137.758693">
<ele>2403.065164</ele>
<time>2014-08-17T03:22:39Z</time>
<desc><![CDATA[lat.=36.674856, lon.=137.758693, Alt.=2403.065164m. Speed=0.000000m/h.]]></desc>
</trkpt>
<trkpt lat="36.674848" lon="137.758693">
<ele>2402.467891</ele>
<time>2014-08-17T03:22:44Z</time>
<desc><![CDATA[lat.=36.674848, lon.=137.758693, Alt.=2402.467891m. Speed=0.000000m/h.]]></desc>
</trkpt>
<trkpt lat="36.674845" lon="137.758670">
<ele>2401.222262</ele>
<time>2014-08-17T03:22:49Z</time>
<desc><![CDATA[lat.=36.674845, lon.=137.758670, Alt.=2401.222262m. Speed=0.000000m/h.]]></desc>
</trkpt>
<trkpt lat="36.674838" lon="137.758670">
<ele>2400.624989</ele>
<time>2014-08-17T03:22:55Z</time>
<desc><![CDATA[lat.=36.674838, lon.=137.758670, Alt.=2400.624989m. Speed=0.000000m/h.]]></desc>
</trkpt>
<trkpt lat="36.674831" lon="137.758654">
<ele>2399.973126</ele>
<time>2014-08-17T03:23:00Z</time>
<desc><![CDATA[lat.=36.674831, lon.=137.758654, Alt.=2399.973126m. Speed=0.000000m/h.]]></desc>
</trkpt>
<trkpt lat="36.674814" lon="137.758630">
<ele>2399.263164</ele>
<time>2014-08-17T03:23:05Z</time>
<desc><![CDATA[lat.=36.674814, lon.=137.758630, Alt.=2399.263164m. Speed=1.000000m/h.]]></desc>
</trkpt>
<trkpt lat="36.674803" lon="137.758622">
<ele>2399.205066</ele>
<time>2014-08-17T03:23:10Z</time>
<desc><![CDATA[lat.=36.674803, lon.=137.758622, Alt.=2399.205066m. Speed=1.000000m/h.]]></desc>
</trkpt>
<trkpt lat="36.674788" lon="137.758622">
<ele>2398.010521</ele>
<time>2014-08-17T03:23:15Z</time>
<desc><![CDATA[lat.=36.674788, lon.=137.758622, Alt.=2398.010521m. Speed=0.000000m/h.]]></desc>
</trkpt>
<trkpt lat="36.674774" lon="137.758621">
<ele>2398.546189</ele>
<time>2014-08-17T03:23:20Z</time>
<desc><![CDATA[lat.=36.674774, lon.=137.758621, Alt.=2398.546189m. Speed=0.000000m/h.]]></desc>
</trkpt>
<trkpt lat="36.674766" lon="137.758621">
<ele>2397.948917</ele>
<time>2014-08-17T03:23:25Z</time>
<desc><![CDATA[lat.=36.674766, lon.=137.758621, Alt.=2397.948917m. Speed=0.000000m/h.]]></desc>
</trkpt>
<trkpt lat="36.674763" lon="137.758613">
<ele>2398.488092</ele>
<time>2014-08-17T03:23:31Z</time>
<desc><![CDATA[lat.=36.674763, lon.=137.758613, Alt.=2398.488092m. Speed=0.000000m/h.]]></desc>
</trkpt>
<trkpt lat="36.674770" lon="137.758614">
<ele>2397.355152</ele>
<time>2014-08-17T03:23:36Z</time>
<desc><![CDATA[lat.=36.674770, lon.=137.758614, Alt.=2397.355152m. Speed=0.000000m/h.]]></desc>
</trkpt>
<trkpt lat="36.674755" lon="137.758629">
<ele>2396.215198</ele>
<time>2014-08-17T03:23:41Z</time>
<desc><![CDATA[lat.=36.674755, lon.=137.758629, Alt.=2396.215198m. Speed=1.000000m/h.]]></desc>
</trkpt>
<trkpt lat="36.674737" lon="137.758637">
<ele>2395.614420</ele>
<time>2014-08-17T03:23:46Z</time>
<desc><![CDATA[lat.=36.674737, lon.=137.758637, Alt.=2395.614420m. Speed=0.000000m/h.]]></desc>
</trkpt>
<trkpt lat="36.674734" lon="137.758629">
<ele>2394.423383</ele>
<time>2014-08-17T03:23:54Z</time>
<desc><![CDATA[lat.=36.674734, lon.=137.758629, Alt.=2394.423383m. Speed=0.000000m/h.]]></desc>
</trkpt>
<trkpt lat="36.674731" lon="137.758639">
<ele>2389.826513</ele>
<time>2014-08-17T03:23:59Z</time>
<desc><![CDATA[lat.=36.674731, lon.=137.758639, Alt.=2389.826513m. Speed=0.000000m/h.]]></desc>
</trkpt>
<trkpt lat="36.674723" lon="137.758638">
<ele>2390.959453</ele>
<time>2014-08-17T03:24:04Z</time>
<desc><![CDATA[lat.=36.674723, lon.=137.758638, Alt.=2390.959453m. Speed=0.000000m/h.]]></desc>
</trkpt>
<trkpt lat="36.674716" lon="137.758639">
<ele>2388.631970</ele>
<time>2014-08-17T03:24:09Z</time>
<desc><![CDATA[lat.=36.674716, lon.=137.758639, Alt.=2388.631970m. Speed=0.000000m/h.]]></desc>
</trkpt>
<trkpt lat="36.674720" lon="137.758647">
<ele>2388.092795</ele>
<time>2014-08-17T03:24:14Z</time>
<desc><![CDATA[lat.=36.674720, lon.=137.758647, Alt.=2388.092795m. Speed=0.000000m/h.]]></desc>
</trkpt>
<trkpt lat="36.674731" lon="137.758657">
<ele>2386.420680</ele>
<time>2014-08-17T03:24:19Z</time>
<desc><![CDATA[lat.=36.674731, lon.=137.758657, Alt.=2386.420680m. Speed=0.000000m/h.]]></desc>
</trkpt>
<trkpt lat="36.674727" lon="137.758664">
<ele>2387.014446</ele>
<time>2014-08-17T03:24:35Z</time>
<desc><![CDATA[lat.=36.674727, lon.=137.758664, Alt.=2387.014446m. Speed=0.000000m/h.]]></desc>
</trkpt>
<trkpt lat="36.674724" lon="137.758656">
<ele>2387.553620</ele>
<time>2014-08-17T03:24:40Z</time>
<desc><![CDATA[lat.=36.674724, lon.=137.758656, Alt.=2387.553620m. Speed=0.000000m/h.]]></desc>
</trkpt>
<trkpt lat="36.674706" lon="137.758647">
<ele>2386.898253</ele>
<time>2014-08-17T03:24:45Z</time>
<desc><![CDATA[lat.=36.674706, lon.=137.758647, Alt.=2386.898253m. Speed=1.000000m/h.]]></desc>
</trkpt>
<trkpt lat="36.674665" lon="137.758621">
<ele>2389.587119</ele>
<time>2014-08-17T03:24:50Z</time>
<desc><![CDATA[lat.=36.674665, lon.=137.758621, Alt.=2389.587119m. Speed=2.000000m/h.]]></desc>
</trkpt>
<trkpt lat="36.674659" lon="137.758606">
<ele>2387.205047</ele>
<time>2014-08-17T03:24:55Z</time>
<desc><![CDATA[lat.=36.674659, lon.=137.758606, Alt.=2387.205047m. Speed=0.000000m/h.]]></desc>
</trkpt>
<trkpt lat="36.674655" lon="137.758614">
<ele>2387.798812</ele>
<time>2014-08-17T03:25:04Z</time>
<desc><![CDATA[lat.=36.674655, lon.=137.758614, Alt.=2387.798812m. Speed=0.000000m/h.]]></desc>
</trkpt>
<trkpt lat="36.674644" lon="137.758605">
<ele>2387.740718</ele>
<time>2014-08-17T03:25:09Z</time>
<desc><![CDATA[lat.=36.674644, lon.=137.758605, Alt.=2387.740718m. Speed=0.000000m/h.]]></desc>
</trkpt>
<trkpt lat="36.674648" lon="137.758598">
<ele>2387.146952</ele>
<time>2014-08-17T03:25:14Z</time>
<desc><![CDATA[lat.=36.674648, lon.=137.758598, Alt.=2387.146952m. Speed=0.000000m/h.]]></desc>
</trkpt>
<trkpt lat="36.674655" lon="137.758598">
<ele>2387.744223</ele>
<time>2014-08-17T03:25:19Z</time>
<desc><![CDATA[lat.=36.674655, lon.=137.758598, Alt.=2387.744223m. Speed=0.000000m/h.]]></desc>
</trkpt>
<trkpt lat="36.674651" lon="137.758606">
<ele>2386.607776</ele>
<time>2014-08-17T03:25:24Z</time>
<desc><![CDATA[lat.=36.674651, lon.=137.758606, Alt.=2386.607776m. Speed=0.000000m/h.]]></desc>
</trkpt>
<trkpt lat="36.674648" lon="137.758598">
<ele>2387.146952</ele>
<time>2014-08-17T03:25:29Z</time>
<desc><![CDATA[lat.=36.674648, lon.=137.758598, Alt.=2387.146952m. Speed=0.000000m/h.]]></desc>
</trkpt>
<trkpt lat="36.674644" lon="137.758590">
<ele>2387.686128</ele>
<time>2014-08-17T03:25:34Z</time>
<desc><![CDATA[lat.=36.674644, lon.=137.758590, Alt.=2387.686128m. Speed=1.000000m/h.]]></desc>
</trkpt>
<trkpt lat="36.674644" lon="137.758573">
<ele>2389.361751</ele>
<time>2014-08-17T03:25:39Z</time>
<desc><![CDATA[lat.=36.674644, lon.=137.758573, Alt.=2389.361751m. Speed=1.000000m/h.]]></desc>
</trkpt>
<trkpt lat="36.674626" lon="137.758564">
<ele>2390.436599</ele>
<time>2014-08-17T03:25:44Z</time>
<desc><![CDATA[lat.=36.674626, lon.=137.758564, Alt.=2390.436599m. Speed=1.000000m/h.]]></desc>
</trkpt>
<trkpt lat="36.674636" lon="137.758520">
<ele>2383.949256</ele>
<time>2014-08-17T03:25:49Z</time>
<desc><![CDATA[lat.=36.674636, lon.=137.758520, Alt.=2383.949256m. Speed=2.000000m/h.]]></desc>
</trkpt>
<trkpt lat="36.674655" lon="137.758498">
<ele>2381.035021</ele>
<time>2014-08-17T03:25:54Z</time>
<desc><![CDATA[lat.=36.674655, lon.=137.758498, Alt.=2381.035021m. Speed=2.000000m/h.]]></desc>
</trkpt>
<trkpt lat="36.674652" lon="137.758489">
<ele>2381.574198</ele>
<time>2014-08-17T03:25:59Z</time>
<desc><![CDATA[lat.=36.674652, lon.=137.758489, Alt.=2381.574198m. Speed=0.000000m/h.]]></desc>
</trkpt>
<trkpt lat="36.674648" lon="137.758498">
<ele>2380.437751</ele>
<time>2014-08-17T03:26:04Z</time>
<desc><![CDATA[lat.=36.674648, lon.=137.758498, Alt.=2380.437751m. Speed=0.000000m/h.]]></desc>
</trkpt>
<trkpt lat="36.674645" lon="137.758490">
<ele>2379.246716</ele>
<time>2014-08-17T03:26:09Z</time>
<desc><![CDATA[lat.=36.674645, lon.=137.758490, Alt.=2379.246716m. Speed=0.000000m/h.]]></desc>
</trkpt>
<trkpt lat="36.674635" lon="137.758468">
<ele>2375.673612</ele>
<time>2014-08-17T03:26:14Z</time>
<desc><![CDATA[lat.=36.674635, lon.=137.758468, Alt.=2375.673612m. Speed=1.000000m/h.]]></desc>
</trkpt>
<trkpt lat="36.674651" lon="137.758438">
<ele>2373.298555</ele>
<time>2014-08-17T03:26:19Z</time>
<desc><![CDATA[lat.=36.674651, lon.=137.758438, Alt.=2373.298555m. Speed=2.000000m/h.]]></desc>
</trkpt>
<trkpt lat="36.674633" lon="137.758429">
<ele>2372.643193</ele>
<time>2014-08-17T03:26:24Z</time>
<desc><![CDATA[lat.=36.674633, lon.=137.758429, Alt.=2372.643193m. Speed=0.000000m/h.]]></desc>
</trkpt>
<trkpt lat="36.674611" lon="137.758429">
<ele>2372.581595</ele>
<time>2014-08-17T03:26:29Z</time>
<desc><![CDATA[lat.=36.674611, lon.=137.758429, Alt.=2372.581595m. Speed=1.000000m/h.]]></desc>
</trkpt>
<trkpt lat="36.674597" lon="137.758413">
<ele>2371.332469</ele>
<time>2014-08-17T03:26:34Z</time>
<desc><![CDATA[lat.=36.674597, lon.=137.758413, Alt.=2371.332469m. Speed=1.000000m/h.]]></desc>
</trkpt>
<trkpt lat="36.674587" lon="137.758406">
<ele>2367.813954</ele>
<time>2014-08-17T03:26:39Z</time>
<desc><![CDATA[lat.=36.674587, lon.=137.758406, Alt.=2367.813954m. Speed=0.000000m/h.]]></desc>
</trkpt>
<trkpt lat="36.674579" lon="137.758406">
<ele>2367.216685</ele>
<time>2014-08-17T03:26:44Z</time>
<desc><![CDATA[lat.=36.674579, lon.=137.758406, Alt.=2367.216685m. Speed=0.000000m/h.]]></desc>
</trkpt>
<trkpt lat="36.674575" lon="137.758414">
<ele>2367.810449</ele>
<time>2014-08-17T03:26:49Z</time>
<desc><![CDATA[lat.=36.674575, lon.=137.758414, Alt.=2367.810449m. Speed=0.000000m/h.]]></desc>
</trkpt>
<trkpt lat="36.674531" lon="137.758428">
<ele>2367.741845</ele>
<time>2014-08-17T03:26:54Z</time>
<desc><![CDATA[lat.=36.674531, lon.=137.758428, Alt.=2367.741845m. Speed=2.000000m/h.]]></desc>
</trkpt>
<trkpt lat="36.674483" lon="137.758450">
<ele>2366.536798</ele>
<time>2014-08-17T03:26:59Z</time>
<desc><![CDATA[lat.=36.674483, lon.=137.758450, Alt.=2366.536798m. Speed=3.000000m/h.]]></desc>
</trkpt>
<trkpt lat="36.674457" lon="137.758474">
<ele>2363.663135</ele>
<time>2014-08-17T03:27:04Z</time>
<desc><![CDATA[lat.=36.674457, lon.=137.758474, Alt.=2363.663135m. Speed=3.000000m/h.]]></desc>
</trkpt>
<trkpt lat="36.674416" lon="137.758496">
<ele>2364.785576</ele>
<time>2014-08-17T03:27:09Z</time>
<desc><![CDATA[lat.=36.674416, lon.=137.758496, Alt.=2364.785576m. Speed=2.000000m/h.]]></desc>
</trkpt>
<trkpt lat="36.674405" lon="137.758487">
<ele>2366.457700</ele>
<time>2014-08-17T03:27:14Z</time>
<desc><![CDATA[lat.=36.674405, lon.=137.758487, Alt.=2366.457700m. Speed=1.000000m/h.]]></desc>
</trkpt>
<trkpt lat="36.674408" lon="137.758495">
<ele>2367.648733</ele>
<time>2014-08-17T03:27:19Z</time>
<desc><![CDATA[lat.=36.674408, lon.=137.758495, Alt.=2367.648733m. Speed=0.000000m/h.]]></desc>
</trkpt>
<trkpt lat="36.674411" lon="137.758502">
<ele>2368.839767</ele>
<time>2014-08-17T03:27:24Z</time>
<desc><![CDATA[lat.=36.674411, lon.=137.758502, Alt.=2368.839767m. Speed=0.000000m/h.]]></desc>
</trkpt>
<trkpt lat="36.674400" lon="137.758510">
<ele>2368.836266</ele>
<time>2014-08-17T03:27:29Z</time>
<desc><![CDATA[lat.=36.674400, lon.=137.758510, Alt.=2368.836266m. Speed=2.000000m/h.]]></desc>
</trkpt>
<trkpt lat="36.674349" lon="137.758525">
<ele>2366.440201</ele>
<time>2014-08-17T03:27:34Z</time>
<desc><![CDATA[lat.=36.674349, lon.=137.758525, Alt.=2366.440201m. Speed=3.000000m/h.]]></desc>
</trkpt>
<trkpt lat="36.674305" lon="137.758540">
<ele>2364.641406</ele>
<time>2014-08-17T03:27:39Z</time>
<desc><![CDATA[lat.=36.674305, lon.=137.758540, Alt.=2364.641406m. Speed=3.000000m/h.]]></desc>
</trkpt>
<trkpt lat="36.674308" lon="137.758548">
<ele>2364.102227</ele>
<time>2014-08-17T03:27:44Z</time>
<desc><![CDATA[lat.=36.674308, lon.=137.758548, Alt.=2364.102227m. Speed=0.000000m/h.]]></desc>
</trkpt>
<trkpt lat="36.674305" lon="137.758541">
<ele>2362.911194</ele>
<time>2014-08-17T03:27:49Z</time>
<desc><![CDATA[lat.=36.674305, lon.=137.758541, Alt.=2362.911194m. Speed=0.000000m/h.]]></desc>
</trkpt>
<trkpt lat="36.674312" lon="137.758541">
<ele>2363.508460</ele>
<time>2014-08-17T03:27:54Z</time>
<desc><![CDATA[lat.=36.674312, lon.=137.758541, Alt.=2363.508460m. Speed=0.000000m/h.]]></desc>
</trkpt>
<trkpt lat="36.674305" lon="137.758540">
<ele>2364.641406</ele>
<time>2014-08-17T03:27:59Z</time>
<desc><![CDATA[lat.=36.674305, lon.=137.758540, Alt.=2364.641406m. Speed=0.000000m/h.]]></desc>
</trkpt>
<trkpt lat="36.674297" lon="137.758539">
<ele>2365.774353</ele>
<time>2014-08-17T03:28:04Z</time>
<desc><![CDATA[lat.=36.674297, lon.=137.758539, Alt.=2365.774353m. Speed=0.000000m/h.]]></desc>
</trkpt>
<trkpt lat="36.674293" lon="137.758547">
<ele>2366.368121</ele>
<time>2014-08-17T03:28:10Z</time>
<desc><![CDATA[lat.=36.674293, lon.=137.758547, Alt.=2366.368121m. Speed=0.000000m/h.]]></desc>
</trkpt>
<trkpt lat="36.674282" lon="137.758554">
<ele>2366.364623</ele>
<time>2014-08-17T03:28:15Z</time>
<desc><![CDATA[lat.=36.674282, lon.=137.758554, Alt.=2366.364623m. Speed=1.000000m/h.]]></desc>
</trkpt>
<trkpt lat="36.674241" lon="137.758561">
<ele>2365.702279</ele>
<time>2014-08-17T03:28:20Z</time>
<desc><![CDATA[lat.=36.674241, lon.=137.758561, Alt.=2365.702279m. Speed=3.000000m/h.]]></desc>
</trkpt>
<trkpt lat="36.674190" lon="137.758577">
<ele>2361.576018</ele>
<time>2014-08-17T03:28:25Z</time>
<desc><![CDATA[lat.=36.674190, lon.=137.758577, Alt.=2361.576018m. Speed=3.000000m/h.]]></desc>
</trkpt>
<trkpt lat="36.674135" lon="137.758583">
<ele>2361.449367</ele>
<time>2014-08-17T03:28:30Z</time>
<desc><![CDATA[lat.=36.674135, lon.=137.758583, Alt.=2361.449367m. Speed=3.000000m/h.]]></desc>
</trkpt>
<trkpt lat="36.674090" lon="137.758613">
<ele>2361.435394</ele>
<time>2014-08-17T03:28:35Z</time>
<desc><![CDATA[lat.=36.674090, lon.=137.758613, Alt.=2361.435394m. Speed=3.000000m/h.]]></desc>
</trkpt>
<trkpt lat="36.674045" lon="137.758642">
<ele>2363.151638</ele>
<time>2014-08-17T03:28:40Z</time>
<desc><![CDATA[lat.=36.674045, lon.=137.758642, Alt.=2363.151638m. Speed=3.000000m/h.]]></desc>
</trkpt>
<trkpt lat="36.674022" lon="137.758672">
<ele>2364.929459</ele>
<time>2014-08-17T03:28:45Z</time>
<desc><![CDATA[lat.=36.674022, lon.=137.758672, Alt.=2364.929459m. Speed=3.000000m/h.]]></desc>
</trkpt>
<trkpt lat="36.674013" lon="137.758719">
<ele>2366.226185</ele>
<time>2014-08-17T03:28:50Z</time>
<desc><![CDATA[lat.=36.674013, lon.=137.758719, Alt.=2366.226185m. Speed=3.000000m/h.]]></desc>
</trkpt>
<trkpt lat="36.673990" lon="137.758749">
<ele>2368.004011</ele>
<time>2014-08-17T03:28:55Z</time>
<desc><![CDATA[lat.=36.673990, lon.=137.758749, Alt.=2368.004011m. Speed=3.000000m/h.]]></desc>
</trkpt>
<trkpt lat="36.673979" lon="137.758756">
<ele>2368.000522</ele>
<time>2014-08-17T03:29:00Z</time>
<desc><![CDATA[lat.=36.673979, lon.=137.758756, Alt.=2368.000522m. Speed=2.000000m/h.]]></desc>
</trkpt>
<trkpt lat="36.673963" lon="137.758786">
<ele>2370.375611</ele>
<time>2014-08-17T03:29:05Z</time>
<desc><![CDATA[lat.=36.673963, lon.=137.758786, Alt.=2370.375611m. Speed=2.000000m/h.]]></desc>
</trkpt>
<trkpt lat="36.673929" lon="137.758808">
<ele>2372.095360</ele>
<time>2014-08-17T03:29:10Z</time>
<desc><![CDATA[lat.=36.673929, lon.=137.758808, Alt.=2372.095360m. Speed=2.000000m/h.]]></desc>
</trkpt>
<trkpt lat="36.673907" lon="137.758823">
<ele>2372.088386</ele>
<time>2014-08-17T03:29:15Z</time>
<desc><![CDATA[lat.=36.673907, lon.=137.758823, Alt.=2372.088386m. Speed=2.000000m/h.]]></desc>
</trkpt>
<trkpt lat="36.673887" lon="137.758862">
<ele>2373.327042</ele>
<time>2014-08-17T03:29:20Z</time>
<desc><![CDATA[lat.=36.673887, lon.=137.758862, Alt.=2373.327042m. Speed=2.000000m/h.]]></desc>
</trkpt>
<trkpt lat="36.673850" lon="137.758892">
<ele>2372.180148</ele>
<time>2014-08-17T03:29:25Z</time>
<desc><![CDATA[lat.=36.673850, lon.=137.758892, Alt.=2372.180148m. Speed=2.000000m/h.]]></desc>
</trkpt>
<trkpt lat="36.673819" lon="137.758922">
<ele>2373.360729</ele>
<time>2014-08-17T03:29:30Z</time>
<desc><![CDATA[lat.=36.673819, lon.=137.758922, Alt.=2373.360729m. Speed=3.000000m/h.]]></desc>
</trkpt>
<trkpt lat="36.673771" lon="137.758945">
<ele>2372.155763</ele>
<time>2014-08-17T03:29:35Z</time>
<desc><![CDATA[lat.=36.673771, lon.=137.758945, Alt.=2372.155763m. Speed=3.000000m/h.]]></desc>
</trkpt>
<trkpt lat="36.673741" lon="137.758974">
<ele>2375.066562</ele>
<time>2014-08-17T03:29:40Z</time>
<desc><![CDATA[lat.=36.673741, lon.=137.758974, Alt.=2375.066562m. Speed=3.000000m/h.]]></desc>
</trkpt>
<trkpt lat="36.673715" lon="137.758983">
<ele>2372.138354</ele>
<time>2014-08-17T03:29:45Z</time>
<desc><![CDATA[lat.=36.673715, lon.=137.758983, Alt.=2372.138354m. Speed=2.000000m/h.]]></desc>
</trkpt>
<trkpt lat="36.673682" lon="137.759006">
<ele>2370.397700</ele>
<time>2014-08-17T03:29:50Z</time>
<desc><![CDATA[lat.=36.673682, lon.=137.759006, Alt.=2370.397700m. Speed=3.000000m/h.]]></desc>
</trkpt>
<trkpt lat="36.673644" lon="137.759052">
<ele>2371.035638</ele>
<time>2014-08-17T03:29:55Z</time>
<desc><![CDATA[lat.=36.673644, lon.=137.759052, Alt.=2371.035638m. Speed=3.000000m/h.]]></desc>
</trkpt>
<trkpt lat="36.673618" lon="137.759059">
<ele>2369.837647</ele>
<time>2014-08-17T03:30:00Z</time>
<desc><![CDATA[lat.=36.673618, lon.=137.759059, Alt.=2369.837647m. Speed=3.000000m/h.]]></desc>
</trkpt>
<trkpt lat="36.673581" lon="137.759074">
<ele>2368.636180</ele>
<time>2014-08-17T03:30:05Z</time>
<desc><![CDATA[lat.=36.673581, lon.=137.759074, Alt.=2368.636180m. Speed=2.000000m/h.]]></desc>
</trkpt>
<trkpt lat="36.673560" lon="137.759059">
<ele>2366.789815</ele>
<time>2014-08-17T03:30:10Z</time>
<desc><![CDATA[lat.=36.673560, lon.=137.759059, Alt.=2366.789815m. Speed=2.000000m/h.]]></desc>
</trkpt>
<trkpt lat="36.673540" lon="137.759112">
<ele>2369.813308</ele>
<time>2014-08-17T03:30:15Z</time>
<desc><![CDATA[lat.=36.673540, lon.=137.759112, Alt.=2369.813308m. Speed=3.000000m/h.]]></desc>
</trkpt>
<trkpt lat="36.673514" lon="137.759151">
<ele>2368.724525</ele>
<time>2014-08-17T03:30:20Z</time>
<desc><![CDATA[lat.=36.673514, lon.=137.759151, Alt.=2368.724525m. Speed=3.000000m/h.]]></desc>
</trkpt>
<trkpt lat="36.673502" lon="137.759190">
<ele>2368.830253</ele>
<time>2014-08-17T03:30:25Z</time>
<desc><![CDATA[lat.=36.673502, lon.=137.759190, Alt.=2368.830253m. Speed=3.000000m/h.]]></desc>
</trkpt>
<trkpt lat="36.673500" lon="137.759221">
<ele>2370.669670</ele>
<time>2014-08-17T03:30:30Z</time>
<desc><![CDATA[lat.=36.673500, lon.=137.759221, Alt.=2370.669670m. Speed=2.000000m/h.]]></desc>
</trkpt>
<trkpt lat="36.673481" lon="137.759244">
<ele>2371.853757</ele>
<time>2014-08-17T03:30:35Z</time>
<desc><![CDATA[lat.=36.673481, lon.=137.759244, Alt.=2371.853757m. Speed=2.000000m/h.]]></desc>
</trkpt>
<trkpt lat="36.673455" lon="137.759266">
<ele>2372.440591</ele>
<time>2014-08-17T03:30:40Z</time>
<desc><![CDATA[lat.=36.673455, lon.=137.759266, Alt.=2372.440591m. Speed=2.000000m/h.]]></desc>
</trkpt>
<trkpt lat="36.673457" lon="137.759305">
<ele>2373.740834</ele>
<time>2014-08-17T03:30:45Z</time>
<desc><![CDATA[lat.=36.673457, lon.=137.759305, Alt.=2373.740834m. Speed=2.000000m/h.]]></desc>
</trkpt>
<trkpt lat="36.673416" lon="137.759327">
<ele>2374.863377</ele>
<time>2014-08-17T03:30:50Z</time>
<desc><![CDATA[lat.=36.673416, lon.=137.759327, Alt.=2374.863377m. Speed=3.000000m/h.]]></desc>
</trkpt>
<trkpt lat="36.673396" lon="137.759365">
<ele>2377.832288</ele>
<time>2014-08-17T03:30:55Z</time>
<desc><![CDATA[lat.=36.673396, lon.=137.759365, Alt.=2377.832288m. Speed=3.000000m/h.]]></desc>
</trkpt>
<trkpt lat="36.673377" lon="137.759388">
<ele>2377.286171</ele>
<time>2014-08-17T03:31:00Z</time>
<desc><![CDATA[lat.=36.673377, lon.=137.759388, Alt.=2377.286171m. Speed=3.000000m/h.]]></desc>
</trkpt>
<trkpt lat="36.673347" lon="137.759419">
<ele>2376.736586</ele>
<time>2014-08-17T03:31:05Z</time>
<desc><![CDATA[lat.=36.673347, lon.=137.759419, Alt.=2376.736586m. Speed=3.000000m/h.]]></desc>
</trkpt>
<trkpt lat="36.673314" lon="137.759441">
<ele>2376.726181</ele>
<time>2014-08-17T03:31:10Z</time>
<desc><![CDATA[lat.=36.673314, lon.=137.759441, Alt.=2376.726181m. Speed=3.000000m/h.]]></desc>
</trkpt>
<trkpt lat="36.673280" lon="137.759464">
<ele>2376.715778</ele>
<time>2014-08-17T03:31:15Z</time>
<desc><![CDATA[lat.=36.673280, lon.=137.759464, Alt.=2376.715778m. Speed=3.000000m/h.]]></desc>
</trkpt>
<trkpt lat="36.673268" lon="137.759486">
<ele>2380.227343</ele>
<time>2014-08-17T03:31:20Z</time>
<desc><![CDATA[lat.=36.673268, lon.=137.759486, Alt.=2380.227343m. Speed=3.000000m/h.]]></desc>
</trkpt>
<trkpt lat="36.673249" lon="137.759509">
<ele>2379.681234</ele>
<time>2014-08-17T03:31:25Z</time>
<desc><![CDATA[lat.=36.673249, lon.=137.759509, Alt.=2379.681234m. Speed=2.000000m/h.]]></desc>
</trkpt>
<trkpt lat="36.673245" lon="137.759534">
<ele>2376.869204</ele>
<time>2014-08-17T03:31:30Z</time>
<desc><![CDATA[lat.=36.673245, lon.=137.759534, Alt.=2376.869204m. Speed=2.000000m/h.]]></desc>
</trkpt>
<trkpt lat="36.673241" lon="137.759574">
<ele>2375.841996</ele>
<time>2014-08-17T03:31:35Z</time>
<desc><![CDATA[lat.=36.673241, lon.=137.759574, Alt.=2375.841996m. Speed=2.000000m/h.]]></desc>
</trkpt>
<trkpt lat="36.673205" lon="137.759573">
<ele>2374.585956</ele>
<time>2014-08-17T03:31:40Z</time>
<desc><![CDATA[lat.=36.673205, lon.=137.759573, Alt.=2374.585956m. Speed=2.000000m/h.]]></desc>
</trkpt>
<trkpt lat="36.673162" lon="137.759557">
<ele>2370.947848</ele>
<time>2014-08-17T03:31:45Z</time>
<desc><![CDATA[lat.=36.673162, lon.=137.759557, Alt.=2370.947848m. Speed=2.000000m/h.]]></desc>
</trkpt>
<trkpt lat="36.673139" lon="137.759587">
<ele>2372.725743</ele>
<time>2014-08-17T03:31:50Z</time>
<desc><![CDATA[lat.=36.673139, lon.=137.759587, Alt.=2372.725743m. Speed=2.000000m/h.]]></desc>
</trkpt>
<trkpt lat="36.673095" lon="137.759587">
<ele>2369.142250</ele>
<time>2014-08-17T03:31:55Z</time>
<desc><![CDATA[lat.=36.673095, lon.=137.759587, Alt.=2369.142250m. Speed=3.000000m/h.]]></desc>
</trkpt>
<trkpt lat="36.673054" lon="137.759625">
<ele>2370.319440</ele>
<time>2014-08-17T03:32:00Z</time>
<desc><![CDATA[lat.=36.673054, lon.=137.759625, Alt.=2370.319440m. Speed=3.000000m/h.]]></desc>
</trkpt>
<trkpt lat="36.673034" lon="137.759662">
<ele>2373.288379</ele>
<time>2014-08-17T03:32:05Z</time>
<desc><![CDATA[lat.=36.673034, lon.=137.759662, Alt.=2373.288379m. Speed=3.000000m/h.]]></desc>
</trkpt>
<trkpt lat="36.673004" lon="137.759661">
<ele>2374.359813</ele>
<time>2014-08-17T03:32:10Z</time>
<desc><![CDATA[lat.=36.673004, lon.=137.759661, Alt.=2374.359813m. Speed=3.000000m/h.]]></desc>
</trkpt>
<trkpt lat="36.672986" lon="137.759652">
<ele>2375.434707</ele>
<time>2014-08-17T03:32:15Z</time>
<desc><![CDATA[lat.=36.672986, lon.=137.759652, Alt.=2375.434707m. Speed=2.000000m/h.]]></desc>
</trkpt>
<trkpt lat="36.672956" lon="137.759634">
<ele>2376.451532</ele>
<time>2014-08-17T03:32:20Z</time>
<desc><![CDATA[lat.=36.672956, lon.=137.759634, Alt.=2376.451532m. Speed=2.000000m/h.]]></desc>
</trkpt>
<trkpt lat="36.672938" lon="137.759610">
<ele>2377.471817</ele>
<time>2014-08-17T03:32:25Z</time>
<desc><![CDATA[lat.=36.672938, lon.=137.759610, Alt.=2377.471817m. Speed=2.000000m/h.]]></desc>
</trkpt>
<trkpt lat="36.672901" lon="137.759608">
<ele>2377.946011</ele>
<time>2014-08-17T03:32:30Z</time>
<desc><![CDATA[lat.=36.672901, lon.=137.759608, Alt.=2377.946011m. Speed=2.000000m/h.]]></desc>
</trkpt>
<trkpt lat="36.672853" lon="137.759646">
<ele>2376.795761</ele>
<time>2014-08-17T03:32:35Z</time>
<desc><![CDATA[lat.=36.672853, lon.=137.759646, Alt.=2376.795761m. Speed=3.000000m/h.]]></desc>
</trkpt>
<trkpt lat="36.672823" lon="137.759660">
<ele>2379.652029</ele>
<time>2014-08-17T03:32:40Z</time>
<desc><![CDATA[lat.=36.672823, lon.=137.759660, Alt.=2379.652029m. Speed=3.000000m/h.]]></desc>
</trkpt>
<trkpt lat="36.672796" lon="137.759699">
<ele>2378.563309</ele>
<time>2014-08-17T03:32:45Z</time>
<desc><![CDATA[lat.=36.672796, lon.=137.759699, Alt.=2378.563309m. Speed=3.000000m/h.]]></desc>
</trkpt>
<trkpt lat="36.672772" lon="137.759727">
<ele>2385.531863</ele>
<time>2014-08-17T03:32:50Z</time>
<desc><![CDATA[lat.=36.672772, lon.=137.759727, Alt.=2385.531863m. Speed=3.000000m/h.]]></desc>
</trkpt>
<trkpt lat="36.672771" lon="137.759742">
<ele>2387.316688</ele>
<time>2014-08-17T03:32:55Z</time>
<desc><![CDATA[lat.=36.672771, lon.=137.759742, Alt.=2387.316688m. Speed=2.000000m/h.]]></desc>
</trkpt>
<trkpt lat="36.672782" lon="137.759767">
<ele>2385.699157</ele>
<time>2014-08-17T03:33:00Z</time>
<desc><![CDATA[lat.=36.672782, lon.=137.759767, Alt.=2385.699157m. Speed=2.000000m/h.]]></desc>
</trkpt>
<trkpt lat="36.672773" lon="137.759797">
<ele>2388.671565</ele>
<time>2014-08-17T03:33:05Z</time>
<desc><![CDATA[lat.=36.672773, lon.=137.759797, Alt.=2388.671565m. Speed=2.000000m/h.]]></desc>
</trkpt>
<trkpt lat="36.672748" lon="137.759838">
<ele>2382.392219</ele>
<time>2014-08-17T03:33:10Z</time>
<desc><![CDATA[lat.=36.672748, lon.=137.759838, Alt.=2382.392219m. Speed=2.000000m/h.]]></desc>
</trkpt>
<trkpt lat="36.672752" lon="137.759864">
<ele>2378.447234</ele>
<time>2014-08-17T03:33:15Z</time>
<desc><![CDATA[lat.=36.672752, lon.=137.759864, Alt.=2378.447234m. Speed=2.000000m/h.]]></desc>
</trkpt>
<trkpt lat="36.672735" lon="137.759892">
<ele>2384.282827</ele>
<time>2014-08-17T03:33:20Z</time>
<desc><![CDATA[lat.=36.672735, lon.=137.759892, Alt.=2384.282827m. Speed=2.000000m/h.]]></desc>
</trkpt>
<trkpt lat="36.672712" lon="137.759938">
<ele>2386.115371</ele>
<time>2014-08-17T03:33:25Z</time>
<desc><![CDATA[lat.=36.672712, lon.=137.759938, Alt.=2386.115371m. Speed=1.000000m/h.]]></desc>
</trkpt>
<trkpt lat="36.672679" lon="137.759945">
<ele>2386.050404</ele>
<time>2014-08-17T03:33:30Z</time>
<desc><![CDATA[lat.=36.672679, lon.=137.759945, Alt.=2386.050404m. Speed=1.000000m/h.]]></desc>
</trkpt>
<trkpt lat="36.672629" lon="137.759998">
<ele>2388.415233</ele>
<time>2014-08-17T03:33:35Z</time>
<desc><![CDATA[lat.=36.672629, lon.=137.759998, Alt.=2388.415233m. Speed=2.000000m/h.]]></desc>
</trkpt>
<trkpt lat="36.672595" lon="137.760004">
<ele>2390.080484</ele>
<time>2014-08-17T03:33:40Z</time>
<desc><![CDATA[lat.=36.672595, lon.=137.760004, Alt.=2390.080484m. Speed=2.000000m/h.]]></desc>
</trkpt>
<trkpt lat="36.672566" lon="137.760019">
<ele>2387.746138</ele>
<time>2014-08-17T03:33:45Z</time>
<desc><![CDATA[lat.=36.672566, lon.=137.760019, Alt.=2387.746138m. Speed=2.000000m/h.]]></desc>
</trkpt>
<trkpt lat="36.672540" lon="137.760025">
<ele>2390.008634</ele>
<time>2014-08-17T03:33:50Z</time>
<desc><![CDATA[lat.=36.672540, lon.=137.760025, Alt.=2390.008634m. Speed=2.000000m/h.]]></desc>
</trkpt>
<trkpt lat="36.672532" lon="137.760025">
<ele>2389.411393</ele>
<time>2014-08-17T03:33:56Z</time>
<desc><![CDATA[lat.=36.672532, lon.=137.760025, Alt.=2389.411393m. Speed=2.000000m/h.]]></desc>
</trkpt>
<trkpt lat="36.672518" lon="137.760025">
<ele>2389.947124</ele>
<time>2014-08-17T03:34:01Z</time>
<desc><![CDATA[lat.=36.672518, lon.=137.760025, Alt.=2389.947124m. Speed=1.000000m/h.]]></desc>
</trkpt>
<trkpt lat="36.672499" lon="137.760016">
<ele>2391.022031</ele>
<time>2014-08-17T03:34:06Z</time>
<desc><![CDATA[lat.=36.672499, lon.=137.760016, Alt.=2391.022031m. Speed=1.000000m/h.]]></desc>
</trkpt>
<trkpt lat="36.672488" lon="137.760007">
<ele>2392.694179</ele>
<time>2014-08-17T03:34:11Z</time>
<desc><![CDATA[lat.=36.672488, lon.=137.760007, Alt.=2392.694179m. Speed=0.000000m/h.]]></desc>
</trkpt>
<trkpt lat="36.672492" lon="137.760015">
<ele>2392.155003</ele>
<time>2014-08-17T03:34:16Z</time>
<desc><![CDATA[lat.=36.672492, lon.=137.760015, Alt.=2392.155003m. Speed=1.000000m/h.]]></desc>
</trkpt>
<trkpt lat="36.672465" lon="137.760021">
<ele>2394.417503</ele>
<time>2014-08-17T03:34:21Z</time>
<desc><![CDATA[lat.=36.672465, lon.=137.760021, Alt.=2394.417503m. Speed=2.000000m/h.]]></desc>
</trkpt>
<trkpt lat="36.672451" lon="137.759989">
<ele>2393.113785</ele>
<time>2014-08-17T03:34:26Z</time>
<desc><![CDATA[lat.=36.672451, lon.=137.759989, Alt.=2393.113785m. Speed=1.000000m/h.]]></desc>
</trkpt>
<trkpt lat="36.672437" lon="137.759973">
<ele>2391.864688</ele>
<time>2014-08-17T03:34:31Z</time>
<desc><![CDATA[lat.=36.672437, lon.=137.759973, Alt.=2391.864688m. Speed=1.000000m/h.]]></desc>
</trkpt>
<trkpt lat="36.672416" lon="137.759957">
<ele>2391.748564</ele>
<time>2014-08-17T03:34:36Z</time>
<desc><![CDATA[lat.=36.672416, lon.=137.759957, Alt.=2391.748564m. Speed=1.000000m/h.]]></desc>
</trkpt>
<trkpt lat="36.672408" lon="137.759957">
<ele>2391.151325</ele>
<time>2014-08-17T03:34:41Z</time>
<desc><![CDATA[lat.=36.672408, lon.=137.759957, Alt.=2391.151325m. Speed=0.000000m/h.]]></desc>
</trkpt>
<trkpt lat="36.672394" lon="137.759956">
<ele>2391.687060</ele>
<time>2014-08-17T03:34:46Z</time>
<desc><![CDATA[lat.=36.672394, lon.=137.759956, Alt.=2391.687060m. Speed=0.000000m/h.]]></desc>
</trkpt>
<trkpt lat="36.672379" lon="137.759940">
<ele>2392.168177</ele>
<time>2014-08-17T03:34:51Z</time>
<desc><![CDATA[lat.=36.672379, lon.=137.759940, Alt.=2392.168177m. Speed=1.000000m/h.]]></desc>
</trkpt>
<trkpt lat="36.672368" lon="137.759931">
<ele>2392.110116</ele>
<time>2014-08-17T03:34:56Z</time>
<desc><![CDATA[lat.=36.672368, lon.=137.759931, Alt.=2392.110116m. Speed=1.000000m/h.]]></desc>
</trkpt>
<trkpt lat="36.672354" lon="137.759915">
<ele>2392.591235</ele>
<time>2014-08-17T03:35:01Z</time>
<desc><![CDATA[lat.=36.672354, lon.=137.759915, Alt.=2392.591235m. Speed=0.000000m/h.]]></desc>
</trkpt>
<trkpt lat="36.672343" lon="137.759906">
<ele>2394.263387</ele>
<time>2014-08-17T03:35:06Z</time>
<desc><![CDATA[lat.=36.672343, lon.=137.759906, Alt.=2394.263387m. Speed=1.000000m/h.]]></desc>
</trkpt>
<trkpt lat="36.672311" lon="137.759866">
<ele>2392.304381</ele>
<time>2014-08-17T03:35:11Z</time>
<desc><![CDATA[lat.=36.672311, lon.=137.759866, Alt.=2392.304381m. Speed=2.000000m/h.]]></desc>
</trkpt>
<trkpt lat="36.672290" lon="137.759818">
<ele>2392.079034</ele>
<time>2014-08-17T03:35:16Z</time>
<desc><![CDATA[lat.=36.672290, lon.=137.759818, Alt.=2392.079034m. Speed=2.000000m/h.]]></desc>
</trkpt>
<trkpt lat="36.672286" lon="137.759775">
<ele>2399.429834</ele>
<time>2014-08-17T03:35:21Z</time>
<desc><![CDATA[lat.=36.672286, lon.=137.759775, Alt.=2399.429834m. Speed=3.000000m/h.]]></desc>
</trkpt>
<trkpt lat="36.672287" lon="137.759694">
<ele>2402.617191</ele>
<time>2014-08-17T03:35:26Z</time>
<desc><![CDATA[lat.=36.672287, lon.=137.759694, Alt.=2402.617191m. Speed=4.000000m/h.]]></desc>
</trkpt>
<trkpt lat="36.672281" lon="137.759631">
<ele>2401.801504</ele>
<time>2014-08-17T03:35:31Z</time>
<desc><![CDATA[lat.=36.672281, lon.=137.759631, Alt.=2401.801504m. Speed=3.000000m/h.]]></desc>
</trkpt>
<trkpt lat="36.672267" lon="137.759582">
<ele>2403.903622</ele>
<time>2014-08-17T03:35:36Z</time>
<desc><![CDATA[lat.=36.672267, lon.=137.759582, Alt.=2403.903622m. Speed=3.000000m/h.]]></desc>
</trkpt>
<trkpt lat="36.672245" lon="137.759550">
<ele>2403.732903</ele>
<time>2014-08-17T03:35:41Z</time>
<desc><![CDATA[lat.=36.672245, lon.=137.759550, Alt.=2403.732903m. Speed=3.000000m/h.]]></desc>
</trkpt>
<trkpt lat="36.672226" lon="137.759589">
<ele>2403.241444</ele>
<time>2014-08-17T03:35:46Z</time>
<desc><![CDATA[lat.=36.672226, lon.=137.759589, Alt.=2403.241444m. Speed=2.000000m/h.]]></desc>
</trkpt>
<trkpt lat="36.672201" lon="137.759580">
<ele>2403.719131</ele>
<time>2014-08-17T03:35:51Z</time>
<desc><![CDATA[lat.=36.672201, lon.=137.759580, Alt.=2403.719131m. Speed=2.000000m/h.]]></desc>
</trkpt>
<trkpt lat="36.672187" lon="137.759564">
<ele>2402.470049</ele>
<time>2014-08-17T03:35:56Z</time>
<desc><![CDATA[lat.=36.672187, lon.=137.759564, Alt.=2402.470049m. Speed=2.000000m/h.]]></desc>
</trkpt>
<trkpt lat="36.672176" lon="137.759557">
<ele>2400.681783</ele>
<time>2014-08-17T03:36:01Z</time>
<desc><![CDATA[lat.=36.672176, lon.=137.759557, Alt.=2400.681783m. Speed=0.000000m/h.]]></desc>
</trkpt>
<trkpt lat="36.672176" lon="137.759556">
<ele>2402.411996</ele>
<time>2014-08-17T03:36:06Z</time>
<desc><![CDATA[lat.=36.672176, lon.=137.759556, Alt.=2402.411996m. Speed=0.000000m/h.]]></desc>
</trkpt>
<trkpt lat="36.672179" lon="137.759563">
<ele>2403.603025</ele>
<time>2014-08-17T03:36:11Z</time>
<desc><![CDATA[lat.=36.672179, lon.=137.759563, Alt.=2403.603025m. Speed=0.000000m/h.]]></desc>
</trkpt>
<trkpt lat="36.672186" lon="137.759563">
<ele>2404.200261</ele>
<time>2014-08-17T03:36:16Z</time>
<desc><![CDATA[lat.=36.672186, lon.=137.759563, Alt.=2404.200261m. Speed=0.000000m/h.]]></desc>
</trkpt>
<trkpt lat="36.672183" lon="137.759555">
<ele>2404.739444</ele>
<time>2014-08-17T03:36:23Z</time>
<desc><![CDATA[lat.=36.672183, lon.=137.759555, Alt.=2404.739444m. Speed=1.000000m/h.]]></desc>
</trkpt>
<trkpt lat="36.672178" lon="137.759578">
<ele>2405.387849</ele>
<time>2014-08-17T03:36:28Z</time>
<desc><![CDATA[lat.=36.672178, lon.=137.759578, Alt.=2405.387849m. Speed=2.000000m/h.]]></desc>
</trkpt>
<trkpt lat="36.672192" lon="137.759611">
<ele>2404.961329</ele>
<time>2014-08-17T03:36:33Z</time>
<desc><![CDATA[lat.=36.672192, lon.=137.759611, Alt.=2404.961329m. Speed=2.000000m/h.]]></desc>
</trkpt>
<trkpt lat="36.672196" lon="137.759635">
<ele>2404.476758</ele>
<time>2014-08-17T03:36:38Z</time>
<desc><![CDATA[lat.=36.672196, lon.=137.759635, Alt.=2404.476758m. Speed=2.000000m/h.]]></desc>
</trkpt>
<trkpt lat="36.672191" lon="137.759658">
<ele>2405.125165</ele>
<time>2014-08-17T03:36:43Z</time>
<desc><![CDATA[lat.=36.672191, lon.=137.759658, Alt.=2405.125165m. Speed=2.000000m/h.]]></desc>
</trkpt>
<trkpt lat="36.672183" lon="137.759689">
<ele>2406.367366</ele>
<time>2014-08-17T03:36:48Z</time>
<desc><![CDATA[lat.=36.672183, lon.=137.759689, Alt.=2406.367366m. Speed=2.000000m/h.]]></desc>
</trkpt>
<trkpt lat="36.672186" lon="137.759712">
<ele>2407.613010</ele>
<time>2014-08-17T03:36:53Z</time>
<desc><![CDATA[lat.=36.672186, lon.=137.759712, Alt.=2407.613010m. Speed=1.000000m/h.]]></desc>
</trkpt>
<trkpt lat="36.672192" lon="137.759744">
<ele>2408.319473</ele>
<time>2014-08-17T03:36:58Z</time>
<desc><![CDATA[lat.=36.672192, lon.=137.759744, Alt.=2408.319473m. Speed=2.000000m/h.]]></desc>
</trkpt>
<trkpt lat="36.672181" lon="137.759751">
<ele>2408.316032</ele>
<time>2014-08-17T03:37:03Z</time>
<desc><![CDATA[lat.=36.672181, lon.=137.759751, Alt.=2408.316032m. Speed=1.000000m/h.]]></desc>
</trkpt>
<trkpt lat="36.672169" lon="137.759774">
<ele>2410.097419</ele>
<time>2014-08-17T03:37:08Z</time>
<desc><![CDATA[lat.=36.672169, lon.=137.759774, Alt.=2410.097419m. Speed=0.000000m/h.]]></desc>
</trkpt>
<trkpt lat="36.672140" lon="137.759773">
<ele>2409.438690</ele>
<time>2014-08-17T03:37:13Z</time>
<desc><![CDATA[lat.=36.672140, lon.=137.759773, Alt.=2409.438690m. Speed=0.000000m/h.]]></desc>
</trkpt>
<trkpt lat="36.672133" lon="137.759773">
<ele>2408.841455</ele>
<time>2014-08-17T03:37:18Z</time>
<desc><![CDATA[lat.=36.672133, lon.=137.759773, Alt.=2408.841455m. Speed=0.000000m/h.]]></desc>
</trkpt>
<trkpt lat="36.672129" lon="137.759781">
<ele>2409.435251</ele>
<time>2014-08-17T03:37:23Z</time>
<desc><![CDATA[lat.=36.672129, lon.=137.759781, Alt.=2409.435251m. Speed=0.000000m/h.]]></desc>
</trkpt>
<trkpt lat="36.672117" lon="137.759788">
<ele>2409.431812</ele>
<time>2014-08-17T03:37:28Z</time>
<desc><![CDATA[lat.=36.672117, lon.=137.759788, Alt.=2409.431812m. Speed=0.000000m/h.]]></desc>
</trkpt>
<trkpt lat="36.672107" lon="137.759780">
<ele>2409.373758</ele>
<time>2014-08-17T03:37:33Z</time>
<desc><![CDATA[lat.=36.672107, lon.=137.759780, Alt.=2409.373758m. Speed=0.000000m/h.]]></desc>
</trkpt>
<trkpt lat="36.672096" lon="137.759772">
<ele>2409.315705</ele>
<time>2014-08-17T03:37:38Z</time>
<desc><![CDATA[lat.=36.672096, lon.=137.759772, Alt.=2409.315705m. Speed=1.000000m/h.]]></desc>
</trkpt>
<trkpt lat="36.672085" lon="137.759747">
<ele>2410.933251</ele>
<time>2014-08-17T03:37:43Z</time>
<desc><![CDATA[lat.=36.672085, lon.=137.759747, Alt.=2410.933251m. Speed=0.000000m/h.]]></desc>
</trkpt>
<trkpt lat="36.672074" lon="137.759754">
<ele>2410.929813</ele>
<time>2014-08-17T03:37:48Z</time>
<desc><![CDATA[lat.=36.672074, lon.=137.759754, Alt.=2410.929813m. Speed=0.000000m/h.]]></desc>
</trkpt>
<trkpt lat="36.672073" lon="137.759769">
<ele>2412.714640</ele>
<time>2014-08-17T03:37:53Z</time>
<desc><![CDATA[lat.=36.672073, lon.=137.759769, Alt.=2412.714640m. Speed=1.000000m/h.]]></desc>
</trkpt>
<trkpt lat="36.672054" lon="137.759777">
<ele>2412.113968</ele>
<time>2014-08-17T03:37:58Z</time>
<desc><![CDATA[lat.=36.672054, lon.=137.759777, Alt.=2412.113968m. Speed=1.000000m/h.]]></desc>
</trkpt>
<trkpt lat="36.672050" lon="137.759783">
<ele>2416.168189</ele>
<time>2014-08-17T03:38:03Z</time>
<desc><![CDATA[lat.=36.672050, lon.=137.759783, Alt.=2416.168189m. Speed=1.000000m/h.]]></desc>
</trkpt>
<trkpt lat="36.672034" lon="137.759797">
<ele>2418.488762</ele>
<time>2014-08-17T03:38:08Z</time>
<desc><![CDATA[lat.=36.672034, lon.=137.759797, Alt.=2418.488762m. Speed=1.000000m/h.]]></desc>
</trkpt>
<trkpt lat="36.672005" lon="137.759796">
<ele>2417.830040</ele>
<time>2014-08-17T03:38:13Z</time>
<desc><![CDATA[lat.=36.672005, lon.=137.759796, Alt.=2417.830040m. Speed=2.000000m/h.]]></desc>
</trkpt>
<trkpt lat="36.671976" lon="137.759764">
<ele>2417.062091</ele>
<time>2014-08-17T03:38:18Z</time>
<desc><![CDATA[lat.=36.671976, lon.=137.759764, Alt.=2417.062091m. Speed=2.000000m/h.]]></desc>
</trkpt>
<trkpt lat="36.671951" lon="137.759723">
<ele>2417.430560</ele>
<time>2014-08-17T03:38:23Z</time>
<desc><![CDATA[lat.=36.671951, lon.=137.759723, Alt.=2417.430560m. Speed=3.000000m/h.]]></desc>
</trkpt>
<trkpt lat="36.671925" lon="137.759730">
<ele>2417.962872</ele>
<time>2014-08-17T03:38:28Z</time>
<desc><![CDATA[lat.=36.671925, lon.=137.759730, Alt.=2417.962872m. Speed=2.000000m/h.]]></desc>
</trkpt>
<trkpt lat="36.671895" lon="137.759744">
<ele>2419.088984</ele>
<time>2014-08-17T03:38:33Z</time>
<desc><![CDATA[lat.=36.671895, lon.=137.759744, Alt.=2419.088984m. Speed=2.000000m/h.]]></desc>
</trkpt>
<trkpt lat="36.671866" lon="137.759744">
<ele>2418.430270</ele>
<time>2014-08-17T03:38:38Z</time>
<desc><![CDATA[lat.=36.671866, lon.=137.759744, Alt.=2418.430270m. Speed=2.000000m/h.]]></desc>
</trkpt>
<trkpt lat="36.671851" lon="137.759759">
<ele>2417.290422</ele>
<time>2014-08-17T03:38:43Z</time>
<desc><![CDATA[lat.=36.671851, lon.=137.759759, Alt.=2417.290422m. Speed=2.000000m/h.]]></desc>
</trkpt>
<trkpt lat="36.671832" lon="137.759798">
<ele>2418.529200</ele>
<time>2014-08-17T03:38:48Z</time>
<desc><![CDATA[lat.=36.671832, lon.=137.759798, Alt.=2418.529200m. Speed=2.000000m/h.]]></desc>
</trkpt>
<trkpt lat="36.671841" lon="137.759853">
<ele>2420.481308</ele>
<time>2014-08-17T03:38:53Z</time>
<desc><![CDATA[lat.=36.671841, lon.=137.759853, Alt.=2420.481308m. Speed=2.000000m/h.]]></desc>
</trkpt>
<trkpt lat="36.671854" lon="137.759900">
<ele>2421.839621</ele>
<time>2014-08-17T03:38:58Z</time>
<desc><![CDATA[lat.=36.671854, lon.=137.759900, Alt.=2421.839621m. Speed=2.000000m/h.]]></desc>
</trkpt>
<trkpt lat="36.671817" lon="137.759930">
<ele>2422.423126</ele>
<time>2014-08-17T03:39:03Z</time>
<desc><![CDATA[lat.=36.671817, lon.=137.759930, Alt.=2422.423126m. Speed=3.000000m/h.]]></desc>
</trkpt>
<trkpt lat="36.671772" lon="137.759944">
<ele>2422.354787</ele>
<time>2014-08-17T03:39:08Z</time>
<desc><![CDATA[lat.=36.671772, lon.=137.759944, Alt.=2422.354787m. Speed=3.000000m/h.]]></desc>
</trkpt>
<trkpt lat="36.671735" lon="137.759959">
<ele>2422.883681</ele>
<time>2014-08-17T03:39:13Z</time>
<desc><![CDATA[lat.=36.671735, lon.=137.759959, Alt.=2422.883681m. Speed=3.000000m/h.]]></desc>
</trkpt>
<trkpt lat="36.671711" lon="137.760004">
<ele>2426.446488</ele>
<time>2014-08-17T03:39:18Z</time>
<desc><![CDATA[lat.=36.671711, lon.=137.760004, Alt.=2426.446488m. Speed=3.000000m/h.]]></desc>
</trkpt>
<trkpt lat="36.671692" lon="137.760042">
<ele>2427.685283</ele>
<time>2014-08-17T03:39:23Z</time>
<desc><![CDATA[lat.=36.671692, lon.=137.760042, Alt.=2427.685283m. Speed=3.000000m/h.]]></desc>
</trkpt>
<trkpt lat="36.671679" lon="137.760097">
<ele>2427.845718</ele>
<time>2014-08-17T03:39:28Z</time>
<desc><![CDATA[lat.=36.671679, lon.=137.760097, Alt.=2427.845718m. Speed=3.000000m/h.]]></desc>
</trkpt>
<trkpt lat="36.671667" lon="137.760152">
<ele>2428.006158</ele>
<time>2014-08-17T03:39:33Z</time>
<desc><![CDATA[lat.=36.671667, lon.=137.760152, Alt.=2428.006158m. Speed=3.000000m/h.]]></desc>
</trkpt>
<trkpt lat="36.671644" lon="137.760199">
<ele>2428.108553</ele>
<time>2014-08-17T03:39:38Z</time>
<desc><![CDATA[lat.=36.671644, lon.=137.760199, Alt.=2428.108553m. Speed=3.000000m/h.]]></desc>
</trkpt>
<trkpt lat="36.671625" lon="137.760238">
<ele>2427.617148</ele>
<time>2014-08-17T03:39:43Z</time>
<desc><![CDATA[lat.=36.671625, lon.=137.760238, Alt.=2427.617148m. Speed=3.000000m/h.]]></desc>
</trkpt>
<trkpt lat="36.671595" lon="137.760253">
<ele>2427.013074</ele>
<time>2014-08-17T03:39:48Z</time>
<desc><![CDATA[lat.=36.671595, lon.=137.760253, Alt.=2427.013074m. Speed=3.000000m/h.]]></desc>
</trkpt>
<trkpt lat="36.671587" lon="137.760283">
<ele>2428.255308</ele>
<time>2014-08-17T03:39:53Z</time>
<desc><![CDATA[lat.=36.671587, lon.=137.760283, Alt.=2428.255308m. Speed=2.000000m/h.]]></desc>
</trkpt>
<trkpt lat="36.671574" lon="137.760305">
<ele>2431.766936</ele>
<time>2014-08-17T03:39:58Z</time>
<desc><![CDATA[lat.=36.671574, lon.=137.760305, Alt.=2431.766936m. Speed=2.000000m/h.]]></desc>
</trkpt>
<trkpt lat="36.671567" lon="137.760305">
<ele>2431.169709</ele>
<time>2014-08-17T03:40:06Z</time>
<desc><![CDATA[lat.=36.671567, lon.=137.760305, Alt.=2431.169709m. Speed=0.000000m/h.]]></desc>
</trkpt>
<trkpt lat="36.671560" lon="137.760305">
<ele>2432.302694</ele>
<time>2014-08-17T03:40:11Z</time>
<desc><![CDATA[lat.=36.671560, lon.=137.760305, Alt.=2432.302694m. Speed=0.000000m/h.]]></desc>
</trkpt>
<trkpt lat="36.671556" lon="137.760312">
<ele>2432.896499</ele>
<time>2014-08-17T03:40:20Z</time>
<desc><![CDATA[lat.=36.671556, lon.=137.760312, Alt.=2432.896499m. Speed=1.000000m/h.]]></desc>
</trkpt>
<trkpt lat="36.671548" lon="137.760328">
<ele>2432.353898</ele>
<time>2014-08-17T03:40:25Z</time>
<desc><![CDATA[lat.=36.671548, lon.=137.760328, Alt.=2432.353898m. Speed=0.000000m/h.]]></desc>
</trkpt>
<trkpt lat="36.671541" lon="137.760328">
<ele>2431.756671</ele>
<time>2014-08-17T03:40:30Z</time>
<desc><![CDATA[lat.=36.671541, lon.=137.760328, Alt.=2431.756671m. Speed=0.000000m/h.]]></desc>
</trkpt>
<trkpt lat="36.671523" lon="137.760320">
<ele>2431.101398</ele>
<time>2014-08-17T03:40:35Z</time>
<desc><![CDATA[lat.=36.671523, lon.=137.760320, Alt.=2431.101398m. Speed=2.000000m/h.]]></desc>
</trkpt>
<trkpt lat="36.671478" lon="137.760334">
<ele>2431.033091</ele>
<time>2014-08-17T03:40:40Z</time>
<desc><![CDATA[lat.=36.671478, lon.=137.760334, Alt.=2431.033091m. Speed=3.000000m/h.]]></desc>
</trkpt>
<trkpt lat="36.671441" lon="137.760348">
<ele>2431.562013</ele>
<time>2014-08-17T03:40:45Z</time>
<desc><![CDATA[lat.=36.671441, lon.=137.760348, Alt.=2431.562013m. Speed=3.000000m/h.]]></desc>
</trkpt>
<trkpt lat="36.671392" lon="137.760369">
<ele>2433.817734</ele>
<time>2014-08-17T03:40:50Z</time>
<desc><![CDATA[lat.=36.671392, lon.=137.760369, Alt.=2433.817734m. Speed=3.000000m/h.]]></desc>
</trkpt>
<trkpt lat="36.671348" lon="137.760384">
<ele>2432.019226</ele>
<time>2014-08-17T03:40:55Z</time>
<desc><![CDATA[lat.=36.671348, lon.=137.760384, Alt.=2432.019226m. Speed=4.000000m/h.]]></desc>
</trkpt>
<trkpt lat="36.671290" lon="137.760399">
<ele>2429.026276</ele>
<time>2014-08-17T03:41:00Z</time>
<desc><![CDATA[lat.=36.671290, lon.=137.760399, Alt.=2429.026276m. Speed=4.000000m/h.]]></desc>
</trkpt>
<trkpt lat="36.671245" lon="137.760413">
<ele>2430.688204</ele>
<time>2014-08-17T03:41:05Z</time>
<desc><![CDATA[lat.=36.671245, lon.=137.760413, Alt.=2430.688204m. Speed=4.000000m/h.]]></desc>
</trkpt>
<trkpt lat="36.671207" lon="137.760443">
<ele>2431.271773</ele>
<time>2014-08-17T03:41:10Z</time>
<desc><![CDATA[lat.=36.671207, lon.=137.760443, Alt.=2431.271773m. Speed=3.000000m/h.]]></desc>
</trkpt>
<trkpt lat="36.671185" lon="137.760458">
<ele>2431.264948</ele>
<time>2014-08-17T03:41:15Z</time>
<desc><![CDATA[lat.=36.671185, lon.=137.760458, Alt.=2431.264948m. Speed=3.000000m/h.]]></desc>
</trkpt>
<trkpt lat="36.671170" lon="137.760456">
<ele>2433.530929</ele>
<time>2014-08-17T03:41:20Z</time>
<desc><![CDATA[lat.=36.671170, lon.=137.760456, Alt.=2433.530929m. Speed=2.000000m/h.]]></desc>
</trkpt>
<trkpt lat="36.671146" lon="137.760486">
<ele>2437.039161</ele>
<time>2014-08-17T03:41:25Z</time>
<desc><![CDATA[lat.=36.671146, lon.=137.760486, Alt.=2437.039161m. Speed=2.000000m/h.]]></desc>
</trkpt>
<trkpt lat="36.671121" lon="137.760461">
<ele>2437.462262</ele>
<time>2014-08-17T03:41:30Z</time>
<desc><![CDATA[lat.=36.671121, lon.=137.760461, Alt.=2437.462262m. Speed=2.000000m/h.]]></desc>
</trkpt>
<trkpt lat="36.671094" lon="137.760483">
<ele>2438.049252</ele>
<time>2014-08-17T03:41:35Z</time>
<desc><![CDATA[lat.=36.671094, lon.=137.760483, Alt.=2438.049252m. Speed=2.000000m/h.]]></desc>
</trkpt>
<trkpt lat="36.671075" lon="137.760506">
<ele>2439.233464</ele>
<time>2014-08-17T03:41:40Z</time>
<desc><![CDATA[lat.=36.671075, lon.=137.760506, Alt.=2439.233464m. Speed=2.000000m/h.]]></desc>
</trkpt>
<trkpt lat="36.671052" lon="137.760537">
<ele>2439.281276</ele>
<time>2014-08-17T03:41:45Z</time>
<desc><![CDATA[lat.=36.671052, lon.=137.760537, Alt.=2439.281276m. Speed=3.000000m/h.]]></desc>
</trkpt>
<trkpt lat="36.671026" lon="137.760543">
<ele>2439.813640</ele>
<time>2014-08-17T03:41:50Z</time>
<desc><![CDATA[lat.=36.671026, lon.=137.760543, Alt.=2439.813640m. Speed=2.000000m/h.]]></desc>
</trkpt>
<trkpt lat="36.671005" lon="137.760527">
<ele>2439.697564</ele>
<time>2014-08-17T03:41:55Z</time>
<desc><![CDATA[lat.=36.671005, lon.=137.760527, Alt.=2439.697564m. Speed=3.000000m/h.]]></desc>
</trkpt>
<trkpt lat="36.670971" lon="137.760549">
<ele>2441.417555</ele>
<time>2014-08-17T03:42:00Z</time>
<desc><![CDATA[lat.=36.670971, lon.=137.760549, Alt.=2441.417555m. Speed=3.000000m/h.]]></desc>
</trkpt>
<trkpt lat="36.670945" lon="137.760540">
<ele>2441.895294</ele>
<time>2014-08-17T03:42:05Z</time>
<desc><![CDATA[lat.=36.670945, lon.=137.760540, Alt.=2441.895294m. Speed=3.000000m/h.]]></desc>
</trkpt>
<trkpt lat="36.670920" lon="137.760515">
<ele>2442.318403</ele>
<time>2014-08-17T03:42:10Z</time>
<desc><![CDATA[lat.=36.670920, lon.=137.760515, Alt.=2442.318403m. Speed=3.000000m/h.]]></desc>
</trkpt>
<trkpt lat="36.670904" lon="137.760545">
<ele>2444.693653</ele>
<time>2014-08-17T03:42:15Z</time>
<desc><![CDATA[lat.=36.670904, lon.=137.760545, Alt.=2444.693653m. Speed=2.000000m/h.]]></desc>
</trkpt>
<trkpt lat="36.670913" lon="137.760600">
<ele>2446.645795</ele>
<time>2014-08-17T03:42:20Z</time>
<desc><![CDATA[lat.=36.670913, lon.=137.760600, Alt.=2446.645795m. Speed=3.000000m/h.]]></desc>
</trkpt>
<trkpt lat="36.670912" lon="137.760647">
<ele>2446.809692</ele>
<time>2014-08-17T03:42:25Z</time>
<desc><![CDATA[lat.=36.670912, lon.=137.760647, Alt.=2446.809692m. Speed=3.000000m/h.]]></desc>
</trkpt>
<trkpt lat="36.670875" lon="137.760645">
<ele>2449.014241</ele>
<time>2014-08-17T03:42:30Z</time>
<desc><![CDATA[lat.=36.670875, lon.=137.760645, Alt.=2449.014241m. Speed=3.000000m/h.]]></desc>
</trkpt>
<trkpt lat="36.670850" lon="137.760637">
<ele>2447.761770</ele>
<time>2014-08-17T03:42:35Z</time>
<desc><![CDATA[lat.=36.670850, lon.=137.760637, Alt.=2447.761770m. Speed=2.000000m/h.]]></desc>
</trkpt>
<trkpt lat="36.670813" lon="137.760636">
<ele>2446.505898</ele>
<time>2014-08-17T03:42:40Z</time>
<desc><![CDATA[lat.=36.670813, lon.=137.760636, Alt.=2446.505898m. Speed=2.000000m/h.]]></desc>
</trkpt>
<trkpt lat="36.670794" lon="137.760659">
<ele>2445.959912</ele>
<time>2014-08-17T03:42:45Z</time>
<desc><![CDATA[lat.=36.670794, lon.=137.760659, Alt.=2445.959912m. Speed=2.000000m/h.]]></desc>
</trkpt>
<trkpt lat="36.670772" lon="137.760674">
<ele>2445.953110</ele>
<time>2014-08-17T03:42:50Z</time>
<desc><![CDATA[lat.=36.670772, lon.=137.760674, Alt.=2445.953110m. Speed=2.000000m/h.]]></desc>
</trkpt>
<trkpt lat="36.670746" lon="137.760681">
<ele>2446.485490</ele>
<time>2014-08-17T03:42:55Z</time>
<desc><![CDATA[lat.=36.670746, lon.=137.760681, Alt.=2446.485490m. Speed=2.000000m/h.]]></desc>
</trkpt>
<trkpt lat="36.670738" lon="137.760764">
<ele>2454.273327</ele>
<time>2014-08-17T03:43:00Z</time>
<desc><![CDATA[lat.=36.670738, lon.=137.760764, Alt.=2454.273327m. Speed=2.000000m/h.]]></desc>
</trkpt>
<trkpt lat="36.670709" lon="137.760763">
<ele>2455.344890</ele>
<time>2014-08-17T03:43:05Z</time>
<desc><![CDATA[lat.=36.670709, lon.=137.760763, Alt.=2455.344890m. Speed=2.000000m/h.]]></desc>
</trkpt>
<trkpt lat="36.670679" lon="137.760778">
<ele>2454.740878</ele>
<time>2014-08-17T03:43:10Z</time>
<desc><![CDATA[lat.=36.670679, lon.=137.760778, Alt.=2454.740878m. Speed=2.000000m/h.]]></desc>
</trkpt>
<trkpt lat="36.670654" lon="137.760754">
<ele>2453.433781</ele>
<time>2014-08-17T03:43:15Z</time>
<desc><![CDATA[lat.=36.670654, lon.=137.760754, Alt.=2453.433781m. Speed=2.000000m/h.]]></desc>
</trkpt>
<trkpt lat="36.670636" lon="137.760746">
<ele>2452.778534</ele>
<time>2014-08-17T03:43:20Z</time>
<desc><![CDATA[lat.=36.670636, lon.=137.760746, Alt.=2452.778534m. Speed=2.000000m/h.]]></desc>
</trkpt>
<trkpt lat="36.670611" lon="137.760721">
<ele>2451.471439</ele>
<time>2014-08-17T03:43:25Z</time>
<desc><![CDATA[lat.=36.670611, lon.=137.760721, Alt.=2451.471439m. Speed=2.000000m/h.]]></desc>
</trkpt>
<trkpt lat="36.670605" lon="137.760706">
<ele>2449.089379</ele>
<time>2014-08-17T03:43:30Z</time>
<desc><![CDATA[lat.=36.670605, lon.=137.760706, Alt.=2449.089379m. Speed=0.000000m/h.]]></desc>
</trkpt>
<trkpt lat="36.670611" lon="137.760721">
<ele>2451.471439</ele>
<time>2014-08-17T03:43:35Z</time>
<desc><![CDATA[lat.=36.670611, lon.=137.760721, Alt.=2451.471439m. Speed=0.000000m/h.]]></desc>
</trkpt>
<trkpt lat="36.670618" lon="137.760721">
<ele>2453.798866</ele>
<time>2014-08-17T03:43:40Z</time>
<desc><![CDATA[lat.=36.670618, lon.=137.760721, Alt.=2453.798866m. Speed=0.000000m/h.]]></desc>
</trkpt>
<trkpt lat="36.670614" lon="137.760728">
<ele>2454.392683</ele>
<time>2014-08-17T03:43:45Z</time>
<desc><![CDATA[lat.=36.670614, lon.=137.760728, Alt.=2454.392683m. Speed=0.000000m/h.]]></desc>
</trkpt>
<trkpt lat="36.670607" lon="137.760728">
<ele>2453.795469</ele>
<time>2014-08-17T03:43:50Z</time>
<desc><![CDATA[lat.=36.670607, lon.=137.760728, Alt.=2453.795469m. Speed=1.000000m/h.]]></desc>
</trkpt>
<trkpt lat="36.670584" lon="137.760758">
<ele>2455.573523</ele>
<time>2014-08-17T03:43:55Z</time>
<desc><![CDATA[lat.=36.670584, lon.=137.760758, Alt.=2455.573523m. Speed=2.000000m/h.]]></desc>
</trkpt>
<trkpt lat="36.670554" lon="137.760757">
<ele>2456.645095</ele>
<time>2014-08-17T03:44:00Z</time>
<desc><![CDATA[lat.=36.670554, lon.=137.760757, Alt.=2456.645095m. Speed=2.000000m/h.]]></desc>
</trkpt>
<trkpt lat="36.670517" lon="137.760738">
<ele>2460.525247</ele>
<time>2014-08-17T03:44:05Z</time>
<desc><![CDATA[lat.=36.670517, lon.=137.760738, Alt.=2460.525247m. Speed=3.000000m/h.]]></desc>
</trkpt>
<trkpt lat="36.670492" lon="137.760713">
<ele>2460.948372</ele>
<time>2014-08-17T03:44:10Z</time>
<desc><![CDATA[lat.=36.670492, lon.=137.760713, Alt.=2460.948372m. Speed=3.000000m/h.]]></desc>
</trkpt>
<trkpt lat="36.670459" lon="137.760705">
<ele>2459.098707</ele>
<time>2014-08-17T03:44:15Z</time>
<desc><![CDATA[lat.=36.670459, lon.=137.760705, Alt.=2459.098707m. Speed=2.000000m/h.]]></desc>
</trkpt>
<trkpt lat="36.670445" lon="137.760672">
<ele>2459.525229</ele>
<time>2014-08-17T03:44:20Z</time>
<desc><![CDATA[lat.=36.670445, lon.=137.760672, Alt.=2459.525229m. Speed=2.000000m/h.]]></desc>
</trkpt>
<trkpt lat="36.670437" lon="137.760688">
<ele>2458.982652</ele>
<time>2014-08-17T03:44:25Z</time>
<desc><![CDATA[lat.=36.670437, lon.=137.760688, Alt.=2458.982652m. Speed=2.000000m/h.]]></desc>
</trkpt>
<trkpt lat="36.670415" lon="137.760703">
<ele>2460.706078</ele>
<time>2014-08-17T03:44:30Z</time>
<desc><![CDATA[lat.=36.670415, lon.=137.760703, Alt.=2460.706078m. Speed=2.000000m/h.]]></desc>
</trkpt>
<trkpt lat="36.670389" lon="137.760678">
<ele>2461.129208</ele>
<time>2014-08-17T03:44:35Z</time>
<desc><![CDATA[lat.=36.670389, lon.=137.760678, Alt.=2461.129208m. Speed=2.000000m/h.]]></desc>
</trkpt>
<trkpt lat="36.670360" lon="137.760660">
<ele>2462.146158</ele>
<time>2014-08-17T03:44:40Z</time>
<desc><![CDATA[lat.=36.670360, lon.=137.760660, Alt.=2462.146158m. Speed=2.000000m/h.]]></desc>
</trkpt>
<trkpt lat="36.670338" lon="137.760643">
<ele>2463.760321</ele>
<time>2014-08-17T03:44:45Z</time>
<desc><![CDATA[lat.=36.670338, lon.=137.760643, Alt.=2463.760321m. Speed=2.000000m/h.]]></desc>
</trkpt>
<trkpt lat="36.670323" lon="137.760642">
<ele>2464.296114</ele>
<time>2014-08-17T03:44:50Z</time>
<desc><![CDATA[lat.=36.670323, lon.=137.760642, Alt.=2464.296114m. Speed=2.000000m/h.]]></desc>
</trkpt>
<trkpt lat="36.670314" lon="137.760672">
<ele>2467.268597</ele>
<time>2014-08-17T03:44:55Z</time>
<desc><![CDATA[lat.=36.670314, lon.=137.760672, Alt.=2467.268597m. Speed=2.000000m/h.]]></desc>
</trkpt>
<trkpt lat="36.670332" lon="137.760712">
<ele>2468.033099</ele>
<time>2014-08-17T03:45:00Z</time>
<desc><![CDATA[lat.=36.670332, lon.=137.760712, Alt.=2468.033099m. Speed=2.000000m/h.]]></desc>
</trkpt>
<trkpt lat="36.670330" lon="137.760759">
<ele>2469.927217</ele>
<time>2014-08-17T03:45:05Z</time>
<desc><![CDATA[lat.=36.670330, lon.=137.760759, Alt.=2469.927217m. Speed=2.000000m/h.]]></desc>
</trkpt>
<trkpt lat="36.670311" lon="137.760766">
<ele>2471.056829</ele>
<time>2014-08-17T03:45:10Z</time>
<desc><![CDATA[lat.=36.670311, lon.=137.760766, Alt.=2471.056829m. Speed=2.000000m/h.]]></desc>
</trkpt>
<trkpt lat="36.670296" lon="137.760796">
<ele>2471.701895</ele>
<time>2014-08-17T03:45:15Z</time>
<desc><![CDATA[lat.=36.670296, lon.=137.760796, Alt.=2471.701895m. Speed=2.000000m/h.]]></desc>
</trkpt>
<trkpt lat="36.670302" lon="137.760828">
<ele>2472.408377</ele>
<time>2014-08-17T03:45:20Z</time>
<desc><![CDATA[lat.=36.670302, lon.=137.760828, Alt.=2472.408377m. Speed=2.000000m/h.]]></desc>
</trkpt>
<trkpt lat="36.670294" lon="137.760875">
<ele>2473.705292</ele>
<time>2014-08-17T03:45:25Z</time>
<desc><![CDATA[lat.=36.670294, lon.=137.760875, Alt.=2473.705292m. Speed=2.000000m/h.]]></desc>
</trkpt>
<trkpt lat="36.670271" lon="137.760873">
<ele>2475.374089</ele>
<time>2014-08-17T03:45:30Z</time>
<desc><![CDATA[lat.=36.670271, lon.=137.760873, Alt.=2475.374089m. Speed=2.000000m/h.]]></desc>
</trkpt>
<trkpt lat="36.670267" lon="137.760912">
<ele>2476.077186</ele>
<time>2014-08-17T03:45:35Z</time>
<desc><![CDATA[lat.=36.670267, lon.=137.760912, Alt.=2476.077186m. Speed=2.000000m/h.]]></desc>
</trkpt>
<trkpt lat="36.670238" lon="137.760896">
<ele>2475.363926</ele>
<time>2014-08-17T03:45:40Z</time>
<desc><![CDATA[lat.=36.670238, lon.=137.760896, Alt.=2475.363926m. Speed=3.000000m/h.]]></desc>
</trkpt>
<trkpt lat="36.670213" lon="137.760872">
<ele>2474.056846</ele>
<time>2014-08-17T03:45:45Z</time>
<desc><![CDATA[lat.=36.670213, lon.=137.760872, Alt.=2474.056846m. Speed=3.000000m/h.]]></desc>
</trkpt>
<trkpt lat="36.670183" lon="137.760870">
<ele>2475.128439</ele>
<time>2014-08-17T03:45:50Z</time>
<desc><![CDATA[lat.=36.670183, lon.=137.760870, Alt.=2475.128439m. Speed=2.000000m/h.]]></desc>
</trkpt>
<trkpt lat="36.670157" lon="137.760861">
<ele>2475.606213</ele>
<time>2014-08-17T03:45:55Z</time>
<desc><![CDATA[lat.=36.670157, lon.=137.760861, Alt.=2475.606213m. Speed=2.000000m/h.]]></desc>
</trkpt>
<trkpt lat="36.670140" lon="137.760821">
<ele>2474.841709</ele>
<time>2014-08-17T03:46:00Z</time>
<desc><![CDATA[lat.=36.670140, lon.=137.760821, Alt.=2474.841709m. Speed=2.000000m/h.]]></desc>
</trkpt>
<trkpt lat="36.670126" lon="137.760789">
<ele>2475.268235</ele>
<time>2014-08-17T03:46:05Z</time>
<desc><![CDATA[lat.=36.670126, lon.=137.760789, Alt.=2475.268235m. Speed=2.000000m/h.]]></desc>
</trkpt>
<trkpt lat="36.670107" lon="137.760812">
<ele>2474.722278</ele>
<time>2014-08-17T03:46:10Z</time>
<desc><![CDATA[lat.=36.670107, lon.=137.760812, Alt.=2474.722278m. Speed=2.000000m/h.]]></desc>
</trkpt>
<trkpt lat="36.670093" lon="137.760796">
<ele>2473.473229</ele>
<time>2014-08-17T03:46:15Z</time>
<desc><![CDATA[lat.=36.670093, lon.=137.760796, Alt.=2473.473229m. Speed=1.000000m/h.]]></desc>
</trkpt>
<trkpt lat="36.670079" lon="137.760763">
<ele>2475.629970</ele>
<time>2014-08-17T03:46:20Z</time>
<desc><![CDATA[lat.=36.670079, lon.=137.760763, Alt.=2475.629970m. Speed=2.000000m/h.]]></desc>
</trkpt>
<trkpt lat="36.670063" lon="137.760778">
<ele>2476.220406</ele>
<time>2014-08-17T03:46:25Z</time>
<desc><![CDATA[lat.=36.670063, lon.=137.760778, Alt.=2476.220406m. Speed=2.000000m/h.]]></desc>
</trkpt>
<trkpt lat="36.670068" lon="137.760839">
<ele>2482.226797</ele>
<time>2014-08-17T03:46:30Z</time>
<desc><![CDATA[lat.=36.670068, lon.=137.760839, Alt.=2482.226797m. Speed=2.000000m/h.]]></desc>
</trkpt>
<trkpt lat="36.670046" lon="137.760823">
<ele>2482.110755</ele>
<time>2014-08-17T03:46:35Z</time>
<desc><![CDATA[lat.=36.670046, lon.=137.760823, Alt.=2482.110755m. Speed=2.000000m/h.]]></desc>
</trkpt>
<trkpt lat="36.670017" lon="137.760806">
<ele>2481.397509</ele>
<time>2014-08-17T03:46:40Z</time>
<desc><![CDATA[lat.=36.670017, lon.=137.760806, Alt.=2481.397509m. Speed=2.000000m/h.]]></desc>
</trkpt>
<trkpt lat="36.669985" lon="137.760798">
<ele>2479.547873</ele>
<time>2014-08-17T03:46:45Z</time>
<desc><![CDATA[lat.=36.669985, lon.=137.760798, Alt.=2479.547873m. Speed=2.000000m/h.]]></desc>
</trkpt>
<trkpt lat="36.669952" lon="137.760789">
<ele>2477.698240</ele>
<time>2014-08-17T03:46:50Z</time>
<desc><![CDATA[lat.=36.669952, lon.=137.760789, Alt.=2477.698240m. Speed=3.000000m/h.]]></desc>
</trkpt>
<trkpt lat="36.669909" lon="137.760772">
<ele>2477.520805</ele>
<time>2014-08-17T03:46:55Z</time>
<desc><![CDATA[lat.=36.669909, lon.=137.760772, Alt.=2477.520805m. Speed=3.000000m/h.]]></desc>
</trkpt>
<trkpt lat="36.669861" lon="137.760779">
<ele>2476.261619</ele>
<time>2014-08-17T03:47:00Z</time>
<desc><![CDATA[lat.=36.669861, lon.=137.760779, Alt.=2476.261619m. Speed=3.000000m/h.]]></desc>
</trkpt>
<trkpt lat="36.669824" lon="137.760794">
<ele>2475.060453</ele>
<time>2014-08-17T03:47:05Z</time>
<desc><![CDATA[lat.=36.669824, lon.=137.760794, Alt.=2475.060453m. Speed=3.000000m/h.]]></desc>
</trkpt>
<trkpt lat="36.669776" lon="137.760816">
<ele>2475.586124</ele>
<time>2014-08-17T03:47:10Z</time>
<desc><![CDATA[lat.=36.669776, lon.=137.760816, Alt.=2475.586124m. Speed=3.000000m/h.]]></desc>
</trkpt>
<trkpt lat="36.669750" lon="137.760806">
<ele>2477.794132</ele>
<time>2014-08-17T03:47:15Z</time>
<desc><![CDATA[lat.=36.669750, lon.=137.760806, Alt.=2477.794132m. Speed=3.000000m/h.]]></desc>
</trkpt>
<trkpt lat="36.669706" lon="137.760804">
<ele>2477.671350</ele>
<time>2014-08-17T03:47:20Z</time>
<desc><![CDATA[lat.=36.669706, lon.=137.760804, Alt.=2477.671350m. Speed=3.000000m/h.]]></desc>
</trkpt>
<trkpt lat="36.669676" lon="137.760804">
<ele>2477.012760</ele>
<time>2014-08-17T03:47:25Z</time>
<desc><![CDATA[lat.=36.669676, lon.=137.760804, Alt.=2477.012760m. Speed=3.000000m/h.]]></desc>
</trkpt>
<trkpt lat="36.669618" lon="137.760854">
<ele>2483.971374</ele>
<time>2014-08-17T03:47:30Z</time>
<desc><![CDATA[lat.=36.669618, lon.=137.760854, Alt.=2483.971374m. Speed=3.000000m/h.]]></desc>
</trkpt>
<trkpt lat="36.669588" lon="137.760868">
<ele>2486.827852</ele>
<time>2014-08-17T03:47:35Z</time>
<desc><![CDATA[lat.=36.669588, lon.=137.760868, Alt.=2486.827852m. Speed=3.000000m/h.]]></desc>
</trkpt>
<trkpt lat="36.669555" lon="137.760859">
<ele>2484.978243</ele>
<time>2014-08-17T03:47:40Z</time>
<desc><![CDATA[lat.=36.669555, lon.=137.760859, Alt.=2484.978243m. Speed=3.000000m/h.]]></desc>
</trkpt>
<trkpt lat="36.669513" lon="137.760828">
<ele>2481.285776</ele>
<time>2014-08-17T03:47:45Z</time>
<desc><![CDATA[lat.=36.669513, lon.=137.760828, Alt.=2481.285776m. Speed=3.000000m/h.]]></desc>
</trkpt>
<trkpt lat="36.669488" lon="137.760786">
<ele>2483.384524</ele>
<time>2014-08-17T03:47:50Z</time>
<desc><![CDATA[lat.=36.669488, lon.=137.760786, Alt.=2483.384524m. Speed=4.000000m/h.]]></desc>
</trkpt>
<trkpt lat="36.669440" lon="137.760761">
<ele>2483.746317</ele>
<time>2014-08-17T03:47:55Z</time>
<desc><![CDATA[lat.=36.669440, lon.=137.760761, Alt.=2483.746317m. Speed=4.000000m/h.]]></desc>
</trkpt>
<trkpt lat="36.669393" lon="137.760735">
<ele>2484.108117</ele>
<time>2014-08-17T03:48:00Z</time>
<desc><![CDATA[lat.=36.669393, lon.=137.760735, Alt.=2484.108117m. Speed=4.000000m/h.]]></desc>
</trkpt>
<trkpt lat="36.669353" lon="137.760694">
<ele>2485.012482</ele>
<time>2014-08-17T03:48:05Z</time>
<desc><![CDATA[lat.=36.669353, lon.=137.760694, Alt.=2485.012482m. Speed=4.000000m/h.]]></desc>
</trkpt>
<trkpt lat="36.669318" lon="137.760646">
<ele>2483.592813</ele>
<time>2014-08-17T03:48:10Z</time>
<desc><![CDATA[lat.=36.669318, lon.=137.760646, Alt.=2483.592813m. Speed=4.000000m/h.]]></desc>
</trkpt>
<trkpt lat="36.669294" lon="137.760606">
<ele>2480.500939</ele>
<time>2014-08-17T03:48:15Z</time>
<desc><![CDATA[lat.=36.669294, lon.=137.760606, Alt.=2480.500939m. Speed=4.000000m/h.]]></desc>
</trkpt>
<trkpt lat="36.669257" lon="137.760590">
<ele>2479.190544</ele>
<time>2014-08-17T03:48:20Z</time>
<desc><![CDATA[lat.=36.669257, lon.=137.760590, Alt.=2479.190544m. Speed=4.000000m/h.]]></desc>
</trkpt>
<trkpt lat="36.669218" lon="137.760548">
<ele>2480.094928</ele>
<time>2014-08-17T03:48:25Z</time>
<desc><![CDATA[lat.=36.669218, lon.=137.760548, Alt.=2480.094928m. Speed=4.000000m/h.]]></desc>
</trkpt>
<trkpt lat="36.669178" lon="137.760508">
<ele>2479.269103</ele>
<time>2014-08-17T03:48:30Z</time>
<desc><![CDATA[lat.=36.669178, lon.=137.760508, Alt.=2479.269103m. Speed=4.000000m/h.]]></desc>
</trkpt>
<trkpt lat="36.669157" lon="137.760475">
<ele>2479.098474</ele>
<time>2014-08-17T03:48:35Z</time>
<desc><![CDATA[lat.=36.669157, lon.=137.760475, Alt.=2479.098474m. Speed=3.000000m/h.]]></desc>
</trkpt>
<trkpt lat="36.669111" lon="137.760436">
<ele>2475.945250</ele>
<time>2014-08-17T03:48:40Z</time>
<desc><![CDATA[lat.=36.669111, lon.=137.760436, Alt.=2475.945250m. Speed=4.000000m/h.]]></desc>
</trkpt>
<trkpt lat="36.669089" lon="137.760386">
<ele>2479.180427</ele>
<time>2014-08-17T03:48:45Z</time>
<desc><![CDATA[lat.=36.669089, lon.=137.760386, Alt.=2479.180427m. Speed=4.000000m/h.]]></desc>
</trkpt>
<trkpt lat="36.669052" lon="137.760368">
<ele>2481.330479</ele>
<time>2014-08-17T03:48:50Z</time>
<desc><![CDATA[lat.=36.669052, lon.=137.760368, Alt.=2481.330479m. Speed=4.000000m/h.]]></desc>
</trkpt>
<trkpt lat="36.669015" lon="137.760350">
<ele>2483.480535</ele>
<time>2014-08-17T03:48:55Z</time>
<desc><![CDATA[lat.=36.669015, lon.=137.760350, Alt.=2483.480535m. Speed=3.000000m/h.]]></desc>
</trkpt>
<trkpt lat="36.668973" lon="137.760302">
<ele>2479.733505</ele>
<time>2014-08-17T03:49:00Z</time>
<desc><![CDATA[lat.=36.668973, lon.=137.760302, Alt.=2479.733505m. Speed=3.000000m/h.]]></desc>
</trkpt>
<trkpt lat="36.668941" lon="137.760263">
<ele>2477.774687</ele>
<time>2014-08-17T03:49:05Z</time>
<desc><![CDATA[lat.=36.668941, lon.=137.760263, Alt.=2477.774687m. Speed=3.000000m/h.]]></desc>
</trkpt>
<trkpt lat="36.668901" lon="137.760254">
<ele>2475.327935</ele>
<time>2014-08-17T03:49:10Z</time>
<desc><![CDATA[lat.=36.668901, lon.=137.760254, Alt.=2475.327935m. Speed=3.000000m/h.]]></desc>
</trkpt>
<trkpt lat="36.668888" lon="137.760239">
<ele>2472.348715</ele>
<time>2014-08-17T03:49:15Z</time>
<desc><![CDATA[lat.=36.668888, lon.=137.760239, Alt.=2472.348715m. Speed=2.000000m/h.]]></desc>
</trkpt>
<trkpt lat="36.668874" lon="137.760223">
<ele>2471.099710</ele>
<time>2014-08-17T03:49:20Z</time>
<desc><![CDATA[lat.=36.668874, lon.=137.760223, Alt.=2471.099710m. Speed=2.000000m/h.]]></desc>
</trkpt>
<trkpt lat="36.668845" lon="137.760192">
<ele>2468.601702</ele>
<time>2014-08-17T03:49:25Z</time>
<desc><![CDATA[lat.=36.668845, lon.=137.760192, Alt.=2468.601702m. Speed=3.000000m/h.]]></desc>
</trkpt>
<trkpt lat="36.668798" lon="137.760166">
<ele>2468.963574</ele>
<time>2014-08-17T03:49:30Z</time>
<desc><![CDATA[lat.=36.668798, lon.=137.760166, Alt.=2468.963574m. Speed=3.000000m/h.]]></desc>
</trkpt>
<trkpt lat="36.668758" lon="137.760141">
<ele>2469.922639</ele>
<time>2014-08-17T03:49:35Z</time>
<desc><![CDATA[lat.=36.668758, lon.=137.760141, Alt.=2469.922639m. Speed=3.000000m/h.]]></desc>
</trkpt>
<trkpt lat="36.668719" lon="137.760117">
<ele>2467.421278</ele>
<time>2014-08-17T03:49:40Z</time>
<desc><![CDATA[lat.=36.668719, lon.=137.760117, Alt.=2467.421278m. Speed=3.000000m/h.]]></desc>
</trkpt>
<trkpt lat="36.668676" lon="137.760084">
<ele>2465.459124</ele>
<time>2014-08-17T03:49:45Z</time>
<desc><![CDATA[lat.=36.668676, lon.=137.760084, Alt.=2465.459124m. Speed=3.000000m/h.]]></desc>
</trkpt>
<trkpt lat="36.668639" lon="137.760067">
<ele>2465.878998</ele>
<time>2014-08-17T03:49:50Z</time>
<desc><![CDATA[lat.=36.668639, lon.=137.760067, Alt.=2465.878998m. Speed=3.000000m/h.]]></desc>
</trkpt>
<trkpt lat="36.668603" lon="137.760034">
<ele>2466.244253</ele>
<time>2014-08-17T03:49:55Z</time>
<desc><![CDATA[lat.=36.668603, lon.=137.760034, Alt.=2466.244253m. Speed=3.000000m/h.]]></desc>
</trkpt>
<trkpt lat="36.668567" lon="137.760001">
<ele>2464.879297</ele>
<time>2014-08-17T03:50:00Z</time>
<desc><![CDATA[lat.=36.668567, lon.=137.760001, Alt.=2464.879297m. Speed=3.000000m/h.]]></desc>
</trkpt>
<trkpt lat="36.668517" lon="137.759970">
<ele>2460.589760</ele>
<time>2014-08-17T03:50:05Z</time>
<desc><![CDATA[lat.=36.668517, lon.=137.759970, Alt.=2460.589760m. Speed=4.000000m/h.]]></desc>
</trkpt>
<trkpt lat="36.668489" lon="137.759937">
<ele>2459.821997</ele>
<time>2014-08-17T03:50:10Z</time>
<desc><![CDATA[lat.=36.668489, lon.=137.759937, Alt.=2459.821997m. Speed=4.000000m/h.]]></desc>
</trkpt>
<trkpt lat="36.668445" lon="137.759903">
<ele>2463.050514</ele>
<time>2014-08-17T03:50:15Z</time>
<desc><![CDATA[lat.=36.668445, lon.=137.759903, Alt.=2463.050514m. Speed=4.000000m/h.]]></desc>
</trkpt>
<trkpt lat="36.668391" lon="137.759880">
<ele>2457.624604</ele>
<time>2014-08-17T03:50:20Z</time>
<desc><![CDATA[lat.=36.668391, lon.=137.759880, Alt.=2457.624604m. Speed=3.000000m/h.]]></desc>
</trkpt>
<trkpt lat="36.668347" lon="137.759877">
<ele>2459.232155</ele>
<time>2014-08-17T03:50:25Z</time>
<desc><![CDATA[lat.=36.668347, lon.=137.759877, Alt.=2459.232155m. Speed=3.000000m/h.]]></desc>
</trkpt>
<trkpt lat="36.668296" lon="137.759860">
<ele>2458.457693</ele>
<time>2014-08-17T03:50:30Z</time>
<desc><![CDATA[lat.=36.668296, lon.=137.759860, Alt.=2458.457693m. Speed=3.000000m/h.]]></desc>
</trkpt>
<trkpt lat="36.668266" lon="137.759842">
<ele>2461.204995</ele>
<time>2014-08-17T03:50:35Z</time>
<desc><![CDATA[lat.=36.668266, lon.=137.759842, Alt.=2461.204995m. Speed=3.000000m/h.]]></desc>
</trkpt>
<trkpt lat="36.668224" lon="137.759894">
<ele>2464.167422</ele>
<time>2014-08-17T03:50:40Z</time>
<desc><![CDATA[lat.=36.668224, lon.=137.759894, Alt.=2464.167422m. Speed=3.000000m/h.]]></desc>
</trkpt>
<trkpt lat="36.668179" lon="137.759924">
<ele>2465.884227</ele>
<time>2014-08-17T03:50:45Z</time>
<desc><![CDATA[lat.=36.668179, lon.=137.759924, Alt.=2465.884227m. Speed=4.000000m/h.]]></desc>
</trkpt>
<trkpt lat="36.668148" lon="137.759953">
<ele>2468.795396</ele>
<time>2014-08-17T03:50:50Z</time>
<desc><![CDATA[lat.=36.668148, lon.=137.759953, Alt.=2468.795396m. Speed=3.000000m/h.]]></desc>
</trkpt>
<trkpt lat="36.668108" lon="137.759944">
<ele>2468.078923</ele>
<time>2014-08-17T03:50:55Z</time>
<desc><![CDATA[lat.=36.668108, lon.=137.759944, Alt.=2468.078923m. Speed=3.000000m/h.]]></desc>
</trkpt>
<trkpt lat="36.668071" lon="137.759959">
<ele>2466.877867</ele>
<time>2014-08-17T03:51:00Z</time>
<desc><![CDATA[lat.=36.668071, lon.=137.759959, Alt.=2466.877867m. Speed=3.000000m/h.]]></desc>
</trkpt>
<trkpt lat="36.668026" lon="137.759988">
<ele>2468.594688</ele>
<time>2014-08-17T03:51:05Z</time>
<desc><![CDATA[lat.=36.668026, lon.=137.759988, Alt.=2468.594688m. Speed=3.000000m/h.]]></desc>
</trkpt>
<trkpt lat="36.667987" lon="137.760033">
<ele>2470.963313</ele>
<time>2014-08-17T03:51:10Z</time>
<desc><![CDATA[lat.=36.667987, lon.=137.760033, Alt.=2470.963313m. Speed=3.000000m/h.]]></desc>
</trkpt>
<trkpt lat="36.667953" lon="137.760055">
<ele>2472.683490</ele>
<time>2014-08-17T03:51:15Z</time>
<desc><![CDATA[lat.=36.667953, lon.=137.760055, Alt.=2472.683490m. Speed=3.000000m/h.]]></desc>
</trkpt>
<trkpt lat="36.667938" lon="137.760119">
<ele>2469.977416</ele>
<time>2014-08-17T03:51:20Z</time>
<desc><![CDATA[lat.=36.667938, lon.=137.760119, Alt.=2469.977416m. Speed=3.000000m/h.]]></desc>
</trkpt>
<trkpt lat="36.667907" lon="137.760166">
<ele>2469.482801</ele>
<time>2014-08-17T03:51:25Z</time>
<desc><![CDATA[lat.=36.667907, lon.=137.760166, Alt.=2469.482801m. Speed=3.000000m/h.]]></desc>
</trkpt>
<trkpt lat="36.667893" lon="137.760198">
<ele>2466.667485</ele>
<time>2014-08-17T03:51:30Z</time>
<desc><![CDATA[lat.=36.667893, lon.=137.760198, Alt.=2466.667485m. Speed=3.000000m/h.]]></desc>
</trkpt>
<trkpt lat="36.667870" lon="137.760213">
<ele>2466.660800</ele>
<time>2014-08-17T03:51:35Z</time>
<desc><![CDATA[lat.=36.667870, lon.=137.760213, Alt.=2466.660800m. Speed=3.000000m/h.]]></desc>
</trkpt>
<trkpt lat="36.667836" lon="137.760251">
<ele>2468.435616</ele>
<time>2014-08-17T03:51:40Z</time>
<desc><![CDATA[lat.=36.667836, lon.=137.760251, Alt.=2468.435616m. Speed=3.000000m/h.]]></desc>
</trkpt>
<trkpt lat="36.667806" lon="137.760298">
<ele>2466.210799</ele>
<time>2014-08-17T03:51:45Z</time>
<desc><![CDATA[lat.=36.667806, lon.=137.760298, Alt.=2466.210799m. Speed=3.000000m/h.]]></desc>
</trkpt>
<trkpt lat="36.667822" lon="137.760353">
<ele>2468.760043</ele>
<time>2014-08-17T03:51:50Z</time>
<desc><![CDATA[lat.=36.667822, lon.=137.760353, Alt.=2468.760043m. Speed=3.000000m/h.]]></desc>
</trkpt>
<trkpt lat="36.667811" lon="137.760376">
<ele>2468.811332</ele>
<time>2014-08-17T03:51:55Z</time>
<desc><![CDATA[lat.=36.667811, lon.=137.760376, Alt.=2468.811332m. Speed=2.000000m/h.]]></desc>
</trkpt>
<trkpt lat="36.667777" lon="137.760414">
<ele>2470.586160</ele>
<time>2014-08-17T03:52:00Z</time>
<desc><![CDATA[lat.=36.667777, lon.=137.760414, Alt.=2470.586160m. Speed=3.000000m/h.]]></desc>
</trkpt>
<trkpt lat="36.667731" lon="137.760458">
<ele>2474.087869</ele>
<time>2014-08-17T03:52:05Z</time>
<desc><![CDATA[lat.=36.667731, lon.=137.760458, Alt.=2474.087869m. Speed=4.000000m/h.]]></desc>
</trkpt>
<trkpt lat="36.667699" lon="137.760520">
<ele>2475.378134</ele>
<time>2014-08-17T03:52:10Z</time>
<desc><![CDATA[lat.=36.667699, lon.=137.760520, Alt.=2475.378134m. Speed=4.000000m/h.]]></desc>
</trkpt>
<trkpt lat="36.667655" lon="137.760567">
<ele>2473.689211</ele>
<time>2014-08-17T03:52:15Z</time>
<desc><![CDATA[lat.=36.667655, lon.=137.760567, Alt.=2473.689211m. Speed=4.000000m/h.]]></desc>
</trkpt>
<trkpt lat="36.667642" lon="137.760621">
<ele>2475.579993</ele>
<time>2014-08-17T03:52:20Z</time>
<desc><![CDATA[lat.=36.667642, lon.=137.760621, Alt.=2475.579993m. Speed=4.000000m/h.]]></desc>
</trkpt>
<trkpt lat="36.667618" lon="137.760682">
<ele>2477.467447</ele>
<time>2014-08-17T03:52:25Z</time>
<desc><![CDATA[lat.=36.667618, lon.=137.760682, Alt.=2477.467447m. Speed=4.000000m/h.]]></desc>
</trkpt>
<trkpt lat="36.667596" lon="137.760697">
<ele>2477.460783</ele>
<time>2014-08-17T03:52:30Z</time>
<desc><![CDATA[lat.=36.667596, lon.=137.760697, Alt.=2477.460783m. Speed=3.000000m/h.]]></desc>
</trkpt>
<trkpt lat="36.667566" lon="137.760729">
<ele>2475.181370</ele>
<time>2014-08-17T03:52:35Z</time>
<desc><![CDATA[lat.=36.667566, lon.=137.760729, Alt.=2475.181370m. Speed=3.000000m/h.]]></desc>
</trkpt>
<trkpt lat="36.667518" lon="137.760752">
<ele>2473.977037</ele>
<time>2014-08-17T03:52:40Z</time>
<desc><![CDATA[lat.=36.667518, lon.=137.760752, Alt.=2473.977037m. Speed=3.000000m/h.]]></desc>
</trkpt>
<trkpt lat="36.667489" lon="137.760752">
<ele>2469.858141</ele>
<time>2014-08-17T03:52:45Z</time>
<desc><![CDATA[lat.=36.667489, lon.=137.760752, Alt.=2469.858141m. Speed=3.000000m/h.]]></desc>
</trkpt>
<trkpt lat="36.667434" lon="137.760758">
<ele>2471.462439</ele>
<time>2014-08-17T03:52:50Z</time>
<desc><![CDATA[lat.=36.667434, lon.=137.760758, Alt.=2471.462439m. Speed=3.000000m/h.]]></desc>
</trkpt>
<trkpt lat="36.667377" lon="137.760810">
<ele>2473.230657</ele>
<time>2014-08-17T03:52:55Z</time>
<desc><![CDATA[lat.=36.667377, lon.=137.760810, Alt.=2473.230657m. Speed=4.000000m/h.]]></desc>
</trkpt>
<trkpt lat="36.667335" lon="137.760848">
<ele>2474.408365</ele>
<time>2014-08-17T03:53:00Z</time>
<desc><![CDATA[lat.=36.667335, lon.=137.760848, Alt.=2474.408365m. Speed=4.000000m/h.]]></desc>
</trkpt>
<trkpt lat="36.667313" lon="137.760879">
<ele>2472.726141</ele>
<time>2014-08-17T03:53:05Z</time>
<desc><![CDATA[lat.=36.667313, lon.=137.760879, Alt.=2472.726141m. Speed=4.000000m/h.]]></desc>
</trkpt>
<trkpt lat="36.667287" lon="137.760903">
<ele>2471.583122</ele>
<time>2014-08-17T03:53:10Z</time>
<desc><![CDATA[lat.=36.667287, lon.=137.760903, Alt.=2471.583122m. Speed=3.000000m/h.]]></desc>
</trkpt>
<trkpt lat="36.667260" lon="137.760940">
<ele>2473.955177</ele>
<time>2014-08-17T03:53:15Z</time>
<desc><![CDATA[lat.=36.667260, lon.=137.760940, Alt.=2473.955177m. Speed=3.000000m/h.]]></desc>
</trkpt>
<trkpt lat="36.667240" lon="137.760978">
<ele>2476.924400</ele>
<time>2014-08-17T03:53:20Z</time>
<desc><![CDATA[lat.=36.667240, lon.=137.760978, Alt.=2476.924400m. Speed=3.000000m/h.]]></desc>
</trkpt>
<trkpt lat="36.667213" lon="137.761000">
<ele>2479.241818</ele>
<time>2014-08-17T03:53:25Z</time>
<desc><![CDATA[lat.=36.667213, lon.=137.761000, Alt.=2479.241818m. Speed=3.000000m/h.]]></desc>
</trkpt>
<trkpt lat="36.667191" lon="137.761015">
<ele>2479.235177</ele>
<time>2014-08-17T03:53:30Z</time>
<desc><![CDATA[lat.=36.667191, lon.=137.761015, Alt.=2479.235177m. Speed=2.000000m/h.]]></desc>
</trkpt>
<trkpt lat="36.667178" lon="137.761053">
<ele>2481.071358</ele>
<time>2014-08-17T03:53:35Z</time>
<desc><![CDATA[lat.=36.667178, lon.=137.761053, Alt.=2481.071358m. Speed=2.000000m/h.]]></desc>
</trkpt>
<trkpt lat="36.667174" lon="137.761077">
<ele>2479.989633</ele>
<time>2014-08-17T03:53:40Z</time>
<desc><![CDATA[lat.=36.667174, lon.=137.761077, Alt.=2479.989633m. Speed=2.000000m/h.]]></desc>
</trkpt>
<trkpt lat="36.667134" lon="137.761083">
<ele>2481.058082</ele>
<time>2014-08-17T03:53:45Z</time>
<desc><![CDATA[lat.=36.667134, lon.=137.761083, Alt.=2481.058082m. Speed=2.000000m/h.]]></desc>
</trkpt>
<trkpt lat="36.667118" lon="137.761082">
<ele>2483.324182</ele>
<time>2014-08-17T03:53:50Z</time>
<desc><![CDATA[lat.=36.667118, lon.=137.761082, Alt.=2483.324182m. Speed=2.000000m/h.]]></desc>
</trkpt>
<trkpt lat="36.667113" lon="137.761120">
<ele>2485.757533</ele>
<time>2014-08-17T03:53:55Z</time>
<desc><![CDATA[lat.=36.667113, lon.=137.761120, Alt.=2485.757533m. Speed=2.000000m/h.]]></desc>
</trkpt>
<trkpt lat="36.667116" lon="137.761160">
<ele>2485.327620</ele>
<time>2014-08-17T03:54:00Z</time>
<desc><![CDATA[lat.=36.667116, lon.=137.761160, Alt.=2485.327620m. Speed=2.000000m/h.]]></desc>
</trkpt>
<trkpt lat="36.667113" lon="137.761152">
<ele>2484.136608</ele>
<time>2014-08-17T03:54:05Z</time>
<desc><![CDATA[lat.=36.667113, lon.=137.761152, Alt.=2484.136608m. Speed=0.000000m/h.]]></desc>
</trkpt>
<trkpt lat="36.667098" lon="137.761167">
<ele>2484.727139</ele>
<time>2014-08-17T03:54:10Z</time>
<desc><![CDATA[lat.=36.667098, lon.=137.761167, Alt.=2484.727139m. Speed=2.000000m/h.]]></desc>
</trkpt>
<trkpt lat="36.667068" lon="137.761165">
<ele>2487.529125</ele>
<time>2014-08-17T03:54:15Z</time>
<desc><![CDATA[lat.=36.667068, lon.=137.761165, Alt.=2487.529125m. Speed=2.000000m/h.]]></desc>
</trkpt>
<trkpt lat="36.667042" lon="137.761172">
<ele>2486.331482</ele>
<time>2014-08-17T03:54:20Z</time>
<desc><![CDATA[lat.=36.667042, lon.=137.761172, Alt.=2486.331482m. Speed=2.000000m/h.]]></desc>
</trkpt>
<trkpt lat="36.667034" lon="137.761188">
<ele>2485.788964</ele>
<time>2014-08-17T03:54:25Z</time>
<desc><![CDATA[lat.=36.667034, lon.=137.761188, Alt.=2485.788964m. Speed=2.000000m/h.]]></desc>
</trkpt>
<trkpt lat="36.667026" lon="137.761219">
<ele>2487.031308</ele>
<time>2014-08-17T03:54:30Z</time>
<desc><![CDATA[lat.=36.667026, lon.=137.761219, Alt.=2487.031308m. Speed=1.000000m/h.]]></desc>
</trkpt>
<trkpt lat="36.667029" lon="137.761242">
<ele>2488.276967</ele>
<time>2014-08-17T03:54:35Z</time>
<desc><![CDATA[lat.=36.667029, lon.=137.761242, Alt.=2488.276967m. Speed=2.000000m/h.]]></desc>
</trkpt>
<trkpt lat="36.667025" lon="137.761266">
<ele>2488.925464</ele>
<time>2014-08-17T03:54:40Z</time>
<desc><![CDATA[lat.=36.667025, lon.=137.761266, Alt.=2488.925464m. Speed=2.000000m/h.]]></desc>
</trkpt>
<trkpt lat="36.667032" lon="137.761282">
<ele>2487.847061</ele>
<time>2014-08-17T03:54:45Z</time>
<desc><![CDATA[lat.=36.667032, lon.=137.761282, Alt.=2487.847061m. Speed=1.000000m/h.]]></desc>
</trkpt>
<trkpt lat="36.667039" lon="137.761282">
<ele>2488.444225</ele>
<time>2014-08-17T03:54:57Z</time>
<desc><![CDATA[lat.=36.667039, lon.=137.761282, Alt.=2488.444225m. Speed=0.000000m/h.]]></desc>
</trkpt>
<trkpt lat="36.667043" lon="137.761291">
<ele>2487.905023</ele>
<time>2014-08-17T03:55:06Z</time>
<desc><![CDATA[lat.=36.667043, lon.=137.761291, Alt.=2487.905023m. Speed=0.000000m/h.]]></desc>
</trkpt>
<trkpt lat="36.667039" lon="137.761282">
<ele>2488.444225</ele>
<time>2014-08-17T03:55:14Z</time>
<desc><![CDATA[lat.=36.667039, lon.=137.761282, Alt.=2488.444225m. Speed=0.000000m/h.]]></desc>
</trkpt>
<trkpt lat="36.667050" lon="137.761291">
<ele>2488.502187</ele>
<time>2014-08-17T03:55:19Z</time>
<desc><![CDATA[lat.=36.667050, lon.=137.761291, Alt.=2488.502187m. Speed=0.000000m/h.]]></desc>
</trkpt>
<trkpt lat="36.667046" lon="137.761298">
<ele>2489.096037</ele>
<time>2014-08-17T03:55:24Z</time>
<desc><![CDATA[lat.=36.667046, lon.=137.761298, Alt.=2489.096037m. Speed=0.000000m/h.]]></desc>
</trkpt>
<trkpt lat="36.667053" lon="137.761298">
<ele>2489.693201</ele>
<time>2014-08-17T03:55:29Z</time>
<desc><![CDATA[lat.=36.667053, lon.=137.761298, Alt.=2489.693201m. Speed=0.000000m/h.]]></desc>
</trkpt>
<trkpt lat="36.667050" lon="137.761290">
<ele>2490.232402</ele>
<time>2014-08-17T03:55:36Z</time>
<desc><![CDATA[lat.=36.667050, lon.=137.761290, Alt.=2490.232402m. Speed=0.000000m/h.]]></desc>
</trkpt>
<trkpt lat="36.667031" lon="137.761297">
<ele>2491.362138</ele>
<time>2014-08-17T03:55:41Z</time>
<desc><![CDATA[lat.=36.667031, lon.=137.761297, Alt.=2491.362138m. Speed=2.000000m/h.]]></desc>
</trkpt>
<trkpt lat="36.667015" lon="137.761327">
<ele>2493.737538</ele>
<time>2014-08-17T03:55:46Z</time>
<desc><![CDATA[lat.=36.667015, lon.=137.761327, Alt.=2493.737538m. Speed=2.000000m/h.]]></desc>
</trkpt>
<trkpt lat="36.667014" lon="137.761357">
<ele>2495.577051</ele>
<time>2014-08-17T03:55:51Z</time>
<desc><![CDATA[lat.=36.667014, lon.=137.761357, Alt.=2495.577051m. Speed=2.000000m/h.]]></desc>
</trkpt>
<trkpt lat="36.666987" lon="137.761380">
<ele>2496.164276</ele>
<time>2014-08-17T03:55:56Z</time>
<desc><![CDATA[lat.=36.666987, lon.=137.761380, Alt.=2496.164276m. Speed=2.000000m/h.]]></desc>
</trkpt>
<trkpt lat="36.666969" lon="137.761403">
<ele>2495.618451</ele>
<time>2014-08-17T03:56:01Z</time>
<desc><![CDATA[lat.=36.666969, lon.=137.761403, Alt.=2495.618451m. Speed=2.000000m/h.]]></desc>
</trkpt>
<trkpt lat="36.666943" lon="137.761427">
<ele>2494.475465</ele>
<time>2014-08-17T03:56:06Z</time>
<desc><![CDATA[lat.=36.666943, lon.=137.761427, Alt.=2494.475465m. Speed=2.000000m/h.]]></desc>
</trkpt>
<trkpt lat="36.666920" lon="137.761442">
<ele>2492.738629</ele>
<time>2014-08-17T03:56:11Z</time>
<desc><![CDATA[lat.=36.666920, lon.=137.761442, Alt.=2492.738629m. Speed=2.000000m/h.]]></desc>
</trkpt>
<trkpt lat="36.666891" lon="137.761457">
<ele>2492.134848</ele>
<time>2014-08-17T03:56:16Z</time>
<desc><![CDATA[lat.=36.666891, lon.=137.761457, Alt.=2492.134848m. Speed=2.000000m/h.]]></desc>
</trkpt>
<trkpt lat="36.666842" lon="137.761478">
<ele>2494.391028</ele>
<time>2014-08-17T03:56:21Z</time>
<desc><![CDATA[lat.=36.666842, lon.=137.761478, Alt.=2494.391028m. Speed=3.000000m/h.]]></desc>
</trkpt>
<trkpt lat="36.666786" lon="137.761483">
<ele>2497.725615</ele>
<time>2014-08-17T03:56:26Z</time>
<desc><![CDATA[lat.=36.666786, lon.=137.761483, Alt.=2497.725615m. Speed=3.000000m/h.]]></desc>
</trkpt>
<trkpt lat="36.666745" lon="137.761490">
<ele>2497.063883</ele>
<time>2014-08-17T03:56:31Z</time>
<desc><![CDATA[lat.=36.666745, lon.=137.761490, Alt.=2497.063883m. Speed=3.000000m/h.]]></desc>
</trkpt>
<trkpt lat="36.666686" lon="137.761502">
<ele>2499.262120</ele>
<time>2014-08-17T03:56:36Z</time>
<desc><![CDATA[lat.=36.666686, lon.=137.761502, Alt.=2499.262120m. Speed=4.000000m/h.]]></desc>
</trkpt>
<trkpt lat="36.666643" lon="137.761470">
<ele>2497.300079</ele>
<time>2014-08-17T03:56:41Z</time>
<desc><![CDATA[lat.=36.666643, lon.=137.761470, Alt.=2497.300079m. Speed=4.000000m/h.]]></desc>
</trkpt>
<trkpt lat="36.666592" lon="137.761453">
<ele>2496.525752</ele>
<time>2014-08-17T03:56:46Z</time>
<desc><![CDATA[lat.=36.666592, lon.=137.761453, Alt.=2496.525752m. Speed=4.000000m/h.]]></desc>
</trkpt>
<trkpt lat="36.666550" lon="137.761473">
<ele>2501.109332</ele>
<time>2014-08-17T03:56:51Z</time>
<desc><![CDATA[lat.=36.666550, lon.=137.761473, Alt.=2501.109332m. Speed=4.000000m/h.]]></desc>
</trkpt>
<trkpt lat="36.666487" lon="137.761494">
<ele>2502.171232</ele>
<time>2014-08-17T03:56:56Z</time>
<desc><![CDATA[lat.=36.666487, lon.=137.761494, Alt.=2502.171232m. Speed=4.000000m/h.]]></desc>
</trkpt>
<trkpt lat="36.666453" lon="137.761517">
<ele>2500.431117</ele>
<time>2014-08-17T03:57:01Z</time>
<desc><![CDATA[lat.=36.666453, lon.=137.761517, Alt.=2500.431117m. Speed=4.000000m/h.]]></desc>
</trkpt>
<trkpt lat="36.666427" lon="137.761556">
<ele>2499.342814</ele>
<time>2014-08-17T03:57:06Z</time>
<desc><![CDATA[lat.=36.666427, lon.=137.761556, Alt.=2499.342814m. Speed=3.000000m/h.]]></desc>
</trkpt>
<trkpt lat="36.666408" lon="137.761596">
<ele>2498.851670</ele>
<time>2014-08-17T03:57:11Z</time>
<desc><![CDATA[lat.=36.666408, lon.=137.761596, Alt.=2498.851670m. Speed=3.000000m/h.]]></desc>
</trkpt>
<trkpt lat="36.666385" lon="137.761626">
<ele>2500.629945</ele>
<time>2014-08-17T03:57:16Z</time>
<desc><![CDATA[lat.=36.666385, lon.=137.761626, Alt.=2500.629945m. Speed=3.000000m/h.]]></desc>
</trkpt>
<trkpt lat="36.666351" lon="137.761648">
<ele>2500.620056</ele>
<time>2014-08-17T03:57:21Z</time>
<desc><![CDATA[lat.=36.666351, lon.=137.761648, Alt.=2500.620056m. Speed=3.000000m/h.]]></desc>
</trkpt>
<trkpt lat="36.666310" lon="137.761654">
<ele>2501.688574</ele>
<time>2014-08-17T03:57:26Z</time>
<desc><![CDATA[lat.=36.666310, lon.=137.761654, Alt.=2501.688574m. Speed=4.000000m/h.]]></desc>
</trkpt>
<trkpt lat="36.666255" lon="137.761676">
<ele>2501.617447</ele>
<time>2014-08-17T03:57:31Z</time>
<desc><![CDATA[lat.=36.666255, lon.=137.761676, Alt.=2501.617447m. Speed=4.000000m/h.]]></desc>
</trkpt>
<trkpt lat="36.666214" lon="137.761683">
<ele>2500.955758</ele>
<time>2014-08-17T03:57:36Z</time>
<desc><![CDATA[lat.=36.666214, lon.=137.761683, Alt.=2500.955758m. Speed=4.000000m/h.]]></desc>
</trkpt>
<trkpt lat="36.666176" lon="137.761712">
<ele>2503.269957</ele>
<time>2014-08-17T03:57:41Z</time>
<desc><![CDATA[lat.=36.666176, lon.=137.761712, Alt.=2503.269957m. Speed=3.000000m/h.]]></desc>
</trkpt>
<trkpt lat="36.666139" lon="137.761711">
<ele>2503.744629</ele>
<time>2014-08-17T03:57:46Z</time>
<desc><![CDATA[lat.=36.666139, lon.=137.761711, Alt.=2503.744629m. Speed=3.000000m/h.]]></desc>
</trkpt>
<trkpt lat="36.666114" lon="137.761701">
<ele>2504.222595</ele>
<time>2014-08-17T03:57:51Z</time>
<desc><![CDATA[lat.=36.666114, lon.=137.761701, Alt.=2504.222595m. Speed=3.000000m/h.]]></desc>
</trkpt>
<trkpt lat="36.666084" lon="137.761701">
<ele>2503.564207</ele>
<time>2014-08-17T03:57:56Z</time>
<desc><![CDATA[lat.=36.666084, lon.=137.761701, Alt.=2503.564207m. Speed=3.000000m/h.]]></desc>
</trkpt>
<trkpt lat="36.666048" lon="137.761668">
<ele>2503.929573</ele>
<time>2014-08-17T03:58:01Z</time>
<desc><![CDATA[lat.=36.666048, lon.=137.761668, Alt.=2503.929573m. Speed=3.000000m/h.]]></desc>
</trkpt>
<trkpt lat="36.665986" lon="137.761642">
<ele>2503.097356</ele>
<time>2014-08-17T03:58:06Z</time>
<desc><![CDATA[lat.=36.665986, lon.=137.761642, Alt.=2503.097356m. Speed=3.000000m/h.]]></desc>
</trkpt>
<trkpt lat="36.665971" lon="137.761624">
<ele>2507.039048</ele>
<time>2014-08-17T03:58:11Z</time>
<desc><![CDATA[lat.=36.665971, lon.=137.761624, Alt.=2507.039048m. Speed=3.000000m/h.]]></desc>
</trkpt>
<trkpt lat="36.665959" lon="137.761646">
<ele>2508.820631</ele>
<time>2014-08-17T03:58:16Z</time>
<desc><![CDATA[lat.=36.665959, lon.=137.761646, Alt.=2508.820631m. Speed=2.000000m/h.]]></desc>
</trkpt>
<trkpt lat="36.665948" lon="137.761670">
<ele>2508.872000</ele>
<time>2014-08-17T03:58:21Z</time>
<desc><![CDATA[lat.=36.665948, lon.=137.761670, Alt.=2508.872000m. Speed=2.000000m/h.]]></desc>
</trkpt>
<trkpt lat="36.665922" lon="137.761662">
<ele>2507.619760</ele>
<time>2014-08-17T03:58:26Z</time>
<desc><![CDATA[lat.=36.665922, lon.=137.761662, Alt.=2507.619760m. Speed=2.000000m/h.]]></desc>
</trkpt>
<trkpt lat="36.665903" lon="137.761652">
<ele>2510.425100</ele>
<time>2014-08-17T03:58:31Z</time>
<desc><![CDATA[lat.=36.665903, lon.=137.761652, Alt.=2510.425100m. Speed=2.000000m/h.]]></desc>
</trkpt>
<trkpt lat="36.665885" lon="137.761643">
<ele>2509.770010</ele>
<time>2014-08-17T03:58:36Z</time>
<desc><![CDATA[lat.=36.665885, lon.=137.761643, Alt.=2509.770010m. Speed=2.000000m/h.]]></desc>
</trkpt>
<trkpt lat="36.665878" lon="137.761627">
<ele>2510.848422</ele>
<time>2014-08-17T03:58:41Z</time>
<desc><![CDATA[lat.=36.665878, lon.=137.761627, Alt.=2510.848422m. Speed=2.000000m/h.]]></desc>
</trkpt>
<trkpt lat="36.665856" lon="137.761610">
<ele>2510.732539</ele>
<time>2014-08-17T03:58:46Z</time>
<desc><![CDATA[lat.=36.665856, lon.=137.761610, Alt.=2510.732539m. Speed=2.000000m/h.]]></desc>
</trkpt>
<trkpt lat="36.665827" lon="137.761593">
<ele>2511.749727</ele>
<time>2014-08-17T03:58:51Z</time>
<desc><![CDATA[lat.=36.665827, lon.=137.761593, Alt.=2511.749727m. Speed=2.000000m/h.]]></desc>
</trkpt>
<trkpt lat="36.665802" lon="137.761584">
<ele>2512.227709</ele>
<time>2014-08-17T03:58:56Z</time>
<desc><![CDATA[lat.=36.665802, lon.=137.761584, Alt.=2512.227709m. Speed=2.000000m/h.]]></desc>
</trkpt>
<trkpt lat="36.665776" lon="137.761575">
<ele>2512.705692</ele>
<time>2014-08-17T03:59:01Z</time>
<desc><![CDATA[lat.=36.665776, lon.=137.761575, Alt.=2512.705692m. Speed=2.000000m/h.]]></desc>
</trkpt>
<trkpt lat="36.665747" lon="137.761558">
<ele>2511.992670</ele>
<time>2014-08-17T03:59:06Z</time>
<desc><![CDATA[lat.=36.665747, lon.=137.761558, Alt.=2511.992670m. Speed=2.000000m/h.]]></desc>
</trkpt>
<trkpt lat="36.665756" lon="137.761597">
<ele>2515.620348</ele>
<time>2014-08-17T03:59:11Z</time>
<desc><![CDATA[lat.=36.665756, lon.=137.761597, Alt.=2515.620348m. Speed=2.000000m/h.]]></desc>
</trkpt>
<trkpt lat="36.665741" lon="137.761612">
<ele>2516.210927</ele>
<time>2014-08-17T03:59:16Z</time>
<desc><![CDATA[lat.=36.665741, lon.=137.761612, Alt.=2516.210927m. Speed=2.000000m/h.]]></desc>
</trkpt>
<trkpt lat="36.665723" lon="137.761603">
<ele>2517.286059</ele>
<time>2014-08-17T03:59:21Z</time>
<desc><![CDATA[lat.=36.665723, lon.=137.761603, Alt.=2517.286059m. Speed=2.000000m/h.]]></desc>
</trkpt>
<trkpt lat="36.665704" lon="137.761594">
<ele>2518.361191</ele>
<time>2014-08-17T03:59:26Z</time>
<desc><![CDATA[lat.=36.665704, lon.=137.761594, Alt.=2518.361191m. Speed=2.000000m/h.]]></desc>
</trkpt>
<trkpt lat="36.665671" lon="137.761585">
<ele>2518.242035</ele>
<time>2014-08-17T03:59:31Z</time>
<desc><![CDATA[lat.=36.665671, lon.=137.761585, Alt.=2518.242035m. Speed=2.000000m/h.]]></desc>
</trkpt>
<trkpt lat="36.665646" lon="137.761561">
<ele>2516.935155</ele>
<time>2014-08-17T03:59:36Z</time>
<desc><![CDATA[lat.=36.665646, lon.=137.761561, Alt.=2516.935155m. Speed=2.000000m/h.]]></desc>
</trkpt>
<trkpt lat="36.665617" lon="137.761542">
<ele>2519.682571</ele>
<time>2014-08-17T03:59:41Z</time>
<desc><![CDATA[lat.=36.665617, lon.=137.761542, Alt.=2519.682571m. Speed=2.000000m/h.]]></desc>
</trkpt>
<trkpt lat="36.665592" lon="137.761518">
<ele>2520.105910</ele>
<time>2014-08-17T03:59:46Z</time>
<desc><![CDATA[lat.=36.665592, lon.=137.761518, Alt.=2520.105910m. Speed=2.000000m/h.]]></desc>
</trkpt>
<trkpt lat="36.665559" lon="137.761509">
<ele>2519.986762</ele>
<time>2014-08-17T03:59:51Z</time>
<desc><![CDATA[lat.=36.665559, lon.=137.761509, Alt.=2519.986762m. Speed=2.000000m/h.]]></desc>
</trkpt>
<trkpt lat="36.665545" lon="137.761476">
<ele>2520.413385</ele>
<time>2014-08-17T03:59:56Z</time>
<desc><![CDATA[lat.=36.665545, lon.=137.761476, Alt.=2520.413385m. Speed=3.000000m/h.]]></desc>
</trkpt>
<trkpt lat="36.665508" lon="137.761459">
<ele>2520.833450</ele>
<time>2014-08-17T04:00:01Z</time>
<desc><![CDATA[lat.=36.665508, lon.=137.761459, Alt.=2520.833450m. Speed=3.000000m/h.]]></desc>
</trkpt>
<trkpt lat="36.665483" lon="137.761434">
<ele>2521.256798</ele>
<time>2014-08-17T04:00:06Z</time>
<desc><![CDATA[lat.=36.665483, lon.=137.761434, Alt.=2521.256798m. Speed=3.000000m/h.]]></desc>
</trkpt>
<trkpt lat="36.665457" lon="137.761424">
<ele>2523.465015</ele>
<time>2014-08-17T04:00:11Z</time>
<desc><![CDATA[lat.=36.665457, lon.=137.761424, Alt.=2523.465015m. Speed=2.000000m/h.]]></desc>
</trkpt>
<trkpt lat="36.665423" lon="137.761414">
<ele>2525.076092</ele>
<time>2014-08-17T04:00:16Z</time>
<desc><![CDATA[lat.=36.665423, lon.=137.761414, Alt.=2525.076092m. Speed=2.000000m/h.]]></desc>
</trkpt>
<trkpt lat="36.665413" lon="137.761390">
<ele>2524.963511</ele>
<time>2014-08-17T04:00:21Z</time>
<desc><![CDATA[lat.=36.665413, lon.=137.761390, Alt.=2524.963511m. Speed=2.000000m/h.]]></desc>
</trkpt>
<trkpt lat="36.665380" lon="137.761381">
<ele>2526.574591</ele>
<time>2014-08-17T04:00:26Z</time>
<desc><![CDATA[lat.=36.665380, lon.=137.761381, Alt.=2526.574591m. Speed=2.000000m/h.]]></desc>
</trkpt>
<trkpt lat="36.665347" lon="137.761372">
<ele>2526.455458</ele>
<time>2014-08-17T04:00:31Z</time>
<desc><![CDATA[lat.=36.665347, lon.=137.761372, Alt.=2526.455458m. Speed=2.000000m/h.]]></desc>
</trkpt>
<trkpt lat="36.665336" lon="137.761363">
<ele>2526.397530</ele>
<time>2014-08-17T04:00:36Z</time>
<desc><![CDATA[lat.=36.665336, lon.=137.761363, Alt.=2526.397530m. Speed=2.000000m/h.]]></desc>
</trkpt>
<trkpt lat="36.665324" lon="137.761385">
<ele>2529.909336</ele>
<time>2014-08-17T04:00:41Z</time>
<desc><![CDATA[lat.=36.665324, lon.=137.761385, Alt.=2529.909336m. Speed=2.000000m/h.]]></desc>
</trkpt>
<trkpt lat="36.665294" lon="137.761384">
<ele>2530.981210</ele>
<time>2014-08-17T04:00:46Z</time>
<desc><![CDATA[lat.=36.665294, lon.=137.761384, Alt.=2530.981210m. Speed=2.000000m/h.]]></desc>
</trkpt>
<trkpt lat="36.665269" lon="137.761375">
<ele>2529.729005</ele>
<time>2014-08-17T04:00:51Z</time>
<desc><![CDATA[lat.=36.665269, lon.=137.761375, Alt.=2529.729005m. Speed=2.000000m/h.]]></desc>
</trkpt>
<trkpt lat="36.665259" lon="137.761335">
<ele>2529.561778</ele>
<time>2014-08-17T04:00:56Z</time>
<desc><![CDATA[lat.=36.665259, lon.=137.761335, Alt.=2529.561778m. Speed=2.000000m/h.]]></desc>
</trkpt>
<trkpt lat="36.665233" lon="137.761326">
<ele>2531.770007</ele>
<time>2014-08-17T04:01:01Z</time>
<desc><![CDATA[lat.=36.665233, lon.=137.761326, Alt.=2531.770007m. Speed=2.000000m/h.]]></desc>
</trkpt>
<trkpt lat="36.665203" lon="137.761308">
<ele>2534.517452</ele>
<time>2014-08-17T04:01:06Z</time>
<desc><![CDATA[lat.=36.665203, lon.=137.761308, Alt.=2534.517452m. Speed=2.000000m/h.]]></desc>
</trkpt>
<trkpt lat="36.665184" lon="137.761298">
<ele>2535.592606</ele>
<time>2014-08-17T04:01:11Z</time>
<desc><![CDATA[lat.=36.665184, lon.=137.761298, Alt.=2535.592606m. Speed=2.000000m/h.]]></desc>
</trkpt>
<trkpt lat="36.665174" lon="137.761274">
<ele>2535.480034</ele>
<time>2014-08-17T04:01:16Z</time>
<desc><![CDATA[lat.=36.665174, lon.=137.761274, Alt.=2535.480034m. Speed=2.000000m/h.]]></desc>
</trkpt>
<trkpt lat="36.665152" lon="137.761257">
<ele>2537.094404</ele>
<time>2014-08-17T04:01:21Z</time>
<desc><![CDATA[lat.=36.665152, lon.=137.761257, Alt.=2537.094404m. Speed=2.000000m/h.]]></desc>
</trkpt>
<trkpt lat="36.665130" lon="137.761240">
<ele>2538.708776</ele>
<time>2014-08-17T04:01:26Z</time>
<desc><![CDATA[lat.=36.665130, lon.=137.761240, Alt.=2538.708776m. Speed=2.000000m/h.]]></desc>
</trkpt>
<trkpt lat="36.665112" lon="137.761215">
<ele>2539.729286</ele>
<time>2014-08-17T04:01:31Z</time>
<desc><![CDATA[lat.=36.665112, lon.=137.761215, Alt.=2539.729286m. Speed=2.000000m/h.]]></desc>
</trkpt>
<trkpt lat="36.665098" lon="137.761199">
<ele>2538.480364</ele>
<time>2014-08-17T04:01:36Z</time>
<desc><![CDATA[lat.=36.665098, lon.=137.761199, Alt.=2538.480364m. Speed=2.000000m/h.]]></desc>
</trkpt>
<trkpt lat="36.665087" lon="137.761190">
<ele>2540.152660</ele>
<time>2014-08-17T04:01:41Z</time>
<desc><![CDATA[lat.=36.665087, lon.=137.761190, Alt.=2540.152660m. Speed=1.000000m/h.]]></desc>
</trkpt>
<trkpt lat="36.665083" lon="137.761183">
<ele>2538.961660</ele>
<time>2014-08-17T04:01:46Z</time>
<desc><![CDATA[lat.=36.665083, lon.=137.761183, Alt.=2538.961660m. Speed=1.000000m/h.]]></desc>
</trkpt>
<trkpt lat="36.665069" lon="137.761150">
<ele>2539.388310</ele>
<time>2014-08-17T04:01:51Z</time>
<desc><![CDATA[lat.=36.665069, lon.=137.761150, Alt.=2539.388310m. Speed=1.000000m/h.]]></desc>
</trkpt>
<trkpt lat="36.665040" lon="137.761134">
<ele>2538.675335</ele>
<time>2014-08-17T04:01:56Z</time>
<desc><![CDATA[lat.=36.665040, lon.=137.761134, Alt.=2538.675335m. Speed=2.000000m/h.]]></desc>
</trkpt>
<trkpt lat="36.665007" lon="137.761108">
<ele>2540.231797</ele>
<time>2014-08-17T04:02:01Z</time>
<desc><![CDATA[lat.=36.665007, lon.=137.761108, Alt.=2540.231797m. Speed=2.000000m/h.]]></desc>
</trkpt>
<trkpt lat="36.664992" lon="137.761107">
<ele>2542.497959</ele>
<time>2014-08-17T04:02:06Z</time>
<desc><![CDATA[lat.=36.664992, lon.=137.761107, Alt.=2542.497959m. Speed=2.000000m/h.]]></desc>
</trkpt>
<trkpt lat="36.664985" lon="137.761090">
<ele>2543.576394</ele>
<time>2014-08-17T04:02:11Z</time>
<desc><![CDATA[lat.=36.664985, lon.=137.761090, Alt.=2543.576394m. Speed=2.000000m/h.]]></desc>
</trkpt>
<trkpt lat="36.664960" lon="137.761067">
<ele>2540.539346</ele>
<time>2014-08-17T04:02:16Z</time>
<desc><![CDATA[lat.=36.664960, lon.=137.761067, Alt.=2540.539346m. Speed=2.000000m/h.]]></desc>
</trkpt>
<trkpt lat="36.664972" lon="137.761043">
<ele>2542.218189</ele>
<time>2014-08-17T04:02:21Z</time>
<desc><![CDATA[lat.=36.664972, lon.=137.761043, Alt.=2542.218189m. Speed=1.000000m/h.]]></desc>
</trkpt>
<trkpt lat="36.664964" lon="137.761042">
<ele>2543.351270</ele>
<time>2014-08-17T04:02:26Z</time>
<desc><![CDATA[lat.=36.664964, lon.=137.761042, Alt.=2543.351270m. Speed=1.000000m/h.]]></desc>
</trkpt>
<trkpt lat="36.664961" lon="137.761018">
<ele>2543.835845</ele>
<time>2014-08-17T04:02:31Z</time>
<desc><![CDATA[lat.=36.664961, lon.=137.761018, Alt.=2543.835845m. Speed=2.000000m/h.]]></desc>
</trkpt>
<trkpt lat="36.664950" lon="137.760993">
<ele>2545.453501</ele>
<time>2014-08-17T04:02:36Z</time>
<desc><![CDATA[lat.=36.664950, lon.=137.760993, Alt.=2545.453501m. Speed=2.000000m/h.]]></desc>
</trkpt>
<trkpt lat="36.664921" lon="137.760976">
<ele>2544.740537</ele>
<time>2014-08-17T04:02:41Z</time>
<desc><![CDATA[lat.=36.664921, lon.=137.760976, Alt.=2544.740537m. Speed=2.000000m/h.]]></desc>
</trkpt>
<trkpt lat="36.664911" lon="137.760936">
<ele>2546.303553</ele>
<time>2014-08-17T04:02:46Z</time>
<desc><![CDATA[lat.=36.664911, lon.=137.760936, Alt.=2546.303553m. Speed=2.000000m/h.]]></desc>
</trkpt>
<trkpt lat="36.664911" lon="137.760903">
<ele>2547.924485</ele>
<time>2014-08-17T04:02:51Z</time>
<desc><![CDATA[lat.=36.664911, lon.=137.760903, Alt.=2547.924485m. Speed=2.000000m/h.]]></desc>
</trkpt>
<trkpt lat="36.664878" lon="137.760878">
<ele>2549.480962</ele>
<time>2014-08-17T04:02:56Z</time>
<desc><![CDATA[lat.=36.664878, lon.=137.760878, Alt.=2549.480962m. Speed=2.000000m/h.]]></desc>
</trkpt>
<trkpt lat="36.664867" lon="137.760854">
<ele>2549.368408</ele>
<time>2014-08-17T04:03:01Z</time>
<desc><![CDATA[lat.=36.664867, lon.=137.760854, Alt.=2549.368408m. Speed=2.000000m/h.]]></desc>
</trkpt>
<trkpt lat="36.664843" lon="137.760813">
<ele>2549.737166</ele>
<time>2014-08-17T04:03:06Z</time>
<desc><![CDATA[lat.=36.664843, lon.=137.760813, Alt.=2549.737166m. Speed=3.000000m/h.]]></desc>
</trkpt>
<trkpt lat="36.664810" lon="137.760788">
<ele>2549.563433</ele>
<time>2014-08-17T04:03:11Z</time>
<desc><![CDATA[lat.=36.664810, lon.=137.760788, Alt.=2549.563433m. Speed=3.000000m/h.]]></desc>
</trkpt>
<trkpt lat="36.664778" lon="137.760763">
<ele>2549.389703</ele>
<time>2014-08-17T04:03:16Z</time>
<desc><![CDATA[lat.=36.664778, lon.=137.760763, Alt.=2549.389703m. Speed=3.000000m/h.]]></desc>
</trkpt>
<trkpt lat="36.664767" lon="137.760724">
<ele>2549.222516</ele>
<time>2014-08-17T04:03:21Z</time>
<desc><![CDATA[lat.=36.664767, lon.=137.760724, Alt.=2549.222516m. Speed=3.000000m/h.]]></desc>
</trkpt>
<trkpt lat="36.664746" lon="137.760691">
<ele>2549.052061</ele>
<time>2014-08-17T04:03:26Z</time>
<desc><![CDATA[lat.=36.664746, lon.=137.760691, Alt.=2549.052061m. Speed=3.000000m/h.]]></desc>
</trkpt>
<trkpt lat="36.664724" lon="137.760658">
<ele>2550.611825</ele>
<time>2014-08-17T04:03:31Z</time>
<desc><![CDATA[lat.=36.664724, lon.=137.760658, Alt.=2550.611825m. Speed=3.000000m/h.]]></desc>
</trkpt>
<trkpt lat="36.664718" lon="137.760609">
<ele>2553.311218</ele>
<time>2014-08-17T04:03:36Z</time>
<desc><![CDATA[lat.=36.664718, lon.=137.760609, Alt.=2553.311218m. Speed=3.000000m/h.]]></desc>
</trkpt>
<trkpt lat="36.664688" lon="137.760591">
<ele>2556.058708</ele>
<time>2014-08-17T04:03:41Z</time>
<desc><![CDATA[lat.=36.664688, lon.=137.760591, Alt.=2556.058708m. Speed=3.000000m/h.]]></desc>
</trkpt>
<trkpt lat="36.664648" lon="137.760582">
<ele>2555.342498</ele>
<time>2014-08-17T04:03:46Z</time>
<desc><![CDATA[lat.=36.664648, lon.=137.760582, Alt.=2555.342498m. Speed=2.000000m/h.]]></desc>
</trkpt>
<trkpt lat="36.664629" lon="137.760557">
<ele>2558.093262</ele>
<time>2014-08-17T04:03:51Z</time>
<desc><![CDATA[lat.=36.664629, lon.=137.760557, Alt.=2558.093262m. Speed=2.000000m/h.]]></desc>
</trkpt>
<trkpt lat="36.664627" lon="137.760502">
<ele>2556.738366</ele>
<time>2014-08-17T04:03:56Z</time>
<desc><![CDATA[lat.=36.664627, lon.=137.760502, Alt.=2556.738366m. Speed=3.000000m/h.]]></desc>
</trkpt>
<trkpt lat="36.664632" lon="137.760429">
<ele>2559.386406</ele>
<time>2014-08-17T04:04:01Z</time>
<desc><![CDATA[lat.=36.664632, lon.=137.760429, Alt.=2559.386406m. Speed=4.000000m/h.]]></desc>
</trkpt>
<trkpt lat="36.664622" lon="137.760373">
<ele>2560.894824</ele>
<time>2014-08-17T04:04:06Z</time>
<desc><![CDATA[lat.=36.664622, lon.=137.760373, Alt.=2560.894824m. Speed=4.000000m/h.]]></desc>
</trkpt>
<trkpt lat="36.664603" lon="137.760347">
<ele>2563.645596</ele>
<time>2014-08-17T04:04:11Z</time>
<desc><![CDATA[lat.=36.664603, lon.=137.760347, Alt.=2563.645596m. Speed=3.000000m/h.]]></desc>
</trkpt>
<trkpt lat="36.664574" lon="137.760347">
<ele>2562.987295</ele>
<time>2014-08-17T04:04:16Z</time>
<desc><![CDATA[lat.=36.664574, lon.=137.760347, Alt.=2562.987295m. Speed=3.000000m/h.]]></desc>
</trkpt>
<trkpt lat="36.664544" lon="137.760362">
<ele>2562.383628</ele>
<time>2014-08-17T04:04:21Z</time>
<desc><![CDATA[lat.=36.664544, lon.=137.760362, Alt.=2562.383628m. Speed=3.000000m/h.]]></desc>
</trkpt>
<trkpt lat="36.664544" lon="137.760377">
<ele>2562.438259</ele>
<time>2014-08-17T04:04:26Z</time>
<desc><![CDATA[lat.=36.664544, lon.=137.760377, Alt.=2562.438259m. Speed=0.000000m/h.]]></desc>
</trkpt>
<trkpt lat="36.664536" lon="137.760393">
<ele>2561.895763</ele>
<time>2014-08-17T04:04:31Z</time>
<desc><![CDATA[lat.=36.664536, lon.=137.760393, Alt.=2561.895763m. Speed=0.000000m/h.]]></desc>
</trkpt>
<trkpt lat="36.664540" lon="137.760386">
<ele>2561.301902</ele>
<time>2014-08-17T04:04:41Z</time>
<desc><![CDATA[lat.=36.664540, lon.=137.760386, Alt.=2561.301902m. Speed=0.000000m/h.]]></desc>
</trkpt>
<trkpt lat="36.664559" lon="137.760378">
<ele>2561.902300</ele>
<time>2014-08-17T04:04:46Z</time>
<desc><![CDATA[lat.=36.664559, lon.=137.760378, Alt.=2561.902300m. Speed=1.000000m/h.]]></desc>
</trkpt>
<trkpt lat="36.664555" lon="137.760387">
<ele>2560.765943</ele>
<time>2014-08-17T04:04:51Z</time>
<desc><![CDATA[lat.=36.664555, lon.=137.760387, Alt.=2560.765943m. Speed=0.000000m/h.]]></desc>
</trkpt>
<trkpt lat="36.664548" lon="137.760387">
<ele>2560.168814</ele>
<time>2014-08-17T04:04:56Z</time>
<desc><![CDATA[lat.=36.664548, lon.=137.760387, Alt.=2560.168814m. Speed=0.000000m/h.]]></desc>
</trkpt>
<trkpt lat="36.664555" lon="137.760387">
<ele>2560.765943</ele>
<time>2014-08-17T04:05:05Z</time>
<desc><![CDATA[lat.=36.664555, lon.=137.760387, Alt.=2560.765943m. Speed=0.000000m/h.]]></desc>
</trkpt>
<trkpt lat="36.664529" lon="137.760393">
<ele>2561.298634</ele>
<time>2014-08-17T04:05:10Z</time>
<desc><![CDATA[lat.=36.664529, lon.=137.760393, Alt.=2561.298634m. Speed=2.000000m/h.]]></desc>
</trkpt>
<trkpt lat="36.664507" lon="137.760392">
<ele>2561.237466</ele>
<time>2014-08-17T04:05:15Z</time>
<desc><![CDATA[lat.=36.664507, lon.=137.760392, Alt.=2561.237466m. Speed=2.000000m/h.]]></desc>
</trkpt>
<trkpt lat="36.664482" lon="137.760384">
<ele>2559.985310</ele>
<time>2014-08-17T04:05:20Z</time>
<desc><![CDATA[lat.=36.664482, lon.=137.760384, Alt.=2559.985310m. Speed=2.000000m/h.]]></desc>
</trkpt>
<trkpt lat="36.664463" lon="137.760392">
<ele>2559.384915</ele>
<time>2014-08-17T04:05:25Z</time>
<desc><![CDATA[lat.=36.664463, lon.=137.760392, Alt.=2559.384915m. Speed=2.000000m/h.]]></desc>
</trkpt>
<trkpt lat="36.664467" lon="137.760383">
<ele>2560.521271</ele>
<time>2014-08-17T04:05:30Z</time>
<desc><![CDATA[lat.=36.664467, lon.=137.760383, Alt.=2560.521271m. Speed=0.000000m/h.]]></desc>
</trkpt>
<trkpt lat="36.664438" lon="137.760383">
<ele>2559.862978</ele>
<time>2014-08-17T04:05:35Z</time>
<desc><![CDATA[lat.=36.664438, lon.=137.760383, Alt.=2559.862978m. Speed=2.000000m/h.]]></desc>
</trkpt>
<trkpt lat="36.664434" lon="137.760374">
<ele>2560.402208</ele>
<time>2014-08-17T04:05:41Z</time>
<desc><![CDATA[lat.=36.664434, lon.=137.760374, Alt.=2560.402208m. Speed=0.000000m/h.]]></desc>
</trkpt>
<trkpt lat="36.664423" lon="137.760381">
<ele>2562.129159</ele>
<time>2014-08-17T04:05:46Z</time>
<desc><![CDATA[lat.=36.664423, lon.=137.760381, Alt.=2562.129159m. Speed=0.000000m/h.]]></desc>
</trkpt>
<trkpt lat="36.664426" lon="137.760389">
<ele>2561.589930</ele>
<time>2014-08-17T04:05:51Z</time>
<desc><![CDATA[lat.=36.664426, lon.=137.760389, Alt.=2561.589930m. Speed=0.000000m/h.]]></desc>
</trkpt>
<trkpt lat="36.664422" lon="137.760397">
<ele>2562.183791</ele>
<time>2014-08-17T04:06:01Z</time>
<desc><![CDATA[lat.=36.664422, lon.=137.760397, Alt.=2562.183791m. Speed=0.000000m/h.]]></desc>
</trkpt>
<trkpt lat="36.664419" lon="137.760389">
<ele>2560.992803</ele>
<time>2014-08-17T04:06:06Z</time>
<desc><![CDATA[lat.=36.664419, lon.=137.760389, Alt.=2560.992803m. Speed=0.000000m/h.]]></desc>
</trkpt>
<trkpt lat="36.664426" lon="137.760389">
<ele>2561.589930</ele>
<time>2014-08-17T04:06:11Z</time>
<desc><![CDATA[lat.=36.664426, lon.=137.760389, Alt.=2561.589930m. Speed=1.000000m/h.]]></desc>
</trkpt>
<trkpt lat="36.664455" lon="137.760390">
<ele>2562.248222</ele>
<time>2014-08-17T04:06:16Z</time>
<desc><![CDATA[lat.=36.664455, lon.=137.760390, Alt.=2562.248222m. Speed=2.000000m/h.]]></desc>
</trkpt>
<trkpt lat="36.664496" lon="137.760400">
<ele>2561.234198</ele>
<time>2014-08-17T04:06:21Z</time>
<desc><![CDATA[lat.=36.664496, lon.=137.760400, Alt.=2561.234198m. Speed=2.000000m/h.]]></desc>
</trkpt>
<trkpt lat="36.664536" lon="137.760409">
<ele>2561.950395</ele>
<time>2014-08-17T04:06:26Z</time>
<desc><![CDATA[lat.=36.664536, lon.=137.760409, Alt.=2561.950395m. Speed=3.000000m/h.]]></desc>
</trkpt>
<trkpt lat="36.664580" lon="137.760411">
<ele>2562.072735</ele>
<time>2014-08-17T04:06:31Z</time>
<desc><![CDATA[lat.=36.664580, lon.=137.760411, Alt.=2562.072735m. Speed=3.000000m/h.]]></desc>
</trkpt>
<trkpt lat="36.664602" lon="137.760427">
<ele>2562.188539</ele>
<time>2014-08-17T04:06:36Z</time>
<desc><![CDATA[lat.=36.664602, lon.=137.760427, Alt.=2562.188539m. Speed=3.000000m/h.]]></desc>
</trkpt>
<trkpt lat="36.664601" lon="137.760426">
<ele>2563.918756</ele>
<time>2014-08-17T04:06:41Z</time>
<desc><![CDATA[lat.=36.664601, lon.=137.760426, Alt.=2563.918756m. Speed=0.000000m/h.]]></desc>
</trkpt>
<trkpt lat="36.664594" lon="137.760426">
<ele>2563.321626</ele>
<time>2014-08-17T04:06:46Z</time>
<desc><![CDATA[lat.=36.664594, lon.=137.760426, Alt.=2563.321626m. Speed=0.000000m/h.]]></desc>
</trkpt>
<trkpt lat="36.664569" lon="137.760402">
<ele>2563.745050</ele>
<time>2014-08-17T04:06:51Z</time>
<desc><![CDATA[lat.=36.664569, lon.=137.760402, Alt.=2563.745050m. Speed=2.000000m/h.]]></desc>
</trkpt>
<trkpt lat="36.664525" lon="137.760401">
<ele>2561.892494</ele>
<time>2014-08-17T04:06:56Z</time>
<desc><![CDATA[lat.=36.664525, lon.=137.760401, Alt.=2561.892494m. Speed=3.000000m/h.]]></desc>
</trkpt>
<trkpt lat="36.664486" lon="137.760377">
<ele>2559.391449</ele>
<time>2014-08-17T04:07:01Z</time>
<desc><![CDATA[lat.=36.664486, lon.=137.760377, Alt.=2559.391449m. Speed=3.000000m/h.]]></desc>
</trkpt>
<trkpt lat="36.664439" lon="137.760368">
<ele>2558.078129</ele>
<time>2014-08-17T04:07:06Z</time>
<desc><![CDATA[lat.=36.664439, lon.=137.760368, Alt.=2558.078129m. Speed=3.000000m/h.]]></desc>
</trkpt>
<trkpt lat="36.664398" lon="137.760359">
<ele>2557.361940</ele>
<time>2014-08-17T04:07:11Z</time>
<desc><![CDATA[lat.=36.664398, lon.=137.760359, Alt.=2557.361940m. Speed=3.000000m/h.]]></desc>
</trkpt>
<trkpt lat="36.664388" lon="137.760351">
<ele>2555.573826</ele>
<time>2014-08-17T04:07:16Z</time>
<desc><![CDATA[lat.=36.664388, lon.=137.760351, Alt.=2555.573826m. Speed=2.000000m/h.]]></desc>
</trkpt>
<trkpt lat="36.664389" lon="137.760337">
<ele>2552.058759</ele>
<time>2014-08-17T04:07:21Z</time>
<desc><![CDATA[lat.=36.664389, lon.=137.760337, Alt.=2552.058759m. Speed=2.000000m/h.]]></desc>
</trkpt>
<trkpt lat="36.664382" lon="137.760320">
<ele>2553.137219</ele>
<time>2014-08-17T04:07:26Z</time>
<desc><![CDATA[lat.=36.664382, lon.=137.760320, Alt.=2553.137219m. Speed=2.000000m/h.]]></desc>
</trkpt>
<trkpt lat="36.664342" lon="137.760312">
<ele>2550.690818</ele>
<time>2014-08-17T04:07:31Z</time>
<desc><![CDATA[lat.=36.664342, lon.=137.760312, Alt.=2550.690818m. Speed=3.000000m/h.]]></desc>
</trkpt>
<trkpt lat="36.664298" lon="137.760326">
<ele>2550.623129</ele>
<time>2014-08-17T04:07:36Z</time>
<desc><![CDATA[lat.=36.664298, lon.=137.760326, Alt.=2550.623129m. Speed=4.000000m/h.]]></desc>
</trkpt>
<trkpt lat="36.664254" lon="137.760326">
<ele>2547.040379</ele>
<time>2014-08-17T04:07:41Z</time>
<desc><![CDATA[lat.=36.664254, lon.=137.760326, Alt.=2547.040379m. Speed=3.000000m/h.]]></desc>
</trkpt>
<trkpt lat="36.664236" lon="137.760301">
<ele>2549.791165</ele>
<time>2014-08-17T04:07:46Z</time>
<desc><![CDATA[lat.=36.664236, lon.=137.760301, Alt.=2549.791165m. Speed=3.000000m/h.]]></desc>
</trkpt>
<trkpt lat="36.664192" lon="137.760284">
<ele>2547.884007</ele>
<time>2014-08-17T04:07:51Z</time>
<desc><![CDATA[lat.=36.664192, lon.=137.760284, Alt.=2547.884007m. Speed=3.000000m/h.]]></desc>
</trkpt>
<trkpt lat="36.664168" lon="137.760277">
<ele>2544.901650</ele>
<time>2014-08-17T04:07:56Z</time>
<desc><![CDATA[lat.=36.664168, lon.=137.760277, Alt.=2544.901650m. Speed=3.000000m/h.]]></desc>
</trkpt>
<trkpt lat="36.664142" lon="137.760284">
<ele>2543.704142</ele>
<time>2014-08-17T04:08:01Z</time>
<desc><![CDATA[lat.=36.664142, lon.=137.760284, Alt.=2543.704142m. Speed=3.000000m/h.]]></desc>
</trkpt>
<trkpt lat="36.664108" lon="137.760290">
<ele>2545.369948</ele>
<time>2014-08-17T04:08:06Z</time>
<desc><![CDATA[lat.=36.664108, lon.=137.760290, Alt.=2545.369948m. Speed=3.000000m/h.]]></desc>
</trkpt>
<trkpt lat="36.664057" lon="137.760321">
<ele>2543.029570</ele>
<time>2014-08-17T04:08:11Z</time>
<desc><![CDATA[lat.=36.664057, lon.=137.760321, Alt.=2543.029570m. Speed=4.000000m/h.]]></desc>
</trkpt>
<trkpt lat="36.664032" lon="137.760297">
<ele>2541.722806</ele>
<time>2014-08-17T04:08:16Z</time>
<desc><![CDATA[lat.=36.664032, lon.=137.760297, Alt.=2541.722806m. Speed=3.000000m/h.]]></desc>
</trkpt>
<trkpt lat="36.664006" lon="137.760320">
<ele>2540.579936</ele>
<time>2014-08-17T04:08:21Z</time>
<desc><![CDATA[lat.=36.664006, lon.=137.760320, Alt.=2540.579936m. Speed=3.000000m/h.]]></desc>
</trkpt>
<trkpt lat="36.663985" lon="137.760289">
<ele>2538.679311</ele>
<time>2014-08-17T04:08:26Z</time>
<desc><![CDATA[lat.=36.663985, lon.=137.760289, Alt.=2538.679311m. Speed=3.000000m/h.]]></desc>
</trkpt>
<trkpt lat="36.663975" lon="137.760249">
<ele>2536.781945</ele>
<time>2014-08-17T04:08:31Z</time>
<desc><![CDATA[lat.=36.663975, lon.=137.760249, Alt.=2536.781945m. Speed=3.000000m/h.]]></desc>
</trkpt>
<trkpt lat="36.663953" lon="137.760298">
<ele>2533.424256</ele>
<time>2014-08-17T04:08:36Z</time>
<desc><![CDATA[lat.=36.663953, lon.=137.760298, Alt.=2533.424256m. Speed=3.000000m/h.]]></desc>
</trkpt>
<trkpt lat="36.663908" lon="137.760296">
<ele>2533.301970</ele>
<time>2014-08-17T04:08:41Z</time>
<desc><![CDATA[lat.=36.663908, lon.=137.760296, Alt.=2533.301970m. Speed=3.000000m/h.]]></desc>
</trkpt>
<trkpt lat="36.663883" lon="137.760304">
<ele>2532.104475</ele>
<time>2014-08-17T04:08:46Z</time>
<desc><![CDATA[lat.=36.663883, lon.=137.760304, Alt.=2532.104475m. Speed=3.000000m/h.]]></desc>
</trkpt>
<trkpt lat="36.663860" lon="137.760334">
<ele>2532.152597</ele>
<time>2014-08-17T04:08:51Z</time>
<desc><![CDATA[lat.=36.663860, lon.=137.760334, Alt.=2532.152597m. Speed=2.000000m/h.]]></desc>
</trkpt>
<trkpt lat="36.663856" lon="137.760326">
<ele>2532.691830</ele>
<time>2014-08-17T04:09:02Z</time>
<desc><![CDATA[lat.=36.663856, lon.=137.760326, Alt.=2532.691830m. Speed=1.000000m/h.]]></desc>
</trkpt>
<trkpt lat="36.663805" lon="137.760308">
<ele>2533.648021</ele>
<time>2014-08-17T04:09:07Z</time>
<desc><![CDATA[lat.=36.663805, lon.=137.760308, Alt.=2533.648021m. Speed=3.000000m/h.]]></desc>
</trkpt>
<trkpt lat="36.663765" lon="137.760299">
<ele>2532.931882</ele>
<time>2014-08-17T04:09:12Z</time>
<desc><![CDATA[lat.=36.663765, lon.=137.760299, Alt.=2532.931882m. Speed=4.000000m/h.]]></desc>
</trkpt>
<trkpt lat="36.663711" lon="137.760241">
<ele>2534.318057</ele>
<time>2014-08-17T04:09:17Z</time>
<desc><![CDATA[lat.=36.663711, lon.=137.760241, Alt.=2534.318057m. Speed=5.000000m/h.]]></desc>
</trkpt>
<trkpt lat="36.663659" lon="137.760239">
<ele>2535.328894</ele>
<time>2014-08-17T04:09:22Z</time>
<desc><![CDATA[lat.=36.663659, lon.=137.760239, Alt.=2535.328894m. Speed=4.000000m/h.]]></desc>
</trkpt>
<trkpt lat="36.663633" lon="137.760246">
<ele>2534.131411</ele>
<time>2014-08-17T04:09:27Z</time>
<desc><![CDATA[lat.=36.663633, lon.=137.760246, Alt.=2534.131411m. Speed=3.000000m/h.]]></desc>
</trkpt>
<trkpt lat="36.663586" lon="137.760237">
<ele>2532.818170</ele>
<time>2014-08-17T04:09:32Z</time>
<desc><![CDATA[lat.=36.663586, lon.=137.760237, Alt.=2532.818170m. Speed=3.000000m/h.]]></desc>
</trkpt>
<trkpt lat="36.663557" lon="137.760222">
<ele>2530.375080</ele>
<time>2014-08-17T04:09:37Z</time>
<desc><![CDATA[lat.=36.663557, lon.=137.760222, Alt.=2530.375080m. Speed=3.000000m/h.]]></desc>
</trkpt>
<trkpt lat="36.663517" lon="137.760212">
<ele>2529.658961</ele>
<time>2014-08-17T04:09:42Z</time>
<desc><![CDATA[lat.=36.663517, lon.=137.760212, Alt.=2529.658961m. Speed=3.000000m/h.]]></desc>
</trkpt>
<trkpt lat="36.663500" lon="137.760173">
<ele>2528.894712</ele>
<time>2014-08-17T04:09:47Z</time>
<desc><![CDATA[lat.=36.663500, lon.=137.760173, Alt.=2528.894712m. Speed=4.000000m/h.]]></desc>
</trkpt>
<trkpt lat="36.663503" lon="137.760180">
<ele>2530.085693</ele>
<time>2014-08-17T04:09:52Z</time>
<desc><![CDATA[lat.=36.663503, lon.=137.760180, Alt.=2530.085693m. Speed=0.000000m/h.]]></desc>
</trkpt>
<trkpt lat="36.663504" lon="137.760182">
<ele>2526.625256</ele>
<time>2014-08-17T04:09:57Z</time>
<desc><![CDATA[lat.=36.663504, lon.=137.760182, Alt.=2526.625256m. Speed=0.000000m/h.]]></desc>
</trkpt>
<trkpt lat="36.663510" lon="137.760197">
<ele>2529.007218</ele>
<time>2014-08-17T04:10:03Z</time>
<desc><![CDATA[lat.=36.663510, lon.=137.760197, Alt.=2529.007218m. Speed=1.000000m/h.]]></desc>
</trkpt>
<trkpt lat="36.663517" lon="137.760212">
<ele>2529.658961</ele>
<time>2014-08-17T04:10:08Z</time>
<desc><![CDATA[lat.=36.663517, lon.=137.760212, Alt.=2529.658961m. Speed=2.000000m/h.]]></desc>
</trkpt>
<trkpt lat="36.663547" lon="137.760215">
<ele>2526.856765</ele>
<time>2014-08-17T04:10:13Z</time>
<desc><![CDATA[lat.=36.663547, lon.=137.760215, Alt.=2526.856765m. Speed=2.000000m/h.]]></desc>
</trkpt>
<trkpt lat="36.663566" lon="137.760224">
<ele>2525.781540</ele>
<time>2014-08-17T04:10:18Z</time>
<desc><![CDATA[lat.=36.663566, lon.=137.760224, Alt.=2525.781540m. Speed=2.000000m/h.]]></desc>
</trkpt>
<trkpt lat="36.663598" lon="137.760216">
<ele>2529.306354</ele>
<time>2014-08-17T04:10:23Z</time>
<desc><![CDATA[lat.=36.663598, lon.=137.760216, Alt.=2529.306354m. Speed=2.000000m/h.]]></desc>
</trkpt>
<trkpt lat="36.663629" lon="137.760202">
<ele>2526.449533</ele>
<time>2014-08-17T04:10:28Z</time>
<desc><![CDATA[lat.=36.663629, lon.=137.760202, Alt.=2526.449533m. Speed=2.000000m/h.]]></desc>
</trkpt>
<trkpt lat="36.663651" lon="137.760203">
<ele>2526.510664</ele>
<time>2014-08-17T04:10:33Z</time>
<desc><![CDATA[lat.=36.663651, lon.=137.760203, Alt.=2526.510664m. Speed=2.000000m/h.]]></desc>
</trkpt>
<trkpt lat="36.663689" lon="137.760258">
<ele>2529.120900</ele>
<time>2014-08-17T04:10:38Z</time>
<desc><![CDATA[lat.=36.663689, lon.=137.760258, Alt.=2529.120900m. Speed=3.000000m/h.]]></desc>
</trkpt>
<trkpt lat="36.663776" lon="137.760307">
<ele>2532.989766</ele>
<time>2014-08-17T04:10:43Z</time>
<desc><![CDATA[lat.=36.663776, lon.=137.760307, Alt.=2532.989766m. Speed=3.000000m/h.]]></desc>
</trkpt>
<trkpt lat="36.663824" lon="137.760301">
<ele>2532.518175</ele>
<time>2014-08-17T04:10:48Z</time>
<desc><![CDATA[lat.=36.663824, lon.=137.760301, Alt.=2532.518175m. Speed=3.000000m/h.]]></desc>
</trkpt>
<trkpt lat="36.663864" lon="137.760326">
<ele>2533.288950</ele>
<time>2014-08-17T04:10:53Z</time>
<desc><![CDATA[lat.=36.663864, lon.=137.760326, Alt.=2533.288950m. Speed=3.000000m/h.]]></desc>
</trkpt>
<trkpt lat="36.663885" lon="137.760326">
<ele>2535.080308</ele>
<time>2014-08-17T04:10:58Z</time>
<desc><![CDATA[lat.=36.663885, lon.=137.760326, Alt.=2535.080308m. Speed=3.000000m/h.]]></desc>
</trkpt>
<trkpt lat="36.663919" lon="137.760319">
<ele>2535.144705</ele>
<time>2014-08-17T04:11:03Z</time>
<desc><![CDATA[lat.=36.663919, lon.=137.760319, Alt.=2535.144705m. Speed=3.000000m/h.]]></desc>
</trkpt>
<trkpt lat="36.663922" lon="137.760328">
<ele>2534.605472</ele>
<time>2014-08-17T04:11:08Z</time>
<desc><![CDATA[lat.=36.663922, lon.=137.760328, Alt.=2534.605472m. Speed=2.000000m/h.]]></desc>
</trkpt>
<trkpt lat="36.663948" lon="137.760320">
<ele>2535.802969</ele>
<time>2014-08-17T04:11:13Z</time>
<desc><![CDATA[lat.=36.663948, lon.=137.760320, Alt.=2535.802969m. Speed=2.000000m/h.]]></desc>
</trkpt>
<trkpt lat="36.663963" lon="137.760289">
<ele>2536.887948</ele>
<time>2014-08-17T04:11:18Z</time>
<desc><![CDATA[lat.=36.663963, lon.=137.760289, Alt.=2536.887948m. Speed=2.000000m/h.]]></desc>
</trkpt>
<trkpt lat="36.663971" lon="137.760289">
<ele>2535.754851</ele>
<time>2014-08-17T04:11:23Z</time>
<desc><![CDATA[lat.=36.663971, lon.=137.760289, Alt.=2535.754851m. Speed=1.000000m/h.]]></desc>
</trkpt>
<trkpt lat="36.663971" lon="137.760274">
<ele>2535.700221</ele>
<time>2014-08-17T04:11:28Z</time>
<desc><![CDATA[lat.=36.663971, lon.=137.760274, Alt.=2535.700221m. Speed=0.000000m/h.]]></desc>
</trkpt>
<trkpt lat="36.663967" lon="137.760282">
<ele>2534.563867</ele>
<time>2014-08-17T04:11:33Z</time>
<desc><![CDATA[lat.=36.663967, lon.=137.760282, Alt.=2534.563867m. Speed=0.000000m/h.]]></desc>
</trkpt>
<trkpt lat="36.663975" lon="137.760265">
<ele>2536.836575</ele>
<time>2014-08-17T04:11:38Z</time>
<desc><![CDATA[lat.=36.663975, lon.=137.760265, Alt.=2536.836575m. Speed=1.000000m/h.]]></desc>
</trkpt>
<trkpt lat="36.663993" lon="137.760274">
<ele>2537.491584</ele>
<time>2014-08-17T04:11:43Z</time>
<desc><![CDATA[lat.=36.663993, lon.=137.760274, Alt.=2537.491584m. Speed=2.000000m/h.]]></desc>
</trkpt>
<trkpt lat="36.664017" lon="137.760313">
<ele>2538.852976</ele>
<time>2014-08-17T04:11:48Z</time>
<desc><![CDATA[lat.=36.664017, lon.=137.760313, Alt.=2538.852976m. Speed=2.000000m/h.]]></desc>
</trkpt>
<trkpt lat="36.664020" lon="137.760337">
<ele>2540.098592</ele>
<time>2014-08-17T04:11:53Z</time>
<desc><![CDATA[lat.=36.664020, lon.=137.760337, Alt.=2540.098592m. Speed=2.000000m/h.]]></desc>
</trkpt>
<trkpt lat="36.664028" lon="137.760305">
<ele>2540.586452</ele>
<time>2014-08-17T04:11:58Z</time>
<desc><![CDATA[lat.=36.664028, lon.=137.760305, Alt.=2540.586452m. Speed=2.000000m/h.]]></desc>
</trkpt>
<trkpt lat="36.664046" lon="137.760314">
<ele>2539.511245</ele>
<time>2014-08-17T04:12:03Z</time>
<desc><![CDATA[lat.=36.664046, lon.=137.760314, Alt.=2539.511245m. Speed=2.000000m/h.]]></desc>
</trkpt>
<trkpt lat="36.664047" lon="137.760316">
<ele>2536.050809</ele>
<time>2014-08-17T04:12:08Z</time>
<desc><![CDATA[lat.=36.664047, lon.=137.760316, Alt.=2536.050809m. Speed=2.000000m/h.]]></desc>
</trkpt>
<trkpt lat="36.664080" lon="137.760292">
<ele>2537.790804</ele>
<time>2014-08-17T04:12:13Z</time>
<desc><![CDATA[lat.=36.664080, lon.=137.760292, Alt.=2537.790804m. Speed=2.000000m/h.]]></desc>
</trkpt>
<trkpt lat="36.664105" lon="137.760299">
<ele>2542.503375</ele>
<time>2014-08-17T04:12:18Z</time>
<desc><![CDATA[lat.=36.664105, lon.=137.760299, Alt.=2542.503375m. Speed=2.000000m/h.]]></desc>
</trkpt>
<trkpt lat="36.664123" lon="137.760307">
<ele>2543.158388</ele>
<time>2014-08-17T04:12:23Z</time>
<desc><![CDATA[lat.=36.664123, lon.=137.760307, Alt.=2543.158388m. Speed=2.000000m/h.]]></desc>
</trkpt>
<trkpt lat="36.664155" lon="137.760298">
<ele>2548.413454</ele>
<time>2014-08-17T04:12:28Z</time>
<desc><![CDATA[lat.=36.664155, lon.=137.760298, Alt.=2548.413454m. Speed=2.000000m/h.]]></desc>
</trkpt>
<trkpt lat="36.664196" lon="137.760292">
<ele>2549.074993</ele>
<time>2014-08-17T04:12:33Z</time>
<desc><![CDATA[lat.=36.664196, lon.=137.760292, Alt.=2549.074993m. Speed=2.000000m/h.]]></desc>
</trkpt>
<trkpt lat="36.664203" lon="137.760324">
<ele>2548.051161</ele>
<time>2014-08-17T04:12:38Z</time>
<desc><![CDATA[lat.=36.664203, lon.=137.760324, Alt.=2548.051161m. Speed=1.000000m/h.]]></desc>
</trkpt>
<trkpt lat="36.664222" lon="137.760301">
<ele>2546.866698</ele>
<time>2014-08-17T04:12:43Z</time>
<desc><![CDATA[lat.=36.664222, lon.=137.760301, Alt.=2546.866698m. Speed=2.000000m/h.]]></desc>
</trkpt>
<trkpt lat="36.664251" lon="137.760302">
<ele>2547.524979</ele>
<time>2014-08-17T04:12:48Z</time>
<desc><![CDATA[lat.=36.664251, lon.=137.760302, Alt.=2547.524979m. Speed=2.000000m/h.]]></desc>
</trkpt>
<trkpt lat="36.664281" lon="137.760272">
<ele>2546.343783</ele>
<time>2014-08-17T04:12:53Z</time>
<desc><![CDATA[lat.=36.664281, lon.=137.760272, Alt.=2546.343783m. Speed=2.000000m/h.]]></desc>
</trkpt>
<trkpt lat="36.664314" lon="137.760280">
<ele>2549.923271</ele>
<time>2014-08-17T04:12:58Z</time>
<desc><![CDATA[lat.=36.664314, lon.=137.760280, Alt.=2549.923271m. Speed=2.000000m/h.]]></desc>
</trkpt>
<trkpt lat="36.664295" lon="137.760304">
<ele>2547.647294</ele>
<time>2014-08-17T04:13:03Z</time>
<desc><![CDATA[lat.=36.664295, lon.=137.760304, Alt.=2547.647294m. Speed=2.000000m/h.]]></desc>
</trkpt>
<trkpt lat="36.664323" lon="137.760335">
<ele>2551.875276</ele>
<time>2014-08-17T04:13:08Z</time>
<desc><![CDATA[lat.=36.664323, lon.=137.760335, Alt.=2551.875276m. Speed=2.000000m/h.]]></desc>
</trkpt>
<trkpt lat="36.664331" lon="137.760336">
<ele>2549.011967</ele>
<time>2014-08-17T04:13:13Z</time>
<desc><![CDATA[lat.=36.664331, lon.=137.760336, Alt.=2549.011967m. Speed=2.000000m/h.]]></desc>
</trkpt>
<trkpt lat="36.664346" lon="137.760337">
<ele>2548.476001</ele>
<time>2014-08-17T04:13:18Z</time>
<desc><![CDATA[lat.=36.664346, lon.=137.760337, Alt.=2548.476001m. Speed=1.000000m/h.]]></desc>
</trkpt>
<trkpt lat="36.664375" lon="137.760353">
<ele>2549.188920</ele>
<time>2014-08-17T04:13:23Z</time>
<desc><![CDATA[lat.=36.664375, lon.=137.760353, Alt.=2549.188920m. Speed=2.000000m/h.]]></desc>
</trkpt>
<trkpt lat="36.664392" lon="137.760361">
<ele>2551.574161</ele>
<time>2014-08-17T04:13:28Z</time>
<desc><![CDATA[lat.=36.664392, lon.=137.760361, Alt.=2551.574161m. Speed=1.000000m/h.]]></desc>
</trkpt>
<trkpt lat="36.664396" lon="137.760368">
<ele>2552.765149</ele>
<time>2014-08-17T04:13:33Z</time>
<desc><![CDATA[lat.=36.664396, lon.=137.760368, Alt.=2552.765149m. Speed=1.000000m/h.]]></desc>
</trkpt>
<trkpt lat="36.664413" lon="137.760392">
<ele>2555.205023</ele>
<time>2014-08-17T04:13:38Z</time>
<desc><![CDATA[lat.=36.664413, lon.=137.760392, Alt.=2555.205023m. Speed=1.000000m/h.]]></desc>
</trkpt>
<trkpt lat="36.664409" lon="137.760383">
<ele>2557.474470</ele>
<time>2014-08-17T04:13:43Z</time>
<desc><![CDATA[lat.=36.664409, lon.=137.760383, Alt.=2557.474470m. Speed=0.000000m/h.]]></desc>
</trkpt>
<trkpt lat="36.664434" lon="137.760391">
<ele>2558.726622</ele>
<time>2014-08-17T04:13:48Z</time>
<desc><![CDATA[lat.=36.664434, lon.=137.760391, Alt.=2558.726622m. Speed=1.000000m/h.]]></desc>
</trkpt>
<trkpt lat="36.664471" lon="137.760392">
<ele>2559.982043</ele>
<time>2014-08-17T04:13:53Z</time>
<desc><![CDATA[lat.=36.664471, lon.=137.760392, Alt.=2559.982043m. Speed=2.000000m/h.]]></desc>
</trkpt>
<trkpt lat="36.664496" lon="137.760401">
<ele>2559.503981</ele>
<time>2014-08-17T04:13:58Z</time>
<desc><![CDATA[lat.=36.664496, lon.=137.760401, Alt.=2559.503981m. Speed=2.000000m/h.]]></desc>
</trkpt>
<trkpt lat="36.664514" lon="137.760409">
<ele>2560.159009</ele>
<time>2014-08-17T04:14:03Z</time>
<desc><![CDATA[lat.=36.664514, lon.=137.760409, Alt.=2560.159009m. Speed=2.000000m/h.]]></desc>
</trkpt>
<trkpt lat="36.664544" lon="137.760410">
<ele>2560.817306</ele>
<time>2014-08-17T04:14:08Z</time>
<desc><![CDATA[lat.=36.664544, lon.=137.760410, Alt.=2560.817306m. Speed=3.000000m/h.]]></desc>
</trkpt>
<trkpt lat="36.664578" lon="137.760388">
<ele>2559.096896</ele>
<time>2014-08-17T04:14:13Z</time>
<desc><![CDATA[lat.=36.664578, lon.=137.760388, Alt.=2559.096896m. Speed=3.000000m/h.]]></desc>
</trkpt>
<trkpt lat="36.664600" lon="137.760390">
<ele>2557.427849</ele>
<time>2014-08-17T04:14:18Z</time>
<desc><![CDATA[lat.=36.664600, lon.=137.760390, Alt.=2557.427849m. Speed=3.000000m/h.]]></desc>
</trkpt>
<trkpt lat="36.664636" lon="137.760438">
<ele>2557.116962</ele>
<time>2014-08-17T04:14:23Z</time>
<desc><![CDATA[lat.=36.664636, lon.=137.760438, Alt.=2557.116962m. Speed=4.000000m/h.]]></desc>
</trkpt>
<trkpt lat="36.664656" lon="137.760502">
<ele>2559.126887</ele>
<time>2014-08-17T04:14:28Z</time>
<desc><![CDATA[lat.=36.664656, lon.=137.760502, Alt.=2559.126887m. Speed=4.000000m/h.]]></desc>
</trkpt>
<trkpt lat="36.664651" lon="137.760572">
<ele>2559.939288</ele>
<time>2014-08-17T04:14:33Z</time>
<desc><![CDATA[lat.=36.664651, lon.=137.760572, Alt.=2559.939288m. Speed=4.000000m/h.]]></desc>
</trkpt>
<trkpt lat="36.664687" lon="137.760590">
<ele>2559.519142</ele>
<time>2014-08-17T04:14:38Z</time>
<desc><![CDATA[lat.=36.664687, lon.=137.760590, Alt.=2559.519142m. Speed=3.000000m/h.]]></desc>
</trkpt>
<trkpt lat="36.664731" lon="137.760624">
<ele>2558.020551</ele>
<time>2014-08-17T04:14:43Z</time>
<desc><![CDATA[lat.=36.664731, lon.=137.760624, Alt.=2558.020551m. Speed=4.000000m/h.]]></desc>
</trkpt>
<trkpt lat="36.664752" lon="137.760689">
<ele>2554.839844</ele>
<time>2014-08-17T04:14:48Z</time>
<desc><![CDATA[lat.=36.664752, lon.=137.760689, Alt.=2554.839844m. Speed=4.000000m/h.]]></desc>
</trkpt>
<trkpt lat="36.664796" lon="137.760739">
<ele>2553.395901</ele>
<time>2014-08-17T04:14:53Z</time>
<desc><![CDATA[lat.=36.664796, lon.=137.760739, Alt.=2553.395901m. Speed=5.000000m/h.]]></desc>
</trkpt>
<trkpt lat="36.664820" lon="137.760795">
<ele>2553.081777</ele>
<time>2014-08-17T04:14:58Z</time>
<desc><![CDATA[lat.=36.664820, lon.=137.760795, Alt.=2553.081777m. Speed=4.000000m/h.]]></desc>
</trkpt>
<trkpt lat="36.664867" lon="137.760852">
<ele>2552.828842</ele>
<time>2014-08-17T04:15:03Z</time>
<desc><![CDATA[lat.=36.664867, lon.=137.760852, Alt.=2552.828842m. Speed=5.000000m/h.]]></desc>
</trkpt>
<trkpt lat="36.664903" lon="137.760902">
<ele>2550.787784</ele>
<time>2014-08-17T04:15:08Z</time>
<desc><![CDATA[lat.=36.664903, lon.=137.760902, Alt.=2550.787784m. Speed=4.000000m/h.]]></desc>
</trkpt>
<trkpt lat="36.664935" lon="137.760959">
<ele>2549.340595</ele>
<time>2014-08-17T04:15:13Z</time>
<desc><![CDATA[lat.=36.664935, lon.=137.760959, Alt.=2549.340595m. Speed=4.000000m/h.]]></desc>
</trkpt>
<trkpt lat="36.664960" lon="137.761000">
<ele>2547.241634</ele>
<time>2014-08-17T04:15:18Z</time>
<desc><![CDATA[lat.=36.664960, lon.=137.761000, Alt.=2547.241634m. Speed=4.000000m/h.]]></desc>
</trkpt>
<trkpt lat="36.664968" lon="137.761034">
<ele>2544.487624</ele>
<time>2014-08-17T04:15:23Z</time>
<desc><![CDATA[lat.=36.664968, lon.=137.761034, Alt.=2544.487624m. Speed=3.000000m/h.]]></desc>
</trkpt>
<trkpt lat="36.665000" lon="137.761059">
<ele>2542.931158</ele>
<time>2014-08-17T04:15:28Z</time>
<desc><![CDATA[lat.=36.665000, lon.=137.761059, Alt.=2542.931158m. Speed=3.000000m/h.]]></desc>
</trkpt>
<trkpt lat="36.665021" lon="137.761091">
<ele>2544.831854</ele>
<time>2014-08-17T04:15:33Z</time>
<desc><![CDATA[lat.=36.665021, lon.=137.761091, Alt.=2544.831854m. Speed=3.000000m/h.]]></desc>
</trkpt>
<trkpt lat="36.665058" lon="137.761125">
<ele>2542.736176</ele>
<time>2014-08-17T04:15:38Z</time>
<desc><![CDATA[lat.=36.665058, lon.=137.761125, Alt.=2542.736176m. Speed=3.000000m/h.]]></desc>
</trkpt>
<trkpt lat="36.665084" lon="137.761151">
<ele>2538.852366</ele>
<time>2014-08-17T04:15:43Z</time>
<desc><![CDATA[lat.=36.665084, lon.=137.761151, Alt.=2538.852366m. Speed=3.000000m/h.]]></desc>
</trkpt>
<trkpt lat="36.665091" lon="137.761183">
<ele>2537.828580</ele>
<time>2014-08-17T04:15:48Z</time>
<desc><![CDATA[lat.=36.665091, lon.=137.761183, Alt.=2537.828580m. Speed=3.000000m/h.]]></desc>
</trkpt>
<trkpt lat="36.665124" lon="137.761210">
<ele>2532.811694</ele>
<time>2014-08-17T04:15:53Z</time>
<desc><![CDATA[lat.=36.665124, lon.=137.761210, Alt.=2532.811694m. Speed=3.000000m/h.]]></desc>
</trkpt>
<trkpt lat="36.665175" lon="137.761244">
<ele>2533.640520</ele>
<time>2014-08-17T04:15:58Z</time>
<desc><![CDATA[lat.=36.665175, lon.=137.761244, Alt.=2533.640520m. Speed=3.000000m/h.]]></desc>
</trkpt>
<trkpt lat="36.665212" lon="137.761262">
<ele>2529.759994</ele>
<time>2014-08-17T04:16:03Z</time>
<desc><![CDATA[lat.=36.665212, lon.=137.761262, Alt.=2529.759994m. Speed=3.000000m/h.]]></desc>
</trkpt>
<trkpt lat="36.665252" lon="137.761303">
<ele>2530.585555</ele>
<time>2014-08-17T04:16:08Z</time>
<desc><![CDATA[lat.=36.665252, lon.=137.761303, Alt.=2530.585555m. Speed=3.000000m/h.]]></desc>
</trkpt>
<trkpt lat="36.665285" lon="137.761345">
<ele>2527.353550</ele>
<time>2014-08-17T04:16:13Z</time>
<desc><![CDATA[lat.=36.665285, lon.=137.761345, Alt.=2527.353550m. Speed=3.000000m/h.]]></desc>
</trkpt>
<trkpt lat="36.665322" lon="137.761363">
<ele>2525.203250</ele>
<time>2014-08-17T04:16:18Z</time>
<desc><![CDATA[lat.=36.665322, lon.=137.761363, Alt.=2525.203250m. Speed=3.000000m/h.]]></desc>
</trkpt>
<trkpt lat="36.665365" lon="137.761364">
<ele>2527.055875</ele>
<time>2014-08-17T04:16:23Z</time>
<desc><![CDATA[lat.=36.665365, lon.=137.761364, Alt.=2527.055875m. Speed=3.000000m/h.]]></desc>
</trkpt>
<trkpt lat="36.665423" lon="137.761381">
<ele>2528.427220</ele>
<time>2014-08-17T04:16:28Z</time>
<desc><![CDATA[lat.=36.665423, lon.=137.761381, Alt.=2528.427220m. Speed=4.000000m/h.]]></desc>
</trkpt>
<trkpt lat="36.665457" lon="137.761408">
<ele>2525.140579</ele>
<time>2014-08-17T04:16:33Z</time>
<desc><![CDATA[lat.=36.665457, lon.=137.761408, Alt.=2525.140579m. Speed=3.000000m/h.]]></desc>
</trkpt>
<trkpt lat="36.665516" lon="137.761410">
<ele>2524.727068</ele>
<time>2014-08-17T04:16:38Z</time>
<desc><![CDATA[lat.=36.665516, lon.=137.761410, Alt.=2524.727068m. Speed=4.000000m/h.]]></desc>
</trkpt>
<trkpt lat="36.665549" lon="137.761436">
<ele>2521.440433</ele>
<time>2014-08-17T04:16:43Z</time>
<desc><![CDATA[lat.=36.665549, lon.=137.761436, Alt.=2521.440433m. Speed=3.000000m/h.]]></desc>
</trkpt>
<trkpt lat="36.665603" lon="137.761478">
<ele>2521.730100</ele>
<time>2014-08-17T04:16:48Z</time>
<desc><![CDATA[lat.=36.665603, lon.=137.761478, Alt.=2521.730100m. Speed=4.000000m/h.]]></desc>
</trkpt>
<trkpt lat="36.665643" lon="137.761520">
<ele>2519.095271</ele>
<time>2014-08-17T04:16:53Z</time>
<desc><![CDATA[lat.=36.665643, lon.=137.761520, Alt.=2519.095271m. Speed=4.000000m/h.]]></desc>
</trkpt>
<trkpt lat="36.665687" lon="137.761553">
<ele>2519.327015</ele>
<time>2014-08-17T04:16:58Z</time>
<desc><![CDATA[lat.=36.665687, lon.=137.761553, Alt.=2519.327015m. Speed=4.000000m/h.]]></desc>
</trkpt>
<trkpt lat="36.665713" lon="137.761579">
<ele>2515.443251</ele>
<time>2014-08-17T04:17:03Z</time>
<desc><![CDATA[lat.=36.665713, lon.=137.761579, Alt.=2515.443251m. Speed=3.000000m/h.]]></desc>
</trkpt>
<trkpt lat="36.665753" lon="137.761573">
<ele>2514.374685</ele>
<time>2014-08-17T04:17:08Z</time>
<desc><![CDATA[lat.=36.665753, lon.=137.761573, Alt.=2514.374685m. Speed=3.000000m/h.]]></desc>
</trkpt>
<trkpt lat="36.665765" lon="137.761551">
<ele>2512.593099</ele>
<time>2014-08-17T04:17:13Z</time>
<desc><![CDATA[lat.=36.665765, lon.=137.761551, Alt.=2512.593099m. Speed=3.000000m/h.]]></desc>
</trkpt>
<trkpt lat="36.665795" lon="137.761569">
<ele>2509.845692</ele>
<time>2014-08-17T04:17:18Z</time>
<desc><![CDATA[lat.=36.665795, lon.=137.761569, Alt.=2509.845692m. Speed=3.000000m/h.]]></desc>
</trkpt>
<trkpt lat="36.665824" lon="137.761603">
<ele>2507.152942</ele>
<time>2014-08-17T04:17:23Z</time>
<desc><![CDATA[lat.=36.665824, lon.=137.761603, Alt.=2507.152942m. Speed=3.000000m/h.]]></desc>
</trkpt>
<trkpt lat="36.665864" lon="137.761644">
<ele>2506.248352</ele>
<time>2014-08-17T04:17:28Z</time>
<desc><![CDATA[lat.=36.665864, lon.=137.761644, Alt.=2506.248352m. Speed=4.000000m/h.]]></desc>
</trkpt>
<trkpt lat="36.665916" lon="137.761663">
<ele>2503.562181</ele>
<time>2014-08-17T04:17:33Z</time>
<desc><![CDATA[lat.=36.665916, lon.=137.761663, Alt.=2503.562181m. Speed=3.000000m/h.]]></desc>
</trkpt>
<trkpt lat="36.665938" lon="137.761665">
<ele>2501.893196</ele>
<time>2014-08-17T04:17:38Z</time>
<desc><![CDATA[lat.=36.665938, lon.=137.761665, Alt.=2501.893196m. Speed=3.000000m/h.]]></desc>
</trkpt>
<trkpt lat="36.665982" lon="137.761666">
<ele>2502.015658</ele>
<time>2014-08-17T04:17:43Z</time>
<desc><![CDATA[lat.=36.665982, lon.=137.761666, Alt.=2502.015658m. Speed=3.000000m/h.]]></desc>
</trkpt>
<trkpt lat="36.666018" lon="137.761716">
<ele>2499.974729</ele>
<time>2014-08-17T04:17:48Z</time>
<desc><![CDATA[lat.=36.666018, lon.=137.761716, Alt.=2499.974729m. Speed=4.000000m/h.]]></desc>
</trkpt>
<trkpt lat="36.666081" lon="137.761727">
<ele>2497.291865</ele>
<time>2014-08-17T04:17:53Z</time>
<desc><![CDATA[lat.=36.666081, lon.=137.761727, Alt.=2497.291865m. Speed=4.000000m/h.]]></desc>
</trkpt>
<trkpt lat="36.666152" lon="137.761722">
<ele>2496.881717</ele>
<time>2014-08-17T04:17:58Z</time>
<desc><![CDATA[lat.=36.666152, lon.=137.761722, Alt.=2496.881717m. Speed=4.000000m/h.]]></desc>
</trkpt>
<trkpt lat="36.666212" lon="137.761693">
<ele>2494.628758</ele>
<time>2014-08-17T04:18:03Z</time>
<desc><![CDATA[lat.=36.666212, lon.=137.761693, Alt.=2494.628758m. Speed=4.000000m/h.]]></desc>
</trkpt>
<trkpt lat="36.666296" lon="137.761656">
<ele>2497.033837</ele>
<time>2014-08-17T04:18:08Z</time>
<desc><![CDATA[lat.=36.666296, lon.=137.761656, Alt.=2497.033837m. Speed=6.000000m/h.]]></desc>
</trkpt>
<trkpt lat="36.666378" lon="137.761643">
<ele>2496.627016</ele>
<time>2014-08-17T04:18:13Z</time>
<desc><![CDATA[lat.=36.666378, lon.=137.761643, Alt.=2496.627016m. Speed=6.000000m/h.]]></desc>
</trkpt>
<trkpt lat="36.666419" lon="137.761604">
<ele>2498.909622</ele>
<time>2014-08-17T04:18:18Z</time>
<desc><![CDATA[lat.=36.666419, lon.=137.761604, Alt.=2498.909622m. Speed=5.000000m/h.]]></desc>
</trkpt>
<trkpt lat="36.666446" lon="137.761550">
<ele>2496.482839</ele>
<time>2014-08-17T04:18:23Z</time>
<desc><![CDATA[lat.=36.666446, lon.=137.761550, Alt.=2496.482839m. Speed=4.000000m/h.]]></desc>
</trkpt>
<trkpt lat="36.666485" lon="137.761505">
<ele>2494.114013</ele>
<time>2014-08-17T04:18:28Z</time>
<desc><![CDATA[lat.=36.666485, lon.=137.761505, Alt.=2494.114013m. Speed=5.000000m/h.]]></desc>
</trkpt>
<trkpt lat="36.666555" lon="137.761500">
<ele>2493.703922</ele>
<time>2014-08-17T04:18:33Z</time>
<desc><![CDATA[lat.=36.666555, lon.=137.761500, Alt.=2493.703922m. Speed=5.000000m/h.]]></desc>
</trkpt>
<trkpt lat="36.666638" lon="137.761493">
<ele>2497.948586</ele>
<time>2014-08-17T04:18:38Z</time>
<desc><![CDATA[lat.=36.666638, lon.=137.761493, Alt.=2497.948586m. Speed=5.000000m/h.]]></desc>
</trkpt>
<trkpt lat="36.666674" lon="137.761526">
<ele>2499.313469</ele>
<time>2014-08-17T04:18:43Z</time>
<desc><![CDATA[lat.=36.666674, lon.=137.761526, Alt.=2499.313469m. Speed=4.000000m/h.]]></desc>
</trkpt>
<trkpt lat="36.666710" lon="137.761542">
<ele>2500.623702</ele>
<time>2014-08-17T04:18:48Z</time>
<desc><![CDATA[lat.=36.666710, lon.=137.761542, Alt.=2500.623702m. Speed=4.000000m/h.]]></desc>
</trkpt>
<trkpt lat="36.666762" lon="137.761529">
<ele>2499.558522</ele>
<time>2014-08-17T04:18:53Z</time>
<desc><![CDATA[lat.=36.666762, lon.=137.761529, Alt.=2499.558522m. Speed=4.000000m/h.]]></desc>
</trkpt>
<trkpt lat="36.666812" lon="137.761509">
<ele>2495.572118</ele>
<time>2014-08-17T04:18:58Z</time>
<desc><![CDATA[lat.=36.666812, lon.=137.761509, Alt.=2495.572118m. Speed=4.000000m/h.]]></desc>
</trkpt>
<trkpt lat="36.666846" lon="137.761471">
<ele>2493.797175</ele>
<time>2014-08-17T04:19:03Z</time>
<desc><![CDATA[lat.=36.666846, lon.=137.761471, Alt.=2493.797175m. Speed=4.000000m/h.]]></desc>
</trkpt>
<trkpt lat="36.666913" lon="137.761442">
<ele>2493.871682</ele>
<time>2014-08-17T04:19:08Z</time>
<desc><![CDATA[lat.=36.666913, lon.=137.761442, Alt.=2493.871682m. Speed=5.000000m/h.]]></desc>
</trkpt>
<trkpt lat="36.666977" lon="137.761405">
<ele>2492.755185</ele>
<time>2014-08-17T04:19:13Z</time>
<desc><![CDATA[lat.=36.666977, lon.=137.761405, Alt.=2492.755185m. Speed=5.000000m/h.]]></desc>
</trkpt>
<trkpt lat="36.667011" lon="137.761366">
<ele>2492.710472</ele>
<time>2014-08-17T04:19:18Z</time>
<desc><![CDATA[lat.=36.667011, lon.=137.761366, Alt.=2492.710472m. Speed=5.000000m/h.]]></desc>
</trkpt>
<trkpt lat="36.667040" lon="137.761351">
<ele>2493.314262</ele>
<time>2014-08-17T04:19:23Z</time>
<desc><![CDATA[lat.=36.667040, lon.=137.761351, Alt.=2493.314262m. Speed=4.000000m/h.]]></desc>
</trkpt>
<trkpt lat="36.667034" lon="137.761321">
<ele>2490.877586</ele>
<time>2014-08-17T04:19:28Z</time>
<desc><![CDATA[lat.=36.667034, lon.=137.761321, Alt.=2490.877586m. Speed=3.000000m/h.]]></desc>
</trkpt>
<trkpt lat="36.667035" lon="137.761306">
<ele>2487.362508</ele>
<time>2014-08-17T04:19:33Z</time>
<desc><![CDATA[lat.=36.667035, lon.=137.761306, Alt.=2487.362508m. Speed=2.000000m/h.]]></desc>
</trkpt>
<trkpt lat="36.667036" lon="137.761276">
<ele>2485.522997</ele>
<time>2014-08-17T04:19:38Z</time>
<desc><![CDATA[lat.=36.667036, lon.=137.761276, Alt.=2485.522997m. Speed=2.000000m/h.]]></desc>
</trkpt>
<trkpt lat="36.667037" lon="137.761245">
<ele>2483.683487</ele>
<time>2014-08-17T04:19:43Z</time>
<desc><![CDATA[lat.=36.667037, lon.=137.761245, Alt.=2483.683487m. Speed=3.000000m/h.]]></desc>
</trkpt>
<trkpt lat="36.667046" lon="137.761214">
<ele>2482.441142</ele>
<time>2014-08-17T04:19:48Z</time>
<desc><![CDATA[lat.=36.667046, lon.=137.761214, Alt.=2482.441142m. Speed=2.000000m/h.]]></desc>
</trkpt>
<trkpt lat="36.667039" lon="137.761215">
<ele>2480.113763</ele>
<time>2014-08-17T04:19:53Z</time>
<desc><![CDATA[lat.=36.667039, lon.=137.761215, Alt.=2480.113763m. Speed=2.000000m/h.]]></desc>
</trkpt>
<trkpt lat="36.667032" lon="137.761199">
<ele>2479.461953</ele>
<time>2014-08-17T04:19:58Z</time>
<desc><![CDATA[lat.=36.667032, lon.=137.761199, Alt.=2479.461953m. Speed=1.000000m/h.]]></desc>
</trkpt>
<trkpt lat="36.667051" lon="137.761176">
<ele>2480.007786</ele>
<time>2014-08-17T04:20:03Z</time>
<desc><![CDATA[lat.=36.667051, lon.=137.761176, Alt.=2480.007786m. Speed=2.000000m/h.]]></desc>
</trkpt>
<trkpt lat="36.667099" lon="137.761170">
<ele>2479.536494</ele>
<time>2014-08-17T04:20:08Z</time>
<desc><![CDATA[lat.=36.667099, lon.=137.761170, Alt.=2479.536494m. Speed=3.000000m/h.]]></desc>
</trkpt>
<trkpt lat="36.667114" lon="137.761139">
<ele>2478.891318</ele>
<time>2014-08-17T04:20:13Z</time>
<desc><![CDATA[lat.=36.667114, lon.=137.761139, Alt.=2478.891318m. Speed=3.000000m/h.]]></desc>
</trkpt>
<trkpt lat="36.667101" lon="137.761091">
<ele>2477.533055</ele>
<time>2014-08-17T04:20:18Z</time>
<desc><![CDATA[lat.=36.667101, lon.=137.761091, Alt.=2477.533055m. Speed=3.000000m/h.]]></desc>
</trkpt>
<trkpt lat="36.667142" lon="137.761085">
<ele>2476.464603</ele>
<time>2014-08-17T04:20:23Z</time>
<desc><![CDATA[lat.=36.667142, lon.=137.761085, Alt.=2476.464603m. Speed=3.000000m/h.]]></desc>
</trkpt>
<trkpt lat="36.667169" lon="137.761048">
<ele>2474.092536</ele>
<time>2014-08-17T04:20:28Z</time>
<desc><![CDATA[lat.=36.667169, lon.=137.761048, Alt.=2474.092536m. Speed=4.000000m/h.]]></desc>
</trkpt>
<trkpt lat="36.667218" lon="137.761011">
<ele>2471.781756</ele>
<time>2014-08-17T04:20:33Z</time>
<desc><![CDATA[lat.=36.667218, lon.=137.761011, Alt.=2471.781756m. Speed=4.000000m/h.]]></desc>
</trkpt>
<trkpt lat="36.667261" lon="137.760958">
<ele>2468.819173</ele>
<time>2014-08-17T04:20:38Z</time>
<desc><![CDATA[lat.=36.667261, lon.=137.760958, Alt.=2468.819173m. Speed=5.000000m/h.]]></desc>
</trkpt>
<trkpt lat="36.667306" lon="137.760912">
<ele>2468.777824</ele>
<time>2014-08-17T04:20:43Z</time>
<desc><![CDATA[lat.=36.667306, lon.=137.760912, Alt.=2468.777824m. Speed=5.000000m/h.]]></desc>
</trkpt>
<trkpt lat="36.667352" lon="137.760852">
<ele>2466.951627</ele>
<time>2014-08-17T04:20:48Z</time>
<desc><![CDATA[lat.=36.667352, lon.=137.760852, Alt.=2466.951627m. Speed=5.000000m/h.]]></desc>
</trkpt>
<trkpt lat="36.667426" lon="137.760806">
<ele>2469.298968</ele>
<time>2014-08-17T04:20:53Z</time>
<desc><![CDATA[lat.=36.667426, lon.=137.760806, Alt.=2469.298968m. Speed=5.000000m/h.]]></desc>
</trkpt>
<trkpt lat="36.667463" lon="137.760791">
<ele>2468.769747</ele>
<time>2014-08-17T04:20:58Z</time>
<desc><![CDATA[lat.=36.667463, lon.=137.760791, Alt.=2468.769747m. Speed=4.000000m/h.]]></desc>
</trkpt>
<trkpt lat="36.667536" lon="137.760776">
<ele>2472.956597</ele>
<time>2014-08-17T04:21:03Z</time>
<desc><![CDATA[lat.=36.667536, lon.=137.760776, Alt.=2472.956597m. Speed=4.000000m/h.]]></desc>
</trkpt>
<trkpt lat="36.667592" lon="137.760723">
<ele>2472.918614</ele>
<time>2014-08-17T04:21:08Z</time>
<desc><![CDATA[lat.=36.667592, lon.=137.760723, Alt.=2472.918614m. Speed=5.000000m/h.]]></desc>
</trkpt>
<trkpt lat="36.667653" lon="137.760662">
<ele>2472.286802</ele>
<time>2014-08-17T04:21:13Z</time>
<desc><![CDATA[lat.=36.667653, lon.=137.760662, Alt.=2472.286802m. Speed=6.000000m/h.]]></desc>
</trkpt>
<trkpt lat="36.667689" lon="137.760561">
<ele>2470.293419</ele>
<time>2014-08-17T04:21:18Z</time>
<desc><![CDATA[lat.=36.667689, lon.=137.760561, Alt.=2470.293419m. Speed=7.000000m/h.]]></desc>
</trkpt>
<trkpt lat="36.667742" lon="137.760484">
<ele>2470.740039</ele>
<time>2014-08-17T04:21:23Z</time>
<desc><![CDATA[lat.=36.667742, lon.=137.760484, Alt.=2470.740039m. Speed=7.000000m/h.]]></desc>
</trkpt>
<trkpt lat="36.667791" lon="137.760415">
<ele>2470.050294</ele>
<time>2014-08-17T04:21:28Z</time>
<desc><![CDATA[lat.=36.667791, lon.=137.760415, Alt.=2470.050294m. Speed=6.000000m/h.]]></desc>
</trkpt>
<trkpt lat="36.667833" lon="137.760361">
<ele>2470.548227</ele>
<time>2014-08-17T04:21:33Z</time>
<desc><![CDATA[lat.=36.667833, lon.=137.760361, Alt.=2470.548227m. Speed=5.000000m/h.]]></desc>
</trkpt>
<trkpt lat="36.667853" lon="137.760291">
<ele>2469.200014</ele>
<time>2014-08-17T04:21:38Z</time>
<desc><![CDATA[lat.=36.667853, lon.=137.760291, Alt.=2469.200014m. Speed=5.000000m/h.]]></desc>
</trkpt>
<trkpt lat="36.667880" lon="137.760236">
<ele>2470.233825</ele>
<time>2014-08-17T04:21:43Z</time>
<desc><![CDATA[lat.=36.667880, lon.=137.760236, Alt.=2470.233825m. Speed=5.000000m/h.]]></desc>
</trkpt>
<trkpt lat="36.667917" lon="137.760221">
<ele>2469.704648</ele>
<time>2014-08-17T04:21:48Z</time>
<desc><![CDATA[lat.=36.667917, lon.=137.760221, Alt.=2469.704648m. Speed=4.000000m/h.]]></desc>
</trkpt>
<trkpt lat="36.667959" lon="137.760167">
<ele>2470.202605</ele>
<time>2014-08-17T04:21:53Z</time>
<desc><![CDATA[lat.=36.667959, lon.=137.760167, Alt.=2470.202605m. Speed=4.000000m/h.]]></desc>
</trkpt>
<trkpt lat="36.667978" lon="137.760128">
<ele>2470.693877</ele>
<time>2014-08-17T04:21:58Z</time>
<desc><![CDATA[lat.=36.667978, lon.=137.760128, Alt.=2470.693877m. Speed=4.000000m/h.]]></desc>
</trkpt>
<trkpt lat="36.668005" lon="137.760091">
<ele>2468.321899</ele>
<time>2014-08-17T04:22:03Z</time>
<desc><![CDATA[lat.=36.668005, lon.=137.760091, Alt.=2468.321899m. Speed=3.000000m/h.]]></desc>
</trkpt>
<trkpt lat="36.668039" lon="137.760085">
<ele>2464.926133</ele>
<time>2014-08-17T04:22:08Z</time>
<desc><![CDATA[lat.=36.668039, lon.=137.760085, Alt.=2464.926133m. Speed=3.000000m/h.]]></desc>
</trkpt>
<trkpt lat="36.668077" lon="137.760023">
<ele>2465.963317</ele>
<time>2014-08-17T04:22:13Z</time>
<desc><![CDATA[lat.=36.668077, lon.=137.760023, Alt.=2465.963317m. Speed=4.000000m/h.]]></desc>
</trkpt>
<trkpt lat="36.668126" lon="137.759985">
<ele>2465.382885</ele>
<time>2014-08-17T04:22:18Z</time>
<desc><![CDATA[lat.=36.668126, lon.=137.759985, Alt.=2465.382885m. Speed=4.000000m/h.]]></desc>
</trkpt>
<trkpt lat="36.668184" lon="137.759970">
<ele>2468.375484</ele>
<time>2014-08-17T04:22:23Z</time>
<desc><![CDATA[lat.=36.668184, lon.=137.759970, Alt.=2468.375484m. Speed=4.000000m/h.]]></desc>
</trkpt>
<trkpt lat="36.668226" lon="137.759949">
<ele>2467.252506</ele>
<time>2014-08-17T04:22:28Z</time>
<desc><![CDATA[lat.=36.668226, lon.=137.759949, Alt.=2467.252506m. Speed=4.000000m/h.]]></desc>
</trkpt>
<trkpt lat="36.668289" lon="137.759927">
<ele>2467.921074</ele>
<time>2014-08-17T04:22:33Z</time>
<desc><![CDATA[lat.=36.668289, lon.=137.759927, Alt.=2467.921074m. Speed=4.000000m/h.]]></desc>
</trkpt>
<trkpt lat="36.668330" lon="137.759905">
<ele>2466.798105</ele>
<time>2014-08-17T04:22:38Z</time>
<desc><![CDATA[lat.=36.668330, lon.=137.759905, Alt.=2466.798105m. Speed=4.000000m/h.]]></desc>
</trkpt>
<trkpt lat="36.668378" lon="137.759916">
<ele>2464.651347</ele>
<time>2014-08-17T04:22:43Z</time>
<desc><![CDATA[lat.=36.668378, lon.=137.759916, Alt.=2464.651347m. Speed=4.000000m/h.]]></desc>
</trkpt>
<trkpt lat="36.668411" lon="137.759941">
<ele>2463.095062</ele>
<time>2014-08-17T04:22:48Z</time>
<desc><![CDATA[lat.=36.668411, lon.=137.759941, Alt.=2463.095062m. Speed=3.000000m/h.]]></desc>
</trkpt>
<trkpt lat="36.668422" lon="137.759967">
<ele>2459.747230</ele>
<time>2014-08-17T04:22:53Z</time>
<desc><![CDATA[lat.=36.668422, lon.=137.759967, Alt.=2459.747230m. Speed=3.000000m/h.]]></desc>
</trkpt>
<trkpt lat="36.668469" lon="137.759975">
<ele>2462.791126</ele>
<time>2014-08-17T04:22:58Z</time>
<desc><![CDATA[lat.=36.668469, lon.=137.759975, Alt.=2462.791126m. Speed=3.000000m/h.]]></desc>
</trkpt>
<trkpt lat="36.668494" lon="137.759999">
<ele>2464.098094</ele>
<time>2014-08-17T04:23:03Z</time>
<desc><![CDATA[lat.=36.668494, lon.=137.759999, Alt.=2464.098094m. Speed=3.000000m/h.]]></desc>
</trkpt>
<trkpt lat="36.668545" lon="137.760016">
<ele>2464.872578</ele>
<time>2014-08-17T04:23:08Z</time>
<desc><![CDATA[lat.=36.668545, lon.=137.760016, Alt.=2464.872578m. Speed=3.000000m/h.]]></desc>
</trkpt>
<trkpt lat="36.668563" lon="137.760042">
<ele>2462.121937</ele>
<time>2014-08-17T04:23:13Z</time>
<desc><![CDATA[lat.=36.668563, lon.=137.760042, Alt.=2462.121937m. Speed=3.000000m/h.]]></desc>
</trkpt>
<trkpt lat="36.668607" lon="137.760042">
<ele>2465.705049</ele>
<time>2014-08-17T04:23:18Z</time>
<desc><![CDATA[lat.=36.668607, lon.=137.760042, Alt.=2465.705049m. Speed=3.000000m/h.]]></desc>
</trkpt>
<trkpt lat="36.668628" lon="137.760090">
<ele>2465.930261</ele>
<time>2014-08-17T04:23:23Z</time>
<desc><![CDATA[lat.=36.668628, lon.=137.760090, Alt.=2465.930261m. Speed=3.000000m/h.]]></desc>
</trkpt>
<trkpt lat="36.668645" lon="137.760147">
<ele>2463.288873</ele>
<time>2014-08-17T04:23:28Z</time>
<desc><![CDATA[lat.=36.668645, lon.=137.760147, Alt.=2463.288873m. Speed=3.000000m/h.]]></desc>
</trkpt>
<trkpt lat="36.668693" lon="137.760156">
<ele>2464.602576</ele>
<time>2014-08-17T04:23:33Z</time>
<desc><![CDATA[lat.=36.668693, lon.=137.760156, Alt.=2464.602576m. Speed=3.000000m/h.]]></desc>
</trkpt>
<trkpt lat="36.668736" lon="137.760156">
<ele>2468.185700</ele>
<time>2014-08-17T04:23:38Z</time>
<desc><![CDATA[lat.=36.668736, lon.=137.760156, Alt.=2468.185700m. Speed=2.000000m/h.]]></desc>
</trkpt>
<trkpt lat="36.668758" lon="137.760190">
<ele>2464.895869</ele>
<time>2014-08-17T04:23:43Z</time>
<desc><![CDATA[lat.=36.668758, lon.=137.760190, Alt.=2464.895869m. Speed=2.000000m/h.]]></desc>
</trkpt>
<trkpt lat="36.668786" lon="137.760205">
<ele>2469.069461</ele>
<time>2014-08-17T04:23:48Z</time>
<desc><![CDATA[lat.=36.668786, lon.=137.760205, Alt.=2469.069461m. Speed=2.000000m/h.]]></desc>
</trkpt>
<trkpt lat="36.668848" lon="137.760148">
<ele>2478.279914</ele>
<time>2014-08-17T04:23:53Z</time>
<desc><![CDATA[lat.=36.668848, lon.=137.760148, Alt.=2478.279914m. Speed=3.000000m/h.]]></desc>
</trkpt>
<trkpt lat="36.668863" lon="137.760182">
<ele>2474.392898</ele>
<time>2014-08-17T04:23:58Z</time>
<desc><![CDATA[lat.=36.668863, lon.=137.760182, Alt.=2474.392898m. Speed=3.000000m/h.]]></desc>
</trkpt>
<trkpt lat="36.668898" lon="137.760197">
<ele>2479.163686</ele>
<time>2014-08-17T04:24:03Z</time>
<desc><![CDATA[lat.=36.668898, lon.=137.760197, Alt.=2479.163686m. Speed=3.000000m/h.]]></desc>
</trkpt>
<trkpt lat="36.668913" lon="137.760263">
<ele>2473.655712</ele>
<time>2014-08-17T04:24:08Z</time>
<desc><![CDATA[lat.=36.668913, lon.=137.760263, Alt.=2473.655712m. Speed=3.000000m/h.]]></desc>
</trkpt>
<trkpt lat="36.668978" lon="137.760280">
<ele>2477.354838</ele>
<time>2014-08-17T04:24:13Z</time>
<desc><![CDATA[lat.=36.668978, lon.=137.760280, Alt.=2477.354838m. Speed=3.000000m/h.]]></desc>
</trkpt>
<trkpt lat="36.669007" lon="137.760281">
<ele>2478.013389</ele>
<time>2014-08-17T04:24:18Z</time>
<desc><![CDATA[lat.=36.669007, lon.=137.760281, Alt.=2478.013389m. Speed=3.000000m/h.]]></desc>
</trkpt>
<trkpt lat="36.669018" lon="137.760339">
<ele>2473.044622</ele>
<time>2014-08-17T04:24:23Z</time>
<desc><![CDATA[lat.=36.669018, lon.=137.760339, Alt.=2473.044622m. Speed=3.000000m/h.]]></desc>
</trkpt>
<trkpt lat="36.669075" lon="137.760419">
<ele>2474.634872</ele>
<time>2014-08-17T04:24:28Z</time>
<desc><![CDATA[lat.=36.669075, lon.=137.760419, Alt.=2474.634872m. Speed=3.000000m/h.]]></desc>
</trkpt>
<trkpt lat="36.669117" lon="137.760451">
<ele>2478.327287</ele>
<time>2014-08-17T04:24:33Z</time>
<desc><![CDATA[lat.=36.669117, lon.=137.760451, Alt.=2478.327287m. Speed=3.000000m/h.]]></desc>
</trkpt>
<trkpt lat="36.669145" lon="137.760498">
<ele>2480.879951</ele>
<time>2014-08-17T04:24:38Z</time>
<desc><![CDATA[lat.=36.669145, lon.=137.760498, Alt.=2480.879951m. Speed=3.000000m/h.]]></desc>
</trkpt>
<trkpt lat="36.669162" lon="137.760521">
<ele>2483.319988</ele>
<time>2014-08-17T04:24:43Z</time>
<desc><![CDATA[lat.=36.669162, lon.=137.760521, Alt.=2483.319988m. Speed=3.000000m/h.]]></desc>
</trkpt>
<trkpt lat="36.669188" lon="137.760546">
<ele>2482.896793</ele>
<time>2014-08-17T04:24:48Z</time>
<desc><![CDATA[lat.=36.669188, lon.=137.760546, Alt.=2482.896793m. Speed=3.000000m/h.]]></desc>
</trkpt>
<trkpt lat="36.669213" lon="137.760555">
<ele>2482.418967</ele>
<time>2014-08-17T04:24:53Z</time>
<desc><![CDATA[lat.=36.669213, lon.=137.760555, Alt.=2482.418967m. Speed=2.000000m/h.]]></desc>
</trkpt>
<trkpt lat="36.669242" lon="137.760604">
<ele>2481.511215</ele>
<time>2014-08-17T04:24:58Z</time>
<desc><![CDATA[lat.=36.669242, lon.=137.760604, Alt.=2481.511215m. Speed=3.000000m/h.]]></desc>
</trkpt>
<trkpt lat="36.669278" lon="137.760637">
<ele>2481.146029</ele>
<time>2014-08-17T04:25:03Z</time>
<desc><![CDATA[lat.=36.669278, lon.=137.760637, Alt.=2481.146029m. Speed=3.000000m/h.]]></desc>
</trkpt>
<trkpt lat="36.669303" lon="137.760678">
<ele>2480.777477</ele>
<time>2014-08-17T04:25:08Z</time>
<desc><![CDATA[lat.=36.669303, lon.=137.760678, Alt.=2480.777477m. Speed=3.000000m/h.]]></desc>
</trkpt>
<trkpt lat="36.669335" lon="137.760718">
<ele>2482.736338</ele>
<time>2014-08-17T04:25:13Z</time>
<desc><![CDATA[lat.=36.669335, lon.=137.760718, Alt.=2482.736338m. Speed=3.000000m/h.]]></desc>
</trkpt>
<trkpt lat="36.669374" lon="137.760758">
<ele>2483.562185</ele>
<time>2014-08-17T04:25:18Z</time>
<desc><![CDATA[lat.=36.669374, lon.=137.760758, Alt.=2483.562185m. Speed=3.000000m/h.]]></desc>
</trkpt>
<trkpt lat="36.669410" lon="137.760791">
<ele>2484.927228</ele>
<time>2014-08-17T04:25:23Z</time>
<desc><![CDATA[lat.=36.669410, lon.=137.760791, Alt.=2484.927228m. Speed=3.000000m/h.]]></desc>
</trkpt>
<trkpt lat="36.669468" lon="137.760825">
<ele>2484.623441</ele>
<time>2014-08-17T04:25:28Z</time>
<desc><![CDATA[lat.=36.669468, lon.=137.760825, Alt.=2484.623441m. Speed=4.000000m/h.]]></desc>
</trkpt>
<trkpt lat="36.669507" lon="137.760865">
<ele>2485.449304</ele>
<time>2014-08-17T04:25:33Z</time>
<desc><![CDATA[lat.=36.669507, lon.=137.760865, Alt.=2485.449304m. Speed=4.000000m/h.]]></desc>
</trkpt>
<trkpt lat="36.669529" lon="137.760898">
<ele>2485.619963</ele>
<time>2014-08-17T04:25:38Z</time>
<desc><![CDATA[lat.=36.669529, lon.=137.760898, Alt.=2485.619963m. Speed=3.000000m/h.]]></desc>
</trkpt>
<trkpt lat="36.669590" lon="137.760907">
<ele>2488.128155</ele>
<time>2014-08-17T04:25:43Z</time>
<desc><![CDATA[lat.=36.669590, lon.=137.760907, Alt.=2488.128155m. Speed=3.000000m/h.]]></desc>
</trkpt>
<trkpt lat="36.669628" lon="137.760892">
<ele>2487.599089</ele>
<time>2014-08-17T04:25:48Z</time>
<desc><![CDATA[lat.=36.669628, lon.=137.760892, Alt.=2487.599089m. Speed=3.000000m/h.]]></desc>
</trkpt>
<trkpt lat="36.669669" lon="137.760870">
<ele>2488.206413</ele>
<time>2014-08-17T04:25:53Z</time>
<desc><![CDATA[lat.=36.669669, lon.=137.760870, Alt.=2488.206413m. Speed=3.000000m/h.]]></desc>
</trkpt>
<trkpt lat="36.669721" lon="137.760856">
<ele>2487.141543</ele>
<time>2014-08-17T04:25:58Z</time>
<desc><![CDATA[lat.=36.669721, lon.=137.760856, Alt.=2487.141543m. Speed=3.000000m/h.]]></desc>
</trkpt>
<trkpt lat="36.669765" lon="137.760859">
<ele>2485.534113</ele>
<time>2014-08-17T04:26:03Z</time>
<desc><![CDATA[lat.=36.669765, lon.=137.760859, Alt.=2485.534113m. Speed=3.000000m/h.]]></desc>
</trkpt>
<trkpt lat="36.669809" lon="137.760860">
<ele>2485.656901</ele>
<time>2014-08-17T04:26:08Z</time>
<desc><![CDATA[lat.=36.669809, lon.=137.760860, Alt.=2485.656901m. Speed=3.000000m/h.]]></desc>
</trkpt>
<trkpt lat="36.669858" lon="137.760838">
<ele>2485.131231</ele>
<time>2014-08-17T04:26:13Z</time>
<desc><![CDATA[lat.=36.669858, lon.=137.760838, Alt.=2485.131231m. Speed=3.000000m/h.]]></desc>
</trkpt>
<trkpt lat="36.669917" lon="137.760808">
<ele>2486.339160</ele>
<time>2014-08-17T04:26:18Z</time>
<desc><![CDATA[lat.=36.669917, lon.=137.760808, Alt.=2486.339160m. Speed=4.000000m/h.]]></desc>
</trkpt>
<trkpt lat="36.669957" lon="137.760834">
<ele>2485.380207</ele>
<time>2014-08-17T04:26:23Z</time>
<desc><![CDATA[lat.=36.669957, lon.=137.760834, Alt.=2485.380207m. Speed=4.000000m/h.]]></desc>
</trkpt>
<trkpt lat="36.669983" lon="137.760827">
<ele>2484.847786</ele>
<time>2014-08-17T04:26:28Z</time>
<desc><![CDATA[lat.=36.669983, lon.=137.760827, Alt.=2484.847786m. Speed=3.000000m/h.]]></desc>
</trkpt>
<trkpt lat="36.670002" lon="137.760820">
<ele>2483.718161</ele>
<time>2014-08-17T04:26:33Z</time>
<desc><![CDATA[lat.=36.670002, lon.=137.760820, Alt.=2483.718161m. Speed=3.000000m/h.]]></desc>
</trkpt>
<trkpt lat="36.670013" lon="137.760829">
<ele>2483.776181</ele>
<time>2014-08-17T04:26:38Z</time>
<desc><![CDATA[lat.=36.670013, lon.=137.760829, Alt.=2483.776181m. Speed=2.000000m/h.]]></desc>
</trkpt>
<trkpt lat="36.670017" lon="137.760821">
<ele>2483.182358</ele>
<time>2014-08-17T04:26:44Z</time>
<desc><![CDATA[lat.=36.670017, lon.=137.760821, Alt.=2483.182358m. Speed=0.000000m/h.]]></desc>
</trkpt>
<trkpt lat="36.670042" lon="137.760830">
<ele>2482.704577</ele>
<time>2014-08-17T04:26:49Z</time>
<desc><![CDATA[lat.=36.670042, lon.=137.760830, Alt.=2482.704577m. Speed=3.000000m/h.]]></desc>
</trkpt>
<trkpt lat="36.670090" lon="137.760840">
<ele>2482.288203</ele>
<time>2014-08-17T04:26:54Z</time>
<desc><![CDATA[lat.=36.670090, lon.=137.760840, Alt.=2482.288203m. Speed=3.000000m/h.]]></desc>
</trkpt>
<trkpt lat="36.670095" lon="137.760802">
<ele>2479.854896</ele>
<time>2014-08-17T04:26:59Z</time>
<desc><![CDATA[lat.=36.670095, lon.=137.760802, Alt.=2479.854896m. Speed=2.000000m/h.]]></desc>
</trkpt>
<trkpt lat="36.670092" lon="137.760795">
<ele>2476.933655</ele>
<time>2014-08-17T04:27:04Z</time>
<desc><![CDATA[lat.=36.670092, lon.=137.760795, Alt.=2476.933655m. Speed=1.000000m/h.]]></desc>
</trkpt>
<trkpt lat="36.670096" lon="137.760802">
<ele>2478.124683</ele>
<time>2014-08-17T04:27:09Z</time>
<desc><![CDATA[lat.=36.670096, lon.=137.760802, Alt.=2478.124683m. Speed=1.000000m/h.]]></desc>
</trkpt>
<trkpt lat="36.670088" lon="137.760835">
<ele>2475.906536</ele>
<time>2014-08-17T04:27:14Z</time>
<desc><![CDATA[lat.=36.670088, lon.=137.760835, Alt.=2475.906536m. Speed=1.000000m/h.]]></desc>
</trkpt>
<trkpt lat="36.670103" lon="137.760835">
<ele>2475.370737</ele>
<time>2014-08-17T04:27:19Z</time>
<desc><![CDATA[lat.=36.670103, lon.=137.760835, Alt.=2475.370737m. Speed=0.000000m/h.]]></desc>
</trkpt>
<trkpt lat="36.670136" lon="137.760861">
<ele>2473.814591</ele>
<time>2014-08-17T04:27:24Z</time>
<desc><![CDATA[lat.=36.670136, lon.=137.760861, Alt.=2473.814591m. Speed=2.000000m/h.]]></desc>
</trkpt>
<trkpt lat="36.670179" lon="137.760894">
<ele>2474.046686</ele>
<time>2014-08-17T04:27:29Z</time>
<desc><![CDATA[lat.=36.670179, lon.=137.760894, Alt.=2474.046686m. Speed=2.000000m/h.]]></desc>
</trkpt>
<trkpt lat="36.670220" lon="137.760888">
<ele>2472.978479</ele>
<time>2014-08-17T04:27:34Z</time>
<desc><![CDATA[lat.=36.670220, lon.=137.760888, Alt.=2472.978479m. Speed=3.000000m/h.]]></desc>
</trkpt>
<trkpt lat="36.670286" lon="137.760906">
<ele>2473.217358</ele>
<time>2014-08-17T04:27:39Z</time>
<desc><![CDATA[lat.=36.670286, lon.=137.760906, Alt.=2473.217358m. Speed=3.000000m/h.]]></desc>
</trkpt>
<trkpt lat="36.670302" lon="137.760860">
<ele>2470.787438</ele>
<time>2014-08-17T04:27:44Z</time>
<desc><![CDATA[lat.=36.670302, lon.=137.760860, Alt.=2470.787438m. Speed=3.000000m/h.]]></desc>
</trkpt>
<trkpt lat="36.670314" lon="137.760838">
<ele>2469.005978</ele>
<time>2014-08-17T04:27:49Z</time>
<desc><![CDATA[lat.=36.670314, lon.=137.760838, Alt.=2469.005978m. Speed=3.000000m/h.]]></desc>
</trkpt>
<trkpt lat="36.670293" lon="137.760790">
<ele>2467.050440</ele>
<time>2014-08-17T04:27:54Z</time>
<desc><![CDATA[lat.=36.670293, lon.=137.760790, Alt.=2467.050440m. Speed=3.000000m/h.]]></desc>
</trkpt>
<trkpt lat="36.670324" lon="137.760760">
<ele>2465.869581</ele>
<time>2014-08-17T04:27:59Z</time>
<desc><![CDATA[lat.=36.670324, lon.=137.760760, Alt.=2465.869581m. Speed=3.000000m/h.]]></desc>
</trkpt>
<trkpt lat="36.670326" lon="137.760698">
<ele>2463.920830</ele>
<time>2014-08-17T04:28:04Z</time>
<desc><![CDATA[lat.=36.670326, lon.=137.760698, Alt.=2463.920830m. Speed=4.000000m/h.]]></desc>
</trkpt>
<trkpt lat="36.670331" lon="137.760660">
<ele>2461.487531</ele>
<time>2014-08-17T04:28:09Z</time>
<desc><![CDATA[lat.=36.670331, lon.=137.760660, Alt.=2461.487531m. Speed=3.000000m/h.]]></desc>
</trkpt>
<trkpt lat="36.670382" lon="137.760678">
<ele>2460.531997</ele>
<time>2014-08-17T04:28:14Z</time>
<desc><![CDATA[lat.=36.670382, lon.=137.760678, Alt.=2460.531997m. Speed=4.000000m/h.]]></desc>
</trkpt>
<trkpt lat="36.670441" lon="137.760712">
<ele>2458.498102</ele>
<time>2014-08-17T04:28:19Z</time>
<desc><![CDATA[lat.=36.670441, lon.=137.760712, Alt.=2458.498102m. Speed=4.000000m/h.]]></desc>
</trkpt>
<trkpt lat="36.670471" lon="137.760698">
<ele>2457.371889</ele>
<time>2014-08-17T04:28:24Z</time>
<desc><![CDATA[lat.=36.670471, lon.=137.760698, Alt.=2457.371889m. Speed=4.000000m/h.]]></desc>
</trkpt>
<trkpt lat="36.670533" lon="137.760724">
<ele>2456.474400</ele>
<time>2014-08-17T04:28:29Z</time>
<desc><![CDATA[lat.=36.670533, lon.=137.760724, Alt.=2456.474400m. Speed=4.000000m/h.]]></desc>
</trkpt>
<trkpt lat="36.670573" lon="137.760766">
<ele>2455.570127</ele>
<time>2014-08-17T04:28:34Z</time>
<desc><![CDATA[lat.=36.670573, lon.=137.760766, Alt.=2455.570127m. Speed=4.000000m/h.]]></desc>
</trkpt>
<trkpt lat="36.670640" lon="137.760737">
<ele>2453.914930</ele>
<time>2014-08-17T04:28:39Z</time>
<desc><![CDATA[lat.=36.670640, lon.=137.760737, Alt.=2453.914930m. Speed=4.000000m/h.]]></desc>
</trkpt>
<trkpt lat="36.670687" lon="137.760763">
<ele>2453.553245</ele>
<time>2014-08-17T04:28:44Z</time>
<desc><![CDATA[lat.=36.670687, lon.=137.760763, Alt.=2453.553245m. Speed=4.000000m/h.]]></desc>
</trkpt>
<trkpt lat="36.670732" lon="137.760765">
<ele>2451.945899</ele>
<time>2014-08-17T04:28:49Z</time>
<desc><![CDATA[lat.=36.670732, lon.=137.760765, Alt.=2451.945899m. Speed=4.000000m/h.]]></desc>
</trkpt>
<trkpt lat="36.670785" lon="137.760704">
<ele>2450.717234</ele>
<time>2014-08-17T04:28:54Z</time>
<desc><![CDATA[lat.=36.670785, lon.=137.760704, Alt.=2450.717234m. Speed=5.000000m/h.]]></desc>
</trkpt>
<trkpt lat="36.670841" lon="137.760651">
<ele>2450.679611</ele>
<time>2014-08-17T04:28:59Z</time>
<desc><![CDATA[lat.=36.670841, lon.=137.760651, Alt.=2450.679611m. Speed=6.000000m/h.]]></desc>
</trkpt>
<trkpt lat="36.670911" lon="137.760646">
<ele>2450.270117</ele>
<time>2014-08-17T04:29:04Z</time>
<desc><![CDATA[lat.=36.670911, lon.=137.760646, Alt.=2450.270117m. Speed=5.000000m/h.]]></desc>
</trkpt>
<trkpt lat="36.670963" lon="137.760632">
<ele>2449.205376</ele>
<time>2014-08-17T04:29:09Z</time>
<desc><![CDATA[lat.=36.670963, lon.=137.760632, Alt.=2449.205376m. Speed=5.000000m/h.]]></desc>
</trkpt>
<trkpt lat="36.670954" lon="137.760561">
<ele>2448.928812</ele>
<time>2014-08-17T04:29:14Z</time>
<desc><![CDATA[lat.=36.670954, lon.=137.760561, Alt.=2448.928812m. Speed=5.000000m/h.]]></desc>
</trkpt>
<trkpt lat="36.670974" lon="137.760539">
<ele>2446.014381</ele>
<time>2014-08-17T04:29:19Z</time>
<desc><![CDATA[lat.=36.670974, lon.=137.760539, Alt.=2446.014381m. Speed=4.000000m/h.]]></desc>
</trkpt>
<trkpt lat="36.671018" lon="137.760558">
<ele>2442.731477</ele>
<time>2014-08-17T04:29:24Z</time>
<desc><![CDATA[lat.=36.671018, lon.=137.760558, Alt.=2442.731477m. Speed=4.000000m/h.]]></desc>
</trkpt>
<trkpt lat="36.671056" lon="137.760544">
<ele>2440.472307</ele>
<time>2014-08-17T04:29:29Z</time>
<desc><![CDATA[lat.=36.671056, lon.=137.760544, Alt.=2440.472307m. Speed=4.000000m/h.]]></desc>
</trkpt>
<trkpt lat="36.671111" lon="137.760538">
<ele>2440.598614</ele>
<time>2014-08-17T04:29:34Z</time>
<desc><![CDATA[lat.=36.671111, lon.=137.760538, Alt.=2440.598614m. Speed=4.000000m/h.]]></desc>
</trkpt>
<trkpt lat="36.671127" lon="137.760492">
<ele>2439.898954</ele>
<time>2014-08-17T04:29:39Z</time>
<desc><![CDATA[lat.=36.671127, lon.=137.760492, Alt.=2439.898954m. Speed=4.000000m/h.]]></desc>
</trkpt>
<trkpt lat="36.671171" lon="137.760493">
<ele>2440.021857</ele>
<time>2014-08-17T04:29:44Z</time>
<desc><![CDATA[lat.=36.671171, lon.=137.760493, Alt.=2440.021857m. Speed=3.000000m/h.]]></desc>
</trkpt>
<trkpt lat="36.671193" lon="137.760495">
<ele>2438.353097</ele>
<time>2014-08-17T04:29:49Z</time>
<desc><![CDATA[lat.=36.671193, lon.=137.760495, Alt.=2438.353097m. Speed=3.000000m/h.]]></desc>
</trkpt>
<trkpt lat="36.671217" lon="137.760481">
<ele>2434.899497</ele>
<time>2014-08-17T04:29:54Z</time>
<desc><![CDATA[lat.=36.671217, lon.=137.760481, Alt.=2434.899497m. Speed=3.000000m/h.]]></desc>
</trkpt>
<trkpt lat="36.671243" lon="137.760459">
<ele>2432.582301</ele>
<time>2014-08-17T04:29:59Z</time>
<desc><![CDATA[lat.=36.671243, lon.=137.760459, Alt.=2432.582301m. Speed=3.000000m/h.]]></desc>
</trkpt>
<trkpt lat="36.671299" lon="137.760438">
<ele>2430.923787</ele>
<time>2014-08-17T04:30:04Z</time>
<desc><![CDATA[lat.=36.671299, lon.=137.760438, Alt.=2430.923787m. Speed=4.000000m/h.]]></desc>
</trkpt>
<trkpt lat="36.671363" lon="137.760401">
<ele>2431.538090</ele>
<time>2014-08-17T04:30:09Z</time>
<desc><![CDATA[lat.=36.671363, lon.=137.760401, Alt.=2431.538090m. Speed=5.000000m/h.]]></desc>
</trkpt>
<trkpt lat="36.671426" lon="137.760379">
<ele>2432.207028</ele>
<time>2014-08-17T04:30:14Z</time>
<desc><![CDATA[lat.=36.671426, lon.=137.760379, Alt.=2432.207028m. Speed=5.000000m/h.]]></desc>
</trkpt>
<trkpt lat="36.671481" lon="137.760357">
<ele>2432.278749</ele>
<time>2014-08-17T04:30:19Z</time>
<desc><![CDATA[lat.=36.671481, lon.=137.760357, Alt.=2432.278749m. Speed=5.000000m/h.]]></desc>
</trkpt>
<trkpt lat="36.671530" lon="137.760320">
<ele>2431.698624</ele>
<time>2014-08-17T04:30:24Z</time>
<desc><![CDATA[lat.=36.671530, lon.=137.760320, Alt.=2431.698624m. Speed=5.000000m/h.]]></desc>
</trkpt>
<trkpt lat="36.671586" lon="137.760298">
<ele>2431.770358</ele>
<time>2014-08-17T04:30:29Z</time>
<desc><![CDATA[lat.=36.671586, lon.=137.760298, Alt.=2431.770358m. Speed=5.000000m/h.]]></desc>
</trkpt>
<trkpt lat="36.671627" lon="137.760276">
<ele>2430.647642</ele>
<time>2014-08-17T04:30:34Z</time>
<desc><![CDATA[lat.=36.671627, lon.=137.760276, Alt.=2430.647642m. Speed=5.000000m/h.]]></desc>
</trkpt>
<trkpt lat="36.671695" lon="137.760215">
<ele>2430.613565</ele>
<time>2014-08-17T04:30:39Z</time>
<desc><![CDATA[lat.=36.671695, lon.=137.760215, Alt.=2430.613565m. Speed=5.000000m/h.]]></desc>
</trkpt>
<trkpt lat="36.671737" lon="137.760129">
<ele>2431.002582</ele>
<time>2014-08-17T04:30:44Z</time>
<desc><![CDATA[lat.=36.671737, lon.=137.760129, Alt.=2431.002582m. Speed=6.000000m/h.]]></desc>
</trkpt>
<trkpt lat="36.671750" lon="137.760059">
<ele>2430.787526</ele>
<time>2014-08-17T04:30:49Z</time>
<desc><![CDATA[lat.=36.671750, lon.=137.760059, Alt.=2430.787526m. Speed=5.000000m/h.]]></desc>
</trkpt>
<trkpt lat="36.671787" lon="137.760012">
<ele>2431.879603</ele>
<time>2014-08-17T04:30:54Z</time>
<desc><![CDATA[lat.=36.671787, lon.=137.760012, Alt.=2431.879603m. Speed=5.000000m/h.]]></desc>
</trkpt>
<trkpt lat="36.671804" lon="137.759950">
<ele>2429.395164</ele>
<time>2014-08-17T04:30:59Z</time>
<desc><![CDATA[lat.=36.671804, lon.=137.759950, Alt.=2429.395164m. Speed=4.000000m/h.]]></desc>
</trkpt>
<trkpt lat="36.671863" lon="137.759953">
<ele>2427.252161</ele>
<time>2014-08-17T04:31:04Z</time>
<desc><![CDATA[lat.=36.671863, lon.=137.759953, Alt.=2427.252161m. Speed=4.000000m/h.]]></desc>
</trkpt>
<trkpt lat="36.671898" lon="137.759883">
<ele>2427.098605</ele>
<time>2014-08-17T04:31:09Z</time>
<desc><![CDATA[lat.=36.671898, lon.=137.759883, Alt.=2427.098605m. Speed=5.000000m/h.]]></desc>
</trkpt>
<trkpt lat="36.671907" lon="137.759805">
<ele>2425.692544</ele>
<time>2014-08-17T04:31:14Z</time>
<desc><![CDATA[lat.=36.671907, lon.=137.759805, Alt.=2425.692544m. Speed=5.000000m/h.]]></desc>
</trkpt>
<trkpt lat="36.671920" lon="137.759751">
<ele>2423.801922</ele>
<time>2014-08-17T04:31:19Z</time>
<desc><![CDATA[lat.=36.671920, lon.=137.759751, Alt.=2423.801922m. Speed=4.000000m/h.]]></desc>
</trkpt>
<trkpt lat="36.671943" lon="137.759753">
<ele>2420.402981</ele>
<time>2014-08-17T04:31:24Z</time>
<desc><![CDATA[lat.=36.671943, lon.=137.759753, Alt.=2420.402981m. Speed=3.000000m/h.]]></desc>
</trkpt>
<trkpt lat="36.671976" lon="137.759747">
<ele>2418.737689</ele>
<time>2014-08-17T04:31:29Z</time>
<desc><![CDATA[lat.=36.671976, lon.=137.759747, Alt.=2418.737689m. Speed=3.000000m/h.]]></desc>
</trkpt>
<trkpt lat="36.671998" lon="137.759796">
<ele>2417.232807</ele>
<time>2014-08-17T04:31:34Z</time>
<desc><![CDATA[lat.=36.671998, lon.=137.759796, Alt.=2417.232807m. Speed=3.000000m/h.]]></desc>
</trkpt>
<trkpt lat="36.672019" lon="137.759829">
<ele>2417.403525</ele>
<time>2014-08-17T04:31:39Z</time>
<desc><![CDATA[lat.=36.672019, lon.=137.759829, Alt.=2417.403525m. Speed=3.000000m/h.]]></desc>
</trkpt>
<trkpt lat="36.672045" lon="137.759806">
<ele>2416.816601</ele>
<time>2014-08-17T04:31:44Z</time>
<desc><![CDATA[lat.=36.672045, lon.=137.759806, Alt.=2416.816601m. Speed=2.000000m/h.]]></desc>
</trkpt>
<trkpt lat="36.672046" lon="137.759791">
<ele>2415.031774</ele>
<time>2014-08-17T04:31:49Z</time>
<desc><![CDATA[lat.=36.672046, lon.=137.759791, Alt.=2415.031774m. Speed=2.000000m/h.]]></desc>
</trkpt>
<trkpt lat="36.672061" lon="137.759776">
<ele>2414.441414</ele>
<time>2014-08-17T04:31:54Z</time>
<desc><![CDATA[lat.=36.672061, lon.=137.759776, Alt.=2414.441414m. Speed=1.000000m/h.]]></desc>
</trkpt>
<trkpt lat="36.672062" lon="137.759761">
<ele>2412.656587</ele>
<time>2014-08-17T04:31:59Z</time>
<desc><![CDATA[lat.=36.672062, lon.=137.759761, Alt.=2412.656587m. Speed=2.000000m/h.]]></desc>
</trkpt>
<trkpt lat="36.672092" lon="137.759763">
<ele>2411.585100</ele>
<time>2014-08-17T04:32:04Z</time>
<desc><![CDATA[lat.=36.672092, lon.=137.759763, Alt.=2411.585100m. Speed=2.000000m/h.]]></desc>
</trkpt>
<trkpt lat="36.672088" lon="137.759771">
<ele>2410.448683</ele>
<time>2014-08-17T04:32:09Z</time>
<desc><![CDATA[lat.=36.672088, lon.=137.759771, Alt.=2410.448683m. Speed=0.000000m/h.]]></desc>
</trkpt>
<trkpt lat="36.672088" lon="137.759772">
<ele>2408.718471</ele>
<time>2014-08-17T04:32:14Z</time>
<desc><![CDATA[lat.=36.672088, lon.=137.759772, Alt.=2408.718471m. Speed=0.000000m/h.]]></desc>
</trkpt>
<trkpt lat="36.672107" lon="137.759780">
<ele>2409.373758</ele>
<time>2014-08-17T04:32:19Z</time>
<desc><![CDATA[lat.=36.672107, lon.=137.759780, Alt.=2409.373758m. Speed=0.000000m/h.]]></desc>
</trkpt>
<trkpt lat="36.672122" lon="137.759765">
<ele>2408.783401</ele>
<time>2014-08-17T04:32:24Z</time>
<desc><![CDATA[lat.=36.672122, lon.=137.759765, Alt.=2408.783401m. Speed=1.000000m/h.]]></desc>
</trkpt>
<trkpt lat="36.672149" lon="137.759727">
<ele>2406.411658</ele>
<time>2014-08-17T04:32:29Z</time>
<desc><![CDATA[lat.=36.672149, lon.=137.759727, Alt.=2406.411658m. Speed=2.000000m/h.]]></desc>
</trkpt>
<trkpt lat="36.672172" lon="137.759681">
<ele>2404.579100</ele>
<time>2014-08-17T04:32:34Z</time>
<desc><![CDATA[lat.=36.672172, lon.=137.759681, Alt.=2404.579100m. Speed=3.000000m/h.]]></desc>
</trkpt>
<trkpt lat="36.672177" lon="137.759642">
<ele>2403.876081</ele>
<time>2014-08-17T04:32:39Z</time>
<desc><![CDATA[lat.=36.672177, lon.=137.759642, Alt.=2403.876081m. Speed=3.000000m/h.]]></desc>
</trkpt>
<trkpt lat="36.672167" lon="137.759603">
<ele>2401.978592</ele>
<time>2014-08-17T04:32:44Z</time>
<desc><![CDATA[lat.=36.672167, lon.=137.759603, Alt.=2401.978592m. Speed=3.000000m/h.]]></desc>
</trkpt>
<trkpt lat="36.672168" lon="137.759587">
<ele>2401.923981</ele>
<time>2014-08-17T04:32:49Z</time>
<desc><![CDATA[lat.=36.672168, lon.=137.759587, Alt.=2401.923981m. Speed=2.000000m/h.]]></desc>
</trkpt>
<trkpt lat="36.672157" lon="137.759595">
<ele>2401.920540</ele>
<time>2014-08-17T04:32:54Z</time>
<desc><![CDATA[lat.=36.672157, lon.=137.759595, Alt.=2401.920540m. Speed=0.000000m/h.]]></desc>
</trkpt>
<trkpt lat="36.672160" lon="137.759587">
<ele>2403.056958</ele>
<time>2014-08-17T04:32:59Z</time>
<desc><![CDATA[lat.=36.672160, lon.=137.759587, Alt.=2403.056958m. Speed=1.000000m/h.]]></desc>
</trkpt>
<trkpt lat="36.672176" lon="137.759557">
<ele>2400.681783</ele>
<time>2014-08-17T04:33:04Z</time>
<desc><![CDATA[lat.=36.672176, lon.=137.759557, Alt.=2400.681783m. Speed=2.000000m/h.]]></desc>
</trkpt>
<trkpt lat="36.672183" lon="137.759573">
<ele>2399.603417</ele>
<time>2014-08-17T04:33:09Z</time>
<desc><![CDATA[lat.=36.672183, lon.=137.759573, Alt.=2399.603417m. Speed=0.000000m/h.]]></desc>
</trkpt>
<trkpt lat="36.672176" lon="137.759573">
<ele>2399.006181</ele>
<time>2014-08-17T04:33:14Z</time>
<desc><![CDATA[lat.=36.672176, lon.=137.759573, Alt.=2399.006181m. Speed=0.000000m/h.]]></desc>
</trkpt>
<trkpt lat="36.672173" lon="137.759566">
<ele>2397.815152</ele>
<time>2014-08-17T04:33:19Z</time>
<desc><![CDATA[lat.=36.672173, lon.=137.759566, Alt.=2397.815152m. Speed=0.000000m/h.]]></desc>
</trkpt>
<trkpt lat="36.672180" lon="137.759566">
<ele>2398.412387</ele>
<time>2014-08-17T04:33:25Z</time>
<desc><![CDATA[lat.=36.672180, lon.=137.759566, Alt.=2398.412387m. Speed=0.000000m/h.]]></desc>
</trkpt>
<trkpt lat="36.672180" lon="137.759581">
<ele>2398.466998</ele>
<time>2014-08-17T04:33:36Z</time>
<desc><![CDATA[lat.=36.672180, lon.=137.759581, Alt.=2398.466998m. Speed=0.000000m/h.]]></desc>
</trkpt>
<trkpt lat="36.672184" lon="137.759574">
<ele>2397.873204</ele>
<time>2014-08-17T04:33:42Z</time>
<desc><![CDATA[lat.=36.672184, lon.=137.759574, Alt.=2397.873204m. Speed=0.000000m/h.]]></desc>
</trkpt>
<trkpt lat="36.672191" lon="137.759575">
<ele>2396.740228</ele>
<time>2014-08-17T04:33:47Z</time>
<desc><![CDATA[lat.=36.672191, lon.=137.759575, Alt.=2396.740228m. Speed=0.000000m/h.]]></desc>
</trkpt>
<trkpt lat="36.672191" lon="137.759574">
<ele>2398.470440</ele>
<time>2014-08-17T04:33:52Z</time>
<desc><![CDATA[lat.=36.672191, lon.=137.759574, Alt.=2398.470440m. Speed=0.000000m/h.]]></desc>
</trkpt>
<trkpt lat="36.672195" lon="137.759582">
<ele>2397.931257</ele>
<time>2014-08-17T04:34:00Z</time>
<desc><![CDATA[lat.=36.672195, lon.=137.759582, Alt.=2397.931257m. Speed=0.000000m/h.]]></desc>
</trkpt>
<trkpt lat="36.672191" lon="137.759574">
<ele>2398.470440</ele>
<time>2014-08-17T04:34:05Z</time>
<desc><![CDATA[lat.=36.672191, lon.=137.759574, Alt.=2398.470440m. Speed=0.000000m/h.]]></desc>
</trkpt>
<trkpt lat="36.672194" lon="137.759581">
<ele>2399.661470</ele>
<time>2014-08-17T04:34:18Z</time>
<desc><![CDATA[lat.=36.672194, lon.=137.759581, Alt.=2399.661470m. Speed=0.000000m/h.]]></desc>
</trkpt>
<trkpt lat="36.672198" lon="137.759573">
<ele>2400.797889</ele>
<time>2014-08-17T04:34:27Z</time>
<desc><![CDATA[lat.=36.672198, lon.=137.759573, Alt.=2400.797889m. Speed=0.000000m/h.]]></desc>
</trkpt>
<trkpt lat="36.672187" lon="137.759581">
<ele>2400.794446</ele>
<time>2014-08-17T04:34:32Z</time>
<desc><![CDATA[lat.=36.672187, lon.=137.759581, Alt.=2400.794446m. Speed=1.000000m/h.]]></desc>
</trkpt>
<trkpt lat="36.672183" lon="137.759588">
<ele>2401.388240</ele>
<time>2014-08-17T04:34:45Z</time>
<desc><![CDATA[lat.=36.672183, lon.=137.759588, Alt.=2401.388240m. Speed=0.000000m/h.]]></desc>
</trkpt>
<trkpt lat="36.672179" lon="137.759581">
<ele>2400.197211</ele>
<time>2014-08-17T04:34:50Z</time>
<desc><![CDATA[lat.=36.672179, lon.=137.759581, Alt.=2400.197211m. Speed=0.000000m/h.]]></desc>
</trkpt>
<trkpt lat="36.672175" lon="137.759588">
<ele>2400.791004</ele>
<time>2014-08-17T04:34:55Z</time>
<desc><![CDATA[lat.=36.672175, lon.=137.759588, Alt.=2400.791004m. Speed=0.000000m/h.]]></desc>
</trkpt>
<trkpt lat="36.672183" lon="137.759588">
<ele>2401.388240</ele>
<time>2014-08-17T04:35:04Z</time>
<desc><![CDATA[lat.=36.672183, lon.=137.759588, Alt.=2401.388240m. Speed=0.000000m/h.]]></desc>
</trkpt>
<trkpt lat="36.672179" lon="137.759596">
<ele>2401.982034</ele>
<time>2014-08-17T04:35:15Z</time>
<desc><![CDATA[lat.=36.672179, lon.=137.759596, Alt.=2401.982034m. Speed=0.000000m/h.]]></desc>
</trkpt>
<trkpt lat="36.672186" lon="137.759596">
<ele>2402.579270</ele>
<time>2014-08-17T04:36:10Z</time>
<desc><![CDATA[lat.=36.672186, lon.=137.759596, Alt.=2402.579270m. Speed=0.000000m/h.]]></desc>
</trkpt>
<trkpt lat="36.672182" lon="137.759587">
<ele>2403.118453</ele>
<time>2014-08-17T04:36:20Z</time>
<desc><![CDATA[lat.=36.672182, lon.=137.759587, Alt.=2403.118453m. Speed=0.000000m/h.]]></desc>
</trkpt>
<trkpt lat="36.672186" lon="137.759596">
<ele>2402.579270</ele>
<time>2014-08-17T04:36:25Z</time>
<desc><![CDATA[lat.=36.672186, lon.=137.759596, Alt.=2402.579270m. Speed=0.000000m/h.]]></desc>
</trkpt>
<trkpt lat="36.672179" lon="137.759596">
<ele>2401.982034</ele>
<time>2014-08-17T04:36:30Z</time>
<desc><![CDATA[lat.=36.672179, lon.=137.759596, Alt.=2401.982034m. Speed=0.000000m/h.]]></desc>
</trkpt>
<trkpt lat="36.672175" lon="137.759587">
<ele>2402.521217</ele>
<time>2014-08-17T04:36:37Z</time>
<desc><![CDATA[lat.=36.672175, lon.=137.759587, Alt.=2402.521217m. Speed=0.000000m/h.]]></desc>
</trkpt>
<trkpt lat="36.672179" lon="137.759580">
<ele>2401.927423</ele>
<time>2014-08-17T04:37:17Z</time>
<desc><![CDATA[lat.=36.672179, lon.=137.759580, Alt.=2401.927423m. Speed=0.000000m/h.]]></desc>
</trkpt>
<trkpt lat="36.672186" lon="137.759580">
<ele>2402.524659</ele>
<time>2014-08-17T04:37:24Z</time>
<desc><![CDATA[lat.=36.672186, lon.=137.759580, Alt.=2402.524659m. Speed=1.000000m/h.]]></desc>
</trkpt>
<trkpt lat="36.672197" lon="137.759589">
<ele>2400.852499</ele>
<time>2014-08-17T04:37:29Z</time>
<desc><![CDATA[lat.=36.672197, lon.=137.759589, Alt.=2400.852499m. Speed=2.000000m/h.]]></desc>
</trkpt>
<trkpt lat="36.672223" lon="137.759599">
<ele>2398.644600</ele>
<time>2014-08-17T04:37:34Z</time>
<desc><![CDATA[lat.=36.672223, lon.=137.759599, Alt.=2398.644600m. Speed=2.000000m/h.]]></desc>
</trkpt>
<trkpt lat="36.672235" lon="137.759575">
<ele>2400.323645</ele>
<time>2014-08-17T04:37:39Z</time>
<desc><![CDATA[lat.=36.672235, lon.=137.759575, Alt.=2400.323645m. Speed=2.000000m/h.]]></desc>
</trkpt>
<trkpt lat="36.672243" lon="137.759576">
<ele>2397.460456</ele>
<time>2014-08-17T04:37:44Z</time>
<desc><![CDATA[lat.=36.672243, lon.=137.759576, Alt.=2397.460456m. Speed=2.000000m/h.]]></desc>
</trkpt>
<trkpt lat="36.672252" lon="137.759648">
<ele>2397.736956</ele>
<time>2014-08-17T04:37:49Z</time>
<desc><![CDATA[lat.=36.672252, lon.=137.759648, Alt.=2397.736956m. Speed=3.000000m/h.]]></desc>
</trkpt>
<trkpt lat="36.672254" lon="137.759703">
<ele>2397.361612</ele>
<time>2014-08-17T04:37:54Z</time>
<desc><![CDATA[lat.=36.672254, lon.=137.759703, Alt.=2397.361612m. Speed=3.000000m/h.]]></desc>
</trkpt>
<trkpt lat="36.672250" lon="137.759743">
<ele>2396.334421</ele>
<time>2014-08-17T04:37:59Z</time>
<desc><![CDATA[lat.=36.672250, lon.=137.759743, Alt.=2396.334421m. Speed=3.000000m/h.]]></desc>
</trkpt>
<trkpt lat="36.672250" lon="137.759742">
<ele>2398.064633</ele>
<time>2014-08-17T04:38:04Z</time>
<desc><![CDATA[lat.=36.672250, lon.=137.759742, Alt.=2398.064633m. Speed=0.000000m/h.]]></desc>
</trkpt>
<trkpt lat="36.672257" lon="137.759742">
<ele>2398.661870</ele>
<time>2014-08-17T04:38:09Z</time>
<desc><![CDATA[lat.=36.672257, lon.=137.759742, Alt.=2398.661870m. Speed=0.000000m/h.]]></desc>
</trkpt>
<trkpt lat="36.672261" lon="137.759767">
<ele>2396.447091</ele>
<time>2014-08-17T04:38:14Z</time>
<desc><![CDATA[lat.=36.672261, lon.=137.759767, Alt.=2396.447091m. Speed=2.000000m/h.]]></desc>
</trkpt>
<trkpt lat="36.672264" lon="137.759808">
<ele>2394.286927</ele>
<time>2014-08-17T04:38:19Z</time>
<desc><![CDATA[lat.=36.672264, lon.=137.759808, Alt.=2394.286927m. Speed=2.000000m/h.]]></desc>
</trkpt>
<trkpt lat="36.672267" lon="137.759848">
<ele>2392.126766</ele>
<time>2014-08-17T04:38:24Z</time>
<desc><![CDATA[lat.=36.672267, lon.=137.759848, Alt.=2392.126766m. Speed=2.000000m/h.]]></desc>
</trkpt>
<trkpt lat="36.672304" lon="137.759866">
<ele>2391.707144</ele>
<time>2014-08-17T04:38:29Z</time>
<desc><![CDATA[lat.=36.672304, lon.=137.759866, Alt.=2391.707144m. Speed=2.000000m/h.]]></desc>
</trkpt>
<trkpt lat="36.672318" lon="137.759883">
<ele>2389.495811</ele>
<time>2014-08-17T04:38:34Z</time>
<desc><![CDATA[lat.=36.672318, lon.=137.759883, Alt.=2389.495811m. Speed=1.000000m/h.]]></desc>
</trkpt>
<trkpt lat="36.672348" lon="137.759900">
<ele>2388.478955</ele>
<time>2014-08-17T04:38:39Z</time>
<desc><![CDATA[lat.=36.672348, lon.=137.759900, Alt.=2388.478955m. Speed=1.000000m/h.]]></desc>
</trkpt>
<trkpt lat="36.672370" lon="137.759918">
<ele>2385.134650</ele>
<time>2014-08-17T04:38:44Z</time>
<desc><![CDATA[lat.=36.672370, lon.=137.759918, Alt.=2385.134650m. Speed=1.000000m/h.]]></desc>
</trkpt>
<trkpt lat="36.672399" lon="137.759951">
<ele>2385.902628</ele>
<time>2014-08-17T04:38:49Z</time>
<desc><![CDATA[lat.=36.672399, lon.=137.759951, Alt.=2385.902628m. Speed=1.000000m/h.]]></desc>
</trkpt>
<trkpt lat="36.672428" lon="137.759968">
<ele>2384.885778</ele>
<time>2014-08-17T04:38:54Z</time>
<desc><![CDATA[lat.=36.672428, lon.=137.759968, Alt.=2384.885778m. Speed=1.000000m/h.]]></desc>
</trkpt>
<trkpt lat="36.672472" lon="137.759970">
<ele>2385.008791</ele>
<time>2014-08-17T04:38:59Z</time>
<desc><![CDATA[lat.=36.672472, lon.=137.759970, Alt.=2385.008791m. Speed=2.000000m/h.]]></desc>
</trkpt>
<trkpt lat="36.672490" lon="137.759995">
<ele>2383.988501</ele>
<time>2014-08-17T04:39:04Z</time>
<desc><![CDATA[lat.=36.672490, lon.=137.759995, Alt.=2383.988501m. Speed=2.000000m/h.]]></desc>
</trkpt>
<trkpt lat="36.672505" lon="137.759995">
<ele>2383.452769</ele>
<time>2014-08-17T04:39:09Z</time>
<desc><![CDATA[lat.=36.672505, lon.=137.759995, Alt.=2383.452769m. Speed=2.000000m/h.]]></desc>
</trkpt>
<trkpt lat="36.672527" lon="137.759997">
<ele>2381.784066</ele>
<time>2014-08-17T04:39:14Z</time>
<desc><![CDATA[lat.=36.672527, lon.=137.759997, Alt.=2381.784066m. Speed=1.000000m/h.]]></desc>
</trkpt>
<trkpt lat="36.672568" lon="137.759990">
<ele>2382.446264</ele>
<time>2014-08-17T04:39:19Z</time>
<desc><![CDATA[lat.=36.672568, lon.=137.759990, Alt.=2382.446264m. Speed=2.000000m/h.]]></desc>
</trkpt>
<trkpt lat="36.672613" lon="137.759977">
<ele>2380.784459</ele>
<time>2014-08-17T04:39:24Z</time>
<desc><![CDATA[lat.=36.672613, lon.=137.759977, Alt.=2380.784459m. Speed=2.000000m/h.]]></desc>
</trkpt>
<trkpt lat="36.672653" lon="137.759953">
<ele>2383.122258</ele>
<time>2014-08-17T04:39:29Z</time>
<desc><![CDATA[lat.=36.672653, lon.=137.759953, Alt.=2383.122258m. Speed=2.000000m/h.]]></desc>
</trkpt>
<trkpt lat="36.672676" lon="137.759938">
<ele>2383.129156</ele>
<time>2014-08-17T04:39:34Z</time>
<desc><![CDATA[lat.=36.672676, lon.=137.759938, Alt.=2383.129156m. Speed=2.000000m/h.]]></desc>
</trkpt>
<trkpt lat="36.672684" lon="137.759908">
<ele>2380.156741</ele>
<time>2014-08-17T04:39:39Z</time>
<desc><![CDATA[lat.=36.672684, lon.=137.759908, Alt.=2380.156741m. Speed=2.000000m/h.]]></desc>
</trkpt>
<trkpt lat="36.672700" lon="137.759878">
<ele>2377.781570</ele>
<time>2014-08-17T04:39:44Z</time>
<desc><![CDATA[lat.=36.672700, lon.=137.759878, Alt.=2377.781570m. Speed=2.000000m/h.]]></desc>
</trkpt>
<trkpt lat="36.672720" lon="137.759856">
<ele>2374.867224</ele>
<time>2014-08-17T04:39:49Z</time>
<desc><![CDATA[lat.=36.672720, lon.=137.759856, Alt.=2374.867224m. Speed=2.000000m/h.]]></desc>
</trkpt>
<trkpt lat="36.672721" lon="137.759825">
<ele>2373.027781</ele>
<time>2014-08-17T04:39:54Z</time>
<desc><![CDATA[lat.=36.672721, lon.=137.759825, Alt.=2373.027781m. Speed=1.000000m/h.]]></desc>
</trkpt>
<trkpt lat="36.672722" lon="137.759795">
<ele>2371.188340</ele>
<time>2014-08-17T04:39:59Z</time>
<desc><![CDATA[lat.=36.672722, lon.=137.759795, Alt.=2371.188340m. Speed=0.000000m/h.]]></desc>
</trkpt>
<trkpt lat="36.672741" lon="137.759772">
<ele>2370.004209</ele>
<time>2014-08-17T04:40:04Z</time>
<desc><![CDATA[lat.=36.672741, lon.=137.759772, Alt.=2370.004209m. Speed=0.000000m/h.]]></desc>
</trkpt>
<trkpt lat="36.672771" lon="137.759741">
<ele>2370.553745</ele>
<time>2014-08-17T04:40:09Z</time>
<desc><![CDATA[lat.=36.672771, lon.=137.759741, Alt.=2370.553745m. Speed=2.000000m/h.]]></desc>
</trkpt>
<trkpt lat="36.672801" lon="137.759710">
<ele>2372.833496</ele>
<time>2014-08-17T04:40:14Z</time>
<desc><![CDATA[lat.=36.672801, lon.=137.759710, Alt.=2372.833496m. Speed=2.000000m/h.]]></desc>
</trkpt>
<trkpt lat="36.672849" lon="137.759671">
<ele>2375.713950</ele>
<time>2014-08-17T04:40:19Z</time>
<desc><![CDATA[lat.=36.672849, lon.=137.759671, Alt.=2375.713950m. Speed=2.000000m/h.]]></desc>
</trkpt>
<trkpt lat="36.672897" lon="137.759631">
<ele>2378.594410</ele>
<time>2014-08-17T04:40:24Z</time>
<desc><![CDATA[lat.=36.672897, lon.=137.759631, Alt.=2378.594410m. Speed=2.000000m/h.]]></desc>
</trkpt>
<trkpt lat="36.672930" lon="137.759625">
<ele>2378.659394</ele>
<time>2014-08-17T04:40:29Z</time>
<desc><![CDATA[lat.=36.672930, lon.=137.759625, Alt.=2378.659394m. Speed=2.000000m/h.]]></desc>
</trkpt>
<trkpt lat="36.672955" lon="137.759665">
<ele>2380.021179</ele>
<time>2014-08-17T04:40:34Z</time>
<desc><![CDATA[lat.=36.672955, lon.=137.759665, Alt.=2380.021179m. Speed=3.000000m/h.]]></desc>
</trkpt>
<trkpt lat="36.673007" lon="137.759683">
<ele>2377.335672</ele>
<time>2014-08-17T04:40:39Z</time>
<desc><![CDATA[lat.=36.673007, lon.=137.759683, Alt.=2377.335672m. Speed=3.000000m/h.]]></desc>
</trkpt>
<trkpt lat="36.673051" lon="137.759685">
<ele>2377.458734</ele>
<time>2014-08-17T04:40:44Z</time>
<desc><![CDATA[lat.=36.673051, lon.=137.759685, Alt.=2377.458734m. Speed=3.000000m/h.]]></desc>
</trkpt>
<trkpt lat="36.673073" lon="137.759654">
<ele>2377.411043</ele>
<time>2014-08-17T04:40:49Z</time>
<desc><![CDATA[lat.=36.673073, lon.=137.759654, Alt.=2377.411043m. Speed=3.000000m/h.]]></desc>
</trkpt>
<trkpt lat="36.673100" lon="137.759632">
<ele>2376.824178</ele>
<time>2014-08-17T04:40:54Z</time>
<desc><![CDATA[lat.=36.673100, lon.=137.759632, Alt.=2376.824178m. Speed=3.000000m/h.]]></desc>
</trkpt>
<trkpt lat="36.673133" lon="137.759625">
<ele>2376.889175</ele>
<time>2014-08-17T04:40:59Z</time>
<desc><![CDATA[lat.=36.673133, lon.=137.759625, Alt.=2376.889175m. Speed=3.000000m/h.]]></desc>
</trkpt>
<trkpt lat="36.673159" lon="137.759602">
<ele>2376.302313</ele>
<time>2014-08-17T04:41:04Z</time>
<desc><![CDATA[lat.=36.673159, lon.=137.759602, Alt.=2376.302313m. Speed=2.000000m/h.]]></desc>
</trkpt>
<trkpt lat="36.673186" lon="137.759580">
<ele>2375.715454</ele>
<time>2014-08-17T04:41:09Z</time>
<desc><![CDATA[lat.=36.673186, lon.=137.759580, Alt.=2375.715454m. Speed=3.000000m/h.]]></desc>
</trkpt>
<trkpt lat="36.673190" lon="137.759589">
<ele>2373.446066</ele>
<time>2014-08-17T04:41:14Z</time>
<desc><![CDATA[lat.=36.673190, lon.=137.759589, Alt.=2373.446066m. Speed=2.000000m/h.]]></desc>
</trkpt>
<trkpt lat="36.673212" lon="137.759589">
<ele>2373.507605</ele>
<time>2014-08-17T04:41:19Z</time>
<desc><![CDATA[lat.=36.673212, lon.=137.759589, Alt.=2373.507605m. Speed=1.000000m/h.]]></desc>
</trkpt>
<trkpt lat="36.673216" lon="137.759565">
<ele>2374.589421</ele>
<time>2014-08-17T04:41:24Z</time>
<desc><![CDATA[lat.=36.673216, lon.=137.759565, Alt.=2374.589421m. Speed=2.000000m/h.]]></desc>
</trkpt>
<trkpt lat="36.673224" lon="137.759534">
<ele>2375.077453</ele>
<time>2014-08-17T04:41:29Z</time>
<desc><![CDATA[lat.=36.673224, lon.=137.759534, Alt.=2375.077453m. Speed=1.000000m/h.]]></desc>
</trkpt>
<trkpt lat="36.673250" lon="137.759511">
<ele>2374.490599</ele>
<time>2014-08-17T04:41:34Z</time>
<desc><![CDATA[lat.=36.673250, lon.=137.759511, Alt.=2374.490599m. Speed=0.000000m/h.]]></desc>
</trkpt>
<trkpt lat="36.673257" lon="137.759511">
<ele>2375.087849</ele>
<time>2014-08-17T04:41:39Z</time>
<desc><![CDATA[lat.=36.673257, lon.=137.759511, Alt.=2375.087849m. Speed=0.000000m/h.]]></desc>
</trkpt>
<trkpt lat="36.673257" lon="137.759510">
<ele>2376.818061</ele>
<time>2014-08-17T04:41:44Z</time>
<desc><![CDATA[lat.=36.673257, lon.=137.759510, Alt.=2376.818061m. Speed=0.000000m/h.]]></desc>
</trkpt>
<trkpt lat="36.673276" lon="137.759503">
<ele>2377.418779</ele>
<time>2014-08-17T04:41:49Z</time>
<desc><![CDATA[lat.=36.673276, lon.=137.759503, Alt.=2377.418779m. Speed=2.000000m/h.]]></desc>
</trkpt>
<trkpt lat="36.673302" lon="137.759480">
<ele>2376.831928</ele>
<time>2014-08-17T04:41:54Z</time>
<desc><![CDATA[lat.=36.673302, lon.=137.759480, Alt.=2376.831928m. Speed=2.000000m/h.]]></desc>
</trkpt>
<trkpt lat="36.673336" lon="137.759459">
<ele>2375.112119</ele>
<time>2014-08-17T04:41:59Z</time>
<desc><![CDATA[lat.=36.673336, lon.=137.759459, Alt.=2375.112119m. Speed=2.000000m/h.]]></desc>
</trkpt>
<trkpt lat="36.673359" lon="137.759428">
<ele>2375.064450</ele>
<time>2014-08-17T04:42:04Z</time>
<desc><![CDATA[lat.=36.673359, lon.=137.759428, Alt.=2375.064450m. Speed=2.000000m/h.]]></desc>
</trkpt>
<trkpt lat="36.673363" lon="137.759404">
<ele>2376.146272</ele>
<time>2014-08-17T04:42:09Z</time>
<desc><![CDATA[lat.=36.673363, lon.=137.759404, Alt.=2376.146272m. Speed=0.000000m/h.]]></desc>
</trkpt>
<trkpt lat="36.673367" lon="137.759397">
<ele>2373.822277</ele>
<time>2014-08-17T04:42:14Z</time>
<desc><![CDATA[lat.=36.673367, lon.=137.759397, Alt.=2373.822277m. Speed=1.000000m/h.]]></desc>
</trkpt>
<trkpt lat="36.673374" lon="137.759397">
<ele>2374.419530</ele>
<time>2014-08-17T04:42:19Z</time>
<desc><![CDATA[lat.=36.673374, lon.=137.759397, Alt.=2374.419530m. Speed=0.000000m/h.]]></desc>
</trkpt>
<trkpt lat="36.673378" lon="137.759389">
<ele>2373.825747</ele>
<time>2014-08-17T04:42:24Z</time>
<desc><![CDATA[lat.=36.673378, lon.=137.759389, Alt.=2373.825747m. Speed=0.000000m/h.]]></desc>
</trkpt>
<trkpt lat="36.673385" lon="137.759389">
<ele>2374.422999</ele>
<time>2014-08-17T04:42:29Z</time>
<desc><![CDATA[lat.=36.673385, lon.=137.759389, Alt.=2374.422999m. Speed=0.000000m/h.]]></desc>
</trkpt>
<trkpt lat="36.673397" lon="137.759366">
<ele>2374.371864</ele>
<time>2014-08-17T04:42:34Z</time>
<desc><![CDATA[lat.=36.673397, lon.=137.759366, Alt.=2374.371864m. Speed=2.000000m/h.]]></desc>
</trkpt>
<trkpt lat="36.673404" lon="137.759366">
<ele>2374.969117</ele>
<time>2014-08-17T04:42:42Z</time>
<desc><![CDATA[lat.=36.673404, lon.=137.759366, Alt.=2374.969117m. Speed=0.000000m/h.]]></desc>
</trkpt>
<trkpt lat="36.673424" lon="137.759328">
<ele>2373.730418</ele>
<time>2014-08-17T04:42:47Z</time>
<desc><![CDATA[lat.=36.673424, lon.=137.759328, Alt.=2373.730418m. Speed=2.000000m/h.]]></desc>
</trkpt>
<trkpt lat="36.673439" lon="137.759312">
<ele>2374.870320</ele>
<time>2014-08-17T04:42:52Z</time>
<desc><![CDATA[lat.=36.673439, lon.=137.759312, Alt.=2374.870320m. Speed=2.000000m/h.]]></desc>
</trkpt>
<trkpt lat="36.673465" lon="137.759289">
<ele>2374.283484</ele>
<time>2014-08-17T04:42:57Z</time>
<desc><![CDATA[lat.=36.673465, lon.=137.759289, Alt.=2374.283484m. Speed=2.000000m/h.]]></desc>
</trkpt>
<trkpt lat="36.673477" lon="137.759266">
<ele>2374.232353</ele>
<time>2014-08-17T04:43:02Z</time>
<desc><![CDATA[lat.=36.673477, lon.=137.759266, Alt.=2374.232353m. Speed=2.000000m/h.]]></desc>
</trkpt>
<trkpt lat="36.673491" lon="137.759266">
<ele>2375.426861</ele>
<time>2014-08-17T04:43:07Z</time>
<desc><![CDATA[lat.=36.673491, lon.=137.759266, Alt.=2375.426861m. Speed=0.000000m/h.]]></desc>
</trkpt>
<trkpt lat="36.673488" lon="137.759259">
<ele>2374.235826</ele>
<time>2014-08-17T04:43:12Z</time>
<desc><![CDATA[lat.=36.673488, lon.=137.759259, Alt.=2374.235826m. Speed=0.000000m/h.]]></desc>
</trkpt>
<trkpt lat="36.673489" lon="137.759260">
<ele>2370.775402</ele>
<time>2014-08-17T04:43:17Z</time>
<desc><![CDATA[lat.=36.673489, lon.=137.759260, Alt.=2370.775402m. Speed=0.000000m/h.]]></desc>
</trkpt>
<trkpt lat="36.673495" lon="137.759259">
<ele>2373.102868</ele>
<time>2014-08-17T04:43:22Z</time>
<desc><![CDATA[lat.=36.673495, lon.=137.759259, Alt.=2373.102868m. Speed=1.000000m/h.]]></desc>
</trkpt>
<trkpt lat="36.673518" lon="137.759229">
<ele>2373.055213</ele>
<time>2014-08-17T04:43:27Z</time>
<desc><![CDATA[lat.=36.673518, lon.=137.759229, Alt.=2373.055213m. Speed=2.000000m/h.]]></desc>
</trkpt>
<trkpt lat="36.673542" lon="137.759183">
<ele>2371.222746</ele>
<time>2014-08-17T04:43:32Z</time>
<desc><![CDATA[lat.=36.673542, lon.=137.759183, Alt.=2371.222746m. Speed=3.000000m/h.]]></desc>
</trkpt>
<trkpt lat="36.673557" lon="137.759152">
<ele>2370.577841</ele>
<time>2014-08-17T04:43:37Z</time>
<desc><![CDATA[lat.=36.673557, lon.=137.759152, Alt.=2370.577841m. Speed=3.000000m/h.]]></desc>
</trkpt>
<trkpt lat="36.673569" lon="137.759113">
<ele>2370.472116</ele>
<time>2014-08-17T04:43:42Z</time>
<desc><![CDATA[lat.=36.673569, lon.=137.759113, Alt.=2370.472116m. Speed=3.000000m/h.]]></desc>
</trkpt>
<trkpt lat="36.673603" lon="137.759090">
<ele>2370.482547</ele>
<time>2014-08-17T04:43:47Z</time>
<desc><![CDATA[lat.=36.673603, lon.=137.759090, Alt.=2370.482547m. Speed=3.000000m/h.]]></desc>
</trkpt>
<trkpt lat="36.673614" lon="137.759083">
<ele>2370.486025</ele>
<time>2014-08-17T04:43:52Z</time>
<desc><![CDATA[lat.=36.673614, lon.=137.759083, Alt.=2370.486025m. Speed=2.000000m/h.]]></desc>
</trkpt>
<trkpt lat="36.673647" lon="137.759076">
<ele>2370.551059</ele>
<time>2014-08-17T04:43:57Z</time>
<desc><![CDATA[lat.=36.673647, lon.=137.759076, Alt.=2370.551059m. Speed=2.000000m/h.]]></desc>
</trkpt>
<trkpt lat="36.673674" lon="137.759021">
<ele>2371.585254</ele>
<time>2014-08-17T04:44:02Z</time>
<desc><![CDATA[lat.=36.673674, lon.=137.759021, Alt.=2371.585254m. Speed=3.000000m/h.]]></desc>
</trkpt>
<trkpt lat="36.673726" lon="137.758991">
<ele>2372.196433</ele>
<time>2014-08-17T04:44:07Z</time>
<desc><![CDATA[lat.=36.673726, lon.=137.758991, Alt.=2372.196433m. Speed=3.000000m/h.]]></desc>
</trkpt>
<trkpt lat="36.673756" lon="137.758976">
<ele>2372.800653</ele>
<time>2014-08-17T04:44:12Z</time>
<desc><![CDATA[lat.=36.673756, lon.=137.758976, Alt.=2372.800653m. Speed=3.000000m/h.]]></desc>
</trkpt>
<trkpt lat="36.673789" lon="137.758953">
<ele>2374.541313</ele>
<time>2014-08-17T04:44:17Z</time>
<desc><![CDATA[lat.=36.673789, lon.=137.758953, Alt.=2374.541313m. Speed=2.000000m/h.]]></desc>
</trkpt>
<trkpt lat="36.673809" lon="137.758915">
<ele>2371.572437</ele>
<time>2014-08-17T04:44:22Z</time>
<desc><![CDATA[lat.=36.673809, lon.=137.758915, Alt.=2371.572437m. Speed=2.000000m/h.]]></desc>
</trkpt>
<trkpt lat="36.673839" lon="137.758884">
<ele>2372.122068</ele>
<time>2014-08-17T04:44:27Z</time>
<desc><![CDATA[lat.=36.673839, lon.=137.758884, Alt.=2372.122068m. Speed=3.000000m/h.]]></desc>
</trkpt>
<trkpt lat="36.673877" lon="137.758855">
<ele>2369.808537</ele>
<time>2014-08-17T04:44:32Z</time>
<desc><![CDATA[lat.=36.673877, lon.=137.758855, Alt.=2369.808537m. Speed=3.000000m/h.]]></desc>
</trkpt>
<trkpt lat="36.673911" lon="137.758816">
<ele>2369.764401</ele>
<time>2014-08-17T04:44:37Z</time>
<desc><![CDATA[lat.=36.673911, lon.=137.758816, Alt.=2369.764401m. Speed=3.000000m/h.]]></desc>
</trkpt>
<trkpt lat="36.673937" lon="137.758794">
<ele>2369.177602</ele>
<time>2014-08-17T04:44:42Z</time>
<desc><![CDATA[lat.=36.673937, lon.=137.758794, Alt.=2369.177602m. Speed=3.000000m/h.]]></desc>
</trkpt>
<trkpt lat="36.673963" lon="137.758771">
<ele>2370.321018</ele>
<time>2014-08-17T04:44:47Z</time>
<desc><![CDATA[lat.=36.673963, lon.=137.758771, Alt.=2370.321018m. Speed=3.000000m/h.]]></desc>
</trkpt>
<trkpt lat="36.673994" lon="137.758757">
<ele>2367.464832</ele>
<time>2014-08-17T04:44:52Z</time>
<desc><![CDATA[lat.=36.673994, lon.=137.758757, Alt.=2367.464832m. Speed=3.000000m/h.]]></desc>
</trkpt>
<trkpt lat="36.674028" lon="137.758719">
<ele>2367.420709</ele>
<time>2014-08-17T04:44:57Z</time>
<desc><![CDATA[lat.=36.674028, lon.=137.758719, Alt.=2367.420709m. Speed=3.000000m/h.]]></desc>
</trkpt>
<trkpt lat="36.674058" lon="137.758672">
<ele>2367.915768</ele>
<time>2014-08-17T04:45:02Z</time>
<desc><![CDATA[lat.=36.674058, lon.=137.758672, Alt.=2367.915768m. Speed=3.000000m/h.]]></desc>
</trkpt>
<trkpt lat="36.674111" lon="137.758644">
<ele>2365.066575</ele>
<time>2014-08-17T04:45:07Z</time>
<desc><![CDATA[lat.=36.674111, lon.=137.758644, Alt.=2365.066575m. Speed=3.000000m/h.]]></desc>
</trkpt>
<trkpt lat="36.674144" lon="137.758621">
<ele>2365.077054</ele>
<time>2014-08-17T04:45:12Z</time>
<desc><![CDATA[lat.=36.674144, lon.=137.758621, Alt.=2365.077054m. Speed=3.000000m/h.]]></desc>
</trkpt>
<trkpt lat="36.674193" lon="137.758599">
<ele>2364.551853</ele>
<time>2014-08-17T04:45:17Z</time>
<desc><![CDATA[lat.=36.674193, lon.=137.758599, Alt.=2364.551853m. Speed=4.000000m/h.]]></desc>
</trkpt>
<trkpt lat="36.674230" lon="137.758585">
<ele>2364.023160</ele>
<time>2014-08-17T04:45:22Z</time>
<desc><![CDATA[lat.=36.674230, lon.=137.758585, Alt.=2364.023160m. Speed=4.000000m/h.]]></desc>
</trkpt>
<trkpt lat="36.674278" lon="137.758595">
<ele>2363.607146</ele>
<time>2014-08-17T04:45:27Z</time>
<desc><![CDATA[lat.=36.674278, lon.=137.758595, Alt.=2363.607146m. Speed=3.000000m/h.]]></desc>
</trkpt>
<trkpt lat="36.674326" lon="137.758572">
<ele>2364.812169</ele>
<time>2014-08-17T04:45:32Z</time>
<desc><![CDATA[lat.=36.674326, lon.=137.758572, Alt.=2364.812169m. Speed=3.000000m/h.]]></desc>
</trkpt>
<trkpt lat="36.674378" lon="137.758558">
<ele>2365.478019</ele>
<time>2014-08-17T04:45:37Z</time>
<desc><![CDATA[lat.=36.674378, lon.=137.758558, Alt.=2365.478019m. Speed=3.000000m/h.]]></desc>
</trkpt>
<trkpt lat="36.674418" lon="137.758551">
<ele>2366.140374</ele>
<time>2014-08-17T04:45:42Z</time>
<desc><![CDATA[lat.=36.674418, lon.=137.758551, Alt.=2366.140374m. Speed=3.000000m/h.]]></desc>
</trkpt>
<trkpt lat="36.674463" lon="137.758537">
<ele>2366.208966</ele>
<time>2014-08-17T04:45:47Z</time>
<desc><![CDATA[lat.=36.674463, lon.=137.758537, Alt.=2366.208966m. Speed=3.000000m/h.]]></desc>
</trkpt>
<trkpt lat="36.674481" lon="137.758513">
<ele>2368.485360</ele>
<time>2014-08-17T04:45:52Z</time>
<desc><![CDATA[lat.=36.674481, lon.=137.758513, Alt.=2368.485360m. Speed=3.000000m/h.]]></desc>
</trkpt>
<trkpt lat="36.674497" lon="137.758499">
<ele>2366.164884</ele>
<time>2014-08-17T04:45:57Z</time>
<desc><![CDATA[lat.=36.674497, lon.=137.758499, Alt.=2366.164884m. Speed=2.000000m/h.]]></desc>
</trkpt>
<trkpt lat="36.674519" lon="137.758483">
<ele>2367.902102</ele>
<time>2014-08-17T04:46:02Z</time>
<desc><![CDATA[lat.=36.674519, lon.=137.758483, Alt.=2367.902102m. Speed=2.000000m/h.]]></desc>
</trkpt>
<trkpt lat="36.674530" lon="137.758475">
<ele>2367.905605</ele>
<time>2014-08-17T04:46:07Z</time>
<desc><![CDATA[lat.=36.674530, lon.=137.758475, Alt.=2367.905605m. Speed=2.000000m/h.]]></desc>
</trkpt>
<trkpt lat="36.674556" lon="137.758468">
<ele>2367.373435</ele>
<time>2014-08-17T04:46:12Z</time>
<desc><![CDATA[lat.=36.674556, lon.=137.758468, Alt.=2367.373435m. Speed=2.000000m/h.]]></desc>
</trkpt>
<trkpt lat="36.674578" lon="137.758453">
<ele>2369.110655</ele>
<time>2014-08-17T04:46:17Z</time>
<desc><![CDATA[lat.=36.674578, lon.=137.758453, Alt.=2369.110655m. Speed=2.000000m/h.]]></desc>
</trkpt>
<trkpt lat="36.674596" lon="137.758444">
<ele>2371.441642</ele>
<time>2014-08-17T04:46:22Z</time>
<desc><![CDATA[lat.=36.674596, lon.=137.758444, Alt.=2371.441642m. Speed=2.000000m/h.]]></desc>
</trkpt>
<trkpt lat="36.674603" lon="137.758428">
<ele>2373.714537</ele>
<time>2014-08-17T04:46:27Z</time>
<desc><![CDATA[lat.=36.674603, lon.=137.758428, Alt.=2373.714537m. Speed=1.000000m/h.]]></desc>
</trkpt>
<trkpt lat="36.674607" lon="137.758436">
<ele>2373.175359</ele>
<time>2014-08-17T04:46:32Z</time>
<desc><![CDATA[lat.=36.674607, lon.=137.758436, Alt.=2373.175359m. Speed=0.000000m/h.]]></desc>
</trkpt>
<trkpt lat="36.674603" lon="137.758444">
<ele>2373.769123</ele>
<time>2014-08-17T04:46:37Z</time>
<desc><![CDATA[lat.=36.674603, lon.=137.758444, Alt.=2373.769123m. Speed=0.000000m/h.]]></desc>
</trkpt>
<trkpt lat="36.674606" lon="137.758452">
<ele>2373.229945</ele>
<time>2014-08-17T04:46:49Z</time>
<desc><![CDATA[lat.=36.674606, lon.=137.758452, Alt.=2373.229945m. Speed=0.000000m/h.]]></desc>
</trkpt>
<trkpt lat="36.674621" lon="137.758468">
<ele>2374.479072</ele>
<time>2014-08-17T04:46:54Z</time>
<desc><![CDATA[lat.=36.674621, lon.=137.758468, Alt.=2374.479072m. Speed=1.000000m/h.]]></desc>
</trkpt>
<trkpt lat="36.674617" lon="137.758475">
<ele>2375.072836</ele>
<time>2014-08-17T04:46:59Z</time>
<desc><![CDATA[lat.=36.674617, lon.=137.758475, Alt.=2375.072836m. Speed=0.000000m/h.]]></desc>
</trkpt>
<trkpt lat="36.674620" lon="137.758484">
<ele>2374.533659</ele>
<time>2014-08-17T04:47:04Z</time>
<desc><![CDATA[lat.=36.674620, lon.=137.758484, Alt.=2374.533659m. Speed=0.000000m/h.]]></desc>
</trkpt>
<trkpt lat="36.674627" lon="137.758484">
<ele>2375.130929</ele>
<time>2014-08-17T04:47:09Z</time>
<desc><![CDATA[lat.=36.674627, lon.=137.758484, Alt.=2375.130929m. Speed=0.000000m/h.]]></desc>
</trkpt>
<trkpt lat="36.674638" lon="137.758475">
<ele>2376.864646</ele>
<time>2014-08-17T04:47:14Z</time>
<desc><![CDATA[lat.=36.674638, lon.=137.758475, Alt.=2376.864646m. Speed=1.000000m/h.]]></desc>
</trkpt>
<trkpt lat="36.674653" lon="137.758475">
<ele>2378.059187</ele>
<time>2014-08-17T04:47:19Z</time>
<desc><![CDATA[lat.=36.674653, lon.=137.758475, Alt.=2378.059187m. Speed=0.000000m/h.]]></desc>
</trkpt>
<trkpt lat="36.674652" lon="137.758491">
<ele>2378.113774</ele>
<time>2014-08-17T04:47:27Z</time>
<desc><![CDATA[lat.=36.674652, lon.=137.758491, Alt.=2378.113774m. Speed=1.000000m/h.]]></desc>
</trkpt>
<trkpt lat="36.674656" lon="137.758499">
<ele>2379.304809</ele>
<time>2014-08-17T04:47:32Z</time>
<desc><![CDATA[lat.=36.674656, lon.=137.758499, Alt.=2379.304809m. Speed=0.000000m/h.]]></desc>
</trkpt>
<trkpt lat="36.674652" lon="137.758489">
<ele>2381.574198</ele>
<time>2014-08-17T04:47:37Z</time>
<desc><![CDATA[lat.=36.674652, lon.=137.758489, Alt.=2381.574198m. Speed=0.000000m/h.]]></desc>
</trkpt>
<trkpt lat="36.674648" lon="137.758498">
<ele>2380.437751</ele>
<time>2014-08-17T04:47:49Z</time>
<desc><![CDATA[lat.=36.674648, lon.=137.758498, Alt.=2380.437751m. Speed=0.000000m/h.]]></desc>
</trkpt>
<trkpt lat="36.674648" lon="137.758497">
<ele>2382.167962</ele>
<time>2014-08-17T04:47:54Z</time>
<desc><![CDATA[lat.=36.674648, lon.=137.758497, Alt.=2382.167962m. Speed=0.000000m/h.]]></desc>
</trkpt>
<trkpt lat="36.674651" lon="137.758505">
<ele>2381.628785</ele>
<time>2014-08-17T04:47:59Z</time>
<desc><![CDATA[lat.=36.674651, lon.=137.758505, Alt.=2381.628785m. Speed=0.000000m/h.]]></desc>
</trkpt>
<trkpt lat="36.674654" lon="137.758511">
<ele>2386.280244</ele>
<time>2014-08-17T04:48:04Z</time>
<desc><![CDATA[lat.=36.674654, lon.=137.758511, Alt.=2386.280244m. Speed=0.000000m/h.]]></desc>
</trkpt>
<trkpt lat="36.674650" lon="137.758503">
<ele>2386.819421</ele>
<time>2014-08-17T04:48:09Z</time>
<desc><![CDATA[lat.=36.674650, lon.=137.758503, Alt.=2386.819421m. Speed=0.000000m/h.]]></desc>
</trkpt>
<trkpt lat="36.674661" lon="137.758495">
<ele>2386.822927</ele>
<time>2014-08-17T04:48:14Z</time>
<desc><![CDATA[lat.=36.674661, lon.=137.758495, Alt.=2386.822927m. Speed=1.000000m/h.]]></desc>
</trkpt>
<trkpt lat="36.674676" lon="137.758529">
<ele>2384.666220</ele>
<time>2014-08-17T04:48:19Z</time>
<desc><![CDATA[lat.=36.674676, lon.=137.758529, Alt.=2384.666220m. Speed=1.000000m/h.]]></desc>
</trkpt>
<trkpt lat="36.674679" lon="137.758552">
<ele>2385.911844</ele>
<time>2014-08-17T04:48:24Z</time>
<desc><![CDATA[lat.=36.674679, lon.=137.758552, Alt.=2385.911844m. Speed=1.000000m/h.]]></desc>
</trkpt>
<trkpt lat="36.674671" lon="137.758567">
<ele>2387.099374</ele>
<time>2014-08-17T04:48:29Z</time>
<desc><![CDATA[lat.=36.674671, lon.=137.758567, Alt.=2387.099374m. Speed=0.000000m/h.]]></desc>
</trkpt>
<trkpt lat="36.674673" lon="137.758590">
<ele>2388.344998</ele>
<time>2014-08-17T04:48:34Z</time>
<desc><![CDATA[lat.=36.674673, lon.=137.758590, Alt.=2388.344998m. Speed=0.000000m/h.]]></desc>
</trkpt>
<trkpt lat="36.674684" lon="137.758599">
<ele>2388.403093</ele>
<time>2014-08-17T04:48:39Z</time>
<desc><![CDATA[lat.=36.674684, lon.=137.758599, Alt.=2388.403093m. Speed=1.000000m/h.]]></desc>
</trkpt>
<trkpt lat="36.674695" lon="137.758606">
<ele>2390.191400</ele>
<time>2014-08-17T04:48:44Z</time>
<desc><![CDATA[lat.=36.674695, lon.=137.758606, Alt.=2390.191400m. Speed=0.000000m/h.]]></desc>
</trkpt>
<trkpt lat="36.674710" lon="137.758591">
<ele>2389.601141</ele>
<time>2014-08-17T04:48:49Z</time>
<desc><![CDATA[lat.=36.674710, lon.=137.758591, Alt.=2389.601141m. Speed=1.000000m/h.]]></desc>
</trkpt>
<trkpt lat="36.674736" lon="137.758584">
<ele>2390.799191</ele>
<time>2014-08-17T04:48:54Z</time>
<desc><![CDATA[lat.=36.674736, lon.=137.758584, Alt.=2390.799191m. Speed=1.000000m/h.]]></desc>
</trkpt>
<trkpt lat="36.674765" lon="137.758568">
<ele>2391.403477</ele>
<time>2014-08-17T04:48:59Z</time>
<desc><![CDATA[lat.=36.674765, lon.=137.758568, Alt.=2391.403477m. Speed=2.000000m/h.]]></desc>
</trkpt>
<trkpt lat="36.674791" lon="137.758578">
<ele>2390.925906</ele>
<time>2014-08-17T04:49:04Z</time>
<desc><![CDATA[lat.=36.674791, lon.=137.758578, Alt.=2390.925906m. Speed=2.000000m/h.]]></desc>
</trkpt>
<trkpt lat="36.674794" lon="137.758585">
<ele>2392.116943</ele>
<time>2014-08-17T04:49:09Z</time>
<desc><![CDATA[lat.=36.674794, lon.=137.758585, Alt.=2392.116943m. Speed=1.000000m/h.]]></desc>
</trkpt>
<trkpt lat="36.674809" lon="137.758585">
<ele>2393.311488</ele>
<time>2014-08-17T04:49:14Z</time>
<desc><![CDATA[lat.=36.674809, lon.=137.758585, Alt.=2393.311488m. Speed=0.000000m/h.]]></desc>
</trkpt>
<trkpt lat="36.674813" lon="137.758578">
<ele>2392.717724</ele>
<time>2014-08-17T04:49:19Z</time>
<desc><![CDATA[lat.=36.674813, lon.=137.758578, Alt.=2392.717724m. Speed=1.000000m/h.]]></desc>
</trkpt>
<trkpt lat="36.674816" lon="137.758585">
<ele>2393.908761</ele>
<time>2014-08-17T04:49:25Z</time>
<desc><![CDATA[lat.=36.674816, lon.=137.758585, Alt.=2393.908761m. Speed=0.000000m/h.]]></desc>
</trkpt>
<trkpt lat="36.674812" lon="137.758593">
<ele>2394.502525</ele>
<time>2014-08-17T04:49:30Z</time>
<desc><![CDATA[lat.=36.674812, lon.=137.758593, Alt.=2394.502525m. Speed=0.000000m/h.]]></desc>
</trkpt>
<trkpt lat="36.674815" lon="137.758584">
<ele>2395.638972</ele>
<time>2014-08-17T04:49:35Z</time>
<desc><![CDATA[lat.=36.674815, lon.=137.758584, Alt.=2395.638972m. Speed=0.000000m/h.]]></desc>
</trkpt>
<trkpt lat="36.674823" lon="137.758584">
<ele>2396.236245</ele>
<time>2014-08-17T04:49:40Z</time>
<desc><![CDATA[lat.=36.674823, lon.=137.758584, Alt.=2396.236245m. Speed=0.000000m/h.]]></desc>
</trkpt>
<trkpt lat="36.674826" lon="137.758592">
<ele>2397.427282</ele>
<time>2014-08-17T04:49:45Z</time>
<desc><![CDATA[lat.=36.674826, lon.=137.758592, Alt.=2397.427282m. Speed=0.000000m/h.]]></desc>
</trkpt>
<trkpt lat="36.674822" lon="137.758599">
<ele>2398.021046</ele>
<time>2014-08-17T04:49:52Z</time>
<desc><![CDATA[lat.=36.674822, lon.=137.758599, Alt.=2398.021046m. Speed=0.000000m/h.]]></desc>
</trkpt>
<trkpt lat="36.674833" lon="137.758608">
<ele>2398.079144</ele>
<time>2014-08-17T04:49:57Z</time>
<desc><![CDATA[lat.=36.674833, lon.=137.758608, Alt.=2398.079144m. Speed=0.000000m/h.]]></desc>
</trkpt>
<trkpt lat="36.674847" lon="137.758608">
<ele>2399.273690</ele>
<time>2014-08-17T04:50:02Z</time>
<desc><![CDATA[lat.=36.674847, lon.=137.758608, Alt.=2399.273690m. Speed=1.000000m/h.]]></desc>
</trkpt>
<trkpt lat="36.674847" lon="137.758623">
<ele>2399.328280</ele>
<time>2014-08-17T04:50:07Z</time>
<desc><![CDATA[lat.=36.674847, lon.=137.758623, Alt.=2399.328280m. Speed=0.000000m/h.]]></desc>
</trkpt>
<trkpt lat="36.674854" lon="137.758623">
<ele>2399.925553</ele>
<time>2014-08-17T04:50:12Z</time>
<desc><![CDATA[lat.=36.674854, lon.=137.758623, Alt.=2399.925553m. Speed=0.000000m/h.]]></desc>
</trkpt>
<trkpt lat="36.674854" lon="137.758639">
<ele>2399.980143</ele>
<time>2014-08-17T04:50:17Z</time>
<desc><![CDATA[lat.=36.674854, lon.=137.758639, Alt.=2399.980143m. Speed=0.000000m/h.]]></desc>
</trkpt>
<trkpt lat="36.674861" lon="137.758656">
<ele>2398.901795</ele>
<time>2014-08-17T04:50:22Z</time>
<desc><![CDATA[lat.=36.674861, lon.=137.758656, Alt.=2398.901795m. Speed=0.000000m/h.]]></desc>
</trkpt>
<trkpt lat="36.674864" lon="137.758680">
<ele>2398.417212</ele>
<time>2014-08-17T04:50:27Z</time>
<desc><![CDATA[lat.=36.674864, lon.=137.758680, Alt.=2398.417212m. Speed=0.000000m/h.]]></desc>
</trkpt>
<trkpt lat="36.674882" lon="137.758672">
<ele>2400.748206</ele>
<time>2014-08-17T04:50:32Z</time>
<desc><![CDATA[lat.=36.674882, lon.=137.758672, Alt.=2400.748206m. Speed=0.000000m/h.]]></desc>
</trkpt>
<trkpt lat="36.674911" lon="137.758655">
<ele>2404.812922</ele>
<time>2014-08-17T04:50:37Z</time>
<desc><![CDATA[lat.=36.674911, lon.=137.758655, Alt.=2404.812922m. Speed=2.000000m/h.]]></desc>
</trkpt>
<trkpt lat="36.674940" lon="137.758639">
<ele>2407.147429</ele>
<time>2014-08-17T04:50:42Z</time>
<desc><![CDATA[lat.=36.674940, lon.=137.758639, Alt.=2407.147429m. Speed=2.000000m/h.]]></desc>
</trkpt>
<trkpt lat="36.674984" lon="137.758672">
<ele>2407.379835</ele>
<time>2014-08-17T04:50:47Z</time>
<desc><![CDATA[lat.=36.674984, lon.=137.758672, Alt.=2407.379835m. Speed=2.000000m/h.]]></desc>
</trkpt>
<trkpt lat="36.674991" lon="137.758657">
<ele>2407.922519</ele>
<time>2014-08-17T04:50:52Z</time>
<desc><![CDATA[lat.=36.674991, lon.=137.758657, Alt.=2407.922519m. Speed=0.000000m/h.]]></desc>
</trkpt>
<trkpt lat="36.675014" lon="137.758658">
<ele>2406.253922</ele>
<time>2014-08-17T04:50:57Z</time>
<desc><![CDATA[lat.=36.675014, lon.=137.758658, Alt.=2406.253922m. Speed=1.000000m/h.]]></desc>
</trkpt>
<trkpt lat="36.675048" lon="137.758636">
<ele>2404.534249</ele>
<time>2014-08-17T04:51:02Z</time>
<desc><![CDATA[lat.=36.675048, lon.=137.758636, Alt.=2404.534249m. Speed=2.000000m/h.]]></desc>
</trkpt>
<trkpt lat="36.675080" lon="137.758661">
<ele>2404.708560</ele>
<time>2014-08-17T04:51:07Z</time>
<desc><![CDATA[lat.=36.675080, lon.=137.758661, Alt.=2404.708560m. Speed=2.000000m/h.]]></desc>
</trkpt>
<trkpt lat="36.675098" lon="137.758653">
<ele>2407.039561</ele>
<time>2014-08-17T04:51:12Z</time>
<desc><![CDATA[lat.=36.675098, lon.=137.758653, Alt.=2407.039561m. Speed=2.000000m/h.]]></desc>
</trkpt>
<trkpt lat="36.675116" lon="137.758677">
<ele>2407.749533</ele>
<time>2014-08-17T04:51:17Z</time>
<desc><![CDATA[lat.=36.675116, lon.=137.758677, Alt.=2407.749533m. Speed=1.000000m/h.]]></desc>
</trkpt>
<trkpt lat="36.675138" lon="137.758677">
<ele>2409.541364</ele>
<time>2014-08-17T04:51:22Z</time>
<desc><![CDATA[lat.=36.675138, lon.=137.758677, Alt.=2409.541364m. Speed=1.000000m/h.]]></desc>
</trkpt>
<trkpt lat="36.675149" lon="137.758685">
<ele>2409.599470</ele>
<time>2014-08-17T04:51:27Z</time>
<desc><![CDATA[lat.=36.675149, lon.=137.758685, Alt.=2409.599470m. Speed=1.000000m/h.]]></desc>
</trkpt>
<trkpt lat="36.675163" lon="137.758686">
<ele>2409.063814</ele>
<time>2014-08-17T04:51:32Z</time>
<desc><![CDATA[lat.=36.675163, lon.=137.758686, Alt.=2409.063814m. Speed=0.000000m/h.]]></desc>
</trkpt>
<trkpt lat="36.675144" lon="137.758708">
<ele>2410.247824</ele>
<time>2014-08-17T04:51:37Z</time>
<desc><![CDATA[lat.=36.675144, lon.=137.758708, Alt.=2410.247824m. Speed=0.000000m/h.]]></desc>
</trkpt>
<trkpt lat="36.675148" lon="137.758701">
<ele>2409.654061</ele>
<time>2014-08-17T04:51:42Z</time>
<desc><![CDATA[lat.=36.675148, lon.=137.758701, Alt.=2409.654061m. Speed=0.000000m/h.]]></desc>
</trkpt>
<trkpt lat="36.675155" lon="137.758701">
<ele>2410.251338</ele>
<time>2014-08-17T04:51:48Z</time>
<desc><![CDATA[lat.=36.675155, lon.=137.758701, Alt.=2410.251338m. Speed=0.000000m/h.]]></desc>
</trkpt>
<trkpt lat="36.675166" lon="137.758725">
<ele>2410.364036</ele>
<time>2014-08-17T04:51:53Z</time>
<desc><![CDATA[lat.=36.675166, lon.=137.758725, Alt.=2410.364036m. Speed=1.000000m/h.]]></desc>
</trkpt>
<trkpt lat="36.675180" lon="137.758741">
<ele>2411.613183</ele>
<time>2014-08-17T04:51:58Z</time>
<desc><![CDATA[lat.=36.675180, lon.=137.758741, Alt.=2411.613183m. Speed=1.000000m/h.]]></desc>
</trkpt>
<trkpt lat="36.675198" lon="137.758765">
<ele>2412.323161</ele>
<time>2014-08-17T04:52:03Z</time>
<desc><![CDATA[lat.=36.675198, lon.=137.758765, Alt.=2412.323161m. Speed=1.000000m/h.]]></desc>
</trkpt>
<trkpt lat="36.675194" lon="137.758757">
<ele>2412.862331</ele>
<time>2014-08-17T04:52:08Z</time>
<desc><![CDATA[lat.=36.675194, lon.=137.758757, Alt.=2412.862331m. Speed=0.000000m/h.]]></desc>
</trkpt>
<trkpt lat="36.675183" lon="137.758780">
<ele>2412.913409</ele>
<time>2014-08-17T04:52:13Z</time>
<desc><![CDATA[lat.=36.675183, lon.=137.758780, Alt.=2412.913409m. Speed=2.000000m/h.]]></desc>
</trkpt>
<trkpt lat="36.675201" lon="137.758772">
<ele>2413.514202</ele>
<time>2014-08-17T04:52:18Z</time>
<desc><![CDATA[lat.=36.675201, lon.=137.758772, Alt.=2413.514202m. Speed=0.000000m/h.]]></desc>
</trkpt>
<trkpt lat="36.675223" lon="137.758757">
<ele>2413.521233</ele>
<time>2014-08-17T04:52:23Z</time>
<desc><![CDATA[lat.=36.675223, lon.=137.758757, Alt.=2413.521233m. Speed=1.000000m/h.]]></desc>
</trkpt>
<trkpt lat="36.675253" lon="137.758742">
<ele>2415.855755</ele>
<time>2014-08-17T04:52:28Z</time>
<desc><![CDATA[lat.=36.675253, lon.=137.758742, Alt.=2415.855755m. Speed=2.000000m/h.]]></desc>
</trkpt>
<trkpt lat="36.675267" lon="137.758742">
<ele>2417.050313</ele>
<time>2014-08-17T04:52:33Z</time>
<desc><![CDATA[lat.=36.675267, lon.=137.758742, Alt.=2417.050313m. Speed=2.000000m/h.]]></desc>
</trkpt>
<trkpt lat="36.675278" lon="137.758749">
<ele>2418.838633</ele>
<time>2014-08-17T04:52:38Z</time>
<desc><![CDATA[lat.=36.675278, lon.=137.758749, Alt.=2418.838633m. Speed=1.000000m/h.]]></desc>
</trkpt>
<trkpt lat="36.675292" lon="137.758750">
<ele>2418.302980</ele>
<time>2014-08-17T04:52:43Z</time>
<desc><![CDATA[lat.=36.675292, lon.=137.758750, Alt.=2418.302980m. Speed=1.000000m/h.]]></desc>
</trkpt>
<trkpt lat="36.675314" lon="137.758766">
<ele>2418.419200</ele>
<time>2014-08-17T04:52:48Z</time>
<desc><![CDATA[lat.=36.675314, lon.=137.758766, Alt.=2418.419200m. Speed=1.000000m/h.]]></desc>
</trkpt>
<trkpt lat="36.675307" lon="137.758782">
<ele>2417.876513</ele>
<time>2014-08-17T04:52:53Z</time>
<desc><![CDATA[lat.=36.675307, lon.=137.758782, Alt.=2417.876513m. Speed=0.000000m/h.]]></desc>
</trkpt>
<trkpt lat="36.675310" lon="137.758774">
<ele>2419.012962</ele>
<time>2014-08-17T04:52:58Z</time>
<desc><![CDATA[lat.=36.675310, lon.=137.758774, Alt.=2419.012962m. Speed=0.000000m/h.]]></desc>
</trkpt>
<trkpt lat="36.675313" lon="137.758781">
<ele>2421.934214</ele>
<time>2014-08-17T04:53:03Z</time>
<desc><![CDATA[lat.=36.675313, lon.=137.758781, Alt.=2421.934214m. Speed=1.000000m/h.]]></desc>
</trkpt>
<trkpt lat="36.675312" lon="137.758796">
<ele>2423.719018</ele>
<time>2014-08-17T04:53:08Z</time>
<desc><![CDATA[lat.=36.675312, lon.=137.758796, Alt.=2423.719018m. Speed=1.000000m/h.]]></desc>
</trkpt>
<trkpt lat="36.675319" lon="137.758812">
<ele>2424.370891</ele>
<time>2014-08-17T04:53:13Z</time>
<desc><![CDATA[lat.=36.675319, lon.=137.758812, Alt.=2424.370891m. Speed=1.000000m/h.]]></desc>
</trkpt>
<trkpt lat="36.675326" lon="137.758812">
<ele>2424.968171</ele>
<time>2014-08-17T04:53:18Z</time>
<desc><![CDATA[lat.=36.675326, lon.=137.758812, Alt.=2424.968171m. Speed=1.000000m/h.]]></desc>
</trkpt>
<trkpt lat="36.675296" lon="137.758857">
<ele>2426.203256</ele>
<time>2014-08-17T04:53:23Z</time>
<desc><![CDATA[lat.=36.675296, lon.=137.758857, Alt.=2426.203256m. Speed=1.000000m/h.]]></desc>
</trkpt>
<trkpt lat="36.675302" lon="137.758873">
<ele>2426.855129</ele>
<time>2014-08-17T04:53:28Z</time>
<desc><![CDATA[lat.=36.675302, lon.=137.758873, Alt.=2426.855129m. Speed=1.000000m/h.]]></desc>
</trkpt>
<trkpt lat="36.675332" lon="137.758874">
<ele>2427.514037</ele>
<time>2014-08-17T04:53:33Z</time>
<desc><![CDATA[lat.=36.675332, lon.=137.758874, Alt.=2427.514037m. Speed=1.000000m/h.]]></desc>
</trkpt>
<trkpt lat="36.675361" lon="137.758859">
<ele>2428.118352</ele>
<time>2014-08-17T04:53:38Z</time>
<desc><![CDATA[lat.=36.675361, lon.=137.758859, Alt.=2428.118352m. Speed=2.000000m/h.]]></desc>
</trkpt>
<trkpt lat="36.675399" lon="137.758845">
<ele>2427.589739</ele>
<time>2014-08-17T04:53:43Z</time>
<desc><![CDATA[lat.=36.675399, lon.=137.758845, Alt.=2427.589739m. Speed=2.000000m/h.]]></desc>
</trkpt>
<trkpt lat="36.675436" lon="137.758831">
<ele>2425.330918</ele>
<time>2014-08-17T04:53:48Z</time>
<desc><![CDATA[lat.=36.675436, lon.=137.758831, Alt.=2425.330918m. Speed=2.000000m/h.]]></desc>
</trkpt>
<trkpt lat="36.675462" lon="137.758840">
<ele>2424.853384</ele>
<time>2014-08-17T04:53:53Z</time>
<desc><![CDATA[lat.=36.675462, lon.=137.758840, Alt.=2424.853384m. Speed=2.000000m/h.]]></desc>
</trkpt>
<trkpt lat="36.675488" lon="137.758817">
<ele>2425.996875</ele>
<time>2014-08-17T04:53:58Z</time>
<desc><![CDATA[lat.=36.675488, lon.=137.758817, Alt.=2425.996875m. Speed=2.000000m/h.]]></desc>
</trkpt>
<trkpt lat="36.675496" lon="137.758769">
<ele>2426.430378</ele>
<time>2014-08-17T04:54:03Z</time>
<desc><![CDATA[lat.=36.675496, lon.=137.758769, Alt.=2426.430378m. Speed=2.000000m/h.]]></desc>
</trkpt>
<trkpt lat="36.675505" lon="137.758739">
<ele>2425.188266</ele>
<time>2014-08-17T04:54:08Z</time>
<desc><![CDATA[lat.=36.675505, lon.=137.758739, Alt.=2425.188266m. Speed=2.000000m/h.]]></desc>
</trkpt>
<trkpt lat="36.675516" lon="137.758716">
<ele>2423.406986</ele>
<time>2014-08-17T04:54:13Z</time>
<desc><![CDATA[lat.=36.675516, lon.=137.758716, Alt.=2423.406986m. Speed=2.000000m/h.]]></desc>
</trkpt>
<trkpt lat="36.675532" lon="137.758684">
<ele>2424.492369</ele>
<time>2014-08-17T04:54:18Z</time>
<desc><![CDATA[lat.=36.675532, lon.=137.758684, Alt.=2424.492369m. Speed=2.000000m/h.]]></desc>
</trkpt>
<trkpt lat="36.675555" lon="137.758639">
<ele>2422.660025</ele>
<time>2014-08-17T04:54:23Z</time>
<desc><![CDATA[lat.=36.675555, lon.=137.758639, Alt.=2422.660025m. Speed=2.000000m/h.]]></desc>
</trkpt>
<trkpt lat="36.675578" lon="137.758608">
<ele>2422.612485</ele>
<time>2014-08-17T04:54:28Z</time>
<desc><![CDATA[lat.=36.675578, lon.=137.758608, Alt.=2422.612485m. Speed=3.000000m/h.]]></desc>
</trkpt>
<trkpt lat="36.675608" lon="137.758610">
<ele>2419.810986</ele>
<time>2014-08-17T04:54:33Z</time>
<desc><![CDATA[lat.=36.675608, lon.=137.758610, Alt.=2419.810986m. Speed=3.000000m/h.]]></desc>
</trkpt>
<trkpt lat="36.675622" lon="137.758610">
<ele>2421.005554</ele>
<time>2014-08-17T04:54:38Z</time>
<desc><![CDATA[lat.=36.675622, lon.=137.758610, Alt.=2421.005554m. Speed=2.000000m/h.]]></desc>
</trkpt>
<trkpt lat="36.675626" lon="137.758619">
<ele>2418.736174</ele>
<time>2014-08-17T04:54:43Z</time>
<desc><![CDATA[lat.=36.675626, lon.=137.758619, Alt.=2418.736174m. Speed=0.000000m/h.]]></desc>
</trkpt>
<trkpt lat="36.675645" lon="137.758612">
<ele>2419.336984</ele>
<time>2014-08-17T04:54:48Z</time>
<desc><![CDATA[lat.=36.675645, lon.=137.758612, Alt.=2419.336984m. Speed=2.000000m/h.]]></desc>
</trkpt>
<trkpt lat="36.675672" lon="137.758574">
<ele>2416.965480</ele>
<time>2014-08-17T04:54:53Z</time>
<desc><![CDATA[lat.=36.675672, lon.=137.758574, Alt.=2416.965480m. Speed=2.000000m/h.]]></desc>
</trkpt>
<trkpt lat="36.675702" lon="137.758559">
<ele>2417.569821</ele>
<time>2014-08-17T04:54:58Z</time>
<desc><![CDATA[lat.=36.675702, lon.=137.758559, Alt.=2417.569821m. Speed=2.000000m/h.]]></desc>
</trkpt>
<trkpt lat="36.675724" lon="137.758512">
<ele>2419.197914</ele>
<time>2014-08-17T04:55:03Z</time>
<desc><![CDATA[lat.=36.675724, lon.=137.758512, Alt.=2419.197914m. Speed=3.000000m/h.]]></desc>
</trkpt>
<trkpt lat="36.675766" lon="137.758457">
<ele>2421.426827</ele>
<time>2014-08-17T04:55:08Z</time>
<desc><![CDATA[lat.=36.675766, lon.=137.758457, Alt.=2421.426827m. Speed=3.000000m/h.]]></desc>
</trkpt>
<trkpt lat="36.675792" lon="137.758418">
<ele>2422.515759</ele>
<time>2014-08-17T04:55:13Z</time>
<desc><![CDATA[lat.=36.675792, lon.=137.758418, Alt.=2422.515759m. Speed=3.000000m/h.]]></desc>
</trkpt>
<trkpt lat="36.675788" lon="137.758409">
<ele>2423.054929</ele>
<time>2014-08-17T04:55:18Z</time>
<desc><![CDATA[lat.=36.675788, lon.=137.758409, Alt.=2423.054929m. Speed=2.000000m/h.]]></desc>
</trkpt>
<trkpt lat="36.675833" lon="137.758363">
<ele>2424.744684</ele>
<time>2014-08-17T04:55:23Z</time>
<desc><![CDATA[lat.=36.675833, lon.=137.758363, Alt.=2424.744684m. Speed=3.000000m/h.]]></desc>
</trkpt>
<trkpt lat="36.675856" lon="137.758349">
<ele>2421.291328</ele>
<time>2014-08-17T04:55:28Z</time>
<desc><![CDATA[lat.=36.675856, lon.=137.758349, Alt.=2421.291328m. Speed=2.000000m/h.]]></desc>
</trkpt>
<trkpt lat="36.675853" lon="137.758324">
<ele>2423.506126</ele>
<time>2014-08-17T04:55:33Z</time>
<desc><![CDATA[lat.=36.675853, lon.=137.758324, Alt.=2423.506126m. Speed=2.000000m/h.]]></desc>
</trkpt>
<trkpt lat="36.675860" lon="137.758342">
<ele>2420.697574</ele>
<time>2014-08-17T04:55:38Z</time>
<desc><![CDATA[lat.=36.675860, lon.=137.758342, Alt.=2420.697574m. Speed=0.000000m/h.]]></desc>
</trkpt>
<trkpt lat="36.675857" lon="137.758301">
<ele>2422.857790</ele>
<time>2014-08-17T04:55:43Z</time>
<desc><![CDATA[lat.=36.675857, lon.=137.758301, Alt.=2422.857790m. Speed=0.000000m/h.]]></desc>
</trkpt>
<trkpt lat="36.675843" lon="137.758285">
<ele>2421.608633</ele>
<time>2014-08-17T04:55:48Z</time>
<desc><![CDATA[lat.=36.675843, lon.=137.758285, Alt.=2421.608633m. Speed=1.000000m/h.]]></desc>
</trkpt>
<trkpt lat="36.675852" lon="137.758239">
<ele>2420.311963</ele>
<time>2014-08-17T04:55:53Z</time>
<desc><![CDATA[lat.=36.675852, lon.=137.758239, Alt.=2420.311963m. Speed=2.000000m/h.]]></desc>
</trkpt>
<trkpt lat="36.675881" lon="137.758255">
<ele>2421.025483</ele>
<time>2014-08-17T04:55:58Z</time>
<desc><![CDATA[lat.=36.675881, lon.=137.758255, Alt.=2421.025483m. Speed=3.000000m/h.]]></desc>
</trkpt>
<trkpt lat="36.675903" lon="137.758256">
<ele>2421.087135</ele>
<time>2014-08-17T04:56:03Z</time>
<desc><![CDATA[lat.=36.675903, lon.=137.758256, Alt.=2421.087135m. Speed=2.000000m/h.]]></desc>
</trkpt>
<trkpt lat="36.675922" lon="137.758234">
<ele>2418.172954</ele>
<time>2014-08-17T04:56:08Z</time>
<desc><![CDATA[lat.=36.675922, lon.=137.758234, Alt.=2418.172954m. Speed=2.000000m/h.]]></desc>
</trkpt>
<trkpt lat="36.675929" lon="137.758233">
<ele>2420.500454</ele>
<time>2014-08-17T04:56:13Z</time>
<desc><![CDATA[lat.=36.675929, lon.=137.758233, Alt.=2420.500454m. Speed=2.000000m/h.]]></desc>
</trkpt>
<trkpt lat="36.675922" lon="137.758266">
<ele>2418.282118</ele>
<time>2014-08-17T04:56:18Z</time>
<desc><![CDATA[lat.=36.675922, lon.=137.758266, Alt.=2418.282118m. Speed=0.000000m/h.]]></desc>
</trkpt>
<trkpt lat="36.675921" lon="137.758265">
<ele>2420.012329</ele>
<time>2014-08-17T04:56:23Z</time>
<desc><![CDATA[lat.=36.675921, lon.=137.758265, Alt.=2420.012329m. Speed=0.000000m/h.]]></desc>
</trkpt>
<trkpt lat="36.675917" lon="137.758289">
<ele>2418.930453</ele>
<time>2014-08-17T04:56:28Z</time>
<desc><![CDATA[lat.=36.675917, lon.=137.758289, Alt.=2418.930453m. Speed=0.000000m/h.]]></desc>
</trkpt>
<trkpt lat="36.675921" lon="137.758281">
<ele>2420.066911</ele>
<time>2014-08-17T04:56:33Z</time>
<desc><![CDATA[lat.=36.675921, lon.=137.758281, Alt.=2420.066911m. Speed=0.000000m/h.]]></desc>
</trkpt>
<trkpt lat="36.675924" lon="137.758289">
<ele>2419.527741</ele>
<time>2014-08-17T04:56:38Z</time>
<desc><![CDATA[lat.=36.675924, lon.=137.758289, Alt.=2419.527741m. Speed=0.000000m/h.]]></desc>
</trkpt>
<trkpt lat="36.675943" lon="137.758282">
<ele>2418.398354</ele>
<time>2014-08-17T04:56:43Z</time>
<desc><![CDATA[lat.=36.675943, lon.=137.758282, Alt.=2418.398354m. Speed=1.000000m/h.]]></desc>
</trkpt>
<trkpt lat="36.675973" lon="137.758285">
<ele>2415.596875</ele>
<time>2014-08-17T04:56:48Z</time>
<desc><![CDATA[lat.=36.675973, lon.=137.758285, Alt.=2415.596875m. Speed=2.000000m/h.]]></desc>
</trkpt>
<trkpt lat="36.675992" lon="137.758294">
<ele>2412.791861</ele>
<time>2014-08-17T04:56:53Z</time>
<desc><![CDATA[lat.=36.675992, lon.=137.758294, Alt.=2412.791861m. Speed=1.000000m/h.]]></desc>
</trkpt>
<trkpt lat="36.676014" lon="137.758295">
<ele>2412.853518</ele>
<time>2014-08-17T04:56:58Z</time>
<desc><![CDATA[lat.=36.676014, lon.=137.758295, Alt.=2412.853518m. Speed=2.000000m/h.]]></desc>
</trkpt>
<trkpt lat="36.676029" lon="137.758296">
<ele>2412.317886</ele>
<time>2014-08-17T04:57:03Z</time>
<desc><![CDATA[lat.=36.676029, lon.=137.758296, Alt.=2412.317886m. Speed=2.000000m/h.]]></desc>
</trkpt>
<trkpt lat="36.676051" lon="137.758297">
<ele>2410.649333</ele>
<time>2014-08-17T04:57:08Z</time>
<desc><![CDATA[lat.=36.676051, lon.=137.758297, Alt.=2410.649333m. Speed=2.000000m/h.]]></desc>
</trkpt>
<trkpt lat="36.676038" lon="137.758250">
<ele>2409.291007</ele>
<time>2014-08-17T04:57:13Z</time>
<desc><![CDATA[lat.=36.676038, lon.=137.758250, Alt.=2409.291007m. Speed=2.000000m/h.]]></desc>
</trkpt>
<trkpt lat="36.676056" lon="137.758259">
<ele>2408.216206</ele>
<time>2014-08-17T04:57:18Z</time>
<desc><![CDATA[lat.=36.676056, lon.=137.758259, Alt.=2408.216206m. Speed=2.000000m/h.]]></desc>
</trkpt>
<trkpt lat="36.676078" lon="137.758276">
<ele>2406.602237</ele>
<time>2014-08-17T04:57:23Z</time>
<desc><![CDATA[lat.=36.676078, lon.=137.758276, Alt.=2406.602237m. Speed=2.000000m/h.]]></desc>
</trkpt>
<trkpt lat="36.676112" lon="137.758287">
<ele>2403.261597</ele>
<time>2014-08-17T04:57:28Z</time>
<desc><![CDATA[lat.=36.676112, lon.=137.758287, Alt.=2403.261597m. Speed=2.000000m/h.]]></desc>
</trkpt>
<trkpt lat="36.676127" lon="137.758288">
<ele>2400.995757</ele>
<time>2014-08-17T04:57:33Z</time>
<desc><![CDATA[lat.=36.676127, lon.=137.758288, Alt.=2400.995757m. Speed=2.000000m/h.]]></desc>
</trkpt>
<trkpt lat="36.676157" lon="137.758289">
<ele>2401.654711</ele>
<time>2014-08-17T04:57:38Z</time>
<desc><![CDATA[lat.=36.676157, lon.=137.758289, Alt.=2401.654711m. Speed=2.000000m/h.]]></desc>
</trkpt>
<trkpt lat="36.676186" lon="137.758306">
<ele>2400.638038</ele>
<time>2014-08-17T04:57:43Z</time>
<desc><![CDATA[lat.=36.676186, lon.=137.758306, Alt.=2400.638038m. Speed=2.000000m/h.]]></desc>
</trkpt>
<trkpt lat="36.676212" lon="137.758299">
<ele>2401.836163</ele>
<time>2014-08-17T04:57:48Z</time>
<desc><![CDATA[lat.=36.676212, lon.=137.758299, Alt.=2401.836163m. Speed=2.000000m/h.]]></desc>
</trkpt>
<trkpt lat="36.676230" lon="137.758292">
<ele>2400.706787</ele>
<time>2014-08-17T04:57:53Z</time>
<desc><![CDATA[lat.=36.676230, lon.=137.758292, Alt.=2400.706787m. Speed=1.000000m/h.]]></desc>
</trkpt>
<trkpt lat="36.676239" lon="137.758295">
<ele>2396.113446</ele>
<time>2014-08-17T04:57:58Z</time>
<desc><![CDATA[lat.=36.676239, lon.=137.758295, Alt.=2396.113446m. Speed=0.000000m/h.]]></desc>
</trkpt>
<trkpt lat="36.676228" lon="137.758304">
<ele>2392.649482</ele>
<time>2014-08-17T04:58:03Z</time>
<desc><![CDATA[lat.=36.676228, lon.=137.758304, Alt.=2392.649482m. Speed=0.000000m/h.]]></desc>
</trkpt>
<trkpt lat="36.676251" lon="137.758307">
<ele>2387.520517</ele>
<time>2014-08-17T04:58:08Z</time>
<desc><![CDATA[lat.=36.676251, lon.=137.758307, Alt.=2387.520517m. Speed=0.000000m/h.]]></desc>
</trkpt>
<trkpt lat="36.676262" lon="137.758298">
<ele>2389.254270</ele>
<time>2014-08-17T04:58:13Z</time>
<desc><![CDATA[lat.=36.676262, lon.=137.758298, Alt.=2389.254270m. Speed=0.000000m/h.]]></desc>
</trkpt>
<trkpt lat="36.676240" lon="137.758297">
<ele>2390.922814</ele>
<time>2014-08-17T04:58:18Z</time>
<desc><![CDATA[lat.=36.676240, lon.=137.758297, Alt.=2390.922814m. Speed=1.000000m/h.]]></desc>
</trkpt>
<trkpt lat="36.676239" lon="137.758296">
<ele>2392.653025</ele>
<time>2014-08-17T04:58:23Z</time>
<desc><![CDATA[lat.=36.676239, lon.=137.758296, Alt.=2392.653025m. Speed=0.000000m/h.]]></desc>
</trkpt>
<trkpt lat="36.676232" lon="137.758295">
<ele>2393.785943</ele>
<time>2014-08-17T04:58:28Z</time>
<desc><![CDATA[lat.=36.676232, lon.=137.758295, Alt.=2393.785943m. Speed=0.000000m/h.]]></desc>
</trkpt>
<trkpt lat="36.676228" lon="137.758303">
<ele>2394.379693</ele>
<time>2014-08-17T04:58:33Z</time>
<desc><![CDATA[lat.=36.676228, lon.=137.758303, Alt.=2394.379693m. Speed=0.000000m/h.]]></desc>
</trkpt>
<trkpt lat="36.676243" lon="137.758288">
<ele>2393.789485</ele>
<time>2014-08-17T04:58:38Z</time>
<desc><![CDATA[lat.=36.676243, lon.=137.758288, Alt.=2393.789485m. Speed=0.000000m/h.]]></desc>
</trkpt>
<trkpt lat="36.676239" lon="137.758296">
<ele>2392.653025</ele>
<time>2014-08-17T04:58:43Z</time>
<desc><![CDATA[lat.=36.676239, lon.=137.758296, Alt.=2392.653025m. Speed=0.000000m/h.]]></desc>
</trkpt>
<trkpt lat="36.676235" lon="137.758304">
<ele>2393.246775</ele>
<time>2014-08-17T04:58:48Z</time>
<desc><![CDATA[lat.=36.676235, lon.=137.758304, Alt.=2393.246775m. Speed=0.000000m/h.]]></desc>
</trkpt>
<trkpt lat="36.676239" lon="137.758295">
<ele>2394.383235</ele>
<time>2014-08-17T04:58:53Z</time>
<desc><![CDATA[lat.=36.676239, lon.=137.758295, Alt.=2394.383235m. Speed=0.000000m/h.]]></desc>
</trkpt>
<trkpt lat="36.676242" lon="137.758303">
<ele>2395.574278</ele>
<time>2014-08-17T04:58:58Z</time>
<desc><![CDATA[lat.=36.676242, lon.=137.758303, Alt.=2395.574278m. Speed=1.000000m/h.]]></desc>
</trkpt>
<trkpt lat="36.676264" lon="137.758304">
<ele>2395.635946</ele>
<time>2014-08-17T04:59:03Z</time>
<desc><![CDATA[lat.=36.676264, lon.=137.758304, Alt.=2395.635946m. Speed=1.000000m/h.]]></desc>
</trkpt>
<trkpt lat="36.676286" lon="137.758304">
<ele>2395.697614</ele>
<time>2014-08-17T04:59:08Z</time>
<desc><![CDATA[lat.=36.676286, lon.=137.758304, Alt.=2395.697614m. Speed=1.000000m/h.]]></desc>
</trkpt>
<trkpt lat="36.676316" lon="137.758306">
<ele>2394.626367</ele>
<time>2014-08-17T04:59:13Z</time>
<desc><![CDATA[lat.=36.676316, lon.=137.758306, Alt.=2394.626367m. Speed=2.000000m/h.]]></desc>
</trkpt>
<trkpt lat="36.676338" lon="137.758306">
<ele>2396.418248</ele>
<time>2014-08-17T04:59:18Z</time>
<desc><![CDATA[lat.=36.676338, lon.=137.758306, Alt.=2396.418248m. Speed=2.000000m/h.]]></desc>
</trkpt>
<trkpt lat="36.676356" lon="137.758348">
<ele>2391.992203</ele>
<time>2014-08-17T04:59:23Z</time>
<desc><![CDATA[lat.=36.676356, lon.=137.758348, Alt.=2391.992203m. Speed=2.000000m/h.]]></desc>
</trkpt>
<trkpt lat="36.676381" lon="137.758389">
<ele>2391.623876</ele>
<time>2014-08-17T04:59:28Z</time>
<desc><![CDATA[lat.=36.676381, lon.=137.758389, Alt.=2391.623876m. Speed=3.000000m/h.]]></desc>
</trkpt>
<trkpt lat="36.676414" lon="137.758398">
<ele>2391.743679</ele>
<time>2014-08-17T04:59:33Z</time>
<desc><![CDATA[lat.=36.676414, lon.=137.758398, Alt.=2391.743679m. Speed=3.000000m/h.]]></desc>
</trkpt>
<trkpt lat="36.676443" lon="137.758398">
<ele>2394.132860</ele>
<time>2014-08-17T04:59:38Z</time>
<desc><![CDATA[lat.=36.676443, lon.=137.758398, Alt.=2394.132860m. Speed=3.000000m/h.]]></desc>
</trkpt>
<trkpt lat="36.676487" lon="137.758416">
<ele>2392.580587</ele>
<time>2014-08-17T04:59:43Z</time>
<desc><![CDATA[lat.=36.676487, lon.=137.758416, Alt.=2392.580587m. Speed=3.000000m/h.]]></desc>
</trkpt>
<trkpt lat="36.676524" lon="137.758450">
<ele>2390.485607</ele>
<time>2014-08-17T04:59:48Z</time>
<desc><![CDATA[lat.=36.676524, lon.=137.758450, Alt.=2390.485607m. Speed=3.000000m/h.]]></desc>
</trkpt>
<trkpt lat="36.676574" lon="137.758483">
<ele>2391.315435</ele>
<time>2014-08-17T04:59:53Z</time>
<desc><![CDATA[lat.=36.676574, lon.=137.758483, Alt.=2391.315435m. Speed=4.000000m/h.]]></desc>
</trkpt>
<trkpt lat="36.676614" lon="137.758524">
<ele>2390.411512</ele>
<time>2014-08-17T04:59:58Z</time>
<desc><![CDATA[lat.=36.676614, lon.=137.758524, Alt.=2390.411512m. Speed=4.000000m/h.]]></desc>
</trkpt>
<trkpt lat="36.676665" lon="137.758542">
<ele>2389.456555</ele>
<time>2014-08-17T05:00:03Z</time>
<desc><![CDATA[lat.=36.676665, lon.=137.758542, Alt.=2389.456555m. Speed=4.000000m/h.]]></desc>
</trkpt>
<trkpt lat="36.676713" lon="137.758568">
<ele>2389.095352</ele>
<time>2014-08-17T05:00:08Z</time>
<desc><![CDATA[lat.=36.676713, lon.=137.758568, Alt.=2389.095352m. Speed=4.000000m/h.]]></desc>
</trkpt>
<trkpt lat="36.676748" lon="137.758600">
<ele>2390.460815</ele>
<time>2014-08-17T05:00:13Z</time>
<desc><![CDATA[lat.=36.676748, lon.=137.758600, Alt.=2390.460815m. Speed=4.000000m/h.]]></desc>
</trkpt>
<trkpt lat="36.676776" lon="137.758648">
<ele>2393.013780</ele>
<time>2014-08-17T05:00:18Z</time>
<desc><![CDATA[lat.=36.676776, lon.=137.758648, Alt.=2393.013780m. Speed=4.000000m/h.]]></desc>
</trkpt>
<trkpt lat="36.676794" lon="137.758688">
<ele>2392.048189</ele>
<time>2014-08-17T05:00:23Z</time>
<desc><![CDATA[lat.=36.676794, lon.=137.758688, Alt.=2392.048189m. Speed=3.000000m/h.]]></desc>
</trkpt>
<trkpt lat="36.676804" lon="137.758712">
<ele>2392.160919</ele>
<time>2014-08-17T05:00:28Z</time>
<desc><![CDATA[lat.=36.676804, lon.=137.758712, Alt.=2392.160919m. Speed=3.000000m/h.]]></desc>
</trkpt>
<trkpt lat="36.676818" lon="137.758728">
<ele>2393.410111</ele>
<time>2014-08-17T05:00:33Z</time>
<desc><![CDATA[lat.=36.676818, lon.=137.758728, Alt.=2393.410111m. Speed=2.000000m/h.]]></desc>
</trkpt>
<trkpt lat="36.676819" lon="137.758729">
<ele>2391.679901</ele>
<time>2014-08-17T05:00:38Z</time>
<desc><![CDATA[lat.=36.676819, lon.=137.758729, Alt.=2391.679901m. Speed=1.000000m/h.]]></desc>
</trkpt>
<trkpt lat="36.676829" lon="137.758753">
<ele>2391.792633</ele>
<time>2014-08-17T05:00:43Z</time>
<desc><![CDATA[lat.=36.676829, lon.=137.758753, Alt.=2391.792633m. Speed=1.000000m/h.]]></desc>
</trkpt>
<trkpt lat="36.676847" lon="137.758760">
<ele>2394.178286</ele>
<time>2014-08-17T05:00:48Z</time>
<desc><![CDATA[lat.=36.676847, lon.=137.758760, Alt.=2394.178286m. Speed=1.000000m/h.]]></desc>
</trkpt>
<trkpt lat="36.676861" lon="137.758776">
<ele>2395.427480</ele>
<time>2014-08-17T05:00:53Z</time>
<desc><![CDATA[lat.=36.676861, lon.=137.758776, Alt.=2395.427480m. Speed=1.000000m/h.]]></desc>
</trkpt>
<trkpt lat="36.676897" lon="137.758793">
<ele>2396.738369</ele>
<time>2014-08-17T05:00:58Z</time>
<desc><![CDATA[lat.=36.676897, lon.=137.758793, Alt.=2396.738369m. Speed=2.000000m/h.]]></desc>
</trkpt>
<trkpt lat="36.676922" lon="137.758784">
<ele>2399.666735</ele>
<time>2014-08-17T05:01:03Z</time>
<desc><![CDATA[lat.=36.676922, lon.=137.758784, Alt.=2399.666735m. Speed=2.000000m/h.]]></desc>
</trkpt>
<trkpt lat="36.676948" lon="137.758793">
<ele>2400.919484</ele>
<time>2014-08-17T05:01:08Z</time>
<desc><![CDATA[lat.=36.676948, lon.=137.758793, Alt.=2400.919484m. Speed=2.000000m/h.]]></desc>
</trkpt>
<trkpt lat="36.676965" lon="137.758817">
<ele>2401.629524</ele>
<time>2014-08-17T05:01:13Z</time>
<desc><![CDATA[lat.=36.676965, lon.=137.758817, Alt.=2401.629524m. Speed=2.000000m/h.]]></desc>
</trkpt>
<trkpt lat="36.676984" lon="137.758825">
<ele>2402.284972</ele>
<time>2014-08-17T05:01:18Z</time>
<desc><![CDATA[lat.=36.676984, lon.=137.758825, Alt.=2402.284972m. Speed=2.000000m/h.]]></desc>
</trkpt>
<trkpt lat="36.676998" lon="137.758842">
<ele>2401.803961</ele>
<time>2014-08-17T05:01:23Z</time>
<desc><![CDATA[lat.=36.676998, lon.=137.758842, Alt.=2401.803961m. Speed=2.000000m/h.]]></desc>
</trkpt>
<trkpt lat="36.677005" lon="137.758874">
<ele>2400.780241</ele>
<time>2014-08-17T05:01:28Z</time>
<desc><![CDATA[lat.=36.677005, lon.=137.758874, Alt.=2400.780241m. Speed=2.000000m/h.]]></desc>
</trkpt>
<trkpt lat="36.677030" lon="137.758898">
<ele>2402.087588</ele>
<time>2014-08-17T05:01:33Z</time>
<desc><![CDATA[lat.=36.677030, lon.=137.758898, Alt.=2402.087588m. Speed=1.000000m/h.]]></desc>
</trkpt>
<trkpt lat="36.677055" lon="137.758906">
<ele>2403.340344</ele>
<time>2014-08-17T05:01:38Z</time>
<desc><![CDATA[lat.=36.677055, lon.=137.758906, Alt.=2403.340344m. Speed=2.000000m/h.]]></desc>
</trkpt>
<trkpt lat="36.677058" lon="137.758930">
<ele>2402.855782</ele>
<time>2014-08-17T05:01:43Z</time>
<desc><![CDATA[lat.=36.677058, lon.=137.758930, Alt.=2402.855782m. Speed=1.000000m/h.]]></desc>
</trkpt>
<trkpt lat="36.677051" lon="137.758946">
<ele>2402.313073</ele>
<time>2014-08-17T05:01:48Z</time>
<desc><![CDATA[lat.=36.677051, lon.=137.758946, Alt.=2402.313073m. Speed=1.000000m/h.]]></desc>
</trkpt>
<trkpt lat="36.677054" lon="137.758970">
<ele>2403.558722</ele>
<time>2014-08-17T05:01:53Z</time>
<desc><![CDATA[lat.=36.677054, lon.=137.758970, Alt.=2403.558722m. Speed=0.000000m/h.]]></desc>
</trkpt>
<trkpt lat="36.677054" lon="137.758986">
<ele>2401.883107</ele>
<time>2014-08-17T05:01:58Z</time>
<desc><![CDATA[lat.=36.677054, lon.=137.758986, Alt.=2401.883107m. Speed=1.000000m/h.]]></desc>
</trkpt>
<trkpt lat="36.677086" lon="137.758995">
<ele>2402.002960</ele>
<time>2014-08-17T05:02:03Z</time>
<desc><![CDATA[lat.=36.677086, lon.=137.758995, Alt.=2402.002960m. Speed=2.000000m/h.]]></desc>
</trkpt>
<trkpt lat="36.677109" lon="137.758964">
<ele>2401.955473</ele>
<time>2014-08-17T05:02:08Z</time>
<desc><![CDATA[lat.=36.677109, lon.=137.758964, Alt.=2401.955473m. Speed=2.000000m/h.]]></desc>
</trkpt>
<trkpt lat="36.677146" lon="137.758949">
<ele>2404.887404</ele>
<time>2014-08-17T05:02:13Z</time>
<desc><![CDATA[lat.=36.677146, lon.=137.758949, Alt.=2404.887404m. Speed=2.000000m/h.]]></desc>
</trkpt>
<trkpt lat="36.677175" lon="137.758965">
<ele>2405.601011</ele>
<time>2014-08-17T05:02:18Z</time>
<desc><![CDATA[lat.=36.677175, lon.=137.758965, Alt.=2405.601011m. Speed=2.000000m/h.]]></desc>
</trkpt>
<trkpt lat="36.677167" lon="137.759014">
<ele>2401.707072</ele>
<time>2014-08-17T05:02:23Z</time>
<desc><![CDATA[lat.=36.677167, lon.=137.759014, Alt.=2401.707072m. Speed=2.000000m/h.]]></desc>
</trkpt>
<trkpt lat="36.677196" lon="137.759030">
<ele>2404.150892</ele>
<time>2014-08-17T05:02:28Z</time>
<desc><![CDATA[lat.=36.677196, lon.=137.759030, Alt.=2404.150892m. Speed=2.000000m/h.]]></desc>
</trkpt>
<trkpt lat="36.677229" lon="137.759022">
<ele>2405.946367</ele>
<time>2014-08-17T05:02:33Z</time>
<desc><![CDATA[lat.=36.677229, lon.=137.759022, Alt.=2405.946367m. Speed=2.000000m/h.]]></desc>
</trkpt>
<trkpt lat="36.677258" lon="137.759024">
<ele>2404.875174</ele>
<time>2014-08-17T05:02:38Z</time>
<desc><![CDATA[lat.=36.677258, lon.=137.759024, Alt.=2404.875174m. Speed=2.000000m/h.]]></desc>
</trkpt>
<trkpt lat="36.677299" lon="137.759017">
<ele>2405.537752</ele>
<time>2014-08-17T05:02:43Z</time>
<desc><![CDATA[lat.=36.677299, lon.=137.759017, Alt.=2405.537752m. Speed=3.000000m/h.]]></desc>
</trkpt>
<trkpt lat="36.677350" lon="137.759019">
<ele>2404.528278</ele>
<time>2014-08-17T05:02:48Z</time>
<desc><![CDATA[lat.=36.677350, lon.=137.759019, Alt.=2404.528278m. Speed=3.000000m/h.]]></desc>
</trkpt>
<trkpt lat="36.677387" lon="137.759020">
<ele>2405.784610</ele>
<time>2014-08-17T05:02:53Z</time>
<desc><![CDATA[lat.=36.677387, lon.=137.759020, Alt.=2405.784610m. Speed=3.000000m/h.]]></desc>
</trkpt>
<trkpt lat="36.677428" lon="137.758982">
<ele>2406.338007</ele>
<time>2014-08-17T05:02:58Z</time>
<desc><![CDATA[lat.=36.677428, lon.=137.758982, Alt.=2406.338007m. Speed=4.000000m/h.]]></desc>
</trkpt>
<trkpt lat="36.677487" lon="137.758968">
<ele>2405.871261</ele>
<time>2014-08-17T05:03:03Z</time>
<desc><![CDATA[lat.=36.677487, lon.=137.758968, Alt.=2405.871261m. Speed=4.000000m/h.]]></desc>
</trkpt>
<trkpt lat="36.677528" lon="137.758962">
<ele>2404.803647</ele>
<time>2014-08-17T05:03:08Z</time>
<desc><![CDATA[lat.=36.677528, lon.=137.758962, Alt.=2404.803647m. Speed=4.000000m/h.]]></desc>
</trkpt>
<trkpt lat="36.677561" lon="137.758971">
<ele>2406.653739</ele>
<time>2014-08-17T05:03:13Z</time>
<desc><![CDATA[lat.=36.677561, lon.=137.758971, Alt.=2406.653739m. Speed=3.000000m/h.]]></desc>
</trkpt>
<trkpt lat="36.677594" lon="137.758963">
<ele>2408.449238</ele>
<time>2014-08-17T05:03:18Z</time>
<desc><![CDATA[lat.=36.677594, lon.=137.758963, Alt.=2408.449238m. Speed=3.000000m/h.]]></desc>
</trkpt>
<trkpt lat="36.677627" lon="137.758957">
<ele>2406.784320</ele>
<time>2014-08-17T05:03:23Z</time>
<desc><![CDATA[lat.=36.677627, lon.=137.758957, Alt.=2406.784320m. Speed=3.000000m/h.]]></desc>
</trkpt>
<trkpt lat="36.677645" lon="137.758980">
<ele>2409.224598</ele>
<time>2014-08-17T05:03:28Z</time>
<desc><![CDATA[lat.=36.677645, lon.=137.758980, Alt.=2409.224598m. Speed=3.000000m/h.]]></desc>
</trkpt>
<trkpt lat="36.677670" lon="137.758989">
<ele>2410.477384</ele>
<time>2014-08-17T05:03:33Z</time>
<desc><![CDATA[lat.=36.677670, lon.=137.758989, Alt.=2410.477384m. Speed=3.000000m/h.]]></desc>
</trkpt>
<trkpt lat="36.677704" lon="137.758950">
<ele>2410.433491</ele>
<time>2014-08-17T05:03:38Z</time>
<desc><![CDATA[lat.=36.677704, lon.=137.758950, Alt.=2410.433491m. Speed=3.000000m/h.]]></desc>
</trkpt>
<trkpt lat="36.677722" lon="137.758926">
<ele>2412.709988</ele>
<time>2014-08-17T05:03:43Z</time>
<desc><![CDATA[lat.=36.677722, lon.=137.758926, Alt.=2412.709988m. Speed=3.000000m/h.]]></desc>
</trkpt>
<trkpt lat="36.677730" lon="137.758895">
<ele>2413.198114</ele>
<time>2014-08-17T05:03:48Z</time>
<desc><![CDATA[lat.=36.677730, lon.=137.758895, Alt.=2413.198114m. Speed=3.000000m/h.]]></desc>
</trkpt>
<trkpt lat="36.677756" lon="137.758871">
<ele>2414.341718</ele>
<time>2014-08-17T05:03:53Z</time>
<desc><![CDATA[lat.=36.677756, lon.=137.758871, Alt.=2414.341718m. Speed=2.000000m/h.]]></desc>
</trkpt>
<trkpt lat="36.677767" lon="137.758847">
<ele>2416.020905</ele>
<time>2014-08-17T05:03:58Z</time>
<desc><![CDATA[lat.=36.677767, lon.=137.758847, Alt.=2416.020905m. Speed=2.000000m/h.]]></desc>
</trkpt>
<trkpt lat="36.677797" lon="137.758833">
<ele>2414.895151</ele>
<time>2014-08-17T05:04:03Z</time>
<desc><![CDATA[lat.=36.677797, lon.=137.758833, Alt.=2414.895151m. Speed=2.000000m/h.]]></desc>
</trkpt>
<trkpt lat="36.677816" lon="137.758841">
<ele>2415.550629</ele>
<time>2014-08-17T05:04:08Z</time>
<desc><![CDATA[lat.=36.677816, lon.=137.758841, Alt.=2415.550629m. Speed=2.000000m/h.]]></desc>
</trkpt>
<trkpt lat="36.677819" lon="137.758834">
<ele>2414.956886</ele>
<time>2014-08-17T05:04:13Z</time>
<desc><![CDATA[lat.=36.677819, lon.=137.758834, Alt.=2414.956886m. Speed=2.000000m/h.]]></desc>
</trkpt>
<trkpt lat="36.677837" lon="137.758857">
<ele>2417.397166</ele>
<time>2014-08-17T05:04:18Z</time>
<desc><![CDATA[lat.=36.677837, lon.=137.758857, Alt.=2417.397166m. Speed=2.000000m/h.]]></desc>
</trkpt>
<trkpt lat="36.677844" lon="137.758825">
<ele>2419.615506</ele>
<time>2014-08-17T05:04:23Z</time>
<desc><![CDATA[lat.=36.677844, lon.=137.758825, Alt.=2419.615506m. Speed=2.000000m/h.]]></desc>
</trkpt>
<trkpt lat="36.677855" lon="137.758816">
<ele>2423.079496</ele>
<time>2014-08-17T05:04:28Z</time>
<desc><![CDATA[lat.=36.677855, lon.=137.758816, Alt.=2423.079496m. Speed=2.000000m/h.]]></desc>
</trkpt>
<trkpt lat="36.677847" lon="137.758814">
<ele>2425.942600</ele>
<time>2014-08-17T05:04:33Z</time>
<desc><![CDATA[lat.=36.677847, lon.=137.758814, Alt.=2425.942600m. Speed=1.000000m/h.]]></desc>
</trkpt>
<trkpt lat="36.677855" lon="137.758782">
<ele>2426.430733</ele>
<time>2014-08-17T05:04:38Z</time>
<desc><![CDATA[lat.=36.677855, lon.=137.758782, Alt.=2426.430733m. Speed=2.000000m/h.]]></desc>
</trkpt>
<trkpt lat="36.677877" lon="137.758783">
<ele>2426.492469</ele>
<time>2014-08-17T05:04:43Z</time>
<desc><![CDATA[lat.=36.677877, lon.=137.758783, Alt.=2426.492469m. Speed=1.000000m/h.]]></desc>
</trkpt>
<trkpt lat="36.677899" lon="137.758801">
<ele>2424.878589</ele>
<time>2014-08-17T05:04:48Z</time>
<desc><![CDATA[lat.=36.677899, lon.=137.758801, Alt.=2424.878589m. Speed=1.000000m/h.]]></desc>
</trkpt>
<trkpt lat="36.677907" lon="137.758786">
<ele>2423.691105</ele>
<time>2014-08-17T05:04:53Z</time>
<desc><![CDATA[lat.=36.677907, lon.=137.758786, Alt.=2423.691105m. Speed=1.000000m/h.]]></desc>
</trkpt>
<trkpt lat="36.677922" lon="137.758755">
<ele>2423.046346</ele>
<time>2014-08-17T05:04:58Z</time>
<desc><![CDATA[lat.=36.677922, lon.=137.758755, Alt.=2423.046346m. Speed=2.000000m/h.]]></desc>
</trkpt>
<trkpt lat="36.677946" lon="137.758725">
<ele>2421.268697</ele>
<time>2014-08-17T05:05:03Z</time>
<desc><![CDATA[lat.=36.677946, lon.=137.758725, Alt.=2421.268697m. Speed=2.000000m/h.]]></desc>
</trkpt>
<trkpt lat="36.677948" lon="137.758748">
<ele>2422.514345</ele>
<time>2014-08-17T05:05:08Z</time>
<desc><![CDATA[lat.=36.677948, lon.=137.758748, Alt.=2422.514345m. Speed=1.000000m/h.]]></desc>
</trkpt>
<trkpt lat="36.677937" lon="137.758787">
<ele>2422.619951</ele>
<time>2014-08-17T05:05:13Z</time>
<desc><![CDATA[lat.=36.677937, lon.=137.758787, Alt.=2422.619951m. Speed=2.000000m/h.]]></desc>
</trkpt>
<trkpt lat="36.677961" lon="137.758794">
<ele>2427.333168</ele>
<time>2014-08-17T05:05:18Z</time>
<desc><![CDATA[lat.=36.677961, lon.=137.758794, Alt.=2427.333168m. Speed=2.000000m/h.]]></desc>
</trkpt>
<trkpt lat="36.677965" lon="137.758753">
<ele>2430.090664</ele>
<time>2014-08-17T05:05:23Z</time>
<desc><![CDATA[lat.=36.677965, lon.=137.758753, Alt.=2430.090664m. Speed=2.000000m/h.]]></desc>
</trkpt>
<trkpt lat="36.677980" lon="137.758738">
<ele>2429.500498</ele>
<time>2014-08-17T05:05:28Z</time>
<desc><![CDATA[lat.=36.677980, lon.=137.758738, Alt.=2429.500498m. Speed=2.000000m/h.]]></desc>
</trkpt>
<trkpt lat="36.677991" lon="137.758762">
<ele>2429.613254</ele>
<time>2014-08-17T05:05:33Z</time>
<desc><![CDATA[lat.=36.677991, lon.=137.758762, Alt.=2429.613254m. Speed=1.000000m/h.]]></desc>
</trkpt>
<trkpt lat="36.677994" lon="137.758770">
<ele>2430.804313</ele>
<time>2014-08-17T05:05:38Z</time>
<desc><![CDATA[lat.=36.677994, lon.=137.758770, Alt.=2430.804313m. Speed=1.000000m/h.]]></desc>
</trkpt>
<trkpt lat="36.678005" lon="137.758762">
<ele>2430.807889</ele>
<time>2014-08-17T05:05:43Z</time>
<desc><![CDATA[lat.=36.678005, lon.=137.758762, Alt.=2430.807889m. Speed=1.000000m/h.]]></desc>
</trkpt>
<trkpt lat="36.678009" lon="137.758738">
<ele>2431.889767</ele>
<time>2014-08-17T05:05:48Z</time>
<desc><![CDATA[lat.=36.678009, lon.=137.758738, Alt.=2431.889767m. Speed=2.000000m/h.]]></desc>
</trkpt>
<trkpt lat="36.678044" lon="137.758701">
<ele>2428.385490</ele>
<time>2014-08-17T05:05:53Z</time>
<desc><![CDATA[lat.=36.678044, lon.=137.758701, Alt.=2428.385490m. Speed=2.000000m/h.]]></desc>
</trkpt>
<trkpt lat="36.678058" lon="137.758733">
<ele>2429.689305</ele>
<time>2014-08-17T05:05:58Z</time>
<desc><![CDATA[lat.=36.678058, lon.=137.758733, Alt.=2429.689305m. Speed=2.000000m/h.]]></desc>
</trkpt>
<trkpt lat="36.678068" lon="137.758756">
<ele>2431.532272</ele>
<time>2014-08-17T05:06:03Z</time>
<desc><![CDATA[lat.=36.678068, lon.=137.758756, Alt.=2431.532272m. Speed=1.000000m/h.]]></desc>
</trkpt>
<trkpt lat="36.678064" lon="137.758764">
<ele>2430.395803</ele>
<time>2014-08-17T05:06:08Z</time>
<desc><![CDATA[lat.=36.678064, lon.=137.758764, Alt.=2430.395803m. Speed=0.000000m/h.]]></desc>
</trkpt>
<trkpt lat="36.678067" lon="137.758788">
<ele>2431.641453</ele>
<time>2014-08-17T05:06:13Z</time>
<desc><![CDATA[lat.=36.678067, lon.=137.758788, Alt.=2431.641453m. Speed=1.000000m/h.]]></desc>
</trkpt>
<trkpt lat="36.678071" lon="137.758796">
<ele>2431.102303</ele>
<time>2014-08-17T05:06:18Z</time>
<desc><![CDATA[lat.=36.678071, lon.=137.758796, Alt.=2431.102303m. Speed=1.000000m/h.]]></desc>
</trkpt>
<trkpt lat="36.678084" lon="137.758828">
<ele>2432.406122</ele>
<time>2014-08-17T05:06:23Z</time>
<desc><![CDATA[lat.=36.678084, lon.=137.758828, Alt.=2432.406122m. Speed=1.000000m/h.]]></desc>
</trkpt>
<trkpt lat="36.678102" lon="137.758819">
<ele>2436.467436</ele>
<time>2014-08-17T05:06:28Z</time>
<desc><![CDATA[lat.=36.678102, lon.=137.758819, Alt.=2436.467436m. Speed=1.000000m/h.]]></desc>
</trkpt>
<trkpt lat="36.678106" lon="137.758795">
<ele>2437.549313</ele>
<time>2014-08-17T05:06:33Z</time>
<desc><![CDATA[lat.=36.678106, lon.=137.758795, Alt.=2437.549313m. Speed=2.000000m/h.]]></desc>
</trkpt>
<trkpt lat="36.678117" lon="137.758786">
<ele>2439.283100</ele>
<time>2014-08-17T05:06:38Z</time>
<desc><![CDATA[lat.=36.678117, lon.=137.758786, Alt.=2439.283100m. Speed=2.000000m/h.]]></desc>
</trkpt>
<trkpt lat="36.678139" lon="137.758771">
<ele>2439.290258</ele>
<time>2014-08-17T05:06:43Z</time>
<desc><![CDATA[lat.=36.678139, lon.=137.758771, Alt.=2439.290258m. Speed=1.000000m/h.]]></desc>
</trkpt>
<trkpt lat="36.678151" lon="137.758748">
<ele>2439.239247</ele>
<time>2014-08-17T05:06:48Z</time>
<desc><![CDATA[lat.=36.678151, lon.=137.758748, Alt.=2439.239247m. Speed=2.000000m/h.]]></desc>
</trkpt>
<trkpt lat="36.678173" lon="137.758733">
<ele>2439.246407</ele>
<time>2014-08-17T05:06:53Z</time>
<desc><![CDATA[lat.=36.678173, lon.=137.758733, Alt.=2439.246407m. Speed=2.000000m/h.]]></desc>
</trkpt>
<trkpt lat="36.678176" lon="137.758757">
<ele>2438.761847</ele>
<time>2014-08-17T05:06:58Z</time>
<desc><![CDATA[lat.=36.678176, lon.=137.758757, Alt.=2438.761847m. Speed=1.000000m/h.]]></desc>
</trkpt>
<trkpt lat="36.678177" lon="137.758758">
<ele>2437.031638</ele>
<time>2014-08-17T05:07:03Z</time>
<desc><![CDATA[lat.=36.678177, lon.=137.758758, Alt.=2437.031638m. Speed=0.000000m/h.]]></desc>
</trkpt>
<trkpt lat="36.678180" lon="137.758798">
<ele>2436.601669</ele>
<time>2014-08-17T05:07:08Z</time>
<desc><![CDATA[lat.=36.678180, lon.=137.758798, Alt.=2436.601669m. Speed=1.000000m/h.]]></desc>
</trkpt>
<trkpt lat="36.678179" lon="137.758813">
<ele>2436.656260</ele>
<time>2014-08-17T05:07:13Z</time>
<desc><![CDATA[lat.=36.678179, lon.=137.758813, Alt.=2436.656260m. Speed=0.000000m/h.]]></desc>
</trkpt>
<trkpt lat="36.678182" lon="137.758837">
<ele>2437.901912</ele>
<time>2014-08-17T05:07:18Z</time>
<desc><![CDATA[lat.=36.678182, lon.=137.758837, Alt.=2437.901912m. Speed=1.000000m/h.]]></desc>
</trkpt>
<trkpt lat="36.678189" lon="137.758837">
<ele>2438.499232</ele>
<time>2014-08-17T05:07:23Z</time>
<desc><![CDATA[lat.=36.678189, lon.=137.758837, Alt.=2438.499232m. Speed=1.000000m/h.]]></desc>
</trkpt>
<trkpt lat="36.678209" lon="137.758814">
<ele>2437.315331</ele>
<time>2014-08-17T05:07:28Z</time>
<desc><![CDATA[lat.=36.678209, lon.=137.758814, Alt.=2437.315331m. Speed=2.000000m/h.]]></desc>
</trkpt>
<trkpt lat="36.678227" lon="137.758822">
<ele>2437.970823</ele>
<time>2014-08-17T05:07:33Z</time>
<desc><![CDATA[lat.=36.678227, lon.=137.758822, Alt.=2437.970823m. Speed=1.000000m/h.]]></desc>
</trkpt>
<trkpt lat="36.678230" lon="137.758830">
<ele>2439.161884</ele>
<time>2014-08-17T05:07:38Z</time>
<desc><![CDATA[lat.=36.678230, lon.=137.758830, Alt.=2439.161884m. Speed=1.000000m/h.]]></desc>
</trkpt>
<trkpt lat="36.678237" lon="137.758830">
<ele>2439.759204</ele>
<time>2014-08-17T05:07:43Z</time>
<desc><![CDATA[lat.=36.678237, lon.=137.758830, Alt.=2439.759204m. Speed=0.000000m/h.]]></desc>
</trkpt>
<trkpt lat="36.678241" lon="137.758822">
<ele>2440.895673</ele>
<time>2014-08-17T05:07:48Z</time>
<desc><![CDATA[lat.=36.678241, lon.=137.758822, Alt.=2440.895673m. Speed=1.000000m/h.]]></desc>
</trkpt>
<trkpt lat="36.678263" lon="137.758806">
<ele>2442.633044</ele>
<time>2014-08-17T05:07:53Z</time>
<desc><![CDATA[lat.=36.678263, lon.=137.758806, Alt.=2442.633044m. Speed=1.000000m/h.]]></desc>
</trkpt>
<trkpt lat="36.678273" lon="137.758797">
<ele>2446.097044</ele>
<time>2014-08-17T05:07:58Z</time>
<desc><![CDATA[lat.=36.678273, lon.=137.758797, Alt.=2446.097044m. Speed=1.000000m/h.]]></desc>
</trkpt>
<trkpt lat="36.678280" lon="137.758797">
<ele>2446.694365</ele>
<time>2014-08-17T05:08:03Z</time>
<desc><![CDATA[lat.=36.678280, lon.=137.758797, Alt.=2446.694365m. Speed=1.000000m/h.]]></desc>
</trkpt>
<trkpt lat="36.678288" lon="137.758797">
<ele>2447.291686</ele>
<time>2014-08-17T05:08:08Z</time>
<desc><![CDATA[lat.=36.678288, lon.=137.758797, Alt.=2447.291686m. Speed=0.000000m/h.]]></desc>
</trkpt>
<trkpt lat="36.678299" lon="137.758789">
<ele>2447.295268</ele>
<time>2014-08-17T05:08:19Z</time>
<desc><![CDATA[lat.=36.678299, lon.=137.758789, Alt.=2447.295268m. Speed=0.000000m/h.]]></desc>
</trkpt>
<trkpt lat="36.678302" lon="137.758797">
<ele>2448.486329</ele>
<time>2014-08-17T05:08:25Z</time>
<desc><![CDATA[lat.=36.678302, lon.=137.758797, Alt.=2448.486329m. Speed=0.000000m/h.]]></desc>
</trkpt>
<trkpt lat="36.678321" lon="137.758790">
<ele>2447.357024</ele>
<time>2014-08-17T05:08:30Z</time>
<desc><![CDATA[lat.=36.678321, lon.=137.758790, Alt.=2447.357024m. Speed=0.000000m/h.]]></desc>
</trkpt>
<trkpt lat="36.678325" lon="137.758782">
<ele>2448.493494</ele>
<time>2014-08-17T05:08:35Z</time>
<desc><![CDATA[lat.=36.678325, lon.=137.758782, Alt.=2448.493494m. Speed=1.000000m/h.]]></desc>
</trkpt>
<trkpt lat="36.678329" lon="137.758774">
<ele>2447.899755</ele>
<time>2014-08-17T05:08:40Z</time>
<desc><![CDATA[lat.=36.678329, lon.=137.758774, Alt.=2447.899755m. Speed=0.000000m/h.]]></desc>
</trkpt>
<trkpt lat="36.678336" lon="137.758774">
<ele>2448.497077</ele>
<time>2014-08-17T05:08:45Z</time>
<desc><![CDATA[lat.=36.678336, lon.=137.758774, Alt.=2448.497077m. Speed=0.000000m/h.]]></desc>
</trkpt>
<trkpt lat="36.678347" lon="137.758783">
<ele>2448.555251</ele>
<time>2014-08-17T05:08:55Z</time>
<desc><![CDATA[lat.=36.678347, lon.=137.758783, Alt.=2448.555251m. Speed=0.000000m/h.]]></desc>
</trkpt>
<trkpt lat="36.678350" lon="137.758790">
<ele>2449.746312</ele>
<time>2014-08-17T05:09:00Z</time>
<desc><![CDATA[lat.=36.678350, lon.=137.758790, Alt.=2449.746312m. Speed=1.000000m/h.]]></desc>
</trkpt>
<trkpt lat="36.678372" lon="137.758791">
<ele>2449.808070</ele>
<time>2014-08-17T05:09:05Z</time>
<desc><![CDATA[lat.=36.678372, lon.=137.758791, Alt.=2449.808070m. Speed=1.000000m/h.]]></desc>
</trkpt>
<trkpt lat="36.678390" lon="137.758798">
<ele>2452.193776</ele>
<time>2014-08-17T05:09:10Z</time>
<desc><![CDATA[lat.=36.678390, lon.=137.758798, Alt.=2452.193776m. Speed=1.000000m/h.]]></desc>
</trkpt>
<trkpt lat="36.678396" lon="137.758814">
<ele>2452.845690</ele>
<time>2014-08-17T05:09:15Z</time>
<desc><![CDATA[lat.=36.678396, lon.=137.758814, Alt.=2452.845690m. Speed=1.000000m/h.]]></desc>
</trkpt>
<trkpt lat="36.678411" lon="137.758814">
<ele>2454.040336</ele>
<time>2014-08-17T05:09:20Z</time>
<desc><![CDATA[lat.=36.678411, lon.=137.758814, Alt.=2454.040336m. Speed=0.000000m/h.]]></desc>
</trkpt>
<trkpt lat="36.678429" lon="137.758807">
<ele>2454.641243</ele>
<time>2014-08-17T05:09:25Z</time>
<desc><![CDATA[lat.=36.678429, lon.=137.758807, Alt.=2454.641243m. Speed=1.000000m/h.]]></desc>
</trkpt>
<trkpt lat="36.678444" lon="137.758791">
<ele>2455.781299</ele>
<time>2014-08-17T05:09:30Z</time>
<desc><![CDATA[lat.=36.678444, lon.=137.758791, Alt.=2455.781299m. Speed=1.000000m/h.]]></desc>
</trkpt>
<trkpt lat="36.678466" lon="137.758792">
<ele>2455.843061</ele>
<time>2014-08-17T05:09:35Z</time>
<desc><![CDATA[lat.=36.678466, lon.=137.758792, Alt.=2455.843061m. Speed=1.000000m/h.]]></desc>
</trkpt>
<trkpt lat="36.678466" lon="137.758807">
<ele>2455.897652</ele>
<time>2014-08-17T05:09:40Z</time>
<desc><![CDATA[lat.=36.678466, lon.=137.758807, Alt.=2455.897652m. Speed=0.000000m/h.]]></desc>
</trkpt>
<trkpt lat="36.678459" lon="137.758807">
<ele>2455.300328</ele>
<time>2014-08-17T05:09:45Z</time>
<desc><![CDATA[lat.=36.678459, lon.=137.758807, Alt.=2455.300328m. Speed=0.000000m/h.]]></desc>
</trkpt>
<trkpt lat="36.678466" lon="137.758807">
<ele>2455.897652</ele>
<time>2014-08-17T05:09:50Z</time>
<desc><![CDATA[lat.=36.678466, lon.=137.758807, Alt.=2455.897652m. Speed=0.000000m/h.]]></desc>
</trkpt>
<trkpt lat="36.678469" lon="137.758816">
<ele>2455.358505</ele>
<time>2014-08-17T05:09:57Z</time>
<desc><![CDATA[lat.=36.678469, lon.=137.758816, Alt.=2455.358505m. Speed=0.000000m/h.]]></desc>
</trkpt>
<trkpt lat="36.678476" lon="137.758815">
<ele>2457.686038</ele>
<time>2014-08-17T05:10:02Z</time>
<desc><![CDATA[lat.=36.678476, lon.=137.758815, Alt.=2457.686038m. Speed=0.000000m/h.]]></desc>
</trkpt>
<trkpt lat="36.678472" lon="137.758822">
<ele>2458.279776</ele>
<time>2014-08-17T05:10:09Z</time>
<desc><![CDATA[lat.=36.678472, lon.=137.758822, Alt.=2458.279776m. Speed=0.000000m/h.]]></desc>
</trkpt>
<trkpt lat="36.678483" lon="137.758831">
<ele>2458.337953</ele>
<time>2014-08-17T05:10:14Z</time>
<desc><![CDATA[lat.=36.678483, lon.=137.758831, Alt.=2458.337953m. Speed=0.000000m/h.]]></desc>
</trkpt>
<trkpt lat="36.678494" lon="137.758838">
<ele>2460.126339</ele>
<time>2014-08-17T05:10:19Z</time>
<desc><![CDATA[lat.=36.678494, lon.=137.758838, Alt.=2460.126339m. Speed=0.000000m/h.]]></desc>
</trkpt>
<trkpt lat="36.678504" lon="137.758846">
<ele>2461.914726</ele>
<time>2014-08-17T05:10:24Z</time>
<desc><![CDATA[lat.=36.678504, lon.=137.758846, Alt.=2461.914726m. Speed=1.000000m/h.]]></desc>
</trkpt>
<trkpt lat="36.678508" lon="137.758854">
<ele>2461.375579</ele>
<time>2014-08-17T05:10:29Z</time>
<desc><![CDATA[lat.=36.678508, lon.=137.758854, Alt.=2461.375579m. Speed=0.000000m/h.]]></desc>
</trkpt>
<trkpt lat="36.678511" lon="137.758877">
<ele>2462.621234</ele>
<time>2014-08-17T05:10:34Z</time>
<desc><![CDATA[lat.=36.678511, lon.=137.758877, Alt.=2462.621234m. Speed=1.000000m/h.]]></desc>
</trkpt>
<trkpt lat="36.678522" lon="137.758870">
<ele>2462.624820</ele>
<time>2014-08-17T05:10:39Z</time>
<desc><![CDATA[lat.=36.678522, lon.=137.758870, Alt.=2462.624820m. Speed=1.000000m/h.]]></desc>
</trkpt>
<trkpt lat="36.678551" lon="137.758886">
<ele>2463.338503</ele>
<time>2014-08-17T05:10:44Z</time>
<desc><![CDATA[lat.=36.678551, lon.=137.758886, Alt.=2463.338503m. Speed=1.000000m/h.]]></desc>
</trkpt>
<trkpt lat="36.678576" lon="137.758894">
<ele>2466.321541</ele>
<time>2014-08-17T05:10:49Z</time>
<desc><![CDATA[lat.=36.678576, lon.=137.758894, Alt.=2466.321541m. Speed=2.000000m/h.]]></desc>
</trkpt>
<trkpt lat="36.678586" lon="137.758902">
<ele>2466.379721</ele>
<time>2014-08-17T05:10:54Z</time>
<desc><![CDATA[lat.=36.678586, lon.=137.758902, Alt.=2466.379721m. Speed=1.000000m/h.]]></desc>
</trkpt>
<trkpt lat="36.678578" lon="137.758933">
<ele>2467.621791</ele>
<time>2014-08-17T05:10:59Z</time>
<desc><![CDATA[lat.=36.678578, lon.=137.758933, Alt.=2467.621791m. Speed=0.000000m/h.]]></desc>
</trkpt>
<trkpt lat="36.678585" lon="137.758933">
<ele>2468.219116</ele>
<time>2014-08-17T05:11:04Z</time>
<desc><![CDATA[lat.=36.678585, lon.=137.758933, Alt.=2468.219116m. Speed=0.000000m/h.]]></desc>
</trkpt>
<trkpt lat="36.678581" lon="137.758957">
<ele>2467.137239</ele>
<time>2014-08-17T05:11:09Z</time>
<desc><![CDATA[lat.=36.678581, lon.=137.758957, Alt.=2467.137239m. Speed=1.000000m/h.]]></desc>
</trkpt>
<trkpt lat="36.678596" lon="137.758958">
<ele>2466.601682</ele>
<time>2014-08-17T05:11:14Z</time>
<desc><![CDATA[lat.=36.678596, lon.=137.758958, Alt.=2466.601682m. Speed=1.000000m/h.]]></desc>
</trkpt>
<trkpt lat="36.678625" lon="137.758942">
<ele>2468.936391</ele>
<time>2014-08-17T05:11:19Z</time>
<desc><![CDATA[lat.=36.678625, lon.=137.758942, Alt.=2468.936391m. Speed=1.000000m/h.]]></desc>
</trkpt>
<trkpt lat="36.678648" lon="137.758927">
<ele>2468.943568</ele>
<time>2014-08-17T05:11:24Z</time>
<desc><![CDATA[lat.=36.678648, lon.=137.758927, Alt.=2468.943568m. Speed=2.000000m/h.]]></desc>
</trkpt>
<trkpt lat="36.678651" lon="137.758919">
<ele>2470.080039</ele>
<time>2014-08-17T05:11:29Z</time>
<desc><![CDATA[lat.=36.678651, lon.=137.758919, Alt.=2470.080039m. Speed=0.000000m/h.]]></desc>
</trkpt>
<trkpt lat="36.678662" lon="137.758944">
<ele>2468.462606</ele>
<time>2014-08-17T05:11:34Z</time>
<desc><![CDATA[lat.=36.678662, lon.=137.758944, Alt.=2468.462606m. Speed=1.000000m/h.]]></desc>
</trkpt>
<trkpt lat="36.678655" lon="137.758959">
<ele>2467.919873</ele>
<time>2014-08-17T05:11:39Z</time>
<desc><![CDATA[lat.=36.678655, lon.=137.758959, Alt.=2467.919873m. Speed=1.000000m/h.]]></desc>
</trkpt>
<trkpt lat="36.678658" lon="137.758983">
<ele>2469.165531</ele>
<time>2014-08-17T05:11:44Z</time>
<desc><![CDATA[lat.=36.678658, lon.=137.758983, Alt.=2469.165531m. Speed=1.000000m/h.]]></desc>
</trkpt>
<trkpt lat="36.678690" lon="137.758975">
<ele>2470.961100</ele>
<time>2014-08-17T05:11:49Z</time>
<desc><![CDATA[lat.=36.678690, lon.=137.758975, Alt.=2470.961100m. Speed=1.000000m/h.]]></desc>
</trkpt>
<trkpt lat="36.678716" lon="137.758968">
<ele>2472.159343</ele>
<time>2014-08-17T05:11:54Z</time>
<desc><![CDATA[lat.=36.678716, lon.=137.758968, Alt.=2472.159343m. Speed=2.000000m/h.]]></desc>
</trkpt>
<trkpt lat="36.678719" lon="137.758959">
<ele>2475.026023</ele>
<time>2014-08-17T05:11:59Z</time>
<desc><![CDATA[lat.=36.678719, lon.=137.758959, Alt.=2475.026023m. Speed=1.000000m/h.]]></desc>
</trkpt>
<trkpt lat="36.678722" lon="137.758965">
<ele>2477.947296</ele>
<time>2014-08-17T05:12:04Z</time>
<desc><![CDATA[lat.=36.678722, lon.=137.758965, Alt.=2477.947296m. Speed=1.000000m/h.]]></desc>
</trkpt>
<trkpt lat="36.678715" lon="137.758981">
<ele>2477.404563</ele>
<time>2014-08-17T05:12:09Z</time>
<desc><![CDATA[lat.=36.678715, lon.=137.758981, Alt.=2477.404563m. Speed=1.000000m/h.]]></desc>
</trkpt>
<trkpt lat="36.678711" lon="137.759005">
<ele>2476.322687</ele>
<time>2014-08-17T05:12:14Z</time>
<desc><![CDATA[lat.=36.678711, lon.=137.759005, Alt.=2476.322687m. Speed=1.000000m/h.]]></desc>
</trkpt>
<trkpt lat="36.678733" lon="137.759006">
<ele>2476.384460</ele>
<time>2014-08-17T05:12:19Z</time>
<desc><![CDATA[lat.=36.678733, lon.=137.759006, Alt.=2476.384460m. Speed=1.000000m/h.]]></desc>
</trkpt>
<trkpt lat="36.678773" lon="137.758999">
<ele>2477.047153</ele>
<time>2014-08-17T05:12:24Z</time>
<desc><![CDATA[lat.=36.678773, lon.=137.758999, Alt.=2477.047153m. Speed=2.000000m/h.]]></desc>
</trkpt>
<trkpt lat="36.678784" lon="137.759008">
<ele>2477.105339</ele>
<time>2014-08-17T05:12:29Z</time>
<desc><![CDATA[lat.=36.678784, lon.=137.759008, Alt.=2477.105339m. Speed=1.000000m/h.]]></desc>
</trkpt>
<trkpt lat="36.678802" lon="137.759000">
<ele>2477.706258</ele>
<time>2014-08-17T05:12:34Z</time>
<desc><![CDATA[lat.=36.678802, lon.=137.759000, Alt.=2477.706258m. Speed=1.000000m/h.]]></desc>
</trkpt>
<trkpt lat="36.678799" lon="137.758992">
<ele>2478.245401</ele>
<time>2014-08-17T05:12:39Z</time>
<desc><![CDATA[lat.=36.678799, lon.=137.758992, Alt.=2478.245401m. Speed=0.000000m/h.]]></desc>
</trkpt>
<trkpt lat="36.678802" lon="137.759016">
<ele>2477.760853</ele>
<time>2014-08-17T05:12:44Z</time>
<desc><![CDATA[lat.=36.678802, lon.=137.759016, Alt.=2477.760853m. Speed=0.000000m/h.]]></desc>
</trkpt>
<trkpt lat="36.678824" lon="137.759017">
<ele>2477.822630</ele>
<time>2014-08-17T05:12:49Z</time>
<desc><![CDATA[lat.=36.678824, lon.=137.759017, Alt.=2477.822630m. Speed=0.000000m/h.]]></desc>
</trkpt>
<trkpt lat="36.678835" lon="137.759008">
<ele>2479.556430</ele>
<time>2014-08-17T05:12:54Z</time>
<desc><![CDATA[lat.=36.678835, lon.=137.759008, Alt.=2479.556430m. Speed=1.000000m/h.]]></desc>
</trkpt>
<trkpt lat="36.678861" lon="137.759017">
<ele>2479.079067</ele>
<time>2014-08-17T05:12:59Z</time>
<desc><![CDATA[lat.=36.678861, lon.=137.759017, Alt.=2479.079067m. Speed=1.000000m/h.]]></desc>
</trkpt>
<trkpt lat="36.678867" lon="137.759017">
<ele>2481.406605</ele>
<time>2014-08-17T05:13:04Z</time>
<desc><![CDATA[lat.=36.678867, lon.=137.759017, Alt.=2481.406605m. Speed=0.000000m/h.]]></desc>
</trkpt>
<trkpt lat="36.678871" lon="137.759009">
<ele>2480.812868</ele>
<time>2014-08-17T05:13:09Z</time>
<desc><![CDATA[lat.=36.678871, lon.=137.759009, Alt.=2480.812868m. Speed=0.000000m/h.]]></desc>
</trkpt>
<trkpt lat="36.678897" lon="137.759017">
<ele>2482.065715</ele>
<time>2014-08-17T05:13:14Z</time>
<desc><![CDATA[lat.=36.678897, lon.=137.759017, Alt.=2482.065715m. Speed=1.000000m/h.]]></desc>
</trkpt>
<trkpt lat="36.678904" lon="137.759017">
<ele>2482.663045</ele>
<time>2014-08-17T05:13:19Z</time>
<desc><![CDATA[lat.=36.678904, lon.=137.759017, Alt.=2482.663045m. Speed=0.000000m/h.]]></desc>
</trkpt>
<trkpt lat="36.678923" lon="137.759011">
<ele>2481.533760</ele>
<time>2014-08-17T05:13:24Z</time>
<desc><![CDATA[lat.=36.678923, lon.=137.759011, Alt.=2481.533760m. Speed=1.000000m/h.]]></desc>
</trkpt>
<trkpt lat="36.678930" lon="137.759010">
<ele>2483.861298</ele>
<time>2014-08-17T05:13:29Z</time>
<desc><![CDATA[lat.=36.678930, lon.=137.759010, Alt.=2483.861298m. Speed=0.000000m/h.]]></desc>
</trkpt>
<trkpt lat="36.678948" lon="137.759019">
<ele>2482.786609</ele>
<time>2014-08-17T05:13:34Z</time>
<desc><![CDATA[lat.=36.678948, lon.=137.759019, Alt.=2482.786609m. Speed=1.000000m/h.]]></desc>
</trkpt>
<trkpt lat="36.678977" lon="137.759019">
<ele>2485.175932</ele>
<time>2014-08-17T05:13:39Z</time>
<desc><![CDATA[lat.=36.678977, lon.=137.759019, Alt.=2485.175932m. Speed=2.000000m/h.]]></desc>
</trkpt>
<trkpt lat="36.679006" lon="137.759020">
<ele>2485.835048</ele>
<time>2014-08-17T05:13:44Z</time>
<desc><![CDATA[lat.=36.679006, lon.=137.759020, Alt.=2485.835048m. Speed=2.000000m/h.]]></desc>
</trkpt>
<trkpt lat="36.679009" lon="137.758994">
<ele>2490.377343</ele>
<time>2014-08-17T05:13:49Z</time>
<desc><![CDATA[lat.=36.679009, lon.=137.758994, Alt.=2490.377343m. Speed=2.000000m/h.]]></desc>
</trkpt>
<trkpt lat="36.679025" lon="137.758963">
<ele>2489.732610</ele>
<time>2014-08-17T05:13:54Z</time>
<desc><![CDATA[lat.=36.679025, lon.=137.758963, Alt.=2489.732610m. Speed=2.000000m/h.]]></desc>
</trkpt>
<trkpt lat="36.679029" lon="137.758956">
<ele>2489.138875</ele>
<time>2014-08-17T05:13:59Z</time>
<desc><![CDATA[lat.=36.679029, lon.=137.758956, Alt.=2489.138875m. Speed=0.000000m/h.]]></desc>
</trkpt>
<trkpt lat="36.679040" lon="137.758932">
<ele>2490.818087</ele>
<time>2014-08-17T05:14:04Z</time>
<desc><![CDATA[lat.=36.679040, lon.=137.758932, Alt.=2490.818087m. Speed=2.000000m/h.]]></desc>
</trkpt>
<trkpt lat="36.679063" lon="137.758917">
<ele>2490.825281</ele>
<time>2014-08-17T05:14:09Z</time>
<desc><![CDATA[lat.=36.679063, lon.=137.758917, Alt.=2490.825281m. Speed=2.000000m/h.]]></desc>
</trkpt>
<trkpt lat="36.679066" lon="137.758925">
<ele>2490.286140</ele>
<time>2014-08-17T05:14:14Z</time>
<desc><![CDATA[lat.=36.679066, lon.=137.758925, Alt.=2490.286140m. Speed=0.000000m/h.]]></desc>
</trkpt>
<trkpt lat="36.679073" lon="137.758941">
<ele>2489.207857</ele>
<time>2014-08-17T05:14:19Z</time>
<desc><![CDATA[lat.=36.679073, lon.=137.758941, Alt.=2489.207857m. Speed=1.000000m/h.]]></desc>
</trkpt>
<trkpt lat="36.679062" lon="137.758981">
<ele>2489.313446</ele>
<time>2014-08-17T05:14:24Z</time>
<desc><![CDATA[lat.=36.679062, lon.=137.758981, Alt.=2489.313446m. Speed=2.000000m/h.]]></desc>
</trkpt>
<trkpt lat="36.679094" lon="137.758990">
<ele>2489.433427</ele>
<time>2014-08-17T05:14:29Z</time>
<desc><![CDATA[lat.=36.679094, lon.=137.758990, Alt.=2489.433427m. Speed=1.000000m/h.]]></desc>
</trkpt>
<trkpt lat="36.679124" lon="137.758975">
<ele>2490.037956</ele>
<time>2014-08-17T05:14:34Z</time>
<desc><![CDATA[lat.=36.679124, lon.=137.758975, Alt.=2490.037956m. Speed=2.000000m/h.]]></desc>
</trkpt>
<trkpt lat="36.679158" lon="137.758969">
<ele>2488.373138</ele>
<time>2014-08-17T05:14:39Z</time>
<desc><![CDATA[lat.=36.679158, lon.=137.758969, Alt.=2488.373138m. Speed=2.000000m/h.]]></desc>
</trkpt>
<trkpt lat="36.679176" lon="137.758961">
<ele>2488.974071</ele>
<time>2014-08-17T05:14:44Z</time>
<desc><![CDATA[lat.=36.679176, lon.=137.758961, Alt.=2488.974071m. Speed=2.000000m/h.]]></desc>
</trkpt>
<trkpt lat="36.679190" lon="137.758977">
<ele>2490.223332</ele>
<time>2014-08-17T05:14:49Z</time>
<desc><![CDATA[lat.=36.679190, lon.=137.758977, Alt.=2490.223332m. Speed=2.000000m/h.]]></desc>
</trkpt>
<trkpt lat="36.679222" lon="137.759017">
<ele>2490.452509</ele>
<time>2014-08-17T05:14:54Z</time>
<desc><![CDATA[lat.=36.679222, lon.=137.759017, Alt.=2490.452509m. Speed=2.000000m/h.]]></desc>
</trkpt>
<trkpt lat="36.679228" lon="137.759063">
<ele>2494.674044</ele>
<time>2014-08-17T05:14:59Z</time>
<desc><![CDATA[lat.=36.679228, lon.=137.759063, Alt.=2494.674044m. Speed=2.000000m/h.]]></desc>
</trkpt>
<trkpt lat="36.679268" lon="137.759073">
<ele>2493.661163</ele>
<time>2014-08-17T05:15:04Z</time>
<desc><![CDATA[lat.=36.679268, lon.=137.759073, Alt.=2493.661163m. Speed=3.000000m/h.]]></desc>
</trkpt>
<trkpt lat="36.679298" lon="137.759091">
<ele>2490.914476</ele>
<time>2014-08-17T05:15:09Z</time>
<desc><![CDATA[lat.=36.679298, lon.=137.759091, Alt.=2490.914476m. Speed=2.000000m/h.]]></desc>
</trkpt>
<trkpt lat="36.679323" lon="137.759132">
<ele>2490.546330</ele>
<time>2014-08-17T05:15:14Z</time>
<desc><![CDATA[lat.=36.679323, lon.=137.759132, Alt.=2490.546330m. Speed=3.000000m/h.]]></desc>
</trkpt>
<trkpt lat="36.679363" lon="137.759157">
<ele>2491.318261</ele>
<time>2014-08-17T05:15:19Z</time>
<desc><![CDATA[lat.=36.679363, lon.=137.759157, Alt.=2491.318261m. Speed=2.000000m/h.]]></desc>
</trkpt>
<trkpt lat="36.679376" lon="137.759220">
<ele>2492.731326</ele>
<time>2014-08-17T05:15:24Z</time>
<desc><![CDATA[lat.=36.679376, lon.=137.759220, Alt.=2492.731326m. Speed=2.000000m/h.]]></desc>
</trkpt>
<trkpt lat="36.679410" lon="137.759231">
<ele>2487.660705</ele>
<time>2014-08-17T05:15:29Z</time>
<desc><![CDATA[lat.=36.679410, lon.=137.759231, Alt.=2487.660705m. Speed=2.000000m/h.]]></desc>
</trkpt>
<trkpt lat="36.679446" lon="137.759231">
<ele>2490.647392</ele>
<time>2014-08-17T05:15:34Z</time>
<desc><![CDATA[lat.=36.679446, lon.=137.759231, Alt.=2490.647392m. Speed=2.000000m/h.]]></desc>
</trkpt>
<trkpt lat="36.679483" lon="137.759233">
<ele>2490.173665</ele>
<time>2014-08-17T05:15:39Z</time>
<desc><![CDATA[lat.=36.679483, lon.=137.759233, Alt.=2490.173665m. Speed=2.000000m/h.]]></desc>
</trkpt>
<trkpt lat="36.679496" lon="137.759248">
<ele>2493.153147</ele>
<time>2014-08-17T05:15:44Z</time>
<desc><![CDATA[lat.=36.679496, lon.=137.759248, Alt.=2493.153147m. Speed=2.000000m/h.]]></desc>
</trkpt>
<trkpt lat="36.679522" lon="137.759241">
<ele>2492.621221</ele>
<time>2014-08-17T05:15:49Z</time>
<desc><![CDATA[lat.=36.679522, lon.=137.759241, Alt.=2492.621221m. Speed=2.000000m/h.]]></desc>
</trkpt>
<trkpt lat="36.679533" lon="137.759249">
<ele>2494.409632</ele>
<time>2014-08-17T05:15:54Z</time>
<desc><![CDATA[lat.=36.679533, lon.=137.759249, Alt.=2494.409632m. Speed=1.000000m/h.]]></desc>
</trkpt>
<trkpt lat="36.679548" lon="137.759249">
<ele>2493.874102</ele>
<time>2014-08-17T05:15:59Z</time>
<desc><![CDATA[lat.=36.679548, lon.=137.759249, Alt.=2493.874102m. Speed=2.000000m/h.]]></desc>
</trkpt>
<trkpt lat="36.679548" lon="137.759266">
<ele>2492.198494</ele>
<time>2014-08-17T05:16:04Z</time>
<desc><![CDATA[lat.=36.679548, lon.=137.759266, Alt.=2492.198494m. Speed=1.000000m/h.]]></desc>
</trkpt>
<trkpt lat="36.679547" lon="137.759281">
<ele>2493.983300</ele>
<time>2014-08-17T05:16:09Z</time>
<desc><![CDATA[lat.=36.679547, lon.=137.759281, Alt.=2493.983300m. Speed=1.000000m/h.]]></desc>
</trkpt>
<trkpt lat="36.679569" lon="137.759265">
<ele>2495.720718</ele>
<time>2014-08-17T05:16:14Z</time>
<desc><![CDATA[lat.=36.679569, lon.=137.759265, Alt.=2495.720718m. Speed=1.000000m/h.]]></desc>
</trkpt>
<trkpt lat="36.679587" lon="137.759258">
<ele>2496.321663</ele>
<time>2014-08-17T05:16:19Z</time>
<desc><![CDATA[lat.=36.679587, lon.=137.759258, Alt.=2496.321663m. Speed=2.000000m/h.]]></desc>
</trkpt>
<trkpt lat="36.679598" lon="137.759282">
<ele>2496.434468</ele>
<time>2014-08-17T05:16:24Z</time>
<desc><![CDATA[lat.=36.679598, lon.=137.759282, Alt.=2496.434468m. Speed=1.000000m/h.]]></desc>
</trkpt>
<trkpt lat="36.679605" lon="137.759281">
<ele>2498.762015</ele>
<time>2014-08-17T05:16:29Z</time>
<desc><![CDATA[lat.=36.679605, lon.=137.759281, Alt.=2498.762015m. Speed=1.000000m/h.]]></desc>
</trkpt>
<trkpt lat="36.679619" lon="137.759265">
<ele>2499.902095</ele>
<time>2014-08-17T05:16:34Z</time>
<desc><![CDATA[lat.=36.679619, lon.=137.759265, Alt.=2499.902095m. Speed=1.000000m/h.]]></desc>
</trkpt>
<trkpt lat="36.679634" lon="137.759249">
<ele>2502.772384</ele>
<time>2014-08-17T05:16:39Z</time>
<desc><![CDATA[lat.=36.679634, lon.=137.759249, Alt.=2502.772384m. Speed=1.000000m/h.]]></desc>
</trkpt>
<trkpt lat="36.679630" lon="137.759255">
<ele>2505.096324</ele>
<time>2014-08-17T05:16:44Z</time>
<desc><![CDATA[lat.=36.679630, lon.=137.759255, Alt.=2505.096324m. Speed=0.000000m/h.]]></desc>
</trkpt>
<trkpt lat="36.679626" lon="137.759264">
<ele>2503.959850</ele>
<time>2014-08-17T05:16:49Z</time>
<desc><![CDATA[lat.=36.679626, lon.=137.759264, Alt.=2503.959850m. Speed=0.000000m/h.]]></desc>
</trkpt>
<trkpt lat="36.679633" lon="137.759279">
<ele>2504.611789</ele>
<time>2014-08-17T05:16:54Z</time>
<desc><![CDATA[lat.=36.679633, lon.=137.759279, Alt.=2504.611789m. Speed=1.000000m/h.]]></desc>
</trkpt>
<trkpt lat="36.679632" lon="137.759295">
<ele>2504.666389</ele>
<time>2014-08-17T05:16:59Z</time>
<desc><![CDATA[lat.=36.679632, lon.=137.759295, Alt.=2504.666389m. Speed=1.000000m/h.]]></desc>
</trkpt>
<trkpt lat="36.679631" lon="137.759326">
<ele>2506.505797</ele>
<time>2014-08-17T05:17:04Z</time>
<desc><![CDATA[lat.=36.679631, lon.=137.759326, Alt.=2506.505797m. Speed=1.000000m/h.]]></desc>
</trkpt>
<trkpt lat="36.679649" lon="137.759334">
<ele>2507.161344</ele>
<time>2014-08-17T05:17:09Z</time>
<desc><![CDATA[lat.=36.679649, lon.=137.759334, Alt.=2507.161344m. Speed=0.000000m/h.]]></desc>
</trkpt>
<trkpt lat="36.679653" lon="137.759310">
<ele>2508.243217</ele>
<time>2014-08-17T05:17:14Z</time>
<desc><![CDATA[lat.=36.679653, lon.=137.759310, Alt.=2508.243217m. Speed=1.000000m/h.]]></desc>
</trkpt>
<trkpt lat="36.679661" lon="137.759295">
<ele>2507.055750</ele>
<time>2014-08-17T05:17:19Z</time>
<desc><![CDATA[lat.=36.679661, lon.=137.759295, Alt.=2507.055750m. Speed=0.000000m/h.]]></desc>
</trkpt>
<trkpt lat="36.679669" lon="137.759295">
<ele>2507.653091</ele>
<time>2014-08-17T05:17:25Z</time>
<desc><![CDATA[lat.=36.679669, lon.=137.759295, Alt.=2507.653091m. Speed=0.000000m/h.]]></desc>
</trkpt>
<trkpt lat="36.679679" lon="137.759303">
<ele>2509.441505</ele>
<time>2014-08-17T05:17:30Z</time>
<desc><![CDATA[lat.=36.679679, lon.=137.759303, Alt.=2509.441505m. Speed=0.000000m/h.]]></desc>
</trkpt>
<trkpt lat="36.679682" lon="137.759310">
<ele>2510.632579</ele>
<time>2014-08-17T05:17:35Z</time>
<desc><![CDATA[lat.=36.679682, lon.=137.759310, Alt.=2510.632579m. Speed=0.000000m/h.]]></desc>
</trkpt>
<trkpt lat="36.679704" lon="137.759326">
<ele>2512.479202</ele>
<time>2014-08-17T05:17:40Z</time>
<desc><![CDATA[lat.=36.679704, lon.=137.759326, Alt.=2512.479202m. Speed=1.000000m/h.]]></desc>
</trkpt>
<trkpt lat="36.679755" lon="137.759344">
<ele>2511.524571</ele>
<time>2014-08-17T05:17:45Z</time>
<desc><![CDATA[lat.=36.679755, lon.=137.759344, Alt.=2511.524571m. Speed=3.000000m/h.]]></desc>
</trkpt>
<trkpt lat="36.679773" lon="137.759369">
<ele>2510.504516</ele>
<time>2014-08-17T05:17:50Z</time>
<desc><![CDATA[lat.=36.679773, lon.=137.759369, Alt.=2510.504516m. Speed=3.000000m/h.]]></desc>
</trkpt>
<trkpt lat="36.679787" lon="137.759400">
<ele>2511.808403</ele>
<time>2014-08-17T05:17:55Z</time>
<desc><![CDATA[lat.=36.679787, lon.=137.759400, Alt.=2511.808403m. Speed=2.000000m/h.]]></desc>
</trkpt>
<trkpt lat="36.679812" lon="137.759410">
<ele>2511.331092</ele>
<time>2014-08-17T05:18:00Z</time>
<desc><![CDATA[lat.=36.679812, lon.=137.759410, Alt.=2511.331092m. Speed=2.000000m/h.]]></desc>
</trkpt>
<trkpt lat="36.679824" lon="137.759402">
<ele>2511.334701</ele>
<time>2014-08-17T05:18:05Z</time>
<desc><![CDATA[lat.=36.679824, lon.=137.759402, Alt.=2511.334701m. Speed=0.000000m/h.]]></desc>
</trkpt>
<trkpt lat="36.679823" lon="137.759401">
<ele>2513.064908</ele>
<time>2014-08-17T05:18:10Z</time>
<desc><![CDATA[lat.=36.679823, lon.=137.759401, Alt.=2513.064908m. Speed=0.000000m/h.]]></desc>
</trkpt>
<trkpt lat="36.679827" lon="137.759394">
<ele>2512.471175</ele>
<time>2014-08-17T05:18:15Z</time>
<desc><![CDATA[lat.=36.679827, lon.=137.759394, Alt.=2512.471175m. Speed=1.000000m/h.]]></desc>
</trkpt>
<trkpt lat="36.679852" lon="137.759402">
<ele>2513.724073</ele>
<time>2014-08-17T05:18:20Z</time>
<desc><![CDATA[lat.=36.679852, lon.=137.759402, Alt.=2513.724073m. Speed=2.000000m/h.]]></desc>
</trkpt>
<trkpt lat="36.679863" lon="137.759410">
<ele>2513.782285</ele>
<time>2014-08-17T05:18:25Z</time>
<desc><![CDATA[lat.=36.679863, lon.=137.759410, Alt.=2513.782285m. Speed=1.000000m/h.]]></desc>
</trkpt>
<trkpt lat="36.679874" lon="137.759402">
<ele>2515.516103</ele>
<time>2014-08-17T05:18:30Z</time>
<desc><![CDATA[lat.=36.679874, lon.=137.759402, Alt.=2515.516103m. Speed=1.000000m/h.]]></desc>
</trkpt>
<trkpt lat="36.679892" lon="137.759394">
<ele>2517.847265</ele>
<time>2014-08-17T05:18:35Z</time>
<desc><![CDATA[lat.=36.679892, lon.=137.759394, Alt.=2517.847265m. Speed=1.000000m/h.]]></desc>
</trkpt>
<trkpt lat="36.679910" lon="137.759385">
<ele>2520.178427</ele>
<time>2014-08-17T05:18:40Z</time>
<desc><![CDATA[lat.=36.679910, lon.=137.759385, Alt.=2520.178427m. Speed=1.000000m/h.]]></desc>
</trkpt>
<trkpt lat="36.679921" lon="137.759377">
<ele>2521.912247</ele>
<time>2014-08-17T05:18:45Z</time>
<desc><![CDATA[lat.=36.679921, lon.=137.759377, Alt.=2521.912247m. Speed=2.000000m/h.]]></desc>
</trkpt>
<trkpt lat="36.679936" lon="137.759378">
<ele>2521.376728</ele>
<time>2014-08-17T05:18:50Z</time>
<desc><![CDATA[lat.=36.679936, lon.=137.759378, Alt.=2521.376728m. Speed=0.000000m/h.]]></desc>
</trkpt>
<trkpt lat="36.679944" lon="137.759379">
<ele>2520.243865</ele>
<time>2014-08-17T05:18:55Z</time>
<desc><![CDATA[lat.=36.679944, lon.=137.759379, Alt.=2520.243865m. Speed=0.000000m/h.]]></desc>
</trkpt>
<trkpt lat="36.679947" lon="137.759370">
<ele>2521.380340</ele>
<time>2014-08-17T05:19:00Z</time>
<desc><![CDATA[lat.=36.679947, lon.=137.759370, Alt.=2521.380340m. Speed=0.000000m/h.]]></desc>
</trkpt>
<trkpt lat="36.679965" lon="137.759379">
<ele>2522.035899</ele>
<time>2014-08-17T05:19:05Z</time>
<desc><![CDATA[lat.=36.679965, lon.=137.759379, Alt.=2522.035899m. Speed=1.000000m/h.]]></desc>
</trkpt>
<trkpt lat="36.680009" lon="137.759413">
<ele>2520.538551</ele>
<time>2014-08-17T05:19:10Z</time>
<desc><![CDATA[lat.=36.680009, lon.=137.759413, Alt.=2520.538551m. Speed=2.000000m/h.]]></desc>
</trkpt>
<trkpt lat="36.680041" lon="137.759420">
<ele>2524.119010</ele>
<time>2014-08-17T05:19:15Z</time>
<desc><![CDATA[lat.=36.680041, lon.=137.759420, Alt.=2524.119010m. Speed=3.000000m/h.]]></desc>
</trkpt>
<trkpt lat="36.680077" lon="137.759470">
<ele>2522.078927</ele>
<time>2014-08-17T05:19:20Z</time>
<desc><![CDATA[lat.=36.680077, lon.=137.759470, Alt.=2522.078927m. Speed=3.000000m/h.]]></desc>
</trkpt>
<trkpt lat="36.680077" lon="137.759502">
<ele>2520.457926</ele>
<time>2014-08-17T05:19:25Z</time>
<desc><![CDATA[lat.=36.680077, lon.=137.759502, Alt.=2520.457926m. Speed=2.000000m/h.]]></desc>
</trkpt>
<trkpt lat="36.680076" lon="137.759518">
<ele>2520.512530</ele>
<time>2014-08-17T05:19:30Z</time>
<desc><![CDATA[lat.=36.680076, lon.=137.759518, Alt.=2520.512530m. Speed=2.000000m/h.]]></desc>
</trkpt>
<trkpt lat="36.680095" lon="137.759526">
<ele>2521.168094</ele>
<time>2014-08-17T05:19:35Z</time>
<desc><![CDATA[lat.=36.680095, lon.=137.759526, Alt.=2521.168094m. Speed=1.000000m/h.]]></desc>
</trkpt>
<trkpt lat="36.680131" lon="137.759511">
<ele>2522.370018</ele>
<time>2014-08-17T05:19:40Z</time>
<desc><![CDATA[lat.=36.680131, lon.=137.759511, Alt.=2522.370018m. Speed=2.000000m/h.]]></desc>
</trkpt>
<trkpt lat="36.680158" lon="137.759489">
<ele>2521.783518</ele>
<time>2014-08-17T05:19:45Z</time>
<desc><![CDATA[lat.=36.680158, lon.=137.759489, Alt.=2521.783518m. Speed=2.000000m/h.]]></desc>
</trkpt>
<trkpt lat="36.680175" lon="137.759480">
<ele>2525.844896</ele>
<time>2014-08-17T05:19:50Z</time>
<desc><![CDATA[lat.=36.680175, lon.=137.759480, Alt.=2525.844896m. Speed=2.000000m/h.]]></desc>
</trkpt>
<trkpt lat="36.680186" lon="137.759486">
<ele>2529.363529</ele>
<time>2014-08-17T05:19:55Z</time>
<desc><![CDATA[lat.=36.680186, lon.=137.759486, Alt.=2529.363529m. Speed=2.000000m/h.]]></desc>
</trkpt>
<trkpt lat="36.680189" lon="137.759527">
<ele>2527.203401</ele>
<time>2014-08-17T05:20:00Z</time>
<desc><![CDATA[lat.=36.680189, lon.=137.759527, Alt.=2527.203401m. Speed=2.000000m/h.]]></desc>
</trkpt>
<trkpt lat="36.680181" lon="137.759543">
<ele>2526.660658</ele>
<time>2014-08-17T05:20:05Z</time>
<desc><![CDATA[lat.=36.680181, lon.=137.759543, Alt.=2526.660658m. Speed=2.000000m/h.]]></desc>
</trkpt>
<trkpt lat="36.680162" lon="137.759582">
<ele>2526.168904</ele>
<time>2014-08-17T05:20:10Z</time>
<desc><![CDATA[lat.=36.680162, lon.=137.759582, Alt.=2526.168904m. Speed=2.000000m/h.]]></desc>
</trkpt>
<trkpt lat="36.680198" lon="137.759598">
<ele>2527.480041</ele>
<time>2014-08-17T05:20:15Z</time>
<desc><![CDATA[lat.=36.680198, lon.=137.759598, Alt.=2527.480041m. Speed=1.000000m/h.]]></desc>
</trkpt>
<trkpt lat="36.680217" lon="137.759574">
<ele>2529.756607</ele>
<time>2014-08-17T05:20:20Z</time>
<desc><![CDATA[lat.=36.680217, lon.=137.759574, Alt.=2529.756607m. Speed=2.000000m/h.]]></desc>
</trkpt>
<trkpt lat="36.680236" lon="137.759552">
<ele>2528.572761</ele>
<time>2014-08-17T05:20:25Z</time>
<desc><![CDATA[lat.=36.680236, lon.=137.759552, Alt.=2528.572761m. Speed=2.000000m/h.]]></desc>
</trkpt>
<trkpt lat="36.680269" lon="137.759529">
<ele>2528.583614</ele>
<time>2014-08-17T05:20:30Z</time>
<desc><![CDATA[lat.=36.680269, lon.=137.759529, Alt.=2528.583614m. Speed=2.000000m/h.]]></desc>
</trkpt>
<trkpt lat="36.680299" lon="137.759530">
<ele>2529.242804</ele>
<time>2014-08-17T05:20:35Z</time>
<desc><![CDATA[lat.=36.680299, lon.=137.759530, Alt.=2529.242804m. Speed=2.000000m/h.]]></desc>
</trkpt>
<trkpt lat="36.680309" lon="137.759521">
<ele>2532.706837</ele>
<time>2014-08-17T05:20:40Z</time>
<desc><![CDATA[lat.=36.680309, lon.=137.759521, Alt.=2532.706837m. Speed=1.000000m/h.]]></desc>
</trkpt>
<trkpt lat="36.680286" lon="137.759519">
<ele>2536.105409</ele>
<time>2014-08-17T05:20:45Z</time>
<desc><![CDATA[lat.=36.680286, lon.=137.759519, Alt.=2536.105409m. Speed=0.000000m/h.]]></desc>
</trkpt>
<trkpt lat="36.680290" lon="137.759528">
<ele>2533.836075</ele>
<time>2014-08-17T05:20:50Z</time>
<desc><![CDATA[lat.=36.680290, lon.=137.759528, Alt.=2533.836075m. Speed=0.000000m/h.]]></desc>
</trkpt>
<trkpt lat="36.680294" lon="137.759535">
<ele>2535.027155</ele>
<time>2014-08-17T05:20:55Z</time>
<desc><![CDATA[lat.=36.680294, lon.=137.759535, Alt.=2535.027155m. Speed=0.000000m/h.]]></desc>
</trkpt>
<trkpt lat="36.680286" lon="137.759535">
<ele>2534.429806</ele>
<time>2014-08-17T05:21:00Z</time>
<desc><![CDATA[lat.=36.680286, lon.=137.759535, Alt.=2534.429806m. Speed=0.000000m/h.]]></desc>
</trkpt>
<trkpt lat="36.680297" lon="137.759544">
<ele>2534.488028</ele>
<time>2014-08-17T05:21:05Z</time>
<desc><![CDATA[lat.=36.680297, lon.=137.759544, Alt.=2534.488028m. Speed=0.000000m/h.]]></desc>
</trkpt>
<trkpt lat="36.680300" lon="137.759551">
<ele>2535.679109</ele>
<time>2014-08-17T05:21:10Z</time>
<desc><![CDATA[lat.=36.680300, lon.=137.759551, Alt.=2535.679109m. Speed=0.000000m/h.]]></desc>
</trkpt>
<trkpt lat="36.680304" lon="137.759559">
<ele>2535.139982</ele>
<time>2014-08-17T05:21:16Z</time>
<desc><![CDATA[lat.=36.680304, lon.=137.759559, Alt.=2535.139982m. Speed=0.000000m/h.]]></desc>
</trkpt>
<trkpt lat="36.680311" lon="137.759559">
<ele>2535.737332</ele>
<time>2014-08-17T05:21:21Z</time>
<desc><![CDATA[lat.=36.680311, lon.=137.759559, Alt.=2535.737332m. Speed=0.000000m/h.]]></desc>
</trkpt>
<trkpt lat="36.680304" lon="137.759559">
<ele>2536.870189</ele>
<time>2014-08-17T05:21:26Z</time>
<desc><![CDATA[lat.=36.680304, lon.=137.759559, Alt.=2536.870189m. Speed=0.000000m/h.]]></desc>
</trkpt>
<trkpt lat="36.680311" lon="137.759559">
<ele>2537.467538</ele>
<time>2014-08-17T05:21:31Z</time>
<desc><![CDATA[lat.=36.680311, lon.=137.759559, Alt.=2537.467538m. Speed=0.000000m/h.]]></desc>
</trkpt>
<trkpt lat="36.680307" lon="137.759566">
<ele>2538.061269</ele>
<time>2014-08-17T05:21:36Z</time>
<desc><![CDATA[lat.=36.680307, lon.=137.759566, Alt.=2538.061269m. Speed=0.000000m/h.]]></desc>
</trkpt>
<trkpt lat="36.680311" lon="137.759574">
<ele>2537.522143</ele>
<time>2014-08-17T05:21:41Z</time>
<desc><![CDATA[lat.=36.680311, lon.=137.759574, Alt.=2537.522143m. Speed=0.000000m/h.]]></desc>
</trkpt>
<trkpt lat="36.680307" lon="137.759582">
<ele>2538.115874</ele>
<time>2014-08-17T05:21:49Z</time>
<desc><![CDATA[lat.=36.680307, lon.=137.759582, Alt.=2538.115874m. Speed=0.000000m/h.]]></desc>
</trkpt>
<trkpt lat="36.680310" lon="137.759590">
<ele>2537.576748</ele>
<time>2014-08-17T05:21:54Z</time>
<desc><![CDATA[lat.=36.680310, lon.=137.759590, Alt.=2537.576748m. Speed=0.000000m/h.]]></desc>
</trkpt>
<trkpt lat="36.680317" lon="137.759590">
<ele>2538.174098</ele>
<time>2014-08-17T05:21:59Z</time>
<desc><![CDATA[lat.=36.680317, lon.=137.759590, Alt.=2538.174098m. Speed=0.000000m/h.]]></desc>
</trkpt>
<trkpt lat="36.680321" lon="137.759598">
<ele>2539.365178</ele>
<time>2014-08-17T05:22:04Z</time>
<desc><![CDATA[lat.=36.680321, lon.=137.759598, Alt.=2539.365178m. Speed=0.000000m/h.]]></desc>
</trkpt>
<trkpt lat="36.680317" lon="137.759605">
<ele>2539.958909</ele>
<time>2014-08-17T05:22:16Z</time>
<desc><![CDATA[lat.=36.680317, lon.=137.759605, Alt.=2539.958909m. Speed=0.000000m/h.]]></desc>
</trkpt>
<trkpt lat="36.680302" lon="137.759621">
<ele>2538.818816</ele>
<time>2014-08-17T05:22:21Z</time>
<desc><![CDATA[lat.=36.680302, lon.=137.759621, Alt.=2538.818816m. Speed=1.000000m/h.]]></desc>
</trkpt>
<trkpt lat="36.680298" lon="137.759645">
<ele>2537.736947</ele>
<time>2014-08-17T05:22:26Z</time>
<desc><![CDATA[lat.=36.680298, lon.=137.759645, Alt.=2537.736947m. Speed=1.000000m/h.]]></desc>
</trkpt>
<trkpt lat="36.680297" lon="137.759692">
<ele>2537.900767</ele>
<time>2014-08-17T05:22:31Z</time>
<desc><![CDATA[lat.=36.680297, lon.=137.759692, Alt.=2537.900767m. Speed=1.000000m/h.]]></desc>
</trkpt>
<trkpt lat="36.680300" lon="137.759684">
<ele>2539.037241</ele>
<time>2014-08-17T05:22:36Z</time>
<desc><![CDATA[lat.=36.680300, lon.=137.759684, Alt.=2539.037241m. Speed=0.000000m/h.]]></desc>
</trkpt>
<trkpt lat="36.680308" lon="137.759684">
<ele>2539.634591</ele>
<time>2014-08-17T05:22:41Z</time>
<desc><![CDATA[lat.=36.680308, lon.=137.759684, Alt.=2539.634591m. Speed=0.000000m/h.]]></desc>
</trkpt>
<trkpt lat="36.680311" lon="137.759692">
<ele>2540.825672</ele>
<time>2014-08-17T05:22:46Z</time>
<desc><![CDATA[lat.=36.680311, lon.=137.759692, Alt.=2540.825672m. Speed=0.000000m/h.]]></desc>
</trkpt>
<trkpt lat="36.680315" lon="137.759684">
<ele>2540.231940</ele>
<time>2014-08-17T05:22:51Z</time>
<desc><![CDATA[lat.=36.680315, lon.=137.759684, Alt.=2540.231940m. Speed=0.000000m/h.]]></desc>
</trkpt>
<trkpt lat="36.680322" lon="137.759684">
<ele>2540.829290</ele>
<time>2014-08-17T05:22:56Z</time>
<desc><![CDATA[lat.=36.680322, lon.=137.759684, Alt.=2540.829290m. Speed=0.000000m/h.]]></desc>
</trkpt>
<trkpt lat="36.680333" lon="137.759677">
<ele>2540.832908</ele>
<time>2014-08-17T05:23:01Z</time>
<desc><![CDATA[lat.=36.680333, lon.=137.759677, Alt.=2540.832908m. Speed=2.000000m/h.]]></desc>
</trkpt>
<trkpt lat="36.680363" lon="137.759662">
<ele>2541.437495</ele>
<time>2014-08-17T05:23:06Z</time>
<desc><![CDATA[lat.=36.680363, lon.=137.759662, Alt.=2541.437495m. Speed=2.000000m/h.]]></desc>
</trkpt>
<trkpt lat="36.680378" lon="137.759646">
<ele>2542.577590</ele>
<time>2014-08-17T05:23:11Z</time>
<desc><![CDATA[lat.=36.680378, lon.=137.759646, Alt.=2542.577590m. Speed=1.000000m/h.]]></desc>
</trkpt>
<trkpt lat="36.680374" lon="137.759654">
<ele>2541.441114</ele>
<time>2014-08-17T05:23:16Z</time>
<desc><![CDATA[lat.=36.680374, lon.=137.759654, Alt.=2541.441114m. Speed=0.000000m/h.]]></desc>
</trkpt>
<trkpt lat="36.680381" lon="137.759654">
<ele>2542.038465</ele>
<time>2014-08-17T05:23:21Z</time>
<desc><![CDATA[lat.=36.680381, lon.=137.759654, Alt.=2542.038465m. Speed=0.000000m/h.]]></desc>
</trkpt>
<trkpt lat="36.680389" lon="137.759638">
<ele>2542.581209</ele>
<time>2014-08-17T05:23:26Z</time>
<desc><![CDATA[lat.=36.680389, lon.=137.759638, Alt.=2542.581209m. Speed=0.000000m/h.]]></desc>
</trkpt>
<trkpt lat="36.680396" lon="137.759638">
<ele>2543.178560</ele>
<time>2014-08-17T05:23:31Z</time>
<desc><![CDATA[lat.=36.680396, lon.=137.759638, Alt.=2543.178560m. Speed=0.000000m/h.]]></desc>
</trkpt>
<trkpt lat="36.680403" lon="137.759638">
<ele>2543.775911</ele>
<time>2014-08-17T05:23:36Z</time>
<desc><![CDATA[lat.=36.680403, lon.=137.759638, Alt.=2543.775911m. Speed=0.000000m/h.]]></desc>
</trkpt>
<trkpt lat="36.680411" lon="137.759622">
<ele>2546.048863</ele>
<time>2014-08-17T05:23:41Z</time>
<desc><![CDATA[lat.=36.680411, lon.=137.759622, Alt.=2546.048863m. Speed=0.000000m/h.]]></desc>
</trkpt>
<trkpt lat="36.680417" lon="137.759638">
<ele>2546.700819</ele>
<time>2014-08-17T05:23:46Z</time>
<desc><![CDATA[lat.=36.680417, lon.=137.759638, Alt.=2546.700819m. Speed=1.000000m/h.]]></desc>
</trkpt>
<trkpt lat="36.680417" lon="137.759653">
<ele>2546.755426</ele>
<time>2014-08-17T05:23:51Z</time>
<desc><![CDATA[lat.=36.680417, lon.=137.759653, Alt.=2546.755426m. Speed=0.000000m/h.]]></desc>
</trkpt>
<trkpt lat="36.680416" lon="137.759668">
<ele>2548.540238</ele>
<time>2014-08-17T05:23:56Z</time>
<desc><![CDATA[lat.=36.680416, lon.=137.759668, Alt.=2548.540238m. Speed=0.000000m/h.]]></desc>
</trkpt>
<trkpt lat="36.680423" lon="137.759684">
<ele>2549.192196</ele>
<time>2014-08-17T05:24:01Z</time>
<desc><![CDATA[lat.=36.680423, lon.=137.759684, Alt.=2549.192196m. Speed=1.000000m/h.]]></desc>
</trkpt>
<trkpt lat="36.680430" lon="137.759700">
<ele>2549.844155</ele>
<time>2014-08-17T05:24:06Z</time>
<desc><![CDATA[lat.=36.680430, lon.=137.759700, Alt.=2549.844155m. Speed=0.000000m/h.]]></desc>
</trkpt>
<trkpt lat="36.680437" lon="137.759700">
<ele>2550.441506</ele>
<time>2014-08-17T05:24:12Z</time>
<desc><![CDATA[lat.=36.680437, lon.=137.759700, Alt.=2550.441506m. Speed=0.000000m/h.]]></desc>
</trkpt>
<trkpt lat="36.680433" lon="137.759723">
<ele>2551.089845</ele>
<time>2014-08-17T05:24:17Z</time>
<desc><![CDATA[lat.=36.680433, lon.=137.759723, Alt.=2551.089845m. Speed=1.000000m/h.]]></desc>
</trkpt>
<trkpt lat="36.680440" lon="137.759739">
<ele>2551.741804</ele>
<time>2014-08-17T05:24:22Z</time>
<desc><![CDATA[lat.=36.680440, lon.=137.759739, Alt.=2551.741804m. Speed=1.000000m/h.]]></desc>
</trkpt>
<trkpt lat="36.680447" lon="137.759739">
<ele>2552.339155</ele>
<time>2014-08-17T05:24:27Z</time>
<desc><![CDATA[lat.=36.680447, lon.=137.759739, Alt.=2552.339155m. Speed=0.000000m/h.]]></desc>
</trkpt>
<trkpt lat="36.680458" lon="137.759747">
<ele>2552.397383</ele>
<time>2014-08-17T05:24:32Z</time>
<desc><![CDATA[lat.=36.680458, lon.=137.759747, Alt.=2552.397383m. Speed=0.000000m/h.]]></desc>
</trkpt>
<trkpt lat="36.680465" lon="137.759747">
<ele>2552.994735</ele>
<time>2014-08-17T05:24:37Z</time>
<desc><![CDATA[lat.=36.680465, lon.=137.759747, Alt.=2552.994735m. Speed=0.000000m/h.]]></desc>
</trkpt>
<trkpt lat="36.680480" lon="137.759748">
<ele>2552.459232</ele>
<time>2014-08-17T05:24:42Z</time>
<desc><![CDATA[lat.=36.680480, lon.=137.759748, Alt.=2552.459232m. Speed=0.000000m/h.]]></desc>
</trkpt>
<trkpt lat="36.680487" lon="137.759764">
<ele>2553.111192</ele>
<time>2014-08-17T05:24:50Z</time>
<desc><![CDATA[lat.=36.680487, lon.=137.759764, Alt.=2553.111192m. Speed=0.000000m/h.]]></desc>
</trkpt>
<trkpt lat="36.680491" lon="137.759756">
<ele>2552.517461</ele>
<time>2014-08-17T05:25:00Z</time>
<desc><![CDATA[lat.=36.680491, lon.=137.759756, Alt.=2552.517461m. Speed=0.000000m/h.]]></desc>
</trkpt>
<trkpt lat="36.680498" lon="137.759756">
<ele>2553.114813</ele>
<time>2014-08-17T05:25:05Z</time>
<desc><![CDATA[lat.=36.680498, lon.=137.759756, Alt.=2553.114813m. Speed=0.000000m/h.]]></desc>
</trkpt>
<trkpt lat="36.680513" lon="137.759757">
<ele>2552.579312</ele>
<time>2014-08-17T05:25:10Z</time>
<desc><![CDATA[lat.=36.680513, lon.=137.759757, Alt.=2552.579312m. Speed=0.000000m/h.]]></desc>
</trkpt>
<trkpt lat="36.680520" lon="137.759757">
<ele>2553.176664</ele>
<time>2014-08-17T05:25:16Z</time>
<desc><![CDATA[lat.=36.680520, lon.=137.759757, Alt.=2553.176664m. Speed=0.000000m/h.]]></desc>
</trkpt>
<trkpt lat="36.680516" lon="137.759765">
<ele>2553.770395</ele>
<time>2014-08-17T05:25:21Z</time>
<desc><![CDATA[lat.=36.680516, lon.=137.759765, Alt.=2553.770395m. Speed=0.000000m/h.]]></desc>
</trkpt>
<trkpt lat="36.680520" lon="137.759773">
<ele>2553.231272</ele>
<time>2014-08-17T05:25:26Z</time>
<desc><![CDATA[lat.=36.680520, lon.=137.759773, Alt.=2553.231272m. Speed=0.000000m/h.]]></desc>
</trkpt>
<trkpt lat="36.680512" lon="137.759773">
<ele>2552.633920</ele>
<time>2014-08-17T05:25:32Z</time>
<desc><![CDATA[lat.=36.680512, lon.=137.759773, Alt.=2552.633920m. Speed=0.000000m/h.]]></desc>
</trkpt>
<trkpt lat="36.680520" lon="137.759774">
<ele>2551.501066</ele>
<time>2014-08-17T05:25:37Z</time>
<desc><![CDATA[lat.=36.680520, lon.=137.759774, Alt.=2551.501066m. Speed=0.000000m/h.]]></desc>
</trkpt>
<trkpt lat="36.680527" lon="137.759774">
<ele>2552.098419</ele>
<time>2014-08-17T05:25:42Z</time>
<desc><![CDATA[lat.=36.680527, lon.=137.759774, Alt.=2552.098419m. Speed=0.000000m/h.]]></desc>
</trkpt>
<trkpt lat="36.680531" lon="137.759782">
<ele>2551.559296</ele>
<time>2014-08-17T05:25:58Z</time>
<desc><![CDATA[lat.=36.680531, lon.=137.759782, Alt.=2551.559296m. Speed=0.000000m/h.]]></desc>
</trkpt>
<trkpt lat="36.680538" lon="137.759782">
<ele>2552.156649</ele>
<time>2014-08-17T05:26:06Z</time>
<desc><![CDATA[lat.=36.680538, lon.=137.759782, Alt.=2552.156649m. Speed=0.000000m/h.]]></desc>
</trkpt>
<trkpt lat="36.680531" lon="137.759782">
<ele>2551.559296</ele>
<time>2014-08-17T05:26:11Z</time>
<desc><![CDATA[lat.=36.680531, lon.=137.759782, Alt.=2551.559296m. Speed=0.000000m/h.]]></desc>
</trkpt>
<trkpt lat="36.680542" lon="137.759774">
<ele>2551.562918</ele>
<time>2014-08-17T05:26:16Z</time>
<desc><![CDATA[lat.=36.680542, lon.=137.759774, Alt.=2551.562918m. Speed=0.000000m/h.]]></desc>
</trkpt>
<trkpt lat="36.680546" lon="137.759783">
<ele>2551.023795</ele>
<time>2014-08-17T05:26:21Z</time>
<desc><![CDATA[lat.=36.680546, lon.=137.759783, Alt.=2551.023795m. Speed=0.000000m/h.]]></desc>
</trkpt>
<trkpt lat="36.680550" lon="137.759775">
<ele>2550.430064</ele>
<time>2014-08-17T05:26:26Z</time>
<desc><![CDATA[lat.=36.680550, lon.=137.759775, Alt.=2550.430064m. Speed=0.000000m/h.]]></desc>
</trkpt>
<trkpt lat="36.680561" lon="137.759784">
<ele>2550.488295</ele>
<time>2014-08-17T05:26:35Z</time>
<desc><![CDATA[lat.=36.680561, lon.=137.759784, Alt.=2550.488295m. Speed=0.000000m/h.]]></desc>
</trkpt>
<trkpt lat="36.680561" lon="137.759768">
<ele>2550.433686</ele>
<time>2014-08-17T05:26:40Z</time>
<desc><![CDATA[lat.=36.680561, lon.=137.759768, Alt.=2550.433686m. Speed=0.000000m/h.]]></desc>
</trkpt>
<trkpt lat="36.680565" lon="137.759776">
<ele>2549.894564</ele>
<time>2014-08-17T05:26:45Z</time>
<desc><![CDATA[lat.=36.680565, lon.=137.759776, Alt.=2549.894564m. Speed=0.000000m/h.]]></desc>
</trkpt>
<trkpt lat="36.680568" lon="137.759768">
<ele>2549.300833</ele>
<time>2014-08-17T05:26:50Z</time>
<desc><![CDATA[lat.=36.680568, lon.=137.759768, Alt.=2549.300833m. Speed=0.000000m/h.]]></desc>
</trkpt>
<trkpt lat="36.680601" lon="137.759778">
<ele>2549.420918</ele>
<time>2014-08-17T05:26:55Z</time>
<desc><![CDATA[lat.=36.680601, lon.=137.759778, Alt.=2549.420918m. Speed=2.000000m/h.]]></desc>
</trkpt>
<trkpt lat="36.680653" lon="137.759763">
<ele>2550.087375</ele>
<time>2014-08-17T05:27:00Z</time>
<desc><![CDATA[lat.=36.680653, lon.=137.759763, Alt.=2550.087375m. Speed=2.000000m/h.]]></desc>
</trkpt>
<trkpt lat="36.680679" lon="137.759740">
<ele>2551.231101</ele>
<time>2014-08-17T05:27:05Z</time>
<desc><![CDATA[lat.=36.680679, lon.=137.759740, Alt.=2551.231101m. Speed=2.000000m/h.]]></desc>
</trkpt>
<trkpt lat="36.680690" lon="137.759748">
<ele>2551.289334</ele>
<time>2014-08-17T05:27:10Z</time>
<desc><![CDATA[lat.=36.680690, lon.=137.759748, Alt.=2551.289334m. Speed=0.000000m/h.]]></desc>
</trkpt>
<trkpt lat="36.680686" lon="137.759740">
<ele>2551.828456</ele>
<time>2014-08-17T05:27:15Z</time>
<desc><![CDATA[lat.=36.680686, lon.=137.759740, Alt.=2551.828456m. Speed=0.000000m/h.]]></desc>
</trkpt>
<trkpt lat="36.680694" lon="137.759740">
<ele>2552.425811</ele>
<time>2014-08-17T05:27:20Z</time>
<desc><![CDATA[lat.=36.680694, lon.=137.759740, Alt.=2552.425811m. Speed=0.000000m/h.]]></desc>
</trkpt>
<trkpt lat="36.680690" lon="137.759747">
<ele>2553.019540</ele>
<time>2014-08-17T05:27:38Z</time>
<desc><![CDATA[lat.=36.680690, lon.=137.759747, Alt.=2553.019540m. Speed=0.000000m/h.]]></desc>
</trkpt>
<trkpt lat="36.680686" lon="137.759739">
<ele>2553.558662</ele>
<time>2014-08-17T05:27:59Z</time>
<desc><![CDATA[lat.=36.680686, lon.=137.759739, Alt.=2553.558662m. Speed=0.000000m/h.]]></desc>
</trkpt>
<trkpt lat="36.680694" lon="137.759723">
<ele>2554.101410</ele>
<time>2014-08-17T05:28:04Z</time>
<desc><![CDATA[lat.=36.680694, lon.=137.759723, Alt.=2554.101410m. Speed=0.000000m/h.]]></desc>
</trkpt>
<trkpt lat="36.680690" lon="137.759715">
<ele>2554.640532</ele>
<time>2014-08-17T05:28:09Z</time>
<desc><![CDATA[lat.=36.680690, lon.=137.759715, Alt.=2554.640532m. Speed=0.000000m/h.]]></desc>
</trkpt>
<trkpt lat="36.680694" lon="137.759708">
<ele>2554.046802</ele>
<time>2014-08-17T05:28:14Z</time>
<desc><![CDATA[lat.=36.680694, lon.=137.759708, Alt.=2554.046802m. Speed=0.000000m/h.]]></desc>
</trkpt>
<trkpt lat="36.680709" lon="137.759693">
<ele>2553.456699</ele>
<time>2014-08-17T05:28:19Z</time>
<desc><![CDATA[lat.=36.680709, lon.=137.759693, Alt.=2553.456699m. Speed=0.000000m/h.]]></desc>
</trkpt>
<trkpt lat="36.680720" lon="137.759685">
<ele>2553.460325</ele>
<time>2014-08-17T05:28:24Z</time>
<desc><![CDATA[lat.=36.680720, lon.=137.759685, Alt.=2553.460325m. Speed=0.000000m/h.]]></desc>
</trkpt>
<trkpt lat="36.680728" lon="137.759685">
<ele>2554.057681</ele>
<time>2014-08-17T05:28:29Z</time>
<desc><![CDATA[lat.=36.680728, lon.=137.759685, Alt.=2554.057681m. Speed=0.000000m/h.]]></desc>
</trkpt>
<trkpt lat="36.680724" lon="137.759693">
<ele>2552.921203</ele>
<time>2014-08-17T05:28:34Z</time>
<desc><![CDATA[lat.=36.680724, lon.=137.759693, Alt.=2552.921203m. Speed=0.000000m/h.]]></desc>
</trkpt>
<trkpt lat="36.680731" lon="137.759693">
<ele>2553.518559</ele>
<time>2014-08-17T05:28:39Z</time>
<desc><![CDATA[lat.=36.680731, lon.=137.759693, Alt.=2553.518559m. Speed=0.000000m/h.]]></desc>
</trkpt>
<trkpt lat="36.680727" lon="137.759701">
<ele>2554.112288</ele>
<time>2014-08-17T05:28:45Z</time>
<desc><![CDATA[lat.=36.680727, lon.=137.759701, Alt.=2554.112288m. Speed=0.000000m/h.]]></desc>
</trkpt>
<trkpt lat="36.680724" lon="137.759693">
<ele>2554.651410</ele>
<time>2014-08-17T05:28:50Z</time>
<desc><![CDATA[lat.=36.680724, lon.=137.759693, Alt.=2554.651410m. Speed=0.000000m/h.]]></desc>
</trkpt>
<trkpt lat="36.680731" lon="137.759693">
<ele>2555.248765</ele>
<time>2014-08-17T05:28:56Z</time>
<desc><![CDATA[lat.=36.680731, lon.=137.759693, Alt.=2555.248765m. Speed=0.000000m/h.]]></desc>
</trkpt>
<trkpt lat="36.680738" lon="137.759677">
<ele>2555.791514</ele>
<time>2014-08-17T05:29:01Z</time>
<desc><![CDATA[lat.=36.680738, lon.=137.759677, Alt.=2555.791514m. Speed=1.000000m/h.]]></desc>
</trkpt>
<trkpt lat="36.680742" lon="137.759668">
<ele>2556.927992</ele>
<time>2014-08-17T05:29:06Z</time>
<desc><![CDATA[lat.=36.680742, lon.=137.759668, Alt.=2556.927992m. Speed=0.000000m/h.]]></desc>
</trkpt>
<trkpt lat="36.680757" lon="137.759653">
<ele>2558.068097</ele>
<time>2014-08-17T05:29:11Z</time>
<desc><![CDATA[lat.=36.680757, lon.=137.759653, Alt.=2558.068097m. Speed=1.000000m/h.]]></desc>
</trkpt>
<trkpt lat="36.680764" lon="137.759653">
<ele>2558.665453</ele>
<time>2014-08-17T05:29:18Z</time>
<desc><![CDATA[lat.=36.680764, lon.=137.759653, Alt.=2558.665453m. Speed=0.000000m/h.]]></desc>
</trkpt>
<trkpt lat="36.680768" lon="137.759645">
<ele>2558.071725</ele>
<time>2014-08-17T05:29:23Z</time>
<desc><![CDATA[lat.=36.680768, lon.=137.759645, Alt.=2558.071725m. Speed=0.000000m/h.]]></desc>
</trkpt>
<trkpt lat="36.680779" lon="137.759638">
<ele>2558.075353</ele>
<time>2014-08-17T05:29:28Z</time>
<desc><![CDATA[lat.=36.680779, lon.=137.759638, Alt.=2558.075353m. Speed=0.000000m/h.]]></desc>
</trkpt>
<trkpt lat="36.680798" lon="137.759630">
<ele>2558.676337</ele>
<time>2014-08-17T05:29:33Z</time>
<desc><![CDATA[lat.=36.680798, lon.=137.759630, Alt.=2558.676337m. Speed=0.000000m/h.]]></desc>
</trkpt>
<trkpt lat="36.680805" lon="137.759630">
<ele>2559.273694</ele>
<time>2014-08-17T05:29:38Z</time>
<desc><![CDATA[lat.=36.680805, lon.=137.759630, Alt.=2559.273694m. Speed=0.000000m/h.]]></desc>
</trkpt>
<trkpt lat="36.680827" lon="137.759647">
<ele>2559.390163</ele>
<time>2014-08-17T05:29:43Z</time>
<desc><![CDATA[lat.=36.680827, lon.=137.759647, Alt.=2559.390163m. Speed=1.000000m/h.]]></desc>
</trkpt>
<trkpt lat="36.680833" lon="137.759662">
<ele>2560.042126</ele>
<time>2014-08-17T05:29:48Z</time>
<desc><![CDATA[lat.=36.680833, lon.=137.759662, Alt.=2560.042126m. Speed=1.000000m/h.]]></desc>
</trkpt>
<trkpt lat="36.680829" lon="137.759670">
<ele>2560.635854</ele>
<time>2014-08-17T05:29:53Z</time>
<desc><![CDATA[lat.=36.680829, lon.=137.759670, Alt.=2560.635854m. Speed=0.000000m/h.]]></desc>
</trkpt>
<trkpt lat="36.680833" lon="137.759678">
<ele>2560.096732</ele>
<time>2014-08-17T05:29:58Z</time>
<desc><![CDATA[lat.=36.680833, lon.=137.759678, Alt.=2560.096732m. Speed=0.000000m/h.]]></desc>
</trkpt>
<trkpt lat="36.680840" lon="137.759678">
<ele>2560.694089</ele>
<time>2014-08-17T05:30:03Z</time>
<desc><![CDATA[lat.=36.680840, lon.=137.759678, Alt.=2560.694089m. Speed=0.000000m/h.]]></desc>
</trkpt>
<trkpt lat="36.680848" lon="137.759662">
<ele>2561.236840</ele>
<time>2014-08-17T05:30:08Z</time>
<desc><![CDATA[lat.=36.680848, lon.=137.759662, Alt.=2561.236840m. Speed=0.000000m/h.]]></desc>
</trkpt>
<trkpt lat="36.680851" lon="137.759670">
<ele>2562.427925</ele>
<time>2014-08-17T05:30:13Z</time>
<desc><![CDATA[lat.=36.680851, lon.=137.759670, Alt.=2562.427925m. Speed=0.000000m/h.]]></desc>
</trkpt>
<trkpt lat="36.680855" lon="137.759662">
<ele>2561.834197</ele>
<time>2014-08-17T05:30:18Z</time>
<desc><![CDATA[lat.=36.680855, lon.=137.759662, Alt.=2561.834197m. Speed=0.000000m/h.]]></desc>
</trkpt>
<trkpt lat="36.680859" lon="137.759654">
<ele>2562.970676</ele>
<time>2014-08-17T05:30:23Z</time>
<desc><![CDATA[lat.=36.680859, lon.=137.759654, Alt.=2562.970676m. Speed=0.000000m/h.]]></desc>
</trkpt>
<trkpt lat="36.680866" lon="137.759654">
<ele>2563.568033</ele>
<time>2014-08-17T05:30:28Z</time>
<desc><![CDATA[lat.=36.680866, lon.=137.759654, Alt.=2563.568033m. Speed=0.000000m/h.]]></desc>
</trkpt>
<trkpt lat="36.680862" lon="137.759662">
<ele>2564.161761</ele>
<time>2014-08-17T05:30:33Z</time>
<desc><![CDATA[lat.=36.680862, lon.=137.759662, Alt.=2564.161761m. Speed=0.000000m/h.]]></desc>
</trkpt>
<trkpt lat="36.680869" lon="137.759646">
<ele>2564.704512</ele>
<time>2014-08-17T05:30:38Z</time>
<desc><![CDATA[lat.=36.680869, lon.=137.759646, Alt.=2564.704512m. Speed=0.000000m/h.]]></desc>
</trkpt>
<trkpt lat="36.680877" lon="137.759646">
<ele>2565.301870</ele>
<time>2014-08-17T05:30:43Z</time>
<desc><![CDATA[lat.=36.680877, lon.=137.759646, Alt.=2565.301870m. Speed=0.000000m/h.]]></desc>
</trkpt>
<trkpt lat="36.680880" lon="137.759638">
<ele>2566.438349</ele>
<time>2014-08-17T05:30:48Z</time>
<desc><![CDATA[lat.=36.680880, lon.=137.759638, Alt.=2566.438349m. Speed=0.000000m/h.]]></desc>
</trkpt>
<trkpt lat="36.680877" lon="137.759629">
<ele>2566.977470</ele>
<time>2014-08-17T05:30:56Z</time>
<desc><![CDATA[lat.=36.680877, lon.=137.759629, Alt.=2566.977470m. Speed=0.000000m/h.]]></desc>
</trkpt>
<trkpt lat="36.680884" lon="137.759629">
<ele>2567.574828</ele>
<time>2014-08-17T05:31:01Z</time>
<desc><![CDATA[lat.=36.680884, lon.=137.759629, Alt.=2567.574828m. Speed=0.000000m/h.]]></desc>
</trkpt>
<trkpt lat="36.680903" lon="137.759606">
<ele>2568.121211</ele>
<time>2014-08-17T05:31:06Z</time>
<desc><![CDATA[lat.=36.680903, lon.=137.759606, Alt.=2568.121211m. Speed=2.000000m/h.]]></desc>
</trkpt>
<trkpt lat="36.680929" lon="137.759583">
<ele>2569.264954</ele>
<time>2014-08-17T05:31:11Z</time>
<desc><![CDATA[lat.=36.680929, lon.=137.759583, Alt.=2569.264954m. Speed=1.000000m/h.]]></desc>
</trkpt>
<trkpt lat="36.680940" lon="137.759576">
<ele>2567.538380</ele>
<time>2014-08-17T05:31:16Z</time>
<desc><![CDATA[lat.=36.680940, lon.=137.759576, Alt.=2567.538380m. Speed=1.000000m/h.]]></desc>
</trkpt>
<trkpt lat="36.680967" lon="137.759553">
<ele>2566.951920</ele>
<time>2014-08-17T05:31:21Z</time>
<desc><![CDATA[lat.=36.680967, lon.=137.759553, Alt.=2566.951920m. Speed=2.000000m/h.]]></desc>
</trkpt>
<trkpt lat="36.680996" lon="137.759554">
<ele>2567.611149</ele>
<time>2014-08-17T05:31:26Z</time>
<desc><![CDATA[lat.=36.680996, lon.=137.759554, Alt.=2567.611149m. Speed=2.000000m/h.]]></desc>
</trkpt>
<trkpt lat="36.680991" lon="137.759593">
<ele>2568.314083</ele>
<time>2014-08-17T05:31:31Z</time>
<desc><![CDATA[lat.=36.680991, lon.=137.759593, Alt.=2568.314083m. Speed=1.000000m/h.]]></desc>
</trkpt>
<trkpt lat="36.680984" lon="137.759593">
<ele>2569.446931</ele>
<time>2014-08-17T05:31:36Z</time>
<desc><![CDATA[lat.=36.680984, lon.=137.759593, Alt.=2569.446931m. Speed=0.000000m/h.]]></desc>
</trkpt>
<trkpt lat="36.680980" lon="137.759600">
<ele>2570.040657</ele>
<time>2014-08-17T05:31:41Z</time>
<desc><![CDATA[lat.=36.680980, lon.=137.759600, Alt.=2570.040657m. Speed=1.000000m/h.]]></desc>
</trkpt>
<trkpt lat="36.680979" lon="137.759616">
<ele>2570.095262</ele>
<time>2014-08-17T05:31:46Z</time>
<desc><![CDATA[lat.=36.680979, lon.=137.759616, Alt.=2570.095262m. Speed=0.000000m/h.]]></desc>
</trkpt>
<trkpt lat="36.680983" lon="137.759624">
<ele>2569.556141</ele>
<time>2014-08-17T05:31:51Z</time>
<desc><![CDATA[lat.=36.680983, lon.=137.759624, Alt.=2569.556141m. Speed=0.000000m/h.]]></desc>
</trkpt>
<trkpt lat="36.680979" lon="137.759616">
<ele>2570.095262</ele>
<time>2014-08-17T05:31:56Z</time>
<desc><![CDATA[lat.=36.680979, lon.=137.759616, Alt.=2570.095262m. Speed=0.000000m/h.]]></desc>
</trkpt>
<trkpt lat="36.680987" lon="137.759616">
<ele>2570.692621</ele>
<time>2014-08-17T05:32:01Z</time>
<desc><![CDATA[lat.=36.680987, lon.=137.759616, Alt.=2570.692621m. Speed=0.000000m/h.]]></desc>
</trkpt>
<trkpt lat="36.681005" lon="137.759608">
<ele>2571.293613</ele>
<time>2014-08-17T05:32:06Z</time>
<desc><![CDATA[lat.=36.681005, lon.=137.759608, Alt.=2571.293613m. Speed=1.000000m/h.]]></desc>
</trkpt>
<trkpt lat="36.681027" lon="137.759608">
<ele>2573.085691</ele>
<time>2014-08-17T05:32:11Z</time>
<desc><![CDATA[lat.=36.681027, lon.=137.759608, Alt.=2573.085691m. Speed=1.000000m/h.]]></desc>
</trkpt>
<trkpt lat="36.681034" lon="137.759624">
<ele>2573.737656</ele>
<time>2014-08-17T05:32:16Z</time>
<desc><![CDATA[lat.=36.681034, lon.=137.759624, Alt.=2573.737656m. Speed=0.000000m/h.]]></desc>
</trkpt>
<trkpt lat="36.681030" lon="137.759616">
<ele>2574.276777</ele>
<time>2014-08-17T05:32:21Z</time>
<desc><![CDATA[lat.=36.681030, lon.=137.759616, Alt.=2574.276777m. Speed=0.000000m/h.]]></desc>
</trkpt>
<trkpt lat="36.681037" lon="137.759616">
<ele>2574.874136</ele>
<time>2014-08-17T05:32:26Z</time>
<desc><![CDATA[lat.=36.681037, lon.=137.759616, Alt.=2574.874136m. Speed=0.000000m/h.]]></desc>
</trkpt>
<trkpt lat="36.681045" lon="137.759600">
<ele>2575.416891</ele>
<time>2014-08-17T05:32:31Z</time>
<desc><![CDATA[lat.=36.681045, lon.=137.759600, Alt.=2575.416891m. Speed=0.000000m/h.]]></desc>
</trkpt>
<trkpt lat="36.681052" lon="137.759584">
<ele>2575.959647</ele>
<time>2014-08-17T05:32:36Z</time>
<desc><![CDATA[lat.=36.681052, lon.=137.759584, Alt.=2575.959647m. Speed=1.000000m/h.]]></desc>
</trkpt>
<trkpt lat="36.681060" lon="137.759568">
<ele>2576.502402</ele>
<time>2014-08-17T05:32:41Z</time>
<desc><![CDATA[lat.=36.681060, lon.=137.759568, Alt.=2576.502402m. Speed=0.000000m/h.]]></desc>
</trkpt>
<trkpt lat="36.681067" lon="137.759568">
<ele>2577.099762</ele>
<time>2014-08-17T05:32:47Z</time>
<desc><![CDATA[lat.=36.681067, lon.=137.759568, Alt.=2577.099762m. Speed=0.000000m/h.]]></desc>
</trkpt>
<trkpt lat="36.681090" lon="137.759553">
<ele>2577.107033</ele>
<time>2014-08-17T05:32:52Z</time>
<desc><![CDATA[lat.=36.681090, lon.=137.759553, Alt.=2577.107033m. Speed=2.000000m/h.]]></desc>
</trkpt>
<trkpt lat="36.681108" lon="137.759546">
<ele>2577.708030</ele>
<time>2014-08-17T05:32:57Z</time>
<desc><![CDATA[lat.=36.681108, lon.=137.759546, Alt.=2577.708030m. Speed=2.000000m/h.]]></desc>
</trkpt>
<trkpt lat="36.681101" lon="137.759562">
<ele>2575.435067</ele>
<time>2014-08-17T05:33:02Z</time>
<desc><![CDATA[lat.=36.681101, lon.=137.759562, Alt.=2575.435067m. Speed=0.000000m/h.]]></desc>
</trkpt>
<trkpt lat="36.681108" lon="137.759563">
<ele>2574.302221</ele>
<time>2014-08-17T05:33:07Z</time>
<desc><![CDATA[lat.=36.681108, lon.=137.759563, Alt.=2574.302221m. Speed=0.000000m/h.]]></desc>
</trkpt>
<trkpt lat="36.681116" lon="137.759547">
<ele>2576.575184</ele>
<time>2014-08-17T05:33:12Z</time>
<desc><![CDATA[lat.=36.681116, lon.=137.759547, Alt.=2576.575184m. Speed=0.000000m/h.]]></desc>
</trkpt>
<trkpt lat="36.681126" lon="137.759555">
<ele>2576.633425</ele>
<time>2014-08-17T05:33:17Z</time>
<desc><![CDATA[lat.=36.681126, lon.=137.759555, Alt.=2576.633425m. Speed=2.000000m/h.]]></desc>
</trkpt>
<trkpt lat="36.681151" lon="137.759562">
<ele>2579.616594</ele>
<time>2014-08-17T05:33:22Z</time>
<desc><![CDATA[lat.=36.681151, lon.=137.759562, Alt.=2579.616594m. Speed=2.000000m/h.]]></desc>
</trkpt>
<trkpt lat="36.681177" lon="137.759555">
<ele>2580.814954</ele>
<time>2014-08-17T05:33:27Z</time>
<desc><![CDATA[lat.=36.681177, lon.=137.759555, Alt.=2580.814954m. Speed=2.000000m/h.]]></desc>
</trkpt>
<trkpt lat="36.681177" lon="137.759554">
<ele>2582.545160</ele>
<time>2014-08-17T05:33:32Z</time>
<desc><![CDATA[lat.=36.681177, lon.=137.759554, Alt.=2582.545160m. Speed=0.000000m/h.]]></desc>
</trkpt>
<trkpt lat="36.681184" lon="137.759554">
<ele>2583.142522</ele>
<time>2014-08-17T05:33:37Z</time>
<desc><![CDATA[lat.=36.681184, lon.=137.759554, Alt.=2583.142522m. Speed=0.000000m/h.]]></desc>
</trkpt>
<trkpt lat="36.681202" lon="137.759562">
<ele>2583.798126</ele>
<time>2014-08-17T05:33:42Z</time>
<desc><![CDATA[lat.=36.681202, lon.=137.759562, Alt.=2583.798126m. Speed=0.000000m/h.]]></desc>
</trkpt>
<trkpt lat="36.681202" lon="137.759578">
<ele>2583.852730</ele>
<time>2014-08-17T05:33:47Z</time>
<desc><![CDATA[lat.=36.681202, lon.=137.759578, Alt.=2583.852730m. Speed=0.000000m/h.]]></desc>
</trkpt>
<trkpt lat="36.681209" lon="137.759595">
<ele>2582.774490</ele>
<time>2014-08-17T05:33:52Z</time>
<desc><![CDATA[lat.=36.681209, lon.=137.759595, Alt.=2582.774490m. Speed=0.000000m/h.]]></desc>
</trkpt>
<trkpt lat="36.681212" lon="137.759603">
<ele>2582.235371</ele>
<time>2014-08-17T05:33:57Z</time>
<desc><![CDATA[lat.=36.681212, lon.=137.759603, Alt.=2582.235371m. Speed=0.000000m/h.]]></desc>
</trkpt>
<trkpt lat="36.681220" lon="137.759603">
<ele>2582.832733</ele>
<time>2014-08-17T05:34:02Z</time>
<desc><![CDATA[lat.=36.681220, lon.=137.759603, Alt.=2582.832733m. Speed=0.000000m/h.]]></desc>
</trkpt>
<trkpt lat="36.681226" lon="137.759619">
<ele>2583.484700</ele>
<time>2014-08-17T05:34:07Z</time>
<desc><![CDATA[lat.=36.681226, lon.=137.759619, Alt.=2583.484700m. Speed=0.000000m/h.]]></desc>
</trkpt>
<trkpt lat="36.681234" lon="137.759619">
<ele>2584.082063</ele>
<time>2014-08-17T05:34:13Z</time>
<desc><![CDATA[lat.=36.681234, lon.=137.759619, Alt.=2584.082063m. Speed=0.000000m/h.]]></desc>
</trkpt>
<trkpt lat="36.681248" lon="137.759619">
<ele>2585.276788</ele>
<time>2014-08-17T05:34:18Z</time>
<desc><![CDATA[lat.=36.681248, lon.=137.759619, Alt.=2585.276788m. Speed=1.000000m/h.]]></desc>
</trkpt>
<trkpt lat="36.681259" lon="137.759627">
<ele>2585.335032</ele>
<time>2014-08-17T05:34:23Z</time>
<desc><![CDATA[lat.=36.681259, lon.=137.759627, Alt.=2585.335032m. Speed=1.000000m/h.]]></desc>
</trkpt>
<trkpt lat="36.681270" lon="137.759619">
<ele>2587.068876</ele>
<time>2014-08-17T05:34:28Z</time>
<desc><![CDATA[lat.=36.681270, lon.=137.759619, Alt.=2587.068876m. Speed=1.000000m/h.]]></desc>
</trkpt>
<trkpt lat="36.681277" lon="137.759619">
<ele>2587.666239</ele>
<time>2014-08-17T05:34:34Z</time>
<desc><![CDATA[lat.=36.681277, lon.=137.759619, Alt.=2587.666239m. Speed=0.000000m/h.]]></desc>
</trkpt>
<trkpt lat="36.681281" lon="137.759627">
<ele>2587.127121</ele>
<time>2014-08-17T05:34:39Z</time>
<desc><![CDATA[lat.=36.681281, lon.=137.759627, Alt.=2587.127121m. Speed=0.000000m/h.]]></desc>
</trkpt>
<trkpt lat="36.681284" lon="137.759619">
<ele>2588.263603</ele>
<time>2014-08-17T05:34:44Z</time>
<desc><![CDATA[lat.=36.681284, lon.=137.759619, Alt.=2588.263603m. Speed=0.000000m/h.]]></desc>
</trkpt>
<trkpt lat="36.681280" lon="137.759610">
<ele>2590.532928</ele>
<time>2014-08-17T05:34:49Z</time>
<desc><![CDATA[lat.=36.681280, lon.=137.759610, Alt.=2590.532928m. Speed=0.000000m/h.]]></desc>
</trkpt>
<trkpt lat="36.681287" lon="137.759610">
<ele>2591.130291</ele>
<time>2014-08-17T05:34:54Z</time>
<desc><![CDATA[lat.=36.681287, lon.=137.759610, Alt.=2591.130291m. Speed=0.000000m/h.]]></desc>
</trkpt>
<trkpt lat="36.681287" lon="137.759609">
<ele>2592.860497</ele>
<time>2014-08-17T05:34:59Z</time>
<desc><![CDATA[lat.=36.681287, lon.=137.759609, Alt.=2592.860497m. Speed=0.000000m/h.]]></desc>
</trkpt>
<trkpt lat="36.681294" lon="137.759609">
<ele>2593.457860</ele>
<time>2014-08-17T05:35:04Z</time>
<desc><![CDATA[lat.=36.681294, lon.=137.759609, Alt.=2593.457860m. Speed=0.000000m/h.]]></desc>
</trkpt>
<trkpt lat="36.681302" lon="137.759609">
<ele>2594.055223</ele>
<time>2014-08-17T05:35:09Z</time>
<desc><![CDATA[lat.=36.681302, lon.=137.759609, Alt.=2594.055223m. Speed=0.000000m/h.]]></desc>
</trkpt>
<trkpt lat="36.681309" lon="137.759609">
<ele>2594.652587</ele>
<time>2014-08-17T05:35:14Z</time>
<desc><![CDATA[lat.=36.681309, lon.=137.759609, Alt.=2594.652587m. Speed=0.000000m/h.]]></desc>
</trkpt>
<trkpt lat="36.681316" lon="137.759609">
<ele>2595.249950</ele>
<time>2014-08-17T05:35:19Z</time>
<desc><![CDATA[lat.=36.681316, lon.=137.759609, Alt.=2595.249950m. Speed=1.000000m/h.]]></desc>
</trkpt>
<trkpt lat="36.681341" lon="137.759633">
<ele>2596.557528</ele>
<time>2014-08-17T05:35:24Z</time>
<desc><![CDATA[lat.=36.681341, lon.=137.759633, Alt.=2596.557528m. Speed=1.000000m/h.]]></desc>
</trkpt>
<trkpt lat="36.681351" lon="137.759641">
<ele>2598.345980</ele>
<time>2014-08-17T05:35:29Z</time>
<desc><![CDATA[lat.=36.681351, lon.=137.759641, Alt.=2598.345980m. Speed=1.000000m/h.]]></desc>
</trkpt>
<trkpt lat="36.681376" lon="137.759665">
<ele>2599.653561</ele>
<time>2014-08-17T05:35:34Z</time>
<desc><![CDATA[lat.=36.681376, lon.=137.759665, Alt.=2599.653561m. Speed=2.000000m/h.]]></desc>
</trkpt>
<trkpt lat="36.681402" lon="137.759690">
<ele>2599.230937</ele>
<time>2014-08-17T05:35:39Z</time>
<desc><![CDATA[lat.=36.681402, lon.=137.759690, Alt.=2599.230937m. Speed=2.000000m/h.]]></desc>
</trkpt>
<trkpt lat="36.681405" lon="137.759697">
<ele>2600.422026</ele>
<time>2014-08-17T05:35:44Z</time>
<desc><![CDATA[lat.=36.681405, lon.=137.759697, Alt.=2600.422026m. Speed=0.000000m/h.]]></desc>
</trkpt>
<trkpt lat="36.681408" lon="137.759689">
<ele>2601.558508</ele>
<time>2014-08-17T05:35:50Z</time>
<desc><![CDATA[lat.=36.681408, lon.=137.759689, Alt.=2601.558508m. Speed=1.000000m/h.]]></desc>
</trkpt>
<trkpt lat="36.681405" lon="137.759681">
<ele>2602.097625</ele>
<time>2014-08-17T05:35:59Z</time>
<desc><![CDATA[lat.=36.681405, lon.=137.759681, Alt.=2602.097625m. Speed=0.000000m/h.]]></desc>
</trkpt>
<trkpt lat="36.681412" lon="137.759681">
<ele>2600.964785</ele>
<time>2014-08-17T05:36:05Z</time>
<desc><![CDATA[lat.=36.681412, lon.=137.759681, Alt.=2600.964785m. Speed=0.000000m/h.]]></desc>
</trkpt>
<trkpt lat="36.681412" lon="137.759681">
<ele>2602.694990</ele>
<time>2014-08-17T05:36:10Z</time>
<desc><![CDATA[lat.=36.681412, lon.=137.759681, Alt.=2602.694990m. Speed=0.000000m/h.]]></desc>
</trkpt>
<trkpt lat="36.681408" lon="137.759672">
<ele>2603.234108</ele>
<time>2014-08-17T05:36:17Z</time>
<desc><![CDATA[lat.=36.681408, lon.=137.759672, Alt.=2603.234108m. Speed=0.000000m/h.]]></desc>
</trkpt>
<trkpt lat="36.681401" lon="137.759672">
<ele>2604.366949</ele>
<time>2014-08-17T05:36:22Z</time>
<desc><![CDATA[lat.=36.681401, lon.=137.759672, Alt.=2604.366949m. Speed=1.000000m/h.]]></desc>
</trkpt>
<trkpt lat="36.681386" lon="137.759654">
<ele>2606.578025</ele>
<time>2014-08-17T05:36:27Z</time>
<desc><![CDATA[lat.=36.681386, lon.=137.759654, Alt.=2606.578025m. Speed=1.000000m/h.]]></desc>
</trkpt>
<trkpt lat="36.681375" lon="137.759646">
<ele>2606.519778</ele>
<time>2014-08-17T05:36:32Z</time>
<desc><![CDATA[lat.=36.681375, lon.=137.759646, Alt.=2606.519778m. Speed=1.000000m/h.]]></desc>
</trkpt>
<trkpt lat="36.681368" lon="137.759629">
<ele>2607.598015</ele>
<time>2014-08-17T05:36:37Z</time>
<desc><![CDATA[lat.=36.681368, lon.=137.759629, Alt.=2607.598015m. Speed=1.000000m/h.]]></desc>
</trkpt>
<trkpt lat="36.681365" lon="137.759605">
<ele>2608.082528</ele>
<time>2014-08-17T05:36:42Z</time>
<desc><![CDATA[lat.=36.681365, lon.=137.759605, Alt.=2608.082528m. Speed=1.000000m/h.]]></desc>
</trkpt>
<trkpt lat="36.681372" lon="137.759606">
<ele>2606.949687</ele>
<time>2014-08-17T05:36:47Z</time>
<desc><![CDATA[lat.=36.681372, lon.=137.759606, Alt.=2606.949687m. Speed=0.000000m/h.]]></desc>
</trkpt>
<trkpt lat="36.681380" lon="137.759590">
<ele>2607.492447</ele>
<time>2014-08-17T05:36:52Z</time>
<desc><![CDATA[lat.=36.681380, lon.=137.759590, Alt.=2607.492447m. Speed=0.000000m/h.]]></desc>
</trkpt>
<trkpt lat="36.681395" lon="137.759576">
<ele>2605.172160</ele>
<time>2014-08-17T05:36:57Z</time>
<desc><![CDATA[lat.=36.681395, lon.=137.759576, Alt.=2605.172160m. Speed=0.000000m/h.]]></desc>
</trkpt>
<trkpt lat="36.681400" lon="137.759569">
<ele>2602.848231</ele>
<time>2014-08-17T05:37:02Z</time>
<desc><![CDATA[lat.=36.681400, lon.=137.759569, Alt.=2602.848231m. Speed=0.000000m/h.]]></desc>
</trkpt>
<trkpt lat="36.681415" lon="137.759570">
<ele>2602.312755</ele>
<time>2014-08-17T05:37:07Z</time>
<desc><![CDATA[lat.=36.681415, lon.=137.759570, Alt.=2602.312755m. Speed=1.000000m/h.]]></desc>
</trkpt>
<trkpt lat="36.681422" lon="137.759570">
<ele>2602.910121</ele>
<time>2014-08-17T05:37:12Z</time>
<desc><![CDATA[lat.=36.681422, lon.=137.759570, Alt.=2602.910121m. Speed=1.000000m/h.]]></desc>
</trkpt>
<trkpt lat="36.681436" lon="137.759570">
<ele>2604.104851</ele>
<time>2014-08-17T05:37:17Z</time>
<desc><![CDATA[lat.=36.681436, lon.=137.759570, Alt.=2604.104851m. Speed=1.000000m/h.]]></desc>
</trkpt>
<trkpt lat="36.681459" lon="137.759555">
<ele>2604.112138</ele>
<time>2014-08-17T05:37:22Z</time>
<desc><![CDATA[lat.=36.681459, lon.=137.759555, Alt.=2604.112138m. Speed=2.000000m/h.]]></desc>
</trkpt>
<trkpt lat="36.681474" lon="137.759540">
<ele>2603.522060</ele>
<time>2014-08-17T05:37:27Z</time>
<desc><![CDATA[lat.=36.681474, lon.=137.759540, Alt.=2603.522060m. Speed=2.000000m/h.]]></desc>
</trkpt>
<trkpt lat="36.681493" lon="137.759517">
<ele>2604.068468</ele>
<time>2014-08-17T05:37:32Z</time>
<desc><![CDATA[lat.=36.681493, lon.=137.759517, Alt.=2604.068468m. Speed=2.000000m/h.]]></desc>
</trkpt>
<trkpt lat="36.681526" lon="137.759493">
<ele>2605.809609</ele>
<time>2014-08-17T05:37:37Z</time>
<desc><![CDATA[lat.=36.681526, lon.=137.759493, Alt.=2605.809609m. Speed=2.000000m/h.]]></desc>
</trkpt>
<trkpt lat="36.681549" lon="137.759479">
<ele>2604.086696</ele>
<time>2014-08-17T05:37:42Z</time>
<desc><![CDATA[lat.=36.681549, lon.=137.759479, Alt.=2604.086696m. Speed=2.000000m/h.]]></desc>
</trkpt>
<trkpt lat="36.681575" lon="137.759441">
<ele>2603.445668</ele>
<time>2014-08-17T05:37:47Z</time>
<desc><![CDATA[lat.=36.681575, lon.=137.759441, Alt.=2603.445668m. Speed=3.000000m/h.]]></desc>
</trkpt>
<trkpt lat="36.681602" lon="137.759402">
<ele>2602.804643</ele>
<time>2014-08-17T05:37:52Z</time>
<desc><![CDATA[lat.=36.681602, lon.=137.759402, Alt.=2602.804643m. Speed=3.000000m/h.]]></desc>
</trkpt>
<trkpt lat="36.681636" lon="137.759347">
<ele>2604.436596</ele>
<time>2014-08-17T05:37:57Z</time>
<desc><![CDATA[lat.=36.681636, lon.=137.759347, Alt.=2604.436596m. Speed=3.000000m/h.]]></desc>
</trkpt>
<trkpt lat="36.681659" lon="137.759317">
<ele>2604.389297</ele>
<time>2014-08-17T05:38:02Z</time>
<desc><![CDATA[lat.=36.681659, lon.=137.759317, Alt.=2604.389297m. Speed=3.000000m/h.]]></desc>
</trkpt>
<trkpt lat="36.681667" lon="137.759285">
<ele>2604.877468</ele>
<time>2014-08-17T05:38:07Z</time>
<desc><![CDATA[lat.=36.681667, lon.=137.759285, Alt.=2604.877468m. Speed=3.000000m/h.]]></desc>
</trkpt>
<trkpt lat="36.681668" lon="137.759253">
<ele>2604.768273</ele>
<time>2014-08-17T05:38:12Z</time>
<desc><![CDATA[lat.=36.681668, lon.=137.759253, Alt.=2604.768273m. Speed=2.000000m/h.]]></desc>
</trkpt>
<trkpt lat="36.681672" lon="137.759213">
<ele>2605.795568</ele>
<time>2014-08-17T05:38:17Z</time>
<desc><![CDATA[lat.=36.681672, lon.=137.759213, Alt.=2605.795568m. Speed=2.000000m/h.]]></desc>
</trkpt>
<trkpt lat="36.681691" lon="137.759191">
<ele>2604.611786</ele>
<time>2014-08-17T05:38:22Z</time>
<desc><![CDATA[lat.=36.681691, lon.=137.759191, Alt.=2604.611786m. Speed=2.000000m/h.]]></desc>
</trkpt>
<trkpt lat="36.681696" lon="137.759152">
<ele>2603.908878</ele>
<time>2014-08-17T05:38:27Z</time>
<desc><![CDATA[lat.=36.681696, lon.=137.759152, Alt.=2603.908878m. Speed=2.000000m/h.]]></desc>
</trkpt>
<trkpt lat="36.681715" lon="137.759129">
<ele>2602.725098</ele>
<time>2014-08-17T05:38:32Z</time>
<desc><![CDATA[lat.=36.681715, lon.=137.759129, Alt.=2602.725098m. Speed=2.000000m/h.]]></desc>
</trkpt>
<trkpt lat="36.681727" lon="137.759106">
<ele>2602.674157</ele>
<time>2014-08-17T05:38:37Z</time>
<desc><![CDATA[lat.=36.681727, lon.=137.759106, Alt.=2602.674157m. Speed=2.000000m/h.]]></desc>
</trkpt>
<trkpt lat="36.681701" lon="137.759081">
<ele>2603.096783</ele>
<time>2014-08-17T05:38:42Z</time>
<desc><![CDATA[lat.=36.681701, lon.=137.759081, Alt.=2603.096783m. Speed=2.000000m/h.]]></desc>
</trkpt>
<trkpt lat="36.681739" lon="137.759068">
<ele>2599.108211</ele>
<time>2014-08-17T05:38:47Z</time>
<desc><![CDATA[lat.=36.681739, lon.=137.759068, Alt.=2599.108211m. Speed=2.000000m/h.]]></desc>
</trkpt>
<trkpt lat="36.681765" lon="137.759078">
<ele>2596.900787</ele>
<time>2014-08-17T05:38:52Z</time>
<desc><![CDATA[lat.=36.681765, lon.=137.759078, Alt.=2596.900787m. Speed=2.000000m/h.]]></desc>
</trkpt>
<trkpt lat="36.681766" lon="137.759062">
<ele>2596.846193</ele>
<time>2014-08-17T05:38:57Z</time>
<desc><![CDATA[lat.=36.681766, lon.=137.759062, Alt.=2596.846193m. Speed=0.000000m/h.]]></desc>
</trkpt>
<trkpt lat="36.681752" lon="137.759030">
<ele>2597.272473</ele>
<time>2014-08-17T05:39:02Z</time>
<desc><![CDATA[lat.=36.681752, lon.=137.759030, Alt.=2597.272473m. Speed=1.000000m/h.]]></desc>
</trkpt>
<trkpt lat="36.681770" lon="137.759022">
<ele>2597.873498</ele>
<time>2014-08-17T05:39:07Z</time>
<desc><![CDATA[lat.=36.681770, lon.=137.759022, Alt.=2597.873498m. Speed=1.000000m/h.]]></desc>
</trkpt>
<trkpt lat="36.681789" lon="137.759016">
<ele>2596.744318</ele>
<time>2014-08-17T05:39:12Z</time>
<desc><![CDATA[lat.=36.681789, lon.=137.759016, Alt.=2596.744318m. Speed=1.000000m/h.]]></desc>
</trkpt>
<trkpt lat="36.681789" lon="137.759016">
<ele>2595.014111</ele>
<time>2014-08-17T05:39:17Z</time>
<desc><![CDATA[lat.=36.681789, lon.=137.759016, Alt.=2595.014111m. Speed=1.000000m/h.]]></desc>
</trkpt>
<trkpt lat="36.681782" lon="137.759001">
<ele>2594.362149</ele>
<time>2014-08-17T05:39:22Z</time>
<desc><![CDATA[lat.=36.681782, lon.=137.759001, Alt.=2594.362149m. Speed=1.000000m/h.]]></desc>
</trkpt>
<trkpt lat="36.681768" lon="137.758984">
<ele>2594.843022</ele>
<time>2014-08-17T05:39:27Z</time>
<desc><![CDATA[lat.=36.681768, lon.=137.758984, Alt.=2594.843022m. Speed=2.000000m/h.]]></desc>
</trkpt>
<trkpt lat="36.681743" lon="137.758959">
<ele>2595.265650</ele>
<time>2014-08-17T05:39:32Z</time>
<desc><![CDATA[lat.=36.681743, lon.=137.758959, Alt.=2595.265650m. Speed=2.000000m/h.]]></desc>
</trkpt>
<trkpt lat="36.681724" lon="137.758934">
<ele>2598.015855</ele>
<time>2014-08-17T05:39:37Z</time>
<desc><![CDATA[lat.=36.681724, lon.=137.758934, Alt.=2598.015855m. Speed=2.000000m/h.]]></desc>
</trkpt>
<trkpt lat="36.681729" lon="137.758927">
<ele>2595.691934</ele>
<time>2014-08-17T05:39:42Z</time>
<desc><![CDATA[lat.=36.681729, lon.=137.758927, Alt.=2595.691934m. Speed=0.000000m/h.]]></desc>
</trkpt>
<trkpt lat="36.681741" lon="137.758921">
<ele>2592.235177</ele>
<time>2014-08-17T05:39:47Z</time>
<desc><![CDATA[lat.=36.681741, lon.=137.758921, Alt.=2592.235177m. Speed=1.000000m/h.]]></desc>
</trkpt>
<trkpt lat="36.681756" lon="137.758922">
<ele>2589.969504</ele>
<time>2014-08-17T05:39:52Z</time>
<desc><![CDATA[lat.=36.681756, lon.=137.758922, Alt.=2589.969504m. Speed=1.000000m/h.]]></desc>
</trkpt>
<trkpt lat="36.681761" lon="137.758933">
<ele>2584.239763</ele>
<time>2014-08-17T05:39:57Z</time>
<desc><![CDATA[lat.=36.681761, lon.=137.758933, Alt.=2584.239763m. Speed=0.000000m/h.]]></desc>
</trkpt>
<trkpt lat="36.681779" lon="137.758926">
<ele>2584.840789</ele>
<time>2014-08-17T05:40:02Z</time>
<desc><![CDATA[lat.=36.681779, lon.=137.758926, Alt.=2584.840789m. Speed=1.000000m/h.]]></desc>
</trkpt>
<trkpt lat="36.681779" lon="137.758909">
<ele>2586.516405</ele>
<time>2014-08-17T05:40:07Z</time>
<desc><![CDATA[lat.=36.681779, lon.=137.758909, Alt.=2586.516405m. Speed=0.000000m/h.]]></desc>
</trkpt>
<trkpt lat="36.681785" lon="137.758941">
<ele>2587.222957</ele>
<time>2014-08-17T05:40:12Z</time>
<desc><![CDATA[lat.=36.681785, lon.=137.758941, Alt.=2587.222957m. Speed=0.000000m/h.]]></desc>
</trkpt>
<trkpt lat="36.681782" lon="137.758932">
<ele>2587.762079</ele>
<time>2014-08-17T05:40:17Z</time>
<desc><![CDATA[lat.=36.681782, lon.=137.758932, Alt.=2587.762079m. Speed=0.000000m/h.]]></desc>
</trkpt>
<trkpt lat="36.681800" lon="137.758925">
<ele>2588.363106</ele>
<time>2014-08-17T05:40:22Z</time>
<desc><![CDATA[lat.=36.681800, lon.=137.758925, Alt.=2588.363106m. Speed=1.000000m/h.]]></desc>
</trkpt>
<trkpt lat="36.681811" lon="137.758950">
<ele>2586.745739</ele>
<time>2014-08-17T05:40:27Z</time>
<desc><![CDATA[lat.=36.681811, lon.=137.758950, Alt.=2586.745739m. Speed=1.000000m/h.]]></desc>
</trkpt>
<trkpt lat="36.681818" lon="137.758933">
<ele>2589.018725</ele>
<time>2014-08-17T05:40:32Z</time>
<desc><![CDATA[lat.=36.681818, lon.=137.758933, Alt.=2589.018725m. Speed=0.000000m/h.]]></desc>
</trkpt>
<trkpt lat="36.681819" lon="137.758917">
<ele>2588.964134</ele>
<time>2014-08-17T05:40:37Z</time>
<desc><![CDATA[lat.=36.681819, lon.=137.758917, Alt.=2588.964134m. Speed=0.000000m/h.]]></desc>
</trkpt>
<trkpt lat="36.681818" lon="137.758933">
<ele>2589.018725</ele>
<time>2014-08-17T05:40:42Z</time>
<desc><![CDATA[lat.=36.681818, lon.=137.758933, Alt.=2589.018725m. Speed=0.000000m/h.]]></desc>
</trkpt>
<trkpt lat="36.681834" lon="137.758935">
<ele>2586.753054</ele>
<time>2014-08-17T05:40:47Z</time>
<desc><![CDATA[lat.=36.681834, lon.=137.758935, Alt.=2586.753054m. Speed=0.000000m/h.]]></desc>
</trkpt>
<trkpt lat="36.681830" lon="137.758943">
<ele>2585.616561</ele>
<time>2014-08-17T05:40:52Z</time>
<desc><![CDATA[lat.=36.681830, lon.=137.758943, Alt.=2585.616561m. Speed=0.000000m/h.]]></desc>
</trkpt>
<trkpt lat="36.681837" lon="137.758943">
<ele>2586.213932</ele>
<time>2014-08-17T05:40:58Z</time>
<desc><![CDATA[lat.=36.681837, lon.=137.758943, Alt.=2586.213932m. Speed=0.000000m/h.]]></desc>
</trkpt>
<trkpt lat="36.681834" lon="137.758951">
<ele>2585.077439</ele>
<time>2014-08-17T05:41:04Z</time>
<desc><![CDATA[lat.=36.681834, lon.=137.758951, Alt.=2585.077439m. Speed=0.000000m/h.]]></desc>
</trkpt>
<trkpt lat="36.681837" lon="137.758959">
<ele>2584.538317</ele>
<time>2014-08-17T05:41:29Z</time>
<desc><![CDATA[lat.=36.681837, lon.=137.758959, Alt.=2584.538317m. Speed=0.000000m/h.]]></desc>
</trkpt>
<trkpt lat="36.681841" lon="137.758968">
<ele>2583.999195</ele>
<time>2014-08-17T05:41:43Z</time>
<desc><![CDATA[lat.=36.681841, lon.=137.758968, Alt.=2583.999195m. Speed=0.000000m/h.]]></desc>
</trkpt>
<trkpt lat="36.681863" lon="137.758968">
<ele>2584.061103</ele>
<time>2014-08-17T05:41:48Z</time>
<desc><![CDATA[lat.=36.681863, lon.=137.758968, Alt.=2584.061103m. Speed=0.000000m/h.]]></desc>
</trkpt>
<trkpt lat="36.681888" lon="137.758993">
<ele>2583.638482</ele>
<time>2014-08-17T05:41:53Z</time>
<desc><![CDATA[lat.=36.681888, lon.=137.758993, Alt.=2583.638482m. Speed=1.000000m/h.]]></desc>
</trkpt>
<trkpt lat="36.681906" lon="137.759017">
<ele>2584.348697</ele>
<time>2014-08-17T05:41:58Z</time>
<desc><![CDATA[lat.=36.681906, lon.=137.759017, Alt.=2584.348697m. Speed=2.000000m/h.]]></desc>
</trkpt>
<trkpt lat="36.681943" lon="137.759035">
<ele>2582.199532</ele>
<time>2014-08-17T05:42:03Z</time>
<desc><![CDATA[lat.=36.681943, lon.=137.759035, Alt.=2582.199532m. Speed=2.000000m/h.]]></desc>
</trkpt>
<trkpt lat="36.681969" lon="137.759012">
<ele>2583.343344</ele>
<time>2014-08-17T05:42:08Z</time>
<desc><![CDATA[lat.=36.681969, lon.=137.759012, Alt.=2583.343344m. Speed=2.000000m/h.]]></desc>
</trkpt>
<trkpt lat="36.681976" lon="137.759011">
<ele>2585.670923</ele>
<time>2014-08-17T05:42:13Z</time>
<desc><![CDATA[lat.=36.681976, lon.=137.759011, Alt.=2585.670923m. Speed=1.000000m/h.]]></desc>
</trkpt>
<trkpt lat="36.681975" lon="137.759026">
<ele>2587.455722</ele>
<time>2014-08-17T05:42:18Z</time>
<desc><![CDATA[lat.=36.681975, lon.=137.759026, Alt.=2587.455722m. Speed=0.000000m/h.]]></desc>
</trkpt>
<trkpt lat="36.681967" lon="137.759026">
<ele>2588.588555</ele>
<time>2014-08-17T05:42:23Z</time>
<desc><![CDATA[lat.=36.681967, lon.=137.759026, Alt.=2588.588555m. Speed=0.000000m/h.]]></desc>
</trkpt>
<trkpt lat="36.681971" lon="137.759017">
<ele>2589.725048</ele>
<time>2014-08-17T05:42:28Z</time>
<desc><![CDATA[lat.=36.681971, lon.=137.759017, Alt.=2589.725048m. Speed=0.000000m/h.]]></desc>
</trkpt>
<trkpt lat="36.681974" lon="137.759009">
<ele>2590.861541</ele>
<time>2014-08-17T05:42:33Z</time>
<desc><![CDATA[lat.=36.681974, lon.=137.759009, Alt.=2590.861541m. Speed=0.000000m/h.]]></desc>
</trkpt>
<trkpt lat="36.681978" lon="137.759002">
<ele>2590.267828</ele>
<time>2014-08-17T05:42:38Z</time>
<desc><![CDATA[lat.=36.681978, lon.=137.759002, Alt.=2590.267828m. Speed=0.000000m/h.]]></desc>
</trkpt>
<trkpt lat="36.681986" lon="137.759002">
<ele>2589.134995</ele>
<time>2014-08-17T05:42:43Z</time>
<desc><![CDATA[lat.=36.681986, lon.=137.759002, Alt.=2589.134995m. Speed=0.000000m/h.]]></desc>
</trkpt>
<trkpt lat="36.682000" lon="137.759002">
<ele>2590.329742</ele>
<time>2014-08-17T05:42:48Z</time>
<desc><![CDATA[lat.=36.682000, lon.=137.759002, Alt.=2590.329742m. Speed=0.000000m/h.]]></desc>
</trkpt>
<trkpt lat="36.682004" lon="137.758994">
<ele>2591.466235</ele>
<time>2014-08-17T05:42:53Z</time>
<desc><![CDATA[lat.=36.682004, lon.=137.758994, Alt.=2591.466235m. Speed=0.000000m/h.]]></desc>
</trkpt>
<trkpt lat="36.682026" lon="137.759011">
<ele>2591.582742</ele>
<time>2014-08-17T05:42:58Z</time>
<desc><![CDATA[lat.=36.682026, lon.=137.759011, Alt.=2591.582742m. Speed=0.000000m/h.]]></desc>
</trkpt>
<trkpt lat="36.682022" lon="137.759018">
<ele>2592.176454</ele>
<time>2014-08-17T05:43:03Z</time>
<desc><![CDATA[lat.=36.682022, lon.=137.759018, Alt.=2592.176454m. Speed=0.000000m/h.]]></desc>
</trkpt>
<trkpt lat="36.682026" lon="137.759011">
<ele>2591.582742</ele>
<time>2014-08-17T05:43:11Z</time>
<desc><![CDATA[lat.=36.682026, lon.=137.759011, Alt.=2591.582742m. Speed=0.000000m/h.]]></desc>
</trkpt>
<trkpt lat="36.682029" lon="137.759019">
<ele>2591.043622</ele>
<time>2014-08-17T05:43:16Z</time>
<desc><![CDATA[lat.=36.682029, lon.=137.759019, Alt.=2591.043622m. Speed=1.000000m/h.]]></desc>
</trkpt>
<trkpt lat="36.682033" lon="137.759026">
<ele>2592.234708</ele>
<time>2014-08-17T05:43:21Z</time>
<desc><![CDATA[lat.=36.682033, lon.=137.759026, Alt.=2592.234708m. Speed=0.000000m/h.]]></desc>
</trkpt>
<trkpt lat="36.682040" lon="137.759026">
<ele>2592.832082</ele>
<time>2014-08-17T05:43:27Z</time>
<desc><![CDATA[lat.=36.682040, lon.=137.759026, Alt.=2592.832082m. Speed=0.000000m/h.]]></desc>
</trkpt>
<trkpt lat="36.682036" lon="137.759018">
<ele>2593.371202</ele>
<time>2014-08-17T05:43:32Z</time>
<desc><![CDATA[lat.=36.682036, lon.=137.759018, Alt.=2593.371202m. Speed=0.000000m/h.]]></desc>
</trkpt>
<trkpt lat="36.682051" lon="137.759018">
<ele>2594.565949</ele>
<time>2014-08-17T05:43:37Z</time>
<desc><![CDATA[lat.=36.682051, lon.=137.759018, Alt.=2594.565949m. Speed=1.000000m/h.]]></desc>
</trkpt>
<trkpt lat="36.682058" lon="137.759035">
<ele>2593.487710</ele>
<time>2014-08-17T05:43:42Z</time>
<desc><![CDATA[lat.=36.682058, lon.=137.759035, Alt.=2593.487710m. Speed=0.000000m/h.]]></desc>
</trkpt>
<trkpt lat="36.682062" lon="137.759027">
<ele>2592.893998</ele>
<time>2014-08-17T05:43:47Z</time>
<desc><![CDATA[lat.=36.682062, lon.=137.759027, Alt.=2592.893998m. Speed=0.000000m/h.]]></desc>
</trkpt>
<trkpt lat="36.682073" lon="137.759035">
<ele>2592.952252</ele>
<time>2014-08-17T05:43:52Z</time>
<desc><![CDATA[lat.=36.682073, lon.=137.759035, Alt.=2592.952252m. Speed=0.000000m/h.]]></desc>
</trkpt>
<trkpt lat="36.682076" lon="137.759060">
<ele>2592.467726</ele>
<time>2014-08-17T05:43:57Z</time>
<desc><![CDATA[lat.=36.682076, lon.=137.759060, Alt.=2592.467726m. Speed=1.000000m/h.]]></desc>
</trkpt>
<trkpt lat="36.682080" lon="137.759051">
<ele>2593.604220</ele>
<time>2014-08-17T05:44:02Z</time>
<desc><![CDATA[lat.=36.682080, lon.=137.759051, Alt.=2593.604220m. Speed=0.000000m/h.]]></desc>
</trkpt>
<trkpt lat="36.682090" lon="137.759060">
<ele>2593.662475</ele>
<time>2014-08-17T05:44:07Z</time>
<desc><![CDATA[lat.=36.682090, lon.=137.759060, Alt.=2593.662475m. Speed=1.000000m/h.]]></desc>
</trkpt>
<trkpt lat="36.682101" lon="137.759068">
<ele>2593.720731</ele>
<time>2014-08-17T05:44:12Z</time>
<desc><![CDATA[lat.=36.682101, lon.=137.759068, Alt.=2593.720731m. Speed=0.000000m/h.]]></desc>
</trkpt>
<trkpt lat="36.682116" lon="137.759068">
<ele>2594.915480</ele>
<time>2014-08-17T05:44:17Z</time>
<desc><![CDATA[lat.=36.682116, lon.=137.759068, Alt.=2594.915480m. Speed=0.000000m/h.]]></desc>
</trkpt>
<trkpt lat="36.682123" lon="137.759068">
<ele>2595.512855</ele>
<time>2014-08-17T05:44:22Z</time>
<desc><![CDATA[lat.=36.682123, lon.=137.759068, Alt.=2595.512855m. Speed=0.000000m/h.]]></desc>
</trkpt>
<trkpt lat="36.682127" lon="137.759076">
<ele>2594.973736</ele>
<time>2014-08-17T05:44:27Z</time>
<desc><![CDATA[lat.=36.682127, lon.=137.759076, Alt.=2594.973736m. Speed=0.000000m/h.]]></desc>
</trkpt>
<trkpt lat="36.682141" lon="137.759076">
<ele>2596.168487</ele>
<time>2014-08-17T05:44:32Z</time>
<desc><![CDATA[lat.=36.682141, lon.=137.759076, Alt.=2596.168487m. Speed=1.000000m/h.]]></desc>
</trkpt>
<trkpt lat="36.682152" lon="137.759068">
<ele>2597.902356</ele>
<time>2014-08-17T05:44:37Z</time>
<desc><![CDATA[lat.=36.682152, lon.=137.759068, Alt.=2597.902356m. Speed=0.000000m/h.]]></desc>
</trkpt>
<trkpt lat="36.682167" lon="137.759052">
<ele>2599.042513</ele>
<time>2014-08-17T05:44:42Z</time>
<desc><![CDATA[lat.=36.682167, lon.=137.759052, Alt.=2599.042513m. Speed=0.000000m/h.]]></desc>
</trkpt>
<trkpt lat="36.682170" lon="137.759060">
<ele>2598.503395</ele>
<time>2014-08-17T05:44:48Z</time>
<desc><![CDATA[lat.=36.682170, lon.=137.759060, Alt.=2598.503395m. Speed=1.000000m/h.]]></desc>
</trkpt>
<trkpt lat="36.682170" lon="137.759060">
<ele>2600.233601</ele>
<time>2014-08-17T05:44:53Z</time>
<desc><![CDATA[lat.=36.682170, lon.=137.759060, Alt.=2600.233601m. Speed=0.000000m/h.]]></desc>
</trkpt>
<trkpt lat="36.682173" lon="137.759068">
<ele>2599.694482</ele>
<time>2014-08-17T05:44:58Z</time>
<desc><![CDATA[lat.=36.682173, lon.=137.759068, Alt.=2599.694482m. Speed=0.000000m/h.]]></desc>
</trkpt>
<trkpt lat="36.682170" lon="137.759075">
<ele>2600.288194</ele>
<time>2014-08-17T05:45:05Z</time>
<desc><![CDATA[lat.=36.682170, lon.=137.759075, Alt.=2600.288194m. Speed=0.000000m/h.]]></desc>
</trkpt>
<trkpt lat="36.682173" lon="137.759067">
<ele>2601.424688</ele>
<time>2014-08-17T05:45:10Z</time>
<desc><![CDATA[lat.=36.682173, lon.=137.759067, Alt.=2601.424688m. Speed=0.000000m/h.]]></desc>
</trkpt>
<trkpt lat="36.682180" lon="137.759067">
<ele>2602.022064</ele>
<time>2014-08-17T05:45:15Z</time>
<desc><![CDATA[lat.=36.682180, lon.=137.759067, Alt.=2602.022064m. Speed=1.000000m/h.]]></desc>
</trkpt>
<trkpt lat="36.682188" lon="137.759051">
<ele>2602.564846</ele>
<time>2014-08-17T05:45:20Z</time>
<desc><![CDATA[lat.=36.682188, lon.=137.759051, Alt.=2602.564846m. Speed=0.000000m/h.]]></desc>
</trkpt>
<trkpt lat="36.682206" lon="137.759044">
<ele>2603.165887</ele>
<time>2014-08-17T05:45:25Z</time>
<desc><![CDATA[lat.=36.682206, lon.=137.759044, Alt.=2603.165887m. Speed=1.000000m/h.]]></desc>
</trkpt>
<trkpt lat="36.682229" lon="137.759045">
<ele>2601.497604</ele>
<time>2014-08-17T05:45:30Z</time>
<desc><![CDATA[lat.=36.682229, lon.=137.759045, Alt.=2601.497604m. Speed=1.000000m/h.]]></desc>
</trkpt>
<trkpt lat="36.682236" lon="137.759046">
<ele>2600.364775</ele>
<time>2014-08-17T05:45:36Z</time>
<desc><![CDATA[lat.=36.682236, lon.=137.759046, Alt.=2600.364775m. Speed=0.000000m/h.]]></desc>
</trkpt>
<trkpt lat="36.682240" lon="137.759054">
<ele>2599.825657</ele>
<time>2014-08-17T05:45:43Z</time>
<desc><![CDATA[lat.=36.682240, lon.=137.759054, Alt.=2599.825657m. Speed=0.000000m/h.]]></desc>
</trkpt>
<trkpt lat="36.682262" lon="137.759039">
<ele>2599.832988</ele>
<time>2014-08-17T05:45:48Z</time>
<desc><![CDATA[lat.=36.682262, lon.=137.759039, Alt.=2599.832988m. Speed=1.000000m/h.]]></desc>
</trkpt>
<trkpt lat="36.682280" lon="137.759031">
<ele>2602.164237</ele>
<time>2014-08-17T05:45:53Z</time>
<desc><![CDATA[lat.=36.682280, lon.=137.759031, Alt.=2602.164237m. Speed=1.000000m/h.]]></desc>
</trkpt>
<trkpt lat="36.682292" lon="137.759023">
<ele>2602.167904</ele>
<time>2014-08-17T05:45:58Z</time>
<desc><![CDATA[lat.=36.682292, lon.=137.759023, Alt.=2602.167904m. Speed=1.000000m/h.]]></desc>
</trkpt>
<trkpt lat="36.682295" lon="137.759015">
<ele>2603.304399</ele>
<time>2014-08-17T05:46:03Z</time>
<desc><![CDATA[lat.=36.682295, lon.=137.759015, Alt.=2603.304399m. Speed=0.000000m/h.]]></desc>
</trkpt>
<trkpt lat="36.682306" lon="137.759008">
<ele>2603.308066</ele>
<time>2014-08-17T05:46:08Z</time>
<desc><![CDATA[lat.=36.682306, lon.=137.759008, Alt.=2603.308066m. Speed=1.000000m/h.]]></desc>
</trkpt>
<trkpt lat="36.682328" lon="137.759008">
<ele>2605.100199</ele>
<time>2014-08-17T05:46:13Z</time>
<desc><![CDATA[lat.=36.682328, lon.=137.759008, Alt.=2605.100199m. Speed=2.000000m/h.]]></desc>
</trkpt>
<trkpt lat="36.682350" lon="137.759024">
<ele>2605.216720</ele>
<time>2014-08-17T05:46:18Z</time>
<desc><![CDATA[lat.=36.682350, lon.=137.759024, Alt.=2605.216720m. Speed=1.000000m/h.]]></desc>
</trkpt>
<trkpt lat="36.682342" lon="137.759040">
<ele>2604.673934</ele>
<time>2014-08-17T05:46:23Z</time>
<desc><![CDATA[lat.=36.682342, lon.=137.759040, Alt.=2604.673934m. Speed=0.000000m/h.]]></desc>
</trkpt>
<trkpt lat="36.682346" lon="137.759048">
<ele>2604.134817</ele>
<time>2014-08-17T05:46:28Z</time>
<desc><![CDATA[lat.=36.682346, lon.=137.759048, Alt.=2604.134817m. Speed=0.000000m/h.]]></desc>
</trkpt>
<trkpt lat="36.682342" lon="137.759056">
<ele>2604.728527</ele>
<time>2014-08-17T05:46:36Z</time>
<desc><![CDATA[lat.=36.682342, lon.=137.759056, Alt.=2604.728527m. Speed=0.000000m/h.]]></desc>
</trkpt>
<trkpt lat="36.682346" lon="137.759064">
<ele>2604.189410</ele>
<time>2014-08-17T05:46:41Z</time>
<desc><![CDATA[lat.=36.682346, lon.=137.759064, Alt.=2604.189410m. Speed=0.000000m/h.]]></desc>
</trkpt>
<trkpt lat="36.682353" lon="137.759048">
<ele>2604.732195</ele>
<time>2014-08-17T05:46:46Z</time>
<desc><![CDATA[lat.=36.682353, lon.=137.759048, Alt.=2604.732195m. Speed=1.000000m/h.]]></desc>
</trkpt>
<trkpt lat="36.682378" lon="137.759040">
<ele>2607.660826</ele>
<time>2014-08-17T05:46:51Z</time>
<desc><![CDATA[lat.=36.682378, lon.=137.759040, Alt.=2607.660826m. Speed=1.000000m/h.]]></desc>
</trkpt>
<trkpt lat="36.682394" lon="137.759008">
<ele>2608.746398</ele>
<time>2014-08-17T05:46:56Z</time>
<desc><![CDATA[lat.=36.682394, lon.=137.759008, Alt.=2608.746398m. Speed=1.000000m/h.]]></desc>
</trkpt>
<trkpt lat="36.682393" lon="137.759024">
<ele>2608.800990</ele>
<time>2014-08-17T05:47:01Z</time>
<desc><![CDATA[lat.=36.682393, lon.=137.759024, Alt.=2608.800990m. Speed=0.000000m/h.]]></desc>
</trkpt>
<trkpt lat="36.682404" lon="137.759016">
<ele>2610.534865</ele>
<time>2014-08-17T05:47:06Z</time>
<desc><![CDATA[lat.=36.682404, lon.=137.759016, Alt.=2610.534865m. Speed=0.000000m/h.]]></desc>
</trkpt>
<trkpt lat="36.682419" lon="137.758984">
<ele>2611.620439</ele>
<time>2014-08-17T05:47:11Z</time>
<desc><![CDATA[lat.=36.682419, lon.=137.758984, Alt.=2611.620439m. Speed=1.000000m/h.]]></desc>
</trkpt>
<trkpt lat="36.682434" lon="137.758953">
<ele>2612.706015</ele>
<time>2014-08-17T05:47:16Z</time>
<desc><![CDATA[lat.=36.682434, lon.=137.758953, Alt.=2612.706015m. Speed=1.000000m/h.]]></desc>
</trkpt>
<trkpt lat="36.682431" lon="137.758945">
<ele>2611.514927</ele>
<time>2014-08-17T05:47:21Z</time>
<desc><![CDATA[lat.=36.682431, lon.=137.758945, Alt.=2611.514927m. Speed=0.000000m/h.]]></desc>
</trkpt>
<trkpt lat="36.682446" lon="137.758929">
<ele>2612.655095</ele>
<time>2014-08-17T05:47:26Z</time>
<desc><![CDATA[lat.=36.682446, lon.=137.758929, Alt.=2612.655095m. Speed=1.000000m/h.]]></desc>
</trkpt>
<trkpt lat="36.682461" lon="137.758914">
<ele>2613.795264</ele>
<time>2014-08-17T05:47:31Z</time>
<desc><![CDATA[lat.=36.682461, lon.=137.758914, Alt.=2613.795264m. Speed=2.000000m/h.]]></desc>
</trkpt>
<trkpt lat="36.682472" lon="137.758890">
<ele>2615.474552</ele>
<time>2014-08-17T05:47:36Z</time>
<desc><![CDATA[lat.=36.682472, lon.=137.758890, Alt.=2615.474552m. Speed=2.000000m/h.]]></desc>
</trkpt>
<trkpt lat="36.682489" lon="137.758963">
<ele>2612.888144</ele>
<time>2014-08-17T05:47:41Z</time>
<desc><![CDATA[lat.=36.682489, lon.=137.758963, Alt.=2612.888144m. Speed=2.000000m/h.]]></desc>
</trkpt>
<trkpt lat="36.682489" lon="137.758994">
<ele>2612.997327</ele>
<time>2014-08-17T05:47:46Z</time>
<desc><![CDATA[lat.=36.682489, lon.=137.758994, Alt.=2612.997327m. Speed=2.000000m/h.]]></desc>
</trkpt>
<trkpt lat="36.682485" lon="137.759002">
<ele>2613.591036</ele>
<time>2014-08-17T05:47:51Z</time>
<desc><![CDATA[lat.=36.682485, lon.=137.759002, Alt.=2613.591036m. Speed=0.000000m/h.]]></desc>
</trkpt>
<trkpt lat="36.682488" lon="137.759010">
<ele>2613.051919</ele>
<time>2014-08-17T05:47:56Z</time>
<desc><![CDATA[lat.=36.682488, lon.=137.759010, Alt.=2613.051919m. Speed=0.000000m/h.]]></desc>
</trkpt>
<trkpt lat="36.682485" lon="137.759018">
<ele>2611.915422</ele>
<time>2014-08-17T05:48:01Z</time>
<desc><![CDATA[lat.=36.682485, lon.=137.759018, Alt.=2611.915422m. Speed=0.000000m/h.]]></desc>
</trkpt>
<trkpt lat="36.682488" lon="137.759026">
<ele>2613.106511</ele>
<time>2014-08-17T05:48:06Z</time>
<desc><![CDATA[lat.=36.682488, lon.=137.759026, Alt.=2613.106511m. Speed=0.000000m/h.]]></desc>
</trkpt>
<trkpt lat="36.682517" lon="137.759026">
<ele>2613.765827</ele>
<time>2014-08-17T05:48:11Z</time>
<desc><![CDATA[lat.=36.682517, lon.=137.759026, Alt.=2613.765827m. Speed=1.000000m/h.]]></desc>
</trkpt>
<trkpt lat="36.682532" lon="137.759026">
<ele>2614.960588</ele>
<time>2014-08-17T05:48:16Z</time>
<desc><![CDATA[lat.=36.682532, lon.=137.759026, Alt.=2614.960588m. Speed=1.000000m/h.]]></desc>
</trkpt>
<trkpt lat="36.682535" lon="137.759035">
<ele>2614.421472</ele>
<time>2014-08-17T05:48:21Z</time>
<desc><![CDATA[lat.=36.682535, lon.=137.759035, Alt.=2614.421472m. Speed=0.000000m/h.]]></desc>
</trkpt>
<trkpt lat="36.682534" lon="137.759050">
<ele>2616.206270</ele>
<time>2014-08-17T05:48:26Z</time>
<desc><![CDATA[lat.=36.682534, lon.=137.759050, Alt.=2616.206270m. Speed=0.000000m/h.]]></desc>
</trkpt>
<trkpt lat="36.682534" lon="137.759066">
<ele>2616.260863</ele>
<time>2014-08-17T05:48:31Z</time>
<desc><![CDATA[lat.=36.682534, lon.=137.759066, Alt.=2616.260863m. Speed=0.000000m/h.]]></desc>
</trkpt>
<trkpt lat="36.682530" lon="137.759073">
<ele>2616.854572</ele>
<time>2014-08-17T05:48:36Z</time>
<desc><![CDATA[lat.=36.682530, lon.=137.759073, Alt.=2616.854572m. Speed=0.000000m/h.]]></desc>
</trkpt>
<trkpt lat="36.682534" lon="137.759081">
<ele>2616.315456</ele>
<time>2014-08-17T05:48:42Z</time>
<desc><![CDATA[lat.=36.682534, lon.=137.759081, Alt.=2616.315456m. Speed=0.000000m/h.]]></desc>
</trkpt>
<trkpt lat="36.682544" lon="137.759089">
<ele>2618.103927</ele>
<time>2014-08-17T05:48:47Z</time>
<desc><![CDATA[lat.=36.682544, lon.=137.759089, Alt.=2618.103927m. Speed=0.000000m/h.]]></desc>
</trkpt>
<trkpt lat="36.682567" lon="137.759074">
<ele>2618.111271</ele>
<time>2014-08-17T05:48:52Z</time>
<desc><![CDATA[lat.=36.682567, lon.=137.759074, Alt.=2618.111271m. Speed=0.000000m/h.]]></desc>
</trkpt>
<trkpt lat="36.682567" lon="137.759057">
<ele>2619.786883</ele>
<time>2014-08-17T05:48:57Z</time>
<desc><![CDATA[lat.=36.682567, lon.=137.759057, Alt.=2619.786883m. Speed=1.000000m/h.]]></desc>
</trkpt>
<trkpt lat="36.682577" lon="137.759066">
<ele>2619.845149</ele>
<time>2014-08-17T05:49:02Z</time>
<desc><![CDATA[lat.=36.682577, lon.=137.759066, Alt.=2619.845149m. Speed=0.000000m/h.]]></desc>
</trkpt>
<trkpt lat="36.682592" lon="137.759050">
<ele>2620.985319</ele>
<time>2014-08-17T05:49:07Z</time>
<desc><![CDATA[lat.=36.682592, lon.=137.759050, Alt.=2620.985319m. Speed=1.000000m/h.]]></desc>
</trkpt>
<trkpt lat="36.682611" lon="137.759026">
<ele>2621.531781</ele>
<time>2014-08-17T05:49:12Z</time>
<desc><![CDATA[lat.=36.682611, lon.=137.759026, Alt.=2621.531781m. Speed=2.000000m/h.]]></desc>
</trkpt>
<trkpt lat="36.682626" lon="137.759011">
<ele>2620.941747</ele>
<time>2014-08-17T05:49:17Z</time>
<desc><![CDATA[lat.=36.682626, lon.=137.759011, Alt.=2620.941747m. Speed=1.000000m/h.]]></desc>
</trkpt>
<trkpt lat="36.682637" lon="137.758987">
<ele>2624.351241</ele>
<time>2014-08-17T05:49:22Z</time>
<desc><![CDATA[lat.=36.682637, lon.=137.758987, Alt.=2624.351241m. Speed=1.000000m/h.]]></desc>
</trkpt>
<trkpt lat="36.682655" lon="137.758979">
<ele>2624.952298</ele>
<time>2014-08-17T05:49:27Z</time>
<desc><![CDATA[lat.=36.682655, lon.=137.758979, Alt.=2624.952298m. Speed=1.000000m/h.]]></desc>
</trkpt>
<trkpt lat="36.682655" lon="137.759011">
<ele>2623.331276</ele>
<time>2014-08-17T05:49:32Z</time>
<desc><![CDATA[lat.=36.682655, lon.=137.759011, Alt.=2623.331276m. Speed=1.000000m/h.]]></desc>
</trkpt>
<trkpt lat="36.682673" lon="137.759020">
<ele>2623.986926</ele>
<time>2014-08-17T05:49:37Z</time>
<desc><![CDATA[lat.=36.682673, lon.=137.759020, Alt.=2623.986926m. Speed=0.000000m/h.]]></desc>
</trkpt>
<trkpt lat="36.682680" lon="137.759020">
<ele>2624.584308</ele>
<time>2014-08-17T05:49:42Z</time>
<desc><![CDATA[lat.=36.682680, lon.=137.759020, Alt.=2624.584308m. Speed=0.000000m/h.]]></desc>
</trkpt>
<trkpt lat="36.682681" lon="137.759004">
<ele>2624.529717</ele>
<time>2014-08-17T05:49:47Z</time>
<desc><![CDATA[lat.=36.682681, lon.=137.759004, Alt.=2624.529717m. Speed=0.000000m/h.]]></desc>
</trkpt>
<trkpt lat="36.682692" lon="137.758980">
<ele>2626.209006</ele>
<time>2014-08-17T05:49:52Z</time>
<desc><![CDATA[lat.=36.682692, lon.=137.758980, Alt.=2626.209006m. Speed=1.000000m/h.]]></desc>
</trkpt>
<trkpt lat="36.682714" lon="137.758965">
<ele>2626.216359</ele>
<time>2014-08-17T05:49:57Z</time>
<desc><![CDATA[lat.=36.682714, lon.=137.758965, Alt.=2626.216359m. Speed=2.000000m/h.]]></desc>
</trkpt>
<trkpt lat="36.682718" lon="137.758973">
<ele>2625.677243</ele>
<time>2014-08-17T05:50:02Z</time>
<desc><![CDATA[lat.=36.682718, lon.=137.758973, Alt.=2625.677243m. Speed=0.000000m/h.]]></desc>
</trkpt>
<trkpt lat="36.682722" lon="137.758981">
<ele>2625.138128</ele>
<time>2014-08-17T05:50:07Z</time>
<desc><![CDATA[lat.=36.682722, lon.=137.758981, Alt.=2625.138128m. Speed=0.000000m/h.]]></desc>
</trkpt>
<trkpt lat="36.682733" lon="137.758957">
<ele>2626.817419</ele>
<time>2014-08-17T05:50:12Z</time>
<desc><![CDATA[lat.=36.682733, lon.=137.758957, Alt.=2626.817419m. Speed=2.000000m/h.]]></desc>
</trkpt>
<trkpt lat="36.682754" lon="137.758957">
<ele>2628.609570</ele>
<time>2014-08-17T05:50:17Z</time>
<desc><![CDATA[lat.=36.682754, lon.=137.758957, Alt.=2628.609570m. Speed=1.000000m/h.]]></desc>
</trkpt>
<trkpt lat="36.682770" lon="137.758926">
<ele>2629.695157</ele>
<time>2014-08-17T05:50:22Z</time>
<desc><![CDATA[lat.=36.682770, lon.=137.758926, Alt.=2629.695157m. Speed=2.000000m/h.]]></desc>
</trkpt>
<trkpt lat="36.682773" lon="137.758950">
<ele>2629.210631</ele>
<time>2014-08-17T05:50:27Z</time>
<desc><![CDATA[lat.=36.682773, lon.=137.758950, Alt.=2629.210631m. Speed=1.000000m/h.]]></desc>
</trkpt>
<trkpt lat="36.682787" lon="137.758966">
<ele>2630.459991</ele>
<time>2014-08-17T05:50:32Z</time>
<desc><![CDATA[lat.=36.682787, lon.=137.758966, Alt.=2630.459991m. Speed=1.000000m/h.]]></desc>
</trkpt>
<trkpt lat="36.682798" lon="137.758941">
<ele>2633.869489</ele>
<time>2014-08-17T05:50:37Z</time>
<desc><![CDATA[lat.=36.682798, lon.=137.758941, Alt.=2633.869489m. Speed=2.000000m/h.]]></desc>
</trkpt>
<trkpt lat="36.682813" lon="137.758926">
<ele>2633.279462</ele>
<time>2014-08-17T05:50:42Z</time>
<desc><![CDATA[lat.=36.682813, lon.=137.758926, Alt.=2633.279462m. Speed=2.000000m/h.]]></desc>
</trkpt>
<trkpt lat="36.682820" lon="137.758958">
<ele>2632.255823</ele>
<time>2014-08-17T05:50:47Z</time>
<desc><![CDATA[lat.=36.682820, lon.=137.758958, Alt.=2632.255823m. Speed=1.000000m/h.]]></desc>
</trkpt>
<trkpt lat="36.682827" lon="137.758975">
<ele>2631.177593</ele>
<time>2014-08-17T05:50:52Z</time>
<desc><![CDATA[lat.=36.682827, lon.=137.758975, Alt.=2631.177593m. Speed=0.000000m/h.]]></desc>
</trkpt>
<trkpt lat="36.682842" lon="137.758960">
<ele>2630.587566</ele>
<time>2014-08-17T05:50:57Z</time>
<desc><![CDATA[lat.=36.682842, lon.=137.758960, Alt.=2630.587566m. Speed=0.000000m/h.]]></desc>
</trkpt>
<trkpt lat="36.682839" lon="137.758951">
<ele>2631.126681</ele>
<time>2014-08-17T05:51:02Z</time>
<desc><![CDATA[lat.=36.682839, lon.=137.758951, Alt.=2631.126681m. Speed=0.000000m/h.]]></desc>
</trkpt>
<trkpt lat="36.682849" lon="137.758926">
<ele>2634.536181</ele>
<time>2014-08-17T05:51:07Z</time>
<desc><![CDATA[lat.=36.682849, lon.=137.758926, Alt.=2634.536181m. Speed=1.000000m/h.]]></desc>
</trkpt>
<trkpt lat="36.682872" lon="137.758911">
<ele>2634.543542</ele>
<time>2014-08-17T05:51:12Z</time>
<desc><![CDATA[lat.=36.682872, lon.=137.758911, Alt.=2634.543542m. Speed=2.000000m/h.]]></desc>
</trkpt>
<trkpt lat="36.682878" lon="137.758943">
<ele>2635.250107</ele>
<time>2014-08-17T05:51:17Z</time>
<desc><![CDATA[lat.=36.682878, lon.=137.758943, Alt.=2635.250107m. Speed=1.000000m/h.]]></desc>
</trkpt>
<trkpt lat="36.682882" lon="137.758967">
<ele>2634.765584</ele>
<time>2014-08-17T05:51:22Z</time>
<desc><![CDATA[lat.=36.682882, lon.=137.758967, Alt.=2634.765584m. Speed=1.000000m/h.]]></desc>
</trkpt>
<trkpt lat="36.682904" lon="137.758968">
<ele>2634.827535</ele>
<time>2014-08-17T05:51:27Z</time>
<desc><![CDATA[lat.=36.682904, lon.=137.758968, Alt.=2634.827535m. Speed=1.000000m/h.]]></desc>
</trkpt>
<trkpt lat="36.682903" lon="137.759000">
<ele>2633.206512</ele>
<time>2014-08-17T05:51:32Z</time>
<desc><![CDATA[lat.=36.682903, lon.=137.759000, Alt.=2633.206512m. Speed=1.000000m/h.]]></desc>
</trkpt>
<trkpt lat="36.682903" lon="137.759032">
<ele>2633.315696</ele>
<time>2014-08-17T05:51:37Z</time>
<desc><![CDATA[lat.=36.682903, lon.=137.759032, Alt.=2633.315696m. Speed=1.000000m/h.]]></desc>
</trkpt>
<trkpt lat="36.682928" lon="137.759024">
<ele>2634.514149</ele>
<time>2014-08-17T05:51:42Z</time>
<desc><![CDATA[lat.=36.682928, lon.=137.759024, Alt.=2634.514149m. Speed=1.000000m/h.]]></desc>
</trkpt>
<trkpt lat="36.682932" lon="137.758999">
<ele>2637.326262</ele>
<time>2014-08-17T05:51:47Z</time>
<desc><![CDATA[lat.=36.682932, lon.=137.758999, Alt.=2637.326262m. Speed=1.000000m/h.]]></desc>
</trkpt>
<trkpt lat="36.682951" lon="137.758976">
<ele>2637.872738</ele>
<time>2014-08-17T05:51:52Z</time>
<desc><![CDATA[lat.=36.682951, lon.=137.758976, Alt.=2637.872738m. Speed=0.000000m/h.]]></desc>
</trkpt>
<trkpt lat="36.682954" lon="137.758968">
<ele>2639.009239</ele>
<time>2014-08-17T05:51:57Z</time>
<desc><![CDATA[lat.=36.682954, lon.=137.758968, Alt.=2639.009239m. Speed=0.000000m/h.]]></desc>
</trkpt>
<trkpt lat="36.682969" lon="137.758936">
<ele>2640.094831</ele>
<time>2014-08-17T05:52:02Z</time>
<desc><![CDATA[lat.=36.682969, lon.=137.758936, Alt.=2640.094831m. Speed=1.000000m/h.]]></desc>
</trkpt>
<trkpt lat="36.682977" lon="137.758936">
<ele>2640.692218</ele>
<time>2014-08-17T05:52:07Z</time>
<desc><![CDATA[lat.=36.682977, lon.=137.758936, Alt.=2640.692218m. Speed=0.000000m/h.]]></desc>
</trkpt>
<trkpt lat="36.682976" lon="137.758952">
<ele>2640.746808</ele>
<time>2014-08-17T05:52:12Z</time>
<desc><![CDATA[lat.=36.682976, lon.=137.758952, Alt.=2640.746808m. Speed=0.000000m/h.]]></desc>
</trkpt>
<trkpt lat="36.682969" lon="137.758951">
<ele>2641.879627</ele>
<time>2014-08-17T05:52:17Z</time>
<desc><![CDATA[lat.=36.682969, lon.=137.758951, Alt.=2641.879627m. Speed=0.000000m/h.]]></desc>
</trkpt>
<trkpt lat="36.682965" lon="137.758943">
<ele>2642.418741</ele>
<time>2014-08-17T05:52:26Z</time>
<desc><![CDATA[lat.=36.682965, lon.=137.758943, Alt.=2642.418741m. Speed=0.000000m/h.]]></desc>
</trkpt>
<trkpt lat="36.682961" lon="137.758951">
<ele>2641.282240</ele>
<time>2014-08-17T05:52:33Z</time>
<desc><![CDATA[lat.=36.682961, lon.=137.758951, Alt.=2641.282240m. Speed=0.000000m/h.]]></desc>
</trkpt>
<trkpt lat="36.682980" lon="137.758960">
<ele>2641.937900</ele>
<time>2014-08-17T05:52:38Z</time>
<desc><![CDATA[lat.=36.682980, lon.=137.758960, Alt.=2641.937900m. Speed=0.000000m/h.]]></desc>
</trkpt>
<trkpt lat="36.682976" lon="137.758951">
<ele>2642.477014</ele>
<time>2014-08-17T05:52:46Z</time>
<desc><![CDATA[lat.=36.682976, lon.=137.758951, Alt.=2642.477014m. Speed=0.000000m/h.]]></desc>
</trkpt>
<trkpt lat="36.682994" lon="137.758944">
<ele>2643.078083</ele>
<time>2014-08-17T05:52:51Z</time>
<desc><![CDATA[lat.=36.682994, lon.=137.758944, Alt.=2643.078083m. Speed=1.000000m/h.]]></desc>
</trkpt>
<trkpt lat="36.683013" lon="137.758936">
<ele>2643.679154</ele>
<time>2014-08-17T05:52:56Z</time>
<desc><![CDATA[lat.=36.683013, lon.=137.758936, Alt.=2643.679154m. Speed=1.000000m/h.]]></desc>
</trkpt>
<trkpt lat="36.683013" lon="137.758903">
<ele>2647.030385</ele>
<time>2014-08-17T05:53:01Z</time>
<desc><![CDATA[lat.=36.683013, lon.=137.758903, Alt.=2647.030385m. Speed=2.000000m/h.]]></desc>
</trkpt>
<trkpt lat="36.683028" lon="137.758887">
<ele>2648.170570</ele>
<time>2014-08-17T05:53:06Z</time>
<desc><![CDATA[lat.=36.683028, lon.=137.758887, Alt.=2648.170570m. Speed=2.000000m/h.]]></desc>
</trkpt>
<trkpt lat="36.683038" lon="137.758912">
<ele>2646.553228</ele>
<time>2014-08-17T05:53:11Z</time>
<desc><![CDATA[lat.=36.683038, lon.=137.758912, Alt.=2646.553228m. Speed=1.000000m/h.]]></desc>
</trkpt>
<trkpt lat="36.683053" lon="137.758896">
<ele>2649.423620</ele>
<time>2014-08-17T05:53:16Z</time>
<desc><![CDATA[lat.=36.683053, lon.=137.758896, Alt.=2649.423620m. Speed=1.000000m/h.]]></desc>
</trkpt>
<trkpt lat="36.683064" lon="137.758872">
<ele>2651.102921</ele>
<time>2014-08-17T05:53:21Z</time>
<desc><![CDATA[lat.=36.683064, lon.=137.758872, Alt.=2651.102921m. Speed=1.000000m/h.]]></desc>
</trkpt>
<trkpt lat="36.683068" lon="137.758896">
<ele>2648.888190</ele>
<time>2014-08-17T05:53:26Z</time>
<desc><![CDATA[lat.=36.683068, lon.=137.758896, Alt.=2648.888190m. Speed=0.000000m/h.]]></desc>
</trkpt>
<trkpt lat="36.683075" lon="137.758913">
<ele>2647.809963</ele>
<time>2014-08-17T05:53:31Z</time>
<desc><![CDATA[lat.=36.683075, lon.=137.758913, Alt.=2647.809963m. Speed=0.000000m/h.]]></desc>
</trkpt>
<trkpt lat="36.683090" lon="137.758914">
<ele>2647.274534</ele>
<time>2014-08-17T05:53:36Z</time>
<desc><![CDATA[lat.=36.683090, lon.=137.758914, Alt.=2647.274534m. Speed=1.000000m/h.]]></desc>
</trkpt>
<trkpt lat="36.683090" lon="137.758930">
<ele>2645.598919</ele>
<time>2014-08-17T05:53:41Z</time>
<desc><![CDATA[lat.=36.683090, lon.=137.758930, Alt.=2645.598919m. Speed=0.000000m/h.]]></desc>
</trkpt>
<trkpt lat="36.683097" lon="137.758947">
<ele>2644.520692</ele>
<time>2014-08-17T05:53:46Z</time>
<desc><![CDATA[lat.=36.683097, lon.=137.758947, Alt.=2644.520692m. Speed=1.000000m/h.]]></desc>
</trkpt>
<trkpt lat="36.683100" lon="137.758954">
<ele>2645.711785</ele>
<time>2014-08-17T05:53:51Z</time>
<desc><![CDATA[lat.=36.683100, lon.=137.758954, Alt.=2645.711785m. Speed=0.000000m/h.]]></desc>
</trkpt>
<trkpt lat="36.683093" lon="137.758970">
<ele>2645.168987</ele>
<time>2014-08-17T05:53:56Z</time>
<desc><![CDATA[lat.=36.683093, lon.=137.758970, Alt.=2645.168987m. Speed=0.000000m/h.]]></desc>
</trkpt>
<trkpt lat="36.683100" lon="137.758970">
<ele>2645.766375</ele>
<time>2014-08-17T05:54:01Z</time>
<desc><![CDATA[lat.=36.683100, lon.=137.758970, Alt.=2645.766375m. Speed=0.000000m/h.]]></desc>
</trkpt>
<trkpt lat="36.683096" lon="137.758993">
<ele>2646.414670</ele>
<time>2014-08-17T05:54:06Z</time>
<desc><![CDATA[lat.=36.683096, lon.=137.758993, Alt.=2646.414670m. Speed=0.000000m/h.]]></desc>
</trkpt>
<trkpt lat="36.683110" lon="137.758978">
<ele>2647.554856</ele>
<time>2014-08-17T05:54:11Z</time>
<desc><![CDATA[lat.=36.683110, lon.=137.758978, Alt.=2647.554856m. Speed=0.000000m/h.]]></desc>
</trkpt>
<trkpt lat="36.683129" lon="137.758954">
<ele>2649.831545</ele>
<time>2014-08-17T05:54:16Z</time>
<desc><![CDATA[lat.=36.683129, lon.=137.758954, Alt.=2649.831545m. Speed=1.000000m/h.]]></desc>
</trkpt>
<trkpt lat="36.683129" lon="137.758937">
<ele>2651.507160</ele>
<time>2014-08-17T05:54:21Z</time>
<desc><![CDATA[lat.=36.683129, lon.=137.758937, Alt.=2651.507160m. Speed=1.000000m/h.]]></desc>
</trkpt>
<trkpt lat="36.683140" lon="137.758930">
<ele>2651.510846</ele>
<time>2014-08-17T05:54:26Z</time>
<desc><![CDATA[lat.=36.683140, lon.=137.758930, Alt.=2651.510846m. Speed=0.000000m/h.]]></desc>
</trkpt>
<trkpt lat="36.683154" lon="137.758930">
<ele>2652.705625</ele>
<time>2014-08-17T05:54:31Z</time>
<desc><![CDATA[lat.=36.683154, lon.=137.758930, Alt.=2652.705625m. Speed=1.000000m/h.]]></desc>
</trkpt>
<trkpt lat="36.683161" lon="137.758962">
<ele>2651.681989</ele>
<time>2014-08-17T05:54:36Z</time>
<desc><![CDATA[lat.=36.683161, lon.=137.758962, Alt.=2651.681989m. Speed=1.000000m/h.]]></desc>
</trkpt>
<trkpt lat="36.683157" lon="137.758985">
<ele>2652.330284</ele>
<time>2014-08-17T05:54:41Z</time>
<desc><![CDATA[lat.=36.683157, lon.=137.758985, Alt.=2652.330284m. Speed=0.000000m/h.]]></desc>
</trkpt>
<trkpt lat="36.683153" lon="137.758977">
<ele>2652.869396</ele>
<time>2014-08-17T05:54:46Z</time>
<desc><![CDATA[lat.=36.683153, lon.=137.758977, Alt.=2652.869396m. Speed=0.000000m/h.]]></desc>
</trkpt>
<trkpt lat="36.683161" lon="137.758977">
<ele>2653.466785</ele>
<time>2014-08-17T05:54:51Z</time>
<desc><![CDATA[lat.=36.683161, lon.=137.758977, Alt.=2653.466785m. Speed=0.000000m/h.]]></desc>
</trkpt>
<trkpt lat="36.683164" lon="137.758984">
<ele>2654.657878</ele>
<time>2014-08-17T05:54:56Z</time>
<desc><![CDATA[lat.=36.683164, lon.=137.758984, Alt.=2654.657878m. Speed=1.000000m/h.]]></desc>
</trkpt>
<trkpt lat="36.683163" lon="137.759000">
<ele>2654.712470</ele>
<time>2014-08-17T05:55:01Z</time>
<desc><![CDATA[lat.=36.683163, lon.=137.759000, Alt.=2654.712470m. Speed=0.000000m/h.]]></desc>
</trkpt>
<trkpt lat="36.683171" lon="137.759000">
<ele>2655.309859</ele>
<time>2014-08-17T05:55:07Z</time>
<desc><![CDATA[lat.=36.683171, lon.=137.759000, Alt.=2655.309859m. Speed=0.000000m/h.]]></desc>
</trkpt>
<trkpt lat="36.683178" lon="137.759000">
<ele>2655.907249</ele>
<time>2014-08-17T05:55:13Z</time>
<desc><![CDATA[lat.=36.683178, lon.=137.759000, Alt.=2655.907249m. Speed=0.000000m/h.]]></desc>
</trkpt>
<trkpt lat="36.683185" lon="137.759000">
<ele>2656.504639</ele>
<time>2014-08-17T05:55:20Z</time>
<desc><![CDATA[lat.=36.683185, lon.=137.759000, Alt.=2656.504639m. Speed=0.000000m/h.]]></desc>
</trkpt>
<trkpt lat="36.683196" lon="137.758993">
<ele>2656.508325</ele>
<time>2014-08-17T05:55:25Z</time>
<desc><![CDATA[lat.=36.683196, lon.=137.758993, Alt.=2656.508325m. Speed=0.000000m/h.]]></desc>
</trkpt>
<trkpt lat="36.683222" lon="137.758969">
<ele>2657.652202</ele>
<time>2014-08-17T05:55:30Z</time>
<desc><![CDATA[lat.=36.683222, lon.=137.758969, Alt.=2657.652202m. Speed=2.000000m/h.]]></desc>
</trkpt>
<trkpt lat="36.683226" lon="137.758961">
<ele>2658.788704</ele>
<time>2014-08-17T05:55:35Z</time>
<desc><![CDATA[lat.=36.683226, lon.=137.758961, Alt.=2658.788704m. Speed=0.000000m/h.]]></desc>
</trkpt>
<trkpt lat="36.683233" lon="137.758961">
<ele>2659.386095</ele>
<time>2014-08-17T05:55:40Z</time>
<desc><![CDATA[lat.=36.683233, lon.=137.758961, Alt.=2659.386095m. Speed=0.000000m/h.]]></desc>
</trkpt>
<trkpt lat="36.683240" lon="137.758961">
<ele>2659.983485</ele>
<time>2014-08-17T05:55:53Z</time>
<desc><![CDATA[lat.=36.683240, lon.=137.758961, Alt.=2659.983485m. Speed=0.000000m/h.]]></desc>
</trkpt>
<trkpt lat="36.683251" lon="137.758969">
<ele>2660.041764</ele>
<time>2014-08-17T05:55:58Z</time>
<desc><![CDATA[lat.=36.683251, lon.=137.758969, Alt.=2660.041764m. Speed=0.000000m/h.]]></desc>
</trkpt>
<trkpt lat="36.683251" lon="137.758985">
<ele>2660.096355</ele>
<time>2014-08-17T05:56:03Z</time>
<desc><![CDATA[lat.=36.683251, lon.=137.758985, Alt.=2660.096355m. Speed=0.000000m/h.]]></desc>
</trkpt>
<trkpt lat="36.683254" lon="137.758993">
<ele>2661.287448</ele>
<time>2014-08-17T05:56:08Z</time>
<desc><![CDATA[lat.=36.683254, lon.=137.758993, Alt.=2661.287448m. Speed=0.000000m/h.]]></desc>
</trkpt>
<trkpt lat="36.683258" lon="137.759001">
<ele>2660.748337</ele>
<time>2014-08-17T05:56:22Z</time>
<desc><![CDATA[lat.=36.683258, lon.=137.759001, Alt.=2660.748337m. Speed=0.000000m/h.]]></desc>
</trkpt>
<trkpt lat="36.683265" lon="137.759001">
<ele>2661.345728</ele>
<time>2014-08-17T05:56:32Z</time>
<desc><![CDATA[lat.=36.683265, lon.=137.759001, Alt.=2661.345728m. Speed=0.000000m/h.]]></desc>
</trkpt>
<trkpt lat="36.683272" lon="137.759017">
<ele>2661.997710</ele>
<time>2014-08-17T05:56:37Z</time>
<desc><![CDATA[lat.=36.683272, lon.=137.759017, Alt.=2661.997710m. Speed=1.000000m/h.]]></desc>
</trkpt>
<trkpt lat="36.683282" lon="137.759024">
<ele>2663.786195</ele>
<time>2014-08-17T05:56:42Z</time>
<desc><![CDATA[lat.=36.683282, lon.=137.759024, Alt.=2663.786195m. Speed=0.000000m/h.]]></desc>
</trkpt>
<trkpt lat="36.683289" lon="137.759024">
<ele>2664.383586</ele>
<time>2014-08-17T05:56:47Z</time>
<desc><![CDATA[lat.=36.683289, lon.=137.759024, Alt.=2664.383586m. Speed=0.000000m/h.]]></desc>
</trkpt>
<trkpt lat="36.683297" lon="137.759024">
<ele>2664.980978</ele>
<time>2014-08-17T05:56:52Z</time>
<desc><![CDATA[lat.=36.683297, lon.=137.759024, Alt.=2664.980978m. Speed=0.000000m/h.]]></desc>
</trkpt>
<trkpt lat="36.683301" lon="137.759017">
<ele>2664.387275</ele>
<time>2014-08-17T05:56:59Z</time>
<desc><![CDATA[lat.=36.683301, lon.=137.759017, Alt.=2664.387275m. Speed=0.000000m/h.]]></desc>
</trkpt>
<trkpt lat="36.683297" lon="137.759024">
<ele>2664.980978</ele>
<time>2014-08-17T05:57:04Z</time>
<desc><![CDATA[lat.=36.683297, lon.=137.759024, Alt.=2664.980978m. Speed=0.000000m/h.]]></desc>
</trkpt>
<trkpt lat="36.683326" lon="137.759025">
<ele>2665.640339</ele>
<time>2014-08-17T05:57:09Z</time>
<desc><![CDATA[lat.=36.683326, lon.=137.759025, Alt.=2665.640339m. Speed=0.000000m/h.]]></desc>
</trkpt>
<trkpt lat="36.683333" lon="137.759025">
<ele>2666.237731</ele>
<time>2014-08-17T05:57:17Z</time>
<desc><![CDATA[lat.=36.683333, lon.=137.759025, Alt.=2666.237731m. Speed=0.000000m/h.]]></desc>
</trkpt>
<trkpt lat="36.683341" lon="137.759026">
<ele>2665.104918</ele>
<time>2014-08-17T05:57:22Z</time>
<desc><![CDATA[lat.=36.683341, lon.=137.759026, Alt.=2665.104918m. Speed=0.000000m/h.]]></desc>
</trkpt>
<trkpt lat="36.683337" lon="137.759033">
<ele>2665.698620</ele>
<time>2014-08-17T05:57:27Z</time>
<desc><![CDATA[lat.=36.683337, lon.=137.759033, Alt.=2665.698620m. Speed=0.000000m/h.]]></desc>
</trkpt>
<trkpt lat="36.683344" lon="137.759033">
<ele>2666.296012</ele>
<time>2014-08-17T05:57:32Z</time>
<desc><![CDATA[lat.=36.683344, lon.=137.759033, Alt.=2666.296012m. Speed=0.000000m/h.]]></desc>
</trkpt>
<trkpt lat="36.683362" lon="137.759026">
<ele>2666.897094</ele>
<time>2014-08-17T05:57:37Z</time>
<desc><![CDATA[lat.=36.683362, lon.=137.759026, Alt.=2666.897094m. Speed=0.000000m/h.]]></desc>
</trkpt>
<trkpt lat="36.683370" lon="137.759026">
<ele>2667.494487</ele>
<time>2014-08-17T05:57:42Z</time>
<desc><![CDATA[lat.=36.683370, lon.=137.759026, Alt.=2667.494487m. Speed=0.000000m/h.]]></desc>
</trkpt>
<trkpt lat="36.683377" lon="137.759026">
<ele>2668.091879</ele>
<time>2014-08-17T05:57:47Z</time>
<desc><![CDATA[lat.=36.683377, lon.=137.759026, Alt.=2668.091879m. Speed=0.000000m/h.]]></desc>
</trkpt>
<trkpt lat="36.683381" lon="137.759034">
<ele>2667.552769</ele>
<time>2014-08-17T05:57:52Z</time>
<desc><![CDATA[lat.=36.683381, lon.=137.759034, Alt.=2667.552769m. Speed=1.000000m/h.]]></desc>
</trkpt>
<trkpt lat="36.683384" lon="137.759042">
<ele>2667.013658</ele>
<time>2014-08-17T05:57:57Z</time>
<desc><![CDATA[lat.=36.683384, lon.=137.759042, Alt.=2667.013658m. Speed=0.000000m/h.]]></desc>
</trkpt>
<trkpt lat="36.683409" lon="137.759066">
<ele>2668.321319</ele>
<time>2014-08-17T05:58:02Z</time>
<desc><![CDATA[lat.=36.683409, lon.=137.759066, Alt.=2668.321319m. Speed=1.000000m/h.]]></desc>
</trkpt>
<trkpt lat="36.683419" lon="137.759057">
<ele>2671.785420</ele>
<time>2014-08-17T05:58:07Z</time>
<desc><![CDATA[lat.=36.683419, lon.=137.759057, Alt.=2671.785420m. Speed=0.000000m/h.]]></desc>
</trkpt>
<trkpt lat="36.683427" lon="137.759057">
<ele>2672.382813</ele>
<time>2014-08-17T05:58:12Z</time>
<desc><![CDATA[lat.=36.683427, lon.=137.759057, Alt.=2672.382813m. Speed=0.000000m/h.]]></desc>
</trkpt>
<trkpt lat="36.683434" lon="137.759057">
<ele>2672.980206</ele>
<time>2014-08-17T05:58:18Z</time>
<desc><![CDATA[lat.=36.683434, lon.=137.759057, Alt.=2672.980206m. Speed=0.000000m/h.]]></desc>
</trkpt>
<trkpt lat="36.683442" lon="137.759058">
<ele>2671.847395</ele>
<time>2014-08-17T05:58:25Z</time>
<desc><![CDATA[lat.=36.683442, lon.=137.759058, Alt.=2671.847395m. Speed=0.000000m/h.]]></desc>
</trkpt>
<trkpt lat="36.683441" lon="137.759074">
<ele>2671.901987</ele>
<time>2014-08-17T05:58:30Z</time>
<desc><![CDATA[lat.=36.683441, lon.=137.759074, Alt.=2671.901987m. Speed=0.000000m/h.]]></desc>
</trkpt>
<trkpt lat="36.683445" lon="137.759066">
<ele>2671.308285</ele>
<time>2014-08-17T05:58:35Z</time>
<desc><![CDATA[lat.=36.683445, lon.=137.759066, Alt.=2671.308285m. Speed=0.000000m/h.]]></desc>
</trkpt>
<trkpt lat="36.683448" lon="137.759074">
<ele>2672.499381</ele>
<time>2014-08-17T05:58:40Z</time>
<desc><![CDATA[lat.=36.683448, lon.=137.759074, Alt.=2672.499381m. Speed=0.000000m/h.]]></desc>
</trkpt>
<trkpt lat="36.683456" lon="137.759074">
<ele>2673.096774</ele>
<time>2014-08-17T05:58:46Z</time>
<desc><![CDATA[lat.=36.683456, lon.=137.759074, Alt.=2673.096774m. Speed=0.000000m/h.]]></desc>
</trkpt>
<trkpt lat="36.683470" lon="137.759091">
<ele>2672.615950</ele>
<time>2014-08-17T05:58:51Z</time>
<desc><![CDATA[lat.=36.683470, lon.=137.759091, Alt.=2672.615950m. Speed=1.000000m/h.]]></desc>
</trkpt>
<trkpt lat="36.683480" lon="137.759114">
<ele>2674.459033</ele>
<time>2014-08-17T05:58:56Z</time>
<desc><![CDATA[lat.=36.683480, lon.=137.759114, Alt.=2674.459033m. Speed=1.000000m/h.]]></desc>
</trkpt>
<trkpt lat="36.683491" lon="137.759122">
<ele>2674.517318</ele>
<time>2014-08-17T05:59:01Z</time>
<desc><![CDATA[lat.=36.683491, lon.=137.759122, Alt.=2674.517318m. Speed=0.000000m/h.]]></desc>
</trkpt>
<trkpt lat="36.683506" lon="137.759123">
<ele>2673.981902</ele>
<time>2014-08-17T05:59:06Z</time>
<desc><![CDATA[lat.=36.683506, lon.=137.759123, Alt.=2673.981902m. Speed=0.000000m/h.]]></desc>
</trkpt>
<trkpt lat="36.683509" lon="137.759130">
<ele>2675.172998</ele>
<time>2014-08-17T05:59:11Z</time>
<desc><![CDATA[lat.=36.683509, lon.=137.759130, Alt.=2675.172998m. Speed=0.000000m/h.]]></desc>
</trkpt>
<trkpt lat="36.683513" lon="137.759123">
<ele>2674.579296</ele>
<time>2014-08-17T05:59:16Z</time>
<desc><![CDATA[lat.=36.683513, lon.=137.759123, Alt.=2674.579296m. Speed=0.000000m/h.]]></desc>
</trkpt>
<trkpt lat="36.683517" lon="137.759131">
<ele>2674.040188</ele>
<time>2014-08-17T05:59:21Z</time>
<desc><![CDATA[lat.=36.683517, lon.=137.759131, Alt.=2674.040188m. Speed=0.000000m/h.]]></desc>
</trkpt>
<trkpt lat="36.683521" lon="137.759124">
<ele>2673.446486</ele>
<time>2014-08-17T05:59:26Z</time>
<desc><![CDATA[lat.=36.683521, lon.=137.759124, Alt.=2673.446486m. Speed=0.000000m/h.]]></desc>
</trkpt>
<trkpt lat="36.683524" lon="137.759132">
<ele>2672.907377</ele>
<time>2014-08-17T05:59:35Z</time>
<desc><![CDATA[lat.=36.683524, lon.=137.759132, Alt.=2672.907377m. Speed=0.000000m/h.]]></desc>
</trkpt>
<trkpt lat="36.683524" lon="137.759148">
<ele>2672.961971</ele>
<time>2014-08-17T05:59:42Z</time>
<desc><![CDATA[lat.=36.683524, lon.=137.759148, Alt.=2672.961971m. Speed=0.000000m/h.]]></desc>
</trkpt>
<trkpt lat="36.683535" lon="137.759156">
<ele>2673.020258</ele>
<time>2014-08-17T05:59:47Z</time>
<desc><![CDATA[lat.=36.683535, lon.=137.759156, Alt.=2673.020258m. Speed=1.000000m/h.]]></desc>
</trkpt>
<trkpt lat="36.683553" lon="137.759148">
<ele>2673.621346</ele>
<time>2014-08-17T05:59:52Z</time>
<desc><![CDATA[lat.=36.683553, lon.=137.759148, Alt.=2673.621346m. Speed=0.000000m/h.]]></desc>
</trkpt>
<trkpt lat="36.683578" lon="137.759157">
<ele>2674.874423</ele>
<time>2014-08-17T05:59:57Z</time>
<desc><![CDATA[lat.=36.683578, lon.=137.759157, Alt.=2674.874423m. Speed=0.000000m/h.]]></desc>
</trkpt>
<trkpt lat="36.683582" lon="137.759149">
<ele>2674.280722</ele>
<time>2014-08-17T06:00:04Z</time>
<desc><![CDATA[lat.=36.683582, lon.=137.759149, Alt.=2674.280722m. Speed=0.000000m/h.]]></desc>
</trkpt>
<trkpt lat="36.683578" lon="137.759157">
<ele>2674.874423</ele>
<time>2014-08-17T06:00:09Z</time>
<desc><![CDATA[lat.=36.683578, lon.=137.759157, Alt.=2674.874423m. Speed=0.000000m/h.]]></desc>
</trkpt>
<trkpt lat="36.683586" lon="137.759157">
<ele>2675.471819</ele>
<time>2014-08-17T06:00:17Z</time>
<desc><![CDATA[lat.=36.683586, lon.=137.759157, Alt.=2675.471819m. Speed=0.000000m/h.]]></desc>
</trkpt>
<trkpt lat="36.683601" lon="137.759158">
<ele>2674.936405</ele>
<time>2014-08-17T06:00:22Z</time>
<desc><![CDATA[lat.=36.683601, lon.=137.759158, Alt.=2674.936405m. Speed=0.000000m/h.]]></desc>
</trkpt>
<trkpt lat="36.683608" lon="137.759158">
<ele>2675.533801</ele>
<time>2014-08-17T06:00:30Z</time>
<desc><![CDATA[lat.=36.683608, lon.=137.759158, Alt.=2675.533801m. Speed=0.000000m/h.]]></desc>
</trkpt>
<trkpt lat="36.683611" lon="137.759166">
<ele>2674.994693</ele>
<time>2014-08-17T06:00:35Z</time>
<desc><![CDATA[lat.=36.683611, lon.=137.759166, Alt.=2674.994693m. Speed=0.000000m/h.]]></desc>
</trkpt>
<trkpt lat="36.683629" lon="137.759158">
<ele>2677.325988</ele>
<time>2014-08-17T06:00:40Z</time>
<desc><![CDATA[lat.=36.683629, lon.=137.759158, Alt.=2677.325988m. Speed=0.000000m/h.]]></desc>
</trkpt>
<trkpt lat="36.683640" lon="137.759149">
<ele>2679.059888</ele>
<time>2014-08-17T06:00:45Z</time>
<desc><![CDATA[lat.=36.683640, lon.=137.759149, Alt.=2679.059888m. Speed=0.000000m/h.]]></desc>
</trkpt>
<trkpt lat="36.683655" lon="137.759149">
<ele>2680.254680</ele>
<time>2014-08-17T06:00:50Z</time>
<desc><![CDATA[lat.=36.683655, lon.=137.759149, Alt.=2680.254680m. Speed=1.000000m/h.]]></desc>
</trkpt>
<trkpt lat="36.683658" lon="137.759158">
<ele>2679.715573</ele>
<time>2014-08-17T06:00:57Z</time>
<desc><![CDATA[lat.=36.683658, lon.=137.759158, Alt.=2679.715573m. Speed=0.000000m/h.]]></desc>
</trkpt>
<trkpt lat="36.683666" lon="137.759158">
<ele>2680.312970</ele>
<time>2014-08-17T06:01:02Z</time>
<desc><![CDATA[lat.=36.683666, lon.=137.759158, Alt.=2680.312970m. Speed=0.000000m/h.]]></desc>
</trkpt>
<trkpt lat="36.683676" lon="137.759149">
<ele>2682.046870</ele>
<time>2014-08-17T06:01:07Z</time>
<desc><![CDATA[lat.=36.683676, lon.=137.759149, Alt.=2682.046870m. Speed=0.000000m/h.]]></desc>
</trkpt>
<trkpt lat="36.683672" lon="137.759157">
<ele>2682.640571</ele>
<time>2014-08-17T06:01:12Z</time>
<desc><![CDATA[lat.=36.683672, lon.=137.759157, Alt.=2682.640571m. Speed=0.000000m/h.]]></desc>
</trkpt>
<trkpt lat="36.683680" lon="137.759157">
<ele>2683.237968</ele>
<time>2014-08-17T06:01:17Z</time>
<desc><![CDATA[lat.=36.683680, lon.=137.759157, Alt.=2683.237968m. Speed=0.000000m/h.]]></desc>
</trkpt>
<trkpt lat="36.683684" lon="137.759149">
<ele>2682.644267</ele>
<time>2014-08-17T06:01:22Z</time>
<desc><![CDATA[lat.=36.683684, lon.=137.759149, Alt.=2682.644267m. Speed=0.000000m/h.]]></desc>
</trkpt>
<trkpt lat="36.683691" lon="137.759149">
<ele>2683.241664</ele>
<time>2014-08-17T06:01:35Z</time>
<desc><![CDATA[lat.=36.683691, lon.=137.759149, Alt.=2683.241664m. Speed=0.000000m/h.]]></desc>
</trkpt>
<trkpt lat="36.683694" lon="137.759158">
<ele>2682.702557</ele>
<time>2014-08-17T06:01:40Z</time>
<desc><![CDATA[lat.=36.683694, lon.=137.759158, Alt.=2682.702557m. Speed=0.000000m/h.]]></desc>
</trkpt>
<trkpt lat="36.683698" lon="137.759166">
<ele>2682.163450</ele>
<time>2014-08-17T06:01:46Z</time>
<desc><![CDATA[lat.=36.683698, lon.=137.759166, Alt.=2682.163450m. Speed=1.000000m/h.]]></desc>
</trkpt>
<trkpt lat="36.683705" lon="137.759182">
<ele>2682.815442</ele>
<time>2014-08-17T06:01:51Z</time>
<desc><![CDATA[lat.=36.683705, lon.=137.759182, Alt.=2682.815442m. Speed=1.000000m/h.]]></desc>
</trkpt>
<trkpt lat="36.683720" lon="137.759182">
<ele>2682.280031</ele>
<time>2014-08-17T06:01:56Z</time>
<desc><![CDATA[lat.=36.683720, lon.=137.759182, Alt.=2682.280031m. Speed=0.000000m/h.]]></desc>
</trkpt>
<trkpt lat="36.683731" lon="137.759192">
<ele>2678.877913</ele>
<time>2014-08-17T06:02:01Z</time>
<desc><![CDATA[lat.=36.683731, lon.=137.759192, Alt.=2678.877913m. Speed=0.000000m/h.]]></desc>
</trkpt>
<trkpt lat="36.683735" lon="137.759200">
<ele>2680.069012</ele>
<time>2014-08-17T06:02:06Z</time>
<desc><![CDATA[lat.=36.683735, lon.=137.759200, Alt.=2680.069012m. Speed=0.000000m/h.]]></desc>
</trkpt>
<trkpt lat="36.683738" lon="137.759207">
<ele>2681.260110</ele>
<time>2014-08-17T06:02:11Z</time>
<desc><![CDATA[lat.=36.683738, lon.=137.759207, Alt.=2681.260110m. Speed=0.000000m/h.]]></desc>
</trkpt>
<trkpt lat="36.683745" lon="137.759223">
<ele>2681.912103</ele>
<time>2014-08-17T06:02:16Z</time>
<desc><![CDATA[lat.=36.683745, lon.=137.759223, Alt.=2681.912103m. Speed=0.000000m/h.]]></desc>
</trkpt>
<trkpt lat="36.683763" lon="137.759231">
<ele>2682.567793</ele>
<time>2014-08-17T06:02:21Z</time>
<desc><![CDATA[lat.=36.683763, lon.=137.759231, Alt.=2682.567793m. Speed=0.000000m/h.]]></desc>
</trkpt>
<trkpt lat="36.683777" lon="137.759231">
<ele>2683.762589</ele>
<time>2014-08-17T06:02:26Z</time>
<desc><![CDATA[lat.=36.683777, lon.=137.759231, Alt.=2683.762589m. Speed=0.000000m/h.]]></desc>
</trkpt>
<trkpt lat="36.683788" lon="137.759240">
<ele>2683.820882</ele>
<time>2014-08-17T06:02:31Z</time>
<desc><![CDATA[lat.=36.683788, lon.=137.759240, Alt.=2683.820882m. Speed=0.000000m/h.]]></desc>
</trkpt>
<trkpt lat="36.683791" lon="137.759247">
<ele>2685.011981</ele>
<time>2014-08-17T06:02:36Z</time>
<desc><![CDATA[lat.=36.683791, lon.=137.759247, Alt.=2685.011981m. Speed=1.000000m/h.]]></desc>
</trkpt>
<trkpt lat="36.683795" lon="137.759255">
<ele>2684.472876</ele>
<time>2014-08-17T06:02:41Z</time>
<desc><![CDATA[lat.=36.683795, lon.=137.759255, Alt.=2684.472876m. Speed=0.000000m/h.]]></desc>
</trkpt>
<trkpt lat="36.683798" lon="137.759264">
<ele>2683.933771</ele>
<time>2014-08-17T06:02:47Z</time>
<desc><![CDATA[lat.=36.683798, lon.=137.759264, Alt.=2683.933771m. Speed=0.000000m/h.]]></desc>
</trkpt>
<trkpt lat="36.683817" lon="137.759273">
<ele>2682.859259</ele>
<time>2014-08-17T06:02:52Z</time>
<desc><![CDATA[lat.=36.683817, lon.=137.759273, Alt.=2682.859259m. Speed=1.000000m/h.]]></desc>
</trkpt>
<trkpt lat="36.683817" lon="137.759272">
<ele>2684.589463</ele>
<time>2014-08-17T06:02:57Z</time>
<desc><![CDATA[lat.=36.683817, lon.=137.759272, Alt.=2684.589463m. Speed=0.000000m/h.]]></desc>
</trkpt>
<trkpt lat="36.683842" lon="137.759281">
<ele>2684.112351</ele>
<time>2014-08-17T06:03:02Z</time>
<desc><![CDATA[lat.=36.683842, lon.=137.759281, Alt.=2684.112351m. Speed=1.000000m/h.]]></desc>
</trkpt>
<trkpt lat="36.683879" lon="137.759282">
<ele>2685.369143</ele>
<time>2014-08-17T06:03:07Z</time>
<desc><![CDATA[lat.=36.683879, lon.=137.759282, Alt.=2685.369143m. Speed=3.000000m/h.]]></desc>
</trkpt>
<trkpt lat="36.683926" lon="137.759274">
<ele>2688.359841</ele>
<time>2014-08-17T06:03:12Z</time>
<desc><![CDATA[lat.=36.683926, lon.=137.759274, Alt.=2688.359841m. Speed=3.000000m/h.]]></desc>
</trkpt>
<trkpt lat="36.683941" lon="137.759291">
<ele>2687.879034</ele>
<time>2014-08-17T06:03:17Z</time>
<desc><![CDATA[lat.=36.683941, lon.=137.759291, Alt.=2687.879034m. Speed=2.000000m/h.]]></desc>
</trkpt>
<trkpt lat="36.683978" lon="137.759310">
<ele>2683.999817</ele>
<time>2014-08-17T06:03:22Z</time>
<desc><![CDATA[lat.=36.683978, lon.=137.759310, Alt.=2683.999817m. Speed=2.000000m/h.]]></desc>
</trkpt>
<trkpt lat="36.684003" lon="137.759318">
<ele>2685.252917</ele>
<time>2014-08-17T06:03:27Z</time>
<desc><![CDATA[lat.=36.684003, lon.=137.759318, Alt.=2685.252917m. Speed=2.000000m/h.]]></desc>
</trkpt>
<trkpt lat="36.684044" lon="137.759311">
<ele>2685.916021</ele>
<time>2014-08-17T06:03:32Z</time>
<desc><![CDATA[lat.=36.684044, lon.=137.759311, Alt.=2685.916021m. Speed=2.000000m/h.]]></desc>
</trkpt>
<trkpt lat="36.684080" lon="137.759329">
<ele>2683.767016</ele>
<time>2014-08-17T06:03:37Z</time>
<desc><![CDATA[lat.=36.684080, lon.=137.759329, Alt.=2683.767016m. Speed=2.000000m/h.]]></desc>
</trkpt>
<trkpt lat="36.684091" lon="137.759287">
<ele>2690.582342</ele>
<time>2014-08-17T06:03:42Z</time>
<desc><![CDATA[lat.=36.684091, lon.=137.759287, Alt.=2690.582342m. Speed=2.000000m/h.]]></desc>
</trkpt>
<trkpt lat="36.684098" lon="137.759287">
<ele>2691.179745</ele>
<time>2014-08-17T06:03:47Z</time>
<desc><![CDATA[lat.=36.684098, lon.=137.759287, Alt.=2691.179745m. Speed=1.000000m/h.]]></desc>
</trkpt>
<trkpt lat="36.684135" lon="137.759289">
<ele>2688.976146</ele>
<time>2014-08-17T06:03:52Z</time>
<desc><![CDATA[lat.=36.684135, lon.=137.759289, Alt.=2688.976146m. Speed=2.000000m/h.]]></desc>
</trkpt>
<trkpt lat="36.684180" lon="137.759276">
<ele>2687.315358</ele>
<time>2014-08-17T06:03:57Z</time>
<desc><![CDATA[lat.=36.684180, lon.=137.759276, Alt.=2687.315358m. Speed=3.000000m/h.]]></desc>
</trkpt>
<trkpt lat="36.684247" lon="137.759263">
<ele>2685.716583</ele>
<time>2014-08-17T06:04:02Z</time>
<desc><![CDATA[lat.=36.684247, lon.=137.759263, Alt.=2685.716583m. Speed=4.000000m/h.]]></desc>
</trkpt>
<trkpt lat="36.684306" lon="137.759265">
<ele>2687.035416</ele>
<time>2014-08-17T06:04:07Z</time>
<desc><![CDATA[lat.=36.684306, lon.=137.759265, Alt.=2687.035416m. Speed=4.000000m/h.]]></desc>
</trkpt>
<trkpt lat="36.684308" lon="137.759271">
<ele>2689.956723</ele>
<time>2014-08-17T06:04:12Z</time>
<desc><![CDATA[lat.=36.684308, lon.=137.759271, Alt.=2689.956723m. Speed=3.000000m/h.]]></desc>
</trkpt>
<trkpt lat="36.684331" lon="137.759274">
<ele>2686.558328</ele>
<time>2014-08-17T06:04:17Z</time>
<desc><![CDATA[lat.=36.684331, lon.=137.759274, Alt.=2686.558328m. Speed=0.000000m/h.]]></desc>
</trkpt>
<trkpt lat="36.684331" lon="137.759256">
<ele>2689.964140</ele>
<time>2014-08-17T06:04:22Z</time>
<desc><![CDATA[lat.=36.684331, lon.=137.759256, Alt.=2689.964140m. Speed=0.000000m/h.]]></desc>
</trkpt>
<trkpt lat="36.684312" lon="137.759263">
<ele>2691.093230</ele>
<time>2014-08-17T06:04:27Z</time>
<desc><![CDATA[lat.=36.684312, lon.=137.759263, Alt.=2691.093230m. Speed=0.000000m/h.]]></desc>
</trkpt>
<trkpt lat="36.684308" lon="137.759255">
<ele>2691.632331</ele>
<time>2014-08-17T06:04:32Z</time>
<desc><![CDATA[lat.=36.684308, lon.=137.759255, Alt.=2691.632331m. Speed=0.000000m/h.]]></desc>
</trkpt>
<trkpt lat="36.684312" lon="137.759247">
<ele>2692.768838</ele>
<time>2014-08-17T06:04:37Z</time>
<desc><![CDATA[lat.=36.684312, lon.=137.759247, Alt.=2692.768838m. Speed=0.000000m/h.]]></desc>
</trkpt>
<trkpt lat="36.684331" lon="137.759224">
<ele>2691.585153</ele>
<time>2014-08-17T06:04:42Z</time>
<desc><![CDATA[lat.=36.684331, lon.=137.759224, Alt.=2691.585153m. Speed=2.000000m/h.]]></desc>
</trkpt>
<trkpt lat="36.684346" lon="137.759209">
<ele>2690.995166</ele>
<time>2014-08-17T06:04:47Z</time>
<desc><![CDATA[lat.=36.684346, lon.=137.759209, Alt.=2690.995166m. Speed=2.000000m/h.]]></desc>
</trkpt>
<trkpt lat="36.684358" lon="137.759202">
<ele>2689.268672</ele>
<time>2014-08-17T06:04:52Z</time>
<desc><![CDATA[lat.=36.684358, lon.=137.759202, Alt.=2689.268672m. Speed=1.000000m/h.]]></desc>
</trkpt>
<trkpt lat="36.684389" lon="137.759173">
<ele>2686.358497</ele>
<time>2014-08-17T06:04:57Z</time>
<desc><![CDATA[lat.=36.684389, lon.=137.759173, Alt.=2686.358497m. Speed=2.000000m/h.]]></desc>
</trkpt>
<trkpt lat="36.684414" lon="137.759165">
<ele>2687.557022</ele>
<time>2014-08-17T06:05:02Z</time>
<desc><![CDATA[lat.=36.684414, lon.=137.759165, Alt.=2687.557022m. Speed=2.000000m/h.]]></desc>
</trkpt>
<trkpt lat="36.684430" lon="137.759134">
<ele>2686.912445</ele>
<time>2014-08-17T06:05:07Z</time>
<desc><![CDATA[lat.=36.684430, lon.=137.759134, Alt.=2686.912445m. Speed=1.000000m/h.]]></desc>
</trkpt>
<trkpt lat="36.684442" lon="137.759111">
<ele>2686.861565</ele>
<time>2014-08-17T06:05:12Z</time>
<desc><![CDATA[lat.=36.684442, lon.=137.759111, Alt.=2686.861565m. Speed=1.000000m/h.]]></desc>
</trkpt>
<trkpt lat="36.684438" lon="137.759119">
<ele>2687.455260</ele>
<time>2014-08-17T06:05:17Z</time>
<desc><![CDATA[lat.=36.684438, lon.=137.759119, Alt.=2687.455260m. Speed=0.000000m/h.]]></desc>
</trkpt>
<trkpt lat="36.684434" lon="137.759110">
<ele>2687.994362</ele>
<time>2014-08-17T06:05:22Z</time>
<desc><![CDATA[lat.=36.684434, lon.=137.759110, Alt.=2687.994362m. Speed=0.000000m/h.]]></desc>
</trkpt>
<trkpt lat="36.684430" lon="137.759119">
<ele>2686.857852</ele>
<time>2014-08-17T06:05:27Z</time>
<desc><![CDATA[lat.=36.684430, lon.=137.759119, Alt.=2686.857852m. Speed=0.000000m/h.]]></desc>
</trkpt>
<trkpt lat="36.684450" lon="137.759081">
<ele>2683.889379</ele>
<time>2014-08-17T06:05:32Z</time>
<desc><![CDATA[lat.=36.684450, lon.=137.759081, Alt.=2683.889379m. Speed=2.000000m/h.]]></desc>
</trkpt>
<trkpt lat="36.684480" lon="137.759116">
<ele>2679.467379</ele>
<time>2014-08-17T06:05:37Z</time>
<desc><![CDATA[lat.=36.684480, lon.=137.759116, Alt.=2679.467379m. Speed=2.000000m/h.]]></desc>
</trkpt>
<trkpt lat="36.684524" lon="137.759150">
<ele>2676.240198</ele>
<time>2014-08-17T06:05:42Z</time>
<desc><![CDATA[lat.=36.684524, lon.=137.759150, Alt.=2676.240198m. Speed=3.000000m/h.]]></desc>
</trkpt>
<trkpt lat="36.684550" lon="137.759159">
<ele>2675.763119</ele>
<time>2014-08-17T06:05:47Z</time>
<desc><![CDATA[lat.=36.684550, lon.=137.759159, Alt.=2675.763119m. Speed=3.000000m/h.]]></desc>
</trkpt>
<trkpt lat="36.684542" lon="137.759159">
<ele>2675.165711</ele>
<time>2014-08-17T06:05:52Z</time>
<desc><![CDATA[lat.=36.684542, lon.=137.759159, Alt.=2675.165711m. Speed=1.000000m/h.]]></desc>
</trkpt>
<trkpt lat="36.684598" lon="137.759153">
<ele>2675.293473</ele>
<time>2014-08-17T06:05:57Z</time>
<desc><![CDATA[lat.=36.684598, lon.=137.759153, Alt.=2675.293473m. Speed=3.000000m/h.]]></desc>
</trkpt>
<trkpt lat="36.684642" lon="137.759187">
<ele>2673.796508</ele>
<time>2014-08-17T06:06:02Z</time>
<desc><![CDATA[lat.=36.684642, lon.=137.759187, Alt.=2673.796508m. Speed=3.000000m/h.]]></desc>
</trkpt>
<trkpt lat="36.684693" lon="137.759190">
<ele>2672.787770</ele>
<time>2014-08-17T06:06:07Z</time>
<desc><![CDATA[lat.=36.684693, lon.=137.759190, Alt.=2672.787770m. Speed=3.000000m/h.]]></desc>
</trkpt>
<trkpt lat="36.684719" lon="137.759182">
<ele>2673.986310</ele>
<time>2014-08-17T06:06:12Z</time>
<desc><![CDATA[lat.=36.684719, lon.=137.759182, Alt.=2673.986310m. Speed=3.000000m/h.]]></desc>
</trkpt>
<trkpt lat="36.684755" lon="137.759199">
<ele>2673.567554</ele>
<time>2014-08-17T06:06:17Z</time>
<desc><![CDATA[lat.=36.684755, lon.=137.759199, Alt.=2673.567554m. Speed=3.000000m/h.]]></desc>
</trkpt>
<trkpt lat="36.684773" lon="137.759223">
<ele>2674.277874</ele>
<time>2014-08-17T06:06:22Z</time>
<desc><![CDATA[lat.=36.684773, lon.=137.759223, Alt.=2674.277874m. Speed=2.000000m/h.]]></desc>
</trkpt>
<trkpt lat="36.684773" lon="137.759272">
<ele>2670.981252</ele>
<time>2014-08-17T06:06:27Z</time>
<desc><![CDATA[lat.=36.684773, lon.=137.759272, Alt.=2670.981252m. Speed=2.000000m/h.]]></desc>
</trkpt>
<trkpt lat="36.684795" lon="137.759273">
<ele>2671.043285</ele>
<time>2014-08-17T06:06:32Z</time>
<desc><![CDATA[lat.=36.684795, lon.=137.759273, Alt.=2671.043285m. Speed=1.000000m/h.]]></desc>
</trkpt>
<trkpt lat="36.684799" lon="137.759266">
<ele>2670.449591</ele>
<time>2014-08-17T06:06:37Z</time>
<desc><![CDATA[lat.=36.684799, lon.=137.759266, Alt.=2670.449591m. Speed=0.000000m/h.]]></desc>
</trkpt>
<trkpt lat="36.684828" lon="137.759283">
<ele>2669.433430</ele>
<time>2014-08-17T06:06:42Z</time>
<desc><![CDATA[lat.=36.684828, lon.=137.759283, Alt.=2669.433430m. Speed=2.000000m/h.]]></desc>
</trkpt>
<trkpt lat="36.684857" lon="137.759283">
<ele>2671.823082</ele>
<time>2014-08-17T06:06:47Z</time>
<desc><![CDATA[lat.=36.684857, lon.=137.759283, Alt.=2671.823082m. Speed=3.000000m/h.]]></desc>
</trkpt>
<trkpt lat="36.684893" lon="137.759300">
<ele>2671.404338</ele>
<time>2014-08-17T06:06:52Z</time>
<desc><![CDATA[lat.=36.684893, lon.=137.759300, Alt.=2671.404338m. Speed=3.000000m/h.]]></desc>
</trkpt>
<trkpt lat="36.684938" lon="137.759318">
<ele>2669.852808</ele>
<time>2014-08-17T06:06:57Z</time>
<desc><![CDATA[lat.=36.684938, lon.=137.759318, Alt.=2669.852808m. Speed=3.000000m/h.]]></desc>
</trkpt>
<trkpt lat="36.684963" lon="137.759327">
<ele>2671.105955</ele>
<time>2014-08-17T06:07:02Z</time>
<desc><![CDATA[lat.=36.684963, lon.=137.759327, Alt.=2671.105955m. Speed=3.000000m/h.]]></desc>
</trkpt>
<trkpt lat="36.684989" lon="137.759303">
<ele>2672.249911</ele>
<time>2014-08-17T06:07:07Z</time>
<desc><![CDATA[lat.=36.684989, lon.=137.759303, Alt.=2672.249911m. Speed=2.000000m/h.]]></desc>
</trkpt>
<trkpt lat="36.684993" lon="137.759279">
<ele>2673.331826</ele>
<time>2014-08-17T06:07:12Z</time>
<desc><![CDATA[lat.=36.684993, lon.=137.759279, Alt.=2673.331826m. Speed=0.000000m/h.]]></desc>
</trkpt>
<trkpt lat="36.685000" lon="137.759279">
<ele>2673.929241</ele>
<time>2014-08-17T06:07:17Z</time>
<desc><![CDATA[lat.=36.685000, lon.=137.759279, Alt.=2673.929241m. Speed=0.000000m/h.]]></desc>
</trkpt>
<trkpt lat="36.684996" lon="137.759287">
<ele>2674.522933</ele>
<time>2014-08-17T06:07:22Z</time>
<desc><![CDATA[lat.=36.684996, lon.=137.759287, Alt.=2674.522933m. Speed=0.000000m/h.]]></desc>
</trkpt>
<trkpt lat="36.685000" lon="137.759279">
<ele>2673.929241</ele>
<time>2014-08-17T06:07:27Z</time>
<desc><![CDATA[lat.=36.685000, lon.=137.759279, Alt.=2673.929241m. Speed=0.000000m/h.]]></desc>
</trkpt>
<trkpt lat="36.685034" lon="137.759257">
<ele>2673.940413</ele>
<time>2014-08-17T06:07:32Z</time>
<desc><![CDATA[lat.=36.685034, lon.=137.759257, Alt.=2673.940413m. Speed=3.000000m/h.]]></desc>
</trkpt>
<trkpt lat="36.685090" lon="137.759203">
<ele>2673.904443</ele>
<time>2014-08-17T06:07:37Z</time>
<desc><![CDATA[lat.=36.685090, lon.=137.759203, Alt.=2673.904443m. Speed=5.000000m/h.]]></desc>
</trkpt>
<trkpt lat="36.685150" lon="137.759157">
<ele>2675.059591</ele>
<time>2014-08-17T06:07:42Z</time>
<desc><![CDATA[lat.=36.685150, lon.=137.759157, Alt.=2675.059591m. Speed=5.000000m/h.]]></desc>
</trkpt>
<trkpt lat="36.685205" lon="137.759152">
<ele>2673.457215</ele>
<time>2014-08-17T06:07:47Z</time>
<desc><![CDATA[lat.=36.685205, lon.=137.759152, Alt.=2673.457215m. Speed=5.000000m/h.]]></desc>
</trkpt>
<trkpt lat="36.685250" lon="137.759138">
<ele>2673.526725</ele>
<time>2014-08-17T06:07:52Z</time>
<desc><![CDATA[lat.=36.685250, lon.=137.759138, Alt.=2673.526725m. Speed=4.000000m/h.]]></desc>
</trkpt>
<trkpt lat="36.685254" lon="137.759130">
<ele>2672.933036</ele>
<time>2014-08-17T06:07:57Z</time>
<desc><![CDATA[lat.=36.685254, lon.=137.759130, Alt.=2672.933036m. Speed=1.000000m/h.]]></desc>
</trkpt>
</trkseg>
</trk>
</gpx>